<?xml version="1.0" encoding="UTF-8"?>
<gpx version="1.1" creator="https://www.youtrack.es" xsi:schemaLocation="http://www.topografix.com/GPX/1/1 http://www.topografix.com/GPX/1/1/gpx.xsd http://www.garmin.com/xmlschemas/GpxExtensions/v3 http://www.garmin.com/xmlschemas/GpxExtensionsv3.xsd http://www.garmin.com/xmlschemas/TrackPointExtension/v1 http://www.garmin.com/xmlschemas/TrackPointExtensionv1.xsd" xmlns:gpxtpx="http://www.garmin.com/xmlschemas/TrackPointExtension/v1" xmlns:gpxx="http://www.garmin.com/xmlschemas/GpxExtensions/v3" xmlns:xsi="http://www.w3.org/2001/XMLSchema-instance">
  <metadata>
    <link href="https://www.youtrack.es">
      <text>YouTrack.es</text>
    </link>
    <time>2026-05-10T19:20:26Z</time>
  </metadata>
  <trk>
    <src>https://www.youtrack.es</src>
    <link href="https://www.youtrack.es/ruta/8256-recorrido-drone-punta-comejen">
      <text>YouTrack.es</text>
    </link>
    <trkseg>
      <trkpt lat="10.158517531756" lon="-75.6812797868137">
        <ele>2.3778713</ele>
        <time>2019-09-10T15:30:34.200Z</time>
      </trkpt>
      <trkpt lat="10.15851756598" lon="-75.6812797674296">
        <ele>2.3778713</ele>
        <time>2019-09-10T15:30:34.300Z</time>
      </trkpt>
      <trkpt lat="10.1585175952139" lon="-75.6812797574207">
        <ele>2.3778713</ele>
        <time>2019-09-10T15:30:34.400Z</time>
      </trkpt>
      <trkpt lat="10.1585176189193" lon="-75.6812797458197">
        <ele>2.3778713</ele>
        <time>2019-09-10T15:30:34.500Z</time>
      </trkpt>
      <trkpt lat="10.158517634318" lon="-75.6812797433066">
        <ele>2.3778713</ele>
        <time>2019-09-10T15:30:34.600Z</time>
      </trkpt>
      <trkpt lat="10.158517649264" lon="-75.681279737421">
        <ele>2.3778713</ele>
        <time>2019-09-10T15:30:34.700Z</time>
      </trkpt>
      <trkpt lat="10.1585176548517" lon="-75.6812797400026">
        <ele>2.3778713</ele>
        <time>2019-09-10T15:30:34.800Z</time>
      </trkpt>
      <trkpt lat="10.1585176635493" lon="-75.6812797370349">
        <ele>2.3778713</ele>
        <time>2019-09-10T15:30:34.900Z</time>
      </trkpt>
      <trkpt lat="10.1585176627926" lon="-75.6812797414118">
        <ele>2.3778713</ele>
        <time>2019-09-10T15:30:35.000Z</time>
      </trkpt>
      <trkpt lat="10.158517666264" lon="-75.6812797414594">
        <ele>2.3778713</ele>
        <time>2019-09-10T15:30:35.100Z</time>
      </trkpt>
      <trkpt lat="10.1585176621906" lon="-75.6812797074865">
        <ele>2.3778713</ele>
        <time>2019-09-10T15:30:35.200Z</time>
      </trkpt>
      <trkpt lat="10.1585176627241" lon="-75.6812796791216">
        <ele>2.3778713</ele>
        <time>2019-09-10T15:30:35.300Z</time>
      </trkpt>
      <trkpt lat="10.1585176164516" lon="-75.6812796603414">
        <ele>2.3778713</ele>
        <time>2019-09-10T15:30:35.400Z</time>
      </trkpt>
      <trkpt lat="10.15851758575" lon="-75.6812796424191">
        <ele>2.3778713</ele>
        <time>2019-09-10T15:30:35.500Z</time>
      </trkpt>
      <trkpt lat="10.1585175572051" lon="-75.6812796378793">
        <ele>2.3778713</ele>
        <time>2019-09-10T15:30:35.600Z</time>
      </trkpt>
      <trkpt lat="10.1585175380627" lon="-75.6812796295017">
        <ele>2.3778713</ele>
        <time>2019-09-10T15:30:35.700Z</time>
      </trkpt>
      <trkpt lat="10.158517522343" lon="-75.6812796325393">
        <ele>2.3778713</ele>
        <time>2019-09-10T15:30:35.800Z</time>
      </trkpt>
      <trkpt lat="10.1585175123076" lon="-75.6812796292715">
        <ele>2.3778713</ele>
        <time>2019-09-10T15:30:35.900Z</time>
      </trkpt>
      <trkpt lat="10.158517466526" lon="-75.6812796337819">
        <ele>2.3778713</ele>
        <time>2019-09-10T15:30:36.000Z</time>
      </trkpt>
      <trkpt lat="10.1585174326828" lon="-75.6812796324706">
        <ele>2.3778713</ele>
        <time>2019-09-10T15:30:36.100Z</time>
      </trkpt>
      <trkpt lat="10.1585173997655" lon="-75.6812796324357">
        <ele>2.3778713</ele>
        <time>2019-09-10T15:30:36.200Z</time>
      </trkpt>
      <trkpt lat="10.1585173694131" lon="-75.6812796071882">
        <ele>2.3778713</ele>
        <time>2019-09-10T15:30:36.300Z</time>
      </trkpt>
      <trkpt lat="10.1585173649066" lon="-75.6812795000443">
        <ele>2.3778713</ele>
        <time>2019-09-10T15:30:36.400Z</time>
      </trkpt>
      <trkpt lat="10.1585173738633" lon="-75.6812793730667">
        <ele>2.3778713</ele>
        <time>2019-09-10T15:30:36.500Z</time>
      </trkpt>
      <trkpt lat="10.1585174421933" lon="-75.6812791918093">
        <ele>2.4778713</ele>
        <time>2019-09-10T15:30:36.600Z</time>
      </trkpt>
      <trkpt lat="10.1585174998952" lon="-75.6812790179057">
        <ele>2.5778713</ele>
        <time>2019-09-10T15:30:36.700Z</time>
      </trkpt>
      <trkpt lat="10.1585175071076" lon="-75.6812788952615">
        <ele>2.5778713</ele>
        <time>2019-09-10T15:30:36.800Z</time>
      </trkpt>
      <trkpt lat="10.1585175238274" lon="-75.6812787699552">
        <ele>2.5778713</ele>
        <time>2019-09-10T15:30:36.900Z</time>
      </trkpt>
      <trkpt lat="10.1585176460823" lon="-75.6812787122407">
        <ele>2.6778713</ele>
        <time>2019-09-10T15:30:37.000Z</time>
      </trkpt>
      <trkpt lat="10.1585177478333" lon="-75.6812786386936">
        <ele>2.6778713</ele>
        <time>2019-09-10T15:30:37.100Z</time>
      </trkpt>
      <trkpt lat="10.1585177398696" lon="-75.6812785533367">
        <ele>2.7778713</ele>
        <time>2019-09-10T15:30:37.200Z</time>
      </trkpt>
      <trkpt lat="10.1585177480506" lon="-75.6812784675294">
        <ele>2.7778713</ele>
        <time>2019-09-10T15:30:37.300Z</time>
      </trkpt>
      <trkpt lat="10.1585177655322" lon="-75.68127831618">
        <ele>2.8778713</ele>
        <time>2019-09-10T15:30:37.400Z</time>
      </trkpt>
      <trkpt lat="10.1585177958607" lon="-75.6812781906573">
        <ele>2.8778713</ele>
        <time>2019-09-10T15:30:37.500Z</time>
      </trkpt>
      <trkpt lat="10.1585178784532" lon="-75.6812782075989">
        <ele>2.9778713</ele>
        <time>2019-09-10T15:30:37.600Z</time>
      </trkpt>
      <trkpt lat="10.1585179533886" lon="-75.6812782103298">
        <ele>2.9778713</ele>
        <time>2019-09-10T15:30:37.700Z</time>
      </trkpt>
      <trkpt lat="10.1585179884133" lon="-75.6812781627418">
        <ele>3.0778713</ele>
        <time>2019-09-10T15:30:37.800Z</time>
      </trkpt>
      <trkpt lat="10.1585180232834" lon="-75.6812781486567">
        <ele>3.1778713</ele>
        <time>2019-09-10T15:30:38.000Z</time>
      </trkpt>
      <trkpt lat="10.1585180243322" lon="-75.6812781675727">
        <ele>3.1778713</ele>
        <time>2019-09-10T15:30:38.100Z</time>
      </trkpt>
      <trkpt lat="10.1585181040645" lon="-75.6812782095315">
        <ele>3.2778713</ele>
        <time>2019-09-10T15:30:38.200Z</time>
      </trkpt>
      <trkpt lat="10.1585181697951" lon="-75.6812782379083">
        <ele>3.2778713</ele>
        <time>2019-09-10T15:30:38.300Z</time>
      </trkpt>
      <trkpt lat="10.1585181527919" lon="-75.6812782325203">
        <ele>3.3778713</ele>
        <time>2019-09-10T15:30:38.400Z</time>
      </trkpt>
      <trkpt lat="10.1585181563621" lon="-75.681278209991">
        <ele>3.3778713</ele>
        <time>2019-09-10T15:30:38.500Z</time>
      </trkpt>
      <trkpt lat="10.1585182264424" lon="-75.68127821137">
        <ele>3.4778713</ele>
        <time>2019-09-10T15:30:38.600Z</time>
      </trkpt>
      <trkpt lat="10.1585182912845" lon="-75.681278191859">
        <ele>3.4778713</ele>
        <time>2019-09-10T15:30:38.700Z</time>
      </trkpt>
      <trkpt lat="10.1585182500315" lon="-75.6812781229659">
        <ele>3.5778713</ele>
        <time>2019-09-10T15:30:38.800Z</time>
      </trkpt>
      <trkpt lat="10.1585182275486" lon="-75.6812780540263">
        <ele>3.6778713</ele>
        <time>2019-09-10T15:30:38.900Z</time>
      </trkpt>
      <trkpt lat="10.158518261818" lon="-75.6812779725116">
        <ele>3.7778713</ele>
        <time>2019-09-10T15:30:39.000Z</time>
      </trkpt>
      <trkpt lat="10.1585183020567" lon="-75.6812778903133">
        <ele>3.8778713</ele>
        <time>2019-09-10T15:30:39.100Z</time>
      </trkpt>
      <trkpt lat="10.1585183167862" lon="-75.6812778142095">
        <ele>3.9778713</ele>
        <time>2019-09-10T15:30:39.200Z</time>
      </trkpt>
      <trkpt lat="10.1585183200609" lon="-75.681277751851">
        <ele>4.1778713</ele>
        <time>2019-09-10T15:30:39.300Z</time>
      </trkpt>
      <trkpt lat="10.1585183288831" lon="-75.6812777313111">
        <ele>4.3778713</ele>
        <time>2019-09-10T15:30:39.400Z</time>
      </trkpt>
      <trkpt lat="10.1585183245532" lon="-75.6812777316625">
        <ele>4.5778713</ele>
        <time>2019-09-10T15:30:39.500Z</time>
      </trkpt>
      <trkpt lat="10.1585182951177" lon="-75.6812778292916">
        <ele>4.7778713</ele>
        <time>2019-09-10T15:30:39.600Z</time>
      </trkpt>
      <trkpt lat="10.1585182788659" lon="-75.6812778925856">
        <ele>5.0778713</ele>
        <time>2019-09-10T15:30:39.700Z</time>
      </trkpt>
      <trkpt lat="10.1585182375113" lon="-75.6812779739669">
        <ele>5.3778713</ele>
        <time>2019-09-10T15:30:39.800Z</time>
      </trkpt>
      <trkpt lat="10.1585181901584" lon="-75.6812780126076">
        <ele>5.6778713</ele>
        <time>2019-09-10T15:30:39.900Z</time>
      </trkpt>
      <trkpt lat="10.1585181419855" lon="-75.6812780252344">
        <ele>5.9778713</ele>
        <time>2019-09-10T15:30:40.000Z</time>
      </trkpt>
      <trkpt lat="10.1585180996314" lon="-75.6812780332708">
        <ele>6.2778713</ele>
        <time>2019-09-10T15:30:40.100Z</time>
      </trkpt>
      <trkpt lat="10.1585180477189" lon="-75.681278000304">
        <ele>6.5778713</ele>
        <time>2019-09-10T15:30:40.200Z</time>
      </trkpt>
      <trkpt lat="10.1585180140941" lon="-75.68127796216">
        <ele>6.8778713</ele>
        <time>2019-09-10T15:30:40.300Z</time>
      </trkpt>
      <trkpt lat="10.1585180169268" lon="-75.6812778855891">
        <ele>7.1778713</ele>
        <time>2019-09-10T15:30:40.400Z</time>
      </trkpt>
      <trkpt lat="10.1585180085373" lon="-75.681277820602">
        <ele>7.5778713</ele>
        <time>2019-09-10T15:30:40.500Z</time>
      </trkpt>
      <trkpt lat="10.1585179684263" lon="-75.6812777888584">
        <ele>7.8778713</ele>
        <time>2019-09-10T15:30:40.600Z</time>
      </trkpt>
      <trkpt lat="10.1585179312131" lon="-75.6812777548032">
        <ele>8.1778713</ele>
        <time>2019-09-10T15:30:40.700Z</time>
      </trkpt>
      <trkpt lat="10.1585178785811" lon="-75.6812777008756">
        <ele>8.4778713</ele>
        <time>2019-09-10T15:30:40.800Z</time>
      </trkpt>
      <trkpt lat="10.1585178535986" lon="-75.6812776260202">
        <ele>8.7778713</ele>
        <time>2019-09-10T15:30:40.900Z</time>
      </trkpt>
      <trkpt lat="10.1585178379683" lon="-75.6812775575158">
        <ele>9.0778713</ele>
        <time>2019-09-10T15:30:41.000Z</time>
      </trkpt>
      <trkpt lat="10.1585178471221" lon="-75.6812774803401">
        <ele>9.3778713</ele>
        <time>2019-09-10T15:30:41.100Z</time>
      </trkpt>
      <trkpt lat="10.1585178657408" lon="-75.6812773908799">
        <ele>9.6778713</ele>
        <time>2019-09-10T15:30:41.200Z</time>
      </trkpt>
      <trkpt lat="10.1585178758555" lon="-75.6812773355791">
        <ele>9.9778713</ele>
        <time>2019-09-10T15:30:41.300Z</time>
      </trkpt>
      <trkpt lat="10.158517860575" lon="-75.6812773407221">
        <ele>10.3778713</ele>
        <time>2019-09-10T15:30:41.400Z</time>
      </trkpt>
      <trkpt lat="10.158517825802" lon="-75.6812773451369">
        <ele>10.6778713</ele>
        <time>2019-09-10T15:30:41.500Z</time>
      </trkpt>
      <trkpt lat="10.1585177480012" lon="-75.6812773138108">
        <ele>10.9778713</ele>
        <time>2019-09-10T15:30:41.600Z</time>
      </trkpt>
      <trkpt lat="10.1585176621489" lon="-75.681277249729">
        <ele>11.2778713</ele>
        <time>2019-09-10T15:30:41.700Z</time>
      </trkpt>
      <trkpt lat="10.158517523888" lon="-75.6812772006204">
        <ele>11.5778713</ele>
        <time>2019-09-10T15:30:41.800Z</time>
      </trkpt>
      <trkpt lat="10.1585173715668" lon="-75.6812770543772">
        <ele>12.1778713</ele>
        <time>2019-09-10T15:30:42.000Z</time>
      </trkpt>
      <trkpt lat="10.1585173284629" lon="-75.681276934975">
        <ele>12.4778713</ele>
        <time>2019-09-10T15:30:42.100Z</time>
      </trkpt>
      <trkpt lat="10.1585172864915" lon="-75.6812768096599">
        <ele>12.7778713</ele>
        <time>2019-09-10T15:30:42.200Z</time>
      </trkpt>
      <trkpt lat="10.158517241447" lon="-75.6812766818425">
        <ele>13.0778713</ele>
        <time>2019-09-10T15:30:42.300Z</time>
      </trkpt>
      <trkpt lat="10.1585171968837" lon="-75.6812765249715">
        <ele>13.3778713</ele>
        <time>2019-09-10T15:30:42.400Z</time>
      </trkpt>
      <trkpt lat="10.1585171606515" lon="-75.6812764000021">
        <ele>13.6778713</ele>
        <time>2019-09-10T15:30:42.500Z</time>
      </trkpt>
      <trkpt lat="10.1585171291369" lon="-75.6812763052755">
        <ele>13.9778713</ele>
        <time>2019-09-10T15:30:42.600Z</time>
      </trkpt>
      <trkpt lat="10.1585171091419" lon="-75.6812762130546">
        <ele>14.2778713</ele>
        <time>2019-09-10T15:30:42.700Z</time>
      </trkpt>
      <trkpt lat="10.1585170823459" lon="-75.6812761387303">
        <ele>14.6778713</ele>
        <time>2019-09-10T15:30:42.800Z</time>
      </trkpt>
      <trkpt lat="10.1585170595403" lon="-75.6812760773395">
        <ele>14.9778713</ele>
        <time>2019-09-10T15:30:42.900Z</time>
      </trkpt>
      <trkpt lat="10.158517016698" lon="-75.6812760634912">
        <ele>15.2778713</ele>
        <time>2019-09-10T15:30:43.000Z</time>
      </trkpt>
      <trkpt lat="10.1585169997755" lon="-75.6812760678106">
        <ele>15.5778713</ele>
        <time>2019-09-10T15:30:43.100Z</time>
      </trkpt>
      <trkpt lat="10.1585170218743" lon="-75.6812761019631">
        <ele>15.8778713</ele>
        <time>2019-09-10T15:30:43.200Z</time>
      </trkpt>
      <trkpt lat="10.1585170497822" lon="-75.68127614049">
        <ele>16.1778713</ele>
        <time>2019-09-10T15:30:43.300Z</time>
      </trkpt>
      <trkpt lat="10.158517049031" lon="-75.6812761837657">
        <ele>16.4778713</ele>
        <time>2019-09-10T15:30:43.400Z</time>
      </trkpt>
      <trkpt lat="10.1585170172971" lon="-75.6812762101958">
        <ele>16.7778713</ele>
        <time>2019-09-10T15:30:43.500Z</time>
      </trkpt>
      <trkpt lat="10.1585169157179" lon="-75.6812762145592">
        <ele>17.0778713</ele>
        <time>2019-09-10T15:30:43.600Z</time>
      </trkpt>
      <trkpt lat="10.1585168128202" lon="-75.6812762196459">
        <ele>17.4778713</ele>
        <time>2019-09-10T15:30:43.700Z</time>
      </trkpt>
      <trkpt lat="10.1585166919504" lon="-75.6812762187644">
        <ele>17.7778713</ele>
        <time>2019-09-10T15:30:43.800Z</time>
      </trkpt>
      <trkpt lat="10.1585165915151" lon="-75.6812762232289">
        <ele>18.0778713</ele>
        <time>2019-09-10T15:30:43.900Z</time>
      </trkpt>
      <trkpt lat="10.1585164789532" lon="-75.6812762291701">
        <ele>18.3778713</ele>
        <time>2019-09-10T15:30:44.000Z</time>
      </trkpt>
      <trkpt lat="10.1585163961493" lon="-75.6812762428386">
        <ele>18.6778713</ele>
        <time>2019-09-10T15:30:44.100Z</time>
      </trkpt>
      <trkpt lat="10.1585162799913" lon="-75.6812763256478">
        <ele>19.2778713</ele>
        <time>2019-09-10T15:30:44.300Z</time>
      </trkpt>
      <trkpt lat="10.1585162996476" lon="-75.6812763995987">
        <ele>19.5778713</ele>
        <time>2019-09-10T15:30:44.400Z</time>
      </trkpt>
      <trkpt lat="10.1585163156551" lon="-75.6812764683319">
        <ele>19.8778713</ele>
        <time>2019-09-10T15:30:44.500Z</time>
      </trkpt>
      <trkpt lat="10.1585163123133" lon="-75.6812765739922">
        <ele>20.2778713</ele>
        <time>2019-09-10T15:30:44.600Z</time>
      </trkpt>
      <trkpt lat="10.1585163187837" lon="-75.6812766610745">
        <ele>20.5778713</ele>
        <time>2019-09-10T15:30:44.700Z</time>
      </trkpt>
      <trkpt lat="10.1585163004735" lon="-75.6812767501898">
        <ele>20.8778713</ele>
        <time>2019-09-10T15:30:44.800Z</time>
      </trkpt>
      <trkpt lat="10.1585163021104" lon="-75.6812768073858">
        <ele>21.1778713</ele>
        <time>2019-09-10T15:30:44.900Z</time>
      </trkpt>
      <trkpt lat="10.1585162821696" lon="-75.6812768848758">
        <ele>21.4778713</ele>
        <time>2019-09-10T15:30:45.000Z</time>
      </trkpt>
      <trkpt lat="10.1585162674477" lon="-75.6812769384075">
        <ele>21.7778713</ele>
        <time>2019-09-10T15:30:45.100Z</time>
      </trkpt>
      <trkpt lat="10.1585162609061" lon="-75.6812769348642">
        <ele>22.0778713</ele>
        <time>2019-09-10T15:30:45.200Z</time>
      </trkpt>
      <trkpt lat="10.1585162186558" lon="-75.6812768895332">
        <ele>22.6778713</ele>
        <time>2019-09-10T15:30:45.400Z</time>
      </trkpt>
      <trkpt lat="10.1585162106654" lon="-75.6812768622039">
        <ele>23.0778713</ele>
        <time>2019-09-10T15:30:45.500Z</time>
      </trkpt>
      <trkpt lat="10.1585162015166" lon="-75.6812768543968">
        <ele>23.3778713</ele>
        <time>2019-09-10T15:30:45.600Z</time>
      </trkpt>
      <trkpt lat="10.1585162007107" lon="-75.6812768442038">
        <ele>23.6778713</ele>
        <time>2019-09-10T15:30:45.700Z</time>
      </trkpt>
      <trkpt lat="10.1585162284843" lon="-75.6812768535071">
        <ele>23.9778713</ele>
        <time>2019-09-10T15:30:45.800Z</time>
      </trkpt>
      <trkpt lat="10.1585162630838" lon="-75.6812768522088">
        <ele>24.2778713</ele>
        <time>2019-09-10T15:30:45.900Z</time>
      </trkpt>
      <trkpt lat="10.1585162922105" lon="-75.6812768645221">
        <ele>24.4778713</ele>
        <time>2019-09-10T15:30:46.000Z</time>
      </trkpt>
      <trkpt lat="10.158516328449" lon="-75.6812768698846">
        <ele>24.7778713</ele>
        <time>2019-09-10T15:30:46.100Z</time>
      </trkpt>
      <trkpt lat="10.1585163870669" lon="-75.6812768920378">
        <ele>25.0778713</ele>
        <time>2019-09-10T15:30:46.200Z</time>
      </trkpt>
      <trkpt lat="10.1585164429514" lon="-75.6812769024324">
        <ele>25.3778713</ele>
        <time>2019-09-10T15:30:46.300Z</time>
      </trkpt>
      <trkpt lat="10.158516461091" lon="-75.6812769577281">
        <ele>25.6778713</ele>
        <time>2019-09-10T15:30:46.400Z</time>
      </trkpt>
      <trkpt lat="10.1585164730874" lon="-75.681277003812">
        <ele>25.9778713</ele>
        <time>2019-09-10T15:30:46.500Z</time>
      </trkpt>
      <trkpt lat="10.1585165256292" lon="-75.6812770564623">
        <ele>26.2778713</ele>
        <time>2019-09-10T15:30:46.600Z</time>
      </trkpt>
      <trkpt lat="10.1585165822625" lon="-75.6812771010619">
        <ele>26.5778713</ele>
        <time>2019-09-10T15:30:46.700Z</time>
      </trkpt>
      <trkpt lat="10.1585166014318" lon="-75.6812771555641">
        <ele>26.8778713</ele>
        <time>2019-09-10T15:30:46.800Z</time>
      </trkpt>
      <trkpt lat="10.1585165987751" lon="-75.6812771821922">
        <ele>27.1778713</ele>
        <time>2019-09-10T15:30:46.900Z</time>
      </trkpt>
      <trkpt lat="10.1585165589059" lon="-75.681277138842">
        <ele>27.4778713</ele>
        <time>2019-09-10T15:30:47.000Z</time>
      </trkpt>
      <trkpt lat="10.1585165261714" lon="-75.681277099017">
        <ele>27.7778713</ele>
        <time>2019-09-10T15:30:47.100Z</time>
      </trkpt>
      <trkpt lat="10.1585165027471" lon="-75.6812770697163">
        <ele>28.0778713</ele>
        <time>2019-09-10T15:30:47.200Z</time>
      </trkpt>
      <trkpt lat="10.1585165047989" lon="-75.6812770511697">
        <ele>28.3778713</ele>
        <time>2019-09-10T15:30:47.300Z</time>
      </trkpt>
      <trkpt lat="10.1585165423384" lon="-75.6812770447674">
        <ele>28.6778713</ele>
        <time>2019-09-10T15:30:47.400Z</time>
      </trkpt>
      <trkpt lat="10.1585165926867" lon="-75.6812770419883">
        <ele>28.9778713</ele>
        <time>2019-09-10T15:30:47.500Z</time>
      </trkpt>
      <trkpt lat="10.1585166452975" lon="-75.6812770479418">
        <ele>29.2778713</ele>
        <time>2019-09-10T15:30:47.600Z</time>
      </trkpt>
      <trkpt lat="10.1585167122506" lon="-75.6812770560601">
        <ele>29.5778713</ele>
        <time>2019-09-10T15:30:47.700Z</time>
      </trkpt>
      <trkpt lat="10.1585168209304" lon="-75.6812770709515">
        <ele>29.8778713</ele>
        <time>2019-09-10T15:30:47.800Z</time>
      </trkpt>
      <trkpt lat="10.1585169088473" lon="-75.6812770804836">
        <ele>30.1778713</ele>
        <time>2019-09-10T15:30:47.900Z</time>
      </trkpt>
      <trkpt lat="10.1585169625934" lon="-75.6812770794019">
        <ele>30.4778713</ele>
        <time>2019-09-10T15:30:48.000Z</time>
      </trkpt>
      <trkpt lat="10.1585170051843" lon="-75.6812770738008">
        <ele>30.7778713</ele>
        <time>2019-09-10T15:30:48.100Z</time>
      </trkpt>
      <trkpt lat="10.1585170356112" lon="-75.6812770658075">
        <ele>31.0778713</ele>
        <time>2019-09-10T15:30:48.200Z</time>
      </trkpt>
      <trkpt lat="10.1585170729309" lon="-75.6812770585918">
        <ele>31.3778713</ele>
        <time>2019-09-10T15:30:48.300Z</time>
      </trkpt>
      <trkpt lat="10.1585171211431" lon="-75.6812770594003">
        <ele>31.5778713</ele>
        <time>2019-09-10T15:30:48.400Z</time>
      </trkpt>
      <trkpt lat="10.1585171738643" lon="-75.6812770598552">
        <ele>31.8778713</ele>
        <time>2019-09-10T15:30:48.500Z</time>
      </trkpt>
      <trkpt lat="10.1585172337058" lon="-75.6812770644785">
        <ele>32.1778713</ele>
        <time>2019-09-10T15:30:48.600Z</time>
      </trkpt>
      <trkpt lat="10.1585174206744" lon="-75.6812770346063">
        <ele>32.7778713</ele>
        <time>2019-09-10T15:30:48.800Z</time>
      </trkpt>
      <trkpt lat="10.1585175258371" lon="-75.6812770117083">
        <ele>33.0778713</ele>
        <time>2019-09-10T15:30:48.900Z</time>
      </trkpt>
      <trkpt lat="10.1585175766694" lon="-75.6812770336281">
        <ele>33.3778713</ele>
        <time>2019-09-10T15:30:49.000Z</time>
      </trkpt>
      <trkpt lat="10.1585176274934" lon="-75.6812770514643">
        <ele>33.6778713</ele>
        <time>2019-09-10T15:30:49.100Z</time>
      </trkpt>
      <trkpt lat="10.1585176693172" lon="-75.6812770654181">
        <ele>33.9778713</ele>
        <time>2019-09-10T15:30:49.200Z</time>
      </trkpt>
      <trkpt lat="10.1585177186933" lon="-75.6812770768053">
        <ele>34.2778713</ele>
        <time>2019-09-10T15:30:49.300Z</time>
      </trkpt>
      <trkpt lat="10.1585177677318" lon="-75.6812770882421">
        <ele>34.5778713</ele>
        <time>2019-09-10T15:30:49.400Z</time>
      </trkpt>
      <trkpt lat="10.158517820786" lon="-75.6812771001429">
        <ele>34.8778713</ele>
        <time>2019-09-10T15:30:49.500Z</time>
      </trkpt>
      <trkpt lat="10.1585178627714" lon="-75.6812771428104">
        <ele>35.1778713</ele>
        <time>2019-09-10T15:30:49.600Z</time>
      </trkpt>
      <trkpt lat="10.1585178882339" lon="-75.6812771714247">
        <ele>35.4778713</ele>
        <time>2019-09-10T15:30:49.700Z</time>
      </trkpt>
      <trkpt lat="10.1585179346804" lon="-75.6812771505479">
        <ele>35.7778713</ele>
        <time>2019-09-10T15:30:49.800Z</time>
      </trkpt>
      <trkpt lat="10.1585179714834" lon="-75.6812771346297">
        <ele>36.0778713</ele>
        <time>2019-09-10T15:30:49.900Z</time>
      </trkpt>
      <trkpt lat="10.1585179785171" lon="-75.6812771130952">
        <ele>36.3778713</ele>
        <time>2019-09-10T15:30:50.000Z</time>
      </trkpt>
      <trkpt lat="10.1585179941502" lon="-75.6812770928569">
        <ele>36.6778713</ele>
        <time>2019-09-10T15:30:50.100Z</time>
      </trkpt>
      <trkpt lat="10.1585180397628" lon="-75.6812770741963">
        <ele>36.9778713</ele>
        <time>2019-09-10T15:30:50.200Z</time>
      </trkpt>
      <trkpt lat="10.1585180841739" lon="-75.6812770639522">
        <ele>37.2778713</ele>
        <time>2019-09-10T15:30:50.300Z</time>
      </trkpt>
      <trkpt lat="10.1585181048863" lon="-75.6812770653843">
        <ele>37.5778713</ele>
        <time>2019-09-10T15:30:50.400Z</time>
      </trkpt>
      <trkpt lat="10.1585181252671" lon="-75.6812770727186">
        <ele>37.8778713</ele>
        <time>2019-09-10T15:30:50.500Z</time>
      </trkpt>
      <trkpt lat="10.1585181196983" lon="-75.6812771261415">
        <ele>38.1778713</ele>
        <time>2019-09-10T15:30:50.600Z</time>
      </trkpt>
      <trkpt lat="10.1585181230463" lon="-75.6812771684511">
        <ele>38.4778713</ele>
        <time>2019-09-10T15:30:50.700Z</time>
      </trkpt>
      <trkpt lat="10.1585181446688" lon="-75.6812771916942">
        <ele>38.7778713</ele>
        <time>2019-09-10T15:30:50.800Z</time>
      </trkpt>
      <trkpt lat="10.1585181689262" lon="-75.6812771974597">
        <ele>39.0778713</ele>
        <time>2019-09-10T15:30:50.900Z</time>
      </trkpt>
      <trkpt lat="10.158518165643" lon="-75.681277179702">
        <ele>39.3778713</ele>
        <time>2019-09-10T15:30:51.000Z</time>
      </trkpt>
      <trkpt lat="10.1585181483916" lon="-75.6812771547803">
        <ele>39.6778713</ele>
        <time>2019-09-10T15:30:51.100Z</time>
      </trkpt>
      <trkpt lat="10.1585181148844" lon="-75.6812771262864">
        <ele>39.9778713</ele>
        <time>2019-09-10T15:30:51.200Z</time>
      </trkpt>
      <trkpt lat="10.158518090129" lon="-75.6812770907755">
        <ele>40.2778713</ele>
        <time>2019-09-10T15:30:51.300Z</time>
      </trkpt>
      <trkpt lat="10.1585180431169" lon="-75.6812770331854">
        <ele>40.5778713</ele>
        <time>2019-09-10T15:30:51.400Z</time>
      </trkpt>
      <trkpt lat="10.158518025947" lon="-75.6812769804749">
        <ele>40.8778713</ele>
        <time>2019-09-10T15:30:51.500Z</time>
      </trkpt>
      <trkpt lat="10.158518041293" lon="-75.681276924107">
        <ele>41.1778713</ele>
        <time>2019-09-10T15:30:51.600Z</time>
      </trkpt>
      <trkpt lat="10.158518075341" lon="-75.6812768713632">
        <ele>41.4778713</ele>
        <time>2019-09-10T15:30:51.700Z</time>
      </trkpt>
      <trkpt lat="10.1585181183525" lon="-75.6812768079426">
        <ele>41.7778713</ele>
        <time>2019-09-10T15:30:51.800Z</time>
      </trkpt>
      <trkpt lat="10.1585181693535" lon="-75.6812767538553">
        <ele>42.0778713</ele>
        <time>2019-09-10T15:30:51.900Z</time>
      </trkpt>
      <trkpt lat="10.1585182308943" lon="-75.6812766622807">
        <ele>42.3778713</ele>
        <time>2019-09-10T15:30:52.000Z</time>
      </trkpt>
      <trkpt lat="10.1585182943339" lon="-75.6812765547193">
        <ele>42.9778713</ele>
        <time>2019-09-10T15:30:52.200Z</time>
      </trkpt>
      <trkpt lat="10.1585182948688" lon="-75.681276516855">
        <ele>43.2778713</ele>
        <time>2019-09-10T15:30:52.300Z</time>
      </trkpt>
      <trkpt lat="10.1585183029523" lon="-75.68127643012">
        <ele>43.5778713</ele>
        <time>2019-09-10T15:30:52.400Z</time>
      </trkpt>
      <trkpt lat="10.1585183440781" lon="-75.6812763508676">
        <ele>43.8778713</ele>
        <time>2019-09-10T15:30:52.500Z</time>
      </trkpt>
      <trkpt lat="10.158518374553" lon="-75.6812762733567">
        <ele>44.2778713</ele>
        <time>2019-09-10T15:30:52.600Z</time>
      </trkpt>
      <trkpt lat="10.1585184070286" lon="-75.6812762018337">
        <ele>44.5778713</ele>
        <time>2019-09-10T15:30:52.700Z</time>
      </trkpt>
      <trkpt lat="10.1585184345102" lon="-75.6812761398571">
        <ele>44.8778713</ele>
        <time>2019-09-10T15:30:52.800Z</time>
      </trkpt>
      <trkpt lat="10.1585184577157" lon="-75.6812760935148">
        <ele>45.1778713</ele>
        <time>2019-09-10T15:30:52.900Z</time>
      </trkpt>
      <trkpt lat="10.158518444867" lon="-75.6812760649156">
        <ele>45.4778713</ele>
        <time>2019-09-10T15:30:53.000Z</time>
      </trkpt>
      <trkpt lat="10.1585184405192" lon="-75.6812760456603">
        <ele>45.6778713</ele>
        <time>2019-09-10T15:30:53.100Z</time>
      </trkpt>
      <trkpt lat="10.1585184200917" lon="-75.6812760373945">
        <ele>45.9778713</ele>
        <time>2019-09-10T15:30:53.200Z</time>
      </trkpt>
      <trkpt lat="10.158518413724" lon="-75.6812760449243">
        <ele>46.2778713</ele>
        <time>2019-09-10T15:30:53.300Z</time>
      </trkpt>
      <trkpt lat="10.1585184026787" lon="-75.6812760643071">
        <ele>46.5778713</ele>
        <time>2019-09-10T15:30:53.400Z</time>
      </trkpt>
      <trkpt lat="10.1585184056233" lon="-75.6812760793875">
        <ele>46.8778713</ele>
        <time>2019-09-10T15:30:53.500Z</time>
      </trkpt>
      <trkpt lat="10.1585184040716" lon="-75.6812760527726">
        <ele>47.1778713</ele>
        <time>2019-09-10T15:30:53.600Z</time>
      </trkpt>
      <trkpt lat="10.1585184134209" lon="-75.6812760364472">
        <ele>47.4778713</ele>
        <time>2019-09-10T15:30:53.700Z</time>
      </trkpt>
      <trkpt lat="10.1585184474891" lon="-75.6812760212882">
        <ele>47.7778713</ele>
        <time>2019-09-10T15:30:53.800Z</time>
      </trkpt>
      <trkpt lat="10.1585184777493" lon="-75.6812760110163">
        <ele>48.0778713</ele>
        <time>2019-09-10T15:30:53.900Z</time>
      </trkpt>
      <trkpt lat="10.1585184830379" lon="-75.6812759648149">
        <ele>48.3778713</ele>
        <time>2019-09-10T15:30:54.000Z</time>
      </trkpt>
      <trkpt lat="10.1585184968183" lon="-75.6812759356796">
        <ele>48.6778713</ele>
        <time>2019-09-10T15:30:54.100Z</time>
      </trkpt>
      <trkpt lat="10.1585185140237" lon="-75.6812759207586">
        <ele>48.9778713</ele>
        <time>2019-09-10T15:30:54.200Z</time>
      </trkpt>
      <trkpt lat="10.1585185511067" lon="-75.681275927834">
        <ele>49.2778713</ele>
        <time>2019-09-10T15:30:54.300Z</time>
      </trkpt>
      <trkpt lat="10.1585185755892" lon="-75.6812759477716">
        <ele>49.5778713</ele>
        <time>2019-09-10T15:30:54.400Z</time>
      </trkpt>
      <trkpt lat="10.1585186024076" lon="-75.6812759789996">
        <ele>49.8778713</ele>
        <time>2019-09-10T15:30:54.500Z</time>
      </trkpt>
      <trkpt lat="10.1585186231858" lon="-75.6812760028111">
        <ele>50.0778713</ele>
        <time>2019-09-10T15:30:54.600Z</time>
      </trkpt>
      <trkpt lat="10.1585186297222" lon="-75.6812760376833">
        <ele>50.3778713</ele>
        <time>2019-09-10T15:30:54.700Z</time>
      </trkpt>
      <trkpt lat="10.1585185942924" lon="-75.6812760894971">
        <ele>50.6778713</ele>
        <time>2019-09-10T15:30:54.800Z</time>
      </trkpt>
      <trkpt lat="10.1585185652524" lon="-75.681276149708">
        <ele>50.9778713</ele>
        <time>2019-09-10T15:30:54.900Z</time>
      </trkpt>
      <trkpt lat="10.1585185251688" lon="-75.6812762303908">
        <ele>51.2778713</ele>
        <time>2019-09-10T15:30:55.000Z</time>
      </trkpt>
      <trkpt lat="10.1585184886723" lon="-75.6812763226108">
        <ele>51.4778713</ele>
        <time>2019-09-10T15:30:55.100Z</time>
      </trkpt>
      <trkpt lat="10.1585184591871" lon="-75.6812764146489">
        <ele>51.7778713</ele>
        <time>2019-09-10T15:30:55.200Z</time>
      </trkpt>
      <trkpt lat="10.1585184360331" lon="-75.6812765127823">
        <ele>51.9778713</ele>
        <time>2019-09-10T15:30:55.300Z</time>
      </trkpt>
      <trkpt lat="10.1585183909144" lon="-75.6812766206454">
        <ele>52.1778713</ele>
        <time>2019-09-10T15:30:55.400Z</time>
      </trkpt>
      <trkpt lat="10.1585183455852" lon="-75.681276719684">
        <ele>52.3778713</ele>
        <time>2019-09-10T15:30:55.500Z</time>
      </trkpt>
      <trkpt lat="10.1585182724091" lon="-75.6812768041838">
        <ele>52.5778713</ele>
        <time>2019-09-10T15:30:55.600Z</time>
      </trkpt>
      <trkpt lat="10.1585181364829" lon="-75.6812768946027">
        <ele>52.9778713</ele>
        <time>2019-09-10T15:30:55.800Z</time>
      </trkpt>
      <trkpt lat="10.1585180180213" lon="-75.6812769566855">
        <ele>53.3778713</ele>
        <time>2019-09-10T15:30:56.000Z</time>
      </trkpt>
      <trkpt lat="10.1585179773273" lon="-75.6812769958354">
        <ele>53.4778713</ele>
        <time>2019-09-10T15:30:56.100Z</time>
      </trkpt>
      <trkpt lat="10.1585179791623" lon="-75.6812770035048">
        <ele>53.6778713</ele>
        <time>2019-09-10T15:30:56.200Z</time>
      </trkpt>
      <trkpt lat="10.1585179850965" lon="-75.6812770146144">
        <ele>53.8778713</ele>
        <time>2019-09-10T15:30:56.300Z</time>
      </trkpt>
      <trkpt lat="10.1585179426514" lon="-75.6812770413064">
        <ele>53.9778713</ele>
        <time>2019-09-10T15:30:56.400Z</time>
      </trkpt>
      <trkpt lat="10.1585179108329" lon="-75.681277072388">
        <ele>54.0778713</ele>
        <time>2019-09-10T15:30:56.500Z</time>
      </trkpt>
      <trkpt lat="10.1585178921362" lon="-75.681277123765">
        <ele>54.2778713</ele>
        <time>2019-09-10T15:30:56.600Z</time>
      </trkpt>
      <trkpt lat="10.1585178828631" lon="-75.6812771705789">
        <ele>54.3778713</ele>
        <time>2019-09-10T15:30:56.700Z</time>
      </trkpt>
      <trkpt lat="10.1585178989284" lon="-75.6812772379043">
        <ele>54.4778713</ele>
        <time>2019-09-10T15:30:56.800Z</time>
      </trkpt>
      <trkpt lat="10.1585179295621" lon="-75.6812773049406">
        <ele>54.5778713</ele>
        <time>2019-09-10T15:30:56.900Z</time>
      </trkpt>
      <trkpt lat="10.1585179165407" lon="-75.6812773303165">
        <ele>54.6778713</ele>
        <time>2019-09-10T15:30:57.000Z</time>
      </trkpt>
      <trkpt lat="10.1585179039666" lon="-75.6812773729543">
        <ele>54.7778713</ele>
        <time>2019-09-10T15:30:57.100Z</time>
      </trkpt>
      <trkpt lat="10.1585178769362" lon="-75.6812773934916">
        <ele>54.7778713</ele>
        <time>2019-09-10T15:30:57.200Z</time>
      </trkpt>
      <trkpt lat="10.1585178585847" lon="-75.6812773923118">
        <ele>54.7778713</ele>
        <time>2019-09-10T15:30:57.300Z</time>
      </trkpt>
      <trkpt lat="10.1585178434269" lon="-75.6812773763057">
        <ele>54.7778713</ele>
        <time>2019-09-10T15:30:57.400Z</time>
      </trkpt>
      <trkpt lat="10.1585178463215" lon="-75.6812773401534">
        <ele>54.7778713</ele>
        <time>2019-09-10T15:30:57.500Z</time>
      </trkpt>
      <trkpt lat="10.1585178927997" lon="-75.6812772437861">
        <ele>54.6778713</ele>
        <time>2019-09-10T15:30:57.700Z</time>
      </trkpt>
      <trkpt lat="10.1585179167204" lon="-75.6812772270378">
        <ele>54.6778713</ele>
        <time>2019-09-10T15:30:57.800Z</time>
      </trkpt>
      <trkpt lat="10.1585179503735" lon="-75.6812772041012">
        <ele>54.6778713</ele>
        <time>2019-09-10T15:30:57.900Z</time>
      </trkpt>
      <trkpt lat="10.1585179995992" lon="-75.6812772743024">
        <ele>54.6778713</ele>
        <time>2019-09-10T15:30:58.000Z</time>
      </trkpt>
      <trkpt lat="10.1585180529496" lon="-75.6812774667675">
        <ele>54.7778713</ele>
        <time>2019-09-10T15:30:58.100Z</time>
      </trkpt>
      <trkpt lat="10.1585181274159" lon="-75.6812778545156">
        <ele>54.7778713</ele>
        <time>2019-09-10T15:30:58.200Z</time>
      </trkpt>
      <trkpt lat="10.1585182074207" lon="-75.6812783921094">
        <ele>54.8778713</ele>
        <time>2019-09-10T15:30:58.300Z</time>
      </trkpt>
      <trkpt lat="10.1585183158931" lon="-75.68128007406">
        <ele>54.8778713</ele>
        <time>2019-09-10T15:30:58.500Z</time>
      </trkpt>
      <trkpt lat="10.158518433195" lon="-75.6812812555645">
        <ele>54.9778713</ele>
        <time>2019-09-10T15:30:58.600Z</time>
      </trkpt>
      <trkpt lat="10.1585185878462" lon="-75.6812825947023">
        <ele>54.9778713</ele>
        <time>2019-09-10T15:30:58.700Z</time>
      </trkpt>
      <trkpt lat="10.158518740895" lon="-75.6812841341299">
        <ele>55.0778713</ele>
        <time>2019-09-10T15:30:58.800Z</time>
      </trkpt>
      <trkpt lat="10.1585189237807" lon="-75.6812858512722">
        <ele>55.0778713</ele>
        <time>2019-09-10T15:30:58.900Z</time>
      </trkpt>
      <trkpt lat="10.1585191482362" lon="-75.6812879356349">
        <ele>55.0778713</ele>
        <time>2019-09-10T15:30:59.000Z</time>
      </trkpt>
      <trkpt lat="10.1585194120237" lon="-75.6812901591688">
        <ele>55.0778713</ele>
        <time>2019-09-10T15:30:59.100Z</time>
      </trkpt>
      <trkpt lat="10.1585196634474" lon="-75.6812926505282">
        <ele>55.0778713</ele>
        <time>2019-09-10T15:30:59.200Z</time>
      </trkpt>
      <trkpt lat="10.1585199508116" lon="-75.6812952771043">
        <ele>55.1778713</ele>
        <time>2019-09-10T15:30:59.300Z</time>
      </trkpt>
      <trkpt lat="10.1585202513336" lon="-75.6812982042721">
        <ele>55.1778713</ele>
        <time>2019-09-10T15:30:59.400Z</time>
      </trkpt>
      <trkpt lat="10.1585205829916" lon="-75.6813011973217">
        <ele>55.1778713</ele>
        <time>2019-09-10T15:30:59.500Z</time>
      </trkpt>
      <trkpt lat="10.1585209241757" lon="-75.6813043609174">
        <ele>55.1778713</ele>
        <time>2019-09-10T15:30:59.600Z</time>
      </trkpt>
      <trkpt lat="10.1585212937802" lon="-75.6813075476272">
        <ele>55.1778713</ele>
        <time>2019-09-10T15:30:59.700Z</time>
      </trkpt>
      <trkpt lat="10.1585216790419" lon="-75.681310955363">
        <ele>55.1778713</ele>
        <time>2019-09-10T15:30:59.800Z</time>
      </trkpt>
      <trkpt lat="10.1585220812305" lon="-75.6813143316381">
        <ele>55.1778713</ele>
        <time>2019-09-10T15:30:59.900Z</time>
      </trkpt>
      <trkpt lat="10.1585225086824" lon="-75.6813179800589">
        <ele>55.1778713</ele>
        <time>2019-09-10T15:31:00.000Z</time>
      </trkpt>
      <trkpt lat="10.158522946034" lon="-75.681321526101">
        <ele>55.1778713</ele>
        <time>2019-09-10T15:31:00.100Z</time>
      </trkpt>
      <trkpt lat="10.1585233721258" lon="-75.681325166532">
        <ele>55.1778713</ele>
        <time>2019-09-10T15:31:00.200Z</time>
      </trkpt>
      <trkpt lat="10.1585238040718" lon="-75.6813286904327">
        <ele>55.1778713</ele>
        <time>2019-09-10T15:31:00.300Z</time>
      </trkpt>
      <trkpt lat="10.158524260753" lon="-75.6813324596702">
        <ele>55.1778713</ele>
        <time>2019-09-10T15:31:00.400Z</time>
      </trkpt>
      <trkpt lat="10.1585247177103" lon="-75.6813360538337">
        <ele>55.1778713</ele>
        <time>2019-09-10T15:31:00.500Z</time>
      </trkpt>
      <trkpt lat="10.1585252154881" lon="-75.6813398189022">
        <ele>55.1778713</ele>
        <time>2019-09-10T15:31:00.600Z</time>
      </trkpt>
      <trkpt lat="10.1585257033276" lon="-75.6813433880782">
        <ele>55.1778713</ele>
        <time>2019-09-10T15:31:00.700Z</time>
      </trkpt>
      <trkpt lat="10.1585261862468" lon="-75.6813470797724">
        <ele>55.1778713</ele>
        <time>2019-09-10T15:31:00.800Z</time>
      </trkpt>
      <trkpt lat="10.1585266579207" lon="-75.6813505626233">
        <ele>55.0778713</ele>
        <time>2019-09-10T15:31:00.900Z</time>
      </trkpt>
      <trkpt lat="10.1585271423909" lon="-75.6813541060414">
        <ele>55.0778713</ele>
        <time>2019-09-10T15:31:01.000Z</time>
      </trkpt>
      <trkpt lat="10.1585276155996" lon="-75.6813574486929">
        <ele>55.0778713</ele>
        <time>2019-09-10T15:31:01.100Z</time>
      </trkpt>
      <trkpt lat="10.1585281171376" lon="-75.6813609529586">
        <ele>55.0778713</ele>
        <time>2019-09-10T15:31:01.200Z</time>
      </trkpt>
      <trkpt lat="10.1585285961403" lon="-75.6813642074442">
        <ele>55.0778713</ele>
        <time>2019-09-10T15:31:01.300Z</time>
      </trkpt>
      <trkpt lat="10.158529088958" lon="-75.6813675785473">
        <ele>55.0778713</ele>
        <time>2019-09-10T15:31:01.400Z</time>
      </trkpt>
      <trkpt lat="10.1585300369827" lon="-75.6813738585312">
        <ele>55.0778713</ele>
        <time>2019-09-10T15:31:01.600Z</time>
      </trkpt>
      <trkpt lat="10.1585304885494" lon="-75.681376768204">
        <ele>55.0778713</ele>
        <time>2019-09-10T15:31:01.700Z</time>
      </trkpt>
      <trkpt lat="10.1585309265601" lon="-75.6813797434746">
        <ele>55.0778713</ele>
        <time>2019-09-10T15:31:01.800Z</time>
      </trkpt>
      <trkpt lat="10.1585317908389" lon="-75.6813852793232">
        <ele>55.0778713</ele>
        <time>2019-09-10T15:31:02.000Z</time>
      </trkpt>
      <trkpt lat="10.1585322035615" lon="-75.6813878403536">
        <ele>55.0778713</ele>
        <time>2019-09-10T15:31:02.100Z</time>
      </trkpt>
      <trkpt lat="10.1585325912712" lon="-75.6813904748933">
        <ele>55.0778713</ele>
        <time>2019-09-10T15:31:02.200Z</time>
      </trkpt>
      <trkpt lat="10.1585329508039" lon="-75.6813928729345">
        <ele>55.1778713</ele>
        <time>2019-09-10T15:31:02.300Z</time>
      </trkpt>
      <trkpt lat="10.1585333156536" lon="-75.6813953774884">
        <ele>55.1778713</ele>
        <time>2019-09-10T15:31:02.400Z</time>
      </trkpt>
      <trkpt lat="10.1585336646487" lon="-75.6813976640124">
        <ele>55.1778713</ele>
        <time>2019-09-10T15:31:02.500Z</time>
      </trkpt>
      <trkpt lat="10.1585340456492" lon="-75.6814000296767">
        <ele>55.1778713</ele>
        <time>2019-09-10T15:31:02.600Z</time>
      </trkpt>
      <trkpt lat="10.1585344054115" lon="-75.6814021938565">
        <ele>55.1778713</ele>
        <time>2019-09-10T15:31:02.700Z</time>
      </trkpt>
      <trkpt lat="10.158534761334" lon="-75.6814045107903">
        <ele>55.2778713</ele>
        <time>2019-09-10T15:31:02.800Z</time>
      </trkpt>
      <trkpt lat="10.1585350974449" lon="-75.6814066408351">
        <ele>55.2778713</ele>
        <time>2019-09-10T15:31:02.900Z</time>
      </trkpt>
      <trkpt lat="10.1585354398497" lon="-75.6814088939292">
        <ele>55.2778713</ele>
        <time>2019-09-10T15:31:03.000Z</time>
      </trkpt>
      <trkpt lat="10.1585360775972" lon="-75.6814131698766">
        <ele>55.2778713</ele>
        <time>2019-09-10T15:31:03.200Z</time>
      </trkpt>
      <trkpt lat="10.1585363795351" lon="-75.6814152079784">
        <ele>55.2778713</ele>
        <time>2019-09-10T15:31:03.300Z</time>
      </trkpt>
      <trkpt lat="10.1585367128646" lon="-75.6814174153359">
        <ele>55.2778713</ele>
        <time>2019-09-10T15:31:03.400Z</time>
      </trkpt>
      <trkpt lat="10.1585370235554" lon="-75.6814194448908">
        <ele>55.2778713</ele>
        <time>2019-09-10T15:31:03.500Z</time>
      </trkpt>
      <trkpt lat="10.1585373325983" lon="-75.6814215738304">
        <ele>55.3778713</ele>
        <time>2019-09-10T15:31:03.600Z</time>
      </trkpt>
      <trkpt lat="10.1585376333539" lon="-75.6814235675794">
        <ele>55.3778713</ele>
        <time>2019-09-10T15:31:03.700Z</time>
      </trkpt>
      <trkpt lat="10.1585379419066" lon="-75.681425689208">
        <ele>55.3778713</ele>
        <time>2019-09-10T15:31:03.800Z</time>
      </trkpt>
      <trkpt lat="10.1585385319375" lon="-75.6814298054995">
        <ele>55.3778713</ele>
        <time>2019-09-10T15:31:04.000Z</time>
      </trkpt>
      <trkpt lat="10.1585388251649" lon="-75.6814318061591">
        <ele>55.3778713</ele>
        <time>2019-09-10T15:31:04.100Z</time>
      </trkpt>
      <trkpt lat="10.1585394410994" lon="-75.6814359744971">
        <ele>55.3778713</ele>
        <time>2019-09-10T15:31:04.300Z</time>
      </trkpt>
      <trkpt lat="10.1585397596133" lon="-75.6814380961519">
        <ele>55.3778713</ele>
        <time>2019-09-10T15:31:04.400Z</time>
      </trkpt>
      <trkpt lat="10.1585400700745" lon="-75.6814401101799">
        <ele>55.3778713</ele>
        <time>2019-09-10T15:31:04.500Z</time>
      </trkpt>
      <trkpt lat="10.1585403845645" lon="-75.6814422511563">
        <ele>55.3778713</ele>
        <time>2019-09-10T15:31:04.600Z</time>
      </trkpt>
      <trkpt lat="10.1585406954768" lon="-75.6814443008858">
        <ele>55.3778713</ele>
        <time>2019-09-10T15:31:04.700Z</time>
      </trkpt>
      <trkpt lat="10.1585413705938" lon="-75.6814485449612">
        <ele>55.3778713</ele>
        <time>2019-09-10T15:31:04.900Z</time>
      </trkpt>
      <trkpt lat="10.1585416969324" lon="-75.6814507643034">
        <ele>55.3778713</ele>
        <time>2019-09-10T15:31:05.000Z</time>
      </trkpt>
      <trkpt lat="10.1585420146011" lon="-75.681452900197">
        <ele>55.3778713</ele>
        <time>2019-09-10T15:31:05.100Z</time>
      </trkpt>
      <trkpt lat="10.1585423253098" lon="-75.681455146015">
        <ele>55.3778713</ele>
        <time>2019-09-10T15:31:05.200Z</time>
      </trkpt>
      <trkpt lat="10.1585426384743" lon="-75.6814573139546">
        <ele>55.3778713</ele>
        <time>2019-09-10T15:31:05.300Z</time>
      </trkpt>
      <trkpt lat="10.1585429468706" lon="-75.6814595883895">
        <ele>55.3778713</ele>
        <time>2019-09-10T15:31:05.400Z</time>
      </trkpt>
      <trkpt lat="10.1585432568531" lon="-75.6814617894719">
        <ele>55.3778713</ele>
        <time>2019-09-10T15:31:05.500Z</time>
      </trkpt>
      <trkpt lat="10.1585438638132" lon="-75.6814664089962">
        <ele>55.3778713</ele>
        <time>2019-09-10T15:31:05.700Z</time>
      </trkpt>
      <trkpt lat="10.1585441763638" lon="-75.6814688648108">
        <ele>55.3778713</ele>
        <time>2019-09-10T15:31:05.800Z</time>
      </trkpt>
      <trkpt lat="10.1585444640056" lon="-75.6814710198345">
        <ele>55.3778713</ele>
        <time>2019-09-10T15:31:05.900Z</time>
      </trkpt>
      <trkpt lat="10.1585451241393" lon="-75.681475655147">
        <ele>55.3778713</ele>
        <time>2019-09-10T15:31:06.100Z</time>
      </trkpt>
      <trkpt lat="10.1585454811822" lon="-75.6814780388971">
        <ele>55.3778713</ele>
        <time>2019-09-10T15:31:06.200Z</time>
      </trkpt>
      <trkpt lat="10.1585461680827" lon="-75.6814827553255">
        <ele>55.3778713</ele>
        <time>2019-09-10T15:31:06.400Z</time>
      </trkpt>
      <trkpt lat="10.1585465057471" lon="-75.681485090319">
        <ele>55.3778713</ele>
        <time>2019-09-10T15:31:06.500Z</time>
      </trkpt>
      <trkpt lat="10.1585468981271" lon="-75.6814874837821">
        <ele>55.3778713</ele>
        <time>2019-09-10T15:31:06.600Z</time>
      </trkpt>
      <trkpt lat="10.1585472837883" lon="-75.6814898312389">
        <ele>55.3778713</ele>
        <time>2019-09-10T15:31:06.700Z</time>
      </trkpt>
      <trkpt lat="10.1585476580112" lon="-75.6814920250277">
        <ele>55.3778713</ele>
        <time>2019-09-10T15:31:06.800Z</time>
      </trkpt>
      <trkpt lat="10.1585485036166" lon="-75.6814967190187">
        <ele>55.3778713</ele>
        <time>2019-09-10T15:31:07.000Z</time>
      </trkpt>
      <trkpt lat="10.1585489594702" lon="-75.6814992274717">
        <ele>55.3778713</ele>
        <time>2019-09-10T15:31:07.100Z</time>
      </trkpt>
      <trkpt lat="10.1585494354937" lon="-75.6815018258834">
        <ele>55.3778713</ele>
        <time>2019-09-10T15:31:07.200Z</time>
      </trkpt>
      <trkpt lat="10.1585498872371" lon="-75.6815043488016">
        <ele>55.3778713</ele>
        <time>2019-09-10T15:31:07.300Z</time>
      </trkpt>
      <trkpt lat="10.1585507603175" lon="-75.6815094028538">
        <ele>55.2778713</ele>
        <time>2019-09-10T15:31:07.500Z</time>
      </trkpt>
      <trkpt lat="10.1585511752972" lon="-75.6815119773659">
        <ele>55.2778713</ele>
        <time>2019-09-10T15:31:07.600Z</time>
      </trkpt>
      <trkpt lat="10.1585515778941" lon="-75.6815145049839">
        <ele>55.2778713</ele>
        <time>2019-09-10T15:31:07.700Z</time>
      </trkpt>
      <trkpt lat="10.1585519407408" lon="-75.6815171644067">
        <ele>55.3778713</ele>
        <time>2019-09-10T15:31:07.800Z</time>
      </trkpt>
      <trkpt lat="10.1585526678475" lon="-75.6815224151393">
        <ele>55.3778713</ele>
        <time>2019-09-10T15:31:08.000Z</time>
      </trkpt>
      <trkpt lat="10.1585530418881" lon="-75.6815250054046">
        <ele>55.3778713</ele>
        <time>2019-09-10T15:31:08.100Z</time>
      </trkpt>
      <trkpt lat="10.1585533952018" lon="-75.6815276314236">
        <ele>55.3778713</ele>
        <time>2019-09-10T15:31:08.200Z</time>
      </trkpt>
      <trkpt lat="10.1585537559836" lon="-75.6815302029069">
        <ele>55.3778713</ele>
        <time>2019-09-10T15:31:08.300Z</time>
      </trkpt>
      <trkpt lat="10.1585540971687" lon="-75.6815328028157">
        <ele>55.3778713</ele>
        <time>2019-09-10T15:31:08.400Z</time>
      </trkpt>
      <trkpt lat="10.158554456221" lon="-75.6815353633326">
        <ele>55.3778713</ele>
        <time>2019-09-10T15:31:08.500Z</time>
      </trkpt>
      <trkpt lat="10.1585548379609" lon="-75.6815379515787">
        <ele>55.3778713</ele>
        <time>2019-09-10T15:31:08.600Z</time>
      </trkpt>
      <trkpt lat="10.1585552289763" lon="-75.6815405070129">
        <ele>55.3778713</ele>
        <time>2019-09-10T15:31:08.700Z</time>
      </trkpt>
      <trkpt lat="10.15855563228" lon="-75.6815431267307">
        <ele>55.3778713</ele>
        <time>2019-09-10T15:31:08.800Z</time>
      </trkpt>
      <trkpt lat="10.1585560362742" lon="-75.6815457116521">
        <ele>55.3778713</ele>
        <time>2019-09-10T15:31:08.900Z</time>
      </trkpt>
      <trkpt lat="10.1585567704191" lon="-75.6815508031291">
        <ele>55.3778713</ele>
        <time>2019-09-10T15:31:09.100Z</time>
      </trkpt>
      <trkpt lat="10.1585571399488" lon="-75.6815533931159">
        <ele>55.3778713</ele>
        <time>2019-09-10T15:31:09.200Z</time>
      </trkpt>
      <trkpt lat="10.1585575184383" lon="-75.6815559691424">
        <ele>55.3778713</ele>
        <time>2019-09-10T15:31:09.300Z</time>
      </trkpt>
      <trkpt lat="10.1585579145378" lon="-75.681558613282">
        <ele>55.3778713</ele>
        <time>2019-09-10T15:31:09.400Z</time>
      </trkpt>
      <trkpt lat="10.1585583193494" lon="-75.6815612275166">
        <ele>55.3778713</ele>
        <time>2019-09-10T15:31:09.500Z</time>
      </trkpt>
      <trkpt lat="10.1585586970442" lon="-75.6815638836147">
        <ele>55.3778713</ele>
        <time>2019-09-10T15:31:09.600Z</time>
      </trkpt>
      <trkpt lat="10.1585594629177" lon="-75.6815691637127">
        <ele>55.3778713</ele>
        <time>2019-09-10T15:31:09.800Z</time>
      </trkpt>
      <trkpt lat="10.1585602100087" lon="-75.6815744680237">
        <ele>55.3778713</ele>
        <time>2019-09-10T15:31:10.000Z</time>
      </trkpt>
      <trkpt lat="10.1585605733829" lon="-75.6815771135906">
        <ele>55.3778713</ele>
        <time>2019-09-10T15:31:10.100Z</time>
      </trkpt>
      <trkpt lat="10.1585613097458" lon="-75.681582440722">
        <ele>55.3778713</ele>
        <time>2019-09-10T15:31:10.300Z</time>
      </trkpt>
      <trkpt lat="10.1585616532628" lon="-75.6815850793958">
        <ele>55.3778713</ele>
        <time>2019-09-10T15:31:10.400Z</time>
      </trkpt>
      <trkpt lat="10.1585620076578" lon="-75.6815876922031">
        <ele>55.4778713</ele>
        <time>2019-09-10T15:31:10.500Z</time>
      </trkpt>
      <trkpt lat="10.1585623449574" lon="-75.6815903036525">
        <ele>55.4778713</ele>
        <time>2019-09-10T15:31:10.600Z</time>
      </trkpt>
      <trkpt lat="10.1585626983298" lon="-75.6815929030216">
        <ele>55.4778713</ele>
        <time>2019-09-10T15:31:10.700Z</time>
      </trkpt>
      <trkpt lat="10.1585630384824" lon="-75.6815955430184">
        <ele>55.4778713</ele>
        <time>2019-09-10T15:31:10.800Z</time>
      </trkpt>
      <trkpt lat="10.1585633935744" lon="-75.681598171283">
        <ele>55.4778713</ele>
        <time>2019-09-10T15:31:10.900Z</time>
      </trkpt>
      <trkpt lat="10.1585637674195" lon="-75.6816008419158">
        <ele>55.4778713</ele>
        <time>2019-09-10T15:31:11.000Z</time>
      </trkpt>
      <trkpt lat="10.1585641468861" lon="-75.6816034974743">
        <ele>55.4778713</ele>
        <time>2019-09-10T15:31:11.100Z</time>
      </trkpt>
      <trkpt lat="10.1585645041667" lon="-75.6816061920939">
        <ele>55.4778713</ele>
        <time>2019-09-10T15:31:11.200Z</time>
      </trkpt>
      <trkpt lat="10.1585648673781" lon="-75.6816088680185">
        <ele>55.4778713</ele>
        <time>2019-09-10T15:31:11.300Z</time>
      </trkpt>
      <trkpt lat="10.1585652491635" lon="-75.6816115313056">
        <ele>55.4778713</ele>
        <time>2019-09-10T15:31:11.400Z</time>
      </trkpt>
      <trkpt lat="10.1585656267671" lon="-75.681614179414">
        <ele>55.3778713</ele>
        <time>2019-09-10T15:31:11.500Z</time>
      </trkpt>
      <trkpt lat="10.1585659552373" lon="-75.6816168779675">
        <ele>55.3778713</ele>
        <time>2019-09-10T15:31:11.600Z</time>
      </trkpt>
      <trkpt lat="10.1585662573983" lon="-75.6816195697671">
        <ele>55.3778713</ele>
        <time>2019-09-10T15:31:11.700Z</time>
      </trkpt>
      <trkpt lat="10.1585665307327" lon="-75.6816222622631">
        <ele>55.3778713</ele>
        <time>2019-09-10T15:31:11.800Z</time>
      </trkpt>
      <trkpt lat="10.1585668189184" lon="-75.6816249471696">
        <ele>55.3778713</ele>
        <time>2019-09-10T15:31:11.900Z</time>
      </trkpt>
      <trkpt lat="10.1585671063713" lon="-75.6816276581864">
        <ele>55.3778713</ele>
        <time>2019-09-10T15:31:12.000Z</time>
      </trkpt>
      <trkpt lat="10.1585674034809" lon="-75.6816303619968">
        <ele>55.3778713</ele>
        <time>2019-09-10T15:31:12.100Z</time>
      </trkpt>
      <trkpt lat="10.1585676921422" lon="-75.6816330964781">
        <ele>55.3778713</ele>
        <time>2019-09-10T15:31:12.200Z</time>
      </trkpt>
      <trkpt lat="10.1585680002666" lon="-75.6816358220471">
        <ele>55.3778713</ele>
        <time>2019-09-10T15:31:12.300Z</time>
      </trkpt>
      <trkpt lat="10.158568326496" lon="-75.6816385604275">
        <ele>55.3778713</ele>
        <time>2019-09-10T15:31:12.400Z</time>
      </trkpt>
      <trkpt lat="10.1585686748202" lon="-75.6816412764227">
        <ele>55.3778713</ele>
        <time>2019-09-10T15:31:12.500Z</time>
      </trkpt>
      <trkpt lat="10.1585690476296" lon="-75.6816439842715">
        <ele>55.3778713</ele>
        <time>2019-09-10T15:31:12.600Z</time>
      </trkpt>
      <trkpt lat="10.1585694215953" lon="-75.6816466753052">
        <ele>55.3778713</ele>
        <time>2019-09-10T15:31:12.700Z</time>
      </trkpt>
      <trkpt lat="10.1585697824976" lon="-75.6816493462862">
        <ele>55.4778713</ele>
        <time>2019-09-10T15:31:12.800Z</time>
      </trkpt>
      <trkpt lat="10.1585701524638" lon="-75.6816520067535">
        <ele>55.4778713</ele>
        <time>2019-09-10T15:31:12.900Z</time>
      </trkpt>
      <trkpt lat="10.1585705272241" lon="-75.6816546897452">
        <ele>55.4778713</ele>
        <time>2019-09-10T15:31:13.000Z</time>
      </trkpt>
      <trkpt lat="10.1585709067199" lon="-75.6816573597863">
        <ele>55.3778713</ele>
        <time>2019-09-10T15:31:13.100Z</time>
      </trkpt>
      <trkpt lat="10.1585713050894" lon="-75.6816600079991">
        <ele>55.3778713</ele>
        <time>2019-09-10T15:31:13.200Z</time>
      </trkpt>
      <trkpt lat="10.158571710598" lon="-75.6816626514424">
        <ele>55.3778713</ele>
        <time>2019-09-10T15:31:13.300Z</time>
      </trkpt>
      <trkpt lat="10.1585720971255" lon="-75.6816653369408">
        <ele>55.4778713</ele>
        <time>2019-09-10T15:31:13.400Z</time>
      </trkpt>
      <trkpt lat="10.158572489105" lon="-75.6816680174259">
        <ele>55.4778713</ele>
        <time>2019-09-10T15:31:13.500Z</time>
      </trkpt>
      <trkpt lat="10.1585729128001" lon="-75.6816707025065">
        <ele>55.4778713</ele>
        <time>2019-09-10T15:31:13.600Z</time>
      </trkpt>
      <trkpt lat="10.1585733357721" lon="-75.6816733805199">
        <ele>55.4778713</ele>
        <time>2019-09-10T15:31:13.700Z</time>
      </trkpt>
      <trkpt lat="10.1585737143137" lon="-75.6816760921982">
        <ele>55.4778713</ele>
        <time>2019-09-10T15:31:13.800Z</time>
      </trkpt>
      <trkpt lat="10.1585740878853" lon="-75.6816787958345">
        <ele>55.4778713</ele>
        <time>2019-09-10T15:31:13.900Z</time>
      </trkpt>
      <trkpt lat="10.1585748220269" lon="-75.6816841726451">
        <ele>55.4778713</ele>
        <time>2019-09-10T15:31:14.100Z</time>
      </trkpt>
      <trkpt lat="10.1585752340363" lon="-75.6816868734963">
        <ele>55.3778713</ele>
        <time>2019-09-10T15:31:14.200Z</time>
      </trkpt>
      <trkpt lat="10.1585756458567" lon="-75.6816895751134">
        <ele>55.3778713</ele>
        <time>2019-09-10T15:31:14.300Z</time>
      </trkpt>
      <trkpt lat="10.1585760291403" lon="-75.6816922877665">
        <ele>55.3778713</ele>
        <time>2019-09-10T15:31:14.400Z</time>
      </trkpt>
      <trkpt lat="10.1585764131339" lon="-75.6816949965204">
        <ele>55.3778713</ele>
        <time>2019-09-10T15:31:14.500Z</time>
      </trkpt>
      <trkpt lat="10.1585768111061" lon="-75.6816976759612">
        <ele>55.3778713</ele>
        <time>2019-09-10T15:31:14.600Z</time>
      </trkpt>
      <trkpt lat="10.1585772126413" lon="-75.6817003539746">
        <ele>55.3778713</ele>
        <time>2019-09-10T15:31:14.700Z</time>
      </trkpt>
      <trkpt lat="10.15857761559" lon="-75.6817030387767">
        <ele>55.4778713</ele>
        <time>2019-09-10T15:31:14.800Z</time>
      </trkpt>
      <trkpt lat="10.1585784177355" lon="-75.6817084228285">
        <ele>55.4778713</ele>
        <time>2019-09-10T15:31:15.000Z</time>
      </trkpt>
      <trkpt lat="10.158578819186" lon="-75.6817111123653">
        <ele>55.4778713</ele>
        <time>2019-09-10T15:31:15.100Z</time>
      </trkpt>
      <trkpt lat="10.1585792257629" lon="-75.6817138012754">
        <ele>55.4778713</ele>
        <time>2019-09-10T15:31:15.200Z</time>
      </trkpt>
      <trkpt lat="10.1585796385213" lon="-75.6817164821783">
        <ele>55.4778713</ele>
        <time>2019-09-10T15:31:15.300Z</time>
      </trkpt>
      <trkpt lat="10.1585800461599" lon="-75.68171913154">
        <ele>55.4778713</ele>
        <time>2019-09-10T15:31:15.400Z</time>
      </trkpt>
      <trkpt lat="10.1585804534338" lon="-75.6817217757492">
        <ele>55.4778713</ele>
        <time>2019-09-10T15:31:15.500Z</time>
      </trkpt>
      <trkpt lat="10.1585808500967" lon="-75.6817244058588">
        <ele>55.4778713</ele>
        <time>2019-09-10T15:31:15.600Z</time>
      </trkpt>
      <trkpt lat="10.1585812545891" lon="-75.681727042235">
        <ele>55.3778713</ele>
        <time>2019-09-10T15:31:15.700Z</time>
      </trkpt>
      <trkpt lat="10.158582032334" lon="-75.6817323184686">
        <ele>55.3778713</ele>
        <time>2019-09-10T15:31:15.900Z</time>
      </trkpt>
      <trkpt lat="10.1585824085306" lon="-75.6817349289782">
        <ele>55.3778713</ele>
        <time>2019-09-10T15:31:16.000Z</time>
      </trkpt>
      <trkpt lat="10.1585827842061" lon="-75.6817375488178">
        <ele>55.3778713</ele>
        <time>2019-09-10T15:31:16.100Z</time>
      </trkpt>
      <trkpt lat="10.1585831646172" lon="-75.68174017938">
        <ele>55.3778713</ele>
        <time>2019-09-10T15:31:16.200Z</time>
      </trkpt>
      <trkpt lat="10.1585835522455" lon="-75.6817428226144">
        <ele>55.3778713</ele>
        <time>2019-09-10T15:31:16.300Z</time>
      </trkpt>
      <trkpt lat="10.1585839510905" lon="-75.6817455146578">
        <ele>55.3778713</ele>
        <time>2019-09-10T15:31:16.400Z</time>
      </trkpt>
      <trkpt lat="10.1585843499094" lon="-75.6817482130372">
        <ele>55.3778713</ele>
        <time>2019-09-10T15:31:16.500Z</time>
      </trkpt>
      <trkpt lat="10.1585847514772" lon="-75.6817509461956">
        <ele>55.3778713</ele>
        <time>2019-09-10T15:31:16.600Z</time>
      </trkpt>
      <trkpt lat="10.1585851498207" lon="-75.6817536723912">
        <ele>55.3778713</ele>
        <time>2019-09-10T15:31:16.700Z</time>
      </trkpt>
      <trkpt lat="10.1585855336189" lon="-75.6817563325103">
        <ele>55.3778713</ele>
        <time>2019-09-10T15:31:16.800Z</time>
      </trkpt>
      <trkpt lat="10.1585862878034" lon="-75.6817617658933">
        <ele>55.3778713</ele>
        <time>2019-09-10T15:31:17.000Z</time>
      </trkpt>
      <trkpt lat="10.1585866648077" lon="-75.681764532821">
        <ele>55.3778713</ele>
        <time>2019-09-10T15:31:17.100Z</time>
      </trkpt>
      <trkpt lat="10.1585870244007" lon="-75.6817672908016">
        <ele>55.3778713</ele>
        <time>2019-09-10T15:31:17.200Z</time>
      </trkpt>
      <trkpt lat="10.1585873935885" lon="-75.681770033673">
        <ele>55.3778713</ele>
        <time>2019-09-10T15:31:17.300Z</time>
      </trkpt>
      <trkpt lat="10.1585877540934" lon="-75.6817727510608">
        <ele>55.3778713</ele>
        <time>2019-09-10T15:31:17.400Z</time>
      </trkpt>
      <trkpt lat="10.1585881274826" lon="-75.6817754639575">
        <ele>55.3778713</ele>
        <time>2019-09-10T15:31:17.500Z</time>
      </trkpt>
      <trkpt lat="10.1585885215465" lon="-75.6817781535291">
        <ele>55.3778713</ele>
        <time>2019-09-10T15:31:17.600Z</time>
      </trkpt>
      <trkpt lat="10.1585889240002" lon="-75.6817808423695">
        <ele>55.4778713</ele>
        <time>2019-09-10T15:31:17.700Z</time>
      </trkpt>
      <trkpt lat="10.1585893002163" lon="-75.6817834827145">
        <ele>55.4778713</ele>
        <time>2019-09-10T15:31:17.800Z</time>
      </trkpt>
      <trkpt lat="10.158589686112" lon="-75.6817861347916">
        <ele>55.4778713</ele>
        <time>2019-09-10T15:31:17.900Z</time>
      </trkpt>
      <trkpt lat="10.1585900791272" lon="-75.6817887887487">
        <ele>55.4778713</ele>
        <time>2019-09-10T15:31:18.000Z</time>
      </trkpt>
      <trkpt lat="10.1585908813117" lon="-75.6817941223902">
        <ele>55.3778713</ele>
        <time>2019-09-10T15:31:18.200Z</time>
      </trkpt>
      <trkpt lat="10.1585912907416" lon="-75.6817967815694">
        <ele>55.3778713</ele>
        <time>2019-09-10T15:31:18.300Z</time>
      </trkpt>
      <trkpt lat="10.1585916973315" lon="-75.6817994229935">
        <ele>55.3778713</ele>
        <time>2019-09-10T15:31:18.400Z</time>
      </trkpt>
      <trkpt lat="10.1585921071978" lon="-75.681802073504">
        <ele>55.3778713</ele>
        <time>2019-09-10T15:31:18.500Z</time>
      </trkpt>
      <trkpt lat="10.158592501164" lon="-75.6818046811588">
        <ele>55.3778713</ele>
        <time>2019-09-10T15:31:18.600Z</time>
      </trkpt>
      <trkpt lat="10.1585929001133" lon="-75.6818073102241">
        <ele>55.3778713</ele>
        <time>2019-09-10T15:31:18.700Z</time>
      </trkpt>
      <trkpt lat="10.1585933197633" lon="-75.6818099867056">
        <ele>55.3778713</ele>
        <time>2019-09-10T15:31:18.800Z</time>
      </trkpt>
      <trkpt lat="10.1585937391462" lon="-75.6818126859206">
        <ele>55.3778713</ele>
        <time>2019-09-10T15:31:18.900Z</time>
      </trkpt>
      <trkpt lat="10.1585941529404" lon="-75.6818154262158">
        <ele>55.3778713</ele>
        <time>2019-09-10T15:31:19.000Z</time>
      </trkpt>
      <trkpt lat="10.1585945689166" lon="-75.6818181627511">
        <ele>55.3778713</ele>
        <time>2019-09-10T15:31:19.100Z</time>
      </trkpt>
      <trkpt lat="10.1585949733244" lon="-75.6818208913837">
        <ele>55.3778713</ele>
        <time>2019-09-10T15:31:19.200Z</time>
      </trkpt>
      <trkpt lat="10.1585953785073" lon="-75.6818236044546">
        <ele>55.3778713</ele>
        <time>2019-09-10T15:31:19.300Z</time>
      </trkpt>
      <trkpt lat="10.158595763022" lon="-75.6818262476542">
        <ele>55.3778713</ele>
        <time>2019-09-10T15:31:19.400Z</time>
      </trkpt>
      <trkpt lat="10.1585965136175" lon="-75.6818315839416">
        <ele>55.3778713</ele>
        <time>2019-09-10T15:31:19.600Z</time>
      </trkpt>
      <trkpt lat="10.1585968840494" lon="-75.6818342921037">
        <ele>55.3778713</ele>
        <time>2019-09-10T15:31:19.700Z</time>
      </trkpt>
      <trkpt lat="10.1585972585394" lon="-75.6818370579522">
        <ele>55.3778713</ele>
        <time>2019-09-10T15:31:19.800Z</time>
      </trkpt>
      <trkpt lat="10.1585976373806" lon="-75.6818398285353">
        <ele>55.3778713</ele>
        <time>2019-09-10T15:31:19.900Z</time>
      </trkpt>
      <trkpt lat="10.1585979932282" lon="-75.6818425896492">
        <ele>55.3778713</ele>
        <time>2019-09-10T15:31:20.000Z</time>
      </trkpt>
      <trkpt lat="10.1585983555765" lon="-75.6818453485001">
        <ele>55.4778713</ele>
        <time>2019-09-10T15:31:20.100Z</time>
      </trkpt>
      <trkpt lat="10.158598698605" lon="-75.6818481098924">
        <ele>55.3778713</ele>
        <time>2019-09-10T15:31:20.200Z</time>
      </trkpt>
      <trkpt lat="10.158599047574" lon="-75.6818508680123">
        <ele>55.3778713</ele>
        <time>2019-09-10T15:31:20.300Z</time>
      </trkpt>
      <trkpt lat="10.1585994107236" lon="-75.681853582232">
        <ele>55.3778713</ele>
        <time>2019-09-10T15:31:20.400Z</time>
      </trkpt>
      <trkpt lat="10.1585997812727" lon="-75.6818562945021">
        <ele>55.4778713</ele>
        <time>2019-09-10T15:31:20.500Z</time>
      </trkpt>
      <trkpt lat="10.1586001326519" lon="-75.6818589252036">
        <ele>55.4778713</ele>
        <time>2019-09-10T15:31:20.600Z</time>
      </trkpt>
      <trkpt lat="10.158600485692" lon="-75.6818615727898">
        <ele>55.4778713</ele>
        <time>2019-09-10T15:31:20.700Z</time>
      </trkpt>
      <trkpt lat="10.1586008167612" lon="-75.6818641989655">
        <ele>55.4778713</ele>
        <time>2019-09-10T15:31:20.800Z</time>
      </trkpt>
      <trkpt lat="10.1586011763542" lon="-75.6818668428614">
        <ele>55.3778713</ele>
        <time>2019-09-10T15:31:20.900Z</time>
      </trkpt>
      <trkpt lat="10.1586015747432" lon="-75.6818694907957">
        <ele>55.3778713</ele>
        <time>2019-09-10T15:31:21.000Z</time>
      </trkpt>
      <trkpt lat="10.1586019839647" lon="-75.6818721636566">
        <ele>55.3778713</ele>
        <time>2019-09-10T15:31:21.100Z</time>
      </trkpt>
      <trkpt lat="10.1586023883464" lon="-75.6818748487024">
        <ele>55.3778713</ele>
        <time>2019-09-10T15:31:21.200Z</time>
      </trkpt>
      <trkpt lat="10.158602807065" lon="-75.681877537508">
        <ele>55.3778713</ele>
        <time>2019-09-10T15:31:21.300Z</time>
      </trkpt>
      <trkpt lat="10.158603237111" lon="-75.6818802330676">
        <ele>55.4778713</ele>
        <time>2019-09-10T15:31:21.400Z</time>
      </trkpt>
      <trkpt lat="10.1586036776377" lon="-75.681882947148">
        <ele>55.4778713</ele>
        <time>2019-09-10T15:31:21.500Z</time>
      </trkpt>
      <trkpt lat="10.1586041205419" lon="-75.6818856660328">
        <ele>55.4778713</ele>
        <time>2019-09-10T15:31:21.600Z</time>
      </trkpt>
      <trkpt lat="10.1586045488226" lon="-75.6818883751696">
        <ele>55.4778713</ele>
        <time>2019-09-10T15:31:21.700Z</time>
      </trkpt>
      <trkpt lat="10.1586049358777" lon="-75.6818910646716">
        <ele>55.4778713</ele>
        <time>2019-09-10T15:31:21.800Z</time>
      </trkpt>
      <trkpt lat="10.1586053157872" lon="-75.6818937451915">
        <ele>55.5778713</ele>
        <time>2019-09-10T15:31:21.900Z</time>
      </trkpt>
      <trkpt lat="10.1586056725467" lon="-75.6818963787826">
        <ele>55.5778713</ele>
        <time>2019-09-10T15:31:22.000Z</time>
      </trkpt>
      <trkpt lat="10.1586060411938" lon="-75.6818990150195">
        <ele>55.5778713</ele>
        <time>2019-09-10T15:31:22.100Z</time>
      </trkpt>
      <trkpt lat="10.158606411033" lon="-75.6819016290452">
        <ele>55.5778713</ele>
        <time>2019-09-10T15:31:22.200Z</time>
      </trkpt>
      <trkpt lat="10.1586067838164" lon="-75.6819042562305">
        <ele>55.5778713</ele>
        <time>2019-09-10T15:31:22.300Z</time>
      </trkpt>
      <trkpt lat="10.1586071644424" lon="-75.6819068811877">
        <ele>55.4778713</ele>
        <time>2019-09-10T15:31:22.400Z</time>
      </trkpt>
      <trkpt lat="10.1586075504357" lon="-75.6819095240392">
        <ele>55.4778713</ele>
        <time>2019-09-10T15:31:22.500Z</time>
      </trkpt>
      <trkpt lat="10.1586079136699" lon="-75.6819121717646">
        <ele>55.5778713</ele>
        <time>2019-09-10T15:31:22.600Z</time>
      </trkpt>
      <trkpt lat="10.1586082775816" lon="-75.6819148324408">
        <ele>55.5778713</ele>
        <time>2019-09-10T15:31:22.700Z</time>
      </trkpt>
      <trkpt lat="10.1586086117383" lon="-75.681917495902">
        <ele>55.5778713</ele>
        <time>2019-09-10T15:31:22.800Z</time>
      </trkpt>
      <trkpt lat="10.1586089476211" lon="-75.6819201677882">
        <ele>55.5778713</ele>
        <time>2019-09-10T15:31:22.900Z</time>
      </trkpt>
      <trkpt lat="10.1586092329832" lon="-75.6819228350093">
        <ele>55.5778713</ele>
        <time>2019-09-10T15:31:23.000Z</time>
      </trkpt>
      <trkpt lat="10.1586095347859" lon="-75.681925509402">
        <ele>55.4778713</ele>
        <time>2019-09-10T15:31:23.100Z</time>
      </trkpt>
      <trkpt lat="10.1586098455908" lon="-75.6819281212693">
        <ele>55.4778713</ele>
        <time>2019-09-10T15:31:23.200Z</time>
      </trkpt>
      <trkpt lat="10.1586102082192" lon="-75.6819307375231">
        <ele>55.4778713</ele>
        <time>2019-09-10T15:31:23.300Z</time>
      </trkpt>
      <trkpt lat="10.1586106076309" lon="-75.6819333406869">
        <ele>55.4778713</ele>
        <time>2019-09-10T15:31:23.400Z</time>
      </trkpt>
      <trkpt lat="10.158611037501" lon="-75.6819359737905">
        <ele>55.4778713</ele>
        <time>2019-09-10T15:31:23.500Z</time>
      </trkpt>
      <trkpt lat="10.1586114934654" lon="-75.6819386668435">
        <ele>55.4778713</ele>
        <time>2019-09-10T15:31:23.600Z</time>
      </trkpt>
      <trkpt lat="10.1586119639814" lon="-75.6819413874689">
        <ele>55.4778713</ele>
        <time>2019-09-10T15:31:23.700Z</time>
      </trkpt>
      <trkpt lat="10.1586124457989" lon="-75.6819441085817">
        <ele>55.4778713</ele>
        <time>2019-09-10T15:31:23.800Z</time>
      </trkpt>
      <trkpt lat="10.158613418221" lon="-75.6819495631314">
        <ele>55.4778713</ele>
        <time>2019-09-10T15:31:24.000Z</time>
      </trkpt>
      <trkpt lat="10.1586139122909" lon="-75.6819523006764">
        <ele>55.4778713</ele>
        <time>2019-09-10T15:31:24.100Z</time>
      </trkpt>
      <trkpt lat="10.1586143905389" lon="-75.6819551060385">
        <ele>55.4778713</ele>
        <time>2019-09-10T15:31:24.200Z</time>
      </trkpt>
      <trkpt lat="10.1586148462231" lon="-75.6819579036719">
        <ele>55.4778713</ele>
        <time>2019-09-10T15:31:24.300Z</time>
      </trkpt>
      <trkpt lat="10.1586152381114" lon="-75.6819606155243">
        <ele>55.4778713</ele>
        <time>2019-09-10T15:31:24.400Z</time>
      </trkpt>
      <trkpt lat="10.1586156081525" lon="-75.6819633375423">
        <ele>55.4778713</ele>
        <time>2019-09-10T15:31:24.500Z</time>
      </trkpt>
      <trkpt lat="10.1586159339325" lon="-75.6819660235628">
        <ele>55.4778713</ele>
        <time>2019-09-10T15:31:24.600Z</time>
      </trkpt>
      <trkpt lat="10.1586162723427" lon="-75.681968719749">
        <ele>55.4778713</ele>
        <time>2019-09-10T15:31:24.700Z</time>
      </trkpt>
      <trkpt lat="10.1586165904755" lon="-75.6819713380916">
        <ele>55.4778713</ele>
        <time>2019-09-10T15:31:24.800Z</time>
      </trkpt>
      <trkpt lat="10.1586169450008" lon="-75.681973971056">
        <ele>55.4778713</ele>
        <time>2019-09-10T15:31:24.900Z</time>
      </trkpt>
      <trkpt lat="10.158617294517" lon="-75.6819766302699">
        <ele>55.4778713</ele>
        <time>2019-09-10T15:31:25.000Z</time>
      </trkpt>
      <trkpt lat="10.1586176558622" lon="-75.6819793183097">
        <ele>55.4778713</ele>
        <time>2019-09-10T15:31:25.100Z</time>
      </trkpt>
      <trkpt lat="10.1586179950671" lon="-75.6819820033555">
        <ele>55.4778713</ele>
        <time>2019-09-10T15:31:25.200Z</time>
      </trkpt>
      <trkpt lat="10.1586183514683" lon="-75.6819846945981">
        <ele>55.4778713</ele>
        <time>2019-09-10T15:31:25.300Z</time>
      </trkpt>
      <trkpt lat="10.1586187256718" lon="-75.6819873600089">
        <ele>55.4778713</ele>
        <time>2019-09-10T15:31:25.400Z</time>
      </trkpt>
      <trkpt lat="10.1586191217419" lon="-75.6819900429658">
        <ele>55.4778713</ele>
        <time>2019-09-10T15:31:25.500Z</time>
      </trkpt>
      <trkpt lat="10.1586195430073" lon="-75.6819927289864">
        <ele>55.4778713</ele>
        <time>2019-09-10T15:31:25.600Z</time>
      </trkpt>
      <trkpt lat="10.1586199854295" lon="-75.6819954186972">
        <ele>55.4778713</ele>
        <time>2019-09-10T15:31:25.700Z</time>
      </trkpt>
      <trkpt lat="10.1586204352709" lon="-75.6819981073636">
        <ele>55.4778713</ele>
        <time>2019-09-10T15:31:25.800Z</time>
      </trkpt>
      <trkpt lat="10.1586208860828" lon="-75.6820008089111">
        <ele>55.4778713</ele>
        <time>2019-09-10T15:31:25.900Z</time>
      </trkpt>
      <trkpt lat="10.1586213003915" lon="-75.6820034736256">
        <ele>55.4778713</ele>
        <time>2019-09-10T15:31:26.000Z</time>
      </trkpt>
      <trkpt lat="10.1586217101667" lon="-75.6820061482969">
        <ele>55.4778713</ele>
        <time>2019-09-10T15:31:26.100Z</time>
      </trkpt>
      <trkpt lat="10.1586221172321" lon="-75.6820088210186">
        <ele>55.4778713</ele>
        <time>2019-09-10T15:31:26.200Z</time>
      </trkpt>
      <trkpt lat="10.1586225300426" lon="-75.6820115029311">
        <ele>55.4778713</ele>
        <time>2019-09-10T15:31:26.300Z</time>
      </trkpt>
      <trkpt lat="10.1586229545063" lon="-75.682014183103">
        <ele>55.4778713</ele>
        <time>2019-09-10T15:31:26.400Z</time>
      </trkpt>
      <trkpt lat="10.1586233838619" lon="-75.6820168675221">
        <ele>55.4778713</ele>
        <time>2019-09-10T15:31:26.500Z</time>
      </trkpt>
      <trkpt lat="10.1586237960471" lon="-75.6820195525679">
        <ele>55.4778713</ele>
        <time>2019-09-10T15:31:26.600Z</time>
      </trkpt>
      <trkpt lat="10.1586242082063" lon="-75.6820222414431">
        <ele>55.4778713</ele>
        <time>2019-09-10T15:31:26.700Z</time>
      </trkpt>
      <trkpt lat="10.1586246039638" lon="-75.6820249013534">
        <ele>55.4778713</ele>
        <time>2019-09-10T15:31:26.800Z</time>
      </trkpt>
      <trkpt lat="10.1586250013041" lon="-75.68202757129">
        <ele>55.4778713</ele>
        <time>2019-09-10T15:31:26.900Z</time>
      </trkpt>
      <trkpt lat="10.1586254215208" lon="-75.6820301744538">
        <ele>55.4778713</ele>
        <time>2019-09-10T15:31:27.000Z</time>
      </trkpt>
      <trkpt lat="10.1586258473003" lon="-75.6820327948852">
        <ele>55.4778713</ele>
        <time>2019-09-10T15:31:27.100Z</time>
      </trkpt>
      <trkpt lat="10.1586262617197" lon="-75.6820354126708">
        <ele>55.4778713</ele>
        <time>2019-09-10T15:31:27.200Z</time>
      </trkpt>
      <trkpt lat="10.1586266810506" lon="-75.6820380651309">
        <ele>55.4778713</ele>
        <time>2019-09-10T15:31:27.300Z</time>
      </trkpt>
      <trkpt lat="10.1586270784495" lon="-75.6820407487145">
        <ele>55.4778713</ele>
        <time>2019-09-10T15:31:27.400Z</time>
      </trkpt>
      <trkpt lat="10.158627476324" lon="-75.682043453256">
        <ele>55.4778713</ele>
        <time>2019-09-10T15:31:27.500Z</time>
      </trkpt>
      <trkpt lat="10.1586278865356" lon="-75.6820461704">
        <ele>55.4778713</ele>
        <time>2019-09-10T15:31:27.600Z</time>
      </trkpt>
      <trkpt lat="10.1586283034954" lon="-75.6820489082234">
        <ele>55.3778713</ele>
        <time>2019-09-10T15:31:27.700Z</time>
      </trkpt>
      <trkpt lat="10.1586286703643" lon="-75.6820516973623">
        <ele>55.3778713</ele>
        <time>2019-09-10T15:31:27.800Z</time>
      </trkpt>
      <trkpt lat="10.1586290257429" lon="-75.6820544905396">
        <ele>55.3778713</ele>
        <time>2019-09-10T15:31:27.900Z</time>
      </trkpt>
      <trkpt lat="10.1586293672341" lon="-75.6820572946484">
        <ele>55.3778713</ele>
        <time>2019-09-10T15:31:28.000Z</time>
      </trkpt>
      <trkpt lat="10.1586297172584" lon="-75.6820600972951">
        <ele>55.3778713</ele>
        <time>2019-09-10T15:31:28.100Z</time>
      </trkpt>
      <trkpt lat="10.158630461314" lon="-75.6820656719522">
        <ele>55.3778713</ele>
        <time>2019-09-10T15:31:28.300Z</time>
      </trkpt>
      <trkpt lat="10.158630822594" lon="-75.6820684011419">
        <ele>55.3778713</ele>
        <time>2019-09-10T15:31:28.400Z</time>
      </trkpt>
      <trkpt lat="10.1586311858934" lon="-75.6820711404971">
        <ele>55.3778713</ele>
        <time>2019-09-10T15:31:28.500Z</time>
      </trkpt>
      <trkpt lat="10.1586315740363" lon="-75.6820738226185">
        <ele>55.3778713</ele>
        <time>2019-09-10T15:31:28.600Z</time>
      </trkpt>
      <trkpt lat="10.1586319751416" lon="-75.6820765268118">
        <ele>55.3778713</ele>
        <time>2019-09-10T15:31:28.700Z</time>
      </trkpt>
      <trkpt lat="10.158632345111" lon="-75.6820791365903">
        <ele>55.3778713</ele>
        <time>2019-09-10T15:31:28.800Z</time>
      </trkpt>
      <trkpt lat="10.158632712488" lon="-75.6820817623134">
        <ele>55.3778713</ele>
        <time>2019-09-10T15:31:28.900Z</time>
      </trkpt>
      <trkpt lat="10.158633087942" lon="-75.6820844163053">
        <ele>55.3778713</ele>
        <time>2019-09-10T15:31:29.000Z</time>
      </trkpt>
      <trkpt lat="10.1586334675909" lon="-75.6820871327531">
        <ele>55.3778713</ele>
        <time>2019-09-10T15:31:29.100Z</time>
      </trkpt>
      <trkpt lat="10.1586338412602" lon="-75.6820898824132">
        <ele>55.3778713</ele>
        <time>2019-09-10T15:31:29.200Z</time>
      </trkpt>
      <trkpt lat="10.1586342403462" lon="-75.6820926381309">
        <ele>55.3778713</ele>
        <time>2019-09-10T15:31:29.300Z</time>
      </trkpt>
      <trkpt lat="10.1586346437053" lon="-75.6820953577119">
        <ele>55.3778713</ele>
        <time>2019-09-10T15:31:29.400Z</time>
      </trkpt>
      <trkpt lat="10.1586350475594" lon="-75.6820980842556">
        <ele>55.3778713</ele>
        <time>2019-09-10T15:31:29.500Z</time>
      </trkpt>
      <trkpt lat="10.1586354498893" lon="-75.6821008621845">
        <ele>55.3778713</ele>
        <time>2019-09-10T15:31:29.600Z</time>
      </trkpt>
      <trkpt lat="10.1586358546423" lon="-75.6821036541781">
        <ele>55.3778713</ele>
        <time>2019-09-10T15:31:29.700Z</time>
      </trkpt>
      <trkpt lat="10.1586362511228" lon="-75.6821064514635">
        <ele>55.3778713</ele>
        <time>2019-09-10T15:31:29.800Z</time>
      </trkpt>
      <trkpt lat="10.1586366449327" lon="-75.6821092478436">
        <ele>55.3778713</ele>
        <time>2019-09-10T15:31:29.900Z</time>
      </trkpt>
      <trkpt lat="10.1586370269526" lon="-75.6821120316212">
        <ele>55.3778713</ele>
        <time>2019-09-10T15:31:30.000Z</time>
      </trkpt>
      <trkpt lat="10.1586374100148" lon="-75.6821148171395">
        <ele>55.3778713</ele>
        <time>2019-09-10T15:31:30.100Z</time>
      </trkpt>
      <trkpt lat="10.1586377911098" lon="-75.6821175690973">
        <ele>55.3778713</ele>
        <time>2019-09-10T15:31:30.200Z</time>
      </trkpt>
      <trkpt lat="10.1586381789791" lon="-75.6821203129087">
        <ele>55.3778713</ele>
        <time>2019-09-10T15:31:30.300Z</time>
      </trkpt>
      <trkpt lat="10.1586385708478" lon="-75.6821229955871">
        <ele>55.3778713</ele>
        <time>2019-09-10T15:31:30.400Z</time>
      </trkpt>
      <trkpt lat="10.1586389619349" lon="-75.6821256954635">
        <ele>55.3778713</ele>
        <time>2019-09-10T15:31:30.500Z</time>
      </trkpt>
      <trkpt lat="10.1586393322561" lon="-75.6821283914408">
        <ele>55.3778713</ele>
        <time>2019-09-10T15:31:30.600Z</time>
      </trkpt>
      <trkpt lat="10.1586397109149" lon="-75.6821311028058">
        <ele>55.3778713</ele>
        <time>2019-09-10T15:31:30.700Z</time>
      </trkpt>
      <trkpt lat="10.1586401067441" lon="-75.6821337403656">
        <ele>55.3778713</ele>
        <time>2019-09-10T15:31:30.800Z</time>
      </trkpt>
      <trkpt lat="10.1586405215283" lon="-75.6821363944271">
        <ele>55.3778713</ele>
        <time>2019-09-10T15:31:30.900Z</time>
      </trkpt>
      <trkpt lat="10.1586409505777" lon="-75.6821391072543">
        <ele>55.4778713</ele>
        <time>2019-09-10T15:31:31.000Z</time>
      </trkpt>
      <trkpt lat="10.158641844359" lon="-75.6821445097226">
        <ele>55.4778713</ele>
        <time>2019-09-10T15:31:31.200Z</time>
      </trkpt>
      <trkpt lat="10.1586422715585" lon="-75.6821471737408">
        <ele>55.3778713</ele>
        <time>2019-09-10T15:31:31.300Z</time>
      </trkpt>
      <trkpt lat="10.1586426490578" lon="-75.6821498294038">
        <ele>55.3778713</ele>
        <time>2019-09-10T15:31:31.400Z</time>
      </trkpt>
      <trkpt lat="10.1586430173076" lon="-75.6821525052587">
        <ele>55.3778713</ele>
        <time>2019-09-10T15:31:31.500Z</time>
      </trkpt>
      <trkpt lat="10.1586433687519" lon="-75.6821551830632">
        <ele>55.3778713</ele>
        <time>2019-09-10T15:31:31.600Z</time>
      </trkpt>
      <trkpt lat="10.1586437263582" lon="-75.6821578774391">
        <ele>55.3778713</ele>
        <time>2019-09-10T15:31:31.700Z</time>
      </trkpt>
      <trkpt lat="10.158644080395" lon="-75.6821605849049">
        <ele>55.3778713</ele>
        <time>2019-09-10T15:31:31.800Z</time>
      </trkpt>
      <trkpt lat="10.1586444278919" lon="-75.6821633108917">
        <ele>55.3778713</ele>
        <time>2019-09-10T15:31:31.900Z</time>
      </trkpt>
      <trkpt lat="10.1586447612539" lon="-75.6821660588111">
        <ele>55.3778713</ele>
        <time>2019-09-10T15:31:32.000Z</time>
      </trkpt>
      <trkpt lat="10.1586451161765" lon="-75.6821688106296">
        <ele>55.3778713</ele>
        <time>2019-09-10T15:31:32.100Z</time>
      </trkpt>
      <trkpt lat="10.1586454884649" lon="-75.6821715247101">
        <ele>55.3778713</ele>
        <time>2019-09-10T15:31:32.200Z</time>
      </trkpt>
      <trkpt lat="10.1586458835905" lon="-75.6821742364928">
        <ele>55.3778713</ele>
        <time>2019-09-10T15:31:32.300Z</time>
      </trkpt>
      <trkpt lat="10.1586463291458" lon="-75.6821769286406">
        <ele>55.3778713</ele>
        <time>2019-09-10T15:31:32.400Z</time>
      </trkpt>
      <trkpt lat="10.1586467999616" lon="-75.6821796418159">
        <ele>55.3778713</ele>
        <time>2019-09-10T15:31:32.500Z</time>
      </trkpt>
      <trkpt lat="10.1586477429218" lon="-75.6821851002647">
        <ele>55.3778713</ele>
        <time>2019-09-10T15:31:32.700Z</time>
      </trkpt>
      <trkpt lat="10.158648197401" lon="-75.682187814554">
        <ele>55.3778713</ele>
        <time>2019-09-10T15:31:32.800Z</time>
      </trkpt>
      <trkpt lat="10.1586486396082" lon="-75.6821905346921">
        <ele>55.3778713</ele>
        <time>2019-09-10T15:31:32.900Z</time>
      </trkpt>
      <trkpt lat="10.1586490604763" lon="-75.6821932278843">
        <ele>55.3778713</ele>
        <time>2019-09-10T15:31:33.000Z</time>
      </trkpt>
      <trkpt lat="10.1586494812402" lon="-75.6821959348627">
        <ele>55.3778713</ele>
        <time>2019-09-10T15:31:33.100Z</time>
      </trkpt>
      <trkpt lat="10.1586499080098" lon="-75.6821987027652">
        <ele>55.3778713</ele>
        <time>2019-09-10T15:31:33.200Z</time>
      </trkpt>
      <trkpt lat="10.1586503251781" lon="-75.6822014853591">
        <ele>55.3778713</ele>
        <time>2019-09-10T15:31:33.300Z</time>
      </trkpt>
      <trkpt lat="10.1586507006972" lon="-75.6822041936605">
        <ele>55.3778713</ele>
        <time>2019-09-10T15:31:33.400Z</time>
      </trkpt>
      <trkpt lat="10.1586510673707" lon="-75.6822069068358">
        <ele>55.3778713</ele>
        <time>2019-09-10T15:31:33.500Z</time>
      </trkpt>
      <trkpt lat="10.158651443867" lon="-75.6822095834566">
        <ele>55.3778713</ele>
        <time>2019-09-10T15:31:33.600Z</time>
      </trkpt>
      <trkpt lat="10.1586518202069" lon="-75.6822122742815">
        <ele>55.3778713</ele>
        <time>2019-09-10T15:31:33.700Z</time>
      </trkpt>
      <trkpt lat="10.1586521768752" lon="-75.6822150268659">
        <ele>55.3778713</ele>
        <time>2019-09-10T15:31:33.800Z</time>
      </trkpt>
      <trkpt lat="10.1586525301433" lon="-75.6822177990157">
        <ele>55.3778713</ele>
        <time>2019-09-10T15:31:33.900Z</time>
      </trkpt>
      <trkpt lat="10.1586528608217" lon="-75.6822205750646">
        <ele>55.3778713</ele>
        <time>2019-09-10T15:31:34.000Z</time>
      </trkpt>
      <trkpt lat="10.158653189129" lon="-75.6822233439419">
        <ele>55.3778713</ele>
        <time>2019-09-10T15:31:34.100Z</time>
      </trkpt>
      <trkpt lat="10.1586535061675" lon="-75.6822260357416">
        <ele>55.3778713</ele>
        <time>2019-09-10T15:31:34.200Z</time>
      </trkpt>
      <trkpt lat="10.1586538333545" lon="-75.6822287273323">
        <ele>55.3778713</ele>
        <time>2019-09-10T15:31:34.300Z</time>
      </trkpt>
      <trkpt lat="10.1586541725008" lon="-75.6822314625795">
        <ele>55.3778713</ele>
        <time>2019-09-10T15:31:34.400Z</time>
      </trkpt>
      <trkpt lat="10.1586545218085" lon="-75.6822342098027">
        <ele>55.3778713</ele>
        <time>2019-09-10T15:31:34.500Z</time>
      </trkpt>
      <trkpt lat="10.1586548814862" lon="-75.6822369262504">
        <ele>55.3778713</ele>
        <time>2019-09-10T15:31:34.600Z</time>
      </trkpt>
      <trkpt lat="10.158655249241" lon="-75.6822396409575">
        <ele>55.3778713</ele>
        <time>2019-09-10T15:31:34.700Z</time>
      </trkpt>
      <trkpt lat="10.1586556151458" lon="-75.6822422825557">
        <ele>55.3778713</ele>
        <time>2019-09-10T15:31:34.800Z</time>
      </trkpt>
      <trkpt lat="10.1586559877599" lon="-75.6822449314648">
        <ele>55.3778713</ele>
        <time>2019-09-10T15:31:34.900Z</time>
      </trkpt>
      <trkpt lat="10.1586563560878" lon="-75.6822475673536">
        <ele>55.3778713</ele>
        <time>2019-09-10T15:31:35.000Z</time>
      </trkpt>
      <trkpt lat="10.1586567343168" lon="-75.6822502230165">
        <ele>55.3778713</ele>
        <time>2019-09-10T15:31:35.100Z</time>
      </trkpt>
      <trkpt lat="10.1586571033091" lon="-75.6822528925353">
        <ele>55.3778713</ele>
        <time>2019-09-10T15:31:35.200Z</time>
      </trkpt>
      <trkpt lat="10.1586574807564" lon="-75.6822555786255">
        <ele>55.3778713</ele>
        <time>2019-09-10T15:31:35.300Z</time>
      </trkpt>
      <trkpt lat="10.1586578331777" lon="-75.6822582413905">
        <ele>55.3778713</ele>
        <time>2019-09-10T15:31:35.400Z</time>
      </trkpt>
      <trkpt lat="10.1586581951352" lon="-75.6822609152262">
        <ele>55.3778713</ele>
        <time>2019-09-10T15:31:35.500Z</time>
      </trkpt>
      <trkpt lat="10.1586585674887" lon="-75.6822636012468">
        <ele>55.3778713</ele>
        <time>2019-09-10T15:31:35.600Z</time>
      </trkpt>
      <trkpt lat="10.1586589509677" lon="-75.6822662976418">
        <ele>55.3778713</ele>
        <time>2019-09-10T15:31:35.700Z</time>
      </trkpt>
      <trkpt lat="10.1586593109451" lon="-75.6822689687621">
        <ele>55.3778713</ele>
        <time>2019-09-10T15:31:35.800Z</time>
      </trkpt>
      <trkpt lat="10.158659678791" lon="-75.6822716499784">
        <ele>55.3778713</ele>
        <time>2019-09-10T15:31:35.900Z</time>
      </trkpt>
      <trkpt lat="10.1586600265745" lon="-75.6822743017422">
        <ele>55.3778713</ele>
        <time>2019-09-10T15:31:36.000Z</time>
      </trkpt>
      <trkpt lat="10.1586603900563" lon="-75.6822769725143">
        <ele>55.3778713</ele>
        <time>2019-09-10T15:31:36.100Z</time>
      </trkpt>
      <trkpt lat="10.1586607319123" lon="-75.6822796166887">
        <ele>55.3778713</ele>
        <time>2019-09-10T15:31:36.200Z</time>
      </trkpt>
      <trkpt lat="10.1586610912643" lon="-75.6822822817514">
        <ele>55.3778713</ele>
        <time>2019-09-10T15:31:36.300Z</time>
      </trkpt>
      <trkpt lat="10.1586614660018" lon="-75.6822849549605">
        <ele>55.3778713</ele>
        <time>2019-09-10T15:31:36.400Z</time>
      </trkpt>
      <trkpt lat="10.1586618564506" lon="-75.6822876462727">
        <ele>55.3778713</ele>
        <time>2019-09-10T15:31:36.500Z</time>
      </trkpt>
      <trkpt lat="10.1586626518087" lon="-75.6822929582253">
        <ele>55.3778713</ele>
        <time>2019-09-10T15:31:36.700Z</time>
      </trkpt>
      <trkpt lat="10.1586630079298" lon="-75.6822955459318">
        <ele>55.3778713</ele>
        <time>2019-09-10T15:31:36.800Z</time>
      </trkpt>
      <trkpt lat="10.1586633611589" lon="-75.6822981546658">
        <ele>55.3778713</ele>
        <time>2019-09-10T15:31:36.900Z</time>
      </trkpt>
      <trkpt lat="10.1586636968268" lon="-75.6823009080858">
        <ele>55.3778713</ele>
        <time>2019-09-10T15:31:37.000Z</time>
      </trkpt>
      <trkpt lat="10.1586640549542" lon="-75.6823036896353">
        <ele>55.3778713</ele>
        <time>2019-09-10T15:31:37.100Z</time>
      </trkpt>
      <trkpt lat="10.1586644225396" lon="-75.6823064732736">
        <ele>55.3778713</ele>
        <time>2019-09-10T15:31:37.200Z</time>
      </trkpt>
      <trkpt lat="10.158664798632" lon="-75.682309241942">
        <ele>55.3778713</ele>
        <time>2019-09-10T15:31:37.300Z</time>
      </trkpt>
      <trkpt lat="10.1586651502195" lon="-75.6823119459265">
        <ele>55.3778713</ele>
        <time>2019-09-10T15:31:37.400Z</time>
      </trkpt>
      <trkpt lat="10.1586655111479" lon="-75.6823146488665">
        <ele>55.3778713</ele>
        <time>2019-09-10T15:31:37.500Z</time>
      </trkpt>
      <trkpt lat="10.1586658884128" lon="-75.682317364061">
        <ele>55.3778713</ele>
        <time>2019-09-10T15:31:37.600Z</time>
      </trkpt>
      <trkpt lat="10.1586662774024" lon="-75.6823200894907">
        <ele>55.3778713</ele>
        <time>2019-09-10T15:31:37.700Z</time>
      </trkpt>
      <trkpt lat="10.1586666505767" lon="-75.6823228398471">
        <ele>55.3778713</ele>
        <time>2019-09-10T15:31:37.800Z</time>
      </trkpt>
      <trkpt lat="10.1586670324924" lon="-75.6823255922227">
        <ele>55.3778713</ele>
        <time>2019-09-10T15:31:37.900Z</time>
      </trkpt>
      <trkpt lat="10.1586673895385" lon="-75.6823283253114">
        <ele>55.3778713</ele>
        <time>2019-09-10T15:31:38.000Z</time>
      </trkpt>
      <trkpt lat="10.158667756251" lon="-75.682331059375">
        <ele>55.3778713</ele>
        <time>2019-09-10T15:31:38.100Z</time>
      </trkpt>
      <trkpt lat="10.1586681244227" lon="-75.6823337258998">
        <ele>55.3778713</ele>
        <time>2019-09-10T15:31:38.200Z</time>
      </trkpt>
      <trkpt lat="10.1586685048402" lon="-75.6823364062805">
        <ele>55.3778713</ele>
        <time>2019-09-10T15:31:38.300Z</time>
      </trkpt>
      <trkpt lat="10.1586688667065" lon="-75.6823391472372">
        <ele>55.3778713</ele>
        <time>2019-09-10T15:31:38.400Z</time>
      </trkpt>
      <trkpt lat="10.1586692388125" lon="-75.6823419071326">
        <ele>55.3778713</ele>
        <time>2019-09-10T15:31:38.500Z</time>
      </trkpt>
      <trkpt lat="10.158669612117" lon="-75.6823446017869">
        <ele>55.3778713</ele>
        <time>2019-09-10T15:31:38.600Z</time>
      </trkpt>
      <trkpt lat="10.1586699979931" lon="-75.6823473011063">
        <ele>55.3778713</ele>
        <time>2019-09-10T15:31:38.700Z</time>
      </trkpt>
      <trkpt lat="10.1586704009744" lon="-75.6823500236813">
        <ele>55.3778713</ele>
        <time>2019-09-10T15:31:38.800Z</time>
      </trkpt>
      <trkpt lat="10.158670813127" lon="-75.6823527626188">
        <ele>55.3778713</ele>
        <time>2019-09-10T15:31:38.900Z</time>
      </trkpt>
      <trkpt lat="10.1586712285105" lon="-75.6823555088671">
        <ele>55.3778713</ele>
        <time>2019-09-10T15:31:39.000Z</time>
      </trkpt>
      <trkpt lat="10.158671648154" lon="-75.6823582565777">
        <ele>55.3778713</ele>
        <time>2019-09-10T15:31:39.100Z</time>
      </trkpt>
      <trkpt lat="10.158672056659" lon="-75.6823609283942">
        <ele>55.3778713</ele>
        <time>2019-09-10T15:31:39.200Z</time>
      </trkpt>
      <trkpt lat="10.1586724713781" lon="-75.6823636041099">
        <ele>55.3778713</ele>
        <time>2019-09-10T15:31:39.300Z</time>
      </trkpt>
      <trkpt lat="10.1586728756881" lon="-75.6823662574751">
        <ele>55.3778713</ele>
        <time>2019-09-10T15:31:39.400Z</time>
      </trkpt>
      <trkpt lat="10.1586732830597" lon="-75.6823689356974">
        <ele>55.3778713</ele>
        <time>2019-09-10T15:31:39.500Z</time>
      </trkpt>
      <trkpt lat="10.1586737037584" lon="-75.682371603963">
        <ele>55.3778713</ele>
        <time>2019-09-10T15:31:39.600Z</time>
      </trkpt>
      <trkpt lat="10.1586741258381" lon="-75.682374290262">
        <ele>55.4778713</ele>
        <time>2019-09-10T15:31:39.700Z</time>
      </trkpt>
      <trkpt lat="10.1586745360887" lon="-75.6823770168058">
        <ele>55.3778713</ele>
        <time>2019-09-10T15:31:39.800Z</time>
      </trkpt>
      <trkpt lat="10.1586749456489" lon="-75.682379753724">
        <ele>55.3778713</ele>
        <time>2019-09-10T15:31:39.900Z</time>
      </trkpt>
      <trkpt lat="10.158675340527" lon="-75.6823824462896">
        <ele>55.4778713</ele>
        <time>2019-09-10T15:31:40.000Z</time>
      </trkpt>
      <trkpt lat="10.1586757383885" lon="-75.6823851451912">
        <ele>55.4778713</ele>
        <time>2019-09-10T15:31:40.100Z</time>
      </trkpt>
      <trkpt lat="10.1586761244339" lon="-75.682387834902">
        <ele>55.4778713</ele>
        <time>2019-09-10T15:31:40.200Z</time>
      </trkpt>
      <trkpt lat="10.1586765148566" lon="-75.6823905405575">
        <ele>55.4778713</ele>
        <time>2019-09-10T15:31:40.300Z</time>
      </trkpt>
      <trkpt lat="10.1586768992997" lon="-75.6823932377185">
        <ele>55.4778713</ele>
        <time>2019-09-10T15:31:40.400Z</time>
      </trkpt>
      <trkpt lat="10.1586772913248" lon="-75.6823959503368">
        <ele>55.4778713</ele>
        <time>2019-09-10T15:31:40.500Z</time>
      </trkpt>
      <trkpt lat="10.1586776832587" lon="-75.682398650631">
        <ele>55.4778713</ele>
        <time>2019-09-10T15:31:40.600Z</time>
      </trkpt>
      <trkpt lat="10.1586780804687" lon="-75.6824013654077">
        <ele>55.4778713</ele>
        <time>2019-09-10T15:31:40.700Z</time>
      </trkpt>
      <trkpt lat="10.1586784712562" lon="-75.6824040534474">
        <ele>55.4778713</ele>
        <time>2019-09-10T15:31:40.800Z</time>
      </trkpt>
      <trkpt lat="10.1586788670723" lon="-75.6824067557608">
        <ele>55.4778713</ele>
        <time>2019-09-10T15:31:40.900Z</time>
      </trkpt>
      <trkpt lat="10.1586792681385" lon="-75.682409485786">
        <ele>55.4778713</ele>
        <time>2019-09-10T15:31:41.000Z</time>
      </trkpt>
      <trkpt lat="10.1586796720448" lon="-75.6824122324521">
        <ele>55.4778713</ele>
        <time>2019-09-10T15:31:41.100Z</time>
      </trkpt>
      <trkpt lat="10.1586800704273" lon="-75.6824149591351">
        <ele>55.4778713</ele>
        <time>2019-09-10T15:31:41.200Z</time>
      </trkpt>
      <trkpt lat="10.1586804707119" lon="-75.6824176927113">
        <ele>55.4778713</ele>
        <time>2019-09-10T15:31:41.300Z</time>
      </trkpt>
      <trkpt lat="10.1586809006471" lon="-75.6824204024052">
        <ele>55.4778713</ele>
        <time>2019-09-10T15:31:41.400Z</time>
      </trkpt>
      <trkpt lat="10.1586813319894" lon="-75.6824231263031">
        <ele>55.4778713</ele>
        <time>2019-09-10T15:31:41.500Z</time>
      </trkpt>
      <trkpt lat="10.1586817496918" lon="-75.6824257812698">
        <ele>55.4778713</ele>
        <time>2019-09-10T15:31:41.600Z</time>
      </trkpt>
      <trkpt lat="10.1586821637595" lon="-75.68242845427">
        <ele>55.4778713</ele>
        <time>2019-09-10T15:31:41.700Z</time>
      </trkpt>
      <trkpt lat="10.1586825646433" lon="-75.6824311089581">
        <ele>55.4778713</ele>
        <time>2019-09-10T15:31:41.800Z</time>
      </trkpt>
      <trkpt lat="10.1586829669081" lon="-75.6824337936558">
        <ele>55.4778713</ele>
        <time>2019-09-10T15:31:41.900Z</time>
      </trkpt>
      <trkpt lat="10.158683394798" lon="-75.6824364639405">
        <ele>55.4778713</ele>
        <time>2019-09-10T15:31:42.000Z</time>
      </trkpt>
      <trkpt lat="10.1586842403382" lon="-75.6824418720487">
        <ele>55.4778713</ele>
        <time>2019-09-10T15:31:42.200Z</time>
      </trkpt>
      <trkpt lat="10.1586846528427" lon="-75.682444604093">
        <ele>55.4778713</ele>
        <time>2019-09-10T15:31:42.300Z</time>
      </trkpt>
      <trkpt lat="10.1586850590287" lon="-75.6824473674697">
        <ele>55.4778713</ele>
        <time>2019-09-10T15:31:42.400Z</time>
      </trkpt>
      <trkpt lat="10.1586854658661" lon="-75.6824501369737">
        <ele>55.4778713</ele>
        <time>2019-09-10T15:31:42.500Z</time>
      </trkpt>
      <trkpt lat="10.1586858560674" lon="-75.6824528361538">
        <ele>55.4778713</ele>
        <time>2019-09-10T15:31:42.600Z</time>
      </trkpt>
      <trkpt lat="10.1586862508282" lon="-75.6824555416004">
        <ele>55.4778713</ele>
        <time>2019-09-10T15:31:42.700Z</time>
      </trkpt>
      <trkpt lat="10.1586866378507" lon="-75.6824582531743">
        <ele>55.4778713</ele>
        <time>2019-09-10T15:31:42.800Z</time>
      </trkpt>
      <trkpt lat="10.1586870308399" lon="-75.6824609834083">
        <ele>55.4778713</ele>
        <time>2019-09-10T15:31:42.900Z</time>
      </trkpt>
      <trkpt lat="10.1586874179015" lon="-75.6824636891335">
        <ele>55.4778713</ele>
        <time>2019-09-10T15:31:43.000Z</time>
      </trkpt>
      <trkpt lat="10.1586878106431" lon="-75.6824664086449">
        <ele>55.4778713</ele>
        <time>2019-09-10T15:31:43.100Z</time>
      </trkpt>
      <trkpt lat="10.1586881993462" lon="-75.682469135676">
        <ele>55.4778713</ele>
        <time>2019-09-10T15:31:43.200Z</time>
      </trkpt>
      <trkpt lat="10.1586885895474" lon="-75.6824718787215">
        <ele>55.4778713</ele>
        <time>2019-09-10T15:31:43.300Z</time>
      </trkpt>
      <trkpt lat="10.158688969066" lon="-75.6824745501899">
        <ele>55.4778713</ele>
        <time>2019-09-10T15:31:43.400Z</time>
      </trkpt>
      <trkpt lat="10.1586893515419" lon="-75.6824772315454">
        <ele>55.4778713</ele>
        <time>2019-09-10T15:31:43.500Z</time>
      </trkpt>
      <trkpt lat="10.1586897493903" lon="-75.6824800105187">
        <ele>55.4778713</ele>
        <time>2019-09-10T15:31:43.600Z</time>
      </trkpt>
      <trkpt lat="10.1586901503784" lon="-75.6824828068988">
        <ele>55.4778713</ele>
        <time>2019-09-10T15:31:43.700Z</time>
      </trkpt>
      <trkpt lat="10.1586905528516" lon="-75.6824855690223">
        <ele>55.4778713</ele>
        <time>2019-09-10T15:31:43.800Z</time>
      </trkpt>
      <trkpt lat="10.1586909554681" lon="-75.6824883257148">
        <ele>55.4778713</ele>
        <time>2019-09-10T15:31:43.900Z</time>
      </trkpt>
      <trkpt lat="10.1586913580585" lon="-75.6824910570628">
        <ele>55.4778713</ele>
        <time>2019-09-10T15:31:44.000Z</time>
      </trkpt>
      <trkpt lat="10.1586917458757" lon="-75.6824937013765">
        <ele>55.4778713</ele>
        <time>2019-09-10T15:31:44.100Z</time>
      </trkpt>
      <trkpt lat="10.1586921103215" lon="-75.6824961347188">
        <ele>55.4778713</ele>
        <time>2019-09-10T15:31:44.200Z</time>
      </trkpt>
      <trkpt lat="10.1586924485298" lon="-75.6824984016514">
        <ele>55.3778713</ele>
        <time>2019-09-10T15:31:44.300Z</time>
      </trkpt>
      <trkpt lat="10.1586927731763" lon="-75.6825004221025">
        <ele>55.3778713</ele>
        <time>2019-09-10T15:31:44.400Z</time>
      </trkpt>
      <trkpt lat="10.1586930715724" lon="-75.6825022803216">
        <ele>55.2778713</ele>
        <time>2019-09-10T15:31:44.500Z</time>
      </trkpt>
      <trkpt lat="10.1586933174284" lon="-75.6825038156082">
        <ele>55.1778713</ele>
        <time>2019-09-10T15:31:44.600Z</time>
      </trkpt>
      <trkpt lat="10.1586935343241" lon="-75.6825051881058">
        <ele>55.0778713</ele>
        <time>2019-09-10T15:31:44.700Z</time>
      </trkpt>
      <trkpt lat="10.1586936965953" lon="-75.68250631635">
        <ele>54.9778713</ele>
        <time>2019-09-10T15:31:44.800Z</time>
      </trkpt>
      <trkpt lat="10.1586938349609" lon="-75.6825072637019">
        <ele>54.7778713</ele>
        <time>2019-09-10T15:31:44.900Z</time>
      </trkpt>
      <trkpt lat="10.1586939621359" lon="-75.6825079084527">
        <ele>54.6778713</ele>
        <time>2019-09-10T15:31:45.000Z</time>
      </trkpt>
      <trkpt lat="10.1586940693526" lon="-75.6825083657662">
        <ele>54.4778713</ele>
        <time>2019-09-10T15:31:45.100Z</time>
      </trkpt>
      <trkpt lat="10.1586941742244" lon="-75.6825085392779">
        <ele>54.2778713</ele>
        <time>2019-09-10T15:31:45.200Z</time>
      </trkpt>
      <trkpt lat="10.1586942404304" lon="-75.682508562255">
        <ele>54.0778713</ele>
        <time>2019-09-10T15:31:45.300Z</time>
      </trkpt>
      <trkpt lat="10.1586942686742" lon="-75.6825084255066">
        <ele>53.7778713</ele>
        <time>2019-09-10T15:31:45.400Z</time>
      </trkpt>
      <trkpt lat="10.1586942628248" lon="-75.6825082054836">
        <ele>53.5778713</ele>
        <time>2019-09-10T15:31:45.500Z</time>
      </trkpt>
      <trkpt lat="10.1586942272856" lon="-75.682507805404">
        <ele>53.3778713</ele>
        <time>2019-09-10T15:31:45.600Z</time>
      </trkpt>
      <trkpt lat="10.1586941524293" lon="-75.6825072792985">
        <ele>53.0778713</ele>
        <time>2019-09-10T15:31:45.700Z</time>
      </trkpt>
      <trkpt lat="10.1586941438311" lon="-75.6825066759065">
        <ele>52.9778713</ele>
        <time>2019-09-10T15:31:45.800Z</time>
      </trkpt>
      <trkpt lat="10.158694198117" lon="-75.6825059665414">
        <ele>52.7778713</ele>
        <time>2019-09-10T15:31:45.900Z</time>
      </trkpt>
      <trkpt lat="10.1586943931264" lon="-75.6825051261373">
        <ele>52.6778713</ele>
        <time>2019-09-10T15:31:46.000Z</time>
      </trkpt>
      <trkpt lat="10.1586947129007" lon="-75.6825041747469">
        <ele>52.5778713</ele>
        <time>2019-09-10T15:31:46.100Z</time>
      </trkpt>
      <trkpt lat="10.1586953239189" lon="-75.6825031484374">
        <ele>52.4778713</ele>
        <time>2019-09-10T15:31:46.200Z</time>
      </trkpt>
      <trkpt lat="10.1586961002959" lon="-75.6825020306373">
        <ele>52.3778713</ele>
        <time>2019-09-10T15:31:46.300Z</time>
      </trkpt>
      <trkpt lat="10.1586971799933" lon="-75.6825008127129">
        <ele>52.3778713</ele>
        <time>2019-09-10T15:31:46.400Z</time>
      </trkpt>
      <trkpt lat="10.1586998197401" lon="-75.6824980420949">
        <ele>52.2778713</ele>
        <time>2019-09-10T15:31:46.600Z</time>
      </trkpt>
      <trkpt lat="10.1587013453707" lon="-75.6824964765899">
        <ele>52.2778713</ele>
        <time>2019-09-10T15:31:46.700Z</time>
      </trkpt>
      <trkpt lat="10.1587029967432" lon="-75.6824948404826">
        <ele>52.2778713</ele>
        <time>2019-09-10T15:31:46.800Z</time>
      </trkpt>
      <trkpt lat="10.158704745666" lon="-75.6824930938068">
        <ele>52.2778713</ele>
        <time>2019-09-10T15:31:46.900Z</time>
      </trkpt>
      <trkpt lat="10.1587066337491" lon="-75.682491180582">
        <ele>52.3778713</ele>
        <time>2019-09-10T15:31:47.000Z</time>
      </trkpt>
      <trkpt lat="10.1587086235513" lon="-75.682489142167">
        <ele>52.3778713</ele>
        <time>2019-09-10T15:31:47.100Z</time>
      </trkpt>
      <trkpt lat="10.1587127473578" lon="-75.682484889597">
        <ele>52.3778713</ele>
        <time>2019-09-10T15:31:47.300Z</time>
      </trkpt>
      <trkpt lat="10.1587169979353" lon="-75.6824805673995">
        <ele>52.3778713</ele>
        <time>2019-09-10T15:31:47.500Z</time>
      </trkpt>
      <trkpt lat="10.1587191270151" lon="-75.6824784188338">
        <ele>52.3778713</ele>
        <time>2019-09-10T15:31:47.600Z</time>
      </trkpt>
      <trkpt lat="10.1587212898753" lon="-75.6824762545321">
        <ele>52.3778713</ele>
        <time>2019-09-10T15:31:47.700Z</time>
      </trkpt>
      <trkpt lat="10.1587233710398" lon="-75.6824741935578">
        <ele>52.3778713</ele>
        <time>2019-09-10T15:31:47.800Z</time>
      </trkpt>
      <trkpt lat="10.1587254807346" lon="-75.682472121443">
        <ele>52.3778713</ele>
        <time>2019-09-10T15:31:47.900Z</time>
      </trkpt>
      <trkpt lat="10.1587296701347" lon="-75.6824680804014">
        <ele>52.3778713</ele>
        <time>2019-09-10T15:31:48.100Z</time>
      </trkpt>
      <trkpt lat="10.1587317515207" lon="-75.6824660911434">
        <ele>52.3778713</ele>
        <time>2019-09-10T15:31:48.200Z</time>
      </trkpt>
      <trkpt lat="10.1587338623228" lon="-75.6824640854533">
        <ele>52.3778713</ele>
        <time>2019-09-10T15:31:48.300Z</time>
      </trkpt>
      <trkpt lat="10.1587359198162" lon="-75.6824620967522">
        <ele>52.3778713</ele>
        <time>2019-09-10T15:31:48.400Z</time>
      </trkpt>
      <trkpt lat="10.1587380043418" lon="-75.6824601020633">
        <ele>52.3778713</ele>
        <time>2019-09-10T15:31:48.500Z</time>
      </trkpt>
      <trkpt lat="10.1587399805432" lon="-75.6824581238064">
        <ele>52.3778713</ele>
        <time>2019-09-10T15:31:48.600Z</time>
      </trkpt>
      <trkpt lat="10.1587419909811" lon="-75.6824561451317">
        <ele>52.3778713</ele>
        <time>2019-09-10T15:31:48.700Z</time>
      </trkpt>
      <trkpt lat="10.1587439771356" lon="-75.682454190966">
        <ele>52.3778713</ele>
        <time>2019-09-10T15:31:48.800Z</time>
      </trkpt>
      <trkpt lat="10.1587460137849" lon="-75.6824522402816">
        <ele>52.4778713</ele>
        <time>2019-09-10T15:31:48.900Z</time>
      </trkpt>
      <trkpt lat="10.1587480467084" lon="-75.6824502957244">
        <ele>52.4778713</ele>
        <time>2019-09-10T15:31:49.000Z</time>
      </trkpt>
      <trkpt lat="10.1587501162913" lon="-75.6824483565982">
        <ele>52.4778713</ele>
        <time>2019-09-10T15:31:49.100Z</time>
      </trkpt>
      <trkpt lat="10.1587521829822" lon="-75.6824463719356">
        <ele>52.4778713</ele>
        <time>2019-09-10T15:31:49.200Z</time>
      </trkpt>
      <trkpt lat="10.1587563543783" lon="-75.6824424069968">
        <ele>52.4778713</ele>
        <time>2019-09-10T15:31:49.400Z</time>
      </trkpt>
      <trkpt lat="10.1587584539246" lon="-75.6824404405766">
        <ele>52.3778713</ele>
        <time>2019-09-10T15:31:49.500Z</time>
      </trkpt>
      <trkpt lat="10.158760539818" lon="-75.6824384809103">
        <ele>52.3778713</ele>
        <time>2019-09-10T15:31:49.600Z</time>
      </trkpt>
      <trkpt lat="10.1587626408756" lon="-75.6824365506268">
        <ele>52.3778713</ele>
        <time>2019-09-10T15:31:49.700Z</time>
      </trkpt>
      <trkpt lat="10.1587647558205" lon="-75.6824346192988">
        <ele>52.3778713</ele>
        <time>2019-09-10T15:31:49.800Z</time>
      </trkpt>
      <trkpt lat="10.1587668856949" lon="-75.6824327094858">
        <ele>52.3778713</ele>
        <time>2019-09-10T15:31:49.900Z</time>
      </trkpt>
      <trkpt lat="10.1587689954809" lon="-75.6824308159656">
        <ele>52.3778713</ele>
        <time>2019-09-10T15:31:50.000Z</time>
      </trkpt>
      <trkpt lat="10.1587711144123" lon="-75.6824289385293">
        <ele>52.3778713</ele>
        <time>2019-09-10T15:31:50.100Z</time>
      </trkpt>
      <trkpt lat="10.1587732417073" lon="-75.6824269932062">
        <ele>52.3778713</ele>
        <time>2019-09-10T15:31:50.200Z</time>
      </trkpt>
      <trkpt lat="10.1587753801278" lon="-75.6824250653597">
        <ele>52.4778713</ele>
        <time>2019-09-10T15:31:50.300Z</time>
      </trkpt>
      <trkpt lat="10.158777515552" lon="-75.682423165573">
        <ele>52.4778713</ele>
        <time>2019-09-10T15:31:50.400Z</time>
      </trkpt>
      <trkpt lat="10.158779650846" lon="-75.6824212874405">
        <ele>52.4778713</ele>
        <time>2019-09-10T15:31:50.500Z</time>
      </trkpt>
      <trkpt lat="10.1587817146186" lon="-75.6824194399441">
        <ele>52.4778713</ele>
        <time>2019-09-10T15:31:50.600Z</time>
      </trkpt>
      <trkpt lat="10.1587837246917" lon="-75.6824176426491">
        <ele>52.4778713</ele>
        <time>2019-09-10T15:31:50.700Z</time>
      </trkpt>
      <trkpt lat="10.158785552301" lon="-75.6824158759902">
        <ele>52.4778713</ele>
        <time>2019-09-10T15:31:50.800Z</time>
      </trkpt>
      <trkpt lat="10.1587872348875" lon="-75.6824141131608">
        <ele>52.4778713</ele>
        <time>2019-09-10T15:31:50.900Z</time>
      </trkpt>
      <trkpt lat="10.1587886280018" lon="-75.682412312663">
        <ele>52.4778713</ele>
        <time>2019-09-10T15:31:51.000Z</time>
      </trkpt>
      <trkpt lat="10.158789821091" lon="-75.6824104952456">
        <ele>52.4778713</ele>
        <time>2019-09-10T15:31:51.100Z</time>
      </trkpt>
      <trkpt lat="10.1587906790074" lon="-75.6824085757544">
        <ele>52.4778713</ele>
        <time>2019-09-10T15:31:51.200Z</time>
      </trkpt>
      <trkpt lat="10.1587913123028" lon="-75.6824066517373">
        <ele>52.4778713</ele>
        <time>2019-09-10T15:31:51.300Z</time>
      </trkpt>
      <trkpt lat="10.158791512875" lon="-75.6824046830194">
        <ele>52.4778713</ele>
        <time>2019-09-10T15:31:51.400Z</time>
      </trkpt>
      <trkpt lat="10.1587914540426" lon="-75.6824027147193">
        <ele>52.3778713</ele>
        <time>2019-09-10T15:31:51.500Z</time>
      </trkpt>
      <trkpt lat="10.15879100837" lon="-75.6824006817351">
        <ele>52.3778713</ele>
        <time>2019-09-10T15:31:51.600Z</time>
      </trkpt>
      <trkpt lat="10.158790313298" lon="-75.682398659404">
        <ele>52.3778713</ele>
        <time>2019-09-10T15:31:51.700Z</time>
      </trkpt>
      <trkpt lat="10.158789237144" lon="-75.6823965161996">
        <ele>52.3778713</ele>
        <time>2019-09-10T15:31:51.800Z</time>
      </trkpt>
      <trkpt lat="10.1587878962963" lon="-75.6823944153286">
        <ele>52.3778713</ele>
        <time>2019-09-10T15:31:51.900Z</time>
      </trkpt>
      <trkpt lat="10.1587862285872" lon="-75.682392305615">
        <ele>52.3778713</ele>
        <time>2019-09-10T15:31:52.000Z</time>
      </trkpt>
      <trkpt lat="10.1587843977472" lon="-75.6823902720739">
        <ele>52.3778713</ele>
        <time>2019-09-10T15:31:52.100Z</time>
      </trkpt>
      <trkpt lat="10.1587824172987" lon="-75.6823882062256">
        <ele>52.3778713</ele>
        <time>2019-09-10T15:31:52.200Z</time>
      </trkpt>
      <trkpt lat="10.1587803721555" lon="-75.6823861984466">
        <ele>52.3778713</ele>
        <time>2019-09-10T15:31:52.300Z</time>
      </trkpt>
      <trkpt lat="10.1587783014521" lon="-75.6823841117797">
        <ele>52.3778713</ele>
        <time>2019-09-10T15:31:52.400Z</time>
      </trkpt>
      <trkpt lat="10.158776193959" lon="-75.6823820849228">
        <ele>52.3778713</ele>
        <time>2019-09-10T15:31:52.500Z</time>
      </trkpt>
      <trkpt lat="10.1587741852929" lon="-75.6823800357155">
        <ele>52.4778713</ele>
        <time>2019-09-10T15:31:52.600Z</time>
      </trkpt>
      <trkpt lat="10.1587721424946" lon="-75.6823780311394">
        <ele>52.4778713</ele>
        <time>2019-09-10T15:31:52.700Z</time>
      </trkpt>
      <trkpt lat="10.158770123719" lon="-75.6823759605564">
        <ele>52.4778713</ele>
        <time>2019-09-10T15:31:52.800Z</time>
      </trkpt>
      <trkpt lat="10.1587680529375" lon="-75.6823739450488">
        <ele>52.4778713</ele>
        <time>2019-09-10T15:31:52.900Z</time>
      </trkpt>
      <trkpt lat="10.1587660696751" lon="-75.6823719010635">
        <ele>52.4778713</ele>
        <time>2019-09-10T15:31:53.000Z</time>
      </trkpt>
      <trkpt lat="10.1587640530101" lon="-75.6823699008044">
        <ele>52.4778713</ele>
        <time>2019-09-10T15:31:53.100Z</time>
      </trkpt>
      <trkpt lat="10.158762128059" lon="-75.6823679685016">
        <ele>52.4778713</ele>
        <time>2019-09-10T15:31:53.200Z</time>
      </trkpt>
      <trkpt lat="10.1587601709559" lon="-75.6823660595241">
        <ele>52.4778713</ele>
        <time>2019-09-10T15:31:53.300Z</time>
      </trkpt>
      <trkpt lat="10.1587582240925" lon="-75.6823641738022">
        <ele>52.4778713</ele>
        <time>2019-09-10T15:31:53.400Z</time>
      </trkpt>
      <trkpt lat="10.1587562477608" lon="-75.6823622871055">
        <ele>52.4778713</ele>
        <time>2019-09-10T15:31:53.500Z</time>
      </trkpt>
      <trkpt lat="10.1587523798545" lon="-75.6823585743576">
        <ele>52.4778713</ele>
        <time>2019-09-10T15:31:53.700Z</time>
      </trkpt>
      <trkpt lat="10.1587503976083" lon="-75.6823567072263">
        <ele>52.4778713</ele>
        <time>2019-09-10T15:31:53.800Z</time>
      </trkpt>
      <trkpt lat="10.1587483983741" lon="-75.6823548164912">
        <ele>52.4778713</ele>
        <time>2019-09-10T15:31:53.900Z</time>
      </trkpt>
      <trkpt lat="10.1587463827513" lon="-75.682352941283">
        <ele>52.4778713</ele>
        <time>2019-09-10T15:31:54.000Z</time>
      </trkpt>
      <trkpt lat="10.1587443767949" lon="-75.6823510416356">
        <ele>52.4778713</ele>
        <time>2019-09-10T15:31:54.100Z</time>
      </trkpt>
      <trkpt lat="10.1587423173213" lon="-75.6823491687251">
        <ele>52.4778713</ele>
        <time>2019-09-10T15:31:54.200Z</time>
      </trkpt>
      <trkpt lat="10.1587402809846" lon="-75.6823472675459">
        <ele>52.4778713</ele>
        <time>2019-09-10T15:31:54.300Z</time>
      </trkpt>
      <trkpt lat="10.1587382319331" lon="-75.6823453690821">
        <ele>52.4778713</ele>
        <time>2019-09-10T15:31:54.400Z</time>
      </trkpt>
      <trkpt lat="10.1587342650305" lon="-75.6823415556529">
        <ele>52.4778713</ele>
        <time>2019-09-10T15:31:54.600Z</time>
      </trkpt>
      <trkpt lat="10.1587323391023" lon="-75.6823396418711">
        <ele>52.4778713</ele>
        <time>2019-09-10T15:31:54.700Z</time>
      </trkpt>
      <trkpt lat="10.1587304179814" lon="-75.6823377801706">
        <ele>52.3778713</ele>
        <time>2019-09-10T15:31:54.800Z</time>
      </trkpt>
      <trkpt lat="10.1587285117769" lon="-75.6823358819157">
        <ele>52.3778713</ele>
        <time>2019-09-10T15:31:54.900Z</time>
      </trkpt>
      <trkpt lat="10.1587265836732" lon="-75.6823339436251">
        <ele>52.3778713</ele>
        <time>2019-09-10T15:31:55.000Z</time>
      </trkpt>
      <trkpt lat="10.1587246771691" lon="-75.6823319711472">
        <ele>52.3778713</ele>
        <time>2019-09-10T15:31:55.100Z</time>
      </trkpt>
      <trkpt lat="10.1587227949093" lon="-75.6823300313248">
        <ele>52.3778713</ele>
        <time>2019-09-10T15:31:55.200Z</time>
      </trkpt>
      <trkpt lat="10.1587209348224" lon="-75.682328064626">
        <ele>52.3778713</ele>
        <time>2019-09-10T15:31:55.300Z</time>
      </trkpt>
      <trkpt lat="10.1587190465439" lon="-75.6823260670127">
        <ele>52.3778713</ele>
        <time>2019-09-10T15:31:55.400Z</time>
      </trkpt>
      <trkpt lat="10.1587171805555" lon="-75.6823240407128">
        <ele>52.3778713</ele>
        <time>2019-09-10T15:31:55.500Z</time>
      </trkpt>
      <trkpt lat="10.1587153746372" lon="-75.6823221019347">
        <ele>52.3778713</ele>
        <time>2019-09-10T15:31:55.600Z</time>
      </trkpt>
      <trkpt lat="10.1587135835572" lon="-75.6823201344005">
        <ele>52.3778713</ele>
        <time>2019-09-10T15:31:55.700Z</time>
      </trkpt>
      <trkpt lat="10.1587118024564" lon="-75.6823181699995">
        <ele>52.3778713</ele>
        <time>2019-09-10T15:31:55.800Z</time>
      </trkpt>
      <trkpt lat="10.158710026788" lon="-75.6823161670248">
        <ele>52.3778713</ele>
        <time>2019-09-10T15:31:55.900Z</time>
      </trkpt>
      <trkpt lat="10.1587082685505" lon="-75.6823142377857">
        <ele>52.3778713</ele>
        <time>2019-09-10T15:31:56.000Z</time>
      </trkpt>
      <trkpt lat="10.1587065157325" lon="-75.682312275195">
        <ele>52.3778713</ele>
        <time>2019-09-10T15:31:56.100Z</time>
      </trkpt>
      <trkpt lat="10.1587047321955" lon="-75.6823102903931">
        <ele>52.3778713</ele>
        <time>2019-09-10T15:31:56.200Z</time>
      </trkpt>
      <trkpt lat="10.1587029563057" lon="-75.6823082570609">
        <ele>52.3778713</ele>
        <time>2019-09-10T15:31:56.300Z</time>
      </trkpt>
      <trkpt lat="10.1587011740193" lon="-75.6823062022137">
        <ele>52.4778713</ele>
        <time>2019-09-10T15:31:56.400Z</time>
      </trkpt>
      <trkpt lat="10.1586994066755" lon="-75.6823041233451">
        <ele>52.4778713</ele>
        <time>2019-09-10T15:31:56.500Z</time>
      </trkpt>
      <trkpt lat="10.1586976245195" lon="-75.6823020440587">
        <ele>52.4778713</ele>
        <time>2019-09-10T15:31:56.600Z</time>
      </trkpt>
      <trkpt lat="10.1586958558208" lon="-75.6822999483402">
        <ele>52.4778713</ele>
        <time>2019-09-10T15:31:56.700Z</time>
      </trkpt>
      <trkpt lat="10.1586941019215" lon="-75.68229786975">
        <ele>52.4778713</ele>
        <time>2019-09-10T15:31:56.800Z</time>
      </trkpt>
      <trkpt lat="10.158692359291" lon="-75.6822957759811">
        <ele>52.3778713</ele>
        <time>2019-09-10T15:31:56.900Z</time>
      </trkpt>
      <trkpt lat="10.1586906244771" lon="-75.682293711595">
        <ele>52.3778713</ele>
        <time>2019-09-10T15:31:57.000Z</time>
      </trkpt>
      <trkpt lat="10.1586888931545" lon="-75.682291627922">
        <ele>52.3778713</ele>
        <time>2019-09-10T15:31:57.100Z</time>
      </trkpt>
      <trkpt lat="10.1586871920168" lon="-75.6822895801073">
        <ele>52.4778713</ele>
        <time>2019-09-10T15:31:57.200Z</time>
      </trkpt>
      <trkpt lat="10.1586854922339" lon="-75.6822875138412">
        <ele>52.4778713</ele>
        <time>2019-09-10T15:31:57.300Z</time>
      </trkpt>
      <trkpt lat="10.158683760299" lon="-75.6822854477144">
        <ele>52.4778713</ele>
        <time>2019-09-10T15:31:57.400Z</time>
      </trkpt>
      <trkpt lat="10.1586820284293" lon="-75.6822833545025">
        <ele>52.4778713</ele>
        <time>2019-09-10T15:31:57.500Z</time>
      </trkpt>
      <trkpt lat="10.1586803171561" lon="-75.6822812952688">
        <ele>52.4778713</ele>
        <time>2019-09-10T15:31:57.600Z</time>
      </trkpt>
      <trkpt lat="10.1586786126442" lon="-75.682279214381">
        <ele>52.4778713</ele>
        <time>2019-09-10T15:31:57.700Z</time>
      </trkpt>
      <trkpt lat="10.158676925928" lon="-75.6822771373923">
        <ele>52.4778713</ele>
        <time>2019-09-10T15:31:57.800Z</time>
      </trkpt>
      <trkpt lat="10.1586752349908" lon="-75.6822750385405">
        <ele>52.4778713</ele>
        <time>2019-09-10T15:31:57.900Z</time>
      </trkpt>
      <trkpt lat="10.1586734925427" lon="-75.6822729093312">
        <ele>52.4778713</ele>
        <time>2019-09-10T15:31:58.000Z</time>
      </trkpt>
      <trkpt lat="10.1586717504464" lon="-75.6822707680067">
        <ele>52.4778713</ele>
        <time>2019-09-10T15:31:58.100Z</time>
      </trkpt>
      <trkpt lat="10.1586700238398" lon="-75.682268640538">
        <ele>52.4778713</ele>
        <time>2019-09-10T15:31:58.200Z</time>
      </trkpt>
      <trkpt lat="10.1586666352041" lon="-75.6822644340615">
        <ele>52.4778713</ele>
        <time>2019-09-10T15:31:58.400Z</time>
      </trkpt>
      <trkpt lat="10.158664959887" lon="-75.6822623513633">
        <ele>52.4778713</ele>
        <time>2019-09-10T15:31:58.500Z</time>
      </trkpt>
      <trkpt lat="10.1586632679207" lon="-75.6822602557841">
        <ele>52.3778713</ele>
        <time>2019-09-10T15:31:58.600Z</time>
      </trkpt>
      <trkpt lat="10.1586615641253" lon="-75.6822581451653">
        <ele>52.3778713</ele>
        <time>2019-09-10T15:31:58.700Z</time>
      </trkpt>
      <trkpt lat="10.158659945465" lon="-75.6822561437224">
        <ele>52.3778713</ele>
        <time>2019-09-10T15:31:58.800Z</time>
      </trkpt>
      <trkpt lat="10.1586583260621" lon="-75.6822541371968">
        <ele>52.3778713</ele>
        <time>2019-09-10T15:31:58.900Z</time>
      </trkpt>
      <trkpt lat="10.1586566262011" lon="-75.6822520654998">
        <ele>52.3778713</ele>
        <time>2019-09-10T15:31:59.000Z</time>
      </trkpt>
      <trkpt lat="10.1586548967154" lon="-75.6822499526529">
        <ele>52.3778713</ele>
        <time>2019-09-10T15:31:59.100Z</time>
      </trkpt>
      <trkpt lat="10.1586531643246" lon="-75.6822478345839">
        <ele>52.3778713</ele>
        <time>2019-09-10T15:31:59.200Z</time>
      </trkpt>
      <trkpt lat="10.1586514366888" lon="-75.6822457115715">
        <ele>52.3778713</ele>
        <time>2019-09-10T15:31:59.300Z</time>
      </trkpt>
      <trkpt lat="10.1586497146418" lon="-75.6822436570724">
        <ele>52.3778713</ele>
        <time>2019-09-10T15:31:59.400Z</time>
      </trkpt>
      <trkpt lat="10.1586479928685" lon="-75.682241591433">
        <ele>52.3778713</ele>
        <time>2019-09-10T15:31:59.500Z</time>
      </trkpt>
      <trkpt lat="10.1586462893337" lon="-75.6822395301105">
        <ele>52.3778713</ele>
        <time>2019-09-10T15:31:59.600Z</time>
      </trkpt>
      <trkpt lat="10.1586445804575" lon="-75.6822374452539">
        <ele>52.3778713</ele>
        <time>2019-09-10T15:31:59.700Z</time>
      </trkpt>
      <trkpt lat="10.1586428279913" lon="-75.6822353315715">
        <ele>52.3778713</ele>
        <time>2019-09-10T15:31:59.800Z</time>
      </trkpt>
      <trkpt lat="10.1586410755771" lon="-75.6822332088375">
        <ele>52.3778713</ele>
        <time>2019-09-10T15:31:59.900Z</time>
      </trkpt>
      <trkpt lat="10.1586393159326" lon="-75.6822310974528">
        <ele>52.3778713</ele>
        <time>2019-09-10T15:32:00.000Z</time>
      </trkpt>
      <trkpt lat="10.158637566645" lon="-75.6822289871126">
        <ele>52.3778713</ele>
        <time>2019-09-10T15:32:00.100Z</time>
      </trkpt>
      <trkpt lat="10.158635815234" lon="-75.6822268893749">
        <ele>52.3778713</ele>
        <time>2019-09-10T15:32:00.200Z</time>
      </trkpt>
      <trkpt lat="10.1586340675488" lon="-75.6822247857884">
        <ele>52.3778713</ele>
        <time>2019-09-10T15:32:00.300Z</time>
      </trkpt>
      <trkpt lat="10.1586323501657" lon="-75.6822227236304">
        <ele>52.3778713</ele>
        <time>2019-09-10T15:32:00.400Z</time>
      </trkpt>
      <trkpt lat="10.1586306307764" lon="-75.6822206501231">
        <ele>52.3778713</ele>
        <time>2019-09-10T15:32:00.500Z</time>
      </trkpt>
      <trkpt lat="10.1586288770855" lon="-75.6822185402006">
        <ele>52.3778713</ele>
        <time>2019-09-10T15:32:00.600Z</time>
      </trkpt>
      <trkpt lat="10.1586271238636" lon="-75.6822164192073">
        <ele>52.3778713</ele>
        <time>2019-09-10T15:32:00.700Z</time>
      </trkpt>
      <trkpt lat="10.1586254358641" lon="-75.6822143397816">
        <ele>52.3778713</ele>
        <time>2019-09-10T15:32:00.800Z</time>
      </trkpt>
      <trkpt lat="10.1586237442561" lon="-75.6822122561087">
        <ele>52.3778713</ele>
        <time>2019-09-10T15:32:00.900Z</time>
      </trkpt>
      <trkpt lat="10.1586220467725" lon="-75.6822102087813">
        <ele>52.3778713</ele>
        <time>2019-09-10T15:32:01.000Z</time>
      </trkpt>
      <trkpt lat="10.1586203384501" lon="-75.6822081427937">
        <ele>52.3778713</ele>
        <time>2019-09-10T15:32:01.100Z</time>
      </trkpt>
      <trkpt lat="10.158618618468" lon="-75.6822060795913">
        <ele>52.3778713</ele>
        <time>2019-09-10T15:32:01.200Z</time>
      </trkpt>
      <trkpt lat="10.1586168933661" lon="-75.6822040010708">
        <ele>52.3778713</ele>
        <time>2019-09-10T15:32:01.300Z</time>
      </trkpt>
      <trkpt lat="10.1586151909842" lon="-75.6822019553448">
        <ele>52.3778713</ele>
        <time>2019-09-10T15:32:01.400Z</time>
      </trkpt>
      <trkpt lat="10.1586134845703" lon="-75.6821998969467">
        <ele>52.3778713</ele>
        <time>2019-09-10T15:32:01.500Z</time>
      </trkpt>
      <trkpt lat="10.1586117990396" lon="-75.6821978299843">
        <ele>52.3778713</ele>
        <time>2019-09-10T15:32:01.600Z</time>
      </trkpt>
      <trkpt lat="10.1586101039597" lon="-75.6821957486787">
        <ele>52.3778713</ele>
        <time>2019-09-10T15:32:01.700Z</time>
      </trkpt>
      <trkpt lat="10.1586084264865" lon="-75.6821936904895">
        <ele>52.3778713</ele>
        <time>2019-09-10T15:32:01.800Z</time>
      </trkpt>
      <trkpt lat="10.1586067359532" lon="-75.6821916198369">
        <ele>52.3778713</ele>
        <time>2019-09-10T15:32:01.900Z</time>
      </trkpt>
      <trkpt lat="10.1586050579068" lon="-75.6821895402023">
        <ele>52.3778713</ele>
        <time>2019-09-10T15:32:02.000Z</time>
      </trkpt>
      <trkpt lat="10.1586033636737" lon="-75.6821874505414">
        <ele>52.3778713</ele>
        <time>2019-09-10T15:32:02.100Z</time>
      </trkpt>
      <trkpt lat="10.1586016445514" lon="-75.6821853864338">
        <ele>52.3778713</ele>
        <time>2019-09-10T15:32:02.200Z</time>
      </trkpt>
      <trkpt lat="10.1585999158995" lon="-75.6821833065207">
        <ele>52.3778713</ele>
        <time>2019-09-10T15:32:02.300Z</time>
      </trkpt>
      <trkpt lat="10.1585982055252" lon="-75.6821812497937">
        <ele>52.3778713</ele>
        <time>2019-09-10T15:32:02.400Z</time>
      </trkpt>
      <trkpt lat="10.1585964912752" lon="-75.6821791785144">
        <ele>52.3778713</ele>
        <time>2019-09-10T15:32:02.500Z</time>
      </trkpt>
      <trkpt lat="10.1585947637502" lon="-75.682177105773">
        <ele>52.3778713</ele>
        <time>2019-09-10T15:32:02.600Z</time>
      </trkpt>
      <trkpt lat="10.1585912837458" lon="-75.6821729316036">
        <ele>52.3778713</ele>
        <time>2019-09-10T15:32:02.800Z</time>
      </trkpt>
      <trkpt lat="10.1585895365361" lon="-75.6821708345622">
        <ele>52.3778713</ele>
        <time>2019-09-10T15:32:02.900Z</time>
      </trkpt>
      <trkpt lat="10.1585877878153" lon="-75.6821687348053">
        <ele>52.3778713</ele>
        <time>2019-09-10T15:32:03.000Z</time>
      </trkpt>
      <trkpt lat="10.1585860434" lon="-75.6821666298263">
        <ele>52.3778713</ele>
        <time>2019-09-10T15:32:03.100Z</time>
      </trkpt>
      <trkpt lat="10.1585843346607" lon="-75.6821645591737">
        <ele>52.3778713</ele>
        <time>2019-09-10T15:32:03.200Z</time>
      </trkpt>
      <trkpt lat="10.1585826233484" lon="-75.6821624856664">
        <ele>52.3778713</ele>
        <time>2019-09-10T15:32:03.300Z</time>
      </trkpt>
      <trkpt lat="10.1585809164721" lon="-75.6821604152923">
        <ele>52.3778713</ele>
        <time>2019-09-10T15:32:03.400Z</time>
      </trkpt>
      <trkpt lat="10.1585792021179" lon="-75.6821583446397">
        <ele>52.3778713</ele>
        <time>2019-09-10T15:32:03.500Z</time>
      </trkpt>
      <trkpt lat="10.1585775134605" lon="-75.6821562756582">
        <ele>52.4778713</ele>
        <time>2019-09-10T15:32:03.600Z</time>
      </trkpt>
      <trkpt lat="10.1585758192665" lon="-75.6821542081388">
        <ele>52.4778713</ele>
        <time>2019-09-10T15:32:03.700Z</time>
      </trkpt>
      <trkpt lat="10.1585741681676" lon="-75.682152230996">
        <ele>52.4778713</ele>
        <time>2019-09-10T15:32:03.800Z</time>
      </trkpt>
      <trkpt lat="10.1585725091414" lon="-75.6821502457763">
        <ele>52.4778713</ele>
        <time>2019-09-10T15:32:03.900Z</time>
      </trkpt>
      <trkpt lat="10.1585708072904" lon="-75.682148193018">
        <ele>52.4778713</ele>
        <time>2019-09-10T15:32:04.000Z</time>
      </trkpt>
      <trkpt lat="10.158569088484" lon="-75.6821461174219">
        <ele>52.4778713</ele>
        <time>2019-09-10T15:32:04.100Z</time>
      </trkpt>
      <trkpt lat="10.1585674055653" lon="-75.6821440677968">
        <ele>52.4778713</ele>
        <time>2019-09-10T15:32:04.200Z</time>
      </trkpt>
      <trkpt lat="10.158565724692" lon="-75.6821420071009">
        <ele>52.4778713</ele>
        <time>2019-09-10T15:32:04.300Z</time>
      </trkpt>
      <trkpt lat="10.1585640598099" lon="-75.6821399106165">
        <ele>52.4778713</ele>
        <time>2019-09-10T15:32:04.400Z</time>
      </trkpt>
      <trkpt lat="10.1585623760639" lon="-75.6821378057072">
        <ele>52.4778713</ele>
        <time>2019-09-10T15:32:04.500Z</time>
      </trkpt>
      <trkpt lat="10.1585606899274" lon="-75.6821357246801">
        <ele>52.4778713</ele>
        <time>2019-09-10T15:32:04.600Z</time>
      </trkpt>
      <trkpt lat="10.1585589850117" lon="-75.6821336341836">
        <ele>52.4778713</ele>
        <time>2019-09-10T15:32:04.700Z</time>
      </trkpt>
      <trkpt lat="10.1585572731555" lon="-75.6821315329646">
        <ele>52.4778713</ele>
        <time>2019-09-10T15:32:04.800Z</time>
      </trkpt>
      <trkpt lat="10.1585555461223" lon="-75.6821294131549">
        <ele>52.4778713</ele>
        <time>2019-09-10T15:32:04.900Z</time>
      </trkpt>
      <trkpt lat="10.1585538291528" lon="-75.6821273156958">
        <ele>52.4778713</ele>
        <time>2019-09-10T15:32:05.000Z</time>
      </trkpt>
      <trkpt lat="10.1585520958761" lon="-75.6821252057732">
        <ele>52.4778713</ele>
        <time>2019-09-10T15:32:05.100Z</time>
      </trkpt>
      <trkpt lat="10.1585503565937" lon="-75.6821230673731">
        <ele>52.4778713</ele>
        <time>2019-09-10T15:32:05.200Z</time>
      </trkpt>
      <trkpt lat="10.1585486096576" lon="-75.6821209197821">
        <ele>52.4778713</ele>
        <time>2019-09-10T15:32:05.300Z</time>
      </trkpt>
      <trkpt lat="10.1585468692711" lon="-75.6821187919653">
        <ele>52.4778713</ele>
        <time>2019-09-10T15:32:05.400Z</time>
      </trkpt>
      <trkpt lat="10.1585451269403" lon="-75.6821166577428">
        <ele>52.4778713</ele>
        <time>2019-09-10T15:32:05.500Z</time>
      </trkpt>
      <trkpt lat="10.15854336023" lon="-75.6821145226151">
        <ele>52.4778713</ele>
        <time>2019-09-10T15:32:05.600Z</time>
      </trkpt>
      <trkpt lat="10.1585415902905" lon="-75.6821123868608">
        <ele>52.4778713</ele>
        <time>2019-09-10T15:32:05.700Z</time>
      </trkpt>
      <trkpt lat="10.1585398006208" lon="-75.6821102502013">
        <ele>52.4778713</ele>
        <time>2019-09-10T15:32:05.800Z</time>
      </trkpt>
      <trkpt lat="10.1585380153657" lon="-75.6821081157699">
        <ele>52.3778713</ele>
        <time>2019-09-10T15:32:05.900Z</time>
      </trkpt>
      <trkpt lat="10.1585362716019" lon="-75.6821060093984">
        <ele>52.3778713</ele>
        <time>2019-09-10T15:32:06.000Z</time>
      </trkpt>
      <trkpt lat="10.1585345184728" lon="-75.682103901704">
        <ele>52.3778713</ele>
        <time>2019-09-10T15:32:06.100Z</time>
      </trkpt>
      <trkpt lat="10.1585327751583" lon="-75.6821018206072">
        <ele>52.3778713</ele>
        <time>2019-09-10T15:32:06.200Z</time>
      </trkpt>
      <trkpt lat="10.15853102033" lon="-75.6820997345669">
        <ele>52.3778713</ele>
        <time>2019-09-10T15:32:06.300Z</time>
      </trkpt>
      <trkpt lat="10.1585292532859" lon="-75.6820976248533">
        <ele>52.3778713</ele>
        <time>2019-09-10T15:32:06.400Z</time>
      </trkpt>
      <trkpt lat="10.1585274792004" lon="-75.682095506297">
        <ele>52.3778713</ele>
        <time>2019-09-10T15:32:06.500Z</time>
      </trkpt>
      <trkpt lat="10.1585239816898" lon="-75.6820912790018">
        <ele>52.3778713</ele>
        <time>2019-09-10T15:32:06.700Z</time>
      </trkpt>
      <trkpt lat="10.1585222918555" lon="-75.682089212318">
        <ele>52.3778713</ele>
        <time>2019-09-10T15:32:06.800Z</time>
      </trkpt>
      <trkpt lat="10.1585205978618" lon="-75.6820871442416">
        <ele>52.3778713</ele>
        <time>2019-09-10T15:32:06.900Z</time>
      </trkpt>
      <trkpt lat="10.1585188891538" lon="-75.6820850490105">
        <ele>52.3778713</ele>
        <time>2019-09-10T15:32:07.000Z</time>
      </trkpt>
      <trkpt lat="10.1585171612639" lon="-75.6820829459115">
        <ele>52.3778713</ele>
        <time>2019-09-10T15:32:07.100Z</time>
      </trkpt>
      <trkpt lat="10.1585154638155" lon="-75.6820808469901">
        <ele>52.3778713</ele>
        <time>2019-09-10T15:32:07.200Z</time>
      </trkpt>
      <trkpt lat="10.1585137531721" lon="-75.6820787537086">
        <ele>52.3778713</ele>
        <time>2019-09-10T15:32:07.300Z</time>
      </trkpt>
      <trkpt lat="10.1585120729192" lon="-75.6820766592434">
        <ele>52.3778713</ele>
        <time>2019-09-10T15:32:07.400Z</time>
      </trkpt>
      <trkpt lat="10.1585103791803" lon="-75.6820745578154">
        <ele>52.3778713</ele>
        <time>2019-09-10T15:32:07.500Z</time>
      </trkpt>
      <trkpt lat="10.1585087467498" lon="-75.6820724828459">
        <ele>52.3778713</ele>
        <time>2019-09-10T15:32:07.600Z</time>
      </trkpt>
      <trkpt lat="10.1585070953521" lon="-75.6820704007744">
        <ele>52.3778713</ele>
        <time>2019-09-10T15:32:07.700Z</time>
      </trkpt>
      <trkpt lat="10.1585054621889" lon="-75.6820683082588">
        <ele>52.3778713</ele>
        <time>2019-09-10T15:32:07.800Z</time>
      </trkpt>
      <trkpt lat="10.158503806628" lon="-75.682066201748">
        <ele>52.3778713</ele>
        <time>2019-09-10T15:32:07.900Z</time>
      </trkpt>
      <trkpt lat="10.1585021585076" lon="-75.682064088553">
        <ele>52.2778713</ele>
        <time>2019-09-10T15:32:08.000Z</time>
      </trkpt>
      <trkpt lat="10.1585004866232" lon="-75.6820619677686">
        <ele>52.2778713</ele>
        <time>2019-09-10T15:32:08.100Z</time>
      </trkpt>
      <trkpt lat="10.1584988428099" lon="-75.6820598581246">
        <ele>52.2778713</ele>
        <time>2019-09-10T15:32:08.200Z</time>
      </trkpt>
      <trkpt lat="10.1584971772374" lon="-75.6820577475754">
        <ele>52.2778713</ele>
        <time>2019-09-10T15:32:08.300Z</time>
      </trkpt>
      <trkpt lat="10.1584955026384" lon="-75.6820556522051">
        <ele>52.2778713</ele>
        <time>2019-09-10T15:32:08.400Z</time>
      </trkpt>
      <trkpt lat="10.1584938040313" lon="-75.6820535488275">
        <ele>52.2778713</ele>
        <time>2019-09-10T15:32:08.500Z</time>
      </trkpt>
      <trkpt lat="10.1584921020419" lon="-75.6820514534572">
        <ele>52.2778713</ele>
        <time>2019-09-10T15:32:08.600Z</time>
      </trkpt>
      <trkpt lat="10.158490382265" lon="-75.6820493463894">
        <ele>52.2778713</ele>
        <time>2019-09-10T15:32:08.700Z</time>
      </trkpt>
      <trkpt lat="10.1584886704284" lon="-75.6820472077107">
        <ele>52.2778713</ele>
        <time>2019-09-10T15:32:08.800Z</time>
      </trkpt>
      <trkpt lat="10.1584869428838" lon="-75.6820450603982">
        <ele>52.2778713</ele>
        <time>2019-09-10T15:32:08.900Z</time>
      </trkpt>
      <trkpt lat="10.1584852021944" lon="-75.6820429305622">
        <ele>52.3778713</ele>
        <time>2019-09-10T15:32:09.000Z</time>
      </trkpt>
      <trkpt lat="10.1584834500864" lon="-75.6820408026062">
        <ele>52.3778713</ele>
        <time>2019-09-10T15:32:09.100Z</time>
      </trkpt>
      <trkpt lat="10.1584817022253" lon="-75.682038697488">
        <ele>52.3778713</ele>
        <time>2019-09-10T15:32:09.200Z</time>
      </trkpt>
      <trkpt lat="10.1584799535728" lon="-75.6820365850589">
        <ele>52.3778713</ele>
        <time>2019-09-10T15:32:09.300Z</time>
      </trkpt>
      <trkpt lat="10.1584782474455" lon="-75.6820345263126">
        <ele>52.3778713</ele>
        <time>2019-09-10T15:32:09.400Z</time>
      </trkpt>
      <trkpt lat="10.1584765437316" lon="-75.6820324569829">
        <ele>52.3778713</ele>
        <time>2019-09-10T15:32:09.500Z</time>
      </trkpt>
      <trkpt lat="10.1584748209942" lon="-75.6820303267988">
        <ele>52.3778713</ele>
        <time>2019-09-10T15:32:09.600Z</time>
      </trkpt>
      <trkpt lat="10.1584730852194" lon="-75.6820281822714">
        <ele>52.3778713</ele>
        <time>2019-09-10T15:32:09.700Z</time>
      </trkpt>
      <trkpt lat="10.1584714084791" lon="-75.6820260824449">
        <ele>52.3778713</ele>
        <time>2019-09-10T15:32:09.800Z</time>
      </trkpt>
      <trkpt lat="10.1584697179783" lon="-75.6820239956387">
        <ele>52.3778713</ele>
        <time>2019-09-10T15:32:09.900Z</time>
      </trkpt>
      <trkpt lat="10.1584680498035" lon="-75.6820219075792">
        <ele>52.3778713</ele>
        <time>2019-09-10T15:32:10.000Z</time>
      </trkpt>
      <trkpt lat="10.1584663755286" lon="-75.6820198156902">
        <ele>52.3778713</ele>
        <time>2019-09-10T15:32:10.100Z</time>
      </trkpt>
      <trkpt lat="10.1584647262666" lon="-75.68201772777">
        <ele>52.3778713</ele>
        <time>2019-09-10T15:32:10.200Z</time>
      </trkpt>
      <trkpt lat="10.1584630549717" lon="-75.6820156265509">
        <ele>52.3778713</ele>
        <time>2019-09-10T15:32:10.300Z</time>
      </trkpt>
      <trkpt lat="10.1584596132293" lon="-75.6820113186271">
        <ele>52.3778713</ele>
        <time>2019-09-10T15:32:10.500Z</time>
      </trkpt>
      <trkpt lat="10.1584578458399" lon="-75.6820091299559">
        <ele>52.3778713</ele>
        <time>2019-09-10T15:32:10.600Z</time>
      </trkpt>
      <trkpt lat="10.15845607606" lon="-75.6820069525643">
        <ele>52.3778713</ele>
        <time>2019-09-10T15:32:10.700Z</time>
      </trkpt>
      <trkpt lat="10.1584543135365" lon="-75.6820047989853">
        <ele>52.3778713</ele>
        <time>2019-09-10T15:32:10.800Z</time>
      </trkpt>
      <trkpt lat="10.1584525557549" lon="-75.6820026371903">
        <ele>52.3778713</ele>
        <time>2019-09-10T15:32:10.900Z</time>
      </trkpt>
      <trkpt lat="10.1584508420977" lon="-75.6820004737242">
        <ele>52.3778713</ele>
        <time>2019-09-10T15:32:11.000Z</time>
      </trkpt>
      <trkpt lat="10.1584491274439" lon="-75.6819983067768">
        <ele>52.3778713</ele>
        <time>2019-09-10T15:32:11.100Z</time>
      </trkpt>
      <trkpt lat="10.1584474156431" lon="-75.6819961503431">
        <ele>52.4778713</ele>
        <time>2019-09-10T15:32:11.200Z</time>
      </trkpt>
      <trkpt lat="10.1584456837408" lon="-75.6819940060942">
        <ele>52.4778713</ele>
        <time>2019-09-10T15:32:11.300Z</time>
      </trkpt>
      <trkpt lat="10.158443953011" lon="-75.6819918878164">
        <ele>52.4778713</ele>
        <time>2019-09-10T15:32:11.400Z</time>
      </trkpt>
      <trkpt lat="10.1584422183208" lon="-75.6819897806094">
        <ele>52.4778713</ele>
        <time>2019-09-10T15:32:11.500Z</time>
      </trkpt>
      <trkpt lat="10.1584405163362" lon="-75.6819877598797">
        <ele>52.4778713</ele>
        <time>2019-09-10T15:32:11.600Z</time>
      </trkpt>
      <trkpt lat="10.1584388074601" lon="-75.6819857529363">
        <ele>52.4778713</ele>
        <time>2019-09-10T15:32:11.700Z</time>
      </trkpt>
      <trkpt lat="10.1584371330745" lon="-75.6819837535126">
        <ele>52.4778713</ele>
        <time>2019-09-10T15:32:11.800Z</time>
      </trkpt>
      <trkpt lat="10.1584354407564" lon="-75.6819817325044">
        <ele>52.4778713</ele>
        <time>2019-09-10T15:32:11.900Z</time>
      </trkpt>
      <trkpt lat="10.1584337046332" lon="-75.681979669859">
        <ele>52.4778713</ele>
        <time>2019-09-10T15:32:12.000Z</time>
      </trkpt>
      <trkpt lat="10.1584319433537" lon="-75.681977585629">
        <ele>52.4778713</ele>
        <time>2019-09-10T15:32:12.100Z</time>
      </trkpt>
      <trkpt lat="10.1584301607678" lon="-75.6819754953415">
        <ele>52.4778713</ele>
        <time>2019-09-10T15:32:12.200Z</time>
      </trkpt>
      <trkpt lat="10.1584283735309" lon="-75.6819734002496">
        <ele>52.4778713</ele>
        <time>2019-09-10T15:32:12.300Z</time>
      </trkpt>
      <trkpt lat="10.158426595472" lon="-75.6819713235394">
        <ele>52.4778713</ele>
        <time>2019-09-10T15:32:12.400Z</time>
      </trkpt>
      <trkpt lat="10.1584248212758" lon="-75.6819692481522">
        <ele>52.4778713</ele>
        <time>2019-09-10T15:32:12.500Z</time>
      </trkpt>
      <trkpt lat="10.1584230461024" lon="-75.681967163783">
        <ele>52.4778713</ele>
        <time>2019-09-10T15:32:12.600Z</time>
      </trkpt>
      <trkpt lat="10.1584212808952" lon="-75.6819650745398">
        <ele>52.4778713</ele>
        <time>2019-09-10T15:32:12.700Z</time>
      </trkpt>
      <trkpt lat="10.1584195427006" lon="-75.6819630417646">
        <ele>52.4778713</ele>
        <time>2019-09-10T15:32:12.800Z</time>
      </trkpt>
      <trkpt lat="10.1584177979857" lon="-75.6819610048813">
        <ele>52.4778713</ele>
        <time>2019-09-10T15:32:12.900Z</time>
      </trkpt>
      <trkpt lat="10.1584159981447" lon="-75.6819589471098">
        <ele>52.4778713</ele>
        <time>2019-09-10T15:32:13.000Z</time>
      </trkpt>
      <trkpt lat="10.15841419037" lon="-75.6819568644117">
        <ele>52.4778713</ele>
        <time>2019-09-10T15:32:13.100Z</time>
      </trkpt>
      <trkpt lat="10.1584124340149" lon="-75.6819547521218">
        <ele>52.4778713</ele>
        <time>2019-09-10T15:32:13.200Z</time>
      </trkpt>
      <trkpt lat="10.158410681236" lon="-75.6819526326603">
        <ele>52.4778713</ele>
        <time>2019-09-10T15:32:13.300Z</time>
      </trkpt>
      <trkpt lat="10.1584089879929" lon="-75.681950583453">
        <ele>52.3778713</ele>
        <time>2019-09-10T15:32:13.400Z</time>
      </trkpt>
      <trkpt lat="10.1584055807019" lon="-75.6819465394871">
        <ele>52.3778713</ele>
        <time>2019-09-10T15:32:13.600Z</time>
      </trkpt>
      <trkpt lat="10.1584038660415" lon="-75.6819445328918">
        <ele>52.3778713</ele>
        <time>2019-09-10T15:32:13.700Z</time>
      </trkpt>
      <trkpt lat="10.158402137585" lon="-75.6819424865392">
        <ele>52.3778713</ele>
        <time>2019-09-10T15:32:13.800Z</time>
      </trkpt>
      <trkpt lat="10.1584003965309" lon="-75.6819404280714">
        <ele>52.3778713</ele>
        <time>2019-09-10T15:32:13.900Z</time>
      </trkpt>
      <trkpt lat="10.1583969058374" lon="-75.681936323251">
        <ele>52.3778713</ele>
        <time>2019-09-10T15:32:14.100Z</time>
      </trkpt>
      <trkpt lat="10.1583951565107" lon="-75.681934293052">
        <ele>52.3778713</ele>
        <time>2019-09-10T15:32:14.200Z</time>
      </trkpt>
      <trkpt lat="10.1583933972701" lon="-75.6819322502504">
        <ele>52.3778713</ele>
        <time>2019-09-10T15:32:14.300Z</time>
      </trkpt>
      <trkpt lat="10.1583916089781" lon="-75.6819301666471">
        <ele>52.3778713</ele>
        <time>2019-09-10T15:32:14.400Z</time>
      </trkpt>
      <trkpt lat="10.1583898189924" lon="-75.6819280739922">
        <ele>52.3778713</ele>
        <time>2019-09-10T15:32:14.500Z</time>
      </trkpt>
      <trkpt lat="10.1583880800227" lon="-75.6819260191451">
        <ele>52.3778713</ele>
        <time>2019-09-10T15:32:14.600Z</time>
      </trkpt>
      <trkpt lat="10.1583863418215" lon="-75.6819239570567">
        <ele>52.3778713</ele>
        <time>2019-09-10T15:32:14.700Z</time>
      </trkpt>
      <trkpt lat="10.1583846007283" lon="-75.6819218649588">
        <ele>52.3778713</ele>
        <time>2019-09-10T15:32:14.800Z</time>
      </trkpt>
      <trkpt lat="10.1583828506721" lon="-75.6819197597013">
        <ele>52.3778713</ele>
        <time>2019-09-10T15:32:14.900Z</time>
      </trkpt>
      <trkpt lat="10.158381123818" lon="-75.6819176396132">
        <ele>52.3778713</ele>
        <time>2019-09-10T15:32:15.000Z</time>
      </trkpt>
      <trkpt lat="10.1583793921437" lon="-75.6819155197339">
        <ele>52.3778713</ele>
        <time>2019-09-10T15:32:15.100Z</time>
      </trkpt>
      <trkpt lat="10.1583777272877" lon="-75.6819134380106">
        <ele>52.3778713</ele>
        <time>2019-09-10T15:32:15.200Z</time>
      </trkpt>
      <trkpt lat="10.1583760472285" lon="-75.6819113500903">
        <ele>52.3778713</ele>
        <time>2019-09-10T15:32:15.300Z</time>
      </trkpt>
      <trkpt lat="10.1583726561046" lon="-75.6819070854052">
        <ele>52.3778713</ele>
        <time>2019-09-10T15:32:15.500Z</time>
      </trkpt>
      <trkpt lat="10.1583708978932" lon="-75.6819049475621">
        <ele>52.3778713</ele>
        <time>2019-09-10T15:32:15.600Z</time>
      </trkpt>
      <trkpt lat="10.1583691235276" lon="-75.6819028069338">
        <ele>52.3778713</ele>
        <time>2019-09-10T15:32:15.700Z</time>
      </trkpt>
      <trkpt lat="10.1583674143258" lon="-75.6819006805792">
        <ele>52.3778713</ele>
        <time>2019-09-10T15:32:15.800Z</time>
      </trkpt>
      <trkpt lat="10.1583656990271" lon="-75.6818985537372">
        <ele>52.3778713</ele>
        <time>2019-09-10T15:32:15.900Z</time>
      </trkpt>
      <trkpt lat="10.1583639714955" lon="-75.6818964178436">
        <ele>52.3778713</ele>
        <time>2019-09-10T15:32:16.000Z</time>
      </trkpt>
      <trkpt lat="10.1583622329557" lon="-75.6818942822982">
        <ele>52.3778713</ele>
        <time>2019-09-10T15:32:16.100Z</time>
      </trkpt>
      <trkpt lat="10.1583605036654" lon="-75.6818921495378">
        <ele>52.3778713</ele>
        <time>2019-09-10T15:32:16.200Z</time>
      </trkpt>
      <trkpt lat="10.1583570923488" lon="-75.6818879681272">
        <ele>52.3778713</ele>
        <time>2019-09-10T15:32:16.400Z</time>
      </trkpt>
      <trkpt lat="10.1583554020109" lon="-75.6818859040196">
        <ele>52.3778713</ele>
        <time>2019-09-10T15:32:16.500Z</time>
      </trkpt>
      <trkpt lat="10.1583537059279" lon="-75.6818838454126">
        <ele>52.3778713</ele>
        <time>2019-09-10T15:32:16.600Z</time>
      </trkpt>
      <trkpt lat="10.158351986773" lon="-75.6818817647336">
        <ele>52.3778713</ele>
        <time>2019-09-10T15:32:16.700Z</time>
      </trkpt>
      <trkpt lat="10.1583502917061" lon="-75.6818797091902">
        <ele>52.3778713</ele>
        <time>2019-09-10T15:32:16.800Z</time>
      </trkpt>
      <trkpt lat="10.1583468722082" lon="-75.681875597407">
        <ele>52.3778713</ele>
        <time>2019-09-10T15:32:17.000Z</time>
      </trkpt>
      <trkpt lat="10.1583451413677" lon="-75.6818735344831">
        <ele>52.3778713</ele>
        <time>2019-09-10T15:32:17.100Z</time>
      </trkpt>
      <trkpt lat="10.1583434318402" lon="-75.6818714603491">
        <ele>52.3778713</ele>
        <time>2019-09-10T15:32:17.200Z</time>
      </trkpt>
      <trkpt lat="10.1583417048428" lon="-75.6818693589212">
        <ele>52.3778713</ele>
        <time>2019-09-10T15:32:17.300Z</time>
      </trkpt>
      <trkpt lat="10.1583381580266" lon="-75.6818649757996">
        <ele>52.3778713</ele>
        <time>2019-09-10T15:32:17.500Z</time>
      </trkpt>
      <trkpt lat="10.1583346469581" lon="-75.6818606890426">
        <ele>52.3778713</ele>
        <time>2019-09-10T15:32:17.700Z</time>
      </trkpt>
      <trkpt lat="10.1583328723058" lon="-75.6818585109199">
        <ele>52.3778713</ele>
        <time>2019-09-10T15:32:17.800Z</time>
      </trkpt>
      <trkpt lat="10.1583310829325" lon="-75.6818563354083">
        <ele>52.3778713</ele>
        <time>2019-09-10T15:32:17.900Z</time>
      </trkpt>
      <trkpt lat="10.1583293246559" lon="-75.6818541762591">
        <ele>52.2778713</ele>
        <time>2019-09-10T15:32:18.000Z</time>
      </trkpt>
      <trkpt lat="10.1583258166749" lon="-75.6818498994936">
        <ele>52.2778713</ele>
        <time>2019-09-10T15:32:18.200Z</time>
      </trkpt>
      <trkpt lat="10.1583240626713" lon="-75.6818477492219">
        <ele>52.2778713</ele>
        <time>2019-09-10T15:32:18.300Z</time>
      </trkpt>
      <trkpt lat="10.1583222760208" lon="-75.6818455574523">
        <ele>52.2778713</ele>
        <time>2019-09-10T15:32:18.400Z</time>
      </trkpt>
      <trkpt lat="10.1583186870605" lon="-75.6818411363141">
        <ele>52.2778713</ele>
        <time>2019-09-10T15:32:18.600Z</time>
      </trkpt>
      <trkpt lat="10.1583168987554" lon="-75.6818389237258">
        <ele>52.2778713</ele>
        <time>2019-09-10T15:32:18.700Z</time>
      </trkpt>
      <trkpt lat="10.1583151173028" lon="-75.6818367568828">
        <ele>52.2778713</ele>
        <time>2019-09-10T15:32:18.800Z</time>
      </trkpt>
      <trkpt lat="10.1583133235261" lon="-75.6818346050445">
        <ele>52.2778713</ele>
        <time>2019-09-10T15:32:18.900Z</time>
      </trkpt>
      <trkpt lat="10.158311539924" lon="-75.6818324573143">
        <ele>52.2778713</ele>
        <time>2019-09-10T15:32:19.000Z</time>
      </trkpt>
      <trkpt lat="10.1583097520749" lon="-75.6818303118469">
        <ele>52.2778713</ele>
        <time>2019-09-10T15:32:19.100Z</time>
      </trkpt>
      <trkpt lat="10.158306191202" lon="-75.6818260474055">
        <ele>52.2778713</ele>
        <time>2019-09-10T15:32:19.300Z</time>
      </trkpt>
      <trkpt lat="10.1583044475814" lon="-75.6818239496678">
        <ele>52.2778713</ele>
        <time>2019-09-10T15:32:19.400Z</time>
      </trkpt>
      <trkpt lat="10.1583027000265" lon="-75.6818218485183">
        <ele>52.2778713</ele>
        <time>2019-09-10T15:32:19.500Z</time>
      </trkpt>
      <trkpt lat="10.1582991276372" lon="-75.6818176181595">
        <ele>52.2778713</ele>
        <time>2019-09-10T15:32:19.700Z</time>
      </trkpt>
      <trkpt lat="10.1582973648531" lon="-75.6818155196559">
        <ele>52.2778713</ele>
        <time>2019-09-10T15:32:19.800Z</time>
      </trkpt>
      <trkpt lat="10.1582956088433" lon="-75.681813418228">
        <ele>52.2778713</ele>
        <time>2019-09-10T15:32:19.900Z</time>
      </trkpt>
      <trkpt lat="10.1582938579664" lon="-75.6818112903764">
        <ele>52.2778713</ele>
        <time>2019-09-10T15:32:20.000Z</time>
      </trkpt>
      <trkpt lat="10.1582921062557" lon="-75.681809152394">
        <ele>52.2778713</ele>
        <time>2019-09-10T15:32:20.100Z</time>
      </trkpt>
      <trkpt lat="10.1582904039715" lon="-75.6818070237068">
        <ele>52.2778713</ele>
        <time>2019-09-10T15:32:20.200Z</time>
      </trkpt>
      <trkpt lat="10.1582869733221" lon="-75.6818027245909">
        <ele>52.2778713</ele>
        <time>2019-09-10T15:32:20.400Z</time>
      </trkpt>
      <trkpt lat="10.1582834956171" lon="-75.681798389756">
        <ele>52.2778713</ele>
        <time>2019-09-10T15:32:20.600Z</time>
      </trkpt>
      <trkpt lat="10.1582817497167" lon="-75.6817962378829">
        <ele>52.2778713</ele>
        <time>2019-09-10T15:32:20.700Z</time>
      </trkpt>
      <trkpt lat="10.1582800006115" lon="-75.6817940891779">
        <ele>52.2778713</ele>
        <time>2019-09-10T15:32:20.800Z</time>
      </trkpt>
      <trkpt lat="10.1582782470769" lon="-75.681791941378">
        <ele>52.2778713</ele>
        <time>2019-09-10T15:32:20.900Z</time>
      </trkpt>
      <trkpt lat="10.1582765003428" lon="-75.6817898013416">
        <ele>52.2778713</ele>
        <time>2019-09-10T15:32:21.000Z</time>
      </trkpt>
      <trkpt lat="10.1582729872549" lon="-75.6817855652037">
        <ele>52.2778713</ele>
        <time>2019-09-10T15:32:21.200Z</time>
      </trkpt>
      <trkpt lat="10.1582712134495" lon="-75.6817834648898">
        <ele>52.2778713</ele>
        <time>2019-09-10T15:32:21.300Z</time>
      </trkpt>
      <trkpt lat="10.1582694162205" lon="-75.681781321372">
        <ele>52.2778713</ele>
        <time>2019-09-10T15:32:21.400Z</time>
      </trkpt>
      <trkpt lat="10.1582676264433" lon="-75.6817791783416">
        <ele>52.2778713</ele>
        <time>2019-09-10T15:32:21.500Z</time>
      </trkpt>
      <trkpt lat="10.1582658888024" lon="-75.6817770896903">
        <ele>52.2778713</ele>
        <time>2019-09-10T15:32:21.600Z</time>
      </trkpt>
      <trkpt lat="10.1582641575189" lon="-75.6817750022227">
        <ele>52.2778713</ele>
        <time>2019-09-10T15:32:21.700Z</time>
      </trkpt>
      <trkpt lat="10.1582624451254" lon="-75.6817729620669">
        <ele>52.3778713</ele>
        <time>2019-09-10T15:32:21.800Z</time>
      </trkpt>
      <trkpt lat="10.158258983783" lon="-75.6817688813029">
        <ele>52.3778713</ele>
        <time>2019-09-10T15:32:22.000Z</time>
      </trkpt>
      <trkpt lat="10.1582555069638" lon="-75.6817647968833">
        <ele>52.3778713</ele>
        <time>2019-09-10T15:32:22.200Z</time>
      </trkpt>
      <trkpt lat="10.1582537737002" lon="-75.6817627523063">
        <ele>52.3778713</ele>
        <time>2019-09-10T15:32:22.300Z</time>
      </trkpt>
      <trkpt lat="10.1582520391077" lon="-75.6817607176163">
        <ele>52.3778713</ele>
        <time>2019-09-10T15:32:22.400Z</time>
      </trkpt>
      <trkpt lat="10.1582502984443" lon="-75.6817586675734">
        <ele>52.3778713</ele>
        <time>2019-09-10T15:32:22.500Z</time>
      </trkpt>
      <trkpt lat="10.1582467453359" lon="-75.6817545627879">
        <ele>52.3778713</ele>
        <time>2019-09-10T15:32:22.700Z</time>
      </trkpt>
      <trkpt lat="10.1582450320044" lon="-75.681752543207">
        <ele>52.3778713</ele>
        <time>2019-09-10T15:32:22.800Z</time>
      </trkpt>
      <trkpt lat="10.1582433175785" lon="-75.6817505087259">
        <ele>52.3778713</ele>
        <time>2019-09-10T15:32:22.900Z</time>
      </trkpt>
      <trkpt lat="10.1582399396646" lon="-75.6817464404252">
        <ele>52.2778713</ele>
        <time>2019-09-10T15:32:23.100Z</time>
      </trkpt>
      <trkpt lat="10.1582382401162" lon="-75.6817444073714">
        <ele>52.2778713</ele>
        <time>2019-09-10T15:32:23.200Z</time>
      </trkpt>
      <trkpt lat="10.1582365235278" lon="-75.6817423594522">
        <ele>52.2778713</ele>
        <time>2019-09-10T15:32:23.300Z</time>
      </trkpt>
      <trkpt lat="10.1582348087372" lon="-75.6817402788081">
        <ele>52.2778713</ele>
        <time>2019-09-10T15:32:23.400Z</time>
      </trkpt>
      <trkpt lat="10.1582330852181" lon="-75.6817381831244">
        <ele>52.2778713</ele>
        <time>2019-09-10T15:32:23.500Z</time>
      </trkpt>
      <trkpt lat="10.1582313856958" lon="-75.6817361006351">
        <ele>52.2778713</ele>
        <time>2019-09-10T15:32:23.600Z</time>
      </trkpt>
      <trkpt lat="10.1582296762986" lon="-75.6817340143163">
        <ele>52.2778713</ele>
        <time>2019-09-10T15:32:23.700Z</time>
      </trkpt>
      <trkpt lat="10.1582280180736" lon="-75.6817319431763">
        <ele>52.2778713</ele>
        <time>2019-09-10T15:32:23.800Z</time>
      </trkpt>
      <trkpt lat="10.1582263489315" lon="-75.6817298553954">
        <ele>52.2778713</ele>
        <time>2019-09-10T15:32:23.900Z</time>
      </trkpt>
      <trkpt lat="10.158224671087" lon="-75.6817277148368">
        <ele>52.2778713</ele>
        <time>2019-09-10T15:32:24.000Z</time>
      </trkpt>
      <trkpt lat="10.1582229650249" lon="-75.6817255523455">
        <ele>52.2778713</ele>
        <time>2019-09-10T15:32:24.100Z</time>
      </trkpt>
      <trkpt lat="10.1582212690461" lon="-75.6817233899934">
        <ele>52.2778713</ele>
        <time>2019-09-10T15:32:24.200Z</time>
      </trkpt>
      <trkpt lat="10.1582178143998" lon="-75.6817190696411">
        <ele>52.2778713</ele>
        <time>2019-09-10T15:32:24.400Z</time>
      </trkpt>
      <trkpt lat="10.1582160609956" lon="-75.6817169152266">
        <ele>52.2778713</ele>
        <time>2019-09-10T15:32:24.500Z</time>
      </trkpt>
      <trkpt lat="10.1582142741105" lon="-75.681714700828">
        <ele>52.2778713</ele>
        <time>2019-09-10T15:32:24.600Z</time>
      </trkpt>
      <trkpt lat="10.158212484698" lon="-75.6817125008771">
        <ele>52.2778713</ele>
        <time>2019-09-10T15:32:24.700Z</time>
      </trkpt>
      <trkpt lat="10.1582107367653" lon="-75.6817103534254">
        <ele>52.2778713</ele>
        <time>2019-09-10T15:32:24.800Z</time>
      </trkpt>
      <trkpt lat="10.1582089899269" lon="-75.681708225713">
        <ele>52.2778713</ele>
        <time>2019-09-10T15:32:24.900Z</time>
      </trkpt>
      <trkpt lat="10.1582072331355" lon="-75.6817061032576">
        <ele>52.2778713</ele>
        <time>2019-09-10T15:32:25.000Z</time>
      </trkpt>
      <trkpt lat="10.1582054667558" lon="-75.6817039805932">
        <ele>52.2778713</ele>
        <time>2019-09-10T15:32:25.100Z</time>
      </trkpt>
      <trkpt lat="10.1582037200737" lon="-75.6817018520802">
        <ele>52.2778713</ele>
        <time>2019-09-10T15:32:25.200Z</time>
      </trkpt>
      <trkpt lat="10.158201970708" lon="-75.6816997234278">
        <ele>52.2778713</ele>
        <time>2019-09-10T15:32:25.300Z</time>
      </trkpt>
      <trkpt lat="10.1582002662873" lon="-75.6816976463347">
        <ele>52.2778713</ele>
        <time>2019-09-10T15:32:25.400Z</time>
      </trkpt>
      <trkpt lat="10.15819855306" lon="-75.6816955664565">
        <ele>52.1778713</ele>
        <time>2019-09-10T15:32:25.500Z</time>
      </trkpt>
      <trkpt lat="10.1581968497597" lon="-75.6816934985193">
        <ele>52.2778713</ele>
        <time>2019-09-10T15:32:25.600Z</time>
      </trkpt>
      <trkpt lat="10.1581951263449" lon="-75.6816914165175">
        <ele>52.2778713</ele>
        <time>2019-09-10T15:32:25.700Z</time>
      </trkpt>
      <trkpt lat="10.1581934018878" lon="-75.6816893373703">
        <ele>52.2778713</ele>
        <time>2019-09-10T15:32:25.800Z</time>
      </trkpt>
      <trkpt lat="10.1581899183986" lon="-75.6816851554723">
        <ele>52.2778713</ele>
        <time>2019-09-10T15:32:26.000Z</time>
      </trkpt>
      <trkpt lat="10.1581881641866" lon="-75.6816830552628">
        <ele>52.2778713</ele>
        <time>2019-09-10T15:32:26.100Z</time>
      </trkpt>
      <trkpt lat="10.1581864211262" lon="-75.6816809593006">
        <ele>52.2778713</ele>
        <time>2019-09-10T15:32:26.200Z</time>
      </trkpt>
      <trkpt lat="10.1581846700669" lon="-75.6816788605881">
        <ele>52.2778713</ele>
        <time>2019-09-10T15:32:26.300Z</time>
      </trkpt>
      <trkpt lat="10.1581829329731" lon="-75.6816768033736">
        <ele>52.2778713</ele>
        <time>2019-09-10T15:32:26.400Z</time>
      </trkpt>
      <trkpt lat="10.1581811884536" lon="-75.6816747477258">
        <ele>52.2778713</ele>
        <time>2019-09-10T15:32:26.500Z</time>
      </trkpt>
      <trkpt lat="10.1581794023762" lon="-75.681672663635">
        <ele>52.2778713</ele>
        <time>2019-09-10T15:32:26.600Z</time>
      </trkpt>
      <trkpt lat="10.158177622969" lon="-75.6816705763415">
        <ele>52.2778713</ele>
        <time>2019-09-10T15:32:26.700Z</time>
      </trkpt>
      <trkpt lat="10.1581759030715" lon="-75.6816685463513">
        <ele>52.2778713</ele>
        <time>2019-09-10T15:32:26.800Z</time>
      </trkpt>
      <trkpt lat="10.1581741925019" lon="-75.6816665132628">
        <ele>52.2778713</ele>
        <time>2019-09-10T15:32:26.900Z</time>
      </trkpt>
      <trkpt lat="10.1581724259658" lon="-75.6816644253077">
        <ele>52.2778713</ele>
        <time>2019-09-10T15:32:27.000Z</time>
      </trkpt>
      <trkpt lat="10.1581689500847" lon="-75.6816602762391">
        <ele>52.2778713</ele>
        <time>2019-09-10T15:32:27.200Z</time>
      </trkpt>
      <trkpt lat="10.1581672373524" lon="-75.6816582248385">
        <ele>52.2778713</ele>
        <time>2019-09-10T15:32:27.300Z</time>
      </trkpt>
      <trkpt lat="10.1581654884036" lon="-75.6816561526889">
        <ele>52.2778713</ele>
        <time>2019-09-10T15:32:27.400Z</time>
      </trkpt>
      <trkpt lat="10.1581637298143" lon="-75.6816540703389">
        <ele>52.2778713</ele>
        <time>2019-09-10T15:32:27.500Z</time>
      </trkpt>
      <trkpt lat="10.1581620002765" lon="-75.6816520005915">
        <ele>52.2778713</ele>
        <time>2019-09-10T15:32:27.600Z</time>
      </trkpt>
      <trkpt lat="10.1581602666741" lon="-75.6816499262486">
        <ele>52.2778713</ele>
        <time>2019-09-10T15:32:27.700Z</time>
      </trkpt>
      <trkpt lat="10.1581585089708" lon="-75.6816478350211">
        <ele>52.2778713</ele>
        <time>2019-09-10T15:32:27.800Z</time>
      </trkpt>
      <trkpt lat="10.1581549506513" lon="-75.6816436364821">
        <ele>52.2778713</ele>
        <time>2019-09-10T15:32:28.000Z</time>
      </trkpt>
      <trkpt lat="10.1581531588418" lon="-75.6816415351934">
        <ele>52.2778713</ele>
        <time>2019-09-10T15:32:28.100Z</time>
      </trkpt>
      <trkpt lat="10.1581514109091" lon="-75.6816394636008">
        <ele>52.2778713</ele>
        <time>2019-09-10T15:32:28.200Z</time>
      </trkpt>
      <trkpt lat="10.1581496611525" lon="-75.681637387378">
        <ele>52.2778713</ele>
        <time>2019-09-10T15:32:28.300Z</time>
      </trkpt>
      <trkpt lat="10.1581461407692" lon="-75.6816331473062">
        <ele>52.2778713</ele>
        <time>2019-09-10T15:32:28.500Z</time>
      </trkpt>
      <trkpt lat="10.1581443669378" lon="-75.6816310564616">
        <ele>52.2778713</ele>
        <time>2019-09-10T15:32:28.600Z</time>
      </trkpt>
      <trkpt lat="10.1581425918556" lon="-75.6816289672533">
        <ele>52.2778713</ele>
        <time>2019-09-10T15:32:28.700Z</time>
      </trkpt>
      <trkpt lat="10.158140896893" lon="-75.6816269082981">
        <ele>52.2778713</ele>
        <time>2019-09-10T15:32:28.800Z</time>
      </trkpt>
      <trkpt lat="10.1581391995593" lon="-75.6816248408484">
        <ele>52.2778713</ele>
        <time>2019-09-10T15:32:28.900Z</time>
      </trkpt>
      <trkpt lat="10.1581357682845" lon="-75.6816206190886">
        <ele>52.2778713</ele>
        <time>2019-09-10T15:32:29.100Z</time>
      </trkpt>
      <trkpt lat="10.1581340499243" lon="-75.6816185392452">
        <ele>52.2778713</ele>
        <time>2019-09-10T15:32:29.200Z</time>
      </trkpt>
      <trkpt lat="10.1581323252849" lon="-75.6816164580092">
        <ele>52.2778713</ele>
        <time>2019-09-10T15:32:29.300Z</time>
      </trkpt>
      <trkpt lat="10.1581306598166" lon="-75.6816144071656">
        <ele>52.2778713</ele>
        <time>2019-09-10T15:32:29.400Z</time>
      </trkpt>
      <trkpt lat="10.1581289834833" lon="-75.6816123457386">
        <ele>52.2778713</ele>
        <time>2019-09-10T15:32:29.500Z</time>
      </trkpt>
      <trkpt lat="10.1581273565244" lon="-75.6816103047474">
        <ele>52.2778713</ele>
        <time>2019-09-10T15:32:29.600Z</time>
      </trkpt>
      <trkpt lat="10.1581257134896" lon="-75.681608244713">
        <ele>52.2778713</ele>
        <time>2019-09-10T15:32:29.700Z</time>
      </trkpt>
      <trkpt lat="10.1581240824922" lon="-75.6816061709271">
        <ele>52.2778713</ele>
        <time>2019-09-10T15:32:29.800Z</time>
      </trkpt>
      <trkpt lat="10.1581224254918" lon="-75.6816040814055">
        <ele>52.2778713</ele>
        <time>2019-09-10T15:32:29.900Z</time>
      </trkpt>
      <trkpt lat="10.1581207710709" lon="-75.6816019855825">
        <ele>52.2778713</ele>
        <time>2019-09-10T15:32:30.000Z</time>
      </trkpt>
      <trkpt lat="10.1581190931222" lon="-75.6815998818569">
        <ele>52.2778713</ele>
        <time>2019-09-10T15:32:30.100Z</time>
      </trkpt>
      <trkpt lat="10.1581174108744" lon="-75.6815977780268">
        <ele>52.2778713</ele>
        <time>2019-09-10T15:32:30.200Z</time>
      </trkpt>
      <trkpt lat="10.1581157135407" lon="-75.6815956765292">
        <ele>52.2778713</ele>
        <time>2019-09-10T15:32:30.300Z</time>
      </trkpt>
      <trkpt lat="10.158112202902" lon="-75.6815914146291">
        <ele>52.2778713</ele>
        <time>2019-09-10T15:32:30.500Z</time>
      </trkpt>
      <trkpt lat="10.1581104959019" lon="-75.6815892878568">
        <ele>52.2778713</ele>
        <time>2019-09-10T15:32:30.600Z</time>
      </trkpt>
      <trkpt lat="10.1581087979168" lon="-75.6815871680819">
        <ele>52.2778713</ele>
        <time>2019-09-10T15:32:30.700Z</time>
      </trkpt>
      <trkpt lat="10.1581070896921" lon="-75.6815850562795">
        <ele>52.2778713</ele>
        <time>2019-09-10T15:32:30.800Z</time>
      </trkpt>
      <trkpt lat="10.158103694191" lon="-75.6815808796035">
        <ele>52.2778713</ele>
        <time>2019-09-10T15:32:31.000Z</time>
      </trkpt>
      <trkpt lat="10.1581020135586" lon="-75.6815788042511">
        <ele>52.2778713</ele>
        <time>2019-09-10T15:32:31.100Z</time>
      </trkpt>
      <trkpt lat="10.158100347465" lon="-75.681576727889">
        <ele>52.2778713</ele>
        <time>2019-09-10T15:32:31.200Z</time>
      </trkpt>
      <trkpt lat="10.1580986633933" lon="-75.6815746372881">
        <ele>52.2778713</ele>
        <time>2019-09-10T15:32:31.300Z</time>
      </trkpt>
      <trkpt lat="10.1580969883888" lon="-75.6815725429274">
        <ele>52.2778713</ele>
        <time>2019-09-10T15:32:31.400Z</time>
      </trkpt>
      <trkpt lat="10.1580953000963" lon="-75.6815704363644">
        <ele>52.2778713</ele>
        <time>2019-09-10T15:32:31.500Z</time>
      </trkpt>
      <trkpt lat="10.158093590673" lon="-75.6815683319424">
        <ele>52.2778713</ele>
        <time>2019-09-10T15:32:31.600Z</time>
      </trkpt>
      <trkpt lat="10.1580918684828" lon="-75.6815662225247">
        <ele>52.2778713</ele>
        <time>2019-09-10T15:32:31.700Z</time>
      </trkpt>
      <trkpt lat="10.1580900962406" lon="-75.6815640872926">
        <ele>52.2778713</ele>
        <time>2019-09-10T15:32:31.800Z</time>
      </trkpt>
      <trkpt lat="10.1580883229042" lon="-75.6815619523912">
        <ele>52.2778713</ele>
        <time>2019-09-10T15:32:31.900Z</time>
      </trkpt>
      <trkpt lat="10.1580865667381" lon="-75.6815598639662">
        <ele>52.2778713</ele>
        <time>2019-09-10T15:32:32.000Z</time>
      </trkpt>
      <trkpt lat="10.1580848194047" lon="-75.6815577766378">
        <ele>52.2778713</ele>
        <time>2019-09-10T15:32:32.100Z</time>
      </trkpt>
      <trkpt lat="10.1580830457035" lon="-75.6815556334508">
        <ele>52.2778713</ele>
        <time>2019-09-10T15:32:32.200Z</time>
      </trkpt>
      <trkpt lat="10.1580795142468" lon="-75.6815513870428">
        <ele>52.3778713</ele>
        <time>2019-09-10T15:32:32.400Z</time>
      </trkpt>
      <trkpt lat="10.1580777599566" lon="-75.6815492984089">
        <ele>52.3778713</ele>
        <time>2019-09-10T15:32:32.500Z</time>
      </trkpt>
      <trkpt lat="10.1580743233405" lon="-75.6815451949811">
        <ele>52.3778713</ele>
        <time>2019-09-10T15:32:32.700Z</time>
      </trkpt>
      <trkpt lat="10.1580725496133" lon="-75.6815431076701">
        <ele>52.3778713</ele>
        <time>2019-09-10T15:32:32.800Z</time>
      </trkpt>
      <trkpt lat="10.1580689936648" lon="-75.6815389351892">
        <ele>52.3778713</ele>
        <time>2019-09-10T15:32:33.000Z</time>
      </trkpt>
      <trkpt lat="10.1580672271287" lon="-75.6815368620126">
        <ele>52.3778713</ele>
        <time>2019-09-10T15:32:33.100Z</time>
      </trkpt>
      <trkpt lat="10.1580655024893" lon="-75.6815347829351">
        <ele>52.3778713</ele>
        <time>2019-09-10T15:32:33.200Z</time>
      </trkpt>
      <trkpt lat="10.1580637775372" lon="-75.6815326965641">
        <ele>52.3778713</ele>
        <time>2019-09-10T15:32:33.300Z</time>
      </trkpt>
      <trkpt lat="10.1580620628508" lon="-75.6815306019596">
        <ele>52.3778713</ele>
        <time>2019-09-10T15:32:33.400Z</time>
      </trkpt>
      <trkpt lat="10.158060338524" lon="-75.6815285077033">
        <ele>52.3778713</ele>
        <time>2019-09-10T15:32:33.500Z</time>
      </trkpt>
      <trkpt lat="10.1580586169591" lon="-75.6815264094086">
        <ele>52.3778713</ele>
        <time>2019-09-10T15:32:33.600Z</time>
      </trkpt>
      <trkpt lat="10.1580568895057" lon="-75.6815243136727">
        <ele>52.3778713</ele>
        <time>2019-09-10T15:32:33.700Z</time>
      </trkpt>
      <trkpt lat="10.1580551964972" lon="-75.6815222153605">
        <ele>52.3778713</ele>
        <time>2019-09-10T15:32:33.800Z</time>
      </trkpt>
      <trkpt lat="10.1580534972875" lon="-75.681520117971">
        <ele>52.2778713</ele>
        <time>2019-09-10T15:32:33.900Z</time>
      </trkpt>
      <trkpt lat="10.1580517620176" lon="-75.6815179789964">
        <ele>52.2778713</ele>
        <time>2019-09-10T15:32:34.000Z</time>
      </trkpt>
      <trkpt lat="10.1580500152313" lon="-75.6815158470716">
        <ele>52.2778713</ele>
        <time>2019-09-10T15:32:34.100Z</time>
      </trkpt>
      <trkpt lat="10.1580482952818" lon="-75.6815137151468">
        <ele>52.2778713</ele>
        <time>2019-09-10T15:32:34.200Z</time>
      </trkpt>
      <trkpt lat="10.158046569548" lon="-75.681511597896">
        <ele>52.2778713</ele>
        <time>2019-09-10T15:32:34.300Z</time>
      </trkpt>
      <trkpt lat="10.1580448376653" lon="-75.6815094855191">
        <ele>52.2778713</ele>
        <time>2019-09-10T15:32:34.400Z</time>
      </trkpt>
      <trkpt lat="10.158043098904" lon="-75.6815073795305">
        <ele>52.2778713</ele>
        <time>2019-09-10T15:32:34.500Z</time>
      </trkpt>
      <trkpt lat="10.1580413848429" lon="-75.6815053129163">
        <ele>52.2778713</ele>
        <time>2019-09-10T15:32:34.600Z</time>
      </trkpt>
      <trkpt lat="10.1580396632779" lon="-75.681503247921">
        <ele>52.2778713</ele>
        <time>2019-09-10T15:32:34.700Z</time>
      </trkpt>
      <trkpt lat="10.1580379449438" lon="-75.681501180419">
        <ele>52.2778713</ele>
        <time>2019-09-10T15:32:34.800Z</time>
      </trkpt>
      <trkpt lat="10.1580362190016" lon="-75.6814991032562">
        <ele>52.2778713</ele>
        <time>2019-09-10T15:32:34.900Z</time>
      </trkpt>
      <trkpt lat="10.1580344626792" lon="-75.681497012342">
        <ele>52.2778713</ele>
        <time>2019-09-10T15:32:35.000Z</time>
      </trkpt>
      <trkpt lat="10.1580327028133" lon="-75.6814949135947">
        <ele>52.2778713</ele>
        <time>2019-09-10T15:32:35.100Z</time>
      </trkpt>
      <trkpt lat="10.1580309470119" lon="-75.6814928003127">
        <ele>52.2778713</ele>
        <time>2019-09-10T15:32:35.200Z</time>
      </trkpt>
      <trkpt lat="10.1580291970469" lon="-75.681490680242">
        <ele>52.2778713</ele>
        <time>2019-09-10T15:32:35.300Z</time>
      </trkpt>
      <trkpt lat="10.1580274514592" lon="-75.6814885562895">
        <ele>52.2778713</ele>
        <time>2019-09-10T15:32:35.400Z</time>
      </trkpt>
      <trkpt lat="10.1580257064446" lon="-75.6814864412146">
        <ele>52.2778713</ele>
        <time>2019-09-10T15:32:35.500Z</time>
      </trkpt>
      <trkpt lat="10.158023961378" lon="-75.6814843449739">
        <ele>52.2778713</ele>
        <time>2019-09-10T15:32:35.600Z</time>
      </trkpt>
      <trkpt lat="10.1580204637408" lon="-75.681480218099">
        <ele>52.2778713</ele>
        <time>2019-09-10T15:32:35.800Z</time>
      </trkpt>
      <trkpt lat="10.1580187104929" lon="-75.6814781723208">
        <ele>52.2778713</ele>
        <time>2019-09-10T15:32:35.900Z</time>
      </trkpt>
      <trkpt lat="10.1580169590167" lon="-75.6814761429051">
        <ele>52.2778713</ele>
        <time>2019-09-10T15:32:36.000Z</time>
      </trkpt>
      <trkpt lat="10.1580151976917" lon="-75.6814740912608">
        <ele>52.2778713</ele>
        <time>2019-09-10T15:32:36.100Z</time>
      </trkpt>
      <trkpt lat="10.1580134388158" lon="-75.6814720049768">
        <ele>52.2778713</ele>
        <time>2019-09-10T15:32:36.200Z</time>
      </trkpt>
      <trkpt lat="10.1580099211162" lon="-75.6814677833215">
        <ele>52.2778713</ele>
        <time>2019-09-10T15:32:36.400Z</time>
      </trkpt>
      <trkpt lat="10.1580064195187" lon="-75.6814635469225">
        <ele>52.2778713</ele>
        <time>2019-09-10T15:32:36.600Z</time>
      </trkpt>
      <trkpt lat="10.1580046717423" lon="-75.6814614187576">
        <ele>52.2778713</ele>
        <time>2019-09-10T15:32:36.700Z</time>
      </trkpt>
      <trkpt lat="10.1580029832153" lon="-75.6814592818718">
        <ele>52.2778713</ele>
        <time>2019-09-10T15:32:36.800Z</time>
      </trkpt>
      <trkpt lat="10.1580012857774" lon="-75.6814571430191">
        <ele>52.2778713</ele>
        <time>2019-09-10T15:32:36.900Z</time>
      </trkpt>
      <trkpt lat="10.1579995831805" lon="-75.6814549977954">
        <ele>52.2778713</ele>
        <time>2019-09-10T15:32:37.000Z</time>
      </trkpt>
      <trkpt lat="10.1579978656802" lon="-75.6814528574109">
        <ele>52.2778713</ele>
        <time>2019-09-10T15:32:37.100Z</time>
      </trkpt>
      <trkpt lat="10.1579961829374" lon="-75.6814507469487">
        <ele>52.2778713</ele>
        <time>2019-09-10T15:32:37.200Z</time>
      </trkpt>
      <trkpt lat="10.1579944926906" lon="-75.6814486422483">
        <ele>52.2778713</ele>
        <time>2019-09-10T15:32:37.300Z</time>
      </trkpt>
      <trkpt lat="10.15799282704" lon="-75.6814465616041">
        <ele>52.2778713</ele>
        <time>2019-09-10T15:32:37.400Z</time>
      </trkpt>
      <trkpt lat="10.1579911446619" lon="-75.6814444744672">
        <ele>52.2778713</ele>
        <time>2019-09-10T15:32:37.500Z</time>
      </trkpt>
      <trkpt lat="10.1579894442537" lon="-75.6814423956856">
        <ele>52.2778713</ele>
        <time>2019-09-10T15:32:37.600Z</time>
      </trkpt>
      <trkpt lat="10.1579877294631" lon="-75.6814403039011">
        <ele>52.2778713</ele>
        <time>2019-09-10T15:32:37.700Z</time>
      </trkpt>
      <trkpt lat="10.1579860267099" lon="-75.6814382124821">
        <ele>52.2778713</ele>
        <time>2019-09-10T15:32:37.800Z</time>
      </trkpt>
      <trkpt lat="10.1579843130658" lon="-75.6814361116285">
        <ele>52.2778713</ele>
        <time>2019-09-10T15:32:37.900Z</time>
      </trkpt>
      <trkpt lat="10.1579825796718" lon="-75.681434015353">
        <ele>52.2778713</ele>
        <time>2019-09-10T15:32:38.000Z</time>
      </trkpt>
      <trkpt lat="10.1579808414837" lon="-75.6814319143254">
        <ele>52.2778713</ele>
        <time>2019-09-10T15:32:38.100Z</time>
      </trkpt>
      <trkpt lat="10.1579790991789" lon="-75.6814298217576">
        <ele>52.2778713</ele>
        <time>2019-09-10T15:32:38.200Z</time>
      </trkpt>
      <trkpt lat="10.157977358229" lon="-75.6814277275187">
        <ele>52.2778713</ele>
        <time>2019-09-10T15:32:38.300Z</time>
      </trkpt>
      <trkpt lat="10.1579755780922" lon="-75.6814256078483">
        <ele>52.2778713</ele>
        <time>2019-09-10T15:32:38.400Z</time>
      </trkpt>
      <trkpt lat="10.1579737979032" lon="-75.6814234854276">
        <ele>52.2778713</ele>
        <time>2019-09-10T15:32:38.500Z</time>
      </trkpt>
      <trkpt lat="10.1579720546083" lon="-75.6814213653569">
        <ele>52.2778713</ele>
        <time>2019-09-10T15:32:38.600Z</time>
      </trkpt>
      <trkpt lat="10.1579703197032" lon="-75.681419250456">
        <ele>52.2778713</ele>
        <time>2019-09-10T15:32:38.700Z</time>
      </trkpt>
      <trkpt lat="10.1579685939173" lon="-75.681417138906">
        <ele>52.2778713</ele>
        <time>2019-09-10T15:32:38.800Z</time>
      </trkpt>
      <trkpt lat="10.1579668658907" lon="-75.6814150262506">
        <ele>52.2778713</ele>
        <time>2019-09-10T15:32:38.900Z</time>
      </trkpt>
      <trkpt lat="10.157965141616" lon="-75.6814128855179">
        <ele>52.2778713</ele>
        <time>2019-09-10T15:32:39.000Z</time>
      </trkpt>
      <trkpt lat="10.1579634131726" lon="-75.6814107464301">
        <ele>52.2778713</ele>
        <time>2019-09-10T15:32:39.100Z</time>
      </trkpt>
      <trkpt lat="10.1579616833742" lon="-75.6814086171599">
        <ele>52.2778713</ele>
        <time>2019-09-10T15:32:39.200Z</time>
      </trkpt>
      <trkpt lat="10.1579599476874" lon="-75.6814064960708">
        <ele>52.2778713</ele>
        <time>2019-09-10T15:32:39.300Z</time>
      </trkpt>
      <trkpt lat="10.1579582407133" lon="-75.6814043566611">
        <ele>52.2778713</ele>
        <time>2019-09-10T15:32:39.400Z</time>
      </trkpt>
      <trkpt lat="10.1579565278508" lon="-75.6814022205064">
        <ele>52.2778713</ele>
        <time>2019-09-10T15:32:39.500Z</time>
      </trkpt>
      <trkpt lat="10.1579548166558" lon="-75.6814000677369">
        <ele>52.2778713</ele>
        <time>2019-09-10T15:32:39.600Z</time>
      </trkpt>
      <trkpt lat="10.1579530965499" lon="-75.6813979255507">
        <ele>52.2778713</ele>
        <time>2019-09-10T15:32:39.700Z</time>
      </trkpt>
      <trkpt lat="10.1579514563811" lon="-75.681395871983">
        <ele>52.2778713</ele>
        <time>2019-09-10T15:32:39.800Z</time>
      </trkpt>
      <trkpt lat="10.1579498073536" lon="-75.6813938231499">
        <ele>52.2778713</ele>
        <time>2019-09-10T15:32:39.900Z</time>
      </trkpt>
      <trkpt lat="10.1579481421198" lon="-75.6813917810271">
        <ele>52.2778713</ele>
        <time>2019-09-10T15:32:40.000Z</time>
      </trkpt>
      <trkpt lat="10.1579464462973" lon="-75.6813897217238">
        <ele>52.2778713</ele>
        <time>2019-09-10T15:32:40.100Z</time>
      </trkpt>
      <trkpt lat="10.1579447682444" lon="-75.6813876254918">
        <ele>52.2778713</ele>
        <time>2019-09-10T15:32:40.200Z</time>
      </trkpt>
      <trkpt lat="10.1579430769555" lon="-75.6813855213658">
        <ele>52.2778713</ele>
        <time>2019-09-10T15:32:40.300Z</time>
      </trkpt>
      <trkpt lat="10.1579413932226" lon="-75.6813834465356">
        <ele>52.2778713</ele>
        <time>2019-09-10T15:32:40.400Z</time>
      </trkpt>
      <trkpt lat="10.1579396958889" lon="-75.6813813766228">
        <ele>52.2778713</ele>
        <time>2019-09-10T15:32:40.500Z</time>
      </trkpt>
      <trkpt lat="10.1579380082998" lon="-75.6813793293563">
        <ele>52.2778713</ele>
        <time>2019-09-10T15:32:40.600Z</time>
      </trkpt>
      <trkpt lat="10.1579363088296" lon="-75.6813772689216">
        <ele>52.2778713</ele>
        <time>2019-09-10T15:32:40.700Z</time>
      </trkpt>
      <trkpt lat="10.1579328694516" lon="-75.6813731026114">
        <ele>52.2778713</ele>
        <time>2019-09-10T15:32:40.900Z</time>
      </trkpt>
      <trkpt lat="10.1579311545568" lon="-75.6813710375812">
        <ele>52.2778713</ele>
        <time>2019-09-10T15:32:41.000Z</time>
      </trkpt>
      <trkpt lat="10.1579294394014" lon="-75.6813689727512">
        <ele>52.2778713</ele>
        <time>2019-09-10T15:32:41.100Z</time>
      </trkpt>
      <trkpt lat="10.1579277200772" lon="-75.6813669027253">
        <ele>52.2778713</ele>
        <time>2019-09-10T15:32:41.200Z</time>
      </trkpt>
      <trkpt lat="10.1579259977306" lon="-75.6813648308803">
        <ele>52.2778713</ele>
        <time>2019-09-10T15:32:41.300Z</time>
      </trkpt>
      <trkpt lat="10.1579243255662" lon="-75.6813627874607">
        <ele>52.2778713</ele>
        <time>2019-09-10T15:32:41.400Z</time>
      </trkpt>
      <trkpt lat="10.1579226489723" lon="-75.6813607438758">
        <ele>52.2778713</ele>
        <time>2019-09-10T15:32:41.500Z</time>
      </trkpt>
      <trkpt lat="10.1579209901481" lon="-75.6813587117098">
        <ele>52.2778713</ele>
        <time>2019-09-10T15:32:41.600Z</time>
      </trkpt>
      <trkpt lat="10.1579193128247" lon="-75.6813566691868">
        <ele>52.2778713</ele>
        <time>2019-09-10T15:32:41.700Z</time>
      </trkpt>
      <trkpt lat="10.1579176450896" lon="-75.6813546331129">
        <ele>52.2778713</ele>
        <time>2019-09-10T15:32:41.800Z</time>
      </trkpt>
      <trkpt lat="10.1579159600539" lon="-75.6813525921739">
        <ele>52.2778713</ele>
        <time>2019-09-10T15:32:41.900Z</time>
      </trkpt>
      <trkpt lat="10.157914253601" lon="-75.6813505559347">
        <ele>52.2778713</ele>
        <time>2019-09-10T15:32:42.000Z</time>
      </trkpt>
      <trkpt lat="10.1579125378724" lon="-75.6813485141862">
        <ele>52.2778713</ele>
        <time>2019-09-10T15:32:42.100Z</time>
      </trkpt>
      <trkpt lat="10.1579108107316" lon="-75.6813464334811">
        <ele>52.2778713</ele>
        <time>2019-09-10T15:32:42.200Z</time>
      </trkpt>
      <trkpt lat="10.1579090936482" lon="-75.6813443376234">
        <ele>52.2778713</ele>
        <time>2019-09-10T15:32:42.300Z</time>
      </trkpt>
      <trkpt lat="10.1579073933442" lon="-75.6813421973215">
        <ele>52.2778713</ele>
        <time>2019-09-10T15:32:42.400Z</time>
      </trkpt>
      <trkpt lat="10.157905687256" lon="-75.6813400588691">
        <ele>52.2778713</ele>
        <time>2019-09-10T15:32:42.500Z</time>
      </trkpt>
      <trkpt lat="10.1579040132156" lon="-75.6813379714885">
        <ele>52.2778713</ele>
        <time>2019-09-10T15:32:42.600Z</time>
      </trkpt>
      <trkpt lat="10.1579023293263" lon="-75.6813358911794">
        <ele>52.2778713</ele>
        <time>2019-09-10T15:32:42.700Z</time>
      </trkpt>
      <trkpt lat="10.1579006513776" lon="-75.6813338088599">
        <ele>52.2778713</ele>
        <time>2019-09-10T15:32:42.800Z</time>
      </trkpt>
      <trkpt lat="10.1578989500314" lon="-75.6813317106783">
        <ele>52.2778713</ele>
        <time>2019-09-10T15:32:42.900Z</time>
      </trkpt>
      <trkpt lat="10.157897257075" lon="-75.6813296117308">
        <ele>52.2778713</ele>
        <time>2019-09-10T15:32:43.000Z</time>
      </trkpt>
      <trkpt lat="10.1578955482771" lon="-75.6813275076266">
        <ele>52.2778713</ele>
        <time>2019-09-10T15:32:43.100Z</time>
      </trkpt>
      <trkpt lat="10.1578938230644" lon="-75.6813254070342">
        <ele>52.2778713</ele>
        <time>2019-09-10T15:32:43.200Z</time>
      </trkpt>
      <trkpt lat="10.1578920797174" lon="-75.6813232992918">
        <ele>52.2778713</ele>
        <time>2019-09-10T15:32:43.300Z</time>
      </trkpt>
      <trkpt lat="10.1578902970272" lon="-75.6813211602824">
        <ele>52.2778713</ele>
        <time>2019-09-10T15:32:43.400Z</time>
      </trkpt>
      <trkpt lat="10.1578885123047" lon="-75.6813190136532">
        <ele>52.2778713</ele>
        <time>2019-09-10T15:32:43.500Z</time>
      </trkpt>
      <trkpt lat="10.1578868155442" lon="-75.681316905232">
        <ele>52.2778713</ele>
        <time>2019-09-10T15:32:43.600Z</time>
      </trkpt>
      <trkpt lat="10.1578851198259" lon="-75.6813147951963">
        <ele>52.2778713</ele>
        <time>2019-09-10T15:32:43.700Z</time>
      </trkpt>
      <trkpt lat="10.1578833738213" lon="-75.6813126637132">
        <ele>52.2778713</ele>
        <time>2019-09-10T15:32:43.800Z</time>
      </trkpt>
      <trkpt lat="10.1578816019179" lon="-75.6813105105129">
        <ele>52.2778713</ele>
        <time>2019-09-10T15:32:43.900Z</time>
      </trkpt>
      <trkpt lat="10.1578798117238" lon="-75.681308311367">
        <ele>52.2778713</ele>
        <time>2019-09-10T15:32:44.000Z</time>
      </trkpt>
      <trkpt lat="10.1578780262197" lon="-75.6813061184311">
        <ele>52.2778713</ele>
        <time>2019-09-10T15:32:44.100Z</time>
      </trkpt>
      <trkpt lat="10.157876257964" lon="-75.6813039398428">
        <ele>52.2778713</ele>
        <time>2019-09-10T15:32:44.200Z</time>
      </trkpt>
      <trkpt lat="10.1578744921054" lon="-75.6813017843992">
        <ele>52.2778713</ele>
        <time>2019-09-10T15:32:44.300Z</time>
      </trkpt>
      <trkpt lat="10.1578727075392" lon="-75.6812996480247">
        <ele>52.2778713</ele>
        <time>2019-09-10T15:32:44.400Z</time>
      </trkpt>
      <trkpt lat="10.1578709202112" lon="-75.6812975209238">
        <ele>52.2778713</ele>
        <time>2019-09-10T15:32:44.500Z</time>
      </trkpt>
      <trkpt lat="10.1578691502358" lon="-75.6812954283516">
        <ele>52.2778713</ele>
        <time>2019-09-10T15:32:44.600Z</time>
      </trkpt>
      <trkpt lat="10.1578673779677" lon="-75.6812933355009">
        <ele>52.2778713</ele>
        <time>2019-09-10T15:32:44.700Z</time>
      </trkpt>
      <trkpt lat="10.1578655658873" lon="-75.6812911940175">
        <ele>52.2778713</ele>
        <time>2019-09-10T15:32:44.800Z</time>
      </trkpt>
      <trkpt lat="10.1578637553181" lon="-75.6812890545153">
        <ele>52.2778713</ele>
        <time>2019-09-10T15:32:44.900Z</time>
      </trkpt>
      <trkpt lat="10.1578619434983" lon="-75.681286932922">
        <ele>52.2778713</ele>
        <time>2019-09-10T15:32:45.000Z</time>
      </trkpt>
      <trkpt lat="10.1578583848401" lon="-75.6812827562172">
        <ele>52.2778713</ele>
        <time>2019-09-10T15:32:45.200Z</time>
      </trkpt>
      <trkpt lat="10.1578548885057" lon="-75.6812786237365">
        <ele>52.3778713</ele>
        <time>2019-09-10T15:32:45.400Z</time>
      </trkpt>
      <trkpt lat="10.1578531394266" lon="-75.6812765521602">
        <ele>52.3778713</ele>
        <time>2019-09-10T15:32:45.500Z</time>
      </trkpt>
      <trkpt lat="10.157851442145" lon="-75.6812745152152">
        <ele>52.3778713</ele>
        <time>2019-09-10T15:32:45.600Z</time>
      </trkpt>
      <trkpt lat="10.1578497391313" lon="-75.6812724742729">
        <ele>52.3778713</ele>
        <time>2019-09-10T15:32:45.700Z</time>
      </trkpt>
      <trkpt lat="10.1578479811413" lon="-75.6812704176807">
        <ele>52.3778713</ele>
        <time>2019-09-10T15:32:45.800Z</time>
      </trkpt>
      <trkpt lat="10.1578462139799" lon="-75.6812683411984">
        <ele>52.3778713</ele>
        <time>2019-09-10T15:32:45.900Z</time>
      </trkpt>
      <trkpt lat="10.1578444860054" lon="-75.6812662329426">
        <ele>52.3778713</ele>
        <time>2019-09-10T15:32:46.000Z</time>
      </trkpt>
      <trkpt lat="10.1578427651179" lon="-75.6812641254919">
        <ele>52.3778713</ele>
        <time>2019-09-10T15:32:46.100Z</time>
      </trkpt>
      <trkpt lat="10.1578410791964" lon="-75.6812620711756">
        <ele>52.3778713</ele>
        <time>2019-09-10T15:32:46.200Z</time>
      </trkpt>
      <trkpt lat="10.1578393904088" lon="-75.6812600134052">
        <ele>52.3778713</ele>
        <time>2019-09-10T15:32:46.300Z</time>
      </trkpt>
      <trkpt lat="10.157837704852" lon="-75.681257904612">
        <ele>52.3778713</ele>
        <time>2019-09-10T15:32:46.400Z</time>
      </trkpt>
      <trkpt lat="10.1578360096548" lon="-75.6812557768322">
        <ele>52.2778713</ele>
        <time>2019-09-10T15:32:46.500Z</time>
      </trkpt>
      <trkpt lat="10.1578343330089" lon="-75.6812537028745">
        <ele>52.3778713</ele>
        <time>2019-09-10T15:32:46.600Z</time>
      </trkpt>
      <trkpt lat="10.1578326491196" lon="-75.6812516179852">
        <ele>52.3778713</ele>
        <time>2019-09-10T15:32:46.700Z</time>
      </trkpt>
      <trkpt lat="10.1578309733074" lon="-75.6812495330611">
        <ele>52.3778713</ele>
        <time>2019-09-10T15:32:46.800Z</time>
      </trkpt>
      <trkpt lat="10.1578292908252" lon="-75.6812474328691">
        <ele>52.3778713</ele>
        <time>2019-09-10T15:32:46.900Z</time>
      </trkpt>
      <trkpt lat="10.157827609333" lon="-75.6812453079375">
        <ele>52.3778713</ele>
        <time>2019-09-10T15:32:47.000Z</time>
      </trkpt>
      <trkpt lat="10.1578259179398" lon="-75.6812431735735">
        <ele>52.3778713</ele>
        <time>2019-09-10T15:32:47.100Z</time>
      </trkpt>
      <trkpt lat="10.1578242246707" lon="-75.6812410518753">
        <ele>52.3778713</ele>
        <time>2019-09-10T15:32:47.200Z</time>
      </trkpt>
      <trkpt lat="10.1578225188431" lon="-75.6812389299855">
        <ele>52.3778713</ele>
        <time>2019-09-10T15:32:47.300Z</time>
      </trkpt>
      <trkpt lat="10.1578207856055" lon="-75.6812367589344">
        <ele>52.2778713</ele>
        <time>2019-09-10T15:32:47.400Z</time>
      </trkpt>
      <trkpt lat="10.1578190419458" lon="-75.6812345900374">
        <ele>52.2778713</ele>
        <time>2019-09-10T15:32:47.500Z</time>
      </trkpt>
      <trkpt lat="10.1578173038098" lon="-75.681232479745">
        <ele>52.2778713</ele>
        <time>2019-09-10T15:32:47.600Z</time>
      </trkpt>
      <trkpt lat="10.1578155587432" lon="-75.6812303746964">
        <ele>52.2778713</ele>
        <time>2019-09-10T15:32:47.700Z</time>
      </trkpt>
      <trkpt lat="10.1578138069543" lon="-75.6812282605875">
        <ele>52.2778713</ele>
        <time>2019-09-10T15:32:47.800Z</time>
      </trkpt>
      <trkpt lat="10.1578120484953" lon="-75.6812261360215">
        <ele>52.2778713</ele>
        <time>2019-09-10T15:32:47.900Z</time>
      </trkpt>
      <trkpt lat="10.1578102589787" lon="-75.68122402626">
        <ele>52.2778713</ele>
        <time>2019-09-10T15:32:48.000Z</time>
      </trkpt>
      <trkpt lat="10.157808468472" lon="-75.6812219097577">
        <ele>52.2778713</ele>
        <time>2019-09-10T15:32:48.100Z</time>
      </trkpt>
      <trkpt lat="10.1578066942757" lon="-75.6812197790252">
        <ele>52.2778713</ele>
        <time>2019-09-10T15:32:48.200Z</time>
      </trkpt>
      <trkpt lat="10.1578049235187" lon="-75.6812176464172">
        <ele>52.2778713</ele>
        <time>2019-09-10T15:32:48.300Z</time>
      </trkpt>
      <trkpt lat="10.1578031375977" lon="-75.6812155027993">
        <ele>52.2778713</ele>
        <time>2019-09-10T15:32:48.400Z</time>
      </trkpt>
      <trkpt lat="10.1578013498007" lon="-75.6812133632372">
        <ele>52.2778713</ele>
        <time>2019-09-10T15:32:48.500Z</time>
      </trkpt>
      <trkpt lat="10.1577995577827" lon="-75.681211204867">
        <ele>52.2778713</ele>
        <time>2019-09-10T15:32:48.600Z</time>
      </trkpt>
      <trkpt lat="10.1577977712885" lon="-75.6812090455569">
        <ele>52.2778713</ele>
        <time>2019-09-10T15:32:48.700Z</time>
      </trkpt>
      <trkpt lat="10.1577960069932" lon="-75.681206914485">
        <ele>52.2778713</ele>
        <time>2019-09-10T15:32:48.800Z</time>
      </trkpt>
      <trkpt lat="10.1577942419683" lon="-75.6812047895708">
        <ele>52.2778713</ele>
        <time>2019-09-10T15:32:48.900Z</time>
      </trkpt>
      <trkpt lat="10.1577925069068" lon="-75.6812026955582">
        <ele>52.2778713</ele>
        <time>2019-09-10T15:32:49.000Z</time>
      </trkpt>
      <trkpt lat="10.1577907686666" lon="-75.6812006042088">
        <ele>52.2778713</ele>
        <time>2019-09-10T15:32:49.100Z</time>
      </trkpt>
      <trkpt lat="10.1577890256323" lon="-75.6811985415372">
        <ele>52.3778713</ele>
        <time>2019-09-10T15:32:49.200Z</time>
      </trkpt>
      <trkpt lat="10.1577872759799" lon="-75.6811964770206">
        <ele>52.3778713</ele>
        <time>2019-09-10T15:32:49.300Z</time>
      </trkpt>
      <trkpt lat="10.1577837447838" lon="-75.6811923645934">
        <ele>52.3778713</ele>
        <time>2019-09-10T15:32:49.500Z</time>
      </trkpt>
      <trkpt lat="10.1577819911711" lon="-75.6811902986494">
        <ele>52.3778713</ele>
        <time>2019-09-10T15:32:49.600Z</time>
      </trkpt>
      <trkpt lat="10.1577802404244" lon="-75.6811882322092">
        <ele>52.3778713</ele>
        <time>2019-09-10T15:32:49.700Z</time>
      </trkpt>
      <trkpt lat="10.1577785043729" lon="-75.6811861813831">
        <ele>52.3778713</ele>
        <time>2019-09-10T15:32:49.800Z</time>
      </trkpt>
      <trkpt lat="10.1577767757209" lon="-75.6811841295212">
        <ele>52.3778713</ele>
        <time>2019-09-10T15:32:49.900Z</time>
      </trkpt>
      <trkpt lat="10.1577750345105" lon="-75.6811820535508">
        <ele>52.3778713</ele>
        <time>2019-09-10T15:32:50.000Z</time>
      </trkpt>
      <trkpt lat="10.1577732939253" lon="-75.6811799692338">
        <ele>52.3778713</ele>
        <time>2019-09-10T15:32:50.100Z</time>
      </trkpt>
      <trkpt lat="10.1577715744969" lon="-75.6811778879804">
        <ele>52.3778713</ele>
        <time>2019-09-10T15:32:50.200Z</time>
      </trkpt>
      <trkpt lat="10.1577698404255" lon="-75.681175793141">
        <ele>52.3778713</ele>
        <time>2019-09-10T15:32:50.300Z</time>
      </trkpt>
      <trkpt lat="10.1577663274158" lon="-75.6811715304402">
        <ele>52.2778713</ele>
        <time>2019-09-10T15:32:50.500Z</time>
      </trkpt>
      <trkpt lat="10.157764559108" lon="-75.6811693945988">
        <ele>52.2778713</ele>
        <time>2019-09-10T15:32:50.600Z</time>
      </trkpt>
      <trkpt lat="10.1577627776685" lon="-75.68116726109">
        <ele>52.2778713</ele>
        <time>2019-09-10T15:32:50.700Z</time>
      </trkpt>
      <trkpt lat="10.157761010455" lon="-75.6811651434301">
        <ele>52.2778713</ele>
        <time>2019-09-10T15:32:50.800Z</time>
      </trkpt>
      <trkpt lat="10.1577592349039" lon="-75.6811630297738">
        <ele>52.2778713</ele>
        <time>2019-09-10T15:32:50.900Z</time>
      </trkpt>
      <trkpt lat="10.1577574551318" lon="-75.6811609390511">
        <ele>52.2778713</ele>
        <time>2019-09-10T15:32:51.000Z</time>
      </trkpt>
      <trkpt lat="10.1577556665531" lon="-75.6811588502605">
        <ele>52.2778713</ele>
        <time>2019-09-10T15:32:51.100Z</time>
      </trkpt>
      <trkpt lat="10.1577538795378" lon="-75.681156780017">
        <ele>52.2778713</ele>
        <time>2019-09-10T15:32:51.200Z</time>
      </trkpt>
      <trkpt lat="10.1577520911155" lon="-75.6811547067012">
        <ele>52.2778713</ele>
        <time>2019-09-10T15:32:51.300Z</time>
      </trkpt>
      <trkpt lat="10.1577503075915" lon="-75.681152638825">
        <ele>52.2778713</ele>
        <time>2019-09-10T15:32:51.400Z</time>
      </trkpt>
      <trkpt lat="10.1577485215662" lon="-75.6811505654221">
        <ele>52.2778713</ele>
        <time>2019-09-10T15:32:51.500Z</time>
      </trkpt>
      <trkpt lat="10.1577467718097" lon="-75.681148517294">
        <ele>52.2778713</ele>
        <time>2019-09-10T15:32:51.600Z</time>
      </trkpt>
      <trkpt lat="10.1577450160083" lon="-75.6811464622031">
        <ele>52.2778713</ele>
        <time>2019-09-10T15:32:51.700Z</time>
      </trkpt>
      <trkpt lat="10.1577432868353" lon="-75.681144424319">
        <ele>52.2778713</ele>
        <time>2019-09-10T15:32:51.800Z</time>
      </trkpt>
      <trkpt lat="10.1577415502626" lon="-75.6811423749811">
        <ele>52.2778713</ele>
        <time>2019-09-10T15:32:51.900Z</time>
      </trkpt>
      <trkpt lat="10.1577398036848" lon="-75.6811403348428">
        <ele>52.2778713</ele>
        <time>2019-09-10T15:32:52.000Z</time>
      </trkpt>
      <trkpt lat="10.1577380468933" lon="-75.6811382844605">
        <ele>52.2778713</ele>
        <time>2019-09-10T15:32:52.100Z</time>
      </trkpt>
      <trkpt lat="10.157736280722" lon="-75.6811362136947">
        <ele>52.2778713</ele>
        <time>2019-09-10T15:32:52.200Z</time>
      </trkpt>
      <trkpt lat="10.1577345142902" lon="-75.6811341344257">
        <ele>52.2778713</ele>
        <time>2019-09-10T15:32:52.300Z</time>
      </trkpt>
      <trkpt lat="10.1577327360815" lon="-75.6811319942849">
        <ele>52.2778713</ele>
        <time>2019-09-10T15:32:52.400Z</time>
      </trkpt>
      <trkpt lat="10.1577309602177" lon="-75.6811298570858">
        <ele>52.2778713</ele>
        <time>2019-09-10T15:32:52.500Z</time>
      </trkpt>
      <trkpt lat="10.1577291713785" lon="-75.6811277054216">
        <ele>52.2778713</ele>
        <time>2019-09-10T15:32:52.600Z</time>
      </trkpt>
      <trkpt lat="10.15772739046" lon="-75.6811255686403">
        <ele>52.2778713</ele>
        <time>2019-09-10T15:32:52.700Z</time>
      </trkpt>
      <trkpt lat="10.1577256346066" lon="-75.6811234342263">
        <ele>52.2778713</ele>
        <time>2019-09-10T15:32:52.800Z</time>
      </trkpt>
      <trkpt lat="10.1577221493195" lon="-75.6811192710058">
        <ele>52.2778713</ele>
        <time>2019-09-10T15:32:53.000Z</time>
      </trkpt>
      <trkpt lat="10.1577204086823" lon="-75.6811172278039">
        <ele>52.2778713</ele>
        <time>2019-09-10T15:32:53.100Z</time>
      </trkpt>
      <trkpt lat="10.1577186779459" lon="-75.6811151848456">
        <ele>52.2778713</ele>
        <time>2019-09-10T15:32:53.200Z</time>
      </trkpt>
      <trkpt lat="10.1577169398099" lon="-75.6811131234187">
        <ele>52.2778713</ele>
        <time>2019-09-10T15:32:53.300Z</time>
      </trkpt>
      <trkpt lat="10.1577134051224" lon="-75.6811089646369">
        <ele>52.2778713</ele>
        <time>2019-09-10T15:32:53.500Z</time>
      </trkpt>
      <trkpt lat="10.157711611906" lon="-75.6811068666207">
        <ele>52.2778713</ele>
        <time>2019-09-10T15:32:53.600Z</time>
      </trkpt>
      <trkpt lat="10.1577098190543" lon="-75.6811047671249">
        <ele>52.2778713</ele>
        <time>2019-09-10T15:32:53.700Z</time>
      </trkpt>
      <trkpt lat="10.1577080439721" lon="-75.6811026973949">
        <ele>52.2778713</ele>
        <time>2019-09-10T15:32:53.800Z</time>
      </trkpt>
      <trkpt lat="10.1577044703583" lon="-75.6810985024417">
        <ele>52.2778713</ele>
        <time>2019-09-10T15:32:54.000Z</time>
      </trkpt>
      <trkpt lat="10.1577026671888" lon="-75.6810963778626">
        <ele>52.2778713</ele>
        <time>2019-09-10T15:32:54.100Z</time>
      </trkpt>
      <trkpt lat="10.1577008879378" lon="-75.6810942819004">
        <ele>52.2778713</ele>
        <time>2019-09-10T15:32:54.200Z</time>
      </trkpt>
      <trkpt lat="10.1576991163992" lon="-75.6810921877137">
        <ele>52.2778713</ele>
        <time>2019-09-10T15:32:54.300Z</time>
      </trkpt>
      <trkpt lat="10.15769736633" lon="-75.6810900930919">
        <ele>52.2778713</ele>
        <time>2019-09-10T15:32:54.400Z</time>
      </trkpt>
      <trkpt lat="10.1576956175114" lon="-75.6810879916291">
        <ele>52.2778713</ele>
        <time>2019-09-10T15:32:54.500Z</time>
      </trkpt>
      <trkpt lat="10.1576939156962" lon="-75.6810859599679">
        <ele>52.2778713</ele>
        <time>2019-09-10T15:32:54.600Z</time>
      </trkpt>
      <trkpt lat="10.1576921999676" lon="-75.6810839180366">
        <ele>52.2778713</ele>
        <time>2019-09-10T15:32:54.700Z</time>
      </trkpt>
      <trkpt lat="10.1576904630302" lon="-75.6810818012906">
        <ele>52.2778713</ele>
        <time>2019-09-10T15:32:54.800Z</time>
      </trkpt>
      <trkpt lat="10.1576887055613" lon="-75.6810796688784">
        <ele>52.2778713</ele>
        <time>2019-09-10T15:32:54.900Z</time>
      </trkpt>
      <trkpt lat="10.1576869899369" lon="-75.6810775385725">
        <ele>52.2778713</ele>
        <time>2019-09-10T15:32:55.000Z</time>
      </trkpt>
      <trkpt lat="10.1576852632131" lon="-75.681075424246">
        <ele>52.2778713</ele>
        <time>2019-09-10T15:32:55.100Z</time>
      </trkpt>
      <trkpt lat="10.1576835452959" lon="-75.6810733243151">
        <ele>52.2778713</ele>
        <time>2019-09-10T15:32:55.200Z</time>
      </trkpt>
      <trkpt lat="10.1576818056487" lon="-75.6810712406421">
        <ele>52.2778713</ele>
        <time>2019-09-10T15:32:55.300Z</time>
      </trkpt>
      <trkpt lat="10.1576801312956" lon="-75.6810692085631">
        <ele>52.2778713</ele>
        <time>2019-09-10T15:32:55.400Z</time>
      </trkpt>
      <trkpt lat="10.1576784359942" lon="-75.6810671791823">
        <ele>52.2778713</ele>
        <time>2019-09-10T15:32:55.500Z</time>
      </trkpt>
      <trkpt lat="10.157676717139" lon="-75.6810651358062">
        <ele>52.2778713</ele>
        <time>2019-09-10T15:32:55.600Z</time>
      </trkpt>
      <trkpt lat="10.1576749703006" lon="-75.6810630825431">
        <ele>52.2778713</ele>
        <time>2019-09-10T15:32:55.700Z</time>
      </trkpt>
      <trkpt lat="10.1576732309661" lon="-75.6810610276437">
        <ele>52.2778713</ele>
        <time>2019-09-10T15:32:55.800Z</time>
      </trkpt>
      <trkpt lat="10.1576714830855" lon="-75.68105896888">
        <ele>52.2778713</ele>
        <time>2019-09-10T15:32:55.900Z</time>
      </trkpt>
      <trkpt lat="10.1576697488057" lon="-75.6810569052076">
        <ele>52.2778713</ele>
        <time>2019-09-10T15:32:56.000Z</time>
      </trkpt>
      <trkpt lat="10.1576680058755" lon="-75.6810548314392">
        <ele>52.2778713</ele>
        <time>2019-09-10T15:32:56.100Z</time>
      </trkpt>
      <trkpt lat="10.1576662762856" lon="-75.6810527224566">
        <ele>52.2778713</ele>
        <time>2019-09-10T15:32:56.200Z</time>
      </trkpt>
      <trkpt lat="10.1576645357005" lon="-75.6810506079909">
        <ele>52.2778713</ele>
        <time>2019-09-10T15:32:56.300Z</time>
      </trkpt>
      <trkpt lat="10.1576628100709" lon="-75.6810485085473">
        <ele>52.2778713</ele>
        <time>2019-09-10T15:32:56.400Z</time>
      </trkpt>
      <trkpt lat="10.1576610782924" lon="-75.6810464020366">
        <ele>52.2778713</ele>
        <time>2019-09-10T15:32:56.500Z</time>
      </trkpt>
      <trkpt lat="10.1576593571443" lon="-75.6810442794767">
        <ele>52.2778713</ele>
        <time>2019-09-10T15:32:56.600Z</time>
      </trkpt>
      <trkpt lat="10.1576576374554" lon="-75.6810421339223">
        <ele>52.2778713</ele>
        <time>2019-09-10T15:32:56.700Z</time>
      </trkpt>
      <trkpt lat="10.1576559351712" lon="-75.6810399454947">
        <ele>52.2778713</ele>
        <time>2019-09-10T15:32:56.800Z</time>
      </trkpt>
      <trkpt lat="10.1576525696855" lon="-75.6810355703978">
        <ele>52.2778713</ele>
        <time>2019-09-10T15:32:57.000Z</time>
      </trkpt>
      <trkpt lat="10.1576509059108" lon="-75.681033393041">
        <ele>52.2778713</ele>
        <time>2019-09-10T15:32:57.100Z</time>
      </trkpt>
      <trkpt lat="10.1576492549552" lon="-75.6810312381043">
        <ele>52.2778713</ele>
        <time>2019-09-10T15:32:57.200Z</time>
      </trkpt>
      <trkpt lat="10.1576475906073" lon="-75.6810290944821">
        <ele>52.2778713</ele>
        <time>2019-09-10T15:32:57.300Z</time>
      </trkpt>
      <trkpt lat="10.1576459245918" lon="-75.6810269774227">
        <ele>52.2778713</ele>
        <time>2019-09-10T15:32:57.400Z</time>
      </trkpt>
      <trkpt lat="10.1576442526358" lon="-75.6810248717127">
        <ele>52.2778713</ele>
        <time>2019-09-10T15:32:57.500Z</time>
      </trkpt>
      <trkpt lat="10.1576425737491" lon="-75.6810227768297">
        <ele>52.2778713</ele>
        <time>2019-09-10T15:32:57.600Z</time>
      </trkpt>
      <trkpt lat="10.1576391988836" lon="-75.681018630198">
        <ele>52.2778713</ele>
        <time>2019-09-10T15:32:57.800Z</time>
      </trkpt>
      <trkpt lat="10.1576358152636" lon="-75.6810145381891">
        <ele>52.2778713</ele>
        <time>2019-09-10T15:32:58.000Z</time>
      </trkpt>
      <trkpt lat="10.1576341257464" lon="-75.6810124995652">
        <ele>52.2778713</ele>
        <time>2019-09-10T15:32:58.100Z</time>
      </trkpt>
      <trkpt lat="10.1576324348744" lon="-75.6810104733001">
        <ele>52.2778713</ele>
        <time>2019-09-10T15:32:58.200Z</time>
      </trkpt>
      <trkpt lat="10.1576307395209" lon="-75.6810084440063">
        <ele>52.2778713</ele>
        <time>2019-09-10T15:32:58.300Z</time>
      </trkpt>
      <trkpt lat="10.1576290376015" lon="-75.6810064169405">
        <ele>52.2778713</ele>
        <time>2019-09-10T15:32:58.400Z</time>
      </trkpt>
      <trkpt lat="10.1576273316175" lon="-75.6810043848441">
        <ele>52.2778713</ele>
        <time>2019-09-10T15:32:58.500Z</time>
      </trkpt>
      <trkpt lat="10.1576256266758" lon="-75.6810023502586">
        <ele>52.2778713</ele>
        <time>2019-09-10T15:32:58.600Z</time>
      </trkpt>
      <trkpt lat="10.1576239133963" lon="-75.6810003087625">
        <ele>52.2778713</ele>
        <time>2019-09-10T15:32:58.700Z</time>
      </trkpt>
      <trkpt lat="10.157622231383" lon="-75.6809983253184">
        <ele>52.2778713</ele>
        <time>2019-09-10T15:32:58.800Z</time>
      </trkpt>
      <trkpt lat="10.1576205487444" lon="-75.6809963284535">
        <ele>52.2778713</ele>
        <time>2019-09-10T15:32:58.900Z</time>
      </trkpt>
      <trkpt lat="10.1576188233755" lon="-75.6809942442061">
        <ele>52.3778713</ele>
        <time>2019-09-10T15:32:59.000Z</time>
      </trkpt>
      <trkpt lat="10.1576170918575" lon="-75.6809921435615">
        <ele>52.3778713</ele>
        <time>2019-09-10T15:32:59.100Z</time>
      </trkpt>
      <trkpt lat="10.1576153828511" lon="-75.6809900700716">
        <ele>52.2778713</ele>
        <time>2019-09-10T15:32:59.200Z</time>
      </trkpt>
      <trkpt lat="10.1576136770755" lon="-75.6809880008986">
        <ele>52.2778713</ele>
        <time>2019-09-10T15:32:59.300Z</time>
      </trkpt>
      <trkpt lat="10.1576120136135" lon="-75.6809859795248">
        <ele>52.2778713</ele>
        <time>2019-09-10T15:32:59.400Z</time>
      </trkpt>
      <trkpt lat="10.1576103441066" lon="-75.6809839467148">
        <ele>52.2778713</ele>
        <time>2019-09-10T15:32:59.500Z</time>
      </trkpt>
      <trkpt lat="10.1576086142562" lon="-75.6809818816324">
        <ele>52.2778713</ele>
        <time>2019-09-10T15:32:59.600Z</time>
      </trkpt>
      <trkpt lat="10.1576068735668" lon="-75.6809797996305">
        <ele>52.2778713</ele>
        <time>2019-09-10T15:32:59.700Z</time>
      </trkpt>
      <trkpt lat="10.1576051706052" lon="-75.6809777194738">
        <ele>52.2778713</ele>
        <time>2019-09-10T15:32:59.800Z</time>
      </trkpt>
      <trkpt lat="10.1576034655592" lon="-75.6809756289077">
        <ele>52.3778713</ele>
        <time>2019-09-10T15:32:59.900Z</time>
      </trkpt>
      <trkpt lat="10.1576018027225" lon="-75.6809735509442">
        <ele>52.3778713</ele>
        <time>2019-09-10T15:33:00.000Z</time>
      </trkpt>
      <trkpt lat="10.1576001313397" lon="-75.6809714577671">
        <ele>52.3778713</ele>
        <time>2019-09-10T15:33:00.100Z</time>
      </trkpt>
      <trkpt lat="10.1575984458871" lon="-75.6809693260512">
        <ele>52.3778713</ele>
        <time>2019-09-10T15:33:00.200Z</time>
      </trkpt>
      <trkpt lat="10.1575967364638" lon="-75.6809671837171">
        <ele>52.3778713</ele>
        <time>2019-09-10T15:33:00.300Z</time>
      </trkpt>
      <trkpt lat="10.1575950054669" lon="-75.6809650096328">
        <ele>52.3778713</ele>
        <time>2019-09-10T15:33:00.400Z</time>
      </trkpt>
      <trkpt lat="10.1575932625889" lon="-75.6809628402484">
        <ele>52.3778713</ele>
        <time>2019-09-10T15:33:00.500Z</time>
      </trkpt>
      <trkpt lat="10.1575915601484" lon="-75.6809607293511">
        <ele>52.3778713</ele>
        <time>2019-09-10T15:33:00.600Z</time>
      </trkpt>
      <trkpt lat="10.1575898449931" lon="-75.6809586250336">
        <ele>52.3778713</ele>
        <time>2019-09-10T15:33:00.700Z</time>
      </trkpt>
      <trkpt lat="10.1575881185819" lon="-75.6809565151807">
        <ele>52.2778713</ele>
        <time>2019-09-10T15:33:00.800Z</time>
      </trkpt>
      <trkpt lat="10.1575863748701" lon="-75.6809543945704">
        <ele>52.2778713</ele>
        <time>2019-09-10T15:33:00.900Z</time>
      </trkpt>
      <trkpt lat="10.1575846280317" lon="-75.6809522527933">
        <ele>52.2778713</ele>
        <time>2019-09-10T15:33:01.000Z</time>
      </trkpt>
      <trkpt lat="10.1575828743148" lon="-75.6809500940967">
        <ele>52.2778713</ele>
        <time>2019-09-10T15:33:01.100Z</time>
      </trkpt>
      <trkpt lat="10.1575811322705" lon="-75.6809479191421">
        <ele>52.2778713</ele>
        <time>2019-09-10T15:33:01.200Z</time>
      </trkpt>
      <trkpt lat="10.1575793835562" lon="-75.6809457412979">
        <ele>52.2778713</ele>
        <time>2019-09-10T15:33:01.300Z</time>
      </trkpt>
      <trkpt lat="10.1575776551648" lon="-75.6809435621308">
        <ele>52.2778713</ele>
        <time>2019-09-10T15:33:01.400Z</time>
      </trkpt>
      <trkpt lat="10.1575759262523" lon="-75.6809413930946">
        <ele>52.2778713</ele>
        <time>2019-09-10T15:33:01.500Z</time>
      </trkpt>
      <trkpt lat="10.1575741834785" lon="-75.680939211769">
        <ele>52.3778713</ele>
        <time>2019-09-10T15:33:01.600Z</time>
      </trkpt>
      <trkpt lat="10.1575724375781" lon="-75.6809370447868">
        <ele>52.3778713</ele>
        <time>2019-09-10T15:33:01.700Z</time>
      </trkpt>
      <trkpt lat="10.1575707341996" lon="-75.6809349312436">
        <ele>52.3778713</ele>
        <time>2019-09-10T15:33:01.800Z</time>
      </trkpt>
      <trkpt lat="10.1575690369702" lon="-75.6809328238277">
        <ele>52.3778713</ele>
        <time>2019-09-10T15:33:01.900Z</time>
      </trkpt>
      <trkpt lat="10.1575673049311" lon="-75.6809307173866">
        <ele>52.3778713</ele>
        <time>2019-09-10T15:33:02.000Z</time>
      </trkpt>
      <trkpt lat="10.1575655631995" lon="-75.6809286095877">
        <ele>52.3778713</ele>
        <time>2019-09-10T15:33:02.100Z</time>
      </trkpt>
      <trkpt lat="10.1575621145459" lon="-75.6809243710477">
        <ele>52.3778713</ele>
        <time>2019-09-10T15:33:02.300Z</time>
      </trkpt>
      <trkpt lat="10.1575603438411" lon="-75.680922269759">
        <ele>52.3778713</ele>
        <time>2019-09-10T15:33:02.400Z</time>
      </trkpt>
      <trkpt lat="10.1575585736573" lon="-75.6809201730657">
        <ele>52.3778713</ele>
        <time>2019-09-10T15:33:02.500Z</time>
      </trkpt>
      <trkpt lat="10.1575568058706" lon="-75.6809180837877">
        <ele>52.3778713</ele>
        <time>2019-09-10T15:33:02.600Z</time>
      </trkpt>
      <trkpt lat="10.157555050903" lon="-75.6809159926647">
        <ele>52.3778713</ele>
        <time>2019-09-10T15:33:02.700Z</time>
      </trkpt>
      <trkpt lat="10.1575533401249" lon="-75.6809139071118">
        <ele>52.3778713</ele>
        <time>2019-09-10T15:33:02.800Z</time>
      </trkpt>
      <trkpt lat="10.1575516338283" lon="-75.6809118221507">
        <ele>52.3778713</ele>
        <time>2019-09-10T15:33:02.900Z</time>
      </trkpt>
      <trkpt lat="10.1575498985583" lon="-75.68090970255">
        <ele>52.3778713</ele>
        <time>2019-09-10T15:33:03.000Z</time>
      </trkpt>
      <trkpt lat="10.1575481662066" lon="-75.6809075852121">
        <ele>52.3778713</ele>
        <time>2019-09-10T15:33:03.100Z</time>
      </trkpt>
      <trkpt lat="10.1575464928436" lon="-75.680905495586">
        <ele>52.3778713</ele>
        <time>2019-09-10T15:33:03.200Z</time>
      </trkpt>
      <trkpt lat="10.1575448251085" lon="-75.6809034059948">
        <ele>52.3778713</ele>
        <time>2019-09-10T15:33:03.300Z</time>
      </trkpt>
      <trkpt lat="10.1575431454923" lon="-75.6809013393109">
        <ele>52.3778713</ele>
        <time>2019-09-10T15:33:03.400Z</time>
      </trkpt>
      <trkpt lat="10.1575414591017" lon="-75.6808992557076">
        <ele>52.3778713</ele>
        <time>2019-09-10T15:33:03.500Z</time>
      </trkpt>
      <trkpt lat="10.1575397772969" lon="-75.6808971573781">
        <ele>52.3778713</ele>
        <time>2019-09-10T15:33:03.600Z</time>
      </trkpt>
      <trkpt lat="10.1575380892388" lon="-75.6808950375685">
        <ele>52.3778713</ele>
        <time>2019-09-10T15:33:03.700Z</time>
      </trkpt>
      <trkpt lat="10.1575364047242" lon="-75.6808929129197">
        <ele>52.3778713</ele>
        <time>2019-09-10T15:33:03.800Z</time>
      </trkpt>
      <trkpt lat="10.1575347124973" lon="-75.6808907796372">
        <ele>52.3778713</ele>
        <time>2019-09-10T15:33:03.900Z</time>
      </trkpt>
      <trkpt lat="10.1575330398639" lon="-75.6808887014996">
        <ele>52.3778713</ele>
        <time>2019-09-10T15:33:04.000Z</time>
      </trkpt>
      <trkpt lat="10.1575295633835" lon="-75.6808844698875">
        <ele>52.3778713</ele>
        <time>2019-09-10T15:33:04.200Z</time>
      </trkpt>
      <trkpt lat="10.1575277573479" lon="-75.6808823149857">
        <ele>52.3778713</ele>
        <time>2019-09-10T15:33:04.300Z</time>
      </trkpt>
      <trkpt lat="10.1575259951891" lon="-75.6808802546031">
        <ele>52.3778713</ele>
        <time>2019-09-10T15:33:04.400Z</time>
      </trkpt>
      <trkpt lat="10.1575242344894" lon="-75.6808782036203">
        <ele>52.3778713</ele>
        <time>2019-09-10T15:33:04.500Z</time>
      </trkpt>
      <trkpt lat="10.1575224795218" lon="-75.6808761657971">
        <ele>52.3778713</ele>
        <time>2019-09-10T15:33:04.600Z</time>
      </trkpt>
      <trkpt lat="10.1575207174672" lon="-75.6808741184001">
        <ele>52.3778713</ele>
        <time>2019-09-10T15:33:04.700Z</time>
      </trkpt>
      <trkpt lat="10.1575189708373" lon="-75.6808720636225">
        <ele>52.3778713</ele>
        <time>2019-09-10T15:33:04.800Z</time>
      </trkpt>
      <trkpt lat="10.1575172108671" lon="-75.680870002857">
        <ele>52.3778713</ele>
        <time>2019-09-10T15:33:04.900Z</time>
      </trkpt>
      <trkpt lat="10.1575154379736" lon="-75.6808679553556">
        <ele>52.3778713</ele>
        <time>2019-09-10T15:33:05.000Z</time>
      </trkpt>
      <trkpt lat="10.1575136521568" lon="-75.6808659048254">
        <ele>52.3778713</ele>
        <time>2019-09-10T15:33:05.100Z</time>
      </trkpt>
      <trkpt lat="10.1575118963555" lon="-75.6808638611186">
        <ele>52.3778713</ele>
        <time>2019-09-10T15:33:05.200Z</time>
      </trkpt>
      <trkpt lat="10.157510153269" lon="-75.6808618187696">
        <ele>52.3778713</ele>
        <time>2019-09-10T15:33:05.300Z</time>
      </trkpt>
      <trkpt lat="10.1575084520792" lon="-75.6808597945237">
        <ele>52.3778713</ele>
        <time>2019-09-10T15:33:05.400Z</time>
      </trkpt>
      <trkpt lat="10.1575067523484" lon="-75.6808577651603">
        <ele>52.3778713</ele>
        <time>2019-09-10T15:33:05.500Z</time>
      </trkpt>
      <trkpt lat="10.1575050422998" lon="-75.6808557365627">
        <ele>52.3778713</ele>
        <time>2019-09-10T15:33:05.600Z</time>
      </trkpt>
      <trkpt lat="10.1575033196406" lon="-75.6808537034393">
        <ele>52.3778713</ele>
        <time>2019-09-10T15:33:05.700Z</time>
      </trkpt>
      <trkpt lat="10.1575016106342" lon="-75.6808516580267">
        <ele>52.3778713</ele>
        <time>2019-09-10T15:33:05.800Z</time>
      </trkpt>
      <trkpt lat="10.1574981348833" lon="-75.680847528593">
        <ele>52.3778713</ele>
        <time>2019-09-10T15:33:06.000Z</time>
      </trkpt>
      <trkpt lat="10.1574963652207" lon="-75.680845451465">
        <ele>52.3778713</ele>
        <time>2019-09-10T15:33:06.100Z</time>
      </trkpt>
      <trkpt lat="10.1574945909723" lon="-75.6808433683143">
        <ele>52.3778713</ele>
        <time>2019-09-10T15:33:06.200Z</time>
      </trkpt>
      <trkpt lat="10.1574928024457" lon="-75.6808412799415">
        <ele>52.3778713</ele>
        <time>2019-09-10T15:33:06.300Z</time>
      </trkpt>
      <trkpt lat="10.1574910218399" lon="-75.6808391754499">
        <ele>52.3778713</ele>
        <time>2019-09-10T15:33:06.400Z</time>
      </trkpt>
      <trkpt lat="10.1574892324796" lon="-75.6808370727339">
        <ele>52.3778713</ele>
        <time>2019-09-10T15:33:06.500Z</time>
      </trkpt>
      <trkpt lat="10.1574874416602" lon="-75.6808349689038">
        <ele>52.2778713</ele>
        <time>2019-09-10T15:33:06.600Z</time>
      </trkpt>
      <trkpt lat="10.1574856404188" lon="-75.6808328707135">
        <ele>52.2778713</ele>
        <time>2019-09-10T15:33:06.700Z</time>
      </trkpt>
      <trkpt lat="10.1574838121842" lon="-75.680830764899">
        <ele>52.3778713</ele>
        <time>2019-09-10T15:33:06.800Z</time>
      </trkpt>
      <trkpt lat="10.1574819849919" lon="-75.6808286557075">
        <ele>52.3778713</ele>
        <time>2019-09-10T15:33:06.900Z</time>
      </trkpt>
      <trkpt lat="10.15748017312" lon="-75.6808265616949">
        <ele>52.3778713</ele>
        <time>2019-09-10T15:33:07.000Z</time>
      </trkpt>
      <trkpt lat="10.1574783677097" lon="-75.6808244538612">
        <ele>52.3778713</ele>
        <time>2019-09-10T15:33:07.100Z</time>
      </trkpt>
      <trkpt lat="10.1574765914812" lon="-75.6808223036244">
        <ele>52.3778713</ele>
        <time>2019-09-10T15:33:07.200Z</time>
      </trkpt>
      <trkpt lat="10.1574748258831" lon="-75.6808201645976">
        <ele>52.3778713</ele>
        <time>2019-09-10T15:33:07.300Z</time>
      </trkpt>
      <trkpt lat="10.1574730954073" lon="-75.6808180628563">
        <ele>52.3778713</ele>
        <time>2019-09-10T15:33:07.400Z</time>
      </trkpt>
      <trkpt lat="10.1574713761873" lon="-75.6808159794271">
        <ele>52.3778713</ele>
        <time>2019-09-10T15:33:07.500Z</time>
      </trkpt>
      <trkpt lat="10.1574696965711" lon="-75.6808139263206">
        <ele>52.3778713</ele>
        <time>2019-09-10T15:33:07.600Z</time>
      </trkpt>
      <trkpt lat="10.1574680256052" lon="-75.6808118841456">
        <ele>52.3778713</ele>
        <time>2019-09-10T15:33:07.700Z</time>
      </trkpt>
      <trkpt lat="10.1574663984118" lon="-75.6808098942958">
        <ele>52.3778713</ele>
        <time>2019-09-10T15:33:07.800Z</time>
      </trkpt>
      <trkpt lat="10.1574647656948" lon="-75.6808078858554">
        <ele>52.3778713</ele>
        <time>2019-09-10T15:33:07.900Z</time>
      </trkpt>
      <trkpt lat="10.1574631281836" lon="-75.6808058619924">
        <ele>52.3778713</ele>
        <time>2019-09-10T15:33:08.000Z</time>
      </trkpt>
      <trkpt lat="10.1574614696199" lon="-75.6808038181812">
        <ele>52.3778713</ele>
        <time>2019-09-10T15:33:08.100Z</time>
      </trkpt>
      <trkpt lat="10.1574597921923" lon="-75.6808017369453">
        <ele>52.3778713</ele>
        <time>2019-09-10T15:33:08.200Z</time>
      </trkpt>
      <trkpt lat="10.1574580948586" lon="-75.6807996499302">
        <ele>52.3778713</ele>
        <time>2019-09-10T15:33:08.300Z</time>
      </trkpt>
      <trkpt lat="10.1574564300417" lon="-75.6807976340048">
        <ele>52.3778713</ele>
        <time>2019-09-10T15:33:08.400Z</time>
      </trkpt>
      <trkpt lat="10.1574547535521" lon="-75.6807955983749">
        <ele>52.3778713</ele>
        <time>2019-09-10T15:33:08.500Z</time>
      </trkpt>
      <trkpt lat="10.1574530707051" lon="-75.6807935523704">
        <ele>52.3778713</ele>
        <time>2019-09-10T15:33:08.600Z</time>
      </trkpt>
      <trkpt lat="10.1574513607607" lon="-75.6807914673746">
        <ele>52.3778713</ele>
        <time>2019-09-10T15:33:08.700Z</time>
      </trkpt>
      <trkpt lat="10.1574496495657" lon="-75.6807893431784">
        <ele>52.3778713</ele>
        <time>2019-09-10T15:33:08.800Z</time>
      </trkpt>
      <trkpt lat="10.15744792576" lon="-75.6807871790161">
        <ele>52.3778713</ele>
        <time>2019-09-10T15:33:08.900Z</time>
      </trkpt>
      <trkpt lat="10.1574462000784" lon="-75.6807850205632">
        <ele>52.3778713</ele>
        <time>2019-09-10T15:33:09.000Z</time>
      </trkpt>
      <trkpt lat="10.1574444809626" lon="-75.6807828687597">
        <ele>52.3778713</ele>
        <time>2019-09-10T15:33:09.100Z</time>
      </trkpt>
      <trkpt lat="10.1574427767504" lon="-75.680780738123">
        <ele>52.3778713</ele>
        <time>2019-09-10T15:33:09.200Z</time>
      </trkpt>
      <trkpt lat="10.1574410883796" lon="-75.6807786310552">
        <ele>52.3778713</ele>
        <time>2019-09-10T15:33:09.300Z</time>
      </trkpt>
      <trkpt lat="10.1574394552457" lon="-75.6807765336308">
        <ele>52.3778713</ele>
        <time>2019-09-10T15:33:09.400Z</time>
      </trkpt>
      <trkpt lat="10.1574378133573" lon="-75.6807744253794">
        <ele>52.3778713</ele>
        <time>2019-09-10T15:33:09.500Z</time>
      </trkpt>
      <trkpt lat="10.1574361920003" lon="-75.6807723692441">
        <ele>52.3778713</ele>
        <time>2019-09-10T15:33:09.600Z</time>
      </trkpt>
      <trkpt lat="10.1574345521963" lon="-75.680770316068">
        <ele>52.3778713</ele>
        <time>2019-09-10T15:33:09.700Z</time>
      </trkpt>
      <trkpt lat="10.1574329238565" lon="-75.6807682637623">
        <ele>52.3778713</ele>
        <time>2019-09-10T15:33:09.800Z</time>
      </trkpt>
      <trkpt lat="10.1574312732135" lon="-75.6807662050508">
        <ele>52.3778713</ele>
        <time>2019-09-10T15:33:09.900Z</time>
      </trkpt>
      <trkpt lat="10.1574278878218" lon="-75.6807620764178">
        <ele>52.3778713</ele>
        <time>2019-09-10T15:33:10.100Z</time>
      </trkpt>
      <trkpt lat="10.1574261849644" lon="-75.6807600570459">
        <ele>52.3778713</ele>
        <time>2019-09-10T15:33:10.200Z</time>
      </trkpt>
      <trkpt lat="10.1574244657444" lon="-75.6807580393798">
        <ele>52.3778713</ele>
        <time>2019-09-10T15:33:10.300Z</time>
      </trkpt>
      <trkpt lat="10.1574226708604" lon="-75.6807559349927">
        <ele>52.3778713</ele>
        <time>2019-09-10T15:33:10.400Z</time>
      </trkpt>
      <trkpt lat="10.1574208635742" lon="-75.6807538167149">
        <ele>52.3778713</ele>
        <time>2019-09-10T15:33:10.500Z</time>
      </trkpt>
      <trkpt lat="10.1574190585808" lon="-75.6807517110745">
        <ele>52.3778713</ele>
        <time>2019-09-10T15:33:10.600Z</time>
      </trkpt>
      <trkpt lat="10.1574172632799" lon="-75.6807496176537">
        <ele>52.3778713</ele>
        <time>2019-09-10T15:33:10.700Z</time>
      </trkpt>
      <trkpt lat="10.1574154761082" lon="-75.6807475255906">
        <ele>52.3778713</ele>
        <time>2019-09-10T15:33:10.800Z</time>
      </trkpt>
      <trkpt lat="10.1574136827875" lon="-75.6807454234316">
        <ele>52.3778713</ele>
        <time>2019-09-10T15:33:10.900Z</time>
      </trkpt>
      <trkpt lat="10.1574118742507" lon="-75.6807433002102">
        <ele>52.3778713</ele>
        <time>2019-09-10T15:33:11.000Z</time>
      </trkpt>
      <trkpt lat="10.1574100823891" lon="-75.6807411928291">
        <ele>52.3778713</ele>
        <time>2019-09-10T15:33:11.100Z</time>
      </trkpt>
      <trkpt lat="10.1574083990209" lon="-75.6807391286518">
        <ele>52.3778713</ele>
        <time>2019-09-10T15:33:11.200Z</time>
      </trkpt>
      <trkpt lat="10.1574068542659" lon="-75.680737079549">
        <ele>52.3778713</ele>
        <time>2019-09-10T15:33:11.300Z</time>
      </trkpt>
      <trkpt lat="10.1574055186813" lon="-75.6807350943641">
        <ele>52.3778713</ele>
        <time>2019-09-10T15:33:11.400Z</time>
      </trkpt>
      <trkpt lat="10.1574044031059" lon="-75.6807331233833">
        <ele>52.3778713</ele>
        <time>2019-09-10T15:33:11.500Z</time>
      </trkpt>
      <trkpt lat="10.1574035834124" lon="-75.6807311455094">
        <ele>52.3778713</ele>
        <time>2019-09-10T15:33:11.600Z</time>
      </trkpt>
      <trkpt lat="10.1574030309399" lon="-75.6807291447628">
        <ele>52.3778713</ele>
        <time>2019-09-10T15:33:11.700Z</time>
      </trkpt>
      <trkpt lat="10.1574028310452" lon="-75.6807271680029">
        <ele>52.3778713</ele>
        <time>2019-09-10T15:33:11.800Z</time>
      </trkpt>
      <trkpt lat="10.157402917027" lon="-75.6807252056211">
        <ele>52.3778713</ele>
        <time>2019-09-10T15:33:11.900Z</time>
      </trkpt>
      <trkpt lat="10.1574033646537" lon="-75.680723386846">
        <ele>52.3778713</ele>
        <time>2019-09-10T15:33:12.000Z</time>
      </trkpt>
      <trkpt lat="10.1574040840872" lon="-75.6807215885066">
        <ele>52.3778713</ele>
        <time>2019-09-10T15:33:12.100Z</time>
      </trkpt>
      <trkpt lat="10.1574051796523" lon="-75.6807199725913">
        <ele>52.3778713</ele>
        <time>2019-09-10T15:33:12.200Z</time>
      </trkpt>
      <trkpt lat="10.1574065712032" lon="-75.6807183484251">
        <ele>52.3778713</ele>
        <time>2019-09-10T15:33:12.300Z</time>
      </trkpt>
      <trkpt lat="10.1574082742691" lon="-75.6807168906339">
        <ele>52.3778713</ele>
        <time>2019-09-10T15:33:12.400Z</time>
      </trkpt>
      <trkpt lat="10.1574101859841" lon="-75.6807154231993">
        <ele>52.3778713</ele>
        <time>2019-09-10T15:33:12.500Z</time>
      </trkpt>
      <trkpt lat="10.157412250799" lon="-75.6807141397205">
        <ele>52.3778713</ele>
        <time>2019-09-10T15:33:12.600Z</time>
      </trkpt>
      <trkpt lat="10.1574144414079" lon="-75.6807128239694">
        <ele>52.3778713</ele>
        <time>2019-09-10T15:33:12.700Z</time>
      </trkpt>
      <trkpt lat="10.157416666618" lon="-75.6807116691971">
        <ele>52.3778713</ele>
        <time>2019-09-10T15:33:12.800Z</time>
      </trkpt>
      <trkpt lat="10.1574189661373" lon="-75.6807104246053">
        <ele>52.2778713</ele>
        <time>2019-09-10T15:33:12.900Z</time>
      </trkpt>
      <trkpt lat="10.1574212362664" lon="-75.6807092386051">
        <ele>52.2778713</ele>
        <time>2019-09-10T15:33:13.000Z</time>
      </trkpt>
      <trkpt lat="10.1574235536073" lon="-75.6807079384506">
        <ele>52.2778713</ele>
        <time>2019-09-10T15:33:13.100Z</time>
      </trkpt>
      <trkpt lat="10.1574258201929" lon="-75.6807066712646">
        <ele>52.2778713</ele>
        <time>2019-09-10T15:33:13.200Z</time>
      </trkpt>
      <trkpt lat="10.1574281439956" lon="-75.6807053172184">
        <ele>52.2778713</ele>
        <time>2019-09-10T15:33:13.300Z</time>
      </trkpt>
      <trkpt lat="10.1574303904666" lon="-75.6807039777591">
        <ele>52.2778713</ele>
        <time>2019-09-10T15:33:13.400Z</time>
      </trkpt>
      <trkpt lat="10.1574326906112" lon="-75.6807025692642">
        <ele>52.2778713</ele>
        <time>2019-09-10T15:33:13.500Z</time>
      </trkpt>
      <trkpt lat="10.1574348925801" lon="-75.6807011649817">
        <ele>52.2778713</ele>
        <time>2019-09-10T15:33:13.600Z</time>
      </trkpt>
      <trkpt lat="10.1574371127877" lon="-75.6806996872074">
        <ele>52.2778713</ele>
        <time>2019-09-10T15:33:13.700Z</time>
      </trkpt>
      <trkpt lat="10.157439293183" lon="-75.6806981555065">
        <ele>52.2778713</ele>
        <time>2019-09-10T15:33:13.800Z</time>
      </trkpt>
      <trkpt lat="10.1574415140158" lon="-75.6806965676163">
        <ele>52.2778713</ele>
        <time>2019-09-10T15:33:13.900Z</time>
      </trkpt>
      <trkpt lat="10.1574437623628" lon="-75.6806948760507">
        <ele>52.2778713</ele>
        <time>2019-09-10T15:33:14.000Z</time>
      </trkpt>
      <trkpt lat="10.1574460325962" lon="-75.68069314337">
        <ele>52.2778713</ele>
        <time>2019-09-10T15:33:14.100Z</time>
      </trkpt>
      <trkpt lat="10.1574506055796" lon="-75.6806894808236">
        <ele>52.2778713</ele>
        <time>2019-09-10T15:33:14.300Z</time>
      </trkpt>
      <trkpt lat="10.1574529166673" lon="-75.6806875514452">
        <ele>52.2778713</ele>
        <time>2019-09-10T15:33:14.400Z</time>
      </trkpt>
      <trkpt lat="10.1574552120177" lon="-75.6806856237379">
        <ele>52.2778713</ele>
        <time>2019-09-10T15:33:14.500Z</time>
      </trkpt>
      <trkpt lat="10.1574575375921" lon="-75.6806836415819">
        <ele>52.2778713</ele>
        <time>2019-09-10T15:33:14.600Z</time>
      </trkpt>
      <trkpt lat="10.1574598443025" lon="-75.680681668756">
        <ele>52.2778713</ele>
        <time>2019-09-10T15:33:14.700Z</time>
      </trkpt>
      <trkpt lat="10.1574621444471" lon="-75.680679663971">
        <ele>52.2778713</ele>
        <time>2019-09-10T15:33:14.800Z</time>
      </trkpt>
      <trkpt lat="10.1574644199957" lon="-75.6806776614837">
        <ele>52.2778713</ele>
        <time>2019-09-10T15:33:14.900Z</time>
      </trkpt>
      <trkpt lat="10.1574667334805" lon="-75.6806755970976">
        <ele>52.2778713</ele>
        <time>2019-09-10T15:33:15.000Z</time>
      </trkpt>
      <trkpt lat="10.1574690265381" lon="-75.6806735497702">
        <ele>52.2778713</ele>
        <time>2019-09-10T15:33:15.100Z</time>
      </trkpt>
      <trkpt lat="10.1574713253278" lon="-75.68067147494">
        <ele>52.2778713</ele>
        <time>2019-09-10T15:33:15.200Z</time>
      </trkpt>
      <trkpt lat="10.1574735837842" lon="-75.6806694090221">
        <ele>52.2778713</ele>
        <time>2019-09-10T15:33:15.300Z</time>
      </trkpt>
      <trkpt lat="10.1574758446377" lon="-75.6806672786987">
        <ele>52.2778713</ele>
        <time>2019-09-10T15:33:15.400Z</time>
      </trkpt>
      <trkpt lat="10.1574780788107" lon="-75.6806651717701">
        <ele>52.2778713</ele>
        <time>2019-09-10T15:33:15.500Z</time>
      </trkpt>
      <trkpt lat="10.1574803108994" lon="-75.6806630547456">
        <ele>52.2778713</ele>
        <time>2019-09-10T15:33:15.600Z</time>
      </trkpt>
      <trkpt lat="10.1574825179751" lon="-75.6806609637618">
        <ele>52.2778713</ele>
        <time>2019-09-10T15:33:15.700Z</time>
      </trkpt>
      <trkpt lat="10.1574846950354" lon="-75.6806588836399">
        <ele>52.2778713</ele>
        <time>2019-09-10T15:33:15.800Z</time>
      </trkpt>
      <trkpt lat="10.1574868542739" lon="-75.680656827052">
        <ele>52.2778713</ele>
        <time>2019-09-10T15:33:15.900Z</time>
      </trkpt>
      <trkpt lat="10.1574890367537" lon="-75.6806547058498">
        <ele>52.2778713</ele>
        <time>2019-09-10T15:33:16.000Z</time>
      </trkpt>
      <trkpt lat="10.1574912074565" lon="-75.6806525880594">
        <ele>52.2778713</ele>
        <time>2019-09-10T15:33:16.100Z</time>
      </trkpt>
      <trkpt lat="10.1574933294884" lon="-75.6806504788332">
        <ele>52.2778713</ele>
        <time>2019-09-10T15:33:16.200Z</time>
      </trkpt>
      <trkpt lat="10.1574953743972" lon="-75.6806485081657">
        <ele>52.2778713</ele>
        <time>2019-09-10T15:33:16.300Z</time>
      </trkpt>
      <trkpt lat="10.1574973505205" lon="-75.6806466789117">
        <ele>52.2778713</ele>
        <time>2019-09-10T15:33:16.400Z</time>
      </trkpt>
      <trkpt lat="10.1574992839134" lon="-75.680645095025">
        <ele>52.2778713</ele>
        <time>2019-09-10T15:33:16.500Z</time>
      </trkpt>
      <trkpt lat="10.1575011526897" lon="-75.6806438279435">
        <ele>52.2778713</ele>
        <time>2019-09-10T15:33:16.600Z</time>
      </trkpt>
      <trkpt lat="10.1575029885323" lon="-75.6806428631151">
        <ele>52.2778713</ele>
        <time>2019-09-10T15:33:16.700Z</time>
      </trkpt>
      <trkpt lat="10.1575047196334" lon="-75.6806422712812">
        <ele>52.2778713</ele>
        <time>2019-09-10T15:33:16.800Z</time>
      </trkpt>
      <trkpt lat="10.1575064120687" lon="-75.6806419938156">
        <ele>52.2778713</ele>
        <time>2019-09-10T15:33:16.900Z</time>
      </trkpt>
      <trkpt lat="10.1575079484861" lon="-75.6806420993709">
        <ele>52.2778713</ele>
        <time>2019-09-10T15:33:17.000Z</time>
      </trkpt>
      <trkpt lat="10.1575094509276" lon="-75.6806425151864">
        <ele>52.2778713</ele>
        <time>2019-09-10T15:33:17.100Z</time>
      </trkpt>
      <trkpt lat="10.1575107725467" lon="-75.6806432686954">
        <ele>52.2778713</ele>
        <time>2019-09-10T15:33:17.200Z</time>
      </trkpt>
      <trkpt lat="10.157512084786" lon="-75.6806443012714">
        <ele>52.2778713</ele>
        <time>2019-09-10T15:33:17.300Z</time>
      </trkpt>
      <trkpt lat="10.157513161904" lon="-75.6806456393033">
        <ele>52.2778713</ele>
        <time>2019-09-10T15:33:17.400Z</time>
      </trkpt>
      <trkpt lat="10.1575142465258" lon="-75.680647258143">
        <ele>52.2778713</ele>
        <time>2019-09-10T15:33:17.500Z</time>
      </trkpt>
      <trkpt lat="10.1575150815398" lon="-75.6806490670657">
        <ele>52.2778713</ele>
        <time>2019-09-10T15:33:17.600Z</time>
      </trkpt>
      <trkpt lat="10.1575159881532" lon="-75.6806510522157">
        <ele>52.2778713</ele>
        <time>2019-09-10T15:33:17.700Z</time>
      </trkpt>
      <trkpt lat="10.1575167185299" lon="-75.6806530591592">
        <ele>52.2778713</ele>
        <time>2019-09-10T15:33:17.800Z</time>
      </trkpt>
      <trkpt lat="10.1575175905421" lon="-75.6806552073072">
        <ele>52.2778713</ele>
        <time>2019-09-10T15:33:17.900Z</time>
      </trkpt>
      <trkpt lat="10.1575193022582" lon="-75.6806594449769">
        <ele>52.2778713</ele>
        <time>2019-09-10T15:33:18.100Z</time>
      </trkpt>
      <trkpt lat="10.1575213357027" lon="-75.6806637657122">
        <ele>52.2778713</ele>
        <time>2019-09-10T15:33:18.300Z</time>
      </trkpt>
      <trkpt lat="10.1575224700377" lon="-75.6806659411541">
        <ele>52.2778713</ele>
        <time>2019-09-10T15:33:18.400Z</time>
      </trkpt>
      <trkpt lat="10.1575237300626" lon="-75.6806682266076">
        <ele>52.2778713</ele>
        <time>2019-09-10T15:33:18.500Z</time>
      </trkpt>
      <trkpt lat="10.1575250335473" lon="-75.6806705199986">
        <ele>52.2778713</ele>
        <time>2019-09-10T15:33:18.600Z</time>
      </trkpt>
      <trkpt lat="10.1575264366668" lon="-75.6806728994493">
        <ele>52.2778713</ele>
        <time>2019-09-10T15:33:18.700Z</time>
      </trkpt>
      <trkpt lat="10.157527892626" lon="-75.6806752426239">
        <ele>52.2778713</ele>
        <time>2019-09-10T15:33:18.800Z</time>
      </trkpt>
      <trkpt lat="10.1575294146609" lon="-75.6806776260433">
        <ele>52.2778713</ele>
        <time>2019-09-10T15:33:18.900Z</time>
      </trkpt>
      <trkpt lat="10.1575310014168" lon="-75.6806800169825">
        <ele>52.2778713</ele>
        <time>2019-09-10T15:33:19.000Z</time>
      </trkpt>
      <trkpt lat="10.1575326421588" lon="-75.6806824455901">
        <ele>52.2778713</ele>
        <time>2019-09-10T15:33:19.100Z</time>
      </trkpt>
      <trkpt lat="10.1575343738852" lon="-75.6806848674439">
        <ele>52.2778713</ele>
        <time>2019-09-10T15:33:19.200Z</time>
      </trkpt>
      <trkpt lat="10.157536136044" lon="-75.6806873053816">
        <ele>52.2778713</ele>
        <time>2019-09-10T15:33:19.300Z</time>
      </trkpt>
      <trkpt lat="10.1575379435387" lon="-75.6806897642076">
        <ele>52.2778713</ele>
        <time>2019-09-10T15:33:19.400Z</time>
      </trkpt>
      <trkpt lat="10.1575397510333" lon="-75.6806922303445">
        <ele>52.2778713</ele>
        <time>2019-09-10T15:33:19.500Z</time>
      </trkpt>
      <trkpt lat="10.1575416080327" lon="-75.6806947236361">
        <ele>52.2778713</ele>
        <time>2019-09-10T15:33:19.600Z</time>
      </trkpt>
      <trkpt lat="10.1575434648236" lon="-75.6806972104175">
        <ele>52.2778713</ele>
        <time>2019-09-10T15:33:19.700Z</time>
      </trkpt>
      <trkpt lat="10.1575453763303" lon="-75.6806997188531">
        <ele>52.2778713</ele>
        <time>2019-09-10T15:33:19.800Z</time>
      </trkpt>
      <trkpt lat="10.1575472843976" lon="-75.6807022164268">
        <ele>52.2778713</ele>
        <time>2019-09-10T15:33:19.900Z</time>
      </trkpt>
      <trkpt lat="10.1575492486398" lon="-75.6807047286222">
        <ele>52.2778713</ele>
        <time>2019-09-10T15:33:20.000Z</time>
      </trkpt>
      <trkpt lat="10.1575511902662" lon="-75.6807072298514">
        <ele>52.2778713</ele>
        <time>2019-09-10T15:33:20.100Z</time>
      </trkpt>
      <trkpt lat="10.1575531967176" lon="-75.6807097857729">
        <ele>52.2778713</ele>
        <time>2019-09-10T15:33:20.200Z</time>
      </trkpt>
      <trkpt lat="10.1575551777393" lon="-75.6807123072288">
        <ele>52.2778713</ele>
        <time>2019-09-10T15:33:20.300Z</time>
      </trkpt>
      <trkpt lat="10.1575572215016" lon="-75.6807147859683">
        <ele>52.2778713</ele>
        <time>2019-09-10T15:33:20.400Z</time>
      </trkpt>
      <trkpt lat="10.1575592400426" lon="-75.68071722784">
        <ele>52.2778713</ele>
        <time>2019-09-10T15:33:20.500Z</time>
      </trkpt>
      <trkpt lat="10.1575612697352" lon="-75.6807196662999">
        <ele>52.2778713</ele>
        <time>2019-09-10T15:33:20.600Z</time>
      </trkpt>
      <trkpt lat="10.1575632525286" lon="-75.6807220729052">
        <ele>52.2778713</ele>
        <time>2019-09-10T15:33:20.700Z</time>
      </trkpt>
      <trkpt lat="10.1575652728414" lon="-75.6807244389177">
        <ele>52.2778713</ele>
        <time>2019-09-10T15:33:20.800Z</time>
      </trkpt>
      <trkpt lat="10.1575672506322" lon="-75.6807267813613">
        <ele>52.2778713</ele>
        <time>2019-09-10T15:33:20.900Z</time>
      </trkpt>
      <trkpt lat="10.1575692338425" lon="-75.6807290788256">
        <ele>52.2778713</ele>
        <time>2019-09-10T15:33:21.000Z</time>
      </trkpt>
      <trkpt lat="10.1575711714043" lon="-75.6807313503535">
        <ele>52.2778713</ele>
        <time>2019-09-10T15:33:21.100Z</time>
      </trkpt>
      <trkpt lat="10.1575730987524" lon="-75.6807335712971">
        <ele>52.2778713</ele>
        <time>2019-09-10T15:33:21.200Z</time>
      </trkpt>
      <trkpt lat="10.1575749902488" lon="-75.6807357814832">
        <ele>52.2778713</ele>
        <time>2019-09-10T15:33:21.300Z</time>
      </trkpt>
      <trkpt lat="10.1575769378157" lon="-75.680737952852">
        <ele>52.2778713</ele>
        <time>2019-09-10T15:33:21.400Z</time>
      </trkpt>
      <trkpt lat="10.1575788657891" lon="-75.680740127737">
        <ele>52.2778713</ele>
        <time>2019-09-10T15:33:21.500Z</time>
      </trkpt>
      <trkpt lat="10.1575808311777" lon="-75.6807422755369">
        <ele>52.2778713</ele>
        <time>2019-09-10T15:33:21.600Z</time>
      </trkpt>
      <trkpt lat="10.1575827549824" lon="-75.6807444237894">
        <ele>52.2778713</ele>
        <time>2019-09-10T15:33:21.700Z</time>
      </trkpt>
      <trkpt lat="10.1575847167233" lon="-75.6807465641739">
        <ele>52.2778713</ele>
        <time>2019-09-10T15:33:21.800Z</time>
      </trkpt>
      <trkpt lat="10.157586650012" lon="-75.6807487004853">
        <ele>52.2778713</ele>
        <time>2019-09-10T15:33:21.900Z</time>
      </trkpt>
      <trkpt lat="10.1575886414557" lon="-75.6807507721823">
        <ele>52.2778713</ele>
        <time>2019-09-10T15:33:22.000Z</time>
      </trkpt>
      <trkpt lat="10.1575925555576" lon="-75.6807548823988">
        <ele>52.2778713</ele>
        <time>2019-09-10T15:33:22.200Z</time>
      </trkpt>
      <trkpt lat="10.1575944588309" lon="-75.6807569423287">
        <ele>52.1778713</ele>
        <time>2019-09-10T15:33:22.300Z</time>
      </trkpt>
      <trkpt lat="10.1575963388629" lon="-75.6807590002047">
        <ele>52.1778713</ele>
        <time>2019-09-10T15:33:22.400Z</time>
      </trkpt>
      <trkpt lat="10.1575981742887" lon="-75.6807610773326">
        <ele>52.2778713</ele>
        <time>2019-09-10T15:33:22.500Z</time>
      </trkpt>
      <trkpt lat="10.1576000176352" lon="-75.6807631372974">
        <ele>52.2778713</ele>
        <time>2019-09-10T15:33:22.600Z</time>
      </trkpt>
      <trkpt lat="10.1576018258594" lon="-75.6807652119188">
        <ele>52.2778713</ele>
        <time>2019-09-10T15:33:22.700Z</time>
      </trkpt>
      <trkpt lat="10.1576036340836" lon="-75.6807672923889">
        <ele>52.2778713</ele>
        <time>2019-09-10T15:33:22.800Z</time>
      </trkpt>
      <trkpt lat="10.1576054122923" lon="-75.6807693807617">
        <ele>52.2778713</ele>
        <time>2019-09-10T15:33:22.900Z</time>
      </trkpt>
      <trkpt lat="10.1576072130127" lon="-75.6807714376628">
        <ele>52.2778713</ele>
        <time>2019-09-10T15:33:23.000Z</time>
      </trkpt>
      <trkpt lat="10.1576089793403" lon="-75.6807734925796">
        <ele>52.2778713</ele>
        <time>2019-09-10T15:33:23.100Z</time>
      </trkpt>
      <trkpt lat="10.1576107559857" lon="-75.6807755070428">
        <ele>52.2778713</ele>
        <time>2019-09-10T15:33:23.200Z</time>
      </trkpt>
      <trkpt lat="10.1576125021988" lon="-75.6807775281554">
        <ele>52.2778713</ele>
        <time>2019-09-10T15:33:23.300Z</time>
      </trkpt>
      <trkpt lat="10.1576142745712" lon="-75.6807795379188">
        <ele>52.2778713</ele>
        <time>2019-09-10T15:33:23.400Z</time>
      </trkpt>
      <trkpt lat="10.1576160167197" lon="-75.6807815740361">
        <ele>52.2778713</ele>
        <time>2019-09-10T15:33:23.500Z</time>
      </trkpt>
      <trkpt lat="10.1576177630369" lon="-75.6807835824069">
        <ele>52.2778713</ele>
        <time>2019-09-10T15:33:23.600Z</time>
      </trkpt>
      <trkpt lat="10.1576194795472" lon="-75.6807856106215">
        <ele>52.2778713</ele>
        <time>2019-09-10T15:33:23.700Z</time>
      </trkpt>
      <trkpt lat="10.157621213358" lon="-75.6807876730233">
        <ele>52.2778713</ele>
        <time>2019-09-10T15:33:23.800Z</time>
      </trkpt>
      <trkpt lat="10.1576229329949" lon="-75.6807897539459">
        <ele>52.2778713</ele>
        <time>2019-09-10T15:33:23.900Z</time>
      </trkpt>
      <trkpt lat="10.1576246487756" lon="-75.6807917980704">
        <ele>52.2778713</ele>
        <time>2019-09-10T15:33:24.000Z</time>
      </trkpt>
      <trkpt lat="10.1576263457966" lon="-75.6807938439356">
        <ele>52.1778713</ele>
        <time>2019-09-10T15:33:24.100Z</time>
      </trkpt>
      <trkpt lat="10.1576280721036" lon="-75.6807958736821">
        <ele>52.1778713</ele>
        <time>2019-09-10T15:33:24.200Z</time>
      </trkpt>
      <trkpt lat="10.1576297832986" lon="-75.6807979193384">
        <ele>52.1778713</ele>
        <time>2019-09-10T15:33:24.300Z</time>
      </trkpt>
      <trkpt lat="10.1576315123153" lon="-75.6808000164146">
        <ele>52.1778713</ele>
        <time>2019-09-10T15:33:24.400Z</time>
      </trkpt>
      <trkpt lat="10.1576332173613" lon="-75.6808021210106">
        <ele>52.1778713</ele>
        <time>2019-09-10T15:33:24.500Z</time>
      </trkpt>
      <trkpt lat="10.1576349487751" lon="-75.6808042129692">
        <ele>52.1778713</ele>
        <time>2019-09-10T15:33:24.600Z</time>
      </trkpt>
      <trkpt lat="10.1576366571561" lon="-75.6808062946578">
        <ele>52.1778713</ele>
        <time>2019-09-10T15:33:24.700Z</time>
      </trkpt>
      <trkpt lat="10.1576383412538" lon="-75.6808083563285">
        <ele>52.1778713</ele>
        <time>2019-09-10T15:33:24.800Z</time>
      </trkpt>
      <trkpt lat="10.157640002423" lon="-75.6808104209583">
        <ele>52.1778713</ele>
        <time>2019-09-10T15:33:24.900Z</time>
      </trkpt>
      <trkpt lat="10.1576416700539" lon="-75.6808124627851">
        <ele>52.1778713</ele>
        <time>2019-09-10T15:33:25.000Z</time>
      </trkpt>
      <trkpt lat="10.1576433317442" lon="-75.6808145090332">
        <ele>52.1778713</ele>
        <time>2019-09-10T15:33:25.100Z</time>
      </trkpt>
      <trkpt lat="10.157645021574" lon="-75.6808165163248">
        <ele>52.1778713</ele>
        <time>2019-09-10T15:33:25.200Z</time>
      </trkpt>
      <trkpt lat="10.157646703431" lon="-75.6808185514326">
        <ele>52.1778713</ele>
        <time>2019-09-10T15:33:25.300Z</time>
      </trkpt>
      <trkpt lat="10.1576484067053" lon="-75.6808205921105">
        <ele>52.2778713</ele>
        <time>2019-09-10T15:33:25.400Z</time>
      </trkpt>
      <trkpt lat="10.1576501003391" lon="-75.6808226469577">
        <ele>52.2778713</ele>
        <time>2019-09-10T15:33:25.500Z</time>
      </trkpt>
      <trkpt lat="10.1576517716177" lon="-75.6808247127711">
        <ele>52.2778713</ele>
        <time>2019-09-10T15:33:25.600Z</time>
      </trkpt>
      <trkpt lat="10.1576534272111" lon="-75.6808267857563">
        <ele>52.2778713</ele>
        <time>2019-09-10T15:33:25.700Z</time>
      </trkpt>
      <trkpt lat="10.1576550868691" lon="-75.680828833571">
        <ele>52.2778713</ele>
        <time>2019-09-10T15:33:25.800Z</time>
      </trkpt>
      <trkpt lat="10.1576567309983" lon="-75.6808308822213">
        <ele>52.2778713</ele>
        <time>2019-09-10T15:33:25.900Z</time>
      </trkpt>
      <trkpt lat="10.1576599762657" lon="-75.6808349572411">
        <ele>52.1778713</ele>
        <time>2019-09-10T15:33:26.100Z</time>
      </trkpt>
      <trkpt lat="10.1576632334664" lon="-75.6808390408251">
        <ele>52.1778713</ele>
        <time>2019-09-10T15:33:26.300Z</time>
      </trkpt>
      <trkpt lat="10.1576665037988" lon="-75.6808430730936">
        <ele>52.1778713</ele>
        <time>2019-09-10T15:33:26.500Z</time>
      </trkpt>
      <trkpt lat="10.1576681486054" lon="-75.6808451022134">
        <ele>52.1778713</ele>
        <time>2019-09-10T15:33:26.600Z</time>
      </trkpt>
      <trkpt lat="10.1576697964865" lon="-75.6808471559465">
        <ele>52.1778713</ele>
        <time>2019-09-10T15:33:26.700Z</time>
      </trkpt>
      <trkpt lat="10.157671461564" lon="-75.6808492155632">
        <ele>52.1778713</ele>
        <time>2019-09-10T15:33:26.800Z</time>
      </trkpt>
      <trkpt lat="10.1576731313835" lon="-75.6808512890705">
        <ele>52.1778713</ele>
        <time>2019-09-10T15:33:26.900Z</time>
      </trkpt>
      <trkpt lat="10.1576748014114" lon="-75.6808533584002">
        <ele>52.1778713</ele>
        <time>2019-09-10T15:33:27.000Z</time>
      </trkpt>
      <trkpt lat="10.1576764690944" lon="-75.6808554385917">
        <ele>52.1778713</ele>
        <time>2019-09-10T15:33:27.100Z</time>
      </trkpt>
      <trkpt lat="10.1576781208838" lon="-75.6808575361554">
        <ele>52.1778713</ele>
        <time>2019-09-10T15:33:27.200Z</time>
      </trkpt>
      <trkpt lat="10.1576797700155" lon="-75.6808596418306">
        <ele>52.1778713</ele>
        <time>2019-09-10T15:33:27.300Z</time>
      </trkpt>
      <trkpt lat="10.1576814356141" lon="-75.6808617535634">
        <ele>52.1778713</ele>
        <time>2019-09-10T15:33:27.400Z</time>
      </trkpt>
      <trkpt lat="10.1576831055899" lon="-75.6808638648089">
        <ele>52.1778713</ele>
        <time>2019-09-10T15:33:27.500Z</time>
      </trkpt>
      <trkpt lat="10.1576848318448" lon="-75.68086597313">
        <ele>52.1778713</ele>
        <time>2019-09-10T15:33:27.600Z</time>
      </trkpt>
      <trkpt lat="10.1576865594545" lon="-75.6808680800237">
        <ele>52.1778713</ele>
        <time>2019-09-10T15:33:27.700Z</time>
      </trkpt>
      <trkpt lat="10.1576882738804" lon="-75.6808701485874">
        <ele>52.1778713</ele>
        <time>2019-09-10T15:33:27.800Z</time>
      </trkpt>
      <trkpt lat="10.1576899833036" lon="-75.6808722165942">
        <ele>52.1778713</ele>
        <time>2019-09-10T15:33:27.900Z</time>
      </trkpt>
      <trkpt lat="10.1576916951239" lon="-75.6808742910763">
        <ele>52.1778713</ele>
        <time>2019-09-10T15:33:28.000Z</time>
      </trkpt>
      <trkpt lat="10.1576934045472" lon="-75.6808763812246">
        <ele>52.1778713</ele>
        <time>2019-09-10T15:33:28.100Z</time>
      </trkpt>
      <trkpt lat="10.1576951016203" lon="-75.6808784769779">
        <ele>52.1778713</ele>
        <time>2019-09-10T15:33:28.200Z</time>
      </trkpt>
      <trkpt lat="10.1576985164544" lon="-75.6808826765265">
        <ele>52.1778713</ele>
        <time>2019-09-10T15:33:28.400Z</time>
      </trkpt>
      <trkpt lat="10.1577002447936" lon="-75.6808847814359">
        <ele>52.1778713</ele>
        <time>2019-09-10T15:33:28.500Z</time>
      </trkpt>
      <trkpt lat="10.1577020029921" lon="-75.6808868620104">
        <ele>52.1778713</ele>
        <time>2019-09-10T15:33:28.600Z</time>
      </trkpt>
      <trkpt lat="10.1577037597835" lon="-75.6808889511839">
        <ele>52.1778713</ele>
        <time>2019-09-10T15:33:28.700Z</time>
      </trkpt>
      <trkpt lat="10.1577054987011" lon="-75.6808910453358">
        <ele>52.1778713</ele>
        <time>2019-09-10T15:33:28.800Z</time>
      </trkpt>
      <trkpt lat="10.1577072340753" lon="-75.6808931545272">
        <ele>52.1778713</ele>
        <time>2019-09-10T15:33:28.900Z</time>
      </trkpt>
      <trkpt lat="10.1577089691889" lon="-75.6808953311529">
        <ele>52.1778713</ele>
        <time>2019-09-10T15:33:29.000Z</time>
      </trkpt>
      <trkpt lat="10.1577107030518" lon="-75.6808975128962">
        <ele>52.1778713</ele>
        <time>2019-09-10T15:33:29.100Z</time>
      </trkpt>
      <trkpt lat="10.15771237506" lon="-75.6808996421751">
        <ele>52.1778713</ele>
        <time>2019-09-10T15:33:29.200Z</time>
      </trkpt>
      <trkpt lat="10.1577140529565" lon="-75.6809017667194">
        <ele>52.1778713</ele>
        <time>2019-09-10T15:33:29.300Z</time>
      </trkpt>
      <trkpt lat="10.157715736481" lon="-75.6809038894186">
        <ele>52.1778713</ele>
        <time>2019-09-10T15:33:29.400Z</time>
      </trkpt>
      <trkpt lat="10.1577174316782" lon="-75.680906014311">
        <ele>52.1778713</ele>
        <time>2019-09-10T15:33:29.500Z</time>
      </trkpt>
      <trkpt lat="10.1577190753905" lon="-75.6809081091592">
        <ele>52.1778713</ele>
        <time>2019-09-10T15:33:29.600Z</time>
      </trkpt>
      <trkpt lat="10.1577207117031" lon="-75.6809102114923">
        <ele>52.1778713</ele>
        <time>2019-09-10T15:33:29.700Z</time>
      </trkpt>
      <trkpt lat="10.1577223650558" lon="-75.6809123726258">
        <ele>52.2778713</ele>
        <time>2019-09-10T15:33:29.800Z</time>
      </trkpt>
      <trkpt lat="10.1577240459227" lon="-75.6809145435072">
        <ele>52.2778713</ele>
        <time>2019-09-10T15:33:29.900Z</time>
      </trkpt>
      <trkpt lat="10.1577257385143" lon="-75.6809167273742">
        <ele>52.2778713</ele>
        <time>2019-09-10T15:33:30.000Z</time>
      </trkpt>
      <trkpt lat="10.1577274336073" lon="-75.6809188981163">
        <ele>52.2778713</ele>
        <time>2019-09-10T15:33:30.100Z</time>
      </trkpt>
      <trkpt lat="10.1577291297424" lon="-75.6809210260375">
        <ele>52.2778713</ele>
        <time>2019-09-10T15:33:30.200Z</time>
      </trkpt>
      <trkpt lat="10.1577308260339" lon="-75.6809231388844">
        <ele>52.2778713</ele>
        <time>2019-09-10T15:33:30.300Z</time>
      </trkpt>
      <trkpt lat="10.1577325185214" lon="-75.6809252446989">
        <ele>52.2778713</ele>
        <time>2019-09-10T15:33:30.400Z</time>
      </trkpt>
      <trkpt lat="10.1577342096539" lon="-75.6809273527415">
        <ele>52.2778713</ele>
        <time>2019-09-10T15:33:30.500Z</time>
      </trkpt>
      <trkpt lat="10.1577359001612" lon="-75.680929438364">
        <ele>52.2778713</ele>
        <time>2019-09-10T15:33:30.600Z</time>
      </trkpt>
      <trkpt lat="10.157737589522" lon="-75.6809315246131">
        <ele>52.2778713</ele>
        <time>2019-09-10T15:33:30.700Z</time>
      </trkpt>
      <trkpt lat="10.1577392773196" lon="-75.6809336052225">
        <ele>52.2778713</ele>
        <time>2019-09-10T15:33:30.800Z</time>
      </trkpt>
      <trkpt lat="10.1577409661593" lon="-75.6809356959974">
        <ele>52.2778713</ele>
        <time>2019-09-10T15:33:30.900Z</time>
      </trkpt>
      <trkpt lat="10.1577443400868" lon="-75.6809398457972">
        <ele>52.2778713</ele>
        <time>2019-09-10T15:33:31.100Z</time>
      </trkpt>
      <trkpt lat="10.157746036222" lon="-75.6809419295397">
        <ele>52.2778713</ele>
        <time>2019-09-10T15:33:31.200Z</time>
      </trkpt>
      <trkpt lat="10.1577477504394" lon="-75.6809440110891">
        <ele>52.2778713</ele>
        <time>2019-09-10T15:33:31.300Z</time>
      </trkpt>
      <trkpt lat="10.1577494816447" lon="-75.6809460685472">
        <ele>52.2778713</ele>
        <time>2019-09-10T15:33:31.400Z</time>
      </trkpt>
      <trkpt lat="10.1577512216566" lon="-75.6809481218974">
        <ele>52.2778713</ele>
        <time>2019-09-10T15:33:31.500Z</time>
      </trkpt>
      <trkpt lat="10.1577529683387" lon="-75.6809501739943">
        <ele>52.2778713</ele>
        <time>2019-09-10T15:33:31.600Z</time>
      </trkpt>
      <trkpt lat="10.1577547051198" lon="-75.6809522254993">
        <ele>52.2778713</ele>
        <time>2019-09-10T15:33:31.700Z</time>
      </trkpt>
      <trkpt lat="10.1577564340323" lon="-75.6809542679875">
        <ele>52.2778713</ele>
        <time>2019-09-10T15:33:31.800Z</time>
      </trkpt>
      <trkpt lat="10.1577581525748" lon="-75.6809563140268">
        <ele>52.2778713</ele>
        <time>2019-09-10T15:33:31.900Z</time>
      </trkpt>
      <trkpt lat="10.1577598763284" lon="-75.6809583271323">
        <ele>52.2778713</ele>
        <time>2019-09-10T15:33:32.000Z</time>
      </trkpt>
      <trkpt lat="10.1577616043029" lon="-75.6809603489064">
        <ele>52.2778713</ele>
        <time>2019-09-10T15:33:32.100Z</time>
      </trkpt>
      <trkpt lat="10.1577633201878" lon="-75.6809623766336">
        <ele>52.2778713</ele>
        <time>2019-09-10T15:33:32.200Z</time>
      </trkpt>
      <trkpt lat="10.1577650383135" lon="-75.6809644203403">
        <ele>52.2778713</ele>
        <time>2019-09-10T15:33:32.300Z</time>
      </trkpt>
      <trkpt lat="10.1577667661838" lon="-75.680966474526">
        <ele>52.2778713</ele>
        <time>2019-09-10T15:33:32.400Z</time>
      </trkpt>
      <trkpt lat="10.1577684897289" lon="-75.680968540061">
        <ele>52.2778713</ele>
        <time>2019-09-10T15:33:32.500Z</time>
      </trkpt>
      <trkpt lat="10.157770184405" lon="-75.6809706101566">
        <ele>52.2778713</ele>
        <time>2019-09-10T15:33:32.600Z</time>
      </trkpt>
      <trkpt lat="10.1577718787684" lon="-75.6809726896867">
        <ele>52.2778713</ele>
        <time>2019-09-10T15:33:32.700Z</time>
      </trkpt>
      <trkpt lat="10.1577735534341" lon="-75.680974763751">
        <ele>52.2778713</ele>
        <time>2019-09-10T15:33:32.800Z</time>
      </trkpt>
      <trkpt lat="10.1577752389909" lon="-75.6809768467277">
        <ele>52.2778713</ele>
        <time>2019-09-10T15:33:32.900Z</time>
      </trkpt>
      <trkpt lat="10.1577769192325" lon="-75.6809789128197">
        <ele>52.2778713</ele>
        <time>2019-09-10T15:33:33.000Z</time>
      </trkpt>
      <trkpt lat="10.1577786129705" lon="-75.6809809839945">
        <ele>52.2778713</ele>
        <time>2019-09-10T15:33:33.100Z</time>
      </trkpt>
      <trkpt lat="10.1577803076466" lon="-75.6809830307649">
        <ele>52.2778713</ele>
        <time>2019-09-10T15:33:33.200Z</time>
      </trkpt>
      <trkpt lat="10.1577820129532" lon="-75.6809850887801">
        <ele>52.2778713</ele>
        <time>2019-09-10T15:33:33.300Z</time>
      </trkpt>
      <trkpt lat="10.1577837097658" lon="-75.6809871265511">
        <ele>52.2778713</ele>
        <time>2019-09-10T15:33:33.400Z</time>
      </trkpt>
      <trkpt lat="10.1577854192932" lon="-75.6809891748358">
        <ele>52.2778713</ele>
        <time>2019-09-10T15:33:33.500Z</time>
      </trkpt>
      <trkpt lat="10.1577871137088" lon="-75.6809912057311">
        <ele>52.2778713</ele>
        <time>2019-09-10T15:33:33.600Z</time>
      </trkpt>
      <trkpt lat="10.1577888151592" lon="-75.6809932535285">
        <ele>52.2778713</ele>
        <time>2019-09-10T15:33:33.700Z</time>
      </trkpt>
      <trkpt lat="10.1577905315652" lon="-75.6809953247555">
        <ele>52.2778713</ele>
        <time>2019-09-10T15:33:33.800Z</time>
      </trkpt>
      <trkpt lat="10.1577922588622" lon="-75.6809974129891">
        <ele>52.2778713</ele>
        <time>2019-09-10T15:33:33.900Z</time>
      </trkpt>
      <trkpt lat="10.1577939677123" lon="-75.6809994925018">
        <ele>52.2778713</ele>
        <time>2019-09-10T15:33:34.000Z</time>
      </trkpt>
      <trkpt lat="10.1577956786989" lon="-75.6810015782113">
        <ele>52.2778713</ele>
        <time>2019-09-10T15:33:34.100Z</time>
      </trkpt>
      <trkpt lat="10.1577974298103" lon="-75.6810037091613">
        <ele>52.2778713</ele>
        <time>2019-09-10T15:33:34.200Z</time>
      </trkpt>
      <trkpt lat="10.1577991862891" lon="-75.6810058487103">
        <ele>52.2778713</ele>
        <time>2019-09-10T15:33:34.300Z</time>
      </trkpt>
      <trkpt lat="10.1578009521477" lon="-75.6810079914274">
        <ele>52.3778713</ele>
        <time>2019-09-10T15:33:34.400Z</time>
      </trkpt>
      <trkpt lat="10.1578027118573" lon="-75.6810101296709">
        <ele>52.3778713</ele>
        <time>2019-09-10T15:33:34.500Z</time>
      </trkpt>
      <trkpt lat="10.157804434725" lon="-75.6810122586192">
        <ele>52.3778713</ele>
        <time>2019-09-10T15:33:34.600Z</time>
      </trkpt>
      <trkpt lat="10.1578061494114" lon="-75.6810143855134">
        <ele>52.3778713</ele>
        <time>2019-09-10T15:33:34.700Z</time>
      </trkpt>
      <trkpt lat="10.1578078268911" lon="-75.6810164952096">
        <ele>52.3778713</ele>
        <time>2019-09-10T15:33:34.800Z</time>
      </trkpt>
      <trkpt lat="10.1578095177631" lon="-75.6810186090313">
        <ele>52.3778713</ele>
        <time>2019-09-10T15:33:34.900Z</time>
      </trkpt>
      <trkpt lat="10.1578111923767" lon="-75.6810207060379">
        <ele>52.3778713</ele>
        <time>2019-09-10T15:33:35.000Z</time>
      </trkpt>
      <trkpt lat="10.157812888095" lon="-75.6810228053074">
        <ele>52.3778713</ele>
        <time>2019-09-10T15:33:35.100Z</time>
      </trkpt>
      <trkpt lat="10.1578146077319" lon="-75.6810249182761">
        <ele>52.3778713</ele>
        <time>2019-09-10T15:33:35.200Z</time>
      </trkpt>
      <trkpt lat="10.1578180585741" lon="-75.6810291332472">
        <ele>52.3778713</ele>
        <time>2019-09-10T15:33:35.400Z</time>
      </trkpt>
      <trkpt lat="10.1578197683621" lon="-75.6810312373384">
        <ele>52.3778713</ele>
        <time>2019-09-10T15:33:35.500Z</time>
      </trkpt>
      <trkpt lat="10.1578214850287" lon="-75.6810333404722">
        <ele>52.3778713</ele>
        <time>2019-09-10T15:33:35.600Z</time>
      </trkpt>
      <trkpt lat="10.1578232322839" lon="-75.6810354380185">
        <ele>52.2778713</ele>
        <time>2019-09-10T15:33:35.700Z</time>
      </trkpt>
      <trkpt lat="10.1578250015297" lon="-75.681037552136">
        <ele>52.2778713</ele>
        <time>2019-09-10T15:33:35.800Z</time>
      </trkpt>
      <trkpt lat="10.1578267838552" lon="-75.6810396748352">
        <ele>52.2778713</ele>
        <time>2019-09-10T15:33:35.900Z</time>
      </trkpt>
      <trkpt lat="10.1578285589373" lon="-75.6810417944707">
        <ele>52.2778713</ele>
        <time>2019-09-10T15:33:36.000Z</time>
      </trkpt>
      <trkpt lat="10.1578303259944" lon="-75.6810439146807">
        <ele>52.2778713</ele>
        <time>2019-09-10T15:33:36.100Z</time>
      </trkpt>
      <trkpt lat="10.1578320607433" lon="-75.6810460647087">
        <ele>52.2778713</ele>
        <time>2019-09-10T15:33:36.200Z</time>
      </trkpt>
      <trkpt lat="10.157833793095" lon="-75.6810482194017">
        <ele>52.2778713</ele>
        <time>2019-09-10T15:33:36.300Z</time>
      </trkpt>
      <trkpt lat="10.1578355289381" lon="-75.6810503632502">
        <ele>52.2778713</ele>
        <time>2019-09-10T15:33:36.400Z</time>
      </trkpt>
      <trkpt lat="10.1578372720767" lon="-75.6810525030951">
        <ele>52.2778713</ele>
        <time>2019-09-10T15:33:36.500Z</time>
      </trkpt>
      <trkpt lat="10.1578390035426" lon="-75.6810546537846">
        <ele>52.2778713</ele>
        <time>2019-09-10T15:33:36.600Z</time>
      </trkpt>
      <trkpt lat="10.1578407383956" lon="-75.6810567997741">
        <ele>52.2778713</ele>
        <time>2019-09-10T15:33:36.700Z</time>
      </trkpt>
      <trkpt lat="10.1578425033684" lon="-75.6810589152669">
        <ele>52.2778713</ele>
        <time>2019-09-10T15:33:36.800Z</time>
      </trkpt>
      <trkpt lat="10.1578442809518" lon="-75.6810610217428">
        <ele>52.2778713</ele>
        <time>2019-09-10T15:33:36.900Z</time>
      </trkpt>
      <trkpt lat="10.1578460623392" lon="-75.6810631274877">
        <ele>52.2778713</ele>
        <time>2019-09-10T15:33:37.000Z</time>
      </trkpt>
      <trkpt lat="10.1578478477392" lon="-75.6810652268094">
        <ele>52.2778713</ele>
        <time>2019-09-10T15:33:37.100Z</time>
      </trkpt>
      <trkpt lat="10.1578496527847" lon="-75.6810673087591">
        <ele>52.2778713</ele>
        <time>2019-09-10T15:33:37.200Z</time>
      </trkpt>
      <trkpt lat="10.1578514555373" lon="-75.6810693900821">
        <ele>52.2778713</ele>
        <time>2019-09-10T15:33:37.300Z</time>
      </trkpt>
      <trkpt lat="10.1578532572999" lon="-75.6810714722232">
        <ele>52.2778713</ele>
        <time>2019-09-10T15:33:37.400Z</time>
      </trkpt>
      <trkpt lat="10.157855051767" lon="-75.6810735599171">
        <ele>52.2778713</ele>
        <time>2019-09-10T15:33:37.500Z</time>
      </trkpt>
      <trkpt lat="10.1578568420132" lon="-75.6810756204215">
        <ele>52.2778713</ele>
        <time>2019-09-10T15:33:37.600Z</time>
      </trkpt>
      <trkpt lat="10.1578586299665" lon="-75.6810776815352">
        <ele>52.2778713</ele>
        <time>2019-09-10T15:33:37.700Z</time>
      </trkpt>
      <trkpt lat="10.1578603916042" lon="-75.6810797185229">
        <ele>52.2778713</ele>
        <time>2019-09-10T15:33:37.800Z</time>
      </trkpt>
      <trkpt lat="10.1578621517828" lon="-75.6810817661984">
        <ele>52.2778713</ele>
        <time>2019-09-10T15:33:37.900Z</time>
      </trkpt>
      <trkpt lat="10.1578639419248" lon="-75.6810838685315">
        <ele>52.2778713</ele>
        <time>2019-09-10T15:33:38.000Z</time>
      </trkpt>
      <trkpt lat="10.1578657327963" lon="-75.6810859835368">
        <ele>52.2778713</ele>
        <time>2019-09-10T15:33:38.100Z</time>
      </trkpt>
      <trkpt lat="10.1578674902652" lon="-75.6810881127984">
        <ele>52.2778713</ele>
        <time>2019-09-10T15:33:38.200Z</time>
      </trkpt>
      <trkpt lat="10.1578692406992" lon="-75.6810902331998">
        <ele>52.2778713</ele>
        <time>2019-09-10T15:33:38.300Z</time>
      </trkpt>
      <trkpt lat="10.1578709663287" lon="-75.6810923242011">
        <ele>52.2778713</ele>
        <time>2019-09-10T15:33:38.400Z</time>
      </trkpt>
      <trkpt lat="10.1578726972735" lon="-75.6810944126783">
        <ele>52.2778713</ele>
        <time>2019-09-10T15:33:38.500Z</time>
      </trkpt>
      <trkpt lat="10.1578743883018" lon="-75.6810964700843">
        <ele>52.2778713</ele>
        <time>2019-09-10T15:33:38.600Z</time>
      </trkpt>
      <trkpt lat="10.1578760892311" lon="-75.6810985360892">
        <ele>52.2778713</ele>
        <time>2019-09-10T15:33:38.700Z</time>
      </trkpt>
      <trkpt lat="10.1578778134016" lon="-75.6811006440622">
        <ele>52.2778713</ele>
        <time>2019-09-10T15:33:38.800Z</time>
      </trkpt>
      <trkpt lat="10.1578795554458" lon="-75.6811027654906">
        <ele>52.2778713</ele>
        <time>2019-09-10T15:33:38.900Z</time>
      </trkpt>
      <trkpt lat="10.1578813016589" lon="-75.6811049203229">
        <ele>52.2778713</ele>
        <time>2019-09-10T15:33:39.000Z</time>
      </trkpt>
      <trkpt lat="10.1578830509986" lon="-75.6811070679835">
        <ele>52.2778713</ele>
        <time>2019-09-10T15:33:39.100Z</time>
      </trkpt>
      <trkpt lat="10.1578847951793" lon="-75.681109207724">
        <ele>52.2778713</ele>
        <time>2019-09-10T15:33:39.200Z</time>
      </trkpt>
      <trkpt lat="10.157886540246" lon="-75.6811113372118">
        <ele>52.2778713</ele>
        <time>2019-09-10T15:33:39.300Z</time>
      </trkpt>
      <trkpt lat="10.1578882802058" lon="-75.6811134510857">
        <ele>52.2778713</ele>
        <time>2019-09-10T15:33:39.400Z</time>
      </trkpt>
      <trkpt lat="10.1578900239697" lon="-75.6811155608168">
        <ele>52.2778713</ele>
        <time>2019-09-10T15:33:39.500Z</time>
      </trkpt>
      <trkpt lat="10.1578917350605" lon="-75.6811176565005">
        <ele>52.2778713</ele>
        <time>2019-09-10T15:33:39.600Z</time>
      </trkpt>
      <trkpt lat="10.157893450737" lon="-75.6811197526193">
        <ele>52.2778713</ele>
        <time>2019-09-10T15:33:39.700Z</time>
      </trkpt>
      <trkpt lat="10.1578968900628" lon="-75.681123931036">
        <ele>52.2778713</ele>
        <time>2019-09-10T15:33:39.900Z</time>
      </trkpt>
      <trkpt lat="10.1578986127742" lon="-75.6811260186603">
        <ele>52.2778713</ele>
        <time>2019-09-10T15:33:40.000Z</time>
      </trkpt>
      <trkpt lat="10.1579003387685" lon="-75.6811281090871">
        <ele>52.2778713</ele>
        <time>2019-09-10T15:33:40.100Z</time>
      </trkpt>
      <trkpt lat="10.1579020914432" lon="-75.6811302630664">
        <ele>52.2778713</ele>
        <time>2019-09-10T15:33:40.200Z</time>
      </trkpt>
      <trkpt lat="10.1579038490163" lon="-75.6811324144695">
        <ele>52.2778713</ele>
        <time>2019-09-10T15:33:40.300Z</time>
      </trkpt>
      <trkpt lat="10.1579055495808" lon="-75.6811344968195">
        <ele>52.2778713</ele>
        <time>2019-09-10T15:33:40.400Z</time>
      </trkpt>
      <trkpt lat="10.1579072493637" lon="-75.6811365675766">
        <ele>52.2778713</ele>
        <time>2019-09-10T15:33:40.500Z</time>
      </trkpt>
      <trkpt lat="10.157910718236" lon="-75.6811407851935">
        <ele>52.2778713</ele>
        <time>2019-09-10T15:33:40.700Z</time>
      </trkpt>
      <trkpt lat="10.1579124314112" lon="-75.6811428682311">
        <ele>52.2778713</ele>
        <time>2019-09-10T15:33:40.800Z</time>
      </trkpt>
      <trkpt lat="10.1579141524029" lon="-75.6811449464818">
        <ele>52.2778713</ele>
        <time>2019-09-10T15:33:40.900Z</time>
      </trkpt>
      <trkpt lat="10.1579159121126" lon="-75.6811470533494">
        <ele>52.2778713</ele>
        <time>2019-09-10T15:33:41.000Z</time>
      </trkpt>
      <trkpt lat="10.1579176817752" lon="-75.6811491671624">
        <ele>52.2778713</ele>
        <time>2019-09-10T15:33:41.100Z</time>
      </trkpt>
      <trkpt lat="10.1579194548771" lon="-75.681151248085">
        <ele>52.2778713</ele>
        <time>2019-09-10T15:33:41.200Z</time>
      </trkpt>
      <trkpt lat="10.1579212274059" lon="-75.6811533304002">
        <ele>52.2778713</ele>
        <time>2019-09-10T15:33:41.300Z</time>
      </trkpt>
      <trkpt lat="10.1579229914927" lon="-75.6811554173544">
        <ele>52.2778713</ele>
        <time>2019-09-10T15:33:41.400Z</time>
      </trkpt>
      <trkpt lat="10.1579247546937" lon="-75.6811575150486">
        <ele>52.2778713</ele>
        <time>2019-09-10T15:33:41.500Z</time>
      </trkpt>
      <trkpt lat="10.1579265003336" lon="-75.6811596174165">
        <ele>52.2778713</ele>
        <time>2019-09-10T15:33:41.600Z</time>
      </trkpt>
      <trkpt lat="10.1579282510802" lon="-75.6811617260074">
        <ele>52.2778713</ele>
        <time>2019-09-10T15:33:41.700Z</time>
      </trkpt>
      <trkpt lat="10.157929983432" lon="-75.6811638043538">
        <ele>52.2778713</ele>
        <time>2019-09-10T15:33:41.800Z</time>
      </trkpt>
      <trkpt lat="10.1579317189104" lon="-75.6811658951549">
        <ele>52.2778713</ele>
        <time>2019-09-10T15:33:41.900Z</time>
      </trkpt>
      <trkpt lat="10.1579334344826" lon="-75.6811679880012">
        <ele>52.2778713</ele>
        <time>2019-09-10T15:33:42.000Z</time>
      </trkpt>
      <trkpt lat="10.1579351537547" lon="-75.681170096653">
        <ele>52.2778713</ele>
        <time>2019-09-10T15:33:42.100Z</time>
      </trkpt>
      <trkpt lat="10.1579368640117" lon="-75.6811721979853">
        <ele>52.2778713</ele>
        <time>2019-09-10T15:33:42.200Z</time>
      </trkpt>
      <trkpt lat="10.1579385796882" lon="-75.6811743084648">
        <ele>52.2778713</ele>
        <time>2019-09-10T15:33:42.300Z</time>
      </trkpt>
      <trkpt lat="10.1579402942704" lon="-75.6811764066986">
        <ele>52.2778713</ele>
        <time>2019-09-10T15:33:42.400Z</time>
      </trkpt>
      <trkpt lat="10.1579420146889" lon="-75.6811785123564">
        <ele>52.2778713</ele>
        <time>2019-09-10T15:33:42.500Z</time>
      </trkpt>
      <trkpt lat="10.1579437110325" lon="-75.6811806044021">
        <ele>52.2778713</ele>
        <time>2019-09-10T15:33:42.600Z</time>
      </trkpt>
      <trkpt lat="10.157945413942" lon="-75.6811827008081">
        <ele>52.3778713</ele>
        <time>2019-09-10T15:33:42.700Z</time>
      </trkpt>
      <trkpt lat="10.157947072662" lon="-75.6811847479528">
        <ele>52.3778713</ele>
        <time>2019-09-10T15:33:42.800Z</time>
      </trkpt>
      <trkpt lat="10.1579487444617" lon="-75.6811868000583">
        <ele>52.3778713</ele>
        <time>2019-09-10T15:33:42.900Z</time>
      </trkpt>
      <trkpt lat="10.1579504285073" lon="-75.6811888795188">
        <ele>52.3778713</ele>
        <time>2019-09-10T15:33:43.000Z</time>
      </trkpt>
      <trkpt lat="10.1579521339702" lon="-75.6811909722172">
        <ele>52.3778713</ele>
        <time>2019-09-10T15:33:43.100Z</time>
      </trkpt>
      <trkpt lat="10.1579538259365" lon="-75.6811930349236">
        <ele>52.3778713</ele>
        <time>2019-09-10T15:33:43.200Z</time>
      </trkpt>
      <trkpt lat="10.1579555317121" lon="-75.6811950975516">
        <ele>52.3778713</ele>
        <time>2019-09-10T15:33:43.300Z</time>
      </trkpt>
      <trkpt lat="10.1579572250854" lon="-75.6811971686568">
        <ele>52.3778713</ele>
        <time>2019-09-10T15:33:43.400Z</time>
      </trkpt>
      <trkpt lat="10.1579589315384" lon="-75.681199247421">
        <ele>52.3778713</ele>
        <time>2019-09-10T15:33:43.500Z</time>
      </trkpt>
      <trkpt lat="10.157960623661" lon="-75.6812013397799">
        <ele>52.3778713</ele>
        <time>2019-09-10T15:33:43.600Z</time>
      </trkpt>
      <trkpt lat="10.1579623312604" lon="-75.6812034338796">
        <ele>52.3778713</ele>
        <time>2019-09-10T15:33:43.700Z</time>
      </trkpt>
      <trkpt lat="10.1579640530338" lon="-75.6812055057594">
        <ele>52.3778713</ele>
        <time>2019-09-10T15:33:43.800Z</time>
      </trkpt>
      <trkpt lat="10.1579657871052" lon="-75.6812075784268">
        <ele>52.3778713</ele>
        <time>2019-09-10T15:33:43.900Z</time>
      </trkpt>
      <trkpt lat="10.1579692687966" lon="-75.6812117494107">
        <ele>52.3778713</ele>
        <time>2019-09-10T15:33:44.100Z</time>
      </trkpt>
      <trkpt lat="10.1579710119352" lon="-75.6812138473008">
        <ele>52.3778713</ele>
        <time>2019-09-10T15:33:44.200Z</time>
      </trkpt>
      <trkpt lat="10.1579727562723" lon="-75.6812159427146">
        <ele>52.3778713</ele>
        <time>2019-09-10T15:33:44.300Z</time>
      </trkpt>
      <trkpt lat="10.1579744999841" lon="-75.6812180140331">
        <ele>52.3778713</ele>
        <time>2019-09-10T15:33:44.400Z</time>
      </trkpt>
      <trkpt lat="10.1579762469267" lon="-75.681220084455">
        <ele>52.3778713</ele>
        <time>2019-09-10T15:33:44.500Z</time>
      </trkpt>
      <trkpt lat="10.1579779902216" lon="-75.6812221309295">
        <ele>52.3778713</ele>
        <time>2019-09-10T15:33:44.600Z</time>
      </trkpt>
      <trkpt lat="10.1579797337249" lon="-75.6812241868036">
        <ele>52.3778713</ele>
        <time>2019-09-10T15:33:44.700Z</time>
      </trkpt>
      <trkpt lat="10.1579814727468" lon="-75.681226223713">
        <ele>52.3778713</ele>
        <time>2019-09-10T15:33:44.800Z</time>
      </trkpt>
      <trkpt lat="10.1579832153121" lon="-75.6812282714625">
        <ele>52.3778713</ele>
        <time>2019-09-10T15:33:44.900Z</time>
      </trkpt>
      <trkpt lat="10.157984954803" lon="-75.6812303044422">
        <ele>52.3778713</ele>
        <time>2019-09-10T15:33:45.000Z</time>
      </trkpt>
      <trkpt lat="10.1579866980458" lon="-75.6812323511299">
        <ele>52.3778713</ele>
        <time>2019-09-10T15:33:45.100Z</time>
      </trkpt>
      <trkpt lat="10.1579884091886" lon="-75.68123438837">
        <ele>52.3778713</ele>
        <time>2019-09-10T15:33:45.200Z</time>
      </trkpt>
      <trkpt lat="10.157990124344" lon="-75.6812364377514">
        <ele>52.3778713</ele>
        <time>2019-09-10T15:33:45.300Z</time>
      </trkpt>
      <trkpt lat="10.1579918347053" lon="-75.6812384520536">
        <ele>52.2778713</ele>
        <time>2019-09-10T15:33:45.400Z</time>
      </trkpt>
      <trkpt lat="10.1579935564787" lon="-75.6812404852205">
        <ele>52.2778713</ele>
        <time>2019-09-10T15:33:45.500Z</time>
      </trkpt>
      <trkpt lat="10.1579952828898" lon="-75.6812425452462">
        <ele>52.2778713</ele>
        <time>2019-09-10T15:33:45.600Z</time>
      </trkpt>
      <trkpt lat="10.1579970208695" lon="-75.6812446238189">
        <ele>52.2778713</ele>
        <time>2019-09-10T15:33:45.700Z</time>
      </trkpt>
      <trkpt lat="10.1579987861549" lon="-75.6812467293092">
        <ele>52.2778713</ele>
        <time>2019-09-10T15:33:45.800Z</time>
      </trkpt>
      <trkpt lat="10.1580005521177" lon="-75.6812488434115">
        <ele>52.2778713</ele>
        <time>2019-09-10T15:33:45.900Z</time>
      </trkpt>
      <trkpt lat="10.1580023176116" lon="-75.6812509402201">
        <ele>52.2778713</ele>
        <time>2019-09-10T15:33:46.000Z</time>
      </trkpt>
      <trkpt lat="10.1580040810731" lon="-75.6812530374835">
        <ele>52.2778713</ele>
        <time>2019-09-10T15:33:46.100Z</time>
      </trkpt>
      <trkpt lat="10.158005839011" lon="-75.6812551057296">
        <ele>52.2778713</ele>
        <time>2019-09-10T15:33:46.200Z</time>
      </trkpt>
      <trkpt lat="10.1580075975742" lon="-75.6812571807361">
        <ele>52.2778713</ele>
        <time>2019-09-10T15:33:46.300Z</time>
      </trkpt>
      <trkpt lat="10.158009313407" lon="-75.6812592555837">
        <ele>52.2778713</ele>
        <time>2019-09-10T15:33:46.400Z</time>
      </trkpt>
      <trkpt lat="10.1580110333044" lon="-75.6812613446583">
        <ele>52.2778713</ele>
        <time>2019-09-10T15:33:46.500Z</time>
      </trkpt>
      <trkpt lat="10.1580127469486" lon="-75.6812634351971">
        <ele>52.2778713</ele>
        <time>2019-09-10T15:33:46.600Z</time>
      </trkpt>
      <trkpt lat="10.1580144769033" lon="-75.6812655346048">
        <ele>52.2778713</ele>
        <time>2019-09-10T15:33:46.700Z</time>
      </trkpt>
      <trkpt lat="10.1580162006568" lon="-75.6812676356095">
        <ele>52.2778713</ele>
        <time>2019-09-10T15:33:46.800Z</time>
      </trkpt>
      <trkpt lat="10.1580179304031" lon="-75.6812697449555">
        <ele>52.2778713</ele>
        <time>2019-09-10T15:33:46.900Z</time>
      </trkpt>
      <trkpt lat="10.158019648633" lon="-75.6812718550493">
        <ele>52.3778713</ele>
        <time>2019-09-10T15:33:47.000Z</time>
      </trkpt>
      <trkpt lat="10.158021365977" lon="-75.6812739737895">
        <ele>52.3778713</ele>
        <time>2019-09-10T15:33:47.100Z</time>
      </trkpt>
      <trkpt lat="10.1580231067185" lon="-75.6812761237476">
        <ele>52.3778713</ele>
        <time>2019-09-10T15:33:47.200Z</time>
      </trkpt>
      <trkpt lat="10.158024850326" lon="-75.6812782769596">
        <ele>52.3778713</ele>
        <time>2019-09-10T15:33:47.300Z</time>
      </trkpt>
      <trkpt lat="10.1580265391658" lon="-75.6812804120986">
        <ele>52.3778713</ele>
        <time>2019-09-10T15:33:47.400Z</time>
      </trkpt>
      <trkpt lat="10.1580282253479" lon="-75.68128254496">
        <ele>52.3778713</ele>
        <time>2019-09-10T15:33:47.500Z</time>
      </trkpt>
      <trkpt lat="10.1580299152298" lon="-75.6812847231525">
        <ele>52.3778713</ele>
        <time>2019-09-10T15:33:47.600Z</time>
      </trkpt>
      <trkpt lat="10.1580316197547" lon="-75.6812869025355">
        <ele>52.3778713</ele>
        <time>2019-09-10T15:33:47.700Z</time>
      </trkpt>
      <trkpt lat="10.158033341007" lon="-75.6812890531173">
        <ele>52.3778713</ele>
        <time>2019-09-10T15:33:47.800Z</time>
      </trkpt>
      <trkpt lat="10.158035069711" lon="-75.6812911980831">
        <ele>52.3778713</ele>
        <time>2019-09-10T15:33:47.900Z</time>
      </trkpt>
      <trkpt lat="10.1580367575606" lon="-75.6812933109321">
        <ele>52.3778713</ele>
        <time>2019-09-10T15:33:48.000Z</time>
      </trkpt>
      <trkpt lat="10.1580384529663" lon="-75.681295426031">
        <ele>52.2778713</ele>
        <time>2019-09-10T15:33:48.100Z</time>
      </trkpt>
      <trkpt lat="10.1580401329472" lon="-75.6812975434004">
        <ele>52.2778713</ele>
        <time>2019-09-10T15:33:48.200Z</time>
      </trkpt>
      <trkpt lat="10.1580435357959" lon="-75.6813018497924">
        <ele>52.2778713</ele>
        <time>2019-09-10T15:33:48.400Z</time>
      </trkpt>
      <trkpt lat="10.158045253661" lon="-75.6813040290531">
        <ele>52.2778713</ele>
        <time>2019-09-10T15:33:48.500Z</time>
      </trkpt>
      <trkpt lat="10.1580486765201" lon="-75.6813083185365">
        <ele>52.2778713</ele>
        <time>2019-09-10T15:33:48.700Z</time>
      </trkpt>
      <trkpt lat="10.1580504028791" lon="-75.6813104913479">
        <ele>52.2778713</ele>
        <time>2019-09-10T15:33:48.800Z</time>
      </trkpt>
      <trkpt lat="10.158052138618" lon="-75.6813126709023">
        <ele>52.2778713</ele>
        <time>2019-09-10T15:33:48.900Z</time>
      </trkpt>
      <trkpt lat="10.1580538481976" lon="-75.6813148479174">
        <ele>52.2778713</ele>
        <time>2019-09-10T15:33:49.000Z</time>
      </trkpt>
      <trkpt lat="10.1580555674697" lon="-75.6813170185334">
        <ele>52.2778713</ele>
        <time>2019-09-10T15:33:49.100Z</time>
      </trkpt>
      <trkpt lat="10.1580573237922" lon="-75.6813192475059">
        <ele>52.2778713</ele>
        <time>2019-09-10T15:33:49.200Z</time>
      </trkpt>
      <trkpt lat="10.1580590919436" lon="-75.6813214646112">
        <ele>52.2778713</ele>
        <time>2019-09-10T15:33:49.300Z</time>
      </trkpt>
      <trkpt lat="10.1580607987614" lon="-75.6813235887813">
        <ele>52.2778713</ele>
        <time>2019-09-10T15:33:49.400Z</time>
      </trkpt>
      <trkpt lat="10.158062505058" lon="-75.6813256949352">
        <ele>52.2778713</ele>
        <time>2019-09-10T15:33:49.500Z</time>
      </trkpt>
      <trkpt lat="10.1580642106772" lon="-75.6813277820852">
        <ele>52.2778713</ele>
        <time>2019-09-10T15:33:49.600Z</time>
      </trkpt>
      <trkpt lat="10.1580659419347" lon="-75.6813298766853">
        <ele>52.2778713</ele>
        <time>2019-09-10T15:33:49.700Z</time>
      </trkpt>
      <trkpt lat="10.1580676798622" lon="-75.6813319433865">
        <ele>52.2778713</ele>
        <time>2019-09-10T15:33:49.800Z</time>
      </trkpt>
      <trkpt lat="10.1580694331102" lon="-75.6813340195179">
        <ele>52.2778713</ele>
        <time>2019-09-10T15:33:49.900Z</time>
      </trkpt>
      <trkpt lat="10.1580712388331" lon="-75.6813361205586">
        <ele>52.2778713</ele>
        <time>2019-09-10T15:33:50.000Z</time>
      </trkpt>
      <trkpt lat="10.1580730457546" lon="-75.6813382333054">
        <ele>52.2778713</ele>
        <time>2019-09-10T15:33:50.100Z</time>
      </trkpt>
      <trkpt lat="10.1580748333431" lon="-75.6813402771775">
        <ele>52.2778713</ele>
        <time>2019-09-10T15:33:50.200Z</time>
      </trkpt>
      <trkpt lat="10.1580766112392" lon="-75.6813423247964">
        <ele>52.2778713</ele>
        <time>2019-09-10T15:33:50.300Z</time>
      </trkpt>
      <trkpt lat="10.1580783644871" lon="-75.6813443760404">
        <ele>52.2778713</ele>
        <time>2019-09-10T15:33:50.400Z</time>
      </trkpt>
      <trkpt lat="10.1580801170577" lon="-75.6813464494955">
        <ele>52.2778713</ele>
        <time>2019-09-10T15:33:50.500Z</time>
      </trkpt>
      <trkpt lat="10.1580818521713" lon="-75.681348469642">
        <ele>52.2778713</ele>
        <time>2019-09-10T15:33:50.600Z</time>
      </trkpt>
      <trkpt lat="10.1580835907502" lon="-75.6813504993841">
        <ele>52.2778713</ele>
        <time>2019-09-10T15:33:50.700Z</time>
      </trkpt>
      <trkpt lat="10.1580853442587" lon="-75.6813525348704">
        <ele>52.2778713</ele>
        <time>2019-09-10T15:33:50.800Z</time>
      </trkpt>
      <trkpt lat="10.1580871130094" lon="-75.6813545937995">
        <ele>52.2778713</ele>
        <time>2019-09-10T15:33:50.900Z</time>
      </trkpt>
      <trkpt lat="10.158088902995" lon="-75.6813566678377">
        <ele>52.2778713</ele>
        <time>2019-09-10T15:33:51.000Z</time>
      </trkpt>
      <trkpt lat="10.158090698791" lon="-75.6813587533471">
        <ele>52.2778713</ele>
        <time>2019-09-10T15:33:51.100Z</time>
      </trkpt>
      <trkpt lat="10.1580942504664" lon="-75.6813628928855">
        <ele>52.2778713</ele>
        <time>2019-09-10T15:33:51.300Z</time>
      </trkpt>
      <trkpt lat="10.1580977827829" lon="-75.6813670785521">
        <ele>52.2778713</ele>
        <time>2019-09-10T15:33:51.500Z</time>
      </trkpt>
      <trkpt lat="10.1580995212055" lon="-75.6813691567593">
        <ele>52.2778713</ele>
        <time>2019-09-10T15:33:51.600Z</time>
      </trkpt>
      <trkpt lat="10.1581012661158" lon="-75.6813712367855">
        <ele>52.2778713</ele>
        <time>2019-09-10T15:33:51.700Z</time>
      </trkpt>
      <trkpt lat="10.158102996774" lon="-75.6813733257676">
        <ele>52.2778713</ele>
        <time>2019-09-10T15:33:51.800Z</time>
      </trkpt>
      <trkpt lat="10.1581047372289" lon="-75.6813754247498">
        <ele>52.2778713</ele>
        <time>2019-09-10T15:33:51.900Z</time>
      </trkpt>
      <trkpt lat="10.1581064597057" lon="-75.6813775010684">
        <ele>52.3778713</ele>
        <time>2019-09-10T15:33:52.000Z</time>
      </trkpt>
      <trkpt lat="10.1581081831988" lon="-75.6813795890495">
        <ele>52.2778713</ele>
        <time>2019-09-10T15:33:52.100Z</time>
      </trkpt>
      <trkpt lat="10.1581117295068" lon="-75.6813838231769">
        <ele>52.2778713</ele>
        <time>2019-09-10T15:33:52.300Z</time>
      </trkpt>
      <trkpt lat="10.1581134646204" lon="-75.6813859299662">
        <ele>52.2778713</ele>
        <time>2019-09-10T15:33:52.400Z</time>
      </trkpt>
      <trkpt lat="10.1581151849087" lon="-75.6813880364856">
        <ele>52.2778713</ele>
        <time>2019-09-10T15:33:52.500Z</time>
      </trkpt>
      <trkpt lat="10.1581168673128" lon="-75.6813901098189">
        <ele>52.2778713</ele>
        <time>2019-09-10T15:33:52.600Z</time>
      </trkpt>
      <trkpt lat="10.1581185479973" lon="-75.6813921887659">
        <ele>52.2778713</ele>
        <time>2019-09-10T15:33:52.700Z</time>
      </trkpt>
      <trkpt lat="10.1581201979367" lon="-75.6813942753806">
        <ele>52.2778713</ele>
        <time>2019-09-10T15:33:52.800Z</time>
      </trkpt>
      <trkpt lat="10.1581218769276" lon="-75.6813963754595">
        <ele>52.2778713</ele>
        <time>2019-09-10T15:33:52.900Z</time>
      </trkpt>
      <trkpt lat="10.1581235588367" lon="-75.6813984687758">
        <ele>52.2778713</ele>
        <time>2019-09-10T15:33:53.000Z</time>
      </trkpt>
      <trkpt lat="10.1581252605737" lon="-75.6814005745468">
        <ele>52.2778713</ele>
        <time>2019-09-10T15:33:53.100Z</time>
      </trkpt>
      <trkpt lat="10.1581269622325" lon="-75.681402685505">
        <ele>52.2778713</ele>
        <time>2019-09-10T15:33:53.200Z</time>
      </trkpt>
      <trkpt lat="10.15812865472" lon="-75.6814048138179">
        <ele>52.2778713</ele>
        <time>2019-09-10T15:33:53.300Z</time>
      </trkpt>
      <trkpt lat="10.1581303412669" lon="-75.6814069702603">
        <ele>52.2778713</ele>
        <time>2019-09-10T15:33:53.400Z</time>
      </trkpt>
      <trkpt lat="10.1581320401899" lon="-75.6814091312633">
        <ele>52.2778713</ele>
        <time>2019-09-10T15:33:53.500Z</time>
      </trkpt>
      <trkpt lat="10.1581337223856" lon="-75.6814112285049">
        <ele>52.2778713</ele>
        <time>2019-09-10T15:33:53.600Z</time>
      </trkpt>
      <trkpt lat="10.1581354063009" lon="-75.6814133249632">
        <ele>52.2778713</ele>
        <time>2019-09-10T15:33:53.700Z</time>
      </trkpt>
      <trkpt lat="10.1581370911021" lon="-75.6814154319788">
        <ele>52.2778713</ele>
        <time>2019-09-10T15:33:53.800Z</time>
      </trkpt>
      <trkpt lat="10.1581387869246" lon="-75.6814175546954">
        <ele>52.2778713</ele>
        <time>2019-09-10T15:33:53.900Z</time>
      </trkpt>
      <trkpt lat="10.1581404475987" lon="-75.6814196583166">
        <ele>52.2778713</ele>
        <time>2019-09-10T15:33:54.000Z</time>
      </trkpt>
      <trkpt lat="10.1581421168971" lon="-75.681421767891">
        <ele>52.3778713</ele>
        <time>2019-09-10T15:33:54.100Z</time>
      </trkpt>
      <trkpt lat="10.1581437795515" lon="-75.68142386233">
        <ele>52.2778713</ele>
        <time>2019-09-10T15:33:54.200Z</time>
      </trkpt>
      <trkpt lat="10.158145461669" lon="-75.6814259628616">
        <ele>52.2778713</ele>
        <time>2019-09-10T15:33:54.300Z</time>
      </trkpt>
      <trkpt lat="10.1581471769807" lon="-75.6814280454031">
        <ele>52.2778713</ele>
        <time>2019-09-10T15:33:54.400Z</time>
      </trkpt>
      <trkpt lat="10.1581489123809" lon="-75.6814301357776">
        <ele>52.2778713</ele>
        <time>2019-09-10T15:33:54.500Z</time>
      </trkpt>
      <trkpt lat="10.1581506449932" lon="-75.6814322148378">
        <ele>52.2778713</ele>
        <time>2019-09-10T15:33:54.600Z</time>
      </trkpt>
      <trkpt lat="10.158152381123" lon="-75.6814343057694">
        <ele>52.2778713</ele>
        <time>2019-09-10T15:33:54.700Z</time>
      </trkpt>
      <trkpt lat="10.1581540984149" lon="-75.6814364252483">
        <ele>52.3778713</ele>
        <time>2019-09-10T15:33:54.800Z</time>
      </trkpt>
      <trkpt lat="10.1581558279527" lon="-75.6814385564246">
        <ele>52.3778713</ele>
        <time>2019-09-10T15:33:54.900Z</time>
      </trkpt>
      <trkpt lat="10.1581576031651" lon="-75.6814407167574">
        <ele>52.3778713</ele>
        <time>2019-09-10T15:33:55.000Z</time>
      </trkpt>
      <trkpt lat="10.1581593996645" lon="-75.6814428770902">
        <ele>52.3778713</ele>
        <time>2019-09-10T15:33:55.100Z</time>
      </trkpt>
      <trkpt lat="10.1581611631" lon="-75.6814449877961">
        <ele>52.3778713</ele>
        <time>2019-09-10T15:33:55.200Z</time>
      </trkpt>
      <trkpt lat="10.1581629273171" lon="-75.6814470924269">
        <ele>52.3778713</ele>
        <time>2019-09-10T15:33:55.300Z</time>
      </trkpt>
      <trkpt lat="10.1581647034154" lon="-75.6814492053608">
        <ele>52.3778713</ele>
        <time>2019-09-10T15:33:55.400Z</time>
      </trkpt>
      <trkpt lat="10.1581664926715" lon="-75.6814513228553">
        <ele>52.3778713</ele>
        <time>2019-09-10T15:33:55.500Z</time>
      </trkpt>
      <trkpt lat="10.1581682908645" lon="-75.6814534165372">
        <ele>52.3778713</ele>
        <time>2019-09-10T15:33:55.600Z</time>
      </trkpt>
      <trkpt lat="10.1581700987239" lon="-75.6814555086003">
        <ele>52.3778713</ele>
        <time>2019-09-10T15:33:55.700Z</time>
      </trkpt>
      <trkpt lat="10.1581718817268" lon="-75.6814576220564">
        <ele>52.2778713</ele>
        <time>2019-09-10T15:33:55.800Z</time>
      </trkpt>
      <trkpt lat="10.1581736373718" lon="-75.6814597531456">
        <ele>52.2778713</ele>
        <time>2019-09-10T15:33:55.900Z</time>
      </trkpt>
      <trkpt lat="10.1581753712608" lon="-75.6814618813628">
        <ele>52.2778713</ele>
        <time>2019-09-10T15:33:56.000Z</time>
      </trkpt>
      <trkpt lat="10.1581771026225" lon="-75.6814640084311">
        <ele>52.2778713</ele>
        <time>2019-09-10T15:33:56.100Z</time>
      </trkpt>
      <trkpt lat="10.1581788513108" lon="-75.6814661575191">
        <ele>52.2778713</ele>
        <time>2019-09-10T15:33:56.200Z</time>
      </trkpt>
      <trkpt lat="10.1581823981139" lon="-75.6814704596812">
        <ele>52.2778713</ele>
        <time>2019-09-10T15:33:56.400Z</time>
      </trkpt>
      <trkpt lat="10.1581841920078" lon="-75.6814726044697">
        <ele>52.2778713</ele>
        <time>2019-09-10T15:33:56.500Z</time>
      </trkpt>
      <trkpt lat="10.1581859544532" lon="-75.6814746965502">
        <ele>52.2778713</ele>
        <time>2019-09-10T15:33:56.600Z</time>
      </trkpt>
      <trkpt lat="10.1581877044964" lon="-75.6814767950016">
        <ele>52.2778713</ele>
        <time>2019-09-10T15:33:56.700Z</time>
      </trkpt>
      <trkpt lat="10.1581894086044" lon="-75.6814788827825">
        <ele>52.2778713</ele>
        <time>2019-09-10T15:33:56.800Z</time>
      </trkpt>
      <trkpt lat="10.1581911222746" lon="-75.6814809854986">
        <ele>52.2778713</ele>
        <time>2019-09-10T15:33:56.900Z</time>
      </trkpt>
      <trkpt lat="10.1581928183577" lon="-75.6814831030627">
        <ele>52.2778713</ele>
        <time>2019-09-10T15:33:57.000Z</time>
      </trkpt>
      <trkpt lat="10.1581945365615" lon="-75.6814852267193">
        <ele>52.2778713</ele>
        <time>2019-09-10T15:33:57.100Z</time>
      </trkpt>
      <trkpt lat="10.1581962621389" lon="-75.681487332203">
        <ele>52.2778713</ele>
        <time>2019-09-10T15:33:57.200Z</time>
      </trkpt>
      <trkpt lat="10.158198011166" lon="-75.6814894374257">
        <ele>52.3778713</ele>
        <time>2019-09-10T15:33:57.300Z</time>
      </trkpt>
      <trkpt lat="10.1581997575093" lon="-75.6814915535276">
        <ele>52.3778713</ele>
        <time>2019-09-10T15:33:57.400Z</time>
      </trkpt>
      <trkpt lat="10.1582015182611" lon="-75.6814936713529">
        <ele>52.3778713</ele>
        <time>2019-09-10T15:33:57.500Z</time>
      </trkpt>
      <trkpt lat="10.1582033180435" lon="-75.6814958082909">
        <ele>52.3778713</ele>
        <time>2019-09-10T15:33:57.600Z</time>
      </trkpt>
      <trkpt lat="10.1582051113902" lon="-75.6814979424089">
        <ele>52.3778713</ele>
        <time>2019-09-10T15:33:57.700Z</time>
      </trkpt>
      <trkpt lat="10.1582068446279" lon="-75.6815000323484">
        <ele>52.3778713</ele>
        <time>2019-09-10T15:33:57.800Z</time>
      </trkpt>
      <trkpt lat="10.1582085669223" lon="-75.6815021209126">
        <ele>52.3778713</ele>
        <time>2019-09-10T15:33:57.900Z</time>
      </trkpt>
      <trkpt lat="10.1582103003684" lon="-75.6815042353435">
        <ele>52.3778713</ele>
        <time>2019-09-10T15:33:58.000Z</time>
      </trkpt>
      <trkpt lat="10.1582120472328" lon="-75.6815063515847">
        <ele>52.3778713</ele>
        <time>2019-09-10T15:33:58.100Z</time>
      </trkpt>
      <trkpt lat="10.1582137878962" lon="-75.6815084523686">
        <ele>52.2778713</ele>
        <time>2019-09-10T15:33:58.200Z</time>
      </trkpt>
      <trkpt lat="10.1582155227232" lon="-75.6815105464683">
        <ele>52.2778713</ele>
        <time>2019-09-10T15:33:58.300Z</time>
      </trkpt>
      <trkpt lat="10.158218951158" lon="-75.6815146565455">
        <ele>52.2778713</ele>
        <time>2019-09-10T15:33:58.500Z</time>
      </trkpt>
      <trkpt lat="10.1582206316079" lon="-75.6815167233512">
        <ele>52.2778713</ele>
        <time>2019-09-10T15:33:58.600Z</time>
      </trkpt>
      <trkpt lat="10.1582223152627" lon="-75.6815188047613">
        <ele>52.2778713</ele>
        <time>2019-09-10T15:33:58.700Z</time>
      </trkpt>
      <trkpt lat="10.1582239671302" lon="-75.6815208083974">
        <ele>52.2778713</ele>
        <time>2019-09-10T15:33:58.800Z</time>
      </trkpt>
      <trkpt lat="10.1582256357252" lon="-75.6815228180389">
        <ele>52.2778713</ele>
        <time>2019-09-10T15:33:58.900Z</time>
      </trkpt>
      <trkpt lat="10.1582291135344" lon="-75.6815269666898">
        <ele>52.3778713</ele>
        <time>2019-09-10T15:33:59.100Z</time>
      </trkpt>
      <trkpt lat="10.1582308532076" lon="-75.681529045924">
        <ele>52.3778713</ele>
        <time>2019-09-10T15:33:59.200Z</time>
      </trkpt>
      <trkpt lat="10.1582325930372" lon="-75.6815311291966">
        <ele>52.3778713</ele>
        <time>2019-09-10T15:33:59.300Z</time>
      </trkpt>
      <trkpt lat="10.1582343345603" lon="-75.681533222861">
        <ele>52.3778713</ele>
        <time>2019-09-10T15:33:59.400Z</time>
      </trkpt>
      <trkpt lat="10.1582360780637" lon="-75.6815353249853">
        <ele>52.3778713</ele>
        <time>2019-09-10T15:33:59.500Z</time>
      </trkpt>
      <trkpt lat="10.1582377826928" lon="-75.6815374029314">
        <ele>52.3778713</ele>
        <time>2019-09-10T15:33:59.600Z</time>
      </trkpt>
      <trkpt lat="10.1582394897971" lon="-75.6815394877357">
        <ele>52.3778713</ele>
        <time>2019-09-10T15:33:59.700Z</time>
      </trkpt>
      <trkpt lat="10.1582411655572" lon="-75.6815415115638">
        <ele>52.3778713</ele>
        <time>2019-09-10T15:33:59.800Z</time>
      </trkpt>
      <trkpt lat="10.1582428422553" lon="-75.6815435479249">
        <ele>52.3778713</ele>
        <time>2019-09-10T15:33:59.900Z</time>
      </trkpt>
      <trkpt lat="10.1582444894329" lon="-75.6815455891599">
        <ele>52.3778713</ele>
        <time>2019-09-10T15:34:00.000Z</time>
      </trkpt>
      <trkpt lat="10.1582461544843" lon="-75.6815476581762">
        <ele>52.3778713</ele>
        <time>2019-09-10T15:34:00.100Z</time>
      </trkpt>
      <trkpt lat="10.1582478413178" lon="-75.681549733372">
        <ele>52.3778713</ele>
        <time>2019-09-10T15:34:00.200Z</time>
      </trkpt>
      <trkpt lat="10.1582495644721" lon="-75.6815518140858">
        <ele>52.3778713</ele>
        <time>2019-09-10T15:34:00.300Z</time>
      </trkpt>
      <trkpt lat="10.1582512933585" lon="-75.6815538545026">
        <ele>52.3778713</ele>
        <time>2019-09-10T15:34:00.400Z</time>
      </trkpt>
      <trkpt lat="10.15825302274" lon="-75.6815558948847">
        <ele>52.3778713</ele>
        <time>2019-09-10T15:34:00.500Z</time>
      </trkpt>
      <trkpt lat="10.1582547484998" lon="-75.6815578919932">
        <ele>52.3778713</ele>
        <time>2019-09-10T15:34:00.600Z</time>
      </trkpt>
      <trkpt lat="10.1582582352719" lon="-75.6815619772657">
        <ele>52.3778713</ele>
        <time>2019-09-10T15:34:00.800Z</time>
      </trkpt>
      <trkpt lat="10.1582599854975" lon="-75.6815640813569">
        <ele>52.3778713</ele>
        <time>2019-09-10T15:34:00.900Z</time>
      </trkpt>
      <trkpt lat="10.158261727177" lon="-75.6815661937163">
        <ele>52.3778713</ele>
        <time>2019-09-10T15:34:01.000Z</time>
      </trkpt>
      <trkpt lat="10.1582634627596" lon="-75.6815683079035">
        <ele>52.3778713</ele>
        <time>2019-09-10T15:34:01.100Z</time>
      </trkpt>
      <trkpt lat="10.1582651638191" lon="-75.6815704416735">
        <ele>52.3778713</ele>
        <time>2019-09-10T15:34:01.200Z</time>
      </trkpt>
      <trkpt lat="10.1582668797301" lon="-75.6815725871408">
        <ele>52.3778713</ele>
        <time>2019-09-10T15:34:01.300Z</time>
      </trkpt>
      <trkpt lat="10.1582686079391" lon="-75.6815747647761">
        <ele>52.3778713</ele>
        <time>2019-09-10T15:34:01.400Z</time>
      </trkpt>
      <trkpt lat="10.1582703609004" lon="-75.6815769321413">
        <ele>52.3778713</ele>
        <time>2019-09-10T15:34:01.500Z</time>
      </trkpt>
      <trkpt lat="10.1582720810584" lon="-75.6815790336041">
        <ele>52.3778713</ele>
        <time>2019-09-10T15:34:01.600Z</time>
      </trkpt>
      <trkpt lat="10.1582738018156" lon="-75.681581148122">
        <ele>52.3778713</ele>
        <time>2019-09-10T15:34:01.700Z</time>
      </trkpt>
      <trkpt lat="10.1582755115255" lon="-75.6815832763566">
        <ele>52.3778713</ele>
        <time>2019-09-10T15:34:01.800Z</time>
      </trkpt>
      <trkpt lat="10.1582772294427" lon="-75.681585415836">
        <ele>52.2778713</ele>
        <time>2019-09-10T15:34:01.900Z</time>
      </trkpt>
      <trkpt lat="10.1582789536392" lon="-75.6815875289962">
        <ele>52.3778713</ele>
        <time>2019-09-10T15:34:02.000Z</time>
      </trkpt>
      <trkpt lat="10.1582807024318" lon="-75.6815896470303">
        <ele>52.2778713</ele>
        <time>2019-09-10T15:34:02.100Z</time>
      </trkpt>
      <trkpt lat="10.1582824348617" lon="-75.6815917659347">
        <ele>52.2778713</ele>
        <time>2019-09-10T15:34:02.200Z</time>
      </trkpt>
      <trkpt lat="10.1582841865984" lon="-75.6815938973722">
        <ele>52.2778713</ele>
        <time>2019-09-10T15:34:02.300Z</time>
      </trkpt>
      <trkpt lat="10.1582859505811" lon="-75.6815959980342">
        <ele>52.2778713</ele>
        <time>2019-09-10T15:34:02.400Z</time>
      </trkpt>
      <trkpt lat="10.1582895359197" lon="-75.6816001815685">
        <ele>52.2778713</ele>
        <time>2019-09-10T15:34:02.600Z</time>
      </trkpt>
      <trkpt lat="10.1582913378386" lon="-75.6816022794106">
        <ele>52.2778713</ele>
        <time>2019-09-10T15:34:02.700Z</time>
      </trkpt>
      <trkpt lat="10.1582949888361" lon="-75.6816064851909">
        <ele>52.2778713</ele>
        <time>2019-09-10T15:34:02.900Z</time>
      </trkpt>
      <trkpt lat="10.1582967765028" lon="-75.6816085599167">
        <ele>52.2778713</ele>
        <time>2019-09-10T15:34:03.000Z</time>
      </trkpt>
      <trkpt lat="10.15829856912" lon="-75.6816106488813">
        <ele>52.2778713</ele>
        <time>2019-09-10T15:34:03.100Z</time>
      </trkpt>
      <trkpt lat="10.158300414134" lon="-75.6816127605097">
        <ele>52.2778713</ele>
        <time>2019-09-10T15:34:03.200Z</time>
      </trkpt>
      <trkpt lat="10.1583022704169" lon="-75.681614888988">
        <ele>52.2778713</ele>
        <time>2019-09-10T15:34:03.300Z</time>
      </trkpt>
      <trkpt lat="10.1583041370567" lon="-75.6816170252645">
        <ele>52.2778713</ele>
        <time>2019-09-10T15:34:03.400Z</time>
      </trkpt>
      <trkpt lat="10.1583059887668" lon="-75.6816191623069">
        <ele>52.2778713</ele>
        <time>2019-09-10T15:34:03.500Z</time>
      </trkpt>
      <trkpt lat="10.1583078036742" lon="-75.6816212783219">
        <ele>52.2778713</ele>
        <time>2019-09-10T15:34:03.600Z</time>
      </trkpt>
      <trkpt lat="10.1583096054758" lon="-75.6816234037017">
        <ele>52.2778713</ele>
        <time>2019-09-10T15:34:03.700Z</time>
      </trkpt>
      <trkpt lat="10.1583113741354" lon="-75.681625549169">
        <ele>52.2778713</ele>
        <time>2019-09-10T15:34:03.800Z</time>
      </trkpt>
      <trkpt lat="10.1583131359554" lon="-75.6816277097456">
        <ele>52.2778713</ele>
        <time>2019-09-10T15:34:03.900Z</time>
      </trkpt>
      <trkpt lat="10.1583148643729" lon="-75.6816298853616">
        <ele>52.2778713</ele>
        <time>2019-09-10T15:34:04.000Z</time>
      </trkpt>
      <trkpt lat="10.1583165914354" lon="-75.6816320743462">
        <ele>52.2778713</ele>
        <time>2019-09-10T15:34:04.100Z</time>
      </trkpt>
      <trkpt lat="10.1583182717551" lon="-75.6816342569598">
        <ele>52.3778713</ele>
        <time>2019-09-10T15:34:04.200Z</time>
      </trkpt>
      <trkpt lat="10.1583199454308" lon="-75.6816364337248">
        <ele>52.2778713</ele>
        <time>2019-09-10T15:34:04.300Z</time>
      </trkpt>
      <trkpt lat="10.1583215794376" lon="-75.6816385793314">
        <ele>52.2778713</ele>
        <time>2019-09-10T15:34:04.400Z</time>
      </trkpt>
      <trkpt lat="10.1583232303541" lon="-75.6816407139368">
        <ele>52.3778713</ele>
        <time>2019-09-10T15:34:04.500Z</time>
      </trkpt>
      <trkpt lat="10.1583248850877" lon="-75.6816427836147">
        <ele>52.2778713</ele>
        <time>2019-09-10T15:34:04.600Z</time>
      </trkpt>
      <trkpt lat="10.1583265683907" lon="-75.6816448527006">
        <ele>52.2778713</ele>
        <time>2019-09-10T15:34:04.700Z</time>
      </trkpt>
      <trkpt lat="10.1583299345798" lon="-75.6816488859787">
        <ele>52.2778713</ele>
        <time>2019-09-10T15:34:04.900Z</time>
      </trkpt>
      <trkpt lat="10.1583316825647" lon="-75.6816509410696">
        <ele>52.2778713</ele>
        <time>2019-09-10T15:34:05.000Z</time>
      </trkpt>
      <trkpt lat="10.1583351893993" lon="-75.6816550803556">
        <ele>52.2778713</ele>
        <time>2019-09-10T15:34:05.200Z</time>
      </trkpt>
      <trkpt lat="10.1583369301538" lon="-75.6816571506949">
        <ele>52.2778713</ele>
        <time>2019-09-10T15:34:05.300Z</time>
      </trkpt>
      <trkpt lat="10.1583386746342" lon="-75.6816592461">
        <ele>52.2778713</ele>
        <time>2019-09-10T15:34:05.400Z</time>
      </trkpt>
      <trkpt lat="10.1583404096696" lon="-75.681661357624">
        <ele>52.2778713</ele>
        <time>2019-09-10T15:34:05.500Z</time>
      </trkpt>
      <trkpt lat="10.1583420984963" lon="-75.6816634522633">
        <ele>52.2778713</ele>
        <time>2019-09-10T15:34:05.600Z</time>
      </trkpt>
      <trkpt lat="10.1583437615285" lon="-75.6816655589481">
        <ele>52.2778713</ele>
        <time>2019-09-10T15:34:05.700Z</time>
      </trkpt>
      <trkpt lat="10.1583453880053" lon="-75.6816676610723">
        <ele>52.2778713</ele>
        <time>2019-09-10T15:34:05.800Z</time>
      </trkpt>
      <trkpt lat="10.1583470227546" lon="-75.6816697741977">
        <ele>52.3778713</ele>
        <time>2019-09-10T15:34:05.900Z</time>
      </trkpt>
      <trkpt lat="10.1583486454144" lon="-75.6816719078632">
        <ele>52.3778713</ele>
        <time>2019-09-10T15:34:06.000Z</time>
      </trkpt>
      <trkpt lat="10.1583502728553" lon="-75.681674048387">
        <ele>52.3778713</ele>
        <time>2019-09-10T15:34:06.100Z</time>
      </trkpt>
      <trkpt lat="10.1583518925838" lon="-75.6816761734535">
        <ele>52.3778713</ele>
        <time>2019-09-10T15:34:06.200Z</time>
      </trkpt>
      <trkpt lat="10.1583535200768" lon="-75.681678297963">
        <ele>52.3778713</ele>
        <time>2019-09-10T15:34:06.300Z</time>
      </trkpt>
      <trkpt lat="10.1583551038884" lon="-75.6816804401578">
        <ele>52.3778713</ele>
        <time>2019-09-10T15:34:06.400Z</time>
      </trkpt>
      <trkpt lat="10.1583566997635" lon="-75.6816826004211">
        <ele>52.3778713</ele>
        <time>2019-09-10T15:34:06.500Z</time>
      </trkpt>
      <trkpt lat="10.1583582975667" lon="-75.6816847773949">
        <ele>52.3778713</ele>
        <time>2019-09-10T15:34:06.600Z</time>
      </trkpt>
      <trkpt lat="10.1583599183375" lon="-75.6816869544731">
        <ele>52.3778713</ele>
        <time>2019-09-10T15:34:06.700Z</time>
      </trkpt>
      <trkpt lat="10.1583615241917" lon="-75.6816891217687">
        <ele>52.3778713</ele>
        <time>2019-09-10T15:34:06.800Z</time>
      </trkpt>
      <trkpt lat="10.158363147581" lon="-75.6816912806045">
        <ele>52.3778713</ele>
        <time>2019-09-10T15:34:06.900Z</time>
      </trkpt>
      <trkpt lat="10.1583647845841" lon="-75.6816934258978">
        <ele>52.3778713</ele>
        <time>2019-09-10T15:34:07.000Z</time>
      </trkpt>
      <trkpt lat="10.1583664537392" lon="-75.6816955595982">
        <ele>52.3778713</ele>
        <time>2019-09-10T15:34:07.100Z</time>
      </trkpt>
      <trkpt lat="10.1583681510729" lon="-75.6816976411823">
        <ele>52.3778713</ele>
        <time>2019-09-10T15:34:07.200Z</time>
      </trkpt>
      <trkpt lat="10.1583698822131" lon="-75.6816997154207">
        <ele>52.3778713</ele>
        <time>2019-09-10T15:34:07.300Z</time>
      </trkpt>
      <trkpt lat="10.1583716314355" lon="-75.6817017946723">
        <ele>52.3778713</ele>
        <time>2019-09-10T15:34:07.400Z</time>
      </trkpt>
      <trkpt lat="10.1583733987011" lon="-75.6817038831495">
        <ele>52.3778713</ele>
        <time>2019-09-10T15:34:07.500Z</time>
      </trkpt>
      <trkpt lat="10.158375178382" lon="-75.6817059589894">
        <ele>52.3778713</ele>
        <time>2019-09-10T15:34:07.600Z</time>
      </trkpt>
      <trkpt lat="10.1583769628961" lon="-75.6817080385891">
        <ele>52.3778713</ele>
        <time>2019-09-10T15:34:07.700Z</time>
      </trkpt>
      <trkpt lat="10.1583787597081" lon="-75.6817100931577">
        <ele>52.3778713</ele>
        <time>2019-09-10T15:34:07.800Z</time>
      </trkpt>
      <trkpt lat="10.1583805708635" lon="-75.6817121545847">
        <ele>52.3778713</ele>
        <time>2019-09-10T15:34:07.900Z</time>
      </trkpt>
      <trkpt lat="10.1583823977172" lon="-75.6817142621051">
        <ele>52.3778713</ele>
        <time>2019-09-10T15:34:08.000Z</time>
      </trkpt>
      <trkpt lat="10.1583842233983" lon="-75.6817163765882">
        <ele>52.3778713</ele>
        <time>2019-09-10T15:34:08.100Z</time>
      </trkpt>
      <trkpt lat="10.1583859942465" lon="-75.681718470183">
        <ele>52.3778713</ele>
        <time>2019-09-10T15:34:08.200Z</time>
      </trkpt>
      <trkpt lat="10.1583877560926" lon="-75.6817205631164">
        <ele>52.3778713</ele>
        <time>2019-09-10T15:34:08.300Z</time>
      </trkpt>
      <trkpt lat="10.1583894924308" lon="-75.6817226282685">
        <ele>52.3778713</ele>
        <time>2019-09-10T15:34:08.400Z</time>
      </trkpt>
      <trkpt lat="10.1583912319998" lon="-75.6817247022632">
        <ele>52.3778713</ele>
        <time>2019-09-10T15:34:08.500Z</time>
      </trkpt>
      <trkpt lat="10.1583929675433" lon="-75.6817267841606">
        <ele>52.3778713</ele>
        <time>2019-09-10T15:34:08.600Z</time>
      </trkpt>
      <trkpt lat="10.1583964240785" lon="-75.6817309829433">
        <ele>52.2778713</ele>
        <time>2019-09-10T15:34:08.800Z</time>
      </trkpt>
      <trkpt lat="10.1583981547758" lon="-75.6817330974264">
        <ele>52.2778713</ele>
        <time>2019-09-10T15:34:08.900Z</time>
      </trkpt>
      <trkpt lat="10.1583998601475" lon="-75.6817352115962">
        <ele>52.2778713</ele>
        <time>2019-09-10T15:34:09.000Z</time>
      </trkpt>
      <trkpt lat="10.1584015804748" lon="-75.681737328203">
        <ele>52.2778713</ele>
        <time>2019-09-10T15:34:09.100Z</time>
      </trkpt>
      <trkpt lat="10.1584032942753" lon="-75.6817394375685">
        <ele>52.2778713</ele>
        <time>2019-09-10T15:34:09.200Z</time>
      </trkpt>
      <trkpt lat="10.1584050213118" lon="-75.681741553653">
        <ele>52.2778713</ele>
        <time>2019-09-10T15:34:09.300Z</time>
      </trkpt>
      <trkpt lat="10.1584067789761" lon="-75.6817436232612">
        <ele>52.2778713</ele>
        <time>2019-09-10T15:34:09.400Z</time>
      </trkpt>
      <trkpt lat="10.1584085454535" lon="-75.6817456937745">
        <ele>52.2778713</ele>
        <time>2019-09-10T15:34:09.500Z</time>
      </trkpt>
      <trkpt lat="10.1584103030071" lon="-75.6817477832962">
        <ele>52.2778713</ele>
        <time>2019-09-10T15:34:09.600Z</time>
      </trkpt>
      <trkpt lat="10.1584120357627" lon="-75.6817498821479">
        <ele>52.2778713</ele>
        <time>2019-09-10T15:34:09.700Z</time>
      </trkpt>
      <trkpt lat="10.1584137755662" lon="-75.6817519328174">
        <ele>52.2778713</ele>
        <time>2019-09-10T15:34:09.800Z</time>
      </trkpt>
      <trkpt lat="10.1584155157214" lon="-75.6817539752709">
        <ele>52.2778713</ele>
        <time>2019-09-10T15:34:09.900Z</time>
      </trkpt>
      <trkpt lat="10.158417276838" lon="-75.6817560050521">
        <ele>52.2778713</ele>
        <time>2019-09-10T15:34:10.000Z</time>
      </trkpt>
      <trkpt lat="10.1584190643875" lon="-75.6817580690205">
        <ele>52.2778713</ele>
        <time>2019-09-10T15:34:10.100Z</time>
      </trkpt>
      <trkpt lat="10.1584208740448" lon="-75.6817601731987">
        <ele>52.2778713</ele>
        <time>2019-09-10T15:34:10.200Z</time>
      </trkpt>
      <trkpt lat="10.1584226858646" lon="-75.6817623071776">
        <ele>52.2778713</ele>
        <time>2019-09-10T15:34:10.300Z</time>
      </trkpt>
      <trkpt lat="10.1584263090808" lon="-75.68176655087">
        <ele>52.2778713</ele>
        <time>2019-09-10T15:34:10.500Z</time>
      </trkpt>
      <trkpt lat="10.1584281278769" lon="-75.6817687276349">
        <ele>52.2778713</ele>
        <time>2019-09-10T15:34:10.600Z</time>
      </trkpt>
      <trkpt lat="10.1584299162211" lon="-75.6817709052354">
        <ele>52.2778713</ele>
        <time>2019-09-10T15:34:10.700Z</time>
      </trkpt>
      <trkpt lat="10.1584316677624" lon="-75.6817730099707">
        <ele>52.2778713</ele>
        <time>2019-09-10T15:34:10.800Z</time>
      </trkpt>
      <trkpt lat="10.1584351963465" lon="-75.6817772111903">
        <ele>52.2778713</ele>
        <time>2019-09-10T15:34:11.000Z</time>
      </trkpt>
      <trkpt lat="10.1584369621074" lon="-75.6817793316962">
        <ele>52.2778713</ele>
        <time>2019-09-10T15:34:11.100Z</time>
      </trkpt>
      <trkpt lat="10.1584386969279" lon="-75.681781464561">
        <ele>52.2778713</ele>
        <time>2019-09-10T15:34:11.200Z</time>
      </trkpt>
      <trkpt lat="10.1584404372981" lon="-75.6817836027871">
        <ele>52.2778713</ele>
        <time>2019-09-10T15:34:11.300Z</time>
      </trkpt>
      <trkpt lat="10.1584421387811" lon="-75.6817856776174">
        <ele>52.2778713</ele>
        <time>2019-09-10T15:34:11.400Z</time>
      </trkpt>
      <trkpt lat="10.158443834128" lon="-75.6817877354237">
        <ele>52.2778713</ele>
        <time>2019-09-10T15:34:11.500Z</time>
      </trkpt>
      <trkpt lat="10.1584454891157" lon="-75.6817897559097">
        <ele>52.2778713</ele>
        <time>2019-09-10T15:34:11.600Z</time>
      </trkpt>
      <trkpt lat="10.1584471451976" lon="-75.6817917877101">
        <ele>52.2778713</ele>
        <time>2019-09-10T15:34:11.700Z</time>
      </trkpt>
      <trkpt lat="10.1584488039177" lon="-75.6817938358382">
        <ele>52.2778713</ele>
        <time>2019-09-10T15:34:11.800Z</time>
      </trkpt>
      <trkpt lat="10.1584522584727" lon="-75.6817980445428">
        <ele>52.3778713</ele>
        <time>2019-09-10T15:34:12.000Z</time>
      </trkpt>
      <trkpt lat="10.1584540160653" lon="-75.6818001788698">
        <ele>52.3778713</ele>
        <time>2019-09-10T15:34:12.100Z</time>
      </trkpt>
      <trkpt lat="10.1584557816764" lon="-75.6818022737876">
        <ele>52.3778713</ele>
        <time>2019-09-10T15:34:12.200Z</time>
      </trkpt>
      <trkpt lat="10.1584575699424" lon="-75.6818043533873">
        <ele>52.3778713</ele>
        <time>2019-09-10T15:34:12.300Z</time>
      </trkpt>
      <trkpt lat="10.1584611426704" lon="-75.6818084299041">
        <ele>52.2778713</ele>
        <time>2019-09-10T15:34:12.500Z</time>
      </trkpt>
      <trkpt lat="10.1584629221233" lon="-75.6818104604861">
        <ele>52.2778713</ele>
        <time>2019-09-10T15:34:12.600Z</time>
      </trkpt>
      <trkpt lat="10.1584647055495" lon="-75.6818125144629">
        <ele>52.2778713</ele>
        <time>2019-09-10T15:34:12.700Z</time>
      </trkpt>
      <trkpt lat="10.1584682625109" lon="-75.6818166195618">
        <ele>52.2778713</ele>
        <time>2019-09-10T15:34:12.900Z</time>
      </trkpt>
      <trkpt lat="10.158470063964" lon="-75.6818186897966">
        <ele>52.2778713</ele>
        <time>2019-09-10T15:34:13.000Z</time>
      </trkpt>
      <trkpt lat="10.1584718498037" lon="-75.6818207825907">
        <ele>52.2778713</ele>
        <time>2019-09-10T15:34:13.100Z</time>
      </trkpt>
      <trkpt lat="10.1584736047843" lon="-75.6818229239152">
        <ele>52.2778713</ele>
        <time>2019-09-10T15:34:13.200Z</time>
      </trkpt>
      <trkpt lat="10.1584770838409" lon="-75.6818271025408">
        <ele>52.2778713</ele>
        <time>2019-09-10T15:34:13.400Z</time>
      </trkpt>
      <trkpt lat="10.158478824527" lon="-75.6818291582931">
        <ele>52.2778713</ele>
        <time>2019-09-10T15:34:13.500Z</time>
      </trkpt>
      <trkpt lat="10.1584805517133" lon="-75.6818312511221">
        <ele>52.2778713</ele>
        <time>2019-09-10T15:34:13.600Z</time>
      </trkpt>
      <trkpt lat="10.1584823160868" lon="-75.6818333906711">
        <ele>52.2778713</ele>
        <time>2019-09-10T15:34:13.700Z</time>
      </trkpt>
      <trkpt lat="10.1584840808511" lon="-75.6818355590807">
        <ele>52.2778713</ele>
        <time>2019-09-10T15:34:13.800Z</time>
      </trkpt>
      <trkpt lat="10.1584876036933" lon="-75.6818399004954">
        <ele>52.3778713</ele>
        <time>2019-09-10T15:34:14.000Z</time>
      </trkpt>
      <trkpt lat="10.1584893661485" lon="-75.681842040114">
        <ele>52.3778713</ele>
        <time>2019-09-10T15:34:14.100Z</time>
      </trkpt>
      <trkpt lat="10.1584911323409" lon="-75.6818441881924">
        <ele>52.3778713</ele>
        <time>2019-09-10T15:34:14.200Z</time>
      </trkpt>
      <trkpt lat="10.1584929011161" lon="-75.6818463414929">
        <ele>52.3778713</ele>
        <time>2019-09-10T15:34:14.300Z</time>
      </trkpt>
      <trkpt lat="10.1584946704547" lon="-75.6818485102854">
        <ele>52.3778713</ele>
        <time>2019-09-10T15:34:14.400Z</time>
      </trkpt>
      <trkpt lat="10.158498173241" lon="-75.6818528083918">
        <ele>52.3778713</ele>
        <time>2019-09-10T15:34:14.600Z</time>
      </trkpt>
      <trkpt lat="10.1584998971427" lon="-75.6818549365567">
        <ele>52.3778713</ele>
        <time>2019-09-10T15:34:14.700Z</time>
      </trkpt>
      <trkpt lat="10.1585016005196" lon="-75.6818570278887">
        <ele>52.3778713</ele>
        <time>2019-09-10T15:34:14.800Z</time>
      </trkpt>
      <trkpt lat="10.1585033005402" lon="-75.6818591204391">
        <ele>52.3778713</ele>
        <time>2019-09-10T15:34:14.900Z</time>
      </trkpt>
      <trkpt lat="10.1585050111189" lon="-75.6818612065838">
        <ele>52.3778713</ele>
        <time>2019-09-10T15:34:15.000Z</time>
      </trkpt>
      <trkpt lat="10.1585067238544" lon="-75.6818632931812">
        <ele>52.3778713</ele>
        <time>2019-09-10T15:34:15.100Z</time>
      </trkpt>
      <trkpt lat="10.1585084307259" lon="-75.6818653755312">
        <ele>52.3778713</ele>
        <time>2019-09-10T15:34:15.200Z</time>
      </trkpt>
      <trkpt lat="10.1585101586678" lon="-75.6818674432594">
        <ele>52.3778713</ele>
        <time>2019-09-10T15:34:15.300Z</time>
      </trkpt>
      <trkpt lat="10.1585118883583" lon="-75.6818694639891">
        <ele>52.3778713</ele>
        <time>2019-09-10T15:34:15.400Z</time>
      </trkpt>
      <trkpt lat="10.1585136307282" lon="-75.6818714828388">
        <ele>52.3778713</ele>
        <time>2019-09-10T15:34:15.500Z</time>
      </trkpt>
      <trkpt lat="10.1585153741709" lon="-75.6818735313499">
        <ele>52.3778713</ele>
        <time>2019-09-10T15:34:15.600Z</time>
      </trkpt>
      <trkpt lat="10.1585171047422" lon="-75.6818755930205">
        <ele>52.3778713</ele>
        <time>2019-09-10T15:34:15.700Z</time>
      </trkpt>
      <trkpt lat="10.1585188395938" lon="-75.6818776650657">
        <ele>52.3778713</ele>
        <time>2019-09-10T15:34:15.800Z</time>
      </trkpt>
      <trkpt lat="10.1585205574454" lon="-75.6818797400352">
        <ele>52.3778713</ele>
        <time>2019-09-10T15:34:15.900Z</time>
      </trkpt>
      <trkpt lat="10.1585222355521" lon="-75.6818818175112">
        <ele>52.3778713</ele>
        <time>2019-09-10T15:34:16.000Z</time>
      </trkpt>
      <trkpt lat="10.1585239290329" lon="-75.6818839043174">
        <ele>52.3778713</ele>
        <time>2019-09-10T15:34:16.100Z</time>
      </trkpt>
      <trkpt lat="10.1585256195067" lon="-75.6818859893829">
        <ele>52.3778713</ele>
        <time>2019-09-10T15:34:16.200Z</time>
      </trkpt>
      <trkpt lat="10.1585273206135" lon="-75.6818880747269">
        <ele>52.3778713</ele>
        <time>2019-09-10T15:34:16.300Z</time>
      </trkpt>
      <trkpt lat="10.1585290357632" lon="-75.6818901585391">
        <ele>52.3778713</ele>
        <time>2019-09-10T15:34:16.400Z</time>
      </trkpt>
      <trkpt lat="10.1585307930595" lon="-75.6818922413765">
        <ele>52.3778713</ele>
        <time>2019-09-10T15:34:16.500Z</time>
      </trkpt>
      <trkpt lat="10.158532585316" lon="-75.6818942998443">
        <ele>52.3778713</ele>
        <time>2019-09-10T15:34:16.600Z</time>
      </trkpt>
      <trkpt lat="10.1585343981959" lon="-75.6818963598439">
        <ele>52.3778713</ele>
        <time>2019-09-10T15:34:16.700Z</time>
      </trkpt>
      <trkpt lat="10.1585362086185" lon="-75.681898400487">
        <ele>52.3778713</ele>
        <time>2019-09-10T15:34:16.800Z</time>
      </trkpt>
      <trkpt lat="10.158538007616" lon="-75.681900443776">
        <ele>52.3778713</ele>
        <time>2019-09-10T15:34:16.900Z</time>
      </trkpt>
      <trkpt lat="10.1585398008471" lon="-75.6819024431301">
        <ele>52.3778713</ele>
        <time>2019-09-10T15:34:17.000Z</time>
      </trkpt>
      <trkpt lat="10.1585433743518" lon="-75.6819063775023">
        <ele>52.3778713</ele>
        <time>2019-09-10T15:34:17.200Z</time>
      </trkpt>
      <trkpt lat="10.1585451610041" lon="-75.6819083357064">
        <ele>52.3778713</ele>
        <time>2019-09-10T15:34:17.300Z</time>
      </trkpt>
      <trkpt lat="10.1585488026934" lon="-75.681912284979">
        <ele>52.3778713</ele>
        <time>2019-09-10T15:34:17.500Z</time>
      </trkpt>
      <trkpt lat="10.1585506132104" lon="-75.6819142866307">
        <ele>52.3778713</ele>
        <time>2019-09-10T15:34:17.600Z</time>
      </trkpt>
      <trkpt lat="10.1585524307103" lon="-75.681916315646">
        <ele>52.3778713</ele>
        <time>2019-09-10T15:34:17.700Z</time>
      </trkpt>
      <trkpt lat="10.1585542212984" lon="-75.6819183537826">
        <ele>52.3778713</ele>
        <time>2019-09-10T15:34:17.800Z</time>
      </trkpt>
      <trkpt lat="10.1585560096654" lon="-75.6819204017366">
        <ele>52.3778713</ele>
        <time>2019-09-10T15:34:17.900Z</time>
      </trkpt>
      <trkpt lat="10.1585577755761" lon="-75.681922425878">
        <ele>52.3778713</ele>
        <time>2019-09-10T15:34:18.000Z</time>
      </trkpt>
      <trkpt lat="10.1585595470431" lon="-75.6819244586533">
        <ele>52.3778713</ele>
        <time>2019-09-10T15:34:18.100Z</time>
      </trkpt>
      <trkpt lat="10.1585612967117" lon="-75.6819265041703">
        <ele>52.3778713</ele>
        <time>2019-09-10T15:34:18.200Z</time>
      </trkpt>
      <trkpt lat="10.1585630445304" lon="-75.6819285643092">
        <ele>52.3778713</ele>
        <time>2019-09-10T15:34:18.300Z</time>
      </trkpt>
      <trkpt lat="10.158564809653" lon="-75.6819306661549">
        <ele>52.3778713</ele>
        <time>2019-09-10T15:34:18.400Z</time>
      </trkpt>
      <trkpt lat="10.158566580169" lon="-75.68193277559">
        <ele>52.3778713</ele>
        <time>2019-09-10T15:34:18.500Z</time>
      </trkpt>
      <trkpt lat="10.1585683069351" lon="-75.6819348362859">
        <ele>52.3778713</ele>
        <time>2019-09-10T15:34:18.600Z</time>
      </trkpt>
      <trkpt lat="10.1585700296823" lon="-75.6819369015075">
        <ele>52.3778713</ele>
        <time>2019-09-10T15:34:18.700Z</time>
      </trkpt>
      <trkpt lat="10.1585717269737" lon="-75.6819389489742">
        <ele>52.3778713</ele>
        <time>2019-09-10T15:34:18.800Z</time>
      </trkpt>
      <trkpt lat="10.1585734326255" lon="-75.6819410060494">
        <ele>52.3778713</ele>
        <time>2019-09-10T15:34:18.900Z</time>
      </trkpt>
      <trkpt lat="10.1585751411889" lon="-75.6819430702963">
        <ele>52.3778713</ele>
        <time>2019-09-10T15:34:19.000Z</time>
      </trkpt>
      <trkpt lat="10.1585768567351" lon="-75.6819451524374">
        <ele>52.3778713</ele>
        <time>2019-09-10T15:34:19.100Z</time>
      </trkpt>
      <trkpt lat="10.1585785519062" lon="-75.6819472244129">
        <ele>52.3778713</ele>
        <time>2019-09-10T15:34:19.200Z</time>
      </trkpt>
      <trkpt lat="10.1585802527899" lon="-75.6819493204796">
        <ele>52.3778713</ele>
        <time>2019-09-10T15:34:19.300Z</time>
      </trkpt>
      <trkpt lat="10.1585819480067" lon="-75.6819514442579">
        <ele>52.3778713</ele>
        <time>2019-09-10T15:34:19.400Z</time>
      </trkpt>
      <trkpt lat="10.1585836397711" lon="-75.6819535901779">
        <ele>52.3778713</ele>
        <time>2019-09-10T15:34:19.500Z</time>
      </trkpt>
      <trkpt lat="10.1585853177914" lon="-75.6819557278818">
        <ele>52.3778713</ele>
        <time>2019-09-10T15:34:19.600Z</time>
      </trkpt>
      <trkpt lat="10.1585870048203" lon="-75.681957864959">
        <ele>52.3778713</ele>
        <time>2019-09-10T15:34:19.700Z</time>
      </trkpt>
      <trkpt lat="10.1585886781182" lon="-75.681959997789">
        <ele>52.3778713</ele>
        <time>2019-09-10T15:34:19.800Z</time>
      </trkpt>
      <trkpt lat="10.158590375732" lon="-75.6819621247702">
        <ele>52.3778713</ele>
        <time>2019-09-10T15:34:19.900Z</time>
      </trkpt>
      <trkpt lat="10.1585920493881" lon="-75.6819642009234">
        <ele>52.3778713</ele>
        <time>2019-09-10T15:34:20.000Z</time>
      </trkpt>
      <trkpt lat="10.1585937419667" lon="-75.6819662883562">
        <ele>52.3778713</ele>
        <time>2019-09-10T15:34:20.100Z</time>
      </trkpt>
      <trkpt lat="10.1585954306371" lon="-75.6819684239017">
        <ele>52.3778713</ele>
        <time>2019-09-10T15:34:20.200Z</time>
      </trkpt>
      <trkpt lat="10.1585971296839" lon="-75.6819705675239">
        <ele>52.3778713</ele>
        <time>2019-09-10T15:34:20.300Z</time>
      </trkpt>
      <trkpt lat="10.1585988138532" lon="-75.6819726823203">
        <ele>52.3778713</ele>
        <time>2019-09-10T15:34:20.400Z</time>
      </trkpt>
      <trkpt lat="10.1586005117536" lon="-75.6819747907807">
        <ele>52.3778713</ele>
        <time>2019-09-10T15:34:20.500Z</time>
      </trkpt>
      <trkpt lat="10.1586021993297" lon="-75.6819768786313">
        <ele>52.3778713</ele>
        <time>2019-09-10T15:34:20.600Z</time>
      </trkpt>
      <trkpt lat="10.1586039049098" lon="-75.6819789658552">
        <ele>52.3778713</ele>
        <time>2019-09-10T15:34:20.700Z</time>
      </trkpt>
      <trkpt lat="10.1586056282139" lon="-75.6819810393626">
        <ele>52.3778713</ele>
        <time>2019-09-10T15:34:20.800Z</time>
      </trkpt>
      <trkpt lat="10.1586073672618" lon="-75.6819831187882">
        <ele>52.3778713</ele>
        <time>2019-09-10T15:34:20.900Z</time>
      </trkpt>
      <trkpt lat="10.1586091483236" lon="-75.6819851970998">
        <ele>52.3778713</ele>
        <time>2019-09-10T15:34:21.000Z</time>
      </trkpt>
      <trkpt lat="10.1586109351305" lon="-75.6819872825135">
        <ele>52.3778713</ele>
        <time>2019-09-10T15:34:21.100Z</time>
      </trkpt>
      <trkpt lat="10.1586127184786" lon="-75.6819893740543">
        <ele>52.3778713</ele>
        <time>2019-09-10T15:34:21.200Z</time>
      </trkpt>
      <trkpt lat="10.158614492499" lon="-75.6819914726972">
        <ele>52.3778713</ele>
        <time>2019-09-10T15:34:21.300Z</time>
      </trkpt>
      <trkpt lat="10.1586162189884" lon="-75.6819935147329">
        <ele>52.3778713</ele>
        <time>2019-09-10T15:34:21.400Z</time>
      </trkpt>
      <trkpt lat="10.1586179422925" lon="-75.681995562478">
        <ele>52.3778713</ele>
        <time>2019-09-10T15:34:21.500Z</time>
      </trkpt>
      <trkpt lat="10.1586196205669" lon="-75.681997620528">
        <ele>52.3778713</ele>
        <time>2019-09-10T15:34:21.600Z</time>
      </trkpt>
      <trkpt lat="10.1586213121033" lon="-75.6819996994663">
        <ele>52.3778713</ele>
        <time>2019-09-10T15:34:21.700Z</time>
      </trkpt>
      <trkpt lat="10.1586230288024" lon="-75.6820018206685">
        <ele>52.3778713</ele>
        <time>2019-09-10T15:34:21.800Z</time>
      </trkpt>
      <trkpt lat="10.1586264493556" lon="-75.6820060150995">
        <ele>52.3778713</ele>
        <time>2019-09-10T15:34:22.000Z</time>
      </trkpt>
      <trkpt lat="10.1586281393222" lon="-75.6820080803907">
        <ele>52.3778713</ele>
        <time>2019-09-10T15:34:22.100Z</time>
      </trkpt>
      <trkpt lat="10.1586298359654" lon="-75.6820101499989">
        <ele>52.3778713</ele>
        <time>2019-09-10T15:34:22.200Z</time>
      </trkpt>
      <trkpt lat="10.1586315550812" lon="-75.6820122417487">
        <ele>52.3778713</ele>
        <time>2019-09-10T15:34:22.300Z</time>
      </trkpt>
      <trkpt lat="10.158633281323" lon="-75.6820143391382">
        <ele>52.3778713</ele>
        <time>2019-09-10T15:34:22.400Z</time>
      </trkpt>
      <trkpt lat="10.1586350145085" lon="-75.6820164510103">
        <ele>52.3778713</ele>
        <time>2019-09-10T15:34:22.500Z</time>
      </trkpt>
      <trkpt lat="10.1586367777095" lon="-75.6820185958162">
        <ele>52.3778713</ele>
        <time>2019-09-10T15:34:22.600Z</time>
      </trkpt>
      <trkpt lat="10.1586385400898" lon="-75.6820207470278">
        <ele>52.3778713</ele>
        <time>2019-09-10T15:34:22.700Z</time>
      </trkpt>
      <trkpt lat="10.1586402671784" lon="-75.6820228525638">
        <ele>52.3778713</ele>
        <time>2019-09-10T15:34:22.800Z</time>
      </trkpt>
      <trkpt lat="10.1586419882222" lon="-75.6820249580302">
        <ele>52.3778713</ele>
        <time>2019-09-10T15:34:22.900Z</time>
      </trkpt>
      <trkpt lat="10.1586437021139" lon="-75.6820270765865">
        <ele>52.3778713</ele>
        <time>2019-09-10T15:34:23.000Z</time>
      </trkpt>
      <trkpt lat="10.1586454199139" lon="-75.6820292085113">
        <ele>52.3778713</ele>
        <time>2019-09-10T15:34:23.100Z</time>
      </trkpt>
      <trkpt lat="10.1586471667784" lon="-75.6820313532476">
        <ele>52.3778713</ele>
        <time>2019-09-10T15:34:23.200Z</time>
      </trkpt>
      <trkpt lat="10.1586489137079" lon="-75.6820334951291">
        <ele>52.3778713</ele>
        <time>2019-09-10T15:34:23.300Z</time>
      </trkpt>
      <trkpt lat="10.1586506673858" lon="-75.6820356111788">
        <ele>52.3778713</ele>
        <time>2019-09-10T15:34:23.400Z</time>
      </trkpt>
      <trkpt lat="10.1586524149537" lon="-75.6820377247916">
        <ele>52.3778713</ele>
        <time>2019-09-10T15:34:23.500Z</time>
      </trkpt>
      <trkpt lat="10.1586541717973" lon="-75.6820398189087">
        <ele>52.3778713</ele>
        <time>2019-09-10T15:34:23.600Z</time>
      </trkpt>
      <trkpt lat="10.1586559266867" lon="-75.6820419201278">
        <ele>52.3778713</ele>
        <time>2019-09-10T15:34:23.700Z</time>
      </trkpt>
      <trkpt lat="10.1586576552865" lon="-75.6820440397981">
        <ele>52.3778713</ele>
        <time>2019-09-10T15:34:23.800Z</time>
      </trkpt>
      <trkpt lat="10.1586593862704" lon="-75.6820461637854">
        <ele>52.3778713</ele>
        <time>2019-09-10T15:34:23.900Z</time>
      </trkpt>
      <trkpt lat="10.158661117619" lon="-75.682048271828">
        <ele>52.3778713</ele>
        <time>2019-09-10T15:34:24.000Z</time>
      </trkpt>
      <trkpt lat="10.1586628584126" lon="-75.6820503820986">
        <ele>52.3778713</ele>
        <time>2019-09-10T15:34:24.100Z</time>
      </trkpt>
      <trkpt lat="10.1586645973302" lon="-75.6820524795578">
        <ele>52.3778713</ele>
        <time>2019-09-10T15:34:24.200Z</time>
      </trkpt>
      <trkpt lat="10.1586663414328" lon="-75.6820545853027">
        <ele>52.3778713</ele>
        <time>2019-09-10T15:34:24.300Z</time>
      </trkpt>
      <trkpt lat="10.1586680791389" lon="-75.68205668311">
        <ele>52.2778713</ele>
        <time>2019-09-10T15:34:24.400Z</time>
      </trkpt>
      <trkpt lat="10.1586732905505" lon="-75.6820629878813">
        <ele>52.2778713</ele>
        <time>2019-09-10T15:34:24.700Z</time>
      </trkpt>
      <trkpt lat="10.1586749960525" lon="-75.6820650815806">
        <ele>52.2778713</ele>
        <time>2019-09-10T15:34:24.800Z</time>
      </trkpt>
      <trkpt lat="10.1586767118983" lon="-75.6820671848885">
        <ele>52.3778713</ele>
        <time>2019-09-10T15:34:24.900Z</time>
      </trkpt>
      <trkpt lat="10.1586784278224" lon="-75.6820692810247">
        <ele>52.3778713</ele>
        <time>2019-09-10T15:34:25.000Z</time>
      </trkpt>
      <trkpt lat="10.1586801568" lon="-75.6820713882318">
        <ele>52.2778713</ele>
        <time>2019-09-10T15:34:25.100Z</time>
      </trkpt>
      <trkpt lat="10.1586836744996" lon="-75.68207560188">
        <ele>52.2778713</ele>
        <time>2019-09-10T15:34:25.300Z</time>
      </trkpt>
      <trkpt lat="10.1586854334145" lon="-75.6820777029598">
        <ele>52.2778713</ele>
        <time>2019-09-10T15:34:25.400Z</time>
      </trkpt>
      <trkpt lat="10.1586871925639" lon="-75.682079810515">
        <ele>52.2778713</ele>
        <time>2019-09-10T15:34:25.500Z</time>
      </trkpt>
      <trkpt lat="10.158688943024" lon="-75.6820819407687">
        <ele>52.2778713</ele>
        <time>2019-09-10T15:34:25.600Z</time>
      </trkpt>
      <trkpt lat="10.1586906937055" lon="-75.6820840792385">
        <ele>52.2778713</ele>
        <time>2019-09-10T15:34:25.700Z</time>
      </trkpt>
      <trkpt lat="10.1586924348117" lon="-75.6820862062894">
        <ele>52.2778713</ele>
        <time>2019-09-10T15:34:25.800Z</time>
      </trkpt>
      <trkpt lat="10.1586941782369" lon="-75.6820883362646">
        <ele>52.2778713</ele>
        <time>2019-09-10T15:34:25.900Z</time>
      </trkpt>
      <trkpt lat="10.1586959444733" lon="-75.6820904477886">
        <ele>52.3778713</ele>
        <time>2019-09-10T15:34:26.000Z</time>
      </trkpt>
      <trkpt lat="10.1586977115696" lon="-75.6820925653005">
        <ele>52.3778713</ele>
        <time>2019-09-10T15:34:26.100Z</time>
      </trkpt>
      <trkpt lat="10.1586994647914" lon="-75.6820946612975">
        <ele>52.3778713</ele>
        <time>2019-09-10T15:34:26.200Z</time>
      </trkpt>
      <trkpt lat="10.1587012122161" lon="-75.6820967673209">
        <ele>52.3778713</ele>
        <time>2019-09-10T15:34:26.300Z</time>
      </trkpt>
      <trkpt lat="10.1587029472645" lon="-75.6820988853898">
        <ele>52.3778713</ele>
        <time>2019-09-10T15:34:26.400Z</time>
      </trkpt>
      <trkpt lat="10.1587046839675" lon="-75.682101013137">
        <ele>52.3778713</ele>
        <time>2019-09-10T15:34:26.500Z</time>
      </trkpt>
      <trkpt lat="10.1587063914366" lon="-75.6821030905434">
        <ele>52.3778713</ele>
        <time>2019-09-10T15:34:26.600Z</time>
      </trkpt>
      <trkpt lat="10.1587081060318" lon="-75.6821051737986">
        <ele>52.3778713</ele>
        <time>2019-09-10T15:34:26.700Z</time>
      </trkpt>
      <trkpt lat="10.1587098520625" lon="-75.6821072760621">
        <ele>52.3778713</ele>
        <time>2019-09-10T15:34:26.800Z</time>
      </trkpt>
      <trkpt lat="10.1587116104172" lon="-75.6821093955236">
        <ele>52.2778713</ele>
        <time>2019-09-10T15:34:26.900Z</time>
      </trkpt>
      <trkpt lat="10.1587133688111" lon="-75.6821115025914">
        <ele>52.2778713</ele>
        <time>2019-09-10T15:34:27.000Z</time>
      </trkpt>
      <trkpt lat="10.1587151320772" lon="-75.6821136113998">
        <ele>52.3778713</ele>
        <time>2019-09-10T15:34:27.100Z</time>
      </trkpt>
      <trkpt lat="10.1587168947441" lon="-75.68211573859">
        <ele>52.3778713</ele>
        <time>2019-09-10T15:34:27.200Z</time>
      </trkpt>
      <trkpt lat="10.1587186616579" lon="-75.6821178726036">
        <ele>52.3778713</ele>
        <time>2019-09-10T15:34:27.300Z</time>
      </trkpt>
      <trkpt lat="10.158722225957" lon="-75.6821221186286">
        <ele>52.3778713</ele>
        <time>2019-09-10T15:34:27.500Z</time>
      </trkpt>
      <trkpt lat="10.1587239761826" lon="-75.6821242584909">
        <ele>52.3778713</ele>
        <time>2019-09-10T15:34:27.600Z</time>
      </trkpt>
      <trkpt lat="10.1587257203894" lon="-75.6821264027398">
        <ele>52.3778713</ele>
        <time>2019-09-10T15:34:27.700Z</time>
      </trkpt>
      <trkpt lat="10.1587274402087" lon="-75.6821285246382">
        <ele>52.3778713</ele>
        <time>2019-09-10T15:34:27.800Z</time>
      </trkpt>
      <trkpt lat="10.1587291648742" lon="-75.6821306438909">
        <ele>52.3778713</ele>
        <time>2019-09-10T15:34:27.900Z</time>
      </trkpt>
      <trkpt lat="10.1587326013991" lon="-75.6821348393662">
        <ele>52.3778713</ele>
        <time>2019-09-10T15:34:28.100Z</time>
      </trkpt>
      <trkpt lat="10.1587343189776" lon="-75.6821369201148">
        <ele>52.3778713</ele>
        <time>2019-09-10T15:34:28.200Z</time>
      </trkpt>
      <trkpt lat="10.1587377676572" lon="-75.682141082726">
        <ele>52.3778713</ele>
        <time>2019-09-10T15:34:28.400Z</time>
      </trkpt>
      <trkpt lat="10.1587394964394" lon="-75.6821431675827">
        <ele>52.3778713</ele>
        <time>2019-09-10T15:34:28.500Z</time>
      </trkpt>
      <trkpt lat="10.1587411978116" lon="-75.6821452493757">
        <ele>52.3778713</ele>
        <time>2019-09-10T15:34:28.600Z</time>
      </trkpt>
      <trkpt lat="10.1587429073391" lon="-75.6821473387581">
        <ele>52.3778713</ele>
        <time>2019-09-10T15:34:28.700Z</time>
      </trkpt>
      <trkpt lat="10.1587446322391" lon="-75.6821494281405">
        <ele>52.3778713</ele>
        <time>2019-09-10T15:34:28.800Z</time>
      </trkpt>
      <trkpt lat="10.1587463686033" lon="-75.682151526087">
        <ele>52.3778713</ele>
        <time>2019-09-10T15:34:28.900Z</time>
      </trkpt>
      <trkpt lat="10.1587481139305" lon="-75.6821536290468">
        <ele>52.3778713</ele>
        <time>2019-09-10T15:34:29.000Z</time>
      </trkpt>
      <trkpt lat="10.1587498648075" lon="-75.682155736602">
        <ele>52.3778713</ele>
        <time>2019-09-10T15:34:29.100Z</time>
      </trkpt>
      <trkpt lat="10.1587516191237" lon="-75.6821578100397">
        <ele>52.3778713</ele>
        <time>2019-09-10T15:34:29.200Z</time>
      </trkpt>
      <trkpt lat="10.1587533814909" lon="-75.6821598899527">
        <ele>52.3778713</ele>
        <time>2019-09-10T15:34:29.300Z</time>
      </trkpt>
      <trkpt lat="10.158756845517" lon="-75.6821640634955">
        <ele>52.3778713</ele>
        <time>2019-09-10T15:34:29.500Z</time>
      </trkpt>
      <trkpt lat="10.1587585674988" lon="-75.6821661576822">
        <ele>52.3778713</ele>
        <time>2019-09-10T15:34:29.600Z</time>
      </trkpt>
      <trkpt lat="10.1587603018828" lon="-75.6821682628004">
        <ele>52.3778713</ele>
        <time>2019-09-10T15:34:29.700Z</time>
      </trkpt>
      <trkpt lat="10.1587620233175" lon="-75.6821703676401">
        <ele>52.3778713</ele>
        <time>2019-09-10T15:34:29.800Z</time>
      </trkpt>
      <trkpt lat="10.158763752256" lon="-75.6821724799996">
        <ele>52.3778713</ele>
        <time>2019-09-10T15:34:29.900Z</time>
      </trkpt>
      <trkpt lat="10.1587654716063" lon="-75.6821745879725">
        <ele>52.3778713</ele>
        <time>2019-09-10T15:34:30.000Z</time>
      </trkpt>
      <trkpt lat="10.1587672005448" lon="-75.6821767032563">
        <ele>52.3778713</ele>
        <time>2019-09-10T15:34:30.100Z</time>
      </trkpt>
      <trkpt lat="10.1587689277898" lon="-75.682178807539">
        <ele>52.3778713</ele>
        <time>2019-09-10T15:34:30.200Z</time>
      </trkpt>
      <trkpt lat="10.1587724009872" lon="-75.6821830506396">
        <ele>52.3778713</ele>
        <time>2019-09-10T15:34:30.400Z</time>
      </trkpt>
      <trkpt lat="10.1587741376381" lon="-75.6821851890398">
        <ele>52.3778713</ele>
        <time>2019-09-10T15:34:30.500Z</time>
      </trkpt>
      <trkpt lat="10.1587758333824" lon="-75.6821873130271">
        <ele>52.3778713</ele>
        <time>2019-09-10T15:34:30.600Z</time>
      </trkpt>
      <trkpt lat="10.1587775342075" lon="-75.6821894374321">
        <ele>52.3778713</ele>
        <time>2019-09-10T15:34:30.700Z</time>
      </trkpt>
      <trkpt lat="10.1587792342509" lon="-75.6821915757627">
        <ele>52.3778713</ele>
        <time>2019-09-10T15:34:30.800Z</time>
      </trkpt>
      <trkpt lat="10.1587809434136" lon="-75.6821937175049">
        <ele>52.3778713</ele>
        <time>2019-09-10T15:34:30.900Z</time>
      </trkpt>
      <trkpt lat="10.1587843268513" lon="-75.6821979643654">
        <ele>52.3778713</ele>
        <time>2019-09-10T15:34:31.100Z</time>
      </trkpt>
      <trkpt lat="10.1587860399743" lon="-75.6822000669771">
        <ele>52.3778713</ele>
        <time>2019-09-10T15:34:31.200Z</time>
      </trkpt>
      <trkpt lat="10.1587877660729" lon="-75.6822021797543">
        <ele>52.3778713</ele>
        <time>2019-09-10T15:34:31.300Z</time>
      </trkpt>
      <trkpt lat="10.158791245237" lon="-75.6822064494526">
        <ele>52.3778713</ele>
        <time>2019-09-10T15:34:31.500Z</time>
      </trkpt>
      <trkpt lat="10.1587946886534" lon="-75.6822106236916">
        <ele>52.4778713</ele>
        <time>2019-09-10T15:34:31.700Z</time>
      </trkpt>
      <trkpt lat="10.1587964170969" lon="-75.6822126932998">
        <ele>52.4778713</ele>
        <time>2019-09-10T15:34:31.800Z</time>
      </trkpt>
      <trkpt lat="10.1587998898775" lon="-75.6822168537526">
        <ele>52.3778713</ele>
        <time>2019-09-10T15:34:32.000Z</time>
      </trkpt>
      <trkpt lat="10.1588033588019" lon="-75.6822210176171">
        <ele>52.3778713</ele>
        <time>2019-09-10T15:34:32.200Z</time>
      </trkpt>
      <trkpt lat="10.1588050916487" lon="-75.6822231086009">
        <ele>52.3778713</ele>
        <time>2019-09-10T15:34:32.300Z</time>
      </trkpt>
      <trkpt lat="10.1588084852218" lon="-75.682227289176">
        <ele>52.3778713</ele>
        <time>2019-09-10T15:34:32.500Z</time>
      </trkpt>
      <trkpt lat="10.1588101894601" lon="-75.6822293791155">
        <ele>52.3778713</ele>
        <time>2019-09-10T15:34:32.600Z</time>
      </trkpt>
      <trkpt lat="10.1588119058401" lon="-75.6822314774798">
        <ele>52.3778713</ele>
        <time>2019-09-10T15:34:32.700Z</time>
      </trkpt>
      <trkpt lat="10.1588136054145" lon="-75.6822335709702">
        <ele>52.3778713</ele>
        <time>2019-09-10T15:34:32.800Z</time>
      </trkpt>
      <trkpt lat="10.1588153130139" lon="-75.6822356718412">
        <ele>52.3778713</ele>
        <time>2019-09-10T15:34:32.900Z</time>
      </trkpt>
      <trkpt lat="10.1588170364809" lon="-75.6822377683256">
        <ele>52.4778713</ele>
        <time>2019-09-10T15:34:33.000Z</time>
      </trkpt>
      <trkpt lat="10.1588187710734" lon="-75.6822398698231">
        <ele>52.4778713</ele>
        <time>2019-09-10T15:34:33.100Z</time>
      </trkpt>
      <trkpt lat="10.1588204890166" lon="-75.6822419665861">
        <ele>52.4778713</ele>
        <time>2019-09-10T15:34:33.200Z</time>
      </trkpt>
      <trkpt lat="10.1588222147504" lon="-75.682244070451">
        <ele>52.4778713</ele>
        <time>2019-09-10T15:34:33.300Z</time>
      </trkpt>
      <trkpt lat="10.1588256311998" lon="-75.6822482728195">
        <ele>52.4778713</ele>
        <time>2019-09-10T15:34:33.500Z</time>
      </trkpt>
      <trkpt lat="10.1588273521395" lon="-75.6822503384589">
        <ele>52.4778713</ele>
        <time>2019-09-10T15:34:33.600Z</time>
      </trkpt>
      <trkpt lat="10.1588308283072" lon="-75.682254491183">
        <ele>52.4778713</ele>
        <time>2019-09-10T15:34:33.800Z</time>
      </trkpt>
      <trkpt lat="10.1588325735041" lon="-75.682256585509">
        <ele>52.4778713</ele>
        <time>2019-09-10T15:34:33.900Z</time>
      </trkpt>
      <trkpt lat="10.1588343082529" lon="-75.6822587137435">
        <ele>52.4778713</ele>
        <time>2019-09-10T15:34:34.000Z</time>
      </trkpt>
      <trkpt lat="10.1588377480999" lon="-75.6822629317783">
        <ele>52.4778713</ele>
        <time>2019-09-10T15:34:34.200Z</time>
      </trkpt>
      <trkpt lat="10.1588394532762" lon="-75.6822650206036">
        <ele>52.4778713</ele>
        <time>2019-09-10T15:34:34.300Z</time>
      </trkpt>
      <trkpt lat="10.1588411524858" lon="-75.6822671024663">
        <ele>52.4778713</ele>
        <time>2019-09-10T15:34:34.400Z</time>
      </trkpt>
      <trkpt lat="10.1588445402225" lon="-75.682271286105">
        <ele>52.4778713</ele>
        <time>2019-09-10T15:34:34.600Z</time>
      </trkpt>
      <trkpt lat="10.158846230808" lon="-75.6822733841212">
        <ele>52.4778713</ele>
        <time>2019-09-10T15:34:34.700Z</time>
      </trkpt>
      <trkpt lat="10.1588479388242" lon="-75.6822754443297">
        <ele>52.4778713</ele>
        <time>2019-09-10T15:34:34.800Z</time>
      </trkpt>
      <trkpt lat="10.158849663125" lon="-75.6822775119186">
        <ele>52.4778713</ele>
        <time>2019-09-10T15:34:34.900Z</time>
      </trkpt>
      <trkpt lat="10.1588531610227" lon="-75.6822816528757">
        <ele>52.4778713</ele>
        <time>2019-09-10T15:34:35.100Z</time>
      </trkpt>
      <trkpt lat="10.1588566855226" lon="-75.6822857654944">
        <ele>52.4778713</ele>
        <time>2019-09-10T15:34:35.300Z</time>
      </trkpt>
      <trkpt lat="10.1588584439816" lon="-75.6822878374003">
        <ele>52.4778713</ele>
        <time>2019-09-10T15:34:35.400Z</time>
      </trkpt>
      <trkpt lat="10.1588619500085" lon="-75.6822920143547">
        <ele>52.4778713</ele>
        <time>2019-09-10T15:34:35.600Z</time>
      </trkpt>
      <trkpt lat="10.1588637000517" lon="-75.6822941115354">
        <ele>52.4778713</ele>
        <time>2019-09-10T15:34:35.700Z</time>
      </trkpt>
      <trkpt lat="10.158865437406" lon="-75.6822962122671">
        <ele>52.4778713</ele>
        <time>2019-09-10T15:34:35.800Z</time>
      </trkpt>
      <trkpt lat="10.158868907998" lon="-75.6823004266115">
        <ele>52.3778713</ele>
        <time>2019-09-10T15:34:36.000Z</time>
      </trkpt>
      <trkpt lat="10.1588723783033" lon="-75.6823046160294">
        <ele>52.3778713</ele>
        <time>2019-09-10T15:34:36.200Z</time>
      </trkpt>
      <trkpt lat="10.1588741176899" lon="-75.6823067015126">
        <ele>52.3778713</ele>
        <time>2019-09-10T15:34:36.300Z</time>
      </trkpt>
      <trkpt lat="10.1588758501459" lon="-75.6823087874136">
        <ele>52.3778713</ele>
        <time>2019-09-10T15:34:36.400Z</time>
      </trkpt>
      <trkpt lat="10.1588793246461" lon="-75.6823129876933">
        <ele>52.3778713</ele>
        <time>2019-09-10T15:34:36.600Z</time>
      </trkpt>
      <trkpt lat="10.1588810712761" lon="-75.6823151029075">
        <ele>52.3778713</ele>
        <time>2019-09-10T15:34:36.700Z</time>
      </trkpt>
      <trkpt lat="10.1588827965669" lon="-75.682317235459">
        <ele>52.3778713</ele>
        <time>2019-09-10T15:34:36.800Z</time>
      </trkpt>
      <trkpt lat="10.1588844918162" lon="-75.6823192912113">
        <ele>52.3778713</ele>
        <time>2019-09-10T15:34:36.900Z</time>
      </trkpt>
      <trkpt lat="10.1588877898452" lon="-75.6823228381064">
        <ele>52.3778713</ele>
        <time>2019-09-10T15:34:37.100Z</time>
      </trkpt>
      <trkpt lat="10.1588911490516" lon="-75.6823253508241">
        <ele>52.3778713</ele>
        <time>2019-09-10T15:34:37.300Z</time>
      </trkpt>
      <trkpt lat="10.1588928751762" lon="-75.6823260646454">
        <ele>52.3778713</ele>
        <time>2019-09-10T15:34:37.400Z</time>
      </trkpt>
      <trkpt lat="10.1588946114622" lon="-75.6823265071978">
        <ele>52.3778713</ele>
        <time>2019-09-10T15:34:37.500Z</time>
      </trkpt>
      <trkpt lat="10.1588964338344" lon="-75.6823265144391">
        <ele>52.3778713</ele>
        <time>2019-09-10T15:34:37.600Z</time>
      </trkpt>
      <trkpt lat="10.1589001871503" lon="-75.6823255653465">
        <ele>52.3778713</ele>
        <time>2019-09-10T15:34:37.800Z</time>
      </trkpt>
      <trkpt lat="10.1589021050925" lon="-75.6823246230773">
        <ele>52.3778713</ele>
        <time>2019-09-10T15:34:37.900Z</time>
      </trkpt>
      <trkpt lat="10.1589061610384" lon="-75.6823217847814">
        <ele>52.4778713</ele>
        <time>2019-09-10T15:34:38.100Z</time>
      </trkpt>
      <trkpt lat="10.1589083077966" lon="-75.6823199510712">
        <ele>52.4778713</ele>
        <time>2019-09-10T15:34:38.200Z</time>
      </trkpt>
      <trkpt lat="10.1589103992398" lon="-75.6823179441278">
        <ele>52.4778713</ele>
        <time>2019-09-10T15:34:38.300Z</time>
      </trkpt>
      <trkpt lat="10.1589125449297" lon="-75.682315815754">
        <ele>52.4778713</ele>
        <time>2019-09-10T15:34:38.400Z</time>
      </trkpt>
      <trkpt lat="10.1589146253516" lon="-75.6823136039664">
        <ele>52.4778713</ele>
        <time>2019-09-10T15:34:38.500Z</time>
      </trkpt>
      <trkpt lat="10.1589188527401" lon="-75.6823091994693">
        <ele>52.4778713</ele>
        <time>2019-09-10T15:34:38.700Z</time>
      </trkpt>
      <trkpt lat="10.1589209910043" lon="-75.6823070627402">
        <ele>52.4778713</ele>
        <time>2019-09-10T15:34:38.800Z</time>
      </trkpt>
      <trkpt lat="10.1589230749437" lon="-75.6823048726764">
        <ele>52.3778713</ele>
        <time>2019-09-10T15:34:38.900Z</time>
      </trkpt>
      <trkpt lat="10.1589252085701" lon="-75.6823028160189">
        <ele>52.3778713</ele>
        <time>2019-09-10T15:34:39.000Z</time>
      </trkpt>
      <trkpt lat="10.1589272949846" lon="-75.6823007019187">
        <ele>52.3778713</ele>
        <time>2019-09-10T15:34:39.100Z</time>
      </trkpt>
      <trkpt lat="10.1589314547341" lon="-75.6822965665319">
        <ele>52.3778713</ele>
        <time>2019-09-10T15:34:39.300Z</time>
      </trkpt>
      <trkpt lat="10.158933493103" lon="-75.6822945289524">
        <ele>52.3778713</ele>
        <time>2019-09-10T15:34:39.400Z</time>
      </trkpt>
      <trkpt lat="10.1589355065112" lon="-75.6822924392914">
        <ele>52.3778713</ele>
        <time>2019-09-10T15:34:39.500Z</time>
      </trkpt>
      <trkpt lat="10.1589374714829" lon="-75.6822903953758">
        <ele>52.3778713</ele>
        <time>2019-09-10T15:34:39.600Z</time>
      </trkpt>
      <trkpt lat="10.1589413466846" lon="-75.6822862685531">
        <ele>52.3778713</ele>
        <time>2019-09-10T15:34:39.800Z</time>
      </trkpt>
      <trkpt lat="10.1589432767424" lon="-75.682284197622">
        <ele>52.3778713</ele>
        <time>2019-09-10T15:34:39.900Z</time>
      </trkpt>
      <trkpt lat="10.1589451540648" lon="-75.682282134907">
        <ele>52.3778713</ele>
        <time>2019-09-10T15:34:40.000Z</time>
      </trkpt>
      <trkpt lat="10.1589470505898" lon="-75.6822800640455">
        <ele>52.3778713</ele>
        <time>2019-09-10T15:34:40.100Z</time>
      </trkpt>
      <trkpt lat="10.1589507892887" lon="-75.682275913271">
        <ele>52.3778713</ele>
        <time>2019-09-10T15:34:40.300Z</time>
      </trkpt>
      <trkpt lat="10.1589526428228" lon="-75.6822738174132">
        <ele>52.3778713</ele>
        <time>2019-09-10T15:34:40.400Z</time>
      </trkpt>
      <trkpt lat="10.158954525773" lon="-75.6822717373609">
        <ele>52.3778713</ele>
        <time>2019-09-10T15:34:40.500Z</time>
      </trkpt>
      <trkpt lat="10.1589582168954" lon="-75.6822676046199">
        <ele>52.3778713</ele>
        <time>2019-09-10T15:34:40.700Z</time>
      </trkpt>
      <trkpt lat="10.1589600637854" lon="-75.6822655772756">
        <ele>52.3778713</ele>
        <time>2019-09-10T15:34:40.800Z</time>
      </trkpt>
      <trkpt lat="10.1589619493411" lon="-75.6822635782697">
        <ele>52.3778713</ele>
        <time>2019-09-10T15:34:40.900Z</time>
      </trkpt>
      <trkpt lat="10.1589656694889" lon="-75.6822596070645">
        <ele>52.3778713</ele>
        <time>2019-09-10T15:34:41.100Z</time>
      </trkpt>
      <trkpt lat="10.1589675032471" lon="-75.682257641828">
        <ele>52.3778713</ele>
        <time>2019-09-10T15:34:41.200Z</time>
      </trkpt>
      <trkpt lat="10.1589693802568" lon="-75.6822556965049">
        <ele>52.3778713</ele>
        <time>2019-09-10T15:34:41.300Z</time>
      </trkpt>
      <trkpt lat="10.1589712478866" lon="-75.6822537724182">
        <ele>52.3778713</ele>
        <time>2019-09-10T15:34:41.400Z</time>
      </trkpt>
      <trkpt lat="10.1589731615819" lon="-75.6822518644851">
        <ele>52.3778713</ele>
        <time>2019-09-10T15:34:41.500Z</time>
      </trkpt>
      <trkpt lat="10.1589750266584" lon="-75.6822499587105">
        <ele>52.3778713</ele>
        <time>2019-09-10T15:34:41.600Z</time>
      </trkpt>
      <trkpt lat="10.1589788513392" lon="-75.6822461954131">
        <ele>52.3778713</ele>
        <time>2019-09-10T15:34:41.800Z</time>
      </trkpt>
      <trkpt lat="10.1589807540913" lon="-75.6822443775779">
        <ele>52.3778713</ele>
        <time>2019-09-10T15:34:41.900Z</time>
      </trkpt>
      <trkpt lat="10.1589840346373" lon="-75.6822408281762">
        <ele>52.3778713</ele>
        <time>2019-09-10T15:34:42.100Z</time>
      </trkpt>
      <trkpt lat="10.1589864006492" lon="-75.6822372710459">
        <ele>52.3778713</ele>
        <time>2019-09-10T15:34:42.300Z</time>
      </trkpt>
      <trkpt lat="10.1589871434802" lon="-75.6822354154727">
        <ele>52.3778713</ele>
        <time>2019-09-10T15:34:42.400Z</time>
      </trkpt>
      <trkpt lat="10.1589876751607" lon="-75.682233529333">
        <ele>52.2778713</ele>
        <time>2019-09-10T15:34:42.500Z</time>
      </trkpt>
      <trkpt lat="10.1589877972028" lon="-75.6822315640964">
        <ele>52.2778713</ele>
        <time>2019-09-10T15:34:42.600Z</time>
      </trkpt>
      <trkpt lat="10.1589876827688" lon="-75.6822295893905">
        <ele>52.2778713</ele>
        <time>2019-09-10T15:34:42.700Z</time>
      </trkpt>
      <trkpt lat="10.1589871696396" lon="-75.6822275180417">
        <ele>52.2778713</ele>
        <time>2019-09-10T15:34:42.800Z</time>
      </trkpt>
      <trkpt lat="10.1589864190441" lon="-75.6822254599917">
        <ele>52.2778713</ele>
        <time>2019-09-10T15:34:42.900Z</time>
      </trkpt>
      <trkpt lat="10.1589853012281" lon="-75.68222324897">
        <ele>52.2778713</ele>
        <time>2019-09-10T15:34:43.000Z</time>
      </trkpt>
      <trkpt lat="10.1589839375039" lon="-75.6822210880105">
        <ele>52.2778713</ele>
        <time>2019-09-10T15:34:43.100Z</time>
      </trkpt>
      <trkpt lat="10.1589803069336" lon="-75.6822166773165">
        <ele>52.2778713</ele>
        <time>2019-09-10T15:34:43.300Z</time>
      </trkpt>
      <trkpt lat="10.1589782728117" lon="-75.6822144325255">
        <ele>52.3778713</ele>
        <time>2019-09-10T15:34:43.400Z</time>
      </trkpt>
      <trkpt lat="10.1589761786066" lon="-75.6822122657869">
        <ele>52.3778713</ele>
        <time>2019-09-10T15:34:43.500Z</time>
      </trkpt>
      <trkpt lat="10.158974051051" lon="-75.6822100244773">
        <ele>52.3778713</ele>
        <time>2019-09-10T15:34:43.600Z</time>
      </trkpt>
      <trkpt lat="10.1589698107913" lon="-75.6822056498503">
        <ele>52.3778713</ele>
        <time>2019-09-10T15:34:43.800Z</time>
      </trkpt>
      <trkpt lat="10.158965660109" lon="-75.6822013010551">
        <ele>52.4778713</ele>
        <time>2019-09-10T15:34:44.000Z</time>
      </trkpt>
      <trkpt lat="10.1589635845595" lon="-75.6821991521412">
        <ele>52.4778713</ele>
        <time>2019-09-10T15:34:44.100Z</time>
      </trkpt>
      <trkpt lat="10.1589615581498" lon="-75.6821969854722">
        <ele>52.3778713</ele>
        <time>2019-09-10T15:34:44.200Z</time>
      </trkpt>
      <trkpt lat="10.158959507561" lon="-75.6821948823036">
        <ele>52.3778713</ele>
        <time>2019-09-10T15:34:44.300Z</time>
      </trkpt>
      <trkpt lat="10.1589574698956" lon="-75.6821927881169">
        <ele>52.3778713</ele>
        <time>2019-09-10T15:34:44.400Z</time>
      </trkpt>
      <trkpt lat="10.1589554159717" lon="-75.6821907462901">
        <ele>52.3778713</ele>
        <time>2019-09-10T15:34:44.500Z</time>
      </trkpt>
      <trkpt lat="10.1589514349342" lon="-75.6821867553107">
        <ele>52.3778713</ele>
        <time>2019-09-10T15:34:44.700Z</time>
      </trkpt>
      <trkpt lat="10.1589494492747" lon="-75.6821848441747">
        <ele>52.3778713</ele>
        <time>2019-09-10T15:34:44.800Z</time>
      </trkpt>
      <trkpt lat="10.1589474571797" lon="-75.6821829385394">
        <ele>52.4778713</ele>
        <time>2019-09-10T15:34:44.900Z</time>
      </trkpt>
      <trkpt lat="10.1589454790501" lon="-75.6821810812255">
        <ele>52.4778713</ele>
        <time>2019-09-10T15:34:45.000Z</time>
      </trkpt>
      <trkpt lat="10.1589415034842" lon="-75.6821773539951">
        <ele>52.4778713</ele>
        <time>2019-09-10T15:34:45.200Z</time>
      </trkpt>
      <trkpt lat="10.1589395096695" lon="-75.682175470919">
        <ele>52.4778713</ele>
        <time>2019-09-10T15:34:45.300Z</time>
      </trkpt>
      <trkpt lat="10.1589355093251" lon="-75.6821717438975">
        <ele>52.4778713</ele>
        <time>2019-09-10T15:34:45.500Z</time>
      </trkpt>
      <trkpt lat="10.1589335265578" lon="-75.6821698631191">
        <ele>52.4778713</ele>
        <time>2019-09-10T15:34:45.600Z</time>
      </trkpt>
      <trkpt lat="10.1589315772712" lon="-75.6821679501728">
        <ele>52.4778713</ele>
        <time>2019-09-10T15:34:45.700Z</time>
      </trkpt>
      <trkpt lat="10.1589296282973" lon="-75.6821660741291">
        <ele>52.4778713</ele>
        <time>2019-09-10T15:34:45.800Z</time>
      </trkpt>
      <trkpt lat="10.1589277108241" lon="-75.6821641713485">
        <ele>52.4778713</ele>
        <time>2019-09-10T15:34:45.900Z</time>
      </trkpt>
      <trkpt lat="10.1589258058052" lon="-75.6821622788031">
        <ele>52.4778713</ele>
        <time>2019-09-10T15:34:46.000Z</time>
      </trkpt>
      <trkpt lat="10.1589220426925" lon="-75.6821584367569">
        <ele>52.4778713</ele>
        <time>2019-09-10T15:34:46.200Z</time>
      </trkpt>
      <trkpt lat="10.158920180404" lon="-75.6821564883006">
        <ele>52.4778713</ele>
        <time>2019-09-10T15:34:46.300Z</time>
      </trkpt>
      <trkpt lat="10.1589183139466" lon="-75.6821545626125">
        <ele>52.4778713</ele>
        <time>2019-09-10T15:34:46.400Z</time>
      </trkpt>
      <trkpt lat="10.1589164739091" lon="-75.6821526026676">
        <ele>52.4778713</ele>
        <time>2019-09-10T15:34:46.500Z</time>
      </trkpt>
      <trkpt lat="10.1589146456746" lon="-75.6821506845689">
        <ele>52.4778713</ele>
        <time>2019-09-10T15:34:46.600Z</time>
      </trkpt>
      <trkpt lat="10.1589128393524" lon="-75.6821487343719">
        <ele>52.4778713</ele>
        <time>2019-09-10T15:34:46.700Z</time>
      </trkpt>
      <trkpt lat="10.1589110294085" lon="-75.6821468328446">
        <ele>52.4778713</ele>
        <time>2019-09-10T15:34:46.800Z</time>
      </trkpt>
      <trkpt lat="10.1589092389539" lon="-75.6821448881481">
        <ele>52.4778713</ele>
        <time>2019-09-10T15:34:46.900Z</time>
      </trkpt>
      <trkpt lat="10.1589074616311" lon="-75.6821429954635">
        <ele>52.4778713</ele>
        <time>2019-09-10T15:34:47.000Z</time>
      </trkpt>
      <trkpt lat="10.1589039421597" lon="-75.6821391383081">
        <ele>52.4778713</ele>
        <time>2019-09-10T15:34:47.200Z</time>
      </trkpt>
      <trkpt lat="10.1589021938622" lon="-75.682137167571">
        <ele>52.4778713</ele>
        <time>2019-09-10T15:34:47.300Z</time>
      </trkpt>
      <trkpt lat="10.1589004647413" lon="-75.6821352173044">
        <ele>52.4778713</ele>
        <time>2019-09-10T15:34:47.400Z</time>
      </trkpt>
      <trkpt lat="10.1588970277083" lon="-75.6821312292494">
        <ele>52.4778713</ele>
        <time>2019-09-10T15:34:47.600Z</time>
      </trkpt>
      <trkpt lat="10.158893600446" lon="-75.6821271799221">
        <ele>52.4778713</ele>
        <time>2019-09-10T15:34:47.800Z</time>
      </trkpt>
      <trkpt lat="10.1588901629701" lon="-75.682123114302">
        <ele>52.4778713</ele>
        <time>2019-09-10T15:34:48.000Z</time>
      </trkpt>
      <trkpt lat="10.1588884461472" lon="-75.682121063354">
        <ele>52.4778713</ele>
        <time>2019-09-10T15:34:48.100Z</time>
      </trkpt>
      <trkpt lat="10.1588867108252" lon="-75.6821190229894">
        <ele>52.4778713</ele>
        <time>2019-09-10T15:34:48.200Z</time>
      </trkpt>
      <trkpt lat="10.1588849863942" lon="-75.6821169512227">
        <ele>52.4778713</ele>
        <time>2019-09-10T15:34:48.300Z</time>
      </trkpt>
      <trkpt lat="10.1588832768667" lon="-75.6821148646254">
        <ele>52.3778713</ele>
        <time>2019-09-10T15:34:48.400Z</time>
      </trkpt>
      <trkpt lat="10.1588798885307" lon="-75.68211068224">
        <ele>52.3778713</ele>
        <time>2019-09-10T15:34:48.600Z</time>
      </trkpt>
      <trkpt lat="10.1588781966686" lon="-75.6821085895851">
        <ele>52.3778713</ele>
        <time>2019-09-10T15:34:48.700Z</time>
      </trkpt>
      <trkpt lat="10.158876507412" lon="-75.6821065002723">
        <ele>52.3778713</ele>
        <time>2019-09-10T15:34:48.800Z</time>
      </trkpt>
      <trkpt lat="10.1588748177906" lon="-75.6821043886091">
        <ele>52.3778713</ele>
        <time>2019-09-10T15:34:48.900Z</time>
      </trkpt>
      <trkpt lat="10.1588713925606" lon="-75.6821001783031">
        <ele>52.3778713</ele>
        <time>2019-09-10T15:34:49.100Z</time>
      </trkpt>
      <trkpt lat="10.1588696871498" lon="-75.6820980912184">
        <ele>52.3778713</ele>
        <time>2019-09-10T15:34:49.200Z</time>
      </trkpt>
      <trkpt lat="10.1588679876796" lon="-75.6820959930629">
        <ele>52.3778713</ele>
        <time>2019-09-10T15:34:49.300Z</time>
      </trkpt>
      <trkpt lat="10.1588662949837" lon="-75.682093911061">
        <ele>52.3778713</ele>
        <time>2019-09-10T15:34:49.400Z</time>
      </trkpt>
      <trkpt lat="10.158864606613" lon="-75.6820918066391">
        <ele>52.3778713</ele>
        <time>2019-09-10T15:34:49.500Z</time>
      </trkpt>
      <trkpt lat="10.1588628592795" lon="-75.6820896676819">
        <ele>52.3778713</ele>
        <time>2019-09-10T15:34:49.600Z</time>
      </trkpt>
      <trkpt lat="10.1588594181298" lon="-75.6820854103773">
        <ele>52.4778713</ele>
        <time>2019-09-10T15:34:49.800Z</time>
      </trkpt>
      <trkpt lat="10.1588577279613" lon="-75.6820833011511">
        <ele>52.4778713</ele>
        <time>2019-09-10T15:34:49.900Z</time>
      </trkpt>
      <trkpt lat="10.1588543511938" lon="-75.6820791213418">
        <ele>52.4778713</ele>
        <time>2019-09-10T15:34:50.100Z</time>
      </trkpt>
      <trkpt lat="10.1588526893732" lon="-75.6820770744322">
        <ele>52.4778713</ele>
        <time>2019-09-10T15:34:50.200Z</time>
      </trkpt>
      <trkpt lat="10.158849319849" lon="-75.6820729492806">
        <ele>52.4778713</ele>
        <time>2019-09-10T15:34:50.400Z</time>
      </trkpt>
      <trkpt lat="10.1588476077681" lon="-75.6820708640759">
        <ele>52.4778713</ele>
        <time>2019-09-10T15:34:50.500Z</time>
      </trkpt>
      <trkpt lat="10.158844185352" lon="-75.6820666289824">
        <ele>52.3778713</ele>
        <time>2019-09-10T15:34:50.700Z</time>
      </trkpt>
      <trkpt lat="10.1588424558663" lon="-75.6820644802774">
        <ele>52.3778713</ele>
        <time>2019-09-10T15:34:50.800Z</time>
      </trkpt>
      <trkpt lat="10.1588390271189" lon="-75.6820601531363">
        <ele>52.3778713</ele>
        <time>2019-09-10T15:34:51.000Z</time>
      </trkpt>
      <trkpt lat="10.1588373339801" lon="-75.6820579810365">
        <ele>52.3778713</ele>
        <time>2019-09-10T15:34:51.100Z</time>
      </trkpt>
      <trkpt lat="10.1588356524879" lon="-75.6820558411741">
        <ele>52.3778713</ele>
        <time>2019-09-10T15:34:51.200Z</time>
      </trkpt>
      <trkpt lat="10.1588322714212" lon="-75.6820515262875">
        <ele>52.4778713</ele>
        <time>2019-09-10T15:34:51.400Z</time>
      </trkpt>
      <trkpt lat="10.1588305685378" lon="-75.6820493463197">
        <ele>52.4778713</ele>
        <time>2019-09-10T15:34:51.500Z</time>
      </trkpt>
      <trkpt lat="10.1588288897554" lon="-75.6820472396697">
        <ele>52.4778713</ele>
        <time>2019-09-10T15:34:51.600Z</time>
      </trkpt>
      <trkpt lat="10.1588272114419" lon="-75.682045133716">
        <ele>52.4778713</ele>
        <time>2019-09-10T15:34:51.700Z</time>
      </trkpt>
      <trkpt lat="10.1588237865245" lon="-75.6820408507884">
        <ele>52.4778713</ele>
        <time>2019-09-10T15:34:51.900Z</time>
      </trkpt>
      <trkpt lat="10.1588221028177" lon="-75.6820387293774">
        <ele>52.4778713</ele>
        <time>2019-09-10T15:34:52.000Z</time>
      </trkpt>
      <trkpt lat="10.1588204195016" lon="-75.6820366072004">
        <ele>52.4778713</ele>
        <time>2019-09-10T15:34:52.100Z</time>
      </trkpt>
      <trkpt lat="10.1588187104431" lon="-75.6820344594702">
        <ele>52.4778713</ele>
        <time>2019-09-10T15:34:52.200Z</time>
      </trkpt>
      <trkpt lat="10.1588169950011" lon="-75.6820323095118">
        <ele>52.4778713</ele>
        <time>2019-09-10T15:34:52.300Z</time>
      </trkpt>
      <trkpt lat="10.1588152537385" lon="-75.6820301975701">
        <ele>52.4778713</ele>
        <time>2019-09-10T15:34:52.400Z</time>
      </trkpt>
      <trkpt lat="10.1588135226114" lon="-75.6820280907112">
        <ele>52.4778713</ele>
        <time>2019-09-10T15:34:52.500Z</time>
      </trkpt>
      <trkpt lat="10.1588118345273" lon="-75.6820260429661">
        <ele>52.4778713</ele>
        <time>2019-09-10T15:34:52.600Z</time>
      </trkpt>
      <trkpt lat="10.1588101524358" lon="-75.6820239858908">
        <ele>52.4778713</ele>
        <time>2019-09-10T15:34:52.700Z</time>
      </trkpt>
      <trkpt lat="10.1588084491615" lon="-75.6820219313918">
        <ele>52.4778713</ele>
        <time>2019-09-10T15:34:52.800Z</time>
      </trkpt>
      <trkpt lat="10.1588050022276" lon="-75.6820177510952">
        <ele>52.4778713</ele>
        <time>2019-09-10T15:34:53.000Z</time>
      </trkpt>
      <trkpt lat="10.1588032731328" lon="-75.682015647091">
        <ele>52.4778713</ele>
        <time>2019-09-10T15:34:53.100Z</time>
      </trkpt>
      <trkpt lat="10.1588015840846" lon="-75.6820135868826">
        <ele>52.4778713</ele>
        <time>2019-09-10T15:34:53.200Z</time>
      </trkpt>
      <trkpt lat="10.1587999029832" lon="-75.682011530991">
        <ele>52.4778713</ele>
        <time>2019-09-10T15:34:53.300Z</time>
      </trkpt>
      <trkpt lat="10.1587981783438" lon="-75.6820094681367">
        <ele>52.4778713</ele>
        <time>2019-09-10T15:34:53.400Z</time>
      </trkpt>
      <trkpt lat="10.1587964516199" lon="-75.6820073891288">
        <ele>52.4778713</ele>
        <time>2019-09-10T15:34:53.500Z</time>
      </trkpt>
      <trkpt lat="10.1587947714305" lon="-75.6820053223753">
        <ele>52.4778713</ele>
        <time>2019-09-10T15:34:53.600Z</time>
      </trkpt>
      <trkpt lat="10.1587914498998" lon="-75.6820011853174">
        <ele>52.4778713</ele>
        <time>2019-09-10T15:34:53.800Z</time>
      </trkpt>
      <trkpt lat="10.1587897932121" lon="-75.6819991182158">
        <ele>52.4778713</ele>
        <time>2019-09-10T15:34:53.900Z</time>
      </trkpt>
      <trkpt lat="10.1587881048413" lon="-75.6819970390687">
        <ele>52.4778713</ele>
        <time>2019-09-10T15:34:54.000Z</time>
      </trkpt>
      <trkpt lat="10.1587864041465" lon="-75.6819949455086">
        <ele>52.3778713</ele>
        <time>2019-09-10T15:34:54.100Z</time>
      </trkpt>
      <trkpt lat="10.1587846688506" lon="-75.6819928720709">
        <ele>52.3778713</ele>
        <time>2019-09-10T15:34:54.200Z</time>
      </trkpt>
      <trkpt lat="10.1587829310272" lon="-75.6819907898602">
        <ele>52.4778713</ele>
        <time>2019-09-10T15:34:54.300Z</time>
      </trkpt>
      <trkpt lat="10.158781198936" lon="-75.6819887373803">
        <ele>52.4778713</ele>
        <time>2019-09-10T15:34:54.400Z</time>
      </trkpt>
      <trkpt lat="10.1587794696327" lon="-75.6819866737601">
        <ele>52.4778713</ele>
        <time>2019-09-10T15:34:54.500Z</time>
      </trkpt>
      <trkpt lat="10.1587777227422" lon="-75.6819846079815">
        <ele>52.4778713</ele>
        <time>2019-09-10T15:34:54.600Z</time>
      </trkpt>
      <trkpt lat="10.1587759791607" lon="-75.6819825327334">
        <ele>52.4778713</ele>
        <time>2019-09-10T15:34:54.700Z</time>
      </trkpt>
      <trkpt lat="10.158774232635" lon="-75.6819804536559">
        <ele>52.4778713</ele>
        <time>2019-09-10T15:34:54.800Z</time>
      </trkpt>
      <trkpt lat="10.1587724928315" lon="-75.681978366432">
        <ele>52.4778713</ele>
        <time>2019-09-10T15:34:54.900Z</time>
      </trkpt>
      <trkpt lat="10.1587708125118" lon="-75.6819763369292">
        <ele>52.4778713</ele>
        <time>2019-09-10T15:34:55.000Z</time>
      </trkpt>
      <trkpt lat="10.1587691329737" lon="-75.681974300046">
        <ele>52.3778713</ele>
        <time>2019-09-10T15:34:55.100Z</time>
      </trkpt>
      <trkpt lat="10.1587674738889" lon="-75.6819722801518">
        <ele>52.3778713</ele>
        <time>2019-09-10T15:34:55.200Z</time>
      </trkpt>
      <trkpt lat="10.1587657965655" lon="-75.6819702365147">
        <ele>52.3778713</ele>
        <time>2019-09-10T15:34:55.300Z</time>
      </trkpt>
      <trkpt lat="10.1587640982939" lon="-75.6819681719197">
        <ele>52.3778713</ele>
        <time>2019-09-10T15:34:55.400Z</time>
      </trkpt>
      <trkpt lat="10.1587623868904" lon="-75.6819660927029">
        <ele>52.3778713</ele>
        <time>2019-09-10T15:34:55.500Z</time>
      </trkpt>
      <trkpt lat="10.1587589804722" lon="-75.6819618869923">
        <ele>52.3778713</ele>
        <time>2019-09-10T15:34:55.700Z</time>
      </trkpt>
      <trkpt lat="10.1587572856137" lon="-75.6819598040156">
        <ele>52.3778713</ele>
        <time>2019-09-10T15:34:55.800Z</time>
      </trkpt>
      <trkpt lat="10.1587538939687" lon="-75.6819556314477">
        <ele>52.3778713</ele>
        <time>2019-09-10T15:34:56.000Z</time>
      </trkpt>
      <trkpt lat="10.1587521957492" lon="-75.6819535355899">
        <ele>52.3778713</ele>
        <time>2019-09-10T15:34:56.100Z</time>
      </trkpt>
      <trkpt lat="10.1587504823655" lon="-75.6819514300539">
        <ele>52.3778713</ele>
        <time>2019-09-10T15:34:56.200Z</time>
      </trkpt>
      <trkpt lat="10.1587487610872" lon="-75.6819493214543">
        <ele>52.3778713</ele>
        <time>2019-09-10T15:34:56.300Z</time>
      </trkpt>
      <trkpt lat="10.1587470534617" lon="-75.6819472448138">
        <ele>52.3778713</ele>
        <time>2019-09-10T15:34:56.400Z</time>
      </trkpt>
      <trkpt lat="10.1587453426836" lon="-75.6819451597483">
        <ele>52.3778713</ele>
        <time>2019-09-10T15:34:56.500Z</time>
      </trkpt>
      <trkpt lat="10.1587436478773" lon="-75.6819430746828">
        <ele>52.3778713</ele>
        <time>2019-09-10T15:34:56.600Z</time>
      </trkpt>
      <trkpt lat="10.1587419434566" lon="-75.6819409786858">
        <ele>52.3778713</ele>
        <time>2019-09-10T15:34:56.700Z</time>
      </trkpt>
      <trkpt lat="10.1587402557633" lon="-75.6819388819229">
        <ele>52.3778713</ele>
        <time>2019-09-10T15:34:56.800Z</time>
      </trkpt>
      <trkpt lat="10.1587385577522" lon="-75.6819367710952">
        <ele>52.3778713</ele>
        <time>2019-09-10T15:34:56.900Z</time>
      </trkpt>
      <trkpt lat="10.1587368442643" lon="-75.6819346509374">
        <ele>52.3778713</ele>
        <time>2019-09-10T15:34:57.000Z</time>
      </trkpt>
      <trkpt lat="10.1587351239891" lon="-75.6819325156705">
        <ele>52.3778713</ele>
        <time>2019-09-10T15:34:57.100Z</time>
      </trkpt>
      <trkpt lat="10.1587333960537" lon="-75.6819303875752">
        <ele>52.3778713</ele>
        <time>2019-09-10T15:34:57.200Z</time>
      </trkpt>
      <trkpt lat="10.15873166705" lon="-75.6819282558593">
        <ele>52.3778713</ele>
        <time>2019-09-10T15:34:57.300Z</time>
      </trkpt>
      <trkpt lat="10.1587298931273" lon="-75.681926086823">
        <ele>52.3778713</ele>
        <time>2019-09-10T15:34:57.400Z</time>
      </trkpt>
      <trkpt lat="10.1587281211328" lon="-75.6819239270472">
        <ele>52.3778713</ele>
        <time>2019-09-10T15:34:57.500Z</time>
      </trkpt>
      <trkpt lat="10.1587263346385" lon="-75.6819218367597">
        <ele>52.3778713</ele>
        <time>2019-09-10T15:34:57.600Z</time>
      </trkpt>
      <trkpt lat="10.1587245546971" lon="-75.6819197439655">
        <ele>52.3778713</ele>
        <time>2019-09-10T15:34:57.700Z</time>
      </trkpt>
      <trkpt lat="10.1587227754331" lon="-75.6819176726863">
        <ele>52.3778713</ele>
        <time>2019-09-10T15:34:57.800Z</time>
      </trkpt>
      <trkpt lat="10.158720998905" lon="-75.6819155884563">
        <ele>52.4778713</ele>
        <time>2019-09-10T15:34:57.900Z</time>
      </trkpt>
      <trkpt lat="10.1587192031611" lon="-75.6819134875854">
        <ele>52.4778713</ele>
        <time>2019-09-10T15:34:58.000Z</time>
      </trkpt>
      <trkpt lat="10.1587174126023" lon="-75.681911382119">
        <ele>52.4778713</ele>
        <time>2019-09-10T15:34:58.100Z</time>
      </trkpt>
      <trkpt lat="10.1587156486848" lon="-75.6819092906478">
        <ele>52.4778713</ele>
        <time>2019-09-10T15:34:58.200Z</time>
      </trkpt>
      <trkpt lat="10.1587139001267" lon="-75.6819072019616">
        <ele>52.4778713</ele>
        <time>2019-09-10T15:34:58.300Z</time>
      </trkpt>
      <trkpt lat="10.1587121535619" lon="-75.6819051152251">
        <ele>52.4778713</ele>
        <time>2019-09-10T15:34:58.400Z</time>
      </trkpt>
      <trkpt lat="10.1587104143447" lon="-75.6819030200636">
        <ele>52.3778713</ele>
        <time>2019-09-10T15:34:58.500Z</time>
      </trkpt>
      <trkpt lat="10.1587087206978" lon="-75.6819009469044">
        <ele>52.3778713</ele>
        <time>2019-09-10T15:34:58.600Z</time>
      </trkpt>
      <trkpt lat="10.1587070280019" lon="-75.6818988619782">
        <ele>52.3778713</ele>
        <time>2019-09-10T15:34:58.700Z</time>
      </trkpt>
      <trkpt lat="10.1587053798602" lon="-75.6818967971047">
        <ele>52.3778713</ele>
        <time>2019-09-10T15:34:58.800Z</time>
      </trkpt>
      <trkpt lat="10.1587037232637" lon="-75.681894717122">
        <ele>52.3778713</ele>
        <time>2019-09-10T15:34:58.900Z</time>
      </trkpt>
      <trkpt lat="10.158702030164" lon="-75.6818925702273">
        <ele>52.3778713</ele>
        <time>2019-09-10T15:34:59.000Z</time>
      </trkpt>
      <trkpt lat="10.1587003134062" lon="-75.6818904130277">
        <ele>52.3778713</ele>
        <time>2019-09-10T15:34:59.100Z</time>
      </trkpt>
      <trkpt lat="10.1586986041002" lon="-75.6818882730957">
        <ele>52.3778713</ele>
        <time>2019-09-10T15:34:59.200Z</time>
      </trkpt>
      <trkpt lat="10.1586968930094" lon="-75.6818861455574">
        <ele>52.3778713</ele>
        <time>2019-09-10T15:34:59.300Z</time>
      </trkpt>
      <trkpt lat="10.158695133391" lon="-75.6818840018656">
        <ele>52.3778713</ele>
        <time>2019-09-10T15:34:59.400Z</time>
      </trkpt>
      <trkpt lat="10.1586933742937" lon="-75.6818818709852">
        <ele>52.3778713</ele>
        <time>2019-09-10T15:34:59.500Z</time>
      </trkpt>
      <trkpt lat="10.158691662812" lon="-75.6818797718549">
        <ele>52.3778713</ele>
        <time>2019-09-10T15:34:59.600Z</time>
      </trkpt>
      <trkpt lat="10.1586899512132" lon="-75.6818776829599">
        <ele>52.3778713</ele>
        <time>2019-09-10T15:34:59.700Z</time>
      </trkpt>
      <trkpt lat="10.158688228606" lon="-75.6818756313156">
        <ele>52.3778713</ele>
        <time>2019-09-10T15:34:59.800Z</time>
      </trkpt>
      <trkpt lat="10.1586864978306" lon="-75.6818735656762">
        <ele>52.3778713</ele>
        <time>2019-09-10T15:34:59.900Z</time>
      </trkpt>
      <trkpt lat="10.1586847818675" lon="-75.6818714788701">
        <ele>52.3778713</ele>
        <time>2019-09-10T15:35:00.000Z</time>
      </trkpt>
      <trkpt lat="10.1586830451776" lon="-75.681869358573">
        <ele>52.3778713</ele>
        <time>2019-09-10T15:35:00.100Z</time>
      </trkpt>
      <trkpt lat="10.1586813005409" lon="-75.6818672183626">
        <ele>52.3778713</ele>
        <time>2019-09-10T15:35:00.200Z</time>
      </trkpt>
      <trkpt lat="10.158677843706" lon="-75.6818629334854">
        <ele>52.3778713</ele>
        <time>2019-09-10T15:35:00.400Z</time>
      </trkpt>
      <trkpt lat="10.1586744353076" lon="-75.681858689236">
        <ele>52.3778713</ele>
        <time>2019-09-10T15:35:00.600Z</time>
      </trkpt>
      <trkpt lat="10.1586727244643" lon="-75.6818565687997">
        <ele>52.3778713</ele>
        <time>2019-09-10T15:35:00.700Z</time>
      </trkpt>
      <trkpt lat="10.1586710439231" lon="-75.6818544755181">
        <ele>52.3778713</ele>
        <time>2019-09-10T15:35:00.800Z</time>
      </trkpt>
      <trkpt lat="10.1586676464548" lon="-75.6818502670224">
        <ele>52.3778713</ele>
        <time>2019-09-10T15:35:01.000Z</time>
      </trkpt>
      <trkpt lat="10.1586659321853" lon="-75.6818481520867">
        <ele>52.3778713</ele>
        <time>2019-09-10T15:35:01.100Z</time>
      </trkpt>
      <trkpt lat="10.1586642457687" lon="-75.6818460477692">
        <ele>52.3778713</ele>
        <time>2019-09-10T15:35:01.200Z</time>
      </trkpt>
      <trkpt lat="10.1586608446397" lon="-75.6818418273672">
        <ele>52.3778713</ele>
        <time>2019-09-10T15:35:01.400Z</time>
      </trkpt>
      <trkpt lat="10.1586591284681" lon="-75.6818397129537">
        <ele>52.3778713</ele>
        <time>2019-09-10T15:35:01.500Z</time>
      </trkpt>
      <trkpt lat="10.1586574282293" lon="-75.6818376360694">
        <ele>52.3778713</ele>
        <time>2019-09-10T15:35:01.600Z</time>
      </trkpt>
      <trkpt lat="10.1586557237956" lon="-75.6818355589414">
        <ele>52.3778713</ele>
        <time>2019-09-10T15:35:01.700Z</time>
      </trkpt>
      <trkpt lat="10.1586540304874" lon="-75.681833486583">
        <ele>52.3778713</ele>
        <time>2019-09-10T15:35:01.800Z</time>
      </trkpt>
      <trkpt lat="10.1586523223799" lon="-75.6818314086195">
        <ele>52.3778713</ele>
        <time>2019-09-10T15:35:01.900Z</time>
      </trkpt>
      <trkpt lat="10.158650592308" lon="-75.681829327105">
        <ele>52.3778713</ele>
        <time>2019-09-10T15:35:02.000Z</time>
      </trkpt>
      <trkpt lat="10.1586488480491" lon="-75.6818272315954">
        <ele>52.3778713</ele>
        <time>2019-09-10T15:35:02.100Z</time>
      </trkpt>
      <trkpt lat="10.1586471221069" lon="-75.6818251181567">
        <ele>52.3778713</ele>
        <time>2019-09-10T15:35:02.200Z</time>
      </trkpt>
      <trkpt lat="10.1586453853909" lon="-75.6818229924984">
        <ele>52.3778713</ele>
        <time>2019-09-10T15:35:02.300Z</time>
      </trkpt>
      <trkpt lat="10.1586436432815" lon="-75.681820863672">
        <ele>52.3778713</ele>
        <time>2019-09-10T15:35:02.400Z</time>
      </trkpt>
      <trkpt lat="10.158641894515" lon="-75.6818187341145">
        <ele>52.3778713</ele>
        <time>2019-09-10T15:35:02.500Z</time>
      </trkpt>
      <trkpt lat="10.1586401194199" lon="-75.6818165884731">
        <ele>52.3778713</ele>
        <time>2019-09-10T15:35:02.600Z</time>
      </trkpt>
      <trkpt lat="10.1586383393743" lon="-75.6818144471834">
        <ele>52.3778713</ele>
        <time>2019-09-10T15:35:02.700Z</time>
      </trkpt>
      <trkpt lat="10.1586365755219" lon="-75.6818123265034">
        <ele>52.3778713</ele>
        <time>2019-09-10T15:35:02.800Z</time>
      </trkpt>
      <trkpt lat="10.1586348141969" lon="-75.6818102039783">
        <ele>52.3778713</ele>
        <time>2019-09-10T15:35:02.900Z</time>
      </trkpt>
      <trkpt lat="10.1586330686873" lon="-75.6818080625493">
        <ele>52.3778713</ele>
        <time>2019-09-10T15:35:03.000Z</time>
      </trkpt>
      <trkpt lat="10.1586313111403" lon="-75.6818059158983">
        <ele>52.3778713</ele>
        <time>2019-09-10T15:35:03.100Z</time>
      </trkpt>
      <trkpt lat="10.1586295304954" lon="-75.681803755287">
        <ele>52.3778713</ele>
        <time>2019-09-10T15:35:03.200Z</time>
      </trkpt>
      <trkpt lat="10.1586277526775" lon="-75.6818016013947">
        <ele>52.3778713</ele>
        <time>2019-09-10T15:35:03.300Z</time>
      </trkpt>
      <trkpt lat="10.1586259408642" lon="-75.6817994447173">
        <ele>52.3778713</ele>
        <time>2019-09-10T15:35:03.400Z</time>
      </trkpt>
      <trkpt lat="10.1586241413293" lon="-75.6817972991107">
        <ele>52.3778713</ele>
        <time>2019-09-10T15:35:03.500Z</time>
      </trkpt>
      <trkpt lat="10.1586223705463" lon="-75.6817951863334">
        <ele>52.3778713</ele>
        <time>2019-09-10T15:35:03.600Z</time>
      </trkpt>
      <trkpt lat="10.1586206085243" lon="-75.6817930713629">
        <ele>52.3778713</ele>
        <time>2019-09-10T15:35:03.700Z</time>
      </trkpt>
      <trkpt lat="10.1586188660111" lon="-75.6817909457394">
        <ele>52.3778713</ele>
        <time>2019-09-10T15:35:03.800Z</time>
      </trkpt>
      <trkpt lat="10.1586171167495" lon="-75.6817888172263">
        <ele>52.3778713</ele>
        <time>2019-09-10T15:35:03.900Z</time>
      </trkpt>
      <trkpt lat="10.1586153434913" lon="-75.6817867071298">
        <ele>52.3778713</ele>
        <time>2019-09-10T15:35:04.000Z</time>
      </trkpt>
      <trkpt lat="10.1586135592964" lon="-75.6817845988435">
        <ele>52.3778713</ele>
        <time>2019-09-10T15:35:04.100Z</time>
      </trkpt>
      <trkpt lat="10.1586117538405" lon="-75.6817824745777">
        <ele>52.3778713</ele>
        <time>2019-09-10T15:35:04.200Z</time>
      </trkpt>
      <trkpt lat="10.158608162392" lon="-75.6817782402502">
        <ele>52.3778713</ele>
        <time>2019-09-10T15:35:04.400Z</time>
      </trkpt>
      <trkpt lat="10.1586063846978" lon="-75.6817761342616">
        <ele>52.3778713</ele>
        <time>2019-09-10T15:35:04.500Z</time>
      </trkpt>
      <trkpt lat="10.1586046071014" lon="-75.6817740420941">
        <ele>52.3778713</ele>
        <time>2019-09-10T15:35:04.600Z</time>
      </trkpt>
      <trkpt lat="10.1586028339213" lon="-75.6817719527117">
        <ele>52.3778713</ele>
        <time>2019-09-10T15:35:04.700Z</time>
      </trkpt>
      <trkpt lat="10.1586010460005" lon="-75.6817698728683">
        <ele>52.3778713</ele>
        <time>2019-09-10T15:35:04.800Z</time>
      </trkpt>
      <trkpt lat="10.1585992661698" lon="-75.6817677868976">
        <ele>52.3778713</ele>
        <time>2019-09-10T15:35:04.900Z</time>
      </trkpt>
      <trkpt lat="10.1585974773567" lon="-75.6817656996737">
        <ele>52.3778713</ele>
        <time>2019-09-10T15:35:05.000Z</time>
      </trkpt>
      <trkpt lat="10.1585956908103" lon="-75.6817636103609">
        <ele>52.3778713</ele>
        <time>2019-09-10T15:35:05.100Z</time>
      </trkpt>
      <trkpt lat="10.1585938995805" lon="-75.6817614827878">
        <ele>52.3778713</ele>
        <time>2019-09-10T15:35:05.200Z</time>
      </trkpt>
      <trkpt lat="10.1585921141741" lon="-75.6817593544836">
        <ele>52.3778713</ele>
        <time>2019-09-10T15:35:05.300Z</time>
      </trkpt>
      <trkpt lat="10.1585903836853" lon="-75.6817572609932">
        <ele>52.3778713</ele>
        <time>2019-09-10T15:35:05.400Z</time>
      </trkpt>
      <trkpt lat="10.1585886566813" lon="-75.6817551772855">
        <ele>52.3778713</ele>
        <time>2019-09-10T15:35:05.500Z</time>
      </trkpt>
      <trkpt lat="10.1585869127611" lon="-75.6817531275559">
        <ele>52.3778713</ele>
        <time>2019-09-10T15:35:05.600Z</time>
      </trkpt>
      <trkpt lat="10.1585851537941" lon="-75.6817510697148">
        <ele>52.3778713</ele>
        <time>2019-09-10T15:35:05.700Z</time>
      </trkpt>
      <trkpt lat="10.1585834077438" lon="-75.6817490069649">
        <ele>52.3778713</ele>
        <time>2019-09-10T15:35:05.800Z</time>
      </trkpt>
      <trkpt lat="10.1585816665855" lon="-75.6817469347457">
        <ele>52.3778713</ele>
        <time>2019-09-10T15:35:05.900Z</time>
      </trkpt>
      <trkpt lat="10.1585799463037" lon="-75.6817448470692">
        <ele>52.3778713</ele>
        <time>2019-09-10T15:35:06.000Z</time>
      </trkpt>
      <trkpt lat="10.1585782225111" lon="-75.6817427542402">
        <ele>52.3778713</ele>
        <time>2019-09-10T15:35:06.100Z</time>
      </trkpt>
      <trkpt lat="10.1585765056231" lon="-75.6817406888097">
        <ele>52.3778713</ele>
        <time>2019-09-10T15:35:06.200Z</time>
      </trkpt>
      <trkpt lat="10.1585747832374" lon="-75.6817386205244">
        <ele>52.3778713</ele>
        <time>2019-09-10T15:35:06.300Z</time>
      </trkpt>
      <trkpt lat="10.1585730939156" lon="-75.6817365738585">
        <ele>52.3778713</ele>
        <time>2019-09-10T15:35:06.400Z</time>
      </trkpt>
      <trkpt lat="10.1585713976925" lon="-75.6817345171314">
        <ele>52.3778713</ele>
        <time>2019-09-10T15:35:06.500Z</time>
      </trkpt>
      <trkpt lat="10.1585696871033" lon="-75.6817324432063">
        <ele>52.3778713</ele>
        <time>2019-09-10T15:35:06.600Z</time>
      </trkpt>
      <trkpt lat="10.1585679586566" lon="-75.6817303603689">
        <ele>52.3778713</ele>
        <time>2019-09-10T15:35:06.700Z</time>
      </trkpt>
      <trkpt lat="10.1585662477482" lon="-75.6817282650334">
        <ele>52.3778713</ele>
        <time>2019-09-10T15:35:06.800Z</time>
      </trkpt>
      <trkpt lat="10.1585645253755" lon="-75.6817261709163">
        <ele>52.3778713</ele>
        <time>2019-09-10T15:35:06.900Z</time>
      </trkpt>
      <trkpt lat="10.1585610557085" lon="-75.6817219638827">
        <ele>52.3778713</ele>
        <time>2019-09-10T15:35:07.100Z</time>
      </trkpt>
      <trkpt lat="10.1585592814536" lon="-75.6817198812194">
        <ele>52.3778713</ele>
        <time>2019-09-10T15:35:07.200Z</time>
      </trkpt>
      <trkpt lat="10.1585575068829" lon="-75.6817178012367">
        <ele>52.3778713</ele>
        <time>2019-09-10T15:35:07.300Z</time>
      </trkpt>
      <trkpt lat="10.1585557422195" lon="-75.6817157203489">
        <ele>52.3778713</ele>
        <time>2019-09-10T15:35:07.400Z</time>
      </trkpt>
      <trkpt lat="10.1585539816566" lon="-75.6817136411669">
        <ele>52.3778713</ele>
        <time>2019-09-10T15:35:07.500Z</time>
      </trkpt>
      <trkpt lat="10.1585504814823" lon="-75.6817094736817">
        <ele>52.3778713</ele>
        <time>2019-09-10T15:35:07.700Z</time>
      </trkpt>
      <trkpt lat="10.1585486814655" lon="-75.681707303984">
        <ele>52.3778713</ele>
        <time>2019-09-10T15:35:07.800Z</time>
      </trkpt>
      <trkpt lat="10.1585451374307" lon="-75.6817030295858">
        <ele>52.3778713</ele>
        <time>2019-09-10T15:35:08.000Z</time>
      </trkpt>
      <trkpt lat="10.1585433937727" lon="-75.6817009286453">
        <ele>52.3778713</ele>
        <time>2019-09-10T15:35:08.100Z</time>
      </trkpt>
      <trkpt lat="10.15853992541" lon="-75.6816967166682">
        <ele>52.3778713</ele>
        <time>2019-09-10T15:35:08.300Z</time>
      </trkpt>
      <trkpt lat="10.1585382002984" lon="-75.6816945809138">
        <ele>52.3778713</ele>
        <time>2019-09-10T15:35:08.400Z</time>
      </trkpt>
      <trkpt lat="10.1585364725551" lon="-75.6816924363168">
        <ele>52.3778713</ele>
        <time>2019-09-10T15:35:08.500Z</time>
      </trkpt>
      <trkpt lat="10.1585347599547" lon="-75.6816902723982">
        <ele>52.3778713</ele>
        <time>2019-09-10T15:35:08.600Z</time>
      </trkpt>
      <trkpt lat="10.1585330396551" lon="-75.6816881090017">
        <ele>52.3778713</ele>
        <time>2019-09-10T15:35:08.700Z</time>
      </trkpt>
      <trkpt lat="10.1585313445825" lon="-75.6816859647877">
        <ele>52.3778713</ele>
        <time>2019-09-10T15:35:08.800Z</time>
      </trkpt>
      <trkpt lat="10.1585296404501" lon="-75.6816838252735">
        <ele>52.3778713</ele>
        <time>2019-09-10T15:35:08.900Z</time>
      </trkpt>
      <trkpt lat="10.1585279940085" lon="-75.6816816838097">
        <ele>52.3778713</ele>
        <time>2019-09-10T15:35:09.000Z</time>
      </trkpt>
      <trkpt lat="10.1585263360864" lon="-75.6816795478117">
        <ele>52.3778713</ele>
        <time>2019-09-10T15:35:09.100Z</time>
      </trkpt>
      <trkpt lat="10.1585247083142" lon="-75.6816774507006">
        <ele>52.2778713</ele>
        <time>2019-09-10T15:35:09.200Z</time>
      </trkpt>
      <trkpt lat="10.1585230647488" lon="-75.6816753639292">
        <ele>52.2778713</ele>
        <time>2019-09-10T15:35:09.300Z</time>
      </trkpt>
      <trkpt lat="10.1585214318071" lon="-75.6816733089776">
        <ele>52.2778713</ele>
        <time>2019-09-10T15:35:09.400Z</time>
      </trkpt>
      <trkpt lat="10.1585197840159" lon="-75.6816712397176">
        <ele>52.2778713</ele>
        <time>2019-09-10T15:35:09.500Z</time>
      </trkpt>
      <trkpt lat="10.1585165576131" lon="-75.6816671044004">
        <ele>52.3778713</ele>
        <time>2019-09-10T15:35:09.700Z</time>
      </trkpt>
      <trkpt lat="10.1585149606898" lon="-75.6816650113973">
        <ele>52.3778713</ele>
        <time>2019-09-10T15:35:09.800Z</time>
      </trkpt>
      <trkpt lat="10.1585133455197" lon="-75.6816629021711">
        <ele>52.3778713</ele>
        <time>2019-09-10T15:35:09.900Z</time>
      </trkpt>
      <trkpt lat="10.1585117297743" lon="-75.6816608162701">
        <ele>52.2778713</ele>
        <time>2019-09-10T15:35:10.000Z</time>
      </trkpt>
      <trkpt lat="10.158510092886" lon="-75.6816587299513">
        <ele>52.2778713</ele>
        <time>2019-09-10T15:35:10.100Z</time>
      </trkpt>
      <trkpt lat="10.1585084374204" lon="-75.6816566848868">
        <ele>52.2778713</ele>
        <time>2019-09-10T15:35:10.200Z</time>
      </trkpt>
      <trkpt lat="10.1585067710263" lon="-75.6816546346699">
        <ele>52.2778713</ele>
        <time>2019-09-10T15:35:10.300Z</time>
      </trkpt>
      <trkpt lat="10.1585050559182" lon="-75.6816525206045">
        <ele>52.3778713</ele>
        <time>2019-09-10T15:35:10.400Z</time>
      </trkpt>
      <trkpt lat="10.1585033383299" lon="-75.6816504184107">
        <ele>52.3778713</ele>
        <time>2019-09-10T15:35:10.500Z</time>
      </trkpt>
      <trkpt lat="10.1585016394296" lon="-75.6816483537808">
        <ele>52.3778713</ele>
        <time>2019-09-10T15:35:10.600Z</time>
      </trkpt>
      <trkpt lat="10.158499956151" lon="-75.6816463053742">
        <ele>52.3778713</ele>
        <time>2019-09-10T15:35:10.700Z</time>
      </trkpt>
      <trkpt lat="10.1584982873086" lon="-75.6816442795618">
        <ele>52.3778713</ele>
        <time>2019-09-10T15:35:10.800Z</time>
      </trkpt>
      <trkpt lat="10.1584966196419" lon="-75.6816422559425">
        <ele>52.3778713</ele>
        <time>2019-09-10T15:35:10.900Z</time>
      </trkpt>
      <trkpt lat="10.1584932884317" lon="-75.6816381855182">
        <ele>52.3778713</ele>
        <time>2019-09-10T15:35:11.100Z</time>
      </trkpt>
      <trkpt lat="10.1584916468234" lon="-75.6816361753719">
        <ele>52.3778713</ele>
        <time>2019-09-10T15:35:11.200Z</time>
      </trkpt>
      <trkpt lat="10.1584899960176" lon="-75.6816341667922">
        <ele>52.3778713</ele>
        <time>2019-09-10T15:35:11.300Z</time>
      </trkpt>
      <trkpt lat="10.1584866681262" lon="-75.681630130729">
        <ele>52.3778713</ele>
        <time>2019-09-10T15:35:11.500Z</time>
      </trkpt>
      <trkpt lat="10.1584849657671" lon="-75.6816281034892">
        <ele>52.3778713</ele>
        <time>2019-09-10T15:35:11.600Z</time>
      </trkpt>
      <trkpt lat="10.1584832470617" lon="-75.681626080044">
        <ele>52.3778713</ele>
        <time>2019-09-10T15:35:11.700Z</time>
      </trkpt>
      <trkpt lat="10.1584815570723" lon="-75.6816240449014">
        <ele>52.3778713</ele>
        <time>2019-09-10T15:35:11.800Z</time>
      </trkpt>
      <trkpt lat="10.1584798635883" lon="-75.6816220183927">
        <ele>52.3778713</ele>
        <time>2019-09-10T15:35:11.900Z</time>
      </trkpt>
      <trkpt lat="10.1584781464364" lon="-75.6816200130507">
        <ele>52.3778713</ele>
        <time>2019-09-10T15:35:12.000Z</time>
      </trkpt>
      <trkpt lat="10.1584764100591" lon="-75.6816180047147">
        <ele>52.3778713</ele>
        <time>2019-09-10T15:35:12.100Z</time>
      </trkpt>
      <trkpt lat="10.1584746482488" lon="-75.6816159949862">
        <ele>52.3778713</ele>
        <time>2019-09-10T15:35:12.200Z</time>
      </trkpt>
      <trkpt lat="10.1584728860379" lon="-75.6816139730381">
        <ele>52.3778713</ele>
        <time>2019-09-10T15:35:12.300Z</time>
      </trkpt>
      <trkpt lat="10.1584711233125" lon="-75.6816119225078">
        <ele>52.3778713</ele>
        <time>2019-09-10T15:35:12.400Z</time>
      </trkpt>
      <trkpt lat="10.1584693701785" lon="-75.6816098714205">
        <ele>52.3778713</ele>
        <time>2019-09-10T15:35:12.500Z</time>
      </trkpt>
      <trkpt lat="10.158467627447" lon="-75.6816078385061">
        <ele>52.3778713</ele>
        <time>2019-09-10T15:35:12.600Z</time>
      </trkpt>
      <trkpt lat="10.1584658959225" lon="-75.6816058065664">
        <ele>52.3778713</ele>
        <time>2019-09-10T15:35:12.700Z</time>
      </trkpt>
      <trkpt lat="10.1584641809821" lon="-75.6816037414491">
        <ele>52.3778713</ele>
        <time>2019-09-10T15:35:12.800Z</time>
      </trkpt>
      <trkpt lat="10.1584624647845" lon="-75.6816016585073">
        <ele>52.3778713</ele>
        <time>2019-09-10T15:35:12.900Z</time>
      </trkpt>
      <trkpt lat="10.1584607114259" lon="-75.6815995080616">
        <ele>52.3778713</ele>
        <time>2019-09-10T15:35:13.000Z</time>
      </trkpt>
      <trkpt lat="10.1584589509216" lon="-75.6815973300433">
        <ele>52.3778713</ele>
        <time>2019-09-10T15:35:13.100Z</time>
      </trkpt>
      <trkpt lat="10.1584572371666" lon="-75.681595156899">
        <ele>52.3778713</ele>
        <time>2019-09-10T15:35:13.200Z</time>
      </trkpt>
      <trkpt lat="10.1584555260759" lon="-75.6815929767572">
        <ele>52.3778713</ele>
        <time>2019-09-10T15:35:13.300Z</time>
      </trkpt>
      <trkpt lat="10.1584538778365" lon="-75.6815908185132">
        <ele>52.3778713</ele>
        <time>2019-09-10T15:35:13.400Z</time>
      </trkpt>
      <trkpt lat="10.1584522152147" lon="-75.6815886513917">
        <ele>52.3778713</ele>
        <time>2019-09-10T15:35:13.500Z</time>
      </trkpt>
      <trkpt lat="10.1584505746551" lon="-75.6815864687432">
        <ele>52.3778713</ele>
        <time>2019-09-10T15:35:13.600Z</time>
      </trkpt>
      <trkpt lat="10.1584489111018" lon="-75.6815842818823">
        <ele>52.3778713</ele>
        <time>2019-09-10T15:35:13.700Z</time>
      </trkpt>
      <trkpt lat="10.1584472585699" lon="-75.6815821269108">
        <ele>52.3778713</ele>
        <time>2019-09-10T15:35:13.800Z</time>
      </trkpt>
      <trkpt lat="10.1584455867572" lon="-75.6815799748636">
        <ele>52.3778713</ele>
        <time>2019-09-10T15:35:13.900Z</time>
      </trkpt>
      <trkpt lat="10.1584439221031" lon="-75.6815778520252">
        <ele>52.3778713</ele>
        <time>2019-09-10T15:35:14.000Z</time>
      </trkpt>
      <trkpt lat="10.1584422418811" lon="-75.6815757308578">
        <ele>52.3778713</ele>
        <time>2019-09-10T15:35:14.100Z</time>
      </trkpt>
      <trkpt lat="10.1584405354412" lon="-75.6815735596283">
        <ele>52.3778713</ele>
        <time>2019-09-10T15:35:14.200Z</time>
      </trkpt>
      <trkpt lat="10.1584388226047" lon="-75.6815713974503">
        <ele>52.3778713</ele>
        <time>2019-09-10T15:35:14.300Z</time>
      </trkpt>
      <trkpt lat="10.1584371131293" lon="-75.6815692816617">
        <ele>52.3778713</ele>
        <time>2019-09-10T15:35:14.400Z</time>
      </trkpt>
      <trkpt lat="10.1584354037451" lon="-75.6815671803556">
        <ele>52.3778713</ele>
        <time>2019-09-10T15:35:14.500Z</time>
      </trkpt>
      <trkpt lat="10.1584337060076" lon="-75.6815650717386">
        <ele>52.3778713</ele>
        <time>2019-09-10T15:35:14.600Z</time>
      </trkpt>
      <trkpt lat="10.1584320025444" lon="-75.681562965576">
        <ele>52.3778713</ele>
        <time>2019-09-10T15:35:14.700Z</time>
      </trkpt>
      <trkpt lat="10.1584303074189" lon="-75.6815608696486">
        <ele>52.3778713</ele>
        <time>2019-09-10T15:35:14.800Z</time>
      </trkpt>
      <trkpt lat="10.1584286042228" lon="-75.681558773199">
        <ele>52.3778713</ele>
        <time>2019-09-10T15:35:14.900Z</time>
      </trkpt>
      <trkpt lat="10.1584269058925" lon="-75.681556686358">
        <ele>52.3778713</ele>
        <time>2019-09-10T15:35:15.000Z</time>
      </trkpt>
      <trkpt lat="10.1584251941178" lon="-75.6815546100482">
        <ele>52.3778713</ele>
        <time>2019-09-10T15:35:15.100Z</time>
      </trkpt>
      <trkpt lat="10.1584234680844" lon="-75.6815525848449">
        <ele>52.3778713</ele>
        <time>2019-09-10T15:35:15.200Z</time>
      </trkpt>
      <trkpt lat="10.1584217323129" lon="-75.6815505727317">
        <ele>52.3778713</ele>
        <time>2019-09-10T15:35:15.300Z</time>
      </trkpt>
      <trkpt lat="10.1584182288459" lon="-75.6815464742822">
        <ele>52.3778713</ele>
        <time>2019-09-10T15:35:15.500Z</time>
      </trkpt>
      <trkpt lat="10.1584164414853" lon="-75.6815443593987">
        <ele>52.3778713</ele>
        <time>2019-09-10T15:35:15.600Z</time>
      </trkpt>
      <trkpt lat="10.1584146632375" lon="-75.6815422393454">
        <ele>52.3778713</ele>
        <time>2019-09-10T15:35:15.700Z</time>
      </trkpt>
      <trkpt lat="10.1584128885462" lon="-75.6815401146445">
        <ele>52.3778713</ele>
        <time>2019-09-10T15:35:15.800Z</time>
      </trkpt>
      <trkpt lat="10.1584093638639" lon="-75.6815358486712">
        <ele>52.3778713</ele>
        <time>2019-09-10T15:35:16.000Z</time>
      </trkpt>
      <trkpt lat="10.1584076145502" lon="-75.6815337190963">
        <ele>52.3778713</ele>
        <time>2019-09-10T15:35:16.100Z</time>
      </trkpt>
      <trkpt lat="10.158405874408" lon="-75.6815316058665">
        <ele>52.3778713</ele>
        <time>2019-09-10T15:35:16.200Z</time>
      </trkpt>
      <trkpt lat="10.158404126319" lon="-75.6815295018971">
        <ele>52.3778713</ele>
        <time>2019-09-10T15:35:16.300Z</time>
      </trkpt>
      <trkpt lat="10.1584024125836" lon="-75.6815273921835">
        <ele>52.3778713</ele>
        <time>2019-09-10T15:35:16.400Z</time>
      </trkpt>
      <trkpt lat="10.1584006885565" lon="-75.6815252872394">
        <ele>52.3778713</ele>
        <time>2019-09-10T15:35:16.500Z</time>
      </trkpt>
      <trkpt lat="10.1583990060351" lon="-75.6815232252032">
        <ele>52.3778713</ele>
        <time>2019-09-10T15:35:16.600Z</time>
      </trkpt>
      <trkpt lat="10.1583973026566" lon="-75.6815211615481">
        <ele>52.3778713</ele>
        <time>2019-09-10T15:35:16.700Z</time>
      </trkpt>
      <trkpt lat="10.1583956040202" lon="-75.6815190862827">
        <ele>52.3778713</ele>
        <time>2019-09-10T15:35:16.800Z</time>
      </trkpt>
      <trkpt lat="10.1583938879529" lon="-75.681517000138">
        <ele>52.3778713</ele>
        <time>2019-09-10T15:35:16.900Z</time>
      </trkpt>
      <trkpt lat="10.1583921641993" lon="-75.681514907222">
        <ele>52.3778713</ele>
        <time>2019-09-10T15:35:17.000Z</time>
      </trkpt>
      <trkpt lat="10.1583904255813" lon="-75.6815128190059">
        <ele>52.3778713</ele>
        <time>2019-09-10T15:35:17.100Z</time>
      </trkpt>
      <trkpt lat="10.1583886843838" lon="-75.6815107343233">
        <ele>52.3778713</ele>
        <time>2019-09-10T15:35:17.200Z</time>
      </trkpt>
      <trkpt lat="10.1583869323474" lon="-75.6815086504937">
        <ele>52.3778713</ele>
        <time>2019-09-10T15:35:17.300Z</time>
      </trkpt>
      <trkpt lat="10.1583833199506" lon="-75.6815044021885">
        <ele>52.3778713</ele>
        <time>2019-09-10T15:35:17.500Z</time>
      </trkpt>
      <trkpt lat="10.1583815207675" lon="-75.6815023178366">
        <ele>52.3778713</ele>
        <time>2019-09-10T15:35:17.600Z</time>
      </trkpt>
      <trkpt lat="10.1583797191613" lon="-75.6815002376973">
        <ele>52.3778713</ele>
        <time>2019-09-10T15:35:17.700Z</time>
      </trkpt>
      <trkpt lat="10.1583779071591" lon="-75.6814981411433">
        <ele>52.3778713</ele>
        <time>2019-09-10T15:35:17.800Z</time>
      </trkpt>
      <trkpt lat="10.1583760969938" lon="-75.6814960428311">
        <ele>52.3778713</ele>
        <time>2019-09-10T15:35:17.900Z</time>
      </trkpt>
      <trkpt lat="10.1583743272008" lon="-75.6814939619085">
        <ele>52.3778713</ele>
        <time>2019-09-10T15:35:18.000Z</time>
      </trkpt>
      <trkpt lat="10.1583725644949" lon="-75.6814918756593">
        <ele>52.3778713</ele>
        <time>2019-09-10T15:35:18.100Z</time>
      </trkpt>
      <trkpt lat="10.1583707870417" lon="-75.6814897434038">
        <ele>52.3778713</ele>
        <time>2019-09-10T15:35:18.200Z</time>
      </trkpt>
      <trkpt lat="10.158369005068" lon="-75.6814876097557">
        <ele>52.3778713</ele>
        <time>2019-09-10T15:35:18.300Z</time>
      </trkpt>
      <trkpt lat="10.1583672473777" lon="-75.6814855177797">
        <ele>52.3778713</ele>
        <time>2019-09-10T15:35:18.400Z</time>
      </trkpt>
      <trkpt lat="10.1583654821314" lon="-75.6814834274051">
        <ele>52.3778713</ele>
        <time>2019-09-10T15:35:18.500Z</time>
      </trkpt>
      <trkpt lat="10.1583637115959" lon="-75.6814813713046">
        <ele>52.3778713</ele>
        <time>2019-09-10T15:35:18.600Z</time>
      </trkpt>
      <trkpt lat="10.1583619405783" lon="-75.6814793078759">
        <ele>52.3778713</ele>
        <time>2019-09-10T15:35:18.700Z</time>
      </trkpt>
      <trkpt lat="10.158360161614" lon="-75.6814772463271">
        <ele>52.3778713</ele>
        <time>2019-09-10T15:35:18.800Z</time>
      </trkpt>
      <trkpt lat="10.1583583819853" lon="-75.6814751645341">
        <ele>52.3778713</ele>
        <time>2019-09-10T15:35:18.900Z</time>
      </trkpt>
      <trkpt lat="10.1583565943055" lon="-75.6814730652298">
        <ele>52.3778713</ele>
        <time>2019-09-10T15:35:19.000Z</time>
      </trkpt>
      <trkpt lat="10.158354810078" lon="-75.6814709515126">
        <ele>52.3778713</ele>
        <time>2019-09-10T15:35:19.100Z</time>
      </trkpt>
      <trkpt lat="10.1583530177214" lon="-75.6814688310763">
        <ele>52.3778713</ele>
        <time>2019-09-10T15:35:19.200Z</time>
      </trkpt>
      <trkpt lat="10.1583512261203" lon="-75.6814667041124">
        <ele>52.3778713</ele>
        <time>2019-09-10T15:35:19.300Z</time>
      </trkpt>
      <trkpt lat="10.1583476229079" lon="-75.6814624607159">
        <ele>52.3778713</ele>
        <time>2019-09-10T15:35:19.500Z</time>
      </trkpt>
      <trkpt lat="10.1583440070718" lon="-75.6814581770399">
        <ele>52.3778713</ele>
        <time>2019-09-10T15:35:19.700Z</time>
      </trkpt>
      <trkpt lat="10.1583422054395" lon="-75.6814560238264">
        <ele>52.3778713</ele>
        <time>2019-09-10T15:35:19.800Z</time>
      </trkpt>
      <trkpt lat="10.1583404113371" lon="-75.6814538793165">
        <ele>52.3778713</ele>
        <time>2019-09-10T15:35:19.900Z</time>
      </trkpt>
      <trkpt lat="10.1583385930557" lon="-75.681451697695">
        <ele>52.3778713</ele>
        <time>2019-09-10T15:35:20.000Z</time>
      </trkpt>
      <trkpt lat="10.1583367868898" lon="-75.6814495330105">
        <ele>52.3778713</ele>
        <time>2019-09-10T15:35:20.100Z</time>
      </trkpt>
      <trkpt lat="10.1583350214611" lon="-75.6814474026697">
        <ele>52.3778713</ele>
        <time>2019-09-10T15:35:20.200Z</time>
      </trkpt>
      <trkpt lat="10.1583332640834" lon="-75.681445289318">
        <ele>52.3778713</ele>
        <time>2019-09-10T15:35:20.300Z</time>
      </trkpt>
      <trkpt lat="10.1583314770681" lon="-75.6814431647911">
        <ele>52.3778713</ele>
        <time>2019-09-10T15:35:20.400Z</time>
      </trkpt>
      <trkpt lat="10.1583296838255" lon="-75.6814410456255">
        <ele>52.3778713</ele>
        <time>2019-09-10T15:35:20.500Z</time>
      </trkpt>
      <trkpt lat="10.158327912339" lon="-75.6814389446676">
        <ele>52.3778713</ele>
        <time>2019-09-10T15:35:20.600Z</time>
      </trkpt>
      <trkpt lat="10.1583261418296" lon="-75.6814368470343">
        <ele>52.3778713</ele>
        <time>2019-09-10T15:35:20.700Z</time>
      </trkpt>
      <trkpt lat="10.1583243367841" lon="-75.6814347163454">
        <ele>52.3778713</ele>
        <time>2019-09-10T15:35:20.800Z</time>
      </trkpt>
      <trkpt lat="10.1583225325202" lon="-75.6814325897819">
        <ele>52.3778713</ele>
        <time>2019-09-10T15:35:20.900Z</time>
      </trkpt>
      <trkpt lat="10.1583189754123" lon="-75.681428430861">
        <ele>52.3778713</ele>
        <time>2019-09-10T15:35:21.100Z</time>
      </trkpt>
      <trkpt lat="10.1583172274145" lon="-75.681426359425">
        <ele>52.3778713</ele>
        <time>2019-09-10T15:35:21.200Z</time>
      </trkpt>
      <trkpt lat="10.1583154764594" lon="-75.681424285352">
        <ele>52.3778713</ele>
        <time>2019-09-10T15:35:21.300Z</time>
      </trkpt>
      <trkpt lat="10.1583137229378" lon="-75.6814222064137">
        <ele>52.2778713</ele>
        <time>2019-09-10T15:35:21.400Z</time>
      </trkpt>
      <trkpt lat="10.1583119622902" lon="-75.6814201207999">
        <ele>52.2778713</ele>
        <time>2019-09-10T15:35:21.500Z</time>
      </trkpt>
      <trkpt lat="10.1583102257957" lon="-75.6814180517923">
        <ele>52.2778713</ele>
        <time>2019-09-10T15:35:21.600Z</time>
      </trkpt>
      <trkpt lat="10.1583084841553" lon="-75.6814159706346">
        <ele>52.2778713</ele>
        <time>2019-09-10T15:35:21.700Z</time>
      </trkpt>
      <trkpt lat="10.1583067582131" lon="-75.6814139027758">
        <ele>52.2778713</ele>
        <time>2019-09-10T15:35:21.800Z</time>
      </trkpt>
      <trkpt lat="10.1583050220313" lon="-75.6814118220534">
        <ele>52.2778713</ele>
        <time>2019-09-10T15:35:21.900Z</time>
      </trkpt>
      <trkpt lat="10.158303264836" lon="-75.6814097347859">
        <ele>52.2778713</ele>
        <time>2019-09-10T15:35:22.000Z</time>
      </trkpt>
      <trkpt lat="10.1583015022994" lon="-75.6814076359777">
        <ele>52.2778713</ele>
        <time>2019-09-10T15:35:22.100Z</time>
      </trkpt>
      <trkpt lat="10.1582997835354" lon="-75.6814055350545">
        <ele>52.2778713</ele>
        <time>2019-09-10T15:35:22.200Z</time>
      </trkpt>
      <trkpt lat="10.1582980595864" lon="-75.6814034280738">
        <ele>52.2778713</ele>
        <time>2019-09-10T15:35:22.300Z</time>
      </trkpt>
      <trkpt lat="10.1582963107939" lon="-75.6814013222854">
        <ele>52.2778713</ele>
        <time>2019-09-10T15:35:22.400Z</time>
      </trkpt>
      <trkpt lat="10.1582945515272" lon="-75.6813992067317">
        <ele>52.2778713</ele>
        <time>2019-09-10T15:35:22.500Z</time>
      </trkpt>
      <trkpt lat="10.1582928020573" lon="-75.6813971013524">
        <ele>52.2778713</ele>
        <time>2019-09-10T15:35:22.600Z</time>
      </trkpt>
      <trkpt lat="10.1582910585279" lon="-75.68139500076">
        <ele>52.2778713</ele>
        <time>2019-09-10T15:35:22.700Z</time>
      </trkpt>
      <trkpt lat="10.1582893092664" lon="-75.6813928846667">
        <ele>52.2778713</ele>
        <time>2019-09-10T15:35:22.800Z</time>
      </trkpt>
      <trkpt lat="10.1582875695671" lon="-75.681390774927">
        <ele>52.2778713</ele>
        <time>2019-09-10T15:35:22.900Z</time>
      </trkpt>
      <trkpt lat="10.1582858781739" lon="-75.6813886718628">
        <ele>52.2778713</ele>
        <time>2019-09-10T15:35:23.000Z</time>
      </trkpt>
      <trkpt lat="10.1582841836802" lon="-75.6813865688769">
        <ele>52.2778713</ele>
        <time>2019-09-10T15:35:23.100Z</time>
      </trkpt>
      <trkpt lat="10.1582824767583" lon="-75.681384493655">
        <ele>52.2778713</ele>
        <time>2019-09-10T15:35:23.200Z</time>
      </trkpt>
      <trkpt lat="10.1582790550718" lon="-75.6813803525065">
        <ele>52.2778713</ele>
        <time>2019-09-10T15:35:23.400Z</time>
      </trkpt>
      <trkpt lat="10.1582773443197" lon="-75.6813782755874">
        <ele>52.2778713</ele>
        <time>2019-09-10T15:35:23.500Z</time>
      </trkpt>
      <trkpt lat="10.1582739410281" lon="-75.6813742314996">
        <ele>52.2778713</ele>
        <time>2019-09-10T15:35:23.700Z</time>
      </trkpt>
      <trkpt lat="10.1582722542206" lon="-75.6813722032241">
        <ele>52.2778713</ele>
        <time>2019-09-10T15:35:23.800Z</time>
      </trkpt>
      <trkpt lat="10.1582705540209" lon="-75.6813701520411">
        <ele>52.2778713</ele>
        <time>2019-09-10T15:35:23.900Z</time>
      </trkpt>
      <trkpt lat="10.1582671765759" lon="-75.6813660148178">
        <ele>52.2778713</ele>
        <time>2019-09-10T15:35:24.100Z</time>
      </trkpt>
      <trkpt lat="10.1582654644429" lon="-75.6813639224588">
        <ele>52.2778713</ele>
        <time>2019-09-10T15:35:24.200Z</time>
      </trkpt>
      <trkpt lat="10.1582637404809" lon="-75.6813618242772">
        <ele>52.2778713</ele>
        <time>2019-09-10T15:35:24.300Z</time>
      </trkpt>
      <trkpt lat="10.158262005706" lon="-75.6813597139718">
        <ele>52.2778713</ele>
        <time>2019-09-10T15:35:24.400Z</time>
      </trkpt>
      <trkpt lat="10.1582602697587" lon="-75.6813576061207">
        <ele>52.2778713</ele>
        <time>2019-09-10T15:35:24.500Z</time>
      </trkpt>
      <trkpt lat="10.1582584986369" lon="-75.6813554211745">
        <ele>52.2778713</ele>
        <time>2019-09-10T15:35:24.600Z</time>
      </trkpt>
      <trkpt lat="10.1582567311629" lon="-75.6813532458892">
        <ele>52.2778713</ele>
        <time>2019-09-10T15:35:24.700Z</time>
      </trkpt>
      <trkpt lat="10.1582550230424" lon="-75.6813510794422">
        <ele>52.2778713</ele>
        <time>2019-09-10T15:35:24.800Z</time>
      </trkpt>
      <trkpt lat="10.1582533164331" lon="-75.6813489304978">
        <ele>52.2778713</ele>
        <time>2019-09-10T15:35:24.900Z</time>
      </trkpt>
      <trkpt lat="10.1582516072183" lon="-75.6813467639377">
        <ele>52.2778713</ele>
        <time>2019-09-10T15:35:25.000Z</time>
      </trkpt>
      <trkpt lat="10.1582498854188" lon="-75.6813446104849">
        <ele>52.2778713</ele>
        <time>2019-09-10T15:35:25.100Z</time>
      </trkpt>
      <trkpt lat="10.1582481857402" lon="-75.6813425179606">
        <ele>52.2778713</ele>
        <time>2019-09-10T15:35:25.200Z</time>
      </trkpt>
      <trkpt lat="10.1582464754571" lon="-75.6813404307671">
        <ele>52.2778713</ele>
        <time>2019-09-10T15:35:25.300Z</time>
      </trkpt>
      <trkpt lat="10.1582447577223" lon="-75.6813383567201">
        <ele>52.2778713</ele>
        <time>2019-09-10T15:35:25.400Z</time>
      </trkpt>
      <trkpt lat="10.1582430287056" lon="-75.6813362715546">
        <ele>52.2778713</ele>
        <time>2019-09-10T15:35:25.500Z</time>
      </trkpt>
      <trkpt lat="10.1582413246497" lon="-75.6813341948008">
        <ele>52.2778713</ele>
        <time>2019-09-10T15:35:25.600Z</time>
      </trkpt>
      <trkpt lat="10.1582396112139" lon="-75.6813321092044">
        <ele>52.2778713</ele>
        <time>2019-09-10T15:35:25.700Z</time>
      </trkpt>
      <trkpt lat="10.1582378953811" lon="-75.6813300258144">
        <ele>52.2778713</ele>
        <time>2019-09-10T15:35:25.800Z</time>
      </trkpt>
      <trkpt lat="10.1582361727479" lon="-75.6813279330289">
        <ele>52.2778713</ele>
        <time>2019-09-10T15:35:25.900Z</time>
      </trkpt>
      <trkpt lat="10.1582344486817" lon="-75.6813257714297">
        <ele>52.2778713</ele>
        <time>2019-09-10T15:35:26.000Z</time>
      </trkpt>
      <trkpt lat="10.1582327179975" lon="-75.6813236160231">
        <ele>52.2778713</ele>
        <time>2019-09-10T15:35:26.100Z</time>
      </trkpt>
      <trkpt lat="10.1582310103981" lon="-75.6813215048908">
        <ele>52.2778713</ele>
        <time>2019-09-10T15:35:26.200Z</time>
      </trkpt>
      <trkpt lat="10.1582292979003" lon="-75.6813194096901">
        <ele>52.2778713</ele>
        <time>2019-09-10T15:35:26.300Z</time>
      </trkpt>
      <trkpt lat="10.1582275801655" lon="-75.6813173265307">
        <ele>52.2778713</ele>
        <time>2019-09-10T15:35:26.400Z</time>
      </trkpt>
      <trkpt lat="10.1582258558647" lon="-75.6813152408973">
        <ele>52.2778713</ele>
        <time>2019-09-10T15:35:26.500Z</time>
      </trkpt>
      <trkpt lat="10.1582241254411" lon="-75.6813131527964">
        <ele>52.2778713</ele>
        <time>2019-09-10T15:35:26.600Z</time>
      </trkpt>
      <trkpt lat="10.1582223904577" lon="-75.6813110547041">
        <ele>52.2778713</ele>
        <time>2019-09-10T15:35:26.700Z</time>
      </trkpt>
      <trkpt lat="10.1582189630651" lon="-75.6813067897578">
        <ele>52.2778713</ele>
        <time>2019-09-10T15:35:26.900Z</time>
      </trkpt>
      <trkpt lat="10.1582172380609" lon="-75.6813046308132">
        <ele>52.2778713</ele>
        <time>2019-09-10T15:35:27.000Z</time>
      </trkpt>
      <trkpt lat="10.1582155020094" lon="-75.681302484469">
        <ele>52.2778713</ele>
        <time>2019-09-10T15:35:27.100Z</time>
      </trkpt>
      <trkpt lat="10.1582137678077" lon="-75.681300312652">
        <ele>52.2778713</ele>
        <time>2019-09-10T15:35:27.200Z</time>
      </trkpt>
      <trkpt lat="10.1582120300625" lon="-75.6812981572975">
        <ele>52.2778713</ele>
        <time>2019-09-10T15:35:27.300Z</time>
      </trkpt>
      <trkpt lat="10.1582102893731" lon="-75.6812959839291">
        <ele>52.2778713</ele>
        <time>2019-09-10T15:35:27.400Z</time>
      </trkpt>
      <trkpt lat="10.1582085449579" lon="-75.6812938281112">
        <ele>52.2778713</ele>
        <time>2019-09-10T15:35:27.500Z</time>
      </trkpt>
      <trkpt lat="10.1582068285779" lon="-75.6812917301124">
        <ele>52.2778713</ele>
        <time>2019-09-10T15:35:27.600Z</time>
      </trkpt>
      <trkpt lat="10.1582051075601" lon="-75.6812896425229">
        <ele>52.2778713</ele>
        <time>2019-09-10T15:35:27.700Z</time>
      </trkpt>
      <trkpt lat="10.1582033874803" lon="-75.6812875730904">
        <ele>52.2778713</ele>
        <time>2019-09-10T15:35:27.800Z</time>
      </trkpt>
      <trkpt lat="10.1582016582031" lon="-75.6812854982743">
        <ele>52.3778713</ele>
        <time>2019-09-10T15:35:27.900Z</time>
      </trkpt>
      <trkpt lat="10.1581999350748" lon="-75.6812833953844">
        <ele>52.3778713</ele>
        <time>2019-09-10T15:35:28.000Z</time>
      </trkpt>
      <trkpt lat="10.1581982054589" lon="-75.6812812895083">
        <ele>52.3778713</ele>
        <time>2019-09-10T15:35:28.100Z</time>
      </trkpt>
      <trkpt lat="10.1581964709185" lon="-75.6812792153999">
        <ele>52.3778713</ele>
        <time>2019-09-10T15:35:28.200Z</time>
      </trkpt>
      <trkpt lat="10.1581947322614" lon="-75.6812771408712">
        <ele>52.3778713</ele>
        <time>2019-09-10T15:35:28.300Z</time>
      </trkpt>
      <trkpt lat="10.1581929898003" lon="-75.6812750696607">
        <ele>52.3778713</ele>
        <time>2019-09-10T15:35:28.400Z</time>
      </trkpt>
      <trkpt lat="10.158191241138" lon="-75.6812729964477">
        <ele>52.3778713</ele>
        <time>2019-09-10T15:35:28.500Z</time>
      </trkpt>
      <trkpt lat="10.1581894625124" lon="-75.6812708775378">
        <ele>52.3778713</ele>
        <time>2019-09-10T15:35:28.600Z</time>
      </trkpt>
      <trkpt lat="10.1581876863881" lon="-75.6812687578636">
        <ele>52.3778713</ele>
        <time>2019-09-10T15:35:28.700Z</time>
      </trkpt>
      <trkpt lat="10.1581859532807" lon="-75.681266695575">
        <ele>52.3778713</ele>
        <time>2019-09-10T15:35:28.800Z</time>
      </trkpt>
      <trkpt lat="10.1581842312468" lon="-75.6812646379286">
        <ele>52.3778713</ele>
        <time>2019-09-10T15:35:28.900Z</time>
      </trkpt>
      <trkpt lat="10.1581825260705" lon="-75.681262569453">
        <ele>52.3778713</ele>
        <time>2019-09-10T15:35:29.000Z</time>
      </trkpt>
      <trkpt lat="10.1581808169599" lon="-75.6812604886783">
        <ele>52.3778713</ele>
        <time>2019-09-10T15:35:29.100Z</time>
      </trkpt>
      <trkpt lat="10.158179109595" lon="-75.6812584262439">
        <ele>52.3778713</ele>
        <time>2019-09-10T15:35:29.200Z</time>
      </trkpt>
      <trkpt lat="10.1581773954297" lon="-75.6812563645972">
        <ele>52.3778713</ele>
        <time>2019-09-10T15:35:29.300Z</time>
      </trkpt>
      <trkpt lat="10.1581756688101" lon="-75.6812543002481">
        <ele>52.3778713</ele>
        <time>2019-09-10T15:35:29.400Z</time>
      </trkpt>
      <trkpt lat="10.1581739406011" lon="-75.6812522227698">
        <ele>52.2778713</ele>
        <time>2019-09-10T15:35:29.500Z</time>
      </trkpt>
      <trkpt lat="10.1581722018919" lon="-75.6812501613167">
        <ele>52.2778713</ele>
        <time>2019-09-10T15:35:29.600Z</time>
      </trkpt>
      <trkpt lat="10.1581704635735" lon="-75.6812481011322">
        <ele>52.3778713</ele>
        <time>2019-09-10T15:35:29.700Z</time>
      </trkpt>
      <trkpt lat="10.158168747871" lon="-75.6812460323334">
        <ele>52.3778713</ele>
        <time>2019-09-10T15:35:29.800Z</time>
      </trkpt>
      <trkpt lat="10.158167031491" lon="-75.6812439598618">
        <ele>52.3778713</ele>
        <time>2019-09-10T15:35:29.900Z</time>
      </trkpt>
      <trkpt lat="10.1581653057573" lon="-75.6812418955083">
        <ele>52.3778713</ele>
        <time>2019-09-10T15:35:30.000Z</time>
      </trkpt>
      <trkpt lat="10.1581635725718" lon="-75.6812398194901">
        <ele>52.3778713</ele>
        <time>2019-09-10T15:35:30.100Z</time>
      </trkpt>
      <trkpt lat="10.1581618607514" lon="-75.6812377164084">
        <ele>52.3778713</ele>
        <time>2019-09-10T15:35:30.200Z</time>
      </trkpt>
      <trkpt lat="10.1581601430427" lon="-75.6812355991489">
        <ele>52.3778713</ele>
        <time>2019-09-10T15:35:30.300Z</time>
      </trkpt>
      <trkpt lat="10.158158412619" lon="-75.6812334693042">
        <ele>52.3778713</ele>
        <time>2019-09-10T15:35:30.400Z</time>
      </trkpt>
      <trkpt lat="10.1581566675523" lon="-75.6812313542772">
        <ele>52.3778713</ele>
        <time>2019-09-10T15:35:30.500Z</time>
      </trkpt>
      <trkpt lat="10.1581549240229" lon="-75.6812292556648">
        <ele>52.3778713</ele>
        <time>2019-09-10T15:35:30.600Z</time>
      </trkpt>
      <trkpt lat="10.1581531833857" lon="-75.6812271649856">
        <ele>52.3778713</ele>
        <time>2019-09-10T15:35:30.700Z</time>
      </trkpt>
      <trkpt lat="10.1581514481939" lon="-75.6812250776789">
        <ele>52.3778713</ele>
        <time>2019-09-10T15:35:30.800Z</time>
      </trkpt>
      <trkpt lat="10.1581497087031" lon="-75.6812229924698">
        <ele>52.3778713</ele>
        <time>2019-09-10T15:35:30.900Z</time>
      </trkpt>
      <trkpt lat="10.1581463424879" lon="-75.6812189231029">
        <ele>52.3778713</ele>
        <time>2019-09-10T15:35:31.100Z</time>
      </trkpt>
      <trkpt lat="10.1581446232679" lon="-75.6812168281329">
        <ele>52.3778713</ele>
        <time>2019-09-10T15:35:31.200Z</time>
      </trkpt>
      <trkpt lat="10.1581428802335" lon="-75.6812147080056">
        <ele>52.3778713</ele>
        <time>2019-09-10T15:35:31.300Z</time>
      </trkpt>
      <trkpt lat="10.1581411270377" lon="-75.6812125658195">
        <ele>52.3778713</ele>
        <time>2019-09-10T15:35:31.400Z</time>
      </trkpt>
      <trkpt lat="10.1581393661035" lon="-75.6812104194469">
        <ele>52.3778713</ele>
        <time>2019-09-10T15:35:31.500Z</time>
      </trkpt>
      <trkpt lat="10.1581375717666" lon="-75.6812082805289">
        <ele>52.3778713</ele>
        <time>2019-09-10T15:35:31.600Z</time>
      </trkpt>
      <trkpt lat="10.1581357773516" lon="-75.6812061534128">
        <ele>52.3778713</ele>
        <time>2019-09-10T15:35:31.700Z</time>
      </trkpt>
      <trkpt lat="10.1581340211334" lon="-75.6812040817549">
        <ele>52.3778713</ele>
        <time>2019-09-10T15:35:31.800Z</time>
      </trkpt>
      <trkpt lat="10.1581322622836" lon="-75.6812020065417">
        <ele>52.3778713</ele>
        <time>2019-09-10T15:35:31.900Z</time>
      </trkpt>
      <trkpt lat="10.1581304615633" lon="-75.6811998776631">
        <ele>52.3778713</ele>
        <time>2019-09-10T15:35:32.000Z</time>
      </trkpt>
      <trkpt lat="10.1581286539644" lon="-75.681197739524">
        <ele>52.3778713</ele>
        <time>2019-09-10T15:35:32.100Z</time>
      </trkpt>
      <trkpt lat="10.1581268288565" lon="-75.6811955811756">
        <ele>52.3778713</ele>
        <time>2019-09-10T15:35:32.200Z</time>
      </trkpt>
      <trkpt lat="10.1581249983291" lon="-75.6811934421836">
        <ele>52.3778713</ele>
        <time>2019-09-10T15:35:32.300Z</time>
      </trkpt>
      <trkpt lat="10.158123203862" lon="-75.6811913477271">
        <ele>52.3778713</ele>
        <time>2019-09-10T15:35:32.400Z</time>
      </trkpt>
      <trkpt lat="10.158121420807" lon="-75.6811892576571">
        <ele>52.3778713</ele>
        <time>2019-09-10T15:35:32.500Z</time>
      </trkpt>
      <trkpt lat="10.1581196359281" lon="-75.6811871715994">
        <ele>52.3778713</ele>
        <time>2019-09-10T15:35:32.600Z</time>
      </trkpt>
      <trkpt lat="10.158117855166" lon="-75.6811850739314">
        <ele>52.3778713</ele>
        <time>2019-09-10T15:35:32.700Z</time>
      </trkpt>
      <trkpt lat="10.1581160590053" lon="-75.681182944548">
        <ele>52.3778713</ele>
        <time>2019-09-10T15:35:32.800Z</time>
      </trkpt>
      <trkpt lat="10.1581142681598" lon="-75.6811808039371">
        <ele>52.3778713</ele>
        <time>2019-09-10T15:35:32.900Z</time>
      </trkpt>
      <trkpt lat="10.1581125058968" lon="-75.6811787034839">
        <ele>52.3778713</ele>
        <time>2019-09-10T15:35:33.000Z</time>
      </trkpt>
      <trkpt lat="10.158110750799" lon="-75.6811766120388">
        <ele>52.3778713</ele>
        <time>2019-09-10T15:35:33.100Z</time>
      </trkpt>
      <trkpt lat="10.1581090073477" lon="-75.6811745518042">
        <ele>52.3778713</ele>
        <time>2019-09-10T15:35:33.200Z</time>
      </trkpt>
      <trkpt lat="10.1581072530576" lon="-75.6811724859995">
        <ele>52.3778713</ele>
        <time>2019-09-10T15:35:33.300Z</time>
      </trkpt>
      <trkpt lat="10.1581054567927" lon="-75.6811703848761">
        <ele>52.3778713</ele>
        <time>2019-09-10T15:35:33.400Z</time>
      </trkpt>
      <trkpt lat="10.1581036638368" lon="-75.6811682668072">
        <ele>52.3778713</ele>
        <time>2019-09-10T15:35:33.500Z</time>
      </trkpt>
      <trkpt lat="10.1581019299217" lon="-75.6811662031957">
        <ele>52.3778713</ele>
        <time>2019-09-10T15:35:33.600Z</time>
      </trkpt>
      <trkpt lat="10.1581002045006" lon="-75.6811641353021">
        <ele>52.3778713</ele>
        <time>2019-09-10T15:35:33.700Z</time>
      </trkpt>
      <trkpt lat="10.1580984610494" lon="-75.6811620390962">
        <ele>52.3778713</ele>
        <time>2019-09-10T15:35:33.800Z</time>
      </trkpt>
      <trkpt lat="10.15809670431" lon="-75.6811599301223">
        <ele>52.3778713</ele>
        <time>2019-09-10T15:35:33.900Z</time>
      </trkpt>
      <trkpt lat="10.1580949562471" lon="-75.681157828851">
        <ele>52.3778713</ele>
        <time>2019-09-10T15:35:34.000Z</time>
      </trkpt>
      <trkpt lat="10.1580932059955" lon="-75.6811557374494">
        <ele>52.3778713</ele>
        <time>2019-09-10T15:35:34.100Z</time>
      </trkpt>
      <trkpt lat="10.158091491752" lon="-75.6811536835336">
        <ele>52.2778713</ele>
        <time>2019-09-10T15:35:34.200Z</time>
      </trkpt>
      <trkpt lat="10.1580897697702" lon="-75.6811516289736">
        <ele>52.2778713</ele>
        <time>2019-09-10T15:35:34.300Z</time>
      </trkpt>
      <trkpt lat="10.1580880285597" lon="-75.6811495693831">
        <ele>52.2778713</ele>
        <time>2019-09-10T15:35:34.400Z</time>
      </trkpt>
      <trkpt lat="10.1580862769272" lon="-75.6811474877555">
        <ele>52.2778713</ele>
        <time>2019-09-10T15:35:34.500Z</time>
      </trkpt>
      <trkpt lat="10.1580845094792" lon="-75.6811453451167">
        <ele>52.2778713</ele>
        <time>2019-09-10T15:35:34.600Z</time>
      </trkpt>
      <trkpt lat="10.1580827476331" lon="-75.6811432049498">
        <ele>52.2778713</ele>
        <time>2019-09-10T15:35:34.700Z</time>
      </trkpt>
      <trkpt lat="10.1580810971725" lon="-75.6811411312074">
        <ele>52.2778713</ele>
        <time>2019-09-10T15:35:34.800Z</time>
      </trkpt>
      <trkpt lat="10.1580794511413" lon="-75.6811390743324">
        <ele>52.2778713</ele>
        <time>2019-09-10T15:35:34.900Z</time>
      </trkpt>
      <trkpt lat="10.158077809774" lon="-75.6811370261086">
        <ele>52.2778713</ele>
        <time>2019-09-10T15:35:35.000Z</time>
      </trkpt>
      <trkpt lat="10.1580761416741" lon="-75.6811349699211">
        <ele>52.2778713</ele>
        <time>2019-09-10T15:35:35.100Z</time>
      </trkpt>
      <trkpt lat="10.1580744878003" lon="-75.6811329028717">
        <ele>52.2778713</ele>
        <time>2019-09-10T15:35:35.200Z</time>
      </trkpt>
      <trkpt lat="10.1580711411786" lon="-75.681128749138">
        <ele>52.2778713</ele>
        <time>2019-09-10T15:35:35.400Z</time>
      </trkpt>
      <trkpt lat="10.1580694459814" lon="-75.6811266623144">
        <ele>52.3778713</ele>
        <time>2019-09-10T15:35:35.500Z</time>
      </trkpt>
      <trkpt lat="10.1580677755887" lon="-75.6811246253267">
        <ele>52.3778713</ele>
        <time>2019-09-10T15:35:35.600Z</time>
      </trkpt>
      <trkpt lat="10.1580660983695" lon="-75.6811225826296">
        <ele>52.3778713</ele>
        <time>2019-09-10T15:35:35.700Z</time>
      </trkpt>
      <trkpt lat="10.1580643847253" lon="-75.6811205128647">
        <ele>52.3778713</ele>
        <time>2019-09-10T15:35:35.800Z</time>
      </trkpt>
      <trkpt lat="10.1580626657138" lon="-75.6811184338568">
        <ele>52.3778713</ele>
        <time>2019-09-10T15:35:35.900Z</time>
      </trkpt>
      <trkpt lat="10.1580609763009" lon="-75.6811164036404">
        <ele>52.3778713</ele>
        <time>2019-09-10T15:35:36.000Z</time>
      </trkpt>
      <trkpt lat="10.1580592885555" lon="-75.6811143806478">
        <ele>52.2778713</ele>
        <time>2019-09-10T15:35:36.100Z</time>
      </trkpt>
      <trkpt lat="10.158057649481" lon="-75.6811123415191">
        <ele>52.3778713</ele>
        <time>2019-09-10T15:35:36.200Z</time>
      </trkpt>
      <trkpt lat="10.1580559981085" lon="-75.6811102853838">
        <ele>52.2778713</ele>
        <time>2019-09-10T15:35:36.300Z</time>
      </trkpt>
      <trkpt lat="10.1580543169811" lon="-75.6811081897524">
        <ele>52.2778713</ele>
        <time>2019-09-10T15:35:36.400Z</time>
      </trkpt>
      <trkpt lat="10.1580526182925" lon="-75.681106093999">
        <ele>52.2778713</ele>
        <time>2019-09-10T15:35:36.500Z</time>
      </trkpt>
      <trkpt lat="10.1580509100157" lon="-75.6811040393956">
        <ele>52.2778713</ele>
        <time>2019-09-10T15:35:36.600Z</time>
      </trkpt>
      <trkpt lat="10.1580491922548" lon="-75.681101990432">
        <ele>52.2778713</ele>
        <time>2019-09-10T15:35:36.700Z</time>
      </trkpt>
      <trkpt lat="10.1580474743897" lon="-75.6810999256281">
        <ele>52.2778713</ele>
        <time>2019-09-10T15:35:36.800Z</time>
      </trkpt>
      <trkpt lat="10.1580457542838" lon="-75.6810978512504">
        <ele>52.2778713</ele>
        <time>2019-09-10T15:35:36.900Z</time>
      </trkpt>
      <trkpt lat="10.1580440520518" lon="-75.6810957505884">
        <ele>52.2778713</ele>
        <time>2019-09-10T15:35:37.000Z</time>
      </trkpt>
      <trkpt lat="10.1580423469537" lon="-75.681093645679">
        <ele>52.2778713</ele>
        <time>2019-09-10T15:35:37.100Z</time>
      </trkpt>
      <trkpt lat="10.158040661449" lon="-75.6810915141546">
        <ele>52.2778713</ele>
        <time>2019-09-10T15:35:37.200Z</time>
      </trkpt>
      <trkpt lat="10.1580389603112" lon="-75.681089390028">
        <ele>52.2778713</ele>
        <time>2019-09-10T15:35:37.300Z</time>
      </trkpt>
      <trkpt lat="10.1580372477093" lon="-75.6810872315578">
        <ele>52.2778713</ele>
        <time>2019-09-10T15:35:37.400Z</time>
      </trkpt>
      <trkpt lat="10.1580355296878" lon="-75.6810850943064">
        <ele>52.2778713</ele>
        <time>2019-09-10T15:35:37.500Z</time>
      </trkpt>
      <trkpt lat="10.158033760442" lon="-75.6810828956437">
        <ele>52.2778713</ele>
        <time>2019-09-10T15:35:37.600Z</time>
      </trkpt>
      <trkpt lat="10.1580319895287" lon="-75.681080716111">
        <ele>52.2778713</ele>
        <time>2019-09-10T15:35:37.700Z</time>
      </trkpt>
      <trkpt lat="10.1580302746339" lon="-75.6810785842559">
        <ele>52.2778713</ele>
        <time>2019-09-10T15:35:37.800Z</time>
      </trkpt>
      <trkpt lat="10.1580285629699" lon="-75.681076460199">
        <ele>52.2778713</ele>
        <time>2019-09-10T15:35:37.900Z</time>
      </trkpt>
      <trkpt lat="10.1580268496905" lon="-75.6810743092484">
        <ele>52.2778713</ele>
        <time>2019-09-10T15:35:38.000Z</time>
      </trkpt>
      <trkpt lat="10.1580251256243" lon="-75.6810721523622">
        <ele>52.2778713</ele>
        <time>2019-09-10T15:35:38.100Z</time>
      </trkpt>
      <trkpt lat="10.1580234019749" lon="-75.6810700075737">
        <ele>52.2778713</ele>
        <time>2019-09-10T15:35:38.200Z</time>
      </trkpt>
      <trkpt lat="10.1580216692584" lon="-75.6810678623674">
        <ele>52.2778713</ele>
        <time>2019-09-10T15:35:38.300Z</time>
      </trkpt>
      <trkpt lat="10.1580198951142" lon="-75.6810656639135">
        <ele>52.2778713</ele>
        <time>2019-09-10T15:35:38.400Z</time>
      </trkpt>
      <trkpt lat="10.1580181289951" lon="-75.6810634579224">
        <ele>52.2778713</ele>
        <time>2019-09-10T15:35:38.500Z</time>
      </trkpt>
      <trkpt lat="10.158016394142" lon="-75.6810613028291">
        <ele>52.2778713</ele>
        <time>2019-09-10T15:35:38.600Z</time>
      </trkpt>
      <trkpt lat="10.1580146502739" lon="-75.6810591826365">
        <ele>52.2778713</ele>
        <time>2019-09-10T15:35:38.700Z</time>
      </trkpt>
      <trkpt lat="10.1580129136491" lon="-75.6810570577093">
        <ele>52.2778713</ele>
        <time>2019-09-10T15:35:38.800Z</time>
      </trkpt>
      <trkpt lat="10.1580111500313" lon="-75.6810549287958">
        <ele>52.2778713</ele>
        <time>2019-09-10T15:35:38.900Z</time>
      </trkpt>
      <trkpt lat="10.1580093319061" lon="-75.6810527618658">
        <ele>52.2778713</ele>
        <time>2019-09-10T15:35:39.000Z</time>
      </trkpt>
      <trkpt lat="10.1580075125303" lon="-75.6810505951969">
        <ele>52.2778713</ele>
        <time>2019-09-10T15:35:39.100Z</time>
      </trkpt>
      <trkpt lat="10.1580057304133" lon="-75.6810484876069">
        <ele>52.2778713</ele>
        <time>2019-09-10T15:35:39.200Z</time>
      </trkpt>
      <trkpt lat="10.1580039565297" lon="-75.6810464009051">
        <ele>52.2778713</ele>
        <time>2019-09-10T15:35:39.300Z</time>
      </trkpt>
      <trkpt lat="10.1580021885867" lon="-75.681044335022">
        <ele>52.2778713</ele>
        <time>2019-09-10T15:35:39.400Z</time>
      </trkpt>
      <trkpt lat="10.1580004176734" lon="-75.6810422569367">
        <ele>52.2778713</ele>
        <time>2019-09-10T15:35:39.500Z</time>
      </trkpt>
      <trkpt lat="10.1579968904376" lon="-75.681038105727">
        <ele>52.2778713</ele>
        <time>2019-09-10T15:35:39.700Z</time>
      </trkpt>
      <trkpt lat="10.1579951244748" lon="-75.6810360271891">
        <ele>52.2778713</ele>
        <time>2019-09-10T15:35:39.800Z</time>
      </trkpt>
      <trkpt lat="10.1579915708192" lon="-75.681031851662">
        <ele>52.2778713</ele>
        <time>2019-09-10T15:35:40.000Z</time>
      </trkpt>
      <trkpt lat="10.1579897885459" lon="-75.6810297623492">
        <ele>52.2778713</ele>
        <time>2019-09-10T15:35:40.100Z</time>
      </trkpt>
      <trkpt lat="10.1579879940266" lon="-75.6810277067535">
        <ele>52.2778713</ele>
        <time>2019-09-10T15:35:40.200Z</time>
      </trkpt>
      <trkpt lat="10.1579862077408" lon="-75.6810256476591">
        <ele>52.2778713</ele>
        <time>2019-09-10T15:35:40.300Z</time>
      </trkpt>
      <trkpt lat="10.1579844381303" lon="-75.681023592986">
        <ele>52.2778713</ele>
        <time>2019-09-10T15:35:40.400Z</time>
      </trkpt>
      <trkpt lat="10.1579826603384" lon="-75.6810215161192">
        <ele>52.2778713</ele>
        <time>2019-09-10T15:35:40.500Z</time>
      </trkpt>
      <trkpt lat="10.1579808615982" lon="-75.681019414726">
        <ele>52.2778713</ele>
        <time>2019-09-10T15:35:40.600Z</time>
      </trkpt>
      <trkpt lat="10.1579790628581" lon="-75.681017293315">
        <ele>52.2778713</ele>
        <time>2019-09-10T15:35:40.700Z</time>
      </trkpt>
      <trkpt lat="10.1579772725077" lon="-75.6810151722869">
        <ele>52.3778713</ele>
        <time>2019-09-10T15:35:40.800Z</time>
      </trkpt>
      <trkpt lat="10.1579737623641" lon="-75.6810109836698">
        <ele>52.3778713</ele>
        <time>2019-09-10T15:35:41.000Z</time>
      </trkpt>
      <trkpt lat="10.1579720422061" lon="-75.6810089242446">
        <ele>52.2778713</ele>
        <time>2019-09-10T15:35:41.100Z</time>
      </trkpt>
      <trkpt lat="10.1579703550339" lon="-75.6810069124099">
        <ele>52.2778713</ele>
        <time>2019-09-10T15:35:41.200Z</time>
      </trkpt>
      <trkpt lat="10.1579686800555" lon="-75.681004914901">
        <ele>52.2778713</ele>
        <time>2019-09-10T15:35:41.300Z</time>
      </trkpt>
      <trkpt lat="10.1579670378023" lon="-75.6810029312479">
        <ele>52.2778713</ele>
        <time>2019-09-10T15:35:41.400Z</time>
      </trkpt>
      <trkpt lat="10.1579653862214" lon="-75.6810009225638">
        <ele>52.2778713</ele>
        <time>2019-09-10T15:35:41.500Z</time>
      </trkpt>
      <trkpt lat="10.157963725469" lon="-75.6809989134794">
        <ele>52.2778713</ele>
        <time>2019-09-10T15:35:41.600Z</time>
      </trkpt>
      <trkpt lat="10.157962059193" lon="-75.6809968817137">
        <ele>52.2778713</ele>
        <time>2019-09-10T15:35:41.700Z</time>
      </trkpt>
      <trkpt lat="10.1579604065699" lon="-75.6809948641695">
        <ele>52.2778713</ele>
        <time>2019-09-10T15:35:41.800Z</time>
      </trkpt>
      <trkpt lat="10.1579587358124" lon="-75.6809928242923">
        <ele>52.2778713</ele>
        <time>2019-09-10T15:35:41.900Z</time>
      </trkpt>
      <trkpt lat="10.1579570533301" lon="-75.6809907650586">
        <ele>52.3778713</ele>
        <time>2019-09-10T15:35:42.000Z</time>
      </trkpt>
      <trkpt lat="10.1579553705873" lon="-75.6809886909943">
        <ele>52.3778713</ele>
        <time>2019-09-10T15:35:42.100Z</time>
      </trkpt>
      <trkpt lat="10.1579536859685" lon="-75.6809865929084">
        <ele>52.3778713</ele>
        <time>2019-09-10T15:35:42.200Z</time>
      </trkpt>
      <trkpt lat="10.157952005727" lon="-75.6809845041875">
        <ele>52.3778713</ele>
        <time>2019-09-10T15:35:42.300Z</time>
      </trkpt>
      <trkpt lat="10.1579503176168" lon="-75.6809824122289">
        <ele>52.3778713</ele>
        <time>2019-09-10T15:35:42.400Z</time>
      </trkpt>
      <trkpt lat="10.1579486166354" lon="-75.6809803209665">
        <ele>52.3778713</ele>
        <time>2019-09-10T15:35:42.500Z</time>
      </trkpt>
      <trkpt lat="10.1579469330067" lon="-75.6809782432119">
        <ele>52.3778713</ele>
        <time>2019-09-10T15:35:42.600Z</time>
      </trkpt>
      <trkpt lat="10.157945246564" lon="-75.680976155431">
        <ele>52.3778713</ele>
        <time>2019-09-10T15:35:42.700Z</time>
      </trkpt>
      <trkpt lat="10.157943566583" lon="-75.6809740491639">
        <ele>52.3778713</ele>
        <time>2019-09-10T15:35:42.800Z</time>
      </trkpt>
      <trkpt lat="10.1579418735223" lon="-75.6809719485018">
        <ele>52.3778713</ele>
        <time>2019-09-10T15:35:42.900Z</time>
      </trkpt>
      <trkpt lat="10.1579401805659" lon="-75.6809698462383">
        <ele>52.3778713</ele>
        <time>2019-09-10T15:35:43.000Z</time>
      </trkpt>
      <trkpt lat="10.1579384762495" lon="-75.6809677422342">
        <ele>52.3778713</ele>
        <time>2019-09-10T15:35:43.100Z</time>
      </trkpt>
      <trkpt lat="10.1579368074722" lon="-75.6809656570294">
        <ele>52.3778713</ele>
        <time>2019-09-10T15:35:43.200Z</time>
      </trkpt>
      <trkpt lat="10.1579351360372" lon="-75.68096356803">
        <ele>52.3778713</ele>
        <time>2019-09-10T15:35:43.300Z</time>
      </trkpt>
      <trkpt lat="10.1579334465201" lon="-75.6809614145555">
        <ele>52.3778713</ele>
        <time>2019-09-10T15:35:43.400Z</time>
      </trkpt>
      <trkpt lat="10.1579317352209" lon="-75.6809592472947">
        <ele>52.3778713</ele>
        <time>2019-09-10T15:35:43.500Z</time>
      </trkpt>
      <trkpt lat="10.157929994323" lon="-75.6809570797206">
        <ele>52.3778713</ele>
        <time>2019-09-10T15:35:43.600Z</time>
      </trkpt>
      <trkpt lat="10.1579282431074" lon="-75.6809549249231">
        <ele>52.3778713</ele>
        <time>2019-09-10T15:35:43.700Z</time>
      </trkpt>
      <trkpt lat="10.1579265040334" lon="-75.6809527657392">
        <ele>52.3778713</ele>
        <time>2019-09-10T15:35:43.800Z</time>
      </trkpt>
      <trkpt lat="10.1579247712648" lon="-75.6809506283834">
        <ele>52.3778713</ele>
        <time>2019-09-10T15:35:43.900Z</time>
      </trkpt>
      <trkpt lat="10.1579212734713" lon="-75.6809463667967">
        <ele>52.3778713</ele>
        <time>2019-09-10T15:35:44.100Z</time>
      </trkpt>
      <trkpt lat="10.1579194840589" lon="-75.6809441880822">
        <ele>52.3778713</ele>
        <time>2019-09-10T15:35:44.200Z</time>
      </trkpt>
      <trkpt lat="10.1579177026714" lon="-75.6809420228058">
        <ele>52.3778713</ele>
        <time>2019-09-10T15:35:44.300Z</time>
      </trkpt>
      <trkpt lat="10.1579159665677" lon="-75.6809399203334">
        <ele>52.3778713</ele>
        <time>2019-09-10T15:35:44.400Z</time>
      </trkpt>
      <trkpt lat="10.1579142180618" lon="-75.6809378343976">
        <ele>52.3778713</ele>
        <time>2019-09-10T15:35:44.500Z</time>
      </trkpt>
      <trkpt lat="10.1579124737247" lon="-75.6809357195315">
        <ele>52.3778713</ele>
        <time>2019-09-10T15:35:44.600Z</time>
      </trkpt>
      <trkpt lat="10.1579107173501" lon="-75.6809335942561">
        <ele>52.3778713</ele>
        <time>2019-09-10T15:35:44.700Z</time>
      </trkpt>
      <trkpt lat="10.157908943206" lon="-75.6809314709651">
        <ele>52.3778713</ele>
        <time>2019-09-10T15:35:44.800Z</time>
      </trkpt>
      <trkpt lat="10.157907158744" lon="-75.6809293531051">
        <ele>52.3778713</ele>
        <time>2019-09-10T15:35:44.900Z</time>
      </trkpt>
      <trkpt lat="10.157905365267" lon="-75.6809271767231">
        <ele>52.3778713</ele>
        <time>2019-09-10T15:35:45.000Z</time>
      </trkpt>
      <trkpt lat="10.1579035764278" lon="-75.6809250057025">
        <ele>52.3778713</ele>
        <time>2019-09-10T15:35:45.100Z</time>
      </trkpt>
      <trkpt lat="10.1579018444408" lon="-75.6809228605136">
        <ele>52.3778713</ele>
        <time>2019-09-10T15:35:45.200Z</time>
      </trkpt>
      <trkpt lat="10.1579001046894" lon="-75.6809207290066">
        <ele>52.3778713</ele>
        <time>2019-09-10T15:35:45.300Z</time>
      </trkpt>
      <trkpt lat="10.1578983576947" lon="-75.6809185922426">
        <ele>52.3778713</ele>
        <time>2019-09-10T15:35:45.400Z</time>
      </trkpt>
      <trkpt lat="10.1578965959007" lon="-75.6809164659229">
        <ele>52.3778713</ele>
        <time>2019-09-10T15:35:45.500Z</time>
      </trkpt>
      <trkpt lat="10.1578948329602" lon="-75.6809143558263">
        <ele>52.3778713</ele>
        <time>2019-09-10T15:35:45.600Z</time>
      </trkpt>
      <trkpt lat="10.157893069186" lon="-75.6809122454164">
        <ele>52.3778713</ele>
        <time>2019-09-10T15:35:45.700Z</time>
      </trkpt>
      <trkpt lat="10.1578913003571" lon="-75.6809101100798">
        <ele>52.3778713</ele>
        <time>2019-09-10T15:35:45.800Z</time>
      </trkpt>
      <trkpt lat="10.157889534707" lon="-75.6809079723759">
        <ele>52.3778713</ele>
        <time>2019-09-10T15:35:45.900Z</time>
      </trkpt>
      <trkpt lat="10.1578877550913" lon="-75.6809058424007">
        <ele>52.3778713</ele>
        <time>2019-09-10T15:35:46.000Z</time>
      </trkpt>
      <trkpt lat="10.1578859762051" lon="-75.6809037178564">
        <ele>52.3778713</ele>
        <time>2019-09-10T15:35:46.100Z</time>
      </trkpt>
      <trkpt lat="10.1578842123267" lon="-75.6809016058451">
        <ele>52.3778713</ele>
        <time>2019-09-10T15:35:46.200Z</time>
      </trkpt>
      <trkpt lat="10.1578824499594" lon="-75.6808994922323">
        <ele>52.3778713</ele>
        <time>2019-09-10T15:35:46.300Z</time>
      </trkpt>
      <trkpt lat="10.1578806759716" lon="-75.680897357209">
        <ele>52.3778713</ele>
        <time>2019-09-10T15:35:46.400Z</time>
      </trkpt>
      <trkpt lat="10.1578789128748" lon="-75.6808952211414">
        <ele>52.3778713</ele>
        <time>2019-09-10T15:35:46.500Z</time>
      </trkpt>
      <trkpt lat="10.1578771745825" lon="-75.6808931101745">
        <ele>52.3778713</ele>
        <time>2019-09-10T15:35:46.600Z</time>
      </trkpt>
      <trkpt lat="10.1578754460869" lon="-75.6808909991031">
        <ele>52.3778713</ele>
        <time>2019-09-10T15:35:46.700Z</time>
      </trkpt>
      <trkpt lat="10.1578737085242" lon="-75.6808888272817">
        <ele>52.3778713</ele>
        <time>2019-09-10T15:35:46.800Z</time>
      </trkpt>
      <trkpt lat="10.1578719706487" lon="-75.6808866536849">
        <ele>52.3778713</ele>
        <time>2019-09-10T15:35:46.900Z</time>
      </trkpt>
      <trkpt lat="10.1578702586721" lon="-75.6808845395847">
        <ele>52.3778713</ele>
        <time>2019-09-10T15:35:47.000Z</time>
      </trkpt>
      <trkpt lat="10.1578685422139" lon="-75.6808824363812">
        <ele>52.3778713</ele>
        <time>2019-09-10T15:35:47.100Z</time>
      </trkpt>
      <trkpt lat="10.1578668456619" lon="-75.6808803625606">
        <ele>52.3778713</ele>
        <time>2019-09-10T15:35:47.200Z</time>
      </trkpt>
      <trkpt lat="10.1578651432735" lon="-75.680878281255">
        <ele>52.3778713</ele>
        <time>2019-09-10T15:35:47.300Z</time>
      </trkpt>
      <trkpt lat="10.1578634073262" lon="-75.6808761742568">
        <ele>52.3778713</ele>
        <time>2019-09-10T15:35:47.400Z</time>
      </trkpt>
      <trkpt lat="10.1578616666889" lon="-75.6808740516969">
        <ele>52.3778713</ele>
        <time>2019-09-10T15:35:47.500Z</time>
      </trkpt>
      <trkpt lat="10.1578599746704" lon="-75.6808719694861">
        <ele>52.3778713</ele>
        <time>2019-09-10T15:35:47.600Z</time>
      </trkpt>
      <trkpt lat="10.1578582715525" lon="-75.6808698842814">
        <ele>52.3778713</ele>
        <time>2019-09-10T15:35:47.700Z</time>
      </trkpt>
      <trkpt lat="10.1578565550423" lon="-75.6808677650636">
        <ele>52.3778713</ele>
        <time>2019-09-10T15:35:47.800Z</time>
      </trkpt>
      <trkpt lat="10.157854846088" lon="-75.6808656311544">
        <ele>52.3778713</ele>
        <time>2019-09-10T15:35:47.900Z</time>
      </trkpt>
      <trkpt lat="10.1578531137362" lon="-75.6808634456861">
        <ele>52.3778713</ele>
        <time>2019-09-10T15:35:48.000Z</time>
      </trkpt>
      <trkpt lat="10.1578513937346" lon="-75.6808612658923">
        <ele>52.3778713</ele>
        <time>2019-09-10T15:35:48.100Z</time>
      </trkpt>
      <trkpt lat="10.1578497247489" lon="-75.6808591118956">
        <ele>52.3778713</ele>
        <time>2019-09-10T15:35:48.200Z</time>
      </trkpt>
      <trkpt lat="10.1578480535224" lon="-75.6808569767679">
        <ele>52.3778713</ele>
        <time>2019-09-10T15:35:48.300Z</time>
      </trkpt>
      <trkpt lat="10.1578447191465" lon="-75.6808527663226">
        <ele>52.3778713</ele>
        <time>2019-09-10T15:35:48.500Z</time>
      </trkpt>
      <trkpt lat="10.1578430433865" lon="-75.6808506691071">
        <ele>52.3778713</ele>
        <time>2019-09-10T15:35:48.600Z</time>
      </trkpt>
      <trkpt lat="10.1578396718039" lon="-75.6808464832751">
        <ele>52.3778713</ele>
        <time>2019-09-10T15:35:48.800Z</time>
      </trkpt>
      <trkpt lat="10.157837977701" lon="-75.6808444035013">
        <ele>52.3778713</ele>
        <time>2019-09-10T15:35:48.900Z</time>
      </trkpt>
      <trkpt lat="10.1578362768238" lon="-75.6808423271393">
        <ele>52.3778713</ele>
        <time>2019-09-10T15:35:49.000Z</time>
      </trkpt>
      <trkpt lat="10.1578345670358" lon="-75.6808402556163">
        <ele>52.3778713</ele>
        <time>2019-09-10T15:35:49.100Z</time>
      </trkpt>
      <trkpt lat="10.1578328290562" lon="-75.6808381846156">
        <ele>52.3778713</ele>
        <time>2019-09-10T15:35:49.200Z</time>
      </trkpt>
      <trkpt lat="10.1578310991536" lon="-75.6808361273315">
        <ele>52.3778713</ele>
        <time>2019-09-10T15:35:49.300Z</time>
      </trkpt>
      <trkpt lat="10.1578293694073" lon="-75.6808340530583">
        <ele>52.3778713</ele>
        <time>2019-09-10T15:35:49.400Z</time>
      </trkpt>
      <trkpt lat="10.157827652845" lon="-75.6808319885677">
        <ele>52.3778713</ele>
        <time>2019-09-10T15:35:49.500Z</time>
      </trkpt>
      <trkpt lat="10.1578259439428" lon="-75.6808299815546">
        <ele>52.3778713</ele>
        <time>2019-09-10T15:35:49.600Z</time>
      </trkpt>
      <trkpt lat="10.1578242261298" lon="-75.680827975586">
        <ele>52.3778713</ele>
        <time>2019-09-10T15:35:49.700Z</time>
      </trkpt>
      <trkpt lat="10.1578225090464" lon="-75.6808259856665">
        <ele>52.3778713</ele>
        <time>2019-09-10T15:35:49.800Z</time>
      </trkpt>
      <trkpt lat="10.1578207913376" lon="-75.6808239629873">
        <ele>52.3778713</ele>
        <time>2019-09-10T15:35:49.900Z</time>
      </trkpt>
      <trkpt lat="10.1578190589858" lon="-75.6808218717597">
        <ele>52.3778713</ele>
        <time>2019-09-10T15:35:50.000Z</time>
      </trkpt>
      <trkpt lat="10.1578173240286" lon="-75.6808197653186">
        <ele>52.3778713</ele>
        <time>2019-09-10T15:35:50.100Z</time>
      </trkpt>
      <trkpt lat="10.1578155809942" lon="-75.6808176547346">
        <ele>52.3778713</ele>
        <time>2019-09-10T15:35:50.200Z</time>
      </trkpt>
      <trkpt lat="10.1578138409302" lon="-75.6808155486764">
        <ele>52.3778713</ele>
        <time>2019-09-10T15:35:50.300Z</time>
      </trkpt>
      <trkpt lat="10.1578121245241" lon="-75.6808134683804">
        <ele>52.3778713</ele>
        <time>2019-09-10T15:35:50.400Z</time>
      </trkpt>
      <trkpt lat="10.1578104068154" lon="-75.680811390974">
        <ele>52.3778713</ele>
        <time>2019-09-10T15:35:50.500Z</time>
      </trkpt>
      <trkpt lat="10.1578086804042" lon="-75.6808093111653">
        <ele>52.3778713</ele>
        <time>2019-09-10T15:35:50.600Z</time>
      </trkpt>
      <trkpt lat="10.1578069443526" lon="-75.6808072301034">
        <ele>52.3778713</ele>
        <time>2019-09-10T15:35:50.700Z</time>
      </trkpt>
      <trkpt lat="10.1578052080926" lon="-75.6808051499467">
        <ele>52.3778713</ele>
        <time>2019-09-10T15:35:50.800Z</time>
      </trkpt>
      <trkpt lat="10.1578034775647" lon="-75.6808030713914">
        <ele>52.3778713</ele>
        <time>2019-09-10T15:35:50.900Z</time>
      </trkpt>
      <trkpt lat="10.1578017358852" lon="-75.6808009718782">
        <ele>52.3778713</ele>
        <time>2019-09-10T15:35:51.000Z</time>
      </trkpt>
      <trkpt lat="10.1577999741954" lon="-75.6807988591357">
        <ele>52.3778713</ele>
        <time>2019-09-10T15:35:51.100Z</time>
      </trkpt>
      <trkpt lat="10.1577982207911" lon="-75.6807966882543">
        <ele>52.3778713</ele>
        <time>2019-09-10T15:35:51.200Z</time>
      </trkpt>
      <trkpt lat="10.1577964441978" lon="-75.6807945188699">
        <ele>52.3778713</ele>
        <time>2019-09-10T15:35:51.300Z</time>
      </trkpt>
      <trkpt lat="10.1577946278444" lon="-75.6807923523402">
        <ele>52.3778713</ele>
        <time>2019-09-10T15:35:51.400Z</time>
      </trkpt>
      <trkpt lat="10.1577928026323" lon="-75.6807901952103">
        <ele>52.3778713</ele>
        <time>2019-09-10T15:35:51.500Z</time>
      </trkpt>
      <trkpt lat="10.1577910507392" lon="-75.6807880729289">
        <ele>52.3778713</ele>
        <time>2019-09-10T15:35:51.600Z</time>
      </trkpt>
      <trkpt lat="10.1577893141144" lon="-75.6807859663485">
        <ele>52.3778713</ele>
        <time>2019-09-10T15:35:51.700Z</time>
      </trkpt>
      <trkpt lat="10.1577875806683" lon="-75.6807838197671">
        <ele>52.3778713</ele>
        <time>2019-09-10T15:35:51.800Z</time>
      </trkpt>
      <trkpt lat="10.1577858429492" lon="-75.6807816741257">
        <ele>52.3778713</ele>
        <time>2019-09-10T15:35:51.900Z</time>
      </trkpt>
      <trkpt lat="10.1577841438959" lon="-75.6807795135839">
        <ele>52.3778713</ele>
        <time>2019-09-10T15:35:52.000Z</time>
      </trkpt>
      <trkpt lat="10.1577824452073" lon="-75.6807773675944">
        <ele>52.3778713</ele>
        <time>2019-09-10T15:35:52.100Z</time>
      </trkpt>
      <trkpt lat="10.1577807516256" lon="-75.680775244756">
        <ele>52.3778713</ele>
        <time>2019-09-10T15:35:52.200Z</time>
      </trkpt>
      <trkpt lat="10.1577790548651" lon="-75.6807731374793">
        <ele>52.3778713</ele>
        <time>2019-09-10T15:35:52.300Z</time>
      </trkpt>
      <trkpt lat="10.1577773458066" lon="-75.6807710206637">
        <ele>52.3778713</ele>
        <time>2019-09-10T15:35:52.400Z</time>
      </trkpt>
      <trkpt lat="10.1577756264824" lon="-75.68076891189">
        <ele>52.3778713</ele>
        <time>2019-09-10T15:35:52.500Z</time>
      </trkpt>
      <trkpt lat="10.1577739114834" lon="-75.6807668453454">
        <ele>52.3778713</ele>
        <time>2019-09-10T15:35:52.600Z</time>
      </trkpt>
      <trkpt lat="10.1577721931493" lon="-75.6807647880961">
        <ele>52.3778713</ele>
        <time>2019-09-10T15:35:52.700Z</time>
      </trkpt>
      <trkpt lat="10.1577687235995" lon="-75.6807606664955">
        <ele>52.3778713</ele>
        <time>2019-09-10T15:35:52.900Z</time>
      </trkpt>
      <trkpt lat="10.1577669760837" lon="-75.6807586165571">
        <ele>52.3778713</ele>
        <time>2019-09-10T15:35:53.000Z</time>
      </trkpt>
      <trkpt lat="10.1577652251286" lon="-75.6807565629632">
        <ele>52.3778713</ele>
        <time>2019-09-10T15:35:53.100Z</time>
      </trkpt>
      <trkpt lat="10.1577633964772" lon="-75.6807544570791">
        <ele>52.3778713</ele>
        <time>2019-09-10T15:35:53.200Z</time>
      </trkpt>
      <trkpt lat="10.1577615702228" lon="-75.6807523420738">
        <ele>52.3778713</ele>
        <time>2019-09-10T15:35:53.300Z</time>
      </trkpt>
      <trkpt lat="10.1577597796119" lon="-75.6807502672087">
        <ele>52.3778713</ele>
        <time>2019-09-10T15:35:53.400Z</time>
      </trkpt>
      <trkpt lat="10.1577580038523" lon="-75.6807481964865">
        <ele>52.3778713</ele>
        <time>2019-09-10T15:35:53.500Z</time>
      </trkpt>
      <trkpt lat="10.1577562214748" lon="-75.680746114032">
        <ele>52.3778713</ele>
        <time>2019-09-10T15:35:53.600Z</time>
      </trkpt>
      <trkpt lat="10.1577544405042" lon="-75.6807440281658">
        <ele>52.3778713</ele>
        <time>2019-09-10T15:35:53.700Z</time>
      </trkpt>
      <trkpt lat="10.1577526232649" lon="-75.6807419069985">
        <ele>52.3778713</ele>
        <time>2019-09-10T15:35:53.800Z</time>
      </trkpt>
      <trkpt lat="10.1577508150928" lon="-75.6807397939776">
        <ele>52.3778713</ele>
        <time>2019-09-10T15:35:53.900Z</time>
      </trkpt>
      <trkpt lat="10.1577490355813" lon="-75.6807377444221">
        <ele>52.2778713</ele>
        <time>2019-09-10T15:35:54.000Z</time>
      </trkpt>
      <trkpt lat="10.1577472709212" lon="-75.6807357070166">
        <ele>52.2778713</ele>
        <time>2019-09-10T15:35:54.100Z</time>
      </trkpt>
      <trkpt lat="10.1577454783822" lon="-75.6807336289139">
        <ele>52.2778713</ele>
        <time>2019-09-10T15:35:54.200Z</time>
      </trkpt>
      <trkpt lat="10.1577436932949" lon="-75.6807315472601">
        <ele>52.2778713</ele>
        <time>2019-09-10T15:35:54.300Z</time>
      </trkpt>
      <trkpt lat="10.1577419305629" lon="-75.6807295128487">
        <ele>52.2778713</ele>
        <time>2019-09-10T15:35:54.400Z</time>
      </trkpt>
      <trkpt lat="10.1577401785656" lon="-75.6807274797601">
        <ele>52.2778713</ele>
        <time>2019-09-10T15:35:54.500Z</time>
      </trkpt>
      <trkpt lat="10.1577384377199" lon="-75.680725450327">
        <ele>52.2778713</ele>
        <time>2019-09-10T15:35:54.600Z</time>
      </trkpt>
      <trkpt lat="10.1577366942687" lon="-75.6807234104846">
        <ele>52.2778713</ele>
        <time>2019-09-10T15:35:54.700Z</time>
      </trkpt>
      <trkpt lat="10.1577349002184" lon="-75.6807213387876">
        <ele>52.2778713</ele>
        <time>2019-09-10T15:35:54.800Z</time>
      </trkpt>
      <trkpt lat="10.157733107992" lon="-75.6807192597448">
        <ele>52.2778713</ele>
        <time>2019-09-10T15:35:54.900Z</time>
      </trkpt>
      <trkpt lat="10.1577313315551" lon="-75.6807171821295">
        <ele>52.2778713</ele>
        <time>2019-09-10T15:35:55.000Z</time>
      </trkpt>
      <trkpt lat="10.1577295686146" lon="-75.6807151078911">
        <ele>52.2778713</ele>
        <time>2019-09-10T15:35:55.100Z</time>
      </trkpt>
      <trkpt lat="10.1577278222973" lon="-75.680713043122">
        <ele>52.2778713</ele>
        <time>2019-09-10T15:35:55.200Z</time>
      </trkpt>
      <trkpt lat="10.1577260780644" lon="-75.6807109780744">
        <ele>52.2778713</ele>
        <time>2019-09-10T15:35:55.300Z</time>
      </trkpt>
      <trkpt lat="10.1577243480577" lon="-75.6807089227399">
        <ele>52.2778713</ele>
        <time>2019-09-10T15:35:55.400Z</time>
      </trkpt>
      <trkpt lat="10.1577226174255" lon="-75.6807068619396">
        <ele>52.2778713</ele>
        <time>2019-09-10T15:35:55.500Z</time>
      </trkpt>
      <trkpt lat="10.1577208952874" lon="-75.6807048112005">
        <ele>52.2778713</ele>
        <time>2019-09-10T15:35:55.600Z</time>
      </trkpt>
      <trkpt lat="10.1577191696057" lon="-75.6807027544734">
        <ele>52.2778713</ele>
        <time>2019-09-10T15:35:55.700Z</time>
      </trkpt>
      <trkpt lat="10.1577174468423" lon="-75.6807006758136">
        <ele>52.2778713</ele>
        <time>2019-09-10T15:35:55.800Z</time>
      </trkpt>
      <trkpt lat="10.1577157230366" lon="-75.6806985932895">
        <ele>52.2778713</ele>
        <time>2019-09-10T15:35:55.900Z</time>
      </trkpt>
      <trkpt lat="10.1577139990746" lon="-75.6806964902253">
        <ele>52.2778713</ele>
        <time>2019-09-10T15:35:56.000Z</time>
      </trkpt>
      <trkpt lat="10.1577122746957" lon="-75.6806943885188">
        <ele>52.2778713</ele>
        <time>2019-09-10T15:35:56.100Z</time>
      </trkpt>
      <trkpt lat="10.1577105765803" lon="-75.6806923072829">
        <ele>52.2778713</ele>
        <time>2019-09-10T15:35:56.200Z</time>
      </trkpt>
      <trkpt lat="10.1577088747131" lon="-75.6806902300853">
        <ele>52.2778713</ele>
        <time>2019-09-10T15:35:56.300Z</time>
      </trkpt>
      <trkpt lat="10.1577071916055" lon="-75.6806881730797">
        <ele>52.2778713</ele>
        <time>2019-09-10T15:35:56.400Z</time>
      </trkpt>
      <trkpt lat="10.1577054985448" lon="-75.6806861087632">
        <ele>52.2778713</ele>
        <time>2019-09-10T15:35:56.500Z</time>
      </trkpt>
      <trkpt lat="10.1577037898511" lon="-75.6806840276665">
        <ele>52.2778713</ele>
        <time>2019-09-10T15:35:56.600Z</time>
      </trkpt>
      <trkpt lat="10.1577020709959" lon="-75.6806819376574">
        <ele>52.2778713</ele>
        <time>2019-09-10T15:35:56.700Z</time>
      </trkpt>
      <trkpt lat="10.1577003657414" lon="-75.6806798352547">
        <ele>52.2778713</ele>
        <time>2019-09-10T15:35:56.800Z</time>
      </trkpt>
      <trkpt lat="10.1576986531916" lon="-75.680677732643">
        <ele>52.2778713</ele>
        <time>2019-09-10T15:35:56.900Z</time>
      </trkpt>
      <trkpt lat="10.1576951889049" lon="-75.6806735817989">
        <ele>52.2778713</ele>
        <time>2019-09-10T15:35:57.100Z</time>
      </trkpt>
      <trkpt lat="10.1576934140834" lon="-75.6806714660276">
        <ele>52.2778713</ele>
        <time>2019-09-10T15:35:57.200Z</time>
      </trkpt>
      <trkpt lat="10.1576916442644" lon="-75.6806693495602">
        <ele>52.2778713</ele>
        <time>2019-09-10T15:35:57.300Z</time>
      </trkpt>
      <trkpt lat="10.157689902168" lon="-75.6806672631021">
        <ele>52.2778713</ele>
        <time>2019-09-10T15:35:57.400Z</time>
      </trkpt>
      <trkpt lat="10.157688165908" lon="-75.6806651796381">
        <ele>52.2778713</ele>
        <time>2019-09-10T15:35:57.500Z</time>
      </trkpt>
      <trkpt lat="10.157686430586" lon="-75.6806630930407">
        <ele>52.2778713</ele>
        <time>2019-09-10T15:35:57.600Z</time>
      </trkpt>
      <trkpt lat="10.1576846941175" lon="-75.6806610041457">
        <ele>52.2778713</ele>
        <time>2019-09-10T15:35:57.700Z</time>
      </trkpt>
      <trkpt lat="10.1576829271125" lon="-75.6806589425447">
        <ele>52.2778713</ele>
        <time>2019-09-10T15:35:57.800Z</time>
      </trkpt>
      <trkpt lat="10.1576811606806" lon="-75.6806568758609">
        <ele>52.2778713</ele>
        <time>2019-09-10T15:35:57.900Z</time>
      </trkpt>
      <trkpt lat="10.1576793965417" lon="-75.6806548020054">
        <ele>52.2778713</ele>
        <time>2019-09-10T15:35:58.000Z</time>
      </trkpt>
      <trkpt lat="10.1576776407403" lon="-75.6806527216746">
        <ele>52.2778713</ele>
        <time>2019-09-10T15:35:58.100Z</time>
      </trkpt>
      <trkpt lat="10.1576758576332" lon="-75.680650598314">
        <ele>52.2778713</ele>
        <time>2019-09-10T15:35:58.200Z</time>
      </trkpt>
      <trkpt lat="10.1576740799977" lon="-75.6806484708453">
        <ele>52.2778713</ele>
        <time>2019-09-10T15:35:58.300Z</time>
      </trkpt>
      <trkpt lat="10.1576722820913" lon="-75.6806463329326">
        <ele>52.2778713</ele>
        <time>2019-09-10T15:35:58.400Z</time>
      </trkpt>
      <trkpt lat="10.1576704948154" lon="-75.6806442045588">
        <ele>52.2778713</ele>
        <time>2019-09-10T15:35:58.500Z</time>
      </trkpt>
      <trkpt lat="10.1576687249443" lon="-75.6806420792486">
        <ele>52.2778713</ele>
        <time>2019-09-10T15:35:58.600Z</time>
      </trkpt>
      <trkpt lat="10.1576669668501" lon="-75.6806399627114">
        <ele>52.2778713</ele>
        <time>2019-09-10T15:35:58.700Z</time>
      </trkpt>
      <trkpt lat="10.1576652782188" lon="-75.6806378879508">
        <ele>52.2778713</ele>
        <time>2019-09-10T15:35:58.800Z</time>
      </trkpt>
      <trkpt lat="10.157663594538" lon="-75.6806358168108">
        <ele>52.2778713</ele>
        <time>2019-09-10T15:35:58.900Z</time>
      </trkpt>
      <trkpt lat="10.1576618638017" lon="-75.6806336833542">
        <ele>52.2778713</ele>
        <time>2019-09-10T15:35:59.000Z</time>
      </trkpt>
      <trkpt lat="10.1576601126381" lon="-75.6806315466251">
        <ele>52.2778713</ele>
        <time>2019-09-10T15:35:59.100Z</time>
      </trkpt>
      <trkpt lat="10.1576583573579" lon="-75.6806294153966">
        <ele>52.2778713</ele>
        <time>2019-09-10T15:35:59.200Z</time>
      </trkpt>
      <trkpt lat="10.1576566075492" lon="-75.680627297815">
        <ele>52.2778713</ele>
        <time>2019-09-10T15:35:59.300Z</time>
      </trkpt>
      <trkpt lat="10.1576548938008" lon="-75.6806251857341">
        <ele>52.2778713</ele>
        <time>2019-09-10T15:35:59.400Z</time>
      </trkpt>
      <trkpt lat="10.1576531816678" lon="-75.680623081521">
        <ele>52.2778713</ele>
        <time>2019-09-10T15:35:59.500Z</time>
      </trkpt>
      <trkpt lat="10.1576514682842" lon="-75.6806209817641">
        <ele>52.2778713</ele>
        <time>2019-09-10T15:35:59.600Z</time>
      </trkpt>
      <trkpt lat="10.1576497467714" lon="-75.680618886533">
        <ele>52.2778713</ele>
        <time>2019-09-10T15:35:59.700Z</time>
      </trkpt>
      <trkpt lat="10.1576480174941" lon="-75.680616824375">
        <ele>52.2778713</ele>
        <time>2019-09-10T15:35:59.800Z</time>
      </trkpt>
      <trkpt lat="10.1576462843086" lon="-75.6806147605459">
        <ele>52.2778713</ele>
        <time>2019-09-10T15:35:59.900Z</time>
      </trkpt>
      <trkpt lat="10.1576445429939" lon="-75.6806126910769">
        <ele>52.2778713</ele>
        <time>2019-09-10T15:36:00.000Z</time>
      </trkpt>
      <trkpt lat="10.1576428034509" lon="-75.6806106162467">
        <ele>52.2778713</ele>
        <time>2019-09-10T15:36:00.100Z</time>
      </trkpt>
      <trkpt lat="10.1576411184152" lon="-75.6806085642543">
        <ele>52.2778713</ele>
        <time>2019-09-10T15:36:00.200Z</time>
      </trkpt>
      <trkpt lat="10.157639431712" lon="-75.6806065056472">
        <ele>52.2778713</ele>
        <time>2019-09-10T15:36:00.300Z</time>
      </trkpt>
      <trkpt lat="10.1576377387556" lon="-75.6806044322095">
        <ele>52.2778713</ele>
        <time>2019-09-10T15:36:00.400Z</time>
      </trkpt>
      <trkpt lat="10.1576360297492" lon="-75.6806023516698">
        <ele>52.2778713</ele>
        <time>2019-09-10T15:36:00.500Z</time>
      </trkpt>
      <trkpt lat="10.1576343092786" lon="-75.6806002881192">
        <ele>52.2778713</ele>
        <time>2019-09-10T15:36:00.600Z</time>
      </trkpt>
      <trkpt lat="10.1576325840138" lon="-75.6805982191377">
        <ele>52.2778713</ele>
        <time>2019-09-10T15:36:00.700Z</time>
      </trkpt>
      <trkpt lat="10.1576308790721" lon="-75.6805961323315">
        <ele>52.2778713</ele>
        <time>2019-09-10T15:36:00.800Z</time>
      </trkpt>
      <trkpt lat="10.1576291731923" lon="-75.6805940378663">
        <ele>52.2778713</ele>
        <time>2019-09-10T15:36:00.900Z</time>
      </trkpt>
      <trkpt lat="10.1576274608509" lon="-75.6805918952885">
        <ele>52.2778713</ele>
        <time>2019-09-10T15:36:01.000Z</time>
      </trkpt>
      <trkpt lat="10.1576257415267" lon="-75.6805897597431">
        <ele>52.2778713</ele>
        <time>2019-09-10T15:36:01.100Z</time>
      </trkpt>
      <trkpt lat="10.1576240099044" lon="-75.6805876239887">
        <ele>52.2778713</ele>
        <time>2019-09-10T15:36:01.200Z</time>
      </trkpt>
      <trkpt lat="10.1576205661492" lon="-75.6805833494861">
        <ele>52.2778713</ele>
        <time>2019-09-10T15:36:01.400Z</time>
      </trkpt>
      <trkpt lat="10.1576188568302" lon="-75.6805812023825">
        <ele>52.2778713</ele>
        <time>2019-09-10T15:36:01.500Z</time>
      </trkpt>
      <trkpt lat="10.1576171657497" lon="-75.6805790932955">
        <ele>52.2778713</ele>
        <time>2019-09-10T15:36:01.600Z</time>
      </trkpt>
      <trkpt lat="10.1576154663316" lon="-75.6805769949312">
        <ele>52.2778713</ele>
        <time>2019-09-10T15:36:01.700Z</time>
      </trkpt>
      <trkpt lat="10.1576137540944" lon="-75.6805748741468">
        <ele>52.2778713</ele>
        <time>2019-09-10T15:36:01.800Z</time>
      </trkpt>
      <trkpt lat="10.1576120333111" lon="-75.6805727496721">
        <ele>52.2778713</ele>
        <time>2019-09-10T15:36:01.900Z</time>
      </trkpt>
      <trkpt lat="10.157610359427" lon="-75.6805706374519">
        <ele>52.2778713</ele>
        <time>2019-09-10T15:36:02.000Z</time>
      </trkpt>
      <trkpt lat="10.157608683667" lon="-75.6805685292004">
        <ele>52.2778713</ele>
        <time>2019-09-10T15:36:02.100Z</time>
      </trkpt>
      <trkpt lat="10.1576069928992" lon="-75.6805663981808">
        <ele>52.2778713</ele>
        <time>2019-09-10T15:36:02.200Z</time>
      </trkpt>
      <trkpt lat="10.1576052837886" lon="-75.6805642646545">
        <ele>52.2778713</ele>
        <time>2019-09-10T15:36:02.300Z</time>
      </trkpt>
      <trkpt lat="10.1576035636306" lon="-75.6805621238174">
        <ele>52.2778713</ele>
        <time>2019-09-10T15:36:02.400Z</time>
      </trkpt>
      <trkpt lat="10.1576019141341" lon="-75.6805600439043">
        <ele>52.2778713</ele>
        <time>2019-09-10T15:36:02.500Z</time>
      </trkpt>
      <trkpt lat="10.1576004433756" lon="-75.6805580419741">
        <ele>52.2778713</ele>
        <time>2019-09-10T15:36:02.600Z</time>
      </trkpt>
      <trkpt lat="10.1575991555239" lon="-75.6805560724903">
        <ele>52.2778713</ele>
        <time>2019-09-10T15:36:02.700Z</time>
      </trkpt>
      <trkpt lat="10.1575981184265" lon="-75.6805541520939">
        <ele>52.2778713</ele>
        <time>2019-09-10T15:36:02.800Z</time>
      </trkpt>
      <trkpt lat="10.1575973094677" lon="-75.6805522393565">
        <ele>52.2778713</ele>
        <time>2019-09-10T15:36:02.900Z</time>
      </trkpt>
      <trkpt lat="10.1575967897205" lon="-75.6805503632431">
        <ele>52.2778713</ele>
        <time>2019-09-10T15:36:03.000Z</time>
      </trkpt>
      <trkpt lat="10.1575965283357" lon="-75.6805484906112">
        <ele>52.2778713</ele>
        <time>2019-09-10T15:36:03.100Z</time>
      </trkpt>
      <trkpt lat="10.1575969618926" lon="-75.6805449152384">
        <ele>52.2778713</ele>
        <time>2019-09-10T15:36:03.300Z</time>
      </trkpt>
      <trkpt lat="10.1575976702788" lon="-75.6805433024563">
        <ele>52.2778713</ele>
        <time>2019-09-10T15:36:03.400Z</time>
      </trkpt>
      <trkpt lat="10.1575986734003" lon="-75.6805416892565">
        <ele>52.2778713</ele>
        <time>2019-09-10T15:36:03.500Z</time>
      </trkpt>
      <trkpt lat="10.1576000364991" lon="-75.6805402339022">
        <ele>52.2778713</ele>
        <time>2019-09-10T15:36:03.600Z</time>
      </trkpt>
      <trkpt lat="10.1576016982936" lon="-75.6805387494437">
        <ele>52.2778713</ele>
        <time>2019-09-10T15:36:03.700Z</time>
      </trkpt>
      <trkpt lat="10.1576036081327" lon="-75.6805374478966">
        <ele>52.2778713</ele>
        <time>2019-09-10T15:36:03.800Z</time>
      </trkpt>
      <trkpt lat="10.1576056760742" lon="-75.6805361129979">
        <ele>52.2778713</ele>
        <time>2019-09-10T15:36:03.900Z</time>
      </trkpt>
      <trkpt lat="10.1576078190544" lon="-75.6805349215319">
        <ele>52.2778713</ele>
        <time>2019-09-10T15:36:04.000Z</time>
      </trkpt>
      <trkpt lat="10.1576101731852" lon="-75.6805335958937">
        <ele>52.2778713</ele>
        <time>2019-09-10T15:36:04.100Z</time>
      </trkpt>
      <trkpt lat="10.1576123001154" lon="-75.6805325007922">
        <ele>52.3778713</ele>
        <time>2019-09-10T15:36:04.200Z</time>
      </trkpt>
      <trkpt lat="10.1576146053668" lon="-75.6805312486806">
        <ele>52.3778713</ele>
        <time>2019-09-10T15:36:04.300Z</time>
      </trkpt>
      <trkpt lat="10.1576168650738" lon="-75.6805300283888">
        <ele>52.3778713</ele>
        <time>2019-09-10T15:36:04.400Z</time>
      </trkpt>
      <trkpt lat="10.1576191864794" lon="-75.6805286971108">
        <ele>52.3778713</ele>
        <time>2019-09-10T15:36:04.500Z</time>
      </trkpt>
      <trkpt lat="10.1576214184638" lon="-75.6805273778087">
        <ele>52.3778713</ele>
        <time>2019-09-10T15:36:04.600Z</time>
      </trkpt>
      <trkpt lat="10.1576237003698" lon="-75.6805259727951">
        <ele>52.3778713</ele>
        <time>2019-09-10T15:36:04.700Z</time>
      </trkpt>
      <trkpt lat="10.1576258998375" lon="-75.6805245357529">
        <ele>52.3778713</ele>
        <time>2019-09-10T15:36:04.800Z</time>
      </trkpt>
      <trkpt lat="10.1576281506858" lon="-75.6805230191264">
        <ele>52.2778713</ele>
        <time>2019-09-10T15:36:04.900Z</time>
      </trkpt>
      <trkpt lat="10.1576304097675" lon="-75.6805214153959">
        <ele>52.2778713</ele>
        <time>2019-09-10T15:36:05.000Z</time>
      </trkpt>
      <trkpt lat="10.1576327329448" lon="-75.6805197462852">
        <ele>52.2778713</ele>
        <time>2019-09-10T15:36:05.100Z</time>
      </trkpt>
      <trkpt lat="10.1576350611247" lon="-75.6805179959191">
        <ele>52.2778713</ele>
        <time>2019-09-10T15:36:05.200Z</time>
      </trkpt>
      <trkpt lat="10.1576374071262" lon="-75.6805162167969">
        <ele>52.2778713</ele>
        <time>2019-09-10T15:36:05.300Z</time>
      </trkpt>
      <trkpt lat="10.1576397599021" lon="-75.6805143931131">
        <ele>52.2778713</ele>
        <time>2019-09-10T15:36:05.400Z</time>
      </trkpt>
      <trkpt lat="10.1576421184101" lon="-75.6805125552253">
        <ele>52.2778713</ele>
        <time>2019-09-10T15:36:05.500Z</time>
      </trkpt>
      <trkpt lat="10.1576444800448" lon="-75.6805106628191">
        <ele>52.2778713</ele>
        <time>2019-09-10T15:36:05.600Z</time>
      </trkpt>
      <trkpt lat="10.1576468354783" lon="-75.6805087616399">
        <ele>52.2778713</ele>
        <time>2019-09-10T15:36:05.700Z</time>
      </trkpt>
      <trkpt lat="10.1576492312972" lon="-75.6805068188234">
        <ele>52.2778713</ele>
        <time>2019-09-10T15:36:05.800Z</time>
      </trkpt>
      <trkpt lat="10.1576516149744" lon="-75.6805048725255">
        <ele>52.2778713</ele>
        <time>2019-09-10T15:36:05.900Z</time>
      </trkpt>
      <trkpt lat="10.1576540085526" lon="-75.6805028614045">
        <ele>52.2778713</ele>
        <time>2019-09-10T15:36:06.000Z</time>
      </trkpt>
      <trkpt lat="10.1576563762841" lon="-75.6805008554358">
        <ele>52.2778713</ele>
        <time>2019-09-10T15:36:06.100Z</time>
      </trkpt>
      <trkpt lat="10.157661093717" lon="-75.680496760224">
        <ele>52.2778713</ele>
        <time>2019-09-10T15:36:06.300Z</time>
      </trkpt>
      <trkpt lat="10.1576634458676" lon="-75.6804947073265">
        <ele>52.2778713</ele>
        <time>2019-09-10T15:36:06.400Z</time>
      </trkpt>
      <trkpt lat="10.1576657633649" lon="-75.6804926843687">
        <ele>52.2778713</ele>
        <time>2019-09-10T15:36:06.500Z</time>
      </trkpt>
      <trkpt lat="10.1576680674698" lon="-75.6804906586955">
        <ele>52.2778713</ele>
        <time>2019-09-10T15:36:06.600Z</time>
      </trkpt>
      <trkpt lat="10.1576703356187" lon="-75.6804886606644">
        <ele>52.2778713</ele>
        <time>2019-09-10T15:36:06.700Z</time>
      </trkpt>
      <trkpt lat="10.1576726131475" lon="-75.6804866622851">
        <ele>52.2778713</ele>
        <time>2019-09-10T15:36:06.800Z</time>
      </trkpt>
      <trkpt lat="10.1576748546681" lon="-75.6804846859778">
        <ele>52.2778713</ele>
        <time>2019-09-10T15:36:06.900Z</time>
      </trkpt>
      <trkpt lat="10.1576770631508" lon="-75.6804826715843">
        <ele>52.2778713</ele>
        <time>2019-09-10T15:36:07.000Z</time>
      </trkpt>
      <trkpt lat="10.1576792363549" lon="-75.6804806821173">
        <ele>52.2778713</ele>
        <time>2019-09-10T15:36:07.100Z</time>
      </trkpt>
      <trkpt lat="10.1576814095069" lon="-75.6804786788642">
        <ele>52.2778713</ele>
        <time>2019-09-10T15:36:07.200Z</time>
      </trkpt>
      <trkpt lat="10.1576835579587" lon="-75.680476710564">
        <ele>52.2778713</ele>
        <time>2019-09-10T15:36:07.300Z</time>
      </trkpt>
      <trkpt lat="10.1576856732162" lon="-75.6804747189387">
        <ele>52.2778713</ele>
        <time>2019-09-10T15:36:07.400Z</time>
      </trkpt>
      <trkpt lat="10.1576877316215" lon="-75.6804727843382">
        <ele>52.2778713</ele>
        <time>2019-09-10T15:36:07.500Z</time>
      </trkpt>
      <trkpt lat="10.1576897317676" lon="-75.680470914004">
        <ele>52.2778713</ele>
        <time>2019-09-10T15:36:07.600Z</time>
      </trkpt>
      <trkpt lat="10.1576916851188" lon="-75.6804692354935">
        <ele>52.2778713</ele>
        <time>2019-09-10T15:36:07.700Z</time>
      </trkpt>
      <trkpt lat="10.1576935530092" lon="-75.6804677834118">
        <ele>52.2778713</ele>
        <time>2019-09-10T15:36:07.800Z</time>
      </trkpt>
      <trkpt lat="10.1576953798367" lon="-75.6804666023899">
        <ele>52.2778713</ele>
        <time>2019-09-10T15:36:07.900Z</time>
      </trkpt>
      <trkpt lat="10.1576971273526" lon="-75.6804657316979">
        <ele>52.2778713</ele>
        <time>2019-09-10T15:36:08.000Z</time>
      </trkpt>
      <trkpt lat="10.1576988456867" lon="-75.6804651703608">
        <ele>52.2778713</ele>
        <time>2019-09-10T15:36:08.100Z</time>
      </trkpt>
      <trkpt lat="10.157700453495" lon="-75.6804649407989">
        <ele>52.2778713</ele>
        <time>2019-09-10T15:36:08.200Z</time>
      </trkpt>
      <trkpt lat="10.1577020403551" lon="-75.680465030131">
        <ele>52.2778713</ele>
        <time>2019-09-10T15:36:08.300Z</time>
      </trkpt>
      <trkpt lat="10.1577034551472" lon="-75.6804654922488">
        <ele>52.2778713</ele>
        <time>2019-09-10T15:36:08.400Z</time>
      </trkpt>
      <trkpt lat="10.1577048643636" lon="-75.6804662594744">
        <ele>52.2778713</ele>
        <time>2019-09-10T15:36:08.500Z</time>
      </trkpt>
      <trkpt lat="10.1577060798863" lon="-75.6804673272123">
        <ele>52.2778713</ele>
        <time>2019-09-10T15:36:08.600Z</time>
      </trkpt>
      <trkpt lat="10.1577073216725" lon="-75.680468686968">
        <ele>52.3778713</ele>
        <time>2019-09-10T15:36:08.700Z</time>
      </trkpt>
      <trkpt lat="10.1577083505365" lon="-75.6804703315698">
        <ele>52.3778713</ele>
        <time>2019-09-10T15:36:08.800Z</time>
      </trkpt>
      <trkpt lat="10.1577094452156" lon="-75.6804722420791">
        <ele>52.3778713</ele>
        <time>2019-09-10T15:36:08.900Z</time>
      </trkpt>
      <trkpt lat="10.1577103367171" lon="-75.6804742502062">
        <ele>52.3778713</ele>
        <time>2019-09-10T15:36:09.000Z</time>
      </trkpt>
      <trkpt lat="10.1577113293123" lon="-75.680476416527">
        <ele>52.3778713</ele>
        <time>2019-09-10T15:36:09.100Z</time>
      </trkpt>
      <trkpt lat="10.1577122205011" lon="-75.680478593292">
        <ele>52.3778713</ele>
        <time>2019-09-10T15:36:09.200Z</time>
      </trkpt>
      <trkpt lat="10.1577132615588" lon="-75.6804808942027">
        <ele>52.3778713</ele>
        <time>2019-09-10T15:36:09.300Z</time>
      </trkpt>
      <trkpt lat="10.1577142509232" lon="-75.6804831206121">
        <ele>52.3778713</ele>
        <time>2019-09-10T15:36:09.400Z</time>
      </trkpt>
      <trkpt lat="10.1577153915636" lon="-75.6804854515323">
        <ele>52.3778713</ele>
        <time>2019-09-10T15:36:09.500Z</time>
      </trkpt>
      <trkpt lat="10.1577165379881" lon="-75.6804877398405">
        <ele>52.3778713</ele>
        <time>2019-09-10T15:36:09.600Z</time>
      </trkpt>
      <trkpt lat="10.1577178193781" lon="-75.6804901201267">
        <ele>52.3778713</ele>
        <time>2019-09-10T15:36:09.700Z</time>
      </trkpt>
      <trkpt lat="10.1577191579852" lon="-75.6804924529965">
        <ele>52.3778713</ele>
        <time>2019-09-10T15:36:09.800Z</time>
      </trkpt>
      <trkpt lat="10.1577221076835" lon="-75.6804972134295">
        <ele>52.3778713</ele>
        <time>2019-09-10T15:36:10.000Z</time>
      </trkpt>
      <trkpt lat="10.1577236859453" lon="-75.680499625814">
        <ele>52.3778713</ele>
        <time>2019-09-10T15:36:10.100Z</time>
      </trkpt>
      <trkpt lat="10.1577253612885" lon="-75.6805020119488">
        <ele>52.3778713</ele>
        <time>2019-09-10T15:36:10.200Z</time>
      </trkpt>
      <trkpt lat="10.1577270893151" lon="-75.6805044432023">
        <ele>52.3778713</ele>
        <time>2019-09-10T15:36:10.300Z</time>
      </trkpt>
      <trkpt lat="10.1577288642409" lon="-75.6805068457692">
        <ele>52.3778713</ele>
        <time>2019-09-10T15:36:10.400Z</time>
      </trkpt>
      <trkpt lat="10.1577306640233" lon="-75.6805092763961">
        <ele>52.3778713</ele>
        <time>2019-09-10T15:36:10.500Z</time>
      </trkpt>
      <trkpt lat="10.1577325054938" lon="-75.6805116484662">
        <ele>52.3778713</ele>
        <time>2019-09-10T15:36:10.600Z</time>
      </trkpt>
      <trkpt lat="10.1577343667141" lon="-75.6805140429563">
        <ele>52.3778713</ele>
        <time>2019-09-10T15:36:10.700Z</time>
      </trkpt>
      <trkpt lat="10.1577363059434" lon="-75.6805164865339">
        <ele>52.3778713</ele>
        <time>2019-09-10T15:36:10.800Z</time>
      </trkpt>
      <trkpt lat="10.1577382488204" lon="-75.6805189598424">
        <ele>52.3778713</ele>
        <time>2019-09-10T15:36:10.900Z</time>
      </trkpt>
      <trkpt lat="10.1577402291646" lon="-75.680521447146">
        <ele>52.3778713</ele>
        <time>2019-09-10T15:36:11.000Z</time>
      </trkpt>
      <trkpt lat="10.1577421985657" lon="-75.680523930272">
        <ele>52.3778713</ele>
        <time>2019-09-10T15:36:11.100Z</time>
      </trkpt>
      <trkpt lat="10.1577442604624" lon="-75.6805264616499">
        <ele>52.3778713</ele>
        <time>2019-09-10T15:36:11.200Z</time>
      </trkpt>
      <trkpt lat="10.1577462973462" lon="-75.6805289703291">
        <ele>52.3778713</ele>
        <time>2019-09-10T15:36:11.300Z</time>
      </trkpt>
      <trkpt lat="10.1577483921245" lon="-75.680531447119">
        <ele>52.3778713</ele>
        <time>2019-09-10T15:36:11.400Z</time>
      </trkpt>
      <trkpt lat="10.1577504423485" lon="-75.6805338892344">
        <ele>52.3778713</ele>
        <time>2019-09-10T15:36:11.500Z</time>
      </trkpt>
      <trkpt lat="10.157752523995" lon="-75.6805363356667">
        <ele>52.3778713</ele>
        <time>2019-09-10T15:36:11.600Z</time>
      </trkpt>
      <trkpt lat="10.1577545568663" lon="-75.6805387551531">
        <ele>52.3778713</ele>
        <time>2019-09-10T15:36:11.700Z</time>
      </trkpt>
      <trkpt lat="10.1577566103732" lon="-75.6805411323756">
        <ele>52.3778713</ele>
        <time>2019-09-10T15:36:11.800Z</time>
      </trkpt>
      <trkpt lat="10.157758612708" lon="-75.6805434784051">
        <ele>52.3778713</ele>
        <time>2019-09-10T15:36:11.900Z</time>
      </trkpt>
      <trkpt lat="10.1577606387007" lon="-75.6805458053565">
        <ele>52.3778713</ele>
        <time>2019-09-10T15:36:12.000Z</time>
      </trkpt>
      <trkpt lat="10.1577626159705" lon="-75.6805481137174">
        <ele>52.2778713</ele>
        <time>2019-09-10T15:36:12.100Z</time>
      </trkpt>
      <trkpt lat="10.1577646297173" lon="-75.680550405507">
        <ele>52.2778713</ele>
        <time>2019-09-10T15:36:12.200Z</time>
      </trkpt>
      <trkpt lat="10.1577665967735" lon="-75.6805526787757">
        <ele>52.2778713</ele>
        <time>2019-09-10T15:36:12.300Z</time>
      </trkpt>
      <trkpt lat="10.1577685823287" lon="-75.6805549334538">
        <ele>52.2778713</ele>
        <time>2019-09-10T15:36:12.400Z</time>
      </trkpt>
      <trkpt lat="10.1577705177019" lon="-75.6805571745546">
        <ele>52.2778713</ele>
        <time>2019-09-10T15:36:12.500Z</time>
      </trkpt>
      <trkpt lat="10.1577724846016" lon="-75.6805593878043">
        <ele>52.2778713</ele>
        <time>2019-09-10T15:36:12.600Z</time>
      </trkpt>
      <trkpt lat="10.1577744010067" lon="-75.6805615899833">
        <ele>52.2778713</ele>
        <time>2019-09-10T15:36:12.700Z</time>
      </trkpt>
      <trkpt lat="10.1577763599857" lon="-75.6805637886112">
        <ele>52.2778713</ele>
        <time>2019-09-10T15:36:12.800Z</time>
      </trkpt>
      <trkpt lat="10.1577782652912" lon="-75.6805659793017">
        <ele>52.2778713</ele>
        <time>2019-09-10T15:36:12.900Z</time>
      </trkpt>
      <trkpt lat="10.1577801974335" lon="-75.6805681521674">
        <ele>52.2778713</ele>
        <time>2019-09-10T15:36:13.000Z</time>
      </trkpt>
      <trkpt lat="10.1577820731405" lon="-75.6805703165387">
        <ele>52.2778713</ele>
        <time>2019-09-10T15:36:13.100Z</time>
      </trkpt>
      <trkpt lat="10.1577839296187" lon="-75.6805724124661">
        <ele>52.2778713</ele>
        <time>2019-09-10T15:36:13.200Z</time>
      </trkpt>
      <trkpt lat="10.1577857402921" lon="-75.6805745035195">
        <ele>52.2778713</ele>
        <time>2019-09-10T15:36:13.300Z</time>
      </trkpt>
      <trkpt lat="10.1577876145921" lon="-75.680576615322">
        <ele>52.2778713</ele>
        <time>2019-09-10T15:36:13.400Z</time>
      </trkpt>
      <trkpt lat="10.1577894452758" lon="-75.6805787391004">
        <ele>52.2778713</ele>
        <time>2019-09-10T15:36:13.500Z</time>
      </trkpt>
      <trkpt lat="10.1577912620982" lon="-75.6805808046701">
        <ele>52.2778713</ele>
        <time>2019-09-10T15:36:13.600Z</time>
      </trkpt>
      <trkpt lat="10.1577930359297" lon="-75.6805828687778">
        <ele>52.2778713</ele>
        <time>2019-09-10T15:36:13.700Z</time>
      </trkpt>
      <trkpt lat="10.1577966690534" lon="-75.6805869932331">
        <ele>52.2778713</ele>
        <time>2019-09-10T15:36:13.900Z</time>
      </trkpt>
      <trkpt lat="10.1577984792056" lon="-75.6805890672974">
        <ele>52.2778713</ele>
        <time>2019-09-10T15:36:14.000Z</time>
      </trkpt>
      <trkpt lat="10.1578002409997" lon="-75.6805911511096">
        <ele>52.2778713</ele>
        <time>2019-09-10T15:36:14.100Z</time>
      </trkpt>
      <trkpt lat="10.1578019956025" lon="-75.680593207419">
        <ele>52.2778713</ele>
        <time>2019-09-10T15:36:14.200Z</time>
      </trkpt>
      <trkpt lat="10.157803709872" lon="-75.6805952711088">
        <ele>52.2778713</ele>
        <time>2019-09-10T15:36:14.300Z</time>
      </trkpt>
      <trkpt lat="10.1578054296131" lon="-75.6805973088972">
        <ele>52.2778713</ele>
        <time>2019-09-10T15:36:14.400Z</time>
      </trkpt>
      <trkpt lat="10.1578071208499" lon="-75.6805993629089">
        <ele>52.2778713</ele>
        <time>2019-09-10T15:36:14.500Z</time>
      </trkpt>
      <trkpt lat="10.157808806094" lon="-75.6806013967981">
        <ele>52.2778713</ele>
        <time>2019-09-10T15:36:14.600Z</time>
      </trkpt>
      <trkpt lat="10.1578104702856" lon="-75.680603444961">
        <ele>52.2778713</ele>
        <time>2019-09-10T15:36:14.700Z</time>
      </trkpt>
      <trkpt lat="10.1578121432838" lon="-75.6806055093471">
        <ele>52.2778713</ele>
        <time>2019-09-10T15:36:14.800Z</time>
      </trkpt>
      <trkpt lat="10.157813798304" lon="-75.6806075924631">
        <ele>52.3778713</ele>
        <time>2019-09-10T15:36:14.900Z</time>
      </trkpt>
      <trkpt lat="10.1578155013698" lon="-75.6806097246664">
        <ele>52.3778713</ele>
        <time>2019-09-10T15:36:15.000Z</time>
      </trkpt>
      <trkpt lat="10.1578171867182" lon="-75.6806118606992">
        <ele>52.3778713</ele>
        <time>2019-09-10T15:36:15.100Z</time>
      </trkpt>
      <trkpt lat="10.1578188702427" lon="-75.6806139352509">
        <ele>52.3778713</ele>
        <time>2019-09-10T15:36:15.200Z</time>
      </trkpt>
      <trkpt lat="10.1578205341737" lon="-75.6806160029096">
        <ele>52.3778713</ele>
        <time>2019-09-10T15:36:15.300Z</time>
      </trkpt>
      <trkpt lat="10.1578222529768" lon="-75.6806180716822">
        <ele>52.3778713</ele>
        <time>2019-09-10T15:36:15.400Z</time>
      </trkpt>
      <trkpt lat="10.1578239539061" lon="-75.6806201552855">
        <ele>52.3778713</ele>
        <time>2019-09-10T15:36:15.500Z</time>
      </trkpt>
      <trkpt lat="10.1578256189836" lon="-75.6806221767811">
        <ele>52.3778713</ele>
        <time>2019-09-10T15:36:15.600Z</time>
      </trkpt>
      <trkpt lat="10.1578272623311" lon="-75.6806242058661">
        <ele>52.3778713</ele>
        <time>2019-09-10T15:36:15.700Z</time>
      </trkpt>
      <trkpt lat="10.1578289556523" lon="-75.6806262465092">
        <ele>52.3778713</ele>
        <time>2019-09-10T15:36:15.800Z</time>
      </trkpt>
      <trkpt lat="10.1578306408964" lon="-75.680628310965">
        <ele>52.3778713</ele>
        <time>2019-09-10T15:36:15.900Z</time>
      </trkpt>
      <trkpt lat="10.1578323167607" lon="-75.6806303603812">
        <ele>52.3778713</ele>
        <time>2019-09-10T15:36:16.000Z</time>
      </trkpt>
      <trkpt lat="10.1578339742822" lon="-75.6806324201719">
        <ele>52.3778713</ele>
        <time>2019-09-10T15:36:16.100Z</time>
      </trkpt>
      <trkpt lat="10.1578356587447" lon="-75.6806344615809">
        <ele>52.3778713</ele>
        <time>2019-09-10T15:36:16.200Z</time>
      </trkpt>
      <trkpt lat="10.1578373367976" lon="-75.6806365163585">
        <ele>52.3778713</ele>
        <time>2019-09-10T15:36:16.300Z</time>
      </trkpt>
      <trkpt lat="10.1578389813436" lon="-75.6806385560268">
        <ele>52.3778713</ele>
        <time>2019-09-10T15:36:16.400Z</time>
      </trkpt>
      <trkpt lat="10.1578406162493" lon="-75.6806406105258">
        <ele>52.3778713</ele>
        <time>2019-09-10T15:36:16.500Z</time>
      </trkpt>
      <trkpt lat="10.1578422692893" lon="-75.6806426895337">
        <ele>52.3778713</ele>
        <time>2019-09-10T15:36:16.600Z</time>
      </trkpt>
      <trkpt lat="10.1578439282699" lon="-75.6806447823279">
        <ele>52.3778713</ele>
        <time>2019-09-10T15:36:16.700Z</time>
      </trkpt>
      <trkpt lat="10.1578456194546" lon="-75.6806468536071">
        <ele>52.3778713</ele>
        <time>2019-09-10T15:36:16.800Z</time>
      </trkpt>
      <trkpt lat="10.1578473067831" lon="-75.6806489276715">
        <ele>52.3778713</ele>
        <time>2019-09-10T15:36:16.900Z</time>
      </trkpt>
      <trkpt lat="10.1578489895781" lon="-75.6806510096037">
        <ele>52.3778713</ele>
        <time>2019-09-10T15:36:17.000Z</time>
      </trkpt>
      <trkpt lat="10.1578506686211" lon="-75.6806530978721">
        <ele>52.3778713</ele>
        <time>2019-09-10T15:36:17.100Z</time>
      </trkpt>
      <trkpt lat="10.157852334376" lon="-75.6806551313436">
        <ele>52.3778713</ele>
        <time>2019-09-10T15:36:17.200Z</time>
      </trkpt>
      <trkpt lat="10.1578539998182" lon="-75.6806571668343">
        <ele>52.3778713</ele>
        <time>2019-09-10T15:36:17.300Z</time>
      </trkpt>
      <trkpt lat="10.157855703822" lon="-75.6806592476525">
        <ele>52.3778713</ele>
        <time>2019-09-10T15:36:17.400Z</time>
      </trkpt>
      <trkpt lat="10.1578574058977" lon="-75.6806613425355">
        <ele>52.3778713</ele>
        <time>2019-09-10T15:36:17.500Z</time>
      </trkpt>
      <trkpt lat="10.1578591144351" lon="-75.6806634551734">
        <ele>52.3778713</ele>
        <time>2019-09-10T15:36:17.600Z</time>
      </trkpt>
      <trkpt lat="10.1578608090591" lon="-75.680665566767">
        <ele>52.3778713</ele>
        <time>2019-09-10T15:36:17.700Z</time>
      </trkpt>
      <trkpt lat="10.1578641982549" lon="-75.6806698066648">
        <ele>52.3778713</ele>
        <time>2019-09-10T15:36:17.900Z</time>
      </trkpt>
      <trkpt lat="10.1578658917845" lon="-75.6806719255692">
        <ele>52.3778713</ele>
        <time>2019-09-10T15:36:18.000Z</time>
      </trkpt>
      <trkpt lat="10.1578675770808" lon="-75.6806740402961">
        <ele>52.3778713</ele>
        <time>2019-09-10T15:36:18.100Z</time>
      </trkpt>
      <trkpt lat="10.1578692650346" lon="-75.6806761518896">
        <ele>52.3778713</ele>
        <time>2019-09-10T15:36:18.200Z</time>
      </trkpt>
      <trkpt lat="10.1578709445987" lon="-75.6806782595841">
        <ele>52.3778713</ele>
        <time>2019-09-10T15:36:18.300Z</time>
      </trkpt>
      <trkpt lat="10.157872631823" lon="-75.6806803285656">
        <ele>52.3778713</ele>
        <time>2019-09-10T15:36:18.400Z</time>
      </trkpt>
      <trkpt lat="10.1578743165461" lon="-75.6806824005411">
        <ele>52.3778713</ele>
        <time>2019-09-10T15:36:18.500Z</time>
      </trkpt>
      <trkpt lat="10.1578760134629" lon="-75.6806844732129">
        <ele>52.3778713</ele>
        <time>2019-09-10T15:36:18.600Z</time>
      </trkpt>
      <trkpt lat="10.1578777110571" lon="-75.6806865551452">
        <ele>52.3778713</ele>
        <time>2019-09-10T15:36:18.700Z</time>
      </trkpt>
      <trkpt lat="10.157879385775" lon="-75.6806886413247">
        <ele>52.3778713</ele>
        <time>2019-09-10T15:36:18.800Z</time>
      </trkpt>
      <trkpt lat="10.1578810564804" lon="-75.6806907341885">
        <ele>52.3778713</ele>
        <time>2019-09-10T15:36:18.900Z</time>
      </trkpt>
      <trkpt lat="10.1578827339601" lon="-75.6806927994797">
        <ele>52.3778713</ele>
        <time>2019-09-10T15:36:19.000Z</time>
      </trkpt>
      <trkpt lat="10.1578844164945" lon="-75.6806948675561">
        <ele>52.3778713</ele>
        <time>2019-09-10T15:36:19.100Z</time>
      </trkpt>
      <trkpt lat="10.1578861061679" lon="-75.680696943396">
        <ele>52.3778713</ele>
        <time>2019-09-10T15:36:19.200Z</time>
      </trkpt>
      <trkpt lat="10.1578877974569" lon="-75.6806990288096">
        <ele>52.3778713</ele>
        <time>2019-09-10T15:36:19.300Z</time>
      </trkpt>
      <trkpt lat="10.1578894942694" lon="-75.6807011214645">
        <ele>52.3778713</ele>
        <time>2019-09-10T15:36:19.400Z</time>
      </trkpt>
      <trkpt lat="10.1578911936354" lon="-75.6807032168697">
        <ele>52.3778713</ele>
        <time>2019-09-10T15:36:19.500Z</time>
      </trkpt>
      <trkpt lat="10.157892891855" lon="-75.6807052843542">
        <ele>52.3778713</ele>
        <time>2019-09-10T15:36:19.600Z</time>
      </trkpt>
      <trkpt lat="10.1578945864268" lon="-75.6807073526743">
        <ele>52.3778713</ele>
        <time>2019-09-10T15:36:19.700Z</time>
      </trkpt>
      <trkpt lat="10.1578962765172" lon="-75.6807094254505">
        <ele>52.3778713</ele>
        <time>2019-09-10T15:36:19.800Z</time>
      </trkpt>
      <trkpt lat="10.1578979690047" lon="-75.6807115016037">
        <ele>52.3778713</ele>
        <time>2019-09-10T15:36:19.900Z</time>
      </trkpt>
      <trkpt lat="10.1578996618569" lon="-75.6807135836404">
        <ele>52.3778713</ele>
        <time>2019-09-10T15:36:20.000Z</time>
      </trkpt>
      <trkpt lat="10.1579013588779" lon="-75.6807156686015">
        <ele>52.3778713</ele>
        <time>2019-09-10T15:36:20.100Z</time>
      </trkpt>
      <trkpt lat="10.1579030533455" lon="-75.6807177354594">
        <ele>52.3778713</ele>
        <time>2019-09-10T15:36:20.200Z</time>
      </trkpt>
      <trkpt lat="10.1579047490117" lon="-75.6807198043016">
        <ele>52.3778713</ele>
        <time>2019-09-10T15:36:20.300Z</time>
      </trkpt>
      <trkpt lat="10.1579064388936" lon="-75.6807219195158">
        <ele>52.3778713</ele>
        <time>2019-09-10T15:36:20.400Z</time>
      </trkpt>
      <trkpt lat="10.157908137478" lon="-75.6807240282547">
        <ele>52.3778713</ele>
        <time>2019-09-10T15:36:20.500Z</time>
      </trkpt>
      <trkpt lat="10.1579098360102" lon="-75.6807261093514">
        <ele>52.3778713</ele>
        <time>2019-09-10T15:36:20.600Z</time>
      </trkpt>
      <trkpt lat="10.1579115449645" lon="-75.6807281827891">
        <ele>52.3778713</ele>
        <time>2019-09-10T15:36:20.700Z</time>
      </trkpt>
      <trkpt lat="10.1579132582439" lon="-75.6807302628066">
        <ele>52.3778713</ele>
        <time>2019-09-10T15:36:20.800Z</time>
      </trkpt>
      <trkpt lat="10.1579149829354" lon="-75.6807323468625">
        <ele>52.3778713</ele>
        <time>2019-09-10T15:36:20.900Z</time>
      </trkpt>
      <trkpt lat="10.1579167167463" lon="-75.6807344584909">
        <ele>52.3778713</ele>
        <time>2019-09-10T15:36:21.000Z</time>
      </trkpt>
      <trkpt lat="10.1579184530063" lon="-75.6807365713029">
        <ele>52.3778713</ele>
        <time>2019-09-10T15:36:21.100Z</time>
      </trkpt>
      <trkpt lat="10.1579201967702" lon="-75.6807387028448">
        <ele>52.3778713</ele>
        <time>2019-09-10T15:36:21.200Z</time>
      </trkpt>
      <trkpt lat="10.1579219354273" lon="-75.6807408360229">
        <ele>52.3778713</ele>
        <time>2019-09-10T15:36:21.300Z</time>
      </trkpt>
      <trkpt lat="10.157923637972" lon="-75.6807429330295">
        <ele>52.3778713</ele>
        <time>2019-09-10T15:36:21.400Z</time>
      </trkpt>
      <trkpt lat="10.157925340673" lon="-75.6807450228993">
        <ele>52.3778713</ele>
        <time>2019-09-10T15:36:21.500Z</time>
      </trkpt>
      <trkpt lat="10.1579270516075" lon="-75.6807471080692">
        <ele>52.3778713</ele>
        <time>2019-09-10T15:36:21.600Z</time>
      </trkpt>
      <trkpt lat="10.157928766346" lon="-75.6807492028129">
        <ele>52.3778713</ele>
        <time>2019-09-10T15:36:21.700Z</time>
      </trkpt>
      <trkpt lat="10.1579304890573" lon="-75.6807512944931">
        <ele>52.3778713</ele>
        <time>2019-09-10T15:36:21.800Z</time>
      </trkpt>
      <trkpt lat="10.1579322092674" lon="-75.68075339331">
        <ele>52.3778713</ele>
        <time>2019-09-10T15:36:21.900Z</time>
      </trkpt>
      <trkpt lat="10.1579339449542" lon="-75.6807554860345">
        <ele>52.3778713</ele>
        <time>2019-09-10T15:36:22.000Z</time>
      </trkpt>
      <trkpt lat="10.1579373971513" lon="-75.68075966654">
        <ele>52.3778713</ele>
        <time>2019-09-10T15:36:22.200Z</time>
      </trkpt>
      <trkpt lat="10.1579391122024" lon="-75.6807617533462">
        <ele>52.3778713</ele>
        <time>2019-09-10T15:36:22.300Z</time>
      </trkpt>
      <trkpt lat="10.1579408025012" lon="-75.6807638371932">
        <ele>52.3778713</ele>
        <time>2019-09-10T15:36:22.400Z</time>
      </trkpt>
      <trkpt lat="10.1579424973336" lon="-75.6807659215624">
        <ele>52.3778713</ele>
        <time>2019-09-10T15:36:22.500Z</time>
      </trkpt>
      <trkpt lat="10.1579442069132" lon="-75.6807680104922">
        <ele>52.3778713</ele>
        <time>2019-09-10T15:36:22.600Z</time>
      </trkpt>
      <trkpt lat="10.1579459252473" lon="-75.6807700982036">
        <ele>52.3778713</ele>
        <time>2019-09-10T15:36:22.700Z</time>
      </trkpt>
      <trkpt lat="10.1579476297201" lon="-75.6807721930517">
        <ele>52.3778713</ele>
        <time>2019-09-10T15:36:22.800Z</time>
      </trkpt>
      <trkpt lat="10.1579493383617" lon="-75.6807742892576">
        <ele>52.3778713</ele>
        <time>2019-09-10T15:36:22.900Z</time>
      </trkpt>
      <trkpt lat="10.1579510664405" lon="-75.6807763967083">
        <ele>52.3778713</ele>
        <time>2019-09-10T15:36:23.000Z</time>
      </trkpt>
      <trkpt lat="10.1579527996781" lon="-75.6807785001555">
        <ele>52.3778713</ele>
        <time>2019-09-10T15:36:23.100Z</time>
      </trkpt>
      <trkpt lat="10.1579545440673" lon="-75.6807806480598">
        <ele>52.3778713</ele>
        <time>2019-09-10T15:36:23.200Z</time>
      </trkpt>
      <trkpt lat="10.1579562923127" lon="-75.6807827896977">
        <ele>52.3778713</ele>
        <time>2019-09-10T15:36:23.300Z</time>
      </trkpt>
      <trkpt lat="10.1579580253939" lon="-75.6807848558593">
        <ele>52.3778713</ele>
        <time>2019-09-10T15:36:23.400Z</time>
      </trkpt>
      <trkpt lat="10.1579597556613" lon="-75.6807869151278">
        <ele>52.3778713</ele>
        <time>2019-09-10T15:36:23.500Z</time>
      </trkpt>
      <trkpt lat="10.1579614856681" lon="-75.6807889750229">
        <ele>52.2778713</ele>
        <time>2019-09-10T15:36:23.600Z</time>
      </trkpt>
      <trkpt lat="10.1579632155185" lon="-75.6807910451185">
        <ele>52.2778713</ele>
        <time>2019-09-10T15:36:23.700Z</time>
      </trkpt>
      <trkpt lat="10.1579649370314" lon="-75.6807930924111">
        <ele>52.2778713</ele>
        <time>2019-09-10T15:36:23.800Z</time>
      </trkpt>
      <trkpt lat="10.1579666553134" lon="-75.6807951498693">
        <ele>52.2778713</ele>
        <time>2019-09-10T15:36:23.900Z</time>
      </trkpt>
      <trkpt lat="10.1579683775036" lon="-75.6807971910346">
        <ele>52.2778713</ele>
        <time>2019-09-10T15:36:24.000Z</time>
      </trkpt>
      <trkpt lat="10.1579701081879" lon="-75.6807992509994">
        <ele>52.2778713</ele>
        <time>2019-09-10T15:36:24.100Z</time>
      </trkpt>
      <trkpt lat="10.1579736136937" lon="-75.6808034213392">
        <ele>52.2778713</ele>
        <time>2019-09-10T15:36:24.300Z</time>
      </trkpt>
      <trkpt lat="10.1579753788748" lon="-75.6808055228716">
        <ele>52.2778713</ele>
        <time>2019-09-10T15:36:24.400Z</time>
      </trkpt>
      <trkpt lat="10.1579771434307" lon="-75.6808076316105">
        <ele>52.2778713</ele>
        <time>2019-09-10T15:36:24.500Z</time>
      </trkpt>
      <trkpt lat="10.1579788711446" lon="-75.6808097180685">
        <ele>52.3778713</ele>
        <time>2019-09-10T15:36:24.600Z</time>
      </trkpt>
      <trkpt lat="10.1579805901041" lon="-75.6808118128819">
        <ele>52.3778713</ele>
        <time>2019-09-10T15:36:24.700Z</time>
      </trkpt>
      <trkpt lat="10.1579823521065" lon="-75.680813946617">
        <ele>52.3778713</ele>
        <time>2019-09-10T15:36:24.800Z</time>
      </trkpt>
      <trkpt lat="10.1579841138484" lon="-75.6808160880111">
        <ele>52.3778713</ele>
        <time>2019-09-10T15:36:24.900Z</time>
      </trkpt>
      <trkpt lat="10.1579858360387" lon="-75.680818219553">
        <ele>52.3778713</ele>
        <time>2019-09-10T15:36:25.000Z</time>
      </trkpt>
      <trkpt lat="10.1579875468689" lon="-75.6808203448284">
        <ele>52.3778713</ele>
        <time>2019-09-10T15:36:25.100Z</time>
      </trkpt>
      <trkpt lat="10.1579892575949" lon="-75.6808224500511">
        <ele>52.3778713</ele>
        <time>2019-09-10T15:36:25.200Z</time>
      </trkpt>
      <trkpt lat="10.157990973532" lon="-75.6808245532197">
        <ele>52.3778713</ele>
        <time>2019-09-10T15:36:25.300Z</time>
      </trkpt>
      <trkpt lat="10.1579927006727" lon="-75.6808266397125">
        <ele>52.3778713</ele>
        <time>2019-09-10T15:36:25.400Z</time>
      </trkpt>
      <trkpt lat="10.1579944272923" lon="-75.6808287341778">
        <ele>52.3778713</ele>
        <time>2019-09-10T15:36:25.500Z</time>
      </trkpt>
      <trkpt lat="10.1579961330158" lon="-75.6808308546488">
        <ele>52.3778713</ele>
        <time>2019-09-10T15:36:25.600Z</time>
      </trkpt>
      <trkpt lat="10.1579978394166" lon="-75.6808329797502">
        <ele>52.3778713</ele>
        <time>2019-09-10T15:36:25.700Z</time>
      </trkpt>
      <trkpt lat="10.1579995887042" lon="-75.6808351336076">
        <ele>52.3778713</ele>
        <time>2019-09-10T15:36:25.800Z</time>
      </trkpt>
      <trkpt lat="10.1580013368975" lon="-75.6808372837748">
        <ele>52.3778713</ele>
        <time>2019-09-10T15:36:25.900Z</time>
      </trkpt>
      <trkpt lat="10.1580030642987" lon="-75.6808393877442">
        <ele>52.3778713</ele>
        <time>2019-09-10T15:36:26.000Z</time>
      </trkpt>
      <trkpt lat="10.1580047858637" lon="-75.6808414868048">
        <ele>52.3778713</ele>
        <time>2019-09-10T15:36:26.100Z</time>
      </trkpt>
      <trkpt lat="10.1580064857508" lon="-75.6808436030635">
        <ele>52.3778713</ele>
        <time>2019-09-10T15:36:26.200Z</time>
      </trkpt>
      <trkpt lat="10.1580098718721" lon="-75.680847840385">
        <ele>52.3778713</ele>
        <time>2019-09-10T15:36:26.400Z</time>
      </trkpt>
      <trkpt lat="10.1580115675904" lon="-75.6808499536844">
        <ele>52.3778713</ele>
        <time>2019-09-10T15:36:26.500Z</time>
      </trkpt>
      <trkpt lat="10.1580132810782" lon="-75.6808520580716">
        <ele>52.3778713</ele>
        <time>2019-09-10T15:36:26.600Z</time>
      </trkpt>
      <trkpt lat="10.1580150012883" lon="-75.6808541705007">
        <ele>52.3778713</ele>
        <time>2019-09-10T15:36:26.700Z</time>
      </trkpt>
      <trkpt lat="10.1580167053963" lon="-75.6808562710931">
        <ele>52.3778713</ele>
        <time>2019-09-10T15:36:26.800Z</time>
      </trkpt>
      <trkpt lat="10.1580184147154" lon="-75.680858379066">
        <ele>52.3778713</ele>
        <time>2019-09-10T15:36:26.900Z</time>
      </trkpt>
      <trkpt lat="10.1580201698914" lon="-75.6808604723476">
        <ele>52.3778713</ele>
        <time>2019-09-10T15:36:27.000Z</time>
      </trkpt>
      <trkpt lat="10.1580219276208" lon="-75.6808625718608">
        <ele>52.3778713</ele>
        <time>2019-09-10T15:36:27.100Z</time>
      </trkpt>
      <trkpt lat="10.1580236350639" lon="-75.6808646206503">
        <ele>52.3778713</ele>
        <time>2019-09-10T15:36:27.200Z</time>
      </trkpt>
      <trkpt lat="10.1580253418816" lon="-75.6808666725731">
        <ele>52.3778713</ele>
        <time>2019-09-10T15:36:27.300Z</time>
      </trkpt>
      <trkpt lat="10.1580270158699" lon="-75.6808687198309">
        <ele>52.3778713</ele>
        <time>2019-09-10T15:36:27.400Z</time>
      </trkpt>
      <trkpt lat="10.1580286991339" lon="-75.680870785157">
        <ele>52.3778713</ele>
        <time>2019-09-10T15:36:27.500Z</time>
      </trkpt>
      <trkpt lat="10.1580303609284" lon="-75.6808728622501">
        <ele>52.3778713</ele>
        <time>2019-09-10T15:36:27.600Z</time>
      </trkpt>
      <trkpt lat="10.1580320341872" lon="-75.6808749495089">
        <ele>52.3778713</ele>
        <time>2019-09-10T15:36:27.700Z</time>
      </trkpt>
      <trkpt lat="10.1580337312603" lon="-75.6808770379513">
        <ele>52.3778713</ele>
        <time>2019-09-10T15:36:27.800Z</time>
      </trkpt>
      <trkpt lat="10.1580354515225" lon="-75.680879119605">
        <ele>52.3778713</ele>
        <time>2019-09-10T15:36:27.900Z</time>
      </trkpt>
      <trkpt lat="10.1580371645414" lon="-75.6808811962804">
        <ele>52.3778713</ele>
        <time>2019-09-10T15:36:28.000Z</time>
      </trkpt>
      <trkpt lat="10.1580388824586" lon="-75.6808832651227">
        <ele>52.2778713</ele>
        <time>2019-09-10T15:36:28.100Z</time>
      </trkpt>
      <trkpt lat="10.1580405842216" lon="-75.6808853144345">
        <ele>52.2778713</ele>
        <time>2019-09-10T15:36:28.200Z</time>
      </trkpt>
      <trkpt lat="10.1580422891634" lon="-75.6808873656262">
        <ele>52.2778713</ele>
        <time>2019-09-10T15:36:28.300Z</time>
      </trkpt>
      <trkpt lat="10.1580440335005" lon="-75.6808894472451">
        <ele>52.2778713</ele>
        <time>2019-09-10T15:36:28.400Z</time>
      </trkpt>
      <trkpt lat="10.1580457892498" lon="-75.6808915288989">
        <ele>52.2778713</ele>
        <time>2019-09-10T15:36:28.500Z</time>
      </trkpt>
      <trkpt lat="10.1580475023207" lon="-75.680893597393">
        <ele>52.2778713</ele>
        <time>2019-09-10T15:36:28.600Z</time>
      </trkpt>
      <trkpt lat="10.1580492243026" lon="-75.6808956598643">
        <ele>52.2778713</ele>
        <time>2019-09-10T15:36:28.700Z</time>
      </trkpt>
      <trkpt lat="10.1580509214799" lon="-75.6808976810466">
        <ele>52.3778713</ele>
        <time>2019-09-10T15:36:28.800Z</time>
      </trkpt>
      <trkpt lat="10.1580526286103" lon="-75.6808997149011">
        <ele>52.2778713</ele>
        <time>2019-09-10T15:36:28.900Z</time>
      </trkpt>
      <trkpt lat="10.1580543637239" lon="-75.6809018140313">
        <ele>52.2778713</ele>
        <time>2019-09-10T15:36:29.000Z</time>
      </trkpt>
      <trkpt lat="10.1580561146269" lon="-75.6809039271219">
        <ele>52.2778713</ele>
        <time>2019-09-10T15:36:29.100Z</time>
      </trkpt>
      <trkpt lat="10.158057866051" lon="-75.6809060939649">
        <ele>52.2778713</ele>
        <time>2019-09-10T15:36:29.200Z</time>
      </trkpt>
      <trkpt lat="10.158059617423" lon="-75.6809082472305">
        <ele>52.2778713</ele>
        <time>2019-09-10T15:36:29.300Z</time>
      </trkpt>
      <trkpt lat="10.1580613681175" lon="-75.6809104017147">
        <ele>52.2778713</ele>
        <time>2019-09-10T15:36:29.400Z</time>
      </trkpt>
      <trkpt lat="10.1580631200627" lon="-75.6809125381304">
        <ele>52.3778713</ele>
        <time>2019-09-10T15:36:29.500Z</time>
      </trkpt>
      <trkpt lat="10.1580648614295" lon="-75.680914663928">
        <ele>52.3778713</ele>
        <time>2019-09-10T15:36:29.600Z</time>
      </trkpt>
      <trkpt lat="10.158066604985" lon="-75.6809167753475">
        <ele>52.3778713</ele>
        <time>2019-09-10T15:36:29.700Z</time>
      </trkpt>
      <trkpt lat="10.1580683383268" lon="-75.6809188442246">
        <ele>52.3778713</ele>
        <time>2019-09-10T15:36:29.800Z</time>
      </trkpt>
      <trkpt lat="10.1580700743263" lon="-75.6809209141809">
        <ele>52.3778713</ele>
        <time>2019-09-10T15:36:29.900Z</time>
      </trkpt>
      <trkpt lat="10.1580718022487" lon="-75.6809229883149">
        <ele>52.3778713</ele>
        <time>2019-09-10T15:36:30.000Z</time>
      </trkpt>
      <trkpt lat="10.158075259761" lon="-75.6809271323008">
        <ele>52.3778713</ele>
        <time>2019-09-10T15:36:30.200Z</time>
      </trkpt>
      <trkpt lat="10.158076993676" lon="-75.6809291927877">
        <ele>52.3778713</ele>
        <time>2019-09-10T15:36:30.300Z</time>
      </trkpt>
      <trkpt lat="10.1580787267052" lon="-75.6809312646588">
        <ele>52.3778713</ele>
        <time>2019-09-10T15:36:30.400Z</time>
      </trkpt>
      <trkpt lat="10.15808045765" lon="-75.680933347914">
        <ele>52.3778713</ele>
        <time>2019-09-10T15:36:30.500Z</time>
      </trkpt>
      <trkpt lat="10.158082160794" lon="-75.6809354071477">
        <ele>52.3778713</ele>
        <time>2019-09-10T15:36:30.600Z</time>
      </trkpt>
      <trkpt lat="10.1580838706341" lon="-75.6809374660681">
        <ele>52.3778713</ele>
        <time>2019-09-10T15:36:30.700Z</time>
      </trkpt>
      <trkpt lat="10.1580856142938" lon="-75.6809395697241">
        <ele>52.3778713</ele>
        <time>2019-09-10T15:36:30.800Z</time>
      </trkpt>
      <trkpt lat="10.1580873687402" lon="-75.6809416786022">
        <ele>52.2778713</ele>
        <time>2019-09-10T15:36:30.900Z</time>
      </trkpt>
      <trkpt lat="10.1580891241768" lon="-75.6809438339218">
        <ele>52.2778713</ele>
        <time>2019-09-10T15:36:31.000Z</time>
      </trkpt>
      <trkpt lat="10.1580908750538" lon="-75.6809459750723">
        <ele>52.2778713</ele>
        <time>2019-09-10T15:36:31.100Z</time>
      </trkpt>
      <trkpt lat="10.1580925943258" lon="-75.6809480842289">
        <ele>52.2778713</ele>
        <time>2019-09-10T15:36:31.200Z</time>
      </trkpt>
      <trkpt lat="10.158094313155" lon="-75.6809501868753">
        <ele>52.2778713</ele>
        <time>2019-09-10T15:36:31.300Z</time>
      </trkpt>
      <trkpt lat="10.1580960267992" lon="-75.6809522906706">
        <ele>52.2778713</ele>
        <time>2019-09-10T15:36:31.400Z</time>
      </trkpt>
      <trkpt lat="10.1580977475304" lon="-75.6809543913675">
        <ele>52.2778713</ele>
        <time>2019-09-10T15:36:31.500Z</time>
      </trkpt>
      <trkpt lat="10.1580994403044" lon="-75.6809564828735">
        <ele>52.2778713</ele>
        <time>2019-09-10T15:36:31.600Z</time>
      </trkpt>
      <trkpt lat="10.1581011427188" lon="-75.6809585735092">
        <ele>52.2778713</ele>
        <time>2019-09-10T15:36:31.700Z</time>
      </trkpt>
      <trkpt lat="10.158102853054" lon="-75.680960666373">
        <ele>52.2778713</ele>
        <time>2019-09-10T15:36:31.800Z</time>
      </trkpt>
      <trkpt lat="10.1581045685481" lon="-75.6809627628226">
        <ele>52.2778713</ele>
        <time>2019-09-10T15:36:31.900Z</time>
      </trkpt>
      <trkpt lat="10.1581062553034" lon="-75.6809648661305">
        <ele>52.2778713</ele>
        <time>2019-09-10T15:36:32.000Z</time>
      </trkpt>
      <trkpt lat="10.1581079466705" lon="-75.6809669689162">
        <ele>52.2778713</ele>
        <time>2019-09-10T15:36:32.100Z</time>
      </trkpt>
      <trkpt lat="10.1581096232122" lon="-75.6809690664102">
        <ele>52.2778713</ele>
        <time>2019-09-10T15:36:32.200Z</time>
      </trkpt>
      <trkpt lat="10.1581113181749" lon="-75.6809711629294">
        <ele>52.2778713</ele>
        <time>2019-09-10T15:36:32.300Z</time>
      </trkpt>
      <trkpt lat="10.1581130392188" lon="-75.6809732558976">
        <ele>52.2778713</ele>
        <time>2019-09-10T15:36:32.400Z</time>
      </trkpt>
      <trkpt lat="10.1581147735507" lon="-75.6809753423209">
        <ele>52.2778713</ele>
        <time>2019-09-10T15:36:32.500Z</time>
      </trkpt>
      <trkpt lat="10.1581164712492" lon="-75.6809773973073">
        <ele>52.2778713</ele>
        <time>2019-09-10T15:36:32.600Z</time>
      </trkpt>
      <trkpt lat="10.1581181812977" lon="-75.680979449056">
        <ele>52.2778713</ele>
        <time>2019-09-10T15:36:32.700Z</time>
      </trkpt>
      <trkpt lat="10.1581199313149" lon="-75.6809815084637">
        <ele>52.2778713</ele>
        <time>2019-09-10T15:36:32.800Z</time>
      </trkpt>
      <trkpt lat="10.1581216983199" lon="-75.6809835728151">
        <ele>52.2778713</ele>
        <time>2019-09-10T15:36:32.900Z</time>
      </trkpt>
      <trkpt lat="10.1581234387487" lon="-75.6809856210128">
        <ele>52.2778713</ele>
        <time>2019-09-10T15:36:33.000Z</time>
      </trkpt>
      <trkpt lat="10.1581251799071" lon="-75.6809876710034">
        <ele>52.2778713</ele>
        <time>2019-09-10T15:36:33.100Z</time>
      </trkpt>
      <trkpt lat="10.1581269076732" lon="-75.6809897142402">
        <ele>52.3778713</ele>
        <time>2019-09-10T15:36:33.200Z</time>
      </trkpt>
      <trkpt lat="10.1581286242616" lon="-75.680991765223">
        <ele>52.3778713</ele>
        <time>2019-09-10T15:36:33.300Z</time>
      </trkpt>
      <trkpt lat="10.1581303089064" lon="-75.6809938173721">
        <ele>52.2778713</ele>
        <time>2019-09-10T15:36:33.400Z</time>
      </trkpt>
      <trkpt lat="10.1581319774753" lon="-75.6809958784161">
        <ele>52.2778713</ele>
        <time>2019-09-10T15:36:33.500Z</time>
      </trkpt>
      <trkpt lat="10.1581336613906" lon="-75.6809979758753">
        <ele>52.3778713</ele>
        <time>2019-09-10T15:36:33.600Z</time>
      </trkpt>
      <trkpt lat="10.1581353452538" lon="-75.6810000828386">
        <ele>52.3778713</ele>
        <time>2019-09-10T15:36:33.700Z</time>
      </trkpt>
      <trkpt lat="10.1581369826086" lon="-75.6810021339781">
        <ele>52.3778713</ele>
        <time>2019-09-10T15:36:33.800Z</time>
      </trkpt>
      <trkpt lat="10.1581386151954" lon="-75.681004193647">
        <ele>52.3778713</ele>
        <time>2019-09-10T15:36:33.900Z</time>
      </trkpt>
      <trkpt lat="10.158140216959" lon="-75.6810062437072">
        <ele>52.3778713</ele>
        <time>2019-09-10T15:36:34.000Z</time>
      </trkpt>
      <trkpt lat="10.1581418182535" lon="-75.6810083063701">
        <ele>52.3778713</ele>
        <time>2019-09-10T15:36:34.100Z</time>
      </trkpt>
      <trkpt lat="10.1581434116274" lon="-75.6810103769879">
        <ele>52.3778713</ele>
        <time>2019-09-10T15:36:34.200Z</time>
      </trkpt>
      <trkpt lat="10.1581450250376" lon="-75.6810124635155">
        <ele>52.3778713</ele>
        <time>2019-09-10T15:36:34.300Z</time>
      </trkpt>
      <trkpt lat="10.1581466737524" lon="-75.6810145576848">
        <ele>52.3778713</ele>
        <time>2019-09-10T15:36:34.400Z</time>
      </trkpt>
      <trkpt lat="10.1581500416873" lon="-75.6810187105134">
        <ele>52.3778713</ele>
        <time>2019-09-10T15:36:34.600Z</time>
      </trkpt>
      <trkpt lat="10.1581517425124" lon="-75.68102075892">
        <ele>52.3778713</ele>
        <time>2019-09-10T15:36:34.700Z</time>
      </trkpt>
      <trkpt lat="10.1581534948484" lon="-75.6810228691906">
        <ele>52.2778713</ele>
        <time>2019-09-10T15:36:34.800Z</time>
      </trkpt>
      <trkpt lat="10.1581552823327" lon="-75.6810250034131">
        <ele>52.2778713</ele>
        <time>2019-09-10T15:36:34.900Z</time>
      </trkpt>
      <trkpt lat="10.1581570866226" lon="-75.6810271468265">
        <ele>52.2778713</ele>
        <time>2019-09-10T15:36:35.000Z</time>
      </trkpt>
      <trkpt lat="10.1581588921111" lon="-75.6810292846522">
        <ele>52.2778713</ele>
        <time>2019-09-10T15:36:35.100Z</time>
      </trkpt>
      <trkpt lat="10.1581607127375" lon="-75.6810314473872">
        <ele>52.2778713</ele>
        <time>2019-09-10T15:36:35.200Z</time>
      </trkpt>
      <trkpt lat="10.1581625371419" lon="-75.6810336013665">
        <ele>52.2778713</ele>
        <time>2019-09-10T15:36:35.300Z</time>
      </trkpt>
      <trkpt lat="10.1581643299155" lon="-75.6810357575739">
        <ele>52.2778713</ele>
        <time>2019-09-10T15:36:35.400Z</time>
      </trkpt>
      <trkpt lat="10.1581661166703" lon="-75.6810379053738">
        <ele>52.2778713</ele>
        <time>2019-09-10T15:36:35.500Z</time>
      </trkpt>
      <trkpt lat="10.1581678746603" lon="-75.6810400542355">
        <ele>52.2778713</ele>
        <time>2019-09-10T15:36:35.600Z</time>
      </trkpt>
      <trkpt lat="10.1581696167045" lon="-75.6810422087718">
        <ele>52.2778713</ele>
        <time>2019-09-10T15:36:35.700Z</time>
      </trkpt>
      <trkpt lat="10.1581713235483" lon="-75.6810443789918">
        <ele>52.2778713</ele>
        <time>2019-09-10T15:36:35.800Z</time>
      </trkpt>
      <trkpt lat="10.1581730426901" lon="-75.6810465394813">
        <ele>52.2778713</ele>
        <time>2019-09-10T15:36:35.900Z</time>
      </trkpt>
      <trkpt lat="10.1581747572723" lon="-75.6810486784733">
        <ele>52.3778713</ele>
        <time>2019-09-10T15:36:36.000Z</time>
      </trkpt>
      <trkpt lat="10.1581764935323" lon="-75.6810507966467">
        <ele>52.2778713</ele>
        <time>2019-09-10T15:36:36.100Z</time>
      </trkpt>
      <trkpt lat="10.158178281199" lon="-75.6810529357257">
        <ele>52.2778713</ele>
        <time>2019-09-10T15:36:36.200Z</time>
      </trkpt>
      <trkpt lat="10.1581800791054" lon="-75.681055061767">
        <ele>52.2778713</ele>
        <time>2019-09-10T15:36:36.300Z</time>
      </trkpt>
      <trkpt lat="10.1581818350892" lon="-75.6810571668678">
        <ele>52.2778713</ele>
        <time>2019-09-10T15:36:36.400Z</time>
      </trkpt>
      <trkpt lat="10.158183581641" lon="-75.6810592556409">
        <ele>52.2778713</ele>
        <time>2019-09-10T15:36:36.500Z</time>
      </trkpt>
      <trkpt lat="10.1581853346544" lon="-75.6810613460504">
        <ele>52.2778713</ele>
        <time>2019-09-10T15:36:36.600Z</time>
      </trkpt>
      <trkpt lat="10.1581870906902" lon="-75.6810634344406">
        <ele>52.2778713</ele>
        <time>2019-09-10T15:36:36.700Z</time>
      </trkpt>
      <trkpt lat="10.1581888161374" lon="-75.6810655303679">
        <ele>52.2778713</ele>
        <time>2019-09-10T15:36:36.800Z</time>
      </trkpt>
      <trkpt lat="10.1581905512249" lon="-75.6810676259472">
        <ele>52.2778713</ele>
        <time>2019-09-10T15:36:36.900Z</time>
      </trkpt>
      <trkpt lat="10.158192286573" lon="-75.6810697312743">
        <ele>52.2778713</ele>
        <time>2019-09-10T15:36:37.000Z</time>
      </trkpt>
      <trkpt lat="10.1581940344015" lon="-75.6810718377851">
        <ele>52.2778713</ele>
        <time>2019-09-10T15:36:37.100Z</time>
      </trkpt>
      <trkpt lat="10.1581957750909" lon="-75.6810739185685">
        <ele>52.2778713</ele>
        <time>2019-09-10T15:36:37.200Z</time>
      </trkpt>
      <trkpt lat="10.1581975259418" lon="-75.6810759934683">
        <ele>52.2778713</ele>
        <time>2019-09-10T15:36:37.300Z</time>
      </trkpt>
      <trkpt lat="10.1581992938587" lon="-75.6810780982384">
        <ele>52.2778713</ele>
        <time>2019-09-10T15:36:37.400Z</time>
      </trkpt>
      <trkpt lat="10.1582010667522" lon="-75.6810802040355">
        <ele>52.2778713</ele>
        <time>2019-09-10T15:36:37.500Z</time>
      </trkpt>
      <trkpt lat="10.1582028229183" lon="-75.6810823224526">
        <ele>52.3778713</ele>
        <time>2019-09-10T15:36:37.600Z</time>
      </trkpt>
      <trkpt lat="10.1582045699391" lon="-75.681084435665">
        <ele>52.3778713</ele>
        <time>2019-09-10T15:36:37.700Z</time>
      </trkpt>
      <trkpt lat="10.1582063087786" lon="-75.6810865678335">
        <ele>52.2778713</ele>
        <time>2019-09-10T15:36:37.800Z</time>
      </trkpt>
      <trkpt lat="10.1582080385769" lon="-75.6810887049107">
        <ele>52.2778713</ele>
        <time>2019-09-10T15:36:37.900Z</time>
      </trkpt>
      <trkpt lat="10.1582096957076" lon="-75.6810908099245">
        <ele>52.3778713</ele>
        <time>2019-09-10T15:36:38.000Z</time>
      </trkpt>
      <trkpt lat="10.158211349399" lon="-75.6810929145205">
        <ele>52.3778713</ele>
        <time>2019-09-10T15:36:38.100Z</time>
      </trkpt>
      <trkpt lat="10.158212974534" lon="-75.6810950142426">
        <ele>52.3778713</ele>
        <time>2019-09-10T15:36:38.200Z</time>
      </trkpt>
      <trkpt lat="10.1582162104476" lon="-75.6810992745586">
        <ele>52.3778713</ele>
        <time>2019-09-10T15:36:38.400Z</time>
      </trkpt>
      <trkpt lat="10.1582178326645" lon="-75.6811014222192">
        <ele>52.3778713</ele>
        <time>2019-09-10T15:36:38.500Z</time>
      </trkpt>
      <trkpt lat="10.1582194094933" lon="-75.6811035390349">
        <ele>52.2778713</ele>
        <time>2019-09-10T15:36:38.600Z</time>
      </trkpt>
      <trkpt lat="10.1582209976561" lon="-75.6811056478956">
        <ele>52.2778713</ele>
        <time>2019-09-10T15:36:38.700Z</time>
      </trkpt>
      <trkpt lat="10.1582226405867" lon="-75.681107764189">
        <ele>52.2778713</ele>
        <time>2019-09-10T15:36:38.800Z</time>
      </trkpt>
      <trkpt lat="10.1582243371909" lon="-75.6811098774188">
        <ele>52.3778713</ele>
        <time>2019-09-10T15:36:38.900Z</time>
      </trkpt>
      <trkpt lat="10.15822604466" lon="-75.6811119607959">
        <ele>52.2778713</ele>
        <time>2019-09-10T15:36:39.000Z</time>
      </trkpt>
      <trkpt lat="10.1582277407952" lon="-75.6811140520582">
        <ele>52.2778713</ele>
        <time>2019-09-10T15:36:39.100Z</time>
      </trkpt>
      <trkpt lat="10.1582294032932" lon="-75.6811161384988">
        <ele>52.2778713</ele>
        <time>2019-09-10T15:36:39.200Z</time>
      </trkpt>
      <trkpt lat="10.1582310830397" lon="-75.6811182267672">
        <ele>52.2778713</ele>
        <time>2019-09-10T15:36:39.300Z</time>
      </trkpt>
      <trkpt lat="10.1582327644276" lon="-75.6811203129119">
        <ele>52.2778713</ele>
        <time>2019-09-10T15:36:39.400Z</time>
      </trkpt>
      <trkpt lat="10.1582344599114" lon="-75.6811224071856">
        <ele>52.2778713</ele>
        <time>2019-09-10T15:36:39.500Z</time>
      </trkpt>
      <trkpt lat="10.1582361738683" lon="-75.6811244496565">
        <ele>52.2778713</ele>
        <time>2019-09-10T15:36:39.600Z</time>
      </trkpt>
      <trkpt lat="10.1582379313893" lon="-75.6811264865572">
        <ele>52.2778713</ele>
        <time>2019-09-10T15:36:39.700Z</time>
      </trkpt>
      <trkpt lat="10.1582397147308" lon="-75.68112851183">
        <ele>52.2778713</ele>
        <time>2019-09-10T15:36:39.800Z</time>
      </trkpt>
      <trkpt lat="10.1582414818922" lon="-75.6811305604803">
        <ele>52.2778713</ele>
        <time>2019-09-10T15:36:39.900Z</time>
      </trkpt>
      <trkpt lat="10.1582432571567" lon="-75.6811326638927">
        <ele>52.2778713</ele>
        <time>2019-09-10T15:36:40.000Z</time>
      </trkpt>
      <trkpt lat="10.1582450369809" lon="-75.6811347941464">
        <ele>52.2778713</ele>
        <time>2019-09-10T15:36:40.100Z</time>
      </trkpt>
      <trkpt lat="10.1582468157368" lon="-75.6811369354971">
        <ele>52.2778713</ele>
        <time>2019-09-10T15:36:40.200Z</time>
      </trkpt>
      <trkpt lat="10.1582485819862" lon="-75.6811390966306">
        <ele>52.2778713</ele>
        <time>2019-09-10T15:36:40.300Z</time>
      </trkpt>
      <trkpt lat="10.1582503395593" lon="-75.6811412648401">
        <ele>52.2778713</ele>
        <time>2019-09-10T15:36:40.400Z</time>
      </trkpt>
      <trkpt lat="10.1582521241515" lon="-75.6811434230231">
        <ele>52.3778713</ele>
        <time>2019-09-10T15:36:40.500Z</time>
      </trkpt>
      <trkpt lat="10.1582538932149" lon="-75.6811455892308">
        <ele>52.3778713</ele>
        <time>2019-09-10T15:36:40.600Z</time>
      </trkpt>
      <trkpt lat="10.1582556545921" lon="-75.6811477400769">
        <ele>52.2778713</ele>
        <time>2019-09-10T15:36:40.700Z</time>
      </trkpt>
      <trkpt lat="10.1582573665948" lon="-75.6811498410958">
        <ele>52.2778713</ele>
        <time>2019-09-10T15:36:40.800Z</time>
      </trkpt>
      <trkpt lat="10.1582590498066" lon="-75.6811519101295">
        <ele>52.2778713</ele>
        <time>2019-09-10T15:36:40.900Z</time>
      </trkpt>
      <trkpt lat="10.1582624884811" lon="-75.6811560194235">
        <ele>52.2778713</ele>
        <time>2019-09-10T15:36:41.100Z</time>
      </trkpt>
      <trkpt lat="10.158264228936" lon="-75.6811580518332">
        <ele>52.2778713</ele>
        <time>2019-09-10T15:36:41.200Z</time>
      </trkpt>
      <trkpt lat="10.1582659861443" lon="-75.6811601024591">
        <ele>52.2778713</ele>
        <time>2019-09-10T15:36:41.300Z</time>
      </trkpt>
      <trkpt lat="10.1582677705802" lon="-75.6811621965675">
        <ele>52.2778713</ele>
        <time>2019-09-10T15:36:41.400Z</time>
      </trkpt>
      <trkpt lat="10.1582695542605" lon="-75.6811643089096">
        <ele>52.2778713</ele>
        <time>2019-09-10T15:36:41.500Z</time>
      </trkpt>
      <trkpt lat="10.1582712951844" lon="-75.6811663803716">
        <ele>52.2778713</ele>
        <time>2019-09-10T15:36:41.600Z</time>
      </trkpt>
      <trkpt lat="10.1582730198759" lon="-75.6811684564116">
        <ele>52.2778713</ele>
        <time>2019-09-10T15:36:41.700Z</time>
      </trkpt>
      <trkpt lat="10.1582747302111" lon="-75.681170513217">
        <ele>52.2778713</ele>
        <time>2019-09-10T15:36:41.800Z</time>
      </trkpt>
      <trkpt lat="10.1582764483368" lon="-75.681172593574">
        <ele>52.2778713</ele>
        <time>2019-09-10T15:36:41.900Z</time>
      </trkpt>
      <trkpt lat="10.1582781354829" lon="-75.6811746623031">
        <ele>52.2778713</ele>
        <time>2019-09-10T15:36:42.000Z</time>
      </trkpt>
      <trkpt lat="10.1582798402684" lon="-75.6811767551669">
        <ele>52.2778713</ele>
        <time>2019-09-10T15:36:42.100Z</time>
      </trkpt>
      <trkpt lat="10.1582815495353" lon="-75.681178847491">
        <ele>52.2778713</ele>
        <time>2019-09-10T15:36:42.200Z</time>
      </trkpt>
      <trkpt lat="10.1582832711523" lon="-75.6811809602857">
        <ele>52.2778713</ele>
        <time>2019-09-10T15:36:42.300Z</time>
      </trkpt>
      <trkpt lat="10.1582867116246" lon="-75.6811852063455">
        <ele>52.2778713</ele>
        <time>2019-09-10T15:36:42.500Z</time>
      </trkpt>
      <trkpt lat="10.1582884039297" lon="-75.6811872894875">
        <ele>52.2778713</ele>
        <time>2019-09-10T15:36:42.600Z</time>
      </trkpt>
      <trkpt lat="10.1582901150204" lon="-75.6811893618895">
        <ele>52.2778713</ele>
        <time>2019-09-10T15:36:42.700Z</time>
      </trkpt>
      <trkpt lat="10.1582918144385" lon="-75.6811914204356">
        <ele>52.2778713</ele>
        <time>2019-09-10T15:36:42.800Z</time>
      </trkpt>
      <trkpt lat="10.1582935284736" lon="-75.6811934888166">
        <ele>52.2778713</ele>
        <time>2019-09-10T15:36:42.900Z</time>
      </trkpt>
      <trkpt lat="10.1582952574381" lon="-75.681195556101">
        <ele>52.2778713</ele>
        <time>2019-09-10T15:36:43.000Z</time>
      </trkpt>
      <trkpt lat="10.1582969998472" lon="-75.6811976553183">
        <ele>52.2778713</ele>
        <time>2019-09-10T15:36:43.100Z</time>
      </trkpt>
      <trkpt lat="10.1582987429857" lon="-75.6811997509671">
        <ele>52.2778713</ele>
        <time>2019-09-10T15:36:43.200Z</time>
      </trkpt>
      <trkpt lat="10.1583004797929" lon="-75.6812018727524">
        <ele>52.3778713</ele>
        <time>2019-09-10T15:36:43.300Z</time>
      </trkpt>
      <trkpt lat="10.1583021760062" lon="-75.681203956495">
        <ele>52.3778713</ele>
        <time>2019-09-10T15:36:43.400Z</time>
      </trkpt>
      <trkpt lat="10.1583038865238" lon="-75.681206037026">
        <ele>52.3778713</ele>
        <time>2019-09-10T15:36:43.500Z</time>
      </trkpt>
      <trkpt lat="10.1583056136124" lon="-75.6812080744097">
        <ele>52.2778713</ele>
        <time>2019-09-10T15:36:43.600Z</time>
      </trkpt>
      <trkpt lat="10.1583073428766" lon="-75.6812101189346">
        <ele>52.2778713</ele>
        <time>2019-09-10T15:36:43.700Z</time>
      </trkpt>
      <trkpt lat="10.1583090659007" lon="-75.6812121495427">
        <ele>52.3778713</ele>
        <time>2019-09-10T15:36:43.800Z</time>
      </trkpt>
      <trkpt lat="10.1583107894328" lon="-75.6812141887193">
        <ele>52.3778713</ele>
        <time>2019-09-10T15:36:43.900Z</time>
      </trkpt>
      <trkpt lat="10.1583125357761" lon="-75.6812162751251">
        <ele>52.3778713</ele>
        <time>2019-09-10T15:36:44.000Z</time>
      </trkpt>
      <trkpt lat="10.158314284256" lon="-75.6812183889163">
        <ele>52.3778713</ele>
        <time>2019-09-10T15:36:44.100Z</time>
      </trkpt>
      <trkpt lat="10.1583160069804" lon="-75.6812204795781">
        <ele>52.3778713</ele>
        <time>2019-09-10T15:36:44.200Z</time>
      </trkpt>
      <trkpt lat="10.1583177518386" lon="-75.6812225820635">
        <ele>52.3778713</ele>
        <time>2019-09-10T15:36:44.300Z</time>
      </trkpt>
      <trkpt lat="10.1583195249144" lon="-75.6812247039837">
        <ele>52.3778713</ele>
        <time>2019-09-10T15:36:44.400Z</time>
      </trkpt>
      <trkpt lat="10.1583213001529" lon="-75.6812268073264">
        <ele>52.3778713</ele>
        <time>2019-09-10T15:36:44.500Z</time>
      </trkpt>
      <trkpt lat="10.158323090347" lon="-75.6812288836102">
        <ele>52.2778713</ele>
        <time>2019-09-10T15:36:44.600Z</time>
      </trkpt>
      <trkpt lat="10.1583248749783" lon="-75.6812309456986">
        <ele>52.2778713</ele>
        <time>2019-09-10T15:36:44.700Z</time>
      </trkpt>
      <trkpt lat="10.1583266272361" lon="-75.6812330185357">
        <ele>52.2778713</ele>
        <time>2019-09-10T15:36:44.800Z</time>
      </trkpt>
      <trkpt lat="10.1583283786602" lon="-75.6812350832874">
        <ele>52.2778713</ele>
        <time>2019-09-10T15:36:44.900Z</time>
      </trkpt>
      <trkpt lat="10.1583301324944" lon="-75.6812371323685">
        <ele>52.2778713</ele>
        <time>2019-09-10T15:36:45.000Z</time>
      </trkpt>
      <trkpt lat="10.158331883684" lon="-75.6812391943786">
        <ele>52.2778713</ele>
        <time>2019-09-10T15:36:45.100Z</time>
      </trkpt>
      <trkpt lat="10.1583336255459" lon="-75.6812412723029">
        <ele>52.2778713</ele>
        <time>2019-09-10T15:36:45.200Z</time>
      </trkpt>
      <trkpt lat="10.1583353884603" lon="-75.6812433511215">
        <ele>52.2778713</ele>
        <time>2019-09-10T15:36:45.300Z</time>
      </trkpt>
      <trkpt lat="10.1583371646237" lon="-75.6812454006618">
        <ele>52.2778713</ele>
        <time>2019-09-10T15:36:45.400Z</time>
      </trkpt>
      <trkpt lat="10.1583389623216" lon="-75.6812474553697">
        <ele>52.2778713</ele>
        <time>2019-09-10T15:36:45.500Z</time>
      </trkpt>
      <trkpt lat="10.1583407482166" lon="-75.6812495222362">
        <ele>52.2778713</ele>
        <time>2019-09-10T15:36:45.600Z</time>
      </trkpt>
      <trkpt lat="10.1583425412768" lon="-75.6812515879083">
        <ele>52.2778713</ele>
        <time>2019-09-10T15:36:45.700Z</time>
      </trkpt>
      <trkpt lat="10.1583443302853" lon="-75.6812536461389">
        <ele>52.2778713</ele>
        <time>2019-09-10T15:36:45.800Z</time>
      </trkpt>
      <trkpt lat="10.1583461461958" lon="-75.6812557076246">
        <ele>52.2778713</ele>
        <time>2019-09-10T15:36:45.900Z</time>
      </trkpt>
      <trkpt lat="10.1583498770913" lon="-75.6812599642025">
        <ele>52.2778713</ele>
        <time>2019-09-10T15:36:46.100Z</time>
      </trkpt>
      <trkpt lat="10.1583536796643" lon="-75.6812642309341">
        <ele>52.2778713</ele>
        <time>2019-09-10T15:36:46.300Z</time>
      </trkpt>
      <trkpt lat="10.1583555950011" lon="-75.6812663684486">
        <ele>52.2778713</ele>
        <time>2019-09-10T15:36:46.400Z</time>
      </trkpt>
      <trkpt lat="10.1583574949783" lon="-75.6812684932334">
        <ele>52.2778713</ele>
        <time>2019-09-10T15:36:46.500Z</time>
      </trkpt>
      <trkpt lat="10.1583593504665" lon="-75.6812706091645">
        <ele>52.2778713</ele>
        <time>2019-09-10T15:36:46.600Z</time>
      </trkpt>
      <trkpt lat="10.1583611903216" lon="-75.6812727016013">
        <ele>52.2778713</ele>
        <time>2019-09-10T15:36:46.700Z</time>
      </trkpt>
      <trkpt lat="10.1583629812974" lon="-75.6812747390304">
        <ele>52.2778713</ele>
        <time>2019-09-10T15:36:46.800Z</time>
      </trkpt>
      <trkpt lat="10.1583665412192" lon="-75.6812787394101">
        <ele>52.2778713</ele>
        <time>2019-09-10T15:36:47.000Z</time>
      </trkpt>
      <trkpt lat="10.1583700459694" lon="-75.6812827422599">
        <ele>52.2778713</ele>
        <time>2019-09-10T15:36:47.200Z</time>
      </trkpt>
      <trkpt lat="10.1583718020313" lon="-75.6812847530787">
        <ele>52.2778713</ele>
        <time>2019-09-10T15:36:47.300Z</time>
      </trkpt>
      <trkpt lat="10.1583735275567" lon="-75.6812867475208">
        <ele>52.2778713</ele>
        <time>2019-09-10T15:36:47.400Z</time>
      </trkpt>
      <trkpt lat="10.1583752430898" lon="-75.6812887445031">
        <ele>52.2778713</ele>
        <time>2019-09-10T15:36:47.500Z</time>
      </trkpt>
      <trkpt lat="10.1583769758715" lon="-75.6812907331454">
        <ele>52.2778713</ele>
        <time>2019-09-10T15:36:47.600Z</time>
      </trkpt>
      <trkpt lat="10.1583787166912" lon="-75.6812927250591">
        <ele>52.2778713</ele>
        <time>2019-09-10T15:36:47.700Z</time>
      </trkpt>
      <trkpt lat="10.1583804539152" lon="-75.6812946797231">
        <ele>52.2778713</ele>
        <time>2019-09-10T15:36:47.800Z</time>
      </trkpt>
      <trkpt lat="10.1583821761315" lon="-75.6812966482593">
        <ele>52.2778713</ele>
        <time>2019-09-10T15:36:47.900Z</time>
      </trkpt>
      <trkpt lat="10.1583855633993" lon="-75.6813006227816">
        <ele>52.2778713</ele>
        <time>2019-09-10T15:36:48.100Z</time>
      </trkpt>
      <trkpt lat="10.1583872743077" lon="-75.6813026256453">
        <ele>52.2778713</ele>
        <time>2019-09-10T15:36:48.200Z</time>
      </trkpt>
      <trkpt lat="10.1583889949476" lon="-75.6813046429001">
        <ele>52.2778713</ele>
        <time>2019-09-10T15:36:48.300Z</time>
      </trkpt>
      <trkpt lat="10.1583907638156" lon="-75.6813066925687">
        <ele>52.2778713</ele>
        <time>2019-09-10T15:36:48.400Z</time>
      </trkpt>
      <trkpt lat="10.1583925297263" lon="-75.6813087503293">
        <ele>52.2778713</ele>
        <time>2019-09-10T15:36:48.500Z</time>
      </trkpt>
      <trkpt lat="10.1583942733078" lon="-75.681310796386">
        <ele>52.2778713</ele>
        <time>2019-09-10T15:36:48.600Z</time>
      </trkpt>
      <trkpt lat="10.1583960107013" lon="-75.6813128452757">
        <ele>52.2778713</ele>
        <time>2019-09-10T15:36:48.700Z</time>
      </trkpt>
      <trkpt lat="10.1583994523851" lon="-75.6813169659689">
        <ele>52.2778713</ele>
        <time>2019-09-10T15:36:48.900Z</time>
      </trkpt>
      <trkpt lat="10.1584011803987" lon="-75.681319032618">
        <ele>52.2778713</ele>
        <time>2019-09-10T15:36:49.000Z</time>
      </trkpt>
      <trkpt lat="10.1584029157858" lon="-75.6813211077572">
        <ele>52.2778713</ele>
        <time>2019-09-10T15:36:49.100Z</time>
      </trkpt>
      <trkpt lat="10.1584046476556" lon="-75.6813232482592">
        <ele>52.2778713</ele>
        <time>2019-09-10T15:36:49.200Z</time>
      </trkpt>
      <trkpt lat="10.1584081182736" lon="-75.6813275520837">
        <ele>52.2778713</ele>
        <time>2019-09-10T15:36:49.400Z</time>
      </trkpt>
      <trkpt lat="10.1584098551263" lon="-75.6813297007322">
        <ele>52.2778713</ele>
        <time>2019-09-10T15:36:49.500Z</time>
      </trkpt>
      <trkpt lat="10.1584115653573" lon="-75.681331842914">
        <ele>52.2778713</ele>
        <time>2019-09-10T15:36:49.600Z</time>
      </trkpt>
      <trkpt lat="10.158413280656" lon="-75.6813339786335">
        <ele>52.2778713</ele>
        <time>2019-09-10T15:36:49.700Z</time>
      </trkpt>
      <trkpt lat="10.1584150273185" lon="-75.6813361326477">
        <ele>52.2778713</ele>
        <time>2019-09-10T15:36:49.800Z</time>
      </trkpt>
      <trkpt lat="10.1584167847222" lon="-75.6813382825929">
        <ele>52.2778713</ele>
        <time>2019-09-10T15:36:49.900Z</time>
      </trkpt>
      <trkpt lat="10.1584185091988" lon="-75.6813404126552">
        <ele>52.2778713</ele>
        <time>2019-09-10T15:36:50.000Z</time>
      </trkpt>
      <trkpt lat="10.1584202351932" lon="-75.6813425387052">
        <ele>52.2778713</ele>
        <time>2019-09-10T15:36:50.100Z</time>
      </trkpt>
      <trkpt lat="10.1584219342465" lon="-75.6813446105719">
        <ele>52.2778713</ele>
        <time>2019-09-10T15:36:50.200Z</time>
      </trkpt>
      <trkpt lat="10.1584236460017" lon="-75.681346686155">
        <ele>52.2778713</ele>
        <time>2019-09-10T15:36:50.300Z</time>
      </trkpt>
      <trkpt lat="10.1584253844699" lon="-75.6813487789535">
        <ele>52.2778713</ele>
        <time>2019-09-10T15:36:50.400Z</time>
      </trkpt>
      <trkpt lat="10.1584271346303" lon="-75.6813508881885">
        <ele>52.2778713</ele>
        <time>2019-09-10T15:36:50.500Z</time>
      </trkpt>
      <trkpt lat="10.1584288222584" lon="-75.6813529548897">
        <ele>52.2778713</ele>
        <time>2019-09-10T15:36:50.600Z</time>
      </trkpt>
      <trkpt lat="10.1584305126745" lon="-75.6813550260384">
        <ele>52.2778713</ele>
        <time>2019-09-10T15:36:50.700Z</time>
      </trkpt>
      <trkpt lat="10.1584322311193" lon="-75.6813571258388">
        <ele>52.2778713</ele>
        <time>2019-09-10T15:36:50.800Z</time>
      </trkpt>
      <trkpt lat="10.1584339697829" lon="-75.6813592406265">
        <ele>52.2778713</ele>
        <time>2019-09-10T15:36:50.900Z</time>
      </trkpt>
      <trkpt lat="10.1584374044254" lon="-75.681363469732">
        <ele>52.2778713</ele>
        <time>2019-09-10T15:36:51.100Z</time>
      </trkpt>
      <trkpt lat="10.1584391330187" lon="-75.6813655812734">
        <ele>52.2778713</ele>
        <time>2019-09-10T15:36:51.200Z</time>
      </trkpt>
      <trkpt lat="10.1584408759488" lon="-75.6813676955824">
        <ele>52.2778713</ele>
        <time>2019-09-10T15:36:51.300Z</time>
      </trkpt>
      <trkpt lat="10.1584426229435" lon="-75.6813698310234">
        <ele>52.2778713</ele>
        <time>2019-09-10T15:36:51.400Z</time>
      </trkpt>
      <trkpt lat="10.1584443756899" lon="-75.6813719691799">
        <ele>52.2778713</ele>
        <time>2019-09-10T15:36:51.500Z</time>
      </trkpt>
      <trkpt lat="10.158446121193" lon="-75.6813740963091">
        <ele>52.2778713</ele>
        <time>2019-09-10T15:36:51.600Z</time>
      </trkpt>
      <trkpt lat="10.1584478682333" lon="-75.6813762218282">
        <ele>52.2778713</ele>
        <time>2019-09-10T15:36:51.700Z</time>
      </trkpt>
      <trkpt lat="10.1584496646806" lon="-75.6813784017699">
        <ele>52.2778713</ele>
        <time>2019-09-10T15:36:51.800Z</time>
      </trkpt>
      <trkpt lat="10.1584514580925" lon="-75.6813805800144">
        <ele>52.2778713</ele>
        <time>2019-09-10T15:36:51.900Z</time>
      </trkpt>
      <trkpt lat="10.1584532091844" lon="-75.6813827333061">
        <ele>52.2778713</ele>
        <time>2019-09-10T15:36:52.000Z</time>
      </trkpt>
      <trkpt lat="10.1584549566937" lon="-75.6813848801922">
        <ele>52.2778713</ele>
        <time>2019-09-10T15:36:52.100Z</time>
      </trkpt>
      <trkpt lat="10.1584584908926" lon="-75.6813891788642">
        <ele>52.2778713</ele>
        <time>2019-09-10T15:36:52.300Z</time>
      </trkpt>
      <trkpt lat="10.1584602803507" lon="-75.6813913273604">
        <ele>52.2778713</ele>
        <time>2019-09-10T15:36:52.400Z</time>
      </trkpt>
      <trkpt lat="10.1584620660047" lon="-75.6813934744466">
        <ele>52.2778713</ele>
        <time>2019-09-10T15:36:52.500Z</time>
      </trkpt>
      <trkpt lat="10.1584638311435" lon="-75.6813956220463">
        <ele>52.2778713</ele>
        <time>2019-09-10T15:36:52.600Z</time>
      </trkpt>
      <trkpt lat="10.1584655877721" lon="-75.6813977681577">
        <ele>52.2778713</ele>
        <time>2019-09-10T15:36:52.700Z</time>
      </trkpt>
      <trkpt lat="10.1584673223157" lon="-75.6813998850169">
        <ele>52.2778713</ele>
        <time>2019-09-10T15:36:52.800Z</time>
      </trkpt>
      <trkpt lat="10.1584690595528" lon="-75.6814020027551">
        <ele>52.2778713</ele>
        <time>2019-09-10T15:36:52.900Z</time>
      </trkpt>
      <trkpt lat="10.1584707793232" lon="-75.6814041622785">
        <ele>52.2778713</ele>
        <time>2019-09-10T15:36:53.000Z</time>
      </trkpt>
      <trkpt lat="10.1584725101833" lon="-75.6814063237079">
        <ele>52.2778713</ele>
        <time>2019-09-10T15:36:53.100Z</time>
      </trkpt>
      <trkpt lat="10.1584742085787" lon="-75.6814084202794">
        <ele>52.2778713</ele>
        <time>2019-09-10T15:36:53.200Z</time>
      </trkpt>
      <trkpt lat="10.15847592121" lon="-75.6814105157803">
        <ele>52.2778713</ele>
        <time>2019-09-10T15:36:53.300Z</time>
      </trkpt>
      <trkpt lat="10.1584776003247" lon="-75.6814125547176">
        <ele>52.3778713</ele>
        <time>2019-09-10T15:36:53.400Z</time>
      </trkpt>
      <trkpt lat="10.1584792972252" lon="-75.6814146104786">
        <ele>52.3778713</ele>
        <time>2019-09-10T15:36:53.500Z</time>
      </trkpt>
      <trkpt lat="10.1584809921879" lon="-75.6814166553951">
        <ele>52.3778713</ele>
        <time>2019-09-10T15:36:53.600Z</time>
      </trkpt>
      <trkpt lat="10.1584827038877" lon="-75.6814187209736">
        <ele>52.3778713</ele>
        <time>2019-09-10T15:36:53.700Z</time>
      </trkpt>
      <trkpt lat="10.1584844249609" lon="-75.6814207797982">
        <ele>52.3778713</ele>
        <time>2019-09-10T15:36:53.800Z</time>
      </trkpt>
      <trkpt lat="10.1584861600875" lon="-75.6814228521741">
        <ele>52.3778713</ele>
        <time>2019-09-10T15:36:53.900Z</time>
      </trkpt>
      <trkpt lat="10.15848789979" lon="-75.6814249291889">
        <ele>52.3778713</ele>
        <time>2019-09-10T15:36:54.000Z</time>
      </trkpt>
      <trkpt lat="10.1584896466317" lon="-75.6814270156644">
        <ele>52.3778713</ele>
        <time>2019-09-10T15:36:54.100Z</time>
      </trkpt>
      <trkpt lat="10.1584913603019" lon="-75.6814290784316">
        <ele>52.3778713</ele>
        <time>2019-09-10T15:36:54.200Z</time>
      </trkpt>
      <trkpt lat="10.1584930788298" lon="-75.6814311514167">
        <ele>52.3778713</ele>
        <time>2019-09-10T15:36:54.300Z</time>
      </trkpt>
      <trkpt lat="10.158494823675" lon="-75.6814332722534">
        <ele>52.3778713</ele>
        <time>2019-09-10T15:36:54.400Z</time>
      </trkpt>
      <trkpt lat="10.1584965746089" lon="-75.6814354016716">
        <ele>52.3778713</ele>
        <time>2019-09-10T15:36:54.500Z</time>
      </trkpt>
      <trkpt lat="10.1584982907918" lon="-75.6814374982779">
        <ele>52.3778713</ele>
        <time>2019-09-10T15:36:54.600Z</time>
      </trkpt>
      <trkpt lat="10.1585000093767" lon="-75.6814395923253">
        <ele>52.3778713</ele>
        <time>2019-09-10T15:36:54.700Z</time>
      </trkpt>
      <trkpt lat="10.1585016681049" lon="-75.6814416483735">
        <ele>52.3778713</ele>
        <time>2019-09-10T15:36:54.800Z</time>
      </trkpt>
      <trkpt lat="10.1585033369376" lon="-75.6814437136996">
        <ele>52.3778713</ele>
        <time>2019-09-10T15:36:54.900Z</time>
      </trkpt>
      <trkpt lat="10.1585050422368" lon="-75.681445777842">
        <ele>52.3778713</ele>
        <time>2019-09-10T15:36:55.000Z</time>
      </trkpt>
      <trkpt lat="10.1585067718853" lon="-75.6814478554052">
        <ele>52.3778713</ele>
        <time>2019-09-10T15:36:55.100Z</time>
      </trkpt>
      <trkpt lat="10.1585084801329" lon="-75.6814499357012">
        <ele>52.3778713</ele>
        <time>2019-09-10T15:36:55.200Z</time>
      </trkpt>
      <trkpt lat="10.1585119137131" lon="-75.6814541133171">
        <ele>52.3778713</ele>
        <time>2019-09-10T15:36:55.400Z</time>
      </trkpt>
      <trkpt lat="10.1585136466063" lon="-75.6814562055368">
        <ele>52.3778713</ele>
        <time>2019-09-10T15:36:55.500Z</time>
      </trkpt>
      <trkpt lat="10.1585153583005" lon="-75.6814582703755">
        <ele>52.3778713</ele>
        <time>2019-09-10T15:36:55.600Z</time>
      </trkpt>
      <trkpt lat="10.1585170750873" lon="-75.6814603406626">
        <ele>52.3778713</ele>
        <time>2019-09-10T15:36:55.700Z</time>
      </trkpt>
      <trkpt lat="10.1585187977634" lon="-75.6814624206279">
        <ele>52.3778713</ele>
        <time>2019-09-10T15:36:55.800Z</time>
      </trkpt>
      <trkpt lat="10.15852052859" lon="-75.6814645110373">
        <ele>52.3778713</ele>
        <time>2019-09-10T15:36:55.900Z</time>
      </trkpt>
      <trkpt lat="10.1585222302828" lon="-75.6814666104112">
        <ele>52.3778713</ele>
        <time>2019-09-10T15:36:56.000Z</time>
      </trkpt>
      <trkpt lat="10.1585239373029" lon="-75.6814687135276">
        <ele>52.3778713</ele>
        <time>2019-09-10T15:36:56.100Z</time>
      </trkpt>
      <trkpt lat="10.1585256487479" lon="-75.6814708216572">
        <ele>52.3778713</ele>
        <time>2019-09-10T15:36:56.200Z</time>
      </trkpt>
      <trkpt lat="10.1585290695306" lon="-75.6814750394135">
        <ele>52.3778713</ele>
        <time>2019-09-10T15:36:56.400Z</time>
      </trkpt>
      <trkpt lat="10.1585307755496" lon="-75.6814771441313">
        <ele>52.3778713</ele>
        <time>2019-09-10T15:36:56.500Z</time>
      </trkpt>
      <trkpt lat="10.1585324954031" lon="-75.6814792420605">
        <ele>52.3778713</ele>
        <time>2019-09-10T15:36:56.600Z</time>
      </trkpt>
      <trkpt lat="10.1585342296064" lon="-75.6814813372394">
        <ele>52.3778713</ele>
        <time>2019-09-10T15:36:56.700Z</time>
      </trkpt>
      <trkpt lat="10.1585359406792" lon="-75.6814834309213">
        <ele>52.3778713</ele>
        <time>2019-09-10T15:36:56.800Z</time>
      </trkpt>
      <trkpt lat="10.1585376619169" lon="-75.6814855261524">
        <ele>52.3778713</ele>
        <time>2019-09-10T15:36:56.900Z</time>
      </trkpt>
      <trkpt lat="10.1585394190079" lon="-75.6814876956238">
        <ele>52.3778713</ele>
        <time>2019-09-10T15:36:57.000Z</time>
      </trkpt>
      <trkpt lat="10.1585411810218" lon="-75.6814898600124">
        <ele>52.3778713</ele>
        <time>2019-09-10T15:36:57.100Z</time>
      </trkpt>
      <trkpt lat="10.1585429113233" lon="-75.6814919864367">
        <ele>52.3778713</ele>
        <time>2019-09-10T15:36:57.200Z</time>
      </trkpt>
      <trkpt lat="10.1585446442532" lon="-75.6814941002235">
        <ele>52.3778713</ele>
        <time>2019-09-10T15:36:57.300Z</time>
      </trkpt>
      <trkpt lat="10.158546371534" lon="-75.6814962033574">
        <ele>52.3778713</ele>
        <time>2019-09-10T15:36:57.400Z</time>
      </trkpt>
      <trkpt lat="10.1585481052178" lon="-75.6814983138717">
        <ele>52.3778713</ele>
        <time>2019-09-10T15:36:57.500Z</time>
      </trkpt>
      <trkpt lat="10.1585498330457" lon="-75.6815004481465">
        <ele>52.3778713</ele>
        <time>2019-09-10T15:36:57.600Z</time>
      </trkpt>
      <trkpt lat="10.1585532622231" lon="-75.6815047004031">
        <ele>52.3778713</ele>
        <time>2019-09-10T15:36:57.800Z</time>
      </trkpt>
      <trkpt lat="10.1585549719655" lon="-75.6815068130411">
        <ele>52.3778713</ele>
        <time>2019-09-10T15:36:57.900Z</time>
      </trkpt>
      <trkpt lat="10.1585566853752" lon="-75.6815089080459">
        <ele>52.3778713</ele>
        <time>2019-09-10T15:36:58.000Z</time>
      </trkpt>
      <trkpt lat="10.1585584139457" lon="-75.6815110050699">
        <ele>52.3778713</ele>
        <time>2019-09-10T15:36:58.100Z</time>
      </trkpt>
      <trkpt lat="10.1585636648569" lon="-75.681517442412">
        <ele>52.3778713</ele>
        <time>2019-09-10T15:36:58.400Z</time>
      </trkpt>
      <trkpt lat="10.1585653911736" lon="-75.6815195481742">
        <ele>52.3778713</ele>
        <time>2019-09-10T15:36:58.500Z</time>
      </trkpt>
      <trkpt lat="10.1585671131782" lon="-75.6815216701423">
        <ele>52.3778713</ele>
        <time>2019-09-10T15:36:58.600Z</time>
      </trkpt>
      <trkpt lat="10.1585688416999" lon="-75.6815237974195">
        <ele>52.3778713</ele>
        <time>2019-09-10T15:36:58.700Z</time>
      </trkpt>
      <trkpt lat="10.1585705149619" lon="-75.681525878464">
        <ele>52.3778713</ele>
        <time>2019-09-10T15:36:58.800Z</time>
      </trkpt>
      <trkpt lat="10.1585739231845" lon="-75.6815301271522">
        <ele>52.3778713</ele>
        <time>2019-09-10T15:36:59.000Z</time>
      </trkpt>
      <trkpt lat="10.1585756764194" lon="-75.6815323040042">
        <ele>52.3778713</ele>
        <time>2019-09-10T15:36:59.100Z</time>
      </trkpt>
      <trkpt lat="10.1585774420239" lon="-75.6815344990115">
        <ele>52.3778713</ele>
        <time>2019-09-10T15:36:59.200Z</time>
      </trkpt>
      <trkpt lat="10.158580965384" lon="-75.6815388526806">
        <ele>52.2778713</ele>
        <time>2019-09-10T15:36:59.400Z</time>
      </trkpt>
      <trkpt lat="10.1585827234521" lon="-75.6815410174174">
        <ele>52.2778713</ele>
        <time>2019-09-10T15:36:59.500Z</time>
      </trkpt>
      <trkpt lat="10.1585845104089" lon="-75.681543223217">
        <ele>52.2778713</ele>
        <time>2019-09-10T15:36:59.600Z</time>
      </trkpt>
      <trkpt lat="10.1585862936332" lon="-75.6815454096427">
        <ele>52.3778713</ele>
        <time>2019-09-10T15:36:59.700Z</time>
      </trkpt>
      <trkpt lat="10.1585880402306" lon="-75.6815475548142">
        <ele>52.3778713</ele>
        <time>2019-09-10T15:36:59.800Z</time>
      </trkpt>
      <trkpt lat="10.1585915118648" lon="-75.6815518603881">
        <ele>52.3778713</ele>
        <time>2019-09-10T15:37:00.000Z</time>
      </trkpt>
      <trkpt lat="10.1585932452327" lon="-75.6815540294418">
        <ele>52.3778713</ele>
        <time>2019-09-10T15:37:00.100Z</time>
      </trkpt>
      <trkpt lat="10.1585967007517" lon="-75.681558297382">
        <ele>52.3778713</ele>
        <time>2019-09-10T15:37:00.300Z</time>
      </trkpt>
      <trkpt lat="10.1585984268372" lon="-75.681560426661">
        <ele>52.3778713</ele>
        <time>2019-09-10T15:37:00.400Z</time>
      </trkpt>
      <trkpt lat="10.1586001613972" lon="-75.6815625543559">
        <ele>52.3778713</ele>
        <time>2019-09-10T15:37:00.500Z</time>
      </trkpt>
      <trkpt lat="10.1586018637204" lon="-75.6815646566194">
        <ele>52.3778713</ele>
        <time>2019-09-10T15:37:00.600Z</time>
      </trkpt>
      <trkpt lat="10.1586035701473" lon="-75.6815667581866">
        <ele>52.3778713</ele>
        <time>2019-09-10T15:37:00.700Z</time>
      </trkpt>
      <trkpt lat="10.1586053024795" lon="-75.6815688756637">
        <ele>52.3778713</ele>
        <time>2019-09-10T15:37:00.800Z</time>
      </trkpt>
      <trkpt lat="10.158607043918" lon="-75.6815709991461">
        <ele>52.3778713</ele>
        <time>2019-09-10T15:37:00.900Z</time>
      </trkpt>
      <trkpt lat="10.1586087622651" lon="-75.681573108268">
        <ele>52.3778713</ele>
        <time>2019-09-10T15:37:01.000Z</time>
      </trkpt>
      <trkpt lat="10.1586104803647" lon="-75.6815752170764">
        <ele>52.3778713</ele>
        <time>2019-09-10T15:37:01.100Z</time>
      </trkpt>
      <trkpt lat="10.1586122018645" lon="-75.6815773155452">
        <ele>52.3778713</ele>
        <time>2019-09-10T15:37:01.200Z</time>
      </trkpt>
      <trkpt lat="10.1586139317671" lon="-75.6815794173213">
        <ele>52.3778713</ele>
        <time>2019-09-10T15:37:01.300Z</time>
      </trkpt>
      <trkpt lat="10.1586156365851" lon="-75.6815815080963">
        <ele>52.3778713</ele>
        <time>2019-09-10T15:37:01.400Z</time>
      </trkpt>
      <trkpt lat="10.1586173479625" lon="-75.6815836014126">
        <ele>52.3778713</ele>
        <time>2019-09-10T15:37:01.500Z</time>
      </trkpt>
      <trkpt lat="10.1586190679251" lon="-75.6815856877662">
        <ele>52.3778713</ele>
        <time>2019-09-10T15:37:01.600Z</time>
      </trkpt>
      <trkpt lat="10.1586208007458" lon="-75.6815877804559">
        <ele>52.3778713</ele>
        <time>2019-09-10T15:37:01.700Z</time>
      </trkpt>
      <trkpt lat="10.1586225396179" lon="-75.6815898709175">
        <ele>52.3778713</ele>
        <time>2019-09-10T15:37:01.800Z</time>
      </trkpt>
      <trkpt lat="10.1586259969413" lon="-75.6815940674025">
        <ele>52.3778713</ele>
        <time>2019-09-10T15:37:02.000Z</time>
      </trkpt>
      <trkpt lat="10.1586277153014" lon="-75.6815961706756">
        <ele>52.3778713</ele>
        <time>2019-09-10T15:37:02.100Z</time>
      </trkpt>
      <trkpt lat="10.1586294621138" lon="-75.6815983052115">
        <ele>52.3778713</ele>
        <time>2019-09-10T15:37:02.200Z</time>
      </trkpt>
      <trkpt lat="10.1586312198692" lon="-75.6816004382851">
        <ele>52.3778713</ele>
        <time>2019-09-10T15:37:02.300Z</time>
      </trkpt>
      <trkpt lat="10.1586329525597" lon="-75.6816025302437">
        <ele>52.3778713</ele>
        <time>2019-09-10T15:37:02.400Z</time>
      </trkpt>
      <trkpt lat="10.1586346878166" lon="-75.6816046170151">
        <ele>52.3778713</ele>
        <time>2019-09-10T15:37:02.500Z</time>
      </trkpt>
      <trkpt lat="10.1586364428884" lon="-75.681606698634">
        <ele>52.3778713</ele>
        <time>2019-09-10T15:37:02.600Z</time>
      </trkpt>
      <trkpt lat="10.1586382033276" lon="-75.6816087876683">
        <ele>52.3778713</ele>
        <time>2019-09-10T15:37:02.700Z</time>
      </trkpt>
      <trkpt lat="10.1586399287486" lon="-75.6816108070402">
        <ele>52.3778713</ele>
        <time>2019-09-10T15:37:02.800Z</time>
      </trkpt>
      <trkpt lat="10.1586416578826" lon="-75.6816128298239">
        <ele>52.3778713</ele>
        <time>2019-09-10T15:37:02.900Z</time>
      </trkpt>
      <trkpt lat="10.1586450684696" lon="-75.6816168376532">
        <ele>52.3778713</ele>
        <time>2019-09-10T15:37:03.100Z</time>
      </trkpt>
      <trkpt lat="10.1586468025671" lon="-75.6816188727957">
        <ele>52.3778713</ele>
        <time>2019-09-10T15:37:03.200Z</time>
      </trkpt>
      <trkpt lat="10.1586502961527" lon="-75.6816229555442">
        <ele>52.3778713</ele>
        <time>2019-09-10T15:37:03.400Z</time>
      </trkpt>
      <trkpt lat="10.15865375842" lon="-75.6816269888571">
        <ele>52.3778713</ele>
        <time>2019-09-10T15:37:03.600Z</time>
      </trkpt>
      <trkpt lat="10.1586554802325" lon="-75.6816289994212">
        <ele>52.3778713</ele>
        <time>2019-09-10T15:37:03.700Z</time>
      </trkpt>
      <trkpt lat="10.1586572261199" lon="-75.6816310156251">
        <ele>52.3778713</ele>
        <time>2019-09-10T15:37:03.800Z</time>
      </trkpt>
      <trkpt lat="10.1586606936634" lon="-75.6816350795045">
        <ele>52.3778713</ele>
        <time>2019-09-10T15:37:04.000Z</time>
      </trkpt>
      <trkpt lat="10.1586624051971" lon="-75.6816371146818">
        <ele>52.3778713</ele>
        <time>2019-09-10T15:37:04.100Z</time>
      </trkpt>
      <trkpt lat="10.1586658122016" lon="-75.6816412558129">
        <ele>52.3778713</ele>
        <time>2019-09-10T15:37:04.300Z</time>
      </trkpt>
      <trkpt lat="10.1586675270052" lon="-75.6816433582157">
        <ele>52.3778713</ele>
        <time>2019-09-10T15:37:04.400Z</time>
      </trkpt>
      <trkpt lat="10.1586692520876" lon="-75.6816454627769">
        <ele>52.3778713</ele>
        <time>2019-09-10T15:37:04.500Z</time>
      </trkpt>
      <trkpt lat="10.1586709574202" lon="-75.6816475489216">
        <ele>52.3778713</ele>
        <time>2019-09-10T15:37:04.600Z</time>
      </trkpt>
      <trkpt lat="10.1586726669607" lon="-75.6816496348226">
        <ele>52.3778713</ele>
        <time>2019-09-10T15:37:04.700Z</time>
      </trkpt>
      <trkpt lat="10.1586743838748" lon="-75.6816517299841">
        <ele>52.3778713</ele>
        <time>2019-09-10T15:37:04.800Z</time>
      </trkpt>
      <trkpt lat="10.1586761085533" lon="-75.6816538329439">
        <ele>52.3778713</ele>
        <time>2019-09-10T15:37:04.900Z</time>
      </trkpt>
      <trkpt lat="10.1586778371792" lon="-75.6816559447812">
        <ele>52.3778713</ele>
        <time>2019-09-10T15:37:05.000Z</time>
      </trkpt>
      <trkpt lat="10.158679567186" lon="-75.6816580600302">
        <ele>52.3778713</ele>
        <time>2019-09-10T15:37:05.100Z</time>
      </trkpt>
      <trkpt lat="10.1586812744597" lon="-75.6816601416839">
        <ele>52.3778713</ele>
        <time>2019-09-10T15:37:05.200Z</time>
      </trkpt>
      <trkpt lat="10.1586829939142" lon="-75.681662224591">
        <ele>52.3778713</ele>
        <time>2019-09-10T15:37:05.300Z</time>
      </trkpt>
      <trkpt lat="10.1586847218235" lon="-75.6816643021019">
        <ele>52.3778713</ele>
        <time>2019-09-10T15:37:05.400Z</time>
      </trkpt>
      <trkpt lat="10.1586864513874" lon="-75.6816663938864">
        <ele>52.3778713</ele>
        <time>2019-09-10T15:37:05.500Z</time>
      </trkpt>
      <trkpt lat="10.1586881417253" lon="-75.6816684916241">
        <ele>52.3778713</ele>
        <time>2019-09-10T15:37:05.600Z</time>
      </trkpt>
      <trkpt lat="10.1586914660309" lon="-75.681672700468">
        <ele>52.3778713</ele>
        <time>2019-09-10T15:37:05.800Z</time>
      </trkpt>
      <trkpt lat="10.1586947637863" lon="-75.681676901618">
        <ele>52.3778713</ele>
        <time>2019-09-10T15:37:06.000Z</time>
      </trkpt>
      <trkpt lat="10.1586964284078" lon="-75.6816790040208">
        <ele>52.3778713</ele>
        <time>2019-09-10T15:37:06.100Z</time>
      </trkpt>
      <trkpt lat="10.1586980741133" lon="-75.6816811044391">
        <ele>52.3778713</ele>
        <time>2019-09-10T15:37:06.200Z</time>
      </trkpt>
      <trkpt lat="10.1586997446884" lon="-75.6816832099055">
        <ele>52.3778713</ele>
        <time>2019-09-10T15:37:06.300Z</time>
      </trkpt>
      <trkpt lat="10.1587014102609" lon="-75.68168531384">
        <ele>52.3778713</ele>
        <time>2019-09-10T15:37:06.400Z</time>
      </trkpt>
      <trkpt lat="10.1587047645429" lon="-75.6816895322229">
        <ele>52.3778713</ele>
        <time>2019-09-10T15:37:06.600Z</time>
      </trkpt>
      <trkpt lat="10.1587064574081" lon="-75.6816916451046">
        <ele>52.3778713</ele>
        <time>2019-09-10T15:37:06.700Z</time>
      </trkpt>
      <trkpt lat="10.1587081584156" lon="-75.6816937423549">
        <ele>52.3778713</ele>
        <time>2019-09-10T15:37:06.800Z</time>
      </trkpt>
      <trkpt lat="10.1587116324729" lon="-75.6816979366814">
        <ele>52.3778713</ele>
        <time>2019-09-10T15:37:07.000Z</time>
      </trkpt>
      <trkpt lat="10.1587133948792" lon="-75.6817000338969">
        <ele>52.3778713</ele>
        <time>2019-09-10T15:37:07.100Z</time>
      </trkpt>
      <trkpt lat="10.158715162223" lon="-75.6817021243237">
        <ele>52.3778713</ele>
        <time>2019-09-10T15:37:07.200Z</time>
      </trkpt>
      <trkpt lat="10.1587186580493" lon="-75.6817063191725">
        <ele>52.3778713</ele>
        <time>2019-09-10T15:37:07.400Z</time>
      </trkpt>
      <trkpt lat="10.1587203891374" lon="-75.6817084212967">
        <ele>52.3778713</ele>
        <time>2019-09-10T15:37:07.500Z</time>
      </trkpt>
      <trkpt lat="10.1587221094777" lon="-75.6817105181989">
        <ele>52.3778713</ele>
        <time>2019-09-10T15:37:07.600Z</time>
      </trkpt>
      <trkpt lat="10.1587238468711" lon="-75.6817126227253">
        <ele>52.3778713</ele>
        <time>2019-09-10T15:37:07.700Z</time>
      </trkpt>
      <trkpt lat="10.158725567472" lon="-75.6817147232829">
        <ele>52.3778713</ele>
        <time>2019-09-10T15:37:07.800Z</time>
      </trkpt>
      <trkpt lat="10.1587289935358" lon="-75.681718944799">
        <ele>52.2778713</ele>
        <time>2019-09-10T15:37:08.000Z</time>
      </trkpt>
      <trkpt lat="10.1587307116615" lon="-75.6817210598739">
        <ele>52.2778713</ele>
        <time>2019-09-10T15:37:08.100Z</time>
      </trkpt>
      <trkpt lat="10.1587324398444" lon="-75.6817231947927">
        <ele>52.2778713</ele>
        <time>2019-09-10T15:37:08.200Z</time>
      </trkpt>
      <trkpt lat="10.1587341818105" lon="-75.6817253344462">
        <ele>52.2778713</ele>
        <time>2019-09-10T15:37:08.300Z</time>
      </trkpt>
      <trkpt lat="10.1587359322966" lon="-75.6817275212026">
        <ele>52.2778713</ele>
        <time>2019-09-10T15:37:08.400Z</time>
      </trkpt>
      <trkpt lat="10.1587376957191" lon="-75.6817296988727">
        <ele>52.2778713</ele>
        <time>2019-09-10T15:37:08.500Z</time>
      </trkpt>
      <trkpt lat="10.1587394906552" lon="-75.6817318804419">
        <ele>52.2778713</ele>
        <time>2019-09-10T15:37:08.600Z</time>
      </trkpt>
      <trkpt lat="10.1587412904636" lon="-75.6817340439428">
        <ele>52.2778713</ele>
        <time>2019-09-10T15:37:08.700Z</time>
      </trkpt>
      <trkpt lat="10.1587430777655" lon="-75.6817361750669">
        <ele>52.2778713</ele>
        <time>2019-09-10T15:37:08.800Z</time>
      </trkpt>
      <trkpt lat="10.1587466679765" lon="-75.6817403890284">
        <ele>52.2778713</ele>
        <time>2019-09-10T15:37:09.000Z</time>
      </trkpt>
      <trkpt lat="10.1587502701207" lon="-75.6817445930332">
        <ele>52.2778713</ele>
        <time>2019-09-10T15:37:09.200Z</time>
      </trkpt>
      <trkpt lat="10.1587520629203" lon="-75.6817467081082">
        <ele>52.2778713</ele>
        <time>2019-09-10T15:37:09.300Z</time>
      </trkpt>
      <trkpt lat="10.1587538429268" lon="-75.6817488418433">
        <ele>52.2778713</ele>
        <time>2019-09-10T15:37:09.400Z</time>
      </trkpt>
      <trkpt lat="10.1587556251741" lon="-75.6817509700778">
        <ele>52.2778713</ele>
        <time>2019-09-10T15:37:09.500Z</time>
      </trkpt>
      <trkpt lat="10.1587574409282" lon="-75.6817530822632">
        <ele>52.2778713</ele>
        <time>2019-09-10T15:37:09.600Z</time>
      </trkpt>
      <trkpt lat="10.1587592627532" lon="-75.6817551840393">
        <ele>52.2778713</ele>
        <time>2019-09-10T15:37:09.700Z</time>
      </trkpt>
      <trkpt lat="10.1587611108938" lon="-75.6817572810111">
        <ele>52.2778713</ele>
        <time>2019-09-10T15:37:09.800Z</time>
      </trkpt>
      <trkpt lat="10.158764751339" lon="-75.6817614734926">
        <ele>52.2778713</ele>
        <time>2019-09-10T15:37:10.000Z</time>
      </trkpt>
      <trkpt lat="10.1587665473434" lon="-75.681763570151">
        <ele>52.2778713</ele>
        <time>2019-09-10T15:37:10.100Z</time>
      </trkpt>
      <trkpt lat="10.1587682954585" lon="-75.6817656380185">
        <ele>52.2778713</ele>
        <time>2019-09-10T15:37:10.200Z</time>
      </trkpt>
      <trkpt lat="10.1587700356007" lon="-75.6817677144502">
        <ele>52.2778713</ele>
        <time>2019-09-10T15:37:10.300Z</time>
      </trkpt>
      <trkpt lat="10.158771743148" lon="-75.6817697968002">
        <ele>52.2778713</ele>
        <time>2019-09-10T15:37:10.400Z</time>
      </trkpt>
      <trkpt lat="10.1587751781487" lon="-75.6817739829803">
        <ele>52.2778713</ele>
        <time>2019-09-10T15:37:10.600Z</time>
      </trkpt>
      <trkpt lat="10.1587769125067" lon="-75.6817760818321">
        <ele>52.2778713</ele>
        <time>2019-09-10T15:37:10.700Z</time>
      </trkpt>
      <trkpt lat="10.1587803817959" lon="-75.6817802188552">
        <ele>52.2778713</ele>
        <time>2019-09-10T15:37:10.900Z</time>
      </trkpt>
      <trkpt lat="10.1587820980456" lon="-75.6817822947995">
        <ele>52.2778713</ele>
        <time>2019-09-10T15:37:11.000Z</time>
      </trkpt>
      <trkpt lat="10.1587838073646" lon="-75.6817843862011">
        <ele>52.2778713</ele>
        <time>2019-09-10T15:37:11.100Z</time>
      </trkpt>
      <trkpt lat="10.1587855337758" lon="-75.6817865127646">
        <ele>52.2778713</ele>
        <time>2019-09-10T15:37:11.200Z</time>
      </trkpt>
      <trkpt lat="10.1587872659973" lon="-75.6817886436449">
        <ele>52.2778713</ele>
        <time>2019-09-10T15:37:11.300Z</time>
      </trkpt>
      <trkpt lat="10.1587906180385" lon="-75.6817927730438">
        <ele>52.2778713</ele>
        <time>2019-09-10T15:37:11.500Z</time>
      </trkpt>
      <trkpt lat="10.1587939660933" lon="-75.6817968633121">
        <ele>52.2778713</ele>
        <time>2019-09-10T15:37:11.700Z</time>
      </trkpt>
      <trkpt lat="10.1587956498262" lon="-75.6817989262708">
        <ele>52.2778713</ele>
        <time>2019-09-10T15:37:11.800Z</time>
      </trkpt>
      <trkpt lat="10.1587990831594" lon="-75.6818030688293">
        <ele>52.2778713</ele>
        <time>2019-09-10T15:37:12.000Z</time>
      </trkpt>
      <trkpt lat="10.1588008350003" lon="-75.6818051384723">
        <ele>52.2778713</ele>
        <time>2019-09-10T15:37:12.100Z</time>
      </trkpt>
      <trkpt lat="10.1588025948402" lon="-75.6818072122581">
        <ele>52.2778713</ele>
        <time>2019-09-10T15:37:12.200Z</time>
      </trkpt>
      <trkpt lat="10.1588043600735" lon="-75.6818093063752">
        <ele>52.2778713</ele>
        <time>2019-09-10T15:37:12.300Z</time>
      </trkpt>
      <trkpt lat="10.1588079001284" lon="-75.6818135222863">
        <ele>52.2778713</ele>
        <time>2019-09-10T15:37:12.500Z</time>
      </trkpt>
      <trkpt lat="10.1588114104023" lon="-75.6818177969978">
        <ele>52.2778713</ele>
        <time>2019-09-10T15:37:12.700Z</time>
      </trkpt>
      <trkpt lat="10.1588131398098" lon="-75.6818198808448">
        <ele>52.2778713</ele>
        <time>2019-09-10T15:37:12.800Z</time>
      </trkpt>
      <trkpt lat="10.1588148751058" lon="-75.6818219595046">
        <ele>52.2778713</ele>
        <time>2019-09-10T15:37:12.900Z</time>
      </trkpt>
      <trkpt lat="10.1588184273805" lon="-75.6818261131338">
        <ele>52.2778713</ele>
        <time>2019-09-10T15:37:13.100Z</time>
      </trkpt>
      <trkpt lat="10.1588201981114" lon="-75.6818282373648">
        <ele>52.2778713</ele>
        <time>2019-09-10T15:37:13.200Z</time>
      </trkpt>
      <trkpt lat="10.1588219763462" lon="-75.6818303721443">
        <ele>52.2778713</ele>
        <time>2019-09-10T15:37:13.300Z</time>
      </trkpt>
      <trkpt lat="10.1588237953051" lon="-75.6818325373859">
        <ele>52.2778713</ele>
        <time>2019-09-10T15:37:13.400Z</time>
      </trkpt>
      <trkpt lat="10.1588256216116" lon="-75.6818346936455">
        <ele>52.2778713</ele>
        <time>2019-09-10T15:37:13.500Z</time>
      </trkpt>
      <trkpt lat="10.1588274145414" lon="-75.6818368288777">
        <ele>52.2778713</ele>
        <time>2019-09-10T15:37:13.600Z</time>
      </trkpt>
      <trkpt lat="10.1588291990294" lon="-75.681838950985">
        <ele>52.2778713</ele>
        <time>2019-09-10T15:37:13.700Z</time>
      </trkpt>
      <trkpt lat="10.1588309666598" lon="-75.6818410830142">
        <ele>52.2778713</ele>
        <time>2019-09-10T15:37:13.800Z</time>
      </trkpt>
      <trkpt lat="10.1588344934266" lon="-75.6818453167499">
        <ele>52.2778713</ele>
        <time>2019-09-10T15:37:14.000Z</time>
      </trkpt>
      <trkpt lat="10.1588362540742" lon="-75.6818474177601">
        <ele>52.2778713</ele>
        <time>2019-09-10T15:37:14.100Z</time>
      </trkpt>
      <trkpt lat="10.1588396553335" lon="-75.6818516004937">
        <ele>52.2778713</ele>
        <time>2019-09-10T15:37:14.300Z</time>
      </trkpt>
      <trkpt lat="10.1588413753091" lon="-75.6818536879613">
        <ele>52.2778713</ele>
        <time>2019-09-10T15:37:14.400Z</time>
      </trkpt>
      <trkpt lat="10.1588431097192" lon="-75.681855781034">
        <ele>52.2778713</ele>
        <time>2019-09-10T15:37:14.500Z</time>
      </trkpt>
      <trkpt lat="10.1588465843497" lon="-75.6818599109203">
        <ele>52.2778713</ele>
        <time>2019-09-10T15:37:14.700Z</time>
      </trkpt>
      <trkpt lat="10.1588483192548" lon="-75.6818619853676">
        <ele>52.2778713</ele>
        <time>2019-09-10T15:37:14.800Z</time>
      </trkpt>
      <trkpt lat="10.158850063644" lon="-75.6818640712686">
        <ele>52.2778713</ele>
        <time>2019-09-10T15:37:14.900Z</time>
      </trkpt>
      <trkpt lat="10.1588535591186" lon="-75.6818682647944">
        <ele>52.3778713</ele>
        <time>2019-09-10T15:37:15.100Z</time>
      </trkpt>
      <trkpt lat="10.1588553350605" lon="-75.6818703670579">
        <ele>52.3778713</ele>
        <time>2019-09-10T15:37:15.200Z</time>
      </trkpt>
      <trkpt lat="10.1588571157706" lon="-75.6818724660489">
        <ele>52.3778713</ele>
        <time>2019-09-10T15:37:15.300Z</time>
      </trkpt>
      <trkpt lat="10.1588588156837" lon="-75.6818745351697">
        <ele>52.3778713</ele>
        <time>2019-09-10T15:37:15.400Z</time>
      </trkpt>
      <trkpt lat="10.1588605174989" lon="-75.681876612228">
        <ele>52.3778713</ele>
        <time>2019-09-10T15:37:15.500Z</time>
      </trkpt>
      <trkpt lat="10.1588622076674" lon="-75.6818786640116">
        <ele>52.2778713</ele>
        <time>2019-09-10T15:37:15.600Z</time>
      </trkpt>
      <trkpt lat="10.1588639157619" lon="-75.6818807294421">
        <ele>52.2778713</ele>
        <time>2019-09-10T15:37:15.700Z</time>
      </trkpt>
      <trkpt lat="10.1588655845392" lon="-75.6818828107477">
        <ele>52.2778713</ele>
        <time>2019-09-10T15:37:15.800Z</time>
      </trkpt>
      <trkpt lat="10.158867266787" lon="-75.681884912872">
        <ele>52.2778713</ele>
        <time>2019-09-10T15:37:15.900Z</time>
      </trkpt>
      <trkpt lat="10.1588689212861" lon="-75.681887031289">
        <ele>52.2778713</ele>
        <time>2019-09-10T15:37:16.000Z</time>
      </trkpt>
      <trkpt lat="10.1588705955089" lon="-75.6818891676004">
        <ele>52.2778713</ele>
        <time>2019-09-10T15:37:16.100Z</time>
      </trkpt>
      <trkpt lat="10.1588722636087" lon="-75.6818913014051">
        <ele>52.2778713</ele>
        <time>2019-09-10T15:37:16.200Z</time>
      </trkpt>
      <trkpt lat="10.1588739671435" lon="-75.6818934424511">
        <ele>52.2778713</ele>
        <time>2019-09-10T15:37:16.300Z</time>
      </trkpt>
      <trkpt lat="10.1588757068428" lon="-75.6818955626785">
        <ele>52.2778713</ele>
        <time>2019-09-10T15:37:16.400Z</time>
      </trkpt>
      <trkpt lat="10.158877465875" lon="-75.6818976884065">
        <ele>52.2778713</ele>
        <time>2019-09-10T15:37:16.500Z</time>
      </trkpt>
      <trkpt lat="10.1588792024477" lon="-75.6818997550207">
        <ele>52.2778713</ele>
        <time>2019-09-10T15:37:16.600Z</time>
      </trkpt>
      <trkpt lat="10.1588809420949" lon="-75.6819018359782">
        <ele>52.2778713</ele>
        <time>2019-09-10T15:37:16.700Z</time>
      </trkpt>
      <trkpt lat="10.1588826709031" lon="-75.6819039293293">
        <ele>52.2778713</ele>
        <time>2019-09-10T15:37:16.800Z</time>
      </trkpt>
      <trkpt lat="10.1588844078927" lon="-75.6819060461449">
        <ele>52.2778713</ele>
        <time>2019-09-10T15:37:16.900Z</time>
      </trkpt>
      <trkpt lat="10.1588861495201" lon="-75.6819081797408">
        <ele>52.3778713</ele>
        <time>2019-09-10T15:37:17.000Z</time>
      </trkpt>
      <trkpt lat="10.1588879045398" lon="-75.681910326357">
        <ele>52.3778713</ele>
        <time>2019-09-10T15:37:17.100Z</time>
      </trkpt>
      <trkpt lat="10.1588896723525" lon="-75.6819125210858">
        <ele>52.3778713</ele>
        <time>2019-09-10T15:37:17.200Z</time>
      </trkpt>
      <trkpt lat="10.1588914412335" lon="-75.6819147090608">
        <ele>52.3778713</ele>
        <time>2019-09-10T15:37:17.300Z</time>
      </trkpt>
      <trkpt lat="10.1588931828348" lon="-75.681916880534">
        <ele>52.3778713</ele>
        <time>2019-09-10T15:37:17.400Z</time>
      </trkpt>
      <trkpt lat="10.1588949137796" lon="-75.6819190322331">
        <ele>52.3778713</ele>
        <time>2019-09-10T15:37:17.500Z</time>
      </trkpt>
      <trkpt lat="10.1588965951415" lon="-75.6819211005183">
        <ele>52.3778713</ele>
        <time>2019-09-10T15:37:17.600Z</time>
      </trkpt>
      <trkpt lat="10.1588982765555" lon="-75.681923158638">
        <ele>52.3778713</ele>
        <time>2019-09-10T15:37:17.700Z</time>
      </trkpt>
      <trkpt lat="10.1588999492932" lon="-75.6819252248344">
        <ele>52.3778713</ele>
        <time>2019-09-10T15:37:17.800Z</time>
      </trkpt>
      <trkpt lat="10.1589016366738" lon="-75.6819273030068">
        <ele>52.3778713</ele>
        <time>2019-09-10T15:37:17.900Z</time>
      </trkpt>
      <trkpt lat="10.1589033432571" lon="-75.6819293792296">
        <ele>52.3778713</ele>
        <time>2019-09-10T15:37:18.000Z</time>
      </trkpt>
      <trkpt lat="10.1589050560154" lon="-75.6819314591426">
        <ele>52.3778713</ele>
        <time>2019-09-10T15:37:18.100Z</time>
      </trkpt>
      <trkpt lat="10.1589067593418" lon="-75.6819335125276">
        <ele>52.3778713</ele>
        <time>2019-09-10T15:37:18.200Z</time>
      </trkpt>
      <trkpt lat="10.1589084722043" lon="-75.6819355724576">
        <ele>52.3778713</ele>
        <time>2019-09-10T15:37:18.300Z</time>
      </trkpt>
      <trkpt lat="10.1589102056764" lon="-75.6819376782024">
        <ele>52.3778713</ele>
        <time>2019-09-10T15:37:18.400Z</time>
      </trkpt>
      <trkpt lat="10.1589119424315" lon="-75.6819397941129">
        <ele>52.3778713</ele>
        <time>2019-09-10T15:37:18.500Z</time>
      </trkpt>
      <trkpt lat="10.1589136925268" lon="-75.6819419180306">
        <ele>52.3778713</ele>
        <time>2019-09-10T15:37:18.600Z</time>
      </trkpt>
      <trkpt lat="10.1589154418925" lon="-75.6819440342892">
        <ele>52.3778713</ele>
        <time>2019-09-10T15:37:18.700Z</time>
      </trkpt>
      <trkpt lat="10.1589171951144" lon="-75.6819461208168">
        <ele>52.3778713</ele>
        <time>2019-09-10T15:37:18.800Z</time>
      </trkpt>
      <trkpt lat="10.1589189430211" lon="-75.6819482033757">
        <ele>52.3778713</ele>
        <time>2019-09-10T15:37:18.900Z</time>
      </trkpt>
      <trkpt lat="10.1589206913706" lon="-75.681950287745">
        <ele>52.3778713</ele>
        <time>2019-09-10T15:37:19.000Z</time>
      </trkpt>
      <trkpt lat="10.1589224345092" lon="-75.6819523780325">
        <ele>52.3778713</ele>
        <time>2019-09-10T15:37:19.100Z</time>
      </trkpt>
      <trkpt lat="10.1589241501336" lon="-75.6819544084404">
        <ele>52.3778713</ele>
        <time>2019-09-10T15:37:19.200Z</time>
      </trkpt>
      <trkpt lat="10.1589276159053" lon="-75.6819584862453">
        <ele>52.3778713</ele>
        <time>2019-09-10T15:37:19.400Z</time>
      </trkpt>
      <trkpt lat="10.1589293683716" lon="-75.6819605506314">
        <ele>52.3778713</ele>
        <time>2019-09-10T15:37:19.500Z</time>
      </trkpt>
      <trkpt lat="10.1589310614844" lon="-75.6819625682279">
        <ele>52.3778713</ele>
        <time>2019-09-10T15:37:19.600Z</time>
      </trkpt>
      <trkpt lat="10.1589327529817" lon="-75.681964596338">
        <ele>52.3778713</ele>
        <time>2019-09-10T15:37:19.700Z</time>
      </trkpt>
      <trkpt lat="10.1589344175121" lon="-75.6819666470076">
        <ele>52.3778713</ele>
        <time>2019-09-10T15:37:19.800Z</time>
      </trkpt>
      <trkpt lat="10.1589360995514" lon="-75.6819687215593">
        <ele>52.3778713</ele>
        <time>2019-09-10T15:37:19.900Z</time>
      </trkpt>
      <trkpt lat="10.1589377681984" lon="-75.6819707887305">
        <ele>52.3778713</ele>
        <time>2019-09-10T15:37:20.000Z</time>
      </trkpt>
      <trkpt lat="10.1589394562565" lon="-75.6819728629341">
        <ele>52.3778713</ele>
        <time>2019-09-10T15:37:20.100Z</time>
      </trkpt>
      <trkpt lat="10.1589411574724" lon="-75.6819749502277">
        <ele>52.3778713</ele>
        <time>2019-09-10T15:37:20.200Z</time>
      </trkpt>
      <trkpt lat="10.1589428671823" lon="-75.6819770459462">
        <ele>52.3778713</ele>
        <time>2019-09-10T15:37:20.300Z</time>
      </trkpt>
      <trkpt lat="10.1589445850995" lon="-75.6819791555902">
        <ele>52.3778713</ele>
        <time>2019-09-10T15:37:20.400Z</time>
      </trkpt>
      <trkpt lat="10.1589463093742" lon="-75.6819812641898">
        <ele>52.3778713</ele>
        <time>2019-09-10T15:37:20.500Z</time>
      </trkpt>
      <trkpt lat="10.1589479903192" lon="-75.681983340343">
        <ele>52.2778713</ele>
        <time>2019-09-10T15:37:20.600Z</time>
      </trkpt>
      <trkpt lat="10.1589496790026" lon="-75.6819854118311">
        <ele>52.2778713</ele>
        <time>2019-09-10T15:37:20.700Z</time>
      </trkpt>
      <trkpt lat="10.1589514193012" lon="-75.681987521684">
        <ele>52.2778713</ele>
        <time>2019-09-10T15:37:20.800Z</time>
      </trkpt>
      <trkpt lat="10.1589531729399" lon="-75.6819896412151">
        <ele>52.2778713</ele>
        <time>2019-09-10T15:37:20.900Z</time>
      </trkpt>
      <trkpt lat="10.1589549068029" lon="-75.6819917727918">
        <ele>52.2778713</ele>
        <time>2019-09-10T15:37:21.000Z</time>
      </trkpt>
      <trkpt lat="10.1589566431671" lon="-75.6819939019315">
        <ele>52.2778713</ele>
        <time>2019-09-10T15:37:21.100Z</time>
      </trkpt>
      <trkpt lat="10.1589583294534" lon="-75.681996029609">
        <ele>52.2778713</ele>
        <time>2019-09-10T15:37:21.200Z</time>
      </trkpt>
      <trkpt lat="10.1589600294969" lon="-75.6819981563117">
        <ele>52.2778713</ele>
        <time>2019-09-10T15:37:21.300Z</time>
      </trkpt>
      <trkpt lat="10.1589617385032" lon="-75.6820002730578">
        <ele>52.2778713</ele>
        <time>2019-09-10T15:37:21.400Z</time>
      </trkpt>
      <trkpt lat="10.1589634684058" lon="-75.6820023949562">
        <ele>52.2778713</ele>
        <time>2019-09-10T15:37:21.500Z</time>
      </trkpt>
      <trkpt lat="10.1589651921073" lon="-75.6820045385784">
        <ele>52.2778713</ele>
        <time>2019-09-10T15:37:21.600Z</time>
      </trkpt>
      <trkpt lat="10.1589669270645" lon="-75.6820066844984">
        <ele>52.2778713</ele>
        <time>2019-09-10T15:37:21.700Z</time>
      </trkpt>
      <trkpt lat="10.1589686607711" lon="-75.6820088097389">
        <ele>52.2778713</ele>
        <time>2019-09-10T15:37:21.800Z</time>
      </trkpt>
      <trkpt lat="10.1589704005225" lon="-75.6820109278775">
        <ele>52.2778713</ele>
        <time>2019-09-10T15:37:21.900Z</time>
      </trkpt>
      <trkpt lat="10.1589721315194" lon="-75.6820130510989">
        <ele>52.2778713</ele>
        <time>2019-09-10T15:37:22.000Z</time>
      </trkpt>
      <trkpt lat="10.1589738645486" lon="-75.6820151739721">
        <ele>52.2778713</ele>
        <time>2019-09-10T15:37:22.100Z</time>
      </trkpt>
      <trkpt lat="10.1589755892923" lon="-75.6820172758178">
        <ele>52.2778713</ele>
        <time>2019-09-10T15:37:22.200Z</time>
      </trkpt>
      <trkpt lat="10.1589773205497" lon="-75.6820193752962">
        <ele>52.2778713</ele>
        <time>2019-09-10T15:37:22.300Z</time>
      </trkpt>
      <trkpt lat="10.1589790290871" lon="-75.6820214606402">
        <ele>52.2778713</ele>
        <time>2019-09-10T15:37:22.400Z</time>
      </trkpt>
      <trkpt lat="10.1589807524238" lon="-75.682023549396">
        <ele>52.2778713</ele>
        <time>2019-09-10T15:37:22.500Z</time>
      </trkpt>
      <trkpt lat="10.1589824724775" lon="-75.682025628752">
        <ele>52.2778713</ele>
        <time>2019-09-10T15:37:22.600Z</time>
      </trkpt>
      <trkpt lat="10.1589841963874" lon="-75.6820277108931">
        <ele>52.2778713</ele>
        <time>2019-09-10T15:37:22.700Z</time>
      </trkpt>
      <trkpt lat="10.1589859164412" lon="-75.6820297589168">
        <ele>52.2778713</ele>
        <time>2019-09-10T15:37:22.800Z</time>
      </trkpt>
      <trkpt lat="10.1589876405595" lon="-75.6820318110485">
        <ele>52.2778713</ele>
        <time>2019-09-10T15:37:22.900Z</time>
      </trkpt>
      <trkpt lat="10.1589893972988" lon="-75.6820339027286">
        <ele>52.2778713</ele>
        <time>2019-09-10T15:37:23.000Z</time>
      </trkpt>
      <trkpt lat="10.1589911623237" lon="-75.682036006872">
        <ele>52.2778713</ele>
        <time>2019-09-10T15:37:23.100Z</time>
      </trkpt>
      <trkpt lat="10.1589928762805" lon="-75.6820380599785">
        <ele>52.2778713</ele>
        <time>2019-09-10T15:37:23.200Z</time>
      </trkpt>
      <trkpt lat="10.1589945852869" lon="-75.6820401154523">
        <ele>52.2778713</ele>
        <time>2019-09-10T15:37:23.300Z</time>
      </trkpt>
      <trkpt lat="10.1589963122192" lon="-75.6820421866619">
        <ele>52.2778713</ele>
        <time>2019-09-10T15:37:23.400Z</time>
      </trkpt>
      <trkpt lat="10.1589997705131" lon="-75.6820463720413">
        <ele>52.2778713</ele>
        <time>2019-09-10T15:37:23.600Z</time>
      </trkpt>
      <trkpt lat="10.159001495361" lon="-75.6820484770899">
        <ele>52.2778713</ele>
        <time>2019-09-10T15:37:23.700Z</time>
      </trkpt>
      <trkpt lat="10.1590031981663" lon="-75.6820505555408">
        <ele>52.2778713</ele>
        <time>2019-09-10T15:37:23.800Z</time>
      </trkpt>
      <trkpt lat="10.1590065782949" lon="-75.6820546812494">
        <ele>52.2778713</ele>
        <time>2019-09-10T15:37:24.000Z</time>
      </trkpt>
      <trkpt lat="10.1590082653108" lon="-75.6820567381157">
        <ele>52.2778713</ele>
        <time>2019-09-10T15:37:24.100Z</time>
      </trkpt>
      <trkpt lat="10.1590099648331" lon="-75.6820588343913">
        <ele>52.2778713</ele>
        <time>2019-09-10T15:37:24.200Z</time>
      </trkpt>
      <trkpt lat="10.1590116746212" lon="-75.6820609423642">
        <ele>52.3778713</ele>
        <time>2019-09-10T15:37:24.300Z</time>
      </trkpt>
      <trkpt lat="10.1590133441801" lon="-75.6820630253409">
        <ele>52.3778713</ele>
        <time>2019-09-10T15:37:24.400Z</time>
      </trkpt>
      <trkpt lat="10.1590150150418" lon="-75.6820651099886">
        <ele>52.3778713</ele>
        <time>2019-09-10T15:37:24.500Z</time>
      </trkpt>
      <trkpt lat="10.1590167004423" lon="-75.682067203479">
        <ele>52.3778713</ele>
        <time>2019-09-10T15:37:24.600Z</time>
      </trkpt>
      <trkpt lat="10.1590183959" lon="-75.6820693059514">
        <ele>52.3778713</ele>
        <time>2019-09-10T15:37:24.700Z</time>
      </trkpt>
      <trkpt lat="10.1590200935985" lon="-75.6820714102341">
        <ele>52.3778713</ele>
        <time>2019-09-10T15:37:24.800Z</time>
      </trkpt>
      <trkpt lat="10.1590218033865" lon="-75.6820735147256">
        <ele>52.3778713</ele>
        <time>2019-09-10T15:37:24.900Z</time>
      </trkpt>
      <trkpt lat="10.1590235416267" lon="-75.6820756181728">
        <ele>52.3778713</ele>
        <time>2019-09-10T15:37:25.000Z</time>
      </trkpt>
      <trkpt lat="10.1590252818471" lon="-75.6820777237784">
        <ele>52.3778713</ele>
        <time>2019-09-10T15:37:25.100Z</time>
      </trkpt>
      <trkpt lat="10.1590270035683" lon="-75.6820797928296">
        <ele>52.3778713</ele>
        <time>2019-09-10T15:37:25.200Z</time>
      </trkpt>
      <trkpt lat="10.1590287234137" lon="-75.6820818672421">
        <ele>52.3778713</ele>
        <time>2019-09-10T15:37:25.300Z</time>
      </trkpt>
      <trkpt lat="10.1590303636867" lon="-75.6820839101133">
        <ele>52.3778713</ele>
        <time>2019-09-10T15:37:25.400Z</time>
      </trkpt>
      <trkpt lat="10.1590320122973" lon="-75.6820859669796">
        <ele>52.3778713</ele>
        <time>2019-09-10T15:37:25.500Z</time>
      </trkpt>
      <trkpt lat="10.1590336750298" lon="-75.6820880611663">
        <ele>52.3778713</ele>
        <time>2019-09-10T15:37:25.600Z</time>
      </trkpt>
      <trkpt lat="10.1590353677778" lon="-75.6820901742221">
        <ele>52.3778713</ele>
        <time>2019-09-10T15:37:25.700Z</time>
      </trkpt>
      <trkpt lat="10.1590370608906" lon="-75.6820922610282">
        <ele>52.3778713</ele>
        <time>2019-09-10T15:37:25.800Z</time>
      </trkpt>
      <trkpt lat="10.159038769428" lon="-75.6820943481826">
        <ele>52.3778713</ele>
        <time>2019-09-10T15:37:25.900Z</time>
      </trkpt>
      <trkpt lat="10.1590404355476" lon="-75.6820964069985">
        <ele>52.3778713</ele>
        <time>2019-09-10T15:37:26.000Z</time>
      </trkpt>
      <trkpt lat="10.1590421131316" lon="-75.6820984761889">
        <ele>52.3778713</ele>
        <time>2019-09-10T15:37:26.100Z</time>
      </trkpt>
      <trkpt lat="10.1590438111948" lon="-75.6821005480948">
        <ele>52.3778713</ele>
        <time>2019-09-10T15:37:26.200Z</time>
      </trkpt>
      <trkpt lat="10.1590455316133" lon="-75.6821026383127">
        <ele>52.3778713</ele>
        <time>2019-09-10T15:37:26.300Z</time>
      </trkpt>
      <trkpt lat="10.1590472668832" lon="-75.6821047665473">
        <ele>52.3778713</ele>
        <time>2019-09-10T15:37:26.400Z</time>
      </trkpt>
      <trkpt lat="10.1590490116893" lon="-75.6821069034853">
        <ele>52.3778713</ele>
        <time>2019-09-10T15:37:26.500Z</time>
      </trkpt>
      <trkpt lat="10.1590507416961" lon="-75.6821090335301">
        <ele>52.3778713</ele>
        <time>2019-09-10T15:37:26.600Z</time>
      </trkpt>
      <trkpt lat="10.1590524809785" lon="-75.6821111551501">
        <ele>52.3778713</ele>
        <time>2019-09-10T15:37:26.700Z</time>
      </trkpt>
      <trkpt lat="10.1590542555396" lon="-75.6821132970316">
        <ele>52.3778713</ele>
        <time>2019-09-10T15:37:26.800Z</time>
      </trkpt>
      <trkpt lat="10.1590560453168" lon="-75.6821154347355">
        <ele>52.3778713</ele>
        <time>2019-09-10T15:37:26.900Z</time>
      </trkpt>
      <trkpt lat="10.159057804401" lon="-75.6821175541274">
        <ele>52.3778713</ele>
        <time>2019-09-10T15:37:27.000Z</time>
      </trkpt>
      <trkpt lat="10.1590595660908" lon="-75.6821196686453">
        <ele>52.3778713</ele>
        <time>2019-09-10T15:37:27.100Z</time>
      </trkpt>
      <trkpt lat="10.1590613387759" lon="-75.6821217684022">
        <ele>52.3778713</ele>
        <time>2019-09-10T15:37:27.200Z</time>
      </trkpt>
      <trkpt lat="10.1590631233942" lon="-75.6821238685072">
        <ele>52.3778713</ele>
        <time>2019-09-10T15:37:27.300Z</time>
      </trkpt>
      <trkpt lat="10.1590649142657" lon="-75.682125960257">
        <ele>52.3778713</ele>
        <time>2019-09-10T15:37:27.400Z</time>
      </trkpt>
      <trkpt lat="10.1590667076906" lon="-75.6821280581339">
        <ele>52.3778713</ele>
        <time>2019-09-10T15:37:27.500Z</time>
      </trkpt>
      <trkpt lat="10.1590685006465" lon="-75.6821301513458">
        <ele>52.3778713</ele>
        <time>2019-09-10T15:37:27.600Z</time>
      </trkpt>
      <trkpt lat="10.1590720807742" lon="-75.6821343449413">
        <ele>52.3778713</ele>
        <time>2019-09-10T15:37:27.800Z</time>
      </trkpt>
      <trkpt lat="10.1590738671121" lon="-75.6821364436538">
        <ele>52.3778713</ele>
        <time>2019-09-10T15:37:27.900Z</time>
      </trkpt>
      <trkpt lat="10.1590756794009" lon="-75.6821385406256">
        <ele>52.3778713</ele>
        <time>2019-09-10T15:37:28.000Z</time>
      </trkpt>
      <trkpt lat="10.1590774921066" lon="-75.6821406448386">
        <ele>52.3778713</ele>
        <time>2019-09-10T15:37:28.100Z</time>
      </trkpt>
      <trkpt lat="10.1590792920974" lon="-75.6821427733517">
        <ele>52.3778713</ele>
        <time>2019-09-10T15:37:28.200Z</time>
      </trkpt>
      <trkpt lat="10.1590810425314" lon="-75.6821448336994">
        <ele>52.3778713</ele>
        <time>2019-09-10T15:37:28.300Z</time>
      </trkpt>
      <trkpt lat="10.1590827408031" lon="-75.6821466926844">
        <ele>52.3778713</ele>
        <time>2019-09-10T15:37:28.400Z</time>
      </trkpt>
      <trkpt lat="10.1590844348538" lon="-75.6821483599848">
        <ele>52.3778713</ele>
        <time>2019-09-10T15:37:28.500Z</time>
      </trkpt>
      <trkpt lat="10.1590861323438" lon="-75.6821497386095">
        <ele>52.3778713</ele>
        <time>2019-09-10T15:37:28.600Z</time>
      </trkpt>
      <trkpt lat="10.1590878442684" lon="-75.6821508755572">
        <ele>52.2778713</ele>
        <time>2019-09-10T15:37:28.700Z</time>
      </trkpt>
      <trkpt lat="10.1590895802157" lon="-75.6821516418776">
        <ele>52.2778713</ele>
        <time>2019-09-10T15:37:28.800Z</time>
      </trkpt>
      <trkpt lat="10.159091328878" lon="-75.6821521427779">
        <ele>52.2778713</ele>
        <time>2019-09-10T15:37:28.900Z</time>
      </trkpt>
      <trkpt lat="10.1590931645122" lon="-75.682152266506">
        <ele>52.3778713</ele>
        <time>2019-09-10T15:37:29.000Z</time>
      </trkpt>
      <trkpt lat="10.1590950165611" lon="-75.6821521227948">
        <ele>52.3778713</ele>
        <time>2019-09-10T15:37:29.100Z</time>
      </trkpt>
      <trkpt lat="10.1590969787188" lon="-75.6821516248885">
        <ele>52.3778713</ele>
        <time>2019-09-10T15:37:29.200Z</time>
      </trkpt>
      <trkpt lat="10.159098931132" lon="-75.6821508404649">
        <ele>52.3778713</ele>
        <time>2019-09-10T15:37:29.300Z</time>
      </trkpt>
      <trkpt lat="10.1591009755718" lon="-75.6821496699568">
        <ele>52.3778713</ele>
        <time>2019-09-10T15:37:29.400Z</time>
      </trkpt>
      <trkpt lat="10.1591030040137" lon="-75.6821482175269">
        <ele>52.3778713</ele>
        <time>2019-09-10T15:37:29.500Z</time>
      </trkpt>
      <trkpt lat="10.1591051436589" lon="-75.6821464661861">
        <ele>52.3778713</ele>
        <time>2019-09-10T15:37:29.600Z</time>
      </trkpt>
      <trkpt lat="10.1591072396878" lon="-75.682144513204">
        <ele>52.3778713</ele>
        <time>2019-09-10T15:37:29.700Z</time>
      </trkpt>
      <trkpt lat="10.1591094165396" lon="-75.6821424378167">
        <ele>52.3778713</ele>
        <time>2019-09-10T15:37:29.800Z</time>
      </trkpt>
      <trkpt lat="10.1591136968199" lon="-75.6821380848439">
        <ele>52.3778713</ele>
        <time>2019-09-10T15:37:30.000Z</time>
      </trkpt>
      <trkpt lat="10.1591157902954" lon="-75.6821358501489">
        <ele>52.3778713</ele>
        <time>2019-09-10T15:37:30.100Z</time>
      </trkpt>
      <trkpt lat="10.1591179447399" lon="-75.6821337208699">
        <ele>52.3778713</ele>
        <time>2019-09-10T15:37:30.200Z</time>
      </trkpt>
      <trkpt lat="10.1591200438954" lon="-75.6821315332431">
        <ele>52.3778713</ele>
        <time>2019-09-10T15:37:30.300Z</time>
      </trkpt>
      <trkpt lat="10.1591222081886" lon="-75.6821294395438">
        <ele>52.3778713</ele>
        <time>2019-09-10T15:37:30.400Z</time>
      </trkpt>
      <trkpt lat="10.1591243150565" lon="-75.6821272849204">
        <ele>52.3778713</ele>
        <time>2019-09-10T15:37:30.500Z</time>
      </trkpt>
      <trkpt lat="10.1591264205694" lon="-75.6821251857205">
        <ele>52.3778713</ele>
        <time>2019-09-10T15:37:30.600Z</time>
      </trkpt>
      <trkpt lat="10.1591284720441" lon="-75.6821230357622">
        <ele>52.3778713</ele>
        <time>2019-09-10T15:37:30.700Z</time>
      </trkpt>
      <trkpt lat="10.1591304973594" lon="-75.6821209351001">
        <ele>52.3778713</ele>
        <time>2019-09-10T15:37:30.800Z</time>
      </trkpt>
      <trkpt lat="10.1591324959943" lon="-75.6821187965607">
        <ele>52.3778713</ele>
        <time>2019-09-10T15:37:30.900Z</time>
      </trkpt>
      <trkpt lat="10.1591344566409" lon="-75.6821167497903">
        <ele>52.3778713</ele>
        <time>2019-09-10T15:37:31.000Z</time>
      </trkpt>
      <trkpt lat="10.1591364096794" lon="-75.6821146774667">
        <ele>52.3778713</ele>
        <time>2019-09-10T15:37:31.100Z</time>
      </trkpt>
      <trkpt lat="10.1591383354121" lon="-75.6821126168404">
        <ele>52.3778713</ele>
        <time>2019-09-10T15:37:31.200Z</time>
      </trkpt>
      <trkpt lat="10.1591402641151" lon="-75.6821105267618">
        <ele>52.3778713</ele>
        <time>2019-09-10T15:37:31.300Z</time>
      </trkpt>
      <trkpt lat="10.1591421398742" lon="-75.6821084290937">
        <ele>52.3778713</ele>
        <time>2019-09-10T15:37:31.400Z</time>
      </trkpt>
      <trkpt lat="10.1591440254299" lon="-75.6821063216778">
        <ele>52.3778713</ele>
        <time>2019-09-10T15:37:31.500Z</time>
      </trkpt>
      <trkpt lat="10.159145907807" lon="-75.6821042160722">
        <ele>52.3778713</ele>
        <time>2019-09-10T15:37:31.600Z</time>
      </trkpt>
      <trkpt lat="10.1591478134252" lon="-75.6821021184041">
        <ele>52.3778713</ele>
        <time>2019-09-10T15:37:31.700Z</time>
      </trkpt>
      <trkpt lat="10.1591496981993" lon="-75.6820999789595">
        <ele>52.3778713</ele>
        <time>2019-09-10T15:37:31.800Z</time>
      </trkpt>
      <trkpt lat="10.1591516042865" lon="-75.6820978574092">
        <ele>52.3778713</ele>
        <time>2019-09-10T15:37:31.900Z</time>
      </trkpt>
      <trkpt lat="10.1591534607126" lon="-75.6820957541709">
        <ele>52.3778713</ele>
        <time>2019-09-10T15:37:32.000Z</time>
      </trkpt>
      <trkpt lat="10.1591553426728" lon="-75.6820936859553">
        <ele>52.3778713</ele>
        <time>2019-09-10T15:37:32.100Z</time>
      </trkpt>
      <trkpt lat="10.1591571793492" lon="-75.6820916598643">
        <ele>52.3778713</ele>
        <time>2019-09-10T15:37:32.200Z</time>
      </trkpt>
      <trkpt lat="10.1591608935042" lon="-75.6820877102436">
        <ele>52.3778713</ele>
        <time>2019-09-10T15:37:32.400Z</time>
      </trkpt>
      <trkpt lat="10.1591627728068" lon="-75.682085771953">
        <ele>52.3778713</ele>
        <time>2019-09-10T15:37:32.500Z</time>
      </trkpt>
      <trkpt lat="10.1591646387691" lon="-75.6820838466826">
        <ele>52.3778713</ele>
        <time>2019-09-10T15:37:32.600Z</time>
      </trkpt>
      <trkpt lat="10.1591665499631" lon="-75.6820819251025">
        <ele>52.3778713</ele>
        <time>2019-09-10T15:37:32.700Z</time>
      </trkpt>
      <trkpt lat="10.1591684700679" lon="-75.6820799884829">
        <ele>52.3778713</ele>
        <time>2019-09-10T15:37:32.800Z</time>
      </trkpt>
      <trkpt lat="10.1591704296723" lon="-75.6820780609845">
        <ele>52.3778713</ele>
        <time>2019-09-10T15:37:32.900Z</time>
      </trkpt>
      <trkpt lat="10.1591723537375" lon="-75.6820761679516">
        <ele>52.3778713</ele>
        <time>2019-09-10T15:37:33.000Z</time>
      </trkpt>
      <trkpt lat="10.1591743087562" lon="-75.6820742900976">
        <ele>52.3778713</ele>
        <time>2019-09-10T15:37:33.100Z</time>
      </trkpt>
      <trkpt lat="10.1591762548119" lon="-75.6820724288846">
        <ele>52.3778713</ele>
        <time>2019-09-10T15:37:33.200Z</time>
      </trkpt>
      <trkpt lat="10.1591781984184" lon="-75.6820706063844">
        <ele>52.3778713</ele>
        <time>2019-09-10T15:37:33.300Z</time>
      </trkpt>
      <trkpt lat="10.1591799742822" lon="-75.6820688010823">
        <ele>52.3778713</ele>
        <time>2019-09-10T15:37:33.400Z</time>
      </trkpt>
      <trkpt lat="10.1591816274785" lon="-75.6820669977993">
        <ele>52.3778713</ele>
        <time>2019-09-10T15:37:33.500Z</time>
      </trkpt>
      <trkpt lat="10.1591829970911" lon="-75.6820651745333">
        <ele>52.3778713</ele>
        <time>2019-09-10T15:37:33.600Z</time>
      </trkpt>
      <trkpt lat="10.159184188122" lon="-75.6820633356707">
        <ele>52.3778713</ele>
        <time>2019-09-10T15:37:33.700Z</time>
      </trkpt>
      <trkpt lat="10.1591850218854" lon="-75.6820614474422">
        <ele>52.3778713</ele>
        <time>2019-09-10T15:37:33.800Z</time>
      </trkpt>
      <trkpt lat="10.1591856452277" lon="-75.6820595441741">
        <ele>52.3778713</ele>
        <time>2019-09-10T15:37:33.900Z</time>
      </trkpt>
      <trkpt lat="10.1591858987438" lon="-75.6820575494851">
        <ele>52.3778713</ele>
        <time>2019-09-10T15:37:34.000Z</time>
      </trkpt>
      <trkpt lat="10.1591859199006" lon="-75.6820555518718">
        <ele>52.3778713</ele>
        <time>2019-09-10T15:37:34.100Z</time>
      </trkpt>
      <trkpt lat="10.1591855442381" lon="-75.6820534345688">
        <ele>52.3778713</ele>
        <time>2019-09-10T15:37:34.200Z</time>
      </trkpt>
      <trkpt lat="10.1591849199057" lon="-75.6820513348815">
        <ele>52.3778713</ele>
        <time>2019-09-10T15:37:34.300Z</time>
      </trkpt>
      <trkpt lat="10.159183891146" lon="-75.6820491354876">
        <ele>52.3778713</ele>
        <time>2019-09-10T15:37:34.400Z</time>
      </trkpt>
      <trkpt lat="10.1591826049618" lon="-75.6820469844849">
        <ele>52.3778713</ele>
        <time>2019-09-10T15:37:34.500Z</time>
      </trkpt>
      <trkpt lat="10.1591809892848" lon="-75.6820447308512">
        <ele>52.3778713</ele>
        <time>2019-09-10T15:37:34.600Z</time>
      </trkpt>
      <trkpt lat="10.1591792071157" lon="-75.6820425613275">
        <ele>52.3778713</ele>
        <time>2019-09-10T15:37:34.700Z</time>
      </trkpt>
      <trkpt lat="10.1591772475634" lon="-75.6820403241955">
        <ele>52.3778713</ele>
        <time>2019-09-10T15:37:34.800Z</time>
      </trkpt>
      <trkpt lat="10.1591752163075" lon="-75.6820381715217">
        <ele>52.3778713</ele>
        <time>2019-09-10T15:37:34.900Z</time>
      </trkpt>
      <trkpt lat="10.1591731538376" lon="-75.682035944625">
        <ele>52.3778713</ele>
        <time>2019-09-10T15:37:35.000Z</time>
      </trkpt>
      <trkpt lat="10.1591710608311" lon="-75.6820337983569">
        <ele>52.4778713</ele>
        <time>2019-09-10T15:37:35.100Z</time>
      </trkpt>
      <trkpt lat="10.1591690166519" lon="-75.6820315702069">
        <ele>52.4778713</ele>
        <time>2019-09-10T15:37:35.200Z</time>
      </trkpt>
      <trkpt lat="10.1591669437078" lon="-75.6820294223374">
        <ele>52.4778713</ele>
        <time>2019-09-10T15:37:35.300Z</time>
      </trkpt>
      <trkpt lat="10.1591649202684" lon="-75.6820272204369">
        <ele>52.4778713</ele>
        <time>2019-09-10T15:37:35.400Z</time>
      </trkpt>
      <trkpt lat="10.1591628647292" lon="-75.6820250979118">
        <ele>52.4778713</ele>
        <time>2019-09-10T15:37:35.500Z</time>
      </trkpt>
      <trkpt lat="10.1591608587467" lon="-75.6820230201572">
        <ele>52.4778713</ele>
        <time>2019-09-10T15:37:35.600Z</time>
      </trkpt>
      <trkpt lat="10.1591588333272" lon="-75.6820210039534">
        <ele>52.4778713</ele>
        <time>2019-09-10T15:37:35.700Z</time>
      </trkpt>
      <trkpt lat="10.1591568000911" lon="-75.6820189427005">
        <ele>52.4778713</ele>
        <time>2019-09-10T15:37:35.800Z</time>
      </trkpt>
      <trkpt lat="10.1591547487727" lon="-75.6820169236419">
        <ele>52.4778713</ele>
        <time>2019-09-10T15:37:35.900Z</time>
      </trkpt>
      <trkpt lat="10.1591526755681" lon="-75.6820149097357">
        <ele>52.4778713</ele>
        <time>2019-09-10T15:37:36.000Z</time>
      </trkpt>
      <trkpt lat="10.1591506102842" lon="-75.6820129379542">
        <ele>52.4778713</ele>
        <time>2019-09-10T15:37:36.100Z</time>
      </trkpt>
      <trkpt lat="10.1591485875223" lon="-75.6820110541122">
        <ele>52.4778713</ele>
        <time>2019-09-10T15:37:36.200Z</time>
      </trkpt>
      <trkpt lat="10.159144577277" lon="-75.682007366848">
        <ele>52.4778713</ele>
        <time>2019-09-10T15:37:36.400Z</time>
      </trkpt>
      <trkpt lat="10.1591405886575" lon="-75.6820037300638">
        <ele>52.4778713</ele>
        <time>2019-09-10T15:37:36.600Z</time>
      </trkpt>
      <trkpt lat="10.1591386144102" lon="-75.682001891967">
        <ele>52.4778713</ele>
        <time>2019-09-10T15:37:36.700Z</time>
      </trkpt>
      <trkpt lat="10.1591366527214" lon="-75.6820001233586">
        <ele>52.4778713</ele>
        <time>2019-09-10T15:37:36.800Z</time>
      </trkpt>
      <trkpt lat="10.1591347128147" lon="-75.6819983209808">
        <ele>52.4778713</ele>
        <time>2019-09-10T15:37:36.900Z</time>
      </trkpt>
      <trkpt lat="10.1591327673322" lon="-75.6819965465933">
        <ele>52.4778713</ele>
        <time>2019-09-10T15:37:37.000Z</time>
      </trkpt>
      <trkpt lat="10.1591308396193" lon="-75.6819947227006">
        <ele>52.4778713</ele>
        <time>2019-09-10T15:37:37.100Z</time>
      </trkpt>
      <trkpt lat="10.1591288940846" lon="-75.6819929254752">
        <ele>52.4778713</ele>
        <time>2019-09-10T15:37:37.200Z</time>
      </trkpt>
      <trkpt lat="10.1591269764811" lon="-75.6819910795802">
        <ele>52.4778713</ele>
        <time>2019-09-10T15:37:37.300Z</time>
      </trkpt>
      <trkpt lat="10.1591250900916" lon="-75.6819892924509">
        <ele>52.4778713</ele>
        <time>2019-09-10T15:37:37.400Z</time>
      </trkpt>
      <trkpt lat="10.1591232289755" lon="-75.6819874576963">
        <ele>52.4778713</ele>
        <time>2019-09-10T15:37:37.500Z</time>
      </trkpt>
      <trkpt lat="10.1591212816691" lon="-75.6819855737847">
        <ele>52.4778713</ele>
        <time>2019-09-10T15:37:37.600Z</time>
      </trkpt>
      <trkpt lat="10.1591193616164" lon="-75.6819836311771">
        <ele>52.4778713</ele>
        <time>2019-09-10T15:37:37.700Z</time>
      </trkpt>
      <trkpt lat="10.1591174425538" lon="-75.6819817169079">
        <ele>52.4778713</ele>
        <time>2019-09-10T15:37:37.800Z</time>
      </trkpt>
      <trkpt lat="10.159115559812" lon="-75.6819797650398">
        <ele>52.4778713</ele>
        <time>2019-09-10T15:37:37.900Z</time>
      </trkpt>
      <trkpt lat="10.1591136713902" lon="-75.6819778320408">
        <ele>52.4778713</ele>
        <time>2019-09-10T15:37:38.000Z</time>
      </trkpt>
      <trkpt lat="10.1591118175174" lon="-75.6819758604682">
        <ele>52.4778713</ele>
        <time>2019-09-10T15:37:38.100Z</time>
      </trkpt>
      <trkpt lat="10.159109982717" lon="-75.6819738962064">
        <ele>52.4778713</ele>
        <time>2019-09-10T15:37:38.200Z</time>
      </trkpt>
      <trkpt lat="10.1591081735027" lon="-75.6819718965739">
        <ele>52.4778713</ele>
        <time>2019-09-10T15:37:38.300Z</time>
      </trkpt>
      <trkpt lat="10.1591064309373" lon="-75.6819699533396">
        <ele>52.4778713</ele>
        <time>2019-09-10T15:37:38.400Z</time>
      </trkpt>
      <trkpt lat="10.1591047019727" lon="-75.6819679720191">
        <ele>52.4778713</ele>
        <time>2019-09-10T15:37:38.500Z</time>
      </trkpt>
      <trkpt lat="10.1590994120571" lon="-75.6819619001519">
        <ele>52.4778713</ele>
        <time>2019-09-10T15:37:38.800Z</time>
      </trkpt>
      <trkpt lat="10.1590976986213" lon="-75.6819598730165">
        <ele>52.4778713</ele>
        <time>2019-09-10T15:37:38.900Z</time>
      </trkpt>
      <trkpt lat="10.1590941768051" lon="-75.6819557840016">
        <ele>52.4778713</ele>
        <time>2019-09-10T15:37:39.100Z</time>
      </trkpt>
      <trkpt lat="10.1590924539374" lon="-75.6819537638289">
        <ele>52.4778713</ele>
        <time>2019-09-10T15:37:39.200Z</time>
      </trkpt>
      <trkpt lat="10.1590890287855" lon="-75.6819496863025">
        <ele>52.4778713</ele>
        <time>2019-09-10T15:37:39.400Z</time>
      </trkpt>
      <trkpt lat="10.15908731832" lon="-75.6819476258852">
        <ele>52.4778713</ele>
        <time>2019-09-10T15:37:39.500Z</time>
      </trkpt>
      <trkpt lat="10.1590856314605" lon="-75.6819455844761">
        <ele>52.4778713</ele>
        <time>2019-09-10T15:37:39.600Z</time>
      </trkpt>
      <trkpt lat="10.1590839489261" lon="-75.6819435145894">
        <ele>52.4778713</ele>
        <time>2019-09-10T15:37:39.700Z</time>
      </trkpt>
      <trkpt lat="10.1590822163138" lon="-75.6819414670532">
        <ele>52.4778713</ele>
        <time>2019-09-10T15:37:39.800Z</time>
      </trkpt>
      <trkpt lat="10.1590787939238" lon="-75.6819373748354">
        <ele>52.4778713</ele>
        <time>2019-09-10T15:37:40.000Z</time>
      </trkpt>
      <trkpt lat="10.1590771078459" lon="-75.6819353342619">
        <ele>52.4778713</ele>
        <time>2019-09-10T15:37:40.100Z</time>
      </trkpt>
      <trkpt lat="10.1590753950876" lon="-75.6819333229319">
        <ele>52.4778713</ele>
        <time>2019-09-10T15:37:40.200Z</time>
      </trkpt>
      <trkpt lat="10.1590736824856" lon="-75.6819312762312">
        <ele>52.4778713</ele>
        <time>2019-09-10T15:37:40.300Z</time>
      </trkpt>
      <trkpt lat="10.1590702720288" lon="-75.6819271427242">
        <ele>52.4778713</ele>
        <time>2019-09-10T15:37:40.500Z</time>
      </trkpt>
      <trkpt lat="10.1590685715164" lon="-75.6819250830032">
        <ele>52.4778713</ele>
        <time>2019-09-10T15:37:40.600Z</time>
      </trkpt>
      <trkpt lat="10.1590668726194" lon="-75.6819230067107">
        <ele>52.4778713</ele>
        <time>2019-09-10T15:37:40.700Z</time>
      </trkpt>
      <trkpt lat="10.1590651208827" lon="-75.681920895326">
        <ele>52.4778713</ele>
        <time>2019-09-10T15:37:40.800Z</time>
      </trkpt>
      <trkpt lat="10.1590633733669" lon="-75.6819187653508">
        <ele>52.4778713</ele>
        <time>2019-09-10T15:37:40.900Z</time>
      </trkpt>
      <trkpt lat="10.1590616321043" lon="-75.6819166718604">
        <ele>52.4778713</ele>
        <time>2019-09-10T15:37:41.000Z</time>
      </trkpt>
      <trkpt lat="10.1590581342065" lon="-75.6819124117707">
        <ele>52.4778713</ele>
        <time>2019-09-10T15:37:41.200Z</time>
      </trkpt>
      <trkpt lat="10.1590546407382" lon="-75.6819080950738">
        <ele>52.4778713</ele>
        <time>2019-09-10T15:37:41.400Z</time>
      </trkpt>
      <trkpt lat="10.1590529184437" lon="-75.6819059472739">
        <ele>52.4778713</ele>
        <time>2019-09-10T15:37:41.500Z</time>
      </trkpt>
      <trkpt lat="10.1590512169412" lon="-75.6819038259325">
        <ele>52.4778713</ele>
        <time>2019-09-10T15:37:41.600Z</time>
      </trkpt>
      <trkpt lat="10.1590495172626" lon="-75.6819016981853">
        <ele>52.4778713</ele>
        <time>2019-09-10T15:37:41.700Z</time>
      </trkpt>
      <trkpt lat="10.1590478096632" lon="-75.6818995643109">
        <ele>52.4778713</ele>
        <time>2019-09-10T15:37:41.800Z</time>
      </trkpt>
      <trkpt lat="10.1590460985203" lon="-75.6818974204102">
        <ele>52.4778713</ele>
        <time>2019-09-10T15:37:41.900Z</time>
      </trkpt>
      <trkpt lat="10.159044429274" lon="-75.6818953096521">
        <ele>52.4778713</ele>
        <time>2019-09-10T15:37:42.000Z</time>
      </trkpt>
      <trkpt lat="10.1590427543998" lon="-75.6818931874055">
        <ele>52.4778713</ele>
        <time>2019-09-10T15:37:42.100Z</time>
      </trkpt>
      <trkpt lat="10.1590410849451" lon="-75.6818910910604">
        <ele>52.4778713</ele>
        <time>2019-09-10T15:37:42.200Z</time>
      </trkpt>
      <trkpt lat="10.1590394010558" lon="-75.6818889788402">
        <ele>52.3778713</ele>
        <time>2019-09-10T15:37:42.300Z</time>
      </trkpt>
      <trkpt lat="10.1590376902777" lon="-75.6818868934962">
        <ele>52.3778713</ele>
        <time>2019-09-10T15:37:42.400Z</time>
      </trkpt>
      <trkpt lat="10.1590342713269" lon="-75.6818826901529">
        <ele>52.3778713</ele>
        <time>2019-09-10T15:37:42.600Z</time>
      </trkpt>
      <trkpt lat="10.1590325684175" lon="-75.6818805701344">
        <ele>52.3778713</ele>
        <time>2019-09-10T15:37:42.700Z</time>
      </trkpt>
      <trkpt lat="10.1590308453934" lon="-75.6818784710737">
        <ele>52.3778713</ele>
        <time>2019-09-10T15:37:42.800Z</time>
      </trkpt>
      <trkpt lat="10.1590291213793" lon="-75.6818763646326">
        <ele>52.3778713</ele>
        <time>2019-09-10T15:37:42.900Z</time>
      </trkpt>
      <trkpt lat="10.1590256343205" lon="-75.6818721074672">
        <ele>52.3778713</ele>
        <time>2019-09-10T15:37:43.100Z</time>
      </trkpt>
      <trkpt lat="10.1590238761221" lon="-75.6818699585533">
        <ele>52.3778713</ele>
        <time>2019-09-10T15:37:43.200Z</time>
      </trkpt>
      <trkpt lat="10.1590221263134" lon="-75.6818678092912">
        <ele>52.3778713</ele>
        <time>2019-09-10T15:37:43.300Z</time>
      </trkpt>
      <trkpt lat="10.1590203681671" lon="-75.6818656837722">
        <ele>52.4778713</ele>
        <time>2019-09-10T15:37:43.400Z</time>
      </trkpt>
      <trkpt lat="10.159018621902" lon="-75.6818635569302">
        <ele>52.4778713</ele>
        <time>2019-09-10T15:37:43.500Z</time>
      </trkpt>
      <trkpt lat="10.159015133801" lon="-75.6818592760218">
        <ele>52.4778713</ele>
        <time>2019-09-10T15:37:43.700Z</time>
      </trkpt>
      <trkpt lat="10.1590133964988" lon="-75.6818571215029">
        <ele>52.4778713</ele>
        <time>2019-09-10T15:37:43.800Z</time>
      </trkpt>
      <trkpt lat="10.1590116661272" lon="-75.6818549687594">
        <ele>52.3778713</ele>
        <time>2019-09-10T15:37:43.900Z</time>
      </trkpt>
      <trkpt lat="10.1590099608727" lon="-75.6818528514216">
        <ele>52.3778713</ele>
        <time>2019-09-10T15:37:44.000Z</time>
      </trkpt>
      <trkpt lat="10.1590082591618" lon="-75.6818507352674">
        <ele>52.3778713</ele>
        <time>2019-09-10T15:37:44.100Z</time>
      </trkpt>
      <trkpt lat="10.1590065791287" lon="-75.6818486493664">
        <ele>52.3778713</ele>
        <time>2019-09-10T15:37:44.200Z</time>
      </trkpt>
      <trkpt lat="10.1590048933114" lon="-75.6818465546575">
        <ele>52.3778713</ele>
        <time>2019-09-10T15:37:44.300Z</time>
      </trkpt>
      <trkpt lat="10.1590032195836" lon="-75.6818444809065">
        <ele>52.3778713</ele>
        <time>2019-09-10T15:37:44.400Z</time>
      </trkpt>
      <trkpt lat="10.1589998293456" lon="-75.6818403233084">
        <ele>52.3778713</ele>
        <time>2019-09-10T15:37:44.600Z</time>
      </trkpt>
      <trkpt lat="10.158998114555" lon="-75.6818382375815">
        <ele>52.3778713</ele>
        <time>2019-09-10T15:37:44.700Z</time>
      </trkpt>
      <trkpt lat="10.1589964057049" lon="-75.6818361558233">
        <ele>52.3778713</ele>
        <time>2019-09-10T15:37:44.800Z</time>
      </trkpt>
      <trkpt lat="10.1589946951352" lon="-75.6818340668239">
        <ele>52.3778713</ele>
        <time>2019-09-10T15:37:44.900Z</time>
      </trkpt>
      <trkpt lat="10.1589929950397" lon="-75.6818319811317">
        <ele>52.3778713</ele>
        <time>2019-09-10T15:37:45.000Z</time>
      </trkpt>
      <trkpt lat="10.1589895934938" lon="-75.6818277956479">
        <ele>52.3778713</ele>
        <time>2019-09-10T15:37:45.200Z</time>
      </trkpt>
      <trkpt lat="10.1589878936588" lon="-75.6818256929318">
        <ele>52.3778713</ele>
        <time>2019-09-10T15:37:45.300Z</time>
      </trkpt>
      <trkpt lat="10.1589861779823" lon="-75.681823588858">
        <ele>52.3778713</ele>
        <time>2019-09-10T15:37:45.400Z</time>
      </trkpt>
      <trkpt lat="10.1589844570427" lon="-75.6818214806762">
        <ele>52.3778713</ele>
        <time>2019-09-10T15:37:45.500Z</time>
      </trkpt>
      <trkpt lat="10.158982719063" lon="-75.6818193753491">
        <ele>52.3778713</ele>
        <time>2019-09-10T15:37:45.600Z</time>
      </trkpt>
      <trkpt lat="10.1589809807707" lon="-75.681817268699">
        <ele>52.3778713</ele>
        <time>2019-09-10T15:37:45.700Z</time>
      </trkpt>
      <trkpt lat="10.1589792611339" lon="-75.6818151703695">
        <ele>52.3778713</ele>
        <time>2019-09-10T15:37:45.800Z</time>
      </trkpt>
      <trkpt lat="10.1589758163886" lon="-75.6818109746852">
        <ele>52.3778713</ele>
        <time>2019-09-10T15:37:46.000Z</time>
      </trkpt>
      <trkpt lat="10.1589740862254" lon="-75.6818088749283">
        <ele>52.3778713</ele>
        <time>2019-09-10T15:37:46.100Z</time>
      </trkpt>
      <trkpt lat="10.1589723777402" lon="-75.6818068076875">
        <ele>52.3778713</ele>
        <time>2019-09-10T15:37:46.200Z</time>
      </trkpt>
      <trkpt lat="10.1589706662846" lon="-75.6818047316387">
        <ele>52.3778713</ele>
        <time>2019-09-10T15:37:46.300Z</time>
      </trkpt>
      <trkpt lat="10.1589689481589" lon="-75.6818026179564">
        <ele>52.3778713</ele>
        <time>2019-09-10T15:37:46.400Z</time>
      </trkpt>
      <trkpt lat="10.1589672238843" lon="-75.681800494352">
        <ele>52.3778713</ele>
        <time>2019-09-10T15:37:46.500Z</time>
      </trkpt>
      <trkpt lat="10.1589655540648" lon="-75.6817984067799">
        <ele>52.3778713</ele>
        <time>2019-09-10T15:37:46.600Z</time>
      </trkpt>
      <trkpt lat="10.1589638805454" lon="-75.6817963170146">
        <ele>52.3778713</ele>
        <time>2019-09-10T15:37:46.700Z</time>
      </trkpt>
      <trkpt lat="10.1589622267238" lon="-75.6817942327498">
        <ele>52.3778713</ele>
        <time>2019-09-10T15:37:46.800Z</time>
      </trkpt>
      <trkpt lat="10.1589588930253" lon="-75.6817900521051">
        <ele>52.3778713</ele>
        <time>2019-09-10T15:37:47.000Z</time>
      </trkpt>
      <trkpt lat="10.1589572151809" lon="-75.6817879576747">
        <ele>52.3778713</ele>
        <time>2019-09-10T15:37:47.100Z</time>
      </trkpt>
      <trkpt lat="10.1589555406193" lon="-75.6817858685012">
        <ele>52.3778713</ele>
        <time>2019-09-10T15:37:47.200Z</time>
      </trkpt>
      <trkpt lat="10.1589538558442" lon="-75.6817837776218">
        <ele>52.3778713</ele>
        <time>2019-09-10T15:37:47.300Z</time>
      </trkpt>
      <trkpt lat="10.1589504896811" lon="-75.6817795912676">
        <ele>52.3778713</ele>
        <time>2019-09-10T15:37:47.500Z</time>
      </trkpt>
      <trkpt lat="10.1589488353904" lon="-75.6817774938084">
        <ele>52.3778713</ele>
        <time>2019-09-10T15:37:47.600Z</time>
      </trkpt>
      <trkpt lat="10.158947170313" lon="-75.6817753930071">
        <ele>52.3778713</ele>
        <time>2019-09-10T15:37:47.700Z</time>
      </trkpt>
      <trkpt lat="10.1589454741778" lon="-75.681773291788">
        <ele>52.3778713</ele>
        <time>2019-09-10T15:37:47.800Z</time>
      </trkpt>
      <trkpt lat="10.1589437668911" lon="-75.681771189629">
        <ele>52.3778713</ele>
        <time>2019-09-10T15:37:47.900Z</time>
      </trkpt>
      <trkpt lat="10.1589420979314" lon="-75.6817690909861">
        <ele>52.3778713</ele>
        <time>2019-09-10T15:37:48.000Z</time>
      </trkpt>
      <trkpt lat="10.1589387287459" lon="-75.6817649283749">
        <ele>52.3778713</ele>
        <time>2019-09-10T15:37:48.200Z</time>
      </trkpt>
      <trkpt lat="10.1589370224753" lon="-75.6817628593934">
        <ele>52.3778713</ele>
        <time>2019-09-10T15:37:48.300Z</time>
      </trkpt>
      <trkpt lat="10.1589353200609" lon="-75.6817607865127">
        <ele>52.3778713</ele>
        <time>2019-09-10T15:37:48.400Z</time>
      </trkpt>
      <trkpt lat="10.1589336126699" lon="-75.6817587057641">
        <ele>52.3778713</ele>
        <time>2019-09-10T15:37:48.500Z</time>
      </trkpt>
      <trkpt lat="10.1589318744818" lon="-75.6817566217082">
        <ele>52.3778713</ele>
        <time>2019-09-10T15:37:48.600Z</time>
      </trkpt>
      <trkpt lat="10.1589284028737" lon="-75.6817524362244">
        <ele>52.3778713</ele>
        <time>2019-09-10T15:37:48.800Z</time>
      </trkpt>
      <trkpt lat="10.1589248985404" lon="-75.6817481913831">
        <ele>52.3778713</ele>
        <time>2019-09-10T15:37:49.000Z</time>
      </trkpt>
      <trkpt lat="10.1589231272362" lon="-75.6817460508941">
        <ele>52.3778713</ele>
        <time>2019-09-10T15:37:49.100Z</time>
      </trkpt>
      <trkpt lat="10.1589196500002" lon="-75.6817418454967">
        <ele>52.3778713</ele>
        <time>2019-09-10T15:37:49.300Z</time>
      </trkpt>
      <trkpt lat="10.1589178870859" lon="-75.6817397512056">
        <ele>52.3778713</ele>
        <time>2019-09-10T15:37:49.400Z</time>
      </trkpt>
      <trkpt lat="10.1589161221131" lon="-75.6817376525976">
        <ele>52.3778713</ele>
        <time>2019-09-10T15:37:49.500Z</time>
      </trkpt>
      <trkpt lat="10.1589126610573" lon="-75.6817335256356">
        <ele>52.3778713</ele>
        <time>2019-09-10T15:37:49.700Z</time>
      </trkpt>
      <trkpt lat="10.1589109078094" lon="-75.6817314274105">
        <ele>52.3778713</ele>
        <time>2019-09-10T15:37:49.800Z</time>
      </trkpt>
      <trkpt lat="10.1589073990467" lon="-75.6817271694445">
        <ele>52.3778713</ele>
        <time>2019-09-10T15:37:50.000Z</time>
      </trkpt>
      <trkpt lat="10.1589056514006" lon="-75.681725029791">
        <ele>52.2778713</ele>
        <time>2019-09-10T15:37:50.100Z</time>
      </trkpt>
      <trkpt lat="10.1589039103986" lon="-75.6817229295119">
        <ele>52.2778713</ele>
        <time>2019-09-10T15:37:50.200Z</time>
      </trkpt>
      <trkpt lat="10.1589021690578" lon="-75.6817208353948">
        <ele>52.3778713</ele>
        <time>2019-09-10T15:37:50.300Z</time>
      </trkpt>
      <trkpt lat="10.158900430062" lon="-75.6817187473353">
        <ele>52.3778713</ele>
        <time>2019-09-10T15:37:50.400Z</time>
      </trkpt>
      <trkpt lat="10.1588986873664" lon="-75.6817166521739">
        <ele>52.3778713</ele>
        <time>2019-09-10T15:37:50.500Z</time>
      </trkpt>
      <trkpt lat="10.1588969467812" lon="-75.681714560633">
        <ele>52.3778713</ele>
        <time>2019-09-10T15:37:50.600Z</time>
      </trkpt>
      <trkpt lat="10.1588934701966" lon="-75.6817103721552">
        <ele>52.2778713</ele>
        <time>2019-09-10T15:37:50.800Z</time>
      </trkpt>
      <trkpt lat="10.1588917312008" lon="-75.6817082775855">
        <ele>52.2778713</ele>
        <time>2019-09-10T15:37:50.900Z</time>
      </trkpt>
      <trkpt lat="10.1588899941851" lon="-75.6817062191874">
        <ele>52.2778713</ele>
        <time>2019-09-10T15:37:51.000Z</time>
      </trkpt>
      <trkpt lat="10.1588882537303" lon="-75.6817041564723">
        <ele>52.3778713</ele>
        <time>2019-09-10T15:37:51.100Z</time>
      </trkpt>
      <trkpt lat="10.158886549049" lon="-75.6817020886396">
        <ele>52.2778713</ele>
        <time>2019-09-10T15:37:51.200Z</time>
      </trkpt>
      <trkpt lat="10.1588848389744" lon="-75.6817000070903">
        <ele>52.2778713</ele>
        <time>2019-09-10T15:37:51.300Z</time>
      </trkpt>
      <trkpt lat="10.1588831288998" lon="-75.6816979142266">
        <ele>52.2778713</ele>
        <time>2019-09-10T15:37:51.400Z</time>
      </trkpt>
      <trkpt lat="10.1588814062405" lon="-75.6816958142956">
        <ele>52.2778713</ele>
        <time>2019-09-10T15:37:51.500Z</time>
      </trkpt>
      <trkpt lat="10.1588796808715" lon="-75.6816936719615">
        <ele>52.2778713</ele>
        <time>2019-09-10T15:37:51.600Z</time>
      </trkpt>
      <trkpt lat="10.1588762395655" lon="-75.6816894351969">
        <ele>52.2778713</ele>
        <time>2019-09-10T15:37:51.800Z</time>
      </trkpt>
      <trkpt lat="10.1588728416152" lon="-75.6816852576506">
        <ele>52.2778713</ele>
        <time>2019-09-10T15:37:52.000Z</time>
      </trkpt>
      <trkpt lat="10.1588711467307" lon="-75.681683167572">
        <ele>52.2778713</ele>
        <time>2019-09-10T15:37:52.100Z</time>
      </trkpt>
      <trkpt lat="10.1588694464788" lon="-75.6816810794081">
        <ele>52.2778713</ele>
        <time>2019-09-10T15:37:52.200Z</time>
      </trkpt>
      <trkpt lat="10.1588677300207" lon="-75.6816789862658">
        <ele>52.2778713</ele>
        <time>2019-09-10T15:37:52.300Z</time>
      </trkpt>
      <trkpt lat="10.158866034589" lon="-75.6816768594238">
        <ele>52.2778713</ele>
        <time>2019-09-10T15:37:52.400Z</time>
      </trkpt>
      <trkpt lat="10.1588643313929" lon="-75.6816747327906">
        <ele>52.2778713</ele>
        <time>2019-09-10T15:37:52.500Z</time>
      </trkpt>
      <trkpt lat="10.1588626515943" lon="-75.6816726090819">
        <ele>52.2778713</ele>
        <time>2019-09-10T15:37:52.600Z</time>
      </trkpt>
      <trkpt lat="10.1588609621032" lon="-75.6816704933803">
        <ele>52.2778713</ele>
        <time>2019-09-10T15:37:52.700Z</time>
      </trkpt>
      <trkpt lat="10.1588592639878" lon="-75.6816683480522">
        <ele>52.2778713</ele>
        <time>2019-09-10T15:37:52.800Z</time>
      </trkpt>
      <trkpt lat="10.1588558557197" lon="-75.681664117763">
        <ele>52.2778713</ele>
        <time>2019-09-10T15:37:53.000Z</time>
      </trkpt>
      <trkpt lat="10.1588541485632" lon="-75.6816620306783">
        <ele>52.2778713</ele>
        <time>2019-09-10T15:37:53.100Z</time>
      </trkpt>
      <trkpt lat="10.1588524554244" lon="-75.6816599497209">
        <ele>52.2778713</ele>
        <time>2019-09-10T15:37:53.200Z</time>
      </trkpt>
      <trkpt lat="10.1588507523325" lon="-75.6816578632628">
        <ele>52.2778713</ele>
        <time>2019-09-10T15:37:53.300Z</time>
      </trkpt>
      <trkpt lat="10.1588490625027" lon="-75.6816557472131">
        <ele>52.2778713</ele>
        <time>2019-09-10T15:37:53.400Z</time>
      </trkpt>
      <trkpt lat="10.1588473551639" lon="-75.6816536326603">
        <ele>52.2778713</ele>
        <time>2019-09-10T15:37:53.500Z</time>
      </trkpt>
      <trkpt lat="10.1588456309674" lon="-75.6816515212757">
        <ele>52.2778713</ele>
        <time>2019-09-10T15:37:53.600Z</time>
      </trkpt>
      <trkpt lat="10.1588439002571" lon="-75.6816494185596">
        <ele>52.2778713</ele>
        <time>2019-09-10T15:37:53.700Z</time>
      </trkpt>
      <trkpt lat="10.158842194716" lon="-75.6816473224581">
        <ele>52.2778713</ele>
        <time>2019-09-10T15:37:53.800Z</time>
      </trkpt>
      <trkpt lat="10.158840485423" lon="-75.6816452316136">
        <ele>52.2778713</ele>
        <time>2019-09-10T15:37:53.900Z</time>
      </trkpt>
      <trkpt lat="10.1588387681572" lon="-75.6816431369395">
        <ele>52.2778713</ele>
        <time>2019-09-10T15:37:54.000Z</time>
      </trkpt>
      <trkpt lat="10.1588370438825" lon="-75.6816410420565">
        <ele>52.2778713</ele>
        <time>2019-09-10T15:37:54.100Z</time>
      </trkpt>
      <trkpt lat="10.1588352818019" lon="-75.6816388738558">
        <ele>52.2778713</ele>
        <time>2019-09-10T15:37:54.200Z</time>
      </trkpt>
      <trkpt lat="10.1588335221444" lon="-75.6816367167258">
        <ele>52.3778713</ele>
        <time>2019-09-10T15:37:54.300Z</time>
      </trkpt>
      <trkpt lat="10.158831788073" lon="-75.6816345967073">
        <ele>52.3778713</ele>
        <time>2019-09-10T15:37:54.400Z</time>
      </trkpt>
      <trkpt lat="10.1588300641631" lon="-75.6816324942349">
        <ele>52.3778713</ele>
        <time>2019-09-10T15:37:54.500Z</time>
      </trkpt>
      <trkpt lat="10.1588283397842" lon="-75.6816304281429">
        <ele>52.3778713</ele>
        <time>2019-09-10T15:37:54.600Z</time>
      </trkpt>
      <trkpt lat="10.1588266141807" lon="-75.6816283627124">
        <ele>52.3778713</ele>
        <time>2019-09-10T15:37:54.700Z</time>
      </trkpt>
      <trkpt lat="10.1588248863886" lon="-75.6816263237055">
        <ele>52.3778713</ele>
        <time>2019-09-10T15:37:54.800Z</time>
      </trkpt>
      <trkpt lat="10.1588231561734" lon="-75.6816242716086">
        <ele>52.3778713</ele>
        <time>2019-09-10T15:37:54.900Z</time>
      </trkpt>
      <trkpt lat="10.1588214488606" lon="-75.6816222062129">
        <ele>52.3778713</ele>
        <time>2019-09-10T15:37:55.000Z</time>
      </trkpt>
      <trkpt lat="10.1588197365192" lon="-75.6816201238629">
        <ele>52.3778713</ele>
        <time>2019-09-10T15:37:55.100Z</time>
      </trkpt>
      <trkpt lat="10.1588180118016" lon="-75.6816180575272">
        <ele>52.3778713</ele>
        <time>2019-09-10T15:37:55.200Z</time>
      </trkpt>
      <trkpt lat="10.1588162801273" lon="-75.681615983428">
        <ele>52.3778713</ele>
        <time>2019-09-10T15:37:55.300Z</time>
      </trkpt>
      <trkpt lat="10.1588145116631" lon="-75.6816139003469">
        <ele>52.3778713</ele>
        <time>2019-09-10T15:37:55.400Z</time>
      </trkpt>
      <trkpt lat="10.1588127464819" lon="-75.6816118166392">
        <ele>52.3778713</ele>
        <time>2019-09-10T15:37:55.500Z</time>
      </trkpt>
      <trkpt lat="10.1588110440154" lon="-75.6816097606432">
        <ele>52.4778713</ele>
        <time>2019-09-10T15:37:55.600Z</time>
      </trkpt>
      <trkpt lat="10.1588093466557" lon="-75.6816077031502">
        <ele>52.4778713</ele>
        <time>2019-09-10T15:37:55.700Z</time>
      </trkpt>
      <trkpt lat="10.1588059382833" lon="-75.6816036215854">
        <ele>52.3778713</ele>
        <time>2019-09-10T15:37:55.900Z</time>
      </trkpt>
      <trkpt lat="10.1588042493393" lon="-75.6816015512461">
        <ele>52.3778713</ele>
        <time>2019-09-10T15:37:56.000Z</time>
      </trkpt>
      <trkpt lat="10.1588008209827" lon="-75.6815973850143">
        <ele>52.3778713</ele>
        <time>2019-09-10T15:37:56.200Z</time>
      </trkpt>
      <trkpt lat="10.1587990763069" lon="-75.6815952950749">
        <ele>52.3778713</ele>
        <time>2019-09-10T15:37:56.300Z</time>
      </trkpt>
      <trkpt lat="10.1587973494788" lon="-75.6815931891559">
        <ele>52.3778713</ele>
        <time>2019-09-10T15:37:56.400Z</time>
      </trkpt>
      <trkpt lat="10.1587956191333" lon="-75.6815910748469">
        <ele>52.3778713</ele>
        <time>2019-09-10T15:37:56.500Z</time>
      </trkpt>
      <trkpt lat="10.1587939176047" lon="-75.681588995839">
        <ele>52.3778713</ele>
        <time>2019-09-10T15:37:56.600Z</time>
      </trkpt>
      <trkpt lat="10.1587922099011" lon="-75.6815869184673">
        <ele>52.3778713</ele>
        <time>2019-09-10T15:37:56.700Z</time>
      </trkpt>
      <trkpt lat="10.1587904787218" lon="-75.6815847850107">
        <ele>52.3778713</ele>
        <time>2019-09-10T15:37:56.800Z</time>
      </trkpt>
      <trkpt lat="10.1587887391789" lon="-75.6815826505793">
        <ele>52.3778713</ele>
        <time>2019-09-10T15:37:56.900Z</time>
      </trkpt>
      <trkpt lat="10.1587869994014" lon="-75.6815805162872">
        <ele>52.3778713</ele>
        <time>2019-09-10T15:37:57.000Z</time>
      </trkpt>
      <trkpt lat="10.1587852551164" lon="-75.6815783922303">
        <ele>52.3778713</ele>
        <time>2019-09-10T15:37:57.100Z</time>
      </trkpt>
      <trkpt lat="10.1587835066366" lon="-75.6815762373632">
        <ele>52.3778713</ele>
        <time>2019-09-10T15:37:57.200Z</time>
      </trkpt>
      <trkpt lat="10.158781754978" lon="-75.6815740883796">
        <ele>52.3778713</ele>
        <time>2019-09-10T15:37:57.300Z</time>
      </trkpt>
      <trkpt lat="10.1587800367221" lon="-75.68157195736">
        <ele>52.3778713</ele>
        <time>2019-09-10T15:37:57.400Z</time>
      </trkpt>
      <trkpt lat="10.1587783124734" lon="-75.6815698445827">
        <ele>52.3778713</ele>
        <time>2019-09-10T15:37:57.500Z</time>
      </trkpt>
      <trkpt lat="10.1587766189699" lon="-75.681567753773">
        <ele>52.3778713</ele>
        <time>2019-09-10T15:37:57.600Z</time>
      </trkpt>
      <trkpt lat="10.1587749146794" lon="-75.6815656679764">
        <ele>52.3778713</ele>
        <time>2019-09-10T15:37:57.700Z</time>
      </trkpt>
      <trkpt lat="10.158773185324" lon="-75.6815635553036">
        <ele>52.3778713</ele>
        <time>2019-09-10T15:37:57.800Z</time>
      </trkpt>
      <trkpt lat="10.1587714409609" lon="-75.6815614446152">
        <ele>52.3778713</ele>
        <time>2019-09-10T15:37:57.900Z</time>
      </trkpt>
      <trkpt lat="10.1587696889636" lon="-75.6815593321861">
        <ele>52.3778713</ele>
        <time>2019-09-10T15:37:58.000Z</time>
      </trkpt>
      <trkpt lat="10.1587679304004" lon="-75.6815572254316">
        <ele>52.3778713</ele>
        <time>2019-09-10T15:37:58.100Z</time>
      </trkpt>
      <trkpt lat="10.1587661971107" lon="-75.6815551465108">
        <ele>52.3778713</ele>
        <time>2019-09-10T15:37:58.200Z</time>
      </trkpt>
      <trkpt lat="10.158764455796" lon="-75.6815530647352">
        <ele>52.3778713</ele>
        <time>2019-09-10T15:37:58.300Z</time>
      </trkpt>
      <trkpt lat="10.1587626958518" lon="-75.6815509371621">
        <ele>52.3778713</ele>
        <time>2019-09-10T15:37:58.400Z</time>
      </trkpt>
      <trkpt lat="10.1587609314002" lon="-75.6815487984486">
        <ele>52.3778713</ele>
        <time>2019-09-10T15:37:58.500Z</time>
      </trkpt>
      <trkpt lat="10.1587591477199" lon="-75.6815466580118">
        <ele>52.3778713</ele>
        <time>2019-09-10T15:37:58.600Z</time>
      </trkpt>
      <trkpt lat="10.1587573554675" lon="-75.6815445257737">
        <ele>52.3778713</ele>
        <time>2019-09-10T15:37:58.700Z</time>
      </trkpt>
      <trkpt lat="10.1587556290563" lon="-75.6815424772626">
        <ele>52.3778713</ele>
        <time>2019-09-10T15:37:58.800Z</time>
      </trkpt>
      <trkpt lat="10.1587539084814" lon="-75.6815404363236">
        <ele>52.3778713</ele>
        <time>2019-09-10T15:37:58.900Z</time>
      </trkpt>
      <trkpt lat="10.1587521529146" lon="-75.6815383355745">
        <ele>52.2778713</ele>
        <time>2019-09-10T15:37:59.000Z</time>
      </trkpt>
      <trkpt lat="10.1587503749925" lon="-75.6815362162">
        <ele>52.3778713</ele>
        <time>2019-09-10T15:37:59.100Z</time>
      </trkpt>
      <trkpt lat="10.1587486174975" lon="-75.6815340957638">
        <ele>52.3778713</ele>
        <time>2019-09-10T15:37:59.200Z</time>
      </trkpt>
      <trkpt lat="10.1587468607321" lon="-75.6815319809499">
        <ele>52.3778713</ele>
        <time>2019-09-10T15:37:59.300Z</time>
      </trkpt>
      <trkpt lat="10.1587451219448" lon="-75.6815298324712">
        <ele>52.3778713</ele>
        <time>2019-09-10T15:37:59.400Z</time>
      </trkpt>
      <trkpt lat="10.1587416314467" lon="-75.6815255513713">
        <ele>52.3778713</ele>
        <time>2019-09-10T15:37:59.600Z</time>
      </trkpt>
      <trkpt lat="10.158738158614" lon="-75.681521325312">
        <ele>52.3778713</ele>
        <time>2019-09-10T15:37:59.800Z</time>
      </trkpt>
      <trkpt lat="10.1587347228968" lon="-75.6815171442147">
        <ele>52.3778713</ele>
        <time>2019-09-10T15:38:00.000Z</time>
      </trkpt>
      <trkpt lat="10.1587330016055" lon="-75.6815150514206">
        <ele>52.3778713</ele>
        <time>2019-09-10T15:38:00.100Z</time>
      </trkpt>
      <trkpt lat="10.1587312879743" lon="-75.6815129552147">
        <ele>52.3778713</ele>
        <time>2019-09-10T15:38:00.200Z</time>
      </trkpt>
      <trkpt lat="10.1587295656668" lon="-75.6815108503054">
        <ele>52.3778713</ele>
        <time>2019-09-10T15:38:00.300Z</time>
      </trkpt>
      <trkpt lat="10.1587278718636" lon="-75.6815087391644">
        <ele>52.3778713</ele>
        <time>2019-09-10T15:38:00.400Z</time>
      </trkpt>
      <trkpt lat="10.1587261657363" lon="-75.6815066276578">
        <ele>52.3778713</ele>
        <time>2019-09-10T15:38:00.500Z</time>
      </trkpt>
      <trkpt lat="10.1587244527956" lon="-75.6815045273613">
        <ele>52.3778713</ele>
        <time>2019-09-10T15:38:00.600Z</time>
      </trkpt>
      <trkpt lat="10.1587227277784" lon="-75.6815024302503">
        <ele>52.3778713</ele>
        <time>2019-09-10T15:38:00.700Z</time>
      </trkpt>
      <trkpt lat="10.1587209979279" lon="-75.6815003498846">
        <ele>52.3778713</ele>
        <time>2019-09-10T15:38:00.800Z</time>
      </trkpt>
      <trkpt lat="10.1587192633745" lon="-75.6814982715208">
        <ele>52.3778713</ele>
        <time>2019-09-10T15:38:00.900Z</time>
      </trkpt>
      <trkpt lat="10.1587175906108" lon="-75.6814962299029">
        <ele>52.3778713</ele>
        <time>2019-09-10T15:38:01.000Z</time>
      </trkpt>
      <trkpt lat="10.1587159188501" lon="-75.6814941832369">
        <ele>52.3778713</ele>
        <time>2019-09-10T15:38:01.100Z</time>
      </trkpt>
      <trkpt lat="10.1587142109251" lon="-75.6814921170579">
        <ele>52.3778713</ele>
        <time>2019-09-10T15:38:01.200Z</time>
      </trkpt>
      <trkpt lat="10.1587124787166" lon="-75.6814900224186">
        <ele>52.3778713</ele>
        <time>2019-09-10T15:38:01.300Z</time>
      </trkpt>
      <trkpt lat="10.158710727996" lon="-75.6814878957507">
        <ele>52.3778713</ele>
        <time>2019-09-10T15:38:01.400Z</time>
      </trkpt>
      <trkpt lat="10.158708972364" lon="-75.6814857717634">
        <ele>52.3778713</ele>
        <time>2019-09-10T15:38:01.500Z</time>
      </trkpt>
      <trkpt lat="10.1587072079775" lon="-75.6814836171575">
        <ele>52.3778713</ele>
        <time>2019-09-10T15:38:01.600Z</time>
      </trkpt>
      <trkpt lat="10.1587054449198" lon="-75.6814814688702">
        <ele>52.3778713</ele>
        <time>2019-09-10T15:38:01.700Z</time>
      </trkpt>
      <trkpt lat="10.1587036860961" lon="-75.6814792963003">
        <ele>52.3778713</ele>
        <time>2019-09-10T15:38:01.800Z</time>
      </trkpt>
      <trkpt lat="10.1587019205241" lon="-75.6814771267244">
        <ele>52.3778713</ele>
        <time>2019-09-10T15:38:01.900Z</time>
      </trkpt>
      <trkpt lat="10.1587001531152" lon="-75.6814749352507">
        <ele>52.3778713</ele>
        <time>2019-09-10T15:38:02.000Z</time>
      </trkpt>
      <trkpt lat="10.1586983799221" lon="-75.6814727566406">
        <ele>52.3778713</ele>
        <time>2019-09-10T15:38:02.100Z</time>
      </trkpt>
      <trkpt lat="10.1586966154053" lon="-75.6814706130184">
        <ele>52.3778713</ele>
        <time>2019-09-10T15:38:02.200Z</time>
      </trkpt>
      <trkpt lat="10.1586948485045" lon="-75.681468471572">
        <ele>52.3778713</ele>
        <time>2019-09-10T15:38:02.300Z</time>
      </trkpt>
      <trkpt lat="10.1586930505981" lon="-75.6814663022572">
        <ele>52.3778713</ele>
        <time>2019-09-10T15:38:02.400Z</time>
      </trkpt>
      <trkpt lat="10.158691249539" lon="-75.681464147895">
        <ele>52.3778713</ele>
        <time>2019-09-10T15:38:02.500Z</time>
      </trkpt>
      <trkpt lat="10.1586895226979" lon="-75.6814620432293">
        <ele>52.3778713</ele>
        <time>2019-09-10T15:38:02.600Z</time>
      </trkpt>
      <trkpt lat="10.1586878142257" lon="-75.681459951967">
        <ele>52.2778713</ele>
        <time>2019-09-10T15:38:02.700Z</time>
      </trkpt>
      <trkpt lat="10.1586860982235" lon="-75.6814578849176">
        <ele>52.2778713</ele>
        <time>2019-09-10T15:38:02.800Z</time>
      </trkpt>
      <trkpt lat="10.1586843686596" lon="-75.6814558075286">
        <ele>52.3778713</ele>
        <time>2019-09-10T15:38:02.900Z</time>
      </trkpt>
      <trkpt lat="10.1586826340541" lon="-75.6814537293562">
        <ele>52.3778713</ele>
        <time>2019-09-10T15:38:03.000Z</time>
      </trkpt>
      <trkpt lat="10.1586808869943" lon="-75.6814516363532">
        <ele>52.3778713</ele>
        <time>2019-09-10T15:38:03.100Z</time>
      </trkpt>
      <trkpt lat="10.1586791004739" lon="-75.6814495399906">
        <ele>52.3778713</ele>
        <time>2019-09-10T15:38:03.200Z</time>
      </trkpt>
      <trkpt lat="10.1586773032971" lon="-75.6814474346461">
        <ele>52.3778713</ele>
        <time>2019-09-10T15:38:03.300Z</time>
      </trkpt>
      <trkpt lat="10.1586755073839" lon="-75.6814453228437">
        <ele>52.3778713</ele>
        <time>2019-09-10T15:38:03.400Z</time>
      </trkpt>
      <trkpt lat="10.1586737155223" lon="-75.6814432036781">
        <ele>52.3778713</ele>
        <time>2019-09-10T15:38:03.500Z</time>
      </trkpt>
      <trkpt lat="10.158671920495" lon="-75.6814410607521">
        <ele>52.3778713</ele>
        <time>2019-09-10T15:38:03.600Z</time>
      </trkpt>
      <trkpt lat="10.1586683834625" lon="-75.6814368123946">
        <ele>52.2778713</ele>
        <time>2019-09-10T15:38:03.800Z</time>
      </trkpt>
      <trkpt lat="10.1586666380572" lon="-75.6814347166413">
        <ele>52.2778713</ele>
        <time>2019-09-10T15:38:03.900Z</time>
      </trkpt>
      <trkpt lat="10.1586648913491" lon="-75.6814326374768">
        <ele>52.2778713</ele>
        <time>2019-09-10T15:38:04.000Z</time>
      </trkpt>
      <trkpt lat="10.1586631335675" lon="-75.6814305598092">
        <ele>52.2778713</ele>
        <time>2019-09-10T15:38:04.100Z</time>
      </trkpt>
      <trkpt lat="10.158661390924" lon="-75.6814284773895">
        <ele>52.2778713</ele>
        <time>2019-09-10T15:38:04.200Z</time>
      </trkpt>
      <trkpt lat="10.1586596417667" lon="-75.6814263881116">
        <ele>52.2778713</ele>
        <time>2019-09-10T15:38:04.300Z</time>
      </trkpt>
      <trkpt lat="10.1586578948502" lon="-75.6814242937334">
        <ele>52.2778713</ele>
        <time>2019-09-10T15:38:04.400Z</time>
      </trkpt>
      <trkpt lat="10.1586561356877" lon="-75.6814222075017">
        <ele>52.2778713</ele>
        <time>2019-09-10T15:38:04.500Z</time>
      </trkpt>
      <trkpt lat="10.1586543682006" lon="-75.6814200847503">
        <ele>52.2778713</ele>
        <time>2019-09-10T15:38:04.600Z</time>
      </trkpt>
      <trkpt lat="10.1586526012998" lon="-75.6814179728869">
        <ele>52.2778713</ele>
        <time>2019-09-10T15:38:04.700Z</time>
      </trkpt>
      <trkpt lat="10.1586508622519" lon="-75.6814158915987">
        <ele>52.2778713</ele>
        <time>2019-09-10T15:38:04.800Z</time>
      </trkpt>
      <trkpt lat="10.1586491265651" lon="-75.6814138186571">
        <ele>52.2778713</ele>
        <time>2019-09-10T15:38:04.900Z</time>
      </trkpt>
      <trkpt lat="10.1586474079965" lon="-75.6814117328257">
        <ele>52.2778713</ele>
        <time>2019-09-10T15:38:05.000Z</time>
      </trkpt>
      <trkpt lat="10.1586456850767" lon="-75.6814096403449">
        <ele>52.2778713</ele>
        <time>2019-09-10T15:38:05.100Z</time>
      </trkpt>
      <trkpt lat="10.1586439668338" lon="-75.6814075315103">
        <ele>52.2778713</ele>
        <time>2019-09-10T15:38:05.200Z</time>
      </trkpt>
      <trkpt lat="10.1586422441094" lon="-75.681405427802">
        <ele>52.2778713</ele>
        <time>2019-09-10T15:38:05.300Z</time>
      </trkpt>
      <trkpt lat="10.1586405280421" lon="-75.6814033456522">
        <ele>52.2778713</ele>
        <time>2019-09-10T15:38:05.400Z</time>
      </trkpt>
      <trkpt lat="10.1586388118966" lon="-75.6814012591767">
        <ele>52.2778713</ele>
        <time>2019-09-10T15:38:05.500Z</time>
      </trkpt>
      <trkpt lat="10.1586371256494" lon="-75.6813991980979">
        <ele>52.2778713</ele>
        <time>2019-09-10T15:38:05.600Z</time>
      </trkpt>
      <trkpt lat="10.1586354361192" lon="-75.6813971335464">
        <ele>52.2778713</ele>
        <time>2019-09-10T15:38:05.700Z</time>
      </trkpt>
      <trkpt lat="10.1586337357631" lon="-75.6813950689427">
        <ele>52.2778713</ele>
        <time>2019-09-10T15:38:05.800Z</time>
      </trkpt>
      <trkpt lat="10.1586320296098" lon="-75.6813929995957">
        <ele>52.2778713</ele>
        <time>2019-09-10T15:38:05.900Z</time>
      </trkpt>
      <trkpt lat="10.1586303339566" lon="-75.6813909555756">
        <ele>52.2778713</ele>
        <time>2019-09-10T15:38:06.000Z</time>
      </trkpt>
      <trkpt lat="10.1586286361409" lon="-75.6813889091186">
        <ele>52.2778713</ele>
        <time>2019-09-10T15:38:06.100Z</time>
      </trkpt>
      <trkpt lat="10.158626946728" lon="-75.6813868863697">
        <ele>52.2778713</ele>
        <time>2019-09-10T15:38:06.200Z</time>
      </trkpt>
      <trkpt lat="10.158625247629" lon="-75.6813848643084">
        <ele>52.2778713</ele>
        <time>2019-09-10T15:38:06.300Z</time>
      </trkpt>
      <trkpt lat="10.1586235222601" lon="-75.6813828522125">
        <ele>52.2778713</ele>
        <time>2019-09-10T15:38:06.400Z</time>
      </trkpt>
      <trkpt lat="10.15862178955" lon="-75.6813808363568">
        <ele>52.2778713</ele>
        <time>2019-09-10T15:38:06.500Z</time>
      </trkpt>
      <trkpt lat="10.1586200684215" lon="-75.6813788161493">
        <ele>52.2778713</ele>
        <time>2019-09-10T15:38:06.600Z</time>
      </trkpt>
      <trkpt lat="10.1586183550509" lon="-75.6813767910853">
        <ele>52.2778713</ele>
        <time>2019-09-10T15:38:06.700Z</time>
      </trkpt>
      <trkpt lat="10.1586166406707" lon="-75.6813747511036">
        <ele>52.2778713</ele>
        <time>2019-09-10T15:38:06.800Z</time>
      </trkpt>
      <trkpt lat="10.158614926538" lon="-75.6813727066832">
        <ele>52.2778713</ele>
        <time>2019-09-10T15:38:06.900Z</time>
      </trkpt>
      <trkpt lat="10.1586132020939" lon="-75.6813706396164">
        <ele>52.2778713</ele>
        <time>2019-09-10T15:38:07.000Z</time>
      </trkpt>
      <trkpt lat="10.1586114785814" lon="-75.6813685651604">
        <ele>52.2778713</ele>
        <time>2019-09-10T15:38:07.100Z</time>
      </trkpt>
      <trkpt lat="10.1586097621428" lon="-75.6813665122454">
        <ele>52.2778713</ele>
        <time>2019-09-10T15:38:07.200Z</time>
      </trkpt>
      <trkpt lat="10.1586080382329" lon="-75.6813644632992">
        <ele>52.2778713</ele>
        <time>2019-09-10T15:38:07.300Z</time>
      </trkpt>
      <trkpt lat="10.1586062960974" lon="-75.6813623849528">
        <ele>52.2778713</ele>
        <time>2019-09-10T15:38:07.400Z</time>
      </trkpt>
      <trkpt lat="10.1586045495847" lon="-75.6813602973546">
        <ele>52.2778713</ele>
        <time>2019-09-10T15:38:07.500Z</time>
      </trkpt>
      <trkpt lat="10.1586028502383" lon="-75.6813582684002">
        <ele>52.2778713</ele>
        <time>2019-09-10T15:38:07.600Z</time>
      </trkpt>
      <trkpt lat="10.1586011525659" lon="-75.681356225146">
        <ele>52.2778713</ele>
        <time>2019-09-10T15:38:07.700Z</time>
      </trkpt>
      <trkpt lat="10.1585977592273" lon="-75.6813520344619">
        <ele>52.2778713</ele>
        <time>2019-09-10T15:38:07.900Z</time>
      </trkpt>
      <trkpt lat="10.1585944000274" lon="-75.6813479689332">
        <ele>52.2778713</ele>
        <time>2019-09-10T15:38:08.100Z</time>
      </trkpt>
      <trkpt lat="10.1585927016646" lon="-75.6813458908609">
        <ele>52.2778713</ele>
        <time>2019-09-10T15:38:08.200Z</time>
      </trkpt>
      <trkpt lat="10.1585909937134" lon="-75.6813438055996">
        <ele>52.2778713</ele>
        <time>2019-09-10T15:38:08.300Z</time>
      </trkpt>
      <trkpt lat="10.1585892638564" lon="-75.6813417330061">
        <ele>52.2778713</ele>
        <time>2019-09-10T15:38:08.400Z</time>
      </trkpt>
      <trkpt lat="10.1585875288862" lon="-75.6813396689725">
        <ele>52.2778713</ele>
        <time>2019-09-10T15:38:08.500Z</time>
      </trkpt>
      <trkpt lat="10.158585774342" lon="-75.6813376157702">
        <ele>52.2778713</ele>
        <time>2019-09-10T15:38:08.600Z</time>
      </trkpt>
      <trkpt lat="10.1585840257709" lon="-75.6813355616716">
        <ele>52.2778713</ele>
        <time>2019-09-10T15:38:08.700Z</time>
      </trkpt>
      <trkpt lat="10.1585823002391" lon="-75.6813334866629">
        <ele>52.2778713</ele>
        <time>2019-09-10T15:38:08.800Z</time>
      </trkpt>
      <trkpt lat="10.1585788551486" lon="-75.6813293440131">
        <ele>52.2778713</ele>
        <time>2019-09-10T15:38:09.000Z</time>
      </trkpt>
      <trkpt lat="10.158577126451" lon="-75.6813272749401">
        <ele>52.2778713</ele>
        <time>2019-09-10T15:38:09.100Z</time>
      </trkpt>
      <trkpt lat="10.1585754255739" lon="-75.6813251820328">
        <ele>52.2778713</ele>
        <time>2019-09-10T15:38:09.200Z</time>
      </trkpt>
      <trkpt lat="10.1585737211532" lon="-75.6813230824848">
        <ele>52.3778713</ele>
        <time>2019-09-10T15:38:09.300Z</time>
      </trkpt>
      <trkpt lat="10.1585720243569" lon="-75.6813210177158">
        <ele>52.3778713</ele>
        <time>2019-09-10T15:38:09.400Z</time>
      </trkpt>
      <trkpt lat="10.1585703104098" lon="-75.6813189503182">
        <ele>52.3778713</ele>
        <time>2019-09-10T15:38:09.500Z</time>
      </trkpt>
      <trkpt lat="10.1585686055071" lon="-75.6813168723591">
        <ele>52.3778713</ele>
        <time>2019-09-10T15:38:09.600Z</time>
      </trkpt>
      <trkpt lat="10.158566884092" lon="-75.6813147922328">
        <ele>52.3778713</ele>
        <time>2019-09-10T15:38:09.700Z</time>
      </trkpt>
      <trkpt lat="10.1585651320849" lon="-75.6813126738636">
        <ele>52.3778713</ele>
        <time>2019-09-10T15:38:09.800Z</time>
      </trkpt>
      <trkpt lat="10.1585616252926" lon="-75.6813084014498">
        <ele>52.3778713</ele>
        <time>2019-09-10T15:38:10.000Z</time>
      </trkpt>
      <trkpt lat="10.1585598783598" lon="-75.68130626105">
        <ele>52.3778713</ele>
        <time>2019-09-10T15:38:10.100Z</time>
      </trkpt>
      <trkpt lat="10.1585564474335" lon="-75.6813019849395">
        <ele>52.3778713</ele>
        <time>2019-09-10T15:38:10.300Z</time>
      </trkpt>
      <trkpt lat="10.1585547224911" lon="-75.681299841265">
        <ele>52.3778713</ele>
        <time>2019-09-10T15:38:10.400Z</time>
      </trkpt>
      <trkpt lat="10.1585529803752" lon="-75.6812976950535">
        <ele>52.2778713</ele>
        <time>2019-09-10T15:38:10.500Z</time>
      </trkpt>
      <trkpt lat="10.1585495378056" lon="-75.681293414477">
        <ele>52.2778713</ele>
        <time>2019-09-10T15:38:10.700Z</time>
      </trkpt>
      <trkpt lat="10.1585460604328" lon="-75.6812891714068">
        <ele>52.2778713</ele>
        <time>2019-09-10T15:38:10.900Z</time>
      </trkpt>
      <trkpt lat="10.1585442946262" lon="-75.6812870086816">
        <ele>52.2778713</ele>
        <time>2019-09-10T15:38:11.000Z</time>
      </trkpt>
      <trkpt lat="10.1585425194253" lon="-75.6812848431321">
        <ele>52.2778713</ele>
        <time>2019-09-10T15:38:11.100Z</time>
      </trkpt>
      <trkpt lat="10.1585407536187" lon="-75.6812827104292">
        <ele>52.2778713</ele>
        <time>2019-09-10T15:38:11.200Z</time>
      </trkpt>
      <trkpt lat="10.1585389829481" lon="-75.6812805856721">
        <ele>52.2778713</ele>
        <time>2019-09-10T15:38:11.300Z</time>
      </trkpt>
      <trkpt lat="10.1585371716998" lon="-75.6812784204636">
        <ele>52.2778713</ele>
        <time>2019-09-10T15:38:11.400Z</time>
      </trkpt>
      <trkpt lat="10.1585353619954" lon="-75.6812762488255">
        <ele>52.2778713</ele>
        <time>2019-09-10T15:38:11.500Z</time>
      </trkpt>
      <trkpt lat="10.1585335420285" lon="-75.6812740380432">
        <ele>52.2778713</ele>
        <time>2019-09-10T15:38:11.600Z</time>
      </trkpt>
      <trkpt lat="10.1585317253477" lon="-75.6812718357859">
        <ele>52.2778713</ele>
        <time>2019-09-10T15:38:11.700Z</time>
      </trkpt>
      <trkpt lat="10.1585299038403" lon="-75.6812696366792">
        <ele>52.2778713</ele>
        <time>2019-09-10T15:38:11.800Z</time>
      </trkpt>
      <trkpt lat="10.158526298392" lon="-75.6812652899957">
        <ele>52.2778713</ele>
        <time>2019-09-10T15:38:12.000Z</time>
      </trkpt>
      <trkpt lat="10.1585245190645" lon="-75.6812631376233">
        <ele>52.2778713</ele>
        <time>2019-09-10T15:38:12.100Z</time>
      </trkpt>
      <trkpt lat="10.1585227571215" lon="-75.6812609776984">
        <ele>52.2778713</ele>
        <time>2019-09-10T15:38:12.200Z</time>
      </trkpt>
      <trkpt lat="10.1585209849734" lon="-75.6812588315348">
        <ele>52.2778713</ele>
        <time>2019-09-10T15:38:12.300Z</time>
      </trkpt>
      <trkpt lat="10.1585192239553" lon="-75.6812566631273">
        <ele>52.2778713</ele>
        <time>2019-09-10T15:38:12.400Z</time>
      </trkpt>
      <trkpt lat="10.1585174516442" lon="-75.6812545066153">
        <ele>52.2778713</ele>
        <time>2019-09-10T15:38:12.500Z</time>
      </trkpt>
      <trkpt lat="10.1585157452326" lon="-75.6812524161319">
        <ele>52.2778713</ele>
        <time>2019-09-10T15:38:12.600Z</time>
      </trkpt>
      <trkpt lat="10.1585140449339" lon="-75.6812503429706">
        <ele>52.2778713</ele>
        <time>2019-09-10T15:38:12.700Z</time>
      </trkpt>
      <trkpt lat="10.1585123521285" lon="-75.6812482577375">
        <ele>52.2778713</ele>
        <time>2019-09-10T15:38:12.800Z</time>
      </trkpt>
      <trkpt lat="10.158510646456" lon="-75.6812461789276">
        <ele>52.2778713</ele>
        <time>2019-09-10T15:38:12.900Z</time>
      </trkpt>
      <trkpt lat="10.1585089498762" lon="-75.6812441174028">
        <ele>52.2778713</ele>
        <time>2019-09-10T15:38:13.000Z</time>
      </trkpt>
      <trkpt lat="10.1585072481441" lon="-75.6812420621008">
        <ele>52.2778713</ele>
        <time>2019-09-10T15:38:13.100Z</time>
      </trkpt>
      <trkpt lat="10.1585039387649" lon="-75.6812379877991">
        <ele>52.2778713</ele>
        <time>2019-09-10T15:38:13.300Z</time>
      </trkpt>
      <trkpt lat="10.1585022831145" lon="-75.6812359872179">
        <ele>52.2778713</ele>
        <time>2019-09-10T15:38:13.400Z</time>
      </trkpt>
      <trkpt lat="10.1585006098394" lon="-75.681233985849">
        <ele>52.2778713</ele>
        <time>2019-09-10T15:38:13.500Z</time>
      </trkpt>
      <trkpt lat="10.1584989166257" lon="-75.6812319469509">
        <ele>52.2778713</ele>
        <time>2019-09-10T15:38:13.600Z</time>
      </trkpt>
      <trkpt lat="10.1584972067334" lon="-75.6812298899627">
        <ele>52.2778713</ele>
        <time>2019-09-10T15:38:13.700Z</time>
      </trkpt>
      <trkpt lat="10.1584954968803" lon="-75.6812278146015">
        <ele>52.2778713</ele>
        <time>2019-09-10T15:38:13.800Z</time>
      </trkpt>
      <trkpt lat="10.1584937830504" lon="-75.6812257384484">
        <ele>52.2778713</ele>
        <time>2019-09-10T15:38:13.900Z</time>
      </trkpt>
      <trkpt lat="10.1584920853634" lon="-75.6812236571515">
        <ele>52.2778713</ele>
        <time>2019-09-10T15:38:14.000Z</time>
      </trkpt>
      <trkpt lat="10.1584903856391" lon="-75.681221578174">
        <ele>52.2778713</ele>
        <time>2019-09-10T15:38:14.100Z</time>
      </trkpt>
      <trkpt lat="10.1584887050523" lon="-75.6812195039356">
        <ele>52.2778713</ele>
        <time>2019-09-10T15:38:14.200Z</time>
      </trkpt>
      <trkpt lat="10.1584870150369" lon="-75.6812174269382">
        <ele>52.2778713</ele>
        <time>2019-09-10T15:38:14.300Z</time>
      </trkpt>
      <trkpt lat="10.1584853371273" lon="-75.681215397318">
        <ele>52.2778713</ele>
        <time>2019-09-10T15:38:14.400Z</time>
      </trkpt>
      <trkpt lat="10.1584836476264" lon="-75.6812133630197">
        <ele>52.2778713</ele>
        <time>2019-09-10T15:38:14.500Z</time>
      </trkpt>
      <trkpt lat="10.1584819654242" lon="-75.6812113410541">
        <ele>52.2778713</ele>
        <time>2019-09-10T15:38:14.600Z</time>
      </trkpt>
      <trkpt lat="10.158480270569" lon="-75.681209301673">
        <ele>52.2778713</ele>
        <time>2019-09-10T15:38:14.700Z</time>
      </trkpt>
      <trkpt lat="10.158478582296" lon="-75.6812072670831">
        <ele>52.2778713</ele>
        <time>2019-09-10T15:38:14.800Z</time>
      </trkpt>
      <trkpt lat="10.1584768829853" lon="-75.6812052198949">
        <ele>52.2778713</ele>
        <time>2019-09-10T15:38:14.900Z</time>
      </trkpt>
      <trkpt lat="10.1584751648173" lon="-75.6812031431151">
        <ele>52.2778713</ele>
        <time>2019-09-10T15:38:15.000Z</time>
      </trkpt>
      <trkpt lat="10.1584734364032" lon="-75.6812010591027">
        <ele>52.2778713</ele>
        <time>2019-09-10T15:38:15.100Z</time>
      </trkpt>
      <trkpt lat="10.1584717188475" lon="-75.6811990189818">
        <ele>52.2778713</ele>
        <time>2019-09-10T15:38:15.200Z</time>
      </trkpt>
      <trkpt lat="10.1584699990575" lon="-75.6811969775728">
        <ele>52.2778713</ele>
        <time>2019-09-10T15:38:15.300Z</time>
      </trkpt>
      <trkpt lat="10.1584682679662" lon="-75.6811949472867">
        <ele>52.2778713</ele>
        <time>2019-09-10T15:38:15.400Z</time>
      </trkpt>
      <trkpt lat="10.1584665349924" lon="-75.6811929023963">
        <ele>52.2778713</ele>
        <time>2019-09-10T15:38:15.500Z</time>
      </trkpt>
      <trkpt lat="10.1584631200965" lon="-75.6811887559474">
        <ele>52.2778713</ele>
        <time>2019-09-10T15:38:15.700Z</time>
      </trkpt>
      <trkpt lat="10.1584614060875" lon="-75.6811866546674">
        <ele>52.2778713</ele>
        <time>2019-09-10T15:38:15.800Z</time>
      </trkpt>
      <trkpt lat="10.158457956066" lon="-75.6811824693054">
        <ele>52.2778713</ele>
        <time>2019-09-10T15:38:16.000Z</time>
      </trkpt>
      <trkpt lat="10.1584562245611" lon="-75.6811803898884">
        <ele>52.2778713</ele>
        <time>2019-09-10T15:38:16.100Z</time>
      </trkpt>
      <trkpt lat="10.1584544818655" lon="-75.6811783013502">
        <ele>52.2778713</ele>
        <time>2019-09-10T15:38:16.200Z</time>
      </trkpt>
      <trkpt lat="10.1584527391959" lon="-75.6811762134997">
        <ele>52.2778713</ele>
        <time>2019-09-10T15:38:16.300Z</time>
      </trkpt>
      <trkpt lat="10.1584509867947" lon="-75.6811741158925">
        <ele>52.2778713</ele>
        <time>2019-09-10T15:38:16.400Z</time>
      </trkpt>
      <trkpt lat="10.1584492371945" lon="-75.6811720208877">
        <ele>52.2778713</ele>
        <time>2019-09-10T15:38:16.500Z</time>
      </trkpt>
      <trkpt lat="10.1584474836404" lon="-75.6811699479983">
        <ele>52.2778713</ele>
        <time>2019-09-10T15:38:16.600Z</time>
      </trkpt>
      <trkpt lat="10.1584457338513" lon="-75.6811678769976">
        <ele>52.2778713</ele>
        <time>2019-09-10T15:38:16.700Z</time>
      </trkpt>
      <trkpt lat="10.1584439845832" lon="-75.6811657942907">
        <ele>52.2778713</ele>
        <time>2019-09-10T15:38:16.800Z</time>
      </trkpt>
      <trkpt lat="10.1584422339082" lon="-75.6811637065446">
        <ele>52.2778713</ele>
        <time>2019-09-10T15:38:16.900Z</time>
      </trkpt>
      <trkpt lat="10.1584404832723" lon="-75.6811616014437">
        <ele>52.2778713</ele>
        <time>2019-09-10T15:38:17.000Z</time>
      </trkpt>
      <trkpt lat="10.1584387308321" lon="-75.6811594958294">
        <ele>52.2778713</ele>
        <time>2019-09-10T15:38:17.100Z</time>
      </trkpt>
      <trkpt lat="10.1584369502067" lon="-75.6811573828955">
        <ele>52.2778713</ele>
        <time>2019-09-10T15:38:17.200Z</time>
      </trkpt>
      <trkpt lat="10.1584351688453" lon="-75.6811552748791">
        <ele>52.2778713</ele>
        <time>2019-09-10T15:38:17.300Z</time>
      </trkpt>
      <trkpt lat="10.1584334013127" lon="-75.6811531978469">
        <ele>52.2778713</ele>
        <time>2019-09-10T15:38:17.400Z</time>
      </trkpt>
      <trkpt lat="10.1584316403133" lon="-75.6811511210931">
        <ele>52.2778713</ele>
        <time>2019-09-10T15:38:17.500Z</time>
      </trkpt>
      <trkpt lat="10.1584298322976" lon="-75.6811489698554">
        <ele>52.2778713</ele>
        <time>2019-09-10T15:38:17.600Z</time>
      </trkpt>
      <trkpt lat="10.1584280317401" lon="-75.6811468185828">
        <ele>52.2778713</ele>
        <time>2019-09-10T15:38:17.700Z</time>
      </trkpt>
      <trkpt lat="10.1584262830192" lon="-75.6811447004008">
        <ele>52.2778713</ele>
        <time>2019-09-10T15:38:17.800Z</time>
      </trkpt>
      <trkpt lat="10.158424540291" lon="-75.6811425886418">
        <ele>52.2778713</ele>
        <time>2019-09-10T15:38:17.900Z</time>
      </trkpt>
      <trkpt lat="10.1584228139515" lon="-75.6811404813826">
        <ele>52.2778713</ele>
        <time>2019-09-10T15:38:18.000Z</time>
      </trkpt>
      <trkpt lat="10.1584210788248" lon="-75.6811383735576">
        <ele>52.2778713</ele>
        <time>2019-09-10T15:38:18.100Z</time>
      </trkpt>
      <trkpt lat="10.1584193231342" lon="-75.6811362764552">
        <ele>52.2778713</ele>
        <time>2019-09-10T15:38:18.200Z</time>
      </trkpt>
      <trkpt lat="10.1584175642975" lon="-75.6811341781605">
        <ele>52.2778713</ele>
        <time>2019-09-10T15:38:18.300Z</time>
      </trkpt>
      <trkpt lat="10.1584158172181" lon="-75.6811320892916">
        <ele>52.2778713</ele>
        <time>2019-09-10T15:38:18.400Z</time>
      </trkpt>
      <trkpt lat="10.1584140692593" lon="-75.6811299982208">
        <ele>52.2778713</ele>
        <time>2019-09-10T15:38:18.500Z</time>
      </trkpt>
      <trkpt lat="10.1584123592433" lon="-75.6811279446965">
        <ele>52.2778713</ele>
        <time>2019-09-10T15:38:18.600Z</time>
      </trkpt>
      <trkpt lat="10.1584106466348" lon="-75.6811258840007">
        <ele>52.2778713</ele>
        <time>2019-09-10T15:38:18.700Z</time>
      </trkpt>
      <trkpt lat="10.1584089113063" lon="-75.6811238184657">
        <ele>52.2778713</ele>
        <time>2019-09-10T15:38:18.800Z</time>
      </trkpt>
      <trkpt lat="10.1584071639142" lon="-75.6811217391097">
        <ele>52.2778713</ele>
        <time>2019-09-10T15:38:18.900Z</time>
      </trkpt>
      <trkpt lat="10.1584054697332" lon="-75.6811197141327">
        <ele>52.2778713</ele>
        <time>2019-09-10T15:38:19.000Z</time>
      </trkpt>
      <trkpt lat="10.1584037743406" lon="-75.6811176853959">
        <ele>52.2778713</ele>
        <time>2019-09-10T15:38:19.100Z</time>
      </trkpt>
      <trkpt lat="10.1584020246231" lon="-75.6811156121322">
        <ele>52.2778713</ele>
        <time>2019-09-10T15:38:19.200Z</time>
      </trkpt>
      <trkpt lat="10.1584002603799" lon="-75.6811135171622">
        <ele>52.2778713</ele>
        <time>2019-09-10T15:38:19.300Z</time>
      </trkpt>
      <trkpt lat="10.1583984952118" lon="-75.681111405325">
        <ele>52.1778713</ele>
        <time>2019-09-10T15:38:19.400Z</time>
      </trkpt>
      <trkpt lat="10.1583967355152" lon="-75.6811092939403">
        <ele>52.1778713</ele>
        <time>2019-09-10T15:38:19.500Z</time>
      </trkpt>
      <trkpt lat="10.1583950162301" lon="-75.6811071699182">
        <ele>52.1778713</ele>
        <time>2019-09-10T15:38:19.600Z</time>
      </trkpt>
      <trkpt lat="10.1583933010616" lon="-75.6811050495515">
        <ele>52.1778713</ele>
        <time>2019-09-10T15:38:19.700Z</time>
      </trkpt>
      <trkpt lat="10.1583915926545" lon="-75.681102894023">
        <ele>52.1778713</ele>
        <time>2019-09-10T15:38:19.800Z</time>
      </trkpt>
      <trkpt lat="10.158388187031" lon="-75.6810986003032">
        <ele>52.1778713</ele>
        <time>2019-09-10T15:38:20.000Z</time>
      </trkpt>
      <trkpt lat="10.158386486232" lon="-75.681096464253">
        <ele>52.1778713</ele>
        <time>2019-09-10T15:38:20.100Z</time>
      </trkpt>
      <trkpt lat="10.1583847783069" lon="-75.6810942719611">
        <ele>52.1778713</ele>
        <time>2019-09-10T15:38:20.200Z</time>
      </trkpt>
      <trkpt lat="10.1583830574063" lon="-75.6810920892952">
        <ele>52.1778713</ele>
        <time>2019-09-10T15:38:20.300Z</time>
      </trkpt>
      <trkpt lat="10.1583813872351" lon="-75.6810899363255">
        <ele>52.1778713</ele>
        <time>2019-09-10T15:38:20.400Z</time>
      </trkpt>
      <trkpt lat="10.1583797058862" lon="-75.6810877967069">
        <ele>52.1778713</ele>
        <time>2019-09-10T15:38:20.500Z</time>
      </trkpt>
      <trkpt lat="10.1583780103243" lon="-75.6810856869584">
        <ele>52.1778713</ele>
        <time>2019-09-10T15:38:20.600Z</time>
      </trkpt>
      <trkpt lat="10.1583762941658" lon="-75.6810835787766">
        <ele>52.1778713</ele>
        <time>2019-09-10T15:38:20.700Z</time>
      </trkpt>
      <trkpt lat="10.1583745971187" lon="-75.6810814626398">
        <ele>52.1778713</ele>
        <time>2019-09-10T15:38:20.800Z</time>
      </trkpt>
      <trkpt lat="10.1583728916428" lon="-75.681079342395">
        <ele>52.1778713</ele>
        <time>2019-09-10T15:38:20.900Z</time>
      </trkpt>
      <trkpt lat="10.1583712047832" lon="-75.6810772656152">
        <ele>52.1778713</ele>
        <time>2019-09-10T15:38:21.000Z</time>
      </trkpt>
      <trkpt lat="10.1583695163734" lon="-75.6810751858066">
        <ele>52.1778713</ele>
        <time>2019-09-10T15:38:21.100Z</time>
      </trkpt>
      <trkpt lat="10.1583677939877" lon="-75.6810730606182">
        <ele>52.2778713</ele>
        <time>2019-09-10T15:38:21.200Z</time>
      </trkpt>
      <trkpt lat="10.1583660620659" lon="-75.6810709304341">
        <ele>52.2778713</ele>
        <time>2019-09-10T15:38:21.300Z</time>
      </trkpt>
      <trkpt lat="10.1583643259231" lon="-75.6810687820076">
        <ele>52.2778713</ele>
        <time>2019-09-10T15:38:21.400Z</time>
      </trkpt>
      <trkpt lat="10.1583625547623" lon="-75.6810666492473">
        <ele>52.2778713</ele>
        <time>2019-09-10T15:38:21.500Z</time>
      </trkpt>
      <trkpt lat="10.1583606945842" lon="-75.6810645326753">
        <ele>52.2778713</ele>
        <time>2019-09-10T15:38:21.600Z</time>
      </trkpt>
      <trkpt lat="10.1583588058758" lon="-75.6810624516656">
        <ele>52.2778713</ele>
        <time>2019-09-10T15:38:21.700Z</time>
      </trkpt>
      <trkpt lat="10.1583568741373" lon="-75.6810604157572">
        <ele>52.2778713</ele>
        <time>2019-09-10T15:38:21.800Z</time>
      </trkpt>
      <trkpt lat="10.1583549596213" lon="-75.6810584098407">
        <ele>52.2778713</ele>
        <time>2019-09-10T15:38:21.900Z</time>
      </trkpt>
      <trkpt lat="10.1583530519969" lon="-75.6810563867611">
        <ele>52.2778713</ele>
        <time>2019-09-10T15:38:22.000Z</time>
      </trkpt>
      <trkpt lat="10.1583512104352" lon="-75.6810543407393">
        <ele>52.2778713</ele>
        <time>2019-09-10T15:38:22.100Z</time>
      </trkpt>
      <trkpt lat="10.1583494539043" lon="-75.6810523199748">
        <ele>52.2778713</ele>
        <time>2019-09-10T15:38:22.200Z</time>
      </trkpt>
      <trkpt lat="10.1583477460183" lon="-75.6810503022391">
        <ele>52.2778713</ele>
        <time>2019-09-10T15:38:22.300Z</time>
      </trkpt>
      <trkpt lat="10.1583460619596" lon="-75.6810482715353">
        <ele>52.3778713</ele>
        <time>2019-09-10T15:38:22.400Z</time>
      </trkpt>
      <trkpt lat="10.1583443970125" lon="-75.6810462469239">
        <ele>52.3778713</ele>
        <time>2019-09-10T15:38:22.500Z</time>
      </trkpt>
      <trkpt lat="10.1583427561923" lon="-75.6810442587799">
        <ele>52.3778713</ele>
        <time>2019-09-10T15:38:22.600Z</time>
      </trkpt>
      <trkpt lat="10.158341121482" lon="-75.6810422728466">
        <ele>52.3778713</ele>
        <time>2019-09-10T15:38:22.700Z</time>
      </trkpt>
      <trkpt lat="10.1583394509721" lon="-75.6810402628569">
        <ele>52.3778713</ele>
        <time>2019-09-10T15:38:22.800Z</time>
      </trkpt>
      <trkpt lat="10.1583377793678" lon="-75.6810382421273">
        <ele>52.2778713</ele>
        <time>2019-09-10T15:38:22.900Z</time>
      </trkpt>
      <trkpt lat="10.1583361132742" lon="-75.6810362623908">
        <ele>52.2778713</ele>
        <time>2019-09-10T15:38:23.000Z</time>
      </trkpt>
      <trkpt lat="10.1583344466594" lon="-75.6810342862576">
        <ele>52.2778713</ele>
        <time>2019-09-10T15:38:23.100Z</time>
      </trkpt>
      <trkpt lat="10.1583328017747" lon="-75.6810323733983">
        <ele>52.2778713</ele>
        <time>2019-09-10T15:38:23.200Z</time>
      </trkpt>
      <trkpt lat="10.1583311402928" lon="-75.6810304424011">
        <ele>52.2778713</ele>
        <time>2019-09-10T15:38:23.300Z</time>
      </trkpt>
      <trkpt lat="10.1583278019305" lon="-75.6810265051741">
        <ele>52.2778713</ele>
        <time>2019-09-10T15:38:23.500Z</time>
      </trkpt>
      <trkpt lat="10.1583243496813" lon="-75.6810225399047">
        <ele>52.2778713</ele>
        <time>2019-09-10T15:38:23.700Z</time>
      </trkpt>
      <trkpt lat="10.1583226268397" lon="-75.6810205377656">
        <ele>52.2778713</ele>
        <time>2019-09-10T15:38:23.800Z</time>
      </trkpt>
      <trkpt lat="10.1583191826546" lon="-75.6810164001158">
        <ele>52.2778713</ele>
        <time>2019-09-10T15:38:24.000Z</time>
      </trkpt>
      <trkpt lat="10.158317450863" lon="-75.6810142877737">
        <ele>52.2778713</ele>
        <time>2019-09-10T15:38:24.100Z</time>
      </trkpt>
      <trkpt lat="10.1583157222372" lon="-75.6810121818374">
        <ele>52.2778713</ele>
        <time>2019-09-10T15:38:24.200Z</time>
      </trkpt>
      <trkpt lat="10.1583139998254" lon="-75.6810100829857">
        <ele>52.2778713</ele>
        <time>2019-09-10T15:38:24.300Z</time>
      </trkpt>
      <trkpt lat="10.1583122753032" lon="-75.6810079410867">
        <ele>52.2778713</ele>
        <time>2019-09-10T15:38:24.400Z</time>
      </trkpt>
      <trkpt lat="10.1583105450359" lon="-75.6810058035569">
        <ele>52.2778713</ele>
        <time>2019-09-10T15:38:24.500Z</time>
      </trkpt>
      <trkpt lat="10.1583088321864" lon="-75.6810036636423">
        <ele>52.2778713</ele>
        <time>2019-09-10T15:38:24.600Z</time>
      </trkpt>
      <trkpt lat="10.1583071097747" lon="-75.6810015346419">
        <ele>52.2778713</ele>
        <time>2019-09-10T15:38:24.700Z</time>
      </trkpt>
      <trkpt lat="10.1583054314482" lon="-75.6809994423525">
        <ele>52.2778713</ele>
        <time>2019-09-10T15:38:24.800Z</time>
      </trkpt>
      <trkpt lat="10.1583037390259" lon="-75.6809973513687">
        <ele>52.2778713</ele>
        <time>2019-09-10T15:38:24.900Z</time>
      </trkpt>
      <trkpt lat="10.1583020077554" lon="-75.6809952336653">
        <ele>52.2778713</ele>
        <time>2019-09-10T15:38:25.000Z</time>
      </trkpt>
      <trkpt lat="10.1583002575168" lon="-75.6809931066144">
        <ele>52.2778713</ele>
        <time>2019-09-10T15:38:25.100Z</time>
      </trkpt>
      <trkpt lat="10.1582985031746" lon="-75.6809909781014">
        <ele>52.2778713</ele>
        <time>2019-09-10T15:38:25.200Z</time>
      </trkpt>
      <trkpt lat="10.1582967392961" lon="-75.6809888389005">
        <ele>52.2778713</ele>
        <time>2019-09-10T15:38:25.300Z</time>
      </trkpt>
      <trkpt lat="10.1582949374033" lon="-75.680986657279">
        <ele>52.2778713</ele>
        <time>2019-09-10T15:38:25.400Z</time>
      </trkpt>
      <trkpt lat="10.1582931262609" lon="-75.6809844586511">
        <ele>52.2778713</ele>
        <time>2019-09-10T15:38:25.500Z</time>
      </trkpt>
      <trkpt lat="10.1582913533935" lon="-75.6809822813291">
        <ele>52.2778713</ele>
        <time>2019-09-10T15:38:25.600Z</time>
      </trkpt>
      <trkpt lat="10.1582895735954" lon="-75.680980105156">
        <ele>52.2778713</ele>
        <time>2019-09-10T15:38:25.700Z</time>
      </trkpt>
      <trkpt lat="10.1582877948916" lon="-75.6809779092436">
        <ele>52.2778713</ele>
        <time>2019-09-10T15:38:25.800Z</time>
      </trkpt>
      <trkpt lat="10.158286010117" lon="-75.6809757040358">
        <ele>52.2778713</ele>
        <time>2019-09-10T15:38:25.900Z</time>
      </trkpt>
      <trkpt lat="10.158284236051" lon="-75.6809734954163">
        <ele>52.2778713</ele>
        <time>2019-09-10T15:38:26.000Z</time>
      </trkpt>
      <trkpt lat="10.1582788496794" lon="-75.6809668947977">
        <ele>52.2778713</ele>
        <time>2019-09-10T15:38:26.300Z</time>
      </trkpt>
      <trkpt lat="10.1582770471873" lon="-75.6809647052909">
        <ele>52.2778713</ele>
        <time>2019-09-10T15:38:26.400Z</time>
      </trkpt>
      <trkpt lat="10.1582752516258" lon="-75.6809625248706">
        <ele>52.2778713</ele>
        <time>2019-09-10T15:38:26.500Z</time>
      </trkpt>
      <trkpt lat="10.1582734625" lon="-75.6809603483494">
        <ele>52.2778713</ele>
        <time>2019-09-10T15:38:26.600Z</time>
      </trkpt>
      <trkpt lat="10.1582716784549" lon="-75.6809581780946">
        <ele>52.2778713</ele>
        <time>2019-09-10T15:38:26.700Z</time>
      </trkpt>
      <trkpt lat="10.1582699308088" lon="-75.680956031548">
        <ele>52.2778713</ele>
        <time>2019-09-10T15:38:26.800Z</time>
      </trkpt>
      <trkpt lat="10.1582681839965" lon="-75.6809538900842">
        <ele>52.2778713</ele>
        <time>2019-09-10T15:38:26.900Z</time>
      </trkpt>
      <trkpt lat="10.1582664328069" lon="-75.6809517305173">
        <ele>52.2778713</ele>
        <time>2019-09-10T15:38:27.000Z</time>
      </trkpt>
      <trkpt lat="10.1582646757549" lon="-75.680949573631">
        <ele>52.2778713</ele>
        <time>2019-09-10T15:38:27.100Z</time>
      </trkpt>
      <trkpt lat="10.1582629078119" lon="-75.6809474205046">
        <ele>52.2778713</ele>
        <time>2019-09-10T15:38:27.200Z</time>
      </trkpt>
      <trkpt lat="10.1582611395562" lon="-75.6809452732618">
        <ele>52.2778713</ele>
        <time>2019-09-10T15:38:27.300Z</time>
      </trkpt>
      <trkpt lat="10.1582576344673" lon="-75.6809410451659">
        <ele>52.2778713</ele>
        <time>2019-09-10T15:38:27.500Z</time>
      </trkpt>
      <trkpt lat="10.1582541540265" lon="-75.6809368679677">
        <ele>52.2778713</ele>
        <time>2019-09-10T15:38:27.700Z</time>
      </trkpt>
      <trkpt lat="10.1582506795784" lon="-75.6809327048343">
        <ele>52.2778713</ele>
        <time>2019-09-10T15:38:27.900Z</time>
      </trkpt>
      <trkpt lat="10.1582489177323" lon="-75.6809306230065">
        <ele>52.2778713</ele>
        <time>2019-09-10T15:38:28.000Z</time>
      </trkpt>
      <trkpt lat="10.1582471525772" lon="-75.6809285288546">
        <ele>52.2778713</ele>
        <time>2019-09-10T15:38:28.100Z</time>
      </trkpt>
      <trkpt lat="10.1582454009446" lon="-75.6809264408648">
        <ele>52.2778713</ele>
        <time>2019-09-10T15:38:28.200Z</time>
      </trkpt>
      <trkpt lat="10.1582436511099" lon="-75.680924344067">
        <ele>52.2778713</ele>
        <time>2019-09-10T15:38:28.300Z</time>
      </trkpt>
      <trkpt lat="10.158241910186" lon="-75.6809222515514">
        <ele>52.2778713</ele>
        <time>2019-09-10T15:38:28.400Z</time>
      </trkpt>
      <trkpt lat="10.1582401656144" lon="-75.6809201521078">
        <ele>52.2778713</ele>
        <time>2019-09-10T15:38:28.500Z</time>
      </trkpt>
      <trkpt lat="10.1582383981404" lon="-75.680918054196">
        <ele>52.2778713</ele>
        <time>2019-09-10T15:38:28.600Z</time>
      </trkpt>
      <trkpt lat="10.1582366280087" lon="-75.6809159476505">
        <ele>52.2778713</ele>
        <time>2019-09-10T15:38:28.700Z</time>
      </trkpt>
      <trkpt lat="10.1582348705399" lon="-75.6809138152731">
        <ele>52.2778713</ele>
        <time>2019-09-10T15:38:28.800Z</time>
      </trkpt>
      <trkpt lat="10.1582331143998" lon="-75.6809116833135">
        <ele>52.2778713</ele>
        <time>2019-09-10T15:38:28.900Z</time>
      </trkpt>
      <trkpt lat="10.1582313698282" lon="-75.6809095620416">
        <ele>52.2778713</ele>
        <time>2019-09-10T15:38:29.000Z</time>
      </trkpt>
      <trkpt lat="10.1582296247616" lon="-75.6809074434157">
        <ele>52.2778713</ele>
        <time>2019-09-10T15:38:29.100Z</time>
      </trkpt>
      <trkpt lat="10.158227896761" lon="-75.6809052980528">
        <ele>52.1778713</ele>
        <time>2019-09-10T15:38:29.200Z</time>
      </trkpt>
      <trkpt lat="10.1582244518333" lon="-75.6809009964651">
        <ele>52.1778713</ele>
        <time>2019-09-10T15:38:29.400Z</time>
      </trkpt>
      <trkpt lat="10.1582227315451" lon="-75.6808988486652">
        <ele>52.1778713</ele>
        <time>2019-09-10T15:38:29.500Z</time>
      </trkpt>
      <trkpt lat="10.1582210492973" lon="-75.6808966584621">
        <ele>52.1778713</ele>
        <time>2019-09-10T15:38:29.600Z</time>
      </trkpt>
      <trkpt lat="10.1582193622554" lon="-75.6808944883118">
        <ele>52.1778713</ele>
        <time>2019-09-10T15:38:29.700Z</time>
      </trkpt>
      <trkpt lat="10.1582176700806" lon="-75.6808923505383">
        <ele>52.2778713</ele>
        <time>2019-09-10T15:38:29.800Z</time>
      </trkpt>
      <trkpt lat="10.1582159703759" lon="-75.6808902342449">
        <ele>52.2778713</ele>
        <time>2019-09-10T15:38:29.900Z</time>
      </trkpt>
      <trkpt lat="10.1582142873465" lon="-75.6808881151663">
        <ele>52.2778713</ele>
        <time>2019-09-10T15:38:30.000Z</time>
      </trkpt>
      <trkpt lat="10.1582125954583" lon="-75.680886002598">
        <ele>52.2778713</ele>
        <time>2019-09-10T15:38:30.100Z</time>
      </trkpt>
      <trkpt lat="10.1582108776453" lon="-75.6808838979323">
        <ele>52.2778713</ele>
        <time>2019-09-10T15:38:30.200Z</time>
      </trkpt>
      <trkpt lat="10.1582091531622" lon="-75.6808817965044">
        <ele>52.2778713</ele>
        <time>2019-09-10T15:38:30.300Z</time>
      </trkpt>
      <trkpt lat="10.1582074054119" lon="-75.6808796997067">
        <ele>52.2778713</ele>
        <time>2019-09-10T15:38:30.400Z</time>
      </trkpt>
      <trkpt lat="10.1582056587819" lon="-75.6808776012031">
        <ele>52.2778713</ele>
        <time>2019-09-10T15:38:30.500Z</time>
      </trkpt>
      <trkpt lat="10.1582039288012" lon="-75.680875538488">
        <ele>52.2778713</ele>
        <time>2019-09-10T15:38:30.600Z</time>
      </trkpt>
      <trkpt lat="10.1582021999147" lon="-75.6808734755641">
        <ele>52.2778713</ele>
        <time>2019-09-10T15:38:30.700Z</time>
      </trkpt>
      <trkpt lat="10.1582004644885" lon="-75.6808714453302">
        <ele>52.2778713</ele>
        <time>2019-09-10T15:38:30.800Z</time>
      </trkpt>
      <trkpt lat="10.1581987287756" lon="-75.6808694101528">
        <ele>52.2778713</ele>
        <time>2019-09-10T15:38:30.900Z</time>
      </trkpt>
      <trkpt lat="10.1581969601031" lon="-75.6808673234163">
        <ele>52.2778713</ele>
        <time>2019-09-10T15:38:31.000Z</time>
      </trkpt>
      <trkpt lat="10.1581952077149" lon="-75.6808652275585">
        <ele>52.2778713</ele>
        <time>2019-09-10T15:38:31.100Z</time>
      </trkpt>
      <trkpt lat="10.1581934621011" lon="-75.6808631295771">
        <ele>52.2778713</ele>
        <time>2019-09-10T15:38:31.200Z</time>
      </trkpt>
      <trkpt lat="10.1581917190407" lon="-75.6808610516137">
        <ele>52.2778713</ele>
        <time>2019-09-10T15:38:31.300Z</time>
      </trkpt>
      <trkpt lat="10.1581899911184" lon="-75.6808589896297">
        <ele>52.2778713</ele>
        <time>2019-09-10T15:38:31.400Z</time>
      </trkpt>
      <trkpt lat="10.1581882545196" lon="-75.6808569264272">
        <ele>52.2778713</ele>
        <time>2019-09-10T15:38:31.500Z</time>
      </trkpt>
      <trkpt lat="10.1581865065348" lon="-75.6808548649655">
        <ele>52.2778713</ele>
        <time>2019-09-10T15:38:31.600Z</time>
      </trkpt>
      <trkpt lat="10.158184753808" lon="-75.680852793164">
        <ele>52.2778713</ele>
        <time>2019-09-10T15:38:31.700Z</time>
      </trkpt>
      <trkpt lat="10.1581830086371" lon="-75.6808506930242">
        <ele>52.2778713</ele>
        <time>2019-09-10T15:38:31.800Z</time>
      </trkpt>
      <trkpt lat="10.1581812585158" lon="-75.6808485941028">
        <ele>52.2778713</ele>
        <time>2019-09-10T15:38:31.900Z</time>
      </trkpt>
      <trkpt lat="10.1581777707535" lon="-75.6808443741533">
        <ele>52.2778713</ele>
        <time>2019-09-10T15:38:32.100Z</time>
      </trkpt>
      <trkpt lat="10.1581760297775" lon="-75.6808422668418">
        <ele>52.2778713</ele>
        <time>2019-09-10T15:38:32.200Z</time>
      </trkpt>
      <trkpt lat="10.1581725045741" lon="-75.6808380970242">
        <ele>52.3778713</ele>
        <time>2019-09-10T15:38:32.400Z</time>
      </trkpt>
      <trkpt lat="10.1581707251147" lon="-75.6808360350054">
        <ele>52.2778713</ele>
        <time>2019-09-10T15:38:32.500Z</time>
      </trkpt>
      <trkpt lat="10.1581689576928" lon="-75.6808339661631">
        <ele>52.2778713</ele>
        <time>2019-09-10T15:38:32.600Z</time>
      </trkpt>
      <trkpt lat="10.1581671966283" lon="-75.6808318947098">
        <ele>52.2778713</ele>
        <time>2019-09-10T15:38:32.700Z</time>
      </trkpt>
      <trkpt lat="10.1581654627132" lon="-75.6808298403152">
        <ele>52.2778713</ele>
        <time>2019-09-10T15:38:32.800Z</time>
      </trkpt>
      <trkpt lat="10.1581637327846" lon="-75.6808277871391">
        <ele>52.2778713</ele>
        <time>2019-09-10T15:38:32.900Z</time>
      </trkpt>
      <trkpt lat="10.1581619916002" lon="-75.6808257456605">
        <ele>52.2778713</ele>
        <time>2019-09-10T15:38:33.000Z</time>
      </trkpt>
      <trkpt lat="10.1581602460645" lon="-75.6808236946776">
        <ele>52.2778713</ele>
        <time>2019-09-10T15:38:33.100Z</time>
      </trkpt>
      <trkpt lat="10.1581584704613" lon="-75.6808216170623">
        <ele>52.2778713</ele>
        <time>2019-09-10T15:38:33.200Z</time>
      </trkpt>
      <trkpt lat="10.1581566941025" lon="-75.680819533076">
        <ele>52.2778713</ele>
        <time>2019-09-10T15:38:33.300Z</time>
      </trkpt>
      <trkpt lat="10.1581549477852" lon="-75.6808174905181">
        <ele>52.2778713</ele>
        <time>2019-09-10T15:38:33.400Z</time>
      </trkpt>
      <trkpt lat="10.1581532028488" lon="-75.6808154443396">
        <ele>52.2778713</ele>
        <time>2019-09-10T15:38:33.500Z</time>
      </trkpt>
      <trkpt lat="10.1581514689859" lon="-75.6808134061683">
        <ele>52.2778713</ele>
        <time>2019-09-10T15:38:33.600Z</time>
      </trkpt>
      <trkpt lat="10.1581497329604" lon="-75.6808113520174">
        <ele>52.2778713</ele>
        <time>2019-09-10T15:38:33.700Z</time>
      </trkpt>
      <trkpt lat="10.1581479800251" lon="-75.6808092720347">
        <ele>52.2778713</ele>
        <time>2019-09-10T15:38:33.800Z</time>
      </trkpt>
      <trkpt lat="10.1581462294348" lon="-75.6808071797628">
        <ele>52.2778713</ele>
        <time>2019-09-10T15:38:33.900Z</time>
      </trkpt>
      <trkpt lat="10.1581444957802" lon="-75.6808050634693">
        <ele>52.2778713</ele>
        <time>2019-09-10T15:38:34.000Z</time>
      </trkpt>
      <trkpt lat="10.1581427664248" lon="-75.6808029467929">
        <ele>52.2778713</ele>
        <time>2019-09-10T15:38:34.100Z</time>
      </trkpt>
      <trkpt lat="10.1581410665377" lon="-75.6808008304647">
        <ele>52.2778713</ele>
        <time>2019-09-10T15:38:34.200Z</time>
      </trkpt>
      <trkpt lat="10.1581393589123" lon="-75.6807987242672">
        <ele>52.2778713</ele>
        <time>2019-09-10T15:38:34.300Z</time>
      </trkpt>
      <trkpt lat="10.1581376115007" lon="-75.6807965800532">
        <ele>52.2778713</ele>
        <time>2019-09-10T15:38:34.400Z</time>
      </trkpt>
      <trkpt lat="10.1581358572366" lon="-75.680794433611">
        <ele>52.2778713</ele>
        <time>2019-09-10T15:38:34.500Z</time>
      </trkpt>
      <trkpt lat="10.1581341321542" lon="-75.6807923247329">
        <ele>52.2778713</ele>
        <time>2019-09-10T15:38:34.600Z</time>
      </trkpt>
      <trkpt lat="10.158132413299" lon="-75.6807902301633">
        <ele>52.2778713</ele>
        <time>2019-09-10T15:38:34.700Z</time>
      </trkpt>
      <trkpt lat="10.1581306690401" lon="-75.6807881194052">
        <ele>52.2778713</ele>
        <time>2019-09-10T15:38:34.800Z</time>
      </trkpt>
      <trkpt lat="10.1581289303048" lon="-75.6807860066628">
        <ele>52.2778713</ele>
        <time>2019-09-10T15:38:34.900Z</time>
      </trkpt>
      <trkpt lat="10.1581272174162" lon="-75.6807839728432">
        <ele>52.2778713</ele>
        <time>2019-09-10T15:38:35.000Z</time>
      </trkpt>
      <trkpt lat="10.1581255040326" lon="-75.680781948841">
        <ele>52.2778713</ele>
        <time>2019-09-10T15:38:35.100Z</time>
      </trkpt>
      <trkpt lat="10.1581237814776" lon="-75.6807798927057">
        <ele>52.2778713</ele>
        <time>2019-09-10T15:38:35.200Z</time>
      </trkpt>
      <trkpt lat="10.1581220524869" lon="-75.680777823585">
        <ele>52.2778713</ele>
        <time>2019-09-10T15:38:35.300Z</time>
      </trkpt>
      <trkpt lat="10.1581203447312" lon="-75.6807758002094">
        <ele>52.2778713</ele>
        <time>2019-09-10T15:38:35.400Z</time>
      </trkpt>
      <trkpt lat="10.158118644323" lon="-75.6807737678172">
        <ele>52.2778713</ele>
        <time>2019-09-10T15:38:35.500Z</time>
      </trkpt>
      <trkpt lat="10.158116940684" lon="-75.680771764007">
        <ele>52.2778713</ele>
        <time>2019-09-10T15:38:35.600Z</time>
      </trkpt>
      <trkpt lat="10.1581152359246" lon="-75.68076973903">
        <ele>52.3778713</ele>
        <time>2019-09-10T15:38:35.700Z</time>
      </trkpt>
      <trkpt lat="10.1581135138906" lon="-75.6807676831385">
        <ele>52.3778713</ele>
        <time>2019-09-10T15:38:35.800Z</time>
      </trkpt>
      <trkpt lat="10.1581117828156" lon="-75.6807656098748">
        <ele>52.3778713</ele>
        <time>2019-09-10T15:38:35.900Z</time>
      </trkpt>
      <trkpt lat="10.1581100536686" lon="-75.6807635773085">
        <ele>52.2778713</ele>
        <time>2019-09-10T15:38:36.000Z</time>
      </trkpt>
      <trkpt lat="10.15810831806" lon="-75.6807615403556">
        <ele>52.2778713</ele>
        <time>2019-09-10T15:38:36.100Z</time>
      </trkpt>
      <trkpt lat="10.1581065981626" lon="-75.680759475134">
        <ele>52.2778713</ele>
        <time>2019-09-10T15:38:36.200Z</time>
      </trkpt>
      <trkpt lat="10.1581048756336" lon="-75.6807573895114">
        <ele>52.2778713</ele>
        <time>2019-09-10T15:38:36.300Z</time>
      </trkpt>
      <trkpt lat="10.1581031563875" lon="-75.6807553007209">
        <ele>52.3778713</ele>
        <time>2019-09-10T15:38:36.400Z</time>
      </trkpt>
      <trkpt lat="10.1581014421701" lon="-75.6807531757588">
        <ele>52.3778713</ele>
        <time>2019-09-10T15:38:36.500Z</time>
      </trkpt>
      <trkpt lat="10.1580980199625" lon="-75.6807489035191">
        <ele>52.3778713</ele>
        <time>2019-09-10T15:38:36.700Z</time>
      </trkpt>
      <trkpt lat="10.1580963230978" lon="-75.6807467383471">
        <ele>52.3778713</ele>
        <time>2019-09-10T15:38:36.800Z</time>
      </trkpt>
      <trkpt lat="10.1580946325906" lon="-75.6807445625222">
        <ele>52.3778713</ele>
        <time>2019-09-10T15:38:36.900Z</time>
      </trkpt>
      <trkpt lat="10.1580929285607" lon="-75.6807423901786">
        <ele>52.3778713</ele>
        <time>2019-09-10T15:38:37.000Z</time>
      </trkpt>
      <trkpt lat="10.158091226485" lon="-75.6807402202372">
        <ele>52.2778713</ele>
        <time>2019-09-10T15:38:37.100Z</time>
      </trkpt>
      <trkpt lat="10.1580895394431" lon="-75.6807380396427">
        <ele>52.2778713</ele>
        <time>2019-09-10T15:38:37.200Z</time>
      </trkpt>
      <trkpt lat="10.1580878421094" lon="-75.6807358732871">
        <ele>52.2778713</ele>
        <time>2019-09-10T15:38:37.300Z</time>
      </trkpt>
      <trkpt lat="10.1580861674697" lon="-75.6807337305352">
        <ele>52.2778713</ele>
        <time>2019-09-10T15:38:37.400Z</time>
      </trkpt>
      <trkpt lat="10.1580844761547" lon="-75.680731584302">
        <ele>52.2778713</ele>
        <time>2019-09-10T15:38:37.500Z</time>
      </trkpt>
      <trkpt lat="10.1580827547982" lon="-75.6807294362932">
        <ele>52.2778713</ele>
        <time>2019-09-10T15:38:37.600Z</time>
      </trkpt>
      <trkpt lat="10.1580810186685" lon="-75.6807272775618">
        <ele>52.2778713</ele>
        <time>2019-09-10T15:38:37.700Z</time>
      </trkpt>
      <trkpt lat="10.1580792953318" lon="-75.6807251228688">
        <ele>52.2778713</ele>
        <time>2019-09-10T15:38:37.800Z</time>
      </trkpt>
      <trkpt lat="10.1580775613646" lon="-75.6807229699861">
        <ele>52.2778713</ele>
        <time>2019-09-10T15:38:37.900Z</time>
      </trkpt>
      <trkpt lat="10.1580758222907" lon="-75.6807208357636">
        <ele>52.2778713</ele>
        <time>2019-09-10T15:38:38.000Z</time>
      </trkpt>
      <trkpt lat="10.1580740789437" lon="-75.6807187122289">
        <ele>52.2778713</ele>
        <time>2019-09-10T15:38:38.100Z</time>
      </trkpt>
      <trkpt lat="10.158072306467" lon="-75.6807165602514">
        <ele>52.2778713</ele>
        <time>2019-09-10T15:38:38.200Z</time>
      </trkpt>
      <trkpt lat="10.1580705411295" lon="-75.6807144121382">
        <ele>52.2778713</ele>
        <time>2019-09-10T15:38:38.300Z</time>
      </trkpt>
      <trkpt lat="10.1580687565112" lon="-75.6807122511787">
        <ele>52.2778713</ele>
        <time>2019-09-10T15:38:38.400Z</time>
      </trkpt>
      <trkpt lat="10.1580669824713" lon="-75.6807100983656">
        <ele>52.2778713</ele>
        <time>2019-09-10T15:38:38.500Z</time>
      </trkpt>
      <trkpt lat="10.1580652236476" lon="-75.6807079727769">
        <ele>52.2778713</ele>
        <time>2019-09-10T15:38:38.600Z</time>
      </trkpt>
      <trkpt lat="10.1580634735784" lon="-75.6807058616359">
        <ele>52.2778713</ele>
        <time>2019-09-10T15:38:38.700Z</time>
      </trkpt>
      <trkpt lat="10.1580617314299" lon="-75.680703777406">
        <ele>52.2778713</ele>
        <time>2019-09-10T15:38:38.800Z</time>
      </trkpt>
      <trkpt lat="10.1580599919911" lon="-75.6807016823837">
        <ele>52.2778713</ele>
        <time>2019-09-10T15:38:38.900Z</time>
      </trkpt>
      <trkpt lat="10.1580582506764" lon="-75.6806995675525">
        <ele>52.2778713</ele>
        <time>2019-09-10T15:38:39.000Z</time>
      </trkpt>
      <trkpt lat="10.1580564985749" lon="-75.6806974559241">
        <ele>52.2778713</ele>
        <time>2019-09-10T15:38:39.100Z</time>
      </trkpt>
      <trkpt lat="10.1580547768015" lon="-75.6806953921994">
        <ele>52.2778713</ele>
        <time>2019-09-10T15:38:39.200Z</time>
      </trkpt>
      <trkpt lat="10.1580530554972" lon="-75.6806933255852">
        <ele>52.2778713</ele>
        <time>2019-09-10T15:38:39.300Z</time>
      </trkpt>
      <trkpt lat="10.1580513095967" lon="-75.6806912561859">
        <ele>52.2778713</ele>
        <time>2019-09-10T15:38:39.400Z</time>
      </trkpt>
      <trkpt lat="10.1580495618204" lon="-75.6806891752285">
        <ele>52.2778713</ele>
        <time>2019-09-10T15:38:39.500Z</time>
      </trkpt>
      <trkpt lat="10.158047792783" lon="-75.6806870517286">
        <ele>52.2778713</ele>
        <time>2019-09-10T15:38:39.600Z</time>
      </trkpt>
      <trkpt lat="10.1580460249963" lon="-75.6806849311531">
        <ele>52.2778713</ele>
        <time>2019-09-10T15:38:39.700Z</time>
      </trkpt>
      <trkpt lat="10.15804426685" lon="-75.6806828118308">
        <ele>52.2778713</ele>
        <time>2019-09-10T15:38:39.800Z</time>
      </trkpt>
      <trkpt lat="10.1580425209496" lon="-75.6806806957811">
        <ele>52.2778713</ele>
        <time>2019-09-10T15:38:39.900Z</time>
      </trkpt>
      <trkpt lat="10.1580407889627" lon="-75.6806785724205">
        <ele>52.2778713</ele>
        <time>2019-09-10T15:38:40.000Z</time>
      </trkpt>
      <trkpt lat="10.1580390564025" lon="-75.6806764475977">
        <ele>52.2778713</ele>
        <time>2019-09-10T15:38:40.100Z</time>
      </trkpt>
      <trkpt lat="10.1580373084176" lon="-75.6806743031399">
        <ele>52.2778713</ele>
        <time>2019-09-10T15:38:40.200Z</time>
      </trkpt>
      <trkpt lat="10.1580355531374" lon="-75.6806721774816">
        <ele>52.2778713</ele>
        <time>2019-09-10T15:38:40.300Z</time>
      </trkpt>
      <trkpt lat="10.1580338314161" lon="-75.6806700797439">
        <ele>52.2778713</ele>
        <time>2019-09-10T15:38:40.400Z</time>
      </trkpt>
      <trkpt lat="10.1580321185015" lon="-75.6806679980205">
        <ele>52.2778713</ele>
        <time>2019-09-10T15:38:40.500Z</time>
      </trkpt>
      <trkpt lat="10.1580304204383" lon="-75.6806659227029">
        <ele>52.2778713</ele>
        <time>2019-09-10T15:38:40.600Z</time>
      </trkpt>
      <trkpt lat="10.1580287205512" lon="-75.6806638482208">
        <ele>52.3778713</ele>
        <time>2019-09-10T15:38:40.700Z</time>
      </trkpt>
      <trkpt lat="10.1580270732954" lon="-75.6806617981083">
        <ele>52.3778713</ele>
        <time>2019-09-10T15:38:40.800Z</time>
      </trkpt>
      <trkpt lat="10.158025417233" lon="-75.6806597476477">
        <ele>52.3778713</ele>
        <time>2019-09-10T15:38:40.900Z</time>
      </trkpt>
      <trkpt lat="10.1580202466497" lon="-75.6806532020348">
        <ele>52.3778713</ele>
        <time>2019-09-10T15:38:41.200Z</time>
      </trkpt>
      <trkpt lat="10.158018528993" lon="-75.6806510334859">
        <ele>52.3778713</ele>
        <time>2019-09-10T15:38:41.300Z</time>
      </trkpt>
      <trkpt lat="10.1580167688665" lon="-75.6806488072158">
        <ele>52.3778713</ele>
        <time>2019-09-10T15:38:41.400Z</time>
      </trkpt>
      <trkpt lat="10.1580150060824" lon="-75.6806466013466">
        <ele>52.3778713</ele>
        <time>2019-09-10T15:38:41.500Z</time>
      </trkpt>
      <trkpt lat="10.1580132788375" lon="-75.6806444448433">
        <ele>52.3778713</ele>
        <time>2019-09-10T15:38:41.600Z</time>
      </trkpt>
      <trkpt lat="10.1580115449745" lon="-75.6806423133363">
        <ele>52.3778713</ele>
        <time>2019-09-10T15:38:41.700Z</time>
      </trkpt>
      <trkpt lat="10.1580098118932" lon="-75.6806402323788">
        <ele>52.3778713</ele>
        <time>2019-09-10T15:38:41.800Z</time>
      </trkpt>
      <trkpt lat="10.1580080720897" lon="-75.6806381617262">
        <ele>52.3778713</ele>
        <time>2019-09-10T15:38:41.900Z</time>
      </trkpt>
      <trkpt lat="10.1580063295765" lon="-75.6806361487948">
        <ele>52.2778713</ele>
        <time>2019-09-10T15:38:42.000Z</time>
      </trkpt>
      <trkpt lat="10.1580045846662" lon="-75.6806341253497">
        <ele>52.2778713</ele>
        <time>2019-09-10T15:38:42.100Z</time>
      </trkpt>
      <trkpt lat="10.1580028577339" lon="-75.680632093967">
        <ele>52.2778713</ele>
        <time>2019-09-10T15:38:42.200Z</time>
      </trkpt>
      <trkpt lat="10.1580011343451" lon="-75.6806300542986">
        <ele>52.2778713</ele>
        <time>2019-09-10T15:38:42.300Z</time>
      </trkpt>
      <trkpt lat="10.1579994158547" lon="-75.6806280622555">
        <ele>52.2778713</ele>
        <time>2019-09-10T15:38:42.400Z</time>
      </trkpt>
      <trkpt lat="10.1579976860042" lon="-75.6806260606038">
        <ele>52.2778713</ele>
        <time>2019-09-10T15:38:42.500Z</time>
      </trkpt>
      <trkpt lat="10.1579959793949" lon="-75.680624060275">
        <ele>52.2778713</ele>
        <time>2019-09-10T15:38:42.600Z</time>
      </trkpt>
      <trkpt lat="10.1579942572046" lon="-75.6806220521479">
        <ele>52.2778713</ele>
        <time>2019-09-10T15:38:42.700Z</time>
      </trkpt>
      <trkpt lat="10.1579925280837" lon="-75.6806200747961">
        <ele>52.2778713</ele>
        <time>2019-09-10T15:38:42.800Z</time>
      </trkpt>
      <trkpt lat="10.1579907937518" lon="-75.680618086861">
        <ele>52.2778713</ele>
        <time>2019-09-10T15:38:42.900Z</time>
      </trkpt>
      <trkpt lat="10.1579890622859" lon="-75.68061610937">
        <ele>52.2778713</ele>
        <time>2019-09-10T15:38:43.000Z</time>
      </trkpt>
      <trkpt lat="10.1579873240457" lon="-75.6806141111997">
        <ele>52.2778713</ele>
        <time>2019-09-10T15:38:43.100Z</time>
      </trkpt>
      <trkpt lat="10.1579855933093" lon="-75.6806121438047">
        <ele>52.2778713</ele>
        <time>2019-09-10T15:38:43.200Z</time>
      </trkpt>
      <trkpt lat="10.1579821282932" lon="-75.6806081732261">
        <ele>52.2778713</ele>
        <time>2019-09-10T15:38:43.400Z</time>
      </trkpt>
      <trkpt lat="10.1579803942739" lon="-75.680606168093">
        <ele>52.3778713</ele>
        <time>2019-09-10T15:38:43.500Z</time>
      </trkpt>
      <trkpt lat="10.1579785963154" lon="-75.6806040982063">
        <ele>52.3778713</ele>
        <time>2019-09-10T15:38:43.600Z</time>
      </trkpt>
      <trkpt lat="10.1579768049749" lon="-75.6806020108431">
        <ele>52.3778713</ele>
        <time>2019-09-10T15:38:43.700Z</time>
      </trkpt>
      <trkpt lat="10.1579750479229" lon="-75.6805999378232">
        <ele>52.3778713</ele>
        <time>2019-09-10T15:38:43.800Z</time>
      </trkpt>
      <trkpt lat="10.1579732950397" lon="-75.6805978625056">
        <ele>52.3778713</ele>
        <time>2019-09-10T15:38:43.900Z</time>
      </trkpt>
      <trkpt lat="10.1579715512758" lon="-75.6805957630272">
        <ele>52.3778713</ele>
        <time>2019-09-10T15:38:44.000Z</time>
      </trkpt>
      <trkpt lat="10.1579698067303" lon="-75.6805936610422">
        <ele>52.3778713</ele>
        <time>2019-09-10T15:38:44.100Z</time>
      </trkpt>
      <trkpt lat="10.1579680747954" lon="-75.6805915467332">
        <ele>52.3778713</ele>
        <time>2019-09-10T15:38:44.200Z</time>
      </trkpt>
      <trkpt lat="10.1579663423395" lon="-75.6805894362536">
        <ele>52.3778713</ele>
        <time>2019-09-10T15:38:44.300Z</time>
      </trkpt>
      <trkpt lat="10.1579646160325" lon="-75.6805873165136">
        <ele>52.3778713</ele>
        <time>2019-09-10T15:38:44.400Z</time>
      </trkpt>
      <trkpt lat="10.1579628869637" lon="-75.6805851982358">
        <ele>52.3778713</ele>
        <time>2019-09-10T15:38:44.500Z</time>
      </trkpt>
      <trkpt lat="10.1579611885357" lon="-75.6805830759892">
        <ele>52.3778713</ele>
        <time>2019-09-10T15:38:44.600Z</time>
      </trkpt>
      <trkpt lat="10.1579594780702" lon="-75.6805809580596">
        <ele>52.3778713</ele>
        <time>2019-09-10T15:38:44.700Z</time>
      </trkpt>
      <trkpt lat="10.1579577617163" lon="-75.6805788497385">
        <ele>52.3778713</ele>
        <time>2019-09-10T15:38:44.800Z</time>
      </trkpt>
      <trkpt lat="10.1579560308236" lon="-75.680576741487">
        <ele>52.3778713</ele>
        <time>2019-09-10T15:38:44.900Z</time>
      </trkpt>
      <trkpt lat="10.1579526773233" lon="-75.6805726652139">
        <ele>52.3778713</ele>
        <time>2019-09-10T15:38:45.100Z</time>
      </trkpt>
      <trkpt lat="10.1579509340805" lon="-75.6805705495819">
        <ele>52.3778713</ele>
        <time>2019-09-10T15:38:45.200Z</time>
      </trkpt>
      <trkpt lat="10.1579491711922" lon="-75.6805684110425">
        <ele>52.3778713</ele>
        <time>2019-09-10T15:38:45.300Z</time>
      </trkpt>
      <trkpt lat="10.1579474027802" lon="-75.6805662660974">
        <ele>52.3778713</ele>
        <time>2019-09-10T15:38:45.400Z</time>
      </trkpt>
      <trkpt lat="10.157945637599" lon="-75.6805641224751">
        <ele>52.3778713</ele>
        <time>2019-09-10T15:38:45.500Z</time>
      </trkpt>
      <trkpt lat="10.1579438704376" lon="-75.6805619491916">
        <ele>52.3778713</ele>
        <time>2019-09-10T15:38:45.600Z</time>
      </trkpt>
      <trkpt lat="10.1579421011918" lon="-75.6805597800857">
        <ele>52.3778713</ele>
        <time>2019-09-10T15:38:45.700Z</time>
      </trkpt>
      <trkpt lat="10.1579403747285" lon="-75.6805576375079">
        <ele>52.3778713</ele>
        <time>2019-09-10T15:38:45.800Z</time>
      </trkpt>
      <trkpt lat="10.1579386457118" lon="-75.6805555049564">
        <ele>52.3778713</ele>
        <time>2019-09-10T15:38:45.900Z</time>
      </trkpt>
      <trkpt lat="10.1579352180066" lon="-75.6805512422208">
        <ele>52.2778713</ele>
        <time>2019-09-10T15:38:46.100Z</time>
      </trkpt>
      <trkpt lat="10.1579335086876" lon="-75.6805491066754">
        <ele>52.2778713</ele>
        <time>2019-09-10T15:38:46.200Z</time>
      </trkpt>
      <trkpt lat="10.1579317879043" lon="-75.6805469750987">
        <ele>52.2778713</ele>
        <time>2019-09-10T15:38:46.300Z</time>
      </trkpt>
      <trkpt lat="10.157930099273" lon="-75.6805448302928">
        <ele>52.2778713</ele>
        <time>2019-09-10T15:38:46.400Z</time>
      </trkpt>
      <trkpt lat="10.1579283989169" lon="-75.6805426859047">
        <ele>52.2778713</ele>
        <time>2019-09-10T15:38:46.500Z</time>
      </trkpt>
      <trkpt lat="10.15792674546" lon="-75.6805405672091">
        <ele>52.2778713</ele>
        <time>2019-09-10T15:38:46.600Z</time>
      </trkpt>
      <trkpt lat="10.1579250663128" lon="-75.6805384538749">
        <ele>52.2778713</ele>
        <time>2019-09-10T15:38:46.700Z</time>
      </trkpt>
      <trkpt lat="10.1579216387638" lon="-75.6805341948295">
        <ele>52.2778713</ele>
        <time>2019-09-10T15:38:46.900Z</time>
      </trkpt>
      <trkpt lat="10.1579198961985" lon="-75.6805320481437">
        <ele>52.3778713</ele>
        <time>2019-09-10T15:38:47.000Z</time>
      </trkpt>
      <trkpt lat="10.1579181453476" lon="-75.6805299014579">
        <ele>52.3778713</ele>
        <time>2019-09-10T15:38:47.100Z</time>
      </trkpt>
      <trkpt lat="10.1579163636475" lon="-75.6805276711494">
        <ele>52.3778713</ele>
        <time>2019-09-10T15:38:47.200Z</time>
      </trkpt>
      <trkpt lat="10.1579145735576" lon="-75.6805254537916">
        <ele>52.3778713</ele>
        <time>2019-09-10T15:38:47.300Z</time>
      </trkpt>
      <trkpt lat="10.1579127594971" lon="-75.6805232294015">
        <ele>52.3778713</ele>
        <time>2019-09-10T15:38:47.400Z</time>
      </trkpt>
      <trkpt lat="10.1579091727515" lon="-75.680518898222">
        <ele>52.3778713</ele>
        <time>2019-09-10T15:38:47.600Z</time>
      </trkpt>
      <trkpt lat="10.157907406007" lon="-75.68051677138">
        <ele>52.3778713</ele>
        <time>2019-09-10T15:38:47.700Z</time>
      </trkpt>
      <trkpt lat="10.157905616334" lon="-75.6805146469054">
        <ele>52.3778713</ele>
        <time>2019-09-10T15:38:47.800Z</time>
      </trkpt>
      <trkpt lat="10.1579038380211" lon="-75.680512529115">
        <ele>52.3778713</ele>
        <time>2019-09-10T15:38:47.900Z</time>
      </trkpt>
      <trkpt lat="10.1579020964458" lon="-75.6805104463472">
        <ele>52.2778713</ele>
        <time>2019-09-10T15:38:48.000Z</time>
      </trkpt>
      <trkpt lat="10.1579003675333" lon="-75.6805083644846">
        <ele>52.3778713</ele>
        <time>2019-09-10T15:38:48.100Z</time>
      </trkpt>
      <trkpt lat="10.1578986532638" lon="-75.6805063366529">
        <ele>52.3778713</ele>
        <time>2019-09-10T15:38:48.200Z</time>
      </trkpt>
      <trkpt lat="10.1578969276343" lon="-75.6805043066627">
        <ele>52.3778713</ele>
        <time>2019-09-10T15:38:48.300Z</time>
      </trkpt>
      <trkpt lat="10.1578951923643" lon="-75.6805022752104">
        <ele>52.3778713</ele>
        <time>2019-09-10T15:38:48.400Z</time>
      </trkpt>
      <trkpt lat="10.1578934509975" lon="-75.6805002237054">
        <ele>52.3778713</ele>
        <time>2019-09-10T15:38:48.500Z</time>
      </trkpt>
      <trkpt lat="10.1578916750816" lon="-75.6804981497803">
        <ele>52.3778713</ele>
        <time>2019-09-10T15:38:48.600Z</time>
      </trkpt>
      <trkpt lat="10.1578880960483" lon="-75.6804939978917">
        <ele>52.3778713</ele>
        <time>2019-09-10T15:38:48.800Z</time>
      </trkpt>
      <trkpt lat="10.1578863177875" lon="-75.6804919216689">
        <ele>52.3778713</ele>
        <time>2019-09-10T15:38:48.900Z</time>
      </trkpt>
      <trkpt lat="10.1578845603707" lon="-75.6804898955083">
        <ele>52.3778713</ele>
        <time>2019-09-10T15:38:49.000Z</time>
      </trkpt>
      <trkpt lat="10.1578828211404" lon="-75.6804878769371">
        <ele>52.3778713</ele>
        <time>2019-09-10T15:38:49.100Z</time>
      </trkpt>
      <trkpt lat="10.1578811006177" lon="-75.6804858954077">
        <ele>52.3778713</ele>
        <time>2019-09-10T15:38:49.200Z</time>
      </trkpt>
      <trkpt lat="10.1578793947901" lon="-75.6804838958448">
        <ele>52.3778713</ele>
        <time>2019-09-10T15:38:49.300Z</time>
      </trkpt>
      <trkpt lat="10.1578776947466" lon="-75.6804819129925">
        <ele>52.3778713</ele>
        <time>2019-09-10T15:38:49.400Z</time>
      </trkpt>
      <trkpt lat="10.1578759993931" lon="-75.6804799096697">
        <ele>52.3778713</ele>
        <time>2019-09-10T15:38:49.500Z</time>
      </trkpt>
      <trkpt lat="10.1578743192558" lon="-75.6804778828128">
        <ele>52.3778713</ele>
        <time>2019-09-10T15:38:49.600Z</time>
      </trkpt>
      <trkpt lat="10.1578726424535" lon="-75.6804758324218">
        <ele>52.3778713</ele>
        <time>2019-09-10T15:38:49.700Z</time>
      </trkpt>
      <trkpt lat="10.1578709657555" lon="-75.6804737699853">
        <ele>52.3778713</ele>
        <time>2019-09-10T15:38:49.800Z</time>
      </trkpt>
      <trkpt lat="10.1578692880152" lon="-75.680471710682">
        <ele>52.3778713</ele>
        <time>2019-09-10T15:38:49.900Z</time>
      </trkpt>
      <trkpt lat="10.1578676393525" lon="-75.6804696624494">
        <ele>52.3778713</ele>
        <time>2019-09-10T15:38:50.000Z</time>
      </trkpt>
      <trkpt lat="10.157865984697" lon="-75.680467614008">
        <ele>52.3778713</ele>
        <time>2019-09-10T15:38:50.100Z</time>
      </trkpt>
      <trkpt lat="10.1578643250911" lon="-75.6804655666806">
        <ele>52.3778713</ele>
        <time>2019-09-10T15:38:50.200Z</time>
      </trkpt>
      <trkpt lat="10.1578626602221" lon="-75.6804635154541">
        <ele>52.3778713</ele>
        <time>2019-09-10T15:38:50.300Z</time>
      </trkpt>
      <trkpt lat="10.1578609949883" lon="-75.6804614560115">
        <ele>52.3778713</ele>
        <time>2019-09-10T15:38:50.400Z</time>
      </trkpt>
      <trkpt lat="10.1578593319952" lon="-75.68045938703">
        <ele>52.3778713</ele>
        <time>2019-09-10T15:38:50.500Z</time>
      </trkpt>
      <trkpt lat="10.1578576913053" lon="-75.6804572891531">
        <ele>52.3778713</ele>
        <time>2019-09-10T15:38:50.600Z</time>
      </trkpt>
      <trkpt lat="10.1578560473846" lon="-75.6804551930168">
        <ele>52.3778713</ele>
        <time>2019-09-10T15:38:50.700Z</time>
      </trkpt>
      <trkpt lat="10.1578544057567" lon="-75.6804531461072">
        <ele>52.3778713</ele>
        <time>2019-09-10T15:38:50.800Z</time>
      </trkpt>
      <trkpt lat="10.1578527474015" lon="-75.6804511147245">
        <ele>52.3778713</ele>
        <time>2019-09-10T15:38:50.900Z</time>
      </trkpt>
      <trkpt lat="10.1578510885251" lon="-75.6804490723407">
        <ele>52.3778713</ele>
        <time>2019-09-10T15:38:51.000Z</time>
      </trkpt>
      <trkpt lat="10.1578494120876" lon="-75.6804470206964">
        <ele>52.3778713</ele>
        <time>2019-09-10T15:38:51.100Z</time>
      </trkpt>
      <trkpt lat="10.1578477401316" lon="-75.6804450040051">
        <ele>52.3778713</ele>
        <time>2019-09-10T15:38:51.200Z</time>
      </trkpt>
      <trkpt lat="10.1578460531157" lon="-75.6804429872442">
        <ele>52.3778713</ele>
        <time>2019-09-10T15:38:51.300Z</time>
      </trkpt>
      <trkpt lat="10.1578442952821" lon="-75.6804409294727">
        <ele>52.3778713</ele>
        <time>2019-09-10T15:38:51.400Z</time>
      </trkpt>
      <trkpt lat="10.157840800042" lon="-75.6804367559996">
        <ele>52.3778713</ele>
        <time>2019-09-10T15:38:51.600Z</time>
      </trkpt>
      <trkpt lat="10.157839080822" lon="-75.6804346642499">
        <ele>52.3778713</ele>
        <time>2019-09-10T15:38:51.700Z</time>
      </trkpt>
      <trkpt lat="10.1578373274177" lon="-75.6804325224379">
        <ele>52.3778713</ele>
        <time>2019-09-10T15:38:51.800Z</time>
      </trkpt>
      <trkpt lat="10.1578355694799" lon="-75.6804303928108">
        <ele>52.3778713</ele>
        <time>2019-09-10T15:38:51.900Z</time>
      </trkpt>
      <trkpt lat="10.1578338376492" lon="-75.6804282970923">
        <ele>52.3778713</ele>
        <time>2019-09-10T15:38:52.000Z</time>
      </trkpt>
      <trkpt lat="10.1578321155111" lon="-75.6804262137675">
        <ele>52.3778713</ele>
        <time>2019-09-10T15:38:52.100Z</time>
      </trkpt>
      <trkpt lat="10.1578303728415" lon="-75.6804240862989">
        <ele>52.3778713</ele>
        <time>2019-09-10T15:38:52.200Z</time>
      </trkpt>
      <trkpt lat="10.1578286284002" lon="-75.6804219527726">
        <ele>52.3778713</ele>
        <time>2019-09-10T15:38:52.300Z</time>
      </trkpt>
      <trkpt lat="10.1578268787478" lon="-75.680419808663">
        <ele>52.3778713</ele>
        <time>2019-09-10T15:38:52.400Z</time>
      </trkpt>
      <trkpt lat="10.1578251349319" lon="-75.680417676599">
        <ele>52.3778713</ele>
        <time>2019-09-10T15:38:52.500Z</time>
      </trkpt>
      <trkpt lat="10.1578233868949" lon="-75.6804155466934">
        <ele>52.3778713</ele>
        <time>2019-09-10T15:38:52.600Z</time>
      </trkpt>
      <trkpt lat="10.1578216480815" lon="-75.6804134212439">
        <ele>52.3778713</ele>
        <time>2019-09-10T15:38:52.700Z</time>
      </trkpt>
      <trkpt lat="10.1578199523111" lon="-75.6804112985796">
        <ele>52.3778713</ele>
        <time>2019-09-10T15:38:52.800Z</time>
      </trkpt>
      <trkpt lat="10.1578182698288" lon="-75.6804091748012">
        <ele>52.3778713</ele>
        <time>2019-09-10T15:38:52.900Z</time>
      </trkpt>
      <trkpt lat="10.1578165772372" lon="-75.6804070352869">
        <ele>52.3778713</ele>
        <time>2019-09-10T15:38:53.000Z</time>
      </trkpt>
      <trkpt lat="10.1578131683958" lon="-75.6804027748491">
        <ele>52.3778713</ele>
        <time>2019-09-10T15:38:53.200Z</time>
      </trkpt>
      <trkpt lat="10.1578114577219" lon="-75.680400648773">
        <ele>52.3778713</ele>
        <time>2019-09-10T15:38:53.300Z</time>
      </trkpt>
      <trkpt lat="10.1578097543956" lon="-75.6803985330018">
        <ele>52.3778713</ele>
        <time>2019-09-10T15:38:53.400Z</time>
      </trkpt>
      <trkpt lat="10.1578080433569" lon="-75.680396412287">
        <ele>52.3778713</ele>
        <time>2019-09-10T15:38:53.500Z</time>
      </trkpt>
      <trkpt lat="10.1578063098066" lon="-75.6803943144797">
        <ele>52.3778713</ele>
        <time>2019-09-10T15:38:53.600Z</time>
      </trkpt>
      <trkpt lat="10.1578045656258" lon="-75.6803922086652">
        <ele>52.3778713</ele>
        <time>2019-09-10T15:38:53.700Z</time>
      </trkpt>
      <trkpt lat="10.1578028411948" lon="-75.6803900901785">
        <ele>52.3778713</ele>
        <time>2019-09-10T15:38:53.800Z</time>
      </trkpt>
      <trkpt lat="10.157801121558" lon="-75.6803879684193">
        <ele>52.3778713</ele>
        <time>2019-09-10T15:38:53.900Z</time>
      </trkpt>
      <trkpt lat="10.1577993715408" lon="-75.6803857981993">
        <ele>52.3778713</ele>
        <time>2019-09-10T15:38:54.000Z</time>
      </trkpt>
      <trkpt lat="10.1577976593036" lon="-75.6803836733765">
        <ele>52.3778713</ele>
        <time>2019-09-10T15:38:54.100Z</time>
      </trkpt>
      <trkpt lat="10.1577960846374" lon="-75.6803816410887">
        <ele>52.3778713</ele>
        <time>2019-09-10T15:38:54.200Z</time>
      </trkpt>
      <trkpt lat="10.1577946748999" lon="-75.6803796420132">
        <ele>52.3778713</ele>
        <time>2019-09-10T15:38:54.300Z</time>
      </trkpt>
      <trkpt lat="10.1577935325399" lon="-75.6803776508752">
        <ele>52.3778713</ele>
        <time>2019-09-10T15:38:54.400Z</time>
      </trkpt>
      <trkpt lat="10.157792605812" lon="-75.6803756695547">
        <ele>52.3778713</ele>
        <time>2019-09-10T15:38:54.500Z</time>
      </trkpt>
      <trkpt lat="10.1577919748095" lon="-75.6803737152497">
        <ele>52.3778713</ele>
        <time>2019-09-10T15:38:54.600Z</time>
      </trkpt>
      <trkpt lat="10.1577915929459" lon="-75.6803717763323">
        <ele>52.3778713</ele>
        <time>2019-09-10T15:38:54.700Z</time>
      </trkpt>
      <trkpt lat="10.1577915544886" lon="-75.6803699079477">
        <ele>52.3778713</ele>
        <time>2019-09-10T15:38:54.800Z</time>
      </trkpt>
      <trkpt lat="10.1577917945082" lon="-75.6803680571788">
        <ele>52.3778713</ele>
        <time>2019-09-10T15:38:54.900Z</time>
      </trkpt>
      <trkpt lat="10.1577923688669" lon="-75.6803663544379">
        <ele>52.3778713</ele>
        <time>2019-09-10T15:38:55.000Z</time>
      </trkpt>
      <trkpt lat="10.1577932338963" lon="-75.6803646739083">
        <ele>52.3778713</ele>
        <time>2019-09-10T15:38:55.100Z</time>
      </trkpt>
      <trkpt lat="10.1577944491064" lon="-75.680363137438">
        <ele>52.3778713</ele>
        <time>2019-09-10T15:38:55.200Z</time>
      </trkpt>
      <trkpt lat="10.1577959402921" lon="-75.6803615907324">
        <ele>52.3778713</ele>
        <time>2019-09-10T15:38:55.300Z</time>
      </trkpt>
      <trkpt lat="10.1577996110915" lon="-75.6803588372428">
        <ele>52.4778713</ele>
        <time>2019-09-10T15:38:55.500Z</time>
      </trkpt>
      <trkpt lat="10.1578016250989" lon="-75.6803576283699">
        <ele>52.4778713</ele>
        <time>2019-09-10T15:38:55.600Z</time>
      </trkpt>
      <trkpt lat="10.1578037422324" lon="-75.6803563751443">
        <ele>52.4778713</ele>
        <time>2019-09-10T15:38:55.700Z</time>
      </trkpt>
      <trkpt lat="10.1578058616588" lon="-75.6803552240623">
        <ele>52.4778713</ele>
        <time>2019-09-10T15:38:55.800Z</time>
      </trkpt>
      <trkpt lat="10.1578080594068" lon="-75.6803539871991">
        <ele>52.4778713</ele>
        <time>2019-09-10T15:38:55.900Z</time>
      </trkpt>
      <trkpt lat="10.1578102065558" lon="-75.6803528305469">
        <ele>52.4778713</ele>
        <time>2019-09-10T15:38:56.000Z</time>
      </trkpt>
      <trkpt lat="10.1578124265549" lon="-75.6803515804546">
        <ele>52.4778713</ele>
        <time>2019-09-10T15:38:56.100Z</time>
      </trkpt>
      <trkpt lat="10.1578145757883" lon="-75.6803503482565">
        <ele>52.4778713</ele>
        <time>2019-09-10T15:38:56.200Z</time>
      </trkpt>
      <trkpt lat="10.1578167962043" lon="-75.6803490152377">
        <ele>52.4778713</ele>
        <time>2019-09-10T15:38:56.300Z</time>
      </trkpt>
      <trkpt lat="10.1578190289704" lon="-75.6803476380055">
        <ele>52.4778713</ele>
        <time>2019-09-10T15:38:56.400Z</time>
      </trkpt>
      <trkpt lat="10.157821331043" lon="-75.6803461604401">
        <ele>52.4778713</ele>
        <time>2019-09-10T15:38:56.500Z</time>
      </trkpt>
      <trkpt lat="10.1578236131053" lon="-75.6803446369205">
        <ele>52.4778713</ele>
        <time>2019-09-10T15:38:56.600Z</time>
      </trkpt>
      <trkpt lat="10.1578259210143" lon="-75.6803430538694">
        <ele>52.4778713</ele>
        <time>2019-09-10T15:38:56.700Z</time>
      </trkpt>
      <trkpt lat="10.1578281685276" lon="-75.6803414488856">
        <ele>52.4778713</ele>
        <time>2019-09-10T15:38:56.800Z</time>
      </trkpt>
      <trkpt lat="10.1578327119645" lon="-75.680338110873">
        <ele>52.3778713</ele>
        <time>2019-09-10T15:38:57.000Z</time>
      </trkpt>
      <trkpt lat="10.1578350065854" lon="-75.6803363827877">
        <ele>52.3778713</ele>
        <time>2019-09-10T15:38:57.100Z</time>
      </trkpt>
      <trkpt lat="10.1578373055315" lon="-75.6803345445518">
        <ele>52.3778713</ele>
        <time>2019-09-10T15:38:57.200Z</time>
      </trkpt>
      <trkpt lat="10.1578395931175" lon="-75.6803326878645">
        <ele>52.3778713</ele>
        <time>2019-09-10T15:38:57.300Z</time>
      </trkpt>
      <trkpt lat="10.1578418483431" lon="-75.6803307937177">
        <ele>52.3778713</ele>
        <time>2019-09-10T15:38:57.400Z</time>
      </trkpt>
      <trkpt lat="10.157844089082" lon="-75.6803288886393">
        <ele>52.3778713</ele>
        <time>2019-09-10T15:38:57.500Z</time>
      </trkpt>
      <trkpt lat="10.1578463578562" lon="-75.6803269174148">
        <ele>52.3778713</ele>
        <time>2019-09-10T15:38:57.600Z</time>
      </trkpt>
      <trkpt lat="10.1578486310598" lon="-75.6803249260679">
        <ele>52.3778713</ele>
        <time>2019-09-10T15:38:57.700Z</time>
      </trkpt>
      <trkpt lat="10.1578509899847" lon="-75.6803228532569">
        <ele>52.3778713</ele>
        <time>2019-09-10T15:38:57.800Z</time>
      </trkpt>
      <trkpt lat="10.1578533336413" lon="-75.6803207739705">
        <ele>52.3778713</ele>
        <time>2019-09-10T15:38:57.900Z</time>
      </trkpt>
      <trkpt lat="10.1578556796429" lon="-75.680318654509">
        <ele>52.3778713</ele>
        <time>2019-09-10T15:38:58.000Z</time>
      </trkpt>
      <trkpt lat="10.1578579865097" lon="-75.6803165459094">
        <ele>52.3778713</ele>
        <time>2019-09-10T15:38:58.100Z</time>
      </trkpt>
      <trkpt lat="10.1578603091659" lon="-75.6803144061167">
        <ele>52.3778713</ele>
        <time>2019-09-10T15:38:58.200Z</time>
      </trkpt>
      <trkpt lat="10.1578625951886" lon="-75.6803123009985">
        <ele>52.3778713</ele>
        <time>2019-09-10T15:38:58.300Z</time>
      </trkpt>
      <trkpt lat="10.1578648775115" lon="-75.6803101625983">
        <ele>52.3778713</ele>
        <time>2019-09-10T15:38:58.400Z</time>
      </trkpt>
      <trkpt lat="10.1578671311216" lon="-75.680308062911">
        <ele>52.3778713</ele>
        <time>2019-09-10T15:38:58.500Z</time>
      </trkpt>
      <trkpt lat="10.1578693996353" lon="-75.6803059549381">
        <ele>52.3778713</ele>
        <time>2019-09-10T15:38:58.600Z</time>
      </trkpt>
      <trkpt lat="10.1578716489203" lon="-75.6803038892987">
        <ele>52.3778713</ele>
        <time>2019-09-10T15:38:58.700Z</time>
      </trkpt>
      <trkpt lat="10.1578738246257" lon="-75.6803018728163">
        <ele>52.3778713</ele>
        <time>2019-09-10T15:38:58.800Z</time>
      </trkpt>
      <trkpt lat="10.1578759806334" lon="-75.6802998917047">
        <ele>52.3778713</ele>
        <time>2019-09-10T15:38:58.900Z</time>
      </trkpt>
      <trkpt lat="10.1578782186627" lon="-75.6802978055251">
        <ele>52.3778713</ele>
        <time>2019-09-10T15:38:59.000Z</time>
      </trkpt>
      <trkpt lat="10.1578804721165" lon="-75.68029572039">
        <ele>52.3778713</ele>
        <time>2019-09-10T15:38:59.100Z</time>
      </trkpt>
      <trkpt lat="10.1578827317714" lon="-75.6802935920162">
        <ele>52.3778713</ele>
        <time>2019-09-10T15:38:59.200Z</time>
      </trkpt>
      <trkpt lat="10.1578849056009" lon="-75.6802916097209">
        <ele>52.3778713</ele>
        <time>2019-09-10T15:38:59.300Z</time>
      </trkpt>
      <trkpt lat="10.1578869616612" lon="-75.6802898244019">
        <ele>52.3778713</ele>
        <time>2019-09-10T15:38:59.400Z</time>
      </trkpt>
      <trkpt lat="10.1578889505515" lon="-75.6802882916914">
        <ele>52.3778713</ele>
        <time>2019-09-10T15:38:59.500Z</time>
      </trkpt>
      <trkpt lat="10.1578908767533" lon="-75.6802870249581">
        <ele>52.3778713</ele>
        <time>2019-09-10T15:38:59.600Z</time>
      </trkpt>
      <trkpt lat="10.157892749542" lon="-75.6802860659784">
        <ele>52.3778713</ele>
        <time>2019-09-10T15:38:59.700Z</time>
      </trkpt>
      <trkpt lat="10.1578944570893" lon="-75.6802854558325">
        <ele>52.3778713</ele>
        <time>2019-09-10T15:38:59.800Z</time>
      </trkpt>
      <trkpt lat="10.1578961045535" lon="-75.6802851720307">
        <ele>52.3778713</ele>
        <time>2019-09-10T15:38:59.900Z</time>
      </trkpt>
      <trkpt lat="10.1578976351346" lon="-75.6802851980018">
        <ele>52.3778713</ele>
        <time>2019-09-10T15:39:00.000Z</time>
      </trkpt>
      <trkpt lat="10.1578991348142" lon="-75.6802855379929">
        <ele>52.3778713</ele>
        <time>2019-09-10T15:39:00.100Z</time>
      </trkpt>
      <trkpt lat="10.1579003986952" lon="-75.680286236705">
        <ele>52.3778713</ele>
        <time>2019-09-10T15:39:00.200Z</time>
      </trkpt>
      <trkpt lat="10.157901669559" lon="-75.6802872389235">
        <ele>52.3778713</ele>
        <time>2019-09-10T15:39:00.300Z</time>
      </trkpt>
      <trkpt lat="10.1579027656972" lon="-75.6802884982067">
        <ele>52.3778713</ele>
        <time>2019-09-10T15:39:00.400Z</time>
      </trkpt>
      <trkpt lat="10.1579039087867" lon="-75.6802900478366">
        <ele>52.3778713</ele>
        <time>2019-09-10T15:39:00.500Z</time>
      </trkpt>
      <trkpt lat="10.1579048041964" lon="-75.6802917586542">
        <ele>52.3778713</ele>
        <time>2019-09-10T15:39:00.600Z</time>
      </trkpt>
      <trkpt lat="10.1579057660987" lon="-75.6802936893555">
        <ele>52.3778713</ele>
        <time>2019-09-10T15:39:00.700Z</time>
      </trkpt>
      <trkpt lat="10.1579065904822" lon="-75.6802956852281">
        <ele>52.3778713</ele>
        <time>2019-09-10T15:39:00.800Z</time>
      </trkpt>
      <trkpt lat="10.1579075331038" lon="-75.6802978446558">
        <ele>52.3778713</ele>
        <time>2019-09-10T15:39:00.900Z</time>
      </trkpt>
      <trkpt lat="10.1579083871901" lon="-75.6803000374351">
        <ele>52.3778713</ele>
        <time>2019-09-10T15:39:01.000Z</time>
      </trkpt>
      <trkpt lat="10.1579094094881" lon="-75.6803023619496">
        <ele>52.3778713</ele>
        <time>2019-09-10T15:39:01.100Z</time>
      </trkpt>
      <trkpt lat="10.1579104295455" lon="-75.6803046402314">
        <ele>52.3778713</ele>
        <time>2019-09-10T15:39:01.200Z</time>
      </trkpt>
      <trkpt lat="10.1579115997844" lon="-75.6803070041551">
        <ele>52.3778713</ele>
        <time>2019-09-10T15:39:01.300Z</time>
      </trkpt>
      <trkpt lat="10.1579127873239" lon="-75.6803093338917">
        <ele>52.3778713</ele>
        <time>2019-09-10T15:39:01.400Z</time>
      </trkpt>
      <trkpt lat="10.1579140808035" lon="-75.6803117373638">
        <ele>52.3778713</ele>
        <time>2019-09-10T15:39:01.500Z</time>
      </trkpt>
      <trkpt lat="10.1579167214362" lon="-75.6803164150097">
        <ele>52.3778713</ele>
        <time>2019-09-10T15:39:01.700Z</time>
      </trkpt>
      <trkpt lat="10.157918175311" lon="-75.68031879265">
        <ele>52.3778713</ele>
        <time>2019-09-10T15:39:01.800Z</time>
      </trkpt>
      <trkpt lat="10.1579197334062" lon="-75.6803212162444">
        <ele>52.3778713</ele>
        <time>2019-09-10T15:39:01.900Z</time>
      </trkpt>
      <trkpt lat="10.1579213639346" lon="-75.6803235800289">
        <ele>52.3778713</ele>
        <time>2019-09-10T15:39:02.000Z</time>
      </trkpt>
      <trkpt lat="10.157923037975" lon="-75.6803259667904">
        <ele>52.3778713</ele>
        <time>2019-09-10T15:39:02.100Z</time>
      </trkpt>
      <trkpt lat="10.1579247801756" lon="-75.6803283449181">
        <ele>52.3778713</ele>
        <time>2019-09-10T15:39:02.200Z</time>
      </trkpt>
      <trkpt lat="10.1579265492651" lon="-75.6803307537515">
        <ele>52.3778713</ele>
        <time>2019-09-10T15:39:02.300Z</time>
      </trkpt>
      <trkpt lat="10.1579284510792" lon="-75.6803331944743">
        <ele>52.3778713</ele>
        <time>2019-09-10T15:39:02.400Z</time>
      </trkpt>
      <trkpt lat="10.1579323390739" lon="-75.6803380791228">
        <ele>52.3778713</ele>
        <time>2019-09-10T15:39:02.600Z</time>
      </trkpt>
      <trkpt lat="10.1579342978967" lon="-75.6803405180354">
        <ele>52.3778713</ele>
        <time>2019-09-10T15:39:02.700Z</time>
      </trkpt>
      <trkpt lat="10.1579363580737" lon="-75.6803430093774">
        <ele>52.3778713</ele>
        <time>2019-09-10T15:39:02.800Z</time>
      </trkpt>
      <trkpt lat="10.1579383840144" lon="-75.6803454964025">
        <ele>52.3778713</ele>
        <time>2019-09-10T15:39:02.900Z</time>
      </trkpt>
      <trkpt lat="10.1579404822319" lon="-75.6803480192858">
        <ele>52.3778713</ele>
        <time>2019-09-10T15:39:03.000Z</time>
      </trkpt>
      <trkpt lat="10.157942540533" lon="-75.6803505244837">
        <ele>52.3778713</ele>
        <time>2019-09-10T15:39:03.100Z</time>
      </trkpt>
      <trkpt lat="10.1579446087872" lon="-75.6803530128317">
        <ele>52.3778713</ele>
        <time>2019-09-10T15:39:03.200Z</time>
      </trkpt>
      <trkpt lat="10.1579466222735" lon="-75.6803554717273">
        <ele>52.3778713</ele>
        <time>2019-09-10T15:39:03.300Z</time>
      </trkpt>
      <trkpt lat="10.1579486221069" lon="-75.6803579011009">
        <ele>52.3778713</ele>
        <time>2019-09-10T15:39:03.400Z</time>
      </trkpt>
      <trkpt lat="10.1579505772298" lon="-75.6803603085418">
        <ele>52.3778713</ele>
        <time>2019-09-10T15:39:03.500Z</time>
      </trkpt>
      <trkpt lat="10.1579525282881" lon="-75.6803626718388">
        <ele>52.3778713</ele>
        <time>2019-09-10T15:39:03.600Z</time>
      </trkpt>
      <trkpt lat="10.1579563960641" lon="-75.6803673790068">
        <ele>52.3778713</ele>
        <time>2019-09-10T15:39:03.800Z</time>
      </trkpt>
      <trkpt lat="10.157958309603" lon="-75.6803697287961">
        <ele>52.3778713</ele>
        <time>2019-09-10T15:39:03.900Z</time>
      </trkpt>
      <trkpt lat="10.1579602361174" lon="-75.6803720470441">
        <ele>52.3778713</ele>
        <time>2019-09-10T15:39:04.000Z</time>
      </trkpt>
      <trkpt lat="10.1579621133355" lon="-75.680374341758">
        <ele>52.2778713</ele>
        <time>2019-09-10T15:39:04.100Z</time>
      </trkpt>
      <trkpt lat="10.1579640193706" lon="-75.6803765667052">
        <ele>52.2778713</ele>
        <time>2019-09-10T15:39:04.200Z</time>
      </trkpt>
      <trkpt lat="10.1579658750672" lon="-75.6803787755684">
        <ele>52.2778713</ele>
        <time>2019-09-10T15:39:04.300Z</time>
      </trkpt>
      <trkpt lat="10.1579677468659" lon="-75.6803809455099">
        <ele>52.2778713</ele>
        <time>2019-09-10T15:39:04.400Z</time>
      </trkpt>
      <trkpt lat="10.1579695748399" lon="-75.6803831196289">
        <ele>52.3778713</ele>
        <time>2019-09-10T15:39:04.500Z</time>
      </trkpt>
      <trkpt lat="10.1579713837415" lon="-75.680385194111">
        <ele>52.3778713</ele>
        <time>2019-09-10T15:39:04.600Z</time>
      </trkpt>
      <trkpt lat="10.1579731581983" lon="-75.6803872763914">
        <ele>52.3778713</ele>
        <time>2019-09-10T15:39:04.700Z</time>
      </trkpt>
      <trkpt lat="10.1579749895595" lon="-75.6803893572096">
        <ele>52.3778713</ele>
        <time>2019-09-10T15:39:04.800Z</time>
      </trkpt>
      <trkpt lat="10.157976794136" lon="-75.6803914639293">
        <ele>52.3778713</ele>
        <time>2019-09-10T15:39:04.900Z</time>
      </trkpt>
      <trkpt lat="10.1579786698429" lon="-75.6803935276888">
        <ele>52.3778713</ele>
        <time>2019-09-10T15:39:05.000Z</time>
      </trkpt>
      <trkpt lat="10.1579804976606" lon="-75.6803956022405">
        <ele>52.3778713</ele>
        <time>2019-09-10T15:39:05.100Z</time>
      </trkpt>
      <trkpt lat="10.1579823311061" lon="-75.6803976206725">
        <ele>52.3778713</ele>
        <time>2019-09-10T15:39:05.200Z</time>
      </trkpt>
      <trkpt lat="10.1579841203622" lon="-75.6803996551884">
        <ele>52.3778713</ele>
        <time>2019-09-10T15:39:05.300Z</time>
      </trkpt>
      <trkpt lat="10.1579859203009" lon="-75.6804016871977">
        <ele>52.3778713</ele>
        <time>2019-09-10T15:39:05.400Z</time>
      </trkpt>
      <trkpt lat="10.157987681678" lon="-75.6804037436463">
        <ele>52.3778713</ele>
        <time>2019-09-10T15:39:05.500Z</time>
      </trkpt>
      <trkpt lat="10.1579894628571" lon="-75.6804058061525">
        <ele>52.3778713</ele>
        <time>2019-09-10T15:39:05.600Z</time>
      </trkpt>
      <trkpt lat="10.1579912060998" lon="-75.680407882236">
        <ele>52.3778713</ele>
        <time>2019-09-10T15:39:05.700Z</time>
      </trkpt>
      <trkpt lat="10.1579929543973" lon="-75.6804099368743">
        <ele>52.3778713</ele>
        <time>2019-09-10T15:39:05.800Z</time>
      </trkpt>
      <trkpt lat="10.1579964060212" lon="-75.6804140808253">
        <ele>52.3778713</ele>
        <time>2019-09-10T15:39:06.000Z</time>
      </trkpt>
      <trkpt lat="10.157998109556" lon="-75.6804161743854">
        <ele>52.2778713</ele>
        <time>2019-09-10T15:39:06.100Z</time>
      </trkpt>
      <trkpt lat="10.1579998326321" lon="-75.6804182815228">
        <ele>52.2778713</ele>
        <time>2019-09-10T15:39:06.200Z</time>
      </trkpt>
      <trkpt lat="10.1580015335093" lon="-75.6804203933252">
        <ele>52.3778713</ele>
        <time>2019-09-10T15:39:06.300Z</time>
      </trkpt>
      <trkpt lat="10.1580032712805" lon="-75.6804225436317">
        <ele>52.3778713</ele>
        <time>2019-09-10T15:39:06.400Z</time>
      </trkpt>
      <trkpt lat="10.1580049901357" lon="-75.6804246949826">
        <ele>52.2778713</ele>
        <time>2019-09-10T15:39:06.500Z</time>
      </trkpt>
      <trkpt lat="10.158006710919" lon="-75.6804268413203">
        <ele>52.3778713</ele>
        <time>2019-09-10T15:39:06.600Z</time>
      </trkpt>
      <trkpt lat="10.1580101648878" lon="-75.6804311644229">
        <ele>52.3778713</ele>
        <time>2019-09-10T15:39:06.800Z</time>
      </trkpt>
      <trkpt lat="10.1580119015647" lon="-75.6804333413271">
        <ele>52.3778713</ele>
        <time>2019-09-10T15:39:06.900Z</time>
      </trkpt>
      <trkpt lat="10.1580136418372" lon="-75.6804355286754">
        <ele>52.3778713</ele>
        <time>2019-09-10T15:39:07.000Z</time>
      </trkpt>
      <trkpt lat="10.1580153501661" lon="-75.680437701402">
        <ele>52.3778713</ele>
        <time>2019-09-10T15:39:07.100Z</time>
      </trkpt>
      <trkpt lat="10.1580170590162" lon="-75.6804398762173">
        <ele>52.3778713</ele>
        <time>2019-09-10T15:39:07.200Z</time>
      </trkpt>
      <trkpt lat="10.1580187486897" lon="-75.6804420390567">
        <ele>52.3778713</ele>
        <time>2019-09-10T15:39:07.300Z</time>
      </trkpt>
      <trkpt lat="10.1580204417503" lon="-75.6804441658987">
        <ele>52.3778713</ele>
        <time>2019-09-10T15:39:07.400Z</time>
      </trkpt>
      <trkpt lat="10.1580221243368" lon="-75.6804462884238">
        <ele>52.3778713</ele>
        <time>2019-09-10T15:39:07.500Z</time>
      </trkpt>
      <trkpt lat="10.1580237867567" lon="-75.680448413177">
        <ele>52.3778713</ele>
        <time>2019-09-10T15:39:07.600Z</time>
      </trkpt>
      <trkpt lat="10.1580254399009" lon="-75.6804505425256">
        <ele>52.3778713</ele>
        <time>2019-09-10T15:39:07.700Z</time>
      </trkpt>
      <trkpt lat="10.1580270738686" lon="-75.680452646112">
        <ele>52.3778713</ele>
        <time>2019-09-10T15:39:07.800Z</time>
      </trkpt>
      <trkpt lat="10.1580287079926" lon="-75.6804547476792">
        <ele>52.3778713</ele>
        <time>2019-09-10T15:39:07.900Z</time>
      </trkpt>
      <trkpt lat="10.1580303633776" lon="-75.6804568289848">
        <ele>52.3778713</ele>
        <time>2019-09-10T15:39:08.000Z</time>
      </trkpt>
      <trkpt lat="10.1580320193358" lon="-75.6804589146073">
        <ele>52.3778713</ele>
        <time>2019-09-10T15:39:08.100Z</time>
      </trkpt>
      <trkpt lat="10.1580336660704" lon="-75.6804609861651">
        <ele>52.3778713</ele>
        <time>2019-09-10T15:39:08.200Z</time>
      </trkpt>
      <trkpt lat="10.1580353109813" lon="-75.6804630667744">
        <ele>52.3778713</ele>
        <time>2019-09-10T15:39:08.300Z</time>
      </trkpt>
      <trkpt lat="10.1580369841879" lon="-75.6804651457127">
        <ele>52.3778713</ele>
        <time>2019-09-10T15:39:08.400Z</time>
      </trkpt>
      <trkpt lat="10.1580386535906" lon="-75.6804672357914">
        <ele>52.3778713</ele>
        <time>2019-09-10T15:39:08.500Z</time>
      </trkpt>
      <trkpt lat="10.158040314864" lon="-75.6804692973228">
        <ele>52.3778713</ele>
        <time>2019-09-10T15:39:08.600Z</time>
      </trkpt>
      <trkpt lat="10.1580419700405" lon="-75.6804713664436">
        <ele>52.3778713</ele>
        <time>2019-09-10T15:39:08.700Z</time>
      </trkpt>
      <trkpt lat="10.1580436187033" lon="-75.6804734394635">
        <ele>52.3778713</ele>
        <time>2019-09-10T15:39:08.800Z</time>
      </trkpt>
      <trkpt lat="10.1580452673139" lon="-75.6804755233453">
        <ele>52.3778713</ele>
        <time>2019-09-10T15:39:08.900Z</time>
      </trkpt>
      <trkpt lat="10.158046909515" lon="-75.6804776119618">
        <ele>52.3778713</ele>
        <time>2019-09-10T15:39:09.000Z</time>
      </trkpt>
      <trkpt lat="10.1580485534357" lon="-75.6804797044774">
        <ele>52.3778713</ele>
        <time>2019-09-10T15:39:09.100Z</time>
      </trkpt>
      <trkpt lat="10.1580502252875" lon="-75.6804818012403">
        <ele>52.3778713</ele>
        <time>2019-09-10T15:39:09.200Z</time>
      </trkpt>
      <trkpt lat="10.1580518977126" lon="-75.6804838977944">
        <ele>52.3778713</ele>
        <time>2019-09-10T15:39:09.300Z</time>
      </trkpt>
      <trkpt lat="10.1580535633632" lon="-75.6804859642693">
        <ele>52.3778713</ele>
        <time>2019-09-10T15:39:09.400Z</time>
      </trkpt>
      <trkpt lat="10.1580552267732" lon="-75.6804880308139">
        <ele>52.3778713</ele>
        <time>2019-09-10T15:39:09.500Z</time>
      </trkpt>
      <trkpt lat="10.1580586505181" lon="-75.6804922488486">
        <ele>52.3778713</ele>
        <time>2019-09-10T15:39:09.700Z</time>
      </trkpt>
      <trkpt lat="10.1580603433703" lon="-75.6804943286224">
        <ele>52.3778713</ele>
        <time>2019-09-10T15:39:09.800Z</time>
      </trkpt>
      <trkpt lat="10.1580620299693" lon="-75.6804964035223">
        <ele>52.3778713</ele>
        <time>2019-09-10T15:39:09.900Z</time>
      </trkpt>
      <trkpt lat="10.1580637236031" lon="-75.680498486499">
        <ele>52.3778713</ele>
        <time>2019-09-10T15:39:10.000Z</time>
      </trkpt>
      <trkpt lat="10.1580654116612" lon="-75.6805005761599">
        <ele>52.3778713</ele>
        <time>2019-09-10T15:39:10.100Z</time>
      </trkpt>
      <trkpt lat="10.1580670999798" lon="-75.6805026768219">
        <ele>52.3778713</ele>
        <time>2019-09-10T15:39:10.200Z</time>
      </trkpt>
      <trkpt lat="10.1580687827227" lon="-75.6805047775536">
        <ele>52.3778713</ele>
        <time>2019-09-10T15:39:10.300Z</time>
      </trkpt>
      <trkpt lat="10.1580704405568" lon="-75.6805069151879">
        <ele>52.3778713</ele>
        <time>2019-09-10T15:39:10.400Z</time>
      </trkpt>
      <trkpt lat="10.1580721044879" lon="-75.6805090446061">
        <ele>52.3778713</ele>
        <time>2019-09-10T15:39:10.500Z</time>
      </trkpt>
      <trkpt lat="10.1580737848857" lon="-75.6805111706822">
        <ele>52.3778713</ele>
        <time>2019-09-10T15:39:10.600Z</time>
      </trkpt>
      <trkpt lat="10.158075474455" lon="-75.6805132821365">
        <ele>52.3778713</ele>
        <time>2019-09-10T15:39:10.700Z</time>
      </trkpt>
      <trkpt lat="10.1580772032633" lon="-75.6805153919894">
        <ele>52.3778713</ele>
        <time>2019-09-10T15:39:10.800Z</time>
      </trkpt>
      <trkpt lat="10.1580789332701" lon="-75.6805174919552">
        <ele>52.3778713</ele>
        <time>2019-09-10T15:39:10.900Z</time>
      </trkpt>
      <trkpt lat="10.1580806437355" lon="-75.6805195559235">
        <ele>52.3778713</ele>
        <time>2019-09-10T15:39:11.000Z</time>
      </trkpt>
      <trkpt lat="10.1580823642322" lon="-75.6805216144609">
        <ele>52.3778713</ele>
        <time>2019-09-10T15:39:11.100Z</time>
      </trkpt>
      <trkpt lat="10.1580840845726" lon="-75.6805236741124">
        <ele>52.3778713</ele>
        <time>2019-09-10T15:39:11.200Z</time>
      </trkpt>
      <trkpt lat="10.1580858124168" lon="-75.6805257378022">
        <ele>52.3778713</ele>
        <time>2019-09-10T15:39:11.300Z</time>
      </trkpt>
      <trkpt lat="10.1580875783275" lon="-75.6805278230766">
        <ele>52.3778713</ele>
        <time>2019-09-10T15:39:11.400Z</time>
      </trkpt>
      <trkpt lat="10.1580893491105" lon="-75.6805299140604">
        <ele>52.3778713</ele>
        <time>2019-09-10T15:39:11.500Z</time>
      </trkpt>
      <trkpt lat="10.1580911213526" lon="-75.6805319939735">
        <ele>52.3778713</ele>
        <time>2019-09-10T15:39:11.600Z</time>
      </trkpt>
      <trkpt lat="10.1580928876803" lon="-75.6805340716585">
        <ele>52.3778713</ele>
        <time>2019-09-10T15:39:11.700Z</time>
      </trkpt>
      <trkpt lat="10.1580946480152" lon="-75.6805361961331">
        <ele>52.3778713</ele>
        <time>2019-09-10T15:39:11.800Z</time>
      </trkpt>
      <trkpt lat="10.1580964054841" lon="-75.6805383247855">
        <ele>52.3778713</ele>
        <time>2019-09-10T15:39:11.900Z</time>
      </trkpt>
      <trkpt lat="10.1580981802535" lon="-75.6805404624197">
        <ele>52.3778713</ele>
        <time>2019-09-10T15:39:12.000Z</time>
      </trkpt>
      <trkpt lat="10.1580999505415" lon="-75.6805425892617">
        <ele>52.3778713</ele>
        <time>2019-09-10T15:39:12.100Z</time>
      </trkpt>
      <trkpt lat="10.1581017348471" lon="-75.6805447169393">
        <ele>52.3778713</ele>
        <time>2019-09-10T15:39:12.200Z</time>
      </trkpt>
      <trkpt lat="10.1581035096426" lon="-75.680546834103">
        <ele>52.3778713</ele>
        <time>2019-09-10T15:39:12.300Z</time>
      </trkpt>
      <trkpt lat="10.1581052728697" lon="-75.6805489062178">
        <ele>52.3778713</ele>
        <time>2019-09-10T15:39:12.400Z</time>
      </trkpt>
      <trkpt lat="10.1581070299738" lon="-75.6805509773578">
        <ele>52.3778713</ele>
        <time>2019-09-10T15:39:12.500Z</time>
      </trkpt>
      <trkpt lat="10.1581087713667" lon="-75.6805530476623">
        <ele>52.3778713</ele>
        <time>2019-09-10T15:39:12.600Z</time>
      </trkpt>
      <trkpt lat="10.1581105087471" lon="-75.6805551259042">
        <ele>52.3778713</ele>
        <time>2019-09-10T15:39:12.700Z</time>
      </trkpt>
      <trkpt lat="10.1581122376856" lon="-75.6805571760864">
        <ele>52.3778713</ele>
        <time>2019-09-10T15:39:12.800Z</time>
      </trkpt>
      <trkpt lat="10.1581139719915" lon="-75.6805592313513">
        <ele>52.3778713</ele>
        <time>2019-09-10T15:39:12.900Z</time>
      </trkpt>
      <trkpt lat="10.1581157324306" lon="-75.680561263848">
        <ele>52.3778713</ele>
        <time>2019-09-10T15:39:13.000Z</time>
      </trkpt>
      <trkpt lat="10.1581174935993" lon="-75.6805633098524">
        <ele>52.3778713</ele>
        <time>2019-09-10T15:39:13.100Z</time>
      </trkpt>
      <trkpt lat="10.1581192471599" lon="-75.6805653741689">
        <ele>52.3778713</ele>
        <time>2019-09-10T15:39:13.200Z</time>
      </trkpt>
      <trkpt lat="10.1581209955095" lon="-75.680567449417">
        <ele>52.3778713</ele>
        <time>2019-09-10T15:39:13.300Z</time>
      </trkpt>
      <trkpt lat="10.1581227391692" lon="-75.6805695108091">
        <ele>52.3778713</ele>
        <time>2019-09-10T15:39:13.400Z</time>
      </trkpt>
      <trkpt lat="10.1581262125751" lon="-75.6805735941842">
        <ele>52.3778713</ele>
        <time>2019-09-10T15:39:13.600Z</time>
      </trkpt>
      <trkpt lat="10.1581279538377" lon="-75.6805756136606">
        <ele>52.3778713</ele>
        <time>2019-09-10T15:39:13.700Z</time>
      </trkpt>
      <trkpt lat="10.1581297260016" lon="-75.6805776868894">
        <ele>52.3778713</ele>
        <time>2019-09-10T15:39:13.800Z</time>
      </trkpt>
      <trkpt lat="10.1581314918863" lon="-75.6805797779429">
        <ele>52.3778713</ele>
        <time>2019-09-10T15:39:13.900Z</time>
      </trkpt>
      <trkpt lat="10.1581349941613" lon="-75.6805839466813">
        <ele>52.3778713</ele>
        <time>2019-09-10T15:39:14.100Z</time>
      </trkpt>
      <trkpt lat="10.1581367072844" lon="-75.6805860107889">
        <ele>52.3778713</ele>
        <time>2019-09-10T15:39:14.200Z</time>
      </trkpt>
      <trkpt lat="10.1581384153788" lon="-75.6805880755928">
        <ele>52.3778713</ele>
        <time>2019-09-10T15:39:14.300Z</time>
      </trkpt>
      <trkpt lat="10.1581401530719" lon="-75.680590156968">
        <ele>52.3778713</ele>
        <time>2019-09-10T15:39:14.400Z</time>
      </trkpt>
      <trkpt lat="10.1581418984251" lon="-75.6805922445401">
        <ele>52.3778713</ele>
        <time>2019-09-10T15:39:14.500Z</time>
      </trkpt>
      <trkpt lat="10.158143680021" lon="-75.6805943513294">
        <ele>52.3778713</ele>
        <time>2019-09-10T15:39:14.600Z</time>
      </trkpt>
      <trkpt lat="10.1581454539046" lon="-75.6805964561691">
        <ele>52.3778713</ele>
        <time>2019-09-10T15:39:14.700Z</time>
      </trkpt>
      <trkpt lat="10.1581472553284" lon="-75.6805986091214">
        <ele>52.3778713</ele>
        <time>2019-09-10T15:39:14.800Z</time>
      </trkpt>
      <trkpt lat="10.1581490366898" lon="-75.6806007543451">
        <ele>52.3778713</ele>
        <time>2019-09-10T15:39:14.900Z</time>
      </trkpt>
      <trkpt lat="10.1581507810269" lon="-75.6806028633624">
        <ele>52.3778713</ele>
        <time>2019-09-10T15:39:15.000Z</time>
      </trkpt>
      <trkpt lat="10.1581525127533" lon="-75.6806049578972">
        <ele>52.3778713</ele>
        <time>2019-09-10T15:39:15.100Z</time>
      </trkpt>
      <trkpt lat="10.1581542358816" lon="-75.6806070428931">
        <ele>52.3778713</ele>
        <time>2019-09-10T15:39:15.200Z</time>
      </trkpt>
      <trkpt lat="10.1581559623709" lon="-75.6806091229454">
        <ele>52.3778713</ele>
        <time>2019-09-10T15:39:15.300Z</time>
      </trkpt>
      <trkpt lat="10.1581576577245" lon="-75.6806111694373">
        <ele>52.3778713</ele>
        <time>2019-09-10T15:39:15.400Z</time>
      </trkpt>
      <trkpt lat="10.1581593546673" lon="-75.6806132226134">
        <ele>52.3778713</ele>
        <time>2019-09-10T15:39:15.500Z</time>
      </trkpt>
      <trkpt lat="10.1581610551537" lon="-75.6806152906201">
        <ele>52.2778713</ele>
        <time>2019-09-10T15:39:15.600Z</time>
      </trkpt>
      <trkpt lat="10.1581627585061" lon="-75.6806173698369">
        <ele>52.2778713</ele>
        <time>2019-09-10T15:39:15.700Z</time>
      </trkpt>
      <trkpt lat="10.1581644636303" lon="-75.6806195048949">
        <ele>52.2778713</ele>
        <time>2019-09-10T15:39:15.800Z</time>
      </trkpt>
      <trkpt lat="10.1581661678425" lon="-75.6806216375857">
        <ele>52.2778713</ele>
        <time>2019-09-10T15:39:15.900Z</time>
      </trkpt>
      <trkpt lat="10.1581678937065" lon="-75.6806237802331">
        <ele>52.2778713</ele>
        <time>2019-09-10T15:39:16.000Z</time>
      </trkpt>
      <trkpt lat="10.1581696221761" lon="-75.6806259121579">
        <ele>52.2778713</ele>
        <time>2019-09-10T15:39:16.100Z</time>
      </trkpt>
      <trkpt lat="10.1581713152628" lon="-75.6806279727145">
        <ele>52.2778713</ele>
        <time>2019-09-10T15:39:16.200Z</time>
      </trkpt>
      <trkpt lat="10.1581730101734" lon="-75.6806300357777">
        <ele>52.2778713</ele>
        <time>2019-09-10T15:39:16.300Z</time>
      </trkpt>
      <trkpt lat="10.1581746984399" lon="-75.6806320959862">
        <ele>52.3778713</ele>
        <time>2019-09-10T15:39:16.400Z</time>
      </trkpt>
      <trkpt lat="10.1581764024437" lon="-75.6806341697024">
        <ele>52.3778713</ele>
        <time>2019-09-10T15:39:16.500Z</time>
      </trkpt>
      <trkpt lat="10.1581780940192" lon="-75.6806362467607">
        <ele>52.3778713</ele>
        <time>2019-09-10T15:39:16.600Z</time>
      </trkpt>
      <trkpt lat="10.158179794714" lon="-75.680638332244">
        <ele>52.3778713</ele>
        <time>2019-09-10T15:39:16.700Z</time>
      </trkpt>
      <trkpt lat="10.1581815077068" lon="-75.6806404239937">
        <ele>52.3778713</ele>
        <time>2019-09-10T15:39:16.800Z</time>
      </trkpt>
      <trkpt lat="10.1581832264578" lon="-75.6806425199907">
        <ele>52.3778713</ele>
        <time>2019-09-10T15:39:16.900Z</time>
      </trkpt>
      <trkpt lat="10.1581849242865" lon="-75.6806446222542">
        <ele>52.3778713</ele>
        <time>2019-09-10T15:39:17.000Z</time>
      </trkpt>
      <trkpt lat="10.1581866231314" lon="-75.6806467264673">
        <ele>52.3778713</ele>
        <time>2019-09-10T15:39:17.100Z</time>
      </trkpt>
      <trkpt lat="10.1581883355249" lon="-75.6806488350669">
        <ele>52.2778713</ele>
        <time>2019-09-10T15:39:17.200Z</time>
      </trkpt>
      <trkpt lat="10.1581900540935" lon="-75.6806509449197">
        <ele>52.2778713</ele>
        <time>2019-09-10T15:39:17.300Z</time>
      </trkpt>
      <trkpt lat="10.1581917807392" lon="-75.6806530918841">
        <ele>52.2778713</ele>
        <time>2019-09-10T15:39:17.400Z</time>
      </trkpt>
      <trkpt lat="10.1581934984741" lon="-75.6806552360633">
        <ele>52.2778713</ele>
        <time>2019-09-10T15:39:17.500Z</time>
      </trkpt>
      <trkpt lat="10.1581968993426" lon="-75.6806594356468">
        <ele>52.2778713</ele>
        <time>2019-09-10T15:39:17.700Z</time>
      </trkpt>
      <trkpt lat="10.1581985846909" lon="-75.680661526004">
        <ele>52.2778713</ele>
        <time>2019-09-10T15:39:17.800Z</time>
      </trkpt>
      <trkpt lat="10.1582002734004" lon="-75.6806636240202">
        <ele>52.2778713</ele>
        <time>2019-09-10T15:39:17.900Z</time>
      </trkpt>
      <trkpt lat="10.1582019852989" lon="-75.6806657131241">
        <ele>52.2778713</ele>
        <time>2019-09-10T15:39:18.000Z</time>
      </trkpt>
      <trkpt lat="10.1582036973537" lon="-75.6806678066841">
        <ele>52.2778713</ele>
        <time>2019-09-10T15:39:18.100Z</time>
      </trkpt>
      <trkpt lat="10.1582053458862" lon="-75.6806698901482">
        <ele>52.2778713</ele>
        <time>2019-09-10T15:39:18.200Z</time>
      </trkpt>
      <trkpt lat="10.1582069981706" lon="-75.6806719736122">
        <ele>52.3778713</ele>
        <time>2019-09-10T15:39:18.300Z</time>
      </trkpt>
      <trkpt lat="10.1582086721589" lon="-75.6806740840918">
        <ele>52.3778713</ele>
        <time>2019-09-10T15:39:18.400Z</time>
      </trkpt>
      <trkpt lat="10.1582103651935" lon="-75.6806761986793">
        <ele>52.3778713</ele>
        <time>2019-09-10T15:39:18.500Z</time>
      </trkpt>
      <trkpt lat="10.1582120617976" lon="-75.6806783141024">
        <ele>52.3778713</ele>
        <time>2019-09-10T15:39:18.600Z</time>
      </trkpt>
      <trkpt lat="10.1582137636128" lon="-75.6806804160874">
        <ele>52.3778713</ele>
        <time>2019-09-10T15:39:18.700Z</time>
      </trkpt>
      <trkpt lat="10.1582154654019" lon="-75.6806825102044">
        <ele>52.3778713</ele>
        <time>2019-09-10T15:39:18.800Z</time>
      </trkpt>
      <trkpt lat="10.1582171771962" lon="-75.6806845988209">
        <ele>52.3778713</ele>
        <time>2019-09-10T15:39:18.900Z</time>
      </trkpt>
      <trkpt lat="10.1582188894595" lon="-75.6806867166114">
        <ele>52.3778713</ele>
        <time>2019-09-10T15:39:19.000Z</time>
      </trkpt>
      <trkpt lat="10.1582206208472" lon="-75.6806888230525">
        <ele>52.3778713</ele>
        <time>2019-09-10T15:39:19.100Z</time>
      </trkpt>
      <trkpt lat="10.1582223462162" lon="-75.6806909381971">
        <ele>52.3778713</ele>
        <time>2019-09-10T15:39:19.200Z</time>
      </trkpt>
      <trkpt lat="10.1582240769525" lon="-75.6806930465182">
        <ele>52.3778713</ele>
        <time>2019-09-10T15:39:19.300Z</time>
      </trkpt>
      <trkpt lat="10.1582258002892" lon="-75.6806951706795">
        <ele>52.3778713</ele>
        <time>2019-09-10T15:39:19.400Z</time>
      </trkpt>
      <trkpt lat="10.1582275268046" lon="-75.6806972908721">
        <ele>52.3778713</ele>
        <time>2019-09-10T15:39:19.500Z</time>
      </trkpt>
      <trkpt lat="10.1582292561861" lon="-75.6806994086973">
        <ele>52.3778713</ele>
        <time>2019-09-10T15:39:19.600Z</time>
      </trkpt>
      <trkpt lat="10.1582309949213" lon="-75.6807015163917">
        <ele>52.3778713</ele>
        <time>2019-09-10T15:39:19.700Z</time>
      </trkpt>
      <trkpt lat="10.1582327303476" lon="-75.6807036556623">
        <ele>52.3778713</ele>
        <time>2019-09-10T15:39:19.800Z</time>
      </trkpt>
      <trkpt lat="10.1582344643147" lon="-75.6807057876567">
        <ele>52.3778713</ele>
        <time>2019-09-10T15:39:19.900Z</time>
      </trkpt>
      <trkpt lat="10.1582362202724" lon="-75.6807079552656">
        <ele>52.3778713</ele>
        <time>2019-09-10T15:39:20.000Z</time>
      </trkpt>
      <trkpt lat="10.1582379709149" lon="-75.6807101082876">
        <ele>52.3778713</ele>
        <time>2019-09-10T15:39:20.100Z</time>
      </trkpt>
      <trkpt lat="10.1582396545696" lon="-75.6807122444248">
        <ele>52.3778713</ele>
        <time>2019-09-10T15:39:20.200Z</time>
      </trkpt>
      <trkpt lat="10.1582413347069" lon="-75.6807143726942">
        <ele>52.3778713</ele>
        <time>2019-09-10T15:39:20.300Z</time>
      </trkpt>
      <trkpt lat="10.1582430209151" lon="-75.6807164880825">
        <ele>52.3778713</ele>
        <time>2019-09-10T15:39:20.400Z</time>
      </trkpt>
      <trkpt lat="10.1582447276286" lon="-75.6807185918081">
        <ele>52.3778713</ele>
        <time>2019-09-10T15:39:20.500Z</time>
      </trkpt>
      <trkpt lat="10.1582464287664" lon="-75.6807206439746">
        <ele>52.2778713</ele>
        <time>2019-09-10T15:39:20.600Z</time>
      </trkpt>
      <trkpt lat="10.1582481449379" lon="-75.6807226986129">
        <ele>52.3778713</ele>
        <time>2019-09-10T15:39:20.700Z</time>
      </trkpt>
      <trkpt lat="10.1582498882328" lon="-75.6807247498046">
        <ele>52.3778713</ele>
        <time>2019-09-10T15:39:20.800Z</time>
      </trkpt>
      <trkpt lat="10.1582516476558" lon="-75.6807268070887">
        <ele>52.3778713</ele>
        <time>2019-09-10T15:39:20.900Z</time>
      </trkpt>
      <trkpt lat="10.1582534253434" lon="-75.6807288730066">
        <ele>52.3778713</ele>
        <time>2019-09-10T15:39:21.000Z</time>
      </trkpt>
      <trkpt lat="10.1582552150425" lon="-75.6807309436592">
        <ele>52.3778713</ele>
        <time>2019-09-10T15:39:21.100Z</time>
      </trkpt>
      <trkpt lat="10.1582570254814" lon="-75.6807330319624">
        <ele>52.3778713</ele>
        <time>2019-09-10T15:39:21.200Z</time>
      </trkpt>
      <trkpt lat="10.1582588361287" lon="-75.6807351199174">
        <ele>52.3778713</ele>
        <time>2019-09-10T15:39:21.300Z</time>
      </trkpt>
      <trkpt lat="10.1582606179591" lon="-75.6807371627886">
        <ele>52.3778713</ele>
        <time>2019-09-10T15:39:21.400Z</time>
      </trkpt>
      <trkpt lat="10.1582623950996" lon="-75.6807392070872">
        <ele>52.3778713</ele>
        <time>2019-09-10T15:39:21.500Z</time>
      </trkpt>
      <trkpt lat="10.1582641333658" lon="-75.6807412761384">
        <ele>52.3778713</ele>
        <time>2019-09-10T15:39:21.600Z</time>
      </trkpt>
      <trkpt lat="10.1582658768171" lon="-75.6807433619002">
        <ele>52.3778713</ele>
        <time>2019-09-10T15:39:21.700Z</time>
      </trkpt>
      <trkpt lat="10.1582676169593" lon="-75.6807454713701">
        <ele>52.3778713</ele>
        <time>2019-09-10T15:39:21.800Z</time>
      </trkpt>
      <trkpt lat="10.1582693640061" lon="-75.6807475833814">
        <ele>52.3778713</ele>
        <time>2019-09-10T15:39:21.900Z</time>
      </trkpt>
      <trkpt lat="10.1582727674541" lon="-75.6807517568197">
        <ele>52.3778713</ele>
        <time>2019-09-10T15:39:22.100Z</time>
      </trkpt>
      <trkpt lat="10.1582745179141" lon="-75.6807538771168">
        <ele>52.3778713</ele>
        <time>2019-09-10T15:39:22.200Z</time>
      </trkpt>
      <trkpt lat="10.1582762765815" lon="-75.6807560015218">
        <ele>52.3778713</ele>
        <time>2019-09-10T15:39:22.300Z</time>
      </trkpt>
      <trkpt lat="10.1582779958797" lon="-75.6807581592784">
        <ele>52.3778713</ele>
        <time>2019-09-10T15:39:22.400Z</time>
      </trkpt>
      <trkpt lat="10.1582797107745" lon="-75.6807603065213">
        <ele>52.3778713</ele>
        <time>2019-09-10T15:39:22.500Z</time>
      </trkpt>
      <trkpt lat="10.1582814501872" lon="-75.6807624480895">
        <ele>52.3778713</ele>
        <time>2019-09-10T15:39:22.600Z</time>
      </trkpt>
      <trkpt lat="10.1582831903294" lon="-75.6807645769855">
        <ele>52.3778713</ele>
        <time>2019-09-10T15:39:22.700Z</time>
      </trkpt>
      <trkpt lat="10.1582849314617" lon="-75.6807666936271">
        <ele>52.3778713</ele>
        <time>2019-09-10T15:39:22.800Z</time>
      </trkpt>
      <trkpt lat="10.1582866719687" lon="-75.6807688026444">
        <ele>52.3778713</ele>
        <time>2019-09-10T15:39:22.900Z</time>
      </trkpt>
      <trkpt lat="10.1582884212824" lon="-75.6807708972141">
        <ele>52.3778713</ele>
        <time>2019-09-10T15:39:23.000Z</time>
      </trkpt>
      <trkpt lat="10.1582901731754" lon="-75.6807729894164">
        <ele>52.3778713</ele>
        <time>2019-09-10T15:39:23.100Z</time>
      </trkpt>
      <trkpt lat="10.158291930957" lon="-75.6807750744471">
        <ele>52.3778713</ele>
        <time>2019-09-10T15:39:23.200Z</time>
      </trkpt>
      <trkpt lat="10.158293690406" lon="-75.6807771633421">
        <ele>52.3778713</ele>
        <time>2019-09-10T15:39:23.300Z</time>
      </trkpt>
      <trkpt lat="10.1582954125963" lon="-75.6807792549525">
        <ele>52.3778713</ele>
        <time>2019-09-10T15:39:23.400Z</time>
      </trkpt>
      <trkpt lat="10.1582971369491" lon="-75.6807813504274">
        <ele>52.3778713</ele>
        <time>2019-09-10T15:39:23.500Z</time>
      </trkpt>
      <trkpt lat="10.1582988266747" lon="-75.6807834166238">
        <ele>52.3778713</ele>
        <time>2019-09-10T15:39:23.600Z</time>
      </trkpt>
      <trkpt lat="10.1583005287244" lon="-75.6807854889474">
        <ele>52.3778713</ele>
        <time>2019-09-10T15:39:23.700Z</time>
      </trkpt>
      <trkpt lat="10.1583022581319" lon="-75.6807876022121">
        <ele>52.3778713</ele>
        <time>2019-09-10T15:39:23.800Z</time>
      </trkpt>
      <trkpt lat="10.1583040018437" lon="-75.680789719167">
        <ele>52.3778713</ele>
        <time>2019-09-10T15:39:23.900Z</time>
      </trkpt>
      <trkpt lat="10.1583057473012" lon="-75.6807918382803">
        <ele>52.3778713</ele>
        <time>2019-09-10T15:39:24.000Z</time>
      </trkpt>
      <trkpt lat="10.1583074936575" lon="-75.6807939547478">
        <ele>52.3778713</ele>
        <time>2019-09-10T15:39:24.100Z</time>
      </trkpt>
      <trkpt lat="10.1583092375126" lon="-75.6807960682213">
        <ele>52.3778713</ele>
        <time>2019-09-10T15:39:24.200Z</time>
      </trkpt>
      <trkpt lat="10.1583109856407" lon="-75.6807981777261">
        <ele>52.3778713</ele>
        <time>2019-09-10T15:39:24.300Z</time>
      </trkpt>
      <trkpt lat="10.1583127328048" lon="-75.6808002817999">
        <ele>52.3778713</ele>
        <time>2019-09-10T15:39:24.400Z</time>
      </trkpt>
      <trkpt lat="10.1583144825744" lon="-75.6808023873707">
        <ele>52.3778713</ele>
        <time>2019-09-10T15:39:24.500Z</time>
      </trkpt>
      <trkpt lat="10.1583162244102" lon="-75.6808045238561">
        <ele>52.3778713</ele>
        <time>2019-09-10T15:39:24.600Z</time>
      </trkpt>
      <trkpt lat="10.1583179689167" lon="-75.6808066561987">
        <ele>52.3778713</ele>
        <time>2019-09-10T15:39:24.700Z</time>
      </trkpt>
      <trkpt lat="10.1583197056066" lon="-75.6808087801163">
        <ele>52.3778713</ele>
        <time>2019-09-10T15:39:24.800Z</time>
      </trkpt>
      <trkpt lat="10.1583214473121" lon="-75.6808108975934">
        <ele>52.3778713</ele>
        <time>2019-09-10T15:39:24.900Z</time>
      </trkpt>
      <trkpt lat="10.1583231472513" lon="-75.6808130047656">
        <ele>52.3778713</ele>
        <time>2019-09-10T15:39:25.000Z</time>
      </trkpt>
      <trkpt lat="10.1583248548638" lon="-75.6808151098839">
        <ele>52.3778713</ele>
        <time>2019-09-10T15:39:25.100Z</time>
      </trkpt>
      <trkpt lat="10.1583282757686" lon="-75.6808192965166">
        <ele>52.3778713</ele>
        <time>2019-09-10T15:39:25.300Z</time>
      </trkpt>
      <trkpt lat="10.1583315895349" lon="-75.680823392529">
        <ele>52.3778713</ele>
        <time>2019-09-10T15:39:25.500Z</time>
      </trkpt>
      <trkpt lat="10.1583332597322" lon="-75.6808254460881">
        <ele>52.3778713</ele>
        <time>2019-09-10T15:39:25.600Z</time>
      </trkpt>
      <trkpt lat="10.1583349498486" lon="-75.6808275113794">
        <ele>52.3778713</ele>
        <time>2019-09-10T15:39:25.700Z</time>
      </trkpt>
      <trkpt lat="10.1583366636101" lon="-75.6808295572794">
        <ele>52.3778713</ele>
        <time>2019-09-10T15:39:25.800Z</time>
      </trkpt>
      <trkpt lat="10.1583383898128" lon="-75.6808316100377">
        <ele>52.3778713</ele>
        <time>2019-09-10T15:39:25.900Z</time>
      </trkpt>
      <trkpt lat="10.1583418430781" lon="-75.6808357548243">
        <ele>52.3778713</ele>
        <time>2019-09-10T15:39:26.100Z</time>
      </trkpt>
      <trkpt lat="10.1583435921963" lon="-75.6808378165297">
        <ele>52.3778713</ele>
        <time>2019-09-10T15:39:26.200Z</time>
      </trkpt>
      <trkpt lat="10.1583453452749" lon="-75.6808398830047">
        <ele>52.3778713</ele>
        <time>2019-09-10T15:39:26.300Z</time>
      </trkpt>
      <trkpt lat="10.1583470733797" lon="-75.6808419425517">
        <ele>52.3778713</ele>
        <time>2019-09-10T15:39:26.400Z</time>
      </trkpt>
      <trkpt lat="10.1583488009243" lon="-75.6808440174516">
        <ele>52.3778713</ele>
        <time>2019-09-10T15:39:26.500Z</time>
      </trkpt>
      <trkpt lat="10.1583522436633" lon="-75.680848150297">
        <ele>52.3778713</ele>
        <time>2019-09-10T15:39:26.700Z</time>
      </trkpt>
      <trkpt lat="10.15835396416" lon="-75.6808502314634">
        <ele>52.3778713</ele>
        <time>2019-09-10T15:39:26.800Z</time>
      </trkpt>
      <trkpt lat="10.1583556799407" lon="-75.6808523227954">
        <ele>52.3778713</ele>
        <time>2019-09-10T15:39:26.900Z</time>
      </trkpt>
      <trkpt lat="10.1583573903541" lon="-75.6808544319868">
        <ele>52.3778713</ele>
        <time>2019-09-10T15:39:27.000Z</time>
      </trkpt>
      <trkpt lat="10.1583591006502" lon="-75.6808565494987">
        <ele>52.3778713</ele>
        <time>2019-09-10T15:39:27.100Z</time>
      </trkpt>
      <trkpt lat="10.1583607759022" lon="-75.6808586808317">
        <ele>52.3778713</ele>
        <time>2019-09-10T15:39:27.200Z</time>
      </trkpt>
      <trkpt lat="10.1583640808097" lon="-75.680862960626">
        <ele>52.3778713</ele>
        <time>2019-09-10T15:39:27.400Z</time>
      </trkpt>
      <trkpt lat="10.1583657193761" lon="-75.6808651003491">
        <ele>52.3778713</ele>
        <time>2019-09-10T15:39:27.500Z</time>
      </trkpt>
      <trkpt lat="10.1583673295034" lon="-75.6808672110027">
        <ele>52.3778713</ele>
        <time>2019-09-10T15:39:27.600Z</time>
      </trkpt>
      <trkpt lat="10.1583705772591" lon="-75.6808714135453">
        <ele>52.3778713</ele>
        <time>2019-09-10T15:39:27.800Z</time>
      </trkpt>
      <trkpt lat="10.1583722168286" lon="-75.6808735217619">
        <ele>52.3778713</ele>
        <time>2019-09-10T15:39:27.900Z</time>
      </trkpt>
      <trkpt lat="10.1583754943783" lon="-75.680877644198">
        <ele>52.3778713</ele>
        <time>2019-09-10T15:39:28.100Z</time>
      </trkpt>
      <trkpt lat="10.1583771758053" lon="-75.6808796734223">
        <ele>52.3778713</ele>
        <time>2019-09-10T15:39:28.200Z</time>
      </trkpt>
      <trkpt lat="10.1583788864011" lon="-75.6808817129166">
        <ele>52.3778713</ele>
        <time>2019-09-10T15:39:28.300Z</time>
      </trkpt>
      <trkpt lat="10.1583805932058" lon="-75.6808837297819">
        <ele>52.3778713</ele>
        <time>2019-09-10T15:39:28.400Z</time>
      </trkpt>
      <trkpt lat="10.1583823059902" lon="-75.68088576482">
        <ele>52.3778713</ele>
        <time>2019-09-10T15:39:28.500Z</time>
      </trkpt>
      <trkpt lat="10.1583839971618" lon="-75.680887791468">
        <ele>52.3778713</ele>
        <time>2019-09-10T15:39:28.600Z</time>
      </trkpt>
      <trkpt lat="10.1583873886896" lon="-75.6808919427996">
        <ele>52.3778713</ele>
        <time>2019-09-10T15:39:28.800Z</time>
      </trkpt>
      <trkpt lat="10.1583908494848" lon="-75.6808962343262">
        <ele>52.2778713</ele>
        <time>2019-09-10T15:39:29.000Z</time>
      </trkpt>
      <trkpt lat="10.1583926085951" lon="-75.6808983943108">
        <ele>52.2778713</ele>
        <time>2019-09-10T15:39:29.100Z</time>
      </trkpt>
      <trkpt lat="10.1583943855532" lon="-75.6809005840613">
        <ele>52.2778713</ele>
        <time>2019-09-10T15:39:29.200Z</time>
      </trkpt>
      <trkpt lat="10.1583961624853" lon="-75.6809027547338">
        <ele>52.2778713</ele>
        <time>2019-09-10T15:39:29.300Z</time>
      </trkpt>
      <trkpt lat="10.1583996895647" lon="-75.6809071063489">
        <ele>52.2778713</ele>
        <time>2019-09-10T15:39:29.500Z</time>
      </trkpt>
      <trkpt lat="10.1584014466297" lon="-75.6809092530696">
        <ele>52.2778713</ele>
        <time>2019-09-10T15:39:29.600Z</time>
      </trkpt>
      <trkpt lat="10.1584032093226" lon="-75.6809113867351">
        <ele>52.2778713</ele>
        <time>2019-09-10T15:39:29.700Z</time>
      </trkpt>
      <trkpt lat="10.1584049979664" lon="-75.6809134939769">
        <ele>52.3778713</ele>
        <time>2019-09-10T15:39:29.800Z</time>
      </trkpt>
      <trkpt lat="10.1584068000026" lon="-75.6809156005225">
        <ele>52.3778713</ele>
        <time>2019-09-10T15:39:29.900Z</time>
      </trkpt>
      <trkpt lat="10.1584103078468" lon="-75.6809197203128">
        <ele>52.3778713</ele>
        <time>2019-09-10T15:39:30.100Z</time>
      </trkpt>
      <trkpt lat="10.1584120526464" lon="-75.6809218052042">
        <ele>52.3778713</ele>
        <time>2019-09-10T15:39:30.200Z</time>
      </trkpt>
      <trkpt lat="10.1584138143297" lon="-75.6809239006442">
        <ele>52.3778713</ele>
        <time>2019-09-10T15:39:30.300Z</time>
      </trkpt>
      <trkpt lat="10.1584155467661" lon="-75.6809259825765">
        <ele>52.3778713</ele>
        <time>2019-09-10T15:39:30.400Z</time>
      </trkpt>
      <trkpt lat="10.1584172955977" lon="-75.6809280580682">
        <ele>52.3778713</ele>
        <time>2019-09-10T15:39:30.500Z</time>
      </trkpt>
      <trkpt lat="10.1584190586359" lon="-75.6809301300785">
        <ele>52.3778713</ele>
        <time>2019-09-10T15:39:30.600Z</time>
      </trkpt>
      <trkpt lat="10.1584226376757" lon="-75.6809342737859">
        <ele>52.3778713</ele>
        <time>2019-09-10T15:39:30.800Z</time>
      </trkpt>
      <trkpt lat="10.1584244446427" lon="-75.6809363426281">
        <ele>52.3778713</ele>
        <time>2019-09-10T15:39:30.900Z</time>
      </trkpt>
      <trkpt lat="10.1584262459754" lon="-75.6809384674857">
        <ele>52.3778713</ele>
        <time>2019-09-10T15:39:31.000Z</time>
      </trkpt>
      <trkpt lat="10.1584280474057" lon="-75.6809405863206">
        <ele>52.3778713</ele>
        <time>2019-09-10T15:39:31.100Z</time>
      </trkpt>
      <trkpt lat="10.1584298390198" lon="-75.6809426588879">
        <ele>52.3778713</ele>
        <time>2019-09-10T15:39:31.200Z</time>
      </trkpt>
      <trkpt lat="10.1584316319366" lon="-75.680944724597">
        <ele>52.3778713</ele>
        <time>2019-09-10T15:39:31.300Z</time>
      </trkpt>
      <trkpt lat="10.1584352086575" lon="-75.6809488940317">
        <ele>52.3778713</ele>
        <time>2019-09-10T15:39:31.500Z</time>
      </trkpt>
      <trkpt lat="10.1584369623093" lon="-75.6809509610637">
        <ele>52.3778713</ele>
        <time>2019-09-10T15:39:31.600Z</time>
      </trkpt>
      <trkpt lat="10.1584404627083" lon="-75.6809550884782">
        <ele>52.3778713</ele>
        <time>2019-09-10T15:39:31.800Z</time>
      </trkpt>
      <trkpt lat="10.1584422032479" lon="-75.6809571488607">
        <ele>52.3778713</ele>
        <time>2019-09-10T15:39:31.900Z</time>
      </trkpt>
      <trkpt lat="10.1584439371304" lon="-75.6809591880417">
        <ele>52.3778713</ele>
        <time>2019-09-10T15:39:32.000Z</time>
      </trkpt>
      <trkpt lat="10.1584456777286" lon="-75.6809612311566">
        <ele>52.3778713</ele>
        <time>2019-09-10T15:39:32.100Z</time>
      </trkpt>
      <trkpt lat="10.158447404713" lon="-75.6809632868741">
        <ele>52.3778713</ele>
        <time>2019-09-10T15:39:32.200Z</time>
      </trkpt>
      <trkpt lat="10.1584491328243" lon="-75.6809653559949">
        <ele>52.3778713</ele>
        <time>2019-09-10T15:39:32.300Z</time>
      </trkpt>
      <trkpt lat="10.1584508576005" lon="-75.68096742804">
        <ele>52.3778713</ele>
        <time>2019-09-10T15:39:32.400Z</time>
      </trkpt>
      <trkpt lat="10.1584525929812" lon="-75.6809695110167">
        <ele>52.3778713</ele>
        <time>2019-09-10T15:39:32.500Z</time>
      </trkpt>
      <trkpt lat="10.1584543275867" lon="-75.6809715823307">
        <ele>52.3778713</ele>
        <time>2019-09-10T15:39:32.600Z</time>
      </trkpt>
      <trkpt lat="10.1584578053698" lon="-75.6809757450464">
        <ele>52.3778713</ele>
        <time>2019-09-10T15:39:32.800Z</time>
      </trkpt>
      <trkpt lat="10.1584595557647" lon="-75.6809778304948">
        <ele>52.3778713</ele>
        <time>2019-09-10T15:39:32.900Z</time>
      </trkpt>
      <trkpt lat="10.1584631658883" lon="-75.6809821541893">
        <ele>52.2778713</ele>
        <time>2019-09-10T15:39:33.100Z</time>
      </trkpt>
      <trkpt lat="10.1584649195075" lon="-75.6809842694035">
        <ele>52.2778713</ele>
        <time>2019-09-10T15:39:33.200Z</time>
      </trkpt>
      <trkpt lat="10.158466668173" lon="-75.6809863668627">
        <ele>52.2778713</ele>
        <time>2019-09-10T15:39:33.300Z</time>
      </trkpt>
      <trkpt lat="10.1584683966947" lon="-75.6809884585428">
        <ele>52.2778713</ele>
        <time>2019-09-10T15:39:33.400Z</time>
      </trkpt>
      <trkpt lat="10.1584701286328" lon="-75.68099054796">
        <ele>52.2778713</ele>
        <time>2019-09-10T15:39:33.500Z</time>
      </trkpt>
      <trkpt lat="10.1584718615089" lon="-75.6809926413286">
        <ele>52.2778713</ele>
        <time>2019-09-10T15:39:33.600Z</time>
      </trkpt>
      <trkpt lat="10.1584736116465" lon="-75.6809947304673">
        <ele>52.2778713</ele>
        <time>2019-09-10T15:39:33.700Z</time>
      </trkpt>
      <trkpt lat="10.1584753266619" lon="-75.6809968278046">
        <ele>52.2778713</ele>
        <time>2019-09-10T15:39:33.800Z</time>
      </trkpt>
      <trkpt lat="10.1584787602719" lon="-75.6810010528717">
        <ele>52.2778713</ele>
        <time>2019-09-10T15:39:34.000Z</time>
      </trkpt>
      <trkpt lat="10.1584804805113" lon="-75.6810031704707">
        <ele>52.2778713</ele>
        <time>2019-09-10T15:39:34.100Z</time>
      </trkpt>
      <trkpt lat="10.1584821951195" lon="-75.6810053138318">
        <ele>52.2778713</ele>
        <time>2019-09-10T15:39:34.200Z</time>
      </trkpt>
      <trkpt lat="10.1584839269208" lon="-75.6810074525105">
        <ele>52.2778713</ele>
        <time>2019-09-10T15:39:34.300Z</time>
      </trkpt>
      <trkpt lat="10.1584856599761" lon="-75.6810095898488">
        <ele>52.2778713</ele>
        <time>2019-09-10T15:39:34.400Z</time>
      </trkpt>
      <trkpt lat="10.1584874014862" lon="-75.6810117210599">
        <ele>52.3778713</ele>
        <time>2019-09-10T15:39:34.500Z</time>
      </trkpt>
      <trkpt lat="10.1584891365574" lon="-75.6810138394074">
        <ele>52.3778713</ele>
        <time>2019-09-10T15:39:34.600Z</time>
      </trkpt>
      <trkpt lat="10.1584908832102" lon="-75.6810159527591">
        <ele>52.3778713</ele>
        <time>2019-09-10T15:39:34.700Z</time>
      </trkpt>
      <trkpt lat="10.1584926256974" lon="-75.6810180496438">
        <ele>52.3778713</ele>
        <time>2019-09-10T15:39:34.800Z</time>
      </trkpt>
      <trkpt lat="10.1584961070452" lon="-75.6810222454325">
        <ele>52.2778713</ele>
        <time>2019-09-10T15:39:35.000Z</time>
      </trkpt>
      <trkpt lat="10.1584978416914" lon="-75.6810243491582">
        <ele>52.3778713</ele>
        <time>2019-09-10T15:39:35.100Z</time>
      </trkpt>
      <trkpt lat="10.158499529287" lon="-75.6810264496984">
        <ele>52.3778713</ele>
        <time>2019-09-10T15:39:35.200Z</time>
      </trkpt>
      <trkpt lat="10.1585012232645" lon="-75.6810285490027">
        <ele>52.3778713</ele>
        <time>2019-09-10T15:39:35.300Z</time>
      </trkpt>
      <trkpt lat="10.1585029792824" lon="-75.6810307075949">
        <ele>52.3778713</ele>
        <time>2019-09-10T15:39:35.400Z</time>
      </trkpt>
      <trkpt lat="10.1585047413891" lon="-75.6810328654385">
        <ele>52.3778713</ele>
        <time>2019-09-10T15:39:35.500Z</time>
      </trkpt>
      <trkpt lat="10.158506511204" lon="-75.6810350435264">
        <ele>52.3778713</ele>
        <time>2019-09-10T15:39:35.600Z</time>
      </trkpt>
      <trkpt lat="10.158509997017" lon="-75.6810393173153">
        <ele>52.3778713</ele>
        <time>2019-09-10T15:39:35.800Z</time>
      </trkpt>
      <trkpt lat="10.1585134648936" lon="-75.6810435831667">
        <ele>52.3778713</ele>
        <time>2019-09-10T15:39:36.000Z</time>
      </trkpt>
      <trkpt lat="10.1585152094554" lon="-75.6810457447355">
        <ele>52.3778713</ele>
        <time>2019-09-10T15:39:36.100Z</time>
      </trkpt>
      <trkpt lat="10.1585168941531" lon="-75.6810478411328">
        <ele>52.3778713</ele>
        <time>2019-09-10T15:39:36.200Z</time>
      </trkpt>
      <trkpt lat="10.1585185874746" lon="-75.6810499338225">
        <ele>52.3778713</ele>
        <time>2019-09-10T15:39:36.300Z</time>
      </trkpt>
      <trkpt lat="10.1585202908638" lon="-75.6810520199324">
        <ele>52.3778713</ele>
        <time>2019-09-10T15:39:36.400Z</time>
      </trkpt>
      <trkpt lat="10.1585220085193" lon="-75.6810541221263">
        <ele>52.3778713</ele>
        <time>2019-09-10T15:39:36.500Z</time>
      </trkpt>
      <trkpt lat="10.1585237763153" lon="-75.6810562809447">
        <ele>52.3778713</ele>
        <time>2019-09-10T15:39:36.600Z</time>
      </trkpt>
      <trkpt lat="10.1585255494291" lon="-75.6810584324697">
        <ele>52.3778713</ele>
        <time>2019-09-10T15:39:36.700Z</time>
      </trkpt>
      <trkpt lat="10.1585272924064" lon="-75.6810605945258">
        <ele>52.3778713</ele>
        <time>2019-09-10T15:39:36.800Z</time>
      </trkpt>
      <trkpt lat="10.1585290390738" lon="-75.6810627466252">
        <ele>52.3778713</ele>
        <time>2019-09-10T15:39:36.900Z</time>
      </trkpt>
      <trkpt lat="10.1585307535192" lon="-75.6810648349457">
        <ele>52.3778713</ele>
        <time>2019-09-10T15:39:37.000Z</time>
      </trkpt>
      <trkpt lat="10.1585324736764" lon="-75.6810669139537">
        <ele>52.3778713</ele>
        <time>2019-09-10T15:39:37.100Z</time>
      </trkpt>
      <trkpt lat="10.1585341492068" lon="-75.6810689777653">
        <ele>52.3778713</ele>
        <time>2019-09-10T15:39:37.200Z</time>
      </trkpt>
      <trkpt lat="10.1585358411422" lon="-75.6810710566166">
        <ele>52.3778713</ele>
        <time>2019-09-10T15:39:37.300Z</time>
      </trkpt>
      <trkpt lat="10.1585375315306" lon="-75.6810731331005">
        <ele>52.3778713</ele>
        <time>2019-09-10T15:39:37.400Z</time>
      </trkpt>
      <trkpt lat="10.158539242299" lon="-75.6810752144409">
        <ele>52.4778713</ele>
        <time>2019-09-10T15:39:37.500Z</time>
      </trkpt>
      <trkpt lat="10.1585409279388" lon="-75.6810772576429">
        <ele>52.4778713</ele>
        <time>2019-09-10T15:39:37.600Z</time>
      </trkpt>
      <trkpt lat="10.1585426272918" lon="-75.6810793045525">
        <ele>52.4778713</ele>
        <time>2019-09-10T15:39:37.700Z</time>
      </trkpt>
      <trkpt lat="10.1585443359268" lon="-75.6810813569801">
        <ele>52.4778713</ele>
        <time>2019-09-10T15:39:37.800Z</time>
      </trkpt>
      <trkpt lat="10.1585460583581" lon="-75.6810834194166">
        <ele>52.4778713</ele>
        <time>2019-09-10T15:39:37.900Z</time>
      </trkpt>
      <trkpt lat="10.1585477543532" lon="-75.6810855011922">
        <ele>52.4778713</ele>
        <time>2019-09-10T15:39:38.000Z</time>
      </trkpt>
      <trkpt lat="10.1585494538951" lon="-75.6810875894954">
        <ele>52.4778713</ele>
        <time>2019-09-10T15:39:38.100Z</time>
      </trkpt>
      <trkpt lat="10.1585511533099" lon="-75.6810897350672">
        <ele>52.4778713</ele>
        <time>2019-09-10T15:39:38.200Z</time>
      </trkpt>
      <trkpt lat="10.1585528636712" lon="-75.6810918682627">
        <ele>52.4778713</ele>
        <time>2019-09-10T15:39:38.300Z</time>
      </trkpt>
      <trkpt lat="10.1585545884735" lon="-75.6810940031815">
        <ele>52.4778713</ele>
        <time>2019-09-10T15:39:38.400Z</time>
      </trkpt>
      <trkpt lat="10.158556316956" lon="-75.6810961203279">
        <ele>52.4778713</ele>
        <time>2019-09-10T15:39:38.500Z</time>
      </trkpt>
      <trkpt lat="10.1585579975982" lon="-75.6810982018946">
        <ele>52.4778713</ele>
        <time>2019-09-10T15:39:38.600Z</time>
      </trkpt>
      <trkpt lat="10.1585596845489" lon="-75.6811002750015">
        <ele>52.4778713</ele>
        <time>2019-09-10T15:39:38.700Z</time>
      </trkpt>
      <trkpt lat="10.1585613893018" lon="-75.6811023496925">
        <ele>52.4778713</ele>
        <time>2019-09-10T15:39:38.800Z</time>
      </trkpt>
      <trkpt lat="10.1585631113064" lon="-75.6811044245576">
        <ele>52.4778713</ele>
        <time>2019-09-10T15:39:38.900Z</time>
      </trkpt>
      <trkpt lat="10.1585648176682" lon="-75.6811064773159">
        <ele>52.4778713</ele>
        <time>2019-09-10T15:39:39.000Z</time>
      </trkpt>
      <trkpt lat="10.1585665300845" lon="-75.6811085364278">
        <ele>52.4778713</ele>
        <time>2019-09-10T15:39:39.100Z</time>
      </trkpt>
      <trkpt lat="10.1585682513433" lon="-75.6811105837551">
        <ele>52.4778713</ele>
        <time>2019-09-10T15:39:39.200Z</time>
      </trkpt>
      <trkpt lat="10.1585699805164" lon="-75.6811126425362">
        <ele>52.4778713</ele>
        <time>2019-09-10T15:39:39.300Z</time>
      </trkpt>
      <trkpt lat="10.158571713513" lon="-75.6811147602396">
        <ele>52.4778713</ele>
        <time>2019-09-10T15:39:39.400Z</time>
      </trkpt>
      <trkpt lat="10.1585734495222" lon="-75.6811168818073">
        <ele>52.4778713</ele>
        <time>2019-09-10T15:39:39.500Z</time>
      </trkpt>
      <trkpt lat="10.1585751635181" lon="-75.6811189464197">
        <ele>52.3778713</ele>
        <time>2019-09-10T15:39:39.600Z</time>
      </trkpt>
      <trkpt lat="10.1585785717863" lon="-75.6811230816848">
        <ele>52.3778713</ele>
        <time>2019-09-10T15:39:39.800Z</time>
      </trkpt>
      <trkpt lat="10.1585819822365" lon="-75.6811272205008">
        <ele>52.4778713</ele>
        <time>2019-09-10T15:39:40.000Z</time>
      </trkpt>
      <trkpt lat="10.1585837054169" lon="-75.6811292860706">
        <ele>52.4778713</ele>
        <time>2019-09-10T15:39:40.100Z</time>
      </trkpt>
      <trkpt lat="10.1585854037407" lon="-75.6811313646781">
        <ele>52.4778713</ele>
        <time>2019-09-10T15:39:40.200Z</time>
      </trkpt>
      <trkpt lat="10.158587105647" lon="-75.6811334501614">
        <ele>52.4778713</ele>
        <time>2019-09-10T15:39:40.300Z</time>
      </trkpt>
      <trkpt lat="10.1585888146599" lon="-75.6811355142864">
        <ele>52.4778713</ele>
        <time>2019-09-10T15:39:40.400Z</time>
      </trkpt>
      <trkpt lat="10.1585905336324" lon="-75.6811375819189">
        <ele>52.3778713</ele>
        <time>2019-09-10T15:39:40.500Z</time>
      </trkpt>
      <trkpt lat="10.1585922379228" lon="-75.6811396243984">
        <ele>52.3778713</ele>
        <time>2019-09-10T15:39:40.600Z</time>
      </trkpt>
      <trkpt lat="10.1585939526157" lon="-75.6811416745109">
        <ele>52.3778713</ele>
        <time>2019-09-10T15:39:40.700Z</time>
      </trkpt>
      <trkpt lat="10.1585956755941" lon="-75.6811437766526">
        <ele>52.3778713</ele>
        <time>2019-09-10T15:39:40.800Z</time>
      </trkpt>
      <trkpt lat="10.1585974052817" lon="-75.6811458857134">
        <ele>52.3778713</ele>
        <time>2019-09-10T15:39:40.900Z</time>
      </trkpt>
      <trkpt lat="10.1585990524138" lon="-75.6811479408652">
        <ele>52.3778713</ele>
        <time>2019-09-10T15:39:41.000Z</time>
      </trkpt>
      <trkpt lat="10.1586007061703" lon="-75.6811499957385">
        <ele>52.3778713</ele>
        <time>2019-09-10T15:39:41.100Z</time>
      </trkpt>
      <trkpt lat="10.1586023982083" lon="-75.6811521000212">
        <ele>52.3778713</ele>
        <time>2019-09-10T15:39:41.200Z</time>
      </trkpt>
      <trkpt lat="10.1586041169723" lon="-75.6811542177158">
        <ele>52.3778713</ele>
        <time>2019-09-10T15:39:41.300Z</time>
      </trkpt>
      <trkpt lat="10.1586058821209" lon="-75.681156349336">
        <ele>52.3778713</ele>
        <time>2019-09-10T15:39:41.400Z</time>
      </trkpt>
      <trkpt lat="10.1586076427946" lon="-75.6811584736105">
        <ele>52.3778713</ele>
        <time>2019-09-10T15:39:41.500Z</time>
      </trkpt>
      <trkpt lat="10.1586093512864" lon="-75.6811605325918">
        <ele>52.3778713</ele>
        <time>2019-09-10T15:39:41.600Z</time>
      </trkpt>
      <trkpt lat="10.1586110580325" lon="-75.681162594541">
        <ele>52.3778713</ele>
        <time>2019-09-10T15:39:41.700Z</time>
      </trkpt>
      <trkpt lat="10.1586127734028" lon="-75.681164653235">
        <ele>52.3778713</ele>
        <time>2019-09-10T15:39:41.800Z</time>
      </trkpt>
      <trkpt lat="10.1586144981399" lon="-75.6811667258807">
        <ele>52.3778713</ele>
        <time>2019-09-10T15:39:41.900Z</time>
      </trkpt>
      <trkpt lat="10.158616230381" lon="-75.6811688364125">
        <ele>52.3778713</ele>
        <time>2019-09-10T15:39:42.000Z</time>
      </trkpt>
      <trkpt lat="10.1586179706991" lon="-75.681170949886">
        <ele>52.3778713</ele>
        <time>2019-09-10T15:39:42.100Z</time>
      </trkpt>
      <trkpt lat="10.1586196915475" lon="-75.6811729989715">
        <ele>52.3778713</ele>
        <time>2019-09-10T15:39:42.200Z</time>
      </trkpt>
      <trkpt lat="10.1586214152229" lon="-75.6811750480221">
        <ele>52.3778713</ele>
        <time>2019-09-10T15:39:42.300Z</time>
      </trkpt>
      <trkpt lat="10.1586231055608" lon="-75.6811770694829">
        <ele>52.3778713</ele>
        <time>2019-09-10T15:39:42.400Z</time>
      </trkpt>
      <trkpt lat="10.1586248010836" lon="-75.6811791120669">
        <ele>52.3778713</ele>
        <time>2019-09-10T15:39:42.500Z</time>
      </trkpt>
      <trkpt lat="10.1586265031984" lon="-75.6811811746079">
        <ele>52.3778713</ele>
        <time>2019-09-10T15:39:42.600Z</time>
      </trkpt>
      <trkpt lat="10.158628221018" lon="-75.6811832475147">
        <ele>52.3778713</ele>
        <time>2019-09-10T15:39:42.700Z</time>
      </trkpt>
      <trkpt lat="10.1586316924958" lon="-75.6811874315015">
        <ele>52.3778713</ele>
        <time>2019-09-10T15:39:42.900Z</time>
      </trkpt>
      <trkpt lat="10.1586334393212" lon="-75.6811895381864">
        <ele>52.3778713</ele>
        <time>2019-09-10T15:39:43.000Z</time>
      </trkpt>
      <trkpt lat="10.1586351762065" lon="-75.6811916451584">
        <ele>52.3778713</ele>
        <time>2019-09-10T15:39:43.100Z</time>
      </trkpt>
      <trkpt lat="10.1586369038162" lon="-75.6811937921663">
        <ele>52.3778713</ele>
        <time>2019-09-10T15:39:43.200Z</time>
      </trkpt>
      <trkpt lat="10.1586386278434" lon="-75.6811959281208">
        <ele>52.3778713</ele>
        <time>2019-09-10T15:39:43.300Z</time>
      </trkpt>
      <trkpt lat="10.1586420822421" lon="-75.6812002453138">
        <ele>52.3778713</ele>
        <time>2019-09-10T15:39:43.500Z</time>
      </trkpt>
      <trkpt lat="10.1586438046538" lon="-75.6812023804676">
        <ele>52.3778713</ele>
        <time>2019-09-10T15:39:43.600Z</time>
      </trkpt>
      <trkpt lat="10.1586472959205" lon="-75.6812066076409">
        <ele>52.3778713</ele>
        <time>2019-09-10T15:39:43.800Z</time>
      </trkpt>
      <trkpt lat="10.158650823039" lon="-75.6812108008186">
        <ele>52.3778713</ele>
        <time>2019-09-10T15:39:44.000Z</time>
      </trkpt>
      <trkpt lat="10.1586525866178" lon="-75.6812128911236">
        <ele>52.3778713</ele>
        <time>2019-09-10T15:39:44.100Z</time>
      </trkpt>
      <trkpt lat="10.1586543652434" lon="-75.6812149489647">
        <ele>52.3778713</ele>
        <time>2019-09-10T15:39:44.200Z</time>
      </trkpt>
      <trkpt lat="10.1586561438951" lon="-75.6812170097911">
        <ele>52.3778713</ele>
        <time>2019-09-10T15:39:44.300Z</time>
      </trkpt>
      <trkpt lat="10.1586579338807" lon="-75.6812190796473">
        <ele>52.3778713</ele>
        <time>2019-09-10T15:39:44.400Z</time>
      </trkpt>
      <trkpt lat="10.1586597245047" lon="-75.6812211633246">
        <ele>52.3778713</ele>
        <time>2019-09-10T15:39:44.500Z</time>
      </trkpt>
      <trkpt lat="10.1586615246127" lon="-75.6812232658797">
        <ele>52.3778713</ele>
        <time>2019-09-10T15:39:44.600Z</time>
      </trkpt>
      <trkpt lat="10.1586633218938" lon="-75.6812253719379">
        <ele>52.3778713</ele>
        <time>2019-09-10T15:39:44.700Z</time>
      </trkpt>
      <trkpt lat="10.1586650611111" lon="-75.6812274183992">
        <ele>52.3778713</ele>
        <time>2019-09-10T15:39:44.800Z</time>
      </trkpt>
      <trkpt lat="10.1586667993513" lon="-75.6812294723325">
        <ele>52.3778713</ele>
        <time>2019-09-10T15:39:44.900Z</time>
      </trkpt>
      <trkpt lat="10.1586685107157" lon="-75.6812315343731">
        <ele>52.3778713</ele>
        <time>2019-09-10T15:39:45.000Z</time>
      </trkpt>
      <trkpt lat="10.1586702380648" lon="-75.6812336093774">
        <ele>52.3778713</ele>
        <time>2019-09-10T15:39:45.100Z</time>
      </trkpt>
      <trkpt lat="10.1586719243512" lon="-75.6812356264342">
        <ele>52.3778713</ele>
        <time>2019-09-10T15:39:45.200Z</time>
      </trkpt>
      <trkpt lat="10.1586736213592" lon="-75.6812376541397">
        <ele>52.3778713</ele>
        <time>2019-09-10T15:39:45.300Z</time>
      </trkpt>
      <trkpt lat="10.1586753602377" lon="-75.6812397669866">
        <ele>52.3778713</ele>
        <time>2019-09-10T15:39:45.400Z</time>
      </trkpt>
      <trkpt lat="10.158677115518" lon="-75.681241894799">
        <ele>52.3778713</ele>
        <time>2019-09-10T15:39:45.500Z</time>
      </trkpt>
      <trkpt lat="10.1586788678409" lon="-75.6812440346722">
        <ele>52.3778713</ele>
        <time>2019-09-10T15:39:45.600Z</time>
      </trkpt>
      <trkpt lat="10.158680621128" lon="-75.68124616453">
        <ele>52.3778713</ele>
        <time>2019-09-10T15:39:45.700Z</time>
      </trkpt>
      <trkpt lat="10.1586823383808" lon="-75.681248292016">
        <ele>52.3778713</ele>
        <time>2019-09-10T15:39:45.800Z</time>
      </trkpt>
      <trkpt lat="10.1586840591641" lon="-75.681250413599">
        <ele>52.2778713</ele>
        <time>2019-09-10T15:39:45.900Z</time>
      </trkpt>
      <trkpt lat="10.1586857685222" lon="-75.6812525683638">
        <ele>52.2778713</ele>
        <time>2019-09-10T15:39:46.000Z</time>
      </trkpt>
      <trkpt lat="10.1586874874295" lon="-75.6812547155327">
        <ele>52.2778713</ele>
        <time>2019-09-10T15:39:46.100Z</time>
      </trkpt>
      <trkpt lat="10.1586892015166" lon="-75.6812568585587">
        <ele>52.2778713</ele>
        <time>2019-09-10T15:39:46.200Z</time>
      </trkpt>
      <trkpt lat="10.1586909186001" lon="-75.6812589993719">
        <ele>52.2778713</ele>
        <time>2019-09-10T15:39:46.300Z</time>
      </trkpt>
      <trkpt lat="10.1586926403214" lon="-75.6812611218208">
        <ele>52.2778713</ele>
        <time>2019-09-10T15:39:46.400Z</time>
      </trkpt>
      <trkpt lat="10.1586943732594" lon="-75.6812632437748">
        <ele>52.3778713</ele>
        <time>2019-09-10T15:39:46.500Z</time>
      </trkpt>
      <trkpt lat="10.158696123993" lon="-75.6812653707506">
        <ele>52.3778713</ele>
        <time>2019-09-10T15:39:46.600Z</time>
      </trkpt>
      <trkpt lat="10.1586978795859" lon="-75.6812674935781">
        <ele>52.3778713</ele>
        <time>2019-09-10T15:39:46.700Z</time>
      </trkpt>
      <trkpt lat="10.158699637641" lon="-75.6812695964955">
        <ele>52.3778713</ele>
        <time>2019-09-10T15:39:46.800Z</time>
      </trkpt>
      <trkpt lat="10.1587013996174" lon="-75.6812716996184">
        <ele>52.3778713</ele>
        <time>2019-09-10T15:39:46.900Z</time>
      </trkpt>
      <trkpt lat="10.1587031223157" lon="-75.6812737908301">
        <ele>52.3778713</ele>
        <time>2019-09-10T15:39:47.000Z</time>
      </trkpt>
      <trkpt lat="10.1587048491047" lon="-75.6812758898124">
        <ele>52.3778713</ele>
        <time>2019-09-10T15:39:47.100Z</time>
      </trkpt>
      <trkpt lat="10.1587065642731" lon="-75.6812779821963">
        <ele>52.3778713</ele>
        <time>2019-09-10T15:39:47.200Z</time>
      </trkpt>
      <trkpt lat="10.1587082897985" lon="-75.6812800827272">
        <ele>52.3778713</ele>
        <time>2019-09-10T15:39:47.300Z</time>
      </trkpt>
      <trkpt lat="10.158710008797" lon="-75.6812821766437">
        <ele>52.3778713</ele>
        <time>2019-09-10T15:39:47.400Z</time>
      </trkpt>
      <trkpt lat="10.1587134531254" lon="-75.6812863651607">
        <ele>52.3778713</ele>
        <time>2019-09-10T15:39:47.600Z</time>
      </trkpt>
      <trkpt lat="10.158715177843" lon="-75.6812884598354">
        <ele>52.3778713</ele>
        <time>2019-09-10T15:39:47.700Z</time>
      </trkpt>
      <trkpt lat="10.1587186980569" lon="-75.6812926425298">
        <ele>52.3778713</ele>
        <time>2019-09-10T15:39:47.900Z</time>
      </trkpt>
      <trkpt lat="10.158720453272" lon="-75.6812947347038">
        <ele>52.3778713</ele>
        <time>2019-09-10T15:39:48.000Z</time>
      </trkpt>
      <trkpt lat="10.1587222091385" lon="-75.6812968330769">
        <ele>52.3778713</ele>
        <time>2019-09-10T15:39:48.100Z</time>
      </trkpt>
      <trkpt lat="10.1587239523813" lon="-75.6812989327065">
        <ele>52.3778713</ele>
        <time>2019-09-10T15:39:48.200Z</time>
      </trkpt>
      <trkpt lat="10.1587274321446" lon="-75.6813031374119">
        <ele>52.3778713</ele>
        <time>2019-09-10T15:39:48.400Z</time>
      </trkpt>
      <trkpt lat="10.1587291672712" lon="-75.6813052407459">
        <ele>52.3778713</ele>
        <time>2019-09-10T15:39:48.500Z</time>
      </trkpt>
      <trkpt lat="10.158730917145" lon="-75.681307342931">
        <ele>52.3778713</ele>
        <time>2019-09-10T15:39:48.600Z</time>
      </trkpt>
      <trkpt lat="10.1587326678656" lon="-75.6813094468134">
        <ele>52.3778713</ele>
        <time>2019-09-10T15:39:48.700Z</time>
      </trkpt>
      <trkpt lat="10.1587343814056" lon="-75.6813115119132">
        <ele>52.3778713</ele>
        <time>2019-09-10T15:39:48.800Z</time>
      </trkpt>
      <trkpt lat="10.1587360986715" lon="-75.6813135806097">
        <ele>52.3778713</ele>
        <time>2019-09-10T15:39:48.900Z</time>
      </trkpt>
      <trkpt lat="10.1587378163281" lon="-75.6813156475807">
        <ele>52.3778713</ele>
        <time>2019-09-10T15:39:49.000Z</time>
      </trkpt>
      <trkpt lat="10.1587395449801" lon="-75.6813177259402">
        <ele>52.2778713</ele>
        <time>2019-09-10T15:39:49.100Z</time>
      </trkpt>
      <trkpt lat="10.1587412758206" lon="-75.6813198086383">
        <ele>52.2778713</ele>
        <time>2019-09-10T15:39:49.200Z</time>
      </trkpt>
      <trkpt lat="10.158743008485" lon="-75.6813218984603">
        <ele>52.2778713</ele>
        <time>2019-09-10T15:39:49.300Z</time>
      </trkpt>
      <trkpt lat="10.1587447066004" lon="-75.6813239930473">
        <ele>52.2778713</ele>
        <time>2019-09-10T15:39:49.400Z</time>
      </trkpt>
      <trkpt lat="10.1587464132618" lon="-75.6813260898842">
        <ele>52.2778713</ele>
        <time>2019-09-10T15:39:49.500Z</time>
      </trkpt>
      <trkpt lat="10.1587481301889" lon="-75.6813281921477">
        <ele>52.2778713</ele>
        <time>2019-09-10T15:39:49.600Z</time>
      </trkpt>
      <trkpt lat="10.1587498647554" lon="-75.6813302959038">
        <ele>52.2778713</ele>
        <time>2019-09-10T15:39:49.700Z</time>
      </trkpt>
      <trkpt lat="10.1587516441366" lon="-75.6813324413625">
        <ele>52.3778713</ele>
        <time>2019-09-10T15:39:49.800Z</time>
      </trkpt>
      <trkpt lat="10.1587534341483" lon="-75.6813345814642">
        <ele>52.3778713</ele>
        <time>2019-09-10T15:39:49.900Z</time>
      </trkpt>
      <trkpt lat="10.1587551964894" lon="-75.6813366815039">
        <ele>52.3778713</ele>
        <time>2019-09-10T15:39:50.000Z</time>
      </trkpt>
      <trkpt lat="10.1587569602376" lon="-75.6813387774574">
        <ele>52.3778713</ele>
        <time>2019-09-10T15:39:50.100Z</time>
      </trkpt>
      <trkpt lat="10.1587587040796" lon="-75.6813408999216">
        <ele>52.3778713</ele>
        <time>2019-09-10T15:39:50.200Z</time>
      </trkpt>
      <trkpt lat="10.1587604568325" lon="-75.6813430257932">
        <ele>52.3778713</ele>
        <time>2019-09-10T15:39:50.300Z</time>
      </trkpt>
      <trkpt lat="10.158762187152" lon="-75.6813451436141">
        <ele>52.3778713</ele>
        <time>2019-09-10T15:39:50.400Z</time>
      </trkpt>
      <trkpt lat="10.1587639323229" lon="-75.6813472546201">
        <ele>52.3778713</ele>
        <time>2019-09-10T15:39:50.500Z</time>
      </trkpt>
      <trkpt lat="10.1587656937782" lon="-75.6813493544771">
        <ele>52.3778713</ele>
        <time>2019-09-10T15:39:50.600Z</time>
      </trkpt>
      <trkpt lat="10.1587674690687" lon="-75.6813514523541">
        <ele>52.3778713</ele>
        <time>2019-09-10T15:39:50.700Z</time>
      </trkpt>
      <trkpt lat="10.1587692268503" lon="-75.6813535403178">
        <ele>52.3778713</ele>
        <time>2019-09-10T15:39:50.800Z</time>
      </trkpt>
      <trkpt lat="10.1587709865599" lon="-75.6813556315541">
        <ele>52.3778713</ele>
        <time>2019-09-10T15:39:50.900Z</time>
      </trkpt>
      <trkpt lat="10.1587727251648" lon="-75.6813576922847">
        <ele>52.3778713</ele>
        <time>2019-09-10T15:39:51.000Z</time>
      </trkpt>
      <trkpt lat="10.15877447143" lon="-75.6813597608572">
        <ele>52.3778713</ele>
        <time>2019-09-10T15:39:51.100Z</time>
      </trkpt>
      <trkpt lat="10.1587762568821" lon="-75.6813619062898">
        <ele>52.3778713</ele>
        <time>2019-09-10T15:39:51.200Z</time>
      </trkpt>
      <trkpt lat="10.1587780492648" lon="-75.6813640571968">
        <ele>52.3778713</ele>
        <time>2019-09-10T15:39:51.300Z</time>
      </trkpt>
      <trkpt lat="10.158779818224" lon="-75.6813662049966">
        <ele>52.3778713</ele>
        <time>2019-09-10T15:39:51.400Z</time>
      </trkpt>
      <trkpt lat="10.1587815798095" lon="-75.6813683427963">
        <ele>52.3778713</ele>
        <time>2019-09-10T15:39:51.500Z</time>
      </trkpt>
      <trkpt lat="10.1587833800348" lon="-75.6813704985163">
        <ele>52.2778713</ele>
        <time>2019-09-10T15:39:51.600Z</time>
      </trkpt>
      <trkpt lat="10.1587851795566" lon="-75.681372643679">
        <ele>52.2778713</ele>
        <time>2019-09-10T15:39:51.700Z</time>
      </trkpt>
      <trkpt lat="10.1587869510692" lon="-75.6813747713392">
        <ele>52.2778713</ele>
        <time>2019-09-10T15:39:51.800Z</time>
      </trkpt>
      <trkpt lat="10.1587887110133" lon="-75.6813768921845">
        <ele>52.2778713</ele>
        <time>2019-09-10T15:39:51.900Z</time>
      </trkpt>
      <trkpt lat="10.1587904805197" lon="-75.6813790346143">
        <ele>52.2778713</ele>
        <time>2019-09-10T15:39:52.000Z</time>
      </trkpt>
      <trkpt lat="10.1587940150769" lon="-75.6813832570269">
        <ele>52.2778713</ele>
        <time>2019-09-10T15:39:52.200Z</time>
      </trkpt>
      <trkpt lat="10.1587957743696" lon="-75.681385344599">
        <ele>52.2778713</ele>
        <time>2019-09-10T15:39:52.300Z</time>
      </trkpt>
      <trkpt lat="10.1587975160752" lon="-75.6813874233806">
        <ele>52.3778713</ele>
        <time>2019-09-10T15:39:52.400Z</time>
      </trkpt>
      <trkpt lat="10.1587992680725" lon="-75.6813895145037">
        <ele>52.3778713</ele>
        <time>2019-09-10T15:39:52.500Z</time>
      </trkpt>
      <trkpt lat="10.1588010144679" lon="-75.6813915934506">
        <ele>52.3778713</ele>
        <time>2019-09-10T15:39:52.600Z</time>
      </trkpt>
      <trkpt lat="10.1588027720149" lon="-75.6813936783159">
        <ele>52.3778713</ele>
        <time>2019-09-10T15:39:52.700Z</time>
      </trkpt>
      <trkpt lat="10.1588045070243" lon="-75.6813957263309">
        <ele>52.3778713</ele>
        <time>2019-09-10T15:39:52.800Z</time>
      </trkpt>
      <trkpt lat="10.1588062488862" lon="-75.681397785669">
        <ele>52.3778713</ele>
        <time>2019-09-10T15:39:52.900Z</time>
      </trkpt>
      <trkpt lat="10.1588079677674" lon="-75.6813998823101">
        <ele>52.3778713</ele>
        <time>2019-09-10T15:39:53.000Z</time>
      </trkpt>
      <trkpt lat="10.1588096973834" lon="-75.6814019879244">
        <ele>52.3778713</ele>
        <time>2019-09-10T15:39:53.100Z</time>
      </trkpt>
      <trkpt lat="10.1588114175674" lon="-75.6814040977077">
        <ele>52.3778713</ele>
        <time>2019-09-10T15:39:53.200Z</time>
      </trkpt>
      <trkpt lat="10.1588131532021" lon="-75.6814062044186">
        <ele>52.3778713</ele>
        <time>2019-09-10T15:39:53.300Z</time>
      </trkpt>
      <trkpt lat="10.1588166301776" lon="-75.6814104739516">
        <ele>52.3778713</ele>
        <time>2019-09-10T15:39:53.500Z</time>
      </trkpt>
      <trkpt lat="10.1588183355883" lon="-75.6814125662061">
        <ele>52.3778713</ele>
        <time>2019-09-10T15:39:53.600Z</time>
      </trkpt>
      <trkpt lat="10.1588200465228" lon="-75.6814146488085">
        <ele>52.3778713</ele>
        <time>2019-09-10T15:39:53.700Z</time>
      </trkpt>
      <trkpt lat="10.1588218067014" lon="-75.6814167967041">
        <ele>52.3778713</ele>
        <time>2019-09-10T15:39:53.800Z</time>
      </trkpt>
      <trkpt lat="10.1588235808195" lon="-75.681418938664">
        <ele>52.3778713</ele>
        <time>2019-09-10T15:39:53.900Z</time>
      </trkpt>
      <trkpt lat="10.1588253509772" lon="-75.6814210747491">
        <ele>52.3778713</ele>
        <time>2019-09-10T15:39:54.000Z</time>
      </trkpt>
      <trkpt lat="10.1588271207962" lon="-75.6814232007642">
        <ele>52.3778713</ele>
        <time>2019-09-10T15:39:54.100Z</time>
      </trkpt>
      <trkpt lat="10.1588288824599" lon="-75.6814253262224">
        <ele>52.3778713</ele>
        <time>2019-09-10T15:39:54.200Z</time>
      </trkpt>
      <trkpt lat="10.1588306452962" lon="-75.6814274463976">
        <ele>52.3778713</ele>
        <time>2019-09-10T15:39:54.300Z</time>
      </trkpt>
      <trkpt lat="10.1588323923951" lon="-75.681429561664">
        <ele>52.3778713</ele>
        <time>2019-09-10T15:39:54.400Z</time>
      </trkpt>
      <trkpt lat="10.1588341422819" lon="-75.6814316763386">
        <ele>52.3778713</ele>
        <time>2019-09-10T15:39:54.500Z</time>
      </trkpt>
      <trkpt lat="10.1588358717676" lon="-75.6814337803079">
        <ele>52.3778713</ele>
        <time>2019-09-10T15:39:54.600Z</time>
      </trkpt>
      <trkpt lat="10.1588376070115" lon="-75.6814358834766">
        <ele>52.3778713</ele>
        <time>2019-09-10T15:39:54.700Z</time>
      </trkpt>
      <trkpt lat="10.1588393280293" lon="-75.6814379741471">
        <ele>52.3778713</ele>
        <time>2019-09-10T15:39:54.800Z</time>
      </trkpt>
      <trkpt lat="10.1588410567073" lon="-75.6814400661231">
        <ele>52.3778713</ele>
        <time>2019-09-10T15:39:54.900Z</time>
      </trkpt>
      <trkpt lat="10.158842776292" lon="-75.6814421859327">
        <ele>52.3778713</ele>
        <time>2019-09-10T15:39:55.000Z</time>
      </trkpt>
      <trkpt lat="10.1588445055171" lon="-75.6814443054987">
        <ele>52.3778713</ele>
        <time>2019-09-10T15:39:55.100Z</time>
      </trkpt>
      <trkpt lat="10.1588462599636" lon="-75.6814464606442">
        <ele>52.3778713</ele>
        <time>2019-09-10T15:39:55.200Z</time>
      </trkpt>
      <trkpt lat="10.1588480167551" lon="-75.6814486067731">
        <ele>52.3778713</ele>
        <time>2019-09-10T15:39:55.300Z</time>
      </trkpt>
      <trkpt lat="10.1588497678144" lon="-75.6814507403863">
        <ele>52.3778713</ele>
        <time>2019-09-10T15:39:55.400Z</time>
      </trkpt>
      <trkpt lat="10.1588515151999" lon="-75.6814528647566">
        <ele>52.3778713</ele>
        <time>2019-09-10T15:39:55.500Z</time>
      </trkpt>
      <trkpt lat="10.1588532157905" lon="-75.6814549787871">
        <ele>52.3778713</ele>
        <time>2019-09-10T15:39:55.600Z</time>
      </trkpt>
      <trkpt lat="10.158854915417" lon="-75.6814570909725">
        <ele>52.3778713</ele>
        <time>2019-09-10T15:39:55.700Z</time>
      </trkpt>
      <trkpt lat="10.1588565835169" lon="-75.6814591592926">
        <ele>52.3778713</ele>
        <time>2019-09-10T15:39:55.800Z</time>
      </trkpt>
      <trkpt lat="10.158858270168" lon="-75.6814612360724">
        <ele>52.3778713</ele>
        <time>2019-09-10T15:39:55.900Z</time>
      </trkpt>
      <trkpt lat="10.1588599719832" lon="-75.6814633081176">
        <ele>52.3778713</ele>
        <time>2019-09-10T15:39:56.000Z</time>
      </trkpt>
      <trkpt lat="10.1588616870343" lon="-75.6814653951152">
        <ele>52.3778713</ele>
        <time>2019-09-10T15:39:56.100Z</time>
      </trkpt>
      <trkpt lat="10.1588633580263" lon="-75.68146747891">
        <ele>52.3778713</ele>
        <time>2019-09-10T15:39:56.200Z</time>
      </trkpt>
      <trkpt lat="10.1588667240591" lon="-75.6814716669527">
        <ele>52.3778713</ele>
        <time>2019-09-10T15:39:56.400Z</time>
      </trkpt>
      <trkpt lat="10.1588684267341" lon="-75.681473773359">
        <ele>52.3778713</ele>
        <time>2019-09-10T15:39:56.500Z</time>
      </trkpt>
      <trkpt lat="10.1588700591646" lon="-75.6814758418357">
        <ele>52.3778713</ele>
        <time>2019-09-10T15:39:56.600Z</time>
      </trkpt>
      <trkpt lat="10.1588717106413" lon="-75.6814779162134">
        <ele>52.3778713</ele>
        <time>2019-09-10T15:39:56.700Z</time>
      </trkpt>
      <trkpt lat="10.1588733584442" lon="-75.6814799897555">
        <ele>52.3778713</ele>
        <time>2019-09-10T15:39:56.800Z</time>
      </trkpt>
      <trkpt lat="10.1588750367837" lon="-75.6814820754129">
        <ele>52.3778713</ele>
        <time>2019-09-10T15:39:56.900Z</time>
      </trkpt>
      <trkpt lat="10.158878411988" lon="-75.6814862556224">
        <ele>52.3778713</ele>
        <time>2019-09-10T15:39:57.100Z</time>
      </trkpt>
      <trkpt lat="10.1588801329536" lon="-75.6814883518979">
        <ele>52.3778713</ele>
        <time>2019-09-10T15:39:57.200Z</time>
      </trkpt>
      <trkpt lat="10.1588818674679" lon="-75.6814904512545">
        <ele>52.3778713</ele>
        <time>2019-09-10T15:39:57.300Z</time>
      </trkpt>
      <trkpt lat="10.1588836186575" lon="-75.6814925474604">
        <ele>52.3778713</ele>
        <time>2019-09-10T15:39:57.400Z</time>
      </trkpt>
      <trkpt lat="10.1588853738336" lon="-75.6814946416123">
        <ele>52.3778713</ele>
        <time>2019-09-10T15:39:57.500Z</time>
      </trkpt>
      <trkpt lat="10.1588871291399" lon="-75.6814967369478">
        <ele>52.3778713</ele>
        <time>2019-09-10T15:39:57.600Z</time>
      </trkpt>
      <trkpt lat="10.1588888831955" lon="-75.6814988340763">
        <ele>52.3778713</ele>
        <time>2019-09-10T15:39:57.700Z</time>
      </trkpt>
      <trkpt lat="10.1588906046302" lon="-75.6815008977835">
        <ele>52.3778713</ele>
        <time>2019-09-10T15:39:57.800Z</time>
      </trkpt>
      <trkpt lat="10.1588923323702" lon="-75.6815029663125">
        <ele>52.3778713</ele>
        <time>2019-09-10T15:39:57.900Z</time>
      </trkpt>
      <trkpt lat="10.1588940540133" lon="-75.68150500753">
        <ele>52.3778713</ele>
        <time>2019-09-10T15:39:58.000Z</time>
      </trkpt>
      <trkpt lat="10.1588957855573" lon="-75.6815070628124">
        <ele>52.3778713</ele>
        <time>2019-09-10T15:39:58.100Z</time>
      </trkpt>
      <trkpt lat="10.1588975132973" lon="-75.6815091302447">
        <ele>52.3778713</ele>
        <time>2019-09-10T15:39:58.200Z</time>
      </trkpt>
      <trkpt lat="10.1588992502608" lon="-75.6815112117244">
        <ele>52.3778713</ele>
        <time>2019-09-10T15:39:58.300Z</time>
      </trkpt>
      <trkpt lat="10.1589009516852" lon="-75.6815133079999">
        <ele>52.3778713</ele>
        <time>2019-09-10T15:39:58.400Z</time>
      </trkpt>
      <trkpt lat="10.1589026619682" lon="-75.6815154095671">
        <ele>52.3778713</ele>
        <time>2019-09-10T15:39:58.500Z</time>
      </trkpt>
      <trkpt lat="10.1589043751695" lon="-75.681517513258">
        <ele>52.3778713</ele>
        <time>2019-09-10T15:39:58.600Z</time>
      </trkpt>
      <trkpt lat="10.1589061051763" lon="-75.6815196150863">
        <ele>52.3778713</ele>
        <time>2019-09-10T15:39:58.700Z</time>
      </trkpt>
      <trkpt lat="10.1589077861995" lon="-75.6815216539713">
        <ele>52.3778713</ele>
        <time>2019-09-10T15:39:58.800Z</time>
      </trkpt>
      <trkpt lat="10.1589094750392" lon="-75.6815236913594">
        <ele>52.3778713</ele>
        <time>2019-09-10T15:39:58.900Z</time>
      </trkpt>
      <trkpt lat="10.1589112838627" lon="-75.6815258387937">
        <ele>52.3778713</ele>
        <time>2019-09-10T15:39:59.000Z</time>
      </trkpt>
      <trkpt lat="10.1589131086058" lon="-75.6815279954189">
        <ele>52.3778713</ele>
        <time>2019-09-10T15:39:59.100Z</time>
      </trkpt>
      <trkpt lat="10.1589148994513" lon="-75.6815301214079">
        <ele>52.3778713</ele>
        <time>2019-09-10T15:39:59.200Z</time>
      </trkpt>
      <trkpt lat="10.1589166768784" lon="-75.6815322334367">
        <ele>52.3778713</ele>
        <time>2019-09-10T15:39:59.300Z</time>
      </trkpt>
      <trkpt lat="10.1589184352592" lon="-75.6815343783122">
        <ele>52.3778713</ele>
        <time>2019-09-10T15:39:59.400Z</time>
      </trkpt>
      <trkpt lat="10.1589201937703" lon="-75.6815365194975">
        <ele>52.3778713</ele>
        <time>2019-09-10T15:39:59.500Z</time>
      </trkpt>
      <trkpt lat="10.1589219621823" lon="-75.6815386506042">
        <ele>52.3778713</ele>
        <time>2019-09-10T15:39:59.600Z</time>
      </trkpt>
      <trkpt lat="10.1589237310372" lon="-75.6815407723459">
        <ele>52.3778713</ele>
        <time>2019-09-10T15:39:59.700Z</time>
      </trkpt>
      <trkpt lat="10.158925511148" lon="-75.6815428839221">
        <ele>52.3778713</ele>
        <time>2019-09-10T15:39:59.800Z</time>
      </trkpt>
      <trkpt lat="10.158927287142" lon="-75.6815449922954">
        <ele>52.3778713</ele>
        <time>2019-09-10T15:39:59.900Z</time>
      </trkpt>
      <trkpt lat="10.1589290390872" lon="-75.6815470879443">
        <ele>52.3778713</ele>
        <time>2019-09-10T15:40:00.000Z</time>
      </trkpt>
      <trkpt lat="10.1589307862643" lon="-75.6815491844461">
        <ele>52.3778713</ele>
        <time>2019-09-10T15:40:00.100Z</time>
      </trkpt>
      <trkpt lat="10.158932579116" lon="-75.6815513091819">
        <ele>52.3778713</ele>
        <time>2019-09-10T15:40:00.200Z</time>
      </trkpt>
      <trkpt lat="10.1589343693362" lon="-75.6815534325599">
        <ele>52.3778713</ele>
        <time>2019-09-10T15:40:00.300Z</time>
      </trkpt>
      <trkpt lat="10.1589361413438" lon="-75.681555550507">
        <ele>52.3778713</ele>
        <time>2019-09-10T15:40:00.400Z</time>
      </trkpt>
      <trkpt lat="10.1589379017569" lon="-75.6815576633538">
        <ele>52.3778713</ele>
        <time>2019-09-10T15:40:00.500Z</time>
      </trkpt>
      <trkpt lat="10.158939647527" lon="-75.6815597341979">
        <ele>52.3778713</ele>
        <time>2019-09-10T15:40:00.600Z</time>
      </trkpt>
      <trkpt lat="10.1589413933493" lon="-75.6815618080012">
        <ele>52.2778713</ele>
        <time>2019-09-10T15:40:00.700Z</time>
      </trkpt>
      <trkpt lat="10.1589430983171" lon="-75.6815638489576">
        <ele>52.2778713</ele>
        <time>2019-09-10T15:40:00.800Z</time>
      </trkpt>
      <trkpt lat="10.1589465083049" lon="-75.6815679630733">
        <ele>52.2778713</ele>
        <time>2019-09-10T15:40:01.000Z</time>
      </trkpt>
      <trkpt lat="10.1589482230173" lon="-75.6815700431082">
        <ele>52.2778713</ele>
        <time>2019-09-10T15:40:01.100Z</time>
      </trkpt>
      <trkpt lat="10.1589499377298" lon="-75.6815721336569">
        <ele>52.2778713</ele>
        <time>2019-09-10T15:40:01.200Z</time>
      </trkpt>
      <trkpt lat="10.158951662291" lon="-75.6815742320908">
        <ele>52.2778713</ele>
        <time>2019-09-10T15:40:01.300Z</time>
      </trkpt>
      <trkpt lat="10.1589533921936" lon="-75.6815763368609">
        <ele>52.2778713</ele>
        <time>2019-09-10T15:40:01.400Z</time>
      </trkpt>
      <trkpt lat="10.1589551271769" lon="-75.6815784442072">
        <ele>52.2778713</ele>
        <time>2019-09-10T15:40:01.500Z</time>
      </trkpt>
      <trkpt lat="10.15895683462" lon="-75.681580553712">
        <ele>52.2778713</ele>
        <time>2019-09-10T15:40:01.600Z</time>
      </trkpt>
      <trkpt lat="10.158958546753" lon="-75.6815826633908">
        <ele>52.2778713</ele>
        <time>2019-09-10T15:40:01.700Z</time>
      </trkpt>
      <trkpt lat="10.1589602644618" lon="-75.6815847693445">
        <ele>52.2778713</ele>
        <time>2019-09-10T15:40:01.800Z</time>
      </trkpt>
      <trkpt lat="10.1589619929574" lon="-75.6815868752634">
        <ele>52.2778713</ele>
        <time>2019-09-10T15:40:01.900Z</time>
      </trkpt>
      <trkpt lat="10.1589637289047" lon="-75.6815889766566">
        <ele>52.2778713</ele>
        <time>2019-09-10T15:40:02.000Z</time>
      </trkpt>
      <trkpt lat="10.1589654708969" lon="-75.681591082854">
        <ele>52.2778713</ele>
        <time>2019-09-10T15:40:02.100Z</time>
      </trkpt>
      <trkpt lat="10.1589671813102" lon="-75.6815931850827">
        <ele>52.2778713</ele>
        <time>2019-09-10T15:40:02.200Z</time>
      </trkpt>
      <trkpt lat="10.1589688964135" lon="-75.6815952906187">
        <ele>52.3778713</ele>
        <time>2019-09-10T15:40:02.300Z</time>
      </trkpt>
      <trkpt lat="10.1589705824914" lon="-75.6815974234487">
        <ele>52.3778713</ele>
        <time>2019-09-10T15:40:02.400Z</time>
      </trkpt>
      <trkpt lat="10.1589722822221" lon="-75.6815995548164">
        <ele>52.3778713</ele>
        <time>2019-09-10T15:40:02.500Z</time>
      </trkpt>
      <trkpt lat="10.158973991437" lon="-75.6816016783163">
        <ele>52.3778713</ele>
        <time>2019-09-10T15:40:02.600Z</time>
      </trkpt>
      <trkpt lat="10.1589757134188" lon="-75.6816037991007">
        <ele>52.3778713</ele>
        <time>2019-09-10T15:40:02.700Z</time>
      </trkpt>
      <trkpt lat="10.1589774091892" lon="-75.681605878039">
        <ele>52.3778713</ele>
        <time>2019-09-10T15:40:02.800Z</time>
      </trkpt>
      <trkpt lat="10.1589791126719" lon="-75.6816079583002">
        <ele>52.3778713</ele>
        <time>2019-09-10T15:40:02.900Z</time>
      </trkpt>
      <trkpt lat="10.1589807932261" lon="-75.681610029092">
        <ele>52.3778713</ele>
        <time>2019-09-10T15:40:03.000Z</time>
      </trkpt>
      <trkpt lat="10.1589824909766" lon="-75.6816121153412">
        <ele>52.3778713</ele>
        <time>2019-09-10T15:40:03.100Z</time>
      </trkpt>
      <trkpt lat="10.158984163558" lon="-75.6816141713024">
        <ele>52.3778713</ele>
        <time>2019-09-10T15:40:03.200Z</time>
      </trkpt>
      <trkpt lat="10.1589858467698" lon="-75.6816162386129">
        <ele>52.3778713</ele>
        <time>2019-09-10T15:40:03.300Z</time>
      </trkpt>
      <trkpt lat="10.1589875437387" lon="-75.6816183099269">
        <ele>52.3778713</ele>
        <time>2019-09-10T15:40:03.400Z</time>
      </trkpt>
      <trkpt lat="10.1589892565492" lon="-75.6816203993093">
        <ele>52.3778713</ele>
        <time>2019-09-10T15:40:03.500Z</time>
      </trkpt>
      <trkpt lat="10.1589926665369" lon="-75.6816245854198">
        <ele>52.3778713</ele>
        <time>2019-09-10T15:40:03.700Z</time>
      </trkpt>
      <trkpt lat="10.158994357878" lon="-75.6816266458024">
        <ele>52.3778713</ele>
        <time>2019-09-10T15:40:03.800Z</time>
      </trkpt>
      <trkpt lat="10.1589960613086" lon="-75.6816287144358">
        <ele>52.3778713</ele>
        <time>2019-09-10T15:40:03.900Z</time>
      </trkpt>
      <trkpt lat="10.1589977275324" lon="-75.6816307480465">
        <ele>52.3778713</ele>
        <time>2019-09-10T15:40:04.000Z</time>
      </trkpt>
      <trkpt lat="10.1589994107964" lon="-75.6816327932851">
        <ele>52.3778713</ele>
        <time>2019-09-10T15:40:04.100Z</time>
      </trkpt>
      <trkpt lat="10.159001138823" lon="-75.6816348502211">
        <ele>52.3778713</ele>
        <time>2019-09-10T15:40:04.200Z</time>
      </trkpt>
      <trkpt lat="10.1590028881106" lon="-75.681636925852">
        <ele>52.3778713</ele>
        <time>2019-09-10T15:40:04.300Z</time>
      </trkpt>
      <trkpt lat="10.1590064152942" lon="-75.6816411169061">
        <ele>52.3778713</ele>
        <time>2019-09-10T15:40:04.500Z</time>
      </trkpt>
      <trkpt lat="10.1590081790163" lon="-75.6816432280471">
        <ele>52.3778713</ele>
        <time>2019-09-10T15:40:04.600Z</time>
      </trkpt>
      <trkpt lat="10.1590099419046" lon="-75.6816453406502">
        <ele>52.3778713</ele>
        <time>2019-09-10T15:40:04.700Z</time>
      </trkpt>
      <trkpt lat="10.1590117290242" lon="-75.6816474540889">
        <ele>52.3778713</ele>
        <time>2019-09-10T15:40:04.800Z</time>
      </trkpt>
      <trkpt lat="10.1590135156227" lon="-75.6816495677365">
        <ele>52.3778713</ele>
        <time>2019-09-10T15:40:04.900Z</time>
      </trkpt>
      <trkpt lat="10.1590152859107" lon="-75.6816516766843">
        <ele>52.3778713</ele>
        <time>2019-09-10T15:40:05.000Z</time>
      </trkpt>
      <trkpt lat="10.1590170524988" lon="-75.6816537846572">
        <ele>52.3778713</ele>
        <time>2019-09-10T15:40:05.100Z</time>
      </trkpt>
      <trkpt lat="10.1590188290921" lon="-75.6816558874777">
        <ele>52.3778713</ele>
        <time>2019-09-10T15:40:05.200Z</time>
      </trkpt>
      <trkpt lat="10.1590206049559" lon="-75.6816579909597">
        <ele>52.3778713</ele>
        <time>2019-09-10T15:40:05.300Z</time>
      </trkpt>
      <trkpt lat="10.1590223343895" lon="-75.6816600565295">
        <ele>52.3778713</ele>
        <time>2019-09-10T15:40:05.400Z</time>
      </trkpt>
      <trkpt lat="10.1590240639273" lon="-75.6816621279828">
        <ele>52.3778713</ele>
        <time>2019-09-10T15:40:05.500Z</time>
      </trkpt>
      <trkpt lat="10.1590258026886" lon="-75.6816642346676">
        <ele>52.3778713</ele>
        <time>2019-09-10T15:40:05.600Z</time>
      </trkpt>
      <trkpt lat="10.1590275539564" lon="-75.6816663540943">
        <ele>52.3778713</ele>
        <time>2019-09-10T15:40:05.700Z</time>
      </trkpt>
      <trkpt lat="10.1590292913107" lon="-75.6816684711884">
        <ele>52.3778713</ele>
        <time>2019-09-10T15:40:05.800Z</time>
      </trkpt>
      <trkpt lat="10.1590310328338" lon="-75.6816705845923">
        <ele>52.3778713</ele>
        <time>2019-09-10T15:40:05.900Z</time>
      </trkpt>
      <trkpt lat="10.1590327933251" lon="-75.6816726584478">
        <ele>52.3778713</ele>
        <time>2019-09-10T15:40:06.000Z</time>
      </trkpt>
      <trkpt lat="10.1590345563698" lon="-75.6816747370031">
        <ele>52.3778713</ele>
        <time>2019-09-10T15:40:06.100Z</time>
      </trkpt>
      <trkpt lat="10.1590363078981" lon="-75.6816768137133">
        <ele>52.3778713</ele>
        <time>2019-09-10T15:40:06.200Z</time>
      </trkpt>
      <trkpt lat="10.1590380558308" lon="-75.6816789012506">
        <ele>52.3778713</ele>
        <time>2019-09-10T15:40:06.300Z</time>
      </trkpt>
      <trkpt lat="10.1590397952174" lon="-75.6816809551229">
        <ele>52.3778713</ele>
        <time>2019-09-10T15:40:06.400Z</time>
      </trkpt>
      <trkpt lat="10.1590415376264" lon="-75.6816830205535">
        <ele>52.3778713</ele>
        <time>2019-09-10T15:40:06.500Z</time>
      </trkpt>
      <trkpt lat="10.159043275554" lon="-75.6816850577152">
        <ele>52.3778713</ele>
        <time>2019-09-10T15:40:06.600Z</time>
      </trkpt>
      <trkpt lat="10.1590450148885" lon="-75.6816871100558">
        <ele>52.3778713</ele>
        <time>2019-09-10T15:40:06.700Z</time>
      </trkpt>
      <trkpt lat="10.1590467759009" lon="-75.6816891743375">
        <ele>52.3778713</ele>
        <time>2019-09-10T15:40:06.800Z</time>
      </trkpt>
      <trkpt lat="10.1590485394666" lon="-75.6816912571749">
        <ele>52.3778713</ele>
        <time>2019-09-10T15:40:06.900Z</time>
      </trkpt>
      <trkpt lat="10.1590502320583" lon="-75.6816932849021">
        <ele>52.3778713</ele>
        <time>2019-09-10T15:40:07.000Z</time>
      </trkpt>
      <trkpt lat="10.1590519262133" lon="-75.681695325789">
        <ele>52.3778713</ele>
        <time>2019-09-10T15:40:07.100Z</time>
      </trkpt>
      <trkpt lat="10.1590536184923" lon="-75.681697347946">
        <ele>52.3778713</ele>
        <time>2019-09-10T15:40:07.200Z</time>
      </trkpt>
      <trkpt lat="10.1590553280197" lon="-75.6816993954126">
        <ele>52.3778713</ele>
        <time>2019-09-10T15:40:07.300Z</time>
      </trkpt>
      <trkpt lat="10.1590570101373" lon="-75.6817014277701">
        <ele>52.3778713</ele>
        <time>2019-09-10T15:40:07.400Z</time>
      </trkpt>
      <trkpt lat="10.1590587061161" lon="-75.6817034799366">
        <ele>52.3778713</ele>
        <time>2019-09-10T15:40:07.500Z</time>
      </trkpt>
      <trkpt lat="10.1590620793662" lon="-75.6817075108125">
        <ele>52.3778713</ele>
        <time>2019-09-10T15:40:07.700Z</time>
      </trkpt>
      <trkpt lat="10.1590637927498" lon="-75.6817095255542">
        <ele>52.4778713</ele>
        <time>2019-09-10T15:40:07.800Z</time>
      </trkpt>
      <trkpt lat="10.1590655249452" lon="-75.6817115675203">
        <ele>52.4778713</ele>
        <time>2019-09-10T15:40:07.900Z</time>
      </trkpt>
      <trkpt lat="10.1590672655825" lon="-75.6817136337516">
        <ele>52.4778713</ele>
        <time>2019-09-10T15:40:08.000Z</time>
      </trkpt>
      <trkpt lat="10.1590690123688" lon="-75.681715719583">
        <ele>52.4778713</ele>
        <time>2019-09-10T15:40:08.100Z</time>
      </trkpt>
      <trkpt lat="10.1590707317972" lon="-75.6817177890171">
        <ele>52.4778713</ele>
        <time>2019-09-10T15:40:08.200Z</time>
      </trkpt>
      <trkpt lat="10.1590724563845" lon="-75.6817198640562">
        <ele>52.4778713</ele>
        <time>2019-09-10T15:40:08.300Z</time>
      </trkpt>
      <trkpt lat="10.1590741778974" lon="-75.6817219481817">
        <ele>52.4778713</ele>
        <time>2019-09-10T15:40:08.400Z</time>
      </trkpt>
      <trkpt lat="10.159075907852" lon="-75.6817240406625">
        <ele>52.4778713</ele>
        <time>2019-09-10T15:40:08.500Z</time>
      </trkpt>
      <trkpt lat="10.159077670584" lon="-75.6817261409416">
        <ele>52.3778713</ele>
        <time>2019-09-10T15:40:08.600Z</time>
      </trkpt>
      <trkpt lat="10.1590794368074" lon="-75.6817282447718">
        <ele>52.3778713</ele>
        <time>2019-09-10T15:40:08.700Z</time>
      </trkpt>
      <trkpt lat="10.1590811959438" lon="-75.6817303537195">
        <ele>52.3778713</ele>
        <time>2019-09-10T15:40:08.800Z</time>
      </trkpt>
      <trkpt lat="10.1590846925388" lon="-75.681734546375">
        <ele>52.3778713</ele>
        <time>2019-09-10T15:40:09.000Z</time>
      </trkpt>
      <trkpt lat="10.1590864386997" lon="-75.6817366297346">
        <ele>52.3778713</ele>
        <time>2019-09-10T15:40:09.100Z</time>
      </trkpt>
      <trkpt lat="10.1590881810566" lon="-75.6817387088121">
        <ele>52.3778713</ele>
        <time>2019-09-10T15:40:09.200Z</time>
      </trkpt>
      <trkpt lat="10.159089922684" lon="-75.6817407991693">
        <ele>52.3778713</ele>
        <time>2019-09-10T15:40:09.300Z</time>
      </trkpt>
      <trkpt lat="10.1590916856245" lon="-75.6817429643761">
        <ele>52.3778713</ele>
        <time>2019-09-10T15:40:09.400Z</time>
      </trkpt>
      <trkpt lat="10.1590934511704" lon="-75.6817451273547">
        <ele>52.3778713</ele>
        <time>2019-09-10T15:40:09.500Z</time>
      </trkpt>
      <trkpt lat="10.1590951807603" lon="-75.6817472799241">
        <ele>52.3778713</ele>
        <time>2019-09-10T15:40:09.600Z</time>
      </trkpt>
      <trkpt lat="10.159096909308" lon="-75.6817494182895">
        <ele>52.3778713</ele>
        <time>2019-09-10T15:40:09.700Z</time>
      </trkpt>
      <trkpt lat="10.1590986269126" lon="-75.6817515998587">
        <ele>52.3778713</ele>
        <time>2019-09-10T15:40:09.800Z</time>
      </trkpt>
      <trkpt lat="10.1591003536364" lon="-75.6817537668757">
        <ele>52.3778713</ele>
        <time>2019-09-10T15:40:09.900Z</time>
      </trkpt>
      <trkpt lat="10.1591020740028" lon="-75.6817559463213">
        <ele>52.3778713</ele>
        <time>2019-09-10T15:40:10.000Z</time>
      </trkpt>
      <trkpt lat="10.1591037982775" lon="-75.6817581144873">
        <ele>52.3778713</ele>
        <time>2019-09-10T15:40:10.100Z</time>
      </trkpt>
      <trkpt lat="10.1591055366219" lon="-75.6817602582139">
        <ele>52.3778713</ele>
        <time>2019-09-10T15:40:10.200Z</time>
      </trkpt>
      <trkpt lat="10.1591072964358" lon="-75.6817623944905">
        <ele>52.2778713</ele>
        <time>2019-09-10T15:40:10.300Z</time>
      </trkpt>
      <trkpt lat="10.1591090358224" lon="-75.6817645485916">
        <ele>52.2778713</ele>
        <time>2019-09-10T15:40:10.400Z</time>
      </trkpt>
      <trkpt lat="10.1591107935518" lon="-75.6817667023447">
        <ele>52.2778713</ele>
        <time>2019-09-10T15:40:10.500Z</time>
      </trkpt>
      <trkpt lat="10.1591125410155" lon="-75.6817688568288">
        <ele>52.2778713</ele>
        <time>2019-09-10T15:40:10.600Z</time>
      </trkpt>
      <trkpt lat="10.1591160720032" lon="-75.6817731162222">
        <ele>52.2778713</ele>
        <time>2019-09-10T15:40:10.800Z</time>
      </trkpt>
      <trkpt lat="10.1591178566736" lon="-75.68177522329">
        <ele>52.2778713</ele>
        <time>2019-09-10T15:40:10.900Z</time>
      </trkpt>
      <trkpt lat="10.1591196492648" lon="-75.6817772987121">
        <ele>52.2778713</ele>
        <time>2019-09-10T15:40:11.000Z</time>
      </trkpt>
      <trkpt lat="10.1591214433671" lon="-75.681779379774">
        <ele>52.2778713</ele>
        <time>2019-09-10T15:40:11.100Z</time>
      </trkpt>
      <trkpt lat="10.1591231763442" lon="-75.6817814143596">
        <ele>52.2778713</ele>
        <time>2019-09-10T15:40:11.200Z</time>
      </trkpt>
      <trkpt lat="10.1591249072369" lon="-75.6817834572308">
        <ele>52.2778713</ele>
        <time>2019-09-10T15:40:11.300Z</time>
      </trkpt>
      <trkpt lat="10.1591266656437" lon="-75.6817855332447">
        <ele>52.2778713</ele>
        <time>2019-09-10T15:40:11.400Z</time>
      </trkpt>
      <trkpt lat="10.1591284343684" lon="-75.681787626387">
        <ele>52.2778713</ele>
        <time>2019-09-10T15:40:11.500Z</time>
      </trkpt>
      <trkpt lat="10.1591302364957" lon="-75.6817897618976">
        <ele>52.2778713</ele>
        <time>2019-09-10T15:40:11.600Z</time>
      </trkpt>
      <trkpt lat="10.1591320269503" lon="-75.6817918921862">
        <ele>52.2778713</ele>
        <time>2019-09-10T15:40:11.700Z</time>
      </trkpt>
      <trkpt lat="10.1591337907246" lon="-75.6817940233799">
        <ele>52.2778713</ele>
        <time>2019-09-10T15:40:11.800Z</time>
      </trkpt>
      <trkpt lat="10.1591355424613" lon="-75.6817961432591">
        <ele>52.2778713</ele>
        <time>2019-09-10T15:40:11.900Z</time>
      </trkpt>
      <trkpt lat="10.1591372725202" lon="-75.6817982272454">
        <ele>52.2778713</ele>
        <time>2019-09-10T15:40:12.000Z</time>
      </trkpt>
      <trkpt lat="10.1591390047156" lon="-75.6818003075762">
        <ele>52.2778713</ele>
        <time>2019-09-10T15:40:12.100Z</time>
      </trkpt>
      <trkpt lat="10.1591406977763" lon="-75.6818022863553">
        <ele>52.2778713</ele>
        <time>2019-09-10T15:40:12.200Z</time>
      </trkpt>
      <trkpt lat="10.1591423999041" lon="-75.6818042781548">
        <ele>52.2778713</ele>
        <time>2019-09-10T15:40:12.300Z</time>
      </trkpt>
      <trkpt lat="10.1591440693588" lon="-75.6818062495185">
        <ele>52.2778713</ele>
        <time>2019-09-10T15:40:12.400Z</time>
      </trkpt>
      <trkpt lat="10.1591457521538" lon="-75.6818082583767">
        <ele>52.2778713</ele>
        <time>2019-09-10T15:40:12.500Z</time>
      </trkpt>
      <trkpt lat="10.1591474467777" lon="-75.6818102684186">
        <ele>52.2778713</ele>
        <time>2019-09-10T15:40:12.600Z</time>
      </trkpt>
      <trkpt lat="10.1591491571911" lon="-75.6818123040485">
        <ele>52.2778713</ele>
        <time>2019-09-10T15:40:12.700Z</time>
      </trkpt>
      <trkpt lat="10.1591508498349" lon="-75.6818143766507">
        <ele>52.2778713</ele>
        <time>2019-09-10T15:40:12.800Z</time>
      </trkpt>
      <trkpt lat="10.1591525485755" lon="-75.6818164654412">
        <ele>52.2778713</ele>
        <time>2019-09-10T15:40:12.900Z</time>
      </trkpt>
      <trkpt lat="10.1591542596142" lon="-75.6818185475476">
        <ele>52.2778713</ele>
        <time>2019-09-10T15:40:13.000Z</time>
      </trkpt>
      <trkpt lat="10.1591559800848" lon="-75.681820632439">
        <ele>52.2778713</ele>
        <time>2019-09-10T15:40:13.100Z</time>
      </trkpt>
      <trkpt lat="10.159157681431" lon="-75.6818227321959">
        <ele>52.2778713</ele>
        <time>2019-09-10T15:40:13.200Z</time>
      </trkpt>
      <trkpt lat="10.1591610748999" lon="-75.6818269851488">
        <ele>52.2778713</ele>
        <time>2019-09-10T15:40:13.400Z</time>
      </trkpt>
      <trkpt lat="10.1591627704097" lon="-75.6818291250111">
        <ele>52.2778713</ele>
        <time>2019-09-10T15:40:13.500Z</time>
      </trkpt>
      <trkpt lat="10.1591644836891" lon="-75.6818312607655">
        <ele>52.2778713</ele>
        <time>2019-09-10T15:40:13.600Z</time>
      </trkpt>
      <trkpt lat="10.1591662042119" lon="-75.6818333884778">
        <ele>52.2778713</ele>
        <time>2019-09-10T15:40:13.700Z</time>
      </trkpt>
      <trkpt lat="10.159167906496" lon="-75.6818355413257">
        <ele>52.2778713</ele>
        <time>2019-09-10T15:40:13.800Z</time>
      </trkpt>
      <trkpt lat="10.1591696091971" lon="-75.6818376897522">
        <ele>52.2778713</ele>
        <time>2019-09-10T15:40:13.900Z</time>
      </trkpt>
      <trkpt lat="10.1591713274791" lon="-75.6818398262724">
        <ele>52.2778713</ele>
        <time>2019-09-10T15:40:14.000Z</time>
      </trkpt>
      <trkpt lat="10.1591730557141" lon="-75.6818419554122">
        <ele>52.2778713</ele>
        <time>2019-09-10T15:40:14.100Z</time>
      </trkpt>
      <trkpt lat="10.1591748054185" lon="-75.6818440965626">
        <ele>52.2778713</ele>
        <time>2019-09-10T15:40:14.200Z</time>
      </trkpt>
      <trkpt lat="10.1591765567905" lon="-75.6818462308896">
        <ele>52.2778713</ele>
        <time>2019-09-10T15:40:14.300Z</time>
      </trkpt>
      <trkpt lat="10.1591783186367" lon="-75.6818483790376">
        <ele>52.2778713</ele>
        <time>2019-09-10T15:40:14.400Z</time>
      </trkpt>
      <trkpt lat="10.1591800774604" lon="-75.6818505214762">
        <ele>52.2778713</ele>
        <time>2019-09-10T15:40:14.500Z</time>
      </trkpt>
      <trkpt lat="10.1591818665602" lon="-75.6818526813564">
        <ele>52.2778713</ele>
        <time>2019-09-10T15:40:14.600Z</time>
      </trkpt>
      <trkpt lat="10.1591836496151" lon="-75.6818548340998">
        <ele>52.2778713</ele>
        <time>2019-09-10T15:40:14.700Z</time>
      </trkpt>
      <trkpt lat="10.1591853946297" lon="-75.6818569627173">
        <ele>52.2778713</ele>
        <time>2019-09-10T15:40:14.800Z</time>
      </trkpt>
      <trkpt lat="10.1591871392794" lon="-75.6818590868787">
        <ele>52.2778713</ele>
        <time>2019-09-10T15:40:14.900Z</time>
      </trkpt>
      <trkpt lat="10.1591889069619" lon="-75.6818611911962">
        <ele>52.2778713</ele>
        <time>2019-09-10T15:40:15.000Z</time>
      </trkpt>
      <trkpt lat="10.1591906780837" lon="-75.6818633011187">
        <ele>52.2778713</ele>
        <time>2019-09-10T15:40:15.100Z</time>
      </trkpt>
      <trkpt lat="10.1591924043385" lon="-75.6818653950965">
        <ele>52.2778713</ele>
        <time>2019-09-10T15:40:15.200Z</time>
      </trkpt>
      <trkpt lat="10.1591941250697" lon="-75.6818674949927">
        <ele>52.2778713</ele>
        <time>2019-09-10T15:40:15.300Z</time>
      </trkpt>
      <trkpt lat="10.1591958378801" lon="-75.6818695768553">
        <ele>52.2778713</ele>
        <time>2019-09-10T15:40:15.400Z</time>
      </trkpt>
      <trkpt lat="10.1591975616337" lon="-75.681871666168">
        <ele>52.2778713</ele>
        <time>2019-09-10T15:40:15.500Z</time>
      </trkpt>
      <trkpt lat="10.1591993089411" lon="-75.6818738134109">
        <ele>52.2778713</ele>
        <time>2019-09-10T15:40:15.600Z</time>
      </trkpt>
      <trkpt lat="10.1592010667747" lon="-75.6818759627426">
        <ele>52.2778713</ele>
        <time>2019-09-10T15:40:15.700Z</time>
      </trkpt>
      <trkpt lat="10.1592028236704" lon="-75.6818781003072">
        <ele>52.2778713</ele>
        <time>2019-09-10T15:40:15.800Z</time>
      </trkpt>
      <trkpt lat="10.1592045785337" lon="-75.681880231118">
        <ele>52.2778713</ele>
        <time>2019-09-10T15:40:15.900Z</time>
      </trkpt>
      <trkpt lat="10.1592063274565" lon="-75.6818823499528">
        <ele>52.2778713</ele>
        <time>2019-09-10T15:40:16.000Z</time>
      </trkpt>
      <trkpt lat="10.1592080779426" lon="-75.6818844691358">
        <ele>52.2778713</ele>
        <time>2019-09-10T15:40:16.100Z</time>
      </trkpt>
      <trkpt lat="10.1592098155054" lon="-75.6818865719563">
        <ele>52.2778713</ele>
        <time>2019-09-10T15:40:16.200Z</time>
      </trkpt>
      <trkpt lat="10.1592115540062" lon="-75.6818886763086">
        <ele>52.3778713</ele>
        <time>2019-09-10T15:40:16.300Z</time>
      </trkpt>
      <trkpt lat="10.1592132831792" lon="-75.681890733175">
        <ele>52.3778713</ele>
        <time>2019-09-10T15:40:16.400Z</time>
      </trkpt>
      <trkpt lat="10.159215017459" lon="-75.6818927979789">
        <ele>52.2778713</ele>
        <time>2019-09-10T15:40:16.500Z</time>
      </trkpt>
      <trkpt lat="10.1592166881123" lon="-75.681894821981">
        <ele>52.3778713</ele>
        <time>2019-09-10T15:40:16.600Z</time>
      </trkpt>
      <trkpt lat="10.1592183651751" lon="-75.6818968610924">
        <ele>52.3778713</ele>
        <time>2019-09-10T15:40:16.700Z</time>
      </trkpt>
      <trkpt lat="10.1592200706901" lon="-75.6818989073753">
        <ele>52.3778713</ele>
        <time>2019-09-10T15:40:16.800Z</time>
      </trkpt>
      <trkpt lat="10.159221800749" lon="-75.6819009792812">
        <ele>52.3778713</ele>
        <time>2019-09-10T15:40:16.900Z</time>
      </trkpt>
      <trkpt lat="10.1592235421158" lon="-75.6819030321092">
        <ele>52.3778713</ele>
        <time>2019-09-10T15:40:17.000Z</time>
      </trkpt>
      <trkpt lat="10.1592252841601" lon="-75.6819050990019">
        <ele>52.3778713</ele>
        <time>2019-09-10T15:40:17.100Z</time>
      </trkpt>
      <trkpt lat="10.1592270308942" lon="-75.6819071470256">
        <ele>52.3778713</ele>
        <time>2019-09-10T15:40:17.200Z</time>
      </trkpt>
      <trkpt lat="10.1592287777326" lon="-75.6819092088354">
        <ele>52.3778713</ele>
        <time>2019-09-10T15:40:17.300Z</time>
      </trkpt>
      <trkpt lat="10.1592305232161" lon="-75.6819112825517">
        <ele>52.3778713</ele>
        <time>2019-09-10T15:40:17.400Z</time>
      </trkpt>
      <trkpt lat="10.1592322679701" lon="-75.6819133714467">
        <ele>52.3778713</ele>
        <time>2019-09-10T15:40:17.500Z</time>
      </trkpt>
      <trkpt lat="10.1592340119424" lon="-75.6819154739887">
        <ele>52.3778713</ele>
        <time>2019-09-10T15:40:17.600Z</time>
      </trkpt>
      <trkpt lat="10.1592357535177" lon="-75.6819175821009">
        <ele>52.3778713</ele>
        <time>2019-09-10T15:40:17.700Z</time>
      </trkpt>
      <trkpt lat="10.1592392186381" lon="-75.6819217512571">
        <ele>52.3778713</ele>
        <time>2019-09-10T15:40:17.900Z</time>
      </trkpt>
      <trkpt lat="10.1592409449972" lon="-75.6819239060893">
        <ele>52.3778713</ele>
        <time>2019-09-10T15:40:18.000Z</time>
      </trkpt>
      <trkpt lat="10.1592426738575" lon="-75.6819260645422">
        <ele>52.3778713</ele>
        <time>2019-09-10T15:40:18.100Z</time>
      </trkpt>
      <trkpt lat="10.1592443756206" lon="-75.6819281796868">
        <ele>52.3778713</ele>
        <time>2019-09-10T15:40:18.200Z</time>
      </trkpt>
      <trkpt lat="10.1592460819172" lon="-75.681930290793">
        <ele>52.3778713</ele>
        <time>2019-09-10T15:40:18.300Z</time>
      </trkpt>
      <trkpt lat="10.1592495810656" lon="-75.6819345623712">
        <ele>52.3778713</ele>
        <time>2019-09-10T15:40:18.500Z</time>
      </trkpt>
      <trkpt lat="10.1592512804837" lon="-75.6819366564187">
        <ele>52.3778713</ele>
        <time>2019-09-10T15:40:18.600Z</time>
      </trkpt>
      <trkpt lat="10.1592529807356" lon="-75.6819387568719">
        <ele>52.3778713</ele>
        <time>2019-09-10T15:40:18.700Z</time>
      </trkpt>
      <trkpt lat="10.1592547134" lon="-75.6819408801628">
        <ele>52.3778713</ele>
        <time>2019-09-10T15:40:18.800Z</time>
      </trkpt>
      <trkpt lat="10.1592564533077" lon="-75.6819430234369">
        <ele>52.3778713</ele>
        <time>2019-09-10T15:40:18.900Z</time>
      </trkpt>
      <trkpt lat="10.1592581365716" lon="-75.6819451499308">
        <ele>52.3778713</ele>
        <time>2019-09-10T15:40:19.000Z</time>
      </trkpt>
      <trkpt lat="10.159259826662" lon="-75.6819472789313">
        <ele>52.3778713</ele>
        <time>2019-09-10T15:40:19.100Z</time>
      </trkpt>
      <trkpt lat="10.1592615304053" lon="-75.6819493769475">
        <ele>52.3778713</ele>
        <time>2019-09-10T15:40:19.200Z</time>
      </trkpt>
      <trkpt lat="10.1592632505632" lon="-75.681951483319">
        <ele>52.3778713</ele>
        <time>2019-09-10T15:40:19.300Z</time>
      </trkpt>
      <trkpt lat="10.1592649481575" lon="-75.6819535946341">
        <ele>52.3778713</ele>
        <time>2019-09-10T15:40:19.400Z</time>
      </trkpt>
      <trkpt lat="10.159266653933" lon="-75.6819557158362">
        <ele>52.3778713</ele>
        <time>2019-09-10T15:40:19.500Z</time>
      </trkpt>
      <trkpt lat="10.1592683396982" lon="-75.6819578127384">
        <ele>52.3778713</ele>
        <time>2019-09-10T15:40:19.600Z</time>
      </trkpt>
      <trkpt lat="10.1592700396374" lon="-75.6819599097798">
        <ele>52.3778713</ele>
        <time>2019-09-10T15:40:19.700Z</time>
      </trkpt>
      <trkpt lat="10.1592717787114" lon="-75.6819620236015">
        <ele>52.3778713</ele>
        <time>2019-09-10T15:40:19.800Z</time>
      </trkpt>
      <trkpt lat="10.1592735280511" lon="-75.6819641458481">
        <ele>52.3778713</ele>
        <time>2019-09-10T15:40:19.900Z</time>
      </trkpt>
      <trkpt lat="10.1592752903662" lon="-75.6819662570935">
        <ele>52.3778713</ele>
        <time>2019-09-10T15:40:20.000Z</time>
      </trkpt>
      <trkpt lat="10.1592770507011" lon="-75.6819683748143">
        <ele>52.3778713</ele>
        <time>2019-09-10T15:40:20.100Z</time>
      </trkpt>
      <trkpt lat="10.1592787402704" lon="-75.6819703663004">
        <ele>52.3778713</ele>
        <time>2019-09-10T15:40:20.200Z</time>
      </trkpt>
      <trkpt lat="10.1592804065985" lon="-75.681972245547">
        <ele>52.3778713</ele>
        <time>2019-09-10T15:40:20.300Z</time>
      </trkpt>
      <trkpt lat="10.1592820383255" lon="-75.6819739257981">
        <ele>52.3778713</ele>
        <time>2019-09-10T15:40:20.400Z</time>
      </trkpt>
      <trkpt lat="10.1592836737522" lon="-75.6819754141558">
        <ele>52.3778713</ele>
        <time>2019-09-10T15:40:20.500Z</time>
      </trkpt>
      <trkpt lat="10.159285349825" lon="-75.6819765624527">
        <ele>52.3778713</ele>
        <time>2019-09-10T15:40:20.600Z</time>
      </trkpt>
      <trkpt lat="10.1592870401238" lon="-75.6819774598818">
        <ele>52.3778713</ele>
        <time>2019-09-10T15:40:20.700Z</time>
      </trkpt>
      <trkpt lat="10.1592887943097" lon="-75.6819779421915">
        <ele>52.3778713</ele>
        <time>2019-09-10T15:40:20.800Z</time>
      </trkpt>
      <trkpt lat="10.1592905648582" lon="-75.6819781484282">
        <ele>52.3778713</ele>
        <time>2019-09-10T15:40:20.900Z</time>
      </trkpt>
      <trkpt lat="10.1592924575531" lon="-75.6819779221388">
        <ele>52.3778713</ele>
        <time>2019-09-10T15:40:21.000Z</time>
      </trkpt>
      <trkpt lat="10.1592943495184" lon="-75.6819774386454">
        <ele>52.3778713</ele>
        <time>2019-09-10T15:40:21.100Z</time>
      </trkpt>
      <trkpt lat="10.15929636264" lon="-75.6819765829929">
        <ele>52.3778713</ele>
        <time>2019-09-10T15:40:21.200Z</time>
      </trkpt>
      <trkpt lat="10.1592983659648" lon="-75.6819754706237">
        <ele>52.3778713</ele>
        <time>2019-09-10T15:40:21.300Z</time>
      </trkpt>
      <trkpt lat="10.1593004284868" lon="-75.6819740725033">
        <ele>52.3778713</ele>
        <time>2019-09-10T15:40:21.400Z</time>
      </trkpt>
      <trkpt lat="10.1593024728224" lon="-75.6819723829221">
        <ele>52.3778713</ele>
        <time>2019-09-10T15:40:21.500Z</time>
      </trkpt>
      <trkpt lat="10.1593046589498" lon="-75.6819704880789">
        <ele>52.3778713</ele>
        <time>2019-09-10T15:40:21.600Z</time>
      </trkpt>
      <trkpt lat="10.1593067915601" lon="-75.681968433928">
        <ele>52.2778713</ele>
        <time>2019-09-10T15:40:21.700Z</time>
      </trkpt>
      <trkpt lat="10.1593090574162" lon="-75.6819662966419">
        <ele>52.2778713</ele>
        <time>2019-09-10T15:40:21.800Z</time>
      </trkpt>
      <trkpt lat="10.1593112464618" lon="-75.6819640672386">
        <ele>52.2778713</ele>
        <time>2019-09-10T15:40:21.900Z</time>
      </trkpt>
      <trkpt lat="10.1593134229488" lon="-75.6819619498659">
        <ele>52.2778713</ele>
        <time>2019-09-10T15:40:22.000Z</time>
      </trkpt>
      <trkpt lat="10.1593177392895" lon="-75.6819577154688">
        <ele>52.2778713</ele>
        <time>2019-09-10T15:40:22.200Z</time>
      </trkpt>
      <trkpt lat="10.1593198835203" lon="-75.6819555744924">
        <ele>52.2778713</ele>
        <time>2019-09-10T15:40:22.300Z</time>
      </trkpt>
      <trkpt lat="10.1593220671985" lon="-75.6819534709756">
        <ele>52.2778713</ele>
        <time>2019-09-10T15:40:22.400Z</time>
      </trkpt>
      <trkpt lat="10.1593241866249" lon="-75.6819512968565">
        <ele>52.2778713</ele>
        <time>2019-09-10T15:40:22.500Z</time>
      </trkpt>
      <trkpt lat="10.1593262791624" lon="-75.6819492312171">
        <ele>52.3778713</ele>
        <time>2019-09-10T15:40:22.600Z</time>
      </trkpt>
      <trkpt lat="10.1593283302202" lon="-75.6819471314602">
        <ele>52.3778713</ele>
        <time>2019-09-10T15:40:22.700Z</time>
      </trkpt>
      <trkpt lat="10.159332327959" lon="-75.6819430239243">
        <ele>52.3778713</ele>
        <time>2019-09-10T15:40:22.900Z</time>
      </trkpt>
      <trkpt lat="10.1593342865733" lon="-75.6819409283451">
        <ele>52.3778713</ele>
        <time>2019-09-10T15:40:23.000Z</time>
      </trkpt>
      <trkpt lat="10.1593362413314" lon="-75.6819387964899">
        <ele>52.3778713</ele>
        <time>2019-09-10T15:40:23.100Z</time>
      </trkpt>
      <trkpt lat="10.1593381567463" lon="-75.6819366893525">
        <ele>52.3778713</ele>
        <time>2019-09-10T15:40:23.200Z</time>
      </trkpt>
      <trkpt lat="10.1593400679924" lon="-75.6819345756701">
        <ele>52.3778713</ele>
        <time>2019-09-10T15:40:23.300Z</time>
      </trkpt>
      <trkpt lat="10.1593437925174" lon="-75.6819303280437">
        <ele>52.3778713</ele>
        <time>2019-09-10T15:40:23.500Z</time>
      </trkpt>
      <trkpt lat="10.1593456319557" lon="-75.6819281790601">
        <ele>52.3778713</ele>
        <time>2019-09-10T15:40:23.600Z</time>
      </trkpt>
      <trkpt lat="10.1593474992207" lon="-75.6819260541677">
        <ele>52.3778713</ele>
        <time>2019-09-10T15:40:23.700Z</time>
      </trkpt>
      <trkpt lat="10.1593492963455" lon="-75.6819239977191">
        <ele>52.3778713</ele>
        <time>2019-09-10T15:40:23.800Z</time>
      </trkpt>
      <trkpt lat="10.1593511213492" lon="-75.6819219657098">
        <ele>52.3778713</ele>
        <time>2019-09-10T15:40:23.900Z</time>
      </trkpt>
      <trkpt lat="10.1593529193598" lon="-75.681919942195">
        <ele>52.3778713</ele>
        <time>2019-09-10T15:40:24.000Z</time>
      </trkpt>
      <trkpt lat="10.1593547604656" lon="-75.681917927523">
        <ele>52.3778713</ele>
        <time>2019-09-10T15:40:24.100Z</time>
      </trkpt>
      <trkpt lat="10.1593565471683" lon="-75.6819159253838">
        <ele>52.3778713</ele>
        <time>2019-09-10T15:40:24.200Z</time>
      </trkpt>
      <trkpt lat="10.1593583758197" lon="-75.6819139366132">
        <ele>52.3778713</ele>
        <time>2019-09-10T15:40:24.300Z</time>
      </trkpt>
      <trkpt lat="10.1593601568945" lon="-75.6819119751365">
        <ele>52.3778713</ele>
        <time>2019-09-10T15:40:24.400Z</time>
      </trkpt>
      <trkpt lat="10.1593619849727" lon="-75.681910035871">
        <ele>52.3778713</ele>
        <time>2019-09-10T15:40:24.500Z</time>
      </trkpt>
      <trkpt lat="10.1593637950207" lon="-75.6819081112273">
        <ele>52.3778713</ele>
        <time>2019-09-10T15:40:24.600Z</time>
      </trkpt>
      <trkpt lat="10.1593656544693" lon="-75.6819061984203">
        <ele>52.3778713</ele>
        <time>2019-09-10T15:40:24.700Z</time>
      </trkpt>
      <trkpt lat="10.1593674916147" lon="-75.6819042932027">
        <ele>52.3778713</ele>
        <time>2019-09-10T15:40:24.800Z</time>
      </trkpt>
      <trkpt lat="10.159369376493" lon="-75.6819023994736">
        <ele>52.3778713</ele>
        <time>2019-09-10T15:40:24.900Z</time>
      </trkpt>
      <trkpt lat="10.1593712287503" lon="-75.6819005245439">
        <ele>52.3778713</ele>
        <time>2019-09-10T15:40:25.000Z</time>
      </trkpt>
      <trkpt lat="10.1593731343685" lon="-75.681898659571">
        <ele>52.3778713</ele>
        <time>2019-09-10T15:40:25.100Z</time>
      </trkpt>
      <trkpt lat="10.1593750084079" lon="-75.681896858168">
        <ele>52.3778713</ele>
        <time>2019-09-10T15:40:25.200Z</time>
      </trkpt>
      <trkpt lat="10.1593768381537" lon="-75.6818951027888">
        <ele>52.3778713</ele>
        <time>2019-09-10T15:40:25.300Z</time>
      </trkpt>
      <trkpt lat="10.1593784983328" lon="-75.681893359107">
        <ele>52.2778713</ele>
        <time>2019-09-10T15:40:25.400Z</time>
      </trkpt>
      <trkpt lat="10.1593800103105" lon="-75.6818916040063">
        <ele>52.2778713</ele>
        <time>2019-09-10T15:40:25.500Z</time>
      </trkpt>
      <trkpt lat="10.1593812351088" lon="-75.6818898793328">
        <ele>52.2778713</ele>
        <time>2019-09-10T15:40:25.600Z</time>
      </trkpt>
      <trkpt lat="10.1593822472454" lon="-75.6818881338407">
        <ele>52.2778713</ele>
        <time>2019-09-10T15:40:25.700Z</time>
      </trkpt>
      <trkpt lat="10.1593829369761" lon="-75.6818862568918">
        <ele>52.2778713</ele>
        <time>2019-09-10T15:40:25.800Z</time>
      </trkpt>
      <trkpt lat="10.1593833958064" lon="-75.681884346661">
        <ele>52.2778713</ele>
        <time>2019-09-10T15:40:25.900Z</time>
      </trkpt>
      <trkpt lat="10.1593834895006" lon="-75.6818823446611">
        <ele>52.2778713</ele>
        <time>2019-09-10T15:40:26.000Z</time>
      </trkpt>
      <trkpt lat="10.1593833187354" lon="-75.6818803512951">
        <ele>52.2778713</ele>
        <time>2019-09-10T15:40:26.100Z</time>
      </trkpt>
      <trkpt lat="10.1593827441683" lon="-75.6818782142875">
        <ele>52.2778713</ele>
        <time>2019-09-10T15:40:26.200Z</time>
      </trkpt>
      <trkpt lat="10.1593819111345" lon="-75.6818761118847">
        <ele>52.2778713</ele>
        <time>2019-09-10T15:40:26.300Z</time>
      </trkpt>
      <trkpt lat="10.1593806846166" lon="-75.6818738943877">
        <ele>52.2778713</ele>
        <time>2019-09-10T15:40:26.400Z</time>
      </trkpt>
      <trkpt lat="10.1593792015079" lon="-75.6818717370489">
        <ele>52.2778713</ele>
        <time>2019-09-10T15:40:26.500Z</time>
      </trkpt>
      <trkpt lat="10.1593754719803" lon="-75.6818674320494">
        <ele>52.3778713</ele>
        <time>2019-09-10T15:40:26.700Z</time>
      </trkpt>
      <trkpt lat="10.1593733961702" lon="-75.6818652178248">
        <ele>52.3778713</ele>
        <time>2019-09-10T15:40:26.800Z</time>
      </trkpt>
      <trkpt lat="10.1593712797141" lon="-75.6818630771618">
        <ele>52.3778713</ele>
        <time>2019-09-10T15:40:26.900Z</time>
      </trkpt>
      <trkpt lat="10.1593692000999" lon="-75.6818608782205">
        <ele>52.3778713</ele>
        <time>2019-09-10T15:40:27.000Z</time>
      </trkpt>
      <trkpt lat="10.1593670942222" lon="-75.6818587434062">
        <ele>52.3778713</ele>
        <time>2019-09-10T15:40:27.100Z</time>
      </trkpt>
      <trkpt lat="10.1593650322734" lon="-75.6818565501395">
        <ele>52.3778713</ele>
        <time>2019-09-10T15:40:27.200Z</time>
      </trkpt>
      <trkpt lat="10.1593629392148" lon="-75.6818544226012">
        <ele>52.3778713</ele>
        <time>2019-09-10T15:40:27.300Z</time>
      </trkpt>
      <trkpt lat="10.1593609580889" lon="-75.6818523069344">
        <ele>52.3778713</ele>
        <time>2019-09-10T15:40:27.400Z</time>
      </trkpt>
      <trkpt lat="10.1593589487714" lon="-75.6818502454031">
        <ele>52.3778713</ele>
        <time>2019-09-10T15:40:27.500Z</time>
      </trkpt>
      <trkpt lat="10.1593569391933" lon="-75.6818480795">
        <ele>52.3778713</ele>
        <time>2019-09-10T15:40:27.600Z</time>
      </trkpt>
      <trkpt lat="10.1593548800585" lon="-75.6818459732678">
        <ele>52.3778713</ele>
        <time>2019-09-10T15:40:27.700Z</time>
      </trkpt>
      <trkpt lat="10.1593528809025" lon="-75.6818439356534">
        <ele>52.3778713</ele>
        <time>2019-09-10T15:40:27.800Z</time>
      </trkpt>
      <trkpt lat="10.1593508704906" lon="-75.6818419447591">
        <ele>52.3778713</ele>
        <time>2019-09-10T15:40:27.900Z</time>
      </trkpt>
      <trkpt lat="10.1593488750866" lon="-75.6818399961984">
        <ele>52.3778713</ele>
        <time>2019-09-10T15:40:28.000Z</time>
      </trkpt>
      <trkpt lat="10.159346861965" lon="-75.6818380555404">
        <ele>52.3778713</ele>
        <time>2019-09-10T15:40:28.100Z</time>
      </trkpt>
      <trkpt lat="10.1593448804222" lon="-75.681836123551">
        <ele>52.3778713</ele>
        <time>2019-09-10T15:40:28.200Z</time>
      </trkpt>
      <trkpt lat="10.1593428954402" lon="-75.6818341858173">
        <ele>52.3778713</ele>
        <time>2019-09-10T15:40:28.300Z</time>
      </trkpt>
      <trkpt lat="10.1593408870607" lon="-75.681832277919">
        <ele>52.3778713</ele>
        <time>2019-09-10T15:40:28.400Z</time>
      </trkpt>
      <trkpt lat="10.15933887717" lon="-75.6818303578011">
        <ele>52.3778713</ele>
        <time>2019-09-10T15:40:28.500Z</time>
      </trkpt>
      <trkpt lat="10.1593368970342" lon="-75.6818284918534">
        <ele>52.3778713</ele>
        <time>2019-09-10T15:40:28.600Z</time>
      </trkpt>
      <trkpt lat="10.1593349330525" lon="-75.6818266032767">
        <ele>52.3778713</ele>
        <time>2019-09-10T15:40:28.700Z</time>
      </trkpt>
      <trkpt lat="10.1593329640162" lon="-75.6818247295307">
        <ele>52.3778713</ele>
        <time>2019-09-10T15:40:28.800Z</time>
      </trkpt>
      <trkpt lat="10.1593310080596" lon="-75.6818228229205">
        <ele>52.3778713</ele>
        <time>2019-09-10T15:40:28.900Z</time>
      </trkpt>
      <trkpt lat="10.1593289941564" lon="-75.6818209057966">
        <ele>52.3778713</ele>
        <time>2019-09-10T15:40:29.000Z</time>
      </trkpt>
      <trkpt lat="10.1593270064125" lon="-75.681818960195">
        <ele>52.3778713</ele>
        <time>2019-09-10T15:40:29.100Z</time>
      </trkpt>
      <trkpt lat="10.1593250509769" lon="-75.6818170638549">
        <ele>52.3778713</ele>
        <time>2019-09-10T15:40:29.200Z</time>
      </trkpt>
      <trkpt lat="10.1593231369169" lon="-75.6818151443636">
        <ele>52.3778713</ele>
        <time>2019-09-10T15:40:29.300Z</time>
      </trkpt>
      <trkpt lat="10.1593211754366" lon="-75.6818132528278">
        <ele>52.3778713</ele>
        <time>2019-09-10T15:40:29.400Z</time>
      </trkpt>
      <trkpt lat="10.1593192470983" lon="-75.6818113232057">
        <ele>52.3778713</ele>
        <time>2019-09-10T15:40:29.500Z</time>
      </trkpt>
      <trkpt lat="10.159317316832" lon="-75.6818094257168">
        <ele>52.3778713</ele>
        <time>2019-09-10T15:40:29.600Z</time>
      </trkpt>
      <trkpt lat="10.159315432579" lon="-75.681807493797">
        <ele>52.3778713</ele>
        <time>2019-09-10T15:40:29.700Z</time>
      </trkpt>
      <trkpt lat="10.1593135604677" lon="-75.6818056298685">
        <ele>52.3778713</ele>
        <time>2019-09-10T15:40:29.800Z</time>
      </trkpt>
      <trkpt lat="10.1593117191535" lon="-75.6818037241287">
        <ele>52.3778713</ele>
        <time>2019-09-10T15:40:29.900Z</time>
      </trkpt>
      <trkpt lat="10.1593098594444" lon="-75.6818018473191">
        <ele>52.3778713</ele>
        <time>2019-09-10T15:40:30.000Z</time>
      </trkpt>
      <trkpt lat="10.1593080258946" lon="-75.6817999163392">
        <ele>52.3778713</ele>
        <time>2019-09-10T15:40:30.100Z</time>
      </trkpt>
      <trkpt lat="10.1593061610266" lon="-75.6817979877616">
        <ele>52.3778713</ele>
        <time>2019-09-10T15:40:30.200Z</time>
      </trkpt>
      <trkpt lat="10.1593043270599" lon="-75.6817960103054">
        <ele>52.3778713</ele>
        <time>2019-09-10T15:40:30.300Z</time>
      </trkpt>
      <trkpt lat="10.1593025151359" lon="-75.6817940715621">
        <ele>52.3778713</ele>
        <time>2019-09-10T15:40:30.400Z</time>
      </trkpt>
      <trkpt lat="10.1593007251502" lon="-75.6817920878047">
        <ele>52.3778713</ele>
        <time>2019-09-10T15:40:30.500Z</time>
      </trkpt>
      <trkpt lat="10.1592989481922" lon="-75.6817900911313">
        <ele>52.3778713</ele>
        <time>2019-09-10T15:40:30.600Z</time>
      </trkpt>
      <trkpt lat="10.1592971894205" lon="-75.6817880486082">
        <ele>52.3778713</ele>
        <time>2019-09-10T15:40:30.700Z</time>
      </trkpt>
      <trkpt lat="10.15929543117" lon="-75.6817860216469">
        <ele>52.3778713</ele>
        <time>2019-09-10T15:40:30.800Z</time>
      </trkpt>
      <trkpt lat="10.159293685478" lon="-75.6817839647109">
        <ele>52.3778713</ele>
        <time>2019-09-10T15:40:30.900Z</time>
      </trkpt>
      <trkpt lat="10.1592919592753" lon="-75.681781881212">
        <ele>52.3778713</ele>
        <time>2019-09-10T15:40:31.000Z</time>
      </trkpt>
      <trkpt lat="10.1592902454227" lon="-75.6817797727517">
        <ele>52.3778713</ele>
        <time>2019-09-10T15:40:31.100Z</time>
      </trkpt>
      <trkpt lat="10.1592885062445" lon="-75.6817776487644">
        <ele>52.3778713</ele>
        <time>2019-09-10T15:40:31.200Z</time>
      </trkpt>
      <trkpt lat="10.1592867775925" lon="-75.6817755113739">
        <ele>52.3778713</ele>
        <time>2019-09-10T15:40:31.300Z</time>
      </trkpt>
      <trkpt lat="10.1592850441465" lon="-75.6817733793446">
        <ele>52.3778713</ele>
        <time>2019-09-10T15:40:31.400Z</time>
      </trkpt>
      <trkpt lat="10.1592833260729" lon="-75.6817712448784">
        <ele>52.3778713</ele>
        <time>2019-09-10T15:40:31.500Z</time>
      </trkpt>
      <trkpt lat="10.1592799873198" lon="-75.6817670996393">
        <ele>52.3778713</ele>
        <time>2019-09-10T15:40:31.700Z</time>
      </trkpt>
      <trkpt lat="10.1592766439289" lon="-75.681763031443">
        <ele>52.3778713</ele>
        <time>2019-09-10T15:40:31.900Z</time>
      </trkpt>
      <trkpt lat="10.1592749676998" lon="-75.6817610153087">
        <ele>52.3778713</ele>
        <time>2019-09-10T15:40:32.000Z</time>
      </trkpt>
      <trkpt lat="10.1592732848527" lon="-75.6817589740389">
        <ele>52.3778713</ele>
        <time>2019-09-10T15:40:32.100Z</time>
      </trkpt>
      <trkpt lat="10.1592715674045" lon="-75.6817569663644">
        <ele>52.3778713</ele>
        <time>2019-09-10T15:40:32.200Z</time>
      </trkpt>
      <trkpt lat="10.1592698562616" lon="-75.6817549368617">
        <ele>52.3778713</ele>
        <time>2019-09-10T15:40:32.300Z</time>
      </trkpt>
      <trkpt lat="10.1592681513719" lon="-75.6817529563071">
        <ele>52.3778713</ele>
        <time>2019-09-10T15:40:32.400Z</time>
      </trkpt>
      <trkpt lat="10.1592664519538" lon="-75.6817509409735">
        <ele>52.3778713</ele>
        <time>2019-09-10T15:40:32.500Z</time>
      </trkpt>
      <trkpt lat="10.1592647494091" lon="-75.6817489297132">
        <ele>52.3778713</ele>
        <time>2019-09-10T15:40:32.600Z</time>
      </trkpt>
      <trkpt lat="10.1592630442068" lon="-75.6817468833606">
        <ele>52.3778713</ele>
        <time>2019-09-10T15:40:32.700Z</time>
      </trkpt>
      <trkpt lat="10.1592612748047" lon="-75.6817448115592">
        <ele>52.3778713</ele>
        <time>2019-09-10T15:40:32.800Z</time>
      </trkpt>
      <trkpt lat="10.1592595161894" lon="-75.6817427136126">
        <ele>52.3778713</ele>
        <time>2019-09-10T15:40:32.900Z</time>
      </trkpt>
      <trkpt lat="10.1592578015551" lon="-75.6817406635001">
        <ele>52.3778713</ele>
        <time>2019-09-10T15:40:33.000Z</time>
      </trkpt>
      <trkpt lat="10.1592560960922" lon="-75.6817385960504">
        <ele>52.3778713</ele>
        <time>2019-09-10T15:40:33.100Z</time>
      </trkpt>
      <trkpt lat="10.1592543744231" lon="-75.681736518818">
        <ele>52.3778713</ele>
        <time>2019-09-10T15:40:33.200Z</time>
      </trkpt>
      <trkpt lat="10.1592526493667" lon="-75.6817344197225">
        <ele>52.3778713</ele>
        <time>2019-09-10T15:40:33.300Z</time>
      </trkpt>
      <trkpt lat="10.1592509093027" lon="-75.6817323533172">
        <ele>52.3778713</ele>
        <time>2019-09-10T15:40:33.400Z</time>
      </trkpt>
      <trkpt lat="10.1592491739806" lon="-75.6817302717331">
        <ele>52.3778713</ele>
        <time>2019-09-10T15:40:33.500Z</time>
      </trkpt>
      <trkpt lat="10.1592474602844" lon="-75.6817281918897">
        <ele>52.3778713</ele>
        <time>2019-09-10T15:40:33.600Z</time>
      </trkpt>
      <trkpt lat="10.1592457501837" lon="-75.681726090775">
        <ele>52.3778713</ele>
        <time>2019-09-10T15:40:33.700Z</time>
      </trkpt>
      <trkpt lat="10.1592440270033" lon="-75.6817239901478">
        <ele>52.3778713</ele>
        <time>2019-09-10T15:40:33.800Z</time>
      </trkpt>
      <trkpt lat="10.1592423000189" lon="-75.6817218745158">
        <ele>52.3778713</ele>
        <time>2019-09-10T15:40:33.900Z</time>
      </trkpt>
      <trkpt lat="10.1592405622998" lon="-75.6817197315899">
        <ele>52.3778713</ele>
        <time>2019-09-10T15:40:34.000Z</time>
      </trkpt>
      <trkpt lat="10.1592388287495" lon="-75.6817175788116">
        <ele>52.3778713</ele>
        <time>2019-09-10T15:40:34.100Z</time>
      </trkpt>
      <trkpt lat="10.1592371132815" lon="-75.6817154817006">
        <ele>52.3778713</ele>
        <time>2019-09-10T15:40:34.200Z</time>
      </trkpt>
      <trkpt lat="10.1592354010443" lon="-75.6817133776964">
        <ele>52.3778713</ele>
        <time>2019-09-10T15:40:34.300Z</time>
      </trkpt>
      <trkpt lat="10.1592336805736" lon="-75.6817112599756">
        <ele>52.3778713</ele>
        <time>2019-09-10T15:40:34.400Z</time>
      </trkpt>
      <trkpt lat="10.1592319574454" lon="-75.6817091241865">
        <ele>52.3778713</ele>
        <time>2019-09-10T15:40:34.500Z</time>
      </trkpt>
      <trkpt lat="10.1592302537543" lon="-75.6817070139506">
        <ele>52.3778713</ele>
        <time>2019-09-10T15:40:34.600Z</time>
      </trkpt>
      <trkpt lat="10.1592285494899" lon="-75.6817048962995">
        <ele>52.3778713</ele>
        <time>2019-09-10T15:40:34.700Z</time>
      </trkpt>
      <trkpt lat="10.1592268293319" lon="-75.6817028034357">
        <ele>52.3778713</ele>
        <time>2019-09-10T15:40:34.800Z</time>
      </trkpt>
      <trkpt lat="10.1592251076628" lon="-75.681700703644">
        <ele>52.3778713</ele>
        <time>2019-09-10T15:40:34.900Z</time>
      </trkpt>
      <trkpt lat="10.1592234094432" lon="-75.6816986028775">
        <ele>52.3778713</ele>
        <time>2019-09-10T15:40:35.000Z</time>
      </trkpt>
      <trkpt lat="10.1592217128912" lon="-75.6816964957052">
        <ele>52.3778713</ele>
        <time>2019-09-10T15:40:35.100Z</time>
      </trkpt>
      <trkpt lat="10.1592199989864" lon="-75.6816944112664">
        <ele>52.3778713</ele>
        <time>2019-09-10T15:40:35.200Z</time>
      </trkpt>
      <trkpt lat="10.1592182794538" lon="-75.6816923249476">
        <ele>52.3778713</ele>
        <time>2019-09-10T15:40:35.300Z</time>
      </trkpt>
      <trkpt lat="10.1592165101038" lon="-75.6816902110215">
        <ele>52.3778713</ele>
        <time>2019-09-10T15:40:35.400Z</time>
      </trkpt>
      <trkpt lat="10.1592147503942" lon="-75.6816880896801">
        <ele>52.3778713</ele>
        <time>2019-09-10T15:40:35.500Z</time>
      </trkpt>
      <trkpt lat="10.1592130407625" lon="-75.6816860049627">
        <ele>52.3778713</ele>
        <time>2019-09-10T15:40:35.600Z</time>
      </trkpt>
      <trkpt lat="10.159211338791" lon="-75.681683919932">
        <ele>52.3778713</ele>
        <time>2019-09-10T15:40:35.700Z</time>
      </trkpt>
      <trkpt lat="10.1592095954961" lon="-75.6816818417945">
        <ele>52.3778713</ele>
        <time>2019-09-10T15:40:35.800Z</time>
      </trkpt>
      <trkpt lat="10.1592078490225" lon="-75.6816797561024">
        <ele>52.3778713</ele>
        <time>2019-09-10T15:40:35.900Z</time>
      </trkpt>
      <trkpt lat="10.1592060887918" lon="-75.6816776743094">
        <ele>52.3778713</ele>
        <time>2019-09-10T15:40:36.000Z</time>
      </trkpt>
      <trkpt lat="10.1592025803157" lon="-75.6816734889996">
        <ele>52.3778713</ele>
        <time>2019-09-10T15:40:36.200Z</time>
      </trkpt>
      <trkpt lat="10.1592008350927" lon="-75.6816713914011">
        <ele>52.3778713</ele>
        <time>2019-09-10T15:40:36.300Z</time>
      </trkpt>
      <trkpt lat="10.1591991222823" lon="-75.6816693557712">
        <ele>52.3778713</ele>
        <time>2019-09-10T15:40:36.400Z</time>
      </trkpt>
      <trkpt lat="10.1591974168715" lon="-75.6816673060765">
        <ele>52.3778713</ele>
        <time>2019-09-10T15:40:36.500Z</time>
      </trkpt>
      <trkpt lat="10.1591957119297" lon="-75.6816652092787">
        <ele>52.3778713</ele>
        <time>2019-09-10T15:40:36.600Z</time>
      </trkpt>
      <trkpt lat="10.1591940036008" lon="-75.6816630932638">
        <ele>52.3778713</ele>
        <time>2019-09-10T15:40:36.700Z</time>
      </trkpt>
      <trkpt lat="10.1591923101233" lon="-75.6816610061443">
        <ele>52.3778713</ele>
        <time>2019-09-10T15:40:36.800Z</time>
      </trkpt>
      <trkpt lat="10.1591906141444" lon="-75.6816589150212">
        <ele>52.3778713</ele>
        <time>2019-09-10T15:40:36.900Z</time>
      </trkpt>
      <trkpt lat="10.1591889305678" lon="-75.6816568248729">
        <ele>52.3778713</ele>
        <time>2019-09-10T15:40:37.000Z</time>
      </trkpt>
      <trkpt lat="10.1591872419365" lon="-75.6816547232361">
        <ele>52.3778713</ele>
        <time>2019-09-10T15:40:37.100Z</time>
      </trkpt>
      <trkpt lat="10.1591855339203" lon="-75.6816525903713">
        <ele>52.3778713</ele>
        <time>2019-09-10T15:40:37.200Z</time>
      </trkpt>
      <trkpt lat="10.1591838208493" lon="-75.6816504562532">
        <ele>52.3778713</ele>
        <time>2019-09-10T15:40:37.300Z</time>
      </trkpt>
      <trkpt lat="10.1591820833907" lon="-75.6816483360606">
        <ele>52.3778713</ele>
        <time>2019-09-10T15:40:37.400Z</time>
      </trkpt>
      <trkpt lat="10.1591803505179" lon="-75.6816462216123">
        <ele>52.3778713</ele>
        <time>2019-09-10T15:40:37.500Z</time>
      </trkpt>
      <trkpt lat="10.1591786003444" lon="-75.6816441262768">
        <ele>52.3778713</ele>
        <time>2019-09-10T15:40:37.600Z</time>
      </trkpt>
      <trkpt lat="10.1591768563721" lon="-75.6816420335175">
        <ele>52.3778713</ele>
        <time>2019-09-10T15:40:37.700Z</time>
      </trkpt>
      <trkpt lat="10.1591751644579" lon="-75.6816399871997">
        <ele>52.3778713</ele>
        <time>2019-09-10T15:40:37.800Z</time>
      </trkpt>
      <trkpt lat="10.1591734758787" lon="-75.6816379330836">
        <ele>52.3778713</ele>
        <time>2019-09-10T15:40:37.900Z</time>
      </trkpt>
      <trkpt lat="10.1591717438917" lon="-75.6816358711345">
        <ele>52.3778713</ele>
        <time>2019-09-10T15:40:38.000Z</time>
      </trkpt>
      <trkpt lat="10.1591700089345" lon="-75.6816337903859">
        <ele>52.3778713</ele>
        <time>2019-09-10T15:40:38.100Z</time>
      </trkpt>
      <trkpt lat="10.1591683214496" lon="-75.6816317288893">
        <ele>52.3778713</ele>
        <time>2019-09-10T15:40:38.200Z</time>
      </trkpt>
      <trkpt lat="10.1591666350069" lon="-75.6816296563916">
        <ele>52.3778713</ele>
        <time>2019-09-10T15:40:38.300Z</time>
      </trkpt>
      <trkpt lat="10.1591649016651" lon="-75.6816275058066">
        <ele>52.3778713</ele>
        <time>2019-09-10T15:40:38.400Z</time>
      </trkpt>
      <trkpt lat="10.1591631641023" lon="-75.6816253506958">
        <ele>52.3778713</ele>
        <time>2019-09-10T15:40:38.500Z</time>
      </trkpt>
      <trkpt lat="10.1591614714064" lon="-75.6816232322439">
        <ele>52.3778713</ele>
        <time>2019-09-10T15:40:38.600Z</time>
      </trkpt>
      <trkpt lat="10.1591597791795" lon="-75.6816211216948">
        <ele>52.3778713</ele>
        <time>2019-09-10T15:40:38.700Z</time>
      </trkpt>
      <trkpt lat="10.1591564091082" lon="-75.6816168414479">
        <ele>52.3778713</ele>
        <time>2019-09-10T15:40:38.900Z</time>
      </trkpt>
      <trkpt lat="10.1591547268864" lon="-75.6816147104978">
        <ele>52.3778713</ele>
        <time>2019-09-10T15:40:39.000Z</time>
      </trkpt>
      <trkpt lat="10.1591530306471" lon="-75.6816125829944">
        <ele>52.3778713</ele>
        <time>2019-09-10T15:40:39.100Z</time>
      </trkpt>
      <trkpt lat="10.1591512828186" lon="-75.6816104052895">
        <ele>52.3778713</ele>
        <time>2019-09-10T15:40:39.200Z</time>
      </trkpt>
      <trkpt lat="10.1591495272257" lon="-75.6816082369843">
        <ele>52.3778713</ele>
        <time>2019-09-10T15:40:39.300Z</time>
      </trkpt>
      <trkpt lat="10.1591477834618" lon="-75.6816061050247">
        <ele>52.3778713</ele>
        <time>2019-09-10T15:40:39.400Z</time>
      </trkpt>
      <trkpt lat="10.1591460443357" lon="-75.6816039870254">
        <ele>52.3778713</ele>
        <time>2019-09-10T15:40:39.500Z</time>
      </trkpt>
      <trkpt lat="10.1591442991649" lon="-75.6816018954497">
        <ele>52.3778713</ele>
        <time>2019-09-10T15:40:39.600Z</time>
      </trkpt>
      <trkpt lat="10.1591425536813" lon="-75.6815998034563">
        <ele>52.3778713</ele>
        <time>2019-09-10T15:40:39.700Z</time>
      </trkpt>
      <trkpt lat="10.1591408097611" lon="-75.6815976935686">
        <ele>52.3778713</ele>
        <time>2019-09-10T15:40:39.800Z</time>
      </trkpt>
      <trkpt lat="10.1591390701139" lon="-75.6815955868489">
        <ele>52.3778713</ele>
        <time>2019-09-10T15:40:39.900Z</time>
      </trkpt>
      <trkpt lat="10.1591373340624" lon="-75.6815934909912">
        <ele>52.3778713</ele>
        <time>2019-09-10T15:40:40.000Z</time>
      </trkpt>
      <trkpt lat="10.1591355996783" lon="-75.6815914020614">
        <ele>52.3778713</ele>
        <time>2019-09-10T15:40:40.100Z</time>
      </trkpt>
      <trkpt lat="10.1591338669618" lon="-75.6815893174485">
        <ele>52.3778713</ele>
        <time>2019-09-10T15:40:40.200Z</time>
      </trkpt>
      <trkpt lat="10.1591321367987" lon="-75.6815872372917">
        <ele>52.3778713</ele>
        <time>2019-09-10T15:40:40.300Z</time>
      </trkpt>
      <trkpt lat="10.1591304108565" lon="-75.6815851493019">
        <ele>52.3778713</ele>
        <time>2019-09-10T15:40:40.400Z</time>
      </trkpt>
      <trkpt lat="10.1591286878324" lon="-75.6815830578306">
        <ele>52.3778713</ele>
        <time>2019-09-10T15:40:40.500Z</time>
      </trkpt>
      <trkpt lat="10.1591269595974" lon="-75.6815809555323">
        <ele>52.3778713</ele>
        <time>2019-09-10T15:40:40.600Z</time>
      </trkpt>
      <trkpt lat="10.1591252316229" lon="-75.681578860162">
        <ele>52.3778713</ele>
        <time>2019-09-10T15:40:40.700Z</time>
      </trkpt>
      <trkpt lat="10.1591235568008" lon="-75.6815768280482">
        <ele>52.3778713</ele>
        <time>2019-09-10T15:40:40.800Z</time>
      </trkpt>
      <trkpt lat="10.159120170888" lon="-75.6815727236108">
        <ele>52.3778713</ele>
        <time>2019-09-10T15:40:41.000Z</time>
      </trkpt>
      <trkpt lat="10.159118447447" lon="-75.6815706320177">
        <ele>52.3778713</ele>
        <time>2019-09-10T15:40:41.100Z</time>
      </trkpt>
      <trkpt lat="10.1591167304157" lon="-75.6815685554294">
        <ele>52.3778713</ele>
        <time>2019-09-10T15:40:41.200Z</time>
      </trkpt>
      <trkpt lat="10.1591150142702" lon="-75.6815664867437">
        <ele>52.2778713</ele>
        <time>2019-09-10T15:40:41.300Z</time>
      </trkpt>
      <trkpt lat="10.1591132507566" lon="-75.6815643951333">
        <ele>52.2778713</ele>
        <time>2019-09-10T15:40:41.400Z</time>
      </trkpt>
      <trkpt lat="10.1591114887541" lon="-75.6815622981615">
        <ele>52.2778713</ele>
        <time>2019-09-10T15:40:41.500Z</time>
      </trkpt>
      <trkpt lat="10.159109713203" lon="-75.6815602127652">
        <ele>52.3778713</ele>
        <time>2019-09-10T15:40:41.600Z</time>
      </trkpt>
      <trkpt lat="10.1591079483866" lon="-75.6815581287267">
        <ele>52.3778713</ele>
        <time>2019-09-10T15:40:41.700Z</time>
      </trkpt>
      <trkpt lat="10.1591061843518" lon="-75.6815559943302">
        <ele>52.3778713</ele>
        <time>2019-09-10T15:40:41.800Z</time>
      </trkpt>
      <trkpt lat="10.1591044291758" lon="-75.6815538593417">
        <ele>52.3778713</ele>
        <time>2019-09-10T15:40:41.900Z</time>
      </trkpt>
      <trkpt lat="10.1591026426815" lon="-75.681551717878">
        <ele>52.3778713</ele>
        <time>2019-09-10T15:40:42.000Z</time>
      </trkpt>
      <trkpt lat="10.1590991572903" lon="-75.6815474976848">
        <ele>52.3778713</ele>
        <time>2019-09-10T15:40:42.200Z</time>
      </trkpt>
      <trkpt lat="10.1590974531302" lon="-75.6815454079543">
        <ele>52.3778713</ele>
        <time>2019-09-10T15:40:42.300Z</time>
      </trkpt>
      <trkpt lat="10.1590957519924" lon="-75.6815433215658">
        <ele>52.3778713</ele>
        <time>2019-09-10T15:40:42.400Z</time>
      </trkpt>
      <trkpt lat="10.1590940359512" lon="-75.6815412280406">
        <ele>52.3778713</ele>
        <time>2019-09-10T15:40:42.500Z</time>
      </trkpt>
      <trkpt lat="10.1590923474241" lon="-75.6815391069777">
        <ele>52.3778713</ele>
        <time>2019-09-10T15:40:42.600Z</time>
      </trkpt>
      <trkpt lat="10.1590906443583" lon="-75.6815369807101">
        <ele>52.3778713</ele>
        <time>2019-09-10T15:40:42.700Z</time>
      </trkpt>
      <trkpt lat="10.1590889041379" lon="-75.681534823789">
        <ele>52.3778713</ele>
        <time>2019-09-10T15:40:42.800Z</time>
      </trkpt>
      <trkpt lat="10.1590871552151" lon="-75.6815326747533">
        <ele>52.3778713</ele>
        <time>2019-09-10T15:40:42.900Z</time>
      </trkpt>
      <trkpt lat="10.1590854626755" lon="-75.6815305398693">
        <ele>52.3778713</ele>
        <time>2019-09-10T15:40:43.000Z</time>
      </trkpt>
      <trkpt lat="10.1590837678952" lon="-75.6815284128184">
        <ele>52.3778713</ele>
        <time>2019-09-10T15:40:43.100Z</time>
      </trkpt>
      <trkpt lat="10.1590820397644" lon="-75.6815262295433">
        <ele>52.3778713</ele>
        <time>2019-09-10T15:40:43.200Z</time>
      </trkpt>
      <trkpt lat="10.1590785896518" lon="-75.6815218833069">
        <ele>52.3778713</ele>
        <time>2019-09-10T15:40:43.400Z</time>
      </trkpt>
      <trkpt lat="10.1590768749133" lon="-75.6815197268384">
        <ele>52.3778713</ele>
        <time>2019-09-10T15:40:43.500Z</time>
      </trkpt>
      <trkpt lat="10.1590751544948" lon="-75.6815175695692">
        <ele>52.3778713</ele>
        <time>2019-09-10T15:40:43.600Z</time>
      </trkpt>
      <trkpt lat="10.1590734256344" lon="-75.6815154213167">
        <ele>52.3778713</ele>
        <time>2019-09-10T15:40:43.700Z</time>
      </trkpt>
      <trkpt lat="10.1590717149084" lon="-75.6815132858061">
        <ele>52.3778713</ele>
        <time>2019-09-10T15:40:43.800Z</time>
      </trkpt>
      <trkpt lat="10.1590700005868" lon="-75.6815111578501">
        <ele>52.3778713</ele>
        <time>2019-09-10T15:40:43.900Z</time>
      </trkpt>
      <trkpt lat="10.1590682848582" lon="-75.681509029337">
        <ele>52.3778713</ele>
        <time>2019-09-10T15:40:44.000Z</time>
      </trkpt>
      <trkpt lat="10.1590665617299" lon="-75.6815069029998">
        <ele>52.3778713</ele>
        <time>2019-09-10T15:40:44.100Z</time>
      </trkpt>
      <trkpt lat="10.1590648321921" lon="-75.6815047598476">
        <ele>52.3778713</ele>
        <time>2019-09-10T15:40:44.200Z</time>
      </trkpt>
      <trkpt lat="10.1590631016642" lon="-75.6815026153898">
        <ele>52.3778713</ele>
        <time>2019-09-10T15:40:44.300Z</time>
      </trkpt>
      <trkpt lat="10.1590613349718" lon="-75.6815004512101">
        <ele>52.3778713</ele>
        <time>2019-09-10T15:40:44.400Z</time>
      </trkpt>
      <trkpt lat="10.1590595688006" lon="-75.6814982893977">
        <ele>52.3778713</ele>
        <time>2019-09-10T15:40:44.500Z</time>
      </trkpt>
      <trkpt lat="10.1590561462021" lon="-75.6814940121447">
        <ele>52.2778713</ele>
        <time>2019-09-10T15:40:44.700Z</time>
      </trkpt>
      <trkpt lat="10.1590544304735" lon="-75.6814918755027">
        <ele>52.2778713</ele>
        <time>2019-09-10T15:40:44.800Z</time>
      </trkpt>
      <trkpt lat="10.1590527054172" lon="-75.6814897367369">
        <ele>52.2778713</ele>
        <time>2019-09-10T15:40:44.900Z</time>
      </trkpt>
      <trkpt lat="10.1590509865099" lon="-75.681487569041">
        <ele>52.2778713</ele>
        <time>2019-09-10T15:40:45.000Z</time>
      </trkpt>
      <trkpt lat="10.1590492677068" lon="-75.681485411824">
        <ele>52.2778713</ele>
        <time>2019-09-10T15:40:45.100Z</time>
      </trkpt>
      <trkpt lat="10.1590475436927" lon="-75.6814832635193">
        <ele>52.2778713</ele>
        <time>2019-09-10T15:40:45.200Z</time>
      </trkpt>
      <trkpt lat="10.159045817542" lon="-75.6814811338922">
        <ele>52.2778713</ele>
        <time>2019-09-10T15:40:45.300Z</time>
      </trkpt>
      <trkpt lat="10.1590440850339" lon="-75.6814789570055">
        <ele>52.3778713</ele>
        <time>2019-09-10T15:40:45.400Z</time>
      </trkpt>
      <trkpt lat="10.1590406671775" lon="-75.6814747160285">
        <ele>52.2778713</ele>
        <time>2019-09-10T15:40:45.600Z</time>
      </trkpt>
      <trkpt lat="10.1590372600558" lon="-75.6814705246785">
        <ele>52.2778713</ele>
        <time>2019-09-10T15:40:45.800Z</time>
      </trkpt>
      <trkpt lat="10.1590355247859" lon="-75.6814683926493">
        <ele>52.2778713</ele>
        <time>2019-09-10T15:40:45.900Z</time>
      </trkpt>
      <trkpt lat="10.1590337755504" lon="-75.6814663063827">
        <ele>52.2778713</ele>
        <time>2019-09-10T15:40:46.000Z</time>
      </trkpt>
      <trkpt lat="10.1590320301711" lon="-75.681464226313">
        <ele>52.2778713</ele>
        <time>2019-09-10T15:40:46.100Z</time>
      </trkpt>
      <trkpt lat="10.1590303129313" lon="-75.6814621516916">
        <ele>52.2778713</ele>
        <time>2019-09-10T15:40:46.200Z</time>
      </trkpt>
      <trkpt lat="10.1590285957436" lon="-75.6814600716045">
        <ele>52.2778713</ele>
        <time>2019-09-10T15:40:46.300Z</time>
      </trkpt>
      <trkpt lat="10.1590269071124" lon="-75.6814579882797">
        <ele>52.2778713</ele>
        <time>2019-09-10T15:40:46.400Z</time>
      </trkpt>
      <trkpt lat="10.1590252072774" lon="-75.6814559014735">
        <ele>52.2778713</ele>
        <time>2019-09-10T15:40:46.500Z</time>
      </trkpt>
      <trkpt lat="10.1590235292766" lon="-75.681453808366">
        <ele>52.2778713</ele>
        <time>2019-09-10T15:40:46.600Z</time>
      </trkpt>
      <trkpt lat="10.1590218387693" lon="-75.6814517156763">
        <ele>52.2778713</ele>
        <time>2019-09-10T15:40:46.700Z</time>
      </trkpt>
      <trkpt lat="10.1590201337233" lon="-75.6814496164938">
        <ele>52.2778713</ele>
        <time>2019-09-10T15:40:46.800Z</time>
      </trkpt>
      <trkpt lat="10.1590184199228" lon="-75.6814475188258">
        <ele>52.2778713</ele>
        <time>2019-09-10T15:40:46.900Z</time>
      </trkpt>
      <trkpt lat="10.1590167251425" lon="-75.6814453809304">
        <ele>52.2778713</ele>
        <time>2019-09-10T15:40:47.000Z</time>
      </trkpt>
      <trkpt lat="10.1590150246822" lon="-75.6814432513729">
        <ele>52.2778713</ele>
        <time>2019-09-10T15:40:47.100Z</time>
      </trkpt>
      <trkpt lat="10.1590133409493" lon="-75.6814411219373">
        <ele>52.2778713</ele>
        <time>2019-09-10T15:40:47.200Z</time>
      </trkpt>
      <trkpt lat="10.1590099424257" lon="-75.6814368912304">
        <ele>52.2778713</ele>
        <time>2019-09-10T15:40:47.400Z</time>
      </trkpt>
      <trkpt lat="10.159008228521" lon="-75.6814347858685">
        <ele>52.2778713</ele>
        <time>2019-09-10T15:40:47.500Z</time>
      </trkpt>
      <trkpt lat="10.1590065304578" lon="-75.6814326822995">
        <ele>52.2778713</ele>
        <time>2019-09-10T15:40:47.600Z</time>
      </trkpt>
      <trkpt lat="10.1590048326551" lon="-75.6814305827341">
        <ele>52.2778713</ele>
        <time>2019-09-10T15:40:47.700Z</time>
      </trkpt>
      <trkpt lat="10.1590031121845" lon="-75.6814284509137">
        <ele>52.2778713</ele>
        <time>2019-09-10T15:40:47.800Z</time>
      </trkpt>
      <trkpt lat="10.1589996752557" lon="-75.6814242074823">
        <ele>52.2778713</ele>
        <time>2019-09-10T15:40:48.000Z</time>
      </trkpt>
      <trkpt lat="10.1589979616115" lon="-75.6814220979863">
        <ele>52.2778713</ele>
        <time>2019-09-10T15:40:48.100Z</time>
      </trkpt>
      <trkpt lat="10.158996259171" lon="-75.6814199952093">
        <ele>52.2778713</ele>
        <time>2019-09-10T15:40:48.200Z</time>
      </trkpt>
      <trkpt lat="10.1589945512589" lon="-75.6814178978023">
        <ele>52.2778713</ele>
        <time>2019-09-10T15:40:48.300Z</time>
      </trkpt>
      <trkpt lat="10.1589911156329" lon="-75.6814136397579">
        <ele>52.3778713</ele>
        <time>2019-09-10T15:40:48.500Z</time>
      </trkpt>
      <trkpt lat="10.1589894465951" lon="-75.6814115561894">
        <ele>52.3778713</ele>
        <time>2019-09-10T15:40:48.600Z</time>
      </trkpt>
      <trkpt lat="10.1589877720336" lon="-75.6814094807847">
        <ele>52.3778713</ele>
        <time>2019-09-10T15:40:48.700Z</time>
      </trkpt>
      <trkpt lat="10.1589861063829" lon="-75.6814074071468">
        <ele>52.3778713</ele>
        <time>2019-09-10T15:40:48.800Z</time>
      </trkpt>
      <trkpt lat="10.1589827021272" lon="-75.6814032477298">
        <ele>52.3778713</ele>
        <time>2019-09-10T15:40:49.000Z</time>
      </trkpt>
      <trkpt lat="10.1589809711824" lon="-75.6814011615241">
        <ele>52.3778713</ele>
        <time>2019-09-10T15:40:49.100Z</time>
      </trkpt>
      <trkpt lat="10.1589774718778" lon="-75.6813969572496">
        <ele>52.3778713</ele>
        <time>2019-09-10T15:40:49.300Z</time>
      </trkpt>
      <trkpt lat="10.1589757168581" lon="-75.6813948426272">
        <ele>52.3778713</ele>
        <time>2019-09-10T15:40:49.400Z</time>
      </trkpt>
      <trkpt lat="10.1589739646523" lon="-75.6813927350633">
        <ele>52.3778713</ele>
        <time>2019-09-10T15:40:49.500Z</time>
      </trkpt>
      <trkpt lat="10.1589722092157" lon="-75.6813906213896">
        <ele>52.3778713</ele>
        <time>2019-09-10T15:40:49.600Z</time>
      </trkpt>
      <trkpt lat="10.158970458417" lon="-75.6813885112756">
        <ele>52.3778713</ele>
        <time>2019-09-10T15:40:49.700Z</time>
      </trkpt>
      <trkpt lat="10.1589669811028" lon="-75.6813842850684">
        <ele>52.2778713</ele>
        <time>2019-09-10T15:40:49.900Z</time>
      </trkpt>
      <trkpt lat="10.1589652174328" lon="-75.6813821453105">
        <ele>52.2778713</ele>
        <time>2019-09-10T15:40:50.000Z</time>
      </trkpt>
      <trkpt lat="10.1589634553783" lon="-75.6813800160925">
        <ele>52.2778713</ele>
        <time>2019-09-10T15:40:50.100Z</time>
      </trkpt>
      <trkpt lat="10.1589599395025" lon="-75.6813757792235">
        <ele>52.2778713</ele>
        <time>2019-09-10T15:40:50.300Z</time>
      </trkpt>
      <trkpt lat="10.1589564426991" lon="-75.681371564087">
        <ele>52.2778713</ele>
        <time>2019-09-10T15:40:50.500Z</time>
      </trkpt>
      <trkpt lat="10.1589547009415" lon="-75.6813694576198">
        <ele>52.2778713</ele>
        <time>2019-09-10T15:40:50.600Z</time>
      </trkpt>
      <trkpt lat="10.158951183294" lon="-75.6813652815705">
        <ele>52.2778713</ele>
        <time>2019-09-10T15:40:50.800Z</time>
      </trkpt>
      <trkpt lat="10.1589494105569" lon="-75.6813632086202">
        <ele>52.2778713</ele>
        <time>2019-09-10T15:40:50.900Z</time>
      </trkpt>
      <trkpt lat="10.1589476436039" lon="-75.6813611358352">
        <ele>52.2778713</ele>
        <time>2019-09-10T15:40:51.000Z</time>
      </trkpt>
      <trkpt lat="10.1589458802727" lon="-75.681359052876">
        <ele>52.2778713</ele>
        <time>2019-09-10T15:40:51.100Z</time>
      </trkpt>
      <trkpt lat="10.1589424199204" lon="-75.6813550034095">
        <ele>52.2778713</ele>
        <time>2019-09-10T15:40:51.300Z</time>
      </trkpt>
      <trkpt lat="10.1589407060677" lon="-75.6813529588759">
        <ele>52.2778713</ele>
        <time>2019-09-10T15:40:51.400Z</time>
      </trkpt>
      <trkpt lat="10.1589389836169" lon="-75.6813508889457">
        <ele>52.2778713</ele>
        <time>2019-09-10T15:40:51.500Z</time>
      </trkpt>
      <trkpt lat="10.1589372679665" lon="-75.6813488309783">
        <ele>52.2778713</ele>
        <time>2019-09-10T15:40:51.600Z</time>
      </trkpt>
      <trkpt lat="10.1589355429362" lon="-75.6813467568008">
        <ele>52.2778713</ele>
        <time>2019-09-10T15:40:51.700Z</time>
      </trkpt>
      <trkpt lat="10.1589338172025" lon="-75.6813446645115">
        <ele>52.2778713</ele>
        <time>2019-09-10T15:40:51.800Z</time>
      </trkpt>
      <trkpt lat="10.1589320834437" lon="-75.6813425611209">
        <ele>52.2778713</ele>
        <time>2019-09-10T15:40:51.900Z</time>
      </trkpt>
      <trkpt lat="10.1589303499716" lon="-75.6813404519599">
        <ele>52.2778713</ele>
        <time>2019-09-10T15:40:52.000Z</time>
      </trkpt>
      <trkpt lat="10.1589268523345" lon="-75.6813362006607">
        <ele>52.2778713</ele>
        <time>2019-09-10T15:40:52.200Z</time>
      </trkpt>
      <trkpt lat="10.1589250920256" lon="-75.6813340649107">
        <ele>52.2778713</ele>
        <time>2019-09-10T15:40:52.300Z</time>
      </trkpt>
      <trkpt lat="10.1589233957602" lon="-75.6813319405535">
        <ele>52.2778713</ele>
        <time>2019-09-10T15:40:52.400Z</time>
      </trkpt>
      <trkpt lat="10.1589216987391" lon="-75.6813298241165">
        <ele>52.2778713</ele>
        <time>2019-09-10T15:40:52.500Z</time>
      </trkpt>
      <trkpt lat="10.1589183313514" lon="-75.6813256165042">
        <ele>52.2778713</ele>
        <time>2019-09-10T15:40:52.700Z</time>
      </trkpt>
      <trkpt lat="10.1589166018136" lon="-75.6813234897579">
        <ele>52.2778713</ele>
        <time>2019-09-10T15:40:52.800Z</time>
      </trkpt>
      <trkpt lat="10.1589148556266" lon="-75.6813213649003">
        <ele>52.2778713</ele>
        <time>2019-09-10T15:40:52.900Z</time>
      </trkpt>
      <trkpt lat="10.1589114080934" lon="-75.6813171471833">
        <ele>52.2778713</ele>
        <time>2019-09-10T15:40:53.100Z</time>
      </trkpt>
      <trkpt lat="10.1589097108379" lon="-75.6813150917051">
        <ele>52.2778713</ele>
        <time>2019-09-10T15:40:53.200Z</time>
      </trkpt>
      <trkpt lat="10.1589080045673" lon="-75.6813130438251">
        <ele>52.2778713</ele>
        <time>2019-09-10T15:40:53.300Z</time>
      </trkpt>
      <trkpt lat="10.1589062630181" lon="-75.6813109940781">
        <ele>52.2778713</ele>
        <time>2019-09-10T15:40:53.400Z</time>
      </trkpt>
      <trkpt lat="10.1589045166227" lon="-75.6813089359237">
        <ele>52.2778713</ele>
        <time>2019-09-10T15:40:53.500Z</time>
      </trkpt>
      <trkpt lat="10.1589027442503" lon="-75.6813068616221">
        <ele>52.2778713</ele>
        <time>2019-09-10T15:40:53.600Z</time>
      </trkpt>
      <trkpt lat="10.1589009800071" lon="-75.6813047927189">
        <ele>52.2778713</ele>
        <time>2019-09-10T15:40:53.700Z</time>
      </trkpt>
      <trkpt lat="10.158899246561" lon="-75.6813027747243">
        <ele>52.2778713</ele>
        <time>2019-09-10T15:40:53.800Z</time>
      </trkpt>
      <trkpt lat="10.1588975223645" lon="-75.6813007600044">
        <ele>52.2778713</ele>
        <time>2019-09-10T15:40:53.900Z</time>
      </trkpt>
      <trkpt lat="10.1588958356613" lon="-75.6812987803136">
        <ele>52.2778713</ele>
        <time>2019-09-10T15:40:54.000Z</time>
      </trkpt>
      <trkpt lat="10.1588941455449" lon="-75.6812967847151">
        <ele>52.2778713</ele>
        <time>2019-09-10T15:40:54.100Z</time>
      </trkpt>
      <trkpt lat="10.1588924455535" lon="-75.6812948125963">
        <ele>52.2778713</ele>
        <time>2019-09-10T15:40:54.200Z</time>
      </trkpt>
      <trkpt lat="10.1588890445287" lon="-75.6812908543147">
        <ele>52.2778713</ele>
        <time>2019-09-10T15:40:54.400Z</time>
      </trkpt>
      <trkpt lat="10.1588873483675" lon="-75.6812888614121">
        <ele>52.1778713</ele>
        <time>2019-09-10T15:40:54.500Z</time>
      </trkpt>
      <trkpt lat="10.1588839738928" lon="-75.68128486597">
        <ele>52.1778713</ele>
        <time>2019-09-10T15:40:54.700Z</time>
      </trkpt>
      <trkpt lat="10.1588822875544" lon="-75.6812828922144">
        <ele>52.1778713</ele>
        <time>2019-09-10T15:40:54.800Z</time>
      </trkpt>
      <trkpt lat="10.1588788875197" lon="-75.6812788718937">
        <ele>52.1778713</ele>
        <time>2019-09-10T15:40:55.000Z</time>
      </trkpt>
      <trkpt lat="10.1588771779661" lon="-75.6812768272607">
        <ele>52.1778713</ele>
        <time>2019-09-10T15:40:55.100Z</time>
      </trkpt>
      <trkpt lat="10.1588737811362" lon="-75.6812726353099">
        <ele>52.2778713</ele>
        <time>2019-09-10T15:40:55.300Z</time>
      </trkpt>
      <trkpt lat="10.1588720642611" lon="-75.6812705372567">
        <ele>52.2778713</ele>
        <time>2019-09-10T15:40:55.400Z</time>
      </trkpt>
      <trkpt lat="10.1588703374852" lon="-75.6812684475577">
        <ele>52.1778713</ele>
        <time>2019-09-10T15:40:55.500Z</time>
      </trkpt>
      <trkpt lat="10.1588686251177" lon="-75.6812663798621">
        <ele>52.1778713</ele>
        <time>2019-09-10T15:40:55.600Z</time>
      </trkpt>
      <trkpt lat="10.1588669080863" lon="-75.6812643159884">
        <ele>52.1778713</ele>
        <time>2019-09-10T15:40:55.700Z</time>
      </trkpt>
      <trkpt lat="10.1588651894135" lon="-75.681262205844">
        <ele>52.2778713</ele>
        <time>2019-09-10T15:40:55.800Z</time>
      </trkpt>
      <trkpt lat="10.1588617124641" lon="-75.6812579321148">
        <ele>52.2778713</ele>
        <time>2019-09-10T15:40:56.000Z</time>
      </trkpt>
      <trkpt lat="10.1588582057598" lon="-75.6812536426989">
        <ele>52.2778713</ele>
        <time>2019-09-10T15:40:56.200Z</time>
      </trkpt>
      <trkpt lat="10.1588564568891" lon="-75.6812515180306">
        <ele>52.2778713</ele>
        <time>2019-09-10T15:40:56.300Z</time>
      </trkpt>
      <trkpt lat="10.1588547320152" lon="-75.6812494657009">
        <ele>52.2778713</ele>
        <time>2019-09-10T15:40:56.400Z</time>
      </trkpt>
      <trkpt lat="10.1588530064638" lon="-75.6812474198422">
        <ele>52.2778713</ele>
        <time>2019-09-10T15:40:56.500Z</time>
      </trkpt>
      <trkpt lat="10.1588513082182" lon="-75.6812453675539">
        <ele>52.2778713</ele>
        <time>2019-09-10T15:40:56.600Z</time>
      </trkpt>
      <trkpt lat="10.1588496011399" lon="-75.6812433008004">
        <ele>52.2778713</ele>
        <time>2019-09-10T15:40:56.700Z</time>
      </trkpt>
      <trkpt lat="10.158847919335" lon="-75.6812412823641">
        <ele>52.2778713</ele>
        <time>2019-09-10T15:40:56.800Z</time>
      </trkpt>
      <trkpt lat="10.1588445121872" lon="-75.6812371915911">
        <ele>52.2778713</ele>
        <time>2019-09-10T15:40:57.000Z</time>
      </trkpt>
      <trkpt lat="10.1588427897364" lon="-75.6812351111428">
        <ele>52.2778713</ele>
        <time>2019-09-10T15:40:57.100Z</time>
      </trkpt>
      <trkpt lat="10.1588410578537" lon="-75.681233002034">
        <ele>52.2778713</ele>
        <time>2019-09-10T15:40:57.200Z</time>
      </trkpt>
      <trkpt lat="10.1588393225838" lon="-75.6812308857406">
        <ele>52.1778713</ele>
        <time>2019-09-10T15:40:57.300Z</time>
      </trkpt>
      <trkpt lat="10.1588375868709" lon="-75.6812287595383">
        <ele>52.1778713</ele>
        <time>2019-09-10T15:40:57.400Z</time>
      </trkpt>
      <trkpt lat="10.158835850689" lon="-75.6812266355858">
        <ele>52.1778713</ele>
        <time>2019-09-10T15:40:57.500Z</time>
      </trkpt>
      <trkpt lat="10.1588341391553" lon="-75.6812245178215">
        <ele>52.1778713</ele>
        <time>2019-09-10T15:40:57.600Z</time>
      </trkpt>
      <trkpt lat="10.1588324232964" lon="-75.6812224039433">
        <ele>52.1778713</ele>
        <time>2019-09-10T15:40:57.700Z</time>
      </trkpt>
      <trkpt lat="10.1588307050405" lon="-75.6812202637589">
        <ele>52.1778713</ele>
        <time>2019-09-10T15:40:57.800Z</time>
      </trkpt>
      <trkpt lat="10.1588289789159" lon="-75.6812181227608">
        <ele>52.1778713</ele>
        <time>2019-09-10T15:40:57.900Z</time>
      </trkpt>
      <trkpt lat="10.1588255686676" lon="-75.6812139314935">
        <ele>52.1778713</ele>
        <time>2019-09-10T15:40:58.100Z</time>
      </trkpt>
      <trkpt lat="10.1588238828242" lon="-75.6812118478989">
        <ele>52.1778713</ele>
        <time>2019-09-10T15:40:58.200Z</time>
      </trkpt>
      <trkpt lat="10.1588204775003" lon="-75.6812076350906">
        <ele>52.1778713</ele>
        <time>2019-09-10T15:40:58.400Z</time>
      </trkpt>
      <trkpt lat="10.1588187550234" lon="-75.6812055122957">
        <ele>52.1778713</ele>
        <time>2019-09-10T15:40:58.500Z</time>
      </trkpt>
      <trkpt lat="10.1588170211344" lon="-75.6812033993095">
        <ele>52.1778713</ele>
        <time>2019-09-10T15:40:58.600Z</time>
      </trkpt>
      <trkpt lat="10.1588152826597" lon="-75.6812012906229">
        <ele>52.1778713</ele>
        <time>2019-09-10T15:40:58.700Z</time>
      </trkpt>
      <trkpt lat="10.1588135322778" lon="-75.681199196619">
        <ele>52.1778713</ele>
        <time>2019-09-10T15:40:58.800Z</time>
      </trkpt>
      <trkpt lat="10.1588117809319" lon="-75.6811971046865">
        <ele>52.2778713</ele>
        <time>2019-09-10T15:40:58.900Z</time>
      </trkpt>
      <trkpt lat="10.1588099342764" lon="-75.6811949147533">
        <ele>52.2778713</ele>
        <time>2019-09-10T15:40:59.000Z</time>
      </trkpt>
      <trkpt lat="10.1588081027589" lon="-75.6811927353251">
        <ele>52.2778713</ele>
        <time>2019-09-10T15:40:59.100Z</time>
      </trkpt>
      <trkpt lat="10.1588063160562" lon="-75.6811906050626">
        <ele>52.2778713</ele>
        <time>2019-09-10T15:40:59.200Z</time>
      </trkpt>
      <trkpt lat="10.1588045485822" lon="-75.6811884942524">
        <ele>52.2778713</ele>
        <time>2019-09-10T15:40:59.300Z</time>
      </trkpt>
      <trkpt lat="10.1588027708946" lon="-75.6811863991866">
        <ele>52.2778713</ele>
        <time>2019-09-10T15:40:59.400Z</time>
      </trkpt>
      <trkpt lat="10.1588009985222" lon="-75.6811843040425">
        <ele>52.2778713</ele>
        <time>2019-09-10T15:40:59.500Z</time>
      </trkpt>
      <trkpt lat="10.1587992119237" lon="-75.6811822492389">
        <ele>52.2778713</ele>
        <time>2019-09-10T15:40:59.600Z</time>
      </trkpt>
      <trkpt lat="10.1587974348614" lon="-75.6811801876118">
        <ele>52.2778713</ele>
        <time>2019-09-10T15:40:59.700Z</time>
      </trkpt>
      <trkpt lat="10.15879567807" lon="-75.6811781226686">
        <ele>52.2778713</ele>
        <time>2019-09-10T15:40:59.800Z</time>
      </trkpt>
      <trkpt lat="10.1587939284958" lon="-75.6811760435215">
        <ele>52.2778713</ele>
        <time>2019-09-10T15:40:59.900Z</time>
      </trkpt>
      <trkpt lat="10.1587921310844" lon="-75.6811739544872">
        <ele>52.2778713</ele>
        <time>2019-09-10T15:41:00.000Z</time>
      </trkpt>
      <trkpt lat="10.1587903403692" lon="-75.6811718602222">
        <ele>52.2778713</ele>
        <time>2019-09-10T15:41:00.100Z</time>
      </trkpt>
      <trkpt lat="10.1587885927753" lon="-75.6811698269422">
        <ele>52.2778713</ele>
        <time>2019-09-10T15:41:00.200Z</time>
      </trkpt>
      <trkpt lat="10.1587868514345" lon="-75.6811677852285">
        <ele>52.2778713</ele>
        <time>2019-09-10T15:41:00.300Z</time>
      </trkpt>
      <trkpt lat="10.1587851218706" lon="-75.681165732183">
        <ele>52.2778713</ele>
        <time>2019-09-10T15:41:00.400Z</time>
      </trkpt>
      <trkpt lat="10.1587833858712" lon="-75.6811636644721">
        <ele>52.2778713</ele>
        <time>2019-09-10T15:41:00.500Z</time>
      </trkpt>
      <trkpt lat="10.1587816595121" lon="-75.6811616176234">
        <ele>52.2778713</ele>
        <time>2019-09-10T15:41:00.600Z</time>
      </trkpt>
      <trkpt lat="10.1587799275772" lon="-75.6811595619408">
        <ele>52.2778713</ele>
        <time>2019-09-10T15:41:00.700Z</time>
      </trkpt>
      <trkpt lat="10.1587782003583" lon="-75.6811574889208">
        <ele>52.2778713</ele>
        <time>2019-09-10T15:41:00.800Z</time>
      </trkpt>
      <trkpt lat="10.158774738078" lon="-75.6811533119837">
        <ele>52.2778713</ele>
        <time>2019-09-10T15:41:01.000Z</time>
      </trkpt>
      <trkpt lat="10.1587730044495" lon="-75.6811512181191">
        <ele>52.2778713</ele>
        <time>2019-09-10T15:41:01.100Z</time>
      </trkpt>
      <trkpt lat="10.1587713003675" lon="-75.6811491144456">
        <ele>52.2778713</ele>
        <time>2019-09-10T15:41:01.200Z</time>
      </trkpt>
      <trkpt lat="10.1587695932371" lon="-75.6811470132527">
        <ele>52.2778713</ele>
        <time>2019-09-10T15:41:01.300Z</time>
      </trkpt>
      <trkpt lat="10.1587678545279" lon="-75.6811448679507">
        <ele>52.2778713</ele>
        <time>2019-09-10T15:41:01.400Z</time>
      </trkpt>
      <trkpt lat="10.1587661049538" lon="-75.6811427302294">
        <ele>52.2778713</ele>
        <time>2019-09-10T15:41:01.500Z</time>
      </trkpt>
      <trkpt lat="10.1587643521487" lon="-75.6811405586343">
        <ele>52.2778713</ele>
        <time>2019-09-10T15:41:01.600Z</time>
      </trkpt>
      <trkpt lat="10.1587626059617" lon="-75.6811384069092">
        <ele>52.2778713</ele>
        <time>2019-09-10T15:41:01.700Z</time>
      </trkpt>
      <trkpt lat="10.1587608645168" lon="-75.6811362651756">
        <ele>52.2778713</ele>
        <time>2019-09-10T15:41:01.800Z</time>
      </trkpt>
      <trkpt lat="10.1587573886356" lon="-75.6811320298645">
        <ele>52.2778713</ele>
        <time>2019-09-10T15:41:02.000Z</time>
      </trkpt>
      <trkpt lat="10.1587556539389" lon="-75.6811299267133">
        <ele>52.2778713</ele>
        <time>2019-09-10T15:41:02.100Z</time>
      </trkpt>
      <trkpt lat="10.1587539171317" lon="-75.6811277986876">
        <ele>52.2778713</ele>
        <time>2019-09-10T15:41:02.200Z</time>
      </trkpt>
      <trkpt lat="10.1587504426055" lon="-75.6811235564574">
        <ele>52.2778713</ele>
        <time>2019-09-10T15:41:02.400Z</time>
      </trkpt>
      <trkpt lat="10.1587487057722" lon="-75.681121441748">
        <ele>52.2778713</ele>
        <time>2019-09-10T15:41:02.500Z</time>
      </trkpt>
      <trkpt lat="10.1587469715445" lon="-75.6811192936521">
        <ele>52.2778713</ele>
        <time>2019-09-10T15:41:02.600Z</time>
      </trkpt>
      <trkpt lat="10.15874523789" lon="-75.6811171541205">
        <ele>52.2778713</ele>
        <time>2019-09-10T15:41:02.700Z</time>
      </trkpt>
      <trkpt lat="10.1587435000406" lon="-75.6811150232053">
        <ele>52.2778713</ele>
        <time>2019-09-10T15:41:02.800Z</time>
      </trkpt>
      <trkpt lat="10.1587417637285" lon="-75.681112900071">
        <ele>52.2778713</ele>
        <time>2019-09-10T15:41:02.900Z</time>
      </trkpt>
      <trkpt lat="10.158740053237" lon="-75.6811108217942">
        <ele>52.2778713</ele>
        <time>2019-09-10T15:41:03.000Z</time>
      </trkpt>
      <trkpt lat="10.1587383409216" lon="-75.681108743587">
        <ele>52.2778713</ele>
        <time>2019-09-10T15:41:03.100Z</time>
      </trkpt>
      <trkpt lat="10.1587366230825" lon="-75.6811066735088">
        <ele>52.2778713</ele>
        <time>2019-09-10T15:41:03.200Z</time>
      </trkpt>
      <trkpt lat="10.1587348985082" lon="-75.6811045950754">
        <ele>52.2778713</ele>
        <time>2019-09-10T15:41:03.300Z</time>
      </trkpt>
      <trkpt lat="10.1587331622482" lon="-75.6811025166941">
        <ele>52.2778713</ele>
        <time>2019-09-10T15:41:03.400Z</time>
      </trkpt>
      <trkpt lat="10.1587314240862" lon="-75.6811004309498">
        <ele>52.2778713</ele>
        <time>2019-09-10T15:41:03.500Z</time>
      </trkpt>
      <trkpt lat="10.158729682081" lon="-75.6810983393567">
        <ele>52.2778713</ele>
        <time>2019-09-10T15:41:03.600Z</time>
      </trkpt>
      <trkpt lat="10.1587279443098" lon="-75.6810962403657">
        <ele>52.2778713</ele>
        <time>2019-09-10T15:41:03.700Z</time>
      </trkpt>
      <trkpt lat="10.1587262046235" lon="-75.6810941007122">
        <ele>52.2778713</ele>
        <time>2019-09-10T15:41:03.800Z</time>
      </trkpt>
      <trkpt lat="10.1587244673604" lon="-75.68109195615">
        <ele>52.2778713</ele>
        <time>2019-09-10T15:41:03.900Z</time>
      </trkpt>
      <trkpt lat="10.158722698792" lon="-75.6810897712909">
        <ele>52.2778713</ele>
        <time>2019-09-10T15:41:04.000Z</time>
      </trkpt>
      <trkpt lat="10.1587209371283" lon="-75.6810875958489">
        <ele>52.2778713</ele>
        <time>2019-09-10T15:41:04.100Z</time>
      </trkpt>
      <trkpt lat="10.1587191797246" lon="-75.6810854767878">
        <ele>52.2778713</ele>
        <time>2019-09-10T15:41:04.200Z</time>
      </trkpt>
      <trkpt lat="10.1587174351269" lon="-75.6810833684667">
        <ele>52.2778713</ele>
        <time>2019-09-10T15:41:04.300Z</time>
      </trkpt>
      <trkpt lat="10.1587156896173" lon="-75.6810812569776">
        <ele>52.2778713</ele>
        <time>2019-09-10T15:41:04.400Z</time>
      </trkpt>
      <trkpt lat="10.1587139487977" lon="-75.6810791445136">
        <ele>52.2778713</ele>
        <time>2019-09-10T15:41:04.500Z</time>
      </trkpt>
      <trkpt lat="10.1587122024283" lon="-75.6810770562105">
        <ele>52.2778713</ele>
        <time>2019-09-10T15:41:04.600Z</time>
      </trkpt>
      <trkpt lat="10.1587104555899" lon="-75.6810749671414">
        <ele>52.2778713</ele>
        <time>2019-09-10T15:41:04.700Z</time>
      </trkpt>
      <trkpt lat="10.1587087364611" lon="-75.6810728907619">
        <ele>52.2778713</ele>
        <time>2019-09-10T15:41:04.800Z</time>
      </trkpt>
      <trkpt lat="10.1587070178925" lon="-75.6810708115277">
        <ele>52.2778713</ele>
        <time>2019-09-10T15:41:04.900Z</time>
      </trkpt>
      <trkpt lat="10.1587052703115" lon="-75.6810687367497">
        <ele>52.2778713</ele>
        <time>2019-09-10T15:41:05.000Z</time>
      </trkpt>
      <trkpt lat="10.1587035199818" lon="-75.6810666620761">
        <ele>52.2778713</ele>
        <time>2019-09-10T15:41:05.100Z</time>
      </trkpt>
      <trkpt lat="10.1587017345818" lon="-75.6810645797261">
        <ele>52.2778713</ele>
        <time>2019-09-10T15:41:05.200Z</time>
      </trkpt>
      <trkpt lat="10.1586999581448" lon="-75.6810624924499">
        <ele>52.2778713</ele>
        <time>2019-09-10T15:41:05.300Z</time>
      </trkpt>
      <trkpt lat="10.1586981867625" lon="-75.6810604203874">
        <ele>52.2778713</ele>
        <time>2019-09-10T15:41:05.400Z</time>
      </trkpt>
      <trkpt lat="10.158694669532" lon="-75.6810562506045">
        <ele>52.2778713</ele>
        <time>2019-09-10T15:41:05.600Z</time>
      </trkpt>
      <trkpt lat="10.1586929161146" lon="-75.6810541471052">
        <ele>52.2778713</ele>
        <time>2019-09-10T15:41:05.700Z</time>
      </trkpt>
      <trkpt lat="10.1586912005684" lon="-75.6810520649466">
        <ele>52.2778713</ele>
        <time>2019-09-10T15:41:05.800Z</time>
      </trkpt>
      <trkpt lat="10.1586894868461" lon="-75.681049974015">
        <ele>52.2778713</ele>
        <time>2019-09-10T15:41:05.900Z</time>
      </trkpt>
      <trkpt lat="10.1586877498305" lon="-75.6810478125159">
        <ele>52.2778713</ele>
        <time>2019-09-10T15:41:06.000Z</time>
      </trkpt>
      <trkpt lat="10.1586860038389" lon="-75.6810456540282">
        <ele>52.2778713</ele>
        <time>2019-09-10T15:41:06.100Z</time>
      </trkpt>
      <trkpt lat="10.1586825122726" lon="-75.6810413079137">
        <ele>52.2778713</ele>
        <time>2019-09-10T15:41:06.300Z</time>
      </trkpt>
      <trkpt lat="10.1586807697333" lon="-75.6810391648137">
        <ele>52.2778713</ele>
        <time>2019-09-10T15:41:06.400Z</time>
      </trkpt>
      <trkpt lat="10.1586790269334" lon="-75.681037035935">
        <ele>52.2778713</ele>
        <time>2019-09-10T15:41:06.500Z</time>
      </trkpt>
      <trkpt lat="10.1586772525157" lon="-75.6810348595705">
        <ele>52.2778713</ele>
        <time>2019-09-10T15:41:06.600Z</time>
      </trkpt>
      <trkpt lat="10.1586754795571" lon="-75.6810326973229">
        <ele>52.2778713</ele>
        <time>2019-09-10T15:41:06.700Z</time>
      </trkpt>
      <trkpt lat="10.158673778745" lon="-75.6810305980186">
        <ele>52.2778713</ele>
        <time>2019-09-10T15:41:06.800Z</time>
      </trkpt>
      <trkpt lat="10.1586720759398" lon="-75.6810285087232">
        <ele>52.2778713</ele>
        <time>2019-09-10T15:41:06.900Z</time>
      </trkpt>
      <trkpt lat="10.1586703060296" lon="-75.6810264063379">
        <ele>52.2778713</ele>
        <time>2019-09-10T15:41:07.000Z</time>
      </trkpt>
      <trkpt lat="10.1586685296447" lon="-75.6810243051188">
        <ele>52.2778713</ele>
        <time>2019-09-10T15:41:07.100Z</time>
      </trkpt>
      <trkpt lat="10.1586667602686" lon="-75.6810222132646">
        <ele>52.2778713</ele>
        <time>2019-09-10T15:41:07.200Z</time>
      </trkpt>
      <trkpt lat="10.1586650015231" lon="-75.6810201249441">
        <ele>52.2778713</ele>
        <time>2019-09-10T15:41:07.300Z</time>
      </trkpt>
      <trkpt lat="10.1586632598436" lon="-75.6810180731431">
        <ele>52.2778713</ele>
        <time>2019-09-10T15:41:07.400Z</time>
      </trkpt>
      <trkpt lat="10.1586615195059" lon="-75.6810160191837">
        <ele>52.2778713</ele>
        <time>2019-09-10T15:41:07.500Z</time>
      </trkpt>
      <trkpt lat="10.1586598198924" lon="-75.6810140256262">
        <ele>52.2778713</ele>
        <time>2019-09-10T15:41:07.600Z</time>
      </trkpt>
      <trkpt lat="10.1586581171523" lon="-75.6810120171335">
        <ele>52.2778713</ele>
        <time>2019-09-10T15:41:07.700Z</time>
      </trkpt>
      <trkpt lat="10.1586564205351" lon="-75.6810099805636">
        <ele>52.2778713</ele>
        <time>2019-09-10T15:41:07.800Z</time>
      </trkpt>
      <trkpt lat="10.1586547205178" lon="-75.6810079243413">
        <ele>52.2778713</ele>
        <time>2019-09-10T15:41:07.900Z</time>
      </trkpt>
      <trkpt lat="10.1586530214644" lon="-75.6810058437146">
        <ele>52.2778713</ele>
        <time>2019-09-10T15:41:08.000Z</time>
      </trkpt>
      <trkpt lat="10.1586513176821" lon="-75.6810037606683">
        <ele>52.2778713</ele>
        <time>2019-09-10T15:41:08.100Z</time>
      </trkpt>
      <trkpt lat="10.1586495910494" lon="-75.6810016850199">
        <ele>52.2778713</ele>
        <time>2019-09-10T15:41:08.200Z</time>
      </trkpt>
      <trkpt lat="10.1586478642084" lon="-75.6809996110078">
        <ele>52.2778713</ele>
        <time>2019-09-10T15:41:08.300Z</time>
      </trkpt>
      <trkpt lat="10.1586461478935" lon="-75.6809975522615">
        <ele>52.2778713</ele>
        <time>2019-09-10T15:41:08.400Z</time>
      </trkpt>
      <trkpt lat="10.1586444282957" lon="-75.6809954856299">
        <ele>52.2778713</ele>
        <time>2019-09-10T15:41:08.500Z</time>
      </trkpt>
      <trkpt lat="10.1586426898992" lon="-75.6809933954294">
        <ele>52.2778713</ele>
        <time>2019-09-10T15:41:08.600Z</time>
      </trkpt>
      <trkpt lat="10.1586391600319" lon="-75.6809891682734">
        <ele>52.2778713</ele>
        <time>2019-09-10T15:41:08.800Z</time>
      </trkpt>
      <trkpt lat="10.1586373766903" lon="-75.680987044791">
        <ele>52.2778713</ele>
        <time>2019-09-10T15:41:08.900Z</time>
      </trkpt>
      <trkpt lat="10.1586356252011" lon="-75.6809849560352">
        <ele>52.3778713</ele>
        <time>2019-09-10T15:41:09.000Z</time>
      </trkpt>
      <trkpt lat="10.1586338837691" lon="-75.6809828696816">
        <ele>52.3778713</ele>
        <time>2019-09-10T15:41:09.100Z</time>
      </trkpt>
      <trkpt lat="10.1586320923765" lon="-75.6809807140486">
        <ele>52.3778713</ele>
        <time>2019-09-10T15:41:09.200Z</time>
      </trkpt>
      <trkpt lat="10.1586303172944" lon="-75.68097856322">
        <ele>52.3778713</ele>
        <time>2019-09-10T15:41:09.300Z</time>
      </trkpt>
      <trkpt lat="10.1586285895414" lon="-75.6809764240191">
        <ele>52.3778713</ele>
        <time>2019-09-10T15:41:09.400Z</time>
      </trkpt>
      <trkpt lat="10.1586268716437" lon="-75.6809743027125">
        <ele>52.3778713</ele>
        <time>2019-09-10T15:41:09.500Z</time>
      </trkpt>
      <trkpt lat="10.1586251903599" lon="-75.6809722013193">
        <ele>52.3778713</ele>
        <time>2019-09-10T15:41:09.600Z</time>
      </trkpt>
      <trkpt lat="10.158623503774" lon="-75.68097010762">
        <ele>52.3778713</ele>
        <time>2019-09-10T15:41:09.700Z</time>
      </trkpt>
      <trkpt lat="10.1586201045144" lon="-75.6809659388816">
        <ele>52.3778713</ele>
        <time>2019-09-10T15:41:09.900Z</time>
      </trkpt>
      <trkpt lat="10.1586183902709" lon="-75.6809638800309">
        <ele>52.3778713</ele>
        <time>2019-09-10T15:41:10.000Z</time>
      </trkpt>
      <trkpt lat="10.1586166815121" lon="-75.6809618097612">
        <ele>52.3778713</ele>
        <time>2019-09-10T15:41:10.100Z</time>
      </trkpt>
      <trkpt lat="10.1586149861911" lon="-75.6809597333991">
        <ele>52.3778713</ele>
        <time>2019-09-10T15:41:10.200Z</time>
      </trkpt>
      <trkpt lat="10.1586132927006" lon="-75.6809576634428">
        <ele>52.3778713</ele>
        <time>2019-09-10T15:41:10.300Z</time>
      </trkpt>
      <trkpt lat="10.1586116094301" lon="-75.6809556260722">
        <ele>52.3778713</ele>
        <time>2019-09-10T15:41:10.400Z</time>
      </trkpt>
      <trkpt lat="10.1586099251109" lon="-75.6809535803114">
        <ele>52.3778713</ele>
        <time>2019-09-10T15:41:10.500Z</time>
      </trkpt>
      <trkpt lat="10.1586082447456" lon="-75.6809515386239">
        <ele>52.3778713</ele>
        <time>2019-09-10T15:41:10.600Z</time>
      </trkpt>
      <trkpt lat="10.1586065594559" lon="-75.6809494786591">
        <ele>52.3778713</ele>
        <time>2019-09-10T15:41:10.700Z</time>
      </trkpt>
      <trkpt lat="10.1586048725768" lon="-75.6809474232898">
        <ele>52.3778713</ele>
        <time>2019-09-10T15:41:10.800Z</time>
      </trkpt>
      <trkpt lat="10.1586031772038" lon="-75.6809453594955">
        <ele>52.3778713</ele>
        <time>2019-09-10T15:41:10.900Z</time>
      </trkpt>
      <trkpt lat="10.1586014425331" lon="-75.6809433089304">
        <ele>52.3778713</ele>
        <time>2019-09-10T15:41:11.000Z</time>
      </trkpt>
      <trkpt lat="10.1585997044558" lon="-75.6809412475383">
        <ele>52.3778713</ele>
        <time>2019-09-10T15:41:11.100Z</time>
      </trkpt>
      <trkpt lat="10.1585979717392" lon="-75.6809392030308">
        <ele>52.3778713</ele>
        <time>2019-09-10T15:41:11.200Z</time>
      </trkpt>
      <trkpt lat="10.1585962405795" lon="-75.6809371483925">
        <ele>52.3778713</ele>
        <time>2019-09-10T15:41:11.300Z</time>
      </trkpt>
      <trkpt lat="10.1585945293585" lon="-75.6809350824746">
        <ele>52.3778713</ele>
        <time>2019-09-10T15:41:11.400Z</time>
      </trkpt>
      <trkpt lat="10.1585928136364" lon="-75.6809330192373">
        <ele>52.3778713</ele>
        <time>2019-09-10T15:41:11.500Z</time>
      </trkpt>
      <trkpt lat="10.158591083343" lon="-75.6809309141191">
        <ele>52.3778713</ele>
        <time>2019-09-10T15:41:11.600Z</time>
      </trkpt>
      <trkpt lat="10.1585893451223" lon="-75.6809288241101">
        <ele>52.3778713</ele>
        <time>2019-09-10T15:41:11.700Z</time>
      </trkpt>
      <trkpt lat="10.1585875632919" lon="-75.6809267137698">
        <ele>52.3778713</ele>
        <time>2019-09-10T15:41:11.800Z</time>
      </trkpt>
      <trkpt lat="10.1585857873304" lon="-75.6809246250489">
        <ele>52.3778713</ele>
        <time>2019-09-10T15:41:11.900Z</time>
      </trkpt>
      <trkpt lat="10.1585840516436" lon="-75.680922548652">
        <ele>52.3778713</ele>
        <time>2019-09-10T15:41:12.000Z</time>
      </trkpt>
      <trkpt lat="10.1585806034004" lon="-75.6809184020203">
        <ele>52.3778713</ele>
        <time>2019-09-10T15:41:12.200Z</time>
      </trkpt>
      <trkpt lat="10.1585788868772" lon="-75.6809163168155">
        <ele>52.3778713</ele>
        <time>2019-09-10T15:41:12.300Z</time>
      </trkpt>
      <trkpt lat="10.1585771712723" lon="-75.6809141964837">
        <ele>52.3778713</ele>
        <time>2019-09-10T15:41:12.400Z</time>
      </trkpt>
      <trkpt lat="10.1585754549836" lon="-75.6809120720787">
        <ele>52.3778713</ele>
        <time>2019-09-10T15:41:12.500Z</time>
      </trkpt>
      <trkpt lat="10.1585737318358" lon="-75.6809099303712">
        <ele>52.3778713</ele>
        <time>2019-09-10T15:41:12.600Z</time>
      </trkpt>
      <trkpt lat="10.1585720056135" lon="-75.6809077911007">
        <ele>52.3778713</ele>
        <time>2019-09-10T15:41:12.700Z</time>
      </trkpt>
      <trkpt lat="10.158570264885" lon="-75.6809056257895">
        <ele>52.3778713</ele>
        <time>2019-09-10T15:41:12.800Z</time>
      </trkpt>
      <trkpt lat="10.158568525456" lon="-75.6809034712357">
        <ele>52.3778713</ele>
        <time>2019-09-10T15:41:12.900Z</time>
      </trkpt>
      <trkpt lat="10.1585650165012" lon="-75.6808992314424">
        <ele>52.3778713</ele>
        <time>2019-09-10T15:41:13.100Z</time>
      </trkpt>
      <trkpt lat="10.1585632927737" lon="-75.6808971081166">
        <ele>52.3778713</ele>
        <time>2019-09-10T15:41:13.200Z</time>
      </trkpt>
      <trkpt lat="10.1585615703848" lon="-75.6808949842686">
        <ele>52.3778713</ele>
        <time>2019-09-10T15:41:13.300Z</time>
      </trkpt>
      <trkpt lat="10.1585598468722" lon="-75.6808928728491">
        <ele>52.3778713</ele>
        <time>2019-09-10T15:41:13.400Z</time>
      </trkpt>
      <trkpt lat="10.1585581183473" lon="-75.6808907685316">
        <ele>52.3778713</ele>
        <time>2019-09-10T15:41:13.500Z</time>
      </trkpt>
      <trkpt lat="10.1585563870703" lon="-75.680888680681">
        <ele>52.3778713</ele>
        <time>2019-09-10T15:41:13.600Z</time>
      </trkpt>
      <trkpt lat="10.1585529193151" lon="-75.6808845130914">
        <ele>52.3778713</ele>
        <time>2019-09-10T15:41:13.800Z</time>
      </trkpt>
      <trkpt lat="10.1585511914611" lon="-75.6808824216898">
        <ele>52.3778713</ele>
        <time>2019-09-10T15:41:13.900Z</time>
      </trkpt>
      <trkpt lat="10.158547793729" lon="-75.6808782126022">
        <ele>52.3778713</ele>
        <time>2019-09-10T15:41:14.100Z</time>
      </trkpt>
      <trkpt lat="10.1585460827327" lon="-75.6808761056737">
        <ele>52.3778713</ele>
        <time>2019-09-10T15:41:14.200Z</time>
      </trkpt>
      <trkpt lat="10.1585426343169" lon="-75.6808719272919">
        <ele>52.3778713</ele>
        <time>2019-09-10T15:41:14.400Z</time>
      </trkpt>
      <trkpt lat="10.1585409015238" lon="-75.6808698507557">
        <ele>52.3778713</ele>
        <time>2019-09-10T15:41:14.500Z</time>
      </trkpt>
      <trkpt lat="10.158539188969" lon="-75.6808677381178">
        <ele>52.3778713</ele>
        <time>2019-09-10T15:41:14.600Z</time>
      </trkpt>
      <trkpt lat="10.1585374746995" lon="-75.6808656193874">
        <ele>52.3778713</ele>
        <time>2019-09-10T15:41:14.700Z</time>
      </trkpt>
      <trkpt lat="10.1585357454272" lon="-75.6808635000303">
        <ele>52.3778713</ele>
        <time>2019-09-10T15:41:14.800Z</time>
      </trkpt>
      <trkpt lat="10.1585340088936" lon="-75.6808613838065">
        <ele>52.3778713</ele>
        <time>2019-09-10T15:41:14.900Z</time>
      </trkpt>
      <trkpt lat="10.1585322633954" lon="-75.6808592709248">
        <ele>52.3778713</ele>
        <time>2019-09-10T15:41:15.000Z</time>
      </trkpt>
      <trkpt lat="10.1585305200191" lon="-75.6808571583217">
        <ele>52.3778713</ele>
        <time>2019-09-10T15:41:15.100Z</time>
      </trkpt>
      <trkpt lat="10.1585288083876" lon="-75.6808550527509">
        <ele>52.3778713</ele>
        <time>2019-09-10T15:41:15.200Z</time>
      </trkpt>
      <trkpt lat="10.1585270964403" lon="-75.6808529429676">
        <ele>52.3778713</ele>
        <time>2019-09-10T15:41:15.300Z</time>
      </trkpt>
      <trkpt lat="10.1585253815251" lon="-75.6808508093369">
        <ele>52.3778713</ele>
        <time>2019-09-10T15:41:15.400Z</time>
      </trkpt>
      <trkpt lat="10.1585236589212" lon="-75.6808486790832">
        <ele>52.4778713</ele>
        <time>2019-09-10T15:41:15.500Z</time>
      </trkpt>
      <trkpt lat="10.1585219554768" lon="-75.6808465986131">
        <ele>52.3778713</ele>
        <time>2019-09-10T15:41:15.600Z</time>
      </trkpt>
      <trkpt lat="10.1585202453714" lon="-75.6808445206844">
        <ele>52.3778713</ele>
        <time>2019-09-10T15:41:15.700Z</time>
      </trkpt>
      <trkpt lat="10.1585184948893" lon="-75.6808424161929">
        <ele>52.3778713</ele>
        <time>2019-09-10T15:41:15.800Z</time>
      </trkpt>
      <trkpt lat="10.1585167374697" lon="-75.6808403084984">
        <ele>52.3778713</ele>
        <time>2019-09-10T15:41:15.900Z</time>
      </trkpt>
      <trkpt lat="10.1585132108738" lon="-75.6808361065477">
        <ele>52.3778713</ele>
        <time>2019-09-10T15:41:16.100Z</time>
      </trkpt>
      <trkpt lat="10.1585114171212" lon="-75.6808340088796">
        <ele>52.3778713</ele>
        <time>2019-09-10T15:41:16.200Z</time>
      </trkpt>
      <trkpt lat="10.1585096296222" lon="-75.6808319136137">
        <ele>52.3778713</ele>
        <time>2019-09-10T15:41:16.300Z</time>
      </trkpt>
      <trkpt lat="10.1585078194902" lon="-75.6808298164678">
        <ele>52.3778713</ele>
        <time>2019-09-10T15:41:16.400Z</time>
      </trkpt>
      <trkpt lat="10.1585060229338" lon="-75.6808277208538">
        <ele>52.3778713</ele>
        <time>2019-09-10T15:41:16.500Z</time>
      </trkpt>
      <trkpt lat="10.1585042499858" lon="-75.6808255887549">
        <ele>52.3778713</ele>
        <time>2019-09-10T15:41:16.600Z</time>
      </trkpt>
      <trkpt lat="10.1585024889596" lon="-75.680823462261">
        <ele>52.3778713</ele>
        <time>2019-09-10T15:41:16.700Z</time>
      </trkpt>
      <trkpt lat="10.1585007144197" lon="-75.6808213358368">
        <ele>52.3778713</ele>
        <time>2019-09-10T15:41:16.800Z</time>
      </trkpt>
      <trkpt lat="10.1584989454133" lon="-75.680819219787">
        <ele>52.3778713</ele>
        <time>2019-09-10T15:41:16.900Z</time>
      </trkpt>
      <trkpt lat="10.158497164573" lon="-75.6808170703857">
        <ele>52.3778713</ele>
        <time>2019-09-10T15:41:17.000Z</time>
      </trkpt>
      <trkpt lat="10.1584953919417" lon="-75.6808149339003">
        <ele>52.4778713</ele>
        <time>2019-09-10T15:41:17.100Z</time>
      </trkpt>
      <trkpt lat="10.1584936338866" lon="-75.6808128078242">
        <ele>52.4778713</ele>
        <time>2019-09-10T15:41:17.200Z</time>
      </trkpt>
      <trkpt lat="10.1584918801045" lon="-75.680810689999">
        <ele>52.4778713</ele>
        <time>2019-09-10T15:41:17.300Z</time>
      </trkpt>
      <trkpt lat="10.1584901417536" lon="-75.6808085811557">
        <ele>52.4778713</ele>
        <time>2019-09-10T15:41:17.400Z</time>
      </trkpt>
      <trkpt lat="10.1584884042494" lon="-75.6808064756893">
        <ele>52.4778713</ele>
        <time>2019-09-10T15:41:17.500Z</time>
      </trkpt>
      <trkpt lat="10.1584866789" lon="-75.6808043770465">
        <ele>52.4778713</ele>
        <time>2019-09-10T15:41:17.600Z</time>
      </trkpt>
      <trkpt lat="10.158484951642" lon="-75.6808022799354">
        <ele>52.4778713</ele>
        <time>2019-09-10T15:41:17.700Z</time>
      </trkpt>
      <trkpt lat="10.1584831974235" lon="-75.6808001553911">
        <ele>52.4778713</ele>
        <time>2019-09-10T15:41:17.800Z</time>
      </trkpt>
      <trkpt lat="10.1584814442277" lon="-75.6807980368">
        <ele>52.4778713</ele>
        <time>2019-09-10T15:41:17.900Z</time>
      </trkpt>
      <trkpt lat="10.1584796936764" lon="-75.6807959233961">
        <ele>52.3778713</ele>
        <time>2019-09-10T15:41:18.000Z</time>
      </trkpt>
      <trkpt lat="10.1584779472875" lon="-75.6807938177209">
        <ele>52.3778713</ele>
        <time>2019-09-10T15:41:18.100Z</time>
      </trkpt>
      <trkpt lat="10.158476201944" lon="-75.6807917168151">
        <ele>52.3778713</ele>
        <time>2019-09-10T15:41:18.200Z</time>
      </trkpt>
      <trkpt lat="10.1584744589162" lon="-75.6807896215144">
        <ele>52.3778713</ele>
        <time>2019-09-10T15:41:18.300Z</time>
      </trkpt>
      <trkpt lat="10.1584727197445" lon="-75.6807875303565">
        <ele>52.3778713</ele>
        <time>2019-09-10T15:41:18.400Z</time>
      </trkpt>
      <trkpt lat="10.1584692470877" lon="-75.6807833521835">
        <ele>52.3778713</ele>
        <time>2019-09-10T15:41:18.600Z</time>
      </trkpt>
      <trkpt lat="10.1584675127818" lon="-75.6807812635322">
        <ele>52.4778713</ele>
        <time>2019-09-10T15:41:18.700Z</time>
      </trkpt>
      <trkpt lat="10.1584657786909" lon="-75.6807791654464">
        <ele>52.4778713</ele>
        <time>2019-09-10T15:41:18.800Z</time>
      </trkpt>
      <trkpt lat="10.1584640467365" lon="-75.6807770684746">
        <ele>52.4778713</ele>
        <time>2019-09-10T15:41:18.900Z</time>
      </trkpt>
      <trkpt lat="10.1584623129875" lon="-75.680774960432">
        <ele>52.3778713</ele>
        <time>2019-09-10T15:41:19.000Z</time>
      </trkpt>
      <trkpt lat="10.1584605806813" lon="-75.6807728568804">
        <ele>52.4778713</ele>
        <time>2019-09-10T15:41:19.100Z</time>
      </trkpt>
      <trkpt lat="10.1584588424151" lon="-75.6807707464009">
        <ele>52.4778713</ele>
        <time>2019-09-10T15:41:19.200Z</time>
      </trkpt>
      <trkpt lat="10.1584571068716" lon="-75.6807686430582">
        <ele>52.3778713</ele>
        <time>2019-09-10T15:41:19.300Z</time>
      </trkpt>
      <trkpt lat="10.1584553641564" lon="-75.680766537">
        <ele>52.3778713</ele>
        <time>2019-09-10T15:41:19.400Z</time>
      </trkpt>
      <trkpt lat="10.1584536234149" lon="-75.680764438009">
        <ele>52.3778713</ele>
        <time>2019-09-10T15:41:19.500Z</time>
      </trkpt>
      <trkpt lat="10.1584518789541" lon="-75.6807623365114">
        <ele>52.3778713</ele>
        <time>2019-09-10T15:41:19.600Z</time>
      </trkpt>
      <trkpt lat="10.1584501375156" lon="-75.6807602384604">
        <ele>52.4778713</ele>
        <time>2019-09-10T15:41:19.700Z</time>
      </trkpt>
      <trkpt lat="10.1584483953997" lon="-75.6807581358139">
        <ele>52.3778713</ele>
        <time>2019-09-10T15:41:19.800Z</time>
      </trkpt>
      <trkpt lat="10.1584466551402" lon="-75.6807560378674">
        <ele>52.3778713</ele>
        <time>2019-09-10T15:41:19.900Z</time>
      </trkpt>
      <trkpt lat="10.1584448766905" lon="-75.6807539361957">
        <ele>52.3778713</ele>
        <time>2019-09-10T15:41:20.000Z</time>
      </trkpt>
      <trkpt lat="10.1584431042529" lon="-75.6807518406513">
        <ele>52.3778713</ele>
        <time>2019-09-10T15:41:20.100Z</time>
      </trkpt>
      <trkpt lat="10.1584413365509" lon="-75.6807497432617">
        <ele>52.3778713</ele>
        <time>2019-09-10T15:41:20.200Z</time>
      </trkpt>
      <trkpt lat="10.1584395772777" lon="-75.6807476482047">
        <ele>52.3778713</ele>
        <time>2019-09-10T15:41:20.300Z</time>
      </trkpt>
      <trkpt lat="10.1584378242903" lon="-75.6807455461152">
        <ele>52.3778713</ele>
        <time>2019-09-10T15:41:20.400Z</time>
      </trkpt>
      <trkpt lat="10.1584360745859" lon="-75.6807434463932">
        <ele>52.3778713</ele>
        <time>2019-09-10T15:41:20.500Z</time>
      </trkpt>
      <trkpt lat="10.1584343315059" lon="-75.6807413723984">
        <ele>52.3778713</ele>
        <time>2019-09-10T15:41:20.600Z</time>
      </trkpt>
      <trkpt lat="10.1584325892207" lon="-75.6807392967327">
        <ele>52.3778713</ele>
        <time>2019-09-10T15:41:20.700Z</time>
      </trkpt>
      <trkpt lat="10.1584308522637" lon="-75.6807372117716">
        <ele>52.3778713</ele>
        <time>2019-09-10T15:41:20.800Z</time>
      </trkpt>
      <trkpt lat="10.1584291113268" lon="-75.6807351237818">
        <ele>52.3778713</ele>
        <time>2019-09-10T15:41:20.900Z</time>
      </trkpt>
      <trkpt lat="10.1584273739334" lon="-75.6807330638866">
        <ele>52.3778713</ele>
        <time>2019-09-10T15:41:21.000Z</time>
      </trkpt>
      <trkpt lat="10.1584256353284" lon="-75.6807310024945">
        <ele>52.3778713</ele>
        <time>2019-09-10T15:41:21.100Z</time>
      </trkpt>
      <trkpt lat="10.1584239025728" lon="-75.6807289332344">
        <ele>52.3778713</ele>
        <time>2019-09-10T15:41:21.200Z</time>
      </trkpt>
      <trkpt lat="10.1584221669055" lon="-75.6807268611197">
        <ele>52.3778713</ele>
        <time>2019-09-10T15:41:21.300Z</time>
      </trkpt>
      <trkpt lat="10.1584204327755" lon="-75.6807247738261">
        <ele>52.3778713</ele>
        <time>2019-09-10T15:41:21.400Z</time>
      </trkpt>
      <trkpt lat="10.1584186959293" lon="-75.6807226854881">
        <ele>52.3778713</ele>
        <time>2019-09-10T15:41:21.500Z</time>
      </trkpt>
      <trkpt lat="10.1584169618448" lon="-75.6807206138259">
        <ele>52.3778713</ele>
        <time>2019-09-10T15:41:21.600Z</time>
      </trkpt>
      <trkpt lat="10.1584152264056" lon="-75.6807185399356">
        <ele>52.3778713</ele>
        <time>2019-09-10T15:41:21.700Z</time>
      </trkpt>
      <trkpt lat="10.1584134927185" lon="-75.6807164518065">
        <ele>52.3778713</ele>
        <time>2019-09-10T15:41:21.800Z</time>
      </trkpt>
      <trkpt lat="10.1584117579697" lon="-75.6807143639907">
        <ele>52.3778713</ele>
        <time>2019-09-10T15:41:21.900Z</time>
      </trkpt>
      <trkpt lat="10.1584100209345" lon="-75.6807122660094">
        <ele>52.3778713</ele>
        <time>2019-09-10T15:41:22.000Z</time>
      </trkpt>
      <trkpt lat="10.1584082841534" lon="-75.6807101703605">
        <ele>52.3778713</ele>
        <time>2019-09-10T15:41:22.100Z</time>
      </trkpt>
      <trkpt lat="10.158406516054" lon="-75.6807080616216">
        <ele>52.3778713</ele>
        <time>2019-09-10T15:41:22.200Z</time>
      </trkpt>
      <trkpt lat="10.1584047528921" lon="-75.6807059590796">
        <ele>52.3778713</ele>
        <time>2019-09-10T15:41:22.300Z</time>
      </trkpt>
      <trkpt lat="10.1584030250479" lon="-75.6807038872782">
        <ele>52.3778713</ele>
        <time>2019-09-10T15:41:22.400Z</time>
      </trkpt>
      <trkpt lat="10.1584013035872" lon="-75.6807018176004">
        <ele>52.3778713</ele>
        <time>2019-09-10T15:41:22.500Z</time>
      </trkpt>
      <trkpt lat="10.1583996189554" lon="-75.6806997361903">
        <ele>52.3778713</ele>
        <time>2019-09-10T15:41:22.600Z</time>
      </trkpt>
      <trkpt lat="10.1583979285132" lon="-75.6806976530048">
        <ele>52.3778713</ele>
        <time>2019-09-10T15:41:22.700Z</time>
      </trkpt>
      <trkpt lat="10.1583962269977" lon="-75.6806955951636">
        <ele>52.3778713</ele>
        <time>2019-09-10T15:41:22.800Z</time>
      </trkpt>
      <trkpt lat="10.1583945107871" lon="-75.68069353405">
        <ele>52.3778713</ele>
        <time>2019-09-10T15:41:22.900Z</time>
      </trkpt>
      <trkpt lat="10.1583927824739" lon="-75.6806914513518">
        <ele>52.3778713</ele>
        <time>2019-09-10T15:41:23.000Z</time>
      </trkpt>
      <trkpt lat="10.1583910566229" lon="-75.6806893607162">
        <ele>52.3778713</ele>
        <time>2019-09-10T15:41:23.100Z</time>
      </trkpt>
      <trkpt lat="10.1583893543517" lon="-75.6806872525343">
        <ele>52.3778713</ele>
        <time>2019-09-10T15:41:23.200Z</time>
      </trkpt>
      <trkpt lat="10.1583876499571" lon="-75.6806851433777">
        <ele>52.3778713</ele>
        <time>2019-09-10T15:41:23.300Z</time>
      </trkpt>
      <trkpt lat="10.1583824207499" lon="-75.6806787923738">
        <ele>52.3778713</ele>
        <time>2019-09-10T15:41:23.600Z</time>
      </trkpt>
      <trkpt lat="10.1583806875122" lon="-75.6806766713109">
        <ele>52.3778713</ele>
        <time>2019-09-10T15:41:23.700Z</time>
      </trkpt>
      <trkpt lat="10.1583789737378" lon="-75.6806745205866">
        <ele>52.4778713</ele>
        <time>2019-09-10T15:41:23.800Z</time>
      </trkpt>
      <trkpt lat="10.1583772619956" lon="-75.6806723846234">
        <ele>52.4778713</ele>
        <time>2019-09-10T15:41:23.900Z</time>
      </trkpt>
      <trkpt lat="10.1583755652091" lon="-75.6806702676685">
        <ele>52.4778713</ele>
        <time>2019-09-10T15:41:24.000Z</time>
      </trkpt>
      <trkpt lat="10.1583738635893" lon="-75.6806681610185">
        <ele>52.4778713</ele>
        <time>2019-09-10T15:41:24.100Z</time>
      </trkpt>
      <trkpt lat="10.1583721380119" lon="-75.6806660649519">
        <ele>52.4778713</ele>
        <time>2019-09-10T15:41:24.200Z</time>
      </trkpt>
      <trkpt lat="10.1583704061943" lon="-75.6806639677016">
        <ele>52.4778713</ele>
        <time>2019-09-10T15:41:24.300Z</time>
      </trkpt>
      <trkpt lat="10.1583686944651" lon="-75.6806618755341">
        <ele>52.3778713</ele>
        <time>2019-09-10T15:41:24.400Z</time>
      </trkpt>
      <trkpt lat="10.1583669823582" lon="-75.6806597837843">
        <ele>52.3778713</ele>
        <time>2019-09-10T15:41:24.500Z</time>
      </trkpt>
      <trkpt lat="10.158365289975" lon="-75.6806577269876">
        <ele>52.3778713</ele>
        <time>2019-09-10T15:41:24.600Z</time>
      </trkpt>
      <trkpt lat="10.1583635897231" lon="-75.6806556682413">
        <ele>52.3778713</ele>
        <time>2019-09-10T15:41:24.700Z</time>
      </trkpt>
      <trkpt lat="10.15836187376" lon="-75.6806536058744">
        <ele>52.3778713</ele>
        <time>2019-09-10T15:41:24.800Z</time>
      </trkpt>
      <trkpt lat="10.1583601459419" lon="-75.6806515393298">
        <ele>52.3778713</ele>
        <time>2019-09-10T15:41:24.900Z</time>
      </trkpt>
      <trkpt lat="10.1583584019174" lon="-75.6806494624804">
        <ele>52.3778713</ele>
        <time>2019-09-10T15:41:25.000Z</time>
      </trkpt>
      <trkpt lat="10.1583566576846" lon="-75.6806473799215">
        <ele>52.3778713</ele>
        <time>2019-09-10T15:41:25.100Z</time>
      </trkpt>
      <trkpt lat="10.1583549059478" lon="-75.6806452793291">
        <ele>52.4778713</ele>
        <time>2019-09-10T15:41:25.200Z</time>
      </trkpt>
      <trkpt lat="10.1583531620927" lon="-75.6806431807558">
        <ele>52.4778713</ele>
        <time>2019-09-10T15:41:25.300Z</time>
      </trkpt>
      <trkpt lat="10.1583514176514" lon="-75.6806410686052">
        <ele>52.4778713</ele>
        <time>2019-09-10T15:41:25.400Z</time>
      </trkpt>
      <trkpt lat="10.1583496740438" lon="-75.6806389646707">
        <ele>52.4778713</ele>
        <time>2019-09-10T15:41:25.500Z</time>
      </trkpt>
      <trkpt lat="10.1583479308923" lon="-75.6806368830169">
        <ele>52.4778713</ele>
        <time>2019-09-10T15:41:25.600Z</time>
      </trkpt>
      <trkpt lat="10.158346192652" lon="-75.680634795236">
        <ele>52.4778713</ele>
        <time>2019-09-10T15:41:25.700Z</time>
      </trkpt>
      <trkpt lat="10.158344486186" lon="-75.6806327219375">
        <ele>52.4778713</ele>
        <time>2019-09-10T15:41:25.800Z</time>
      </trkpt>
      <trkpt lat="10.1583427822474" lon="-75.680630636872">
        <ele>52.4778713</ele>
        <time>2019-09-10T15:41:25.900Z</time>
      </trkpt>
      <trkpt lat="10.1583410407373" lon="-75.6806285027191">
        <ele>52.4778713</ele>
        <time>2019-09-10T15:41:26.000Z</time>
      </trkpt>
      <trkpt lat="10.1583392929218" lon="-75.6806263547104">
        <ele>52.4778713</ele>
        <time>2019-09-10T15:41:26.100Z</time>
      </trkpt>
      <trkpt lat="10.1583375758774" lon="-75.6806241766921">
        <ele>52.4778713</ele>
        <time>2019-09-10T15:41:26.200Z</time>
      </trkpt>
      <trkpt lat="10.1583358671837" lon="-75.6806220084914">
        <ele>52.4778713</ele>
        <time>2019-09-10T15:41:26.300Z</time>
      </trkpt>
      <trkpt lat="10.158334156132" lon="-75.6806198735726">
        <ele>52.4778713</ele>
        <time>2019-09-10T15:41:26.400Z</time>
      </trkpt>
      <trkpt lat="10.1583324403252" lon="-75.6806177529971">
        <ele>52.4778713</ele>
        <time>2019-09-10T15:41:26.500Z</time>
      </trkpt>
      <trkpt lat="10.1583307441901" lon="-75.6806156349978">
        <ele>52.4778713</ele>
        <time>2019-09-10T15:41:26.600Z</time>
      </trkpt>
      <trkpt lat="10.1583290451498" lon="-75.6806135294618">
        <ele>52.4778713</ele>
        <time>2019-09-10T15:41:26.700Z</time>
      </trkpt>
      <trkpt lat="10.1583273623679" lon="-75.6806114469029">
        <ele>52.4778713</ele>
        <time>2019-09-10T15:41:26.800Z</time>
      </trkpt>
      <trkpt lat="10.1583256723947" lon="-75.6806093656669">
        <ele>52.4778713</ele>
        <time>2019-09-10T15:41:26.900Z</time>
      </trkpt>
      <trkpt lat="10.1583239581513" lon="-75.6806072891656">
        <ele>52.4778713</ele>
        <time>2019-09-10T15:41:27.000Z</time>
      </trkpt>
      <trkpt lat="10.158322235479" lon="-75.6806052146139">
        <ele>52.4778713</ele>
        <time>2019-09-10T15:41:27.100Z</time>
      </trkpt>
      <trkpt lat="10.1583205234372" lon="-75.6806031697931">
        <ele>52.4778713</ele>
        <time>2019-09-10T15:41:27.200Z</time>
      </trkpt>
      <trkpt lat="10.1583188066273" lon="-75.6806011219783">
        <ele>52.4778713</ele>
        <time>2019-09-10T15:41:27.300Z</time>
      </trkpt>
      <trkpt lat="10.1583170358834" lon="-75.6805990226392">
        <ele>52.4778713</ele>
        <time>2019-09-10T15:41:27.400Z</time>
      </trkpt>
      <trkpt lat="10.1583152665594" lon="-75.6805969282436">
        <ele>52.4778713</ele>
        <time>2019-09-10T15:41:27.500Z</time>
      </trkpt>
      <trkpt lat="10.1583135593899" lon="-75.6805948904552">
        <ele>52.4778713</ele>
        <time>2019-09-10T15:41:27.600Z</time>
      </trkpt>
      <trkpt lat="10.1583118517645" lon="-75.6805928560089">
        <ele>52.3778713</ele>
        <time>2019-09-10T15:41:27.700Z</time>
      </trkpt>
      <trkpt lat="10.158310106763" lon="-75.6805908034595">
        <ele>52.3778713</ele>
        <time>2019-09-10T15:41:27.800Z</time>
      </trkpt>
      <trkpt lat="10.15830836296" lon="-75.6805887507011">
        <ele>52.3778713</ele>
        <time>2019-09-10T15:41:27.900Z</time>
      </trkpt>
      <trkpt lat="10.158306655074" lon="-75.6805867030953">
        <ele>52.4778713</ele>
        <time>2019-09-10T15:41:28.000Z</time>
      </trkpt>
      <trkpt lat="10.1583049421854" lon="-75.6805846545842">
        <ele>52.4778713</ele>
        <time>2019-09-10T15:41:28.100Z</time>
      </trkpt>
      <trkpt lat="10.1583032192396" lon="-75.6805825979964">
        <ele>52.3778713</ele>
        <time>2019-09-10T15:41:28.200Z</time>
      </trkpt>
      <trkpt lat="10.1583014908482" lon="-75.6805805315214">
        <ele>52.3778713</ele>
        <time>2019-09-10T15:41:28.300Z</time>
      </trkpt>
      <trkpt lat="10.1582980243599" lon="-75.6805763120245">
        <ele>52.3778713</ele>
        <time>2019-09-10T15:41:28.500Z</time>
      </trkpt>
      <trkpt lat="10.1582962816903" lon="-75.680574216306">
        <ele>52.3778713</ele>
        <time>2019-09-10T15:41:28.600Z</time>
      </trkpt>
      <trkpt lat="10.1582945361808" lon="-75.6805721259488">
        <ele>52.3778713</ele>
        <time>2019-09-10T15:41:28.700Z</time>
      </trkpt>
      <trkpt lat="10.1582927864242" lon="-75.6805700195077">
        <ele>52.3778713</ele>
        <time>2019-09-10T15:41:28.800Z</time>
      </trkpt>
      <trkpt lat="10.1582910298412" lon="-75.6805679095156">
        <ele>52.3778713</ele>
        <time>2019-09-10T15:41:28.900Z</time>
      </trkpt>
      <trkpt lat="10.1582893025181" lon="-75.6805657933266">
        <ele>52.3778713</ele>
        <time>2019-09-10T15:41:29.000Z</time>
      </trkpt>
      <trkpt lat="10.158287571417" lon="-75.6805636794353">
        <ele>52.3778713</ele>
        <time>2019-09-10T15:41:29.100Z</time>
      </trkpt>
      <trkpt lat="10.1582858423482" lon="-75.6805615693039">
        <ele>52.3778713</ele>
        <time>2019-09-10T15:41:29.200Z</time>
      </trkpt>
      <trkpt lat="10.1582841049157" lon="-75.6805594668315">
        <ele>52.3778713</ele>
        <time>2019-09-10T15:41:29.300Z</time>
      </trkpt>
      <trkpt lat="10.1582824077123" lon="-75.6805573711826">
        <ele>52.3778713</ele>
        <time>2019-09-10T15:41:29.400Z</time>
      </trkpt>
      <trkpt lat="10.1582806999826" lon="-75.6805552719828">
        <ele>52.3778713</ele>
        <time>2019-09-10T15:41:29.500Z</time>
      </trkpt>
      <trkpt lat="10.158278991836" lon="-75.680553165472">
        <ele>52.3778713</ele>
        <time>2019-09-10T15:41:29.600Z</time>
      </trkpt>
      <trkpt lat="10.1582772694113" lon="-75.6805510536695">
        <ele>52.3778713</ele>
        <time>2019-09-10T15:41:29.700Z</time>
      </trkpt>
      <trkpt lat="10.1582755825257" lon="-75.6805489024579">
        <ele>52.3778713</ele>
        <time>2019-09-10T15:41:29.800Z</time>
      </trkpt>
      <trkpt lat="10.1582738749263" lon="-75.6805467559113">
        <ele>52.3778713</ele>
        <time>2019-09-10T15:41:29.900Z</time>
      </trkpt>
      <trkpt lat="10.1582721278534" lon="-75.6805445834633">
        <ele>52.3778713</ele>
        <time>2019-09-10T15:41:30.000Z</time>
      </trkpt>
      <trkpt lat="10.1582703731203" lon="-75.6805424274474">
        <ele>52.3778713</ele>
        <time>2019-09-10T15:41:30.100Z</time>
      </trkpt>
      <trkpt lat="10.1582686795906" lon="-75.6805403016498">
        <ele>52.3778713</ele>
        <time>2019-09-10T15:41:30.200Z</time>
      </trkpt>
      <trkpt lat="10.1582669740235" lon="-75.6805381876193">
        <ele>52.3778713</ele>
        <time>2019-09-10T15:41:30.300Z</time>
      </trkpt>
      <trkpt lat="10.1582652706451" lon="-75.6805360992117">
        <ele>52.3778713</ele>
        <time>2019-09-10T15:41:30.400Z</time>
      </trkpt>
      <trkpt lat="10.15826355562" lon="-75.6805340115699">
        <ele>52.3778713</ele>
        <time>2019-09-10T15:41:30.500Z</time>
      </trkpt>
      <trkpt lat="10.1582618335079" lon="-75.6805319217001">
        <ele>52.3778713</ele>
        <time>2019-09-10T15:41:30.600Z</time>
      </trkpt>
      <trkpt lat="10.158260095424" lon="-75.6805298163034">
        <ele>52.3778713</ele>
        <time>2019-09-10T15:41:30.700Z</time>
      </trkpt>
      <trkpt lat="10.1582583513214" lon="-75.6805277125778">
        <ele>52.3778713</ele>
        <time>2019-09-10T15:41:30.800Z</time>
      </trkpt>
      <trkpt lat="10.1582565968488" lon="-75.6805256138653">
        <ele>52.3778713</ele>
        <time>2019-09-10T15:41:30.900Z</time>
      </trkpt>
      <trkpt lat="10.1582548458677" lon="-75.6805235365981">
        <ele>52.3778713</ele>
        <time>2019-09-10T15:41:31.000Z</time>
      </trkpt>
      <trkpt lat="10.1582530892586" lon="-75.680521476877">
        <ele>52.3778713</ele>
        <time>2019-09-10T15:41:31.100Z</time>
      </trkpt>
      <trkpt lat="10.1582513349945" lon="-75.6805194675662">
        <ele>52.3778713</ele>
        <time>2019-09-10T15:41:31.200Z</time>
      </trkpt>
      <trkpt lat="10.1582495751547" lon="-75.6805174563059">
        <ele>52.3778713</ele>
        <time>2019-09-10T15:41:31.300Z</time>
      </trkpt>
      <trkpt lat="10.1582478001507" lon="-75.6805153822415">
        <ele>52.3778713</ele>
        <time>2019-09-10T15:41:31.400Z</time>
      </trkpt>
      <trkpt lat="10.1582460240785" lon="-75.6805132989864">
        <ele>52.3778713</ele>
        <time>2019-09-10T15:41:31.500Z</time>
      </trkpt>
      <trkpt lat="10.158244238887" lon="-75.6805112083507">
        <ele>52.3778713</ele>
        <time>2019-09-10T15:41:31.600Z</time>
      </trkpt>
      <trkpt lat="10.1582424571869" lon="-75.6805091164617">
        <ele>52.3778713</ele>
        <time>2019-09-10T15:41:31.700Z</time>
      </trkpt>
      <trkpt lat="10.1582406625113" lon="-75.6805070229016">
        <ele>52.3778713</ele>
        <time>2019-09-10T15:41:31.800Z</time>
      </trkpt>
      <trkpt lat="10.1582388720827" lon="-75.680504923841">
        <ele>52.3778713</ele>
        <time>2019-09-10T15:41:31.900Z</time>
      </trkpt>
      <trkpt lat="10.1582371042179" lon="-75.6805028015944">
        <ele>52.3778713</ele>
        <time>2019-09-10T15:41:32.000Z</time>
      </trkpt>
      <trkpt lat="10.1582353345813" lon="-75.6805006784427">
        <ele>52.3778713</ele>
        <time>2019-09-10T15:41:32.100Z</time>
      </trkpt>
      <trkpt lat="10.158233554236" lon="-75.680498552297">
        <ele>52.3778713</ele>
        <time>2019-09-10T15:41:32.200Z</time>
      </trkpt>
      <trkpt lat="10.1582317721972" lon="-75.6804964278223">
        <ele>52.3778713</ele>
        <time>2019-09-10T15:41:32.300Z</time>
      </trkpt>
      <trkpt lat="10.1582299854424" lon="-75.6804942785602">
        <ele>52.3778713</ele>
        <time>2019-09-10T15:41:32.400Z</time>
      </trkpt>
      <trkpt lat="10.1582282045239" lon="-75.6804921345899">
        <ele>52.3778713</ele>
        <time>2019-09-10T15:41:32.500Z</time>
      </trkpt>
      <trkpt lat="10.1582263879621" lon="-75.6804899678513">
        <ele>52.3778713</ele>
        <time>2019-09-10T15:41:32.600Z</time>
      </trkpt>
      <trkpt lat="10.1582228242231" lon="-75.6804857353341">
        <ele>52.3778713</ele>
        <time>2019-09-10T15:41:32.800Z</time>
      </trkpt>
      <trkpt lat="10.1582210715484" lon="-75.6804836598772">
        <ele>52.3778713</ele>
        <time>2019-09-10T15:41:32.900Z</time>
      </trkpt>
      <trkpt lat="10.1582193447464" lon="-75.6804816038463">
        <ele>52.3778713</ele>
        <time>2019-09-10T15:41:33.000Z</time>
      </trkpt>
      <trkpt lat="10.1582176166155" lon="-75.6804795391121">
        <ele>52.3778713</ele>
        <time>2019-09-10T15:41:33.100Z</time>
      </trkpt>
      <trkpt lat="10.1582158974998" lon="-75.6804774355257">
        <ele>52.3778713</ele>
        <time>2019-09-10T15:41:33.200Z</time>
      </trkpt>
      <trkpt lat="10.1582141713752" lon="-75.680475327692">
        <ele>52.3778713</ele>
        <time>2019-09-10T15:41:33.300Z</time>
      </trkpt>
      <trkpt lat="10.158212416095" lon="-75.6804732507033">
        <ele>52.3778713</ele>
        <time>2019-09-10T15:41:33.400Z</time>
      </trkpt>
      <trkpt lat="10.1582106671722" lon="-75.6804711816521">
        <ele>52.3778713</ele>
        <time>2019-09-10T15:41:33.500Z</time>
      </trkpt>
      <trkpt lat="10.1582089313811" lon="-75.6804691149683">
        <ele>52.3778713</ele>
        <time>2019-09-10T15:41:33.600Z</time>
      </trkpt>
      <trkpt lat="10.1582072056474" lon="-75.6804670490504">
        <ele>52.3778713</ele>
        <time>2019-09-10T15:41:33.700Z</time>
      </trkpt>
      <trkpt lat="10.1582054865316" lon="-75.6804649337665">
        <ele>52.3778713</ele>
        <time>2019-09-10T15:41:33.800Z</time>
      </trkpt>
      <trkpt lat="10.1582037683538" lon="-75.6804628249581">
        <ele>52.3778713</ele>
        <time>2019-09-10T15:41:33.900Z</time>
      </trkpt>
      <trkpt lat="10.1582020640374" lon="-75.6804607601542">
        <ele>52.3778713</ele>
        <time>2019-09-10T15:41:34.000Z</time>
      </trkpt>
      <trkpt lat="10.1582003511488" lon="-75.6804586884572">
        <ele>52.3778713</ele>
        <time>2019-09-10T15:41:34.100Z</time>
      </trkpt>
      <trkpt lat="10.1581986552742" lon="-75.6804566249762">
        <ele>52.3778713</ele>
        <time>2019-09-10T15:41:34.200Z</time>
      </trkpt>
      <trkpt lat="10.1581969563772" lon="-75.6804545506334">
        <ele>52.3778713</ele>
        <time>2019-09-10T15:41:34.300Z</time>
      </trkpt>
      <trkpt lat="10.1581952416647" lon="-75.6804524682137">
        <ele>52.3778713</ele>
        <time>2019-09-10T15:41:34.400Z</time>
      </trkpt>
      <trkpt lat="10.1581935223145" lon="-75.6804503866296">
        <ele>52.3778713</ele>
        <time>2019-09-10T15:41:34.500Z</time>
      </trkpt>
      <trkpt lat="10.1581918303221" lon="-75.6804483092231">
        <ele>52.3778713</ele>
        <time>2019-09-10T15:41:34.600Z</time>
      </trkpt>
      <trkpt lat="10.1581901370269" lon="-75.6804462373869">
        <ele>52.3778713</ele>
        <time>2019-09-10T15:41:34.700Z</time>
      </trkpt>
      <trkpt lat="10.1581867101294" lon="-75.6804420923218">
        <ele>52.4778713</ele>
        <time>2019-09-10T15:41:34.900Z</time>
      </trkpt>
      <trkpt lat="10.1581849696485" lon="-75.6804400122695">
        <ele>52.4778713</ele>
        <time>2019-09-10T15:41:35.000Z</time>
      </trkpt>
      <trkpt lat="10.1581832283337" lon="-75.6804379404332">
        <ele>52.4778713</ele>
        <time>2019-09-10T15:41:35.100Z</time>
      </trkpt>
      <trkpt lat="10.1581814339187" lon="-75.6804358420689">
        <ele>52.4778713</ele>
        <time>2019-09-10T15:41:35.200Z</time>
      </trkpt>
      <trkpt lat="10.1581796445845" lon="-75.6804337549842">
        <ele>52.4778713</ele>
        <time>2019-09-10T15:41:35.300Z</time>
      </trkpt>
      <trkpt lat="10.1581778491012" lon="-75.6804317116256">
        <ele>52.4778713</ele>
        <time>2019-09-10T15:41:35.400Z</time>
      </trkpt>
      <trkpt lat="10.1581760667236" lon="-75.6804296660389">
        <ele>52.4778713</ele>
        <time>2019-09-10T15:41:35.500Z</time>
      </trkpt>
      <trkpt lat="10.1581742955237" lon="-75.6804276224017">
        <ele>52.4778713</ele>
        <time>2019-09-10T15:41:35.600Z</time>
      </trkpt>
      <trkpt lat="10.1581725352149" lon="-75.6804255714537">
        <ele>52.4778713</ele>
        <time>2019-09-10T15:41:35.700Z</time>
      </trkpt>
      <trkpt lat="10.1581707608883" lon="-75.6804235299054">
        <ele>52.4778713</ele>
        <time>2019-09-10T15:41:35.800Z</time>
      </trkpt>
      <trkpt lat="10.1581690001886" lon="-75.6804214841795">
        <ele>52.4778713</ele>
        <time>2019-09-10T15:41:35.900Z</time>
      </trkpt>
      <trkpt lat="10.1581672531939" lon="-75.6804194424919">
        <ele>52.4778713</ele>
        <time>2019-09-10T15:41:36.000Z</time>
      </trkpt>
      <trkpt lat="10.1581655138594" lon="-75.680417390221">
        <ele>52.3778713</ele>
        <time>2019-09-10T15:41:36.100Z</time>
      </trkpt>
      <trkpt lat="10.1581637515964" lon="-75.6804152954773">
        <ele>52.3778713</ele>
        <time>2019-09-10T15:41:36.200Z</time>
      </trkpt>
      <trkpt lat="10.1581619911572" lon="-75.6804131797061">
        <ele>52.3778713</ele>
        <time>2019-09-10T15:41:36.300Z</time>
      </trkpt>
      <trkpt lat="10.1581602395768" lon="-75.6804109755775">
        <ele>52.3778713</ele>
        <time>2019-09-10T15:41:36.400Z</time>
      </trkpt>
      <trkpt lat="10.1581585017014" lon="-75.6804087616315">
        <ele>52.3778713</ele>
        <time>2019-09-10T15:41:36.500Z</time>
      </trkpt>
      <trkpt lat="10.1581567996517" lon="-75.6804065746313">
        <ele>52.3778713</ele>
        <time>2019-09-10T15:41:36.600Z</time>
      </trkpt>
      <trkpt lat="10.1581550904369" lon="-75.6804043862386">
        <ele>52.3778713</ele>
        <time>2019-09-10T15:41:36.700Z</time>
      </trkpt>
      <trkpt lat="10.1581533728063" lon="-75.6804021713874">
        <ele>52.3778713</ele>
        <time>2019-09-10T15:41:36.800Z</time>
      </trkpt>
      <trkpt lat="10.1581499352782" lon="-75.6803977616682">
        <ele>52.3778713</ele>
        <time>2019-09-10T15:41:37.000Z</time>
      </trkpt>
      <trkpt lat="10.1581482211651" lon="-75.680395576548">
        <ele>52.3778713</ele>
        <time>2019-09-10T15:41:37.100Z</time>
      </trkpt>
      <trkpt lat="10.1581464961087" lon="-75.6803934358501">
        <ele>52.3778713</ele>
        <time>2019-09-10T15:41:37.200Z</time>
      </trkpt>
      <trkpt lat="10.1581447644865" lon="-75.6803913093562">
        <ele>52.3778713</ele>
        <time>2019-09-10T15:41:37.300Z</time>
      </trkpt>
      <trkpt lat="10.1581429976639" lon="-75.6803891747856">
        <ele>52.3778713</ele>
        <time>2019-09-10T15:41:37.400Z</time>
      </trkpt>
      <trkpt lat="10.1581412360522" lon="-75.6803870413289">
        <ele>52.3778713</ele>
        <time>2019-09-10T15:41:37.500Z</time>
      </trkpt>
      <trkpt lat="10.1581395063321" lon="-75.6803849461675">
        <ele>52.3778713</ele>
        <time>2019-09-10T15:41:37.600Z</time>
      </trkpt>
      <trkpt lat="10.1581377820053" lon="-75.6803828588043">
        <ele>52.3778713</ele>
        <time>2019-09-10T15:41:37.700Z</time>
      </trkpt>
      <trkpt lat="10.1581360014776" lon="-75.6803807172012">
        <ele>52.3778713</ele>
        <time>2019-09-10T15:41:37.800Z</time>
      </trkpt>
      <trkpt lat="10.1581342350198" lon="-75.6803785756678">
        <ele>52.3778713</ele>
        <time>2019-09-10T15:41:37.900Z</time>
      </trkpt>
      <trkpt lat="10.1581325017561" lon="-75.680376443743">
        <ele>52.3778713</ele>
        <time>2019-09-10T15:41:38.000Z</time>
      </trkpt>
      <trkpt lat="10.1581307727394" lon="-75.6803743148122">
        <ele>52.3778713</ele>
        <time>2019-09-10T15:41:38.100Z</time>
      </trkpt>
      <trkpt lat="10.1581290368441" lon="-75.6803721894324">
        <ele>52.3778713</ele>
        <time>2019-09-10T15:41:38.200Z</time>
      </trkpt>
      <trkpt lat="10.1581272977181" lon="-75.6803700605712">
        <ele>52.3778713</ele>
        <time>2019-09-10T15:41:38.300Z</time>
      </trkpt>
      <trkpt lat="10.1581255865752" lon="-75.6803679094988">
        <ele>52.3778713</ele>
        <time>2019-09-10T15:41:38.400Z</time>
      </trkpt>
      <trkpt lat="10.1581238700128" lon="-75.6803657556413">
        <ele>52.3778713</ele>
        <time>2019-09-10T15:41:38.500Z</time>
      </trkpt>
      <trkpt lat="10.1581221160093" lon="-75.6803635938463">
        <ele>52.3778713</ele>
        <time>2019-09-10T15:41:38.600Z</time>
      </trkpt>
      <trkpt lat="10.1581203547624" lon="-75.6803614456983">
        <ele>52.3778713</ele>
        <time>2019-09-10T15:41:38.700Z</time>
      </trkpt>
      <trkpt lat="10.1581185887996" lon="-75.6803592931637">
        <ele>52.3778713</ele>
        <time>2019-09-10T15:41:38.800Z</time>
      </trkpt>
      <trkpt lat="10.158116826745" lon="-75.6803571471045">
        <ele>52.3778713</ele>
        <time>2019-09-10T15:41:38.900Z</time>
      </trkpt>
      <trkpt lat="10.1581150068741" lon="-75.6803549566926">
        <ele>52.3778713</ele>
        <time>2019-09-10T15:41:39.000Z</time>
      </trkpt>
      <trkpt lat="10.1581132058933" lon="-75.680352778187">
        <ele>52.3778713</ele>
        <time>2019-09-10T15:41:39.100Z</time>
      </trkpt>
      <trkpt lat="10.1581114581429" lon="-75.6803506328937">
        <ele>52.3778713</ele>
        <time>2019-09-10T15:41:39.200Z</time>
      </trkpt>
      <trkpt lat="10.1581079706152" lon="-75.6803463498269">
        <ele>52.3778713</ele>
        <time>2019-09-10T15:41:39.400Z</time>
      </trkpt>
      <trkpt lat="10.158106223907" lon="-75.6803441961087">
        <ele>52.3778713</ele>
        <time>2019-09-10T15:41:39.500Z</time>
      </trkpt>
      <trkpt lat="10.1581044813156" lon="-75.6803420726785">
        <ele>52.3778713</ele>
        <time>2019-09-10T15:41:39.600Z</time>
      </trkpt>
      <trkpt lat="10.1581027467232" lon="-75.6803399491786">
        <ele>52.3778713</ele>
        <time>2019-09-10T15:41:39.700Z</time>
      </trkpt>
      <trkpt lat="10.1581010050697" lon="-75.6803378581947">
        <ele>52.4778713</ele>
        <time>2019-09-10T15:41:39.800Z</time>
      </trkpt>
      <trkpt lat="10.1580992537759" lon="-75.6803357578808">
        <ele>52.4778713</ele>
        <time>2019-09-10T15:41:39.900Z</time>
      </trkpt>
      <trkpt lat="10.1580974956296" lon="-75.680333642597">
        <ele>52.4778713</ele>
        <time>2019-09-10T15:41:40.000Z</time>
      </trkpt>
      <trkpt lat="10.1580957294844" lon="-75.6803315172172">
        <ele>52.4778713</ele>
        <time>2019-09-10T15:41:40.100Z</time>
      </trkpt>
      <trkpt lat="10.1580939683157" lon="-75.6803294196187">
        <ele>52.4778713</ele>
        <time>2019-09-10T15:41:40.200Z</time>
      </trkpt>
      <trkpt lat="10.1580922130094" lon="-75.6803273261979">
        <ele>52.4778713</ele>
        <time>2019-09-10T15:41:40.300Z</time>
      </trkpt>
      <trkpt lat="10.1580904498345" lon="-75.6803252249788">
        <ele>52.4778713</ele>
        <time>2019-09-10T15:41:40.400Z</time>
      </trkpt>
      <trkpt lat="10.1580887064353" lon="-75.680323120905">
        <ele>52.4778713</ele>
        <time>2019-09-10T15:41:40.500Z</time>
      </trkpt>
      <trkpt lat="10.1580870298415" lon="-75.6803210548479">
        <ele>52.4778713</ele>
        <time>2019-09-10T15:41:40.600Z</time>
      </trkpt>
      <trkpt lat="10.1580853576249" lon="-75.6803189938735">
        <ele>52.4778713</ele>
        <time>2019-09-10T15:41:40.700Z</time>
      </trkpt>
      <trkpt lat="10.1580836763672" lon="-75.6803169766252">
        <ele>52.4778713</ele>
        <time>2019-09-10T15:41:40.800Z</time>
      </trkpt>
      <trkpt lat="10.1580819780174" lon="-75.6803149496291">
        <ele>52.4778713</ele>
        <time>2019-09-10T15:41:40.900Z</time>
      </trkpt>
      <trkpt lat="10.1580785756377" lon="-75.6803108498219">
        <ele>52.4778713</ele>
        <time>2019-09-10T15:41:41.100Z</time>
      </trkpt>
      <trkpt lat="10.1580768514152" lon="-75.6803088036085">
        <ele>52.4778713</ele>
        <time>2019-09-10T15:41:41.200Z</time>
      </trkpt>
      <trkpt lat="10.1580751257335" lon="-75.6803067607373">
        <ele>52.4778713</ele>
        <time>2019-09-10T15:41:41.300Z</time>
      </trkpt>
      <trkpt lat="10.1580734193326" lon="-75.6803047327664">
        <ele>52.4778713</ele>
        <time>2019-09-10T15:41:41.400Z</time>
      </trkpt>
      <trkpt lat="10.158071722989" lon="-75.6803027096693">
        <ele>52.3778713</ele>
        <time>2019-09-10T15:41:41.500Z</time>
      </trkpt>
      <trkpt lat="10.1580700488965" lon="-75.6803006984786">
        <ele>52.3778713</ele>
        <time>2019-09-10T15:41:41.600Z</time>
      </trkpt>
      <trkpt lat="10.1580683770447" lon="-75.6802986916745">
        <ele>52.3778713</ele>
        <time>2019-09-10T15:41:41.700Z</time>
      </trkpt>
      <trkpt lat="10.1580666819517" lon="-75.6802966710841">
        <ele>52.3778713</ele>
        <time>2019-09-10T15:41:41.800Z</time>
      </trkpt>
      <trkpt lat="10.1580649906628" lon="-75.6802946467338">
        <ele>52.3778713</ele>
        <time>2019-09-10T15:41:41.900Z</time>
      </trkpt>
      <trkpt lat="10.1580633077116" lon="-75.6802926293462">
        <ele>52.3778713</ele>
        <time>2019-09-10T15:41:42.000Z</time>
      </trkpt>
      <trkpt lat="10.158061627001" lon="-75.6802906100787">
        <ele>52.3778713</ele>
        <time>2019-09-10T15:41:42.100Z</time>
      </trkpt>
      <trkpt lat="10.158059936598" lon="-75.6802885670682">
        <ele>52.3778713</ele>
        <time>2019-09-10T15:41:42.200Z</time>
      </trkpt>
      <trkpt lat="10.1580582465076" lon="-75.6802865238489">
        <ele>52.3778713</ele>
        <time>2019-09-10T15:41:42.300Z</time>
      </trkpt>
      <trkpt lat="10.1580565468811" lon="-75.6802844972009">
        <ele>52.3778713</ele>
        <time>2019-09-10T15:41:42.400Z</time>
      </trkpt>
      <trkpt lat="10.1580548492347" lon="-75.6802824693692">
        <ele>52.3778713</ele>
        <time>2019-09-10T15:41:42.500Z</time>
      </trkpt>
      <trkpt lat="10.1580531520574" lon="-75.6802804154272">
        <ele>52.3778713</ele>
        <time>2019-09-10T15:41:42.600Z</time>
      </trkpt>
      <trkpt lat="10.1580514665527" lon="-75.6802783516677">
        <ele>52.3778713</ele>
        <time>2019-09-10T15:41:42.700Z</time>
      </trkpt>
      <trkpt lat="10.158049789542" lon="-75.6802762734954">
        <ele>52.3778713</ele>
        <time>2019-09-10T15:41:42.800Z</time>
      </trkpt>
      <trkpt lat="10.1580481215463" lon="-75.6802741941393">
        <ele>52.3778713</ele>
        <time>2019-09-10T15:41:42.900Z</time>
      </trkpt>
      <trkpt lat="10.15804640785" lon="-75.6802720925721">
        <ele>52.3778713</ele>
        <time>2019-09-10T15:41:43.000Z</time>
      </trkpt>
      <trkpt lat="10.1580446898807" lon="-75.6802700160708">
        <ele>52.3778713</ele>
        <time>2019-09-10T15:41:43.100Z</time>
      </trkpt>
      <trkpt lat="10.1580430256891" lon="-75.6802679634517">
        <ele>52.3778713</ele>
        <time>2019-09-10T15:41:43.200Z</time>
      </trkpt>
      <trkpt lat="10.1580413663438" lon="-75.6802659112504">
        <ele>52.3778713</ele>
        <time>2019-09-10T15:41:43.300Z</time>
      </trkpt>
      <trkpt lat="10.1580397114799" lon="-75.6802638894764">
        <ele>52.3778713</ele>
        <time>2019-09-10T15:41:43.400Z</time>
      </trkpt>
      <trkpt lat="10.1580380521345" lon="-75.6802618555175">
        <ele>52.3778713</ele>
        <time>2019-09-10T15:41:43.500Z</time>
      </trkpt>
      <trkpt lat="10.1580363810123" lon="-75.6802598168239">
        <ele>52.3778713</ele>
        <time>2019-09-10T15:41:43.600Z</time>
      </trkpt>
      <trkpt lat="10.1580346995201" lon="-75.6802577718638">
        <ele>52.3778713</ele>
        <time>2019-09-10T15:41:43.700Z</time>
      </trkpt>
      <trkpt lat="10.1580330368397" lon="-75.6802557333095">
        <ele>52.3778713</ele>
        <time>2019-09-10T15:41:43.800Z</time>
      </trkpt>
      <trkpt lat="10.1580313759831" lon="-75.6802536916916">
        <ele>52.3778713</ele>
        <time>2019-09-10T15:41:43.900Z</time>
      </trkpt>
      <trkpt lat="10.1580297132506" lon="-75.6802516506307">
        <ele>52.3778713</ele>
        <time>2019-09-10T15:41:44.000Z</time>
      </trkpt>
      <trkpt lat="10.1580280459324" lon="-75.6802496103357">
        <ele>52.3778713</ele>
        <time>2019-09-10T15:41:44.100Z</time>
      </trkpt>
      <trkpt lat="10.1580263676711" lon="-75.6802475403794">
        <ele>52.3778713</ele>
        <time>2019-09-10T15:41:44.200Z</time>
      </trkpt>
      <trkpt lat="10.1580246877422" lon="-75.6802454737652">
        <ele>52.3778713</ele>
        <time>2019-09-10T15:41:44.300Z</time>
      </trkpt>
      <trkpt lat="10.1580230287616" lon="-75.6802434060369">
        <ele>52.3778713</ele>
        <time>2019-09-10T15:41:44.400Z</time>
      </trkpt>
      <trkpt lat="10.1580213673318" lon="-75.6802413392835">
        <ele>52.3778713</ele>
        <time>2019-09-10T15:41:44.500Z</time>
      </trkpt>
      <trkpt lat="10.1580196962096" lon="-75.6802392591615">
        <ele>52.3778713</ele>
        <time>2019-09-10T15:41:44.600Z</time>
      </trkpt>
      <trkpt lat="10.1580180219086" lon="-75.6802371633038">
        <ele>52.3778713</ele>
        <time>2019-09-10T15:41:44.700Z</time>
      </trkpt>
      <trkpt lat="10.1580163632928" lon="-75.6802350579767">
        <ele>52.3778713</ele>
        <time>2019-09-10T15:41:44.800Z</time>
      </trkpt>
      <trkpt lat="10.1580146926395" lon="-75.6802329436676">
        <ele>52.3778713</ele>
        <time>2019-09-10T15:41:44.900Z</time>
      </trkpt>
      <trkpt lat="10.1580129969213" lon="-75.6802307848666">
        <ele>52.3778713</ele>
        <time>2019-09-10T15:41:45.000Z</time>
      </trkpt>
      <trkpt lat="10.1580112835376" lon="-75.6802286392252">
        <ele>52.3778713</ele>
        <time>2019-09-10T15:41:45.100Z</time>
      </trkpt>
      <trkpt lat="10.1580095903727" lon="-75.6802265160038">
        <ele>52.3778713</ele>
        <time>2019-09-10T15:41:45.200Z</time>
      </trkpt>
      <trkpt lat="10.1580061606873" lon="-75.680222277429">
        <ele>52.3778713</ele>
        <time>2019-09-10T15:41:45.400Z</time>
      </trkpt>
      <trkpt lat="10.1580044274497" lon="-75.6802201604741">
        <ele>52.3778713</ele>
        <time>2019-09-10T15:41:45.500Z</time>
      </trkpt>
      <trkpt lat="10.1580026957754" lon="-75.6802180078003">
        <ele>52.3778713</ele>
        <time>2019-09-10T15:41:45.600Z</time>
      </trkpt>
      <trkpt lat="10.1580009658728" lon="-75.6802158486511">
        <ele>52.3778713</ele>
        <time>2019-09-10T15:41:45.700Z</time>
      </trkpt>
      <trkpt lat="10.1579992525934" lon="-75.6802136789882">
        <ele>52.3778713</ele>
        <time>2019-09-10T15:41:45.800Z</time>
      </trkpt>
      <trkpt lat="10.1579975390534" lon="-75.6802114981849">
        <ele>52.3778713</ele>
        <time>2019-09-10T15:41:45.900Z</time>
      </trkpt>
      <trkpt lat="10.1579957852844" lon="-75.6802092183016">
        <ele>52.3778713</ele>
        <time>2019-09-10T15:41:46.000Z</time>
      </trkpt>
      <trkpt lat="10.1579940309942" lon="-75.680206959794">
        <ele>52.3778713</ele>
        <time>2019-09-10T15:41:46.100Z</time>
      </trkpt>
      <trkpt lat="10.157992349033" lon="-75.6802048204887">
        <ele>52.3778713</ele>
        <time>2019-09-10T15:41:46.200Z</time>
      </trkpt>
      <trkpt lat="10.1579907977642" lon="-75.6802027377209">
        <ele>52.3778713</ele>
        <time>2019-09-10T15:41:46.300Z</time>
      </trkpt>
      <trkpt lat="10.1579894398765" lon="-75.6802006603144">
        <ele>52.3778713</ele>
        <time>2019-09-10T15:41:46.400Z</time>
      </trkpt>
      <trkpt lat="10.1579882807891" lon="-75.6801986024036">
        <ele>52.3778713</ele>
        <time>2019-09-10T15:41:46.500Z</time>
      </trkpt>
      <trkpt lat="10.1579874371769" lon="-75.6801966411359">
        <ele>52.3778713</ele>
        <time>2019-09-10T15:41:46.600Z</time>
      </trkpt>
      <trkpt lat="10.157986836711" lon="-75.6801946986675">
        <ele>52.4778713</ele>
        <time>2019-09-10T15:41:46.700Z</time>
      </trkpt>
      <trkpt lat="10.157986531241" lon="-75.6801928121101">
        <ele>52.4778713</ele>
        <time>2019-09-10T15:41:46.800Z</time>
      </trkpt>
      <trkpt lat="10.1579864915851" lon="-75.680190933142">
        <ele>52.4778713</ele>
        <time>2019-09-10T15:41:46.900Z</time>
      </trkpt>
      <trkpt lat="10.1579868373363" lon="-75.6801892325596">
        <ele>52.4778713</ele>
        <time>2019-09-10T15:41:47.000Z</time>
      </trkpt>
      <trkpt lat="10.1579874700064" lon="-75.6801875287048">
        <ele>52.4778713</ele>
        <time>2019-09-10T15:41:47.100Z</time>
      </trkpt>
      <trkpt lat="10.1579884698449" lon="-75.6801859567941">
        <ele>52.4778713</ele>
        <time>2019-09-10T15:41:47.200Z</time>
      </trkpt>
      <trkpt lat="10.1579897293487" lon="-75.6801843550131">
        <ele>52.4778713</ele>
        <time>2019-09-10T15:41:47.300Z</time>
      </trkpt>
      <trkpt lat="10.1579913071936" lon="-75.6801829357955">
        <ele>52.4778713</ele>
        <time>2019-09-10T15:41:47.400Z</time>
      </trkpt>
      <trkpt lat="10.157993141004" lon="-75.6801815110774">
        <ele>52.4778713</ele>
        <time>2019-09-10T15:41:47.500Z</time>
      </trkpt>
      <trkpt lat="10.1579951748133" lon="-75.6801803034578">
        <ele>52.4778713</ele>
        <time>2019-09-10T15:41:47.600Z</time>
      </trkpt>
      <trkpt lat="10.1579973275902" lon="-75.6801790370726">
        <ele>52.4778713</ele>
        <time>2019-09-10T15:41:47.700Z</time>
      </trkpt>
      <trkpt lat="10.1579994936552" lon="-75.6801778712992">
        <ele>52.4778713</ele>
        <time>2019-09-10T15:41:47.800Z</time>
      </trkpt>
      <trkpt lat="10.1580017463274" lon="-75.6801766188395">
        <ele>52.4778713</ele>
        <time>2019-09-10T15:41:47.900Z</time>
      </trkpt>
      <trkpt lat="10.1580039034294" lon="-75.6801754765305">
        <ele>52.4778713</ele>
        <time>2019-09-10T15:41:48.000Z</time>
      </trkpt>
      <trkpt lat="10.1580061385926" lon="-75.6801742352112">
        <ele>52.4778713</ele>
        <time>2019-09-10T15:41:48.100Z</time>
      </trkpt>
      <trkpt lat="10.1580082810517" lon="-75.6801729799664">
        <ele>52.4778713</ele>
        <time>2019-09-10T15:41:48.200Z</time>
      </trkpt>
      <trkpt lat="10.1580105079293" lon="-75.6801716360858">
        <ele>52.4778713</ele>
        <time>2019-09-10T15:41:48.300Z</time>
      </trkpt>
      <trkpt lat="10.1580126584655" lon="-75.6801702804381">
        <ele>52.4778713</ele>
        <time>2019-09-10T15:41:48.400Z</time>
      </trkpt>
      <trkpt lat="10.1580148912836" lon="-75.680168843187">
        <ele>52.4778713</ele>
        <time>2019-09-10T15:41:48.500Z</time>
      </trkpt>
      <trkpt lat="10.1580171090941" lon="-75.6801673792685">
        <ele>52.4778713</ele>
        <time>2019-09-10T15:41:48.600Z</time>
      </trkpt>
      <trkpt lat="10.1580193831836" lon="-75.6801658462796">
        <ele>52.4778713</ele>
        <time>2019-09-10T15:41:48.700Z</time>
      </trkpt>
      <trkpt lat="10.1580215874975" lon="-75.6801642564746">
        <ele>52.4778713</ele>
        <time>2019-09-10T15:41:48.800Z</time>
      </trkpt>
      <trkpt lat="10.1580238392838" lon="-75.6801626107587">
        <ele>52.4778713</ele>
        <time>2019-09-10T15:41:48.900Z</time>
      </trkpt>
      <trkpt lat="10.1580260953952" lon="-75.6801608717419">
        <ele>52.4778713</ele>
        <time>2019-09-10T15:41:49.000Z</time>
      </trkpt>
      <trkpt lat="10.1580283896513" lon="-75.6801591003484">
        <ele>52.4778713</ele>
        <time>2019-09-10T15:41:49.100Z</time>
      </trkpt>
      <trkpt lat="10.1580306723911" lon="-75.6801572827222">
        <ele>52.4778713</ele>
        <time>2019-09-10T15:41:49.200Z</time>
      </trkpt>
      <trkpt lat="10.1580329756623" lon="-75.6801554379412">
        <ele>52.4778713</ele>
        <time>2019-09-10T15:41:49.300Z</time>
      </trkpt>
      <trkpt lat="10.1580353192668" lon="-75.6801534865606">
        <ele>52.4778713</ele>
        <time>2019-09-10T15:41:49.400Z</time>
      </trkpt>
      <trkpt lat="10.158037671261" lon="-75.6801515356673">
        <ele>52.4778713</ele>
        <time>2019-09-10T15:41:49.500Z</time>
      </trkpt>
      <trkpt lat="10.1580400603056" lon="-75.6801495256603">
        <ele>52.4778713</ele>
        <time>2019-09-10T15:41:49.600Z</time>
      </trkpt>
      <trkpt lat="10.1580424414295" lon="-75.6801475372378">
        <ele>52.4778713</ele>
        <time>2019-09-10T15:41:49.700Z</time>
      </trkpt>
      <trkpt lat="10.1580448282333" lon="-75.6801455030003">
        <ele>52.4778713</ele>
        <time>2019-09-10T15:41:49.800Z</time>
      </trkpt>
      <trkpt lat="10.1580471863765" lon="-75.6801434767701">
        <ele>52.4778713</ele>
        <time>2019-09-10T15:41:49.900Z</time>
      </trkpt>
      <trkpt lat="10.1580495478027" lon="-75.6801414013132">
        <ele>52.4778713</ele>
        <time>2019-09-10T15:41:50.000Z</time>
      </trkpt>
      <trkpt lat="10.1580518844766" lon="-75.6801393515489">
        <ele>52.4778713</ele>
        <time>2019-09-10T15:41:50.100Z</time>
      </trkpt>
      <trkpt lat="10.15805656908" lon="-75.6801352642746">
        <ele>52.4778713</ele>
        <time>2019-09-10T15:41:50.300Z</time>
      </trkpt>
      <trkpt lat="10.158058910079" lon="-75.6801331920206">
        <ele>52.4778713</ele>
        <time>2019-09-10T15:41:50.400Z</time>
      </trkpt>
      <trkpt lat="10.1580611965707" lon="-75.6801311575047">
        <ele>52.4778713</ele>
        <time>2019-09-10T15:41:50.500Z</time>
      </trkpt>
      <trkpt lat="10.1580634307438" lon="-75.6801290902638">
        <ele>52.4778713</ele>
        <time>2019-09-10T15:41:50.600Z</time>
      </trkpt>
      <trkpt lat="10.15806560968" lon="-75.6801270494118">
        <ele>52.4778713</ele>
        <time>2019-09-10T15:41:50.700Z</time>
      </trkpt>
      <trkpt lat="10.1580677582881" lon="-75.6801249377486">
        <ele>52.4778713</ele>
        <time>2019-09-10T15:41:50.800Z</time>
      </trkpt>
      <trkpt lat="10.1580698742752" lon="-75.6801228746854">
        <ele>52.4778713</ele>
        <time>2019-09-10T15:41:50.900Z</time>
      </trkpt>
      <trkpt lat="10.1580719568597" lon="-75.6801207915695">
        <ele>52.4778713</ele>
        <time>2019-09-10T15:41:51.000Z</time>
      </trkpt>
      <trkpt lat="10.158074029439" lon="-75.6801187443117">
        <ele>52.4778713</ele>
        <time>2019-09-10T15:41:51.100Z</time>
      </trkpt>
      <trkpt lat="10.158076054129" lon="-75.6801166939904">
        <ele>52.4778713</ele>
        <time>2019-09-10T15:41:51.200Z</time>
      </trkpt>
      <trkpt lat="10.1580780204556" lon="-75.6801147630802">
        <ele>52.4778713</ele>
        <time>2019-09-10T15:41:51.300Z</time>
      </trkpt>
      <trkpt lat="10.1580799212275" lon="-75.6801129410674">
        <ele>52.4778713</ele>
        <time>2019-09-10T15:41:51.400Z</time>
      </trkpt>
      <trkpt lat="10.158081788232" lon="-75.6801113440908">
        <ele>52.4778713</ele>
        <time>2019-09-10T15:41:51.500Z</time>
      </trkpt>
      <trkpt lat="10.1580835918184" lon="-75.6801099988873">
        <ele>52.3778713</ele>
        <time>2019-09-10T15:41:51.600Z</time>
      </trkpt>
      <trkpt lat="10.1580853677604" lon="-75.6801089635262">
        <ele>52.4778713</ele>
        <time>2019-09-10T15:41:51.700Z</time>
      </trkpt>
      <trkpt lat="10.1580870641561" lon="-75.6801082647444">
        <ele>52.4778713</ele>
        <time>2019-09-10T15:41:51.800Z</time>
      </trkpt>
      <trkpt lat="10.1580887363466" lon="-75.6801078833249">
        <ele>52.4778713</ele>
        <time>2019-09-10T15:41:51.900Z</time>
      </trkpt>
      <trkpt lat="10.1580903014246" lon="-75.6801078556132">
        <ele>52.4778713</ele>
        <time>2019-09-10T15:41:52.000Z</time>
      </trkpt>
      <trkpt lat="10.1580918537095" lon="-75.6801081466562">
        <ele>52.4778713</ele>
        <time>2019-09-10T15:41:52.100Z</time>
      </trkpt>
      <trkpt lat="10.1580932050575" lon="-75.6801088021296">
        <ele>52.4778713</ele>
        <time>2019-09-10T15:41:52.200Z</time>
      </trkpt>
      <trkpt lat="10.1580945649255" lon="-75.6801097588116">
        <ele>52.4778713</ele>
        <time>2019-09-10T15:41:52.300Z</time>
      </trkpt>
      <trkpt lat="10.1580957309174" lon="-75.6801110359891">
        <ele>52.4778713</ele>
        <time>2019-09-10T15:41:52.400Z</time>
      </trkpt>
      <trkpt lat="10.1580969470133" lon="-75.6801126213379">
        <ele>52.4778713</ele>
        <time>2019-09-10T15:41:52.500Z</time>
      </trkpt>
      <trkpt lat="10.158097976685" lon="-75.6801145055976">
        <ele>52.4778713</ele>
        <time>2019-09-10T15:41:52.600Z</time>
      </trkpt>
      <trkpt lat="10.1580990657102" lon="-75.6801165830737">
        <ele>52.4778713</ele>
        <time>2019-09-10T15:41:52.700Z</time>
      </trkpt>
      <trkpt lat="10.1580999874876" lon="-75.6801187221005">
        <ele>52.4778713</ele>
        <time>2019-09-10T15:41:52.800Z</time>
      </trkpt>
      <trkpt lat="10.1581010281806" lon="-75.6801209905649">
        <ele>52.4778713</ele>
        <time>2019-09-10T15:41:52.900Z</time>
      </trkpt>
      <trkpt lat="10.1581019862789" lon="-75.680123216835">
        <ele>52.4778713</ele>
        <time>2019-09-10T15:41:53.000Z</time>
      </trkpt>
      <trkpt lat="10.1581031029225" lon="-75.6801255308358">
        <ele>52.4778713</ele>
        <time>2019-09-10T15:41:53.100Z</time>
      </trkpt>
      <trkpt lat="10.1581042110982" lon="-75.680127761562">
        <ele>52.4778713</ele>
        <time>2019-09-10T15:41:53.200Z</time>
      </trkpt>
      <trkpt lat="10.1581054448334" lon="-75.6801301079395">
        <ele>52.4778713</ele>
        <time>2019-09-10T15:41:53.300Z</time>
      </trkpt>
      <trkpt lat="10.158106728855" lon="-75.6801324257698">
        <ele>52.4778713</ele>
        <time>2019-09-10T15:41:53.400Z</time>
      </trkpt>
      <trkpt lat="10.1581081335377" lon="-75.6801348329322">
        <ele>52.4778713</ele>
        <time>2019-09-10T15:41:53.500Z</time>
      </trkpt>
      <trkpt lat="10.1581095695648" lon="-75.680137120196">
        <ele>52.4778713</ele>
        <time>2019-09-10T15:41:53.600Z</time>
      </trkpt>
      <trkpt lat="10.1581110946742" lon="-75.6801394571738">
        <ele>52.4778713</ele>
        <time>2019-09-10T15:41:53.700Z</time>
      </trkpt>
      <trkpt lat="10.1581126959167" lon="-75.680141746596">
        <ele>52.4778713</ele>
        <time>2019-09-10T15:41:53.800Z</time>
      </trkpt>
      <trkpt lat="10.158114361854" lon="-75.6801441091272">
        <ele>52.4778713</ele>
        <time>2019-09-10T15:41:53.900Z</time>
      </trkpt>
      <trkpt lat="10.1581161349038" lon="-75.6801464896918">
        <ele>52.4778713</ele>
        <time>2019-09-10T15:41:54.000Z</time>
      </trkpt>
      <trkpt lat="10.1581179400014" lon="-75.6801489265155">
        <ele>52.4778713</ele>
        <time>2019-09-10T15:41:54.100Z</time>
      </trkpt>
      <trkpt lat="10.1581197376473" lon="-75.6801513256707">
        <ele>52.4778713</ele>
        <time>2019-09-10T15:41:54.200Z</time>
      </trkpt>
      <trkpt lat="10.1581215504311" lon="-75.6801537564368">
        <ele>52.4778713</ele>
        <time>2019-09-10T15:41:54.300Z</time>
      </trkpt>
      <trkpt lat="10.1581233961747" lon="-75.6801561745307">
        <ele>52.4778713</ele>
        <time>2019-09-10T15:41:54.400Z</time>
      </trkpt>
      <trkpt lat="10.1581252633877" lon="-75.6801586218681">
        <ele>52.4778713</ele>
        <time>2019-09-10T15:41:54.500Z</time>
      </trkpt>
      <trkpt lat="10.158127232424" lon="-75.6801611268572">
        <ele>52.4778713</ele>
        <time>2019-09-10T15:41:54.600Z</time>
      </trkpt>
      <trkpt lat="10.1581292027109" lon="-75.6801636353275">
        <ele>52.4778713</ele>
        <time>2019-09-10T15:41:54.700Z</time>
      </trkpt>
      <trkpt lat="10.1581311934772" lon="-75.6801661049458">
        <ele>52.4778713</ele>
        <time>2019-09-10T15:41:54.800Z</time>
      </trkpt>
      <trkpt lat="10.1581371750256" lon="-75.6801735649071">
        <ele>52.4778713</ele>
        <time>2019-09-10T15:41:55.100Z</time>
      </trkpt>
      <trkpt lat="10.158139215974" lon="-75.6801760371712">
        <ele>52.3778713</ele>
        <time>2019-09-10T15:41:55.200Z</time>
      </trkpt>
      <trkpt lat="10.1581412120294" lon="-75.6801784787296">
        <ele>52.3778713</ele>
        <time>2019-09-10T15:41:55.300Z</time>
      </trkpt>
      <trkpt lat="10.1581431995128" lon="-75.6801808808091">
        <ele>52.3778713</ele>
        <time>2019-09-10T15:41:55.400Z</time>
      </trkpt>
      <trkpt lat="10.1581451376998" lon="-75.6801832624878">
        <ele>52.3778713</ele>
        <time>2019-09-10T15:41:55.500Z</time>
      </trkpt>
      <trkpt lat="10.1581471237762" lon="-75.6801856100491">
        <ele>52.3778713</ele>
        <time>2019-09-10T15:41:55.600Z</time>
      </trkpt>
      <trkpt lat="10.1581490685552" lon="-75.6801879429885">
        <ele>52.3778713</ele>
        <time>2019-09-10T15:41:55.700Z</time>
      </trkpt>
      <trkpt lat="10.1581510525993" lon="-75.6801902418104">
        <ele>52.3778713</ele>
        <time>2019-09-10T15:41:55.800Z</time>
      </trkpt>
      <trkpt lat="10.1581529948509" lon="-75.6801925225989">
        <ele>52.3778713</ele>
        <time>2019-09-10T15:41:55.900Z</time>
      </trkpt>
      <trkpt lat="10.1581549981497" lon="-75.6801947939179">
        <ele>52.3778713</ele>
        <time>2019-09-10T15:41:56.000Z</time>
      </trkpt>
      <trkpt lat="10.1581569492862" lon="-75.6801970459502">
        <ele>52.3778713</ele>
        <time>2019-09-10T15:41:56.100Z</time>
      </trkpt>
      <trkpt lat="10.158158950266" lon="-75.6801992460404">
        <ele>52.3778713</ele>
        <time>2019-09-10T15:41:56.200Z</time>
      </trkpt>
      <trkpt lat="10.1581608958788" lon="-75.6802014416743">
        <ele>52.3778713</ele>
        <time>2019-09-10T15:41:56.300Z</time>
      </trkpt>
      <trkpt lat="10.1581628557698" lon="-75.6802035504132">
        <ele>52.3778713</ele>
        <time>2019-09-10T15:41:56.400Z</time>
      </trkpt>
      <trkpt lat="10.1581647676152" lon="-75.6802056555314">
        <ele>52.3778713</ele>
        <time>2019-09-10T15:41:56.500Z</time>
      </trkpt>
      <trkpt lat="10.1581667013989" lon="-75.6802077062009">
        <ele>52.3778713</ele>
        <time>2019-09-10T15:41:56.600Z</time>
      </trkpt>
      <trkpt lat="10.1581705036984" lon="-75.680211826409">
        <ele>52.3778713</ele>
        <time>2019-09-10T15:41:56.800Z</time>
      </trkpt>
      <trkpt lat="10.1581723704163" lon="-75.6802138891937">
        <ele>52.3778713</ele>
        <time>2019-09-10T15:41:56.900Z</time>
      </trkpt>
      <trkpt lat="10.1581742906254" lon="-75.6802159381921">
        <ele>52.3778713</ele>
        <time>2019-09-10T15:41:57.000Z</time>
      </trkpt>
      <trkpt lat="10.1581761646127" lon="-75.6802179945014">
        <ele>52.3778713</ele>
        <time>2019-09-10T15:41:57.100Z</time>
      </trkpt>
      <trkpt lat="10.1581780315911" lon="-75.6802200579824">
        <ele>52.3778713</ele>
        <time>2019-09-10T15:41:57.200Z</time>
      </trkpt>
      <trkpt lat="10.1581798421343" lon="-75.6802221314897">
        <ele>52.3778713</ele>
        <time>2019-09-10T15:41:57.300Z</time>
      </trkpt>
      <trkpt lat="10.1581816862103" lon="-75.6802241886346">
        <ele>52.3778713</ele>
        <time>2019-09-10T15:41:57.400Z</time>
      </trkpt>
      <trkpt lat="10.1581834844815" lon="-75.6802262549703">
        <ele>52.3778713</ele>
        <time>2019-09-10T15:41:57.500Z</time>
      </trkpt>
      <trkpt lat="10.1581852771247" lon="-75.6802282751429">
        <ele>52.3778713</ele>
        <time>2019-09-10T15:41:57.600Z</time>
      </trkpt>
      <trkpt lat="10.1581870266989" lon="-75.6802303081967">
        <ele>52.3778713</ele>
        <time>2019-09-10T15:41:57.700Z</time>
      </trkpt>
      <trkpt lat="10.1581887883105" lon="-75.6802323665252">
        <ele>52.3778713</ele>
        <time>2019-09-10T15:41:57.800Z</time>
      </trkpt>
      <trkpt lat="10.1581905147478" lon="-75.6802344470649">
        <ele>52.3778713</ele>
        <time>2019-09-10T15:41:57.900Z</time>
      </trkpt>
      <trkpt lat="10.1581939937034" lon="-75.6802387300621">
        <ele>52.3778713</ele>
        <time>2019-09-10T15:41:58.100Z</time>
      </trkpt>
      <trkpt lat="10.1581957330119" lon="-75.680240844023">
        <ele>52.3778713</ele>
        <time>2019-09-10T15:41:58.200Z</time>
      </trkpt>
      <trkpt lat="10.158197437172" lon="-75.6802429543633">
        <ele>52.3778713</ele>
        <time>2019-09-10T15:41:58.300Z</time>
      </trkpt>
      <trkpt lat="10.158199165355" lon="-75.6802450635199">
        <ele>52.3778713</ele>
        <time>2019-09-10T15:41:58.400Z</time>
      </trkpt>
      <trkpt lat="10.158200854794" lon="-75.6802471778289">
        <ele>52.3778713</ele>
        <time>2019-09-10T15:41:58.500Z</time>
      </trkpt>
      <trkpt lat="10.1582025776616" lon="-75.6802492844093">
        <ele>52.3778713</ele>
        <time>2019-09-10T15:41:58.600Z</time>
      </trkpt>
      <trkpt lat="10.1582042616291" lon="-75.6802514005287">
        <ele>52.3778713</ele>
        <time>2019-09-10T15:41:58.700Z</time>
      </trkpt>
      <trkpt lat="10.1582058396043" lon="-75.6802534083076">
        <ele>52.3778713</ele>
        <time>2019-09-10T15:41:58.800Z</time>
      </trkpt>
      <trkpt lat="10.1582073979862" lon="-75.6802554268092">
        <ele>52.3778713</ele>
        <time>2019-09-10T15:41:58.900Z</time>
      </trkpt>
      <trkpt lat="10.158209016894" lon="-75.6802575108999">
        <ele>52.3778713</ele>
        <time>2019-09-10T15:41:59.000Z</time>
      </trkpt>
      <trkpt lat="10.1582106408565" lon="-75.6802596301525">
        <ele>52.3778713</ele>
        <time>2019-09-10T15:41:59.100Z</time>
      </trkpt>
      <trkpt lat="10.1582122914213" lon="-75.6802617487785">
        <ele>52.3778713</ele>
        <time>2019-09-10T15:41:59.200Z</time>
      </trkpt>
      <trkpt lat="10.1582139273952" lon="-75.6802638688666">
        <ele>52.3778713</ele>
        <time>2019-09-10T15:41:59.300Z</time>
      </trkpt>
      <trkpt lat="10.1582156182412" lon="-75.6802660146473">
        <ele>52.3778713</ele>
        <time>2019-09-10T15:41:59.400Z</time>
      </trkpt>
      <trkpt lat="10.158217284413" lon="-75.6802681646056">
        <ele>52.3778713</ele>
        <time>2019-09-10T15:41:59.500Z</time>
      </trkpt>
      <trkpt lat="10.1582189653319" lon="-75.6802702967393">
        <ele>52.3778713</ele>
        <time>2019-09-10T15:41:59.600Z</time>
      </trkpt>
      <trkpt lat="10.1582206262406" lon="-75.6802724226065">
        <ele>52.3778713</ele>
        <time>2019-09-10T15:41:59.700Z</time>
      </trkpt>
      <trkpt lat="10.1582222997078" lon="-75.6802745593356">
        <ele>52.3778713</ele>
        <time>2019-09-10T15:41:59.800Z</time>
      </trkpt>
      <trkpt lat="10.1582239547801" lon="-75.6802766945329">
        <ele>52.3778713</ele>
        <time>2019-09-10T15:41:59.900Z</time>
      </trkpt>
      <trkpt lat="10.1582256170176" lon="-75.6802787769526">
        <ele>52.3778713</ele>
        <time>2019-09-10T15:42:00.000Z</time>
      </trkpt>
      <trkpt lat="10.1582272587757" lon="-75.6802808655691">
        <ele>52.3778713</ele>
        <time>2019-09-10T15:42:00.100Z</time>
      </trkpt>
      <trkpt lat="10.1582289306797" lon="-75.6802830055707">
        <ele>52.3778713</ele>
        <time>2019-09-10T15:42:00.200Z</time>
      </trkpt>
      <trkpt lat="10.1582305894257" lon="-75.6802851551113">
        <ele>52.3778713</ele>
        <time>2019-09-10T15:42:00.300Z</time>
      </trkpt>
      <trkpt lat="10.1582322550243" lon="-75.6802872877323">
        <ele>52.3778713</ele>
        <time>2019-09-10T15:42:00.400Z</time>
      </trkpt>
      <trkpt lat="10.1582339014463" lon="-75.6802894128336">
        <ele>52.3778713</ele>
        <time>2019-09-10T15:42:00.500Z</time>
      </trkpt>
      <trkpt lat="10.1582355432045" lon="-75.6802915527656">
        <ele>52.3778713</ele>
        <time>2019-09-10T15:42:00.600Z</time>
      </trkpt>
      <trkpt lat="10.1582371668543" lon="-75.6802936929065">
        <ele>52.3778713</ele>
        <time>2019-09-10T15:42:00.700Z</time>
      </trkpt>
      <trkpt lat="10.1582387953244" lon="-75.6802958430041">
        <ele>52.3778713</ele>
        <time>2019-09-10T15:42:00.800Z</time>
      </trkpt>
      <trkpt lat="10.1582404200425" lon="-75.6802979887151">
        <ele>52.3778713</ele>
        <time>2019-09-10T15:42:00.900Z</time>
      </trkpt>
      <trkpt lat="10.1582420694088" lon="-75.6803001143735">
        <ele>52.3778713</ele>
        <time>2019-09-10T15:42:01.000Z</time>
      </trkpt>
      <trkpt lat="10.1582437117922" lon="-75.6803022371074">
        <ele>52.3778713</ele>
        <time>2019-09-10T15:42:01.100Z</time>
      </trkpt>
      <trkpt lat="10.1582453684539" lon="-75.6803043720958">
        <ele>52.3778713</ele>
        <time>2019-09-10T15:42:01.200Z</time>
      </trkpt>
      <trkpt lat="10.1582470189926" lon="-75.6803065084072">
        <ele>52.3778713</ele>
        <time>2019-09-10T15:42:01.300Z</time>
      </trkpt>
      <trkpt lat="10.1582486950393" lon="-75.6803086125506">
        <ele>52.3778713</ele>
        <time>2019-09-10T15:42:01.400Z</time>
      </trkpt>
      <trkpt lat="10.1582503773131" lon="-75.6803107093832">
        <ele>52.3778713</ele>
        <time>2019-09-10T15:42:01.500Z</time>
      </trkpt>
      <trkpt lat="10.1582520663613" lon="-75.6803128190272">
        <ele>52.3778713</ele>
        <time>2019-09-10T15:42:01.600Z</time>
      </trkpt>
      <trkpt lat="10.1582537502245" lon="-75.6803149264431">
        <ele>52.3778713</ele>
        <time>2019-09-10T15:42:01.700Z</time>
      </trkpt>
      <trkpt lat="10.1582554599083" lon="-75.6803170218831">
        <ele>52.3778713</ele>
        <time>2019-09-10T15:42:01.800Z</time>
      </trkpt>
      <trkpt lat="10.1582571664134" lon="-75.6803191181586">
        <ele>52.3778713</ele>
        <time>2019-09-10T15:42:01.900Z</time>
      </trkpt>
      <trkpt lat="10.1582588737002" lon="-75.6803212156874">
        <ele>52.3778713</ele>
        <time>2019-09-10T15:42:02.000Z</time>
      </trkpt>
      <trkpt lat="10.1582605717894" lon="-75.6803233179509">
        <ele>52.3778713</ele>
        <time>2019-09-10T15:42:02.100Z</time>
      </trkpt>
      <trkpt lat="10.1582623022652" lon="-75.6803254510594">
        <ele>52.3778713</ele>
        <time>2019-09-10T15:42:02.200Z</time>
      </trkpt>
      <trkpt lat="10.1582640184889" lon="-75.6803275759518">
        <ele>52.3778713</ele>
        <time>2019-09-10T15:42:02.300Z</time>
      </trkpt>
      <trkpt lat="10.1582657239778" lon="-75.6803296890076">
        <ele>52.3778713</ele>
        <time>2019-09-10T15:42:02.400Z</time>
      </trkpt>
      <trkpt lat="10.1582674129478" lon="-75.680331790714">
        <ele>52.3778713</ele>
        <time>2019-09-10T15:42:02.500Z</time>
      </trkpt>
      <trkpt lat="10.1582690957167" lon="-75.6803338916546">
        <ele>52.3778713</ele>
        <time>2019-09-10T15:42:02.600Z</time>
      </trkpt>
      <trkpt lat="10.1582707651454" lon="-75.6803359893923">
        <ele>52.3778713</ele>
        <time>2019-09-10T15:42:02.700Z</time>
      </trkpt>
      <trkpt lat="10.1582724378831" lon="-75.6803380837879">
        <ele>52.3778713</ele>
        <time>2019-09-10T15:42:02.800Z</time>
      </trkpt>
      <trkpt lat="10.1582741010325" lon="-75.680340178462">
        <ele>52.3778713</ele>
        <time>2019-09-10T15:42:02.900Z</time>
      </trkpt>
      <trkpt lat="10.158277428165" lon="-75.6803443901606">
        <ele>52.3778713</ele>
        <time>2019-09-10T15:42:03.100Z</time>
      </trkpt>
      <trkpt lat="10.1582790511895" lon="-75.6803464029527">
        <ele>52.3778713</ele>
        <time>2019-09-10T15:42:03.200Z</time>
      </trkpt>
      <trkpt lat="10.158282352762" lon="-75.6803505045702">
        <ele>52.3778713</ele>
        <time>2019-09-10T15:42:03.400Z</time>
      </trkpt>
      <trkpt lat="10.1582840370682" lon="-75.6803526154675">
        <ele>52.3778713</ele>
        <time>2019-09-10T15:42:03.500Z</time>
      </trkpt>
      <trkpt lat="10.1582857447979" lon="-75.6803547480886">
        <ele>52.3778713</ele>
        <time>2019-09-10T15:42:03.600Z</time>
      </trkpt>
      <trkpt lat="10.1582874414541" lon="-75.6803568770194">
        <ele>52.3778713</ele>
        <time>2019-09-10T15:42:03.700Z</time>
      </trkpt>
      <trkpt lat="10.1582891330296" lon="-75.6803590081087">
        <ele>52.3778713</ele>
        <time>2019-09-10T15:42:03.800Z</time>
      </trkpt>
      <trkpt lat="10.1582908199934" lon="-75.6803611369003">
        <ele>52.3778713</ele>
        <time>2019-09-10T15:42:03.900Z</time>
      </trkpt>
      <trkpt lat="10.1582925335594" lon="-75.6803632553173">
        <ele>52.3778713</ele>
        <time>2019-09-10T15:42:04.000Z</time>
      </trkpt>
      <trkpt lat="10.1582942576256" lon="-75.6803653626637">
        <ele>52.3778713</ele>
        <time>2019-09-10T15:42:04.100Z</time>
      </trkpt>
      <trkpt lat="10.1582959937033" lon="-75.680367457477">
        <ele>52.3778713</ele>
        <time>2019-09-10T15:42:04.200Z</time>
      </trkpt>
      <trkpt lat="10.1582977309013" lon="-75.6803695560502">
        <ele>52.3778713</ele>
        <time>2019-09-10T15:42:04.300Z</time>
      </trkpt>
      <trkpt lat="10.1582994981148" lon="-75.6803716473822">
        <ele>52.3778713</ele>
        <time>2019-09-10T15:42:04.400Z</time>
      </trkpt>
      <trkpt lat="10.1583012586712" lon="-75.6803737429614">
        <ele>52.3778713</ele>
        <time>2019-09-10T15:42:04.500Z</time>
      </trkpt>
      <trkpt lat="10.1583030271483" lon="-75.68037587419">
        <ele>52.3778713</ele>
        <time>2019-09-10T15:42:04.600Z</time>
      </trkpt>
      <trkpt lat="10.1583047923816" lon="-75.6803780050007">
        <ele>52.3778713</ele>
        <time>2019-09-10T15:42:04.700Z</time>
      </trkpt>
      <trkpt lat="10.1583065457077" lon="-75.6803801344886">
        <ele>52.3778713</ele>
        <time>2019-09-10T15:42:04.800Z</time>
      </trkpt>
      <trkpt lat="10.1583082813163" lon="-75.6803822565959">
        <ele>52.3778713</ele>
        <time>2019-09-10T15:42:04.900Z</time>
      </trkpt>
      <trkpt lat="10.1583100005754" lon="-75.6803843331668">
        <ele>52.3778713</ele>
        <time>2019-09-10T15:42:05.000Z</time>
      </trkpt>
      <trkpt lat="10.1583117244983" lon="-75.6803864028446">
        <ele>52.3778713</ele>
        <time>2019-09-10T15:42:05.100Z</time>
      </trkpt>
      <trkpt lat="10.1583134715452" lon="-75.6803884508683">
        <ele>52.3778713</ele>
        <time>2019-09-10T15:42:05.200Z</time>
      </trkpt>
      <trkpt lat="10.1583152429144" lon="-75.6803904967335">
        <ele>52.3778713</ele>
        <time>2019-09-10T15:42:05.300Z</time>
      </trkpt>
      <trkpt lat="10.1583170278584" lon="-75.6803925084116">
        <ele>52.2778713</ele>
        <time>2019-09-10T15:42:05.400Z</time>
      </trkpt>
      <trkpt lat="10.1583188179874" lon="-75.6803945247547">
        <ele>52.2778713</ele>
        <time>2019-09-10T15:42:05.500Z</time>
      </trkpt>
      <trkpt lat="10.1583205647606" lon="-75.6803965383128">
        <ele>52.2778713</ele>
        <time>2019-09-10T15:42:05.600Z</time>
      </trkpt>
      <trkpt lat="10.1583222883057" lon="-75.6803985857098">
        <ele>52.2778713</ele>
        <time>2019-09-10T15:42:05.700Z</time>
      </trkpt>
      <trkpt lat="10.1583240085288" lon="-75.6804006480767">
        <ele>52.2778713</ele>
        <time>2019-09-10T15:42:05.800Z</time>
      </trkpt>
      <trkpt lat="10.1583257362037" lon="-75.6804027009047">
        <ele>52.2778713</ele>
        <time>2019-09-10T15:42:05.900Z</time>
      </trkpt>
      <trkpt lat="10.1583274672918" lon="-75.680404695524">
        <ele>52.2778713</ele>
        <time>2019-09-10T15:42:06.000Z</time>
      </trkpt>
      <trkpt lat="10.1583291827077" lon="-75.6804066911878">
        <ele>52.2778713</ele>
        <time>2019-09-10T15:42:06.100Z</time>
      </trkpt>
      <trkpt lat="10.1583308842754" lon="-75.6804086888011">
        <ele>52.2778713</ele>
        <time>2019-09-10T15:42:06.200Z</time>
      </trkpt>
      <trkpt lat="10.1583325951316" lon="-75.6804107024288">
        <ele>52.3778713</ele>
        <time>2019-09-10T15:42:06.300Z</time>
      </trkpt>
      <trkpt lat="10.1583342995784" lon="-75.6804127400779">
        <ele>52.3778713</ele>
        <time>2019-09-10T15:42:06.400Z</time>
      </trkpt>
      <trkpt lat="10.1583360021752" lon="-75.6804147843417">
        <ele>52.3778713</ele>
        <time>2019-09-10T15:42:06.500Z</time>
      </trkpt>
      <trkpt lat="10.1583377391127" lon="-75.6804167993619">
        <ele>52.3778713</ele>
        <time>2019-09-10T15:42:06.600Z</time>
      </trkpt>
      <trkpt lat="10.1583394809354" lon="-75.6804188191168">
        <ele>52.3778713</ele>
        <time>2019-09-10T15:42:06.700Z</time>
      </trkpt>
      <trkpt lat="10.158341187675" lon="-75.680420825364">
        <ele>52.3778713</ele>
        <time>2019-09-10T15:42:06.800Z</time>
      </trkpt>
      <trkpt lat="10.1583428813219" lon="-75.6804228458847">
        <ele>52.2778713</ele>
        <time>2019-09-10T15:42:06.900Z</time>
      </trkpt>
      <trkpt lat="10.1583445702398" lon="-75.6804248813058">
        <ele>52.2778713</ele>
        <time>2019-09-10T15:42:07.000Z</time>
      </trkpt>
      <trkpt lat="10.1583462529696" lon="-75.6804269236897">
        <ele>52.2778713</ele>
        <time>2019-09-10T15:42:07.100Z</time>
      </trkpt>
      <trkpt lat="10.1583479167574" lon="-75.6804289391276">
        <ele>52.2778713</ele>
        <time>2019-09-10T15:42:07.200Z</time>
      </trkpt>
      <trkpt lat="10.1583495703315" lon="-75.6804309705103">
        <ele>52.2778713</ele>
        <time>2019-09-10T15:42:07.300Z</time>
      </trkpt>
      <trkpt lat="10.1583512322954" lon="-75.6804330145652">
        <ele>52.2778713</ele>
        <time>2019-09-10T15:42:07.400Z</time>
      </trkpt>
      <trkpt lat="10.1583529009945" lon="-75.6804350692731">
        <ele>52.2778713</ele>
        <time>2019-09-10T15:42:07.500Z</time>
      </trkpt>
      <trkpt lat="10.1583545640788" lon="-75.6804371267661">
        <ele>52.2778713</ele>
        <time>2019-09-10T15:42:07.600Z</time>
      </trkpt>
      <trkpt lat="10.1583579013077" lon="-75.6804412615959">
        <ele>52.3778713</ele>
        <time>2019-09-10T15:42:07.800Z</time>
      </trkpt>
      <trkpt lat="10.1583595844544" lon="-75.680443341509">
        <ele>52.3778713</ele>
        <time>2019-09-10T15:42:07.900Z</time>
      </trkpt>
      <trkpt lat="10.1583613647475" lon="-75.6804454579069">
        <ele>52.3778713</ele>
        <time>2019-09-10T15:42:08.000Z</time>
      </trkpt>
      <trkpt lat="10.1583631590453" lon="-75.6804475778557">
        <ele>52.3778713</ele>
        <time>2019-09-10T15:42:08.100Z</time>
      </trkpt>
      <trkpt lat="10.1583668008844" lon="-75.6804518949704">
        <ele>52.3778713</ele>
        <time>2019-09-10T15:42:08.300Z</time>
      </trkpt>
      <trkpt lat="10.1583685989211" lon="-75.6804540439539">
        <ele>52.3778713</ele>
        <time>2019-09-10T15:42:08.400Z</time>
      </trkpt>
      <trkpt lat="10.1583703884638" lon="-75.6804561773409">
        <ele>52.3778713</ele>
        <time>2019-09-10T15:42:08.500Z</time>
      </trkpt>
      <trkpt lat="10.158372176352" lon="-75.680458321172">
        <ele>52.3778713</ele>
        <time>2019-09-10T15:42:08.600Z</time>
      </trkpt>
      <trkpt lat="10.1583739380809" lon="-75.6804604595026">
        <ele>52.3778713</ele>
        <time>2019-09-10T15:42:08.700Z</time>
      </trkpt>
      <trkpt lat="10.1583757007738" lon="-75.6804626104357">
        <ele>52.3778713</ele>
        <time>2019-09-10T15:42:08.800Z</time>
      </trkpt>
      <trkpt lat="10.1583774679482" lon="-75.6804647435442">
        <ele>52.3778713</ele>
        <time>2019-09-10T15:42:08.900Z</time>
      </trkpt>
      <trkpt lat="10.1583792230982" lon="-75.6804668545807">
        <ele>52.3778713</ele>
        <time>2019-09-10T15:42:09.000Z</time>
      </trkpt>
      <trkpt lat="10.1583809699756" lon="-75.6804689599078">
        <ele>52.3778713</ele>
        <time>2019-09-10T15:42:09.100Z</time>
      </trkpt>
      <trkpt lat="10.1583826987709" lon="-75.6804710548604">
        <ele>52.3778713</ele>
        <time>2019-09-10T15:42:09.200Z</time>
      </trkpt>
      <trkpt lat="10.1583844209351" lon="-75.6804731475153">
        <ele>52.3778713</ele>
        <time>2019-09-10T15:42:09.300Z</time>
      </trkpt>
      <trkpt lat="10.1583860941026" lon="-75.6804751938679">
        <ele>52.3778713</ele>
        <time>2019-09-10T15:42:09.400Z</time>
      </trkpt>
      <trkpt lat="10.158387775204" lon="-75.6804772445374">
        <ele>52.3778713</ele>
        <time>2019-09-10T15:42:09.500Z</time>
      </trkpt>
      <trkpt lat="10.1583894666232" lon="-75.6804792994542">
        <ele>52.3778713</ele>
        <time>2019-09-10T15:42:09.600Z</time>
      </trkpt>
      <trkpt lat="10.1583911668099" lon="-75.6804813636314">
        <ele>52.3778713</ele>
        <time>2019-09-10T15:42:09.700Z</time>
      </trkpt>
      <trkpt lat="10.1583928541124" lon="-75.6804833794872">
        <ele>52.3778713</ele>
        <time>2019-09-10T15:42:09.800Z</time>
      </trkpt>
      <trkpt lat="10.1583945418318" lon="-75.6804854059263">
        <ele>52.3778713</ele>
        <time>2019-09-10T15:42:09.900Z</time>
      </trkpt>
      <trkpt lat="10.1583962787171" lon="-75.6804874562477">
        <ele>52.3778713</ele>
        <time>2019-09-10T15:42:10.000Z</time>
      </trkpt>
      <trkpt lat="10.1583980228588" lon="-75.6804895183361">
        <ele>52.3778713</ele>
        <time>2019-09-10T15:42:10.100Z</time>
      </trkpt>
      <trkpt lat="10.1583997608905" lon="-75.6804915692145">
        <ele>52.2778713</ele>
        <time>2019-09-10T15:42:10.200Z</time>
      </trkpt>
      <trkpt lat="10.1584014907931" lon="-75.680493627543">
        <ele>52.2778713</ele>
        <time>2019-09-10T15:42:10.300Z</time>
      </trkpt>
      <trkpt lat="10.1584032384001" lon="-75.6804957107286">
        <ele>52.2778713</ele>
        <time>2019-09-10T15:42:10.400Z</time>
      </trkpt>
      <trkpt lat="10.1584049864501" lon="-75.6804977965599">
        <ele>52.2778713</ele>
        <time>2019-09-10T15:42:10.500Z</time>
      </trkpt>
      <trkpt lat="10.1584067799532" lon="-75.6804998736183">
        <ele>52.2778713</ele>
        <time>2019-09-10T15:42:10.600Z</time>
      </trkpt>
      <trkpt lat="10.1584085639917" lon="-75.6805019561772">
        <ele>52.2778713</ele>
        <time>2019-09-10T15:42:10.700Z</time>
      </trkpt>
      <trkpt lat="10.1584103364032" lon="-75.6805040296149">
        <ele>52.2778713</ele>
        <time>2019-09-10T15:42:10.800Z</time>
      </trkpt>
      <trkpt lat="10.1584120862705" lon="-75.6805061112686">
        <ele>52.2778713</ele>
        <time>2019-09-10T15:42:10.900Z</time>
      </trkpt>
      <trkpt lat="10.1584138294547" lon="-75.6805081684135">
        <ele>52.2778713</ele>
        <time>2019-09-10T15:42:11.000Z</time>
      </trkpt>
      <trkpt lat="10.1584155776674" lon="-75.6805102355151">
        <ele>52.2778713</ele>
        <time>2019-09-10T15:42:11.100Z</time>
      </trkpt>
      <trkpt lat="10.1584173594653" lon="-75.6805123153585">
        <ele>52.2778713</ele>
        <time>2019-09-10T15:42:11.200Z</time>
      </trkpt>
      <trkpt lat="10.1584191169797" lon="-75.6805144066208">
        <ele>52.2778713</ele>
        <time>2019-09-10T15:42:11.300Z</time>
      </trkpt>
      <trkpt lat="10.1584208361085" lon="-75.6805165157078">
        <ele>52.2778713</ele>
        <time>2019-09-10T15:42:11.400Z</time>
      </trkpt>
      <trkpt lat="10.1584225423075" lon="-75.6805186346819">
        <ele>52.2778713</ele>
        <time>2019-09-10T15:42:11.500Z</time>
      </trkpt>
      <trkpt lat="10.158425936356" lon="-75.680522913014">
        <ele>52.2778713</ele>
        <time>2019-09-10T15:42:11.700Z</time>
      </trkpt>
      <trkpt lat="10.1584276326801" lon="-75.6805250326148">
        <ele>52.2778713</ele>
        <time>2019-09-10T15:42:11.800Z</time>
      </trkpt>
      <trkpt lat="10.1584293371268" lon="-75.6805271435817">
        <ele>52.2778713</ele>
        <time>2019-09-10T15:42:11.900Z</time>
      </trkpt>
      <trkpt lat="10.1584310664562" lon="-75.6805292448008">
        <ele>52.2778713</ele>
        <time>2019-09-10T15:42:12.000Z</time>
      </trkpt>
      <trkpt lat="10.1584328115749" lon="-75.6805313425385">
        <ele>52.2778713</ele>
        <time>2019-09-10T15:42:12.100Z</time>
      </trkpt>
      <trkpt lat="10.1584345483235" lon="-75.680533469659">
        <ele>52.2778713</ele>
        <time>2019-09-10T15:42:12.200Z</time>
      </trkpt>
      <trkpt lat="10.1584362830007" lon="-75.680535591836">
        <ele>52.2778713</ele>
        <time>2019-09-10T15:42:12.300Z</time>
      </trkpt>
      <trkpt lat="10.1584380374927" lon="-75.6805377124115">
        <ele>52.2778713</ele>
        <time>2019-09-10T15:42:12.400Z</time>
      </trkpt>
      <trkpt lat="10.1584397779607" lon="-75.6805398302019">
        <ele>52.2778713</ele>
        <time>2019-09-10T15:42:12.500Z</time>
      </trkpt>
      <trkpt lat="10.1584414792156" lon="-75.6805419427006">
        <ele>52.2778713</ele>
        <time>2019-09-10T15:42:12.600Z</time>
      </trkpt>
      <trkpt lat="10.1584431829003" lon="-75.6805440551994">
        <ele>52.2778713</ele>
        <time>2019-09-10T15:42:12.700Z</time>
      </trkpt>
      <trkpt lat="10.1584448656105" lon="-75.6805461647737">
        <ele>52.2778713</ele>
        <time>2019-09-10T15:42:12.800Z</time>
      </trkpt>
      <trkpt lat="10.1584465564239" lon="-75.6805482796398">
        <ele>52.2778713</ele>
        <time>2019-09-10T15:42:12.900Z</time>
      </trkpt>
      <trkpt lat="10.1584482234034" lon="-75.6805503903979">
        <ele>52.2778713</ele>
        <time>2019-09-10T15:42:13.000Z</time>
      </trkpt>
      <trkpt lat="10.158449898916" lon="-75.6805525064476">
        <ele>52.2778713</ele>
        <time>2019-09-10T15:42:13.100Z</time>
      </trkpt>
      <trkpt lat="10.158451536134" lon="-75.6805546392776">
        <ele>52.2778713</ele>
        <time>2019-09-10T15:42:13.200Z</time>
      </trkpt>
      <trkpt lat="10.1584531920662" lon="-75.6805567725949">
        <ele>52.2778713</ele>
        <time>2019-09-10T15:42:13.300Z</time>
      </trkpt>
      <trkpt lat="10.1584548024084" lon="-75.6805589273576">
        <ele>52.2778713</ele>
        <time>2019-09-10T15:42:13.400Z</time>
      </trkpt>
      <trkpt lat="10.1584564356726" lon="-75.6805610711887">
        <ele>52.3778713</ele>
        <time>2019-09-10T15:42:13.500Z</time>
      </trkpt>
      <trkpt lat="10.1584580180446" lon="-75.6805631568112">
        <ele>52.3778713</ele>
        <time>2019-09-10T15:42:13.600Z</time>
      </trkpt>
      <trkpt lat="10.1584596333894" lon="-75.6805652461239">
        <ele>52.3778713</ele>
        <time>2019-09-10T15:42:13.700Z</time>
      </trkpt>
      <trkpt lat="10.1584612751606" lon="-75.6805673247837">
        <ele>52.3778713</ele>
        <time>2019-09-10T15:42:13.800Z</time>
      </trkpt>
      <trkpt lat="10.158462955324" lon="-75.6805694117292">
        <ele>52.3778713</ele>
        <time>2019-09-10T15:42:13.900Z</time>
      </trkpt>
      <trkpt lat="10.1584646882033" lon="-75.6805715153852">
        <ele>52.3778713</ele>
        <time>2019-09-10T15:42:14.000Z</time>
      </trkpt>
      <trkpt lat="10.1584664361035" lon="-75.6805736200856">
        <ele>52.3778713</ele>
        <time>2019-09-10T15:42:14.100Z</time>
      </trkpt>
      <trkpt lat="10.1584682422824" lon="-75.6805757518016">
        <ele>52.3778713</ele>
        <time>2019-09-10T15:42:14.200Z</time>
      </trkpt>
      <trkpt lat="10.1584700403842" lon="-75.6805778743963">
        <ele>52.3778713</ele>
        <time>2019-09-10T15:42:14.300Z</time>
      </trkpt>
      <trkpt lat="10.158471883278" lon="-75.6805799944148">
        <ele>52.2778713</ele>
        <time>2019-09-10T15:42:14.400Z</time>
      </trkpt>
      <trkpt lat="10.1584737177983" lon="-75.6805821031536">
        <ele>52.2778713</ele>
        <time>2019-09-10T15:42:14.500Z</time>
      </trkpt>
      <trkpt lat="10.1584755818065" lon="-75.6805842042334">
        <ele>52.2778713</ele>
        <time>2019-09-10T15:42:14.600Z</time>
      </trkpt>
      <trkpt lat="10.1584774391641" lon="-75.6805862970972">
        <ele>52.2778713</ele>
        <time>2019-09-10T15:42:14.700Z</time>
      </trkpt>
      <trkpt lat="10.1584793189812" lon="-75.6805883932335">
        <ele>52.2778713</ele>
        <time>2019-09-10T15:42:14.800Z</time>
      </trkpt>
      <trkpt lat="10.158482932531" lon="-75.6805925479072">
        <ele>52.2778713</ele>
        <time>2019-09-10T15:42:15.000Z</time>
      </trkpt>
      <trkpt lat="10.1584846752788" lon="-75.6805946172368">
        <ele>52.2778713</ele>
        <time>2019-09-10T15:42:15.100Z</time>
      </trkpt>
      <trkpt lat="10.1584863825981" lon="-75.6805966987513">
        <ele>52.2778713</ele>
        <time>2019-09-10T15:42:15.200Z</time>
      </trkpt>
      <trkpt lat="10.158488080391" lon="-75.6805987864627">
        <ele>52.2778713</ele>
        <time>2019-09-10T15:42:15.300Z</time>
      </trkpt>
      <trkpt lat="10.1584914308836" lon="-75.6806029941229">
        <ele>52.3778713</ele>
        <time>2019-09-10T15:42:15.500Z</time>
      </trkpt>
      <trkpt lat="10.1584930867115" lon="-75.6806051048809">
        <ele>52.3778713</ele>
        <time>2019-09-10T15:42:15.600Z</time>
      </trkpt>
      <trkpt lat="10.1584947532285" lon="-75.6806072153605">
        <ele>52.2778713</ele>
        <time>2019-09-10T15:42:15.700Z</time>
      </trkpt>
      <trkpt lat="10.1584964655195" lon="-75.6806093942838">
        <ele>52.2778713</ele>
        <time>2019-09-10T15:42:15.800Z</time>
      </trkpt>
      <trkpt lat="10.1584980550127" lon="-75.6806113555516">
        <ele>52.2778713</ele>
        <time>2019-09-10T15:42:15.900Z</time>
      </trkpt>
      <trkpt lat="10.1584997804436" lon="-75.6806134478584">
        <ele>52.2778713</ele>
        <time>2019-09-10T15:42:16.000Z</time>
      </trkpt>
      <trkpt lat="10.1585032833732" lon="-75.6806176583733">
        <ele>52.2778713</ele>
        <time>2019-09-10T15:42:16.200Z</time>
      </trkpt>
      <trkpt lat="10.1585050483899" lon="-75.6806197648145">
        <ele>52.2778713</ele>
        <time>2019-09-10T15:42:16.300Z</time>
      </trkpt>
      <trkpt lat="10.1585067960824" lon="-75.6806218927009">
        <ele>52.2778713</ele>
        <time>2019-09-10T15:42:16.400Z</time>
      </trkpt>
      <trkpt lat="10.1585085427245" lon="-75.6806240300566">
        <ele>52.2778713</ele>
        <time>2019-09-10T15:42:16.500Z</time>
      </trkpt>
      <trkpt lat="10.1585103157223" lon="-75.6806261851674">
        <ele>52.2778713</ele>
        <time>2019-09-10T15:42:16.600Z</time>
      </trkpt>
      <trkpt lat="10.1585121010917" lon="-75.6806283385375">
        <ele>52.2778713</ele>
        <time>2019-09-10T15:42:16.700Z</time>
      </trkpt>
      <trkpt lat="10.1585138801529" lon="-75.6806305154416">
        <ele>52.2778713</ele>
        <time>2019-09-10T15:42:16.800Z</time>
      </trkpt>
      <trkpt lat="10.1585174192048" lon="-75.6806348753772">
        <ele>52.2778713</ele>
        <time>2019-09-10T15:42:17.000Z</time>
      </trkpt>
      <trkpt lat="10.1585191997662" lon="-75.680637051237">
        <ele>52.2778713</ele>
        <time>2019-09-10T15:42:17.100Z</time>
      </trkpt>
      <trkpt lat="10.1585227088658" lon="-75.6806413723204">
        <ele>52.3778713</ele>
        <time>2019-09-10T15:42:17.300Z</time>
      </trkpt>
      <trkpt lat="10.1585244134673" lon="-75.6806434823126">
        <ele>52.2778713</ele>
        <time>2019-09-10T15:42:17.400Z</time>
      </trkpt>
      <trkpt lat="10.1585261130637" lon="-75.6806455998245">
        <ele>52.2778713</ele>
        <time>2019-09-10T15:42:17.500Z</time>
      </trkpt>
      <trkpt lat="10.1585294445816" lon="-75.6806498249612">
        <ele>52.3778713</ele>
        <time>2019-09-10T15:42:17.700Z</time>
      </trkpt>
      <trkpt lat="10.1585311145005" lon="-75.6806519346748">
        <ele>52.3778713</ele>
        <time>2019-09-10T15:42:17.800Z</time>
      </trkpt>
      <trkpt lat="10.158532799274" lon="-75.6806540425085">
        <ele>52.3778713</ele>
        <time>2019-09-10T15:42:17.900Z</time>
      </trkpt>
      <trkpt lat="10.1585345162809" lon="-75.6806561504815">
        <ele>52.3778713</ele>
        <time>2019-09-10T15:42:18.000Z</time>
      </trkpt>
      <trkpt lat="10.1585362322538" lon="-75.6806582509347">
        <ele>52.3778713</ele>
        <time>2019-09-10T15:42:18.100Z</time>
      </trkpt>
      <trkpt lat="10.1585379114629" lon="-75.6806603056425">
        <ele>52.3778713</ele>
        <time>2019-09-10T15:42:18.200Z</time>
      </trkpt>
      <trkpt lat="10.1585395852053" lon="-75.6806623584009">
        <ele>52.3778713</ele>
        <time>2019-09-10T15:42:18.300Z</time>
      </trkpt>
      <trkpt lat="10.1585429797701" lon="-75.6806665918929">
        <ele>52.3778713</ele>
        <time>2019-09-10T15:42:18.500Z</time>
      </trkpt>
      <trkpt lat="10.1585446523938" lon="-75.6806686456956">
        <ele>52.3778713</ele>
        <time>2019-09-10T15:42:18.600Z</time>
      </trkpt>
      <trkpt lat="10.158546331256" lon="-75.680670696017">
        <ele>52.3778713</ele>
        <time>2019-09-10T15:42:18.700Z</time>
      </trkpt>
      <trkpt lat="10.1585480065764" lon="-75.6806727640934">
        <ele>52.3778713</ele>
        <time>2019-09-10T15:42:18.800Z</time>
      </trkpt>
      <trkpt lat="10.1585496828901" lon="-75.6806748417783">
        <ele>52.2778713</ele>
        <time>2019-09-10T15:42:18.900Z</time>
      </trkpt>
      <trkpt lat="10.1585514148901" lon="-75.6806769837991">
        <ele>52.2778713</ele>
        <time>2019-09-10T15:42:19.000Z</time>
      </trkpt>
      <trkpt lat="10.1585531501275" lon="-75.6806791173254">
        <ele>52.2778713</ele>
        <time>2019-09-10T15:42:19.100Z</time>
      </trkpt>
      <trkpt lat="10.1585548973404" lon="-75.6806812620617">
        <ele>52.2778713</ele>
        <time>2019-09-10T15:42:19.200Z</time>
      </trkpt>
      <trkpt lat="10.1585584114314" lon="-75.6806854832992">
        <ele>52.2778713</ele>
        <time>2019-09-10T15:42:19.400Z</time>
      </trkpt>
      <trkpt lat="10.1585620023067" lon="-75.6806896737614">
        <ele>52.2778713</ele>
        <time>2019-09-10T15:42:19.600Z</time>
      </trkpt>
      <trkpt lat="10.1585638131332" lon="-75.6806917778352">
        <ele>52.2778713</ele>
        <time>2019-09-10T15:42:19.700Z</time>
      </trkpt>
      <trkpt lat="10.1585656070532" lon="-75.6806939003604">
        <ele>52.3778713</ele>
        <time>2019-09-10T15:42:19.800Z</time>
      </trkpt>
      <trkpt lat="10.158567381904" lon="-75.6806960405708">
        <ele>52.3778713</ele>
        <time>2019-09-10T15:42:19.900Z</time>
      </trkpt>
      <trkpt lat="10.1585691345039" lon="-75.6806981334694">
        <ele>52.3778713</ele>
        <time>2019-09-10T15:42:20.000Z</time>
      </trkpt>
      <trkpt lat="10.158570880287" lon="-75.6807002233392">
        <ele>52.3778713</ele>
        <time>2019-09-10T15:42:20.100Z</time>
      </trkpt>
      <trkpt lat="10.1585726294834" lon="-75.6807023500768">
        <ele>52.3778713</ele>
        <time>2019-09-10T15:42:20.200Z</time>
      </trkpt>
      <trkpt lat="10.15857602518" lon="-75.6807065723588">
        <ele>52.2778713</ele>
        <time>2019-09-10T15:42:20.400Z</time>
      </trkpt>
      <trkpt lat="10.1585776683125" lon="-75.6807086565539">
        <ele>52.2778713</ele>
        <time>2019-09-10T15:42:20.500Z</time>
      </trkpt>
      <trkpt lat="10.1585792694443" lon="-75.6807107021754">
        <ele>52.2778713</ele>
        <time>2019-09-10T15:42:20.600Z</time>
      </trkpt>
      <trkpt lat="10.1585825047065" lon="-75.6807148138541">
        <ele>52.2778713</ele>
        <time>2019-09-10T15:42:20.800Z</time>
      </trkpt>
      <trkpt lat="10.1585841450316" lon="-75.6807168806772">
        <ele>52.2778713</ele>
        <time>2019-09-10T15:42:20.900Z</time>
      </trkpt>
      <trkpt lat="10.1585857880665" lon="-75.6807189242795">
        <ele>52.2778713</ele>
        <time>2019-09-10T15:42:21.000Z</time>
      </trkpt>
      <trkpt lat="10.1585890137405" lon="-75.6807230118671">
        <ele>52.2778713</ele>
        <time>2019-09-10T15:42:21.200Z</time>
      </trkpt>
      <trkpt lat="10.1585906221807" lon="-75.6807250573493">
        <ele>52.2778713</ele>
        <time>2019-09-10T15:42:21.300Z</time>
      </trkpt>
      <trkpt lat="10.1585922625123" lon="-75.6807271282804">
        <ele>52.2778713</ele>
        <time>2019-09-10T15:42:21.400Z</time>
      </trkpt>
      <trkpt lat="10.158593925805" lon="-75.68072922379">
        <ele>52.2778713</ele>
        <time>2019-09-10T15:42:21.500Z</time>
      </trkpt>
      <trkpt lat="10.1585956160387" lon="-75.6807313561674">
        <ele>52.2778713</ele>
        <time>2019-09-10T15:42:21.600Z</time>
      </trkpt>
      <trkpt lat="10.1585973485858" lon="-75.6807334790407">
        <ele>52.2778713</ele>
        <time>2019-09-10T15:42:21.700Z</time>
      </trkpt>
      <trkpt lat="10.1585991295955" lon="-75.6807356190075">
        <ele>52.2778713</ele>
        <time>2019-09-10T15:42:21.800Z</time>
      </trkpt>
      <trkpt lat="10.158600951427" lon="-75.6807377622467">
        <ele>52.2778713</ele>
        <time>2019-09-10T15:42:21.900Z</time>
      </trkpt>
      <trkpt lat="10.1586027838825" lon="-75.6807399622324">
        <ele>52.3778713</ele>
        <time>2019-09-10T15:42:22.000Z</time>
      </trkpt>
      <trkpt lat="10.1586046040725" lon="-75.6807421757607">
        <ele>52.3778713</ele>
        <time>2019-09-10T15:42:22.100Z</time>
      </trkpt>
      <trkpt lat="10.1586064087532" lon="-75.6807443961124">
        <ele>52.3778713</ele>
        <time>2019-09-10T15:42:22.200Z</time>
      </trkpt>
      <trkpt lat="10.158608225986" lon="-75.680746597804">
        <ele>52.3778713</ele>
        <time>2019-09-10T15:42:22.300Z</time>
      </trkpt>
      <trkpt lat="10.1586100479608" lon="-75.6807487990778">
        <ele>52.3778713</ele>
        <time>2019-09-10T15:42:22.400Z</time>
      </trkpt>
      <trkpt lat="10.1586118941407" lon="-75.6807509786975">
        <ele>52.3778713</ele>
        <time>2019-09-10T15:42:22.500Z</time>
      </trkpt>
      <trkpt lat="10.1586137227726" lon="-75.680753122633">
        <ele>52.3778713</ele>
        <time>2019-09-10T15:42:22.600Z</time>
      </trkpt>
      <trkpt lat="10.1586155591233" lon="-75.6807552475603">
        <ele>52.3778713</ele>
        <time>2019-09-10T15:42:22.700Z</time>
      </trkpt>
      <trkpt lat="10.1586173792677" lon="-75.6807573835235">
        <ele>52.3778713</ele>
        <time>2019-09-10T15:42:22.800Z</time>
      </trkpt>
      <trkpt lat="10.1586210135248" lon="-75.6807615823062">
        <ele>52.3778713</ele>
        <time>2019-09-10T15:42:23.000Z</time>
      </trkpt>
      <trkpt lat="10.1586228264325" lon="-75.6807636409828">
        <ele>52.3778713</ele>
        <time>2019-09-10T15:42:23.100Z</time>
      </trkpt>
      <trkpt lat="10.1586246350019" lon="-75.6807656839933">
        <ele>52.3778713</ele>
        <time>2019-09-10T15:42:23.200Z</time>
      </trkpt>
      <trkpt lat="10.1586264436886" lon="-75.6807677165249">
        <ele>52.3778713</ele>
        <time>2019-09-10T15:42:23.300Z</time>
      </trkpt>
      <trkpt lat="10.1586282149341" lon="-75.68076972688">
        <ele>52.3778713</ele>
        <time>2019-09-10T15:42:23.400Z</time>
      </trkpt>
      <trkpt lat="10.1586299822257" lon="-75.6807717321176">
        <ele>52.3778713</ele>
        <time>2019-09-10T15:42:23.500Z</time>
      </trkpt>
      <trkpt lat="10.1586317336759" lon="-75.6807737108967">
        <ele>52.3778713</ele>
        <time>2019-09-10T15:42:23.600Z</time>
      </trkpt>
      <trkpt lat="10.158633489347" lon="-75.6807756931223">
        <ele>52.3778713</ele>
        <time>2019-09-10T15:42:23.700Z</time>
      </trkpt>
      <trkpt lat="10.1586352412531" lon="-75.6807776724236">
        <ele>52.3778713</ele>
        <time>2019-09-10T15:42:23.800Z</time>
      </trkpt>
      <trkpt lat="10.1586369979794" lon="-75.6807796677741">
        <ele>52.3778713</ele>
        <time>2019-09-10T15:42:23.900Z</time>
      </trkpt>
      <trkpt lat="10.1586387574936" lon="-75.6807816997138">
        <ele>52.3778713</ele>
        <time>2019-09-10T15:42:24.000Z</time>
      </trkpt>
      <trkpt lat="10.1586405151709" lon="-75.6807837370844">
        <ele>52.3778713</ele>
        <time>2019-09-10T15:42:24.100Z</time>
      </trkpt>
      <trkpt lat="10.158642253372" lon="-75.6807857684323">
        <ele>52.3778713</ele>
        <time>2019-09-10T15:42:24.200Z</time>
      </trkpt>
      <trkpt lat="10.1586439899186" lon="-75.6807878022171">
        <ele>52.3778713</ele>
        <time>2019-09-10T15:42:24.300Z</time>
      </trkpt>
      <trkpt lat="10.158645747179" lon="-75.6807898568902">
        <ele>52.3778713</ele>
        <time>2019-09-10T15:42:24.400Z</time>
      </trkpt>
      <trkpt lat="10.1586475067584" lon="-75.6807919135128">
        <ele>52.3778713</ele>
        <time>2019-09-10T15:42:24.500Z</time>
      </trkpt>
      <trkpt lat="10.1586492473696" lon="-75.6807940212421">
        <ele>52.3778713</ele>
        <time>2019-09-10T15:42:24.600Z</time>
      </trkpt>
      <trkpt lat="10.1586509820663" lon="-75.6807961222871">
        <ele>52.3778713</ele>
        <time>2019-09-10T15:42:24.700Z</time>
      </trkpt>
      <trkpt lat="10.158652680325" lon="-75.6807981893887">
        <ele>52.3778713</ele>
        <time>2019-09-10T15:42:24.800Z</time>
      </trkpt>
      <trkpt lat="10.1586543901" lon="-75.6808002521386">
        <ele>52.3778713</ele>
        <time>2019-09-10T15:42:24.900Z</time>
      </trkpt>
      <trkpt lat="10.1586561138926" lon="-75.6808023070205">
        <ele>52.3778713</ele>
        <time>2019-09-10T15:42:25.000Z</time>
      </trkpt>
      <trkpt lat="10.1586578439906" lon="-75.6808043648269">
        <ele>52.3778713</ele>
        <time>2019-09-10T15:42:25.100Z</time>
      </trkpt>
      <trkpt lat="10.1586595689818" lon="-75.6808064132683">
        <ele>52.3778713</ele>
        <time>2019-09-10T15:42:25.200Z</time>
      </trkpt>
      <trkpt lat="10.1586612910157" lon="-75.6808084720842">
        <ele>52.3778713</ele>
        <time>2019-09-10T15:42:25.300Z</time>
      </trkpt>
      <trkpt lat="10.1586629787611" lon="-75.680810522893">
        <ele>52.3778713</ele>
        <time>2019-09-10T15:42:25.400Z</time>
      </trkpt>
      <trkpt lat="10.15866467147" lon="-75.6808125795852">
        <ele>52.3778713</ele>
        <time>2019-09-10T15:42:25.500Z</time>
      </trkpt>
      <trkpt lat="10.1586663760861" lon="-75.680814659742">
        <ele>52.3778713</ele>
        <time>2019-09-10T15:42:25.600Z</time>
      </trkpt>
      <trkpt lat="10.1586680881019" lon="-75.6808167416394">
        <ele>52.3778713</ele>
        <time>2019-09-10T15:42:25.700Z</time>
      </trkpt>
      <trkpt lat="10.1586697843934" lon="-75.6808188472799">
        <ele>52.3778713</ele>
        <time>2019-09-10T15:42:25.800Z</time>
      </trkpt>
      <trkpt lat="10.1586714881757" lon="-75.680820951284">
        <ele>52.3778713</ele>
        <time>2019-09-10T15:42:25.900Z</time>
      </trkpt>
      <trkpt lat="10.1586748812928" lon="-75.6808251788925">
        <ele>52.3778713</ele>
        <time>2019-09-10T15:42:26.100Z</time>
      </trkpt>
      <trkpt lat="10.1586765652732" lon="-75.6808272929579">
        <ele>52.3778713</ele>
        <time>2019-09-10T15:42:26.200Z</time>
      </trkpt>
      <trkpt lat="10.1586782594934" lon="-75.6808294005479">
        <ele>52.3778713</ele>
        <time>2019-09-10T15:42:26.300Z</time>
      </trkpt>
      <trkpt lat="10.1586799403472" lon="-75.6808315114103">
        <ele>52.3778713</ele>
        <time>2019-09-10T15:42:26.400Z</time>
      </trkpt>
      <trkpt lat="10.1586816357658" lon="-75.6808336136042">
        <ele>52.3778713</ele>
        <time>2019-09-10T15:42:26.500Z</time>
      </trkpt>
      <trkpt lat="10.1586832910726" lon="-75.6808356813325">
        <ele>52.3778713</ele>
        <time>2019-09-10T15:42:26.600Z</time>
      </trkpt>
      <trkpt lat="10.1586849624945" lon="-75.6808377463104">
        <ele>52.3778713</ele>
        <time>2019-09-10T15:42:26.700Z</time>
      </trkpt>
      <trkpt lat="10.158686660193" lon="-75.6808398198177">
        <ele>52.3778713</ele>
        <time>2019-09-10T15:42:26.800Z</time>
      </trkpt>
      <trkpt lat="10.1586883744234" lon="-75.6808418999397">
        <ele>52.3778713</ele>
        <time>2019-09-10T15:42:26.900Z</time>
      </trkpt>
      <trkpt lat="10.1586901402299" lon="-75.6808439959019">
        <ele>52.3778713</ele>
        <time>2019-09-10T15:42:27.000Z</time>
      </trkpt>
      <trkpt lat="10.1586919077952" lon="-75.6808460916552">
        <ele>52.3778713</ele>
        <time>2019-09-10T15:42:27.100Z</time>
      </trkpt>
      <trkpt lat="10.1586936889611" lon="-75.6808481988274">
        <ele>52.3778713</ele>
        <time>2019-09-10T15:42:27.200Z</time>
      </trkpt>
      <trkpt lat="10.1586954586889" lon="-75.6808503041545">
        <ele>52.3778713</ele>
        <time>2019-09-10T15:42:27.300Z</time>
      </trkpt>
      <trkpt lat="10.158697196395" lon="-75.6808524162007">
        <ele>52.3778713</ele>
        <time>2019-09-10T15:42:27.400Z</time>
      </trkpt>
      <trkpt lat="10.1586989287077" lon="-75.6808545240692">
        <ele>52.3778713</ele>
        <time>2019-09-10T15:42:27.500Z</time>
      </trkpt>
      <trkpt lat="10.1587006550798" lon="-75.6808566340613">
        <ele>52.3778713</ele>
        <time>2019-09-10T15:42:27.600Z</time>
      </trkpt>
      <trkpt lat="10.1587023842789" lon="-75.6808587409202">
        <ele>52.3778713</ele>
        <time>2019-09-10T15:42:27.700Z</time>
      </trkpt>
      <trkpt lat="10.1587041396633" lon="-75.6808608868053">
        <ele>52.3778713</ele>
        <time>2019-09-10T15:42:27.800Z</time>
      </trkpt>
      <trkpt lat="10.1587058965069" lon="-75.6808630264936">
        <ele>52.3778713</ele>
        <time>2019-09-10T15:42:27.900Z</time>
      </trkpt>
      <trkpt lat="10.1587076495724" lon="-75.6808651967484">
        <ele>52.3778713</ele>
        <time>2019-09-10T15:42:28.000Z</time>
      </trkpt>
      <trkpt lat="10.1587094005927" lon="-75.6808673563849">
        <ele>52.3778713</ele>
        <time>2019-09-10T15:42:28.100Z</time>
      </trkpt>
      <trkpt lat="10.1587111869697" lon="-75.6808695037322">
        <ele>52.3778713</ele>
        <time>2019-09-10T15:42:28.200Z</time>
      </trkpt>
      <trkpt lat="10.1587129665724" lon="-75.6808716387206">
        <ele>52.3778713</ele>
        <time>2019-09-10T15:42:28.300Z</time>
      </trkpt>
      <trkpt lat="10.1587147319229" lon="-75.680873785302">
        <ele>52.3778713</ele>
        <time>2019-09-10T15:42:28.400Z</time>
      </trkpt>
      <trkpt lat="10.1587164870077" lon="-75.6808759237718">
        <ele>52.3778713</ele>
        <time>2019-09-10T15:42:28.500Z</time>
      </trkpt>
      <trkpt lat="10.1587182268503" lon="-75.680878044417">
        <ele>52.3778713</ele>
        <time>2019-09-10T15:42:28.600Z</time>
      </trkpt>
      <trkpt lat="10.1587199587852" lon="-75.6808801616852">
        <ele>52.3778713</ele>
        <time>2019-09-10T15:42:28.700Z</time>
      </trkpt>
      <trkpt lat="10.1587216193812" lon="-75.6808822587614">
        <ele>52.3778713</ele>
        <time>2019-09-10T15:42:28.800Z</time>
      </trkpt>
      <trkpt lat="10.1587232856442" lon="-75.6808843601546">
        <ele>52.3778713</ele>
        <time>2019-09-10T15:42:28.900Z</time>
      </trkpt>
      <trkpt lat="10.158724984437" lon="-75.6808864858477">
        <ele>52.3778713</ele>
        <time>2019-09-10T15:42:29.000Z</time>
      </trkpt>
      <trkpt lat="10.1587266995272" lon="-75.680888615997">
        <ele>52.3778713</ele>
        <time>2019-09-10T15:42:29.100Z</time>
      </trkpt>
      <trkpt lat="10.1587284288566" lon="-75.6808907341356">
        <ele>52.3778713</ele>
        <time>2019-09-10T15:42:29.200Z</time>
      </trkpt>
      <trkpt lat="10.1587301564793" lon="-75.680892850255">
        <ele>52.3778713</ele>
        <time>2019-09-10T15:42:29.300Z</time>
      </trkpt>
      <trkpt lat="10.158731871309" lon="-75.6808949549902">
        <ele>52.3778713</ele>
        <time>2019-09-10T15:42:29.400Z</time>
      </trkpt>
      <trkpt lat="10.1587335908416" lon="-75.6808970631372">
        <ele>52.3778713</ele>
        <time>2019-09-10T15:42:29.500Z</time>
      </trkpt>
      <trkpt lat="10.1587352952102" lon="-75.6808991569758">
        <ele>52.3778713</ele>
        <time>2019-09-10T15:42:29.600Z</time>
      </trkpt>
      <trkpt lat="10.1587370101572" lon="-75.6809012575334">
        <ele>52.3778713</ele>
        <time>2019-09-10T15:42:29.700Z</time>
      </trkpt>
      <trkpt lat="10.1587387327643" lon="-75.6809033871605">
        <ele>52.3778713</ele>
        <time>2019-09-10T15:42:29.800Z</time>
      </trkpt>
      <trkpt lat="10.1587404600093" lon="-75.6809055194335">
        <ele>52.4778713</ele>
        <time>2019-09-10T15:42:29.900Z</time>
      </trkpt>
      <trkpt lat="10.1587421309231" lon="-75.6809076365624">
        <ele>52.4778713</ele>
        <time>2019-09-10T15:42:30.000Z</time>
      </trkpt>
      <trkpt lat="10.1587438121547" lon="-75.6809097489219">
        <ele>52.4778713</ele>
        <time>2019-09-10T15:42:30.100Z</time>
      </trkpt>
      <trkpt lat="10.1587455084983" lon="-75.6809118427605">
        <ele>52.4778713</ele>
        <time>2019-09-10T15:42:30.200Z</time>
      </trkpt>
      <trkpt lat="10.1587472240445" lon="-75.6809139351717">
        <ele>52.4778713</ele>
        <time>2019-09-10T15:42:30.300Z</time>
      </trkpt>
      <trkpt lat="10.1587506286128" lon="-75.6809181011598">
        <ele>52.4778713</ele>
        <time>2019-09-10T15:42:30.500Z</time>
      </trkpt>
      <trkpt lat="10.1587523425176" lon="-75.6809201512027">
        <ele>52.4778713</ele>
        <time>2019-09-10T15:42:30.600Z</time>
      </trkpt>
      <trkpt lat="10.1587540647599" lon="-75.6809222116896">
        <ele>52.4778713</ele>
        <time>2019-09-10T15:42:30.700Z</time>
      </trkpt>
      <trkpt lat="10.158755804798" lon="-75.6809242749269">
        <ele>52.4778713</ele>
        <time>2019-09-10T15:42:30.800Z</time>
      </trkpt>
      <trkpt lat="10.1587575496562" lon="-75.6809263466239">
        <ele>52.4778713</ele>
        <time>2019-09-10T15:42:30.900Z</time>
      </trkpt>
      <trkpt lat="10.1587592716119" lon="-75.6809283938817">
        <ele>52.4778713</ele>
        <time>2019-09-10T15:42:31.000Z</time>
      </trkpt>
      <trkpt lat="10.1587609998991" lon="-75.6809304478585">
        <ele>52.4778713</ele>
        <time>2019-09-10T15:42:31.100Z</time>
      </trkpt>
      <trkpt lat="10.1587627282644" lon="-75.6809325176059">
        <ele>52.4778713</ele>
        <time>2019-09-10T15:42:31.200Z</time>
      </trkpt>
      <trkpt lat="10.1587644586881" lon="-75.6809345980412">
        <ele>52.4778713</ele>
        <time>2019-09-10T15:42:31.300Z</time>
      </trkpt>
      <trkpt lat="10.1587661886167" lon="-75.6809367005832">
        <ele>52.4778713</ele>
        <time>2019-09-10T15:42:31.400Z</time>
      </trkpt>
      <trkpt lat="10.1587679231831" lon="-75.6809388044133">
        <ele>52.4778713</ele>
        <time>2019-09-10T15:42:31.500Z</time>
      </trkpt>
      <trkpt lat="10.1587696628303" lon="-75.6809409232133">
        <ele>52.4778713</ele>
        <time>2019-09-10T15:42:31.600Z</time>
      </trkpt>
      <trkpt lat="10.1587714087568" lon="-75.6809430406556">
        <ele>52.4778713</ele>
        <time>2019-09-10T15:42:31.700Z</time>
      </trkpt>
      <trkpt lat="10.1587731614054" lon="-75.6809451265914">
        <ele>52.3778713</ele>
        <time>2019-09-10T15:42:31.800Z</time>
      </trkpt>
      <trkpt lat="10.1587749168941" lon="-75.680947211831">
        <ele>52.3778713</ele>
        <time>2019-09-10T15:42:31.900Z</time>
      </trkpt>
      <trkpt lat="10.158776664905" lon="-75.6809493281244">
        <ele>52.3778713</ele>
        <time>2019-09-10T15:42:32.000Z</time>
      </trkpt>
      <trkpt lat="10.1587784105449" lon="-75.6809514470985">
        <ele>52.3778713</ele>
        <time>2019-09-10T15:42:32.100Z</time>
      </trkpt>
      <trkpt lat="10.1587801474563" lon="-75.680953561512">
        <ele>52.3778713</ele>
        <time>2019-09-10T15:42:32.200Z</time>
      </trkpt>
      <trkpt lat="10.1587818874421" lon="-75.680955668545">
        <ele>52.3778713</ele>
        <time>2019-09-10T15:42:32.300Z</time>
      </trkpt>
      <trkpt lat="10.1587836500178" lon="-75.6809578071888">
        <ele>52.3778713</ele>
        <time>2019-09-10T15:42:32.400Z</time>
      </trkpt>
      <trkpt lat="10.1587854115252" lon="-75.6809599399492">
        <ele>52.3778713</ele>
        <time>2019-09-10T15:42:32.500Z</time>
      </trkpt>
      <trkpt lat="10.1587871990877" lon="-75.6809620707948">
        <ele>52.3778713</ele>
        <time>2019-09-10T15:42:32.600Z</time>
      </trkpt>
      <trkpt lat="10.1587889795893" lon="-75.6809641962094">
        <ele>52.3778713</ele>
        <time>2019-09-10T15:42:32.700Z</time>
      </trkpt>
      <trkpt lat="10.1587907505026" lon="-75.6809663118414">
        <ele>52.3778713</ele>
        <time>2019-09-10T15:42:32.800Z</time>
      </trkpt>
      <trkpt lat="10.1587925133389" lon="-75.6809684208587">
        <ele>52.3778713</ele>
        <time>2019-09-10T15:42:32.900Z</time>
      </trkpt>
      <trkpt lat="10.1587942623919" lon="-75.6809705172387">
        <ele>52.3778713</ele>
        <time>2019-09-10T15:42:33.000Z</time>
      </trkpt>
      <trkpt lat="10.1587960112887" lon="-75.6809726117387">
        <ele>52.3778713</ele>
        <time>2019-09-10T15:42:33.100Z</time>
      </trkpt>
      <trkpt lat="10.1587977489296" lon="-75.6809746649496">
        <ele>52.3778713</ele>
        <time>2019-09-10T15:42:33.200Z</time>
      </trkpt>
      <trkpt lat="10.1587994876909" lon="-75.6809767252625">
        <ele>52.3778713</ele>
        <time>2019-09-10T15:42:33.300Z</time>
      </trkpt>
      <trkpt lat="10.1588012175153" lon="-75.6809787893353">
        <ele>52.3778713</ele>
        <time>2019-09-10T15:42:33.400Z</time>
      </trkpt>
      <trkpt lat="10.1588029523684" lon="-75.6809808651055">
        <ele>52.3778713</ele>
        <time>2019-09-10T15:42:33.500Z</time>
      </trkpt>
      <trkpt lat="10.1588046793528" lon="-75.6809829168891">
        <ele>52.3778713</ele>
        <time>2019-09-10T15:42:33.600Z</time>
      </trkpt>
      <trkpt lat="10.1588064100109" lon="-75.6809849741732">
        <ele>52.3778713</ele>
        <time>2019-09-10T15:42:33.700Z</time>
      </trkpt>
      <trkpt lat="10.1588098650219" lon="-75.6809890613952">
        <ele>52.3778713</ele>
        <time>2019-09-10T15:42:33.900Z</time>
      </trkpt>
      <trkpt lat="10.1588115991454" lon="-75.6809911301331">
        <ele>52.3778713</ele>
        <time>2019-09-10T15:42:34.000Z</time>
      </trkpt>
      <trkpt lat="10.1588151211441" lon="-75.6809952753374">
        <ele>52.3778713</ele>
        <time>2019-09-10T15:42:34.200Z</time>
      </trkpt>
      <trkpt lat="10.158816900864" lon="-75.6809973498717">
        <ele>52.3778713</ele>
        <time>2019-09-10T15:42:34.300Z</time>
      </trkpt>
      <trkpt lat="10.1588186751385" lon="-75.6809994105328">
        <ele>52.3778713</ele>
        <time>2019-09-10T15:42:34.400Z</time>
      </trkpt>
      <trkpt lat="10.1588204434463" lon="-75.6810014809591">
        <ele>52.3778713</ele>
        <time>2019-09-10T15:42:34.500Z</time>
      </trkpt>
      <trkpt lat="10.1588221952351" lon="-75.6810035308453">
        <ele>52.3778713</ele>
        <time>2019-09-10T15:42:34.600Z</time>
      </trkpt>
      <trkpt lat="10.1588239390511" lon="-75.6810055955621">
        <ele>52.3778713</ele>
        <time>2019-09-10T15:42:34.700Z</time>
      </trkpt>
      <trkpt lat="10.1588256990994" lon="-75.6810076742741">
        <ele>52.3778713</ele>
        <time>2019-09-10T15:42:34.800Z</time>
      </trkpt>
      <trkpt lat="10.1588274595125" lon="-75.6810097608714">
        <ele>52.3778713</ele>
        <time>2019-09-10T15:42:34.900Z</time>
      </trkpt>
      <trkpt lat="10.1588292103374" lon="-75.6810118556847">
        <ele>52.3778713</ele>
        <time>2019-09-10T15:42:35.000Z</time>
      </trkpt>
      <trkpt lat="10.1588309599897" lon="-75.6810139524129">
        <ele>52.3778713</ele>
        <time>2019-09-10T15:42:35.100Z</time>
      </trkpt>
      <trkpt lat="10.1588327016952" lon="-75.6810160189748">
        <ele>52.3778713</ele>
        <time>2019-09-10T15:42:35.200Z</time>
      </trkpt>
      <trkpt lat="10.1588344456676" lon="-75.6810180873471">
        <ele>52.3778713</ele>
        <time>2019-09-10T15:42:35.300Z</time>
      </trkpt>
      <trkpt lat="10.1588361582695" lon="-75.6810201291391">
        <ele>52.3778713</ele>
        <time>2019-09-10T15:42:35.400Z</time>
      </trkpt>
      <trkpt lat="10.1588378780106" lon="-75.6810221765709">
        <ele>52.3778713</ele>
        <time>2019-09-10T15:42:35.500Z</time>
      </trkpt>
      <trkpt lat="10.1588395926189" lon="-75.6810242040719">
        <ele>52.3778713</ele>
        <time>2019-09-10T15:42:35.600Z</time>
      </trkpt>
      <trkpt lat="10.1588413197596" lon="-75.6810262465427">
        <ele>52.3778713</ele>
        <time>2019-09-10T15:42:35.700Z</time>
      </trkpt>
      <trkpt lat="10.1588430749877" lon="-75.6810283462126">
        <ele>52.3778713</ele>
        <time>2019-09-10T15:42:35.800Z</time>
      </trkpt>
      <trkpt lat="10.1588448375894" lon="-75.6810304546207">
        <ele>52.3778713</ele>
        <time>2019-09-10T15:42:35.900Z</time>
      </trkpt>
      <trkpt lat="10.1588465698109" lon="-75.6810325172487">
        <ele>52.3778713</ele>
        <time>2019-09-10T15:42:36.000Z</time>
      </trkpt>
      <trkpt lat="10.158848300417" lon="-75.6810345805034">
        <ele>52.3778713</ele>
        <time>2019-09-10T15:42:36.100Z</time>
      </trkpt>
      <trkpt lat="10.1588500523622" lon="-75.6810366940814">
        <ele>52.3778713</ele>
        <time>2019-09-10T15:42:36.200Z</time>
      </trkpt>
      <trkpt lat="10.1588518130619" lon="-75.681038813334">
        <ele>52.3778713</ele>
        <time>2019-09-10T15:42:36.300Z</time>
      </trkpt>
      <trkpt lat="10.1588535991132" lon="-75.6810409414119">
        <ele>52.3778713</ele>
        <time>2019-09-10T15:42:36.400Z</time>
      </trkpt>
      <trkpt lat="10.1588553804485" lon="-75.6810430674009">
        <ele>52.3778713</ele>
        <time>2019-09-10T15:42:36.500Z</time>
      </trkpt>
      <trkpt lat="10.1588571497985" lon="-75.6810451953918">
        <ele>52.3778713</ele>
        <time>2019-09-10T15:42:36.600Z</time>
      </trkpt>
      <trkpt lat="10.1588589152403" lon="-75.6810473153058">
        <ele>52.3778713</ele>
        <time>2019-09-10T15:42:36.700Z</time>
      </trkpt>
      <trkpt lat="10.1588606998586" lon="-75.6810494239925">
        <ele>52.3778713</ele>
        <time>2019-09-10T15:42:36.800Z</time>
      </trkpt>
      <trkpt lat="10.1588624781976" lon="-75.6810515329228">
        <ele>52.3778713</ele>
        <time>2019-09-10T15:42:36.900Z</time>
      </trkpt>
      <trkpt lat="10.1588642312631" lon="-75.6810536676675">
        <ele>52.3778713</ele>
        <time>2019-09-10T15:42:37.000Z</time>
      </trkpt>
      <trkpt lat="10.1588659778149" lon="-75.6810558009501">
        <ele>52.3778713</ele>
        <time>2019-09-10T15:42:37.100Z</time>
      </trkpt>
      <trkpt lat="10.1588677078478" lon="-75.6810578905936">
        <ele>52.3778713</ele>
        <time>2019-09-10T15:42:37.200Z</time>
      </trkpt>
      <trkpt lat="10.1588694444204" lon="-75.6810599772605">
        <ele>52.3778713</ele>
        <time>2019-09-10T15:42:37.300Z</time>
      </trkpt>
      <trkpt lat="10.1588711751307" lon="-75.6810620883144">
        <ele>52.4778713</ele>
        <time>2019-09-10T15:42:37.400Z</time>
      </trkpt>
      <trkpt lat="10.1588729126674" lon="-75.6810642020317">
        <ele>52.3778713</ele>
        <time>2019-09-10T15:42:37.500Z</time>
      </trkpt>
      <trkpt lat="10.1588746431432" lon="-75.6810662770882">
        <ele>52.3778713</ele>
        <time>2019-09-10T15:42:37.600Z</time>
      </trkpt>
      <trkpt lat="10.1588763753126" lon="-75.6810683580631">
        <ele>52.4778713</ele>
        <time>2019-09-10T15:42:37.700Z</time>
      </trkpt>
      <trkpt lat="10.1588781005252" lon="-75.6810704423801">
        <ele>52.4778713</ele>
        <time>2019-09-10T15:42:37.800Z</time>
      </trkpt>
      <trkpt lat="10.1588798299849" lon="-75.681072538673">
        <ele>52.4778713</ele>
        <time>2019-09-10T15:42:37.900Z</time>
      </trkpt>
      <trkpt lat="10.1588815586368" lon="-75.6810746347396">
        <ele>52.4778713</ele>
        <time>2019-09-10T15:42:38.000Z</time>
      </trkpt>
      <trkpt lat="10.1588832944539" lon="-75.6810767371424">
        <ele>52.4778713</ele>
        <time>2019-09-10T15:42:38.100Z</time>
      </trkpt>
      <trkpt lat="10.1588850356383" lon="-75.6810788348453">
        <ele>52.4778713</ele>
        <time>2019-09-10T15:42:38.200Z</time>
      </trkpt>
      <trkpt lat="10.1588867804965" lon="-75.6810809371784">
        <ele>52.4778713</ele>
        <time>2019-09-10T15:42:38.300Z</time>
      </trkpt>
      <trkpt lat="10.1588885199874" lon="-75.6810830697647">
        <ele>52.3778713</ele>
        <time>2019-09-10T15:42:38.400Z</time>
      </trkpt>
      <trkpt lat="10.1588919690839" lon="-75.6810873251545">
        <ele>52.3778713</ele>
        <time>2019-09-10T15:42:38.600Z</time>
      </trkpt>
      <trkpt lat="10.1588936784811" lon="-75.6810894419005">
        <ele>52.3778713</ele>
        <time>2019-09-10T15:42:38.700Z</time>
      </trkpt>
      <trkpt lat="10.1588953921513" lon="-75.6810915471232">
        <ele>52.3778713</ele>
        <time>2019-09-10T15:42:38.800Z</time>
      </trkpt>
      <trkpt lat="10.158897111241" lon="-75.6810936539299">
        <ele>52.3778713</ele>
        <time>2019-09-10T15:42:38.900Z</time>
      </trkpt>
      <trkpt lat="10.1588988524776" lon="-75.6810957532864">
        <ele>52.3778713</ele>
        <time>2019-09-10T15:42:39.000Z</time>
      </trkpt>
      <trkpt lat="10.1589005987948" lon="-75.6810978554803">
        <ele>52.3778713</ele>
        <time>2019-09-10T15:42:39.100Z</time>
      </trkpt>
      <trkpt lat="10.1589023213759" lon="-75.6810999519821">
        <ele>52.3778713</ele>
        <time>2019-09-10T15:42:39.200Z</time>
      </trkpt>
      <trkpt lat="10.1589040393192" lon="-75.6811020554292">
        <ele>52.3778713</ele>
        <time>2019-09-10T15:42:39.300Z</time>
      </trkpt>
      <trkpt lat="10.158905767919" lon="-75.6811041557606">
        <ele>52.3778713</ele>
        <time>2019-09-10T15:42:39.400Z</time>
      </trkpt>
      <trkpt lat="10.1589075071233" lon="-75.6811062617317">
        <ele>52.3778713</ele>
        <time>2019-09-10T15:42:39.500Z</time>
      </trkpt>
      <trkpt lat="10.1589091982298" lon="-75.6811082907297">
        <ele>52.3778713</ele>
        <time>2019-09-10T15:42:39.600Z</time>
      </trkpt>
      <trkpt lat="10.1589108961888" lon="-75.6811103283788">
        <ele>52.3778713</ele>
        <time>2019-09-10T15:42:39.700Z</time>
      </trkpt>
      <trkpt lat="10.158912598499" lon="-75.6811123657669">
        <ele>52.3778713</ele>
        <time>2019-09-10T15:42:39.800Z</time>
      </trkpt>
      <trkpt lat="10.1589143177972" lon="-75.6811144252094">
        <ele>52.3778713</ele>
        <time>2019-09-10T15:42:39.900Z</time>
      </trkpt>
      <trkpt lat="10.1589160410296" lon="-75.6811164595339">
        <ele>52.4778713</ele>
        <time>2019-09-10T15:42:40.000Z</time>
      </trkpt>
      <trkpt lat="10.1589177673366" lon="-75.681118508219">
        <ele>52.4778713</ele>
        <time>2019-09-10T15:42:40.100Z</time>
      </trkpt>
      <trkpt lat="10.158919494321" lon="-75.6811206041638">
        <ele>52.4778713</ele>
        <time>2019-09-10T15:42:40.200Z</time>
      </trkpt>
      <trkpt lat="10.1589212246665" lon="-75.6811227107616">
        <ele>52.4778713</ele>
        <time>2019-09-10T15:42:40.300Z</time>
      </trkpt>
      <trkpt lat="10.1589229212967" lon="-75.6811248029465">
        <ele>52.4778713</ele>
        <time>2019-09-10T15:42:40.400Z</time>
      </trkpt>
      <trkpt lat="10.1589246130025" lon="-75.6811268958451">
        <ele>52.4778713</ele>
        <time>2019-09-10T15:42:40.500Z</time>
      </trkpt>
      <trkpt lat="10.1589263091637" lon="-75.6811289619719">
        <ele>52.4778713</ele>
        <time>2019-09-10T15:42:40.600Z</time>
      </trkpt>
      <trkpt lat="10.1589280131415" lon="-75.681131031319">
        <ele>52.4778713</ele>
        <time>2019-09-10T15:42:40.700Z</time>
      </trkpt>
      <trkpt lat="10.1589297120645" lon="-75.6811331046696">
        <ele>52.4778713</ele>
        <time>2019-09-10T15:42:40.800Z</time>
      </trkpt>
      <trkpt lat="10.1589314214878" lon="-75.6811351856532">
        <ele>52.4778713</ele>
        <time>2019-09-10T15:42:40.900Z</time>
      </trkpt>
      <trkpt lat="10.158933188597" lon="-75.68113730904">
        <ele>52.4778713</ele>
        <time>2019-09-10T15:42:41.000Z</time>
      </trkpt>
      <trkpt lat="10.1589349575041" lon="-75.6811394364216">
        <ele>52.4778713</ele>
        <time>2019-09-10T15:42:41.100Z</time>
      </trkpt>
      <trkpt lat="10.1589366977766" lon="-75.6811416050488">
        <ele>52.4778713</ele>
        <time>2019-09-10T15:42:41.200Z</time>
      </trkpt>
      <trkpt lat="10.1589384283827" lon="-75.6811437626574">
        <ele>52.4778713</ele>
        <time>2019-09-10T15:42:41.300Z</time>
      </trkpt>
      <trkpt lat="10.158940157686" lon="-75.6811459124939">
        <ele>52.3778713</ele>
        <time>2019-09-10T15:42:41.400Z</time>
      </trkpt>
      <trkpt lat="10.158941891132" lon="-75.681148050868">
        <ele>52.3778713</ele>
        <time>2019-09-10T15:42:41.500Z</time>
      </trkpt>
      <trkpt lat="10.1589435678301" lon="-75.6811501699552">
        <ele>52.3778713</ele>
        <time>2019-09-10T15:42:41.600Z</time>
      </trkpt>
      <trkpt lat="10.1589452497652" lon="-75.681152285535">
        <ele>52.3778713</ele>
        <time>2019-09-10T15:42:41.700Z</time>
      </trkpt>
      <trkpt lat="10.1589469398035" lon="-75.6811544209063">
        <ele>52.3778713</ele>
        <time>2019-09-10T15:42:41.800Z</time>
      </trkpt>
      <trkpt lat="10.1589486455529" lon="-75.6811565576702">
        <ele>52.3778713</ele>
        <time>2019-09-10T15:42:41.900Z</time>
      </trkpt>
      <trkpt lat="10.1589503314745" lon="-75.6811587100917">
        <ele>52.3778713</ele>
        <time>2019-09-10T15:42:42.000Z</time>
      </trkpt>
      <trkpt lat="10.1589537608733" lon="-75.6811630466759">
        <ele>52.3778713</ele>
        <time>2019-09-10T15:42:42.200Z</time>
      </trkpt>
      <trkpt lat="10.1589555004424" lon="-75.6811652240414">
        <ele>52.3778713</ele>
        <time>2019-09-10T15:42:42.300Z</time>
      </trkpt>
      <trkpt lat="10.1589571924608" lon="-75.6811673387247">
        <ele>52.3778713</ele>
        <time>2019-09-10T15:42:42.400Z</time>
      </trkpt>
      <trkpt lat="10.1589588866158" lon="-75.6811694443564">
        <ele>52.3778713</ele>
        <time>2019-09-10T15:42:42.500Z</time>
      </trkpt>
      <trkpt lat="10.1589606002079" lon="-75.6811715273592">
        <ele>52.3778713</ele>
        <time>2019-09-10T15:42:42.600Z</time>
      </trkpt>
      <trkpt lat="10.1589623244825" lon="-75.6811736179426">
        <ele>52.3778713</ele>
        <time>2019-09-10T15:42:42.700Z</time>
      </trkpt>
      <trkpt lat="10.1589640601693" lon="-75.6811757287877">
        <ele>52.3778713</ele>
        <time>2019-09-10T15:42:42.800Z</time>
      </trkpt>
      <trkpt lat="10.1589657995038" lon="-75.6811778465868">
        <ele>52.3778713</ele>
        <time>2019-09-10T15:42:42.900Z</time>
      </trkpt>
      <trkpt lat="10.1589674891252" lon="-75.6811799185189">
        <ele>52.3778713</ele>
        <time>2019-09-10T15:42:43.000Z</time>
      </trkpt>
      <trkpt lat="10.1589691828112" lon="-75.6811819939932">
        <ele>52.3778713</ele>
        <time>2019-09-10T15:42:43.100Z</time>
      </trkpt>
      <trkpt lat="10.1589708830631" lon="-75.6811840639408">
        <ele>52.4778713</ele>
        <time>2019-09-10T15:42:43.200Z</time>
      </trkpt>
      <trkpt lat="10.1589725924342" lon="-75.6811861473091">
        <ele>52.4778713</ele>
        <time>2019-09-10T15:42:43.300Z</time>
      </trkpt>
      <trkpt lat="10.1589743098303" lon="-75.6811882339412">
        <ele>52.4778713</ele>
        <time>2019-09-10T15:42:43.400Z</time>
      </trkpt>
      <trkpt lat="10.1589760285813" lon="-75.6811903284847">
        <ele>52.4778713</ele>
        <time>2019-09-10T15:42:43.500Z</time>
      </trkpt>
      <trkpt lat="10.1589777264882" lon="-75.6811924230979">
        <ele>52.4778713</ele>
        <time>2019-09-10T15:42:43.600Z</time>
      </trkpt>
      <trkpt lat="10.1589794269485" lon="-75.6811945240211">
        <ele>52.3778713</ele>
        <time>2019-09-10T15:42:43.700Z</time>
      </trkpt>
      <trkpt lat="10.1589811444489" lon="-75.6811966587397">
        <ele>52.3778713</ele>
        <time>2019-09-10T15:42:43.800Z</time>
      </trkpt>
      <trkpt lat="10.1589828728924" lon="-75.6811987909952">
        <ele>52.3778713</ele>
        <time>2019-09-10T15:42:43.900Z</time>
      </trkpt>
      <trkpt lat="10.1589846548009" lon="-75.6812009472287">
        <ele>52.3778713</ele>
        <time>2019-09-10T15:42:44.000Z</time>
      </trkpt>
      <trkpt lat="10.1589864354067" lon="-75.6812030844887">
        <ele>52.3778713</ele>
        <time>2019-09-10T15:42:44.100Z</time>
      </trkpt>
      <trkpt lat="10.1589881932404" lon="-75.6812051698414">
        <ele>52.3778713</ele>
        <time>2019-09-10T15:42:44.200Z</time>
      </trkpt>
      <trkpt lat="10.1589899424758" lon="-75.681207248301">
        <ele>52.3778713</ele>
        <time>2019-09-10T15:42:44.300Z</time>
      </trkpt>
      <trkpt lat="10.1589917171411" lon="-75.6812093559215">
        <ele>52.3778713</ele>
        <time>2019-09-10T15:42:44.400Z</time>
      </trkpt>
      <trkpt lat="10.1589934913894" lon="-75.6812114646255">
        <ele>52.3778713</ele>
        <time>2019-09-10T15:42:44.500Z</time>
      </trkpt>
      <trkpt lat="10.158995226034" lon="-75.6812135394253">
        <ele>52.3778713</ele>
        <time>2019-09-10T15:42:44.600Z</time>
      </trkpt>
      <trkpt lat="10.1589969564056" lon="-75.6812156134461">
        <ele>52.3778713</ele>
        <time>2019-09-10T15:42:44.700Z</time>
      </trkpt>
      <trkpt lat="10.1589986743228" lon="-75.6812176926194">
        <ele>52.3778713</ele>
        <time>2019-09-10T15:42:44.800Z</time>
      </trkpt>
      <trkpt lat="10.1590003999524" lon="-75.6812197783115">
        <ele>52.3778713</ele>
        <time>2019-09-10T15:42:44.900Z</time>
      </trkpt>
      <trkpt lat="10.1590021199019" lon="-75.6812218707271">
        <ele>52.3778713</ele>
        <time>2019-09-10T15:42:45.000Z</time>
      </trkpt>
      <trkpt lat="10.1590038464173" lon="-75.6812239640478">
        <ele>52.3778713</ele>
        <time>2019-09-10T15:42:45.100Z</time>
      </trkpt>
      <trkpt lat="10.1590055723595" lon="-75.681226056472">
        <ele>52.3778713</ele>
        <time>2019-09-10T15:42:45.200Z</time>
      </trkpt>
      <trkpt lat="10.1590072987707" lon="-75.6812281427517">
        <ele>52.3778713</ele>
        <time>2019-09-10T15:42:45.300Z</time>
      </trkpt>
      <trkpt lat="10.1590090543636" lon="-75.6812302717826">
        <ele>52.3778713</ele>
        <time>2019-09-10T15:42:45.400Z</time>
      </trkpt>
      <trkpt lat="10.1590108065172" lon="-75.6812323963399">
        <ele>52.3778713</ele>
        <time>2019-09-10T15:42:45.500Z</time>
      </trkpt>
      <trkpt lat="10.159012547415" lon="-75.6812345013668">
        <ele>52.3778713</ele>
        <time>2019-09-10T15:42:45.600Z</time>
      </trkpt>
      <trkpt lat="10.1590142695532" lon="-75.6812366055842">
        <ele>52.3778713</ele>
        <time>2019-09-10T15:42:45.700Z</time>
      </trkpt>
      <trkpt lat="10.1590159876788" lon="-75.6812387198453">
        <ele>52.3778713</ele>
        <time>2019-09-10T15:42:45.800Z</time>
      </trkpt>
      <trkpt lat="10.1590176980922" lon="-75.6812408326748">
        <ele>52.3778713</ele>
        <time>2019-09-10T15:42:45.900Z</time>
      </trkpt>
      <trkpt lat="10.1590193860982" lon="-75.681242941666">
        <ele>52.3778713</ele>
        <time>2019-09-10T15:42:46.000Z</time>
      </trkpt>
      <trkpt lat="10.1590210704043" lon="-75.6812450527374">
        <ele>52.3778713</ele>
        <time>2019-09-10T15:42:46.100Z</time>
      </trkpt>
      <trkpt lat="10.1590227626312" lon="-75.6812471507819">
        <ele>52.3778713</ele>
        <time>2019-09-10T15:42:46.200Z</time>
      </trkpt>
      <trkpt lat="10.1590244837271" lon="-75.6812492450883">
        <ele>52.3778713</ele>
        <time>2019-09-10T15:42:46.300Z</time>
      </trkpt>
      <trkpt lat="10.1590261515665" lon="-75.6812512996743">
        <ele>52.3778713</ele>
        <time>2019-09-10T15:42:46.400Z</time>
      </trkpt>
      <trkpt lat="10.1590295424298" lon="-75.6812554665502">
        <ele>52.3778713</ele>
        <time>2019-09-10T15:42:46.600Z</time>
      </trkpt>
      <trkpt lat="10.159031266965" lon="-75.6812575764597">
        <ele>52.3778713</ele>
        <time>2019-09-10T15:42:46.700Z</time>
      </trkpt>
      <trkpt lat="10.1590329406928" lon="-75.6812596230059">
        <ele>52.3778713</ele>
        <time>2019-09-10T15:42:46.800Z</time>
      </trkpt>
      <trkpt lat="10.1590346280213" lon="-75.6812616714213">
        <ele>52.3778713</ele>
        <time>2019-09-10T15:42:46.900Z</time>
      </trkpt>
      <trkpt lat="10.1590363316603" lon="-75.6812637258593">
        <ele>52.3778713</ele>
        <time>2019-09-10T15:42:47.000Z</time>
      </trkpt>
      <trkpt lat="10.1590380423863" lon="-75.6812658013695">
        <ele>52.3778713</ele>
        <time>2019-09-10T15:42:47.100Z</time>
      </trkpt>
      <trkpt lat="10.1590397486309" lon="-75.6812678906747">
        <ele>52.3778713</ele>
        <time>2019-09-10T15:42:47.200Z</time>
      </trkpt>
      <trkpt lat="10.1590414714465" lon="-75.6812699864128">
        <ele>52.3778713</ele>
        <time>2019-09-10T15:42:47.300Z</time>
      </trkpt>
      <trkpt lat="10.1590432445484" lon="-75.6812720932565">
        <ele>52.3778713</ele>
        <time>2019-09-10T15:42:47.400Z</time>
      </trkpt>
      <trkpt lat="10.1590450232782" lon="-75.6812742022912">
        <ele>52.3778713</ele>
        <time>2019-09-10T15:42:47.500Z</time>
      </trkpt>
      <trkpt lat="10.1590467994026" lon="-75.6812763180464">
        <ele>52.3778713</ele>
        <time>2019-09-10T15:42:47.600Z</time>
      </trkpt>
      <trkpt lat="10.159048570368" lon="-75.68127843691">
        <ele>52.3778713</ele>
        <time>2019-09-10T15:42:47.700Z</time>
      </trkpt>
      <trkpt lat="10.1590502960496" lon="-75.6812805189104">
        <ele>52.3778713</ele>
        <time>2019-09-10T15:42:47.800Z</time>
      </trkpt>
      <trkpt lat="10.1590520161555" lon="-75.6812825966277">
        <ele>52.3778713</ele>
        <time>2019-09-10T15:42:47.900Z</time>
      </trkpt>
      <trkpt lat="10.159053717189" lon="-75.6812846724028">
        <ele>52.3778713</ele>
        <time>2019-09-10T15:42:48.000Z</time>
      </trkpt>
      <trkpt lat="10.1590554351062" lon="-75.6812867627665">
        <ele>52.3778713</ele>
        <time>2019-09-10T15:42:48.100Z</time>
      </trkpt>
      <trkpt lat="10.1590571321273" lon="-75.6812888149498">
        <ele>52.3778713</ele>
        <time>2019-09-10T15:42:48.200Z</time>
      </trkpt>
      <trkpt lat="10.1590588386844" lon="-75.6812908733328">
        <ele>52.3778713</ele>
        <time>2019-09-10T15:42:48.300Z</time>
      </trkpt>
      <trkpt lat="10.1590605467528" lon="-75.6812929026854">
        <ele>52.3778713</ele>
        <time>2019-09-10T15:42:48.400Z</time>
      </trkpt>
      <trkpt lat="10.1590622647222" lon="-75.6812949497952">
        <ele>52.3778713</ele>
        <time>2019-09-10T15:42:48.500Z</time>
      </trkpt>
      <trkpt lat="10.1590639480382" lon="-75.6812970092856">
        <ele>52.3778713</ele>
        <time>2019-09-10T15:42:48.600Z</time>
      </trkpt>
      <trkpt lat="10.1590656386497" lon="-75.6812990833173">
        <ele>52.3778713</ele>
        <time>2019-09-10T15:42:48.700Z</time>
      </trkpt>
      <trkpt lat="10.1590673355665" lon="-75.6813011703432">
        <ele>52.3778713</ele>
        <time>2019-09-10T15:42:48.800Z</time>
      </trkpt>
      <trkpt lat="10.1590690438433" lon="-75.6813032632766">
        <ele>52.3778713</ele>
        <time>2019-09-10T15:42:48.900Z</time>
      </trkpt>
      <trkpt lat="10.1590707702545" lon="-75.6813053649592">
        <ele>52.3778713</ele>
        <time>2019-09-10T15:42:49.000Z</time>
      </trkpt>
      <trkpt lat="10.1590724998966" lon="-75.6813074646813">
        <ele>52.3778713</ele>
        <time>2019-09-10T15:42:49.100Z</time>
      </trkpt>
      <trkpt lat="10.15907423871" lon="-75.6813096061624">
        <ele>52.3778713</ele>
        <time>2019-09-10T15:42:49.200Z</time>
      </trkpt>
      <trkpt lat="10.1590759764812" lon="-75.6813117387705">
        <ele>52.3778713</ele>
        <time>2019-09-10T15:42:49.300Z</time>
      </trkpt>
      <trkpt lat="10.1590777271236" lon="-75.6813138716788">
        <ele>52.3778713</ele>
        <time>2019-09-10T15:42:49.400Z</time>
      </trkpt>
      <trkpt lat="10.1590794753169" lon="-75.6813159944693">
        <ele>52.3778713</ele>
        <time>2019-09-10T15:42:49.500Z</time>
      </trkpt>
      <trkpt lat="10.1590811986536" lon="-75.681318082098">
        <ele>52.3778713</ele>
        <time>2019-09-10T15:42:49.600Z</time>
      </trkpt>
      <trkpt lat="10.1590829186031" lon="-75.6813201715457">
        <ele>52.3778713</ele>
        <time>2019-09-10T15:42:49.700Z</time>
      </trkpt>
      <trkpt lat="10.1590846395427" lon="-75.6813222626078">
        <ele>52.3778713</ele>
        <time>2019-09-10T15:42:49.800Z</time>
      </trkpt>
      <trkpt lat="10.1590863629836" lon="-75.6813243621428">
        <ele>52.3778713</ele>
        <time>2019-09-10T15:42:49.900Z</time>
      </trkpt>
      <trkpt lat="10.1590880927298" lon="-75.6813264579396">
        <ele>52.3778713</ele>
        <time>2019-09-10T15:42:50.000Z</time>
      </trkpt>
      <trkpt lat="10.159089828104" lon="-75.681328555847">
        <ele>52.2778713</ele>
        <time>2019-09-10T15:42:50.100Z</time>
      </trkpt>
      <trkpt lat="10.1590915386737" lon="-75.681330645286">
        <ele>52.2778713</ele>
        <time>2019-09-10T15:42:50.200Z</time>
      </trkpt>
      <trkpt lat="10.1590932482012" lon="-75.6813327340679">
        <ele>52.2778713</ele>
        <time>2019-09-10T15:42:50.300Z</time>
      </trkpt>
      <trkpt lat="10.1590950016575" lon="-75.6813348575112">
        <ele>52.2778713</ele>
        <time>2019-09-10T15:42:50.400Z</time>
      </trkpt>
      <trkpt lat="10.1590967602728" lon="-75.68133698471">
        <ele>52.2778713</ele>
        <time>2019-09-10T15:42:50.500Z</time>
      </trkpt>
      <trkpt lat="10.1590984859024" lon="-75.6813391108688">
        <ele>52.2778713</ele>
        <time>2019-09-10T15:42:50.600Z</time>
      </trkpt>
      <trkpt lat="10.1591002071025" lon="-75.6813412338029">
        <ele>52.2778713</ele>
        <time>2019-09-10T15:42:50.700Z</time>
      </trkpt>
      <trkpt lat="10.1591019012054" lon="-75.6813433168797">
        <ele>52.2778713</ele>
        <time>2019-09-10T15:42:50.800Z</time>
      </trkpt>
      <trkpt lat="10.1591053395932" lon="-75.6813475101227">
        <ele>52.2778713</ele>
        <time>2019-09-10T15:42:51.000Z</time>
      </trkpt>
      <trkpt lat="10.1591070820544" lon="-75.6813496360073">
        <ele>52.2778713</ele>
        <time>2019-09-10T15:42:51.100Z</time>
      </trkpt>
      <trkpt lat="10.1591088230564" lon="-75.6813517996822">
        <ele>52.2778713</ele>
        <time>2019-09-10T15:42:51.200Z</time>
      </trkpt>
      <trkpt lat="10.1591105611403" lon="-75.6813539713382">
        <ele>52.2778713</ele>
        <time>2019-09-10T15:42:51.300Z</time>
      </trkpt>
      <trkpt lat="10.1591123212147" lon="-75.6813562048322">
        <ele>52.2778713</ele>
        <time>2019-09-10T15:42:51.400Z</time>
      </trkpt>
      <trkpt lat="10.1591140917632" lon="-75.6813584283085">
        <ele>52.2778713</ele>
        <time>2019-09-10T15:42:51.500Z</time>
      </trkpt>
      <trkpt lat="10.1591159000916" lon="-75.6813606492782">
        <ele>52.2778713</ele>
        <time>2019-09-10T15:42:51.600Z</time>
      </trkpt>
      <trkpt lat="10.1591177075342" lon="-75.6813628528236">
        <ele>52.2778713</ele>
        <time>2019-09-10T15:42:51.700Z</time>
      </trkpt>
      <trkpt lat="10.1591195054927" lon="-75.6813650242359">
        <ele>52.2778713</ele>
        <time>2019-09-10T15:42:51.800Z</time>
      </trkpt>
      <trkpt lat="10.1591212984486" lon="-75.6813671785198">
        <ele>52.2778713</ele>
        <time>2019-09-10T15:42:51.900Z</time>
      </trkpt>
      <trkpt lat="10.1591230595652" lon="-75.6813693018543">
        <ele>52.2778713</ele>
        <time>2019-09-10T15:42:52.000Z</time>
      </trkpt>
      <trkpt lat="10.1591248205255" lon="-75.6813714188179">
        <ele>52.2778713</ele>
        <time>2019-09-10T15:42:52.100Z</time>
      </trkpt>
      <trkpt lat="10.1591265827885" lon="-75.6813735270085">
        <ele>52.2778713</ele>
        <time>2019-09-10T15:42:52.200Z</time>
      </trkpt>
      <trkpt lat="10.1591283493766" lon="-75.6813756370789">
        <ele>52.2778713</ele>
        <time>2019-09-10T15:42:52.300Z</time>
      </trkpt>
      <trkpt lat="10.1591301218533" lon="-75.6813777217267">
        <ele>52.2778713</ele>
        <time>2019-09-10T15:42:52.400Z</time>
      </trkpt>
      <trkpt lat="10.1591318959974" lon="-75.6813798073492">
        <ele>52.2778713</ele>
        <time>2019-09-10T15:42:52.500Z</time>
      </trkpt>
      <trkpt lat="10.159133679834" lon="-75.6813818790462">
        <ele>52.2778713</ele>
        <time>2019-09-10T15:42:52.600Z</time>
      </trkpt>
      <trkpt lat="10.1591354618989" lon="-75.6813839560088">
        <ele>52.2778713</ele>
        <time>2019-09-10T15:42:52.700Z</time>
      </trkpt>
      <trkpt lat="10.1591372182214" lon="-75.6813860314047">
        <ele>52.2778713</ele>
        <time>2019-09-10T15:42:52.800Z</time>
      </trkpt>
      <trkpt lat="10.1591389686032" lon="-75.6813881131629">
        <ele>52.2778713</ele>
        <time>2019-09-10T15:42:52.900Z</time>
      </trkpt>
      <trkpt lat="10.159140726958" lon="-75.6813901997863">
        <ele>52.2778713</ele>
        <time>2019-09-10T15:42:53.000Z</time>
      </trkpt>
      <trkpt lat="10.1591424828636" lon="-75.6813922869668">
        <ele>52.1778713</ele>
        <time>2019-09-10T15:42:53.100Z</time>
      </trkpt>
      <trkpt lat="10.1591442111507" lon="-75.6813943808488">
        <ele>52.2778713</ele>
        <time>2019-09-10T15:42:53.200Z</time>
      </trkpt>
      <trkpt lat="10.159145935738" lon="-75.6813964774377">
        <ele>52.2778713</ele>
        <time>2019-09-10T15:42:53.300Z</time>
      </trkpt>
      <trkpt lat="10.159147656365" lon="-75.681398547864">
        <ele>52.2778713</ele>
        <time>2019-09-10T15:42:53.400Z</time>
      </trkpt>
      <trkpt lat="10.1591493897068" lon="-75.6814006180988">
        <ele>52.2778713</ele>
        <time>2019-09-10T15:42:53.500Z</time>
      </trkpt>
      <trkpt lat="10.1591511317511" lon="-75.6814026617795">
        <ele>52.2778713</ele>
        <time>2019-09-10T15:42:53.600Z</time>
      </trkpt>
      <trkpt lat="10.1591528810908" lon="-75.6814047149207">
        <ele>52.2778713</ele>
        <time>2019-09-10T15:42:53.700Z</time>
      </trkpt>
      <trkpt lat="10.1591546657612" lon="-75.6814067504027">
        <ele>52.2778713</ele>
        <time>2019-09-10T15:42:53.800Z</time>
      </trkpt>
      <trkpt lat="10.1591564518386" lon="-75.6814087988268">
        <ele>52.2778713</ele>
        <time>2019-09-10T15:42:53.900Z</time>
      </trkpt>
      <trkpt lat="10.1591582226476" lon="-75.6814108706804">
        <ele>52.2778713</ele>
        <time>2019-09-10T15:42:54.000Z</time>
      </trkpt>
      <trkpt lat="10.1591599877246" lon="-75.6814129535092">
        <ele>52.2778713</ele>
        <time>2019-09-10T15:42:54.100Z</time>
      </trkpt>
      <trkpt lat="10.1591617717176" lon="-75.681415021307">
        <ele>52.2778713</ele>
        <time>2019-09-10T15:42:54.200Z</time>
      </trkpt>
      <trkpt lat="10.1591635533135" lon="-75.6814170997057">
        <ele>52.2778713</ele>
        <time>2019-09-10T15:42:54.300Z</time>
      </trkpt>
      <trkpt lat="10.1591653083853" lon="-75.6814191974434">
        <ele>52.3778713</ele>
        <time>2019-09-10T15:42:54.400Z</time>
      </trkpt>
      <trkpt lat="10.1591670588714" lon="-75.681421300934">
        <ele>52.3778713</ele>
        <time>2019-09-10T15:42:54.500Z</time>
      </trkpt>
      <trkpt lat="10.1591687915879" lon="-75.6814234140072">
        <ele>52.3778713</ele>
        <time>2019-09-10T15:42:54.600Z</time>
      </trkpt>
      <trkpt lat="10.1591705273268" lon="-75.6814255281074">
        <ele>52.3778713</ele>
        <time>2019-09-10T15:42:54.700Z</time>
      </trkpt>
      <trkpt lat="10.1591722226803" lon="-75.6814275733111">
        <ele>52.3778713</ele>
        <time>2019-09-10T15:42:54.800Z</time>
      </trkpt>
      <trkpt lat="10.1591756551276" lon="-75.6814316983235">
        <ele>52.3778713</ele>
        <time>2019-09-10T15:42:55.000Z</time>
      </trkpt>
      <trkpt lat="10.1591773960775" lon="-75.681433787584">
        <ele>52.3778713</ele>
        <time>2019-09-10T15:42:55.100Z</time>
      </trkpt>
      <trkpt lat="10.1591791349431" lon="-75.6814358511694">
        <ele>52.3778713</ele>
        <time>2019-09-10T15:42:55.200Z</time>
      </trkpt>
      <trkpt lat="10.1591808797492" lon="-75.681437918654">
        <ele>52.3778713</ele>
        <time>2019-09-10T15:42:55.300Z</time>
      </trkpt>
      <trkpt lat="10.1591826043886" lon="-75.6814399638751">
        <ele>52.3778713</ele>
        <time>2019-09-10T15:42:55.400Z</time>
      </trkpt>
      <trkpt lat="10.1591843344475" lon="-75.6814420194708">
        <ele>52.3778713</ele>
        <time>2019-09-10T15:42:55.500Z</time>
      </trkpt>
      <trkpt lat="10.1591860279771" lon="-75.6814440926996">
        <ele>52.3778713</ele>
        <time>2019-09-10T15:42:55.600Z</time>
      </trkpt>
      <trkpt lat="10.1591877290628" lon="-75.6814461805676">
        <ele>52.3778713</ele>
        <time>2019-09-10T15:42:55.700Z</time>
      </trkpt>
      <trkpt lat="10.1591894574541" lon="-75.6814483214569">
        <ele>52.3778713</ele>
        <time>2019-09-10T15:42:55.800Z</time>
      </trkpt>
      <trkpt lat="10.1591911981435" lon="-75.6814504647136">
        <ele>52.3778713</ele>
        <time>2019-09-10T15:42:55.900Z</time>
      </trkpt>
      <trkpt lat="10.1591929411779" lon="-75.6814526463699">
        <ele>52.3778713</ele>
        <time>2019-09-10T15:42:56.000Z</time>
      </trkpt>
      <trkpt lat="10.1591946859319" lon="-75.6814548122033">
        <ele>52.3778713</ele>
        <time>2019-09-10T15:42:56.100Z</time>
      </trkpt>
      <trkpt lat="10.1591964307901" lon="-75.6814569654341">
        <ele>52.3778713</ele>
        <time>2019-09-10T15:42:56.200Z</time>
      </trkpt>
      <trkpt lat="10.1591981788791" lon="-75.6814591023373">
        <ele>52.3778713</ele>
        <time>2019-09-10T15:42:56.300Z</time>
      </trkpt>
      <trkpt lat="10.1591999247274" lon="-75.6814612478395">
        <ele>52.3778713</ele>
        <time>2019-09-10T15:42:56.400Z</time>
      </trkpt>
      <trkpt lat="10.1592016684392" lon="-75.681463385143">
        <ele>52.4778713</ele>
        <time>2019-09-10T15:42:56.500Z</time>
      </trkpt>
      <trkpt lat="10.1592033782793" lon="-75.6814654646035">
        <ele>52.4778713</ele>
        <time>2019-09-10T15:42:56.600Z</time>
      </trkpt>
      <trkpt lat="10.1592050905165" lon="-75.6814675418533">
        <ele>52.4778713</ele>
        <time>2019-09-10T15:42:56.700Z</time>
      </trkpt>
      <trkpt lat="10.1592067920711" lon="-75.6814696405135">
        <ele>52.4778713</ele>
        <time>2019-09-10T15:42:56.800Z</time>
      </trkpt>
      <trkpt lat="10.1592085010775" lon="-75.6814717430555">
        <ele>52.4778713</ele>
        <time>2019-09-10T15:42:56.900Z</time>
      </trkpt>
      <trkpt lat="10.1592102142527" lon="-75.6814738737096">
        <ele>52.4778713</ele>
        <time>2019-09-10T15:42:57.000Z</time>
      </trkpt>
      <trkpt lat="10.1592119325868" lon="-75.6814759984976">
        <ele>52.4778713</ele>
        <time>2019-09-10T15:42:57.100Z</time>
      </trkpt>
      <trkpt lat="10.1592136611345" lon="-75.6814781215449">
        <ele>52.4778713</ele>
        <time>2019-09-10T15:42:57.200Z</time>
      </trkpt>
      <trkpt lat="10.1592153892653" lon="-75.6814802388305">
        <ele>52.4778713</ele>
        <time>2019-09-10T15:42:57.300Z</time>
      </trkpt>
      <trkpt lat="10.1592170991055" lon="-75.6814823524085">
        <ele>52.4778713</ele>
        <time>2019-09-10T15:42:57.400Z</time>
      </trkpt>
      <trkpt lat="10.159218817179" lon="-75.6814844652728">
        <ele>52.4778713</ele>
        <time>2019-09-10T15:42:57.500Z</time>
      </trkpt>
      <trkpt lat="10.1592205492181" lon="-75.6814865741857">
        <ele>52.3778713</ele>
        <time>2019-09-10T15:42:57.600Z</time>
      </trkpt>
      <trkpt lat="10.1592222914187" lon="-75.6814886859185">
        <ele>52.3778713</ele>
        <time>2019-09-10T15:42:57.700Z</time>
      </trkpt>
      <trkpt lat="10.1592240427907" lon="-75.6814907563971">
        <ele>52.3778713</ele>
        <time>2019-09-10T15:42:57.800Z</time>
      </trkpt>
      <trkpt lat="10.1592257965597" lon="-75.6814928298348">
        <ele>52.3778713</ele>
        <time>2019-09-10T15:42:57.900Z</time>
      </trkpt>
      <trkpt lat="10.1592275523611" lon="-75.6814949324638">
        <ele>52.3778713</ele>
        <time>2019-09-10T15:42:58.000Z</time>
      </trkpt>
      <trkpt lat="10.1592293057654" lon="-75.681497044127">
        <ele>52.3778713</ele>
        <time>2019-09-10T15:42:58.100Z</time>
      </trkpt>
      <trkpt lat="10.1592310504672" lon="-75.6814991554943">
        <ele>52.3778713</ele>
        <time>2019-09-10T15:42:58.200Z</time>
      </trkpt>
      <trkpt lat="10.1592327992858" lon="-75.6815012668093">
        <ele>52.3778713</ele>
        <time>2019-09-10T15:42:58.300Z</time>
      </trkpt>
      <trkpt lat="10.159234606103" lon="-75.681503408012">
        <ele>52.3778713</ele>
        <time>2019-09-10T15:42:58.400Z</time>
      </trkpt>
      <trkpt lat="10.1592364053643" lon="-75.6815055436967">
        <ele>52.3778713</ele>
        <time>2019-09-10T15:42:58.500Z</time>
      </trkpt>
      <trkpt lat="10.1592381572053" lon="-75.6815076327832">
        <ele>52.3778713</ele>
        <time>2019-09-10T15:42:58.600Z</time>
      </trkpt>
      <trkpt lat="10.1592399030536" lon="-75.6815097190498">
        <ele>52.3778713</ele>
        <time>2019-09-10T15:42:58.700Z</time>
      </trkpt>
      <trkpt lat="10.1592415516642" lon="-75.681511704896">
        <ele>52.3778713</ele>
        <time>2019-09-10T15:42:58.800Z</time>
      </trkpt>
      <trkpt lat="10.159243203662" lon="-75.6815136975832">
        <ele>52.3778713</ele>
        <time>2019-09-10T15:42:58.900Z</time>
      </trkpt>
      <trkpt lat="10.1592449689474" lon="-75.681515798576">
        <ele>52.3778713</ele>
        <time>2019-09-10T15:42:59.000Z</time>
      </trkpt>
      <trkpt lat="10.1592467604443" lon="-75.6815179340344">
        <ele>52.3778713</ele>
        <time>2019-09-10T15:42:59.100Z</time>
      </trkpt>
      <trkpt lat="10.1592484867512" lon="-75.6815200453843">
        <ele>52.3778713</ele>
        <time>2019-09-10T15:42:59.200Z</time>
      </trkpt>
      <trkpt lat="10.159251973341" lon="-75.6815242889549">
        <ele>52.3778713</ele>
        <time>2019-09-10T15:42:59.400Z</time>
      </trkpt>
      <trkpt lat="10.1592537484231" lon="-75.6815264248485">
        <ele>52.3778713</ele>
        <time>2019-09-10T15:42:59.500Z</time>
      </trkpt>
      <trkpt lat="10.1592554890083" lon="-75.6815285184782">
        <ele>52.3778713</ele>
        <time>2019-09-10T15:42:59.600Z</time>
      </trkpt>
      <trkpt lat="10.1592572246951" lon="-75.6815306085394">
        <ele>52.3778713</ele>
        <time>2019-09-10T15:42:59.700Z</time>
      </trkpt>
      <trkpt lat="10.1592589565779" lon="-75.6815326913246">
        <ele>52.3778713</ele>
        <time>2019-09-10T15:42:59.800Z</time>
      </trkpt>
      <trkpt lat="10.1592606898155" lon="-75.6815347797322">
        <ele>52.3778713</ele>
        <time>2019-09-10T15:42:59.900Z</time>
      </trkpt>
      <trkpt lat="10.1592624184153" lon="-75.6815368670432">
        <ele>52.3778713</ele>
        <time>2019-09-10T15:43:00.000Z</time>
      </trkpt>
      <trkpt lat="10.1592641505065" lon="-75.6815389591411">
        <ele>52.3778713</ele>
        <time>2019-09-10T15:43:00.100Z</time>
      </trkpt>
      <trkpt lat="10.1592658470585" lon="-75.6815410505427">
        <ele>52.3778713</ele>
        <time>2019-09-10T15:43:00.200Z</time>
      </trkpt>
      <trkpt lat="10.1592675479878" lon="-75.681543144416">
        <ele>52.3778713</ele>
        <time>2019-09-10T15:43:00.300Z</time>
      </trkpt>
      <trkpt lat="10.1592692532944" lon="-75.6815452396123">
        <ele>52.3778713</ele>
        <time>2019-09-10T15:43:00.400Z</time>
      </trkpt>
      <trkpt lat="10.1592709683456" lon="-75.6815473362186">
        <ele>52.3778713</ele>
        <time>2019-09-10T15:43:00.500Z</time>
      </trkpt>
      <trkpt lat="10.1592726609893" lon="-75.681549399717">
        <ele>52.3778713</ele>
        <time>2019-09-10T15:43:00.600Z</time>
      </trkpt>
      <trkpt lat="10.15927435973" lon="-75.6815514713792">
        <ele>52.3778713</ele>
        <time>2019-09-10T15:43:00.700Z</time>
      </trkpt>
      <trkpt lat="10.1592760322071" lon="-75.6815535533984">
        <ele>52.3778713</ele>
        <time>2019-09-10T15:43:00.800Z</time>
      </trkpt>
      <trkpt lat="10.1592777151063" lon="-75.6815556467844">
        <ele>52.3778713</ele>
        <time>2019-09-10T15:43:00.900Z</time>
      </trkpt>
      <trkpt lat="10.1592794142638" lon="-75.6815577865597">
        <ele>52.3778713</ele>
        <time>2019-09-10T15:43:01.000Z</time>
      </trkpt>
      <trkpt lat="10.1592811268137" lon="-75.6815599217918">
        <ele>52.3778713</ele>
        <time>2019-09-10T15:43:01.100Z</time>
      </trkpt>
      <trkpt lat="10.159282804085" lon="-75.6815620112439">
        <ele>52.3778713</ele>
        <time>2019-09-10T15:43:01.200Z</time>
      </trkpt>
      <trkpt lat="10.1592844960513" lon="-75.6815640960483">
        <ele>52.3778713</ele>
        <time>2019-09-10T15:43:01.300Z</time>
      </trkpt>
      <trkpt lat="10.1592862134995" lon="-75.6815661763965">
        <ele>52.3778713</ele>
        <time>2019-09-10T15:43:01.400Z</time>
      </trkpt>
      <trkpt lat="10.1592879410572" lon="-75.6815682636378">
        <ele>52.3778713</ele>
        <time>2019-09-10T15:43:01.500Z</time>
      </trkpt>
      <trkpt lat="10.1592896449046" lon="-75.6815703555791">
        <ele>52.3778713</ele>
        <time>2019-09-10T15:43:01.600Z</time>
      </trkpt>
      <trkpt lat="10.1592913535462" lon="-75.6815724515761">
        <ele>52.3778713</ele>
        <time>2019-09-10T15:43:01.700Z</time>
      </trkpt>
      <trkpt lat="10.1592930766224" lon="-75.6815745490004">
        <ele>52.3778713</ele>
        <time>2019-09-10T15:43:01.800Z</time>
      </trkpt>
      <trkpt lat="10.1592948104853" lon="-75.6815766448582">
        <ele>52.3778713</ele>
        <time>2019-09-10T15:43:01.900Z</time>
      </trkpt>
      <trkpt lat="10.1592965226704" lon="-75.6815787414122">
        <ele>52.3778713</ele>
        <time>2019-09-10T15:43:02.000Z</time>
      </trkpt>
      <trkpt lat="10.159298241682" lon="-75.6815808390107">
        <ele>52.3778713</ele>
        <time>2019-09-10T15:43:02.100Z</time>
      </trkpt>
      <trkpt lat="10.1592999346905" lon="-75.6815829374447">
        <ele>52.3778713</ele>
        <time>2019-09-10T15:43:02.200Z</time>
      </trkpt>
      <trkpt lat="10.1593016368183" lon="-75.6815850388726">
        <ele>52.3778713</ele>
        <time>2019-09-10T15:43:02.300Z</time>
      </trkpt>
      <trkpt lat="10.1593033436361" lon="-75.6815871440605">
        <ele>52.3778713</ele>
        <time>2019-09-10T15:43:02.400Z</time>
      </trkpt>
      <trkpt lat="10.1593050628561" lon="-75.6815892484128">
        <ele>52.3778713</ele>
        <time>2019-09-10T15:43:02.500Z</time>
      </trkpt>
      <trkpt lat="10.1593067593039" lon="-75.68159138549">
        <ele>52.3778713</ele>
        <time>2019-09-10T15:43:02.600Z</time>
      </trkpt>
      <trkpt lat="10.1593084670075" lon="-75.6815935176585">
        <ele>52.3778713</ele>
        <time>2019-09-10T15:43:02.700Z</time>
      </trkpt>
      <trkpt lat="10.1593101876345" lon="-75.6815956109749">
        <ele>52.3778713</ele>
        <time>2019-09-10T15:43:02.800Z</time>
      </trkpt>
      <trkpt lat="10.1593119176412" lon="-75.6815976999047">
        <ele>52.3778713</ele>
        <time>2019-09-10T15:43:02.900Z</time>
      </trkpt>
      <trkpt lat="10.1593136234168" lon="-75.6815998181825">
        <ele>52.3778713</ele>
        <time>2019-09-10T15:43:03.000Z</time>
      </trkpt>
      <trkpt lat="10.1593153386764" lon="-75.6816019356248">
        <ele>52.3778713</ele>
        <time>2019-09-10T15:43:03.100Z</time>
      </trkpt>
      <trkpt lat="10.1593170628468" lon="-75.6816040464873">
        <ele>52.3778713</ele>
        <time>2019-09-10T15:43:03.200Z</time>
      </trkpt>
      <trkpt lat="10.1593187975436" lon="-75.6816061520581">
        <ele>52.3778713</ele>
        <time>2019-09-10T15:43:03.300Z</time>
      </trkpt>
      <trkpt lat="10.1593205384935" lon="-75.6816082554008">
        <ele>52.3778713</ele>
        <time>2019-09-10T15:43:03.400Z</time>
      </trkpt>
      <trkpt lat="10.1593222826743" lon="-75.6816103609716">
        <ele>52.3778713</ele>
        <time>2019-09-10T15:43:03.500Z</time>
      </trkpt>
      <trkpt lat="10.1593258249699" lon="-75.6816145092743">
        <ele>52.3778713</ele>
        <time>2019-09-10T15:43:03.700Z</time>
      </trkpt>
      <trkpt lat="10.1593275879103" lon="-75.6816165833387">
        <ele>52.3778713</ele>
        <time>2019-09-10T15:43:03.800Z</time>
      </trkpt>
      <trkpt lat="10.1593293402724" lon="-75.6816186674642">
        <ele>52.3778713</ele>
        <time>2019-09-10T15:43:03.900Z</time>
      </trkpt>
      <trkpt lat="10.1593311151982" lon="-75.6816207578562">
        <ele>52.3778713</ele>
        <time>2019-09-10T15:43:04.000Z</time>
      </trkpt>
      <trkpt lat="10.1593328826201" lon="-75.6816228521473">
        <ele>52.3778713</ele>
        <time>2019-09-10T15:43:04.100Z</time>
      </trkpt>
      <trkpt lat="10.1593346410269" lon="-75.6816249475873">
        <ele>52.3778713</ele>
        <time>2019-09-10T15:43:04.200Z</time>
      </trkpt>
      <trkpt lat="10.1593363941186" lon="-75.6816270453598">
        <ele>52.3778713</ele>
        <time>2019-09-10T15:43:04.300Z</time>
      </trkpt>
      <trkpt lat="10.1593398239082" lon="-75.6816312557703">
        <ele>52.3778713</ele>
        <time>2019-09-10T15:43:04.500Z</time>
      </trkpt>
      <trkpt lat="10.1593415405748" lon="-75.6816333684431">
        <ele>52.3778713</ele>
        <time>2019-09-10T15:43:04.600Z</time>
      </trkpt>
      <trkpt lat="10.1593432665691" lon="-75.681635480733">
        <ele>52.3778713</ele>
        <time>2019-09-10T15:43:04.700Z</time>
      </trkpt>
      <trkpt lat="10.1593449938662" lon="-75.6816375884971">
        <ele>52.3778713</ele>
        <time>2019-09-10T15:43:04.800Z</time>
      </trkpt>
      <trkpt lat="10.1593467269475" lon="-75.6816396963307">
        <ele>52.3778713</ele>
        <time>2019-09-10T15:43:04.900Z</time>
      </trkpt>
      <trkpt lat="10.1593484270951" lon="-75.6816417947647">
        <ele>52.3778713</ele>
        <time>2019-09-10T15:43:05.000Z</time>
      </trkpt>
      <trkpt lat="10.1593501347466" lon="-75.681643895392">
        <ele>52.3778713</ele>
        <time>2019-09-10T15:43:05.100Z</time>
      </trkpt>
      <trkpt lat="10.15935184516" lon="-75.6816460261331">
        <ele>52.3778713</ele>
        <time>2019-09-10T15:43:05.200Z</time>
      </trkpt>
      <trkpt lat="10.159353566777" lon="-75.6816481533581">
        <ele>52.3778713</ele>
        <time>2019-09-10T15:43:05.300Z</time>
      </trkpt>
      <trkpt lat="10.1593552325319" lon="-75.6816502052808">
        <ele>52.3778713</ele>
        <time>2019-09-10T15:43:05.400Z</time>
      </trkpt>
      <trkpt lat="10.1593569075624" lon="-75.6816522597799">
        <ele>52.4778713</ele>
        <time>2019-09-10T15:43:05.500Z</time>
      </trkpt>
      <trkpt lat="10.1593586238121" lon="-75.6816543474216">
        <ele>52.4778713</ele>
        <time>2019-09-10T15:43:05.600Z</time>
      </trkpt>
      <trkpt lat="10.1593603531415" lon="-75.681656448954">
        <ele>52.4778713</ele>
        <time>2019-09-10T15:43:05.700Z</time>
      </trkpt>
      <trkpt lat="10.1593620625127" lon="-75.6816585525056">
        <ele>52.3778713</ele>
        <time>2019-09-10T15:43:05.800Z</time>
      </trkpt>
      <trkpt lat="10.159363780013" lon="-75.6816606543861">
        <ele>52.4778713</ele>
        <time>2019-09-10T15:43:05.900Z</time>
      </trkpt>
      <trkpt lat="10.159365512" lon="-75.681662755257">
        <ele>52.4778713</ele>
        <time>2019-09-10T15:43:06.000Z</time>
      </trkpt>
      <trkpt lat="10.1593672483121" lon="-75.6816648590871">
        <ele>52.3778713</ele>
        <time>2019-09-10T15:43:06.100Z</time>
      </trkpt>
      <trkpt lat="10.1593689925971" lon="-75.6816669662942">
        <ele>52.3778713</ele>
        <time>2019-09-10T15:43:06.200Z</time>
      </trkpt>
      <trkpt lat="10.1593707342766" lon="-75.6816690736057">
        <ele>52.3778713</ele>
        <time>2019-09-10T15:43:06.300Z</time>
      </trkpt>
      <trkpt lat="10.1593724724126" lon="-75.681671178898">
        <ele>52.3778713</ele>
        <time>2019-09-10T15:43:06.400Z</time>
      </trkpt>
      <trkpt lat="10.1593742089852" lon="-75.681673284608">
        <ele>52.3778713</ele>
        <time>2019-09-10T15:43:06.500Z</time>
      </trkpt>
      <trkpt lat="10.1593759154903" lon="-75.681675386036">
        <ele>52.3778713</ele>
        <time>2019-09-10T15:43:06.600Z</time>
      </trkpt>
      <trkpt lat="10.159377626529" lon="-75.6816774893091">
        <ele>52.3778713</ele>
        <time>2019-09-10T15:43:06.700Z</time>
      </trkpt>
      <trkpt lat="10.1593793163588" lon="-75.6816795560973">
        <ele>52.3778713</ele>
        <time>2019-09-10T15:43:06.800Z</time>
      </trkpt>
      <trkpt lat="10.1593810152558" lon="-75.6816816302661">
        <ele>52.3778713</ele>
        <time>2019-09-10T15:43:06.900Z</time>
      </trkpt>
      <trkpt lat="10.1593827552157" lon="-75.6816837053749">
        <ele>52.3778713</ele>
        <time>2019-09-10T15:43:07.000Z</time>
      </trkpt>
      <trkpt lat="10.1593845024709" lon="-75.6816857940262">
        <ele>52.3778713</ele>
        <time>2019-09-10T15:43:07.100Z</time>
      </trkpt>
      <trkpt lat="10.1593878869768" lon="-75.6816899036508">
        <ele>52.3778713</ele>
        <time>2019-09-10T15:43:07.300Z</time>
      </trkpt>
      <trkpt lat="10.1593896215693" lon="-75.6816920014582">
        <ele>52.3778713</ele>
        <time>2019-09-10T15:43:07.400Z</time>
      </trkpt>
      <trkpt lat="10.1593913738793" lon="-75.6816941067853">
        <ele>52.3778713</ele>
        <time>2019-09-10T15:43:07.500Z</time>
      </trkpt>
      <trkpt lat="10.1593930838236" lon="-75.681696183948">
        <ele>52.3778713</ele>
        <time>2019-09-10T15:43:07.600Z</time>
      </trkpt>
      <trkpt lat="10.1593948028352" lon="-75.6816982599271">
        <ele>52.3778713</ele>
        <time>2019-09-10T15:43:07.700Z</time>
      </trkpt>
      <trkpt lat="10.1593965253902" lon="-75.6817003706852">
        <ele>52.3778713</ele>
        <time>2019-09-10T15:43:07.800Z</time>
      </trkpt>
      <trkpt lat="10.1593982644121" lon="-75.6817024826965">
        <ele>52.3778713</ele>
        <time>2019-09-10T15:43:07.900Z</time>
      </trkpt>
      <trkpt lat="10.159400065862" lon="-75.681704601601">
        <ele>52.3778713</ele>
        <time>2019-09-10T15:43:08.000Z</time>
      </trkpt>
      <trkpt lat="10.1594018705427" lon="-75.6817067112102">
        <ele>52.3778713</ele>
        <time>2019-09-10T15:43:08.100Z</time>
      </trkpt>
      <trkpt lat="10.159403633431" lon="-75.6817087872241">
        <ele>52.3778713</ele>
        <time>2019-09-10T15:43:08.200Z</time>
      </trkpt>
      <trkpt lat="10.1594053949645" lon="-75.6817108606966">
        <ele>52.3778713</ele>
        <time>2019-09-10T15:43:08.300Z</time>
      </trkpt>
      <trkpt lat="10.1594071983946" lon="-75.6817129726383">
        <ele>52.3778713</ele>
        <time>2019-09-10T15:43:08.400Z</time>
      </trkpt>
      <trkpt lat="10.1594090029711" lon="-75.681715081969">
        <ele>52.3778713</ele>
        <time>2019-09-10T15:43:08.500Z</time>
      </trkpt>
      <trkpt lat="10.159410748663" lon="-75.6817171576348">
        <ele>52.3778713</ele>
        <time>2019-09-10T15:43:08.600Z</time>
      </trkpt>
      <trkpt lat="10.1594142665189" lon="-75.681721313144">
        <ele>52.3778713</ele>
        <time>2019-09-10T15:43:08.800Z</time>
      </trkpt>
      <trkpt lat="10.1594160445192" lon="-75.6817234030486">
        <ele>52.3778713</ele>
        <time>2019-09-10T15:43:08.900Z</time>
      </trkpt>
      <trkpt lat="10.1594178020923" lon="-75.6817254711598">
        <ele>52.3778713</ele>
        <time>2019-09-10T15:43:09.000Z</time>
      </trkpt>
      <trkpt lat="10.1594195542459" lon="-75.6817275433094">
        <ele>52.3778713</ele>
        <time>2019-09-10T15:43:09.100Z</time>
      </trkpt>
      <trkpt lat="10.1594213495468" lon="-75.6817296291408">
        <ele>52.3778713</ele>
        <time>2019-09-10T15:43:09.200Z</time>
      </trkpt>
      <trkpt lat="10.1594231429717" lon="-75.6817317204379">
        <ele>52.3778713</ele>
        <time>2019-09-10T15:43:09.300Z</time>
      </trkpt>
      <trkpt lat="10.1594249491115" lon="-75.6817338216918">
        <ele>52.3778713</ele>
        <time>2019-09-10T15:43:09.400Z</time>
      </trkpt>
      <trkpt lat="10.1594267390972" lon="-75.6817359231546">
        <ele>52.3778713</ele>
        <time>2019-09-10T15:43:09.500Z</time>
      </trkpt>
      <trkpt lat="10.1594284712405" lon="-75.6817379626837">
        <ele>52.3778713</ele>
        <time>2019-09-10T15:43:09.600Z</time>
      </trkpt>
      <trkpt lat="10.1594301943166" lon="-75.6817400075741">
        <ele>52.3778713</ele>
        <time>2019-09-10T15:43:09.700Z</time>
      </trkpt>
      <trkpt lat="10.1594319016555" lon="-75.6817420666685">
        <ele>52.3778713</ele>
        <time>2019-09-10T15:43:09.800Z</time>
      </trkpt>
      <trkpt lat="10.1594336176446" lon="-75.6817441439706">
        <ele>52.3778713</ele>
        <time>2019-09-10T15:43:09.900Z</time>
      </trkpt>
      <trkpt lat="10.159435362086" lon="-75.6817462698378">
        <ele>52.3778713</ele>
        <time>2019-09-10T15:43:10.000Z</time>
      </trkpt>
      <trkpt lat="10.1594371131974" lon="-75.6817483968538">
        <ele>52.3778713</ele>
        <time>2019-09-10T15:43:10.100Z</time>
      </trkpt>
      <trkpt lat="10.1594388338764" lon="-75.6817505266202">
        <ele>52.3778713</ele>
        <time>2019-09-10T15:43:10.200Z</time>
      </trkpt>
      <trkpt lat="10.159440559975" lon="-75.6817526474394">
        <ele>52.3778713</ele>
        <time>2019-09-10T15:43:10.300Z</time>
      </trkpt>
      <trkpt lat="10.1594422850313" lon="-75.6817547301028">
        <ele>52.3778713</ele>
        <time>2019-09-10T15:43:10.400Z</time>
      </trkpt>
      <trkpt lat="10.1594440161324" lon="-75.6817568129054">
        <ele>52.3778713</ele>
        <time>2019-09-10T15:43:10.500Z</time>
      </trkpt>
      <trkpt lat="10.1594457426478" lon="-75.6817588961257">
        <ele>52.3778713</ele>
        <time>2019-09-10T15:43:10.600Z</time>
      </trkpt>
      <trkpt lat="10.159447470935" lon="-75.6817609871096">
        <ele>52.3778713</ele>
        <time>2019-09-10T15:43:10.700Z</time>
      </trkpt>
      <trkpt lat="10.1594491960955" lon="-75.6817630778845">
        <ele>52.3778713</ele>
        <time>2019-09-10T15:43:10.800Z</time>
      </trkpt>
      <trkpt lat="10.1594509191716" lon="-75.681765173986">
        <ele>52.3778713</ele>
        <time>2019-09-10T15:43:10.900Z</time>
      </trkpt>
      <trkpt lat="10.1594526095226" lon="-75.6817672391728">
        <ele>52.3778713</ele>
        <time>2019-09-10T15:43:11.000Z</time>
      </trkpt>
      <trkpt lat="10.1594543081069" lon="-75.6817693101387">
        <ele>52.3778713</ele>
        <time>2019-09-10T15:43:11.100Z</time>
      </trkpt>
      <trkpt lat="10.1594560215948" lon="-75.6817713847601">
        <ele>52.3778713</ele>
        <time>2019-09-10T15:43:11.200Z</time>
      </trkpt>
      <trkpt lat="10.159457743316" lon="-75.6817734702781">
        <ele>52.3778713</ele>
        <time>2019-09-10T15:43:11.300Z</time>
      </trkpt>
      <trkpt lat="10.1594594444017" lon="-75.6817755278408">
        <ele>52.3778713</ele>
        <time>2019-09-10T15:43:11.400Z</time>
      </trkpt>
      <trkpt lat="10.1594611513236" lon="-75.6817775979364">
        <ele>52.3778713</ele>
        <time>2019-09-10T15:43:11.500Z</time>
      </trkpt>
      <trkpt lat="10.1594628383395" lon="-75.6817796449156">
        <ele>52.2778713</ele>
        <time>2019-09-10T15:43:11.600Z</time>
      </trkpt>
      <trkpt lat="10.1594645370281" lon="-75.6817817056811">
        <ele>52.3778713</ele>
        <time>2019-09-10T15:43:11.700Z</time>
      </trkpt>
      <trkpt lat="10.159466251975" lon="-75.6817837777611">
        <ele>52.3778713</ele>
        <time>2019-09-10T15:43:11.800Z</time>
      </trkpt>
      <trkpt lat="10.1594679767187" lon="-75.6817858630006">
        <ele>52.3778713</ele>
        <time>2019-09-10T15:43:11.900Z</time>
      </trkpt>
      <trkpt lat="10.1594696822858" lon="-75.6817879251586">
        <ele>52.3778713</ele>
        <time>2019-09-10T15:43:12.000Z</time>
      </trkpt>
      <trkpt lat="10.1594713952525" lon="-75.6817899974127">
        <ele>52.3778713</ele>
        <time>2019-09-10T15:43:12.100Z</time>
      </trkpt>
      <trkpt lat="10.1594731237481" lon="-75.6817920475252">
        <ele>52.3778713</ele>
        <time>2019-09-10T15:43:12.200Z</time>
      </trkpt>
      <trkpt lat="10.1594748526606" lon="-75.6817941077336">
        <ele>52.3778713</ele>
        <time>2019-09-10T15:43:12.300Z</time>
      </trkpt>
      <trkpt lat="10.1594765198746" lon="-75.6817960777745">
        <ele>52.3778713</ele>
        <time>2019-09-10T15:43:12.400Z</time>
      </trkpt>
      <trkpt lat="10.1594781758328" lon="-75.6817979323729">
        <ele>52.3778713</ele>
        <time>2019-09-10T15:43:12.500Z</time>
      </trkpt>
      <trkpt lat="10.1594814637784" lon="-75.6818009182443">
        <ele>52.3778713</ele>
        <time>2019-09-10T15:43:12.700Z</time>
      </trkpt>
      <trkpt lat="10.1594831764325" lon="-75.6818019546847">
        <ele>52.3778713</ele>
        <time>2019-09-10T15:43:12.800Z</time>
      </trkpt>
      <trkpt lat="10.1594848967989" lon="-75.6818027560625">
        <ele>52.2778713</ele>
        <time>2019-09-10T15:43:12.900Z</time>
      </trkpt>
      <trkpt lat="10.1594866638561" lon="-75.6818031628613">
        <ele>52.3778713</ele>
        <time>2019-09-10T15:43:13.000Z</time>
      </trkpt>
      <trkpt lat="10.1594884338314" lon="-75.6818033121427">
        <ele>52.3778713</ele>
        <time>2019-09-10T15:43:13.100Z</time>
      </trkpt>
      <trkpt lat="10.1594902793665" lon="-75.6818030717537">
        <ele>52.3778713</ele>
        <time>2019-09-10T15:43:13.200Z</time>
      </trkpt>
      <trkpt lat="10.1594921319886" lon="-75.6818025520191">
        <ele>52.3778713</ele>
        <time>2019-09-10T15:43:13.300Z</time>
      </trkpt>
      <trkpt lat="10.1594941603264" lon="-75.6818016702563">
        <ele>52.3778713</ele>
        <time>2019-09-10T15:43:13.400Z</time>
      </trkpt>
      <trkpt lat="10.1594961660483" lon="-75.6818005336568">
        <ele>52.3778713</ele>
        <time>2019-09-10T15:43:13.500Z</time>
      </trkpt>
      <trkpt lat="10.1594983061103" lon="-75.6817990514263">
        <ele>52.3778713</ele>
        <time>2019-09-10T15:43:13.600Z</time>
      </trkpt>
      <trkpt lat="10.1595004033377" lon="-75.6817973000158">
        <ele>52.3778713</ele>
        <time>2019-09-10T15:43:13.700Z</time>
      </trkpt>
      <trkpt lat="10.1595025971775" lon="-75.6817953422294">
        <ele>52.3778713</ele>
        <time>2019-09-10T15:43:13.800Z</time>
      </trkpt>
      <trkpt lat="10.1595047190009" lon="-75.6817932491568">
        <ele>52.3778713</ele>
        <time>2019-09-10T15:43:13.900Z</time>
      </trkpt>
      <trkpt lat="10.1595069363945" lon="-75.6817910603463">
        <ele>52.3778713</ele>
        <time>2019-09-10T15:43:14.000Z</time>
      </trkpt>
      <trkpt lat="10.1595090707244" lon="-75.6817887959551">
        <ele>52.3778713</ele>
        <time>2019-09-10T15:43:14.100Z</time>
      </trkpt>
      <trkpt lat="10.159511267795" lon="-75.6817866236812">
        <ele>52.3778713</ele>
        <time>2019-09-10T15:43:14.200Z</time>
      </trkpt>
      <trkpt lat="10.1595134003531" lon="-75.6817843968193">
        <ele>52.3778713</ele>
        <time>2019-09-10T15:43:14.300Z</time>
      </trkpt>
      <trkpt lat="10.1595155640732" lon="-75.6817822786807">
        <ele>52.3778713</ele>
        <time>2019-09-10T15:43:14.400Z</time>
      </trkpt>
      <trkpt lat="10.1595176653652" lon="-75.6817800986085">
        <ele>52.3778713</ele>
        <time>2019-09-10T15:43:14.500Z</time>
      </trkpt>
      <trkpt lat="10.1595197935461" lon="-75.6817780072417">
        <ele>52.3778713</ele>
        <time>2019-09-10T15:43:14.600Z</time>
      </trkpt>
      <trkpt lat="10.1595218757658" lon="-75.6817758578752">
        <ele>52.3778713</ele>
        <time>2019-09-10T15:43:14.700Z</time>
      </trkpt>
      <trkpt lat="10.1595239542335" lon="-75.6817738064398">
        <ele>52.3778713</ele>
        <time>2019-09-10T15:43:14.800Z</time>
      </trkpt>
      <trkpt lat="10.1595259961199" lon="-75.6817717014956">
        <ele>52.3778713</ele>
        <time>2019-09-10T15:43:14.900Z</time>
      </trkpt>
      <trkpt lat="10.1595280441553" lon="-75.6817695986403">
        <ele>52.3778713</ele>
        <time>2019-09-10T15:43:15.000Z</time>
      </trkpt>
      <trkpt lat="10.1595300642596" lon="-75.6817674510493">
        <ele>52.3778713</ele>
        <time>2019-09-10T15:43:15.100Z</time>
      </trkpt>
      <trkpt lat="10.1595319937964" lon="-75.6817653922682">
        <ele>52.3778713</ele>
        <time>2019-09-10T15:43:15.200Z</time>
      </trkpt>
      <trkpt lat="10.1595339215614" lon="-75.6817633128774">
        <ele>52.3778713</ele>
        <time>2019-09-10T15:43:15.300Z</time>
      </trkpt>
      <trkpt lat="10.1595357808536" lon="-75.6817612355057">
        <ele>52.3778713</ele>
        <time>2019-09-10T15:43:15.400Z</time>
      </trkpt>
      <trkpt lat="10.1595376576549" lon="-75.6817591373502">
        <ele>52.3778713</ele>
        <time>2019-09-10T15:43:15.500Z</time>
      </trkpt>
      <trkpt lat="10.1595394914131" lon="-75.681757053538">
        <ele>52.3778713</ele>
        <time>2019-09-10T15:43:15.600Z</time>
      </trkpt>
      <trkpt lat="10.1595413566459" lon="-75.6817549680548">
        <ele>52.3778713</ele>
        <time>2019-09-10T15:43:15.700Z</time>
      </trkpt>
      <trkpt lat="10.1595431653912" lon="-75.6817529160275">
        <ele>52.3778713</ele>
        <time>2019-09-10T15:43:15.800Z</time>
      </trkpt>
      <trkpt lat="10.1595450106137" lon="-75.6817508673076">
        <ele>52.3778713</ele>
        <time>2019-09-10T15:43:15.900Z</time>
      </trkpt>
      <trkpt lat="10.159546787676" lon="-75.6817488355768">
        <ele>52.3778713</ele>
        <time>2019-09-10T15:43:16.000Z</time>
      </trkpt>
      <trkpt lat="10.159548606218" lon="-75.6817468101821">
        <ele>52.3778713</ele>
        <time>2019-09-10T15:43:16.100Z</time>
      </trkpt>
      <trkpt lat="10.1595504249685" lon="-75.681744780366">
        <ele>52.3778713</ele>
        <time>2019-09-10T15:43:16.200Z</time>
      </trkpt>
      <trkpt lat="10.1595522953081" lon="-75.6817427639881">
        <ele>52.3778713</ele>
        <time>2019-09-10T15:43:16.300Z</time>
      </trkpt>
      <trkpt lat="10.159554138863" lon="-75.6817407589942">
        <ele>52.3778713</ele>
        <time>2019-09-10T15:43:16.400Z</time>
      </trkpt>
      <trkpt lat="10.1595560212922" lon="-75.6817387742272">
        <ele>52.2778713</ele>
        <time>2019-09-10T15:43:16.500Z</time>
      </trkpt>
      <trkpt lat="10.1595578693286" lon="-75.6817368116365">
        <ele>52.2778713</ele>
        <time>2019-09-10T15:43:16.600Z</time>
      </trkpt>
      <trkpt lat="10.1595616036503" lon="-75.6817329529145">
        <ele>52.3778713</ele>
        <time>2019-09-10T15:43:16.800Z</time>
      </trkpt>
      <trkpt lat="10.1595634934791" lon="-75.6817310503427">
        <ele>52.2778713</ele>
        <time>2019-09-10T15:43:16.900Z</time>
      </trkpt>
      <trkpt lat="10.1595653692381" lon="-75.6817291558478">
        <ele>52.2778713</ele>
        <time>2019-09-10T15:43:17.000Z</time>
      </trkpt>
      <trkpt lat="10.1595672907499" lon="-75.6817272708221">
        <ele>52.3778713</ele>
        <time>2019-09-10T15:43:17.100Z</time>
      </trkpt>
      <trkpt lat="10.1595691870404" lon="-75.6817254049092">
        <ele>52.3778713</ele>
        <time>2019-09-10T15:43:17.200Z</time>
      </trkpt>
      <trkpt lat="10.159571127833" lon="-75.6817235462724">
        <ele>52.3778713</ele>
        <time>2019-09-10T15:43:17.300Z</time>
      </trkpt>
      <trkpt lat="10.1595729866041" lon="-75.6817217234937">
        <ele>52.2778713</ele>
        <time>2019-09-10T15:43:17.400Z</time>
      </trkpt>
      <trkpt lat="10.1595747708576" lon="-75.6817199337533">
        <ele>52.2778713</ele>
        <time>2019-09-10T15:43:17.500Z</time>
      </trkpt>
      <trkpt lat="10.1595763554248" lon="-75.6817181534475">
        <ele>52.2778713</ele>
        <time>2019-09-10T15:43:17.600Z</time>
      </trkpt>
      <trkpt lat="10.159577781577" lon="-75.6817163643685">
        <ele>52.2778713</ele>
        <time>2019-09-10T15:43:17.700Z</time>
      </trkpt>
      <trkpt lat="10.1595788989241" lon="-75.6817144840776">
        <ele>52.2778713</ele>
        <time>2019-09-10T15:43:17.800Z</time>
      </trkpt>
      <trkpt lat="10.1595798196072" lon="-75.6817125843605">
        <ele>52.2778713</ele>
        <time>2019-09-10T15:43:17.900Z</time>
      </trkpt>
      <trkpt lat="10.1595803466499" lon="-75.6817106219787">
        <ele>52.2778713</ele>
        <time>2019-09-10T15:43:18.000Z</time>
      </trkpt>
      <trkpt lat="10.1595805274723" lon="-75.6817066066645">
        <ele>52.2778713</ele>
        <time>2019-09-10T15:43:18.200Z</time>
      </trkpt>
      <trkpt lat="10.1595801792719" lon="-75.6817045715219">
        <ele>52.2778713</ele>
        <time>2019-09-10T15:43:18.300Z</time>
      </trkpt>
      <trkpt lat="10.1595794725532" lon="-75.6817024079862">
        <ele>52.2778713</ele>
        <time>2019-09-10T15:43:18.400Z</time>
      </trkpt>
      <trkpt lat="10.1595785202913" lon="-75.6817002813879">
        <ele>52.2778713</ele>
        <time>2019-09-10T15:43:18.500Z</time>
      </trkpt>
      <trkpt lat="10.1595771733466" lon="-75.6816980465536">
        <ele>52.2778713</ele>
        <time>2019-09-10T15:43:18.600Z</time>
      </trkpt>
      <trkpt lat="10.1595755721042" lon="-75.6816958811728">
        <ele>52.2778713</ele>
        <time>2019-09-10T15:43:18.700Z</time>
      </trkpt>
      <trkpt lat="10.1595737560634" lon="-75.6816936480792">
        <ele>52.2778713</ele>
        <time>2019-09-10T15:43:18.800Z</time>
      </trkpt>
      <trkpt lat="10.1595718235043" lon="-75.6816914959973">
        <ele>52.2778713</ele>
        <time>2019-09-10T15:43:18.900Z</time>
      </trkpt>
      <trkpt lat="10.1595698191372" lon="-75.6816892760633">
        <ele>52.2778713</ele>
        <time>2019-09-10T15:43:19.000Z</time>
      </trkpt>
      <trkpt lat="10.1595677516126" lon="-75.6816871376979">
        <ele>52.2778713</ele>
        <time>2019-09-10T15:43:19.100Z</time>
      </trkpt>
      <trkpt lat="10.1595656925299" lon="-75.6816848767185">
        <ele>52.2778713</ele>
        <time>2019-09-10T15:43:19.200Z</time>
      </trkpt>
      <trkpt lat="10.1595635913421" lon="-75.6816827162812">
        <ele>52.2778713</ele>
        <time>2019-09-10T15:43:19.300Z</time>
      </trkpt>
      <trkpt lat="10.1595615466417" lon="-75.6816805477672">
        <ele>52.2778713</ele>
        <time>2019-09-10T15:43:19.400Z</time>
      </trkpt>
      <trkpt lat="10.1595594723428" lon="-75.6816784538938">
        <ele>52.2778713</ele>
        <time>2019-09-10T15:43:19.500Z</time>
      </trkpt>
      <trkpt lat="10.1595574849637" lon="-75.6816763660432">
        <ele>52.2778713</ele>
        <time>2019-09-10T15:43:19.600Z</time>
      </trkpt>
      <trkpt lat="10.1595554617327" lon="-75.6816743383856">
        <ele>52.2778713</ele>
        <time>2019-09-10T15:43:19.700Z</time>
      </trkpt>
      <trkpt lat="10.1595535007214" lon="-75.6816722921026">
        <ele>52.2778713</ele>
        <time>2019-09-10T15:43:19.800Z</time>
      </trkpt>
      <trkpt lat="10.1595515044836" lon="-75.6816702874221">
        <ele>52.2778713</ele>
        <time>2019-09-10T15:43:19.900Z</time>
      </trkpt>
      <trkpt lat="10.1595495234619" lon="-75.6816683119851">
        <ele>52.3778713</ele>
        <time>2019-09-10T15:43:20.000Z</time>
      </trkpt>
      <trkpt lat="10.1595475200328" lon="-75.6816663635984">
        <ele>52.3778713</ele>
        <time>2019-09-10T15:43:20.100Z</time>
      </trkpt>
      <trkpt lat="10.1595455480784" lon="-75.6816644241589">
        <ele>52.3778713</ele>
        <time>2019-09-10T15:43:20.200Z</time>
      </trkpt>
      <trkpt lat="10.1595435663271" lon="-75.6816624951635">
        <ele>52.3778713</ele>
        <time>2019-09-10T15:43:20.300Z</time>
      </trkpt>
      <trkpt lat="10.1595415643572" lon="-75.6816605937057">
        <ele>52.3778713</ele>
        <time>2019-09-10T15:43:20.400Z</time>
      </trkpt>
      <trkpt lat="10.1595395588437" lon="-75.6816586923872">
        <ele>52.3778713</ele>
        <time>2019-09-10T15:43:20.500Z</time>
      </trkpt>
      <trkpt lat="10.1595375509332" lon="-75.6816568346208">
        <ele>52.2778713</ele>
        <time>2019-09-10T15:43:20.600Z</time>
      </trkpt>
      <trkpt lat="10.1595355546953" lon="-75.6816549601089">
        <ele>52.2778713</ele>
        <time>2019-09-10T15:43:20.700Z</time>
      </trkpt>
      <trkpt lat="10.1595335831577" lon="-75.6816531790719">
        <ele>52.2778713</ele>
        <time>2019-09-10T15:43:20.800Z</time>
      </trkpt>
      <trkpt lat="10.159531621" lon="-75.6816513652752">
        <ele>52.2778713</ele>
        <time>2019-09-10T15:43:20.900Z</time>
      </trkpt>
      <trkpt lat="10.1595296315365" lon="-75.6816495335494">
        <ele>52.2778713</ele>
        <time>2019-09-10T15:43:21.000Z</time>
      </trkpt>
      <trkpt lat="10.1595256437507" lon="-75.6816458190957">
        <ele>52.3778713</ele>
        <time>2019-09-10T15:43:21.200Z</time>
      </trkpt>
      <trkpt lat="10.1595236649176" lon="-75.6816439485526">
        <ele>52.3778713</ele>
        <time>2019-09-10T15:43:21.300Z</time>
      </trkpt>
      <trkpt lat="10.1595217215196" lon="-75.6816421314486">
        <ele>52.3778713</ele>
        <time>2019-09-10T15:43:21.400Z</time>
      </trkpt>
      <trkpt lat="10.1595198065736" lon="-75.6816402674156">
        <ele>52.3778713</ele>
        <time>2019-09-10T15:43:21.500Z</time>
      </trkpt>
      <trkpt lat="10.1595179099705" lon="-75.6816383955147">
        <ele>52.3778713</ele>
        <time>2019-09-10T15:43:21.600Z</time>
      </trkpt>
      <trkpt lat="10.1595160335861" lon="-75.6816364717066">
        <ele>52.3778713</ele>
        <time>2019-09-10T15:43:21.700Z</time>
      </trkpt>
      <trkpt lat="10.1595141218711" lon="-75.6816345585862">
        <ele>52.3778713</ele>
        <time>2019-09-10T15:43:21.800Z</time>
      </trkpt>
      <trkpt lat="10.1595122343351" lon="-75.681632602645">
        <ele>52.3778713</ele>
        <time>2019-09-10T15:43:21.900Z</time>
      </trkpt>
      <trkpt lat="10.1595103891126" lon="-75.6816306712474">
        <ele>52.3778713</ele>
        <time>2019-09-10T15:43:22.000Z</time>
      </trkpt>
      <trkpt lat="10.1595085694242" lon="-75.6816287078211">
        <ele>52.3778713</ele>
        <time>2019-09-10T15:43:22.100Z</time>
      </trkpt>
      <trkpt lat="10.1595067393137" lon="-75.6816267246207">
        <ele>52.3778713</ele>
        <time>2019-09-10T15:43:22.200Z</time>
      </trkpt>
      <trkpt lat="10.1595049257742" lon="-75.6816247056665">
        <ele>52.3778713</ele>
        <time>2019-09-10T15:43:22.300Z</time>
      </trkpt>
      <trkpt lat="10.1595031118179" lon="-75.6816227465572">
        <ele>52.3778713</ele>
        <time>2019-09-10T15:43:22.400Z</time>
      </trkpt>
      <trkpt lat="10.1595013181845" lon="-75.6816207629738">
        <ele>52.3778713</ele>
        <time>2019-09-10T15:43:22.500Z</time>
      </trkpt>
      <trkpt lat="10.1594995097519" lon="-75.6816187851695">
        <ele>52.3778713</ele>
        <time>2019-09-10T15:43:22.600Z</time>
      </trkpt>
      <trkpt lat="10.1594977207042" lon="-75.6816167714026">
        <ele>52.3778713</ele>
        <time>2019-09-10T15:43:22.700Z</time>
      </trkpt>
      <trkpt lat="10.1594959355127" lon="-75.6816147707953">
        <ele>52.3778713</ele>
        <time>2019-09-10T15:43:22.800Z</time>
      </trkpt>
      <trkpt lat="10.1594941726244" lon="-75.6816127407355">
        <ele>52.3778713</ele>
        <time>2019-09-10T15:43:22.900Z</time>
      </trkpt>
      <trkpt lat="10.1594924100487" lon="-75.6816106680985">
        <ele>52.3778713</ele>
        <time>2019-09-10T15:43:23.000Z</time>
      </trkpt>
      <trkpt lat="10.1594906682129" lon="-75.6816085744689">
        <ele>52.3778713</ele>
        <time>2019-09-10T15:43:23.100Z</time>
      </trkpt>
      <trkpt lat="10.1594889082427" lon="-75.6816065177418">
        <ele>52.3778713</ele>
        <time>2019-09-10T15:43:23.200Z</time>
      </trkpt>
      <trkpt lat="10.1594871685956" lon="-75.6816044486906">
        <ele>52.3778713</ele>
        <time>2019-09-10T15:43:23.300Z</time>
      </trkpt>
      <trkpt lat="10.1594854329088" lon="-75.681602393739">
        <ele>52.3778713</ele>
        <time>2019-09-10T15:43:23.400Z</time>
      </trkpt>
      <trkpt lat="10.1594837140014" lon="-75.6816003155666">
        <ele>52.3778713</ele>
        <time>2019-09-10T15:43:23.500Z</time>
      </trkpt>
      <trkpt lat="10.159480269204" lon="-75.6815961797968">
        <ele>52.3778713</ele>
        <time>2019-09-10T15:43:23.700Z</time>
      </trkpt>
      <trkpt lat="10.1594785677015" lon="-75.6815941298932">
        <ele>52.3778713</ele>
        <time>2019-09-10T15:43:23.800Z</time>
      </trkpt>
      <trkpt lat="10.1594768738071" lon="-75.6815920563859">
        <ele>52.3778713</ele>
        <time>2019-09-10T15:43:23.900Z</time>
      </trkpt>
      <trkpt lat="10.1594751884588" lon="-75.6815900099985">
        <ele>52.3778713</ele>
        <time>2019-09-10T15:43:24.000Z</time>
      </trkpt>
      <trkpt lat="10.1594735069666" lon="-75.681587934646">
        <ele>52.3778713</ele>
        <time>2019-09-10T15:43:24.100Z</time>
      </trkpt>
      <trkpt lat="10.1594717972307" lon="-75.6815858885371">
        <ele>52.3778713</ele>
        <time>2019-09-10T15:43:24.200Z</time>
      </trkpt>
      <trkpt lat="10.1594700932269" lon="-75.681583812384">
        <ele>52.3778713</ele>
        <time>2019-09-10T15:43:24.300Z</time>
      </trkpt>
      <trkpt lat="10.1594683925581" lon="-75.6815817675284">
        <ele>52.3778713</ele>
        <time>2019-09-10T15:43:24.400Z</time>
      </trkpt>
      <trkpt lat="10.1594667000186" lon="-75.6815796911663">
        <ele>52.3778713</ele>
        <time>2019-09-10T15:43:24.500Z</time>
      </trkpt>
      <trkpt lat="10.1594650067495" lon="-75.6815776152568">
        <ele>52.3778713</ele>
        <time>2019-09-10T15:43:24.600Z</time>
      </trkpt>
      <trkpt lat="10.1594633177534" lon="-75.68157551362">
        <ele>52.3778713</ele>
        <time>2019-09-10T15:43:24.700Z</time>
      </trkpt>
      <trkpt lat="10.159461625735" lon="-75.6815734182496">
        <ele>52.3778713</ele>
        <time>2019-09-10T15:43:24.800Z</time>
      </trkpt>
      <trkpt lat="10.1594599369473" lon="-75.6815713025829">
        <ele>52.3778713</ele>
        <time>2019-09-10T15:43:24.900Z</time>
      </trkpt>
      <trkpt lat="10.1594582447204" lon="-75.6815692004586">
        <ele>52.3778713</ele>
        <time>2019-09-10T15:43:25.000Z</time>
      </trkpt>
      <trkpt lat="10.1594565548906" lon="-75.6815670801442">
        <ele>52.3778713</ele>
        <time>2019-09-10T15:43:25.100Z</time>
      </trkpt>
      <trkpt lat="10.1594548609962" lon="-75.6815649788555">
        <ele>52.3778713</ele>
        <time>2019-09-10T15:43:25.200Z</time>
      </trkpt>
      <trkpt lat="10.1594514424623" lon="-75.6815607403503">
        <ele>52.3778713</ele>
        <time>2019-09-10T15:43:25.400Z</time>
      </trkpt>
      <trkpt lat="10.1594497215748" lon="-75.6815586068241">
        <ele>52.3778713</ele>
        <time>2019-09-10T15:43:25.500Z</time>
      </trkpt>
      <trkpt lat="10.1594480041266" lon="-75.6815565007137">
        <ele>52.3778713</ele>
        <time>2019-09-10T15:43:25.600Z</time>
      </trkpt>
      <trkpt lat="10.15944629783" lon="-75.6815543853428">
        <ele>52.3778713</ele>
        <time>2019-09-10T15:43:25.700Z</time>
      </trkpt>
      <trkpt lat="10.1594445976823" lon="-75.6815522940108">
        <ele>52.3778713</ele>
        <time>2019-09-10T15:43:25.800Z</time>
      </trkpt>
      <trkpt lat="10.1594429015993" lon="-75.6815501873086">
        <ele>52.3778713</ele>
        <time>2019-09-10T15:43:25.900Z</time>
      </trkpt>
      <trkpt lat="10.1594412109357" lon="-75.6815480652012">
        <ele>52.3778713</ele>
        <time>2019-09-10T15:43:26.000Z</time>
      </trkpt>
      <trkpt lat="10.1594395224607" lon="-75.6815459289421">
        <ele>52.3778713</ele>
        <time>2019-09-10T15:43:26.100Z</time>
      </trkpt>
      <trkpt lat="10.159437838363" lon="-75.6815438150683">
        <ele>52.3778713</ele>
        <time>2019-09-10T15:43:26.200Z</time>
      </trkpt>
      <trkpt lat="10.159436156454" lon="-75.6815416963901">
        <ele>52.3778713</ele>
        <time>2019-09-10T15:43:26.300Z</time>
      </trkpt>
      <trkpt lat="10.1594344766293" lon="-75.6815396049014">
        <ele>52.3778713</ele>
        <time>2019-09-10T15:43:26.400Z</time>
      </trkpt>
      <trkpt lat="10.1594327950329" lon="-75.6815375053012">
        <ele>52.3778713</ele>
        <time>2019-09-10T15:43:26.500Z</time>
      </trkpt>
      <trkpt lat="10.1594310775847" lon="-75.6815354247615">
        <ele>52.3778713</ele>
        <time>2019-09-10T15:43:26.600Z</time>
      </trkpt>
      <trkpt lat="10.1594293629504" lon="-75.6815333305226">
        <ele>52.3778713</ele>
        <time>2019-09-10T15:43:26.700Z</time>
      </trkpt>
      <trkpt lat="10.1594276461275" lon="-75.6815312493562">
        <ele>52.3778713</ele>
        <time>2019-09-10T15:43:26.800Z</time>
      </trkpt>
      <trkpt lat="10.1594259370169" lon="-75.6815291536551">
        <ele>52.3778713</ele>
        <time>2019-09-10T15:43:26.900Z</time>
      </trkpt>
      <trkpt lat="10.1594242305118" lon="-75.6815270661875">
        <ele>52.3778713</ele>
        <time>2019-09-10T15:43:27.000Z</time>
      </trkpt>
      <trkpt lat="10.1594225254658" lon="-75.6815249654558">
        <ele>52.3778713</ele>
        <time>2019-09-10T15:43:27.100Z</time>
      </trkpt>
      <trkpt lat="10.1594208239633" lon="-75.6815229057521">
        <ele>52.3778713</ele>
        <time>2019-09-10T15:43:27.200Z</time>
      </trkpt>
      <trkpt lat="10.1594191210017" lon="-75.6815208277364">
        <ele>52.3778713</ele>
        <time>2019-09-10T15:43:27.300Z</time>
      </trkpt>
      <trkpt lat="10.1594173911512" lon="-75.6815187541073">
        <ele>52.3778713</ele>
        <time>2019-09-10T15:43:27.400Z</time>
      </trkpt>
      <trkpt lat="10.1594156636978" lon="-75.6815166622009">
        <ele>52.3778713</ele>
        <time>2019-09-10T15:43:27.500Z</time>
      </trkpt>
      <trkpt lat="10.1594122896661" lon="-75.6815124746978">
        <ele>52.3778713</ele>
        <time>2019-09-10T15:43:27.700Z</time>
      </trkpt>
      <trkpt lat="10.1594105796175" lon="-75.6815103809463">
        <ele>52.3778713</ele>
        <time>2019-09-10T15:43:27.800Z</time>
      </trkpt>
      <trkpt lat="10.1594088624819" lon="-75.681508278265">
        <ele>52.3778713</ele>
        <time>2019-09-10T15:43:27.900Z</time>
      </trkpt>
      <trkpt lat="10.1594071260656" lon="-75.6815061516667">
        <ele>52.3778713</ele>
        <time>2019-09-10T15:43:28.000Z</time>
      </trkpt>
      <trkpt lat="10.1594053935054" lon="-75.6815040200901">
        <ele>52.3778713</ele>
        <time>2019-09-10T15:43:28.100Z</time>
      </trkpt>
      <trkpt lat="10.1594036462501" lon="-75.6815018995668">
        <ele>52.3778713</ele>
        <time>2019-09-10T15:43:28.200Z</time>
      </trkpt>
      <trkpt lat="10.1594019092084" lon="-75.6814997779294">
        <ele>52.3778713</ele>
        <time>2019-09-10T15:43:28.300Z</time>
      </trkpt>
      <trkpt lat="10.1594001973881" lon="-75.6814976710183">
        <ele>52.3778713</ele>
        <time>2019-09-10T15:43:28.400Z</time>
      </trkpt>
      <trkpt lat="10.1593968068896" lon="-75.6814934916791">
        <ele>52.3778713</ele>
        <time>2019-09-10T15:43:28.600Z</time>
      </trkpt>
      <trkpt lat="10.1593951161217" lon="-75.6814914137156">
        <ele>52.3778713</ele>
        <time>2019-09-10T15:43:28.700Z</time>
      </trkpt>
      <trkpt lat="10.1593934030508" lon="-75.6814893776505">
        <ele>52.3778713</ele>
        <time>2019-09-10T15:43:28.800Z</time>
      </trkpt>
      <trkpt lat="10.1593916860715" lon="-75.6814873200182">
        <ele>52.3778713</ele>
        <time>2019-09-10T15:43:28.900Z</time>
      </trkpt>
      <trkpt lat="10.1593899505932" lon="-75.6814852303399">
        <ele>52.3778713</ele>
        <time>2019-09-10T15:43:29.000Z</time>
      </trkpt>
      <trkpt lat="10.1593882221497" lon="-75.6814831218273">
        <ele>52.3778713</ele>
        <time>2019-09-10T15:43:29.100Z</time>
      </trkpt>
      <trkpt lat="10.1593847361852" lon="-75.6814789735768">
        <ele>52.3778713</ele>
        <time>2019-09-10T15:43:29.300Z</time>
      </trkpt>
      <trkpt lat="10.1593830096177" lon="-75.6814769333862">
        <ele>52.3778713</ele>
        <time>2019-09-10T15:43:29.400Z</time>
      </trkpt>
      <trkpt lat="10.1593812888865" lon="-75.6814748796357">
        <ele>52.3778713</ele>
        <time>2019-09-10T15:43:29.500Z</time>
      </trkpt>
      <trkpt lat="10.1593777706658" lon="-75.6814706816363">
        <ele>52.3778713</ele>
        <time>2019-09-10T15:43:29.700Z</time>
      </trkpt>
      <trkpt lat="10.159376007517" lon="-75.681468572793">
        <ele>52.3778713</ele>
        <time>2019-09-10T15:43:29.800Z</time>
      </trkpt>
      <trkpt lat="10.1593725339547" lon="-75.6814643241744">
        <ele>52.3778713</ele>
        <time>2019-09-10T15:43:30.000Z</time>
      </trkpt>
      <trkpt lat="10.1593708164544" lon="-75.6814621892208">
        <ele>52.3778713</ele>
        <time>2019-09-10T15:43:30.100Z</time>
      </trkpt>
      <trkpt lat="10.1593690948894" lon="-75.6814600610211">
        <ele>52.3778713</ele>
        <time>2019-09-10T15:43:30.200Z</time>
      </trkpt>
      <trkpt lat="10.1593673691557" lon="-75.6814579402193">
        <ele>52.3778713</ele>
        <time>2019-09-10T15:43:30.300Z</time>
      </trkpt>
      <trkpt lat="10.1593656336773" lon="-75.6814558313412">
        <ele>52.3778713</ele>
        <time>2019-09-10T15:43:30.400Z</time>
      </trkpt>
      <trkpt lat="10.1593638997101" lon="-75.6814537246041">
        <ele>52.3778713</ele>
        <time>2019-09-10T15:43:30.500Z</time>
      </trkpt>
      <trkpt lat="10.1593621577701" lon="-75.6814516262746">
        <ele>52.3778713</ele>
        <time>2019-09-10T15:43:30.600Z</time>
      </trkpt>
      <trkpt lat="10.1593587335562" lon="-75.6814474588417">
        <ele>52.3778713</ele>
        <time>2019-09-10T15:43:30.800Z</time>
      </trkpt>
      <trkpt lat="10.1593570453939" lon="-75.6814453852995">
        <ele>52.3778713</ele>
        <time>2019-09-10T15:43:30.900Z</time>
      </trkpt>
      <trkpt lat="10.1593536346766" lon="-75.6814412136193">
        <ele>52.3778713</ele>
        <time>2019-09-10T15:43:31.100Z</time>
      </trkpt>
      <trkpt lat="10.1593501851893" lon="-75.6814370113901">
        <ele>52.3778713</ele>
        <time>2019-09-10T15:43:31.300Z</time>
      </trkpt>
      <trkpt lat="10.1593484816545" lon="-75.6814349109543">
        <ele>52.3778713</ele>
        <time>2019-09-10T15:43:31.400Z</time>
      </trkpt>
      <trkpt lat="10.1593467769733" lon="-75.6814328055576">
        <ele>52.3778713</ele>
        <time>2019-09-10T15:43:31.500Z</time>
      </trkpt>
      <trkpt lat="10.1593450580659" lon="-75.6814307084291">
        <ele>52.3778713</ele>
        <time>2019-09-10T15:43:31.600Z</time>
      </trkpt>
      <trkpt lat="10.1593433324885" lon="-75.6814286073145">
        <ele>52.3778713</ele>
        <time>2019-09-10T15:43:31.700Z</time>
      </trkpt>
      <trkpt lat="10.1593415977918" lon="-75.6814265132148">
        <ele>52.3778713</ele>
        <time>2019-09-10T15:43:31.800Z</time>
      </trkpt>
      <trkpt lat="10.1593381541929" lon="-75.6814223205158">
        <ele>52.3778713</ele>
        <time>2019-09-10T15:43:32.000Z</time>
      </trkpt>
      <trkpt lat="10.1593364428416" lon="-75.681420224336">
        <ele>52.3778713</ele>
        <time>2019-09-10T15:43:32.100Z</time>
      </trkpt>
      <trkpt lat="10.1593347198697" lon="-75.6814180964583">
        <ele>52.3778713</ele>
        <time>2019-09-10T15:43:32.200Z</time>
      </trkpt>
      <trkpt lat="10.1593312567295" lon="-75.6814138460207">
        <ele>52.2778713</ele>
        <time>2019-09-10T15:43:32.400Z</time>
      </trkpt>
      <trkpt lat="10.159329524482" lon="-75.6814117279257">
        <ele>52.2778713</ele>
        <time>2019-09-10T15:43:32.500Z</time>
      </trkpt>
      <trkpt lat="10.1593278174037" lon="-75.6814096186298">
        <ele>52.2778713</ele>
        <time>2019-09-10T15:43:32.600Z</time>
      </trkpt>
      <trkpt lat="10.1593261098564" lon="-75.6814075135638">
        <ele>52.2778713</ele>
        <time>2019-09-10T15:43:32.700Z</time>
      </trkpt>
      <trkpt lat="10.1593244266967" lon="-75.6814054182457">
        <ele>52.2778713</ele>
        <time>2019-09-10T15:43:32.800Z</time>
      </trkpt>
      <trkpt lat="10.1593210278605" lon="-75.6814011938226">
        <ele>52.2778713</ele>
        <time>2019-09-10T15:43:33.000Z</time>
      </trkpt>
      <trkpt lat="10.1593193102559" lon="-75.6813990669458">
        <ele>52.2778713</ele>
        <time>2019-09-10T15:43:33.100Z</time>
      </trkpt>
      <trkpt lat="10.159317571234" lon="-75.6813969439333">
        <ele>52.2778713</ele>
        <time>2019-09-10T15:43:33.200Z</time>
      </trkpt>
      <trkpt lat="10.1593140789121" lon="-75.6813927446371">
        <ele>52.2778713</ele>
        <time>2019-09-10T15:43:33.400Z</time>
      </trkpt>
      <trkpt lat="10.1593123303541" lon="-75.6813906629399">
        <ele>52.2778713</ele>
        <time>2019-09-10T15:43:33.500Z</time>
      </trkpt>
      <trkpt lat="10.1593105768977" lon="-75.6813885893368">
        <ele>52.2778713</ele>
        <time>2019-09-10T15:43:33.600Z</time>
      </trkpt>
      <trkpt lat="10.1593088282355" lon="-75.6813865035141">
        <ele>52.2778713</ele>
        <time>2019-09-10T15:43:33.700Z</time>
      </trkpt>
      <trkpt lat="10.1593070776451" lon="-75.6813844196236">
        <ele>52.2778713</ele>
        <time>2019-09-10T15:43:33.800Z</time>
      </trkpt>
      <trkpt lat="10.1593053291913" lon="-75.681382329658">
        <ele>52.3778713</ele>
        <time>2019-09-10T15:43:33.900Z</time>
      </trkpt>
      <trkpt lat="10.1593035812065" lon="-75.6813802410938">
        <ele>52.3778713</ele>
        <time>2019-09-10T15:43:34.000Z</time>
      </trkpt>
      <trkpt lat="10.1593000921154" lon="-75.681376046715">
        <ele>52.3778713</ele>
        <time>2019-09-10T15:43:34.200Z</time>
      </trkpt>
      <trkpt lat="10.1592983479347" lon="-75.6813739465316">
        <ele>52.3778713</ele>
        <time>2019-09-10T15:43:34.300Z</time>
      </trkpt>
      <trkpt lat="10.1592966078185" lon="-75.6813718793691">
        <ele>52.3778713</ele>
        <time>2019-09-10T15:43:34.400Z</time>
      </trkpt>
      <trkpt lat="10.1592948675981" lon="-75.681369805914">
        <ele>52.3778713</ele>
        <time>2019-09-10T15:43:34.500Z</time>
      </trkpt>
      <trkpt lat="10.159293131286" lon="-75.681367729491">
        <ele>52.2778713</ele>
        <time>2019-09-10T15:43:34.600Z</time>
      </trkpt>
      <trkpt lat="10.1592913920036" lon="-75.6813656430243">
        <ele>52.2778713</ele>
        <time>2019-09-10T15:43:34.700Z</time>
      </trkpt>
      <trkpt lat="10.1592896244774" lon="-75.6813635483502">
        <ele>52.2778713</ele>
        <time>2019-09-10T15:43:34.800Z</time>
      </trkpt>
      <trkpt lat="10.1592861700917" lon="-75.681359388437">
        <ele>52.2778713</ele>
        <time>2019-09-10T15:43:35.000Z</time>
      </trkpt>
      <trkpt lat="10.1592844762494" lon="-75.6813573218577">
        <ele>52.2778713</ele>
        <time>2019-09-10T15:43:35.100Z</time>
      </trkpt>
      <trkpt lat="10.1592811386948" lon="-75.6813532354451">
        <ele>52.2778713</ele>
        <time>2019-09-10T15:43:35.300Z</time>
      </trkpt>
      <trkpt lat="10.1592794833099" lon="-75.6813512051721">
        <ele>52.2778713</ele>
        <time>2019-09-10T15:43:35.400Z</time>
      </trkpt>
      <trkpt lat="10.1592778092694" lon="-75.681349158554">
        <ele>52.2778713</ele>
        <time>2019-09-10T15:43:35.500Z</time>
      </trkpt>
      <trkpt lat="10.1592761483608" lon="-75.6813470917396">
        <ele>52.2778713</ele>
        <time>2019-09-10T15:43:35.600Z</time>
      </trkpt>
      <trkpt lat="10.1592744697868" lon="-75.6813450121965">
        <ele>52.2778713</ele>
        <time>2019-09-10T15:43:35.700Z</time>
      </trkpt>
      <trkpt lat="10.1592728242506" lon="-75.6813429798216">
        <ele>52.2778713</ele>
        <time>2019-09-10T15:43:35.800Z</time>
      </trkpt>
      <trkpt lat="10.1592694415686" lon="-75.681338875902">
        <ele>52.2778713</ele>
        <time>2019-09-10T15:43:36.000Z</time>
      </trkpt>
      <trkpt lat="10.1592677028594" lon="-75.6813367966678">
        <ele>52.2778713</ele>
        <time>2019-09-10T15:43:36.100Z</time>
      </trkpt>
      <trkpt lat="10.1592659977613" lon="-75.6813347327778">
        <ele>52.2778713</ele>
        <time>2019-09-10T15:43:36.200Z</time>
      </trkpt>
      <trkpt lat="10.1592642917252" lon="-75.6813326598667">
        <ele>52.2778713</ele>
        <time>2019-09-10T15:43:36.300Z</time>
      </trkpt>
      <trkpt lat="10.1592625419686" lon="-75.6813305377985">
        <ele>52.2778713</ele>
        <time>2019-09-10T15:43:36.400Z</time>
      </trkpt>
      <trkpt lat="10.1592607892939" lon="-75.6813284132977">
        <ele>52.2778713</ele>
        <time>2019-09-10T15:43:36.500Z</time>
      </trkpt>
      <trkpt lat="10.1592590294279" lon="-75.681326251951">
        <ele>52.2778713</ele>
        <time>2019-09-10T15:43:36.600Z</time>
      </trkpt>
      <trkpt lat="10.1592572782644" lon="-75.6813241032546">
        <ele>52.2778713</ele>
        <time>2019-09-10T15:43:36.700Z</time>
      </trkpt>
      <trkpt lat="10.1592555610246" lon="-75.6813219614079">
        <ele>52.2778713</ele>
        <time>2019-09-10T15:43:36.800Z</time>
      </trkpt>
      <trkpt lat="10.1592538454523" lon="-75.6813198314283">
        <ele>52.2778713</ele>
        <time>2019-09-10T15:43:36.900Z</time>
      </trkpt>
      <trkpt lat="10.1592503364552" lon="-75.6813155988371">
        <ele>52.2778713</ele>
        <time>2019-09-10T15:43:37.100Z</time>
      </trkpt>
      <trkpt lat="10.1592468829554" lon="-75.681311329587">
        <ele>52.3778713</ele>
        <time>2019-09-10T15:43:37.300Z</time>
      </trkpt>
      <trkpt lat="10.1592451216303" lon="-75.6813091710862">
        <ele>52.3778713</ele>
        <time>2019-09-10T15:43:37.400Z</time>
      </trkpt>
      <trkpt lat="10.1592433604616" lon="-75.6813070252163">
        <ele>52.3778713</ele>
        <time>2019-09-10T15:43:37.500Z</time>
      </trkpt>
      <trkpt lat="10.1592416308196" lon="-75.6813049351964">
        <ele>52.2778713</ele>
        <time>2019-09-10T15:43:37.600Z</time>
      </trkpt>
      <trkpt lat="10.1592399012297" lon="-75.6813028483076">
        <ele>52.2778713</ele>
        <time>2019-09-10T15:43:37.700Z</time>
      </trkpt>
      <trkpt lat="10.1592381394878" lon="-75.6813007734425">
        <ele>52.2778713</ele>
        <time>2019-09-10T15:43:37.800Z</time>
      </trkpt>
      <trkpt lat="10.1592363755573" lon="-75.6812986890863">
        <ele>52.2778713</ele>
        <time>2019-09-10T15:43:37.900Z</time>
      </trkpt>
      <trkpt lat="10.1592346168377" lon="-75.6812966073488">
        <ele>52.2778713</ele>
        <time>2019-09-10T15:43:38.000Z</time>
      </trkpt>
      <trkpt lat="10.1592328647362" lon="-75.6812945173822">
        <ele>52.2778713</ele>
        <time>2019-09-10T15:43:38.100Z</time>
      </trkpt>
      <trkpt lat="10.1592311236821" lon="-75.6812923948941">
        <ele>52.2778713</ele>
        <time>2019-09-10T15:43:38.200Z</time>
      </trkpt>
      <trkpt lat="10.1592293852334" lon="-75.6812902715672">
        <ele>52.3778713</ele>
        <time>2019-09-10T15:43:38.300Z</time>
      </trkpt>
      <trkpt lat="10.1592276528296" lon="-75.6812881498319">
        <ele>52.3778713</ele>
        <time>2019-09-10T15:43:38.400Z</time>
      </trkpt>
      <trkpt lat="10.1592259206341" lon="-75.6812860309503">
        <ele>52.3778713</ele>
        <time>2019-09-10T15:43:38.500Z</time>
      </trkpt>
      <trkpt lat="10.1592242222061" lon="-75.6812839181339">
        <ele>52.3778713</ele>
        <time>2019-09-10T15:43:38.600Z</time>
      </trkpt>
      <trkpt lat="10.1592225176291" lon="-75.6812818091503">
        <ele>52.2778713</ele>
        <time>2019-09-10T15:43:38.700Z</time>
      </trkpt>
      <trkpt lat="10.1592208078932" lon="-75.6812797092685">
        <ele>52.2778713</ele>
        <time>2019-09-10T15:43:38.800Z</time>
      </trkpt>
      <trkpt lat="10.1592190891422" lon="-75.6812776105446">
        <ele>52.2778713</ele>
        <time>2019-09-10T15:43:38.900Z</time>
      </trkpt>
      <trkpt lat="10.1592173630437" lon="-75.6812754861888">
        <ele>52.2778713</ele>
        <time>2019-09-10T15:43:39.000Z</time>
      </trkpt>
      <trkpt lat="10.159215634496" lon="-75.6812733659799">
        <ele>52.2778713</ele>
        <time>2019-09-10T15:43:39.100Z</time>
      </trkpt>
      <trkpt lat="10.1592139330456" lon="-75.6812712852096">
        <ele>52.2778713</ele>
        <time>2019-09-10T15:43:39.200Z</time>
      </trkpt>
      <trkpt lat="10.159210510395" lon="-75.681267124017">
        <ele>52.2778713</ele>
        <time>2019-09-10T15:43:39.400Z</time>
      </trkpt>
      <trkpt lat="10.1592087848697" lon="-75.6812650345813">
        <ele>52.2778713</ele>
        <time>2019-09-10T15:43:39.500Z</time>
      </trkpt>
      <trkpt lat="10.1592070794068" lon="-75.6812629776508">
        <ele>52.2778713</ele>
        <time>2019-09-10T15:43:39.600Z</time>
      </trkpt>
      <trkpt lat="10.1592053695146" lon="-75.6812609165807">
        <ele>52.2778713</ele>
        <time>2019-09-10T15:43:39.700Z</time>
      </trkpt>
      <trkpt lat="10.1592036487313" lon="-75.6812588525231">
        <ele>52.2778713</ele>
        <time>2019-09-10T15:43:39.800Z</time>
      </trkpt>
      <trkpt lat="10.1592019227891" lon="-75.6812567798165">
        <ele>52.2778713</ele>
        <time>2019-09-10T15:43:39.900Z</time>
      </trkpt>
      <trkpt lat="10.1592001572431" lon="-75.6812546562709">
        <ele>52.2778713</ele>
        <time>2019-09-10T15:43:40.000Z</time>
      </trkpt>
      <trkpt lat="10.1591983948759" lon="-75.6812525367137">
        <ele>52.2778713</ele>
        <time>2019-09-10T15:43:40.100Z</time>
      </trkpt>
      <trkpt lat="10.1591966920185" lon="-75.6812504460758">
        <ele>52.2778713</ele>
        <time>2019-09-10T15:43:40.200Z</time>
      </trkpt>
      <trkpt lat="10.1591949871289" lon="-75.6812483583928">
        <ele>52.2778713</ele>
        <time>2019-09-10T15:43:40.300Z</time>
      </trkpt>
      <trkpt lat="10.1591932762986" lon="-75.6812462981517">
        <ele>52.2778713</ele>
        <time>2019-09-10T15:43:40.400Z</time>
      </trkpt>
      <trkpt lat="10.1591915543168" lon="-75.6812442296924">
        <ele>52.2778713</ele>
        <time>2019-09-10T15:43:40.500Z</time>
      </trkpt>
      <trkpt lat="10.1591898226946" lon="-75.6812421530431">
        <ele>52.2778713</ele>
        <time>2019-09-10T15:43:40.600Z</time>
      </trkpt>
      <trkpt lat="10.1591863703933" lon="-75.6812380416299">
        <ele>52.2778713</ele>
        <time>2019-09-10T15:43:40.800Z</time>
      </trkpt>
      <trkpt lat="10.1591829360701" lon="-75.6812339164608">
        <ele>52.1778713</ele>
        <time>2019-09-10T15:43:41.000Z</time>
      </trkpt>
      <trkpt lat="10.1591812138798" lon="-75.6812318134401">
        <ele>52.1778713</ele>
        <time>2019-09-10T15:43:41.100Z</time>
      </trkpt>
      <trkpt lat="10.1591794905952" lon="-75.681229730903">
        <ele>52.1778713</ele>
        <time>2019-09-10T15:43:41.200Z</time>
      </trkpt>
      <trkpt lat="10.1591777630376" lon="-75.6812276467601">
        <ele>52.1778713</ele>
        <time>2019-09-10T15:43:41.300Z</time>
      </trkpt>
      <trkpt lat="10.1591760296958" lon="-75.6812255541748">
        <ele>52.1778713</ele>
        <time>2019-09-10T15:43:41.400Z</time>
      </trkpt>
      <trkpt lat="10.1591742932273" lon="-75.6812234577426">
        <ele>52.1778713</ele>
        <time>2019-09-10T15:43:41.500Z</time>
      </trkpt>
      <trkpt lat="10.1591725476917" lon="-75.6812213942356">
        <ele>52.1778713</ele>
        <time>2019-09-10T15:43:41.600Z</time>
      </trkpt>
      <trkpt lat="10.1591708012702" lon="-75.6812193273385">
        <ele>52.1778713</ele>
        <time>2019-09-10T15:43:41.700Z</time>
      </trkpt>
      <trkpt lat="10.1591690517221" lon="-75.6812172563378">
        <ele>52.1778713</ele>
        <time>2019-09-10T15:43:41.800Z</time>
      </trkpt>
      <trkpt lat="10.159167304102" lon="-75.681215180437">
        <ele>52.1778713</ele>
        <time>2019-09-10T15:43:41.900Z</time>
      </trkpt>
      <trkpt lat="10.1591655570031" lon="-75.6812130607753">
        <ele>52.1778713</ele>
        <time>2019-09-10T15:43:42.000Z</time>
      </trkpt>
      <trkpt lat="10.1591638113632" lon="-75.6812109418752">
        <ele>52.1778713</ele>
        <time>2019-09-10T15:43:42.100Z</time>
      </trkpt>
      <trkpt lat="10.1591620331024" lon="-75.6812088171481">
        <ele>52.1778713</ele>
        <time>2019-09-10T15:43:42.200Z</time>
      </trkpt>
      <trkpt lat="10.1591584930996" lon="-75.6812045872506">
        <ele>52.1778713</ele>
        <time>2019-09-10T15:43:42.400Z</time>
      </trkpt>
      <trkpt lat="10.1591567348491" lon="-75.6812024721409">
        <ele>52.1778713</ele>
        <time>2019-09-10T15:43:42.500Z</time>
      </trkpt>
      <trkpt lat="10.1591549551813" lon="-75.6812003489892">
        <ele>52.2778713</ele>
        <time>2019-09-10T15:43:42.600Z</time>
      </trkpt>
      <trkpt lat="10.1591531798386" lon="-75.6811982282744">
        <ele>52.2778713</ele>
        <time>2019-09-10T15:43:42.700Z</time>
      </trkpt>
      <trkpt lat="10.1591514476432" lon="-75.681196150102">
        <ele>52.2778713</ele>
        <time>2019-09-10T15:43:42.800Z</time>
      </trkpt>
      <trkpt lat="10.1591497161773" lon="-75.6811940732613">
        <ele>52.2778713</ele>
        <time>2019-09-10T15:43:42.900Z</time>
      </trkpt>
      <trkpt lat="10.1591479645448" lon="-75.6811920018254">
        <ele>52.2778713</ele>
        <time>2019-09-10T15:43:43.000Z</time>
      </trkpt>
      <trkpt lat="10.1591462081702" lon="-75.6811899202151">
        <ele>52.2778713</ele>
        <time>2019-09-10T15:43:43.100Z</time>
      </trkpt>
      <trkpt lat="10.1591444631557" lon="-75.6811878360026">
        <ele>52.2778713</ele>
        <time>2019-09-10T15:43:43.200Z</time>
      </trkpt>
      <trkpt lat="10.1591427174116" lon="-75.6811857495706">
        <ele>52.2778713</ele>
        <time>2019-09-10T15:43:43.300Z</time>
      </trkpt>
      <trkpt lat="10.1591410087179" lon="-75.681183695089">
        <ele>52.2778713</ele>
        <time>2019-09-10T15:43:43.400Z</time>
      </trkpt>
      <trkpt lat="10.159139296168" lon="-75.6811816364385">
        <ele>52.2778713</ele>
        <time>2019-09-10T15:43:43.500Z</time>
      </trkpt>
      <trkpt lat="10.1591375558955" lon="-75.6811795662994">
        <ele>52.2778713</ele>
        <time>2019-09-10T15:43:43.600Z</time>
      </trkpt>
      <trkpt lat="10.1591358078586" lon="-75.6811774852375">
        <ele>52.2778713</ele>
        <time>2019-09-10T15:43:43.700Z</time>
      </trkpt>
      <trkpt lat="10.1591340972889" lon="-75.6811753879524">
        <ele>52.2778713</ele>
        <time>2019-09-10T15:43:43.800Z</time>
      </trkpt>
      <trkpt lat="10.159132385208" lon="-75.6811732850187">
        <ele>52.2778713</ele>
        <time>2019-09-10T15:43:43.900Z</time>
      </trkpt>
      <trkpt lat="10.1591306732835" lon="-75.6811711707096">
        <ele>52.2778713</ele>
        <time>2019-09-10T15:43:44.000Z</time>
      </trkpt>
      <trkpt lat="10.1591289518228" lon="-75.6811690582631">
        <ele>52.2778713</ele>
        <time>2019-09-10T15:43:44.100Z</time>
      </trkpt>
      <trkpt lat="10.1591272216075" lon="-75.6811669435798">
        <ele>52.2778713</ele>
        <time>2019-09-10T15:43:44.200Z</time>
      </trkpt>
      <trkpt lat="10.1591254877967" lon="-75.6811648301672">
        <ele>52.2778713</ele>
        <time>2019-09-10T15:43:44.300Z</time>
      </trkpt>
      <trkpt lat="10.1591237479411" lon="-75.6811627545189">
        <ele>52.2778713</ele>
        <time>2019-09-10T15:43:44.400Z</time>
      </trkpt>
      <trkpt lat="10.1591220048025" lon="-75.6811606789836">
        <ele>52.2778713</ele>
        <time>2019-09-10T15:43:44.500Z</time>
      </trkpt>
      <trkpt lat="10.1591202220602" lon="-75.6811586113947">
        <ele>52.2778713</ele>
        <time>2019-09-10T15:43:44.600Z</time>
      </trkpt>
      <trkpt lat="10.1591184429656" lon="-75.6811565376698">
        <ele>52.2778713</ele>
        <time>2019-09-10T15:43:44.700Z</time>
      </trkpt>
      <trkpt lat="10.1591166704368" lon="-75.6811544580439">
        <ele>52.2778713</ele>
        <time>2019-09-10T15:43:44.800Z</time>
      </trkpt>
      <trkpt lat="10.1591149096329" lon="-75.6811523750672">
        <ele>52.2778713</ele>
        <time>2019-09-10T15:43:44.900Z</time>
      </trkpt>
      <trkpt lat="10.1591114152787" lon="-75.6811482570612">
        <ele>52.2778713</ele>
        <time>2019-09-10T15:43:45.100Z</time>
      </trkpt>
      <trkpt lat="10.1591096119007" lon="-75.6811461499237">
        <ele>52.2778713</ele>
        <time>2019-09-10T15:43:45.200Z</time>
      </trkpt>
      <trkpt lat="10.1591078214982" lon="-75.6811440441005">
        <ele>52.2778713</ele>
        <time>2019-09-10T15:43:45.300Z</time>
      </trkpt>
      <trkpt lat="10.1591060805483" lon="-75.6811419963554">
        <ele>52.2778713</ele>
        <time>2019-09-10T15:43:45.400Z</time>
      </trkpt>
      <trkpt lat="10.1591043503852" lon="-75.6811399478008">
        <ele>52.2778713</ele>
        <time>2019-09-10T15:43:45.500Z</time>
      </trkpt>
      <trkpt lat="10.1591026672776" lon="-75.6811379169491">
        <ele>52.2778713</ele>
        <time>2019-09-10T15:43:45.600Z</time>
      </trkpt>
      <trkpt lat="10.1591009740606" lon="-75.68113587111">
        <ele>52.2778713</ele>
        <time>2019-09-10T15:43:45.700Z</time>
      </trkpt>
      <trkpt lat="10.159099297571" lon="-75.681133866238">
        <ele>52.2778713</ele>
        <time>2019-09-10T15:43:45.800Z</time>
      </trkpt>
      <trkpt lat="10.1590958500638" lon="-75.6811297633846">
        <ele>52.2778713</ele>
        <time>2019-09-10T15:43:46.000Z</time>
      </trkpt>
      <trkpt lat="10.1590940827461" lon="-75.6811276599896">
        <ele>52.2778713</ele>
        <time>2019-09-10T15:43:46.100Z</time>
      </trkpt>
      <trkpt lat="10.1590923394512" lon="-75.6811255327995">
        <ele>52.2778713</ele>
        <time>2019-09-10T15:43:46.200Z</time>
      </trkpt>
      <trkpt lat="10.1590906017321" lon="-75.6811234103092">
        <ele>52.2778713</ele>
        <time>2019-09-10T15:43:46.300Z</time>
      </trkpt>
      <trkpt lat="10.1590888622934" lon="-75.6811212815176">
        <ele>52.2778713</ele>
        <time>2019-09-10T15:43:46.400Z</time>
      </trkpt>
      <trkpt lat="10.1590871223857" lon="-75.6811191611858">
        <ele>52.2778713</ele>
        <time>2019-09-10T15:43:46.500Z</time>
      </trkpt>
      <trkpt lat="10.1590853803414" lon="-75.681117041498">
        <ele>52.2778713</ele>
        <time>2019-09-10T15:43:46.600Z</time>
      </trkpt>
      <trkpt lat="10.1590818938037" lon="-75.6811127845416">
        <ele>52.2778713</ele>
        <time>2019-09-10T15:43:46.800Z</time>
      </trkpt>
      <trkpt lat="10.1590801535312" lon="-75.681110648822">
        <ele>52.2778713</ele>
        <time>2019-09-10T15:43:46.900Z</time>
      </trkpt>
      <trkpt lat="10.1590784140404" lon="-75.681108523947">
        <ele>52.2778713</ele>
        <time>2019-09-10T15:43:47.000Z</time>
      </trkpt>
      <trkpt lat="10.1590766712666" lon="-75.6811064081236">
        <ele>52.2778713</ele>
        <time>2019-09-10T15:43:47.100Z</time>
      </trkpt>
      <trkpt lat="10.1590749291702" lon="-75.6811042686268">
        <ele>52.2778713</ele>
        <time>2019-09-10T15:43:47.200Z</time>
      </trkpt>
      <trkpt lat="10.1590731862401" lon="-75.681102135849">
        <ele>52.2778713</ele>
        <time>2019-09-10T15:43:47.300Z</time>
      </trkpt>
      <trkpt lat="10.1590714445606" lon="-75.6811000132195">
        <ele>52.2778713</ele>
        <time>2019-09-10T15:43:47.400Z</time>
      </trkpt>
      <trkpt lat="10.1590697013178" lon="-75.6810978976397">
        <ele>52.2778713</ele>
        <time>2019-09-10T15:43:47.500Z</time>
      </trkpt>
      <trkpt lat="10.1590679629213" lon="-75.6810957920864">
        <ele>52.2778713</ele>
        <time>2019-09-10T15:43:47.600Z</time>
      </trkpt>
      <trkpt lat="10.1590662251501" lon="-75.681093688587">
        <ele>52.2778713</ele>
        <time>2019-09-10T15:43:47.700Z</time>
      </trkpt>
      <trkpt lat="10.1590644250551" lon="-75.6810915568362">
        <ele>52.2778713</ele>
        <time>2019-09-10T15:43:47.800Z</time>
      </trkpt>
      <trkpt lat="10.1590626308485" lon="-75.6810894310909">
        <ele>52.2778713</ele>
        <time>2019-09-10T15:43:47.900Z</time>
      </trkpt>
      <trkpt lat="10.1590591273229" lon="-75.6810852069812">
        <ele>52.2778713</ele>
        <time>2019-09-10T15:43:48.100Z</time>
      </trkpt>
      <trkpt lat="10.1590573902812" lon="-75.6810831034818">
        <ele>52.2778713</ele>
        <time>2019-09-10T15:43:48.200Z</time>
      </trkpt>
      <trkpt lat="10.1590556501129" lon="-75.6810810008702">
        <ele>52.2778713</ele>
        <time>2019-09-10T15:43:48.300Z</time>
      </trkpt>
      <trkpt lat="10.1590539208878" lon="-75.6810789006085">
        <ele>52.2778713</ele>
        <time>2019-09-10T15:43:48.400Z</time>
      </trkpt>
      <trkpt lat="10.1590521863995" lon="-75.681076797788">
        <ele>52.2778713</ele>
        <time>2019-09-10T15:43:48.500Z</time>
      </trkpt>
      <trkpt lat="10.1590486604144" lon="-75.6810726059332">
        <ele>52.2778713</ele>
        <time>2019-09-10T15:43:48.700Z</time>
      </trkpt>
      <trkpt lat="10.1590469056032" lon="-75.6810704810407">
        <ele>52.2778713</ele>
        <time>2019-09-10T15:43:48.800Z</time>
      </trkpt>
      <trkpt lat="10.1590451571494" lon="-75.6810683595427">
        <ele>52.2778713</ele>
        <time>2019-09-10T15:43:48.900Z</time>
      </trkpt>
      <trkpt lat="10.1590434172416" lon="-75.6810662418045">
        <ele>52.2778713</ele>
        <time>2019-09-10T15:43:49.000Z</time>
      </trkpt>
      <trkpt lat="10.1590416789493" lon="-75.6810641285746">
        <ele>52.2778713</ele>
        <time>2019-09-10T15:43:49.100Z</time>
      </trkpt>
      <trkpt lat="10.1590399512875" lon="-75.6810620158322">
        <ele>52.2778713</ele>
        <time>2019-09-10T15:43:49.200Z</time>
      </trkpt>
      <trkpt lat="10.1590382253974" lon="-75.681059900061">
        <ele>52.2778713</ele>
        <time>2019-09-10T15:43:49.300Z</time>
      </trkpt>
      <trkpt lat="10.1590365367661" lon="-75.6810577854038">
        <ele>52.2778713</ele>
        <time>2019-09-10T15:43:49.400Z</time>
      </trkpt>
      <trkpt lat="10.1590331268304" lon="-75.6810535639399">
        <ele>52.2778713</ele>
        <time>2019-09-10T15:43:49.600Z</time>
      </trkpt>
      <trkpt lat="10.1590314046402" lon="-75.6810514584736">
        <ele>52.2778713</ele>
        <time>2019-09-10T15:43:49.700Z</time>
      </trkpt>
      <trkpt lat="10.1590297029813" lon="-75.6810493982651">
        <ele>52.2778713</ele>
        <time>2019-09-10T15:43:49.800Z</time>
      </trkpt>
      <trkpt lat="10.1590262685018" lon="-75.6810452723302">
        <ele>52.2778713</ele>
        <time>2019-09-10T15:43:50.000Z</time>
      </trkpt>
      <trkpt lat="10.159024537088" lon="-75.6810432009465">
        <ele>52.2778713</ele>
        <time>2019-09-10T15:43:50.100Z</time>
      </trkpt>
      <trkpt lat="10.1590228328236" lon="-75.6810411258726">
        <ele>52.2778713</ele>
        <time>2019-09-10T15:43:50.200Z</time>
      </trkpt>
      <trkpt lat="10.159021124651" lon="-75.6810390429655">
        <ele>52.2778713</ele>
        <time>2019-09-10T15:43:50.300Z</time>
      </trkpt>
      <trkpt lat="10.159019414863" lon="-75.6810369144525">
        <ele>52.2778713</ele>
        <time>2019-09-10T15:43:50.400Z</time>
      </trkpt>
      <trkpt lat="10.1590176971542" lon="-75.6810347890204">
        <ele>52.2778713</ele>
        <time>2019-09-10T15:43:50.500Z</time>
      </trkpt>
      <trkpt lat="10.1590160348386" lon="-75.6810326952515">
        <ele>52.2778713</ele>
        <time>2019-09-10T15:43:50.600Z</time>
      </trkpt>
      <trkpt lat="10.159012702964" lon="-75.6810285429626">
        <ele>52.2778713</ele>
        <time>2019-09-10T15:43:50.800Z</time>
      </trkpt>
      <trkpt lat="10.1590110252237" lon="-75.6810264778802">
        <ele>52.2778713</ele>
        <time>2019-09-10T15:43:50.900Z</time>
      </trkpt>
      <trkpt lat="10.1590076813117" lon="-75.6810224081172">
        <ele>52.2778713</ele>
        <time>2019-09-10T15:43:51.100Z</time>
      </trkpt>
      <trkpt lat="10.1590059789233" lon="-75.6810203503283">
        <ele>52.2778713</ele>
        <time>2019-09-10T15:43:51.200Z</time>
      </trkpt>
      <trkpt lat="10.159004271376" lon="-75.6810182730611">
        <ele>52.2778713</ele>
        <time>2019-09-10T15:43:51.300Z</time>
      </trkpt>
      <trkpt lat="10.1590025754493" lon="-75.6810162074391">
        <ele>52.2778713</ele>
        <time>2019-09-10T15:43:51.400Z</time>
      </trkpt>
      <trkpt lat="10.1589991857845" lon="-75.6810120916872">
        <ele>52.2778713</ele>
        <time>2019-09-10T15:43:51.600Z</time>
      </trkpt>
      <trkpt lat="10.1589974845947" lon="-75.6810100440117">
        <ele>52.2778713</ele>
        <time>2019-09-10T15:43:51.700Z</time>
      </trkpt>
      <trkpt lat="10.1589957563596" lon="-75.6810079873716">
        <ele>52.2778713</ele>
        <time>2019-09-10T15:43:51.800Z</time>
      </trkpt>
      <trkpt lat="10.1589940237473" lon="-75.6810059232292">
        <ele>52.2778713</ele>
        <time>2019-09-10T15:43:51.900Z</time>
      </trkpt>
      <trkpt lat="10.1589923059343" lon="-75.6810038709757">
        <ele>52.2778713</ele>
        <time>2019-09-10T15:43:52.000Z</time>
      </trkpt>
      <trkpt lat="10.1589905877565" lon="-75.6810018111676">
        <ele>52.2778713</ele>
        <time>2019-09-10T15:43:52.100Z</time>
      </trkpt>
      <trkpt lat="10.1589888519134" lon="-75.680999722377">
        <ele>52.2778713</ele>
        <time>2019-09-10T15:43:52.200Z</time>
      </trkpt>
      <trkpt lat="10.1589871104945" lon="-75.6809976287995">
        <ele>52.2778713</ele>
        <time>2019-09-10T15:43:52.300Z</time>
      </trkpt>
      <trkpt lat="10.1589853588098" lon="-75.6809955146297">
        <ele>52.2778713</ele>
        <time>2019-09-10T15:43:52.400Z</time>
      </trkpt>
      <trkpt lat="10.1589836090533" lon="-75.6809934047594">
        <ele>52.2778713</ele>
        <time>2019-09-10T15:43:52.500Z</time>
      </trkpt>
      <trkpt lat="10.1589800382013" lon="-75.6809890990115">
        <ele>52.2778713</ele>
        <time>2019-09-10T15:43:52.700Z</time>
      </trkpt>
      <trkpt lat="10.1589782629628" lon="-75.6809869460592">
        <ele>52.2778713</ele>
        <time>2019-09-10T15:43:52.800Z</time>
      </trkpt>
      <trkpt lat="10.1589746834605" lon="-75.6809825991091">
        <ele>52.2778713</ele>
        <time>2019-09-10T15:43:53.000Z</time>
      </trkpt>
      <trkpt lat="10.158972884564" lon="-75.6809804139193">
        <ele>52.2778713</ele>
        <time>2019-09-10T15:43:53.100Z</time>
      </trkpt>
      <trkpt lat="10.1589694004234" lon="-75.6809761235416">
        <ele>52.2778713</ele>
        <time>2019-09-10T15:43:53.300Z</time>
      </trkpt>
      <trkpt lat="10.1589676822978" lon="-75.68097401811">
        <ele>52.2778713</ele>
        <time>2019-09-10T15:43:53.400Z</time>
      </trkpt>
      <trkpt lat="10.1589659614103" lon="-75.6809719180398">
        <ele>52.2778713</ele>
        <time>2019-09-10T15:43:53.500Z</time>
      </trkpt>
      <trkpt lat="10.1589625186973" lon="-75.6809676853485">
        <ele>52.2778713</ele>
        <time>2019-09-10T15:43:53.700Z</time>
      </trkpt>
      <trkpt lat="10.1589608265746" lon="-75.6809655763659">
        <ele>52.2778713</ele>
        <time>2019-09-10T15:43:53.800Z</time>
      </trkpt>
      <trkpt lat="10.1589591296578" lon="-75.6809634690893">
        <ele>52.2778713</ele>
        <time>2019-09-10T15:43:53.900Z</time>
      </trkpt>
      <trkpt lat="10.158957424247" lon="-75.6809613728138">
        <ele>52.2778713</ele>
        <time>2019-09-10T15:43:54.000Z</time>
      </trkpt>
      <trkpt lat="10.1589557095085" lon="-75.6809592757375">
        <ele>52.2778713</ele>
        <time>2019-09-10T15:43:54.100Z</time>
      </trkpt>
      <trkpt lat="10.1589540148324" lon="-75.6809571816204">
        <ele>52.2778713</ele>
        <time>2019-09-10T15:43:54.200Z</time>
      </trkpt>
      <trkpt lat="10.1589523144503" lon="-75.6809550809236">
        <ele>52.2778713</ele>
        <time>2019-09-10T15:43:54.300Z</time>
      </trkpt>
      <trkpt lat="10.1589505995555" lon="-75.6809529832903">
        <ele>52.2778713</ele>
        <time>2019-09-10T15:43:54.400Z</time>
      </trkpt>
      <trkpt lat="10.1589488779124" lon="-75.6809508812705">
        <ele>52.2778713</ele>
        <time>2019-09-10T15:43:54.500Z</time>
      </trkpt>
      <trkpt lat="10.1589471723974" lon="-75.6809487806781">
        <ele>52.2778713</ele>
        <time>2019-09-10T15:43:54.600Z</time>
      </trkpt>
      <trkpt lat="10.1589454631304" lon="-75.6809466777532">
        <ele>52.2778713</ele>
        <time>2019-09-10T15:43:54.700Z</time>
      </trkpt>
      <trkpt lat="10.1589420023352" lon="-75.6809424728432">
        <ele>52.2778713</ele>
        <time>2019-09-10T15:43:54.900Z</time>
      </trkpt>
      <trkpt lat="10.1589402870756" lon="-75.680940407169">
        <ele>52.2778713</ele>
        <time>2019-09-10T15:43:55.000Z</time>
      </trkpt>
      <trkpt lat="10.1589385668134" lon="-75.6809383342187">
        <ele>52.2778713</ele>
        <time>2019-09-10T15:43:55.100Z</time>
      </trkpt>
      <trkpt lat="10.1589351050281" lon="-75.6809341867515">
        <ele>52.2778713</ele>
        <time>2019-09-10T15:43:55.300Z</time>
      </trkpt>
      <trkpt lat="10.1589333693673" lon="-75.6809321409559">
        <ele>52.2778713</ele>
        <time>2019-09-10T15:43:55.400Z</time>
      </trkpt>
      <trkpt lat="10.1589316342277" lon="-75.6809300852036">
        <ele>52.2778713</ele>
        <time>2019-09-10T15:43:55.500Z</time>
      </trkpt>
      <trkpt lat="10.1589280965699" lon="-75.6809258715206">
        <ele>52.2778713</ele>
        <time>2019-09-10T15:43:55.700Z</time>
      </trkpt>
      <trkpt lat="10.1589263849841" lon="-75.6809238601906">
        <ele>52.2778713</ele>
        <time>2019-09-10T15:43:55.800Z</time>
      </trkpt>
      <trkpt lat="10.1589246735024" lon="-75.6809218386254">
        <ele>52.2778713</ele>
        <time>2019-09-10T15:43:55.900Z</time>
      </trkpt>
      <trkpt lat="10.158922967753" lon="-75.680919759722">
        <ele>52.2778713</ele>
        <time>2019-09-10T15:43:56.000Z</time>
      </trkpt>
      <trkpt lat="10.1589212514772" lon="-75.6809176582592">
        <ele>52.2778713</ele>
        <time>2019-09-10T15:43:56.100Z</time>
      </trkpt>
      <trkpt lat="10.1589178708014" lon="-75.6809134965531">
        <ele>52.2778713</ele>
        <time>2019-09-10T15:43:56.300Z</time>
      </trkpt>
      <trkpt lat="10.1589161369124" lon="-75.680911373297">
        <ele>52.2778713</ele>
        <time>2019-09-10T15:43:56.400Z</time>
      </trkpt>
      <trkpt lat="10.1589143931746" lon="-75.6809092482304">
        <ele>52.2778713</ele>
        <time>2019-09-10T15:43:56.500Z</time>
      </trkpt>
      <trkpt lat="10.1589126712449" lon="-75.6809071247306">
        <ele>52.2778713</ele>
        <time>2019-09-10T15:43:56.600Z</time>
      </trkpt>
      <trkpt lat="10.1589109470744" lon="-75.6809050070098">
        <ele>52.2778713</ele>
        <time>2019-09-10T15:43:56.700Z</time>
      </trkpt>
      <trkpt lat="10.1589092478648" lon="-75.6809029241376">
        <ele>52.2778713</ele>
        <time>2019-09-10T15:43:56.800Z</time>
      </trkpt>
      <trkpt lat="10.1589075363571" lon="-75.6809008380625">
        <ele>52.2778713</ele>
        <time>2019-09-10T15:43:56.900Z</time>
      </trkpt>
      <trkpt lat="10.15890581659" lon="-75.6808987211076">
        <ele>52.2778713</ele>
        <time>2019-09-10T15:43:57.000Z</time>
      </trkpt>
      <trkpt lat="10.1589040877556" lon="-75.6808965990699">
        <ele>52.2778713</ele>
        <time>2019-09-10T15:43:57.100Z</time>
      </trkpt>
      <trkpt lat="10.1589023872172" lon="-75.6808945158495">
        <ele>52.2778713</ele>
        <time>2019-09-10T15:43:57.200Z</time>
      </trkpt>
      <trkpt lat="10.1589006812071" lon="-75.6808924316195">
        <ele>52.2778713</ele>
        <time>2019-09-10T15:43:57.300Z</time>
      </trkpt>
      <trkpt lat="10.1588989713409" lon="-75.6808903541783">
        <ele>52.2778713</ele>
        <time>2019-09-10T15:43:57.400Z</time>
      </trkpt>
      <trkpt lat="10.1588972506358" lon="-75.680888269809">
        <ele>52.2778713</ele>
        <time>2019-09-10T15:43:57.500Z</time>
      </trkpt>
      <trkpt lat="10.1588937866879" lon="-75.6808840961967">
        <ele>52.2778713</ele>
        <time>2019-09-10T15:43:57.700Z</time>
      </trkpt>
      <trkpt lat="10.1588920486822" lon="-75.6808820002345">
        <ele>52.2778713</ele>
        <time>2019-09-10T15:43:57.800Z</time>
      </trkpt>
      <trkpt lat="10.1588903124482" lon="-75.6808798984236">
        <ele>52.2778713</ele>
        <time>2019-09-10T15:43:57.900Z</time>
      </trkpt>
      <trkpt lat="10.1588886067509" lon="-75.6808777975875">
        <ele>52.2778713</ele>
        <time>2019-09-10T15:43:58.000Z</time>
      </trkpt>
      <trkpt lat="10.1588868991775" lon="-75.6808756984224">
        <ele>52.2778713</ele>
        <time>2019-09-10T15:43:58.100Z</time>
      </trkpt>
      <trkpt lat="10.1588851553355" lon="-75.6808735639214">
        <ele>52.2778713</ele>
        <time>2019-09-10T15:43:58.200Z</time>
      </trkpt>
      <trkpt lat="10.1588817208038" lon="-75.6808693133706">
        <ele>52.2778713</ele>
        <time>2019-09-10T15:43:58.400Z</time>
      </trkpt>
      <trkpt lat="10.1588800289938" lon="-75.6808671990616">
        <ele>52.2778713</ele>
        <time>2019-09-10T15:43:58.500Z</time>
      </trkpt>
      <trkpt lat="10.1588783260061" lon="-75.6808650908101">
        <ele>52.2778713</ele>
        <time>2019-09-10T15:43:58.600Z</time>
      </trkpt>
      <trkpt lat="10.1588749401193" lon="-75.6808609159445">
        <ele>52.2778713</ele>
        <time>2019-09-10T15:43:58.800Z</time>
      </trkpt>
      <trkpt lat="10.158871510512" lon="-75.6808567452913">
        <ele>52.2778713</ele>
        <time>2019-09-10T15:43:59.000Z</time>
      </trkpt>
      <trkpt lat="10.1588697510108" lon="-75.6808546373531">
        <ele>52.2778713</ele>
        <time>2019-09-10T15:43:59.100Z</time>
      </trkpt>
      <trkpt lat="10.1588680125622" lon="-75.6808524960982">
        <ele>52.2778713</ele>
        <time>2019-09-10T15:43:59.200Z</time>
      </trkpt>
      <trkpt lat="10.1588662833371" lon="-75.6808503651482">
        <ele>52.2778713</ele>
        <time>2019-09-10T15:43:59.300Z</time>
      </trkpt>
      <trkpt lat="10.1588645133878" lon="-75.6808482380973">
        <ele>52.2778713</ele>
        <time>2019-09-10T15:43:59.400Z</time>
      </trkpt>
      <trkpt lat="10.1588627510727" lon="-75.6808461247979">
        <ele>52.2778713</ele>
        <time>2019-09-10T15:43:59.500Z</time>
      </trkpt>
      <trkpt lat="10.1588592273804" lon="-75.6808419128556">
        <ele>52.2778713</ele>
        <time>2019-09-10T15:43:59.700Z</time>
      </trkpt>
      <trkpt lat="10.1588574699115" lon="-75.6808398089907">
        <ele>52.2778713</ele>
        <time>2019-09-10T15:43:59.800Z</time>
      </trkpt>
      <trkpt lat="10.1588557183311" lon="-75.6808377044295">
        <ele>52.2778713</ele>
        <time>2019-09-10T15:43:59.900Z</time>
      </trkpt>
      <trkpt lat="10.1588539670113" lon="-75.6808355985802">
        <ele>52.2778713</ele>
        <time>2019-09-10T15:44:00.000Z</time>
      </trkpt>
      <trkpt lat="10.1588522180103" lon="-75.6808334903983">
        <ele>52.2778713</ele>
        <time>2019-09-10T15:44:00.100Z</time>
      </trkpt>
      <trkpt lat="10.1588504404269" lon="-75.6808313442695">
        <ele>52.2778713</ele>
        <time>2019-09-10T15:44:00.200Z</time>
      </trkpt>
      <trkpt lat="10.1588486734218" lon="-75.6808291999858">
        <ele>52.2778713</ele>
        <time>2019-09-10T15:44:00.300Z</time>
      </trkpt>
      <trkpt lat="10.1588469179071" lon="-75.6808270679914">
        <ele>52.2778713</ele>
        <time>2019-09-10T15:44:00.400Z</time>
      </trkpt>
      <trkpt lat="10.1588451701828" lon="-75.6808249436211">
        <ele>52.2778713</ele>
        <time>2019-09-10T15:44:00.500Z</time>
      </trkpt>
      <trkpt lat="10.1588434296758" lon="-75.6808228018789">
        <ele>52.2778713</ele>
        <time>2019-09-10T15:44:00.600Z</time>
      </trkpt>
      <trkpt lat="10.1588416933377" lon="-75.6808206660201">
        <ele>52.2778713</ele>
        <time>2019-09-10T15:44:00.700Z</time>
      </trkpt>
      <trkpt lat="10.1588399582241" lon="-75.680818544992">
        <ele>52.2778713</ele>
        <time>2019-09-10T15:44:00.800Z</time>
      </trkpt>
      <trkpt lat="10.1588382213648" lon="-75.6808164296734">
        <ele>52.2778713</ele>
        <time>2019-09-10T15:44:00.900Z</time>
      </trkpt>
      <trkpt lat="10.1588365174913" lon="-75.6808143324927">
        <ele>52.2778713</ele>
        <time>2019-09-10T15:44:01.000Z</time>
      </trkpt>
      <trkpt lat="10.1588348085109" lon="-75.6808122365653">
        <ele>52.2778713</ele>
        <time>2019-09-10T15:44:01.100Z</time>
      </trkpt>
      <trkpt lat="10.1588314271317" lon="-75.6808080603419">
        <ele>52.2778713</ele>
        <time>2019-09-10T15:44:01.300Z</time>
      </trkpt>
      <trkpt lat="10.1588297186985" lon="-75.6808059745453">
        <ele>52.2778713</ele>
        <time>2019-09-10T15:44:01.400Z</time>
      </trkpt>
      <trkpt lat="10.1588279977589" lon="-75.6808038846755">
        <ele>52.2778713</ele>
        <time>2019-09-10T15:44:01.500Z</time>
      </trkpt>
      <trkpt lat="10.1588262633488" lon="-75.6808017924384">
        <ele>52.2778713</ele>
        <time>2019-09-10T15:44:01.600Z</time>
      </trkpt>
      <trkpt lat="10.1588227458576" lon="-75.680797534716">
        <ele>52.2778713</ele>
        <time>2019-09-10T15:44:01.800Z</time>
      </trkpt>
      <trkpt lat="10.1588209725473" lon="-75.6807953776557">
        <ele>52.2778713</ele>
        <time>2019-09-10T15:44:01.900Z</time>
      </trkpt>
      <trkpt lat="10.1588191672152" lon="-75.6807932267226">
        <ele>52.2778713</ele>
        <time>2019-09-10T15:44:02.000Z</time>
      </trkpt>
      <trkpt lat="10.158817376057" lon="-75.6807910931963">
        <ele>52.2778713</ele>
        <time>2019-09-10T15:44:02.100Z</time>
      </trkpt>
      <trkpt lat="10.1588156001411" lon="-75.6807889698705">
        <ele>52.2778713</ele>
        <time>2019-09-10T15:44:02.200Z</time>
      </trkpt>
      <trkpt lat="10.1588120972669" lon="-75.6807847458478">
        <ele>52.2778713</ele>
        <time>2019-09-10T15:44:02.400Z</time>
      </trkpt>
      <trkpt lat="10.1588103640032" lon="-75.6807826398941">
        <ele>52.2778713</ele>
        <time>2019-09-10T15:44:02.500Z</time>
      </trkpt>
      <trkpt lat="10.1588086457212" lon="-75.6807805389883">
        <ele>52.2778713</ele>
        <time>2019-09-10T15:44:02.600Z</time>
      </trkpt>
      <trkpt lat="10.1588069289244" lon="-75.6807784314331">
        <ele>52.2778713</ele>
        <time>2019-09-10T15:44:02.700Z</time>
      </trkpt>
      <trkpt lat="10.158805245452" lon="-75.6807763645404">
        <ele>52.2778713</ele>
        <time>2019-09-10T15:44:02.800Z</time>
      </trkpt>
      <trkpt lat="10.1588018742342" lon="-75.6807722487189">
        <ele>52.2778713</ele>
        <time>2019-09-10T15:44:03.000Z</time>
      </trkpt>
      <trkpt lat="10.1588001815383" lon="-75.6807701939762">
        <ele>52.2778713</ele>
        <time>2019-09-10T15:44:03.100Z</time>
      </trkpt>
      <trkpt lat="10.1587984702131" lon="-75.6807681004858">
        <ele>52.2778713</ele>
        <time>2019-09-10T15:44:03.200Z</time>
      </trkpt>
      <trkpt lat="10.1587967480228" lon="-75.6807659898322">
        <ele>52.2778713</ele>
        <time>2019-09-10T15:44:03.300Z</time>
      </trkpt>
      <trkpt lat="10.1587949758067" lon="-75.6807638031105">
        <ele>52.2778713</ele>
        <time>2019-09-10T15:44:03.400Z</time>
      </trkpt>
      <trkpt lat="10.1587932062483" lon="-75.6807616248486">
        <ele>52.2778713</ele>
        <time>2019-09-10T15:44:03.500Z</time>
      </trkpt>
      <trkpt lat="10.1587897843794" lon="-75.6807573783362">
        <ele>52.2778713</ele>
        <time>2019-09-10T15:44:03.700Z</time>
      </trkpt>
      <trkpt lat="10.1587880731323" lon="-75.6807552457151">
        <ele>52.2778713</ele>
        <time>2019-09-10T15:44:03.800Z</time>
      </trkpt>
      <trkpt lat="10.1587863524793" lon="-75.6807531118756">
        <ele>52.2778713</ele>
        <time>2019-09-10T15:44:03.900Z</time>
      </trkpt>
      <trkpt lat="10.1587846582722" lon="-75.6807509979147">
        <ele>52.2778713</ele>
        <time>2019-09-10T15:44:04.000Z</time>
      </trkpt>
      <trkpt lat="10.1587829552585" lon="-75.6807488839538">
        <ele>52.2778713</ele>
        <time>2019-09-10T15:44:04.100Z</time>
      </trkpt>
      <trkpt lat="10.1587812416143" lon="-75.6807467554059">
        <ele>52.2778713</ele>
        <time>2019-09-10T15:44:04.200Z</time>
      </trkpt>
      <trkpt lat="10.1587795188248" lon="-75.6807446285291">
        <ele>52.2778713</ele>
        <time>2019-09-10T15:44:04.300Z</time>
      </trkpt>
      <trkpt lat="10.1587777857174" lon="-75.6807425204865">
        <ele>52.2778713</ele>
        <time>2019-09-10T15:44:04.400Z</time>
      </trkpt>
      <trkpt lat="10.1587760500827" lon="-75.6807404146372">
        <ele>52.2778713</ele>
        <time>2019-09-10T15:44:04.500Z</time>
      </trkpt>
      <trkpt lat="10.1587742738021" lon="-75.6807383245585">
        <ele>52.2778713</ele>
        <time>2019-09-10T15:44:04.600Z</time>
      </trkpt>
      <trkpt lat="10.1587707315846" lon="-75.6807341512247">
        <ele>52.2778713</ele>
        <time>2019-09-10T15:44:04.800Z</time>
      </trkpt>
      <trkpt lat="10.1587689702075" lon="-75.6807320629215">
        <ele>52.2778713</ele>
        <time>2019-09-10T15:44:04.900Z</time>
      </trkpt>
      <trkpt lat="10.1587671782677" lon="-75.680729975245">
        <ele>52.2778713</ele>
        <time>2019-09-10T15:44:05.000Z</time>
      </trkpt>
      <trkpt lat="10.1587653966197" lon="-75.6807278837041">
        <ele>52.2778713</ele>
        <time>2019-09-10T15:44:05.100Z</time>
      </trkpt>
      <trkpt lat="10.1587618667003" lon="-75.6807236957833">
        <ele>52.2778713</ele>
        <time>2019-09-10T15:44:05.300Z</time>
      </trkpt>
      <trkpt lat="10.1587601216857" lon="-75.6807215999952">
        <ele>52.2778713</ele>
        <time>2019-09-10T15:44:05.400Z</time>
      </trkpt>
      <trkpt lat="10.1587583800323" lon="-75.68071950459">
        <ele>52.2778713</ele>
        <time>2019-09-10T15:44:05.500Z</time>
      </trkpt>
      <trkpt lat="10.1587566154243" lon="-75.6807174077923">
        <ele>52.2778713</ele>
        <time>2019-09-10T15:44:05.600Z</time>
      </trkpt>
      <trkpt lat="10.1587531331597" lon="-75.6807132807955">
        <ele>52.2778713</ele>
        <time>2019-09-10T15:44:05.800Z</time>
      </trkpt>
      <trkpt lat="10.1587514114384" lon="-75.6807112480203">
        <ele>52.2778713</ele>
        <time>2019-09-10T15:44:05.900Z</time>
      </trkpt>
      <trkpt lat="10.1587496608221" lon="-75.680709170022">
        <ele>52.2778713</ele>
        <time>2019-09-10T15:44:06.000Z</time>
      </trkpt>
      <trkpt lat="10.1587479038743" lon="-75.6807070802567">
        <ele>52.2778713</ele>
        <time>2019-09-10T15:44:06.100Z</time>
      </trkpt>
      <trkpt lat="10.1587461493496" lon="-75.6807050076893">
        <ele>52.2778713</ele>
        <time>2019-09-10T15:44:06.200Z</time>
      </trkpt>
      <trkpt lat="10.1587444014951" lon="-75.6807029331028">
        <ele>52.2778713</ele>
        <time>2019-09-10T15:44:06.300Z</time>
      </trkpt>
      <trkpt lat="10.1587409304863" lon="-75.6806988070112">
        <ele>52.3778713</ele>
        <time>2019-09-10T15:44:06.500Z</time>
      </trkpt>
      <trkpt lat="10.1587392299999" lon="-75.6806967576646">
        <ele>52.3778713</ele>
        <time>2019-09-10T15:44:06.600Z</time>
      </trkpt>
      <trkpt lat="10.1587375272989" lon="-75.680694698222">
        <ele>52.3778713</ele>
        <time>2019-09-10T15:44:06.700Z</time>
      </trkpt>
      <trkpt lat="10.1587357907653" lon="-75.6806925887173">
        <ele>52.3778713</ele>
        <time>2019-09-10T15:44:06.800Z</time>
      </trkpt>
      <trkpt lat="10.1587340489685" lon="-75.6806904731549">
        <ele>52.3778713</ele>
        <time>2019-09-10T15:44:06.900Z</time>
      </trkpt>
      <trkpt lat="10.1587322992901" lon="-75.6806883139361">
        <ele>52.2778713</ele>
        <time>2019-09-10T15:44:07.000Z</time>
      </trkpt>
      <trkpt lat="10.1587305543798" lon="-75.6806861691999">
        <ele>52.2778713</ele>
        <time>2019-09-10T15:44:07.100Z</time>
      </trkpt>
      <trkpt lat="10.1587270613284" lon="-75.6806818963683">
        <ele>52.2778713</ele>
        <time>2019-09-10T15:44:07.300Z</time>
      </trkpt>
      <trkpt lat="10.1587253471761" lon="-75.6806797762802">
        <ele>52.2778713</ele>
        <time>2019-09-10T15:44:07.400Z</time>
      </trkpt>
      <trkpt lat="10.158723633558" lon="-75.6806776653132">
        <ele>52.2778713</ele>
        <time>2019-09-10T15:44:07.500Z</time>
      </trkpt>
      <trkpt lat="10.1587219461122" lon="-75.6806755995346">
        <ele>52.2778713</ele>
        <time>2019-09-10T15:44:07.600Z</time>
      </trkpt>
      <trkpt lat="10.1587202506284" lon="-75.6806735337559">
        <ele>52.2778713</ele>
        <time>2019-09-10T15:44:07.700Z</time>
      </trkpt>
      <trkpt lat="10.1587150604126" lon="-75.680667370607">
        <ele>52.2778713</ele>
        <time>2019-09-10T15:44:08.000Z</time>
      </trkpt>
      <trkpt lat="10.15871330069" lon="-75.6806652722426">
        <ele>52.2778713</ele>
        <time>2019-09-10T15:44:08.100Z</time>
      </trkpt>
      <trkpt lat="10.1587115348965" lon="-75.6806631929562">
        <ele>52.2778713</ele>
        <time>2019-09-10T15:44:08.200Z</time>
      </trkpt>
      <trkpt lat="10.1587097783005" lon="-75.6806611139483">
        <ele>52.2778713</ele>
        <time>2019-09-10T15:44:08.300Z</time>
      </trkpt>
      <trkpt lat="10.1587080563838" lon="-75.6806590575694">
        <ele>52.2778713</ele>
        <time>2019-09-10T15:44:08.400Z</time>
      </trkpt>
      <trkpt lat="10.1587046187125" lon="-75.6806549168908">
        <ele>52.3778713</ele>
        <time>2019-09-10T15:44:08.600Z</time>
      </trkpt>
      <trkpt lat="10.1587028956363" lon="-75.6806528275084">
        <ele>52.3778713</ele>
        <time>2019-09-10T15:44:08.700Z</time>
      </trkpt>
      <trkpt lat="10.1587011956711" lon="-75.6806507604765">
        <ele>52.3778713</ele>
        <time>2019-09-10T15:44:08.800Z</time>
      </trkpt>
      <trkpt lat="10.1586959990979" lon="-75.6806443858688">
        <ele>52.2778713</ele>
        <time>2019-09-10T15:44:09.100Z</time>
      </trkpt>
      <trkpt lat="10.1586942443517" lon="-75.6806422361194">
        <ele>52.2778713</ele>
        <time>2019-09-10T15:44:09.200Z</time>
      </trkpt>
      <trkpt lat="10.1586924970965" lon="-75.6806401020361">
        <ele>52.2778713</ele>
        <time>2019-09-10T15:44:09.300Z</time>
      </trkpt>
      <trkpt lat="10.1586907808337" lon="-75.680637973523">
        <ele>52.2778713</ele>
        <time>2019-09-10T15:44:09.400Z</time>
      </trkpt>
      <trkpt lat="10.1586890632162" lon="-75.6806358555237">
        <ele>52.2778713</ele>
        <time>2019-09-10T15:44:09.500Z</time>
      </trkpt>
      <trkpt lat="10.1586873669768" lon="-75.6806337836178">
        <ele>52.3778713</ele>
        <time>2019-09-10T15:44:09.600Z</time>
      </trkpt>
      <trkpt lat="10.1586856627906" lon="-75.680631710389">
        <ele>52.3778713</ele>
        <time>2019-09-10T15:44:09.700Z</time>
      </trkpt>
      <trkpt lat="10.1586839194175" lon="-75.680629603739">
        <ele>52.3778713</ele>
        <time>2019-09-10T15:44:09.800Z</time>
      </trkpt>
      <trkpt lat="10.1586804101468" lon="-75.6806253760957">
        <ele>52.3778713</ele>
        <time>2019-09-10T15:44:10.000Z</time>
      </trkpt>
      <trkpt lat="10.1586786552704" lon="-75.6806232631792">
        <ele>52.3778713</ele>
        <time>2019-09-10T15:44:10.100Z</time>
      </trkpt>
      <trkpt lat="10.15867686776" lon="-75.6806211514464">
        <ele>52.3778713</ele>
        <time>2019-09-10T15:44:10.200Z</time>
      </trkpt>
      <trkpt lat="10.1586750877013" lon="-75.6806190413846">
        <ele>52.3778713</ele>
        <time>2019-09-10T15:44:10.300Z</time>
      </trkpt>
      <trkpt lat="10.1586732816267" lon="-75.6806169042377">
        <ele>52.3778713</ele>
        <time>2019-09-10T15:44:10.400Z</time>
      </trkpt>
      <trkpt lat="10.1586714913414" lon="-75.6806147696671">
        <ele>52.3778713</ele>
        <time>2019-09-10T15:44:10.500Z</time>
      </trkpt>
      <trkpt lat="10.1586697492841" lon="-75.6806126818165">
        <ele>52.3778713</ele>
        <time>2019-09-10T15:44:10.600Z</time>
      </trkpt>
      <trkpt lat="10.1586680187953" lon="-75.6806106002324">
        <ele>52.3778713</ele>
        <time>2019-09-10T15:44:10.700Z</time>
      </trkpt>
      <trkpt lat="10.1586663052032" lon="-75.6806085283961">
        <ele>52.3778713</ele>
        <time>2019-09-10T15:44:10.800Z</time>
      </trkpt>
      <trkpt lat="10.1586645892401" lon="-75.6806064477868">
        <ele>52.3778713</ele>
        <time>2019-09-10T15:44:10.900Z</time>
      </trkpt>
      <trkpt lat="10.1586628496451" lon="-75.6806043343829">
        <ele>52.3778713</ele>
        <time>2019-09-10T15:44:11.000Z</time>
      </trkpt>
      <trkpt lat="10.1586611077571" lon="-75.6806022184724">
        <ele>52.3778713</ele>
        <time>2019-09-10T15:44:11.100Z</time>
      </trkpt>
      <trkpt lat="10.1586593604367" lon="-75.6806001350083">
        <ele>52.3778713</ele>
        <time>2019-09-10T15:44:11.200Z</time>
      </trkpt>
      <trkpt lat="10.1586576163472" lon="-75.6805980501517">
        <ele>52.3778713</ele>
        <time>2019-09-10T15:44:11.300Z</time>
      </trkpt>
      <trkpt lat="10.1586558673592" lon="-75.6805959581931">
        <ele>52.3778713</ele>
        <time>2019-09-10T15:44:11.400Z</time>
      </trkpt>
      <trkpt lat="10.1586541218496" lon="-75.6805938557207">
        <ele>52.3778713</ele>
        <time>2019-09-10T15:44:11.500Z</time>
      </trkpt>
      <trkpt lat="10.1586523746856" lon="-75.6805917489315">
        <ele>52.3778713</ele>
        <time>2019-09-10T15:44:11.600Z</time>
      </trkpt>
      <trkpt lat="10.1586506293584" lon="-75.6805896406104">
        <ele>52.3778713</ele>
        <time>2019-09-10T15:44:11.700Z</time>
      </trkpt>
      <trkpt lat="10.1586489155448" lon="-75.6805875730214">
        <ele>52.3778713</ele>
        <time>2019-09-10T15:44:11.800Z</time>
      </trkpt>
      <trkpt lat="10.1586472055223" lon="-75.6805855016725">
        <ele>52.3778713</ele>
        <time>2019-09-10T15:44:11.900Z</time>
      </trkpt>
      <trkpt lat="10.1586455259582" lon="-75.6805834009408">
        <ele>52.3778713</ele>
        <time>2019-09-10T15:44:12.000Z</time>
      </trkpt>
      <trkpt lat="10.1586438364801" lon="-75.680581292202">
        <ele>52.3778713</ele>
        <time>2019-09-10T15:44:12.100Z</time>
      </trkpt>
      <trkpt lat="10.1586421346389" lon="-75.6805791852038">
        <ele>52.3778713</ele>
        <time>2019-09-10T15:44:12.200Z</time>
      </trkpt>
      <trkpt lat="10.1586404214376" lon="-75.6805770832189">
        <ele>52.3778713</ele>
        <time>2019-09-10T15:44:12.300Z</time>
      </trkpt>
      <trkpt lat="10.1586369143164" lon="-75.6805728899715">
        <ele>52.3778713</ele>
        <time>2019-09-10T15:44:12.500Z</time>
      </trkpt>
      <trkpt lat="10.1586351838537" lon="-75.6805707971774">
        <ele>52.3778713</ele>
        <time>2019-09-10T15:44:12.600Z</time>
      </trkpt>
      <trkpt lat="10.1586334586931" lon="-75.6805687048706">
        <ele>52.3778713</ele>
        <time>2019-09-10T15:44:12.700Z</time>
      </trkpt>
      <trkpt lat="10.1586317251168" lon="-75.6805666066455">
        <ele>52.3778713</ele>
        <time>2019-09-10T15:44:12.800Z</time>
      </trkpt>
      <trkpt lat="10.1586299883617" lon="-75.6805645069583">
        <ele>52.3778713</ele>
        <time>2019-09-10T15:44:12.900Z</time>
      </trkpt>
      <trkpt lat="10.1586282739359" lon="-75.6805624022578">
        <ele>52.3778713</ele>
        <time>2019-09-10T15:44:13.000Z</time>
      </trkpt>
      <trkpt lat="10.1586265631708" lon="-75.6805602977662">
        <ele>52.3778713</ele>
        <time>2019-09-10T15:44:13.100Z</time>
      </trkpt>
      <trkpt lat="10.1586248498718" lon="-75.6805582230753">
        <ele>52.3778713</ele>
        <time>2019-09-10T15:44:13.200Z</time>
      </trkpt>
      <trkpt lat="10.1586231335244" lon="-75.680556150682">
        <ele>52.3778713</ele>
        <time>2019-09-10T15:44:13.300Z</time>
      </trkpt>
      <trkpt lat="10.1586214106046" lon="-75.6805540436142">
        <ele>52.3778713</ele>
        <time>2019-09-10T15:44:13.400Z</time>
      </trkpt>
      <trkpt lat="10.158619687053" lon="-75.6805519306281">
        <ele>52.3778713</ele>
        <time>2019-09-10T15:44:13.500Z</time>
      </trkpt>
      <trkpt lat="10.1586179812514" lon="-75.680549847164">
        <ele>52.3778713</ele>
        <time>2019-09-10T15:44:13.600Z</time>
      </trkpt>
      <trkpt lat="10.1586162732611" lon="-75.6805477675991">
        <ele>52.3778713</ele>
        <time>2019-09-10T15:44:13.700Z</time>
      </trkpt>
      <trkpt lat="10.1586145199481" lon="-75.6805456503657">
        <ele>52.3778713</ele>
        <time>2019-09-10T15:44:13.800Z</time>
      </trkpt>
      <trkpt lat="10.158612767371" lon="-75.680543530765">
        <ele>52.3778713</ele>
        <time>2019-09-10T15:44:13.900Z</time>
      </trkpt>
      <trkpt lat="10.1586110386865" lon="-75.6805413718943">
        <ele>52.3778713</ele>
        <time>2019-09-10T15:44:14.000Z</time>
      </trkpt>
      <trkpt lat="10.1586093152391" lon="-75.6805392234678">
        <ele>52.3778713</ele>
        <time>2019-09-10T15:44:14.100Z</time>
      </trkpt>
      <trkpt lat="10.1586076143815" lon="-75.6805371454347">
        <ele>52.3778713</ele>
        <time>2019-09-10T15:44:14.200Z</time>
      </trkpt>
      <trkpt lat="10.1586059113938" lon="-75.6805350699778">
        <ele>52.3778713</ele>
        <time>2019-09-10T15:44:14.300Z</time>
      </trkpt>
      <trkpt lat="10.1586024242764" lon="-75.6805308572347">
        <ele>52.3778713</ele>
        <time>2019-09-10T15:44:14.500Z</time>
      </trkpt>
      <trkpt lat="10.1586007045549" lon="-75.6805287545535">
        <ele>52.3778713</ele>
        <time>2019-09-10T15:44:14.600Z</time>
      </trkpt>
      <trkpt lat="10.1585989892497" lon="-75.6805266576513">
        <ele>52.3778713</ele>
        <time>2019-09-10T15:44:14.700Z</time>
      </trkpt>
      <trkpt lat="10.1585972992505" lon="-75.6805245650661">
        <ele>52.3778713</ele>
        <time>2019-09-10T15:44:14.800Z</time>
      </trkpt>
      <trkpt lat="10.1585956037602" lon="-75.6805224740126">
        <ele>52.3778713</ele>
        <time>2019-09-10T15:44:14.900Z</time>
      </trkpt>
      <trkpt lat="10.1585938916468" lon="-75.6805203833073">
        <ele>52.3778713</ele>
        <time>2019-09-10T15:44:15.000Z</time>
      </trkpt>
      <trkpt lat="10.1585921717949" lon="-75.6805182933679">
        <ele>52.3778713</ele>
        <time>2019-09-10T15:44:15.100Z</time>
      </trkpt>
      <trkpt lat="10.1585904675176" lon="-75.6805162005041">
        <ele>52.3778713</ele>
        <time>2019-09-10T15:44:15.200Z</time>
      </trkpt>
      <trkpt lat="10.158588757" lon="-75.6805141094506">
        <ele>52.3778713</ele>
        <time>2019-09-10T15:44:15.300Z</time>
      </trkpt>
      <trkpt lat="10.1585870290906" lon="-75.6805120472926">
        <ele>52.3778713</ele>
        <time>2019-09-10T15:44:15.400Z</time>
      </trkpt>
      <trkpt lat="10.15858529726" lon="-75.6805099836027">
        <ele>52.3778713</ele>
        <time>2019-09-10T15:44:15.500Z</time>
      </trkpt>
      <trkpt lat="10.1585835882015" lon="-75.6805079077977">
        <ele>52.3778713</ele>
        <time>2019-09-10T15:44:15.600Z</time>
      </trkpt>
      <trkpt lat="10.1585818774755" lon="-75.6805058270491">
        <ele>52.3778713</ele>
        <time>2019-09-10T15:44:15.700Z</time>
      </trkpt>
      <trkpt lat="10.1585801910198" lon="-75.680503732375">
        <ele>52.3778713</ele>
        <time>2019-09-10T15:44:15.800Z</time>
      </trkpt>
      <trkpt lat="10.1585784959399" lon="-75.680501636378">
        <ele>52.3778713</ele>
        <time>2019-09-10T15:44:15.900Z</time>
      </trkpt>
      <trkpt lat="10.1585767863342" lon="-75.6804995605033">
        <ele>52.3778713</ele>
        <time>2019-09-10T15:44:16.000Z</time>
      </trkpt>
      <trkpt lat="10.1585750685864" lon="-75.6804974854642">
        <ele>52.3778713</ele>
        <time>2019-09-10T15:44:16.100Z</time>
      </trkpt>
      <trkpt lat="10.1585733698457" lon="-75.6804953978225">
        <ele>52.3778713</ele>
        <time>2019-09-10T15:44:16.200Z</time>
      </trkpt>
      <trkpt lat="10.1585716693398" lon="-75.6804933030788">
        <ele>52.3778713</ele>
        <time>2019-09-10T15:44:16.300Z</time>
      </trkpt>
      <trkpt lat="10.1585699287677" lon="-75.6804911585514">
        <ele>52.3778713</ele>
        <time>2019-09-10T15:44:16.400Z</time>
      </trkpt>
      <trkpt lat="10.1585681926509" lon="-75.6804890228667">
        <ele>52.3778713</ele>
        <time>2019-09-10T15:44:16.500Z</time>
      </trkpt>
      <trkpt lat="10.1585665084914" lon="-75.6804869611961">
        <ele>52.3778713</ele>
        <time>2019-09-10T15:44:16.600Z</time>
      </trkpt>
      <trkpt lat="10.1585648256964" lon="-75.680484900918">
        <ele>52.3778713</ele>
        <time>2019-09-10T15:44:16.700Z</time>
      </trkpt>
      <trkpt lat="10.1585631594432" lon="-75.680482840431">
        <ele>52.3778713</ele>
        <time>2019-09-10T15:44:16.800Z</time>
      </trkpt>
      <trkpt lat="10.1585614862821" lon="-75.6804807673414">
        <ele>52.3778713</ele>
        <time>2019-09-10T15:44:16.900Z</time>
      </trkpt>
      <trkpt lat="10.1585598210842" lon="-75.6804786821367">
        <ele>52.3778713</ele>
        <time>2019-09-10T15:44:17.000Z</time>
      </trkpt>
      <trkpt lat="10.1585581418132" lon="-75.6804765887855">
        <ele>52.3778713</ele>
        <time>2019-09-10T15:44:17.100Z</time>
      </trkpt>
      <trkpt lat="10.1585564229547" lon="-75.6804745129805">
        <ele>52.3778713</ele>
        <time>2019-09-10T15:44:17.200Z</time>
      </trkpt>
      <trkpt lat="10.1585529785872" lon="-75.6804703303862">
        <ele>52.3778713</ele>
        <time>2019-09-10T15:44:17.400Z</time>
      </trkpt>
      <trkpt lat="10.1585512590611" lon="-75.6804682255465">
        <ele>52.3778713</ele>
        <time>2019-09-10T15:44:17.500Z</time>
      </trkpt>
      <trkpt lat="10.1585495540183" lon="-75.6804660871463">
        <ele>52.3778713</ele>
        <time>2019-09-10T15:44:17.600Z</time>
      </trkpt>
      <trkpt lat="10.1585478456568" lon="-75.6804639504172">
        <ele>52.3778713</ele>
        <time>2019-09-10T15:44:17.700Z</time>
      </trkpt>
      <trkpt lat="10.1585461784689" lon="-75.6804618614526">
        <ele>52.3778713</ele>
        <time>2019-09-10T15:44:17.800Z</time>
      </trkpt>
      <trkpt lat="10.1585445023636" lon="-75.6804597768048">
        <ele>52.3778713</ele>
        <time>2019-09-10T15:44:17.900Z</time>
      </trkpt>
      <trkpt lat="10.1585428384097" lon="-75.6804577028101">
        <ele>52.3778713</ele>
        <time>2019-09-10T15:44:18.000Z</time>
      </trkpt>
      <trkpt lat="10.1585411574403" lon="-75.6804556208779">
        <ele>52.3778713</ele>
        <time>2019-09-10T15:44:18.100Z</time>
      </trkpt>
      <trkpt lat="10.1585394510915" lon="-75.680453508588">
        <ele>52.3778713</ele>
        <time>2019-09-10T15:44:18.200Z</time>
      </trkpt>
      <trkpt lat="10.1585377327639" lon="-75.6804513961589">
        <ele>52.3778713</ele>
        <time>2019-09-10T15:44:18.300Z</time>
      </trkpt>
      <trkpt lat="10.1585359891987" lon="-75.6804492866542">
        <ele>52.3778713</ele>
        <time>2019-09-10T15:44:18.400Z</time>
      </trkpt>
      <trkpt lat="10.1585342432918" lon="-75.6804471850173">
        <ele>52.3778713</ele>
        <time>2019-09-10T15:44:18.500Z</time>
      </trkpt>
      <trkpt lat="10.1585324858816" lon="-75.6804450821968">
        <ele>52.3778713</ele>
        <time>2019-09-10T15:44:18.600Z</time>
      </trkpt>
      <trkpt lat="10.1585307364328" lon="-75.6804429836932">
        <ele>52.3778713</ele>
        <time>2019-09-10T15:44:18.700Z</time>
      </trkpt>
      <trkpt lat="10.1585289540609" lon="-75.6804408509329">
        <ele>52.3778713</ele>
        <time>2019-09-10T15:44:18.800Z</time>
      </trkpt>
      <trkpt lat="10.1585271867571" lon="-75.6804387227679">
        <ele>52.3778713</ele>
        <time>2019-09-10T15:44:18.900Z</time>
      </trkpt>
      <trkpt lat="10.158525426953" lon="-75.6804365577701">
        <ele>52.3778713</ele>
        <time>2019-09-10T15:44:19.000Z</time>
      </trkpt>
      <trkpt lat="10.1585236792194" lon="-75.6804344000831">
        <ele>52.4778713</ele>
        <time>2019-09-10T15:44:19.100Z</time>
      </trkpt>
      <trkpt lat="10.1585218981275" lon="-75.6804322066772">
        <ele>52.4778713</ele>
        <time>2019-09-10T15:44:19.200Z</time>
      </trkpt>
      <trkpt lat="10.1585201225582" lon="-75.6804300203733">
        <ele>52.4778713</ele>
        <time>2019-09-10T15:44:19.300Z</time>
      </trkpt>
      <trkpt lat="10.1585183365975" lon="-75.6804278209098">
        <ele>52.4778713</ele>
        <time>2019-09-10T15:44:19.400Z</time>
      </trkpt>
      <trkpt lat="10.1585165615033" lon="-75.6804256505506">
        <ele>52.4778713</ele>
        <time>2019-09-10T15:44:19.500Z</time>
      </trkpt>
      <trkpt lat="10.1585147724409" lon="-75.680423482698">
        <ele>52.4778713</ele>
        <time>2019-09-10T15:44:19.600Z</time>
      </trkpt>
      <trkpt lat="10.1585130029109" lon="-75.6804213136617">
        <ele>52.4778713</ele>
        <time>2019-09-10T15:44:19.700Z</time>
      </trkpt>
      <trkpt lat="10.1585112504255" lon="-75.6804191447647">
        <ele>52.4778713</ele>
        <time>2019-09-10T15:44:19.800Z</time>
      </trkpt>
      <trkpt lat="10.1585095014359" lon="-75.6804169959204">
        <ele>52.4778713</ele>
        <time>2019-09-10T15:44:19.900Z</time>
      </trkpt>
      <trkpt lat="10.1585077772671" lon="-75.6804148921947">
        <ele>52.4778713</ele>
        <time>2019-09-10T15:44:20.000Z</time>
      </trkpt>
      <trkpt lat="10.1585060722317" lon="-75.6804127824811">
        <ele>52.4778713</ele>
        <time>2019-09-10T15:44:20.100Z</time>
      </trkpt>
      <trkpt lat="10.1585044211002" lon="-75.6804106606523">
        <ele>52.4778713</ele>
        <time>2019-09-10T15:44:20.200Z</time>
      </trkpt>
      <trkpt lat="10.15850278028" lon="-75.6804085363169">
        <ele>52.4778713</ele>
        <time>2019-09-10T15:44:20.300Z</time>
      </trkpt>
      <trkpt lat="10.1585011226543" lon="-75.6804064134436">
        <ele>52.4778713</ele>
        <time>2019-09-10T15:44:20.400Z</time>
      </trkpt>
      <trkpt lat="10.1584994627065" lon="-75.6804043093698">
        <ele>52.4778713</ele>
        <time>2019-09-10T15:44:20.500Z</time>
      </trkpt>
      <trkpt lat="10.1584978248842" lon="-75.68040222138">
        <ele>52.4778713</ele>
        <time>2019-09-10T15:44:20.600Z</time>
      </trkpt>
      <trkpt lat="10.1584961809212" lon="-75.6804001299088">
        <ele>52.4778713</ele>
        <time>2019-09-10T15:44:20.700Z</time>
      </trkpt>
      <trkpt lat="10.1584945417539" lon="-75.6803980431722">
        <ele>52.4778713</ele>
        <time>2019-09-10T15:44:20.800Z</time>
      </trkpt>
      <trkpt lat="10.1584928916239" lon="-75.6803959528847">
        <ele>52.4778713</ele>
        <time>2019-09-10T15:44:20.900Z</time>
      </trkpt>
      <trkpt lat="10.1584912090651" lon="-75.6803938547988">
        <ele>52.4778713</ele>
        <time>2019-09-10T15:44:21.000Z</time>
      </trkpt>
      <trkpt lat="10.1584895117509" lon="-75.6803917519087">
        <ele>52.4778713</ele>
        <time>2019-09-10T15:44:21.100Z</time>
      </trkpt>
      <trkpt lat="10.1584878253669" lon="-75.6803896757555">
        <ele>52.4778713</ele>
        <time>2019-09-10T15:44:21.200Z</time>
      </trkpt>
      <trkpt lat="10.1584861398492" lon="-75.6803875928485">
        <ele>52.4778713</ele>
        <time>2019-09-10T15:44:21.300Z</time>
      </trkpt>
      <trkpt lat="10.1584844153661" lon="-75.680385517322">
        <ele>52.3778713</ele>
        <time>2019-09-10T15:44:21.400Z</time>
      </trkpt>
      <trkpt lat="10.1584826898114" lon="-75.6803834408903">
        <ele>52.3778713</ele>
        <time>2019-09-10T15:44:21.500Z</time>
      </trkpt>
      <trkpt lat="10.1584809666083" lon="-75.6803813657815">
        <ele>52.3778713</ele>
        <time>2019-09-10T15:44:21.600Z</time>
      </trkpt>
      <trkpt lat="10.1584792423467" lon="-75.6803792883751">
        <ele>52.3778713</ele>
        <time>2019-09-10T15:44:21.700Z</time>
      </trkpt>
      <trkpt lat="10.1584775152841" lon="-75.6803772345723">
        <ele>52.3778713</ele>
        <time>2019-09-10T15:44:21.800Z</time>
      </trkpt>
      <trkpt lat="10.1584757885733" lon="-75.6803751804214">
        <ele>52.3778713</ele>
        <time>2019-09-10T15:44:21.900Z</time>
      </trkpt>
      <trkpt lat="10.1584740779906" lon="-75.680373142633">
        <ele>52.3778713</ele>
        <time>2019-09-10T15:44:22.000Z</time>
      </trkpt>
      <trkpt lat="10.1584723578814" lon="-75.6803710948879">
        <ele>52.4778713</ele>
        <time>2019-09-10T15:44:22.100Z</time>
      </trkpt>
      <trkpt lat="10.1584705934526" lon="-75.6803690237479">
        <ele>52.4778713</ele>
        <time>2019-09-10T15:44:22.200Z</time>
      </trkpt>
      <trkpt lat="10.158468829027" lon="-75.6803669385431">
        <ele>52.4778713</ele>
        <time>2019-09-10T15:44:22.300Z</time>
      </trkpt>
      <trkpt lat="10.1584652637964" lon="-75.6803627255912">
        <ele>52.4778713</ele>
        <time>2019-09-10T15:44:22.500Z</time>
      </trkpt>
      <trkpt lat="10.158463522954" lon="-75.6803606587682">
        <ele>52.4778713</ele>
        <time>2019-09-10T15:44:22.600Z</time>
      </trkpt>
      <trkpt lat="10.1584617838149" lon="-75.6803586037121">
        <ele>52.4778713</ele>
        <time>2019-09-10T15:44:22.700Z</time>
      </trkpt>
      <trkpt lat="10.1584600110972" lon="-75.6803564731799">
        <ele>52.4778713</ele>
        <time>2019-09-10T15:44:22.800Z</time>
      </trkpt>
      <trkpt lat="10.1584582283419" lon="-75.6803543078338">
        <ele>52.4778713</ele>
        <time>2019-09-10T15:44:22.900Z</time>
      </trkpt>
      <trkpt lat="10.1584564767745" lon="-75.6803521153331">
        <ele>52.4778713</ele>
        <time>2019-09-10T15:44:23.000Z</time>
      </trkpt>
      <trkpt lat="10.158454721618" lon="-75.6803499317447">
        <ele>52.4778713</ele>
        <time>2019-09-10T15:44:23.100Z</time>
      </trkpt>
      <trkpt lat="10.1584529169243" lon="-75.6803477198179">
        <ele>52.4778713</ele>
        <time>2019-09-10T15:44:23.200Z</time>
      </trkpt>
      <trkpt lat="10.1584511235189" lon="-75.6803455374131">
        <ele>52.4778713</ele>
        <time>2019-09-10T15:44:23.300Z</time>
      </trkpt>
      <trkpt lat="10.1584493344973" lon="-75.6803433863407">
        <ele>52.4778713</ele>
        <time>2019-09-10T15:44:23.400Z</time>
      </trkpt>
      <trkpt lat="10.1584475624506" lon="-75.6803412728672">
        <ele>52.4778713</ele>
        <time>2019-09-10T15:44:23.500Z</time>
      </trkpt>
      <trkpt lat="10.1584458261385" lon="-75.6803392001954">
        <ele>52.4778713</ele>
        <time>2019-09-10T15:44:23.600Z</time>
      </trkpt>
      <trkpt lat="10.1584440994993" lon="-75.6803371326761">
        <ele>52.4778713</ele>
        <time>2019-09-10T15:44:23.700Z</time>
      </trkpt>
      <trkpt lat="10.1584423904538" lon="-75.6803350734424">
        <ele>52.4778713</ele>
        <time>2019-09-10T15:44:23.800Z</time>
      </trkpt>
      <trkpt lat="10.1584406832127" lon="-75.6803330178293">
        <ele>52.3778713</ele>
        <time>2019-09-10T15:44:23.900Z</time>
      </trkpt>
      <trkpt lat="10.1584389755286" lon="-75.6803309753062">
        <ele>52.4778713</ele>
        <time>2019-09-10T15:44:24.000Z</time>
      </trkpt>
      <trkpt lat="10.1584372629918" lon="-75.680328920668">
        <ele>52.4778713</ele>
        <time>2019-09-10T15:44:24.100Z</time>
      </trkpt>
      <trkpt lat="10.1584355323857" lon="-75.6803268727836">
        <ele>52.4778713</ele>
        <time>2019-09-10T15:44:24.200Z</time>
      </trkpt>
      <trkpt lat="10.1584337980147" lon="-75.6803248152209">
        <ele>52.4778713</ele>
        <time>2019-09-10T15:44:24.300Z</time>
      </trkpt>
      <trkpt lat="10.1584320446169" lon="-75.680322770609">
        <ele>52.3778713</ele>
        <time>2019-09-10T15:44:24.400Z</time>
      </trkpt>
      <trkpt lat="10.1584302933426" lon="-75.6803207198003">
        <ele>52.3778713</ele>
        <time>2019-09-10T15:44:24.500Z</time>
      </trkpt>
      <trkpt lat="10.158428566495" lon="-75.6803187142494">
        <ele>52.3778713</ele>
        <time>2019-09-10T15:44:24.600Z</time>
      </trkpt>
      <trkpt lat="10.1584268407482" lon="-75.6803166963745">
        <ele>52.3778713</ele>
        <time>2019-09-10T15:44:24.700Z</time>
      </trkpt>
      <trkpt lat="10.1584251393044" lon="-75.6803146434073">
        <ele>52.3778713</ele>
        <time>2019-09-10T15:44:24.800Z</time>
      </trkpt>
      <trkpt lat="10.1584234252368" lon="-75.680312571014">
        <ele>52.4778713</ele>
        <time>2019-09-10T15:44:24.900Z</time>
      </trkpt>
      <trkpt lat="10.1584216696113" lon="-75.6803104942341">
        <ele>52.3778713</ele>
        <time>2019-09-10T15:44:25.000Z</time>
      </trkpt>
      <trkpt lat="10.158419905316" lon="-75.6803084031807">
        <ele>52.3778713</ele>
        <time>2019-09-10T15:44:25.100Z</time>
      </trkpt>
      <trkpt lat="10.1584181490457" lon="-75.6803062833014">
        <ele>52.3778713</ele>
        <time>2019-09-10T15:44:25.200Z</time>
      </trkpt>
      <trkpt lat="10.1584163953092" lon="-75.6803041634222">
        <ele>52.3778713</ele>
        <time>2019-09-10T15:44:25.300Z</time>
      </trkpt>
      <trkpt lat="10.1584146473765" lon="-75.68030200483">
        <ele>52.3778713</ele>
        <time>2019-09-10T15:44:25.400Z</time>
      </trkpt>
      <trkpt lat="10.1584128995219" lon="-75.6802998513903">
        <ele>52.3778713</ele>
        <time>2019-09-10T15:44:25.500Z</time>
      </trkpt>
      <trkpt lat="10.1584111569826" lon="-75.680297707977">
        <ele>52.3778713</ele>
        <time>2019-09-10T15:44:25.600Z</time>
      </trkpt>
      <trkpt lat="10.1584094105676" lon="-75.6802955814831">
        <ele>52.3778713</ele>
        <time>2019-09-10T15:44:25.700Z</time>
      </trkpt>
      <trkpt lat="10.1584076999459" lon="-75.6802934762953">
        <ele>52.3778713</ele>
        <time>2019-09-10T15:44:25.800Z</time>
      </trkpt>
      <trkpt lat="10.1584059822892" lon="-75.680291375494">
        <ele>52.3778713</ele>
        <time>2019-09-10T15:44:25.900Z</time>
      </trkpt>
      <trkpt lat="10.1584042706382" lon="-75.68028928827">
        <ele>52.3778713</ele>
        <time>2019-09-10T15:44:26.000Z</time>
      </trkpt>
      <trkpt lat="10.1584025461812" lon="-75.6802871950581">
        <ele>52.3778713</ele>
        <time>2019-09-10T15:44:26.100Z</time>
      </trkpt>
      <trkpt lat="10.1584008191577" lon="-75.6802850746915">
        <ele>52.3778713</ele>
        <time>2019-09-10T15:44:26.200Z</time>
      </trkpt>
      <trkpt lat="10.1583990813474" lon="-75.6802829560655">
        <ele>52.3778713</ele>
        <time>2019-09-10T15:44:26.300Z</time>
      </trkpt>
      <trkpt lat="10.1583973108249" lon="-75.6802808415476">
        <ele>52.3778713</ele>
        <time>2019-09-10T15:44:26.400Z</time>
      </trkpt>
      <trkpt lat="10.1583955342707" lon="-75.6802787277259">
        <ele>52.3778713</ele>
        <time>2019-09-10T15:44:26.500Z</time>
      </trkpt>
      <trkpt lat="10.1583936827689" lon="-75.6802765852874">
        <ele>52.3778713</ele>
        <time>2019-09-10T15:44:26.600Z</time>
      </trkpt>
      <trkpt lat="10.158389971506" lon="-75.6802723394713">
        <ele>52.3778713</ele>
        <time>2019-09-10T15:44:26.800Z</time>
      </trkpt>
      <trkpt lat="10.1583881399103" lon="-75.6802702208453">
        <ele>52.3778713</ele>
        <time>2019-09-10T15:44:26.900Z</time>
      </trkpt>
      <trkpt lat="10.1583863041198" lon="-75.6802681370331">
        <ele>52.3778713</ele>
        <time>2019-09-10T15:44:27.000Z</time>
      </trkpt>
      <trkpt lat="10.1583844715862" lon="-75.6802660500877">
        <ele>52.3778713</ele>
        <time>2019-09-10T15:44:27.100Z</time>
      </trkpt>
      <trkpt lat="10.1583826285133" lon="-75.6802639364749">
        <ele>52.3778713</ele>
        <time>2019-09-10T15:44:27.200Z</time>
      </trkpt>
      <trkpt lat="10.1583807867952" lon="-75.6802618223748">
        <ele>52.3778713</ele>
        <time>2019-09-10T15:44:27.300Z</time>
      </trkpt>
      <trkpt lat="10.158378932727" lon="-75.6802597200416">
        <ele>52.3778713</ele>
        <time>2019-09-10T15:44:27.400Z</time>
      </trkpt>
      <trkpt lat="10.1583770995942" lon="-75.6802576324696">
        <ele>52.3778713</ele>
        <time>2019-09-10T15:44:27.500Z</time>
      </trkpt>
      <trkpt lat="10.1583753200175" lon="-75.680255556386">
        <ele>52.3778713</ele>
        <time>2019-09-10T15:44:27.600Z</time>
      </trkpt>
      <trkpt lat="10.1583735602298" lon="-75.6802534889363">
        <ele>52.3778713</ele>
        <time>2019-09-10T15:44:27.700Z</time>
      </trkpt>
      <trkpt lat="10.1583717977322" lon="-75.6802514278227">
        <ele>52.3778713</ele>
        <time>2019-09-10T15:44:27.800Z</time>
      </trkpt>
      <trkpt lat="10.1583700453962" lon="-75.6802493701208">
        <ele>52.3778713</ele>
        <time>2019-09-10T15:44:27.900Z</time>
      </trkpt>
      <trkpt lat="10.1583683302669" lon="-75.6802473179891">
        <ele>52.3778713</ele>
        <time>2019-09-10T15:44:28.000Z</time>
      </trkpt>
      <trkpt lat="10.1583666289077" lon="-75.6802452562488">
        <ele>52.3778713</ele>
        <time>2019-09-10T15:44:28.100Z</time>
      </trkpt>
      <trkpt lat="10.1583649453702" lon="-75.6802431869191">
        <ele>52.3778713</ele>
        <time>2019-09-10T15:44:28.200Z</time>
      </trkpt>
      <trkpt lat="10.1583632581719" lon="-75.6802411127155">
        <ele>52.3778713</ele>
        <time>2019-09-10T15:44:28.300Z</time>
      </trkpt>
      <trkpt lat="10.1583615731623" lon="-75.6802390471458">
        <ele>52.3778713</ele>
        <time>2019-09-10T15:44:28.400Z</time>
      </trkpt>
      <trkpt lat="10.158359872233" lon="-75.680236974474">
        <ele>52.3778713</ele>
        <time>2019-09-10T15:44:28.500Z</time>
      </trkpt>
      <trkpt lat="10.1583581694538" lon="-75.6802348860663">
        <ele>52.3778713</ele>
        <time>2019-09-10T15:44:28.600Z</time>
      </trkpt>
      <trkpt lat="10.1583564471333" lon="-75.6802327971017">
        <ele>52.3778713</ele>
        <time>2019-09-10T15:44:28.700Z</time>
      </trkpt>
      <trkpt lat="10.1583546972855" lon="-75.6802307007566">
        <ele>52.3778713</ele>
        <time>2019-09-10T15:44:28.800Z</time>
      </trkpt>
      <trkpt lat="10.158352939022" lon="-75.6802286087283">
        <ele>52.3778713</ele>
        <time>2019-09-10T15:44:28.900Z</time>
      </trkpt>
      <trkpt lat="10.1583511792602" lon="-75.6802264999199">
        <ele>52.3778713</ele>
        <time>2019-09-10T15:44:29.000Z</time>
      </trkpt>
      <trkpt lat="10.1583494259471" lon="-75.6802243895796">
        <ele>52.3778713</ele>
        <time>2019-09-10T15:44:29.100Z</time>
      </trkpt>
      <trkpt lat="10.1583476856616" lon="-75.6802222310571">
        <ele>52.3778713</ele>
        <time>2019-09-10T15:44:29.200Z</time>
      </trkpt>
      <trkpt lat="10.1583459482812" lon="-75.6802200748322">
        <ele>52.3778713</ele>
        <time>2019-09-10T15:44:29.300Z</time>
      </trkpt>
      <trkpt lat="10.1583442163594" lon="-75.6802179254309">
        <ele>52.3778713</ele>
        <time>2019-09-10T15:44:29.400Z</time>
      </trkpt>
      <trkpt lat="10.1583424872515" lon="-75.6802157899551">
        <ele>52.3778713</ele>
        <time>2019-09-10T15:44:29.500Z</time>
      </trkpt>
      <trkpt lat="10.1583407667548" lon="-75.6802136685441">
        <ele>52.3778713</ele>
        <time>2019-09-10T15:44:29.600Z</time>
      </trkpt>
      <trkpt lat="10.1583390491763" lon="-75.6802115539565">
        <ele>52.3778713</ele>
        <time>2019-09-10T15:44:29.700Z</time>
      </trkpt>
      <trkpt lat="10.158337357679" lon="-75.6802094237028">
        <ele>52.3778713</ele>
        <time>2019-09-10T15:44:29.800Z</time>
      </trkpt>
      <trkpt lat="10.1583356574401" lon="-75.6802073100204">
        <ele>52.3778713</ele>
        <time>2019-09-10T15:44:29.900Z</time>
      </trkpt>
      <trkpt lat="10.1583339712059" lon="-75.6802052583761">
        <ele>52.3778713</ele>
        <time>2019-09-10T15:44:30.000Z</time>
      </trkpt>
      <trkpt lat="10.1583322741197" lon="-75.6802032152263">
        <ele>52.3778713</ele>
        <time>2019-09-10T15:44:30.100Z</time>
      </trkpt>
      <trkpt lat="10.1583305631592" lon="-75.6802011727729">
        <ele>52.3778713</ele>
        <time>2019-09-10T15:44:30.200Z</time>
      </trkpt>
      <trkpt lat="10.1583288505572" lon="-75.680199131712">
        <ele>52.3778713</ele>
        <time>2019-09-10T15:44:30.300Z</time>
      </trkpt>
      <trkpt lat="10.1583271263347" lon="-75.6801971051336">
        <ele>52.3778713</ele>
        <time>2019-09-10T15:44:30.400Z</time>
      </trkpt>
      <trkpt lat="10.15832539496" lon="-75.6801950740294">
        <ele>52.3778713</ele>
        <time>2019-09-10T15:44:30.500Z</time>
      </trkpt>
      <trkpt lat="10.1583218608978" lon="-75.6801909486689">
        <ele>52.3778713</ele>
        <time>2019-09-10T15:44:30.700Z</time>
      </trkpt>
      <trkpt lat="10.1583201060996" lon="-75.6801889182611">
        <ele>52.3778713</ele>
        <time>2019-09-10T15:44:30.800Z</time>
      </trkpt>
      <trkpt lat="10.1583183608506" lon="-75.680186893493">
        <ele>52.3778713</ele>
        <time>2019-09-10T15:44:30.900Z</time>
      </trkpt>
      <trkpt lat="10.1583166038898" lon="-75.6801848614837">
        <ele>52.3778713</ele>
        <time>2019-09-10T15:44:31.000Z</time>
      </trkpt>
      <trkpt lat="10.1583131049759" lon="-75.6801806926756">
        <ele>52.3778713</ele>
        <time>2019-09-10T15:44:31.200Z</time>
      </trkpt>
      <trkpt lat="10.1583113619546" lon="-75.6801785518385">
        <ele>52.4778713</ele>
        <time>2019-09-10T15:44:31.300Z</time>
      </trkpt>
      <trkpt lat="10.1583096679038" lon="-75.6801764092606">
        <ele>52.4778713</ele>
        <time>2019-09-10T15:44:31.400Z</time>
      </trkpt>
      <trkpt lat="10.1583079594186" lon="-75.6801742688413">
        <ele>52.4778713</ele>
        <time>2019-09-10T15:44:31.500Z</time>
      </trkpt>
      <trkpt lat="10.158306232838" lon="-75.6801721683185">
        <ele>52.4778713</ele>
        <time>2019-09-10T15:44:31.600Z</time>
      </trkpt>
      <trkpt lat="10.1583044904681" lon="-75.6801700812338">
        <ele>52.4778713</ele>
        <time>2019-09-10T15:44:31.700Z</time>
      </trkpt>
      <trkpt lat="10.1583027192161" lon="-75.6801679628167">
        <ele>52.4778713</ele>
        <time>2019-09-10T15:44:31.800Z</time>
      </trkpt>
      <trkpt lat="10.1583009496055" lon="-75.6801658560274">
        <ele>52.4778713</ele>
        <time>2019-09-10T15:44:31.900Z</time>
      </trkpt>
      <trkpt lat="10.1582991817276" lon="-75.6801637701264">
        <ele>52.4778713</ele>
        <time>2019-09-10T15:44:32.000Z</time>
      </trkpt>
      <trkpt lat="10.1582974131072" lon="-75.6801616946695">
        <ele>52.3778713</ele>
        <time>2019-09-10T15:44:32.100Z</time>
      </trkpt>
      <trkpt lat="10.1582956610317" lon="-75.6801596031983">
        <ele>52.3778713</ele>
        <time>2019-09-10T15:44:32.200Z</time>
      </trkpt>
      <trkpt lat="10.1582939054127" lon="-75.680157503511">
        <ele>52.3778713</ele>
        <time>2019-09-10T15:44:32.300Z</time>
      </trkpt>
      <trkpt lat="10.1582921316855" lon="-75.6801554242246">
        <ele>52.3778713</ele>
        <time>2019-09-10T15:44:32.400Z</time>
      </trkpt>
      <trkpt lat="10.1582903617362" lon="-75.680153360117">
        <ele>52.3778713</ele>
        <time>2019-09-10T15:44:32.500Z</time>
      </trkpt>
      <trkpt lat="10.1582886288113" lon="-75.6801513024848">
        <ele>52.3778713</ele>
        <time>2019-09-10T15:44:32.600Z</time>
      </trkpt>
      <trkpt lat="10.1582869199352" lon="-75.6801492455488">
        <ele>52.3778713</ele>
        <time>2019-09-10T15:44:32.700Z</time>
      </trkpt>
      <trkpt lat="10.1582852320855" lon="-75.6801472420171">
        <ele>52.3778713</ele>
        <time>2019-09-10T15:44:32.800Z</time>
      </trkpt>
      <trkpt lat="10.1582835401973" lon="-75.6801452378588">
        <ele>52.3778713</ele>
        <time>2019-09-10T15:44:32.900Z</time>
      </trkpt>
      <trkpt lat="10.1582818016184" lon="-75.6801431956142">
        <ele>52.3778713</ele>
        <time>2019-09-10T15:44:33.000Z</time>
      </trkpt>
      <trkpt lat="10.1582800655668" lon="-75.680141139096">
        <ele>52.3778713</ele>
        <time>2019-09-10T15:44:33.100Z</time>
      </trkpt>
      <trkpt lat="10.1582783311046" lon="-75.6801390690701">
        <ele>52.3778713</ele>
        <time>2019-09-10T15:44:33.200Z</time>
      </trkpt>
      <trkpt lat="10.158276587914" lon="-75.680136993265">
        <ele>52.3778713</ele>
        <time>2019-09-10T15:44:33.300Z</time>
      </trkpt>
      <trkpt lat="10.1582748508983" lon="-75.680134943431">
        <ele>52.3778713</ele>
        <time>2019-09-10T15:44:33.400Z</time>
      </trkpt>
      <trkpt lat="10.1582731092449" lon="-75.6801328941541">
        <ele>52.3778713</ele>
        <time>2019-09-10T15:44:33.500Z</time>
      </trkpt>
      <trkpt lat="10.1582713540689" lon="-75.680130815564">
        <ele>52.3778713</ele>
        <time>2019-09-10T15:44:33.600Z</time>
      </trkpt>
      <trkpt lat="10.1582695889138" lon="-75.6801287291755">
        <ele>52.3778713</ele>
        <time>2019-09-10T15:44:33.700Z</time>
      </trkpt>
      <trkpt lat="10.1582678051032" lon="-75.6801266019854">
        <ele>52.3778713</ele>
        <time>2019-09-10T15:44:33.800Z</time>
      </trkpt>
      <trkpt lat="10.1582660279888" lon="-75.6801245095394">
        <ele>52.3778713</ele>
        <time>2019-09-10T15:44:33.900Z</time>
      </trkpt>
      <trkpt lat="10.1582642357624" lon="-75.6801224562937">
        <ele>52.3778713</ele>
        <time>2019-09-10T15:44:34.000Z</time>
      </trkpt>
      <trkpt lat="10.1582624545313" lon="-75.6801204258162">
        <ele>52.3778713</ele>
        <time>2019-09-10T15:44:34.100Z</time>
      </trkpt>
      <trkpt lat="10.1582607076668" lon="-75.6801184023014">
        <ele>52.3778713</ele>
        <time>2019-09-10T15:44:34.200Z</time>
      </trkpt>
      <trkpt lat="10.1582589759925" lon="-75.6801163721024">
        <ele>52.3778713</ele>
        <time>2019-09-10T15:44:34.300Z</time>
      </trkpt>
      <trkpt lat="10.1582572378826" lon="-75.6801143465684">
        <ele>52.3778713</ele>
        <time>2019-09-10T15:44:34.400Z</time>
      </trkpt>
      <trkpt lat="10.1582555100384" lon="-75.6801123126791">
        <ele>52.3778713</ele>
        <time>2019-09-10T15:44:34.500Z</time>
      </trkpt>
      <trkpt lat="10.1582538127307" lon="-75.6801102540025">
        <ele>52.2778713</ele>
        <time>2019-09-10T15:44:34.600Z</time>
      </trkpt>
      <trkpt lat="10.1582521088832" lon="-75.680108176596">
        <ele>52.2778713</ele>
        <time>2019-09-10T15:44:34.700Z</time>
      </trkpt>
      <trkpt lat="10.1582503916435" lon="-75.6801060858211">
        <ele>52.2778713</ele>
        <time>2019-09-10T15:44:34.800Z</time>
      </trkpt>
      <trkpt lat="10.1582486647893" lon="-75.6801039836272">
        <ele>52.2778713</ele>
        <time>2019-09-10T15:44:34.900Z</time>
      </trkpt>
      <trkpt lat="10.1582469090401" lon="-75.6801018513543">
        <ele>52.2778713</ele>
        <time>2019-09-10T15:44:35.000Z</time>
      </trkpt>
      <trkpt lat="10.1582451419048" lon="-75.6800997123971">
        <ele>52.2778713</ele>
        <time>2019-09-10T15:44:35.100Z</time>
      </trkpt>
      <trkpt lat="10.1582433976198" lon="-75.6800975692622">
        <ele>52.2778713</ele>
        <time>2019-09-10T15:44:35.200Z</time>
      </trkpt>
      <trkpt lat="10.1582416440331" lon="-75.6800954223675">
        <ele>52.2778713</ele>
        <time>2019-09-10T15:44:35.300Z</time>
      </trkpt>
      <trkpt lat="10.1582398614211" lon="-75.6800932615473">
        <ele>52.2778713</ele>
        <time>2019-09-10T15:44:35.400Z</time>
      </trkpt>
      <trkpt lat="10.1582380815969" lon="-75.6800911074113">
        <ele>52.2778713</ele>
        <time>2019-09-10T15:44:35.500Z</time>
      </trkpt>
      <trkpt lat="10.1582345745799" lon="-75.6800867707313">
        <ele>52.2778713</ele>
        <time>2019-09-10T15:44:35.700Z</time>
      </trkpt>
      <trkpt lat="10.1582328447555" lon="-75.6800845862377">
        <ele>52.2778713</ele>
        <time>2019-09-10T15:44:35.800Z</time>
      </trkpt>
      <trkpt lat="10.1582311075575" lon="-75.6800823992375">
        <ele>52.2778713</ele>
        <time>2019-09-10T15:44:35.900Z</time>
      </trkpt>
      <trkpt lat="10.1582293799218" lon="-75.6800802524821">
        <ele>52.2778713</ele>
        <time>2019-09-10T15:44:36.000Z</time>
      </trkpt>
      <trkpt lat="10.1582276278463" lon="-75.6800781099043">
        <ele>52.2778713</ele>
        <time>2019-09-10T15:44:36.100Z</time>
      </trkpt>
      <trkpt lat="10.1582258782721" lon="-75.6800759866829">
        <ele>52.2778713</ele>
        <time>2019-09-10T15:44:36.200Z</time>
      </trkpt>
      <trkpt lat="10.1582241219236" lon="-75.6800738538529">
        <ele>52.2778713</ele>
        <time>2019-09-10T15:44:36.300Z</time>
      </trkpt>
      <trkpt lat="10.1582223435064" lon="-75.6800716976281">
        <ele>52.2778713</ele>
        <time>2019-09-10T15:44:36.400Z</time>
      </trkpt>
      <trkpt lat="10.1582205662617" lon="-75.6800695356938">
        <ele>52.2778713</ele>
        <time>2019-09-10T15:44:36.500Z</time>
      </trkpt>
      <trkpt lat="10.1582188482664" lon="-75.6800674446404">
        <ele>52.2778713</ele>
        <time>2019-09-10T15:44:36.600Z</time>
      </trkpt>
      <trkpt lat="10.1582171448879" lon="-75.6800653470419">
        <ele>52.2778713</ele>
        <time>2019-09-10T15:44:36.700Z</time>
      </trkpt>
      <trkpt lat="10.1582154164444" lon="-75.6800631390143">
        <ele>52.2778713</ele>
        <time>2019-09-10T15:44:36.800Z</time>
      </trkpt>
      <trkpt lat="10.1582136907106" lon="-75.6800609238846">
        <ele>52.2778713</ele>
        <time>2019-09-10T15:44:36.900Z</time>
      </trkpt>
      <trkpt lat="10.1582119383486" lon="-75.6800586846638">
        <ele>52.2778713</ele>
        <time>2019-09-10T15:44:37.000Z</time>
      </trkpt>
      <trkpt lat="10.1582101937509" lon="-75.6800564847129">
        <ele>52.2778713</ele>
        <time>2019-09-10T15:44:37.100Z</time>
      </trkpt>
      <trkpt lat="10.1582084705445" lon="-75.6800543172084">
        <ele>52.3778713</ele>
        <time>2019-09-10T15:44:37.200Z</time>
      </trkpt>
      <trkpt lat="10.158206750595" lon="-75.6800521668323">
        <ele>52.3778713</ele>
        <time>2019-09-10T15:44:37.300Z</time>
      </trkpt>
      <trkpt lat="10.1582050014377" lon="-75.6800499838705">
        <ele>52.3778713</ele>
        <time>2019-09-10T15:44:37.400Z</time>
      </trkpt>
      <trkpt lat="10.1582032461835" lon="-75.6800478128847">
        <ele>52.3778713</ele>
        <time>2019-09-10T15:44:37.500Z</time>
      </trkpt>
      <trkpt lat="10.1582015107312" lon="-75.6800457133367">
        <ele>52.3778713</ele>
        <time>2019-09-10T15:44:37.600Z</time>
      </trkpt>
      <trkpt lat="10.1581997822877" lon="-75.6800436218655">
        <ele>52.3778713</ele>
        <time>2019-09-10T15:44:37.700Z</time>
      </trkpt>
      <trkpt lat="10.1581979952723" lon="-75.6800414823513">
        <ele>52.3778713</ele>
        <time>2019-09-10T15:44:37.800Z</time>
      </trkpt>
      <trkpt lat="10.1581962090386" lon="-75.6800393205562">
        <ele>52.3778713</ele>
        <time>2019-09-10T15:44:37.900Z</time>
      </trkpt>
      <trkpt lat="10.1581944143891" lon="-75.6800371884226">
        <ele>52.3778713</ele>
        <time>2019-09-10T15:44:38.000Z</time>
      </trkpt>
      <trkpt lat="10.1581926452736" lon="-75.680035066176">
        <ele>52.3778713</ele>
        <time>2019-09-10T15:44:38.100Z</time>
      </trkpt>
      <trkpt lat="10.158190911072" lon="-75.6800329958715">
        <ele>52.3778713</ele>
        <time>2019-09-10T15:44:38.200Z</time>
      </trkpt>
      <trkpt lat="10.1581891853903" lon="-75.6800309432524">
        <ele>52.3778713</ele>
        <time>2019-09-10T15:44:38.300Z</time>
      </trkpt>
      <trkpt lat="10.1581874964464" lon="-75.6800288814425">
        <ele>52.3778713</ele>
        <time>2019-09-10T15:44:38.400Z</time>
      </trkpt>
      <trkpt lat="10.1581858538805" lon="-75.6800268480407">
        <ele>52.3778713</ele>
        <time>2019-09-10T15:44:38.500Z</time>
      </trkpt>
      <trkpt lat="10.1581843369784" lon="-75.680024895546">
        <ele>52.3778713</ele>
        <time>2019-09-10T15:44:38.600Z</time>
      </trkpt>
      <trkpt lat="10.1581829696326" lon="-75.68002297132">
        <ele>52.3778713</ele>
        <time>2019-09-10T15:44:38.700Z</time>
      </trkpt>
      <trkpt lat="10.1581818476738" lon="-75.6800210938838">
        <ele>52.3778713</ele>
        <time>2019-09-10T15:44:38.800Z</time>
      </trkpt>
      <trkpt lat="10.1581809199036" lon="-75.6800192268916">
        <ele>52.3778713</ele>
        <time>2019-09-10T15:44:38.900Z</time>
      </trkpt>
      <trkpt lat="10.1581802559154" lon="-75.680017379813">
        <ele>52.3778713</ele>
        <time>2019-09-10T15:44:39.000Z</time>
      </trkpt>
      <trkpt lat="10.1581798441926" lon="-75.6800155341269">
        <ele>52.2778713</ele>
        <time>2019-09-10T15:44:39.100Z</time>
      </trkpt>
      <trkpt lat="10.1581797996905" lon="-75.6800137687909">
        <ele>52.2778713</ele>
        <time>2019-09-10T15:44:39.200Z</time>
      </trkpt>
      <trkpt lat="10.158180039632" lon="-75.6800120108355">
        <ele>52.2778713</ele>
        <time>2019-09-10T15:44:39.300Z</time>
      </trkpt>
      <trkpt lat="10.1581806744646" lon="-75.6800103486875">
        <ele>52.2778713</ele>
        <time>2019-09-10T15:44:39.400Z</time>
      </trkpt>
      <trkpt lat="10.1581815938189" lon="-75.6800086883498">
        <ele>52.2778713</ele>
        <time>2019-09-10T15:44:39.500Z</time>
      </trkpt>
      <trkpt lat="10.1581828437344" lon="-75.6800072153102">
        <ele>52.2778713</ele>
        <time>2019-09-10T15:44:39.600Z</time>
      </trkpt>
      <trkpt lat="10.1581843577964" lon="-75.6800057275095">
        <ele>52.2778713</ele>
        <time>2019-09-10T15:44:39.700Z</time>
      </trkpt>
      <trkpt lat="10.158186145359" lon="-75.6800044455277">
        <ele>52.3778713</ele>
        <time>2019-09-10T15:44:39.800Z</time>
      </trkpt>
      <trkpt lat="10.1581881186423" lon="-75.6800031316566">
        <ele>52.3778713</ele>
        <time>2019-09-10T15:44:39.900Z</time>
      </trkpt>
      <trkpt lat="10.1581902078968" lon="-75.6800020105144">
        <ele>52.3778713</ele>
        <time>2019-09-10T15:44:40.000Z</time>
      </trkpt>
      <trkpt lat="10.1581923921744" lon="-75.6800008260111">
        <ele>52.3778713</ele>
        <time>2019-09-10T15:44:40.100Z</time>
      </trkpt>
      <trkpt lat="10.1581968246165" lon="-75.6799986236929">
        <ele>52.3778713</ele>
        <time>2019-09-10T15:44:40.300Z</time>
      </trkpt>
      <trkpt lat="10.1581990054287" lon="-75.6799975550498">
        <ele>52.3778713</ele>
        <time>2019-09-10T15:44:40.400Z</time>
      </trkpt>
      <trkpt lat="10.1582012702165" lon="-75.6799963900423">
        <ele>52.3778713</ele>
        <time>2019-09-10T15:44:40.500Z</time>
      </trkpt>
      <trkpt lat="10.1582034891213" lon="-75.6799952456445">
        <ele>52.3778713</ele>
        <time>2019-09-10T15:44:40.600Z</time>
      </trkpt>
      <trkpt lat="10.1582057749356" lon="-75.679993985665">
        <ele>52.3778713</ele>
        <time>2019-09-10T15:44:40.700Z</time>
      </trkpt>
      <trkpt lat="10.15820798803" lon="-75.6799926684517">
        <ele>52.3778713</ele>
        <time>2019-09-10T15:44:40.800Z</time>
      </trkpt>
      <trkpt lat="10.1582102676692" lon="-75.6799912366316">
        <ele>52.3778713</ele>
        <time>2019-09-10T15:44:40.900Z</time>
      </trkpt>
      <trkpt lat="10.1582125105447" lon="-75.6799897225117">
        <ele>52.3778713</ele>
        <time>2019-09-10T15:44:41.000Z</time>
      </trkpt>
      <trkpt lat="10.1582148155876" lon="-75.6799881408531">
        <ele>52.4778713</ele>
        <time>2019-09-10T15:44:41.100Z</time>
      </trkpt>
      <trkpt lat="10.1582171002034" lon="-75.6799864490438">
        <ele>52.4778713</ele>
        <time>2019-09-10T15:44:41.200Z</time>
      </trkpt>
      <trkpt lat="10.1582194114995" lon="-75.679984728548">
        <ele>52.4778713</ele>
        <time>2019-09-10T15:44:41.300Z</time>
      </trkpt>
      <trkpt lat="10.1582217172199" lon="-75.679982950122">
        <ele>52.3778713</ele>
        <time>2019-09-10T15:44:41.400Z</time>
      </trkpt>
      <trkpt lat="10.1582240187193" lon="-75.6799811669615">
        <ele>52.3778713</ele>
        <time>2019-09-10T15:44:41.500Z</time>
      </trkpt>
      <trkpt lat="10.1582263041428" lon="-75.6799793212753">
        <ele>52.3778713</ele>
        <time>2019-09-10T15:44:41.600Z</time>
      </trkpt>
      <trkpt lat="10.1582285821666" lon="-75.6799774592964">
        <ele>52.3778713</ele>
        <time>2019-09-10T15:44:41.700Z</time>
      </trkpt>
      <trkpt lat="10.1582308559434" lon="-75.6799755317283">
        <ele>52.3778713</ele>
        <time>2019-09-10T15:44:41.800Z</time>
      </trkpt>
      <trkpt lat="10.158233107886" lon="-75.6799735842468">
        <ele>52.3778713</ele>
        <time>2019-09-10T15:44:41.900Z</time>
      </trkpt>
      <trkpt lat="10.1582353712408" lon="-75.6799715183985">
        <ele>52.3778713</ele>
        <time>2019-09-10T15:44:42.000Z</time>
      </trkpt>
      <trkpt lat="10.1582376148458" lon="-75.6799694741347">
        <ele>52.3778713</ele>
        <time>2019-09-10T15:44:42.100Z</time>
      </trkpt>
      <trkpt lat="10.1582399025621" lon="-75.679967361636">
        <ele>52.3778713</ele>
        <time>2019-09-10T15:44:42.200Z</time>
      </trkpt>
      <trkpt lat="10.1582421773811" lon="-75.6799652748995">
        <ele>52.3778713</ele>
        <time>2019-09-10T15:44:42.300Z</time>
      </trkpt>
      <trkpt lat="10.1582444761187" lon="-75.6799631781365">
        <ele>52.3778713</ele>
        <time>2019-09-10T15:44:42.400Z</time>
      </trkpt>
      <trkpt lat="10.1582467377538" lon="-75.6799611107564">
        <ele>52.3778713</ele>
        <time>2019-09-10T15:44:42.500Z</time>
      </trkpt>
      <trkpt lat="10.1582489820623" lon="-75.6799590187282">
        <ele>52.3778713</ele>
        <time>2019-09-10T15:44:42.600Z</time>
      </trkpt>
      <trkpt lat="10.1582511989087" lon="-75.6799569411825">
        <ele>52.3778713</ele>
        <time>2019-09-10T15:44:42.700Z</time>
      </trkpt>
      <trkpt lat="10.1582534116124" lon="-75.6799548252024">
        <ele>52.3778713</ele>
        <time>2019-09-10T15:44:42.800Z</time>
      </trkpt>
      <trkpt lat="10.1582556031593" lon="-75.6799527498847">
        <ele>52.3778713</ele>
        <time>2019-09-10T15:44:42.900Z</time>
      </trkpt>
      <trkpt lat="10.1582578014024" lon="-75.6799506659333">
        <ele>52.3778713</ele>
        <time>2019-09-10T15:44:43.000Z</time>
      </trkpt>
      <trkpt lat="10.158259977707" lon="-75.6799486326707">
        <ele>52.3778713</ele>
        <time>2019-09-10T15:44:43.100Z</time>
      </trkpt>
      <trkpt lat="10.1582621491915" lon="-75.6799465691897">
        <ele>52.3778713</ele>
        <time>2019-09-10T15:44:43.200Z</time>
      </trkpt>
      <trkpt lat="10.1582642964968" lon="-75.6799445385729">
        <ele>52.3778713</ele>
        <time>2019-09-10T15:44:43.300Z</time>
      </trkpt>
      <trkpt lat="10.1582664228018" lon="-75.6799424533682">
        <ele>52.3778713</ele>
        <time>2019-09-10T15:44:43.400Z</time>
      </trkpt>
      <trkpt lat="10.158268537434" lon="-75.6799404100792">
        <ele>52.3778713</ele>
        <time>2019-09-10T15:44:43.500Z</time>
      </trkpt>
      <trkpt lat="10.1582706445884" lon="-75.6799383315587">
        <ele>52.3778713</ele>
        <time>2019-09-10T15:44:43.600Z</time>
      </trkpt>
      <trkpt lat="10.1582726888198" lon="-75.6799364119282">
        <ele>52.3778713</ele>
        <time>2019-09-10T15:44:43.700Z</time>
      </trkpt>
      <trkpt lat="10.1582746125984" lon="-75.6799346858621">
        <ele>52.3778713</ele>
        <time>2019-09-10T15:44:43.800Z</time>
      </trkpt>
      <trkpt lat="10.1582764865336" lon="-75.6799332085055">
        <ele>52.3778713</ele>
        <time>2019-09-10T15:44:43.900Z</time>
      </trkpt>
      <trkpt lat="10.1582782902763" lon="-75.6799319886315">
        <ele>52.3778713</ele>
        <time>2019-09-10T15:44:44.000Z</time>
      </trkpt>
      <trkpt lat="10.1582800563173" lon="-75.6799310723335">
        <ele>52.3778713</ele>
        <time>2019-09-10T15:44:44.100Z</time>
      </trkpt>
      <trkpt lat="10.1582816721767" lon="-75.6799305309099">
        <ele>52.3778713</ele>
        <time>2019-09-10T15:44:44.200Z</time>
      </trkpt>
      <trkpt lat="10.1582832678694" lon="-75.6799303154824">
        <ele>52.3778713</ele>
        <time>2019-09-10T15:44:44.300Z</time>
      </trkpt>
      <trkpt lat="10.1582847653865" lon="-75.6799304186704">
        <ele>52.3778713</ele>
        <time>2019-09-10T15:44:44.400Z</time>
      </trkpt>
      <trkpt lat="10.158287603595" lon="-75.6799316342275">
        <ele>52.3778713</ele>
        <time>2019-09-10T15:44:44.600Z</time>
      </trkpt>
      <trkpt lat="10.1582889479863" lon="-75.6799327454826">
        <ele>52.3778713</ele>
        <time>2019-09-10T15:44:44.700Z</time>
      </trkpt>
      <trkpt lat="10.1582900973551" lon="-75.6799341649091">
        <ele>52.3778713</ele>
        <time>2019-09-10T15:44:44.800Z</time>
      </trkpt>
      <trkpt lat="10.1582912826018" lon="-75.6799358770496">
        <ele>52.3778713</ele>
        <time>2019-09-10T15:44:44.900Z</time>
      </trkpt>
      <trkpt lat="10.1582922532586" lon="-75.6799378046177">
        <ele>52.3778713</ele>
        <time>2019-09-10T15:44:45.000Z</time>
      </trkpt>
      <trkpt lat="10.1582933252959" lon="-75.6799399225473">
        <ele>52.3778713</ele>
        <time>2019-09-10T15:44:45.100Z</time>
      </trkpt>
      <trkpt lat="10.1582942491056" lon="-75.6799420935332">
        <ele>52.3778713</ele>
        <time>2019-09-10T15:44:45.200Z</time>
      </trkpt>
      <trkpt lat="10.1582953025916" lon="-75.6799443848354">
        <ele>52.3778713</ele>
        <time>2019-09-10T15:44:45.300Z</time>
      </trkpt>
      <trkpt lat="10.1582963108721" lon="-75.6799466129158">
        <ele>52.3778713</ele>
        <time>2019-09-10T15:44:45.400Z</time>
      </trkpt>
      <trkpt lat="10.1582974671976" lon="-75.6799489422346">
        <ele>52.3778713</ele>
        <time>2019-09-10T15:44:45.500Z</time>
      </trkpt>
      <trkpt lat="10.1582986344141" lon="-75.6799512154336">
        <ele>52.3778713</ele>
        <time>2019-09-10T15:44:45.600Z</time>
      </trkpt>
      <trkpt lat="10.158299938446" lon="-75.6799535926561">
        <ele>52.3778713</ele>
        <time>2019-09-10T15:44:45.700Z</time>
      </trkpt>
      <trkpt lat="10.1583012734183" lon="-75.6799559345079">
        <ele>52.3778713</ele>
        <time>2019-09-10T15:44:45.800Z</time>
      </trkpt>
      <trkpt lat="10.1583027076346" lon="-75.6799583608875">
        <ele>52.3778713</ele>
        <time>2019-09-10T15:44:45.900Z</time>
      </trkpt>
      <trkpt lat="10.1583041790184" lon="-75.6799607395025">
        <ele>52.3778713</ele>
        <time>2019-09-10T15:44:46.000Z</time>
      </trkpt>
      <trkpt lat="10.158305738234" lon="-75.6799631795291">
        <ele>52.3778713</ele>
        <time>2019-09-10T15:44:46.100Z</time>
      </trkpt>
      <trkpt lat="10.1583074067638" lon="-75.6799656270754">
        <ele>52.3778713</ele>
        <time>2019-09-10T15:44:46.200Z</time>
      </trkpt>
      <trkpt lat="10.1583091507882" lon="-75.6799681269816">
        <ele>52.3778713</ele>
        <time>2019-09-10T15:44:46.300Z</time>
      </trkpt>
      <trkpt lat="10.1583109273164" lon="-75.6799705990368">
        <ele>52.3778713</ele>
        <time>2019-09-10T15:44:46.400Z</time>
      </trkpt>
      <trkpt lat="10.15831272392" lon="-75.6799730935121">
        <ele>52.3778713</ele>
        <time>2019-09-10T15:44:46.500Z</time>
      </trkpt>
      <trkpt lat="10.1583146352052" lon="-75.6799756385369">
        <ele>52.3778713</ele>
        <time>2019-09-10T15:44:46.600Z</time>
      </trkpt>
      <trkpt lat="10.1583165476498" lon="-75.6799782011079">
        <ele>52.3778713</ele>
        <time>2019-09-10T15:44:46.700Z</time>
      </trkpt>
      <trkpt lat="10.1583185223792" lon="-75.6799807639574">
        <ele>52.3778713</ele>
        <time>2019-09-10T15:44:46.800Z</time>
      </trkpt>
      <trkpt lat="10.158320478427" lon="-75.6799833183123">
        <ele>52.3778713</ele>
        <time>2019-09-10T15:44:46.900Z</time>
      </trkpt>
      <trkpt lat="10.1583224599177" lon="-75.6799858626409">
        <ele>52.3778713</ele>
        <time>2019-09-10T15:44:47.000Z</time>
      </trkpt>
      <trkpt lat="10.1583264450849" lon="-75.6799909134207">
        <ele>52.3778713</ele>
        <time>2019-09-10T15:44:47.200Z</time>
      </trkpt>
      <trkpt lat="10.1583284392774" lon="-75.6799934117951">
        <ele>52.3778713</ele>
        <time>2019-09-10T15:44:47.300Z</time>
      </trkpt>
      <trkpt lat="10.1583304655047" lon="-75.67999586895">
        <ele>52.3778713</ele>
        <time>2019-09-10T15:44:47.400Z</time>
      </trkpt>
      <trkpt lat="10.1583324579646" lon="-75.679998307027">
        <ele>52.3778713</ele>
        <time>2019-09-10T15:44:47.500Z</time>
      </trkpt>
      <trkpt lat="10.158334505531" lon="-75.6800007342421">
        <ele>52.3778713</ele>
        <time>2019-09-10T15:44:47.600Z</time>
      </trkpt>
      <trkpt lat="10.1583365072273" lon="-75.6800031414044">
        <ele>52.3778713</ele>
        <time>2019-09-10T15:44:47.700Z</time>
      </trkpt>
      <trkpt lat="10.1583385178215" lon="-75.6800054517845">
        <ele>52.3778713</ele>
        <time>2019-09-10T15:44:47.800Z</time>
      </trkpt>
      <trkpt lat="10.1583404793149" lon="-75.680007749214">
        <ele>52.3778713</ele>
        <time>2019-09-10T15:44:47.900Z</time>
      </trkpt>
      <trkpt lat="10.1583424465143" lon="-75.6800100334141">
        <ele>52.3778713</ele>
        <time>2019-09-10T15:44:48.000Z</time>
      </trkpt>
      <trkpt lat="10.1583443685603" lon="-75.680012316918">
        <ele>52.2778713</ele>
        <time>2019-09-10T15:44:48.100Z</time>
      </trkpt>
      <trkpt lat="10.1583463658794" lon="-75.6800145876105">
        <ele>52.2778713</ele>
        <time>2019-09-10T15:44:48.200Z</time>
      </trkpt>
      <trkpt lat="10.1583483298089" lon="-75.6800168486943">
        <ele>52.2778713</ele>
        <time>2019-09-10T15:44:48.300Z</time>
      </trkpt>
      <trkpt lat="10.1583503130322" lon="-75.6800190582538">
        <ele>52.2778713</ele>
        <time>2019-09-10T15:44:48.400Z</time>
      </trkpt>
      <trkpt lat="10.1583522512975" lon="-75.6800212590402">
        <ele>52.2778713</ele>
        <time>2019-09-10T15:44:48.500Z</time>
      </trkpt>
      <trkpt lat="10.1583542324624" lon="-75.680023407049">
        <ele>52.2778713</ele>
        <time>2019-09-10T15:44:48.600Z</time>
      </trkpt>
      <trkpt lat="10.1583561571009" lon="-75.6800255629953">
        <ele>52.2778713</ele>
        <time>2019-09-10T15:44:48.700Z</time>
      </trkpt>
      <trkpt lat="10.1583581203139" lon="-75.6800277025095">
        <ele>52.2778713</ele>
        <time>2019-09-10T15:44:48.800Z</time>
      </trkpt>
      <trkpt lat="10.1583600219456" lon="-75.6800298506575">
        <ele>52.2778713</ele>
        <time>2019-09-10T15:44:48.900Z</time>
      </trkpt>
      <trkpt lat="10.1583619530718" lon="-75.6800319965775">
        <ele>52.2778713</ele>
        <time>2019-09-10T15:44:49.000Z</time>
      </trkpt>
      <trkpt lat="10.1583638335468" lon="-75.6800341427759">
        <ele>52.2778713</ele>
        <time>2019-09-10T15:44:49.100Z</time>
      </trkpt>
      <trkpt lat="10.1583657356606" lon="-75.6800362629337">
        <ele>52.2778713</ele>
        <time>2019-09-10T15:44:49.200Z</time>
      </trkpt>
      <trkpt lat="10.1583694596514" lon="-75.680040455624">
        <ele>52.2778713</ele>
        <time>2019-09-10T15:44:49.400Z</time>
      </trkpt>
      <trkpt lat="10.1583712777896" lon="-75.6800425418035">
        <ele>52.2778713</ele>
        <time>2019-09-10T15:44:49.500Z</time>
      </trkpt>
      <trkpt lat="10.1583731291741" lon="-75.6800446089051">
        <ele>52.2778713</ele>
        <time>2019-09-10T15:44:49.600Z</time>
      </trkpt>
      <trkpt lat="10.1583749258038" lon="-75.6800466934136">
        <ele>52.2778713</ele>
        <time>2019-09-10T15:44:49.700Z</time>
      </trkpt>
      <trkpt lat="10.1583767414668" lon="-75.6800487371203">
        <ele>52.2778713</ele>
        <time>2019-09-10T15:44:49.800Z</time>
      </trkpt>
      <trkpt lat="10.1583785037949" lon="-75.6800507990695">
        <ele>52.2778713</ele>
        <time>2019-09-10T15:44:49.900Z</time>
      </trkpt>
      <trkpt lat="10.1583802790594" lon="-75.6800528262049">
        <ele>52.2778713</ele>
        <time>2019-09-10T15:44:50.000Z</time>
      </trkpt>
      <trkpt lat="10.1583820077374" lon="-75.6800548797987">
        <ele>52.2778713</ele>
        <time>2019-09-10T15:44:50.100Z</time>
      </trkpt>
      <trkpt lat="10.1583837442189" lon="-75.6800569059593">
        <ele>52.2778713</ele>
        <time>2019-09-10T15:44:50.200Z</time>
      </trkpt>
      <trkpt lat="10.1583854418261" lon="-75.6800589507801">
        <ele>52.2778713</ele>
        <time>2019-09-10T15:44:50.300Z</time>
      </trkpt>
      <trkpt lat="10.1583871563171" lon="-75.680060969978">
        <ele>52.2778713</ele>
        <time>2019-09-10T15:44:50.400Z</time>
      </trkpt>
      <trkpt lat="10.1583888384086" lon="-75.6800630085323">
        <ele>52.2778713</ele>
        <time>2019-09-10T15:44:50.500Z</time>
      </trkpt>
      <trkpt lat="10.158390534179" lon="-75.6800650294012">
        <ele>52.2778713</ele>
        <time>2019-09-10T15:44:50.600Z</time>
      </trkpt>
      <trkpt lat="10.1583922058875" lon="-75.6800670722725">
        <ele>52.2778713</ele>
        <time>2019-09-10T15:44:50.700Z</time>
      </trkpt>
      <trkpt lat="10.1583938702745" lon="-75.6800690728101">
        <ele>52.2778713</ele>
        <time>2019-09-10T15:44:50.800Z</time>
      </trkpt>
      <trkpt lat="10.1583955139737" lon="-75.6800710963249">
        <ele>52.2778713</ele>
        <time>2019-09-10T15:44:50.900Z</time>
      </trkpt>
      <trkpt lat="10.158397210161" lon="-75.6800731882139">
        <ele>52.2778713</ele>
        <time>2019-09-10T15:44:51.000Z</time>
      </trkpt>
      <trkpt lat="10.1583988807491" lon="-75.6800753039155">
        <ele>52.2778713</ele>
        <time>2019-09-10T15:44:51.100Z</time>
      </trkpt>
      <trkpt lat="10.1584005528875" lon="-75.6800774009569">
        <ele>52.2778713</ele>
        <time>2019-09-10T15:44:51.200Z</time>
      </trkpt>
      <trkpt lat="10.1584022068655" lon="-75.6800794932637">
        <ele>52.2778713</ele>
        <time>2019-09-10T15:44:51.300Z</time>
      </trkpt>
      <trkpt lat="10.1584038985974" lon="-75.6800816248404">
        <ele>52.2778713</ele>
        <time>2019-09-10T15:44:51.400Z</time>
      </trkpt>
      <trkpt lat="10.1584055704231" lon="-75.6800837546067">
        <ele>52.2778713</ele>
        <time>2019-09-10T15:44:51.500Z</time>
      </trkpt>
      <trkpt lat="10.1584072414672" lon="-75.6800858800562">
        <ele>52.2778713</ele>
        <time>2019-09-10T15:44:51.600Z</time>
      </trkpt>
      <trkpt lat="10.1584088897717" lon="-75.6800879967325">
        <ele>52.2778713</ele>
        <time>2019-09-10T15:44:51.700Z</time>
      </trkpt>
      <trkpt lat="10.1584105370601" lon="-75.6800900733035">
        <ele>52.2778713</ele>
        <time>2019-09-10T15:44:51.800Z</time>
      </trkpt>
      <trkpt lat="10.1584121738352" lon="-75.6800921568371">
        <ele>52.2778713</ele>
        <time>2019-09-10T15:44:51.900Z</time>
      </trkpt>
      <trkpt lat="10.1584138480189" lon="-75.6800942761594">
        <ele>52.2778713</ele>
        <time>2019-09-10T15:44:52.000Z</time>
      </trkpt>
      <trkpt lat="10.1584155049607" lon="-75.6800964056472">
        <ele>52.2778713</ele>
        <time>2019-09-10T15:44:52.100Z</time>
      </trkpt>
      <trkpt lat="10.1584171622737" lon="-75.6800985331855">
        <ele>52.2778713</ele>
        <time>2019-09-10T15:44:52.200Z</time>
      </trkpt>
      <trkpt lat="10.1584188077708" lon="-75.6801006584957">
        <ele>52.2778713</ele>
        <time>2019-09-10T15:44:52.300Z</time>
      </trkpt>
      <trkpt lat="10.1584204633512" lon="-75.6801027682093">
        <ele>52.2778713</ele>
        <time>2019-09-10T15:44:52.400Z</time>
      </trkpt>
      <trkpt lat="10.1584221053373" lon="-75.6801048786192">
        <ele>52.2778713</ele>
        <time>2019-09-10T15:44:52.500Z</time>
      </trkpt>
      <trkpt lat="10.1584237517593" lon="-75.6801069727363">
        <ele>52.2778713</ele>
        <time>2019-09-10T15:44:52.600Z</time>
      </trkpt>
      <trkpt lat="10.1584253923059" lon="-75.680109069917">
        <ele>52.2778713</ele>
        <time>2019-09-10T15:44:52.700Z</time>
      </trkpt>
      <trkpt lat="10.1584270704956" lon="-75.6801112324083">
        <ele>52.2778713</ele>
        <time>2019-09-10T15:44:52.800Z</time>
      </trkpt>
      <trkpt lat="10.158428740973" lon="-75.680113391836">
        <ele>52.2778713</ele>
        <time>2019-09-10T15:44:52.900Z</time>
      </trkpt>
      <trkpt lat="10.1584303922674" lon="-75.6801154999482">
        <ele>52.2778713</ele>
        <time>2019-09-10T15:44:53.000Z</time>
      </trkpt>
      <trkpt lat="10.1584320427149" lon="-75.6801176033257">
        <ele>52.3778713</ele>
        <time>2019-09-10T15:44:53.100Z</time>
      </trkpt>
      <trkpt lat="10.1584336933187" lon="-75.6801196891571">
        <ele>52.3778713</ele>
        <time>2019-09-10T15:44:53.200Z</time>
      </trkpt>
      <trkpt lat="10.1584353432387" lon="-75.680121779932">
        <ele>52.3778713</ele>
        <time>2019-09-10T15:44:53.300Z</time>
      </trkpt>
      <trkpt lat="10.1584370184125" lon="-75.680123856503">
        <ele>52.3778713</ele>
        <time>2019-09-10T15:44:53.400Z</time>
      </trkpt>
      <trkpt lat="10.1584386896129" lon="-75.6801259401759">
        <ele>52.3778713</ele>
        <time>2019-09-10T15:44:53.500Z</time>
      </trkpt>
      <trkpt lat="10.1584420037114" lon="-75.6801300989576">
        <ele>52.3778713</ele>
        <time>2019-09-10T15:44:53.700Z</time>
      </trkpt>
      <trkpt lat="10.1584436846499" lon="-75.6801321783833">
        <ele>52.3778713</ele>
        <time>2019-09-10T15:44:53.800Z</time>
      </trkpt>
      <trkpt lat="10.1584453638753" lon="-75.6801342622651">
        <ele>52.3778713</ele>
        <time>2019-09-10T15:44:53.900Z</time>
      </trkpt>
      <trkpt lat="10.1584470635474" lon="-75.6801363187833">
        <ele>52.3778713</ele>
        <time>2019-09-10T15:44:54.000Z</time>
      </trkpt>
      <trkpt lat="10.1584487544455" lon="-75.6801383794095">
        <ele>52.3778713</ele>
        <time>2019-09-10T15:44:54.100Z</time>
      </trkpt>
      <trkpt lat="10.1584504262127" lon="-75.6801404489481">
        <ele>52.3778713</ele>
        <time>2019-09-10T15:44:54.200Z</time>
      </trkpt>
      <trkpt lat="10.158452086268" lon="-75.6801425235695">
        <ele>52.3778713</ele>
        <time>2019-09-10T15:44:54.300Z</time>
      </trkpt>
      <trkpt lat="10.1584537559833" lon="-75.6801446147622">
        <ele>52.3778713</ele>
        <time>2019-09-10T15:44:54.400Z</time>
      </trkpt>
      <trkpt lat="10.158455425666" lon="-75.6801467115947">
        <ele>52.3778713</ele>
        <time>2019-09-10T15:44:54.500Z</time>
      </trkpt>
      <trkpt lat="10.1584570882292" lon="-75.6801488252075">
        <ele>52.3778713</ele>
        <time>2019-09-10T15:44:54.600Z</time>
      </trkpt>
      <trkpt lat="10.1584587552347" lon="-75.6801509361744">
        <ele>52.3778713</ele>
        <time>2019-09-10T15:44:54.700Z</time>
      </trkpt>
      <trkpt lat="10.1584604398144" lon="-75.6801530195688">
        <ele>52.3778713</ele>
        <time>2019-09-10T15:44:54.800Z</time>
      </trkpt>
      <trkpt lat="10.1584637900123" lon="-75.680157151544">
        <ele>52.3778713</ele>
        <time>2019-09-10T15:44:55.000Z</time>
      </trkpt>
      <trkpt lat="10.1584671158421" lon="-75.6801612985586">
        <ele>52.3778713</ele>
        <time>2019-09-10T15:44:55.200Z</time>
      </trkpt>
      <trkpt lat="10.1584687917324" lon="-75.6801633963659">
        <ele>52.3778713</ele>
        <time>2019-09-10T15:44:55.300Z</time>
      </trkpt>
      <trkpt lat="10.1584704857994" lon="-75.6801655025286">
        <ele>52.3778713</ele>
        <time>2019-09-10T15:44:55.400Z</time>
      </trkpt>
      <trkpt lat="10.158472182739" lon="-75.6801676008233">
        <ele>52.3778713</ele>
        <time>2019-09-10T15:44:55.500Z</time>
      </trkpt>
      <trkpt lat="10.1584755920754" lon="-75.6801718132182">
        <ele>52.3778713</ele>
        <time>2019-09-10T15:44:55.700Z</time>
      </trkpt>
      <trkpt lat="10.158477371398" lon="-75.6801739945785">
        <ele>52.3778713</ele>
        <time>2019-09-10T15:44:55.800Z</time>
      </trkpt>
      <trkpt lat="10.1584806556178" lon="-75.680178045159">
        <ele>52.3778713</ele>
        <time>2019-09-10T15:44:56.000Z</time>
      </trkpt>
      <trkpt lat="10.1584823369342" lon="-75.6801801282054">
        <ele>52.3778713</ele>
        <time>2019-09-10T15:44:56.100Z</time>
      </trkpt>
      <trkpt lat="10.158484062225" lon="-75.6801822221135">
        <ele>52.3778713</ele>
        <time>2019-09-10T15:44:56.200Z</time>
      </trkpt>
      <trkpt lat="10.1584857843924" lon="-75.6801843173446">
        <ele>52.3778713</ele>
        <time>2019-09-10T15:44:56.300Z</time>
      </trkpt>
      <trkpt lat="10.1584875089635" lon="-75.6801863943333">
        <ele>52.3778713</ele>
        <time>2019-09-10T15:44:56.400Z</time>
      </trkpt>
      <trkpt lat="10.1584892233958" lon="-75.6801884766137">
        <ele>52.3778713</ele>
        <time>2019-09-10T15:44:56.500Z</time>
      </trkpt>
      <trkpt lat="10.1584909342928" lon="-75.680190575744">
        <ele>52.3778713</ele>
        <time>2019-09-10T15:44:56.600Z</time>
      </trkpt>
      <trkpt lat="10.1584926451149" lon="-75.680192678843">
        <ele>52.3778713</ele>
        <time>2019-09-10T15:44:56.700Z</time>
      </trkpt>
      <trkpt lat="10.1584943561829" lon="-75.6801947526985">
        <ele>52.3778713</ele>
        <time>2019-09-10T15:44:56.800Z</time>
      </trkpt>
      <trkpt lat="10.1584960788324" lon="-75.6801968305923">
        <ele>52.3778713</ele>
        <time>2019-09-10T15:44:56.900Z</time>
      </trkpt>
      <trkpt lat="10.1584977950104" lon="-75.6801989121068">
        <ele>52.3778713</ele>
        <time>2019-09-10T15:44:57.000Z</time>
      </trkpt>
      <trkpt lat="10.158499519036" lon="-75.680201004901">
        <ele>52.3778713</ele>
        <time>2019-09-10T15:44:57.100Z</time>
      </trkpt>
      <trkpt lat="10.1585030123431" lon="-75.6802052805872">
        <ele>52.3778713</ele>
        <time>2019-09-10T15:44:57.300Z</time>
      </trkpt>
      <trkpt lat="10.1585047400912" lon="-75.6802073929467">
        <ele>52.3778713</ele>
        <time>2019-09-10T15:44:57.400Z</time>
      </trkpt>
      <trkpt lat="10.1585064631755" lon="-75.6802095031478">
        <ele>52.3778713</ele>
        <time>2019-09-10T15:44:57.500Z</time>
      </trkpt>
      <trkpt lat="10.1585081784441" lon="-75.6802116346548">
        <ele>52.3778713</ele>
        <time>2019-09-10T15:44:57.600Z</time>
      </trkpt>
      <trkpt lat="10.158509893531" lon="-75.6802137704091">
        <ele>52.3778713</ele>
        <time>2019-09-10T15:44:57.700Z</time>
      </trkpt>
      <trkpt lat="10.1585150502821" lon="-75.680220218056">
        <ele>52.3778713</ele>
        <time>2019-09-10T15:44:58.000Z</time>
      </trkpt>
      <trkpt lat="10.1585167803144" lon="-75.6802223647419">
        <ele>52.3778713</ele>
        <time>2019-09-10T15:44:58.100Z</time>
      </trkpt>
      <trkpt lat="10.1585184999076" lon="-75.6802244519658">
        <ele>52.3778713</ele>
        <time>2019-09-10T15:44:58.200Z</time>
      </trkpt>
      <trkpt lat="10.158521995105" lon="-75.6802285815736">
        <ele>52.3778713</ele>
        <time>2019-09-10T15:44:58.400Z</time>
      </trkpt>
      <trkpt lat="10.1585237649158" lon="-75.6802306499285">
        <ele>52.3778713</ele>
        <time>2019-09-10T15:44:58.500Z</time>
      </trkpt>
      <trkpt lat="10.1585255333612" lon="-75.6802327279616">
        <ele>52.3778713</ele>
        <time>2019-09-10T15:44:58.600Z</time>
      </trkpt>
      <trkpt lat="10.1585272933941" lon="-75.6802348079443">
        <ele>52.3778713</ele>
        <time>2019-09-10T15:44:58.700Z</time>
      </trkpt>
      <trkpt lat="10.1585290219337" lon="-75.6802368417639">
        <ele>52.3778713</ele>
        <time>2019-09-10T15:44:58.800Z</time>
      </trkpt>
      <trkpt lat="10.158532534375" lon="-75.6802409685866">
        <ele>52.3778713</ele>
        <time>2019-09-10T15:44:59.000Z</time>
      </trkpt>
      <trkpt lat="10.1585343319622" lon="-75.6802430735656">
        <ele>52.3778713</ele>
        <time>2019-09-10T15:44:59.100Z</time>
      </trkpt>
      <trkpt lat="10.1585361604654" lon="-75.6802451926789">
        <ele>52.3778713</ele>
        <time>2019-09-10T15:44:59.200Z</time>
      </trkpt>
      <trkpt lat="10.1585397806984" lon="-75.6802494067448">
        <ele>52.3778713</ele>
        <time>2019-09-10T15:44:59.400Z</time>
      </trkpt>
      <trkpt lat="10.1585415749049" lon="-75.6802515147178">
        <ele>52.3778713</ele>
        <time>2019-09-10T15:44:59.500Z</time>
      </trkpt>
      <trkpt lat="10.1585433383176" lon="-75.6802536439271">
        <ele>52.3778713</ele>
        <time>2019-09-10T15:44:59.600Z</time>
      </trkpt>
      <trkpt lat="10.1585450977488" lon="-75.6802557598376">
        <ele>52.3778713</ele>
        <time>2019-09-10T15:44:59.700Z</time>
      </trkpt>
      <trkpt lat="10.1585468360313" lon="-75.6802578591767">
        <ele>52.3778713</ele>
        <time>2019-09-10T15:44:59.800Z</time>
      </trkpt>
      <trkpt lat="10.1585485745321" lon="-75.6802599555915">
        <ele>52.3778713</ele>
        <time>2019-09-10T15:44:59.900Z</time>
      </trkpt>
      <trkpt lat="10.1585520487783" lon="-75.6802641812156">
        <ele>52.2778713</ele>
        <time>2019-09-10T15:45:00.100Z</time>
      </trkpt>
      <trkpt lat="10.1585537310619" lon="-75.6802662687181">
        <ele>52.3778713</ele>
        <time>2019-09-10T15:45:00.200Z</time>
      </trkpt>
      <trkpt lat="10.1585554172733" lon="-75.6802683552458">
        <ele>52.2778713</ele>
        <time>2019-09-10T15:45:00.300Z</time>
      </trkpt>
      <trkpt lat="10.1585570679455" lon="-75.6802704079345">
        <ele>52.3778713</ele>
        <time>2019-09-10T15:45:00.400Z</time>
      </trkpt>
      <trkpt lat="10.1585587228974" lon="-75.6802724719028">
        <ele>52.3778713</ele>
        <time>2019-09-10T15:45:00.500Z</time>
      </trkpt>
      <trkpt lat="10.158562086126" lon="-75.6802766465596">
        <ele>52.2778713</ele>
        <time>2019-09-10T15:45:00.700Z</time>
      </trkpt>
      <trkpt lat="10.158563773308" lon="-75.6802787140093">
        <ele>52.3778713</ele>
        <time>2019-09-10T15:45:00.800Z</time>
      </trkpt>
      <trkpt lat="10.1585654826987" lon="-75.6802807852886">
        <ele>52.3778713</ele>
        <time>2019-09-10T15:45:00.900Z</time>
      </trkpt>
      <trkpt lat="10.1585672195091" lon="-75.6802828510672">
        <ele>52.2778713</ele>
        <time>2019-09-10T15:45:01.000Z</time>
      </trkpt>
      <trkpt lat="10.1585689590749" lon="-75.6802849369683">
        <ele>52.2778713</ele>
        <time>2019-09-10T15:45:01.100Z</time>
      </trkpt>
      <trkpt lat="10.1585707117333" lon="-75.6802870320601">
        <ele>52.2778713</ele>
        <time>2019-09-10T15:45:01.200Z</time>
      </trkpt>
      <trkpt lat="10.1585742232415" lon="-75.680291258102">
        <ele>52.3778713</ele>
        <time>2019-09-10T15:45:01.400Z</time>
      </trkpt>
      <trkpt lat="10.1585759542189" lon="-75.680293371854">
        <ele>52.3778713</ele>
        <time>2019-09-10T15:45:01.500Z</time>
      </trkpt>
      <trkpt lat="10.1585794047484" lon="-75.6802975670509">
        <ele>52.2778713</ele>
        <time>2019-09-10T15:45:01.700Z</time>
      </trkpt>
      <trkpt lat="10.1585811931577" lon="-75.6802997084451">
        <ele>52.2778713</ele>
        <time>2019-09-10T15:45:01.800Z</time>
      </trkpt>
      <trkpt lat="10.158584663678" lon="-75.6803039294041">
        <ele>52.2778713</ele>
        <time>2019-09-10T15:45:02.000Z</time>
      </trkpt>
      <trkpt lat="10.1585880320819" lon="-75.680308048707">
        <ele>52.2778713</ele>
        <time>2019-09-10T15:45:02.200Z</time>
      </trkpt>
      <trkpt lat="10.158589739805" lon="-75.6803100879576">
        <ele>52.2778713</ele>
        <time>2019-09-10T15:45:02.300Z</time>
      </trkpt>
      <trkpt lat="10.1585914885324" lon="-75.6803121380701">
        <ele>52.3778713</ele>
        <time>2019-09-10T15:45:02.400Z</time>
      </trkpt>
      <trkpt lat="10.158593248242" lon="-75.6803141943794">
        <ele>52.3778713</ele>
        <time>2019-09-10T15:45:02.500Z</time>
      </trkpt>
      <trkpt lat="10.1585950129998" lon="-75.6803162369721">
        <ele>52.3778713</ele>
        <time>2019-09-10T15:45:02.600Z</time>
      </trkpt>
      <trkpt lat="10.1585967780898" lon="-75.6803182792167">
        <ele>52.3778713</ele>
        <time>2019-09-10T15:45:02.700Z</time>
      </trkpt>
      <trkpt lat="10.1585985263742" lon="-75.6803203148467">
        <ele>52.3778713</ele>
        <time>2019-09-10T15:45:02.800Z</time>
      </trkpt>
      <trkpt lat="10.158601995429" lon="-75.6803243945315">
        <ele>52.3778713</ele>
        <time>2019-09-10T15:45:03.000Z</time>
      </trkpt>
      <trkpt lat="10.1586037181012" lon="-75.6803264339214">
        <ele>52.3778713</ele>
        <time>2019-09-10T15:45:03.100Z</time>
      </trkpt>
      <trkpt lat="10.1586071450379" lon="-75.680330519246">
        <ele>52.3778713</ele>
        <time>2019-09-10T15:45:03.300Z</time>
      </trkpt>
      <trkpt lat="10.1586088069366" lon="-75.6803325655986">
        <ele>52.3778713</ele>
        <time>2019-09-10T15:45:03.400Z</time>
      </trkpt>
      <trkpt lat="10.1586121943737" lon="-75.6803366637348">
        <ele>52.3778713</ele>
        <time>2019-09-10T15:45:03.600Z</time>
      </trkpt>
      <trkpt lat="10.1586139164207" lon="-75.6803387222722">
        <ele>52.3778713</ele>
        <time>2019-09-10T15:45:03.700Z</time>
      </trkpt>
      <trkpt lat="10.1586156445515" lon="-75.6803407886079">
        <ele>52.3778713</ele>
        <time>2019-09-10T15:45:03.800Z</time>
      </trkpt>
      <trkpt lat="10.1586191356293" lon="-75.6803449925082">
        <ele>52.3778713</ele>
        <time>2019-09-10T15:45:04.000Z</time>
      </trkpt>
      <trkpt lat="10.158620893248" lon="-75.6803471204642">
        <ele>52.3778713</ele>
        <time>2019-09-10T15:45:04.100Z</time>
      </trkpt>
      <trkpt lat="10.1586226551592" lon="-75.68034923352">
        <ele>52.3778713</ele>
        <time>2019-09-10T15:45:04.200Z</time>
      </trkpt>
      <trkpt lat="10.1586262298674" lon="-75.6803534725126">
        <ele>52.2778713</ele>
        <time>2019-09-10T15:45:04.400Z</time>
      </trkpt>
      <trkpt lat="10.1586280353753" lon="-75.6803555987975">
        <ele>52.2778713</ele>
        <time>2019-09-10T15:45:04.500Z</time>
      </trkpt>
      <trkpt lat="10.1586298013512" lon="-75.6803576605378">
        <ele>52.3778713</ele>
        <time>2019-09-10T15:45:04.600Z</time>
      </trkpt>
      <trkpt lat="10.1586315583381" lon="-75.6803597182397">
        <ele>52.3778713</ele>
        <time>2019-09-10T15:45:04.700Z</time>
      </trkpt>
      <trkpt lat="10.1586333017502" lon="-75.680361749692">
        <ele>52.3778713</ele>
        <time>2019-09-10T15:45:04.800Z</time>
      </trkpt>
      <trkpt lat="10.1586367762244" lon="-75.6803658631462">
        <ele>52.2778713</ele>
        <time>2019-09-10T15:45:05.000Z</time>
      </trkpt>
      <trkpt lat="10.1586385130967" lon="-75.6803679365839">
        <ele>52.2778713</ele>
        <time>2019-09-10T15:45:05.100Z</time>
      </trkpt>
      <trkpt lat="10.1586419731494" lon="-75.6803721289957">
        <ele>52.2778713</ele>
        <time>2019-09-10T15:45:05.300Z</time>
      </trkpt>
      <trkpt lat="10.1586454315345" lon="-75.6803763504421">
        <ele>52.2778713</ele>
        <time>2019-09-10T15:45:05.500Z</time>
      </trkpt>
      <trkpt lat="10.158647162375" lon="-75.6803784686503">
        <ele>52.2778713</ele>
        <time>2019-09-10T15:45:05.600Z</time>
      </trkpt>
      <trkpt lat="10.1586506734566" lon="-75.6803827358421">
        <ele>52.2778713</ele>
        <time>2019-09-10T15:45:05.800Z</time>
      </trkpt>
      <trkpt lat="10.1586541831834" lon="-75.6803869723977">
        <ele>52.2778713</ele>
        <time>2019-09-10T15:45:06.000Z</time>
      </trkpt>
      <trkpt lat="10.1586559182318" lon="-75.6803890617801">
        <ele>52.3778713</ele>
        <time>2019-09-10T15:45:06.100Z</time>
      </trkpt>
      <trkpt lat="10.1586576770686" lon="-75.6803911428072">
        <ele>52.3778713</ele>
        <time>2019-09-10T15:45:06.200Z</time>
      </trkpt>
      <trkpt lat="10.1586611793435" lon="-75.6803953414855">
        <ele>52.2778713</ele>
        <time>2019-09-10T15:45:06.400Z</time>
      </trkpt>
      <trkpt lat="10.1586629193946" lon="-75.6803974493888">
        <ele>52.3778713</ele>
        <time>2019-09-10T15:45:06.500Z</time>
      </trkpt>
      <trkpt lat="10.1586663820267" lon="-75.6804015909029">
        <ele>52.3778713</ele>
        <time>2019-09-10T15:45:06.700Z</time>
      </trkpt>
      <trkpt lat="10.1586680745532" lon="-75.6804036325904">
        <ele>52.3778713</ele>
        <time>2019-09-10T15:45:06.800Z</time>
      </trkpt>
      <trkpt lat="10.1586697744012" lon="-75.6804056801267">
        <ele>52.3778713</ele>
        <time>2019-09-10T15:45:06.900Z</time>
      </trkpt>
      <trkpt lat="10.1586731920101" lon="-75.6804098180897">
        <ele>52.3778713</ele>
        <time>2019-09-10T15:45:07.100Z</time>
      </trkpt>
      <trkpt lat="10.1586749159461" lon="-75.6804118782982">
        <ele>52.3778713</ele>
        <time>2019-09-10T15:45:07.200Z</time>
      </trkpt>
      <trkpt lat="10.1586766430608" lon="-75.6804139402474">
        <ele>52.3778713</ele>
        <time>2019-09-10T15:45:07.300Z</time>
      </trkpt>
      <trkpt lat="10.1586783835156" lon="-75.680416023224">
        <ele>52.3778713</ele>
        <time>2019-09-10T15:45:07.400Z</time>
      </trkpt>
      <trkpt lat="10.1586818100224" lon="-75.6804201755304">
        <ele>52.3778713</ele>
        <time>2019-09-10T15:45:07.600Z</time>
      </trkpt>
      <trkpt lat="10.1586834973639" lon="-75.6804222438853">
        <ele>52.3778713</ele>
        <time>2019-09-10T15:45:07.700Z</time>
      </trkpt>
      <trkpt lat="10.1586851946716" lon="-75.6804242981058">
        <ele>52.3778713</ele>
        <time>2019-09-10T15:45:07.800Z</time>
      </trkpt>
      <trkpt lat="10.1586869046159" lon="-75.6804263558773">
        <ele>52.3778713</ele>
        <time>2019-09-10T15:45:07.900Z</time>
      </trkpt>
      <trkpt lat="10.1586886582026" lon="-75.6804284685153">
        <ele>52.3778713</ele>
        <time>2019-09-10T15:45:08.000Z</time>
      </trkpt>
      <trkpt lat="10.1586921444276" lon="-75.6804327162809">
        <ele>52.3778713</ele>
        <time>2019-09-10T15:45:08.200Z</time>
      </trkpt>
      <trkpt lat="10.158693875672" lon="-75.680434833027">
        <ele>52.3778713</ele>
        <time>2019-09-10T15:45:08.300Z</time>
      </trkpt>
      <trkpt lat="10.1586974155184" lon="-75.6804391281393">
        <ele>52.3778713</ele>
        <time>2019-09-10T15:45:08.500Z</time>
      </trkpt>
      <trkpt lat="10.1586991525471" lon="-75.6804411909936">
        <ele>52.3778713</ele>
        <time>2019-09-10T15:45:08.600Z</time>
      </trkpt>
      <trkpt lat="10.1587008872699" lon="-75.6804432481385">
        <ele>52.3778713</ele>
        <time>2019-09-10T15:45:08.700Z</time>
      </trkpt>
      <trkpt lat="10.1587026194262" lon="-75.6804453111321">
        <ele>52.3778713</ele>
        <time>2019-09-10T15:45:08.800Z</time>
      </trkpt>
      <trkpt lat="10.1587043566502" lon="-75.6804473851268">
        <ele>52.3778713</ele>
        <time>2019-09-10T15:45:08.900Z</time>
      </trkpt>
      <trkpt lat="10.1587077774509" lon="-75.680451499138">
        <ele>52.3778713</ele>
        <time>2019-09-10T15:45:09.100Z</time>
      </trkpt>
      <trkpt lat="10.1587112701767" lon="-75.6804557368077">
        <ele>52.3778713</ele>
        <time>2019-09-10T15:45:09.300Z</time>
      </trkpt>
      <trkpt lat="10.1587130186435" lon="-75.6804578711694">
        <ele>52.3778713</ele>
        <time>2019-09-10T15:45:09.400Z</time>
      </trkpt>
      <trkpt lat="10.1587147651432" lon="-75.6804599984292">
        <ele>52.3778713</ele>
        <time>2019-09-10T15:45:09.500Z</time>
      </trkpt>
      <trkpt lat="10.1587165108221" lon="-75.6804621235305">
        <ele>52.3778713</ele>
        <time>2019-09-10T15:45:09.600Z</time>
      </trkpt>
      <trkpt lat="10.1587182581034" lon="-75.6804642402069">
        <ele>52.3778713</ele>
        <time>2019-09-10T15:45:09.700Z</time>
      </trkpt>
      <trkpt lat="10.1587200076906" lon="-75.6804663759612">
        <ele>52.3778713</ele>
        <time>2019-09-10T15:45:09.800Z</time>
      </trkpt>
      <trkpt lat="10.1587235138478" lon="-75.6804705787475">
        <ele>52.3778713</ele>
        <time>2019-09-10T15:45:10.000Z</time>
      </trkpt>
      <trkpt lat="10.1587252656367" lon="-75.6804726558755">
        <ele>52.3778713</ele>
        <time>2019-09-10T15:45:10.100Z</time>
      </trkpt>
      <trkpt lat="10.1587270073422" lon="-75.680474734953">
        <ele>52.3778713</ele>
        <time>2019-09-10T15:45:10.200Z</time>
      </trkpt>
      <trkpt lat="10.1587287514448" lon="-75.6804768230821">
        <ele>52.3778713</ele>
        <time>2019-09-10T15:45:10.300Z</time>
      </trkpt>
      <trkpt lat="10.1587321732095" lon="-75.6804809548483">
        <ele>52.3778713</ele>
        <time>2019-09-10T15:45:10.500Z</time>
      </trkpt>
      <trkpt lat="10.158733887948" lon="-75.6804830321852">
        <ele>52.3778713</ele>
        <time>2019-09-10T15:45:10.600Z</time>
      </trkpt>
      <trkpt lat="10.1587356194008" lon="-75.6804851171114">
        <ele>52.3778713</ele>
        <time>2019-09-10T15:45:10.700Z</time>
      </trkpt>
      <trkpt lat="10.1587373503326" lon="-75.6804872062849">
        <ele>52.3778713</ele>
        <time>2019-09-10T15:45:10.800Z</time>
      </trkpt>
      <trkpt lat="10.1587390893023" lon="-75.680489299079">
        <ele>52.3778713</ele>
        <time>2019-09-10T15:45:10.900Z</time>
      </trkpt>
      <trkpt lat="10.1587426111186" lon="-75.680493565853">
        <ele>52.3778713</ele>
        <time>2019-09-10T15:45:11.100Z</time>
      </trkpt>
      <trkpt lat="10.1587443356799" lon="-75.6804956947142">
        <ele>52.3778713</ele>
        <time>2019-09-10T15:45:11.200Z</time>
      </trkpt>
      <trkpt lat="10.1587460607623" lon="-75.6804978157771">
        <ele>52.3778713</ele>
        <time>2019-09-10T15:45:11.300Z</time>
      </trkpt>
      <trkpt lat="10.1587495034492" lon="-75.6805019829141">
        <ele>52.3778713</ele>
        <time>2019-09-10T15:45:11.500Z</time>
      </trkpt>
      <trkpt lat="10.1587529656254" lon="-75.6805062125766">
        <ele>52.3778713</ele>
        <time>2019-09-10T15:45:11.700Z</time>
      </trkpt>
      <trkpt lat="10.1587546732508" lon="-75.6805083250754">
        <ele>52.3778713</ele>
        <time>2019-09-10T15:45:11.800Z</time>
      </trkpt>
      <trkpt lat="10.1587581657551" lon="-75.6805125708218">
        <ele>52.3778713</ele>
        <time>2019-09-10T15:45:12.000Z</time>
      </trkpt>
      <trkpt lat="10.1587599477419" lon="-75.6805147063673">
        <ele>52.3778713</ele>
        <time>2019-09-10T15:45:12.100Z</time>
      </trkpt>
      <trkpt lat="10.1587634935289" lon="-75.6805189583802">
        <ele>52.2778713</ele>
        <time>2019-09-10T15:45:12.300Z</time>
      </trkpt>
      <trkpt lat="10.1587669948919" lon="-75.6805231901316">
        <ele>52.3778713</ele>
        <time>2019-09-10T15:45:12.500Z</time>
      </trkpt>
      <trkpt lat="10.1587686987915" lon="-75.6805252631515">
        <ele>52.3778713</ele>
        <time>2019-09-10T15:45:12.600Z</time>
      </trkpt>
      <trkpt lat="10.1587704087358" lon="-75.6805273404883">
        <ele>52.3778713</ele>
        <time>2019-09-10T15:45:12.700Z</time>
      </trkpt>
      <trkpt lat="10.1587721186802" lon="-75.6805294088432">
        <ele>52.3778713</ele>
        <time>2019-09-10T15:45:12.800Z</time>
      </trkpt>
      <trkpt lat="10.1587755932065" lon="-75.6805336041794">
        <ele>52.3778713</ele>
        <time>2019-09-10T15:45:13.000Z</time>
      </trkpt>
      <trkpt lat="10.1587773479396" lon="-75.6805357232231">
        <ele>52.2778713</ele>
        <time>2019-09-10T15:45:13.100Z</time>
      </trkpt>
      <trkpt lat="10.158780785676" lon="-75.6805399526071">
        <ele>52.2778713</ele>
        <time>2019-09-10T15:45:13.300Z</time>
      </trkpt>
      <trkpt lat="10.1587825027334" lon="-75.6805420934442">
        <ele>52.2778713</ele>
        <time>2019-09-10T15:45:13.400Z</time>
      </trkpt>
      <trkpt lat="10.1587842261222" lon="-75.6805442290593">
        <ele>52.2778713</ele>
        <time>2019-09-10T15:45:13.500Z</time>
      </trkpt>
      <trkpt lat="10.1587859548784" lon="-75.6805463565975">
        <ele>52.2778713</ele>
        <time>2019-09-10T15:45:13.600Z</time>
      </trkpt>
      <trkpt lat="10.1587876887413" lon="-75.6805484759198">
        <ele>52.2778713</ele>
        <time>2019-09-10T15:45:13.700Z</time>
      </trkpt>
      <trkpt lat="10.1587893929536" lon="-75.6805505831268">
        <ele>52.2778713</ele>
        <time>2019-09-10T15:45:13.800Z</time>
      </trkpt>
      <trkpt lat="10.1587928172456" lon="-75.6805547834761">
        <ele>52.2778713</ele>
        <time>2019-09-10T15:45:14.000Z</time>
      </trkpt>
      <trkpt lat="10.1587945435786" lon="-75.6805568787769">
        <ele>52.2778713</ele>
        <time>2019-09-10T15:45:14.100Z</time>
      </trkpt>
      <trkpt lat="10.1587962461754" lon="-75.6805590004664">
        <ele>52.2778713</ele>
        <time>2019-09-10T15:45:14.200Z</time>
      </trkpt>
      <trkpt lat="10.1587979578915" lon="-75.6805611194405">
        <ele>52.2778713</ele>
        <time>2019-09-10T15:45:14.300Z</time>
      </trkpt>
      <trkpt lat="10.1587996452201" lon="-75.6805632315215">
        <ele>52.2778713</ele>
        <time>2019-09-10T15:45:14.400Z</time>
      </trkpt>
      <trkpt lat="10.1588013456283" lon="-75.6805653393552">
        <ele>52.3778713</ele>
        <time>2019-09-10T15:45:14.500Z</time>
      </trkpt>
      <trkpt lat="10.158803056693" lon="-75.6805674430808">
        <ele>52.3778713</ele>
        <time>2019-09-10T15:45:14.600Z</time>
      </trkpt>
      <trkpt lat="10.1588047838337" lon="-75.6805695437429">
        <ele>52.3778713</ele>
        <time>2019-09-10T15:45:14.700Z</time>
      </trkpt>
      <trkpt lat="10.1588065198332" lon="-75.6805716434998">
        <ele>52.3778713</ele>
        <time>2019-09-10T15:45:14.800Z</time>
      </trkpt>
      <trkpt lat="10.1588099322181" lon="-75.6805758155107">
        <ele>52.3778713</ele>
        <time>2019-09-10T15:45:15.000Z</time>
      </trkpt>
      <trkpt lat="10.1588116164981" lon="-75.6805778877648">
        <ele>52.3778713</ele>
        <time>2019-09-10T15:45:15.100Z</time>
      </trkpt>
      <trkpt lat="10.1588133081258" lon="-75.6805799639876">
        <ele>52.3778713</ele>
        <time>2019-09-10T15:45:15.200Z</time>
      </trkpt>
      <trkpt lat="10.1588150122859" lon="-75.6805820526737">
        <ele>52.3778713</ele>
        <time>2019-09-10T15:45:15.300Z</time>
      </trkpt>
      <trkpt lat="10.1588167257738" lon="-75.6805841811171">
        <ele>52.3778713</ele>
        <time>2019-09-10T15:45:15.400Z</time>
      </trkpt>
      <trkpt lat="10.1588184478598" lon="-75.6805863110227">
        <ele>52.3778713</ele>
        <time>2019-09-10T15:45:15.500Z</time>
      </trkpt>
      <trkpt lat="10.1588201556416" lon="-75.6805884370988">
        <ele>52.3778713</ele>
        <time>2019-09-10T15:45:15.600Z</time>
      </trkpt>
      <trkpt lat="10.1588218672014" lon="-75.680590557744">
        <ele>52.3778713</ele>
        <time>2019-09-10T15:45:15.700Z</time>
      </trkpt>
      <trkpt lat="10.1588236242012" lon="-75.680592702341">
        <ele>52.3778713</ele>
        <time>2019-09-10T15:45:15.800Z</time>
      </trkpt>
      <trkpt lat="10.1588253890698" lon="-75.6805948388612">
        <ele>52.2778713</ele>
        <time>2019-09-10T15:45:15.900Z</time>
      </trkpt>
      <trkpt lat="10.1588271299676" lon="-75.6805969639625">
        <ele>52.2778713</ele>
        <time>2019-09-10T15:45:16.000Z</time>
      </trkpt>
      <trkpt lat="10.1588306418829" lon="-75.6806012133993">
        <ele>52.2778713</ele>
        <time>2019-09-10T15:45:16.200Z</time>
      </trkpt>
      <trkpt lat="10.1588341951998" lon="-75.6806054454987">
        <ele>52.2778713</ele>
        <time>2019-09-10T15:45:16.400Z</time>
      </trkpt>
      <trkpt lat="10.1588359611366" lon="-75.680607542749">
        <ele>52.2778713</ele>
        <time>2019-09-10T15:45:16.500Z</time>
      </trkpt>
      <trkpt lat="10.1588376590956" lon="-75.680609559301">
        <ele>52.2778713</ele>
        <time>2019-09-10T15:45:16.600Z</time>
      </trkpt>
      <trkpt lat="10.1588393546576" lon="-75.6806115701436">
        <ele>52.2778713</ele>
        <time>2019-09-10T15:45:16.700Z</time>
      </trkpt>
      <trkpt lat="10.1588411000369" lon="-75.680613618585">
        <ele>52.2778713</ele>
        <time>2019-09-10T15:45:16.800Z</time>
      </trkpt>
      <trkpt lat="10.1588446511391" lon="-75.6806177873235">
        <ele>52.2778713</ele>
        <time>2019-09-10T15:45:17.000Z</time>
      </trkpt>
      <trkpt lat="10.1588464245798" lon="-75.6806198819279">
        <ele>52.2778713</ele>
        <time>2019-09-10T15:45:17.100Z</time>
      </trkpt>
      <trkpt lat="10.1588500013463" lon="-75.6806240255308">
        <ele>52.2778713</ele>
        <time>2019-09-10T15:45:17.300Z</time>
      </trkpt>
      <trkpt lat="10.1588517647036" lon="-75.680626122433">
        <ele>52.2778713</ele>
        <time>2019-09-10T15:45:17.400Z</time>
      </trkpt>
      <trkpt lat="10.1588535142257" lon="-75.6806282134168">
        <ele>52.2778713</ele>
        <time>2019-09-10T15:45:17.500Z</time>
      </trkpt>
      <trkpt lat="10.1588552281043" lon="-75.6806302562881">
        <ele>52.2778713</ele>
        <time>2019-09-10T15:45:17.600Z</time>
      </trkpt>
      <trkpt lat="10.1588569507897" lon="-75.6806323064702">
        <ele>52.2778713</ele>
        <time>2019-09-10T15:45:17.700Z</time>
      </trkpt>
      <trkpt lat="10.1588586707131" lon="-75.6806343893772">
        <ele>52.2778713</ele>
        <time>2019-09-10T15:45:17.800Z</time>
      </trkpt>
      <trkpt lat="10.1588604037163" lon="-75.6806364916407">
        <ele>52.2778713</ele>
        <time>2019-09-10T15:45:17.900Z</time>
      </trkpt>
      <trkpt lat="10.1588621284078" lon="-75.6806386211285">
        <ele>52.2778713</ele>
        <time>2019-09-10T15:45:18.000Z</time>
      </trkpt>
      <trkpt lat="10.1588638555485" lon="-75.6806407597376">
        <ele>52.2778713</ele>
        <time>2019-09-10T15:45:18.100Z</time>
      </trkpt>
      <trkpt lat="10.1588655743256" lon="-75.6806428975111">
        <ele>52.2778713</ele>
        <time>2019-09-10T15:45:18.200Z</time>
      </trkpt>
      <trkpt lat="10.1588672896894" lon="-75.6806450288789">
        <ele>52.2778713</ele>
        <time>2019-09-10T15:45:18.300Z</time>
      </trkpt>
      <trkpt lat="10.1588689996598" lon="-75.6806471390103">
        <ele>52.2778713</ele>
        <time>2019-09-10T15:45:18.400Z</time>
      </trkpt>
      <trkpt lat="10.1588707065557" lon="-75.6806492489328">
        <ele>52.2778713</ele>
        <time>2019-09-10T15:45:18.500Z</time>
      </trkpt>
      <trkpt lat="10.1588723739261" lon="-75.6806513455565">
        <ele>52.2778713</ele>
        <time>2019-09-10T15:45:18.600Z</time>
      </trkpt>
      <trkpt lat="10.1588740452568" lon="-75.6806534466363">
        <ele>52.2778713</ele>
        <time>2019-09-10T15:45:18.700Z</time>
      </trkpt>
      <trkpt lat="10.1588757110377" lon="-75.6806555414496">
        <ele>52.2778713</ele>
        <time>2019-09-10T15:45:18.800Z</time>
      </trkpt>
      <trkpt lat="10.1588773836451" lon="-75.6806576449664">
        <ele>52.2778713</ele>
        <time>2019-09-10T15:45:18.900Z</time>
      </trkpt>
      <trkpt lat="10.1588790553406" lon="-75.6806597232084">
        <ele>52.2778713</ele>
        <time>2019-09-10T15:45:19.000Z</time>
      </trkpt>
      <trkpt lat="10.1588807316217" lon="-75.6806617990134">
        <ele>52.2778713</ele>
        <time>2019-09-10T15:45:19.100Z</time>
      </trkpt>
      <trkpt lat="10.1588840704791" lon="-75.6806658696467">
        <ele>52.2778713</ele>
        <time>2019-09-10T15:45:19.300Z</time>
      </trkpt>
      <trkpt lat="10.1588857348791" lon="-75.6806679292982">
        <ele>52.2778713</ele>
        <time>2019-09-10T15:45:19.400Z</time>
      </trkpt>
      <trkpt lat="10.1588873923485" lon="-75.6806700067742">
        <ele>52.2778713</ele>
        <time>2019-09-10T15:45:19.500Z</time>
      </trkpt>
      <trkpt lat="10.1588907535351" lon="-75.6806741443892">
        <ele>52.2778713</ele>
        <time>2019-09-10T15:45:19.700Z</time>
      </trkpt>
      <trkpt lat="10.1588924859129" lon="-75.6806762148329">
        <ele>52.2778713</ele>
        <time>2019-09-10T15:45:19.800Z</time>
      </trkpt>
      <trkpt lat="10.1588942374152" lon="-75.6806782847196">
        <ele>52.1778713</ele>
        <time>2019-09-10T15:45:19.900Z</time>
      </trkpt>
      <trkpt lat="10.1588960146338" lon="-75.6806803718043">
        <ele>52.2778713</ele>
        <time>2019-09-10T15:45:20.000Z</time>
      </trkpt>
      <trkpt lat="10.1588978087622" lon="-75.6806824675228">
        <ele>52.2778713</ele>
        <time>2019-09-10T15:45:20.100Z</time>
      </trkpt>
      <trkpt lat="10.1588996196961" lon="-75.6806845472966">
        <ele>52.2778713</ele>
        <time>2019-09-10T15:45:20.200Z</time>
      </trkpt>
      <trkpt lat="10.1589014324018" lon="-75.6806866318051">
        <ele>52.2778713</ele>
        <time>2019-09-10T15:45:20.300Z</time>
      </trkpt>
      <trkpt lat="10.1589032514129" lon="-75.6806887259918">
        <ele>52.2778713</ele>
        <time>2019-09-10T15:45:20.400Z</time>
      </trkpt>
      <trkpt lat="10.1589068703626" lon="-75.68069290225">
        <ele>52.2778713</ele>
        <time>2019-09-10T15:45:20.600Z</time>
      </trkpt>
      <trkpt lat="10.1589086779615" lon="-75.6806949907968">
        <ele>52.2778713</ele>
        <time>2019-09-10T15:45:20.700Z</time>
      </trkpt>
      <trkpt lat="10.1589104749038" lon="-75.6806970617976">
        <ele>52.2778713</ele>
        <time>2019-09-10T15:45:20.800Z</time>
      </trkpt>
      <trkpt lat="10.1589122744517" lon="-75.6806991407358">
        <ele>52.2778713</ele>
        <time>2019-09-10T15:45:20.900Z</time>
      </trkpt>
      <trkpt lat="10.1589140552659" lon="-75.680701235201">
        <ele>52.2778713</ele>
        <time>2019-09-10T15:45:21.000Z</time>
      </trkpt>
      <trkpt lat="10.1589158323282" lon="-75.6807033398319">
        <ele>52.2778713</ele>
        <time>2019-09-10T15:45:21.100Z</time>
      </trkpt>
      <trkpt lat="10.1589175873219" lon="-75.6807054581097">
        <ele>52.2778713</ele>
        <time>2019-09-10T15:45:21.200Z</time>
      </trkpt>
      <trkpt lat="10.1589193483342" lon="-75.6807075794511">
        <ele>52.2778713</ele>
        <time>2019-09-10T15:45:21.300Z</time>
      </trkpt>
      <trkpt lat="10.1589210709935" lon="-75.6807097099137">
        <ele>52.2778713</ele>
        <time>2019-09-10T15:45:21.400Z</time>
      </trkpt>
      <trkpt lat="10.1589227862792" lon="-75.6807118639453">
        <ele>52.2778713</ele>
        <time>2019-09-10T15:45:21.500Z</time>
      </trkpt>
      <trkpt lat="10.1589244612836" lon="-75.6807140628866">
        <ele>52.2778713</ele>
        <time>2019-09-10T15:45:21.600Z</time>
      </trkpt>
      <trkpt lat="10.1589261278202" lon="-75.6807162554221">
        <ele>52.2778713</ele>
        <time>2019-09-10T15:45:21.700Z</time>
      </trkpt>
      <trkpt lat="10.1589277610844" lon="-75.680718422474">
        <ele>52.2778713</ele>
        <time>2019-09-10T15:45:21.800Z</time>
      </trkpt>
      <trkpt lat="10.1589294144631" lon="-75.6807205712487">
        <ele>52.2778713</ele>
        <time>2019-09-10T15:45:21.900Z</time>
      </trkpt>
      <trkpt lat="10.1589310586965" lon="-75.6807227081867">
        <ele>52.3778713</ele>
        <time>2019-09-10T15:45:22.000Z</time>
      </trkpt>
      <trkpt lat="10.1589327112154" lon="-75.6807248461343">
        <ele>52.3778713</ele>
        <time>2019-09-10T15:45:22.100Z</time>
      </trkpt>
      <trkpt lat="10.1589343358814" lon="-75.6807269828982">
        <ele>52.3778713</ele>
        <time>2019-09-10T15:45:22.200Z</time>
      </trkpt>
      <trkpt lat="10.158935982095" lon="-75.6807291199406">
        <ele>52.3778713</ele>
        <time>2019-09-10T15:45:22.300Z</time>
      </trkpt>
      <trkpt lat="10.1589376462084" lon="-75.6807312462604">
        <ele>52.3778713</ele>
        <time>2019-09-10T15:45:22.400Z</time>
      </trkpt>
      <trkpt lat="10.1589393332243" lon="-75.6807333587939">
        <ele>52.3778713</ele>
        <time>2019-09-10T15:45:22.500Z</time>
      </trkpt>
      <trkpt lat="10.158941016853" lon="-75.6807354684031">
        <ele>52.3778713</ele>
        <time>2019-09-10T15:45:22.600Z</time>
      </trkpt>
      <trkpt lat="10.1589427269276" lon="-75.6807375672549">
        <ele>52.3778713</ele>
        <time>2019-09-10T15:45:22.700Z</time>
      </trkpt>
      <trkpt lat="10.1589444227501" lon="-75.6807395848513">
        <ele>52.3778713</ele>
        <time>2019-09-10T15:45:22.800Z</time>
      </trkpt>
      <trkpt lat="10.1589461328248" lon="-75.6807415999412">
        <ele>52.2778713</ele>
        <time>2019-09-10T15:45:22.900Z</time>
      </trkpt>
      <trkpt lat="10.1589479128574" lon="-75.6807436572949">
        <ele>52.2778713</ele>
        <time>2019-09-10T15:45:23.000Z</time>
      </trkpt>
      <trkpt lat="10.1589496955997" lon="-75.6807457279823">
        <ele>52.2778713</ele>
        <time>2019-09-10T15:45:23.100Z</time>
      </trkpt>
      <trkpt lat="10.1589514775864" lon="-75.6807478177825">
        <ele>52.2778713</ele>
        <time>2019-09-10T15:45:23.200Z</time>
      </trkpt>
      <trkpt lat="10.1589532522777" lon="-75.6807499085574">
        <ele>52.2778713</ele>
        <time>2019-09-10T15:45:23.300Z</time>
      </trkpt>
      <trkpt lat="10.1589550649574" lon="-75.6807520182014">
        <ele>52.2778713</ele>
        <time>2019-09-10T15:45:23.400Z</time>
      </trkpt>
      <trkpt lat="10.1589568819882" lon="-75.6807541146858">
        <ele>52.2778713</ele>
        <time>2019-09-10T15:45:23.500Z</time>
      </trkpt>
      <trkpt lat="10.1589586826043" lon="-75.6807561981499">
        <ele>52.2778713</ele>
        <time>2019-09-10T15:45:23.600Z</time>
      </trkpt>
      <trkpt lat="10.1589604682648" lon="-75.6807582732238">
        <ele>52.2778713</ele>
        <time>2019-09-10T15:45:23.700Z</time>
      </trkpt>
      <trkpt lat="10.1589622287561" lon="-75.6807603651825">
        <ele>52.2778713</ele>
        <time>2019-09-10T15:45:23.800Z</time>
      </trkpt>
      <trkpt lat="10.1589639681948" lon="-75.6807624658445">
        <ele>52.2778713</ele>
        <time>2019-09-10T15:45:23.900Z</time>
      </trkpt>
      <trkpt lat="10.1589657417657" lon="-75.6807645859326">
        <ele>52.2778713</ele>
        <time>2019-09-10T15:45:24.000Z</time>
      </trkpt>
      <trkpt lat="10.1589675202871" lon="-75.6807667057074">
        <ele>52.2778713</ele>
        <time>2019-09-10T15:45:24.100Z</time>
      </trkpt>
      <trkpt lat="10.1589692525347" lon="-75.6807688028533">
        <ele>52.2778713</ele>
        <time>2019-09-10T15:45:24.200Z</time>
      </trkpt>
      <trkpt lat="10.1589709759756" lon="-75.6807708975622">
        <ele>52.2778713</ele>
        <time>2019-09-10T15:45:24.300Z</time>
      </trkpt>
      <trkpt lat="10.1589726537158" lon="-75.6807729802952">
        <ele>52.2778713</ele>
        <time>2019-09-10T15:45:24.400Z</time>
      </trkpt>
      <trkpt lat="10.1589743477145" lon="-75.6807750549862">
        <ele>52.2778713</ele>
        <time>2019-09-10T15:45:24.500Z</time>
      </trkpt>
      <trkpt lat="10.1589760510929" lon="-75.6807770859859">
        <ele>52.2778713</ele>
        <time>2019-09-10T15:45:24.600Z</time>
      </trkpt>
      <trkpt lat="10.1589777697918" lon="-75.68077911897">
        <ele>52.2778713</ele>
        <time>2019-09-10T15:45:24.700Z</time>
      </trkpt>
      <trkpt lat="10.1589795036027" lon="-75.6807811307874">
        <ele>52.2778713</ele>
        <time>2019-09-10T15:45:24.800Z</time>
      </trkpt>
      <trkpt lat="10.1589829768001" lon="-75.6807852235274">
        <ele>52.2778713</ele>
        <time>2019-09-10T15:45:25.000Z</time>
      </trkpt>
      <trkpt lat="10.1589847094124" lon="-75.6807872886446">
        <ele>52.2778713</ele>
        <time>2019-09-10T15:45:25.100Z</time>
      </trkpt>
      <trkpt lat="10.1589864163344" lon="-75.6807893110801">
        <ele>52.2778713</ele>
        <time>2019-09-10T15:45:25.200Z</time>
      </trkpt>
      <trkpt lat="10.1589881304997" lon="-75.6807913275277">
        <ele>52.2778713</ele>
        <time>2019-09-10T15:45:25.300Z</time>
      </trkpt>
      <trkpt lat="10.1589898542011" lon="-75.680793340668">
        <ele>52.2778713</ele>
        <time>2019-09-10T15:45:25.400Z</time>
      </trkpt>
      <trkpt lat="10.1589915928061" lon="-75.6807953665153">
        <ele>52.2778713</ele>
        <time>2019-09-10T15:45:25.500Z</time>
      </trkpt>
      <trkpt lat="10.1589933102543" lon="-75.6807973698032">
        <ele>52.2778713</ele>
        <time>2019-09-10T15:45:25.600Z</time>
      </trkpt>
      <trkpt lat="10.1589950386978" lon="-75.6807993889315">
        <ele>52.2778713</ele>
        <time>2019-09-10T15:45:25.700Z</time>
      </trkpt>
      <trkpt lat="10.1589967694863" lon="-75.6808014320464">
        <ele>52.2778713</ele>
        <time>2019-09-10T15:45:25.800Z</time>
      </trkpt>
      <trkpt lat="10.158998508456" lon="-75.6808034935082">
        <ele>52.2778713</ele>
        <time>2019-09-10T15:45:25.900Z</time>
      </trkpt>
      <trkpt lat="10.1590002370558" lon="-75.6808055702532">
        <ele>52.2778713</ele>
        <time>2019-09-10T15:45:26.000Z</time>
      </trkpt>
      <trkpt lat="10.1590019726905" lon="-75.6808076570245">
        <ele>52.3778713</ele>
        <time>2019-09-10T15:45:26.100Z</time>
      </trkpt>
      <trkpt lat="10.1590037053028" lon="-75.680809775372">
        <ele>52.3778713</ele>
        <time>2019-09-10T15:45:26.200Z</time>
      </trkpt>
      <trkpt lat="10.1590054424487" lon="-75.6808118951468">
        <ele>52.3778713</ele>
        <time>2019-09-10T15:45:26.300Z</time>
      </trkpt>
      <trkpt lat="10.1590071736019" lon="-75.6808140310404">
        <ele>52.3778713</ele>
        <time>2019-09-10T15:45:26.400Z</time>
      </trkpt>
      <trkpt lat="10.1590089075691" lon="-75.6808161595186">
        <ele>52.3778713</ele>
        <time>2019-09-10T15:45:26.500Z</time>
      </trkpt>
      <trkpt lat="10.1590106053197" lon="-75.6808182787016">
        <ele>52.3778713</ele>
        <time>2019-09-10T15:45:26.600Z</time>
      </trkpt>
      <trkpt lat="10.1590123060405" lon="-75.6808203862916">
        <ele>52.3778713</ele>
        <time>2019-09-10T15:45:26.700Z</time>
      </trkpt>
      <trkpt lat="10.1590139771628" lon="-75.6808224430187">
        <ele>52.3778713</ele>
        <time>2019-09-10T15:45:26.800Z</time>
      </trkpt>
      <trkpt lat="10.1590156569875" lon="-75.6808244990843">
        <ele>52.3778713</ele>
        <time>2019-09-10T15:45:26.900Z</time>
      </trkpt>
      <trkpt lat="10.1590173453582" lon="-75.6808265548018">
        <ele>52.3778713</ele>
        <time>2019-09-10T15:45:27.000Z</time>
      </trkpt>
      <trkpt lat="10.159019047486" lon="-75.680828621973">
        <ele>52.3778713</ele>
        <time>2019-09-10T15:45:27.100Z</time>
      </trkpt>
      <trkpt lat="10.1590207206406" lon="-75.6808307104503">
        <ele>52.3778713</ele>
        <time>2019-09-10T15:45:27.200Z</time>
      </trkpt>
      <trkpt lat="10.1590223852491" lon="-75.6808328070391">
        <ele>52.3778713</ele>
        <time>2019-09-10T15:45:27.300Z</time>
      </trkpt>
      <trkpt lat="10.1590240161944" lon="-75.6808348479956">
        <ele>52.3778713</ele>
        <time>2019-09-10T15:45:27.400Z</time>
      </trkpt>
      <trkpt lat="10.1590256799691" lon="-75.6808368860625">
        <ele>52.3778713</ele>
        <time>2019-09-10T15:45:27.500Z</time>
      </trkpt>
      <trkpt lat="10.1590273629725" lon="-75.6808389287248">
        <ele>52.3778713</ele>
        <time>2019-09-10T15:45:27.600Z</time>
      </trkpt>
      <trkpt lat="10.15902907349" lon="-75.6808409930413">
        <ele>52.3778713</ele>
        <time>2019-09-10T15:45:27.700Z</time>
      </trkpt>
      <trkpt lat="10.159030803132" lon="-75.6808430571141">
        <ele>52.3778713</ele>
        <time>2019-09-10T15:45:27.800Z</time>
      </trkpt>
      <trkpt lat="10.1590325582039" lon="-75.6808451290548">
        <ele>52.3778713</ele>
        <time>2019-09-10T15:45:27.900Z</time>
      </trkpt>
      <trkpt lat="10.159034261426" lon="-75.6808471896462">
        <ele>52.3778713</ele>
        <time>2019-09-10T15:45:28.000Z</time>
      </trkpt>
      <trkpt lat="10.1590359649087" lon="-75.6808492668786">
        <ele>52.4778713</ele>
        <time>2019-09-10T15:45:28.100Z</time>
      </trkpt>
      <trkpt lat="10.1590376406688" lon="-75.6808513292456">
        <ele>52.4778713</ele>
        <time>2019-09-10T15:45:28.200Z</time>
      </trkpt>
      <trkpt lat="10.159039318409" lon="-75.6808534034144">
        <ele>52.4778713</ele>
        <time>2019-09-10T15:45:28.300Z</time>
      </trkpt>
      <trkpt lat="10.1590410241846" lon="-75.6808554857644">
        <ele>52.4778713</ele>
        <time>2019-09-10T15:45:28.400Z</time>
      </trkpt>
      <trkpt lat="10.1590427390273" lon="-75.680857581274">
        <ele>52.3778713</ele>
        <time>2019-09-10T15:45:28.500Z</time>
      </trkpt>
      <trkpt lat="10.1590444709621" lon="-75.6808597175853">
        <ele>52.3778713</ele>
        <time>2019-09-10T15:45:28.600Z</time>
      </trkpt>
      <trkpt lat="10.159046208108" lon="-75.6808618541055">
        <ele>52.3778713</ele>
        <time>2019-09-10T15:45:28.700Z</time>
      </trkpt>
      <trkpt lat="10.159047911226" lon="-75.6808639480137">
        <ele>52.3778713</ele>
        <time>2019-09-10T15:45:28.800Z</time>
      </trkpt>
      <trkpt lat="10.1590496071527" lon="-75.6808660352029">
        <ele>52.3778713</ele>
        <time>2019-09-10T15:45:28.900Z</time>
      </trkpt>
      <trkpt lat="10.1590513448197" lon="-75.6808681905225">
        <ele>52.3778713</ele>
        <time>2019-09-10T15:45:29.000Z</time>
      </trkpt>
      <trkpt lat="10.1590530867597" lon="-75.6808703544412">
        <ele>52.3778713</ele>
        <time>2019-09-10T15:45:29.100Z</time>
      </trkpt>
      <trkpt lat="10.1590548325038" lon="-75.6808725540439">
        <ele>52.3778713</ele>
        <time>2019-09-10T15:45:29.200Z</time>
      </trkpt>
      <trkpt lat="10.1590565653245" lon="-75.6808747365531">
        <ele>52.3778713</ele>
        <time>2019-09-10T15:45:29.300Z</time>
      </trkpt>
      <trkpt lat="10.1590582462956" lon="-75.6808768546569">
        <ele>52.3778713</ele>
        <time>2019-09-10T15:45:29.400Z</time>
      </trkpt>
      <trkpt lat="10.1590599372719" lon="-75.680878968583">
        <ele>52.3778713</ele>
        <time>2019-09-10T15:45:29.500Z</time>
      </trkpt>
      <trkpt lat="10.1590633203708" lon="-75.6808831370777">
        <ele>52.3778713</ele>
        <time>2019-09-10T15:45:29.700Z</time>
      </trkpt>
      <trkpt lat="10.1590650418315" lon="-75.6808852115946">
        <ele>52.3778713</ele>
        <time>2019-09-10T15:45:29.800Z</time>
      </trkpt>
      <trkpt lat="10.1590667818956" lon="-75.6808873047021">
        <ele>52.3778713</ele>
        <time>2019-09-10T15:45:29.900Z</time>
      </trkpt>
      <trkpt lat="10.1590685421263" lon="-75.6808893859729">
        <ele>52.3778713</ele>
        <time>2019-09-10T15:45:30.000Z</time>
      </trkpt>
      <trkpt lat="10.1590703169478" lon="-75.6808914755294">
        <ele>52.3778713</ele>
        <time>2019-09-10T15:45:30.100Z</time>
      </trkpt>
      <trkpt lat="10.1590720899455" lon="-75.680893546913">
        <ele>52.3778713</ele>
        <time>2019-09-10T15:45:30.200Z</time>
      </trkpt>
      <trkpt lat="10.1590738517917" lon="-75.680895623484">
        <ele>52.3778713</ele>
        <time>2019-09-10T15:45:30.300Z</time>
      </trkpt>
      <trkpt lat="10.1590756139505" lon="-75.6808977394641">
        <ele>52.3778713</ele>
        <time>2019-09-10T15:45:30.400Z</time>
      </trkpt>
      <trkpt lat="10.1590773657393" lon="-75.6808998627203">
        <ele>52.3778713</ele>
        <time>2019-09-10T15:45:30.500Z</time>
      </trkpt>
      <trkpt lat="10.159079101374" lon="-75.6809019158267">
        <ele>52.3778713</ele>
        <time>2019-09-10T15:45:30.600Z</time>
      </trkpt>
      <trkpt lat="10.1590808413339" lon="-75.6809039725538">
        <ele>52.3778713</ele>
        <time>2019-09-10T15:45:30.700Z</time>
      </trkpt>
      <trkpt lat="10.1590825840555" lon="-75.6809060616229">
        <ele>52.3778713</ele>
        <time>2019-09-10T15:45:30.800Z</time>
      </trkpt>
      <trkpt lat="10.1590843325094" lon="-75.6809081590821">
        <ele>52.2778713</ele>
        <time>2019-09-10T15:45:30.900Z</time>
      </trkpt>
      <trkpt lat="10.1590861148869" lon="-75.6809102607886">
        <ele>52.2778713</ele>
        <time>2019-09-10T15:45:31.000Z</time>
      </trkpt>
      <trkpt lat="10.1590878948674" lon="-75.6809123647231">
        <ele>52.2778713</ele>
        <time>2019-09-10T15:45:31.100Z</time>
      </trkpt>
      <trkpt lat="10.1590896651554" lon="-75.6809144418511">
        <ele>52.2778713</ele>
        <time>2019-09-10T15:45:31.200Z</time>
      </trkpt>
      <trkpt lat="10.1590914350265" lon="-75.6809165294231">
        <ele>52.2778713</ele>
        <time>2019-09-10T15:45:31.300Z</time>
      </trkpt>
      <trkpt lat="10.159093187597" lon="-75.6809186226002">
        <ele>52.3778713</ele>
        <time>2019-09-10T15:45:31.400Z</time>
      </trkpt>
      <trkpt lat="10.1590949463686" lon="-75.6809207231927">
        <ele>52.3778713</ele>
        <time>2019-09-10T15:45:31.500Z</time>
      </trkpt>
      <trkpt lat="10.1590966868496" lon="-75.6809228201993">
        <ele>52.3778713</ele>
        <time>2019-09-10T15:45:31.600Z</time>
      </trkpt>
      <trkpt lat="10.1590984420777" lon="-75.680924924656">
        <ele>52.3778713</ele>
        <time>2019-09-10T15:45:31.700Z</time>
      </trkpt>
      <trkpt lat="10.1591002477485" lon="-75.6809270614548">
        <ele>52.3778713</ele>
        <time>2019-09-10T15:45:31.800Z</time>
      </trkpt>
      <trkpt lat="10.1591020450817" lon="-75.6809291979402">
        <ele>52.3778713</ele>
        <time>2019-09-10T15:45:31.900Z</time>
      </trkpt>
      <trkpt lat="10.1591038163598" lon="-75.6809312924054">
        <ele>52.3778713</ele>
        <time>2019-09-10T15:45:32.000Z</time>
      </trkpt>
      <trkpt lat="10.1591055807593" lon="-75.680933388298">
        <ele>52.3778713</ele>
        <time>2019-09-10T15:45:32.100Z</time>
      </trkpt>
      <trkpt lat="10.1591073147265" lon="-75.6809355099527">
        <ele>52.3778713</ele>
        <time>2019-09-10T15:45:32.200Z</time>
      </trkpt>
      <trkpt lat="10.1591090504654" lon="-75.6809376360288">
        <ele>52.3778713</ele>
        <time>2019-09-10T15:45:32.300Z</time>
      </trkpt>
      <trkpt lat="10.1591107655686" lon="-75.6809397490149">
        <ele>52.3778713</ele>
        <time>2019-09-10T15:45:32.400Z</time>
      </trkpt>
      <trkpt lat="10.1591124939079" lon="-75.6809418658306">
        <ele>52.3778713</ele>
        <time>2019-09-10T15:45:32.500Z</time>
      </trkpt>
      <trkpt lat="10.1591142596623" lon="-75.6809440092091">
        <ele>52.3778713</ele>
        <time>2019-09-10T15:45:32.600Z</time>
      </trkpt>
      <trkpt lat="10.1591160362556" lon="-75.680946155129">
        <ele>52.2778713</ele>
        <time>2019-09-10T15:45:32.700Z</time>
      </trkpt>
      <trkpt lat="10.1591177978412" lon="-75.6809483196743">
        <ele>52.2778713</ele>
        <time>2019-09-10T15:45:32.800Z</time>
      </trkpt>
      <trkpt lat="10.1591195452528" lon="-75.6809504731837">
        <ele>52.2778713</ele>
        <time>2019-09-10T15:45:32.900Z</time>
      </trkpt>
      <trkpt lat="10.1591212690064" lon="-75.6809525621831">
        <ele>52.2778713</ele>
        <time>2019-09-10T15:45:33.000Z</time>
      </trkpt>
      <trkpt lat="10.1591229954697" lon="-75.6809546536195">
        <ele>52.2778713</ele>
        <time>2019-09-10T15:45:33.100Z</time>
      </trkpt>
      <trkpt lat="10.1591247507499" lon="-75.6809567948048">
        <ele>52.2778713</ele>
        <time>2019-09-10T15:45:33.200Z</time>
      </trkpt>
      <trkpt lat="10.1591282432281" lon="-75.6809610906483">
        <ele>52.2778713</ele>
        <time>2019-09-10T15:45:33.400Z</time>
      </trkpt>
      <trkpt lat="10.1591299839696" lon="-75.6809632398755">
        <ele>52.2778713</ele>
        <time>2019-09-10T15:45:33.500Z</time>
      </trkpt>
      <trkpt lat="10.1591317207508" lon="-75.6809653727403">
        <ele>52.2778713</ele>
        <time>2019-09-10T15:45:33.600Z</time>
      </trkpt>
      <trkpt lat="10.1591334563333" lon="-75.6809675067887">
        <ele>52.2778713</ele>
        <time>2019-09-10T15:45:33.700Z</time>
      </trkpt>
      <trkpt lat="10.1591351963453" lon="-75.6809696557026">
        <ele>52.2778713</ele>
        <time>2019-09-10T15:45:33.800Z</time>
      </trkpt>
      <trkpt lat="10.1591369348982" lon="-75.6809718020055">
        <ele>52.3778713</ele>
        <time>2019-09-10T15:45:33.900Z</time>
      </trkpt>
      <trkpt lat="10.1591386754833" lon="-75.6809739536349">
        <ele>52.3778713</ele>
        <time>2019-09-10T15:45:34.000Z</time>
      </trkpt>
      <trkpt lat="10.1591404164333" lon="-75.6809761059954">
        <ele>52.3778713</ele>
        <time>2019-09-10T15:45:34.100Z</time>
      </trkpt>
      <trkpt lat="10.1591421316408" lon="-75.6809782237162">
        <ele>52.3778713</ele>
        <time>2019-09-10T15:45:34.200Z</time>
      </trkpt>
      <trkpt lat="10.1591438636798" lon="-75.6809803349268">
        <ele>52.3778713</ele>
        <time>2019-09-10T15:45:34.300Z</time>
      </trkpt>
      <trkpt lat="10.1591456381366" lon="-75.6809824862429">
        <ele>52.3778713</ele>
        <time>2019-09-10T15:45:34.400Z</time>
      </trkpt>
      <trkpt lat="10.1591474202015" lon="-75.6809846303873">
        <ele>52.3778713</ele>
        <time>2019-09-10T15:45:34.500Z</time>
      </trkpt>
      <trkpt lat="10.1591491983582" lon="-75.6809867454623">
        <ele>52.3778713</ele>
        <time>2019-09-10T15:45:34.600Z</time>
      </trkpt>
      <trkpt lat="10.1591509735445" lon="-75.680988852356">
        <ele>52.3778713</ele>
        <time>2019-09-10T15:45:34.700Z</time>
      </trkpt>
      <trkpt lat="10.1591527258024" lon="-75.6809909401544">
        <ele>52.3778713</ele>
        <time>2019-09-10T15:45:34.800Z</time>
      </trkpt>
      <trkpt lat="10.1591544824896" lon="-75.6809930276742">
        <ele>52.3778713</ele>
        <time>2019-09-10T15:45:34.900Z</time>
      </trkpt>
      <trkpt lat="10.1591562544451" lon="-75.6809951075525">
        <ele>52.3778713</ele>
        <time>2019-09-10T15:45:35.000Z</time>
      </trkpt>
      <trkpt lat="10.1591580310384" lon="-75.6809971915562">
        <ele>52.3778713</ele>
        <time>2019-09-10T15:45:35.100Z</time>
      </trkpt>
      <trkpt lat="10.1591597818372" lon="-75.6809992838107">
        <ele>52.3778713</ele>
        <time>2019-09-10T15:45:35.200Z</time>
      </trkpt>
      <trkpt lat="10.1591615341471" lon="-75.6810013813743">
        <ele>52.3778713</ele>
        <time>2019-09-10T15:45:35.300Z</time>
      </trkpt>
      <trkpt lat="10.1591632984424" lon="-75.681003483603">
        <ele>52.3778713</ele>
        <time>2019-09-10T15:45:35.400Z</time>
      </trkpt>
      <trkpt lat="10.1591650620603" lon="-75.6810055868761">
        <ele>52.3778713</ele>
        <time>2019-09-10T15:45:35.500Z</time>
      </trkpt>
      <trkpt lat="10.1591668046778" lon="-75.681007725694">
        <ele>52.3778713</ele>
        <time>2019-09-10T15:45:35.600Z</time>
      </trkpt>
      <trkpt lat="10.1591685537048" lon="-75.6810098630324">
        <ele>52.3778713</ele>
        <time>2019-09-10T15:45:35.700Z</time>
      </trkpt>
      <trkpt lat="10.1591702936125" lon="-75.6810119932687">
        <ele>52.3778713</ele>
        <time>2019-09-10T15:45:35.800Z</time>
      </trkpt>
      <trkpt lat="10.1591720412326" lon="-75.6810141126257">
        <ele>52.3778713</ele>
        <time>2019-09-10T15:45:35.900Z</time>
      </trkpt>
      <trkpt lat="10.1591737747829" lon="-75.6810162556387">
        <ele>52.3778713</ele>
        <time>2019-09-10T15:45:36.000Z</time>
      </trkpt>
      <trkpt lat="10.1591755088542" lon="-75.6810183946133">
        <ele>52.3778713</ele>
        <time>2019-09-10T15:45:36.100Z</time>
      </trkpt>
      <trkpt lat="10.1591772167663" lon="-75.6810205308899">
        <ele>52.3778713</ele>
        <time>2019-09-10T15:45:36.200Z</time>
      </trkpt>
      <trkpt lat="10.1591789218123" lon="-75.681022667793">
        <ele>52.3778713</ele>
        <time>2019-09-10T15:45:36.300Z</time>
      </trkpt>
      <trkpt lat="10.1591805763635" lon="-75.6810247900048">
        <ele>52.3778713</ele>
        <time>2019-09-10T15:45:36.400Z</time>
      </trkpt>
      <trkpt lat="10.1591822321133" lon="-75.6810269081085">
        <ele>52.3778713</ele>
        <time>2019-09-10T15:45:36.500Z</time>
      </trkpt>
      <trkpt lat="10.1591838459143" lon="-75.6810289951758">
        <ele>52.3778713</ele>
        <time>2019-09-10T15:45:36.600Z</time>
      </trkpt>
      <trkpt lat="10.1591854820185" lon="-75.6810310797191">
        <ele>52.3778713</ele>
        <time>2019-09-10T15:45:36.700Z</time>
      </trkpt>
      <trkpt lat="10.1591871542872" lon="-75.6810332064393">
        <ele>52.3778713</ele>
        <time>2019-09-10T15:45:36.800Z</time>
      </trkpt>
      <trkpt lat="10.1591888626161" lon="-75.6810353216709">
        <ele>52.3778713</ele>
        <time>2019-09-10T15:45:36.900Z</time>
      </trkpt>
      <trkpt lat="10.1591906563016" lon="-75.681037496347">
        <ele>52.3778713</ele>
        <time>2019-09-10T15:45:37.000Z</time>
      </trkpt>
      <trkpt lat="10.1591922935522" lon="-75.6810394654479">
        <ele>52.3778713</ele>
        <time>2019-09-10T15:45:37.100Z</time>
      </trkpt>
      <trkpt lat="10.1591940300207" lon="-75.681041550113">
        <ele>52.3778713</ele>
        <time>2019-09-10T15:45:37.200Z</time>
      </trkpt>
      <trkpt lat="10.159195775869" lon="-75.6810436353177">
        <ele>52.3778713</ele>
        <time>2019-09-10T15:45:37.300Z</time>
      </trkpt>
      <trkpt lat="10.1591975347448" lon="-75.6810457270327">
        <ele>52.3778713</ele>
        <time>2019-09-10T15:45:37.400Z</time>
      </trkpt>
      <trkpt lat="10.1591993137352" lon="-75.6810478107578">
        <ele>52.3778713</ele>
        <time>2019-09-10T15:45:37.500Z</time>
      </trkpt>
      <trkpt lat="10.159201130297" lon="-75.6810499016546">
        <ele>52.3778713</ele>
        <time>2019-09-10T15:45:37.600Z</time>
      </trkpt>
      <trkpt lat="10.1592029410747" lon="-75.6810519930736">
        <ele>52.3778713</ele>
        <time>2019-09-10T15:45:37.700Z</time>
      </trkpt>
      <trkpt lat="10.1592047781158" lon="-75.6810541358951">
        <ele>52.3778713</ele>
        <time>2019-09-10T15:45:37.800Z</time>
      </trkpt>
      <trkpt lat="10.1592083016517" lon="-75.6810582793936">
        <ele>52.3778713</ele>
        <time>2019-09-10T15:45:38.000Z</time>
      </trkpt>
      <trkpt lat="10.1592099920548" lon="-75.68106027504">
        <ele>52.3778713</ele>
        <time>2019-09-10T15:45:38.100Z</time>
      </trkpt>
      <trkpt lat="10.1592118635929" lon="-75.6810624666529">
        <ele>52.3778713</ele>
        <time>2019-09-10T15:45:38.200Z</time>
      </trkpt>
      <trkpt lat="10.1592135563409" lon="-75.6810644508804">
        <ele>52.3778713</ele>
        <time>2019-09-10T15:45:38.300Z</time>
      </trkpt>
      <trkpt lat="10.1592154006775" lon="-75.6810666535294">
        <ele>52.3778713</ele>
        <time>2019-09-10T15:45:38.400Z</time>
      </trkpt>
      <trkpt lat="10.159217064348" lon="-75.6810686432922">
        <ele>52.3778713</ele>
        <time>2019-09-10T15:45:38.500Z</time>
      </trkpt>
      <trkpt lat="10.159218871999" lon="-75.6810708487959">
        <ele>52.3778713</ele>
        <time>2019-09-10T15:45:38.600Z</time>
      </trkpt>
      <trkpt lat="10.1592204992444" lon="-75.6810728464092">
        <ele>52.3778713</ele>
        <time>2019-09-10T15:45:38.700Z</time>
      </trkpt>
      <trkpt lat="10.1592221887616" lon="-75.6810749636252">
        <ele>52.3778713</ele>
        <time>2019-09-10T15:45:38.800Z</time>
      </trkpt>
      <trkpt lat="10.1592238916711" lon="-75.6810770823904">
        <ele>52.3778713</ele>
        <time>2019-09-10T15:45:38.900Z</time>
      </trkpt>
      <trkpt lat="10.1592256087024" lon="-75.6810791701017">
        <ele>52.3778713</ele>
        <time>2019-09-10T15:45:39.000Z</time>
      </trkpt>
      <trkpt lat="10.159227332925" lon="-75.6810812672476">
        <ele>52.3778713</ele>
        <time>2019-09-10T15:45:39.100Z</time>
      </trkpt>
      <trkpt lat="10.1592290408371" lon="-75.6810833647242">
        <ele>52.3778713</ele>
        <time>2019-09-10T15:45:39.200Z</time>
      </trkpt>
      <trkpt lat="10.1592307561488" lon="-75.6810854656822">
        <ele>52.3778713</ele>
        <time>2019-09-10T15:45:39.300Z</time>
      </trkpt>
      <trkpt lat="10.159232474535" lon="-75.6810875635939">
        <ele>52.3778713</ele>
        <time>2019-09-10T15:45:39.400Z</time>
      </trkpt>
      <trkpt lat="10.1592341905762" lon="-75.6810896708532">
        <ele>52.3778713</ele>
        <time>2019-09-10T15:45:39.500Z</time>
      </trkpt>
      <trkpt lat="10.1592359094836" lon="-75.6810918138836">
        <ele>52.3778713</ele>
        <time>2019-09-10T15:45:39.600Z</time>
      </trkpt>
      <trkpt lat="10.1592376345399" lon="-75.681093958028">
        <ele>52.3778713</ele>
        <time>2019-09-10T15:45:39.700Z</time>
      </trkpt>
      <trkpt lat="10.1592393127491" lon="-75.6810960502826">
        <ele>52.3778713</ele>
        <time>2019-09-10T15:45:39.800Z</time>
      </trkpt>
      <trkpt lat="10.1592410074252" lon="-75.681098141806">
        <ele>52.3778713</ele>
        <time>2019-09-10T15:45:39.900Z</time>
      </trkpt>
      <trkpt lat="10.1592426912102" lon="-75.6811002485779">
        <ele>52.3778713</ele>
        <time>2019-09-10T15:45:40.000Z</time>
      </trkpt>
      <trkpt lat="10.1592444003208" lon="-75.68110236092">
        <ele>52.3778713</ele>
        <time>2019-09-10T15:45:40.100Z</time>
      </trkpt>
      <trkpt lat="10.159246103074" lon="-75.6811044917481">
        <ele>52.3778713</ele>
        <time>2019-09-10T15:45:40.200Z</time>
      </trkpt>
      <trkpt lat="10.1592478362595" lon="-75.6811066167798">
        <ele>52.3778713</ele>
        <time>2019-09-10T15:45:40.300Z</time>
      </trkpt>
      <trkpt lat="10.1592495799192" lon="-75.6811087264412">
        <ele>52.3778713</ele>
        <time>2019-09-10T15:45:40.400Z</time>
      </trkpt>
      <trkpt lat="10.15925132509" lon="-75.6811108314898">
        <ele>52.3778713</ele>
        <time>2019-09-10T15:45:40.500Z</time>
      </trkpt>
      <trkpt lat="10.159253072658" lon="-75.6811129282179">
        <ele>52.3778713</ele>
        <time>2019-09-10T15:45:40.600Z</time>
      </trkpt>
      <trkpt lat="10.1592548184541" lon="-75.6811150238668">
        <ele>52.3778713</ele>
        <time>2019-09-10T15:45:40.700Z</time>
      </trkpt>
      <trkpt lat="10.1592582985302" lon="-75.6811191394446">
        <ele>52.3778713</ele>
        <time>2019-09-10T15:45:40.900Z</time>
      </trkpt>
      <trkpt lat="10.1592600440658" lon="-75.681121200419">
        <ele>52.3778713</ele>
        <time>2019-09-10T15:45:41.000Z</time>
      </trkpt>
      <trkpt lat="10.1592617959068" lon="-75.6811232620896">
        <ele>52.3778713</ele>
        <time>2019-09-10T15:45:41.100Z</time>
      </trkpt>
      <trkpt lat="10.159263540765" lon="-75.681125292689">
        <ele>52.3778713</ele>
        <time>2019-09-10T15:45:41.200Z</time>
      </trkpt>
      <trkpt lat="10.1592652636327" lon="-75.6811273323922">
        <ele>52.3778713</ele>
        <time>2019-09-10T15:45:41.300Z</time>
      </trkpt>
      <trkpt lat="10.1592669545568" lon="-75.6811293643667">
        <ele>52.3778713</ele>
        <time>2019-09-10T15:45:41.400Z</time>
      </trkpt>
      <trkpt lat="10.1592686547044" lon="-75.68113140031">
        <ele>52.3778713</ele>
        <time>2019-09-10T15:45:41.500Z</time>
      </trkpt>
      <trkpt lat="10.1592703404697" lon="-75.6811334253827">
        <ele>52.3778713</ele>
        <time>2019-09-10T15:45:41.600Z</time>
      </trkpt>
      <trkpt lat="10.1592720430665" lon="-75.6811354653208">
        <ele>52.3778713</ele>
        <time>2019-09-10T15:45:41.700Z</time>
      </trkpt>
      <trkpt lat="10.1592737772942" lon="-75.6811375137361">
        <ele>52.3778713</ele>
        <time>2019-09-10T15:45:41.800Z</time>
      </trkpt>
      <trkpt lat="10.1592755245495" lon="-75.6811395748062">
        <ele>52.3778713</ele>
        <time>2019-09-10T15:45:41.900Z</time>
      </trkpt>
      <trkpt lat="10.159277285145" lon="-75.681141608652">
        <ele>52.3778713</ele>
        <time>2019-09-10T15:45:42.000Z</time>
      </trkpt>
      <trkpt lat="10.1592790497529" lon="-75.6811436626897">
        <ele>52.3778713</ele>
        <time>2019-09-10T15:45:42.100Z</time>
      </trkpt>
      <trkpt lat="10.1592808578729" lon="-75.681145750784">
        <ele>52.3778713</ele>
        <time>2019-09-10T15:45:42.200Z</time>
      </trkpt>
      <trkpt lat="10.1592844617628" lon="-75.6811499158496">
        <ele>52.3778713</ele>
        <time>2019-09-10T15:45:42.400Z</time>
      </trkpt>
      <trkpt lat="10.1592862584707" lon="-75.6811519986522">
        <ele>52.3778713</ele>
        <time>2019-09-10T15:45:42.500Z</time>
      </trkpt>
      <trkpt lat="10.1592880572629" lon="-75.6811540593568">
        <ele>52.3778713</ele>
        <time>2019-09-10T15:45:42.600Z</time>
      </trkpt>
      <trkpt lat="10.1592898621521" lon="-75.6811561325595">
        <ele>52.3778713</ele>
        <time>2019-09-10T15:45:42.700Z</time>
      </trkpt>
      <trkpt lat="10.1592916813715" lon="-75.6811582187999">
        <ele>52.3778713</ele>
        <time>2019-09-10T15:45:42.800Z</time>
      </trkpt>
      <trkpt lat="10.1592934910548" lon="-75.6811603154758">
        <ele>52.3778713</ele>
        <time>2019-09-10T15:45:42.900Z</time>
      </trkpt>
      <trkpt lat="10.1592952744225" lon="-75.681162416486">
        <ele>52.3778713</ele>
        <time>2019-09-10T15:45:43.000Z</time>
      </trkpt>
      <trkpt lat="10.1592970505468" lon="-75.68116452472">
        <ele>52.3778713</ele>
        <time>2019-09-10T15:45:43.100Z</time>
      </trkpt>
      <trkpt lat="10.1592988092663" lon="-75.6811666000638">
        <ele>52.3778713</ele>
        <time>2019-09-10T15:45:43.200Z</time>
      </trkpt>
      <trkpt lat="10.1593005660057" lon="-75.6811686857821">
        <ele>52.3778713</ele>
        <time>2019-09-10T15:45:43.300Z</time>
      </trkpt>
      <trkpt lat="10.1593023188367" lon="-75.6811707754952">
        <ele>52.3778713</ele>
        <time>2019-09-10T15:45:43.400Z</time>
      </trkpt>
      <trkpt lat="10.1593040693228" lon="-75.6811728809876">
        <ele>52.3778713</ele>
        <time>2019-09-10T15:45:43.500Z</time>
      </trkpt>
      <trkpt lat="10.1593057965157" lon="-75.6811749873592">
        <ele>52.3778713</ele>
        <time>2019-09-10T15:45:43.600Z</time>
      </trkpt>
      <trkpt lat="10.1593075231874" lon="-75.6811771054716">
        <ele>52.3778713</ele>
        <time>2019-09-10T15:45:43.700Z</time>
      </trkpt>
      <trkpt lat="10.159309239854" lon="-75.681179248354">
        <ele>52.3778713</ele>
        <time>2019-09-10T15:45:43.800Z</time>
      </trkpt>
      <trkpt lat="10.1593109651188" lon="-75.6811813942392">
        <ele>52.3778713</ele>
        <time>2019-09-10T15:45:43.900Z</time>
      </trkpt>
      <trkpt lat="10.1593126564598" lon="-75.6811835213771">
        <ele>52.3778713</ele>
        <time>2019-09-10T15:45:44.000Z</time>
      </trkpt>
      <trkpt lat="10.1593143555652" lon="-75.6811856494463">
        <ele>52.3778713</ele>
        <time>2019-09-10T15:45:44.100Z</time>
      </trkpt>
      <trkpt lat="10.1593160613408" lon="-75.6811877918326">
        <ele>52.3778713</ele>
        <time>2019-09-10T15:45:44.200Z</time>
      </trkpt>
      <trkpt lat="10.1593177760271" lon="-75.6811899402939">
        <ele>52.3778713</ele>
        <time>2019-09-10T15:45:44.300Z</time>
      </trkpt>
      <trkpt lat="10.1593195015525" lon="-75.681192061383">
        <ele>52.3778713</ele>
        <time>2019-09-10T15:45:44.400Z</time>
      </trkpt>
      <trkpt lat="10.1593212339563" lon="-75.6811941814972">
        <ele>52.3778713</ele>
        <time>2019-09-10T15:45:44.500Z</time>
      </trkpt>
      <trkpt lat="10.1593229156048" lon="-75.6811962712887">
        <ele>52.3778713</ele>
        <time>2019-09-10T15:45:44.600Z</time>
      </trkpt>
      <trkpt lat="10.1593245991814" lon="-75.6811983663283">
        <ele>52.3778713</ele>
        <time>2019-09-10T15:45:44.700Z</time>
      </trkpt>
      <trkpt lat="10.1593263191831" lon="-75.6812004753283">
        <ele>52.3778713</ele>
        <time>2019-09-10T15:45:44.800Z</time>
      </trkpt>
      <trkpt lat="10.1593280486688" lon="-75.6812025992807">
        <ele>52.3778713</ele>
        <time>2019-09-10T15:45:44.900Z</time>
      </trkpt>
      <trkpt lat="10.1593297536105" lon="-75.6812047455314">
        <ele>52.3778713</ele>
        <time>2019-09-10T15:45:45.000Z</time>
      </trkpt>
      <trkpt lat="10.1593314586044" lon="-75.681206894145">
        <ele>52.3778713</ele>
        <time>2019-09-10T15:45:45.100Z</time>
      </trkpt>
      <trkpt lat="10.1593331459851" lon="-75.6812090216355">
        <ele>52.3778713</ele>
        <time>2019-09-10T15:45:45.200Z</time>
      </trkpt>
      <trkpt lat="10.1593348456637" lon="-75.6812111446914">
        <ele>52.3778713</ele>
        <time>2019-09-10T15:45:45.300Z</time>
      </trkpt>
      <trkpt lat="10.1593365712933" lon="-75.6812132395788">
        <ele>52.3778713</ele>
        <time>2019-09-10T15:45:45.400Z</time>
      </trkpt>
      <trkpt lat="10.1593383113573" lon="-75.6812153351841">
        <ele>52.3778713</ele>
        <time>2019-09-10T15:45:45.500Z</time>
      </trkpt>
      <trkpt lat="10.1593400364136" lon="-75.681217442204">
        <ele>52.3778713</ele>
        <time>2019-09-10T15:45:45.600Z</time>
      </trkpt>
      <trkpt lat="10.1593417673584" lon="-75.681219552392">
        <ele>52.3778713</ele>
        <time>2019-09-10T15:45:45.700Z</time>
      </trkpt>
      <trkpt lat="10.1593434990327" lon="-75.681221618558">
        <ele>52.3778713</ele>
        <time>2019-09-10T15:45:45.800Z</time>
      </trkpt>
      <trkpt lat="10.1593452364913" lon="-75.6812236902768">
        <ele>52.3778713</ele>
        <time>2019-09-10T15:45:45.900Z</time>
      </trkpt>
      <trkpt lat="10.1593469744188" lon="-75.6812257618476">
        <ele>52.3778713</ele>
        <time>2019-09-10T15:45:46.000Z</time>
      </trkpt>
      <trkpt lat="10.1593487191728" lon="-75.681227845081">
        <ele>52.3778713</ele>
        <time>2019-09-10T15:45:46.100Z</time>
      </trkpt>
      <trkpt lat="10.1593504611128" lon="-75.6812299298854">
        <ele>52.3778713</ele>
        <time>2019-09-10T15:45:46.200Z</time>
      </trkpt>
      <trkpt lat="10.1593522063358" lon="-75.6812320192286">
        <ele>52.3778713</ele>
        <time>2019-09-10T15:45:46.300Z</time>
      </trkpt>
      <trkpt lat="10.1593539507771" lon="-75.6812341142595">
        <ele>52.3778713</ele>
        <time>2019-09-10T15:45:46.400Z</time>
      </trkpt>
      <trkpt lat="10.1593556975634" lon="-75.6812362160487">
        <ele>52.3778713</ele>
        <time>2019-09-10T15:45:46.500Z</time>
      </trkpt>
      <trkpt lat="10.1593591739917" lon="-75.6812404337179">
        <ele>52.3778713</ele>
        <time>2019-09-10T15:45:46.700Z</time>
      </trkpt>
      <trkpt lat="10.1593625856991" lon="-75.6812446480057">
        <ele>52.3778713</ele>
        <time>2019-09-10T15:45:46.900Z</time>
      </trkpt>
      <trkpt lat="10.159364298249" lon="-75.681246751157">
        <ele>52.3778713</ele>
        <time>2019-09-10T15:45:47.000Z</time>
      </trkpt>
      <trkpt lat="10.1593660230448" lon="-75.6812488565537">
        <ele>52.3778713</ele>
        <time>2019-09-10T15:45:47.100Z</time>
      </trkpt>
      <trkpt lat="10.1593677126662" lon="-75.6812509255701">
        <ele>52.3778713</ele>
        <time>2019-09-10T15:45:47.200Z</time>
      </trkpt>
      <trkpt lat="10.1593694087492" lon="-75.6812530041471">
        <ele>52.3778713</ele>
        <time>2019-09-10T15:45:47.300Z</time>
      </trkpt>
      <trkpt lat="10.1593711059787" lon="-75.6812550814296">
        <ele>52.3778713</ele>
        <time>2019-09-10T15:45:47.400Z</time>
      </trkpt>
      <trkpt lat="10.1593728111289" lon="-75.6812571737233">
        <ele>52.3778713</ele>
        <time>2019-09-10T15:45:47.500Z</time>
      </trkpt>
      <trkpt lat="10.159374462293" lon="-75.6812592363622">
        <ele>52.3778713</ele>
        <time>2019-09-10T15:45:47.600Z</time>
      </trkpt>
      <trkpt lat="10.159376119137" lon="-75.6812613142158">
        <ele>52.3778713</ele>
        <time>2019-09-10T15:45:47.700Z</time>
      </trkpt>
      <trkpt lat="10.1593777656111" lon="-75.6812633596067">
        <ele>52.3778713</ele>
        <time>2019-09-10T15:45:47.800Z</time>
      </trkpt>
      <trkpt lat="10.1593794354306" lon="-75.6812654243855">
        <ele>52.3778713</ele>
        <time>2019-09-10T15:45:47.900Z</time>
      </trkpt>
      <trkpt lat="10.1593811393302" lon="-75.6812674918733">
        <ele>52.3778713</ele>
        <time>2019-09-10T15:45:48.000Z</time>
      </trkpt>
      <trkpt lat="10.1593828563095" lon="-75.6812695775426">
        <ele>52.3778713</ele>
        <time>2019-09-10T15:45:48.100Z</time>
      </trkpt>
      <trkpt lat="10.1593845993959" lon="-75.6812717302616">
        <ele>52.3778713</ele>
        <time>2019-09-10T15:45:48.200Z</time>
      </trkpt>
      <trkpt lat="10.1593863418571" lon="-75.6812738827466">
        <ele>52.3778713</ele>
        <time>2019-09-10T15:45:48.300Z</time>
      </trkpt>
      <trkpt lat="10.1593880733229" lon="-75.6812759920243">
        <ele>52.3778713</ele>
        <time>2019-09-10T15:45:48.400Z</time>
      </trkpt>
      <trkpt lat="10.1593898054662" lon="-75.6812780940483">
        <ele>52.3778713</ele>
        <time>2019-09-10T15:45:48.500Z</time>
      </trkpt>
      <trkpt lat="10.1593915786203" lon="-75.6812802223132">
        <ele>52.3778713</ele>
        <time>2019-09-10T15:45:48.600Z</time>
      </trkpt>
      <trkpt lat="10.1593933461464" lon="-75.681282354922">
        <ele>52.3778713</ele>
        <time>2019-09-10T15:45:48.700Z</time>
      </trkpt>
      <trkpt lat="10.1593950864189" lon="-75.6812844435796">
        <ele>52.3778713</ele>
        <time>2019-09-10T15:45:48.800Z</time>
      </trkpt>
      <trkpt lat="10.15939682221" lon="-75.6812865346395">
        <ele>52.3778713</ele>
        <time>2019-09-10T15:45:48.900Z</time>
      </trkpt>
      <trkpt lat="10.1593985564377" lon="-75.6812886158358">
        <ele>52.3778713</ele>
        <time>2019-09-10T15:45:49.000Z</time>
      </trkpt>
      <trkpt lat="10.1594002942089" lon="-75.6812907070655">
        <ele>52.3778713</ele>
        <time>2019-09-10T15:45:49.100Z</time>
      </trkpt>
      <trkpt lat="10.1594020281239" lon="-75.6812928256229">
        <ele>52.3778713</ele>
        <time>2019-09-10T15:45:49.200Z</time>
      </trkpt>
      <trkpt lat="10.1594037675627" lon="-75.6812949528773">
        <ele>52.3778713</ele>
        <time>2019-09-10T15:45:49.300Z</time>
      </trkpt>
      <trkpt lat="10.1594054762564" lon="-75.6812970397966">
        <ele>52.3778713</ele>
        <time>2019-09-10T15:45:49.400Z</time>
      </trkpt>
      <trkpt lat="10.1594071891189" lon="-75.6812991298589">
        <ele>52.3778713</ele>
        <time>2019-09-10T15:45:49.500Z</time>
      </trkpt>
      <trkpt lat="10.159408903649" lon="-75.6813012100026">
        <ele>52.3778713</ele>
        <time>2019-09-10T15:45:49.600Z</time>
      </trkpt>
      <trkpt lat="10.1594106319361" lon="-75.6813032982231">
        <ele>52.3778713</ele>
        <time>2019-09-10T15:45:49.700Z</time>
      </trkpt>
      <trkpt lat="10.159412394616" lon="-75.6813054084416">
        <ele>52.3778713</ele>
        <time>2019-09-10T15:45:49.800Z</time>
      </trkpt>
      <trkpt lat="10.1594141651125" lon="-75.6813075187187">
        <ele>52.3778713</ele>
        <time>2019-09-10T15:45:49.900Z</time>
      </trkpt>
      <trkpt lat="10.15941593613" lon="-75.6813095864252">
        <ele>52.3778713</ele>
        <time>2019-09-10T15:45:50.000Z</time>
      </trkpt>
      <trkpt lat="10.1594177025618" lon="-75.6813116546757">
        <ele>52.3778713</ele>
        <time>2019-09-10T15:45:50.100Z</time>
      </trkpt>
      <trkpt lat="10.1594194253253" lon="-75.6813136919832">
        <ele>52.3778713</ele>
        <time>2019-09-10T15:45:50.200Z</time>
      </trkpt>
      <trkpt lat="10.1594211489225" lon="-75.6813157419869">
        <ele>52.3778713</ele>
        <time>2019-09-10T15:45:50.300Z</time>
      </trkpt>
      <trkpt lat="10.1594228918005" lon="-75.6813178065123">
        <ele>52.3778713</ele>
        <time>2019-09-10T15:45:50.400Z</time>
      </trkpt>
      <trkpt lat="10.1594246443711" lon="-75.6813198878005">
        <ele>52.3778713</ele>
        <time>2019-09-10T15:45:50.500Z</time>
      </trkpt>
      <trkpt lat="10.159426383914" lon="-75.6813219882711">
        <ele>52.3778713</ele>
        <time>2019-09-10T15:45:50.600Z</time>
      </trkpt>
      <trkpt lat="10.1594281156404" lon="-75.6813240926625">
        <ele>52.3778713</ele>
        <time>2019-09-10T15:45:50.700Z</time>
      </trkpt>
      <trkpt lat="10.1594298083884" lon="-75.6813261662221">
        <ele>52.3778713</ele>
        <time>2019-09-10T15:45:50.800Z</time>
      </trkpt>
      <trkpt lat="10.1594315064517" lon="-75.6813282395684">
        <ele>52.3778713</ele>
        <time>2019-09-10T15:45:50.900Z</time>
      </trkpt>
      <trkpt lat="10.1594332048276" lon="-75.6813303173491">
        <ele>52.3778713</ele>
        <time>2019-09-10T15:45:51.000Z</time>
      </trkpt>
      <trkpt lat="10.1594349126875" lon="-75.6813324034851">
        <ele>52.3778713</ele>
        <time>2019-09-10T15:45:51.100Z</time>
      </trkpt>
      <trkpt lat="10.1594366284682" lon="-75.6813344963924">
        <ele>52.3778713</ele>
        <time>2019-09-10T15:45:51.200Z</time>
      </trkpt>
      <trkpt lat="10.159440040332" lon="-75.6813386938957">
        <ele>52.3778713</ele>
        <time>2019-09-10T15:45:51.400Z</time>
      </trkpt>
      <trkpt lat="10.1594417446484" lon="-75.6813407934568">
        <ele>52.3778713</ele>
        <time>2019-09-10T15:45:51.500Z</time>
      </trkpt>
      <trkpt lat="10.1594434775213" lon="-75.6813428946367">
        <ele>52.3778713</ele>
        <time>2019-09-10T15:45:51.600Z</time>
      </trkpt>
      <trkpt lat="10.1594452242555" lon="-75.6813449940803">
        <ele>52.3778713</ele>
        <time>2019-09-10T15:45:51.700Z</time>
      </trkpt>
      <trkpt lat="10.1594469548355" lon="-75.6813470615039">
        <ele>52.3778713</ele>
        <time>2019-09-10T15:45:51.800Z</time>
      </trkpt>
      <trkpt lat="10.1594486903138" lon="-75.6813491326961">
        <ele>52.3778713</ele>
        <time>2019-09-10T15:45:51.900Z</time>
      </trkpt>
      <trkpt lat="10.1594504298568" lon="-75.6813512154334">
        <ele>52.3778713</ele>
        <time>2019-09-10T15:45:52.000Z</time>
      </trkpt>
      <trkpt lat="10.1594521749234" lon="-75.6813533065086">
        <ele>52.3778713</ele>
        <time>2019-09-10T15:45:52.100Z</time>
      </trkpt>
      <trkpt lat="10.159453916655" lon="-75.6813553719218">
        <ele>52.3778713</ele>
        <time>2019-09-10T15:45:52.200Z</time>
      </trkpt>
      <trkpt lat="10.1594556606795" lon="-75.6813574440365">
        <ele>52.3778713</ele>
        <time>2019-09-10T15:45:52.300Z</time>
      </trkpt>
      <trkpt lat="10.1594573954283" lon="-75.6813595258905">
        <ele>52.3778713</ele>
        <time>2019-09-10T15:45:52.400Z</time>
      </trkpt>
      <trkpt lat="10.1594591320531" lon="-75.6813616147594">
        <ele>52.3778713</ele>
        <time>2019-09-10T15:45:52.500Z</time>
      </trkpt>
      <trkpt lat="10.1594608899388" lon="-75.6813637448913">
        <ele>52.3778713</ele>
        <time>2019-09-10T15:45:52.600Z</time>
      </trkpt>
      <trkpt lat="10.1594626484499" lon="-75.6813658693398">
        <ele>52.3778713</ele>
        <time>2019-09-10T15:45:52.700Z</time>
      </trkpt>
      <trkpt lat="10.1594643714218" lon="-75.6813679579563">
        <ele>52.2778713</ele>
        <time>2019-09-10T15:45:52.800Z</time>
      </trkpt>
      <trkpt lat="10.1594660955401" lon="-75.6813700434222">
        <ele>52.2778713</ele>
        <time>2019-09-10T15:45:52.900Z</time>
      </trkpt>
      <trkpt lat="10.1594678166361" lon="-75.6813721306374">
        <ele>52.2778713</ele>
        <time>2019-09-10T15:45:53.000Z</time>
      </trkpt>
      <trkpt lat="10.1594695431515" lon="-75.6813742248067">
        <ele>52.2778713</ele>
        <time>2019-09-10T15:45:53.100Z</time>
      </trkpt>
      <trkpt lat="10.1594712722724" lon="-75.6813763255123">
        <ele>52.2778713</ele>
        <time>2019-09-10T15:45:53.200Z</time>
      </trkpt>
      <trkpt lat="10.1594730072297" lon="-75.68137842956">
        <ele>52.2778713</ele>
        <time>2019-09-10T15:45:53.300Z</time>
      </trkpt>
      <trkpt lat="10.1594747456262" lon="-75.681380501196">
        <ele>52.2778713</ele>
        <time>2019-09-10T15:45:53.400Z</time>
      </trkpt>
      <trkpt lat="10.1594764866283" lon="-75.6813825798471">
        <ele>52.2778713</ele>
        <time>2019-09-10T15:45:53.500Z</time>
      </trkpt>
      <trkpt lat="10.1594782233573" lon="-75.6813846634765">
        <ele>52.2778713</ele>
        <time>2019-09-10T15:45:53.600Z</time>
      </trkpt>
      <trkpt lat="10.1594799606074" lon="-75.6813867618235">
        <ele>52.2778713</ele>
        <time>2019-09-10T15:45:53.700Z</time>
      </trkpt>
      <trkpt lat="10.1594817000461" lon="-75.6813888630599">
        <ele>52.2778713</ele>
        <time>2019-09-10T15:45:53.800Z</time>
      </trkpt>
      <trkpt lat="10.1594834395891" lon="-75.6813909663417">
        <ele>52.2778713</ele>
        <time>2019-09-10T15:45:53.900Z</time>
      </trkpt>
      <trkpt lat="10.1594851773603" lon="-75.6813930995982">
        <ele>52.2778713</ele>
        <time>2019-09-10T15:45:54.000Z</time>
      </trkpt>
      <trkpt lat="10.1594869176328" lon="-75.6813952302349">
        <ele>52.2778713</ele>
        <time>2019-09-10T15:45:54.100Z</time>
      </trkpt>
      <trkpt lat="10.159488655404" lon="-75.6813973849192">
        <ele>52.2778713</ele>
        <time>2019-09-10T15:45:54.200Z</time>
      </trkpt>
      <trkpt lat="10.1594903951554" lon="-75.6813995297773">
        <ele>52.2778713</ele>
        <time>2019-09-10T15:45:54.300Z</time>
      </trkpt>
      <trkpt lat="10.1594921348026" lon="-75.6814016604923">
        <ele>52.2778713</ele>
        <time>2019-09-10T15:45:54.400Z</time>
      </trkpt>
      <trkpt lat="10.1594938719485" lon="-75.6814037836615">
        <ele>52.2778713</ele>
        <time>2019-09-10T15:45:54.500Z</time>
      </trkpt>
      <trkpt lat="10.159495548855" lon="-75.6814058558285">
        <ele>52.2778713</ele>
        <time>2019-09-10T15:45:54.600Z</time>
      </trkpt>
      <trkpt lat="10.1594972360793" lon="-75.6814079293184">
        <ele>52.2778713</ele>
        <time>2019-09-10T15:45:54.700Z</time>
      </trkpt>
      <trkpt lat="10.1594989879203" lon="-75.6814100362904">
        <ele>52.2778713</ele>
        <time>2019-09-10T15:45:54.800Z</time>
      </trkpt>
      <trkpt lat="10.1595007487242" lon="-75.6814121556388">
        <ele>52.2778713</ele>
        <time>2019-09-10T15:45:54.900Z</time>
      </trkpt>
      <trkpt lat="10.1595025130716" lon="-75.6814142719409">
        <ele>52.2778713</ele>
        <time>2019-09-10T15:45:55.000Z</time>
      </trkpt>
      <trkpt lat="10.1595042688729" lon="-75.6814163914372">
        <ele>52.2778713</ele>
        <time>2019-09-10T15:45:55.100Z</time>
      </trkpt>
      <trkpt lat="10.1595060476028" lon="-75.6814185765487">
        <ele>52.2778713</ele>
        <time>2019-09-10T15:45:55.200Z</time>
      </trkpt>
      <trkpt lat="10.1595094928171" lon="-75.681422874159">
        <ele>52.2778713</ele>
        <time>2019-09-10T15:45:55.400Z</time>
      </trkpt>
      <trkpt lat="10.1595111819173" lon="-75.6814249873192">
        <ele>52.3778713</ele>
        <time>2019-09-10T15:45:55.500Z</time>
      </trkpt>
      <trkpt lat="10.159512891549" lon="-75.6814270713664">
        <ele>52.2778713</ele>
        <time>2019-09-10T15:45:55.600Z</time>
      </trkpt>
      <trkpt lat="10.1595146245261" lon="-75.6814291594258">
        <ele>52.2778713</ele>
        <time>2019-09-10T15:45:55.700Z</time>
      </trkpt>
      <trkpt lat="10.1595163746996" lon="-75.6814312313491">
        <ele>52.2778713</ele>
        <time>2019-09-10T15:45:55.800Z</time>
      </trkpt>
      <trkpt lat="10.1595181297714" lon="-75.6814333148828">
        <ele>52.2778713</ele>
        <time>2019-09-10T15:45:55.900Z</time>
      </trkpt>
      <trkpt lat="10.1595198468027" lon="-75.6814353985036">
        <ele>52.2778713</ele>
        <time>2019-09-10T15:45:56.000Z</time>
      </trkpt>
      <trkpt lat="10.1595215658143" lon="-75.6814374969201">
        <ele>52.2778713</ele>
        <time>2019-09-10T15:45:56.100Z</time>
      </trkpt>
      <trkpt lat="10.1595232764882" lon="-75.6814396012724">
        <ele>52.2778713</ele>
        <time>2019-09-10T15:45:56.200Z</time>
      </trkpt>
      <trkpt lat="10.1595249943533" lon="-75.6814417192717">
        <ele>52.2778713</ele>
        <time>2019-09-10T15:45:56.300Z</time>
      </trkpt>
      <trkpt lat="10.1595267140944" lon="-75.6814438297339">
        <ele>52.2778713</ele>
        <time>2019-09-10T15:45:56.400Z</time>
      </trkpt>
      <trkpt lat="10.1595284436322" lon="-75.6814459432248">
        <ele>52.2778713</ele>
        <time>2019-09-10T15:45:56.500Z</time>
      </trkpt>
      <trkpt lat="10.1595301803612" lon="-75.681448039657">
        <ele>52.2778713</ele>
        <time>2019-09-10T15:45:56.600Z</time>
      </trkpt>
      <trkpt lat="10.159531921259" lon="-75.6814501437656">
        <ele>52.2778713</ele>
        <time>2019-09-10T15:45:56.700Z</time>
      </trkpt>
      <trkpt lat="10.1595336326624" lon="-75.6814522019201">
        <ele>52.3778713</ele>
        <time>2019-09-10T15:45:56.800Z</time>
      </trkpt>
      <trkpt lat="10.1595353487558" lon="-75.6814542681339">
        <ele>52.3778713</ele>
        <time>2019-09-10T15:45:56.900Z</time>
      </trkpt>
      <trkpt lat="10.1595371005968" lon="-75.6814563240603">
        <ele>52.3778713</ele>
        <time>2019-09-10T15:45:57.000Z</time>
      </trkpt>
      <trkpt lat="10.1595388603585" lon="-75.6814583912141">
        <ele>52.3778713</ele>
        <time>2019-09-10T15:45:57.100Z</time>
      </trkpt>
      <trkpt lat="10.1595406205371" lon="-75.6814604547821">
        <ele>52.3778713</ele>
        <time>2019-09-10T15:45:57.200Z</time>
      </trkpt>
      <trkpt lat="10.1595423760258" lon="-75.681462529682">
        <ele>52.3778713</ele>
        <time>2019-09-10T15:45:57.300Z</time>
      </trkpt>
      <trkpt lat="10.1595441213009" lon="-75.6814646127457">
        <ele>52.3778713</ele>
        <time>2019-09-10T15:45:57.400Z</time>
      </trkpt>
      <trkpt lat="10.1595458654295" lon="-75.681466704095">
        <ele>52.3778713</ele>
        <time>2019-09-10T15:45:57.500Z</time>
      </trkpt>
      <trkpt lat="10.1595476063273" lon="-75.6814687742254">
        <ele>52.3778713</ele>
        <time>2019-09-10T15:45:57.600Z</time>
      </trkpt>
      <trkpt lat="10.1595493520193" lon="-75.6814708502393">
        <ele>52.3778713</ele>
        <time>2019-09-10T15:45:57.700Z</time>
      </trkpt>
      <trkpt lat="10.1595511288732" lon="-75.6814729684649">
        <ele>52.3778713</ele>
        <time>2019-09-10T15:45:57.800Z</time>
      </trkpt>
      <trkpt lat="10.1595529082283" lon="-75.6814750865861">
        <ele>52.3778713</ele>
        <time>2019-09-10T15:45:57.900Z</time>
      </trkpt>
      <trkpt lat="10.1595546467291" lon="-75.6814771725741">
        <ele>52.3778713</ele>
        <time>2019-09-10T15:45:58.000Z</time>
      </trkpt>
      <trkpt lat="10.1595563888776" lon="-75.6814792563689">
        <ele>52.3778713</ele>
        <time>2019-09-10T15:45:58.100Z</time>
      </trkpt>
      <trkpt lat="10.1595581181027" lon="-75.6814813745075">
        <ele>52.3778713</ele>
        <time>2019-09-10T15:45:58.200Z</time>
      </trkpt>
      <trkpt lat="10.1595598574372" lon="-75.6814834937253">
        <ele>52.3778713</ele>
        <time>2019-09-10T15:45:58.300Z</time>
      </trkpt>
      <trkpt lat="10.1595615856202" lon="-75.681485611742">
        <ele>52.3778713</ele>
        <time>2019-09-10T15:45:58.400Z</time>
      </trkpt>
      <trkpt lat="10.1595633235998" lon="-75.6814877207593">
        <ele>52.3778713</ele>
        <time>2019-09-10T15:45:58.500Z</time>
      </trkpt>
      <trkpt lat="10.1595650485519" lon="-75.6814897918645">
        <ele>52.3778713</ele>
        <time>2019-09-10T15:45:58.600Z</time>
      </trkpt>
      <trkpt lat="10.1595667770475" lon="-75.6814918622734">
        <ele>52.3778713</ele>
        <time>2019-09-10T15:45:58.700Z</time>
      </trkpt>
      <trkpt lat="10.1595684374872" lon="-75.6814938707661">
        <ele>52.3778713</ele>
        <time>2019-09-10T15:45:58.800Z</time>
      </trkpt>
      <trkpt lat="10.1595718660262" lon="-75.681498025022">
        <ele>52.2778713</ele>
        <time>2019-09-10T15:45:59.000Z</time>
      </trkpt>
      <trkpt lat="10.1595736393366" lon="-75.6815001722996">
        <ele>52.2778713</ele>
        <time>2019-09-10T15:45:59.100Z</time>
      </trkpt>
      <trkpt lat="10.1595753875298" lon="-75.6815022953992">
        <ele>52.2778713</ele>
        <time>2019-09-10T15:45:59.200Z</time>
      </trkpt>
      <trkpt lat="10.1595771300952" lon="-75.6815044087509">
        <ele>52.2778713</ele>
        <time>2019-09-10T15:45:59.300Z</time>
      </trkpt>
      <trkpt lat="10.1595788713057" lon="-75.6815065605891">
        <ele>52.2778713</ele>
        <time>2019-09-10T15:45:59.400Z</time>
      </trkpt>
      <trkpt lat="10.1595806135584" lon="-75.6815087043506">
        <ele>52.2778713</ele>
        <time>2019-09-10T15:45:59.500Z</time>
      </trkpt>
      <trkpt lat="10.1595823564364" lon="-75.6815108419152">
        <ele>52.2778713</ele>
        <time>2019-09-10T15:45:59.600Z</time>
      </trkpt>
      <trkpt lat="10.1595841010861" lon="-75.6815129679565">
        <ele>52.2778713</ele>
        <time>2019-09-10T15:45:59.700Z</time>
      </trkpt>
      <trkpt lat="10.1595858836721" lon="-75.6815150790279">
        <ele>52.2778713</ele>
        <time>2019-09-10T15:45:59.800Z</time>
      </trkpt>
      <trkpt lat="10.1595876662581" lon="-75.6815171860609">
        <ele>52.2778713</ele>
        <time>2019-09-10T15:45:59.900Z</time>
      </trkpt>
      <trkpt lat="10.1595894124712" lon="-75.6815192808916">
        <ele>52.2778713</ele>
        <time>2019-09-10T15:46:00.000Z</time>
      </trkpt>
      <trkpt lat="10.1595928965597" lon="-75.6815234569758">
        <ele>52.2778713</ele>
        <time>2019-09-10T15:46:00.200Z</time>
      </trkpt>
      <trkpt lat="10.1595946449614" lon="-75.6815255403876">
        <ele>52.2778713</ele>
        <time>2019-09-10T15:46:00.300Z</time>
      </trkpt>
      <trkpt lat="10.1595964464113" lon="-75.6815276600057">
        <ele>52.2778713</ele>
        <time>2019-09-10T15:46:00.400Z</time>
      </trkpt>
      <trkpt lat="10.1595982496329" lon="-75.6815297786665">
        <ele>52.2778713</ele>
        <time>2019-09-10T15:46:00.500Z</time>
      </trkpt>
      <trkpt lat="10.1596000324273" lon="-75.681531865786">
        <ele>52.2778713</ele>
        <time>2019-09-10T15:46:00.600Z</time>
      </trkpt>
      <trkpt lat="10.1596018074052" lon="-75.6815339484319">
        <ele>52.2778713</ele>
        <time>2019-09-10T15:46:00.700Z</time>
      </trkpt>
      <trkpt lat="10.1596035593504" lon="-75.681536000111">
        <ele>52.2778713</ele>
        <time>2019-09-10T15:46:00.800Z</time>
      </trkpt>
      <trkpt lat="10.1596053098365" lon="-75.6815380584396">
        <ele>52.3778713</ele>
        <time>2019-09-10T15:46:00.900Z</time>
      </trkpt>
      <trkpt lat="10.159607034476" lon="-75.6815401295273">
        <ele>52.3778713</ele>
        <time>2019-09-10T15:46:01.000Z</time>
      </trkpt>
      <trkpt lat="10.1596087685995" lon="-75.6815422122777">
        <ele>52.3778713</ele>
        <time>2019-09-10T15:46:01.100Z</time>
      </trkpt>
      <trkpt lat="10.1596105212742" lon="-75.6815443063426">
        <ele>52.3778713</ele>
        <time>2019-09-10T15:46:01.200Z</time>
      </trkpt>
      <trkpt lat="10.159612283433" lon="-75.6815464035058">
        <ele>52.3778713</ele>
        <time>2019-09-10T15:46:01.300Z</time>
      </trkpt>
      <trkpt lat="10.1596140323558" lon="-75.6815485074578">
        <ele>52.3778713</ele>
        <time>2019-09-10T15:46:01.400Z</time>
      </trkpt>
      <trkpt lat="10.1596157801322" lon="-75.6815506064836">
        <ele>52.3778713</ele>
        <time>2019-09-10T15:46:01.500Z</time>
      </trkpt>
      <trkpt lat="10.1596175428121" lon="-75.6815527421509">
        <ele>52.3778713</ele>
        <time>2019-09-10T15:46:01.600Z</time>
      </trkpt>
      <trkpt lat="10.1596193080975" lon="-75.6815548684359">
        <ele>52.3778713</ele>
        <time>2019-09-10T15:46:01.700Z</time>
      </trkpt>
      <trkpt lat="10.1596210615017" lon="-75.6815569593153">
        <ele>52.3778713</ele>
        <time>2019-09-10T15:46:01.800Z</time>
      </trkpt>
      <trkpt lat="10.1596228170946" lon="-75.6815590418219">
        <ele>52.3778713</ele>
        <time>2019-09-10T15:46:01.900Z</time>
      </trkpt>
      <trkpt lat="10.1596245607022" lon="-75.6815611277578">
        <ele>52.3778713</ele>
        <time>2019-09-10T15:46:02.000Z</time>
      </trkpt>
      <trkpt lat="10.159626302538" lon="-75.6815632203605">
        <ele>52.3778713</ele>
        <time>2019-09-10T15:46:02.100Z</time>
      </trkpt>
      <trkpt lat="10.1596280311378" lon="-75.6815652864873">
        <ele>52.3778713</ele>
        <time>2019-09-10T15:46:02.200Z</time>
      </trkpt>
      <trkpt lat="10.1596297651571" lon="-75.6815673596465">
        <ele>52.3778713</ele>
        <time>2019-09-10T15:46:02.300Z</time>
      </trkpt>
      <trkpt lat="10.1596314876079" lon="-75.6815694432672">
        <ele>52.3778713</ele>
        <time>2019-09-10T15:46:02.400Z</time>
      </trkpt>
      <trkpt lat="10.1596332161035" lon="-75.6815715318663">
        <ele>52.3778713</ele>
        <time>2019-09-10T15:46:02.500Z</time>
      </trkpt>
      <trkpt lat="10.1596349399092" lon="-75.681573627167">
        <ele>52.3778713</ele>
        <time>2019-09-10T15:46:02.600Z</time>
      </trkpt>
      <trkpt lat="10.1596366710103" lon="-75.681575728769">
        <ele>52.3778713</ele>
        <time>2019-09-10T15:46:02.700Z</time>
      </trkpt>
      <trkpt lat="10.1596384111786" lon="-75.6815778337132">
        <ele>52.3778713</ele>
        <time>2019-09-10T15:46:02.800Z</time>
      </trkpt>
      <trkpt lat="10.1596401596845" lon="-75.6815799322516">
        <ele>52.3778713</ele>
        <time>2019-09-10T15:46:02.900Z</time>
      </trkpt>
      <trkpt lat="10.1596419073566" lon="-75.6815819964636">
        <ele>52.3778713</ele>
        <time>2019-09-10T15:46:03.000Z</time>
      </trkpt>
      <trkpt lat="10.1596436586765" lon="-75.6815840636">
        <ele>52.3778713</ele>
        <time>2019-09-10T15:46:03.100Z</time>
      </trkpt>
      <trkpt lat="10.1596454028052" lon="-75.6815861389177">
        <ele>52.3778713</ele>
        <time>2019-09-10T15:46:03.200Z</time>
      </trkpt>
      <trkpt lat="10.1596471508942" lon="-75.6815882223121">
        <ele>52.4778713</ele>
        <time>2019-09-10T15:46:03.300Z</time>
      </trkpt>
      <trkpt lat="10.159648891792" lon="-75.6815903166032">
        <ele>52.3778713</ele>
        <time>2019-09-10T15:46:03.400Z</time>
      </trkpt>
      <trkpt lat="10.1596506361291" lon="-75.6815924165342">
        <ele>52.3778713</ele>
        <time>2019-09-10T15:46:03.500Z</time>
      </trkpt>
      <trkpt lat="10.159652367126" lon="-75.6815944894845">
        <ele>52.3778713</ele>
        <time>2019-09-10T15:46:03.600Z</time>
      </trkpt>
      <trkpt lat="10.1596541027086" lon="-75.6815965616341">
        <ele>52.3778713</ele>
        <time>2019-09-10T15:46:03.700Z</time>
      </trkpt>
      <trkpt lat="10.1596558606986" lon="-75.6815986399457">
        <ele>52.3778713</ele>
        <time>2019-09-10T15:46:03.800Z</time>
      </trkpt>
      <trkpt lat="10.1596593654227" lon="-75.6816028246289">
        <ele>52.3778713</ele>
        <time>2019-09-10T15:46:04.000Z</time>
      </trkpt>
      <trkpt lat="10.15966111174" lon="-75.6816049283545">
        <ele>52.3778713</ele>
        <time>2019-09-10T15:46:04.100Z</time>
      </trkpt>
      <trkpt lat="10.1596628488859" lon="-75.6816070794269">
        <ele>52.3778713</ele>
        <time>2019-09-10T15:46:04.200Z</time>
      </trkpt>
      <trkpt lat="10.1596645847811" lon="-75.6816092278883">
        <ele>52.3778713</ele>
        <time>2019-09-10T15:46:04.300Z</time>
      </trkpt>
      <trkpt lat="10.1596662854499" lon="-75.6816113384374">
        <ele>52.3778713</ele>
        <time>2019-09-10T15:46:04.400Z</time>
      </trkpt>
      <trkpt lat="10.1596679915381" lon="-75.681613444043">
        <ele>52.3778713</ele>
        <time>2019-09-10T15:46:04.500Z</time>
      </trkpt>
      <trkpt lat="10.1596697017951" lon="-75.6816155348876">
        <ele>52.3778713</ele>
        <time>2019-09-10T15:46:04.600Z</time>
      </trkpt>
      <trkpt lat="10.1596714246628" lon="-75.681617627821">
        <ele>52.3778713</ele>
        <time>2019-09-10T15:46:04.700Z</time>
      </trkpt>
      <trkpt lat="10.159673124602" lon="-75.6816196703441">
        <ele>52.3778713</ele>
        <time>2019-09-10T15:46:04.800Z</time>
      </trkpt>
      <trkpt lat="10.159674823499" lon="-75.6816217124494">
        <ele>52.3778713</ele>
        <time>2019-09-10T15:46:04.900Z</time>
      </trkpt>
      <trkpt lat="10.1596764384986" lon="-75.6816236893834">
        <ele>52.3778713</ele>
        <time>2019-09-10T15:46:05.000Z</time>
      </trkpt>
      <trkpt lat="10.1596779620968" lon="-75.6816255631294">
        <ele>52.3778713</ele>
        <time>2019-09-10T15:46:05.100Z</time>
      </trkpt>
      <trkpt lat="10.1596793120639" lon="-75.6816272440768">
        <ele>52.3778713</ele>
        <time>2019-09-10T15:46:05.200Z</time>
      </trkpt>
      <trkpt lat="10.159680516435" lon="-75.6816287397454">
        <ele>52.3778713</ele>
        <time>2019-09-10T15:46:05.300Z</time>
      </trkpt>
      <trkpt lat="10.1596815201818" lon="-75.6816299583313">
        <ele>52.3778713</ele>
        <time>2019-09-10T15:46:05.400Z</time>
      </trkpt>
      <trkpt lat="10.1596823790623" lon="-75.6816310113778">
        <ele>52.4778713</ele>
        <time>2019-09-10T15:46:05.500Z</time>
      </trkpt>
      <trkpt lat="10.1596830774433" lon="-75.6816318290833">
        <ele>52.5778713</ele>
        <time>2019-09-10T15:46:05.600Z</time>
      </trkpt>
      <trkpt lat="10.1596836576383" lon="-75.6816325161328">
        <ele>52.6778713</ele>
        <time>2019-09-10T15:46:05.700Z</time>
      </trkpt>
      <trkpt lat="10.1596841415337" lon="-75.6816329630718">
        <ele>52.8778713</ele>
        <time>2019-09-10T15:46:05.800Z</time>
      </trkpt>
      <trkpt lat="10.1596844894215" lon="-75.681633276326">
        <ele>52.9778713</ele>
        <time>2019-09-10T15:46:05.900Z</time>
      </trkpt>
      <trkpt lat="10.1596847734221" lon="-75.681633368095">
        <ele>53.1778713</ele>
        <time>2019-09-10T15:46:06.000Z</time>
      </trkpt>
      <trkpt lat="10.1596848851464" lon="-75.6816333397566">
        <ele>53.3778713</ele>
        <time>2019-09-10T15:46:06.100Z</time>
      </trkpt>
      <trkpt lat="10.1596848894194" lon="-75.6816331175404">
        <ele>53.5778713</ele>
        <time>2019-09-10T15:46:06.200Z</time>
      </trkpt>
      <trkpt lat="10.1596847582059" lon="-75.6816328363845">
        <ele>53.7778713</ele>
        <time>2019-09-10T15:46:06.300Z</time>
      </trkpt>
      <trkpt lat="10.1596846200096" lon="-75.681632481702">
        <ele>54.0778713</ele>
        <time>2019-09-10T15:46:06.400Z</time>
      </trkpt>
      <trkpt lat="10.1596844048987" lon="-75.6816321342955">
        <ele>54.2778713</ele>
        <time>2019-09-10T15:46:06.500Z</time>
      </trkpt>
      <trkpt lat="10.15968424096" lon="-75.6816317783596">
        <ele>54.5778713</ele>
        <time>2019-09-10T15:46:06.600Z</time>
      </trkpt>
      <trkpt lat="10.1596840294968" lon="-75.6816314364189">
        <ele>54.8778713</ele>
        <time>2019-09-10T15:46:06.700Z</time>
      </trkpt>
      <trkpt lat="10.1596839193358" lon="-75.6816311299186">
        <ele>55.2778713</ele>
        <time>2019-09-10T15:46:06.800Z</time>
      </trkpt>
      <trkpt lat="10.1596837509156" lon="-75.681630836369">
        <ele>55.5778713</ele>
        <time>2019-09-10T15:46:06.900Z</time>
      </trkpt>
      <trkpt lat="10.1596836179303" lon="-75.6816305627677">
        <ele>55.8778713</ele>
        <time>2019-09-10T15:46:07.000Z</time>
      </trkpt>
      <trkpt lat="10.1596832414862" lon="-75.6816300675768">
        <ele>56.4778713</ele>
        <time>2019-09-10T15:46:07.200Z</time>
      </trkpt>
      <trkpt lat="10.1596830077198" lon="-75.6816298403126">
        <ele>56.7778713</ele>
        <time>2019-09-10T15:46:07.300Z</time>
      </trkpt>
      <trkpt lat="10.1596827951102" lon="-75.6816296416305">
        <ele>57.0778713</ele>
        <time>2019-09-10T15:46:07.400Z</time>
      </trkpt>
      <trkpt lat="10.1596825644704" lon="-75.6816294460817">
        <ele>57.3778713</ele>
        <time>2019-09-10T15:46:07.500Z</time>
      </trkpt>
      <trkpt lat="10.1596823267436" lon="-75.6816292563119">
        <ele>57.5778713</ele>
        <time>2019-09-10T15:46:07.600Z</time>
      </trkpt>
      <trkpt lat="10.1596820698403" lon="-75.6816290671339">
        <ele>57.7778713</ele>
        <time>2019-09-10T15:46:07.700Z</time>
      </trkpt>
      <trkpt lat="10.1596817399827" lon="-75.6816288469021">
        <ele>57.9778713</ele>
        <time>2019-09-10T15:46:07.800Z</time>
      </trkpt>
      <trkpt lat="10.1596807056993" lon="-75.6816282967751">
        <ele>58.2778713</ele>
        <time>2019-09-10T15:46:08.000Z</time>
      </trkpt>
      <trkpt lat="10.1596799705285" lon="-75.68162795567">
        <ele>58.3778713</ele>
        <time>2019-09-10T15:46:08.100Z</time>
      </trkpt>
      <trkpt lat="10.1596790888237" lon="-75.6816275315688">
        <ele>58.4778713</ele>
        <time>2019-09-10T15:46:08.200Z</time>
      </trkpt>
      <trkpt lat="10.1596780735084" lon="-75.6816270719575">
        <ele>58.5778713</ele>
        <time>2019-09-10T15:46:08.300Z</time>
      </trkpt>
      <trkpt lat="10.159676836829" lon="-75.6816265127094">
        <ele>58.5778713</ele>
        <time>2019-09-10T15:46:08.400Z</time>
      </trkpt>
      <trkpt lat="10.1596754473624" lon="-75.6816259198659">
        <ele>58.5778713</ele>
        <time>2019-09-10T15:46:08.500Z</time>
      </trkpt>
      <trkpt lat="10.1596738250674" lon="-75.681625200927">
        <ele>58.6778713</ele>
        <time>2019-09-10T15:46:08.600Z</time>
      </trkpt>
      <trkpt lat="10.159672042273" lon="-75.6816244579318">
        <ele>58.6778713</ele>
        <time>2019-09-10T15:46:08.700Z</time>
      </trkpt>
      <trkpt lat="10.159669979751" lon="-75.6816235973358">
        <ele>58.6778713</ele>
        <time>2019-09-10T15:46:08.800Z</time>
      </trkpt>
      <trkpt lat="10.1596677515185" lon="-75.6816227233016">
        <ele>58.6778713</ele>
        <time>2019-09-10T15:46:08.900Z</time>
      </trkpt>
      <trkpt lat="10.1596652232354" lon="-75.6816217394649">
        <ele>58.6778713</ele>
        <time>2019-09-10T15:46:09.000Z</time>
      </trkpt>
      <trkpt lat="10.159662579893" lon="-75.6816207562548">
        <ele>58.6778713</ele>
        <time>2019-09-10T15:46:09.100Z</time>
      </trkpt>
      <trkpt lat="10.1596598503603" lon="-75.6816197824444">
        <ele>58.6778713</ele>
        <time>2019-09-10T15:46:09.200Z</time>
      </trkpt>
      <trkpt lat="10.1596570679879" lon="-75.6816188236387">
        <ele>58.6778713</ele>
        <time>2019-09-10T15:46:09.300Z</time>
      </trkpt>
      <trkpt lat="10.1596542965586" lon="-75.6816178406723">
        <ele>58.6778713</ele>
        <time>2019-09-10T15:46:09.400Z</time>
      </trkpt>
      <trkpt lat="10.1596514911534" lon="-75.6816168853132">
        <ele>58.6778713</ele>
        <time>2019-09-10T15:46:09.500Z</time>
      </trkpt>
      <trkpt lat="10.1596487284786" lon="-75.6816159090659">
        <ele>58.6778713</ele>
        <time>2019-09-10T15:46:09.600Z</time>
      </trkpt>
      <trkpt lat="10.1596459335997" lon="-75.681614975152">
        <ele>58.6778713</ele>
        <time>2019-09-10T15:46:09.700Z</time>
      </trkpt>
      <trkpt lat="10.1596432194917" lon="-75.6816140568696">
        <ele>58.6778713</ele>
        <time>2019-09-10T15:46:09.800Z</time>
      </trkpt>
      <trkpt lat="10.1596404667178" lon="-75.6816131852724">
        <ele>58.5778713</ele>
        <time>2019-09-10T15:46:09.900Z</time>
      </trkpt>
      <trkpt lat="10.1596377438552" lon="-75.6816123738682">
        <ele>58.5778713</ele>
        <time>2019-09-10T15:46:10.000Z</time>
      </trkpt>
      <trkpt lat="10.1596349834733" lon="-75.6816115967207">
        <ele>58.5778713</ele>
        <time>2019-09-10T15:46:10.100Z</time>
      </trkpt>
      <trkpt lat="10.1596322495634" lon="-75.681610894562">
        <ele>58.5778713</ele>
        <time>2019-09-10T15:46:10.200Z</time>
      </trkpt>
      <trkpt lat="10.1596294898068" lon="-75.6816102008283">
        <ele>58.5778713</ele>
        <time>2019-09-10T15:46:10.300Z</time>
      </trkpt>
      <trkpt lat="10.159626720983" lon="-75.6816095361641">
        <ele>58.5778713</ele>
        <time>2019-09-10T15:46:10.400Z</time>
      </trkpt>
      <trkpt lat="10.1596239328784" lon="-75.6816088622394">
        <ele>58.5778713</ele>
        <time>2019-09-10T15:46:10.500Z</time>
      </trkpt>
      <trkpt lat="10.1596210925594" lon="-75.681608206766">
        <ele>58.5778713</ele>
        <time>2019-09-10T15:46:10.600Z</time>
      </trkpt>
      <trkpt lat="10.1596182491138" lon="-75.6816075400477">
        <ele>58.4778713</ele>
        <time>2019-09-10T15:46:10.700Z</time>
      </trkpt>
      <trkpt lat="10.1596153408431" lon="-75.6816068973858">
        <ele>58.4778713</ele>
        <time>2019-09-10T15:46:10.800Z</time>
      </trkpt>
      <trkpt lat="10.1596124559178" lon="-75.6816062379436">
        <ele>58.4778713</ele>
        <time>2019-09-10T15:46:10.900Z</time>
      </trkpt>
      <trkpt lat="10.159609578809" lon="-75.6816056378589">
        <ele>58.4778713</ele>
        <time>2019-09-10T15:46:11.000Z</time>
      </trkpt>
      <trkpt lat="10.1596067307777" lon="-75.6816050104802">
        <ele>58.4778713</ele>
        <time>2019-09-10T15:46:11.100Z</time>
      </trkpt>
      <trkpt lat="10.1596038620065" lon="-75.6816043615518">
        <ele>58.4778713</ele>
        <time>2019-09-10T15:46:11.200Z</time>
      </trkpt>
      <trkpt lat="10.1596010241888" lon="-75.6816036896811">
        <ele>58.4778713</ele>
        <time>2019-09-10T15:46:11.300Z</time>
      </trkpt>
      <trkpt lat="10.1595981995029" lon="-75.6816030634861">
        <ele>58.4778713</ele>
        <time>2019-09-10T15:46:11.400Z</time>
      </trkpt>
      <trkpt lat="10.159595397537" lon="-75.6816024086045">
        <ele>58.4778713</ele>
        <time>2019-09-10T15:46:11.500Z</time>
      </trkpt>
      <trkpt lat="10.1595926724858" lon="-75.6816017707468">
        <ele>58.4778713</ele>
        <time>2019-09-10T15:46:11.600Z</time>
      </trkpt>
      <trkpt lat="10.1595899587946" lon="-75.6816011059434">
        <ele>58.4778713</ele>
        <time>2019-09-10T15:46:11.700Z</time>
      </trkpt>
      <trkpt lat="10.1595872218623" lon="-75.6816004909583">
        <ele>58.3778713</ele>
        <time>2019-09-10T15:46:11.800Z</time>
      </trkpt>
      <trkpt lat="10.1595844926422" lon="-75.6815998391404">
        <ele>58.4778713</ele>
        <time>2019-09-10T15:46:11.900Z</time>
      </trkpt>
      <trkpt lat="10.1595817050588" lon="-75.6815991600981">
        <ele>58.4778713</ele>
        <time>2019-09-10T15:46:12.000Z</time>
      </trkpt>
      <trkpt lat="10.1595789481161" lon="-75.681598443074">
        <ele>58.4778713</ele>
        <time>2019-09-10T15:46:12.100Z</time>
      </trkpt>
      <trkpt lat="10.1595762561028" lon="-75.6815977663641">
        <ele>58.4778713</ele>
        <time>2019-09-10T15:46:12.200Z</time>
      </trkpt>
      <trkpt lat="10.1595735874348" lon="-75.681597067095">
        <ele>58.4778713</ele>
        <time>2019-09-10T15:46:12.300Z</time>
      </trkpt>
      <trkpt lat="10.1595709098039" lon="-75.6815963798019">
        <ele>58.4778713</ele>
        <time>2019-09-10T15:46:12.400Z</time>
      </trkpt>
      <trkpt lat="10.1595682469723" lon="-75.6815956576253">
        <ele>58.3778713</ele>
        <time>2019-09-10T15:46:12.500Z</time>
      </trkpt>
      <trkpt lat="10.1595655915403" lon="-75.6815949451618">
        <ele>58.3778713</ele>
        <time>2019-09-10T15:46:12.600Z</time>
      </trkpt>
      <trkpt lat="10.1595603508167" lon="-75.6815934913045">
        <ele>58.3778713</ele>
        <time>2019-09-10T15:46:12.800Z</time>
      </trkpt>
      <trkpt lat="10.1595577556241" lon="-75.6815927525566">
        <ele>58.3778713</ele>
        <time>2019-09-10T15:46:12.900Z</time>
      </trkpt>
      <trkpt lat="10.1595551126986" lon="-75.6815920374472">
        <ele>58.3778713</ele>
        <time>2019-09-10T15:46:13.000Z</time>
      </trkpt>
      <trkpt lat="10.1595524713364" lon="-75.6815912874545">
        <ele>58.3778713</ele>
        <time>2019-09-10T15:46:13.100Z</time>
      </trkpt>
      <trkpt lat="10.1595497818243" lon="-75.6815905474881">
        <ele>58.3778713</ele>
        <time>2019-09-10T15:46:13.200Z</time>
      </trkpt>
      <trkpt lat="10.159547105444" lon="-75.6815897762937">
        <ele>58.3778713</ele>
        <time>2019-09-10T15:46:13.300Z</time>
      </trkpt>
      <trkpt lat="10.1595444253118" lon="-75.6815890561712">
        <ele>58.3778713</ele>
        <time>2019-09-10T15:46:13.400Z</time>
      </trkpt>
      <trkpt lat="10.1595417626886" lon="-75.6815883076406">
        <ele>58.4778713</ele>
        <time>2019-09-10T15:46:13.500Z</time>
      </trkpt>
      <trkpt lat="10.1595390730724" lon="-75.681587590895">
        <ele>58.4778713</ele>
        <time>2019-09-10T15:46:13.600Z</time>
      </trkpt>
      <trkpt lat="10.1595364057593" lon="-75.6815868434785">
        <ele>58.4778713</ele>
        <time>2019-09-10T15:46:13.700Z</time>
      </trkpt>
      <trkpt lat="10.1595337290663" lon="-75.6815860823802">
        <ele>58.4778713</ele>
        <time>2019-09-10T15:46:13.800Z</time>
      </trkpt>
      <trkpt lat="10.1595310915603" lon="-75.6815852932915">
        <ele>58.3778713</ele>
        <time>2019-09-10T15:46:13.900Z</time>
      </trkpt>
      <trkpt lat="10.1595284737519" lon="-75.6815844911826">
        <ele>58.3778713</ele>
        <time>2019-09-10T15:46:14.000Z</time>
      </trkpt>
      <trkpt lat="10.1595258787677" lon="-75.6815836674195">
        <ele>58.3778713</ele>
        <time>2019-09-10T15:46:14.100Z</time>
      </trkpt>
      <trkpt lat="10.1595233116104" lon="-75.6815828802108">
        <ele>58.3778713</ele>
        <time>2019-09-10T15:46:14.200Z</time>
      </trkpt>
      <trkpt lat="10.1595207584187" lon="-75.6815820854476">
        <ele>58.3778713</ele>
        <time>2019-09-10T15:46:14.300Z</time>
      </trkpt>
      <trkpt lat="10.1595182105422" lon="-75.6815813108415">
        <ele>58.3778713</ele>
        <time>2019-09-10T15:46:14.400Z</time>
      </trkpt>
      <trkpt lat="10.1595156634994" lon="-75.6815805187241">
        <ele>58.3778713</ele>
        <time>2019-09-10T15:46:14.500Z</time>
      </trkpt>
      <trkpt lat="10.1595131317771" lon="-75.6815797279645">
        <ele>58.3778713</ele>
        <time>2019-09-10T15:46:14.600Z</time>
      </trkpt>
      <trkpt lat="10.1595106009927" lon="-75.6815789173958">
        <ele>58.3778713</ele>
        <time>2019-09-10T15:46:14.700Z</time>
      </trkpt>
      <trkpt lat="10.1595080806304" lon="-75.6815781161572">
        <ele>58.3778713</ele>
        <time>2019-09-10T15:46:14.800Z</time>
      </trkpt>
      <trkpt lat="10.1595055611019" lon="-75.681577302873">
        <ele>58.3778713</ele>
        <time>2019-09-10T15:46:14.900Z</time>
      </trkpt>
      <trkpt lat="10.159503045221" lon="-75.6815765070305">
        <ele>58.3778713</ele>
        <time>2019-09-10T15:46:15.000Z</time>
      </trkpt>
      <trkpt lat="10.1595005270474" lon="-75.6815756940249">
        <ele>58.3778713</ele>
        <time>2019-09-10T15:46:15.100Z</time>
      </trkpt>
      <trkpt lat="10.1594979578057" lon="-75.681574845544">
        <ele>58.3778713</ele>
        <time>2019-09-10T15:46:15.200Z</time>
      </trkpt>
      <trkpt lat="10.1594953915864" lon="-75.6815739900656">
        <ele>58.3778713</ele>
        <time>2019-09-10T15:46:15.300Z</time>
      </trkpt>
      <trkpt lat="10.1594928223447" lon="-75.6815731607323">
        <ele>58.3778713</ele>
        <time>2019-09-10T15:46:15.400Z</time>
      </trkpt>
      <trkpt lat="10.1594902610237" lon="-75.6815723288576">
        <ele>58.3778713</ele>
        <time>2019-09-10T15:46:15.500Z</time>
      </trkpt>
      <trkpt lat="10.1594877502497" lon="-75.6815715007776">
        <ele>58.3778713</ele>
        <time>2019-09-10T15:46:15.600Z</time>
      </trkpt>
      <trkpt lat="10.159485238225" lon="-75.6815706653171">
        <ele>58.3778713</ele>
        <time>2019-09-10T15:46:15.700Z</time>
      </trkpt>
      <trkpt lat="10.1594826900359" lon="-75.6815698505011">
        <ele>58.3778713</ele>
        <time>2019-09-10T15:46:15.800Z</time>
      </trkpt>
      <trkpt lat="10.1594801378863" lon="-75.6815690310897">
        <ele>58.3778713</ele>
        <time>2019-09-10T15:46:15.900Z</time>
      </trkpt>
      <trkpt lat="10.1594775896971" lon="-75.6815682448906">
        <ele>58.3778713</ele>
        <time>2019-09-10T15:46:16.000Z</time>
      </trkpt>
      <trkpt lat="10.1594750481781" lon="-75.6815674442091">
        <ele>58.3778713</ele>
        <time>2019-09-10T15:46:16.100Z</time>
      </trkpt>
      <trkpt lat="10.159472510411" lon="-75.6815666625358">
        <ele>58.3778713</ele>
        <time>2019-09-10T15:46:16.200Z</time>
      </trkpt>
      <trkpt lat="10.1594699708721" lon="-75.6815658667803">
        <ele>58.3778713</ele>
        <time>2019-09-10T15:46:16.300Z</time>
      </trkpt>
      <trkpt lat="10.1594673998587" lon="-75.6815650851767">
        <ele>58.3778713</ele>
        <time>2019-09-10T15:46:16.400Z</time>
      </trkpt>
      <trkpt lat="10.159464835828" lon="-75.6815642899783">
        <ele>58.3778713</ele>
        <time>2019-09-10T15:46:16.500Z</time>
      </trkpt>
      <trkpt lat="10.159462324116" lon="-75.6815635554255">
        <ele>58.3778713</ele>
        <time>2019-09-10T15:46:16.600Z</time>
      </trkpt>
      <trkpt lat="10.1594598142799" lon="-75.6815628025083">
        <ele>58.3778713</ele>
        <time>2019-09-10T15:46:16.700Z</time>
      </trkpt>
      <trkpt lat="10.1594572315938" lon="-75.6815620416885">
        <ele>58.3778713</ele>
        <time>2019-09-10T15:46:16.800Z</time>
      </trkpt>
      <trkpt lat="10.1594521248976" lon="-75.6815604934337">
        <ele>58.3778713</ele>
        <time>2019-09-10T15:46:17.000Z</time>
      </trkpt>
      <trkpt lat="10.159449596823" lon="-75.6815597181488">
        <ele>58.3778713</ele>
        <time>2019-09-10T15:46:17.100Z</time>
      </trkpt>
      <trkpt lat="10.1594469861016" lon="-75.6815589305224">
        <ele>58.3778713</ele>
        <time>2019-09-10T15:46:17.200Z</time>
      </trkpt>
      <trkpt lat="10.1594443806954" lon="-75.6815581394842">
        <ele>58.3778713</ele>
        <time>2019-09-10T15:46:17.300Z</time>
      </trkpt>
      <trkpt lat="10.159441831464" lon="-75.681557358629">
        <ele>58.3778713</ele>
        <time>2019-09-10T15:46:17.400Z</time>
      </trkpt>
      <trkpt lat="10.1594392873395" lon="-75.6815565750758">
        <ele>58.3778713</ele>
        <time>2019-09-10T15:46:17.500Z</time>
      </trkpt>
      <trkpt lat="10.1594367273734" lon="-75.6815558173544">
        <ele>58.3778713</ele>
        <time>2019-09-10T15:46:17.600Z</time>
      </trkpt>
      <trkpt lat="10.1594341624047" lon="-75.6815550576834">
        <ele>58.3778713</ele>
        <time>2019-09-10T15:46:17.700Z</time>
      </trkpt>
      <trkpt lat="10.1594316106721" lon="-75.6815542886476">
        <ele>58.3778713</ele>
        <time>2019-09-10T15:46:17.800Z</time>
      </trkpt>
      <trkpt lat="10.15942904883" lon="-75.6815535087672">
        <ele>58.3778713</ele>
        <time>2019-09-10T15:46:17.900Z</time>
      </trkpt>
      <trkpt lat="10.1594265069983" lon="-75.6815527598711">
        <ele>58.3778713</ele>
        <time>2019-09-10T15:46:18.000Z</time>
      </trkpt>
      <trkpt lat="10.1594239602682" lon="-75.6815520081202">
        <ele>58.3778713</ele>
        <time>2019-09-10T15:46:18.100Z</time>
      </trkpt>
      <trkpt lat="10.1594213685149" lon="-75.6815512265514">
        <ele>58.3778713</ele>
        <time>2019-09-10T15:46:18.200Z</time>
      </trkpt>
      <trkpt lat="10.1594187798883" lon="-75.6815504375324">
        <ele>58.3778713</ele>
        <time>2019-09-10T15:46:18.300Z</time>
      </trkpt>
      <trkpt lat="10.1594161869885" lon="-75.6815496691232">
        <ele>58.3778713</ele>
        <time>2019-09-10T15:46:18.400Z</time>
      </trkpt>
      <trkpt lat="10.1594110567386" lon="-75.6815481185359">
        <ele>58.4778713</ele>
        <time>2019-09-10T15:46:18.600Z</time>
      </trkpt>
      <trkpt lat="10.1594085124056" lon="-75.6815473411099">
        <ele>58.4778713</ele>
        <time>2019-09-10T15:46:18.700Z</time>
      </trkpt>
      <trkpt lat="10.1594059535859" lon="-75.6815465547194">
        <ele>58.4778713</ele>
        <time>2019-09-10T15:46:18.800Z</time>
      </trkpt>
      <trkpt lat="10.1594033942452" lon="-75.6815457710617">
        <ele>58.4778713</ele>
        <time>2019-09-10T15:46:18.900Z</time>
      </trkpt>
      <trkpt lat="10.1594008141645" lon="-75.6815450030181">
        <ele>58.4778713</ele>
        <time>2019-09-10T15:46:19.000Z</time>
      </trkpt>
      <trkpt lat="10.1593982381485" lon="-75.6815442287775">
        <ele>58.4778713</ele>
        <time>2019-09-10T15:46:19.100Z</time>
      </trkpt>
      <trkpt lat="10.1593956741179" lon="-75.681543463223">
        <ele>58.4778713</ele>
        <time>2019-09-10T15:46:19.200Z</time>
      </trkpt>
      <trkpt lat="10.1593931068564" lon="-75.6815426901313">
        <ele>58.3778713</ele>
        <time>2019-09-10T15:46:19.300Z</time>
      </trkpt>
      <trkpt lat="10.1593905564786" lon="-75.6815418985013">
        <ele>58.3778713</ele>
        <time>2019-09-10T15:46:19.400Z</time>
      </trkpt>
      <trkpt lat="10.1593854380055" lon="-75.6815403348415">
        <ele>58.3778713</ele>
        <time>2019-09-10T15:46:19.600Z</time>
      </trkpt>
      <trkpt lat="10.1593828658456" lon="-75.6815395697221">
        <ele>58.3778713</ele>
        <time>2019-09-10T15:46:19.700Z</time>
      </trkpt>
      <trkpt lat="10.1593802324042" lon="-75.6815387839931">
        <ele>58.3778713</ele>
        <time>2019-09-10T15:46:19.800Z</time>
      </trkpt>
      <trkpt lat="10.1593776112607" lon="-75.6815379919453">
        <ele>58.3778713</ele>
        <time>2019-09-10T15:46:19.900Z</time>
      </trkpt>
      <trkpt lat="10.1593750387361" lon="-75.6815372003327">
        <ele>58.3778713</ele>
        <time>2019-09-10T15:46:20.000Z</time>
      </trkpt>
      <trkpt lat="10.1593724764772" lon="-75.6815364182417">
        <ele>58.3778713</ele>
        <time>2019-09-10T15:46:20.100Z</time>
      </trkpt>
      <trkpt lat="10.1593699452238" lon="-75.6815356291357">
        <ele>58.3778713</ele>
        <time>2019-09-10T15:46:20.200Z</time>
      </trkpt>
      <trkpt lat="10.159367410896" lon="-75.6815348407085">
        <ele>58.3778713</ele>
        <time>2019-09-10T15:46:20.300Z</time>
      </trkpt>
      <trkpt lat="10.1593623634491" lon="-75.6815333109572">
        <ele>58.3778713</ele>
        <time>2019-09-10T15:46:20.500Z</time>
      </trkpt>
      <trkpt lat="10.159359841784" lon="-75.6815325644633">
        <ele>58.3778713</ele>
        <time>2019-09-10T15:46:20.600Z</time>
      </trkpt>
      <trkpt lat="10.1593572997439" lon="-75.6815318150276">
        <ele>58.3778713</ele>
        <time>2019-09-10T15:46:20.700Z</time>
      </trkpt>
      <trkpt lat="10.1593547671878" lon="-75.6815310813973">
        <ele>58.3778713</ele>
        <time>2019-09-10T15:46:20.800Z</time>
      </trkpt>
      <trkpt lat="10.1593522189465" lon="-75.6815303368355">
        <ele>58.3778713</ele>
        <time>2019-09-10T15:46:20.900Z</time>
      </trkpt>
      <trkpt lat="10.1593496022845" lon="-75.6815295515938">
        <ele>58.3778713</ele>
        <time>2019-09-10T15:46:21.000Z</time>
      </trkpt>
      <trkpt lat="10.1593443843331" lon="-75.6815279900402">
        <ele>58.2778713</ele>
        <time>2019-09-10T15:46:21.200Z</time>
      </trkpt>
      <trkpt lat="10.159341791277" lon="-75.6815272110475">
        <ele>58.2778713</ele>
        <time>2019-09-10T15:46:21.300Z</time>
      </trkpt>
      <trkpt lat="10.1593392494453" lon="-75.6815264556064">
        <ele>58.2778713</ele>
        <time>2019-09-10T15:46:21.400Z</time>
      </trkpt>
      <trkpt lat="10.159336709698" lon="-75.6815256992428">
        <ele>58.2778713</ele>
        <time>2019-09-10T15:46:21.500Z</time>
      </trkpt>
      <trkpt lat="10.1593341837599" lon="-75.6815249261685">
        <ele>58.2778713</ele>
        <time>2019-09-10T15:46:21.600Z</time>
      </trkpt>
      <trkpt lat="10.1593316453674" lon="-75.6815241476633">
        <ele>58.2778713</ele>
        <time>2019-09-10T15:46:21.700Z</time>
      </trkpt>
      <trkpt lat="10.1593291319879" lon="-75.6815233821436">
        <ele>58.2778713</ele>
        <time>2019-09-10T15:46:21.800Z</time>
      </trkpt>
      <trkpt lat="10.1593266093848" lon="-75.6815226152836">
        <ele>58.2778713</ele>
        <time>2019-09-10T15:46:21.900Z</time>
      </trkpt>
      <trkpt lat="10.1593240626547" lon="-75.6815218315737">
        <ele>58.3778713</ele>
        <time>2019-09-10T15:46:22.000Z</time>
      </trkpt>
      <trkpt lat="10.1593189540826" lon="-75.6815202810734">
        <ele>58.3778713</ele>
        <time>2019-09-10T15:46:22.200Z</time>
      </trkpt>
      <trkpt lat="10.1593163968784" lon="-75.6815195132909">
        <ele>58.3778713</ele>
        <time>2019-09-10T15:46:22.300Z</time>
      </trkpt>
      <trkpt lat="10.15931380747" lon="-75.6815187496685">
        <ele>58.3778713</ele>
        <time>2019-09-10T15:46:22.400Z</time>
      </trkpt>
      <trkpt lat="10.1593086998359" lon="-75.6815172362797">
        <ele>58.3778713</ele>
        <time>2019-09-10T15:46:22.600Z</time>
      </trkpt>
      <trkpt lat="10.1593061761906" lon="-75.6815164855907">
        <ele>58.3778713</ele>
        <time>2019-09-10T15:46:22.700Z</time>
      </trkpt>
      <trkpt lat="10.1593036418628" lon="-75.6815157149534">
        <ele>58.3778713</ele>
        <time>2019-09-10T15:46:22.800Z</time>
      </trkpt>
      <trkpt lat="10.1593011013859" lon="-75.6815149364307">
        <ele>58.3778713</ele>
        <time>2019-09-10T15:46:22.900Z</time>
      </trkpt>
      <trkpt lat="10.1592986214611" lon="-75.6815141860028">
        <ele>58.3778713</ele>
        <time>2019-09-10T15:46:23.000Z</time>
      </trkpt>
      <trkpt lat="10.159293602727" lon="-75.6815126477048">
        <ele>58.3778713</ele>
        <time>2019-09-10T15:46:23.200Z</time>
      </trkpt>
      <trkpt lat="10.1592885151553" lon="-75.6815110775173">
        <ele>58.3778713</ele>
        <time>2019-09-10T15:46:23.400Z</time>
      </trkpt>
      <trkpt lat="10.1592859681126" lon="-75.6815103009443">
        <ele>58.3778713</ele>
        <time>2019-09-10T15:46:23.500Z</time>
      </trkpt>
      <trkpt lat="10.1592834258119" lon="-75.6815095117338">
        <ele>58.3778713</ele>
        <time>2019-09-10T15:46:23.600Z</time>
      </trkpt>
      <trkpt lat="10.1592808837717" lon="-75.6815087248211">
        <ele>58.3778713</ele>
        <time>2019-09-10T15:46:23.700Z</time>
      </trkpt>
      <trkpt lat="10.1592782693505" lon="-75.6815079121288">
        <ele>58.3778713</ele>
        <time>2019-09-10T15:46:23.800Z</time>
      </trkpt>
      <trkpt lat="10.1592731096061" lon="-75.6815063048125">
        <ele>58.3778713</ele>
        <time>2019-09-10T15:46:24.000Z</time>
      </trkpt>
      <trkpt lat="10.1592705650647" lon="-75.6815055123469">
        <ele>58.3778713</ele>
        <time>2019-09-10T15:46:24.100Z</time>
      </trkpt>
      <trkpt lat="10.1592680377196" lon="-75.6815047131797">
        <ele>58.3778713</ele>
        <time>2019-09-10T15:46:24.200Z</time>
      </trkpt>
      <trkpt lat="10.159265500682" lon="-75.6815039170936">
        <ele>58.3778713</ele>
        <time>2019-09-10T15:46:24.300Z</time>
      </trkpt>
      <trkpt lat="10.1592629788085" lon="-75.6815031147757">
        <ele>58.3778713</ele>
        <time>2019-09-10T15:46:24.400Z</time>
      </trkpt>
      <trkpt lat="10.1592579145822" lon="-75.6815015206538">
        <ele>58.3778713</ele>
        <time>2019-09-10T15:46:24.600Z</time>
      </trkpt>
      <trkpt lat="10.1592553783783" lon="-75.6815007274224">
        <ele>58.3778713</ele>
        <time>2019-09-10T15:46:24.700Z</time>
      </trkpt>
      <trkpt lat="10.159252821591" lon="-75.6814999619898">
        <ele>58.3778713</ele>
        <time>2019-09-10T15:46:24.800Z</time>
      </trkpt>
      <trkpt lat="10.1592502576124" lon="-75.6814991985763">
        <ele>58.3778713</ele>
        <time>2019-09-10T15:46:24.900Z</time>
      </trkpt>
      <trkpt lat="10.1592477072346" lon="-75.6814984245098">
        <ele>58.3778713</ele>
        <time>2019-09-10T15:46:25.000Z</time>
      </trkpt>
      <trkpt lat="10.1592451555541" lon="-75.6814976519578">
        <ele>58.3778713</ele>
        <time>2019-09-10T15:46:25.100Z</time>
      </trkpt>
      <trkpt lat="10.1592425857392" lon="-75.6814968621207">
        <ele>58.3778713</ele>
        <time>2019-09-10T15:46:25.200Z</time>
      </trkpt>
      <trkpt lat="10.1592347426839" lon="-75.6814945201645">
        <ele>58.3778713</ele>
        <time>2019-09-10T15:46:25.500Z</time>
      </trkpt>
      <trkpt lat="10.1592321852712" lon="-75.6814937797803">
        <ele>58.3778713</ele>
        <time>2019-09-10T15:46:25.600Z</time>
      </trkpt>
      <trkpt lat="10.159229628536" lon="-75.6814930409802">
        <ele>58.3778713</ele>
        <time>2019-09-10T15:46:25.700Z</time>
      </trkpt>
      <trkpt lat="10.159227033135" lon="-75.6814922799341">
        <ele>58.3778713</ele>
        <time>2019-09-10T15:46:25.800Z</time>
      </trkpt>
      <trkpt lat="10.1592244276246" lon="-75.6814915131785">
        <ele>58.3778713</ele>
        <time>2019-09-10T15:46:25.900Z</time>
      </trkpt>
      <trkpt lat="10.1592192092041" lon="-75.6814899843672">
        <ele>58.3778713</ele>
        <time>2019-09-10T15:46:26.100Z</time>
      </trkpt>
      <trkpt lat="10.1592141001109" lon="-75.6814884928763">
        <ele>58.3778713</ele>
        <time>2019-09-10T15:46:26.300Z</time>
      </trkpt>
      <trkpt lat="10.1592114646893" lon="-75.6814877249196">
        <ele>58.3778713</ele>
        <time>2019-09-10T15:46:26.400Z</time>
      </trkpt>
      <trkpt lat="10.1592088286944" lon="-75.6814869508357">
        <ele>58.3778713</ele>
        <time>2019-09-10T15:46:26.500Z</time>
      </trkpt>
      <trkpt lat="10.1592062481448" lon="-75.6814861606505">
        <ele>58.3778713</ele>
        <time>2019-09-10T15:46:26.600Z</time>
      </trkpt>
      <trkpt lat="10.1592036676994" lon="-75.6814853702738">
        <ele>58.3778713</ele>
        <time>2019-09-10T15:46:26.700Z</time>
      </trkpt>
      <trkpt lat="10.1592010932988" lon="-75.6814845918904">
        <ele>58.3778713</ele>
        <time>2019-09-10T15:46:26.800Z</time>
      </trkpt>
      <trkpt lat="10.1591959364205" lon="-75.6814830384136">
        <ele>58.3778713</ele>
        <time>2019-09-10T15:46:27.000Z</time>
      </trkpt>
      <trkpt lat="10.1591933543597" lon="-75.681482249412">
        <ele>58.3778713</ele>
        <time>2019-09-10T15:46:27.100Z</time>
      </trkpt>
      <trkpt lat="10.1591907534871" lon="-75.6814814928221">
        <ele>58.3778713</ele>
        <time>2019-09-10T15:46:27.200Z</time>
      </trkpt>
      <trkpt lat="10.1591881521977" lon="-75.6814807523683">
        <ele>58.3778713</ele>
        <time>2019-09-10T15:46:27.300Z</time>
      </trkpt>
      <trkpt lat="10.1591855529405" lon="-75.6814800078065">
        <ele>58.3778713</ele>
        <time>2019-09-10T15:46:27.400Z</time>
      </trkpt>
      <trkpt lat="10.1591829542565" lon="-75.6814792725747">
        <ele>58.3778713</ele>
        <time>2019-09-10T15:46:27.500Z</time>
      </trkpt>
      <trkpt lat="10.1591803043482" lon="-75.681478553984">
        <ele>58.3778713</ele>
        <time>2019-09-10T15:46:27.600Z</time>
      </trkpt>
      <trkpt lat="10.1591776495416" lon="-75.6814778213111">
        <ele>58.3778713</ele>
        <time>2019-09-10T15:46:27.700Z</time>
      </trkpt>
      <trkpt lat="10.1591750456466" lon="-75.6814770412741">
        <ele>58.3778713</ele>
        <time>2019-09-10T15:46:27.800Z</time>
      </trkpt>
      <trkpt lat="10.1591724383124" lon="-75.6814762509496">
        <ele>58.3778713</ele>
        <time>2019-09-10T15:46:27.900Z</time>
      </trkpt>
      <trkpt lat="10.1591698637554" lon="-75.6814754632535">
        <ele>58.3778713</ele>
        <time>2019-09-10T15:46:28.000Z</time>
      </trkpt>
      <trkpt lat="10.1591672750245" lon="-75.6814746827117">
        <ele>58.3778713</ele>
        <time>2019-09-10T15:46:28.100Z</time>
      </trkpt>
      <trkpt lat="10.159164629754" lon="-75.6814739000811">
        <ele>58.3778713</ele>
        <time>2019-09-10T15:46:28.200Z</time>
      </trkpt>
      <trkpt lat="10.1591619721855" lon="-75.6814731159708">
        <ele>58.3778713</ele>
        <time>2019-09-10T15:46:28.300Z</time>
      </trkpt>
      <trkpt lat="10.1591593155029" lon="-75.6814723217298">
        <ele>58.3778713</ele>
        <time>2019-09-10T15:46:28.400Z</time>
      </trkpt>
      <trkpt lat="10.1591566658031" lon="-75.6814715330067">
        <ele>58.3778713</ele>
        <time>2019-09-10T15:46:28.500Z</time>
      </trkpt>
      <trkpt lat="10.1591540685261" lon="-75.6814707462681">
        <ele>58.3778713</ele>
        <time>2019-09-10T15:46:28.600Z</time>
      </trkpt>
      <trkpt lat="10.159151474532" lon="-75.6814699628541">
        <ele>58.3778713</ele>
        <time>2019-09-10T15:46:28.700Z</time>
      </trkpt>
      <trkpt lat="10.1591488930445" lon="-75.681469200868">
        <ele>58.3778713</ele>
        <time>2019-09-10T15:46:28.800Z</time>
      </trkpt>
      <trkpt lat="10.1591463062416" lon="-75.6814684408315">
        <ele>58.3778713</ele>
        <time>2019-09-10T15:46:28.900Z</time>
      </trkpt>
      <trkpt lat="10.1591436701946" lon="-75.6814676553461">
        <ele>58.3778713</ele>
        <time>2019-09-10T15:46:29.000Z</time>
      </trkpt>
      <trkpt lat="10.1591410372222" lon="-75.6814668705396">
        <ele>58.3778713</ele>
        <time>2019-09-10T15:46:29.100Z</time>
      </trkpt>
      <trkpt lat="10.1591384362975" lon="-75.6814661154118">
        <ele>58.3778713</ele>
        <time>2019-09-10T15:46:29.200Z</time>
      </trkpt>
      <trkpt lat="10.1591358463159" lon="-75.6814653647402">
        <ele>58.3778713</ele>
        <time>2019-09-10T15:46:29.300Z</time>
      </trkpt>
      <trkpt lat="10.1591331978146" lon="-75.6814645823707">
        <ele>58.3778713</ele>
        <time>2019-09-10T15:46:29.400Z</time>
      </trkpt>
      <trkpt lat="10.159130560986" lon="-75.6814637985215">
        <ele>58.3778713</ele>
        <time>2019-09-10T15:46:29.500Z</time>
      </trkpt>
      <trkpt lat="10.1591279402073" lon="-75.6814630285805">
        <ele>58.3778713</ele>
        <time>2019-09-10T15:46:29.600Z</time>
      </trkpt>
      <trkpt lat="10.159125335218" lon="-75.6814622679173">
        <ele>58.3778713</ele>
        <time>2019-09-10T15:46:29.700Z</time>
      </trkpt>
      <trkpt lat="10.1591227410155" lon="-75.6814615229552">
        <ele>58.3778713</ele>
        <time>2019-09-10T15:46:29.800Z</time>
      </trkpt>
      <trkpt lat="10.1591201479595" lon="-75.6814607771227">
        <ele>58.3778713</ele>
        <time>2019-09-10T15:46:29.900Z</time>
      </trkpt>
      <trkpt lat="10.1591175623552" lon="-75.6814599981997">
        <ele>58.2778713</ele>
        <time>2019-09-10T15:46:30.000Z</time>
      </trkpt>
      <trkpt lat="10.1591149758129" lon="-75.6814592163523">
        <ele>58.2778713</ele>
        <time>2019-09-10T15:46:30.100Z</time>
      </trkpt>
      <trkpt lat="10.1591124318968" lon="-75.6814584705546">
        <ele>58.2778713</ele>
        <time>2019-09-10T15:46:30.200Z</time>
      </trkpt>
      <trkpt lat="10.1591098790177" lon="-75.6814577236429">
        <ele>58.2778713</ele>
        <time>2019-09-10T15:46:30.300Z</time>
      </trkpt>
      <trkpt lat="10.1591049073391" lon="-75.6814562629447">
        <ele>58.2778713</ele>
        <time>2019-09-10T15:46:30.500Z</time>
      </trkpt>
      <trkpt lat="10.159102358264" lon="-75.6814554891568">
        <ele>58.2778713</ele>
        <time>2019-09-10T15:46:30.600Z</time>
      </trkpt>
      <trkpt lat="10.1590997817269" lon="-75.6814547094853">
        <ele>58.2778713</ele>
        <time>2019-09-10T15:46:30.700Z</time>
      </trkpt>
      <trkpt lat="10.1590972611562" lon="-75.6814539486306">
        <ele>58.2778713</ele>
        <time>2019-09-10T15:46:30.800Z</time>
      </trkpt>
      <trkpt lat="10.1590947312577" lon="-75.6814531894297">
        <ele>58.2778713</ele>
        <time>2019-09-10T15:46:30.900Z</time>
      </trkpt>
      <trkpt lat="10.1590921830164" lon="-75.6814524046928">
        <ele>58.2778713</ele>
        <time>2019-09-10T15:46:31.000Z</time>
      </trkpt>
      <trkpt lat="10.1590896142958" lon="-75.6814516166138">
        <ele>58.2778713</ele>
        <time>2019-09-10T15:46:31.100Z</time>
      </trkpt>
      <trkpt lat="10.1590870336941" lon="-75.6814508413636">
        <ele>58.2778713</ele>
        <time>2019-09-10T15:46:31.200Z</time>
      </trkpt>
      <trkpt lat="10.1590844455364" lon="-75.6814500661309">
        <ele>58.2778713</ele>
        <time>2019-09-10T15:46:31.300Z</time>
      </trkpt>
      <trkpt lat="10.1590818429442" lon="-75.6814492217233">
        <ele>58.2778713</ele>
        <time>2019-09-10T15:46:31.400Z</time>
      </trkpt>
      <trkpt lat="10.1590792406646" lon="-75.6814483850965">
        <ele>58.2778713</ele>
        <time>2019-09-10T15:46:31.500Z</time>
      </trkpt>
      <trkpt lat="10.1590766438045" lon="-75.6814475798195">
        <ele>58.2778713</ele>
        <time>2019-09-10T15:46:31.600Z</time>
      </trkpt>
      <trkpt lat="10.1590740469965" lon="-75.6814467928023">
        <ele>58.2778713</ele>
        <time>2019-09-10T15:46:31.700Z</time>
      </trkpt>
      <trkpt lat="10.1590714216842" lon="-75.6814459662889">
        <ele>58.2778713</ele>
        <time>2019-09-10T15:46:31.800Z</time>
      </trkpt>
      <trkpt lat="10.1590687999676" lon="-75.6814451495582">
        <ele>58.2778713</ele>
        <time>2019-09-10T15:46:31.900Z</time>
      </trkpt>
      <trkpt lat="10.159066190132" lon="-75.6814443284409">
        <ele>58.2778713</ele>
        <time>2019-09-10T15:46:32.000Z</time>
      </trkpt>
      <trkpt lat="10.1590635799838" lon="-75.6814435188818">
        <ele>58.2778713</ele>
        <time>2019-09-10T15:46:32.100Z</time>
      </trkpt>
      <trkpt lat="10.1590610231965" lon="-75.6814427184614">
        <ele>58.2778713</ele>
        <time>2019-09-10T15:46:32.200Z</time>
      </trkpt>
      <trkpt lat="10.1590584617713" lon="-75.6814419263266">
        <ele>58.2778713</ele>
        <time>2019-09-10T15:46:32.300Z</time>
      </trkpt>
      <trkpt lat="10.1590558699138" lon="-75.6814411157753">
        <ele>58.2778713</ele>
        <time>2019-09-10T15:46:32.400Z</time>
      </trkpt>
      <trkpt lat="10.1590532641428" lon="-75.681440310829">
        <ele>58.2778713</ele>
        <time>2019-09-10T15:46:32.500Z</time>
      </trkpt>
      <trkpt lat="10.1590506684292" lon="-75.6814395377199">
        <ele>58.2778713</ele>
        <time>2019-09-10T15:46:32.600Z</time>
      </trkpt>
      <trkpt lat="10.159048071986" lon="-75.681438768597">
        <ele>58.2778713</ele>
        <time>2019-09-10T15:46:32.700Z</time>
      </trkpt>
      <trkpt lat="10.1590454541775" lon="-75.6814379945131">
        <ele>58.2778713</ele>
        <time>2019-09-10T15:46:32.800Z</time>
      </trkpt>
      <trkpt lat="10.1590428385057" lon="-75.681437218323">
        <ele>58.2778713</ele>
        <time>2019-09-10T15:46:32.900Z</time>
      </trkpt>
      <trkpt lat="10.1590402395612" lon="-75.681436425666">
        <ele>58.2778713</ele>
        <time>2019-09-10T15:46:33.000Z</time>
      </trkpt>
      <trkpt lat="10.1590376437954" lon="-75.6814356369604">
        <ele>58.2778713</ele>
        <time>2019-09-10T15:46:33.100Z</time>
      </trkpt>
      <trkpt lat="10.159035063819" lon="-75.6814348374973">
        <ele>58.2778713</ele>
        <time>2019-09-10T15:46:33.200Z</time>
      </trkpt>
      <trkpt lat="10.1590324802991" lon="-75.6814340445095">
        <ele>58.2778713</ele>
        <time>2019-09-10T15:46:33.300Z</time>
      </trkpt>
      <trkpt lat="10.1590298602499" lon="-75.6814332256726">
        <ele>58.2778713</ele>
        <time>2019-09-10T15:46:33.400Z</time>
      </trkpt>
      <trkpt lat="10.1590272420768" lon="-75.6814324181327">
        <ele>58.2778713</ele>
        <time>2019-09-10T15:46:33.500Z</time>
      </trkpt>
      <trkpt lat="10.1590246350031" lon="-75.6814316013846">
        <ele>58.2778713</ele>
        <time>2019-09-10T15:46:33.600Z</time>
      </trkpt>
      <trkpt lat="10.1590220306391" lon="-75.6814307956376">
        <ele>58.2778713</ele>
        <time>2019-09-10T15:46:33.700Z</time>
      </trkpt>
      <trkpt lat="10.1590194809908" lon="-75.6814300313016">
        <ele>58.2778713</ele>
        <time>2019-09-10T15:46:33.800Z</time>
      </trkpt>
      <trkpt lat="10.1590169237866" lon="-75.6814292698377">
        <ele>58.2778713</ele>
        <time>2019-09-10T15:46:33.900Z</time>
      </trkpt>
      <trkpt lat="10.1590143754411" lon="-75.6814284985389">
        <ele>58.2778713</ele>
        <time>2019-09-10T15:46:34.000Z</time>
      </trkpt>
      <trkpt lat="10.1590118112541" lon="-75.6814277247684">
        <ele>58.2778713</ele>
        <time>2019-09-10T15:46:34.100Z</time>
      </trkpt>
      <trkpt lat="10.1590092376873" lon="-75.6814269605368">
        <ele>58.2778713</ele>
        <time>2019-09-10T15:46:34.200Z</time>
      </trkpt>
      <trkpt lat="10.159006654949" lon="-75.6814261974192">
        <ele>58.2778713</ele>
        <time>2019-09-10T15:46:34.300Z</time>
      </trkpt>
      <trkpt lat="10.1590040844046" lon="-75.681425427983">
        <ele>58.2778713</ele>
        <time>2019-09-10T15:46:34.400Z</time>
      </trkpt>
      <trkpt lat="10.1590015099519" lon="-75.6814246564405">
        <ele>58.2778713</ele>
        <time>2019-09-10T15:46:34.500Z</time>
      </trkpt>
      <trkpt lat="10.1589989350823" lon="-75.6814238599801">
        <ele>58.2778713</ele>
        <time>2019-09-10T15:46:34.600Z</time>
      </trkpt>
      <trkpt lat="10.1589963490611" lon="-75.6814230659654">
        <ele>58.2778713</ele>
        <time>2019-09-10T15:46:34.700Z</time>
      </trkpt>
      <trkpt lat="10.1589937600175" lon="-75.6814222927518">
        <ele>58.2778713</ele>
        <time>2019-09-10T15:46:34.800Z</time>
      </trkpt>
      <trkpt lat="10.1589911677953" lon="-75.6814215262487">
        <ele>58.2778713</ele>
        <time>2019-09-10T15:46:34.900Z</time>
      </trkpt>
      <trkpt lat="10.1589859256126" lon="-75.6814199627977">
        <ele>58.2778713</ele>
        <time>2019-09-10T15:46:35.100Z</time>
      </trkpt>
      <trkpt lat="10.158983314839" lon="-75.6814191979395">
        <ele>58.2778713</ele>
        <time>2019-09-10T15:46:35.200Z</time>
      </trkpt>
      <trkpt lat="10.1589807092765" lon="-75.6814184367802">
        <ele>58.2778713</ele>
        <time>2019-09-10T15:46:35.300Z</time>
      </trkpt>
      <trkpt lat="10.1589780877162" lon="-75.681417657892">
        <ele>58.2778713</ele>
        <time>2019-09-10T15:46:35.400Z</time>
      </trkpt>
      <trkpt lat="10.1589754695951" lon="-75.6814168848178">
        <ele>58.2778713</ele>
        <time>2019-09-10T15:46:35.500Z</time>
      </trkpt>
      <trkpt lat="10.1589728357889" lon="-75.681416126374">
        <ele>58.2778713</ele>
        <time>2019-09-10T15:46:35.600Z</time>
      </trkpt>
      <trkpt lat="10.1589702095386" lon="-75.6814153698014">
        <ele>58.2778713</ele>
        <time>2019-09-10T15:46:35.700Z</time>
      </trkpt>
      <trkpt lat="10.1589676017875" lon="-75.6814146221586">
        <ele>58.2778713</ele>
        <time>2019-09-10T15:46:35.800Z</time>
      </trkpt>
      <trkpt lat="10.1589650000811" lon="-75.6814138732625">
        <ele>58.2778713</ele>
        <time>2019-09-10T15:46:35.900Z</time>
      </trkpt>
      <trkpt lat="10.1589623822206" lon="-75.6814130952272">
        <ele>58.2778713</ele>
        <time>2019-09-10T15:46:36.000Z</time>
      </trkpt>
      <trkpt lat="10.1589597662361" lon="-75.6814123210041">
        <ele>58.2778713</ele>
        <time>2019-09-10T15:46:36.100Z</time>
      </trkpt>
      <trkpt lat="10.1589571667184" lon="-75.6814115566333">
        <ele>58.2778713</ele>
        <time>2019-09-10T15:46:36.200Z</time>
      </trkpt>
      <trkpt lat="10.1589545699885" lon="-75.6814107965271">
        <ele>58.2778713</ele>
        <time>2019-09-10T15:46:36.300Z</time>
      </trkpt>
      <trkpt lat="10.1589519910283" lon="-75.6814100423045">
        <ele>58.2778713</ele>
        <time>2019-09-10T15:46:36.400Z</time>
      </trkpt>
      <trkpt lat="10.1589494112082" lon="-75.6814092900924">
        <ele>58.2778713</ele>
        <time>2019-09-10T15:46:36.500Z</time>
      </trkpt>
      <trkpt lat="10.1589468465783" lon="-75.6814085052598">
        <ele>58.2778713</ele>
        <time>2019-09-10T15:46:36.600Z</time>
      </trkpt>
      <trkpt lat="10.1589442793689" lon="-75.6814077217588">
        <ele>58.2778713</ele>
        <time>2019-09-10T15:46:36.700Z</time>
      </trkpt>
      <trkpt lat="10.1589417149474" lon="-75.6814069425399">
        <ele>58.2778713</ele>
        <time>2019-09-10T15:46:36.800Z</time>
      </trkpt>
      <trkpt lat="10.1589391435171" lon="-75.6814061665064">
        <ele>58.2778713</ele>
        <time>2019-09-10T15:46:36.900Z</time>
      </trkpt>
      <trkpt lat="10.1589366125243" lon="-75.6814054117268">
        <ele>58.2778713</ele>
        <time>2019-09-10T15:46:37.000Z</time>
      </trkpt>
      <trkpt lat="10.1589340725164" lon="-75.681404657069">
        <ele>58.2778713</ele>
        <time>2019-09-10T15:46:37.100Z</time>
      </trkpt>
      <trkpt lat="10.1589314785484" lon="-75.6814039002875">
        <ele>58.2778713</ele>
        <time>2019-09-10T15:46:37.200Z</time>
      </trkpt>
      <trkpt lat="10.1589288724127" lon="-75.6814031351856">
        <ele>58.2778713</ele>
        <time>2019-09-10T15:46:37.300Z</time>
      </trkpt>
      <trkpt lat="10.1589262571317" lon="-75.6814023430856">
        <ele>58.2778713</ele>
        <time>2019-09-10T15:46:37.400Z</time>
      </trkpt>
      <trkpt lat="10.1589236468011" lon="-75.6814015494887">
        <ele>58.2778713</ele>
        <time>2019-09-10T15:46:37.500Z</time>
      </trkpt>
      <trkpt lat="10.158921039076" lon="-75.6814007727676">
        <ele>58.2778713</ele>
        <time>2019-09-10T15:46:37.600Z</time>
      </trkpt>
      <trkpt lat="10.1589184330706" lon="-75.6813999986751">
        <ele>58.2778713</ele>
        <time>2019-09-10T15:46:37.700Z</time>
      </trkpt>
      <trkpt lat="10.1589158365752" lon="-75.6813992440521">
        <ele>58.2778713</ele>
        <time>2019-09-10T15:46:37.800Z</time>
      </trkpt>
      <trkpt lat="10.1589132397412" lon="-75.6813984834237">
        <ele>58.2778713</ele>
        <time>2019-09-10T15:46:37.900Z</time>
      </trkpt>
      <trkpt lat="10.1589106588529" lon="-75.681397741003">
        <ele>58.2778713</ele>
        <time>2019-09-10T15:46:38.000Z</time>
      </trkpt>
      <trkpt lat="10.1589080764533" lon="-75.6813969936909">
        <ele>58.2778713</ele>
        <time>2019-09-10T15:46:38.100Z</time>
      </trkpt>
      <trkpt lat="10.158905468624" lon="-75.6813962622626">
        <ele>58.2778713</ele>
        <time>2019-09-10T15:46:38.200Z</time>
      </trkpt>
      <trkpt lat="10.1589028595962" lon="-75.6813955258559">
        <ele>58.2778713</ele>
        <time>2019-09-10T15:46:38.300Z</time>
      </trkpt>
      <trkpt lat="10.1589002610686" lon="-75.6813948034965">
        <ele>58.2778713</ele>
        <time>2019-09-10T15:46:38.400Z</time>
      </trkpt>
      <trkpt lat="10.1588976690026" lon="-75.6813940749752">
        <ele>58.2778713</ele>
        <time>2019-09-10T15:46:38.500Z</time>
      </trkpt>
      <trkpt lat="10.1588950904332" lon="-75.681393348151">
        <ele>58.2778713</ele>
        <time>2019-09-10T15:46:38.600Z</time>
      </trkpt>
      <trkpt lat="10.1588925128539" lon="-75.681392614042">
        <ele>58.2778713</ele>
        <time>2019-09-10T15:46:38.700Z</time>
      </trkpt>
      <trkpt lat="10.1588899417623" lon="-75.6813918765387">
        <ele>58.2778713</ele>
        <time>2019-09-10T15:46:38.800Z</time>
      </trkpt>
      <trkpt lat="10.1588873677525" lon="-75.6813911382956">
        <ele>58.2778713</ele>
        <time>2019-09-10T15:46:38.900Z</time>
      </trkpt>
      <trkpt lat="10.1588848264158" lon="-75.6813903938469">
        <ele>58.2778713</ele>
        <time>2019-09-10T15:46:39.000Z</time>
      </trkpt>
      <trkpt lat="10.1588822734065" lon="-75.6813896471702">
        <ele>58.2778713</ele>
        <time>2019-09-10T15:46:39.100Z</time>
      </trkpt>
      <trkpt lat="10.1588797117468" lon="-75.681388890615">
        <ele>58.2778713</ele>
        <time>2019-09-10T15:46:39.200Z</time>
      </trkpt>
      <trkpt lat="10.1588771388835" lon="-75.6813881361313">
        <ele>58.2778713</ele>
        <time>2019-09-10T15:46:39.300Z</time>
      </trkpt>
      <trkpt lat="10.1588745491364" lon="-75.6813873668343">
        <ele>58.2778713</ele>
        <time>2019-09-10T15:46:39.400Z</time>
      </trkpt>
      <trkpt lat="10.1588719572007" lon="-75.6813866034818">
        <ele>58.2778713</ele>
        <time>2019-09-10T15:46:39.500Z</time>
      </trkpt>
      <trkpt lat="10.1588694083862" lon="-75.681385851496">
        <ele>58.2778713</ele>
        <time>2019-09-10T15:46:39.600Z</time>
      </trkpt>
      <trkpt lat="10.1588668545171" lon="-75.6813850987355">
        <ele>58.2778713</ele>
        <time>2019-09-10T15:46:39.700Z</time>
      </trkpt>
      <trkpt lat="10.1588643038527" lon="-75.681384312754">
        <ele>58.2778713</ele>
        <time>2019-09-10T15:46:39.800Z</time>
      </trkpt>
      <trkpt lat="10.1588591448378" lon="-75.6813827503649">
        <ele>58.2778713</ele>
        <time>2019-09-10T15:46:40.000Z</time>
      </trkpt>
      <trkpt lat="10.1588539706329" lon="-75.6813812124846">
        <ele>58.2778713</ele>
        <time>2019-09-10T15:46:40.200Z</time>
      </trkpt>
      <trkpt lat="10.1588514008962" lon="-75.681380446434">
        <ele>58.2778713</ele>
        <time>2019-09-10T15:46:40.300Z</time>
      </trkpt>
      <trkpt lat="10.1588488280328" lon="-75.6813796872156">
        <ele>58.3778713</ele>
        <time>2019-09-10T15:46:40.400Z</time>
      </trkpt>
      <trkpt lat="10.1588462494374" lon="-75.6813789238457">
        <ele>58.3778713</ele>
        <time>2019-09-10T15:46:40.500Z</time>
      </trkpt>
      <trkpt lat="10.1588436674287" lon="-75.6813781348876">
        <ele>58.2778713</ele>
        <time>2019-09-10T15:46:40.600Z</time>
      </trkpt>
      <trkpt lat="10.1588410877128" lon="-75.6813773436145">
        <ele>58.2778713</ele>
        <time>2019-09-10T15:46:40.700Z</time>
      </trkpt>
      <trkpt lat="10.1588385096645" lon="-75.6813765693304">
        <ele>58.2778713</ele>
        <time>2019-09-10T15:46:40.800Z</time>
      </trkpt>
      <trkpt lat="10.1588359322415" lon="-75.681375799607">
        <ele>58.2778713</ele>
        <time>2019-09-10T15:46:40.900Z</time>
      </trkpt>
      <trkpt lat="10.1588333542193" lon="-75.6813750172809">
        <ele>58.2778713</ele>
        <time>2019-09-10T15:46:41.000Z</time>
      </trkpt>
      <trkpt lat="10.1588307792454" lon="-75.6813742365737">
        <ele>58.2778713</ele>
        <time>2019-09-10T15:46:41.100Z</time>
      </trkpt>
      <trkpt lat="10.1588282001028" lon="-75.6813734776164">
        <ele>58.2778713</ele>
        <time>2019-09-10T15:46:41.200Z</time>
      </trkpt>
      <trkpt lat="10.1588256214031" lon="-75.6813727201561">
        <ele>58.2778713</ele>
        <time>2019-09-10T15:46:41.300Z</time>
      </trkpt>
      <trkpt lat="10.1588231051054" lon="-75.6813719431653">
        <ele>58.2778713</ele>
        <time>2019-09-10T15:46:41.400Z</time>
      </trkpt>
      <trkpt lat="10.1588205822418" lon="-75.6813711665313">
        <ele>58.2778713</ele>
        <time>2019-09-10T15:46:41.500Z</time>
      </trkpt>
      <trkpt lat="10.1588180448916" lon="-75.6813704044669">
        <ele>58.2778713</ele>
        <time>2019-09-10T15:46:41.600Z</time>
      </trkpt>
      <trkpt lat="10.1588154911266" lon="-75.6813696461276">
        <ele>58.2778713</ele>
        <time>2019-09-10T15:46:41.700Z</time>
      </trkpt>
      <trkpt lat="10.158812949373" lon="-75.6813688668391">
        <ele>58.2778713</ele>
        <time>2019-09-10T15:46:41.800Z</time>
      </trkpt>
      <trkpt lat="10.1588078293367" lon="-75.6813673219612">
        <ele>58.2778713</ele>
        <time>2019-09-10T15:46:42.000Z</time>
      </trkpt>
      <trkpt lat="10.1588052510278" lon="-75.6813665598359">
        <ele>58.2778713</ele>
        <time>2019-09-10T15:46:42.100Z</time>
      </trkpt>
      <trkpt lat="10.1588026601343" lon="-75.6813657782583">
        <ele>58.2778713</ele>
        <time>2019-09-10T15:46:42.200Z</time>
      </trkpt>
      <trkpt lat="10.1588000713253" lon="-75.6813650006757">
        <ele>58.2778713</ele>
        <time>2019-09-10T15:46:42.300Z</time>
      </trkpt>
      <trkpt lat="10.1587974811874" lon="-75.6813641976006">
        <ele>58.2778713</ele>
        <time>2019-09-10T15:46:42.400Z</time>
      </trkpt>
      <trkpt lat="10.1587948944888" lon="-75.6813634006703">
        <ele>58.2778713</ele>
        <time>2019-09-10T15:46:42.500Z</time>
      </trkpt>
      <trkpt lat="10.158792307712" lon="-75.6813626147062">
        <ele>58.2778713</ele>
        <time>2019-09-10T15:46:42.600Z</time>
      </trkpt>
      <trkpt lat="10.1587897244005" lon="-75.6813618359573">
        <ele>58.2778713</ele>
        <time>2019-09-10T15:46:42.700Z</time>
      </trkpt>
      <trkpt lat="10.1587872221465" lon="-75.6813610621606">
        <ele>58.2778713</ele>
        <time>2019-09-10T15:46:42.800Z</time>
      </trkpt>
      <trkpt lat="10.1587847138738" lon="-75.6813602901307">
        <ele>58.2778713</ele>
        <time>2019-09-10T15:46:42.900Z</time>
      </trkpt>
      <trkpt lat="10.1587821080768" lon="-75.681359478039">
        <ele>58.2778713</ele>
        <time>2019-09-10T15:46:43.000Z</time>
      </trkpt>
      <trkpt lat="10.1587794858651" lon="-75.6813586692806">
        <ele>58.2778713</ele>
        <time>2019-09-10T15:46:43.100Z</time>
      </trkpt>
      <trkpt lat="10.1587768458056" lon="-75.6813578324188">
        <ele>58.2778713</ele>
        <time>2019-09-10T15:46:43.200Z</time>
      </trkpt>
      <trkpt lat="10.1587742260691" lon="-75.6813570131554">
        <ele>58.2778713</ele>
        <time>2019-09-10T15:46:43.300Z</time>
      </trkpt>
      <trkpt lat="10.1587716579217" lon="-75.681356204632">
        <ele>58.2778713</ele>
        <time>2019-09-10T15:46:43.400Z</time>
      </trkpt>
      <trkpt lat="10.1587690911553" lon="-75.6813554067442">
        <ele>58.2778713</ele>
        <time>2019-09-10T15:46:43.500Z</time>
      </trkpt>
      <trkpt lat="10.158766525405" lon="-75.681354603147">
        <ele>58.2778713</ele>
        <time>2019-09-10T15:46:43.600Z</time>
      </trkpt>
      <trkpt lat="10.1587639529846" lon="-75.6813538060077">
        <ele>58.2778713</ele>
        <time>2019-09-10T15:46:43.700Z</time>
      </trkpt>
      <trkpt lat="10.1587613821014" lon="-75.6813530380336">
        <ele>58.2778713</ele>
        <time>2019-09-10T15:46:43.800Z</time>
      </trkpt>
      <trkpt lat="10.158758807805" lon="-75.681352274011">
        <ele>58.2778713</ele>
        <time>2019-09-10T15:46:43.900Z</time>
      </trkpt>
      <trkpt lat="10.1587561984385" lon="-75.6813514682596">
        <ele>58.2778713</ele>
        <time>2019-09-10T15:46:44.000Z</time>
      </trkpt>
      <trkpt lat="10.1587535917035" lon="-75.6813506651411">
        <ele>58.2778713</ele>
        <time>2019-09-10T15:46:44.100Z</time>
      </trkpt>
      <trkpt lat="10.1587509849424" lon="-75.6813498500379">
        <ele>58.2778713</ele>
        <time>2019-09-10T15:46:44.200Z</time>
      </trkpt>
      <trkpt lat="10.1587483834706" lon="-75.6813490447609">
        <ele>58.2778713</ele>
        <time>2019-09-10T15:46:44.300Z</time>
      </trkpt>
      <trkpt lat="10.1587457496643" lon="-75.6813482623827">
        <ele>58.2778713</ele>
        <time>2019-09-10T15:46:44.400Z</time>
      </trkpt>
      <trkpt lat="10.1587404666794" lon="-75.681346685363">
        <ele>58.2778713</ele>
        <time>2019-09-10T15:46:44.600Z</time>
      </trkpt>
      <trkpt lat="10.1587378264896" lon="-75.681345888759">
        <ele>58.2778713</ele>
        <time>2019-09-10T15:46:44.700Z</time>
      </trkpt>
      <trkpt lat="10.1587352500046" lon="-75.6813451300802">
        <ele>58.2778713</ele>
        <time>2019-09-10T15:46:44.800Z</time>
      </trkpt>
      <trkpt lat="10.1587326780532" lon="-75.6813443725895">
        <ele>58.2778713</ele>
        <time>2019-09-10T15:46:44.900Z</time>
      </trkpt>
      <trkpt lat="10.1587301192335" lon="-75.6813436009425">
        <ele>58.2778713</ele>
        <time>2019-09-10T15:46:45.000Z</time>
      </trkpt>
      <trkpt lat="10.1587275543431" lon="-75.6813428259448">
        <ele>58.2778713</ele>
        <time>2019-09-10T15:46:45.100Z</time>
      </trkpt>
      <trkpt lat="10.1587249938429" lon="-75.6813420341712">
        <ele>58.2778713</ele>
        <time>2019-09-10T15:46:45.200Z</time>
      </trkpt>
      <trkpt lat="10.1587224262035" lon="-75.6813412474238">
        <ele>58.2778713</ele>
        <time>2019-09-10T15:46:45.300Z</time>
      </trkpt>
      <trkpt lat="10.1587198213576" lon="-75.6813404806856">
        <ele>58.2778713</ele>
        <time>2019-09-10T15:46:45.400Z</time>
      </trkpt>
      <trkpt lat="10.1587172147919" lon="-75.6813397165977">
        <ele>58.2778713</ele>
        <time>2019-09-10T15:46:45.500Z</time>
      </trkpt>
      <trkpt lat="10.1587146082393" lon="-75.6813389335188">
        <ele>58.2778713</ele>
        <time>2019-09-10T15:46:45.600Z</time>
      </trkpt>
      <trkpt lat="10.1587120096205" lon="-75.6813381501875">
        <ele>58.2778713</ele>
        <time>2019-09-10T15:46:45.700Z</time>
      </trkpt>
      <trkpt lat="10.1587094597899" lon="-75.6813373623566">
        <ele>58.2778713</ele>
        <time>2019-09-10T15:46:45.800Z</time>
      </trkpt>
      <trkpt lat="10.1587069089691" lon="-75.6813365778765">
        <ele>58.2778713</ele>
        <time>2019-09-10T15:46:45.900Z</time>
      </trkpt>
      <trkpt lat="10.1587043135812" lon="-75.6813357995148">
        <ele>58.2778713</ele>
        <time>2019-09-10T15:46:46.000Z</time>
      </trkpt>
      <trkpt lat="10.158701711484" lon="-75.6813350262534">
        <ele>58.2778713</ele>
        <time>2019-09-10T15:46:46.100Z</time>
      </trkpt>
      <trkpt lat="10.1586991446654" lon="-75.6813342358027">
        <ele>58.2778713</ele>
        <time>2019-09-10T15:46:46.200Z</time>
      </trkpt>
      <trkpt lat="10.158696582172" lon="-75.6813334483634">
        <ele>58.2778713</ele>
        <time>2019-09-10T15:46:46.300Z</time>
      </trkpt>
      <trkpt lat="10.1586940620702" lon="-75.6813326916212">
        <ele>58.2778713</ele>
        <time>2019-09-10T15:46:46.400Z</time>
      </trkpt>
      <trkpt lat="10.1586889877345" lon="-75.6813311579664">
        <ele>58.2778713</ele>
        <time>2019-09-10T15:46:46.600Z</time>
      </trkpt>
      <trkpt lat="10.1586864279248" lon="-75.6813303776335">
        <ele>58.2778713</ele>
        <time>2019-09-10T15:46:46.700Z</time>
      </trkpt>
      <trkpt lat="10.1586838512444" lon="-75.6813296095506">
        <ele>58.2778713</ele>
        <time>2019-09-10T15:46:46.800Z</time>
      </trkpt>
      <trkpt lat="10.1586812710074" lon="-75.6813288432999">
        <ele>58.2778713</ele>
        <time>2019-09-10T15:46:46.900Z</time>
      </trkpt>
      <trkpt lat="10.1586787537847" lon="-75.6813280994604">
        <ele>58.2778713</ele>
        <time>2019-09-10T15:46:47.000Z</time>
      </trkpt>
      <trkpt lat="10.1586762328362" lon="-75.6813273530796">
        <ele>58.2778713</ele>
        <time>2019-09-10T15:46:47.100Z</time>
      </trkpt>
      <trkpt lat="10.1586736086834" lon="-75.6813265911327">
        <ele>58.2778713</ele>
        <time>2019-09-10T15:46:47.200Z</time>
      </trkpt>
      <trkpt lat="10.1586709790069" lon="-75.6813258238506">
        <ele>58.2778713</ele>
        <time>2019-09-10T15:46:47.300Z</time>
      </trkpt>
      <trkpt lat="10.1586683034994" lon="-75.6813250297139">
        <ele>58.2778713</ele>
        <time>2019-09-10T15:46:47.400Z</time>
      </trkpt>
      <trkpt lat="10.1586656493181" lon="-75.681324237392">
        <ele>58.2778713</ele>
        <time>2019-09-10T15:46:47.500Z</time>
      </trkpt>
      <trkpt lat="10.1586630498395" lon="-75.6813234696051">
        <ele>58.2778713</ele>
        <time>2019-09-10T15:46:47.600Z</time>
      </trkpt>
      <trkpt lat="10.1586604602227" lon="-75.6813227065746">
        <ele>58.2778713</ele>
        <time>2019-09-10T15:46:47.700Z</time>
      </trkpt>
      <trkpt lat="10.158657883425" lon="-75.6813219281303">
        <ele>58.2778713</ele>
        <time>2019-09-10T15:46:47.800Z</time>
      </trkpt>
      <trkpt lat="10.1586553017681" lon="-75.6813211526321">
        <ele>58.2778713</ele>
        <time>2019-09-10T15:46:47.900Z</time>
      </trkpt>
      <trkpt lat="10.1586501547647" lon="-75.6813195733496">
        <ele>58.2778713</ele>
        <time>2019-09-10T15:46:48.100Z</time>
      </trkpt>
      <trkpt lat="10.158647553397" lon="-75.6813188037175">
        <ele>58.2778713</ele>
        <time>2019-09-10T15:46:48.200Z</time>
      </trkpt>
      <trkpt lat="10.1586449527459" lon="-75.6813180405869">
        <ele>58.2778713</ele>
        <time>2019-09-10T15:46:48.300Z</time>
      </trkpt>
      <trkpt lat="10.1586396217283" lon="-75.681316449546">
        <ele>58.2778713</ele>
        <time>2019-09-10T15:46:48.500Z</time>
      </trkpt>
      <trkpt lat="10.1586370297015" lon="-75.681315681176">
        <ele>58.2778713</ele>
        <time>2019-09-10T15:46:48.600Z</time>
      </trkpt>
      <trkpt lat="10.1586344531774" lon="-75.6813149195402">
        <ele>58.2778713</ele>
        <time>2019-09-10T15:46:48.700Z</time>
      </trkpt>
      <trkpt lat="10.1586318916219" lon="-75.6813141429737">
        <ele>58.2778713</ele>
        <time>2019-09-10T15:46:48.800Z</time>
      </trkpt>
      <trkpt lat="10.1586293265881" lon="-75.681313370352">
        <ele>58.2778713</ele>
        <time>2019-09-10T15:46:48.900Z</time>
      </trkpt>
      <trkpt lat="10.15862672666" lon="-75.6813125775209">
        <ele>58.3778713</ele>
        <time>2019-09-10T15:46:49.000Z</time>
      </trkpt>
      <trkpt lat="10.1586241256442" lon="-75.681311794194">
        <ele>58.3778713</ele>
        <time>2019-09-10T15:46:49.100Z</time>
      </trkpt>
      <trkpt lat="10.1586215212997" lon="-75.6813110270924">
        <ele>58.3778713</ele>
        <time>2019-09-10T15:46:49.200Z</time>
      </trkpt>
      <trkpt lat="10.1586189236319" lon="-75.6813102665315">
        <ele>58.3778713</ele>
        <time>2019-09-10T15:46:49.300Z</time>
      </trkpt>
      <trkpt lat="10.158616292327" lon="-75.6813094808068">
        <ele>58.3778713</ele>
        <time>2019-09-10T15:46:49.400Z</time>
      </trkpt>
      <trkpt lat="10.1586136692945" lon="-75.6813086970142">
        <ele>58.2778713</ele>
        <time>2019-09-10T15:46:49.500Z</time>
      </trkpt>
      <trkpt lat="10.1586110538832" lon="-75.6813079233133">
        <ele>58.2778713</ele>
        <time>2019-09-10T15:46:49.600Z</time>
      </trkpt>
      <trkpt lat="10.1586084501836" lon="-75.6813071553806">
        <ele>58.2778713</ele>
        <time>2019-09-10T15:46:49.700Z</time>
      </trkpt>
      <trkpt lat="10.1586057785844" lon="-75.6813063509479">
        <ele>58.2778713</ele>
        <time>2019-09-10T15:46:49.800Z</time>
      </trkpt>
      <trkpt lat="10.1586031255886" lon="-75.681305555732">
        <ele>58.2778713</ele>
        <time>2019-09-10T15:46:49.900Z</time>
      </trkpt>
      <trkpt lat="10.1585978764818" lon="-75.6813039470689">
        <ele>58.2778713</ele>
        <time>2019-09-10T15:46:50.100Z</time>
      </trkpt>
      <trkpt lat="10.1585953390599" lon="-75.6813031772671">
        <ele>58.2778713</ele>
        <time>2019-09-10T15:46:50.200Z</time>
      </trkpt>
      <trkpt lat="10.1585928403363" lon="-75.6813024251137">
        <ele>58.2778713</ele>
        <time>2019-09-10T15:46:50.300Z</time>
      </trkpt>
      <trkpt lat="10.1585904376389" lon="-75.6813017116014">
        <ele>58.2778713</ele>
        <time>2019-09-10T15:46:50.400Z</time>
      </trkpt>
      <trkpt lat="10.1585880797432" lon="-75.6813010090533">
        <ele>58.2778713</ele>
        <time>2019-09-10T15:46:50.500Z</time>
      </trkpt>
      <trkpt lat="10.1585857942806" lon="-75.6813003228524">
        <ele>58.2778713</ele>
        <time>2019-09-10T15:46:50.600Z</time>
      </trkpt>
      <trkpt lat="10.1585835471387" lon="-75.6812996502637">
        <ele>58.2778713</ele>
        <time>2019-09-10T15:46:50.700Z</time>
      </trkpt>
      <trkpt lat="10.1585813565688" lon="-75.6812990021904">
        <ele>58.2778713</ele>
        <time>2019-09-10T15:46:50.800Z</time>
      </trkpt>
      <trkpt lat="10.1585792032122" lon="-75.6812983640651">
        <ele>58.2778713</ele>
        <time>2019-09-10T15:46:50.900Z</time>
      </trkpt>
      <trkpt lat="10.1585770890033" lon="-75.6812977241252">
        <ele>58.2778713</ele>
        <time>2019-09-10T15:46:51.000Z</time>
      </trkpt>
      <trkpt lat="10.1585750143787" lon="-75.6812970961535">
        <ele>58.2778713</ele>
        <time>2019-09-10T15:46:51.100Z</time>
      </trkpt>
      <trkpt lat="10.1585729714632" lon="-75.6812965153937">
        <ele>58.2778713</ele>
        <time>2019-09-10T15:46:51.200Z</time>
      </trkpt>
      <trkpt lat="10.1585709688027" lon="-75.6812959463803">
        <ele>58.2778713</ele>
        <time>2019-09-10T15:46:51.300Z</time>
      </trkpt>
      <trkpt lat="10.1585689653867" lon="-75.6812953980788">
        <ele>58.2778713</ele>
        <time>2019-09-10T15:46:51.400Z</time>
      </trkpt>
      <trkpt lat="10.1585670037403" lon="-75.6812948468824">
        <ele>58.2778713</ele>
        <time>2019-09-10T15:46:51.500Z</time>
      </trkpt>
      <trkpt lat="10.1585650511219" lon="-75.6812942923178">
        <ele>58.2778713</ele>
        <time>2019-09-10T15:46:51.600Z</time>
      </trkpt>
      <trkpt lat="10.1585631454451" lon="-75.6812937364498">
        <ele>58.2778713</ele>
        <time>2019-09-10T15:46:51.700Z</time>
      </trkpt>
      <trkpt lat="10.1585612372475" lon="-75.6812931593835">
        <ele>58.2778713</ele>
        <time>2019-09-10T15:46:51.800Z</time>
      </trkpt>
      <trkpt lat="10.1585593721515" lon="-75.6812925884629">
        <ele>58.2778713</ele>
        <time>2019-09-10T15:46:51.900Z</time>
      </trkpt>
      <trkpt lat="10.1585574969526" lon="-75.6812920268017">
        <ele>58.2778713</ele>
        <time>2019-09-10T15:46:52.000Z</time>
      </trkpt>
      <trkpt lat="10.1585538482968" lon="-75.6812908808873">
        <ele>58.2778713</ele>
        <time>2019-09-10T15:46:52.200Z</time>
      </trkpt>
      <trkpt lat="10.1585520719836" lon="-75.6812903004017">
        <ele>58.2778713</ele>
        <time>2019-09-10T15:46:52.300Z</time>
      </trkpt>
      <trkpt lat="10.1585502836003" lon="-75.6812896965734">
        <ele>58.2778713</ele>
        <time>2019-09-10T15:46:52.400Z</time>
      </trkpt>
      <trkpt lat="10.1585485186406" lon="-75.6812891058122">
        <ele>58.2778713</ele>
        <time>2019-09-10T15:46:52.500Z</time>
      </trkpt>
      <trkpt lat="10.1585467138101" lon="-75.6812885282847">
        <ele>58.2778713</ele>
        <time>2019-09-10T15:46:52.600Z</time>
      </trkpt>
      <trkpt lat="10.1585431676013" lon="-75.6812874042235">
        <ele>58.2778713</ele>
        <time>2019-09-10T15:46:52.800Z</time>
      </trkpt>
      <trkpt lat="10.1585414121061" lon="-75.6812868460442">
        <ele>58.2778713</ele>
        <time>2019-09-10T15:46:52.900Z</time>
      </trkpt>
      <trkpt lat="10.158539670298" lon="-75.6812862650946">
        <ele>58.2778713</ele>
        <time>2019-09-10T15:46:53.000Z</time>
      </trkpt>
      <trkpt lat="10.1585379210528" lon="-75.6812856852475">
        <ele>58.2778713</ele>
        <time>2019-09-10T15:46:53.100Z</time>
      </trkpt>
      <trkpt lat="10.1585361623463" lon="-75.6812851073838">
        <ele>58.2778713</ele>
        <time>2019-09-10T15:46:53.200Z</time>
      </trkpt>
      <trkpt lat="10.1585344051754" lon="-75.6812845348427">
        <ele>58.2778713</ele>
        <time>2019-09-10T15:46:53.300Z</time>
      </trkpt>
      <trkpt lat="10.1585326788685" lon="-75.6812839841435">
        <ele>58.2778713</ele>
        <time>2019-09-10T15:46:53.400Z</time>
      </trkpt>
      <trkpt lat="10.1585309819606" lon="-75.6812834446989">
        <ele>58.2778713</ele>
        <time>2019-09-10T15:46:53.500Z</time>
      </trkpt>
      <trkpt lat="10.158529303065" lon="-75.681282920407">
        <ele>58.2778713</ele>
        <time>2019-09-10T15:46:53.600Z</time>
      </trkpt>
      <trkpt lat="10.1585276801959" lon="-75.6812824185213">
        <ele>58.2778713</ele>
        <time>2019-09-10T15:46:53.700Z</time>
      </trkpt>
      <trkpt lat="10.1585262011373" lon="-75.6812819559515">
        <ele>58.2778713</ele>
        <time>2019-09-10T15:46:53.800Z</time>
      </trkpt>
      <trkpt lat="10.1585247988166" lon="-75.6812815326409">
        <ele>58.2778713</ele>
        <time>2019-09-10T15:46:53.900Z</time>
      </trkpt>
      <trkpt lat="10.1585235823408" lon="-75.6812811884398">
        <ele>58.2778713</ele>
        <time>2019-09-10T15:46:54.000Z</time>
      </trkpt>
      <trkpt lat="10.1585225615564" lon="-75.6812808923009">
        <ele>58.2778713</ele>
        <time>2019-09-10T15:46:54.100Z</time>
      </trkpt>
      <trkpt lat="10.1585216864049" lon="-75.6812806425637">
        <ele>58.2778713</ele>
        <time>2019-09-10T15:46:54.200Z</time>
      </trkpt>
      <trkpt lat="10.1585208679805" lon="-75.6812804029557">
        <ele>58.2778713</ele>
        <time>2019-09-10T15:46:54.300Z</time>
      </trkpt>
      <trkpt lat="10.1585201054417" lon="-75.681280200517">
        <ele>58.2778713</ele>
        <time>2019-09-10T15:46:54.400Z</time>
      </trkpt>
      <trkpt lat="10.1585194363606" lon="-75.681280016037">
        <ele>58.2778713</ele>
        <time>2019-09-10T15:46:54.500Z</time>
      </trkpt>
      <trkpt lat="10.1585188813623" lon="-75.6812798936346">
        <ele>58.3778713</ele>
        <time>2019-09-10T15:46:54.600Z</time>
      </trkpt>
      <trkpt lat="10.1585184219468" lon="-75.6812797829844">
        <ele>58.3778713</ele>
        <time>2019-09-10T15:46:54.700Z</time>
      </trkpt>
      <trkpt lat="10.1585180261214" lon="-75.6812796918504">
        <ele>58.3778713</ele>
        <time>2019-09-10T15:46:54.800Z</time>
      </trkpt>
      <trkpt lat="10.1585177146455" lon="-75.6812796101052">
        <ele>58.3778713</ele>
        <time>2019-09-10T15:46:54.900Z</time>
      </trkpt>
      <trkpt lat="10.1585174594992" lon="-75.681279571925">
        <ele>58.3778713</ele>
        <time>2019-09-10T15:46:55.000Z</time>
      </trkpt>
      <trkpt lat="10.1585172795754" lon="-75.6812795380014">
        <ele>58.3778713</ele>
        <time>2019-09-10T15:46:55.100Z</time>
      </trkpt>
      <trkpt lat="10.1585171622321" lon="-75.6812795413837">
        <ele>58.3778713</ele>
        <time>2019-09-10T15:46:55.200Z</time>
      </trkpt>
      <trkpt lat="10.1585171044972" lon="-75.6812795352988">
        <ele>58.3778713</ele>
        <time>2019-09-10T15:46:55.300Z</time>
      </trkpt>
      <trkpt lat="10.1585170599684" lon="-75.6812795373156">
        <ele>58.3778713</ele>
        <time>2019-09-10T15:46:55.400Z</time>
      </trkpt>
      <trkpt lat="10.1585170556352" lon="-75.6812795355106">
        <ele>58.3778713</ele>
        <time>2019-09-10T15:46:55.500Z</time>
      </trkpt>
      <trkpt lat="10.1585170458316" lon="-75.6812795624425">
        <ele>58.2778713</ele>
        <time>2019-09-10T15:46:55.600Z</time>
      </trkpt>
      <trkpt lat="10.1585170642463" lon="-75.6812795875847">
        <ele>58.2778713</ele>
        <time>2019-09-10T15:46:55.700Z</time>
      </trkpt>
      <trkpt lat="10.1585170900603" lon="-75.6812796273021">
        <ele>58.2778713</ele>
        <time>2019-09-10T15:46:55.800Z</time>
      </trkpt>
      <trkpt lat="10.1585171435813" lon="-75.6812796572211">
        <ele>58.2778713</ele>
        <time>2019-09-10T15:46:55.900Z</time>
      </trkpt>
      <trkpt lat="10.1585171788537" lon="-75.6812796766705">
        <ele>58.2778713</ele>
        <time>2019-09-10T15:46:56.000Z</time>
      </trkpt>
      <trkpt lat="10.158517234387" lon="-75.6812796856261">
        <ele>58.2778713</ele>
        <time>2019-09-10T15:46:56.100Z</time>
      </trkpt>
      <trkpt lat="10.1585172860869" lon="-75.6812796874014">
        <ele>58.2778713</ele>
        <time>2019-09-10T15:46:56.200Z</time>
      </trkpt>
      <trkpt lat="10.1585173545378" lon="-75.6812796845856">
        <ele>58.2778713</ele>
        <time>2019-09-10T15:46:56.300Z</time>
      </trkpt>
      <trkpt lat="10.1585174060115" lon="-75.6812796814458">
        <ele>58.2778713</ele>
        <time>2019-09-10T15:46:56.400Z</time>
      </trkpt>
      <trkpt lat="10.1585174726351" lon="-75.6812796873304">
        <ele>58.2778713</ele>
        <time>2019-09-10T15:46:56.500Z</time>
      </trkpt>
      <trkpt lat="10.1585175133575" lon="-75.6812797020565">
        <ele>58.2778713</ele>
        <time>2019-09-10T15:46:56.600Z</time>
      </trkpt>
      <trkpt lat="10.1585175640932" lon="-75.681279719209">
        <ele>58.2778713</ele>
        <time>2019-09-10T15:46:56.700Z</time>
      </trkpt>
      <trkpt lat="10.1585177090861" lon="-75.6812796681823">
        <ele>58.2778713</ele>
        <time>2019-09-10T15:46:56.900Z</time>
      </trkpt>
      <trkpt lat="10.1585177783838" lon="-75.6812796306121">
        <ele>58.2778713</ele>
        <time>2019-09-10T15:46:57.000Z</time>
      </trkpt>
      <trkpt lat="10.1585178512143" lon="-75.681279601475">
        <ele>58.2778713</ele>
        <time>2019-09-10T15:46:57.100Z</time>
      </trkpt>
      <trkpt lat="10.1585178913042" lon="-75.6812795465379">
        <ele>58.2778713</ele>
        <time>2019-09-10T15:46:57.200Z</time>
      </trkpt>
      <trkpt lat="10.1585179262292" lon="-75.6812795073874">
        <ele>58.2778713</ele>
        <time>2019-09-10T15:46:57.300Z</time>
      </trkpt>
      <trkpt lat="10.1585179708054" lon="-75.6812794852256">
        <ele>58.2778713</ele>
        <time>2019-09-10T15:46:57.400Z</time>
      </trkpt>
      <trkpt lat="10.158518031862" lon="-75.681279479068">
        <ele>58.2778713</ele>
        <time>2019-09-10T15:46:57.500Z</time>
      </trkpt>
      <trkpt lat="10.1585181147686" lon="-75.6812794497062">
        <ele>58.2778713</ele>
        <time>2019-09-10T15:46:57.600Z</time>
      </trkpt>
      <trkpt lat="10.1585182773707" lon="-75.681279393477">
        <ele>58.2778713</ele>
        <time>2019-09-10T15:46:57.800Z</time>
      </trkpt>
      <trkpt lat="10.1585183411279" lon="-75.6812793813517">
        <ele>58.2778713</ele>
        <time>2019-09-10T15:46:57.900Z</time>
      </trkpt>
      <trkpt lat="10.1585184022517" lon="-75.6812793828028">
        <ele>58.2778713</ele>
        <time>2019-09-10T15:46:58.000Z</time>
      </trkpt>
      <trkpt lat="10.1585184478107" lon="-75.6812794038658">
        <ele>58.2778713</ele>
        <time>2019-09-10T15:46:58.100Z</time>
      </trkpt>
      <trkpt lat="10.15851852014" lon="-75.6812794150388">
        <ele>58.2778713</ele>
        <time>2019-09-10T15:46:58.200Z</time>
      </trkpt>
      <trkpt lat="10.1585185989828" lon="-75.6812794268193">
        <ele>58.2778713</ele>
        <time>2019-09-10T15:46:58.300Z</time>
      </trkpt>
      <trkpt lat="10.1585187049752" lon="-75.6812794368341">
        <ele>58.2778713</ele>
        <time>2019-09-10T15:46:58.400Z</time>
      </trkpt>
      <trkpt lat="10.1585188061239" lon="-75.6812794320584">
        <ele>58.2778713</ele>
        <time>2019-09-10T15:46:58.500Z</time>
      </trkpt>
      <trkpt lat="10.1585188999115" lon="-75.6812793656414">
        <ele>58.2778713</ele>
        <time>2019-09-10T15:46:58.600Z</time>
      </trkpt>
      <trkpt lat="10.1585189905876" lon="-75.6812793011378">
        <ele>58.1778713</ele>
        <time>2019-09-10T15:46:58.700Z</time>
      </trkpt>
      <trkpt lat="10.1585190772208" lon="-75.6812792157623">
        <ele>58.1778713</ele>
        <time>2019-09-10T15:46:58.800Z</time>
      </trkpt>
      <trkpt lat="10.1585191481885" lon="-75.6812791487724">
        <ele>58.1778713</ele>
        <time>2019-09-10T15:46:58.900Z</time>
      </trkpt>
      <trkpt lat="10.1585192175061" lon="-75.6812790396922">
        <ele>58.0778713</ele>
        <time>2019-09-10T15:46:59.000Z</time>
      </trkpt>
      <trkpt lat="10.1585192656507" lon="-75.6812789549588">
        <ele>58.0778713</ele>
        <time>2019-09-10T15:46:59.100Z</time>
      </trkpt>
      <trkpt lat="10.1585192936589" lon="-75.6812788600167">
        <ele>57.9778713</ele>
        <time>2019-09-10T15:46:59.200Z</time>
      </trkpt>
      <trkpt lat="10.1585193150756" lon="-75.6812787768773">
        <ele>57.8778713</ele>
        <time>2019-09-10T15:46:59.300Z</time>
      </trkpt>
      <trkpt lat="10.158519338805" lon="-75.6812786938488">
        <ele>57.8778713</ele>
        <time>2019-09-10T15:46:59.400Z</time>
      </trkpt>
      <trkpt lat="10.1585193567074" lon="-75.6812786195091">
        <ele>57.6778713</ele>
        <time>2019-09-10T15:46:59.500Z</time>
      </trkpt>
      <trkpt lat="10.1585193479323" lon="-75.6812785407539">
        <ele>57.5778713</ele>
        <time>2019-09-10T15:46:59.600Z</time>
      </trkpt>
      <trkpt lat="10.158519318985" lon="-75.6812784717576">
        <ele>57.4778713</ele>
        <time>2019-09-10T15:46:59.700Z</time>
      </trkpt>
      <trkpt lat="10.1585193077072" lon="-75.6812783834428">
        <ele>57.3778713</ele>
        <time>2019-09-10T15:46:59.800Z</time>
      </trkpt>
      <trkpt lat="10.1585192992155" lon="-75.6812782972823">
        <ele>57.1778713</ele>
        <time>2019-09-10T15:46:59.900Z</time>
      </trkpt>
      <trkpt lat="10.158519301685" lon="-75.6812781903233">
        <ele>57.0778713</ele>
        <time>2019-09-10T15:47:00.000Z</time>
      </trkpt>
      <trkpt lat="10.158519249137" lon="-75.6812780194178">
        <ele>56.6778713</ele>
        <time>2019-09-10T15:47:00.200Z</time>
      </trkpt>
      <trkpt lat="10.1585191859623" lon="-75.6812778831732">
        <ele>56.3778713</ele>
        <time>2019-09-10T15:47:00.400Z</time>
      </trkpt>
      <trkpt lat="10.1585191726068" lon="-75.6812778302953">
        <ele>56.1778713</ele>
        <time>2019-09-10T15:47:00.500Z</time>
      </trkpt>
      <trkpt lat="10.1585191209438" lon="-75.6812777989975">
        <ele>55.9778713</ele>
        <time>2019-09-10T15:47:00.600Z</time>
      </trkpt>
      <trkpt lat="10.1585189793617" lon="-75.6812777809912">
        <ele>55.4778713</ele>
        <time>2019-09-10T15:47:00.800Z</time>
      </trkpt>
      <trkpt lat="10.1585189634026" lon="-75.6812777531053">
        <ele>55.2778713</ele>
        <time>2019-09-10T15:47:00.900Z</time>
      </trkpt>
      <trkpt lat="10.1585190375383" lon="-75.6812777092317">
        <ele>54.9778713</ele>
        <time>2019-09-10T15:47:01.000Z</time>
      </trkpt>
      <trkpt lat="10.1585191268714" lon="-75.6812776877776">
        <ele>54.7778713</ele>
        <time>2019-09-10T15:47:01.100Z</time>
      </trkpt>
      <trkpt lat="10.1585191781969" lon="-75.6812777020083">
        <ele>54.4778713</ele>
        <time>2019-09-10T15:47:01.200Z</time>
      </trkpt>
      <trkpt lat="10.1585192023252" lon="-75.6812777402437">
        <ele>54.1778713</ele>
        <time>2019-09-10T15:47:01.300Z</time>
      </trkpt>
      <trkpt lat="10.1585191638813" lon="-75.6812778291172">
        <ele>53.8778713</ele>
        <time>2019-09-10T15:47:01.400Z</time>
      </trkpt>
      <trkpt lat="10.1585191031028" lon="-75.6812779559712">
        <ele>53.5778713</ele>
        <time>2019-09-10T15:47:01.500Z</time>
      </trkpt>
      <trkpt lat="10.1585190215697" lon="-75.6812780797263">
        <ele>53.2778713</ele>
        <time>2019-09-10T15:47:01.600Z</time>
      </trkpt>
      <trkpt lat="10.1585189598566" lon="-75.6812782061688">
        <ele>52.9778713</ele>
        <time>2019-09-10T15:47:01.700Z</time>
      </trkpt>
      <trkpt lat="10.1585189740751" lon="-75.6812783608827">
        <ele>52.6778713</ele>
        <time>2019-09-10T15:47:01.800Z</time>
      </trkpt>
      <trkpt lat="10.1585190129664" lon="-75.6812785277681">
        <ele>52.3778713</ele>
        <time>2019-09-10T15:47:01.900Z</time>
      </trkpt>
      <trkpt lat="10.1585190423493" lon="-75.6812786508757">
        <ele>51.9778713</ele>
        <time>2019-09-10T15:47:02.000Z</time>
      </trkpt>
      <trkpt lat="10.1585190531907" lon="-75.6812787678892">
        <ele>51.6778713</ele>
        <time>2019-09-10T15:47:02.100Z</time>
      </trkpt>
      <trkpt lat="10.158519043819" lon="-75.6812789113279">
        <ele>51.3778713</ele>
        <time>2019-09-10T15:47:02.200Z</time>
      </trkpt>
      <trkpt lat="10.1585190847661" lon="-75.6812790587854">
        <ele>51.0778713</ele>
        <time>2019-09-10T15:47:02.300Z</time>
      </trkpt>
      <trkpt lat="10.1585194298867" lon="-75.6812795071175">
        <ele>50.4778713</ele>
        <time>2019-09-10T15:47:02.500Z</time>
      </trkpt>
      <trkpt lat="10.1585195256822" lon="-75.6812797351076">
        <ele>50.1778713</ele>
        <time>2019-09-10T15:47:02.600Z</time>
      </trkpt>
      <trkpt lat="10.1585195862003" lon="-75.6812799795392">
        <ele>49.8778713</ele>
        <time>2019-09-10T15:47:02.700Z</time>
      </trkpt>
      <trkpt lat="10.1585196950789" lon="-75.6812802127072">
        <ele>49.5778713</ele>
        <time>2019-09-10T15:47:02.800Z</time>
      </trkpt>
      <trkpt lat="10.1585197619355" lon="-75.6812804042445">
        <ele>49.2778713</ele>
        <time>2019-09-10T15:47:02.900Z</time>
      </trkpt>
      <trkpt lat="10.1585197635478" lon="-75.6812805025591">
        <ele>48.8778713</ele>
        <time>2019-09-10T15:47:03.000Z</time>
      </trkpt>
      <trkpt lat="10.1585197392639" lon="-75.68128058388">
        <ele>48.5778713</ele>
        <time>2019-09-10T15:47:03.100Z</time>
      </trkpt>
      <trkpt lat="10.1585197216429" lon="-75.6812806206798">
        <ele>48.2778713</ele>
        <time>2019-09-10T15:47:03.200Z</time>
      </trkpt>
      <trkpt lat="10.1585197028242" lon="-75.6812806569917">
        <ele>47.9778713</ele>
        <time>2019-09-10T15:47:03.300Z</time>
      </trkpt>
      <trkpt lat="10.1585196765" lon="-75.6812806984907">
        <ele>47.6778713</ele>
        <time>2019-09-10T15:47:03.400Z</time>
      </trkpt>
      <trkpt lat="10.1585196096454" lon="-75.6812807428725">
        <ele>47.3778713</ele>
        <time>2019-09-10T15:47:03.500Z</time>
      </trkpt>
      <trkpt lat="10.1585195316238" lon="-75.6812807699717">
        <ele>46.9778713</ele>
        <time>2019-09-10T15:47:03.600Z</time>
      </trkpt>
      <trkpt lat="10.1585194241967" lon="-75.681280809853">
        <ele>46.6778713</ele>
        <time>2019-09-10T15:47:03.700Z</time>
      </trkpt>
      <trkpt lat="10.1585193182485" lon="-75.6812808512314">
        <ele>46.3778713</ele>
        <time>2019-09-10T15:47:03.800Z</time>
      </trkpt>
      <trkpt lat="10.1585193096354" lon="-75.681280890545">
        <ele>46.0778713</ele>
        <time>2019-09-10T15:47:03.900Z</time>
      </trkpt>
      <trkpt lat="10.1585193259754" lon="-75.6812809203019">
        <ele>45.7778713</ele>
        <time>2019-09-10T15:47:04.000Z</time>
      </trkpt>
      <trkpt lat="10.1585192355164" lon="-75.6812809450452">
        <ele>45.4778713</ele>
        <time>2019-09-10T15:47:04.100Z</time>
      </trkpt>
      <trkpt lat="10.1585191358958" lon="-75.6812808992083">
        <ele>45.1778713</ele>
        <time>2019-09-10T15:47:04.200Z</time>
      </trkpt>
      <trkpt lat="10.1585191443107" lon="-75.681280873476">
        <ele>44.8778713</ele>
        <time>2019-09-10T15:47:04.300Z</time>
      </trkpt>
      <trkpt lat="10.1585191675736" lon="-75.6812809544894">
        <ele>44.5778713</ele>
        <time>2019-09-10T15:47:04.400Z</time>
      </trkpt>
      <trkpt lat="10.1585190536768" lon="-75.6812810888016">
        <ele>44.2778713</ele>
        <time>2019-09-10T15:47:04.500Z</time>
      </trkpt>
      <trkpt lat="10.1585188893911" lon="-75.6812812280135">
        <ele>43.9778713</ele>
        <time>2019-09-10T15:47:04.600Z</time>
      </trkpt>
      <trkpt lat="10.1585186515686" lon="-75.6812814220121">
        <ele>43.6778713</ele>
        <time>2019-09-10T15:47:04.700Z</time>
      </trkpt>
      <trkpt lat="10.1585182223287" lon="-75.6812817007095">
        <ele>43.3778713</ele>
        <time>2019-09-10T15:47:04.800Z</time>
      </trkpt>
      <trkpt lat="10.1585177914819" lon="-75.6812820539359">
        <ele>43.0778713</ele>
        <time>2019-09-10T15:47:04.900Z</time>
      </trkpt>
      <trkpt lat="10.1585173654692" lon="-75.6812824765384">
        <ele>42.6778713</ele>
        <time>2019-09-10T15:47:05.000Z</time>
      </trkpt>
      <trkpt lat="10.1585168714627" lon="-75.6812829677874">
        <ele>42.3778713</ele>
        <time>2019-09-10T15:47:05.100Z</time>
      </trkpt>
      <trkpt lat="10.1585162599433" lon="-75.681283498908">
        <ele>42.0778713</ele>
        <time>2019-09-10T15:47:05.200Z</time>
      </trkpt>
      <trkpt lat="10.1585155699911" lon="-75.6812841087517">
        <ele>41.7778713</ele>
        <time>2019-09-10T15:47:05.300Z</time>
      </trkpt>
      <trkpt lat="10.1585140451855" lon="-75.6812856136579">
        <ele>41.1778713</ele>
        <time>2019-09-10T15:47:05.500Z</time>
      </trkpt>
      <trkpt lat="10.1585132598664" lon="-75.6812864167825">
        <ele>40.7778713</ele>
        <time>2019-09-10T15:47:05.600Z</time>
      </trkpt>
      <trkpt lat="10.1585124289471" lon="-75.6812872805819">
        <ele>40.4778713</ele>
        <time>2019-09-10T15:47:05.700Z</time>
      </trkpt>
      <trkpt lat="10.158510719867" lon="-75.6812890159242">
        <ele>39.9778713</ele>
        <time>2019-09-10T15:47:05.900Z</time>
      </trkpt>
      <trkpt lat="10.1585098945936" lon="-75.6812898988555">
        <ele>39.6778713</ele>
        <time>2019-09-10T15:47:06.000Z</time>
      </trkpt>
      <trkpt lat="10.1585090461556" lon="-75.6812907712523">
        <ele>39.3778713</ele>
        <time>2019-09-10T15:47:06.100Z</time>
      </trkpt>
      <trkpt lat="10.1585083307874" lon="-75.6812914982038">
        <ele>39.0778713</ele>
        <time>2019-09-10T15:47:06.200Z</time>
      </trkpt>
      <trkpt lat="10.1585077844754" lon="-75.6812921145672">
        <ele>38.7778713</ele>
        <time>2019-09-10T15:47:06.300Z</time>
      </trkpt>
      <trkpt lat="10.1585073497273" lon="-75.6812925690608">
        <ele>38.4778713</ele>
        <time>2019-09-10T15:47:06.400Z</time>
      </trkpt>
      <trkpt lat="10.1585069328253" lon="-75.6812929415364">
        <ele>38.2778713</ele>
        <time>2019-09-10T15:47:06.500Z</time>
      </trkpt>
      <trkpt lat="10.1585066304297" lon="-75.6812931542757">
        <ele>37.9778713</ele>
        <time>2019-09-10T15:47:06.600Z</time>
      </trkpt>
      <trkpt lat="10.1585063894542" lon="-75.6812933653732">
        <ele>37.7778713</ele>
        <time>2019-09-10T15:47:06.700Z</time>
      </trkpt>
      <trkpt lat="10.1585061529773" lon="-75.6812935731232">
        <ele>37.4778713</ele>
        <time>2019-09-10T15:47:06.800Z</time>
      </trkpt>
      <trkpt lat="10.1585058342313" lon="-75.681293780907">
        <ele>37.2778713</ele>
        <time>2019-09-10T15:47:06.900Z</time>
      </trkpt>
      <trkpt lat="10.1585055637631" lon="-75.6812940337647">
        <ele>37.0778713</ele>
        <time>2019-09-10T15:47:07.000Z</time>
      </trkpt>
      <trkpt lat="10.1585053685428" lon="-75.6812943816782">
        <ele>36.7778713</ele>
        <time>2019-09-10T15:47:07.100Z</time>
      </trkpt>
      <trkpt lat="10.158505078214" lon="-75.6812948426112">
        <ele>36.5778713</ele>
        <time>2019-09-10T15:47:07.200Z</time>
      </trkpt>
      <trkpt lat="10.1585046759232" lon="-75.6812953533018">
        <ele>36.2778713</ele>
        <time>2019-09-10T15:47:07.300Z</time>
      </trkpt>
      <trkpt lat="10.1585041677689" lon="-75.681295964614">
        <ele>36.0778713</ele>
        <time>2019-09-10T15:47:07.400Z</time>
      </trkpt>
      <trkpt lat="10.1585036242456" lon="-75.6812966349616">
        <ele>35.7778713</ele>
        <time>2019-09-10T15:47:07.500Z</time>
      </trkpt>
      <trkpt lat="10.1585029724136" lon="-75.6812974250184">
        <ele>35.5778713</ele>
        <time>2019-09-10T15:47:07.600Z</time>
      </trkpt>
      <trkpt lat="10.1585022034396" lon="-75.6812982762082">
        <ele>35.3778713</ele>
        <time>2019-09-10T15:47:07.700Z</time>
      </trkpt>
      <trkpt lat="10.1585013995647" lon="-75.6812992031027">
        <ele>35.0778713</ele>
        <time>2019-09-10T15:47:07.800Z</time>
      </trkpt>
      <trkpt lat="10.1585005694279" lon="-75.6813002053908">
        <ele>34.8778713</ele>
        <time>2019-09-10T15:47:07.900Z</time>
      </trkpt>
      <trkpt lat="10.1584996502609" lon="-75.6813013266744">
        <ele>34.6778713</ele>
        <time>2019-09-10T15:47:08.000Z</time>
      </trkpt>
      <trkpt lat="10.1584987049849" lon="-75.6813024821669">
        <ele>34.3778713</ele>
        <time>2019-09-10T15:47:08.100Z</time>
      </trkpt>
      <trkpt lat="10.1584977336702" lon="-75.6813036627971">
        <ele>34.1778713</ele>
        <time>2019-09-10T15:47:08.200Z</time>
      </trkpt>
      <trkpt lat="10.1584967578838" lon="-75.6813048568916">
        <ele>33.9778713</ele>
        <time>2019-09-10T15:47:08.300Z</time>
      </trkpt>
      <trkpt lat="10.1584957847891" lon="-75.681306021353">
        <ele>33.6778713</ele>
        <time>2019-09-10T15:47:08.400Z</time>
      </trkpt>
      <trkpt lat="10.158494817355" lon="-75.6813071775744">
        <ele>33.4778713</ele>
        <time>2019-09-10T15:47:08.500Z</time>
      </trkpt>
      <trkpt lat="10.1584939054785" lon="-75.6813082212886">
        <ele>33.2778713</ele>
        <time>2019-09-10T15:47:08.600Z</time>
      </trkpt>
      <trkpt lat="10.1584930971156" lon="-75.681309150483">
        <ele>33.0778713</ele>
        <time>2019-09-10T15:47:08.700Z</time>
      </trkpt>
      <trkpt lat="10.1584924830359" lon="-75.6813098104191">
        <ele>32.8778713</ele>
        <time>2019-09-10T15:47:08.800Z</time>
      </trkpt>
      <trkpt lat="10.1584919724812" lon="-75.6813103042261">
        <ele>32.6778713</ele>
        <time>2019-09-10T15:47:08.900Z</time>
      </trkpt>
      <trkpt lat="10.1584916449018" lon="-75.6813105710953">
        <ele>32.3778713</ele>
        <time>2019-09-10T15:47:09.000Z</time>
      </trkpt>
      <trkpt lat="10.1584914071425" lon="-75.681310728101">
        <ele>32.1778713</ele>
        <time>2019-09-10T15:47:09.100Z</time>
      </trkpt>
      <trkpt lat="10.1584912208859" lon="-75.6813106773382">
        <ele>31.8778713</ele>
        <time>2019-09-10T15:47:09.300Z</time>
      </trkpt>
      <trkpt lat="10.1584911901035" lon="-75.6813106337274">
        <ele>31.6778713</ele>
        <time>2019-09-10T15:47:09.400Z</time>
      </trkpt>
      <trkpt lat="10.1584911965489" lon="-75.6813105911306">
        <ele>31.4778713</ele>
        <time>2019-09-10T15:47:09.500Z</time>
      </trkpt>
      <trkpt lat="10.1584912981589" lon="-75.6813105559209">
        <ele>31.2778713</ele>
        <time>2019-09-10T15:47:09.600Z</time>
      </trkpt>
      <trkpt lat="10.1584913734663" lon="-75.6813105227369">
        <ele>31.1778713</ele>
        <time>2019-09-10T15:47:09.700Z</time>
      </trkpt>
      <trkpt lat="10.1584914138549" lon="-75.681310551208">
        <ele>30.9778713</ele>
        <time>2019-09-10T15:47:09.800Z</time>
      </trkpt>
      <trkpt lat="10.1584914791914" lon="-75.6813105513951">
        <ele>30.7778713</ele>
        <time>2019-09-10T15:47:09.900Z</time>
      </trkpt>
      <trkpt lat="10.1584915561142" lon="-75.6813105464646">
        <ele>30.5778713</ele>
        <time>2019-09-10T15:47:10.000Z</time>
      </trkpt>
      <trkpt lat="10.1584916131537" lon="-75.6813104991397">
        <ele>30.3778713</ele>
        <time>2019-09-10T15:47:10.100Z</time>
      </trkpt>
      <trkpt lat="10.1584916458659" lon="-75.6813104618389">
        <ele>30.1778713</ele>
        <time>2019-09-10T15:47:10.200Z</time>
      </trkpt>
      <trkpt lat="10.1584916988571" lon="-75.6813103956927">
        <ele>29.9778713</ele>
        <time>2019-09-10T15:47:10.300Z</time>
      </trkpt>
      <trkpt lat="10.1584917499723" lon="-75.6813103746065">
        <ele>29.8778713</ele>
        <time>2019-09-10T15:47:10.400Z</time>
      </trkpt>
      <trkpt lat="10.1584918123857" lon="-75.6813103389224">
        <ele>29.6778713</ele>
        <time>2019-09-10T15:47:10.500Z</time>
      </trkpt>
      <trkpt lat="10.1584918901373" lon="-75.6813103339244">
        <ele>29.4778713</ele>
        <time>2019-09-10T15:47:10.600Z</time>
      </trkpt>
      <trkpt lat="10.1584919787719" lon="-75.6813103057166">
        <ele>29.3778713</ele>
        <time>2019-09-10T15:47:10.700Z</time>
      </trkpt>
      <trkpt lat="10.1584920337808" lon="-75.681310297766">
        <ele>29.1778713</ele>
        <time>2019-09-10T15:47:10.800Z</time>
      </trkpt>
      <trkpt lat="10.1584920757946" lon="-75.6813102753481">
        <ele>28.9778713</ele>
        <time>2019-09-10T15:47:10.900Z</time>
      </trkpt>
      <trkpt lat="10.1584921046034" lon="-75.6813102700891">
        <ele>28.8778713</ele>
        <time>2019-09-10T15:47:11.000Z</time>
      </trkpt>
      <trkpt lat="10.1584921527923" lon="-75.6813102491116">
        <ele>28.6778713</ele>
        <time>2019-09-10T15:47:11.100Z</time>
      </trkpt>
      <trkpt lat="10.1584922039662" lon="-75.6813102340133">
        <ele>28.4778713</ele>
        <time>2019-09-10T15:47:11.200Z</time>
      </trkpt>
      <trkpt lat="10.1584922525606" lon="-75.6813102147156">
        <ele>28.3778713</ele>
        <time>2019-09-10T15:47:11.300Z</time>
      </trkpt>
      <trkpt lat="10.1584922995966" lon="-75.6813101974001">
        <ele>28.1778713</ele>
        <time>2019-09-10T15:47:11.400Z</time>
      </trkpt>
      <trkpt lat="10.158492342879" lon="-75.6813101844342">
        <ele>28.0778713</ele>
        <time>2019-09-10T15:47:11.500Z</time>
      </trkpt>
      <trkpt lat="10.1584923636742" lon="-75.6813101995673">
        <ele>27.8778713</ele>
        <time>2019-09-10T15:47:11.600Z</time>
      </trkpt>
      <trkpt lat="10.1584923609287" lon="-75.6813102103682">
        <ele>27.7778713</ele>
        <time>2019-09-10T15:47:11.700Z</time>
      </trkpt>
      <trkpt lat="10.1584923593067" lon="-75.6813101972826">
        <ele>27.5778713</ele>
        <time>2019-09-10T15:47:11.800Z</time>
      </trkpt>
      <trkpt lat="10.1584923582482" lon="-75.6813101823715">
        <ele>27.4778713</ele>
        <time>2019-09-10T15:47:11.900Z</time>
      </trkpt>
      <trkpt lat="10.1584923499318" lon="-75.6813101353424">
        <ele>27.2778713</ele>
        <time>2019-09-10T15:47:12.000Z</time>
      </trkpt>
      <trkpt lat="10.1584923328592" lon="-75.6813100982505">
        <ele>27.1778713</ele>
        <time>2019-09-10T15:47:12.100Z</time>
      </trkpt>
      <trkpt lat="10.1584922713854" lon="-75.6813100401333">
        <ele>27.0778713</ele>
        <time>2019-09-10T15:47:12.200Z</time>
      </trkpt>
      <trkpt lat="10.1584922042202" lon="-75.6813099963354">
        <ele>26.8778713</ele>
        <time>2019-09-10T15:47:12.300Z</time>
      </trkpt>
      <trkpt lat="10.1584921532076" lon="-75.6813099712478">
        <ele>26.7778713</ele>
        <time>2019-09-10T15:47:12.400Z</time>
      </trkpt>
      <trkpt lat="10.1584921142731" lon="-75.681309962862">
        <ele>26.5778713</ele>
        <time>2019-09-10T15:47:12.500Z</time>
      </trkpt>
      <trkpt lat="10.1584920710803" lon="-75.6813099708474">
        <ele>26.4778713</ele>
        <time>2019-09-10T15:47:12.600Z</time>
      </trkpt>
      <trkpt lat="10.1584920271986" lon="-75.6813099782214">
        <ele>26.3778713</ele>
        <time>2019-09-10T15:47:12.700Z</time>
      </trkpt>
      <trkpt lat="10.1584919856179" lon="-75.6813099515323">
        <ele>26.2778713</ele>
        <time>2019-09-10T15:47:12.800Z</time>
      </trkpt>
      <trkpt lat="10.1584919564997" lon="-75.6813099274956">
        <ele>26.0778713</ele>
        <time>2019-09-10T15:47:12.900Z</time>
      </trkpt>
      <trkpt lat="10.1584919169774" lon="-75.68130991154">
        <ele>25.9778713</ele>
        <time>2019-09-10T15:47:13.000Z</time>
      </trkpt>
      <trkpt lat="10.1584918424272" lon="-75.6813099214119">
        <ele>25.7778713</ele>
        <time>2019-09-10T15:47:13.200Z</time>
      </trkpt>
      <trkpt lat="10.1584918169274" lon="-75.6813099290339">
        <ele>25.5778713</ele>
        <time>2019-09-10T15:47:13.300Z</time>
      </trkpt>
      <trkpt lat="10.1584918118694" lon="-75.6813098970749">
        <ele>25.4778713</ele>
        <time>2019-09-10T15:47:13.400Z</time>
      </trkpt>
      <trkpt lat="10.1584918147469" lon="-75.6813098413751">
        <ele>25.2778713</ele>
        <time>2019-09-10T15:47:13.600Z</time>
      </trkpt>
      <trkpt lat="10.1584918233646" lon="-75.6813098288225">
        <ele>25.1778713</ele>
        <time>2019-09-10T15:47:13.700Z</time>
      </trkpt>
      <trkpt lat="10.1584918342866" lon="-75.6813098231435">
        <ele>25.0778713</ele>
        <time>2019-09-10T15:47:13.800Z</time>
      </trkpt>
      <trkpt lat="10.1584918421829" lon="-75.6813098327826">
        <ele>24.8778713</ele>
        <time>2019-09-10T15:47:13.900Z</time>
      </trkpt>
      <trkpt lat="10.1584918173264" lon="-75.6813098427567">
        <ele>24.7778713</ele>
        <time>2019-09-10T15:47:14.000Z</time>
      </trkpt>
      <trkpt lat="10.1584917926001" lon="-75.6813098488796">
        <ele>24.6778713</ele>
        <time>2019-09-10T15:47:14.100Z</time>
      </trkpt>
      <trkpt lat="10.1584917426817" lon="-75.6813098392231">
        <ele>24.5778713</ele>
        <time>2019-09-10T15:47:14.200Z</time>
      </trkpt>
      <trkpt lat="10.158491713259" lon="-75.6813098273778">
        <ele>24.4778713</ele>
        <time>2019-09-10T15:47:14.300Z</time>
      </trkpt>
      <trkpt lat="10.1584916010201" lon="-75.6813098334658">
        <ele>24.2778713</ele>
        <time>2019-09-10T15:47:14.500Z</time>
      </trkpt>
      <trkpt lat="10.1584915570668" lon="-75.6813097994919">
        <ele>24.1778713</ele>
        <time>2019-09-10T15:47:14.600Z</time>
      </trkpt>
      <trkpt lat="10.1584915299369" lon="-75.6813097763343">
        <ele>24.0778713</ele>
        <time>2019-09-10T15:47:14.700Z</time>
      </trkpt>
      <trkpt lat="10.1584915239964" lon="-75.6813097688863">
        <ele>23.9778713</ele>
        <time>2019-09-10T15:47:14.800Z</time>
      </trkpt>
      <trkpt lat="10.1584915288622" lon="-75.6813097661143">
        <ele>23.8778713</ele>
        <time>2019-09-10T15:47:14.900Z</time>
      </trkpt>
      <trkpt lat="10.1584915480778" lon="-75.68130973127">
        <ele>23.7778713</ele>
        <time>2019-09-10T15:47:15.000Z</time>
      </trkpt>
      <trkpt lat="10.1584916187816" lon="-75.6813096903878">
        <ele>23.4778713</ele>
        <time>2019-09-10T15:47:15.200Z</time>
      </trkpt>
      <trkpt lat="10.158491662914" lon="-75.6813097047506">
        <ele>23.3778713</ele>
        <time>2019-09-10T15:47:15.300Z</time>
      </trkpt>
      <trkpt lat="10.1584916969534" lon="-75.68130970645">
        <ele>23.2778713</ele>
        <time>2019-09-10T15:47:15.400Z</time>
      </trkpt>
      <trkpt lat="10.1584917342464" lon="-75.681309706722">
        <ele>23.1778713</ele>
        <time>2019-09-10T15:47:15.500Z</time>
      </trkpt>
      <trkpt lat="10.1584917650647" lon="-75.6813097441772">
        <ele>23.0778713</ele>
        <time>2019-09-10T15:47:15.600Z</time>
      </trkpt>
      <trkpt lat="10.1584917872799" lon="-75.6813097770936">
        <ele>22.9778713</ele>
        <time>2019-09-10T15:47:15.700Z</time>
      </trkpt>
      <trkpt lat="10.1584917414311" lon="-75.6813097642452">
        <ele>22.8778713</ele>
        <time>2019-09-10T15:47:15.800Z</time>
      </trkpt>
      <trkpt lat="10.1584916951589" lon="-75.681309747639">
        <ele>22.7778713</ele>
        <time>2019-09-10T15:47:15.900Z</time>
      </trkpt>
      <trkpt lat="10.1584915970321" lon="-75.6813097892523">
        <ele>22.5778713</ele>
        <time>2019-09-10T15:47:16.100Z</time>
      </trkpt>
      <trkpt lat="10.1584916039969" lon="-75.6813098141551">
        <ele>22.4778713</ele>
        <time>2019-09-10T15:47:16.200Z</time>
      </trkpt>
      <trkpt lat="10.1584916213741" lon="-75.6813098348997">
        <ele>22.3778713</ele>
        <time>2019-09-10T15:47:16.300Z</time>
      </trkpt>
      <trkpt lat="10.1584917285469" lon="-75.6813097896636">
        <ele>22.1778713</ele>
        <time>2019-09-10T15:47:16.500Z</time>
      </trkpt>
      <trkpt lat="10.1584917373193" lon="-75.681309802945">
        <ele>21.9778713</ele>
        <time>2019-09-10T15:47:16.700Z</time>
      </trkpt>
      <trkpt lat="10.1584917204714" lon="-75.6813098470127">
        <ele>21.8778713</ele>
        <time>2019-09-10T15:47:16.800Z</time>
      </trkpt>
      <trkpt lat="10.1584916870134" lon="-75.6813099036591">
        <ele>21.7778713</ele>
        <time>2019-09-10T15:47:17.000Z</time>
      </trkpt>
      <trkpt lat="10.158491678153" lon="-75.6813099040703">
        <ele>21.6778713</ele>
        <time>2019-09-10T15:47:17.100Z</time>
      </trkpt>
      <trkpt lat="10.1584916124958" lon="-75.681309805828">
        <ele>21.4778713</ele>
        <time>2019-09-10T15:47:17.300Z</time>
      </trkpt>
      <trkpt lat="10.1584915858023" lon="-75.6813097619975">
        <ele>21.3778713</ele>
        <time>2019-09-10T15:47:17.400Z</time>
      </trkpt>
      <trkpt lat="10.1584915728334" lon="-75.6813097306695">
        <ele>21.2778713</ele>
        <time>2019-09-10T15:47:17.500Z</time>
      </trkpt>
      <trkpt lat="10.158491628891" lon="-75.6813097047398">
        <ele>21.0778713</ele>
        <time>2019-09-10T15:47:17.700Z</time>
      </trkpt>
      <trkpt lat="10.1584916565273" lon="-75.6813097052946">
        <ele>20.9778713</ele>
        <time>2019-09-10T15:47:17.800Z</time>
      </trkpt>
      <trkpt lat="10.1584916717777" lon="-75.6813097044547">
        <ele>20.9778713</ele>
        <time>2019-09-10T15:47:17.900Z</time>
      </trkpt>
      <trkpt lat="10.1584916422572" lon="-75.6813096799676">
        <ele>20.8778713</ele>
        <time>2019-09-10T15:47:18.000Z</time>
      </trkpt>
      <trkpt lat="10.158491615396" lon="-75.6813096516705">
        <ele>20.7778713</ele>
        <time>2019-09-10T15:47:18.100Z</time>
      </trkpt>
      <trkpt lat="10.1584916418241" lon="-75.6813095597339">
        <ele>20.5778713</ele>
        <time>2019-09-10T15:47:18.300Z</time>
      </trkpt>
      <trkpt lat="10.158491658571" lon="-75.6813095672167">
        <ele>20.4778713</ele>
        <time>2019-09-10T15:47:18.400Z</time>
      </trkpt>
      <trkpt lat="10.1584916695434" lon="-75.6813095735855">
        <ele>20.3778713</ele>
        <time>2019-09-10T15:47:18.500Z</time>
      </trkpt>
      <trkpt lat="10.1584916722059" lon="-75.6813095529692">
        <ele>20.2778713</ele>
        <time>2019-09-10T15:47:18.600Z</time>
      </trkpt>
      <trkpt lat="10.1584916682944" lon="-75.6813095239715">
        <ele>20.1778713</ele>
        <time>2019-09-10T15:47:18.700Z</time>
      </trkpt>
      <trkpt lat="10.1584916265672" lon="-75.6813094743924">
        <ele>20.1778713</ele>
        <time>2019-09-10T15:47:18.800Z</time>
      </trkpt>
      <trkpt lat="10.1584915549743" lon="-75.6813094341868">
        <ele>19.9778713</ele>
        <time>2019-09-10T15:47:19.000Z</time>
      </trkpt>
      <trkpt lat="10.158491528499" lon="-75.6813094448464">
        <ele>19.8778713</ele>
        <time>2019-09-10T15:47:19.100Z</time>
      </trkpt>
      <trkpt lat="10.1584915130158" lon="-75.6813094388323">
        <ele>19.7778713</ele>
        <time>2019-09-10T15:47:19.200Z</time>
      </trkpt>
      <trkpt lat="10.1584915027419" lon="-75.681309426641">
        <ele>19.6778713</ele>
        <time>2019-09-10T15:47:19.300Z</time>
      </trkpt>
      <trkpt lat="10.1584913828998" lon="-75.68130936093">
        <ele>19.4778713</ele>
        <time>2019-09-10T15:47:19.500Z</time>
      </trkpt>
      <trkpt lat="10.1584913109829" lon="-75.6813093395413">
        <ele>19.3778713</ele>
        <time>2019-09-10T15:47:19.600Z</time>
      </trkpt>
      <trkpt lat="10.1584912539368" lon="-75.6813093302003">
        <ele>19.2778713</ele>
        <time>2019-09-10T15:47:19.800Z</time>
      </trkpt>
      <trkpt lat="10.1584912545149" lon="-75.6813093339624">
        <ele>19.1778713</ele>
        <time>2019-09-10T15:47:19.900Z</time>
      </trkpt>
      <trkpt lat="10.1584912790898" lon="-75.6813092898795">
        <ele>18.9778713</ele>
        <time>2019-09-10T15:47:20.100Z</time>
      </trkpt>
      <trkpt lat="10.1584913031354" lon="-75.6813092458792">
        <ele>18.8778713</ele>
        <time>2019-09-10T15:47:20.200Z</time>
      </trkpt>
      <trkpt lat="10.1584913206656" lon="-75.6813092123057">
        <ele>18.7778713</ele>
        <time>2019-09-10T15:47:20.300Z</time>
      </trkpt>
      <trkpt lat="10.1584913417491" lon="-75.6813092211528">
        <ele>18.6778713</ele>
        <time>2019-09-10T15:47:20.400Z</time>
      </trkpt>
      <trkpt lat="10.1584913614288" lon="-75.6813092352088">
        <ele>18.5778713</ele>
        <time>2019-09-10T15:47:20.500Z</time>
      </trkpt>
      <trkpt lat="10.1584913841228" lon="-75.6813092513885">
        <ele>18.4778713</ele>
        <time>2019-09-10T15:47:20.600Z</time>
      </trkpt>
      <trkpt lat="10.1584913803171" lon="-75.6813092005495">
        <ele>18.2778713</ele>
        <time>2019-09-10T15:47:20.800Z</time>
      </trkpt>
      <trkpt lat="10.1584913548499" lon="-75.6813091443253">
        <ele>18.1778713</ele>
        <time>2019-09-10T15:47:20.900Z</time>
      </trkpt>
      <trkpt lat="10.1584913192195" lon="-75.681309164476">
        <ele>18.0778713</ele>
        <time>2019-09-10T15:47:21.000Z</time>
      </trkpt>
      <trkpt lat="10.1584912888767" lon="-75.6813091928013">
        <ele>17.9778713</ele>
        <time>2019-09-10T15:47:21.100Z</time>
      </trkpt>
      <trkpt lat="10.1584912253951" lon="-75.6813091954428">
        <ele>17.8778713</ele>
        <time>2019-09-10T15:47:21.200Z</time>
      </trkpt>
      <trkpt lat="10.158491175086" lon="-75.6813091898313">
        <ele>17.7778713</ele>
        <time>2019-09-10T15:47:21.300Z</time>
      </trkpt>
      <trkpt lat="10.1584911465003" lon="-75.6813091857733">
        <ele>17.6778713</ele>
        <time>2019-09-10T15:47:21.400Z</time>
      </trkpt>
      <trkpt lat="10.1584911014135" lon="-75.6813092320973">
        <ele>17.5778713</ele>
        <time>2019-09-10T15:47:21.600Z</time>
      </trkpt>
      <trkpt lat="10.1584910178255" lon="-75.6813093155263">
        <ele>17.3778713</ele>
        <time>2019-09-10T15:47:21.800Z</time>
      </trkpt>
      <trkpt lat="10.1584909778993" lon="-75.6813093360447">
        <ele>17.2778713</ele>
        <time>2019-09-10T15:47:21.900Z</time>
      </trkpt>
      <trkpt lat="10.1584909900801" lon="-75.6813092973405">
        <ele>17.1778713</ele>
        <time>2019-09-10T15:47:22.000Z</time>
      </trkpt>
      <trkpt lat="10.158491008177" lon="-75.6813092622765">
        <ele>17.0778713</ele>
        <time>2019-09-10T15:47:22.100Z</time>
      </trkpt>
      <trkpt lat="10.1584910315696" lon="-75.6813092947926">
        <ele>16.9778713</ele>
        <time>2019-09-10T15:47:22.200Z</time>
      </trkpt>
      <trkpt lat="10.1584910502885" lon="-75.6813093282464">
        <ele>16.8778713</ele>
        <time>2019-09-10T15:47:22.300Z</time>
      </trkpt>
      <trkpt lat="10.1584910750979" lon="-75.6813093235988">
        <ele>16.7778713</ele>
        <time>2019-09-10T15:47:22.400Z</time>
      </trkpt>
      <trkpt lat="10.1584911550007" lon="-75.6813093271019">
        <ele>16.5778713</ele>
        <time>2019-09-10T15:47:22.600Z</time>
      </trkpt>
      <trkpt lat="10.158491200988" lon="-75.6813093440671">
        <ele>16.4778713</ele>
        <time>2019-09-10T15:47:22.700Z</time>
      </trkpt>
      <trkpt lat="10.1584912127616" lon="-75.6813093533362">
        <ele>16.3778713</ele>
        <time>2019-09-10T15:47:22.800Z</time>
      </trkpt>
      <trkpt lat="10.158491218383" lon="-75.6813093533537">
        <ele>16.2778713</ele>
        <time>2019-09-10T15:47:22.900Z</time>
      </trkpt>
      <trkpt lat="10.1584912101512" lon="-75.6813093695377">
        <ele>16.1778713</ele>
        <time>2019-09-10T15:47:23.000Z</time>
      </trkpt>
      <trkpt lat="10.1584911697968" lon="-75.6813093770227">
        <ele>16.0778713</ele>
        <time>2019-09-10T15:47:23.100Z</time>
      </trkpt>
      <trkpt lat="10.1584910904785" lon="-75.6813093789026">
        <ele>16.0778713</ele>
        <time>2019-09-10T15:47:23.200Z</time>
      </trkpt>
      <trkpt lat="10.1584910035212" lon="-75.6813093858784">
        <ele>15.9778713</ele>
        <time>2019-09-10T15:47:23.300Z</time>
      </trkpt>
      <trkpt lat="10.15849094258" lon="-75.6813093441498">
        <ele>15.8778713</ele>
        <time>2019-09-10T15:47:23.400Z</time>
      </trkpt>
      <trkpt lat="10.1584909052235" lon="-75.681309271067">
        <ele>15.7778713</ele>
        <time>2019-09-10T15:47:23.500Z</time>
      </trkpt>
      <trkpt lat="10.1584908884684" lon="-75.6813091583857">
        <ele>15.6778713</ele>
        <time>2019-09-10T15:47:23.600Z</time>
      </trkpt>
      <trkpt lat="10.1584909207784" lon="-75.6813090001638">
        <ele>15.5778713</ele>
        <time>2019-09-10T15:47:23.700Z</time>
      </trkpt>
      <trkpt lat="10.1584910089016" lon="-75.6813087937921">
        <ele>15.4778713</ele>
        <time>2019-09-10T15:47:23.800Z</time>
      </trkpt>
      <trkpt lat="10.1584911334597" lon="-75.6813085372866">
        <ele>15.3778713</ele>
        <time>2019-09-10T15:47:23.900Z</time>
      </trkpt>
      <trkpt lat="10.1584913015444" lon="-75.6813081970278">
        <ele>15.2778713</ele>
        <time>2019-09-10T15:47:24.000Z</time>
      </trkpt>
      <trkpt lat="10.1584915259456" lon="-75.6813078111129">
        <ele>15.2778713</ele>
        <time>2019-09-10T15:47:24.100Z</time>
      </trkpt>
      <trkpt lat="10.1584918125094" lon="-75.6813073832867">
        <ele>15.1778713</ele>
        <time>2019-09-10T15:47:24.200Z</time>
      </trkpt>
      <trkpt lat="10.1584921481985" lon="-75.6813069074327">
        <ele>15.0778713</ele>
        <time>2019-09-10T15:47:24.300Z</time>
      </trkpt>
      <trkpt lat="10.1584925623721" lon="-75.6813063398488">
        <ele>14.9778713</ele>
        <time>2019-09-10T15:47:24.400Z</time>
      </trkpt>
      <trkpt lat="10.1584930508369" lon="-75.6813056991342">
        <ele>14.8778713</ele>
        <time>2019-09-10T15:47:24.500Z</time>
      </trkpt>
      <trkpt lat="10.1584936520926" lon="-75.681305002672">
        <ele>14.7778713</ele>
        <time>2019-09-10T15:47:24.600Z</time>
      </trkpt>
      <trkpt lat="10.1584942993128" lon="-75.6813042414213">
        <ele>14.6778713</ele>
        <time>2019-09-10T15:47:24.700Z</time>
      </trkpt>
      <trkpt lat="10.158495737916" lon="-75.6813025477952">
        <ele>14.4778713</ele>
        <time>2019-09-10T15:47:24.900Z</time>
      </trkpt>
      <trkpt lat="10.1584964437146" lon="-75.6813017613546">
        <ele>14.3778713</ele>
        <time>2019-09-10T15:47:25.000Z</time>
      </trkpt>
      <trkpt lat="10.1584970684802" lon="-75.6813010768183">
        <ele>14.2778713</ele>
        <time>2019-09-10T15:47:25.100Z</time>
      </trkpt>
      <trkpt lat="10.1584975524635" lon="-75.6813005931703">
        <ele>14.1778713</ele>
        <time>2019-09-10T15:47:25.200Z</time>
      </trkpt>
      <trkpt lat="10.1584979494358" lon="-75.6813002247037">
        <ele>14.1778713</ele>
        <time>2019-09-10T15:47:25.300Z</time>
      </trkpt>
      <trkpt lat="10.1584981955816" lon="-75.6812999709332">
        <ele>14.0778713</ele>
        <time>2019-09-10T15:47:25.400Z</time>
      </trkpt>
      <trkpt lat="10.1584983810142" lon="-75.6812997877454">
        <ele>13.9778713</ele>
        <time>2019-09-10T15:47:25.500Z</time>
      </trkpt>
      <trkpt lat="10.1584984548885" lon="-75.6812998098238">
        <ele>13.8778713</ele>
        <time>2019-09-10T15:47:25.600Z</time>
      </trkpt>
      <trkpt lat="10.1584985025205" lon="-75.6812998639135">
        <ele>13.7778713</ele>
        <time>2019-09-10T15:47:25.700Z</time>
      </trkpt>
      <trkpt lat="10.1584985485485" lon="-75.6812999490136">
        <ele>13.6778713</ele>
        <time>2019-09-10T15:47:25.800Z</time>
      </trkpt>
      <trkpt lat="10.1584986165409" lon="-75.6813000200554">
        <ele>13.5778713</ele>
        <time>2019-09-10T15:47:25.900Z</time>
      </trkpt>
      <trkpt lat="10.1584986443922" lon="-75.6813000976966">
        <ele>13.4778713</ele>
        <time>2019-09-10T15:47:26.000Z</time>
      </trkpt>
      <trkpt lat="10.1584986806886" lon="-75.6813001742607">
        <ele>13.3778713</ele>
        <time>2019-09-10T15:47:26.100Z</time>
      </trkpt>
      <trkpt lat="10.1584987349532" lon="-75.6813002037197">
        <ele>13.2778713</ele>
        <time>2019-09-10T15:47:26.200Z</time>
      </trkpt>
      <trkpt lat="10.1584988145336" lon="-75.6813002333484">
        <ele>13.1778713</ele>
        <time>2019-09-10T15:47:26.300Z</time>
      </trkpt>
      <trkpt lat="10.1584988990417" lon="-75.6813002342427">
        <ele>13.0778713</ele>
        <time>2019-09-10T15:47:26.400Z</time>
      </trkpt>
      <trkpt lat="10.1584989997089" lon="-75.6813002513428">
        <ele>13.0778713</ele>
        <time>2019-09-10T15:47:26.500Z</time>
      </trkpt>
      <trkpt lat="10.1584991684678" lon="-75.6813002623113">
        <ele>12.9778713</ele>
        <time>2019-09-10T15:47:26.600Z</time>
      </trkpt>
      <trkpt lat="10.1584993344925" lon="-75.681300258027">
        <ele>12.8778713</ele>
        <time>2019-09-10T15:47:26.700Z</time>
      </trkpt>
      <trkpt lat="10.1584995421566" lon="-75.6813002234852">
        <ele>12.7778713</ele>
        <time>2019-09-10T15:47:26.800Z</time>
      </trkpt>
      <trkpt lat="10.1584997310219" lon="-75.6813001828358">
        <ele>12.6778713</ele>
        <time>2019-09-10T15:47:26.900Z</time>
      </trkpt>
      <trkpt lat="10.1584998953173" lon="-75.6813001054144">
        <ele>12.5778713</ele>
        <time>2019-09-10T15:47:27.000Z</time>
      </trkpt>
      <trkpt lat="10.1585000234579" lon="-75.6813000373274">
        <ele>12.4778713</ele>
        <time>2019-09-10T15:47:27.100Z</time>
      </trkpt>
      <trkpt lat="10.1585001060461" lon="-75.6812999534915">
        <ele>12.4778713</ele>
        <time>2019-09-10T15:47:27.200Z</time>
      </trkpt>
      <trkpt lat="10.1585001655836" lon="-75.6812998793404">
        <ele>12.3778713</ele>
        <time>2019-09-10T15:47:27.300Z</time>
      </trkpt>
      <trkpt lat="10.1585002022106" lon="-75.6812997659367">
        <ele>12.2778713</ele>
        <time>2019-09-10T15:47:27.400Z</time>
      </trkpt>
      <trkpt lat="10.1585002251732" lon="-75.6812996704796">
        <ele>12.1778713</ele>
        <time>2019-09-10T15:47:27.500Z</time>
      </trkpt>
      <trkpt lat="10.1585001844768" lon="-75.6812995902143">
        <ele>12.0778713</ele>
        <time>2019-09-10T15:47:27.600Z</time>
      </trkpt>
      <trkpt lat="10.1585001415168" lon="-75.6812995342838">
        <ele>12.0778713</ele>
        <time>2019-09-10T15:47:27.700Z</time>
      </trkpt>
      <trkpt lat="10.1585000787761" lon="-75.6812994543928">
        <ele>11.9778713</ele>
        <time>2019-09-10T15:47:27.800Z</time>
      </trkpt>
      <trkpt lat="10.1585000263484" lon="-75.6812993855007">
        <ele>11.8778713</ele>
        <time>2019-09-10T15:47:27.900Z</time>
      </trkpt>
      <trkpt lat="10.1584999816899" lon="-75.6812993232624">
        <ele>11.7778713</ele>
        <time>2019-09-10T15:47:28.000Z</time>
      </trkpt>
      <trkpt lat="10.1584999415732" lon="-75.681299290829">
        <ele>11.7778713</ele>
        <time>2019-09-10T15:47:28.100Z</time>
      </trkpt>
      <trkpt lat="10.1584999060373" lon="-75.6812993030922">
        <ele>11.6778713</ele>
        <time>2019-09-10T15:47:28.200Z</time>
      </trkpt>
      <trkpt lat="10.1584998606233" lon="-75.6812993195221">
        <ele>11.5778713</ele>
        <time>2019-09-10T15:47:28.300Z</time>
      </trkpt>
      <trkpt lat="10.1584998080441" lon="-75.6812993520773">
        <ele>11.4778713</ele>
        <time>2019-09-10T15:47:28.400Z</time>
      </trkpt>
      <trkpt lat="10.1584997591989" lon="-75.6812993835468">
        <ele>11.4778713</ele>
        <time>2019-09-10T15:47:28.500Z</time>
      </trkpt>
      <trkpt lat="10.1584997143662" lon="-75.6812994103425">
        <ele>11.3778713</ele>
        <time>2019-09-10T15:47:28.600Z</time>
      </trkpt>
      <trkpt lat="10.1584996826995" lon="-75.6812994359959">
        <ele>11.2778713</ele>
        <time>2019-09-10T15:47:28.700Z</time>
      </trkpt>
      <trkpt lat="10.1584996455253" lon="-75.6812994460353">
        <ele>11.1778713</ele>
        <time>2019-09-10T15:47:28.800Z</time>
      </trkpt>
      <trkpt lat="10.1584996000152" lon="-75.6812994799809">
        <ele>11.0778713</ele>
        <time>2019-09-10T15:47:29.000Z</time>
      </trkpt>
      <trkpt lat="10.1584996124142" lon="-75.6812995288485">
        <ele>10.9778713</ele>
        <time>2019-09-10T15:47:29.100Z</time>
      </trkpt>
      <trkpt lat="10.1584995674121" lon="-75.6812995783929">
        <ele>10.8778713</ele>
        <time>2019-09-10T15:47:29.200Z</time>
      </trkpt>
      <trkpt lat="10.1584994797156" lon="-75.6812996218404">
        <ele>10.7778713</ele>
        <time>2019-09-10T15:47:29.300Z</time>
      </trkpt>
      <trkpt lat="10.158499366993" lon="-75.681299672044">
        <ele>10.7778713</ele>
        <time>2019-09-10T15:47:29.400Z</time>
      </trkpt>
      <trkpt lat="10.1584992472096" lon="-75.6812997305203">
        <ele>10.6778713</ele>
        <time>2019-09-10T15:47:29.500Z</time>
      </trkpt>
      <trkpt lat="10.1584991123451" lon="-75.6812997625446">
        <ele>10.5778713</ele>
        <time>2019-09-10T15:47:29.600Z</time>
      </trkpt>
      <trkpt lat="10.1584989892201" lon="-75.6812997921384">
        <ele>10.4778713</ele>
        <time>2019-09-10T15:47:29.700Z</time>
      </trkpt>
      <trkpt lat="10.1584988343062" lon="-75.6812998250179">
        <ele>10.4778713</ele>
        <time>2019-09-10T15:47:29.800Z</time>
      </trkpt>
      <trkpt lat="10.1584986850756" lon="-75.6812998631824">
        <ele>10.3778713</ele>
        <time>2019-09-10T15:47:29.900Z</time>
      </trkpt>
      <trkpt lat="10.158498465449" lon="-75.68129990517">
        <ele>10.2778713</ele>
        <time>2019-09-10T15:47:30.100Z</time>
      </trkpt>
      <trkpt lat="10.1584983579717" lon="-75.6812999173505">
        <ele>10.1778713</ele>
        <time>2019-09-10T15:47:30.200Z</time>
      </trkpt>
      <trkpt lat="10.1584982583337" lon="-75.681299918149">
        <ele>10.0778713</ele>
        <time>2019-09-10T15:47:30.300Z</time>
      </trkpt>
      <trkpt lat="10.158498158116" lon="-75.6812998951806">
        <ele>9.9778713</ele>
        <time>2019-09-10T15:47:30.400Z</time>
      </trkpt>
      <trkpt lat="10.1584980689538" lon="-75.6812998590788">
        <ele>9.9778713</ele>
        <time>2019-09-10T15:47:30.500Z</time>
      </trkpt>
      <trkpt lat="10.1584979850824" lon="-75.6812997802996">
        <ele>9.8778713</ele>
        <time>2019-09-10T15:47:30.600Z</time>
      </trkpt>
      <trkpt lat="10.1584979161602" lon="-75.6812996993141">
        <ele>9.7778713</ele>
        <time>2019-09-10T15:47:30.700Z</time>
      </trkpt>
      <trkpt lat="10.1584978742098" lon="-75.6812996324412">
        <ele>9.6778713</ele>
        <time>2019-09-10T15:47:30.800Z</time>
      </trkpt>
      <trkpt lat="10.1584978517699" lon="-75.6812995730859">
        <ele>9.6778713</ele>
        <time>2019-09-10T15:47:30.900Z</time>
      </trkpt>
      <trkpt lat="10.1584978513709" lon="-75.6812995288376">
        <ele>9.5778713</ele>
        <time>2019-09-10T15:47:31.000Z</time>
      </trkpt>
      <trkpt lat="10.1584978715669" lon="-75.6812995011912">
        <ele>9.4778713</ele>
        <time>2019-09-10T15:47:31.100Z</time>
      </trkpt>
      <trkpt lat="10.1584979172528" lon="-75.6812994845328">
        <ele>9.4778713</ele>
        <time>2019-09-10T15:47:31.200Z</time>
      </trkpt>
      <trkpt lat="10.1584979539433" lon="-75.6812994646955">
        <ele>9.3778713</ele>
        <time>2019-09-10T15:47:31.300Z</time>
      </trkpt>
      <trkpt lat="10.1584979826626" lon="-75.6812994723262">
        <ele>9.2778713</ele>
        <time>2019-09-10T15:47:31.400Z</time>
      </trkpt>
      <trkpt lat="10.1584980082031" lon="-75.6812994714754">
        <ele>9.2778713</ele>
        <time>2019-09-10T15:47:31.500Z</time>
      </trkpt>
      <trkpt lat="10.1584980555517" lon="-75.681299447789">
        <ele>9.1778713</ele>
        <time>2019-09-10T15:47:31.600Z</time>
      </trkpt>
      <trkpt lat="10.1584980983098" lon="-75.6812994210325">
        <ele>9.0778713</ele>
        <time>2019-09-10T15:47:31.700Z</time>
      </trkpt>
      <trkpt lat="10.1584981241743" lon="-75.6812993927115">
        <ele>9.0778713</ele>
        <time>2019-09-10T15:47:31.800Z</time>
      </trkpt>
      <trkpt lat="10.1584981623125" lon="-75.6812993831007">
        <ele>8.9778713</ele>
        <time>2019-09-10T15:47:31.900Z</time>
      </trkpt>
      <trkpt lat="10.1584982173344" lon="-75.6812994273033">
        <ele>8.8778713</ele>
        <time>2019-09-10T15:47:32.000Z</time>
      </trkpt>
      <trkpt lat="10.1584982746491" lon="-75.6812994762689">
        <ele>8.7778713</ele>
        <time>2019-09-10T15:47:32.100Z</time>
      </trkpt>
      <trkpt lat="10.1584982773328" lon="-75.6812995152233">
        <ele>8.7778713</ele>
        <time>2019-09-10T15:47:32.200Z</time>
      </trkpt>
      <trkpt lat="10.1584983099489" lon="-75.6812995513708">
        <ele>8.6778713</ele>
        <time>2019-09-10T15:47:32.300Z</time>
      </trkpt>
      <trkpt lat="10.1584983583658" lon="-75.6812996148167">
        <ele>8.5778713</ele>
        <time>2019-09-10T15:47:32.400Z</time>
      </trkpt>
      <trkpt lat="10.1584986307165" lon="-75.6812996504334">
        <ele>8.4778713</ele>
        <time>2019-09-10T15:47:32.600Z</time>
      </trkpt>
      <trkpt lat="10.1584992751683" lon="-75.6812993590423">
        <ele>8.2778713</ele>
        <time>2019-09-10T15:47:32.800Z</time>
      </trkpt>
      <trkpt lat="10.1584997302631" lon="-75.6812990775513">
        <ele>8.2778713</ele>
        <time>2019-09-10T15:47:32.900Z</time>
      </trkpt>
      <trkpt lat="10.1585002286223" lon="-75.6812986961078">
        <ele>8.1778713</ele>
        <time>2019-09-10T15:47:33.000Z</time>
      </trkpt>
      <trkpt lat="10.1585007480959" lon="-75.6812982454546">
        <ele>8.0778713</ele>
        <time>2019-09-10T15:47:33.100Z</time>
      </trkpt>
      <trkpt lat="10.158501322256" lon="-75.6812977168948">
        <ele>8.0778713</ele>
        <time>2019-09-10T15:47:33.200Z</time>
      </trkpt>
      <trkpt lat="10.158501900194" lon="-75.6812971632842">
        <ele>7.9778713</ele>
        <time>2019-09-10T15:47:33.300Z</time>
      </trkpt>
      <trkpt lat="10.1585024671693" lon="-75.681296585798">
        <ele>7.8778713</ele>
        <time>2019-09-10T15:47:33.400Z</time>
      </trkpt>
      <trkpt lat="10.158503058516" lon="-75.6812959875193">
        <ele>7.8778713</ele>
        <time>2019-09-10T15:47:33.500Z</time>
      </trkpt>
      <trkpt lat="10.1585037163276" lon="-75.6812953747275">
        <ele>7.7778713</ele>
        <time>2019-09-10T15:47:33.600Z</time>
      </trkpt>
      <trkpt lat="10.1585044153681" lon="-75.6812947108683">
        <ele>7.6778713</ele>
        <time>2019-09-10T15:47:33.700Z</time>
      </trkpt>
      <trkpt lat="10.158505129089" lon="-75.6812940241061">
        <ele>7.6778713</ele>
        <time>2019-09-10T15:47:33.800Z</time>
      </trkpt>
      <trkpt lat="10.1585058648257" lon="-75.6812933358795">
        <ele>7.5778713</ele>
        <time>2019-09-10T15:47:33.900Z</time>
      </trkpt>
      <trkpt lat="10.1585066076177" lon="-75.6812926727525">
        <ele>7.4778713</ele>
        <time>2019-09-10T15:47:34.000Z</time>
      </trkpt>
      <trkpt lat="10.1585072853622" lon="-75.6812920688263">
        <ele>7.3778713</ele>
        <time>2019-09-10T15:47:34.100Z</time>
      </trkpt>
      <trkpt lat="10.1585078148394" lon="-75.681291614312">
        <ele>7.3778713</ele>
        <time>2019-09-10T15:47:34.200Z</time>
      </trkpt>
      <trkpt lat="10.1585082443415" lon="-75.6812912473424">
        <ele>7.2778713</ele>
        <time>2019-09-10T15:47:34.300Z</time>
      </trkpt>
      <trkpt lat="10.1585087877899" lon="-75.6812908169747">
        <ele>7.1778713</ele>
        <time>2019-09-10T15:47:34.500Z</time>
      </trkpt>
      <trkpt lat="10.1585088706557" lon="-75.681290745105">
        <ele>7.0778713</ele>
        <time>2019-09-10T15:47:34.600Z</time>
      </trkpt>
      <trkpt lat="10.1585089200831" lon="-75.6812907139151">
        <ele>7.0778713</ele>
        <time>2019-09-10T15:47:34.700Z</time>
      </trkpt>
      <trkpt lat="10.1585089381132" lon="-75.6812907676023">
        <ele>6.9778713</ele>
        <time>2019-09-10T15:47:34.800Z</time>
      </trkpt>
      <trkpt lat="10.1585089715289" lon="-75.6812908366662">
        <ele>6.8778713</ele>
        <time>2019-09-10T15:47:34.900Z</time>
      </trkpt>
      <trkpt lat="10.1585090239306" lon="-75.681290918014">
        <ele>6.8778713</ele>
        <time>2019-09-10T15:47:35.000Z</time>
      </trkpt>
      <trkpt lat="10.1585090766604" lon="-75.6812910004726">
        <ele>6.7778713</ele>
        <time>2019-09-10T15:47:35.100Z</time>
      </trkpt>
      <trkpt lat="10.1585090716977" lon="-75.6812910739427">
        <ele>6.7778713</ele>
        <time>2019-09-10T15:47:35.200Z</time>
      </trkpt>
      <trkpt lat="10.1585090585211" lon="-75.6812911626982">
        <ele>6.6778713</ele>
        <time>2019-09-10T15:47:35.300Z</time>
      </trkpt>
      <trkpt lat="10.1585090453194" lon="-75.6812912073533">
        <ele>6.6778713</ele>
        <time>2019-09-10T15:47:35.400Z</time>
      </trkpt>
      <trkpt lat="10.1585090634496" lon="-75.6812912748822">
        <ele>6.5778713</ele>
        <time>2019-09-10T15:47:35.500Z</time>
      </trkpt>
      <trkpt lat="10.1585091505103" lon="-75.6812913847436">
        <ele>6.5778713</ele>
        <time>2019-09-10T15:47:35.600Z</time>
      </trkpt>
      <trkpt lat="10.1585092253617" lon="-75.6812915148905">
        <ele>6.4778713</ele>
        <time>2019-09-10T15:47:35.700Z</time>
      </trkpt>
      <trkpt lat="10.1585092592611" lon="-75.6812916060002">
        <ele>6.4778713</ele>
        <time>2019-09-10T15:47:35.800Z</time>
      </trkpt>
      <trkpt lat="10.1585092646374" lon="-75.6812916990182">
        <ele>6.4778713</ele>
        <time>2019-09-10T15:47:35.900Z</time>
      </trkpt>
      <trkpt lat="10.1585093038072" lon="-75.6812917540479">
        <ele>6.3778713</ele>
        <time>2019-09-10T15:47:36.000Z</time>
      </trkpt>
      <trkpt lat="10.1585093364062" lon="-75.681291815826">
        <ele>6.3778713</ele>
        <time>2019-09-10T15:47:36.100Z</time>
      </trkpt>
      <trkpt lat="10.1585093466784" lon="-75.6812918755098">
        <ele>6.3778713</ele>
        <time>2019-09-10T15:47:36.200Z</time>
      </trkpt>
      <trkpt lat="10.158509331551" lon="-75.6812919434434">
        <ele>6.2778713</ele>
        <time>2019-09-10T15:47:36.300Z</time>
      </trkpt>
      <trkpt lat="10.1585092963448" lon="-75.6812920174466">
        <ele>6.2778713</ele>
        <time>2019-09-10T15:47:36.400Z</time>
      </trkpt>
      <trkpt lat="10.1585092680701" lon="-75.6812921007222">
        <ele>6.1778713</ele>
        <time>2019-09-10T15:47:36.500Z</time>
      </trkpt>
      <trkpt lat="10.1585092637051" lon="-75.6812921480374">
        <ele>6.1778713</ele>
        <time>2019-09-10T15:47:36.600Z</time>
      </trkpt>
      <trkpt lat="10.1585092604221" lon="-75.6812921786354">
        <ele>6.1778713</ele>
        <time>2019-09-10T15:47:36.700Z</time>
      </trkpt>
      <trkpt lat="10.158509247752" lon="-75.6812921458321">
        <ele>6.0778713</ele>
        <time>2019-09-10T15:47:36.800Z</time>
      </trkpt>
      <trkpt lat="10.1585091928808" lon="-75.6812921827652">
        <ele>6.0778713</ele>
        <time>2019-09-10T15:47:37.000Z</time>
      </trkpt>
      <trkpt lat="10.1585091507815" lon="-75.6812922432486">
        <ele>5.9778713</ele>
        <time>2019-09-10T15:47:37.100Z</time>
      </trkpt>
      <trkpt lat="10.1585091122305" lon="-75.6812923091804">
        <ele>5.9778713</ele>
        <time>2019-09-10T15:47:37.200Z</time>
      </trkpt>
      <trkpt lat="10.1585090743675" lon="-75.6812923718419">
        <ele>5.9778713</ele>
        <time>2019-09-10T15:47:37.300Z</time>
      </trkpt>
      <trkpt lat="10.1585090247659" lon="-75.6812924351018">
        <ele>5.8778713</ele>
        <time>2019-09-10T15:47:37.400Z</time>
      </trkpt>
      <trkpt lat="10.1585089801336" lon="-75.6812924936575">
        <ele>5.8778713</ele>
        <time>2019-09-10T15:47:37.500Z</time>
      </trkpt>
      <trkpt lat="10.1585089586804" lon="-75.6812925475916">
        <ele>5.7778713</ele>
        <time>2019-09-10T15:47:37.600Z</time>
      </trkpt>
      <trkpt lat="10.1585089532887" lon="-75.6812926007968">
        <ele>5.7778713</ele>
        <time>2019-09-10T15:47:37.700Z</time>
      </trkpt>
      <trkpt lat="10.1585089400869" lon="-75.6812926399677">
        <ele>5.6778713</ele>
        <time>2019-09-10T15:47:37.800Z</time>
      </trkpt>
      <trkpt lat="10.1585089288913" lon="-75.6812926754951">
        <ele>5.6778713</ele>
        <time>2019-09-10T15:47:37.900Z</time>
      </trkpt>
      <trkpt lat="10.158508936203" lon="-75.6812926570471">
        <ele>5.5778713</ele>
        <time>2019-09-10T15:47:38.000Z</time>
      </trkpt>
      <trkpt lat="10.1585089420573" lon="-75.6812926290754">
        <ele>5.5778713</ele>
        <time>2019-09-10T15:47:38.100Z</time>
      </trkpt>
      <trkpt lat="10.1585089674805" lon="-75.6812925679478">
        <ele>5.5778713</ele>
        <time>2019-09-10T15:47:38.200Z</time>
      </trkpt>
      <trkpt lat="10.1585089705795" lon="-75.6812925515092">
        <ele>5.5778713</ele>
        <time>2019-09-10T15:47:38.300Z</time>
      </trkpt>
      <trkpt lat="10.1585090050439" lon="-75.6812924941612">
        <ele>5.5778713</ele>
        <time>2019-09-10T15:47:38.400Z</time>
      </trkpt>
      <trkpt lat="10.1585090548995" lon="-75.6812924449965">
        <ele>5.5778713</ele>
        <time>2019-09-10T15:47:38.500Z</time>
      </trkpt>
      <trkpt lat="10.1585090470716" lon="-75.6812924594138">
        <ele>5.4778713</ele>
        <time>2019-09-10T15:47:38.600Z</time>
      </trkpt>
      <trkpt lat="10.1585090439661" lon="-75.6812924699036">
        <ele>5.4778713</ele>
        <time>2019-09-10T15:47:38.700Z</time>
      </trkpt>
      <trkpt lat="10.1585090715186" lon="-75.6812924580995">
        <ele>5.4778713</ele>
        <time>2019-09-10T15:47:38.800Z</time>
      </trkpt>
      <trkpt lat="10.1585090979124" lon="-75.6812924405414">
        <ele>5.4778713</ele>
        <time>2019-09-10T15:47:38.900Z</time>
      </trkpt>
      <trkpt lat="10.1585091115197" lon="-75.6812924359917">
        <ele>5.4778713</ele>
        <time>2019-09-10T15:47:39.000Z</time>
      </trkpt>
      <trkpt lat="10.1585091299455" lon="-75.6812924286547">
        <ele>5.4778713</ele>
        <time>2019-09-10T15:47:39.100Z</time>
      </trkpt>
      <trkpt lat="10.1585058274938" lon="-75.6812918757018">
        <ele>2.421895</ele>
        <time>2019-09-10T15:09:31.200Z</time>
      </trkpt>
      <trkpt lat="10.1585058244442" lon="-75.68129187631">
        <ele>2.421895</ele>
        <time>2019-09-10T15:09:31.300Z</time>
      </trkpt>
      <trkpt lat="10.1585058220949" lon="-75.6812918736924">
        <ele>2.421895</ele>
        <time>2019-09-10T15:09:31.400Z</time>
      </trkpt>
      <trkpt lat="10.158505820028" lon="-75.6812918746917">
        <ele>2.421895</ele>
        <time>2019-09-10T15:09:31.500Z</time>
      </trkpt>
      <trkpt lat="10.1585058186282" lon="-75.6812918726801">
        <ele>2.421895</ele>
        <time>2019-09-10T15:09:31.600Z</time>
      </trkpt>
      <trkpt lat="10.1585057950642" lon="-75.6812918733813">
        <ele>2.421895</ele>
        <time>2019-09-10T15:09:31.700Z</time>
      </trkpt>
      <trkpt lat="10.1585057646414" lon="-75.6812918717048">
        <ele>2.421895</ele>
        <time>2019-09-10T15:09:31.800Z</time>
      </trkpt>
      <trkpt lat="10.1585057545686" lon="-75.6812918726447">
        <ele>2.421895</ele>
        <time>2019-09-10T15:09:31.900Z</time>
      </trkpt>
      <trkpt lat="10.1585057642192" lon="-75.6812918713947">
        <ele>2.421895</ele>
        <time>2019-09-10T15:09:32.000Z</time>
      </trkpt>
      <trkpt lat="10.1585057771554" lon="-75.6812918926257">
        <ele>2.421895</ele>
        <time>2019-09-10T15:09:32.100Z</time>
      </trkpt>
      <trkpt lat="10.1585057850061" lon="-75.6812919289473">
        <ele>2.421895</ele>
        <time>2019-09-10T15:09:32.200Z</time>
      </trkpt>
      <trkpt lat="10.1585057942787" lon="-75.6812919600855">
        <ele>2.421895</ele>
        <time>2019-09-10T15:09:32.300Z</time>
      </trkpt>
      <trkpt lat="10.158505799945" lon="-75.6812919801572">
        <ele>2.421895</ele>
        <time>2019-09-10T15:09:32.400Z</time>
      </trkpt>
      <trkpt lat="10.1585058063234" lon="-75.6812920013909">
        <ele>2.421895</ele>
        <time>2019-09-10T15:09:32.500Z</time>
      </trkpt>
      <trkpt lat="10.1585058107662" lon="-75.6812920142611">
        <ele>2.421895</ele>
        <time>2019-09-10T15:09:32.600Z</time>
      </trkpt>
      <trkpt lat="10.1585058149943" lon="-75.6812920223727">
        <ele>2.421895</ele>
        <time>2019-09-10T15:09:32.700Z</time>
      </trkpt>
      <trkpt lat="10.1585058184875" lon="-75.6812920267087">
        <ele>2.421895</ele>
        <time>2019-09-10T15:09:32.800Z</time>
      </trkpt>
      <trkpt lat="10.1585058210155" lon="-75.6812920248973">
        <ele>2.421895</ele>
        <time>2019-09-10T15:09:32.900Z</time>
      </trkpt>
      <trkpt lat="10.1585058229592" lon="-75.681292020087">
        <ele>2.421895</ele>
        <time>2019-09-10T15:09:33.000Z</time>
      </trkpt>
      <trkpt lat="10.1585058239345" lon="-75.6812920118214">
        <ele>2.421895</ele>
        <time>2019-09-10T15:09:33.100Z</time>
      </trkpt>
      <trkpt lat="10.1585058267533" lon="-75.6812919907509">
        <ele>2.421895</ele>
        <time>2019-09-10T15:09:33.200Z</time>
      </trkpt>
      <trkpt lat="10.1585058246953" lon="-75.681291928096">
        <ele>2.421895</ele>
        <time>2019-09-10T15:09:33.300Z</time>
      </trkpt>
      <trkpt lat="10.1585058477055" lon="-75.6812917994657">
        <ele>2.421895</ele>
        <time>2019-09-10T15:09:33.400Z</time>
      </trkpt>
      <trkpt lat="10.1585058931228" lon="-75.6812915930821">
        <ele>2.421895</ele>
        <time>2019-09-10T15:09:33.500Z</time>
      </trkpt>
      <trkpt lat="10.1585059317013" lon="-75.6812913574444">
        <ele>2.521895</ele>
        <time>2019-09-10T15:09:33.600Z</time>
      </trkpt>
      <trkpt lat="10.1585059652302" lon="-75.6812911123204">
        <ele>2.621895</ele>
        <time>2019-09-10T15:09:33.700Z</time>
      </trkpt>
      <trkpt lat="10.1585059898616" lon="-75.681290875938">
        <ele>2.621895</ele>
        <time>2019-09-10T15:09:33.800Z</time>
      </trkpt>
      <trkpt lat="10.1585060181427" lon="-75.6812906067626">
        <ele>2.721895</ele>
        <time>2019-09-10T15:09:33.900Z</time>
      </trkpt>
      <trkpt lat="10.158506079404" lon="-75.6812903346863">
        <ele>2.721895</ele>
        <time>2019-09-10T15:09:34.000Z</time>
      </trkpt>
      <trkpt lat="10.1585061754645" lon="-75.6812900588474">
        <ele>2.821895</ele>
        <time>2019-09-10T15:09:34.100Z</time>
      </trkpt>
      <trkpt lat="10.1585062854664" lon="-75.6812898110436">
        <ele>2.821895</ele>
        <time>2019-09-10T15:09:34.200Z</time>
      </trkpt>
      <trkpt lat="10.1585063921458" lon="-75.6812896000151">
        <ele>2.921895</ele>
        <time>2019-09-10T15:09:34.300Z</time>
      </trkpt>
      <trkpt lat="10.1585064771035" lon="-75.6812894202676">
        <ele>2.921895</ele>
        <time>2019-09-10T15:09:34.400Z</time>
      </trkpt>
      <trkpt lat="10.1585065637029" lon="-75.6812892617494">
        <ele>3.021895</ele>
        <time>2019-09-10T15:09:34.500Z</time>
      </trkpt>
      <trkpt lat="10.1585066369254" lon="-75.6812891207061">
        <ele>3.021895</ele>
        <time>2019-09-10T15:09:34.600Z</time>
      </trkpt>
      <trkpt lat="10.1585067288612" lon="-75.6812888737789">
        <ele>3.121895</ele>
        <time>2019-09-10T15:09:34.800Z</time>
      </trkpt>
      <trkpt lat="10.158506750416" lon="-75.6812888062191">
        <ele>3.221895</ele>
        <time>2019-09-10T15:09:34.900Z</time>
      </trkpt>
      <trkpt lat="10.15850675763" lon="-75.6812887700317">
        <ele>3.221895</ele>
        <time>2019-09-10T15:09:35.000Z</time>
      </trkpt>
      <trkpt lat="10.1585067496372" lon="-75.6812887378358">
        <ele>3.321895</ele>
        <time>2019-09-10T15:09:35.100Z</time>
      </trkpt>
      <trkpt lat="10.1585067357915" lon="-75.6812886967855">
        <ele>3.321895</ele>
        <time>2019-09-10T15:09:35.200Z</time>
      </trkpt>
      <trkpt lat="10.1585067284053" lon="-75.6812886979296">
        <ele>3.421895</ele>
        <time>2019-09-10T15:09:35.300Z</time>
      </trkpt>
      <trkpt lat="10.1585067183497" lon="-75.6812887277599">
        <ele>3.421895</ele>
        <time>2019-09-10T15:09:35.400Z</time>
      </trkpt>
      <trkpt lat="10.1585067321233" lon="-75.6812886837415">
        <ele>3.421895</ele>
        <time>2019-09-10T15:09:35.500Z</time>
      </trkpt>
      <trkpt lat="10.1585067607775" lon="-75.6812885703812">
        <ele>3.521895</ele>
        <time>2019-09-10T15:09:35.600Z</time>
      </trkpt>
      <trkpt lat="10.1585067918423" lon="-75.6812884510302">
        <ele>3.521895</ele>
        <time>2019-09-10T15:09:35.700Z</time>
      </trkpt>
      <trkpt lat="10.1585068084386" lon="-75.6812883282832">
        <ele>3.621895</ele>
        <time>2019-09-10T15:09:35.800Z</time>
      </trkpt>
      <trkpt lat="10.1585068450919" lon="-75.6812881518902">
        <ele>3.721895</ele>
        <time>2019-09-10T15:09:35.900Z</time>
      </trkpt>
      <trkpt lat="10.1585068879379" lon="-75.6812879520645">
        <ele>3.821895</ele>
        <time>2019-09-10T15:09:36.000Z</time>
      </trkpt>
      <trkpt lat="10.1585069298662" lon="-75.6812877516674">
        <ele>3.921895</ele>
        <time>2019-09-10T15:09:36.100Z</time>
      </trkpt>
      <trkpt lat="10.1585069512398" lon="-75.6812875926519">
        <ele>4.021895</ele>
        <time>2019-09-10T15:09:36.200Z</time>
      </trkpt>
      <trkpt lat="10.158506996772" lon="-75.6812874676767">
        <ele>4.421895</ele>
        <time>2019-09-10T15:09:36.400Z</time>
      </trkpt>
      <trkpt lat="10.1585069505285" lon="-75.6812875480353">
        <ele>4.821895</ele>
        <time>2019-09-10T15:09:36.600Z</time>
      </trkpt>
      <trkpt lat="10.1585068778042" lon="-75.6812876012598">
        <ele>5.121895</ele>
        <time>2019-09-10T15:09:36.700Z</time>
      </trkpt>
      <trkpt lat="10.1585067854738" lon="-75.6812876278804">
        <ele>5.321895</ele>
        <time>2019-09-10T15:09:36.800Z</time>
      </trkpt>
      <trkpt lat="10.1585067018999" lon="-75.6812876892121">
        <ele>5.621895</ele>
        <time>2019-09-10T15:09:36.900Z</time>
      </trkpt>
      <trkpt lat="10.15850663829" lon="-75.6812877571063">
        <ele>5.921895</ele>
        <time>2019-09-10T15:09:37.000Z</time>
      </trkpt>
      <trkpt lat="10.1585065433911" lon="-75.6812878173889">
        <ele>6.221895</ele>
        <time>2019-09-10T15:09:37.100Z</time>
      </trkpt>
      <trkpt lat="10.1585063551724" lon="-75.6812879044287">
        <ele>6.921895</ele>
        <time>2019-09-10T15:09:37.300Z</time>
      </trkpt>
      <trkpt lat="10.1585062713944" lon="-75.6812879264522">
        <ele>7.221895</ele>
        <time>2019-09-10T15:09:37.400Z</time>
      </trkpt>
      <trkpt lat="10.1585062011505" lon="-75.6812879255524">
        <ele>7.521895</ele>
        <time>2019-09-10T15:09:37.500Z</time>
      </trkpt>
      <trkpt lat="10.1585061606335" lon="-75.6812879240472">
        <ele>7.821895</ele>
        <time>2019-09-10T15:09:37.600Z</time>
      </trkpt>
      <trkpt lat="10.1585061163479" lon="-75.6812879087203">
        <ele>8.121895</ele>
        <time>2019-09-10T15:09:37.700Z</time>
      </trkpt>
      <trkpt lat="10.1585060068132" lon="-75.6812878312505">
        <ele>8.821895</ele>
        <time>2019-09-10T15:09:37.900Z</time>
      </trkpt>
      <trkpt lat="10.1585059570752" lon="-75.6812877865589">
        <ele>9.121895</ele>
        <time>2019-09-10T15:09:38.000Z</time>
      </trkpt>
      <trkpt lat="10.1585059040551" lon="-75.6812877211626">
        <ele>9.421895</ele>
        <time>2019-09-10T15:09:38.100Z</time>
      </trkpt>
      <trkpt lat="10.1585058507177" lon="-75.6812876278388">
        <ele>9.721895</ele>
        <time>2019-09-10T15:09:38.200Z</time>
      </trkpt>
      <trkpt lat="10.1585057964294" lon="-75.6812874987522">
        <ele>10.021895</ele>
        <time>2019-09-10T15:09:38.300Z</time>
      </trkpt>
      <trkpt lat="10.1585057385942" lon="-75.6812873672444">
        <ele>10.321895</ele>
        <time>2019-09-10T15:09:38.400Z</time>
      </trkpt>
      <trkpt lat="10.1585056481991" lon="-75.681287182335">
        <ele>10.921895</ele>
        <time>2019-09-10T15:09:38.600Z</time>
      </trkpt>
      <trkpt lat="10.158505624389" lon="-75.6812870916611">
        <ele>11.621895</ele>
        <time>2019-09-10T15:09:38.800Z</time>
      </trkpt>
      <trkpt lat="10.158505646502" lon="-75.6812871078995">
        <ele>11.921895</ele>
        <time>2019-09-10T15:09:38.900Z</time>
      </trkpt>
      <trkpt lat="10.1585057956199" lon="-75.6812872143596">
        <ele>12.521895</ele>
        <time>2019-09-10T15:09:39.100Z</time>
      </trkpt>
      <trkpt lat="10.1585060490765" lon="-75.6812873620147">
        <ele>13.121895</ele>
        <time>2019-09-10T15:09:39.300Z</time>
      </trkpt>
      <trkpt lat="10.1585061852325" lon="-75.6812874227291">
        <ele>13.421895</ele>
        <time>2019-09-10T15:09:39.400Z</time>
      </trkpt>
      <trkpt lat="10.15850648273" lon="-75.6812875004287">
        <ele>14.021895</ele>
        <time>2019-09-10T15:09:39.600Z</time>
      </trkpt>
      <trkpt lat="10.1585066308022" lon="-75.6812875257483">
        <ele>14.321895</ele>
        <time>2019-09-10T15:09:39.700Z</time>
      </trkpt>
      <trkpt lat="10.1585069073908" lon="-75.6812875379775">
        <ele>14.921895</ele>
        <time>2019-09-10T15:09:39.900Z</time>
      </trkpt>
      <trkpt lat="10.1585070363286" lon="-75.6812875151884">
        <ele>15.321895</ele>
        <time>2019-09-10T15:09:40.000Z</time>
      </trkpt>
      <trkpt lat="10.1585071363793" lon="-75.6812874869907">
        <ele>15.621895</ele>
        <time>2019-09-10T15:09:40.100Z</time>
      </trkpt>
      <trkpt lat="10.1585072635221" lon="-75.6812874638839">
        <ele>16.221895</ele>
        <time>2019-09-10T15:09:40.300Z</time>
      </trkpt>
      <trkpt lat="10.158507302267" lon="-75.6812874641173">
        <ele>16.521895</ele>
        <time>2019-09-10T15:09:40.400Z</time>
      </trkpt>
      <trkpt lat="10.1585073665351" lon="-75.681287472723">
        <ele>17.121895</ele>
        <time>2019-09-10T15:09:40.600Z</time>
      </trkpt>
      <trkpt lat="10.1585074195681" lon="-75.6812874854802">
        <ele>17.421895</ele>
        <time>2019-09-10T15:09:40.700Z</time>
      </trkpt>
      <trkpt lat="10.1585075152628" lon="-75.6812875069339">
        <ele>18.121895</ele>
        <time>2019-09-10T15:09:40.900Z</time>
      </trkpt>
      <trkpt lat="10.1585075277428" lon="-75.6812875153071">
        <ele>18.421895</ele>
        <time>2019-09-10T15:09:41.000Z</time>
      </trkpt>
      <trkpt lat="10.1585075149778" lon="-75.6812875397335">
        <ele>18.721895</ele>
        <time>2019-09-10T15:09:41.100Z</time>
      </trkpt>
      <trkpt lat="10.15850745938" lon="-75.6812875928476">
        <ele>19.321895</ele>
        <time>2019-09-10T15:09:41.300Z</time>
      </trkpt>
      <trkpt lat="10.1585074236642" lon="-75.681287603522">
        <ele>19.621895</ele>
        <time>2019-09-10T15:09:41.400Z</time>
      </trkpt>
      <trkpt lat="10.1585072845737" lon="-75.6812876436625">
        <ele>20.121895</ele>
        <time>2019-09-10T15:09:41.600Z</time>
      </trkpt>
      <trkpt lat="10.1585071832627" lon="-75.6812876350832">
        <ele>20.421895</ele>
        <time>2019-09-10T15:09:41.700Z</time>
      </trkpt>
      <trkpt lat="10.1585070904945" lon="-75.6812876105202">
        <ele>20.821895</ele>
        <time>2019-09-10T15:09:41.800Z</time>
      </trkpt>
      <trkpt lat="10.1585069862049" lon="-75.6812875776379">
        <ele>21.121895</ele>
        <time>2019-09-10T15:09:41.900Z</time>
      </trkpt>
      <trkpt lat="10.1585068895344" lon="-75.6812875412802">
        <ele>21.421895</ele>
        <time>2019-09-10T15:09:42.000Z</time>
      </trkpt>
      <trkpt lat="10.1585067878719" lon="-75.6812875238866">
        <ele>21.721895</ele>
        <time>2019-09-10T15:09:42.100Z</time>
      </trkpt>
      <trkpt lat="10.1585066082414" lon="-75.6812875029374">
        <ele>22.321895</ele>
        <time>2019-09-10T15:09:42.300Z</time>
      </trkpt>
      <trkpt lat="10.1585065032723" lon="-75.6812874716251">
        <ele>22.621895</ele>
        <time>2019-09-10T15:09:42.400Z</time>
      </trkpt>
      <trkpt lat="10.1585064051193" lon="-75.6812874441099">
        <ele>22.921895</ele>
        <time>2019-09-10T15:09:42.500Z</time>
      </trkpt>
      <trkpt lat="10.1585062863728" lon="-75.6812874057634">
        <ele>23.521895</ele>
        <time>2019-09-10T15:09:42.700Z</time>
      </trkpt>
      <trkpt lat="10.1585062369806" lon="-75.6812873922995">
        <ele>23.821895</ele>
        <time>2019-09-10T15:09:42.800Z</time>
      </trkpt>
      <trkpt lat="10.1585061566911" lon="-75.6812873704401">
        <ele>24.121895</ele>
        <time>2019-09-10T15:09:42.900Z</time>
      </trkpt>
      <trkpt lat="10.1585060896149" lon="-75.681287342823">
        <ele>24.421895</ele>
        <time>2019-09-10T15:09:43.000Z</time>
      </trkpt>
      <trkpt lat="10.1585060158733" lon="-75.6812873254755">
        <ele>24.721895</ele>
        <time>2019-09-10T15:09:43.100Z</time>
      </trkpt>
      <trkpt lat="10.1585059643735" lon="-75.6812873233995">
        <ele>25.021895</ele>
        <time>2019-09-10T15:09:43.200Z</time>
      </trkpt>
      <trkpt lat="10.1585059055136" lon="-75.6812873372582">
        <ele>25.321895</ele>
        <time>2019-09-10T15:09:43.300Z</time>
      </trkpt>
      <trkpt lat="10.1585058826462" lon="-75.6812873565378">
        <ele>25.621895</ele>
        <time>2019-09-10T15:09:43.400Z</time>
      </trkpt>
      <trkpt lat="10.1585058584139" lon="-75.6812873658394">
        <ele>25.921895</ele>
        <time>2019-09-10T15:09:43.500Z</time>
      </trkpt>
      <trkpt lat="10.1585058478793" lon="-75.6812873667873">
        <ele>26.221895</ele>
        <time>2019-09-10T15:09:43.600Z</time>
      </trkpt>
      <trkpt lat="10.1585058093013" lon="-75.6812873611315">
        <ele>26.521895</ele>
        <time>2019-09-10T15:09:43.700Z</time>
      </trkpt>
      <trkpt lat="10.1585057752116" lon="-75.6812873605528">
        <ele>26.821895</ele>
        <time>2019-09-10T15:09:43.800Z</time>
      </trkpt>
      <trkpt lat="10.1585057028283" lon="-75.6812873509508">
        <ele>27.121895</ele>
        <time>2019-09-10T15:09:43.900Z</time>
      </trkpt>
      <trkpt lat="10.1585056600259" lon="-75.6812873501554">
        <ele>27.421895</ele>
        <time>2019-09-10T15:09:44.000Z</time>
      </trkpt>
      <trkpt lat="10.158505591572" lon="-75.6812873734743">
        <ele>27.721895</ele>
        <time>2019-09-10T15:09:44.100Z</time>
      </trkpt>
      <trkpt lat="10.1585055495382" lon="-75.6812874040583">
        <ele>28.021895</ele>
        <time>2019-09-10T15:09:44.200Z</time>
      </trkpt>
      <trkpt lat="10.1585055105711" lon="-75.6812874238601">
        <ele>28.321895</ele>
        <time>2019-09-10T15:09:44.300Z</time>
      </trkpt>
      <trkpt lat="10.158505455864" lon="-75.6812874448862">
        <ele>28.921895</ele>
        <time>2019-09-10T15:09:44.500Z</time>
      </trkpt>
      <trkpt lat="10.1585054267718" lon="-75.6812874465492">
        <ele>29.221895</ele>
        <time>2019-09-10T15:09:44.600Z</time>
      </trkpt>
      <trkpt lat="10.1585053908235" lon="-75.6812874601636">
        <ele>29.521895</ele>
        <time>2019-09-10T15:09:44.700Z</time>
      </trkpt>
      <trkpt lat="10.1585053713408" lon="-75.6812874717265">
        <ele>29.821895</ele>
        <time>2019-09-10T15:09:44.800Z</time>
      </trkpt>
      <trkpt lat="10.1585053567445" lon="-75.6812874765276">
        <ele>30.021895</ele>
        <time>2019-09-10T15:09:44.900Z</time>
      </trkpt>
      <trkpt lat="10.1585053644906" lon="-75.6812874812337">
        <ele>30.321895</ele>
        <time>2019-09-10T15:09:45.000Z</time>
      </trkpt>
      <trkpt lat="10.158505384838" lon="-75.6812874919541">
        <ele>30.621895</ele>
        <time>2019-09-10T15:09:45.100Z</time>
      </trkpt>
      <trkpt lat="10.158505416615" lon="-75.6812875007695">
        <ele>30.921895</ele>
        <time>2019-09-10T15:09:45.200Z</time>
      </trkpt>
      <trkpt lat="10.1585054379784" lon="-75.6812875310614">
        <ele>31.221895</ele>
        <time>2019-09-10T15:09:45.300Z</time>
      </trkpt>
      <trkpt lat="10.1585055014126" lon="-75.6812877313532">
        <ele>32.121895</ele>
        <time>2019-09-10T15:09:45.600Z</time>
      </trkpt>
      <trkpt lat="10.1585055475268" lon="-75.6812878110999">
        <ele>32.421895</ele>
        <time>2019-09-10T15:09:45.700Z</time>
      </trkpt>
      <trkpt lat="10.1585056082733" lon="-75.6812878757242">
        <ele>32.721895</ele>
        <time>2019-09-10T15:09:45.800Z</time>
      </trkpt>
      <trkpt lat="10.15850566033" lon="-75.6812879057525">
        <ele>33.021895</ele>
        <time>2019-09-10T15:09:45.900Z</time>
      </trkpt>
      <trkpt lat="10.1585056934421" lon="-75.6812878992246">
        <ele>33.321895</ele>
        <time>2019-09-10T15:09:46.000Z</time>
      </trkpt>
      <trkpt lat="10.1585056946452" lon="-75.6812878903625">
        <ele>33.621895</ele>
        <time>2019-09-10T15:09:46.100Z</time>
      </trkpt>
      <trkpt lat="10.1585056944497" lon="-75.6812878803532">
        <ele>33.921895</ele>
        <time>2019-09-10T15:09:46.200Z</time>
      </trkpt>
      <trkpt lat="10.1585056851499" lon="-75.681287856057">
        <ele>34.221895</ele>
        <time>2019-09-10T15:09:46.300Z</time>
      </trkpt>
      <trkpt lat="10.1585056805986" lon="-75.6812878347676">
        <ele>34.521895</ele>
        <time>2019-09-10T15:09:46.400Z</time>
      </trkpt>
      <trkpt lat="10.1585057382233" lon="-75.6812878097544">
        <ele>35.221895</ele>
        <time>2019-09-10T15:09:46.600Z</time>
      </trkpt>
      <trkpt lat="10.1585057666509" lon="-75.6812878120885">
        <ele>35.521895</ele>
        <time>2019-09-10T15:09:46.700Z</time>
      </trkpt>
      <trkpt lat="10.1585057899277" lon="-75.6812878133482">
        <ele>35.721895</ele>
        <time>2019-09-10T15:09:46.800Z</time>
      </trkpt>
      <trkpt lat="10.1585058195953" lon="-75.6812878123144">
        <ele>36.021895</ele>
        <time>2019-09-10T15:09:46.900Z</time>
      </trkpt>
      <trkpt lat="10.1585058382853" lon="-75.681287795501">
        <ele>36.421895</ele>
        <time>2019-09-10T15:09:47.000Z</time>
      </trkpt>
      <trkpt lat="10.1585058495928" lon="-75.6812877841086">
        <ele>36.621895</ele>
        <time>2019-09-10T15:09:47.100Z</time>
      </trkpt>
      <trkpt lat="10.1585058930994" lon="-75.6812877207021">
        <ele>37.221895</ele>
        <time>2019-09-10T15:09:47.300Z</time>
      </trkpt>
      <trkpt lat="10.1585059194866" lon="-75.6812876678665">
        <ele>37.521895</ele>
        <time>2019-09-10T15:09:47.400Z</time>
      </trkpt>
      <trkpt lat="10.1585060340404" lon="-75.6812875524099">
        <ele>38.121895</ele>
        <time>2019-09-10T15:09:47.600Z</time>
      </trkpt>
      <trkpt lat="10.1585061039007" lon="-75.6812874989766">
        <ele>38.521895</ele>
        <time>2019-09-10T15:09:47.700Z</time>
      </trkpt>
      <trkpt lat="10.1585061799184" lon="-75.6812874583863">
        <ele>38.721895</ele>
        <time>2019-09-10T15:09:47.800Z</time>
      </trkpt>
      <trkpt lat="10.1585062582775" lon="-75.6812874216076">
        <ele>39.021895</ele>
        <time>2019-09-10T15:09:47.900Z</time>
      </trkpt>
      <trkpt lat="10.1585063208067" lon="-75.6812873972096">
        <ele>39.321895</ele>
        <time>2019-09-10T15:09:48.000Z</time>
      </trkpt>
      <trkpt lat="10.158506383504" lon="-75.6812874140614">
        <ele>39.621895</ele>
        <time>2019-09-10T15:09:48.100Z</time>
      </trkpt>
      <trkpt lat="10.1585064383821" lon="-75.6812874508458">
        <ele>39.921895</ele>
        <time>2019-09-10T15:09:48.200Z</time>
      </trkpt>
      <trkpt lat="10.1585064997234" lon="-75.6812875130505">
        <ele>40.221895</ele>
        <time>2019-09-10T15:09:48.300Z</time>
      </trkpt>
      <trkpt lat="10.1585065614451" lon="-75.6812875885854">
        <ele>40.521895</ele>
        <time>2019-09-10T15:09:48.400Z</time>
      </trkpt>
      <trkpt lat="10.1585066254959" lon="-75.6812876926379">
        <ele>40.721895</ele>
        <time>2019-09-10T15:09:48.500Z</time>
      </trkpt>
      <trkpt lat="10.1585066847503" lon="-75.6812878099486">
        <ele>41.021895</ele>
        <time>2019-09-10T15:09:48.600Z</time>
      </trkpt>
      <trkpt lat="10.1585067338072" lon="-75.6812879203343">
        <ele>41.321895</ele>
        <time>2019-09-10T15:09:48.700Z</time>
      </trkpt>
      <trkpt lat="10.1585067783029" lon="-75.681288018001">
        <ele>41.621895</ele>
        <time>2019-09-10T15:09:48.800Z</time>
      </trkpt>
      <trkpt lat="10.1585068133821" lon="-75.6812881089223">
        <ele>41.921895</ele>
        <time>2019-09-10T15:09:48.900Z</time>
      </trkpt>
      <trkpt lat="10.1585068418713" lon="-75.6812881934472">
        <ele>42.221895</ele>
        <time>2019-09-10T15:09:49.000Z</time>
      </trkpt>
      <trkpt lat="10.1585068744249" lon="-75.681288271777">
        <ele>42.521895</ele>
        <time>2019-09-10T15:09:49.100Z</time>
      </trkpt>
      <trkpt lat="10.1585069075229" lon="-75.6812883420318">
        <ele>42.821895</ele>
        <time>2019-09-10T15:09:49.200Z</time>
      </trkpt>
      <trkpt lat="10.1585069230068" lon="-75.6812883841955">
        <ele>43.121895</ele>
        <time>2019-09-10T15:09:49.300Z</time>
      </trkpt>
      <trkpt lat="10.1585069301851" lon="-75.681288411629">
        <ele>43.421895</ele>
        <time>2019-09-10T15:09:49.400Z</time>
      </trkpt>
      <trkpt lat="10.1585069379586" lon="-75.6812884187691">
        <ele>43.821895</ele>
        <time>2019-09-10T15:09:49.500Z</time>
      </trkpt>
      <trkpt lat="10.1585069349583" lon="-75.6812884311907">
        <ele>44.121895</ele>
        <time>2019-09-10T15:09:49.600Z</time>
      </trkpt>
      <trkpt lat="10.1585069065762" lon="-75.6812884428583">
        <ele>44.421895</ele>
        <time>2019-09-10T15:09:49.700Z</time>
      </trkpt>
      <trkpt lat="10.1585068711706" lon="-75.6812884430895">
        <ele>44.721895</ele>
        <time>2019-09-10T15:09:49.800Z</time>
      </trkpt>
      <trkpt lat="10.1585068153239" lon="-75.6812884381157">
        <ele>45.021895</ele>
        <time>2019-09-10T15:09:49.900Z</time>
      </trkpt>
      <trkpt lat="10.1585067691158" lon="-75.6812884187039">
        <ele>45.321895</ele>
        <time>2019-09-10T15:09:50.000Z</time>
      </trkpt>
      <trkpt lat="10.1585067572112" lon="-75.6812883987308">
        <ele>45.621895</ele>
        <time>2019-09-10T15:09:50.100Z</time>
      </trkpt>
      <trkpt lat="10.1585067622846" lon="-75.6812883809993">
        <ele>45.921895</ele>
        <time>2019-09-10T15:09:50.200Z</time>
      </trkpt>
      <trkpt lat="10.1585067412877" lon="-75.6812883846899">
        <ele>46.221895</ele>
        <time>2019-09-10T15:09:50.300Z</time>
      </trkpt>
      <trkpt lat="10.1585067187594" lon="-75.6812883816304">
        <ele>46.521895</ele>
        <time>2019-09-10T15:09:50.400Z</time>
      </trkpt>
      <trkpt lat="10.158506703696" lon="-75.6812883770026">
        <ele>46.921895</ele>
        <time>2019-09-10T15:09:50.500Z</time>
      </trkpt>
      <trkpt lat="10.1585067042693" lon="-75.681288361081">
        <ele>47.121895</ele>
        <time>2019-09-10T15:09:50.600Z</time>
      </trkpt>
      <trkpt lat="10.1585067292786" lon="-75.681288323123">
        <ele>47.521895</ele>
        <time>2019-09-10T15:09:50.700Z</time>
      </trkpt>
      <trkpt lat="10.1585067586525" lon="-75.6812882649528">
        <ele>47.821895</ele>
        <time>2019-09-10T15:09:50.800Z</time>
      </trkpt>
      <trkpt lat="10.1585067724482" lon="-75.6812881938154">
        <ele>48.121895</ele>
        <time>2019-09-10T15:09:50.900Z</time>
      </trkpt>
      <trkpt lat="10.1585067879957" lon="-75.6812881360394">
        <ele>48.421895</ele>
        <time>2019-09-10T15:09:51.000Z</time>
      </trkpt>
      <trkpt lat="10.1585067941362" lon="-75.6812881209889">
        <ele>48.721895</ele>
        <time>2019-09-10T15:09:51.100Z</time>
      </trkpt>
      <trkpt lat="10.1585068040293" lon="-75.6812881148923">
        <ele>49.021895</ele>
        <time>2019-09-10T15:09:51.200Z</time>
      </trkpt>
      <trkpt lat="10.1585068133068" lon="-75.6812880787506">
        <ele>49.521895</ele>
        <time>2019-09-10T15:09:51.400Z</time>
      </trkpt>
      <trkpt lat="10.1585068124086" lon="-75.6812880410145">
        <ele>49.821895</ele>
        <time>2019-09-10T15:09:51.500Z</time>
      </trkpt>
      <trkpt lat="10.158506819345" lon="-75.6812880048195">
        <ele>50.121895</ele>
        <time>2019-09-10T15:09:51.600Z</time>
      </trkpt>
      <trkpt lat="10.158506790786" lon="-75.6812879879049">
        <ele>50.721895</ele>
        <time>2019-09-10T15:09:51.800Z</time>
      </trkpt>
      <trkpt lat="10.1585067492454" lon="-75.681287980947">
        <ele>51.021895</ele>
        <time>2019-09-10T15:09:51.900Z</time>
      </trkpt>
      <trkpt lat="10.1585067090365" lon="-75.6812879830979">
        <ele>51.321895</ele>
        <time>2019-09-10T15:09:52.000Z</time>
      </trkpt>
      <trkpt lat="10.1585066700513" lon="-75.6812879974198">
        <ele>51.521895</ele>
        <time>2019-09-10T15:09:52.100Z</time>
      </trkpt>
      <trkpt lat="10.1585066353123" lon="-75.6812880158755">
        <ele>51.821895</ele>
        <time>2019-09-10T15:09:52.200Z</time>
      </trkpt>
      <trkpt lat="10.1585065828452" lon="-75.6812880271654">
        <ele>52.021895</ele>
        <time>2019-09-10T15:09:52.300Z</time>
      </trkpt>
      <trkpt lat="10.1585065340753" lon="-75.6812880380196">
        <ele>52.221895</ele>
        <time>2019-09-10T15:09:52.400Z</time>
      </trkpt>
      <trkpt lat="10.1585064759924" lon="-75.6812880375044">
        <ele>52.421895</ele>
        <time>2019-09-10T15:09:52.500Z</time>
      </trkpt>
      <trkpt lat="10.1585064262554" lon="-75.6812880384391">
        <ele>52.621895</ele>
        <time>2019-09-10T15:09:52.600Z</time>
      </trkpt>
      <trkpt lat="10.1585063696757" lon="-75.6812880246655">
        <ele>52.821895</ele>
        <time>2019-09-10T15:09:52.700Z</time>
      </trkpt>
      <trkpt lat="10.1585063268889" lon="-75.6812880106604">
        <ele>53.021895</ele>
        <time>2019-09-10T15:09:52.800Z</time>
      </trkpt>
      <trkpt lat="10.1585063169311" lon="-75.6812879935839">
        <ele>53.221895</ele>
        <time>2019-09-10T15:09:52.900Z</time>
      </trkpt>
      <trkpt lat="10.1585063137915" lon="-75.6812879778129">
        <ele>53.321895</ele>
        <time>2019-09-10T15:09:53.000Z</time>
      </trkpt>
      <trkpt lat="10.1585063018916" lon="-75.6812879630302">
        <ele>53.521895</ele>
        <time>2019-09-10T15:09:53.100Z</time>
      </trkpt>
      <trkpt lat="10.158506297628" lon="-75.6812879547309">
        <ele>53.721895</ele>
        <time>2019-09-10T15:09:53.200Z</time>
      </trkpt>
      <trkpt lat="10.1585063363532" lon="-75.6812879650423">
        <ele>54.021895</ele>
        <time>2019-09-10T15:09:53.400Z</time>
      </trkpt>
      <trkpt lat="10.1585063598467" lon="-75.681287987401">
        <ele>54.121895</ele>
        <time>2019-09-10T15:09:53.500Z</time>
      </trkpt>
      <trkpt lat="10.1585063774517" lon="-75.6812880105128">
        <ele>54.221895</ele>
        <time>2019-09-10T15:09:53.600Z</time>
      </trkpt>
      <trkpt lat="10.1585063868247" lon="-75.6812880564242">
        <ele>54.321895</ele>
        <time>2019-09-10T15:09:53.700Z</time>
      </trkpt>
      <trkpt lat="10.1585063986683" lon="-75.6812880980975">
        <ele>54.521895</ele>
        <time>2019-09-10T15:09:53.800Z</time>
      </trkpt>
      <trkpt lat="10.1585064053003" lon="-75.6812881245605">
        <ele>54.621895</ele>
        <time>2019-09-10T15:09:53.900Z</time>
      </trkpt>
      <trkpt lat="10.1585064136997" lon="-75.6812881309016">
        <ele>54.621895</ele>
        <time>2019-09-10T15:09:54.000Z</time>
      </trkpt>
      <trkpt lat="10.1585063730285" lon="-75.6812881015985">
        <ele>54.721895</ele>
        <time>2019-09-10T15:09:54.100Z</time>
      </trkpt>
      <trkpt lat="10.1585063344331" lon="-75.6812880529842">
        <ele>54.721895</ele>
        <time>2019-09-10T15:09:54.200Z</time>
      </trkpt>
      <trkpt lat="10.1585063437574" lon="-75.6812879797224">
        <ele>54.721895</ele>
        <time>2019-09-10T15:09:54.300Z</time>
      </trkpt>
      <trkpt lat="10.1585063673237" lon="-75.6812878993626">
        <ele>54.721895</ele>
        <time>2019-09-10T15:09:54.400Z</time>
      </trkpt>
      <trkpt lat="10.1585063580002" lon="-75.6812877913578">
        <ele>54.721895</ele>
        <time>2019-09-10T15:09:54.500Z</time>
      </trkpt>
      <trkpt lat="10.1585063207187" lon="-75.6812877695552">
        <ele>54.721895</ele>
        <time>2019-09-10T15:09:54.600Z</time>
      </trkpt>
      <trkpt lat="10.1585062210271" lon="-75.6812878853653">
        <ele>54.821895</ele>
        <time>2019-09-10T15:09:54.700Z</time>
      </trkpt>
      <trkpt lat="10.1585060784879" lon="-75.6812881595464">
        <ele>54.821895</ele>
        <time>2019-09-10T15:09:54.800Z</time>
      </trkpt>
      <trkpt lat="10.1585058500738" lon="-75.6812886532298">
        <ele>54.921895</ele>
        <time>2019-09-10T15:09:54.900Z</time>
      </trkpt>
      <trkpt lat="10.1585055757934" lon="-75.681289321245">
        <ele>54.921895</ele>
        <time>2019-09-10T15:09:55.000Z</time>
      </trkpt>
      <trkpt lat="10.1585052063507" lon="-75.6812902200226">
        <ele>55.021895</ele>
        <time>2019-09-10T15:09:55.100Z</time>
      </trkpt>
      <trkpt lat="10.1585047856801" lon="-75.6812912891642">
        <ele>55.021895</ele>
        <time>2019-09-10T15:09:55.200Z</time>
      </trkpt>
      <trkpt lat="10.1585037139793" lon="-75.6812940519865">
        <ele>55.121895</ele>
        <time>2019-09-10T15:09:55.400Z</time>
      </trkpt>
      <trkpt lat="10.1585030503102" lon="-75.6812957506716">
        <ele>55.121895</ele>
        <time>2019-09-10T15:09:55.500Z</time>
      </trkpt>
      <trkpt lat="10.158502322031" lon="-75.6812976129482">
        <ele>55.121895</ele>
        <time>2019-09-10T15:09:55.600Z</time>
      </trkpt>
      <trkpt lat="10.1585014664351" lon="-75.6812997248759">
        <ele>55.121895</ele>
        <time>2019-09-10T15:09:55.700Z</time>
      </trkpt>
      <trkpt lat="10.1585005627505" lon="-75.6813019974701">
        <ele>55.121895</ele>
        <time>2019-09-10T15:09:55.800Z</time>
      </trkpt>
      <trkpt lat="10.1584995862288" lon="-75.681304550215">
        <ele>55.221895</ele>
        <time>2019-09-10T15:09:55.900Z</time>
      </trkpt>
      <trkpt lat="10.1584986000154" lon="-75.6813072210123">
        <ele>55.221895</ele>
        <time>2019-09-10T15:09:56.000Z</time>
      </trkpt>
      <trkpt lat="10.1584975237865" lon="-75.6813100855405">
        <ele>55.221895</ele>
        <time>2019-09-10T15:09:56.100Z</time>
      </trkpt>
      <trkpt lat="10.1584964224748" lon="-75.6813129930289">
        <ele>55.221895</ele>
        <time>2019-09-10T15:09:56.200Z</time>
      </trkpt>
      <trkpt lat="10.1584952235736" lon="-75.681316161194">
        <ele>55.121895</ele>
        <time>2019-09-10T15:09:56.300Z</time>
      </trkpt>
      <trkpt lat="10.1584940416481" lon="-75.6813193160799">
        <ele>55.121895</ele>
        <time>2019-09-10T15:09:56.400Z</time>
      </trkpt>
      <trkpt lat="10.1584928284573" lon="-75.6813226087586">
        <ele>55.121895</ele>
        <time>2019-09-10T15:09:56.500Z</time>
      </trkpt>
      <trkpt lat="10.1584916404814" lon="-75.6813258464381">
        <ele>55.121895</ele>
        <time>2019-09-10T15:09:56.600Z</time>
      </trkpt>
      <trkpt lat="10.1584903678638" lon="-75.6813292730866">
        <ele>55.121895</ele>
        <time>2019-09-10T15:09:56.700Z</time>
      </trkpt>
      <trkpt lat="10.1584891189352" lon="-75.6813326276533">
        <ele>55.121895</ele>
        <time>2019-09-10T15:09:56.800Z</time>
      </trkpt>
      <trkpt lat="10.1584877899767" lon="-75.6813361789264">
        <ele>55.121895</ele>
        <time>2019-09-10T15:09:56.900Z</time>
      </trkpt>
      <trkpt lat="10.1584865077953" lon="-75.6813396129294">
        <ele>55.121895</ele>
        <time>2019-09-10T15:09:57.000Z</time>
      </trkpt>
      <trkpt lat="10.1584851748927" lon="-75.6813431481664">
        <ele>55.121895</ele>
        <time>2019-09-10T15:09:57.100Z</time>
      </trkpt>
      <trkpt lat="10.1584839157456" lon="-75.6813465472164">
        <ele>55.121895</ele>
        <time>2019-09-10T15:09:57.200Z</time>
      </trkpt>
      <trkpt lat="10.1584826246224" lon="-75.6813501330639">
        <ele>55.021895</ele>
        <time>2019-09-10T15:09:57.300Z</time>
      </trkpt>
      <trkpt lat="10.1584814103633" lon="-75.6813535670799">
        <ele>55.021895</ele>
        <time>2019-09-10T15:09:57.400Z</time>
      </trkpt>
      <trkpt lat="10.1584800819406" lon="-75.6813572643924">
        <ele>55.021895</ele>
        <time>2019-09-10T15:09:57.500Z</time>
      </trkpt>
      <trkpt lat="10.1584788164116" lon="-75.6813607439274">
        <ele>55.021895</ele>
        <time>2019-09-10T15:09:57.600Z</time>
      </trkpt>
      <trkpt lat="10.1584774812113" lon="-75.6813643528782">
        <ele>55.021895</ele>
        <time>2019-09-10T15:09:57.700Z</time>
      </trkpt>
      <trkpt lat="10.1584762422846" lon="-75.6813676852859">
        <ele>55.021895</ele>
        <time>2019-09-10T15:09:57.800Z</time>
      </trkpt>
      <trkpt lat="10.1584749686395" lon="-75.6813710581559">
        <ele>55.021895</ele>
        <time>2019-09-10T15:09:57.900Z</time>
      </trkpt>
      <trkpt lat="10.1584737964594" lon="-75.6813741670245">
        <ele>55.021895</ele>
        <time>2019-09-10T15:09:58.000Z</time>
      </trkpt>
      <trkpt lat="10.1584726191954" lon="-75.681377326199">
        <ele>55.021895</ele>
        <time>2019-09-10T15:09:58.100Z</time>
      </trkpt>
      <trkpt lat="10.1584715479919" lon="-75.6813802137391">
        <ele>55.021895</ele>
        <time>2019-09-10T15:09:58.200Z</time>
      </trkpt>
      <trkpt lat="10.1584704441251" lon="-75.6813831586436">
        <ele>55.021895</ele>
        <time>2019-09-10T15:09:58.300Z</time>
      </trkpt>
      <trkpt lat="10.1584694308356" lon="-75.6813858499299">
        <ele>55.021895</ele>
        <time>2019-09-10T15:09:58.400Z</time>
      </trkpt>
      <trkpt lat="10.1584683944515" lon="-75.6813886599745">
        <ele>55.021895</ele>
        <time>2019-09-10T15:09:58.500Z</time>
      </trkpt>
      <trkpt lat="10.1584674512306" lon="-75.6813912221627">
        <ele>55.121895</ele>
        <time>2019-09-10T15:09:58.600Z</time>
      </trkpt>
      <trkpt lat="10.1584664782842" lon="-75.6813938547268">
        <ele>55.121895</ele>
        <time>2019-09-10T15:09:58.700Z</time>
      </trkpt>
      <trkpt lat="10.1584655964004" lon="-75.6813962201998">
        <ele>55.121895</ele>
        <time>2019-09-10T15:09:58.800Z</time>
      </trkpt>
      <trkpt lat="10.1584646664872" lon="-75.6813987576615">
        <ele>55.221895</ele>
        <time>2019-09-10T15:09:58.900Z</time>
      </trkpt>
      <trkpt lat="10.158463827135" lon="-75.6814010366745">
        <ele>55.221895</ele>
        <time>2019-09-10T15:09:59.000Z</time>
      </trkpt>
      <trkpt lat="10.1584629940882" lon="-75.6814032582449">
        <ele>55.221895</ele>
        <time>2019-09-10T15:09:59.100Z</time>
      </trkpt>
      <trkpt lat="10.1584622288629" lon="-75.6814052648141">
        <ele>55.221895</ele>
        <time>2019-09-10T15:09:59.200Z</time>
      </trkpt>
      <trkpt lat="10.1584613786099" lon="-75.6814074942959">
        <ele>55.221895</ele>
        <time>2019-09-10T15:09:59.300Z</time>
      </trkpt>
      <trkpt lat="10.1584605982661" lon="-75.6814095305178">
        <ele>55.321895</ele>
        <time>2019-09-10T15:09:59.400Z</time>
      </trkpt>
      <trkpt lat="10.1584598111902" lon="-75.6814117023828">
        <ele>55.321895</ele>
        <time>2019-09-10T15:09:59.500Z</time>
      </trkpt>
      <trkpt lat="10.1584591185576" lon="-75.6814136498818">
        <ele>55.321895</ele>
        <time>2019-09-10T15:09:59.600Z</time>
      </trkpt>
      <trkpt lat="10.1584577432194" lon="-75.6814176461879">
        <ele>55.321895</ele>
        <time>2019-09-10T15:09:59.800Z</time>
      </trkpt>
      <trkpt lat="10.1584570408878" lon="-75.6814196724966">
        <ele>55.321895</ele>
        <time>2019-09-10T15:09:59.900Z</time>
      </trkpt>
      <trkpt lat="10.1584563957602" lon="-75.6814214805143">
        <ele>55.321895</ele>
        <time>2019-09-10T15:10:00.000Z</time>
      </trkpt>
      <trkpt lat="10.1584556962393" lon="-75.6814233909366">
        <ele>55.321895</ele>
        <time>2019-09-10T15:10:00.100Z</time>
      </trkpt>
      <trkpt lat="10.1584550407254" lon="-75.6814251295183">
        <ele>55.321895</ele>
        <time>2019-09-10T15:10:00.200Z</time>
      </trkpt>
      <trkpt lat="10.1584543467184" lon="-75.6814269777633">
        <ele>55.321895</ele>
        <time>2019-09-10T15:10:00.300Z</time>
      </trkpt>
      <trkpt lat="10.1584536987899" lon="-75.6814286795294">
        <ele>55.421895</ele>
        <time>2019-09-10T15:10:00.400Z</time>
      </trkpt>
      <trkpt lat="10.1584530083557" lon="-75.6814305009852">
        <ele>55.321895</ele>
        <time>2019-09-10T15:10:00.500Z</time>
      </trkpt>
      <trkpt lat="10.1584523473214" lon="-75.6814322002535">
        <ele>55.321895</ele>
        <time>2019-09-10T15:10:00.600Z</time>
      </trkpt>
      <trkpt lat="10.158451617557" lon="-75.6814340309697">
        <ele>55.321895</ele>
        <time>2019-09-10T15:10:00.700Z</time>
      </trkpt>
      <trkpt lat="10.1584509232341" lon="-75.6814357520227">
        <ele>55.321895</ele>
        <time>2019-09-10T15:10:00.800Z</time>
      </trkpt>
      <trkpt lat="10.1584501989282" lon="-75.6814376066734">
        <ele>55.321895</ele>
        <time>2019-09-10T15:10:00.900Z</time>
      </trkpt>
      <trkpt lat="10.1584494976551" lon="-75.681439362749">
        <ele>55.321895</ele>
        <time>2019-09-10T15:10:01.000Z</time>
      </trkpt>
      <trkpt lat="10.1584487194673" lon="-75.6814412570526">
        <ele>55.321895</ele>
        <time>2019-09-10T15:10:01.100Z</time>
      </trkpt>
      <trkpt lat="10.1584479782713" lon="-75.6814430635559">
        <ele>55.321895</ele>
        <time>2019-09-10T15:10:01.200Z</time>
      </trkpt>
      <trkpt lat="10.1584471898959" lon="-75.6814449979998">
        <ele>55.421895</ele>
        <time>2019-09-10T15:10:01.300Z</time>
      </trkpt>
      <trkpt lat="10.1584464304287" lon="-75.6814468470803">
        <ele>55.421895</ele>
        <time>2019-09-10T15:10:01.400Z</time>
      </trkpt>
      <trkpt lat="10.1584456265832" lon="-75.6814488692026">
        <ele>55.421895</ele>
        <time>2019-09-10T15:10:01.500Z</time>
      </trkpt>
      <trkpt lat="10.1584448506687" lon="-75.6814507971885">
        <ele>55.321895</ele>
        <time>2019-09-10T15:10:01.600Z</time>
      </trkpt>
      <trkpt lat="10.1584432146101" lon="-75.6814547004548">
        <ele>55.321895</ele>
        <time>2019-09-10T15:10:01.800Z</time>
      </trkpt>
      <trkpt lat="10.1584423685553" lon="-75.6814567089824">
        <ele>55.321895</ele>
        <time>2019-09-10T15:10:01.900Z</time>
      </trkpt>
      <trkpt lat="10.1584415596616" lon="-75.6814586513986">
        <ele>55.321895</ele>
        <time>2019-09-10T15:10:02.000Z</time>
      </trkpt>
      <trkpt lat="10.1584407164988" lon="-75.6814607209721">
        <ele>55.321895</ele>
        <time>2019-09-10T15:10:02.100Z</time>
      </trkpt>
      <trkpt lat="10.1584399093834" lon="-75.6814627313273">
        <ele>55.321895</ele>
        <time>2019-09-10T15:10:02.200Z</time>
      </trkpt>
      <trkpt lat="10.1584390690477" lon="-75.6814648305099">
        <ele>55.321895</ele>
        <time>2019-09-10T15:10:02.300Z</time>
      </trkpt>
      <trkpt lat="10.1584382567993" lon="-75.6814668590553">
        <ele>55.321895</ele>
        <time>2019-09-10T15:10:02.400Z</time>
      </trkpt>
      <trkpt lat="10.1584373743976" lon="-75.6814689702138">
        <ele>55.321895</ele>
        <time>2019-09-10T15:10:02.500Z</time>
      </trkpt>
      <trkpt lat="10.1584365132309" lon="-75.6814710135377">
        <ele>55.321895</ele>
        <time>2019-09-10T15:10:02.600Z</time>
      </trkpt>
      <trkpt lat="10.1584356096203" lon="-75.6814731428342">
        <ele>55.321895</ele>
        <time>2019-09-10T15:10:02.700Z</time>
      </trkpt>
      <trkpt lat="10.1584347350742" lon="-75.6814752102666">
        <ele>55.321895</ele>
        <time>2019-09-10T15:10:02.800Z</time>
      </trkpt>
      <trkpt lat="10.1584338326362" lon="-75.6814773484754">
        <ele>55.321895</ele>
        <time>2019-09-10T15:10:02.900Z</time>
      </trkpt>
      <trkpt lat="10.1584329704011" lon="-75.6814794325662">
        <ele>55.321895</ele>
        <time>2019-09-10T15:10:03.000Z</time>
      </trkpt>
      <trkpt lat="10.158432073858" lon="-75.6814816084783">
        <ele>55.321895</ele>
        <time>2019-09-10T15:10:03.100Z</time>
      </trkpt>
      <trkpt lat="10.1584312106524" lon="-75.68148373821">
        <ele>55.321895</ele>
        <time>2019-09-10T15:10:03.200Z</time>
      </trkpt>
      <trkpt lat="10.1584303665127" lon="-75.6814859258369">
        <ele>55.321895</ele>
        <time>2019-09-10T15:10:03.300Z</time>
      </trkpt>
      <trkpt lat="10.1584295577101" lon="-75.681488046778">
        <ele>55.321895</ele>
        <time>2019-09-10T15:10:03.400Z</time>
      </trkpt>
      <trkpt lat="10.1584287242595" lon="-75.6814902406366">
        <ele>55.221895</ele>
        <time>2019-09-10T15:10:03.500Z</time>
      </trkpt>
      <trkpt lat="10.1584279001495" lon="-75.6814923812476">
        <ele>55.221895</ele>
        <time>2019-09-10T15:10:03.600Z</time>
      </trkpt>
      <trkpt lat="10.1584270636244" lon="-75.681494527742">
        <ele>55.221895</ele>
        <time>2019-09-10T15:10:03.700Z</time>
      </trkpt>
      <trkpt lat="10.1584262585217" lon="-75.6814966123202">
        <ele>55.221895</ele>
        <time>2019-09-10T15:10:03.800Z</time>
      </trkpt>
      <trkpt lat="10.1584254368609" lon="-75.6814987802426">
        <ele>55.221895</ele>
        <time>2019-09-10T15:10:03.900Z</time>
      </trkpt>
      <trkpt lat="10.1584245985249" lon="-75.6815009408888">
        <ele>55.221895</ele>
        <time>2019-09-10T15:10:04.000Z</time>
      </trkpt>
      <trkpt lat="10.1584236568023" lon="-75.6815032636801">
        <ele>55.321895</ele>
        <time>2019-09-10T15:10:04.100Z</time>
      </trkpt>
      <trkpt lat="10.1584217996466" lon="-75.6815078469114">
        <ele>55.321895</ele>
        <time>2019-09-10T15:10:04.300Z</time>
      </trkpt>
      <trkpt lat="10.1584209186388" lon="-75.6815100934084">
        <ele>55.321895</ele>
        <time>2019-09-10T15:10:04.400Z</time>
      </trkpt>
      <trkpt lat="10.1584200344198" lon="-75.6815123620295">
        <ele>55.221895</ele>
        <time>2019-09-10T15:10:04.500Z</time>
      </trkpt>
      <trkpt lat="10.1584192123227" lon="-75.6815145779252">
        <ele>55.221895</ele>
        <time>2019-09-10T15:10:04.600Z</time>
      </trkpt>
      <trkpt lat="10.1584183907727" lon="-75.6815168426472">
        <ele>55.221895</ele>
        <time>2019-09-10T15:10:04.700Z</time>
      </trkpt>
      <trkpt lat="10.1584175885425" lon="-75.6815190735824">
        <ele>55.221895</ele>
        <time>2019-09-10T15:10:04.800Z</time>
      </trkpt>
      <trkpt lat="10.158416787081" lon="-75.681521305475">
        <ele>55.221895</ele>
        <time>2019-09-10T15:10:04.900Z</time>
      </trkpt>
      <trkpt lat="10.1584160098052" lon="-75.681523514965">
        <ele>55.221895</ele>
        <time>2019-09-10T15:10:05.000Z</time>
      </trkpt>
      <trkpt lat="10.1584152076011" lon="-75.6815258118375">
        <ele>55.321895</ele>
        <time>2019-09-10T15:10:05.100Z</time>
      </trkpt>
      <trkpt lat="10.1584144002967" lon="-75.681528105803">
        <ele>55.321895</ele>
        <time>2019-09-10T15:10:05.200Z</time>
      </trkpt>
      <trkpt lat="10.1584135616611" lon="-75.6815304422413">
        <ele>55.321895</ele>
        <time>2019-09-10T15:10:05.300Z</time>
      </trkpt>
      <trkpt lat="10.1584127202375" lon="-75.6815327523953">
        <ele>55.321895</ele>
        <time>2019-09-10T15:10:05.400Z</time>
      </trkpt>
      <trkpt lat="10.1584118673954" lon="-75.6815351384432">
        <ele>55.321895</ele>
        <time>2019-09-10T15:10:05.500Z</time>
      </trkpt>
      <trkpt lat="10.158411021334" lon="-75.6815375091209">
        <ele>55.321895</ele>
        <time>2019-09-10T15:10:05.600Z</time>
      </trkpt>
      <trkpt lat="10.1584101552363" lon="-75.6815399617849">
        <ele>55.321895</ele>
        <time>2019-09-10T15:10:05.700Z</time>
      </trkpt>
      <trkpt lat="10.1584092906303" lon="-75.6815423845092">
        <ele>55.221895</ele>
        <time>2019-09-10T15:10:05.800Z</time>
      </trkpt>
      <trkpt lat="10.1584084198361" lon="-75.6815448700026">
        <ele>55.221895</ele>
        <time>2019-09-10T15:10:05.900Z</time>
      </trkpt>
      <trkpt lat="10.1584075744197" lon="-75.6815473077315">
        <ele>55.221895</ele>
        <time>2019-09-10T15:10:06.000Z</time>
      </trkpt>
      <trkpt lat="10.1584067166791" lon="-75.681549777524">
        <ele>55.221895</ele>
        <time>2019-09-10T15:10:06.100Z</time>
      </trkpt>
      <trkpt lat="10.1584058553299" lon="-75.6815522055747">
        <ele>55.221895</ele>
        <time>2019-09-10T15:10:06.200Z</time>
      </trkpt>
      <trkpt lat="10.1584049727394" lon="-75.6815547301988">
        <ele>55.221895</ele>
        <time>2019-09-10T15:10:06.300Z</time>
      </trkpt>
      <trkpt lat="10.158404106557" lon="-75.6815572269719">
        <ele>55.221895</ele>
        <time>2019-09-10T15:10:06.400Z</time>
      </trkpt>
      <trkpt lat="10.1584032198432" lon="-75.6815597090536">
        <ele>55.221895</ele>
        <time>2019-09-10T15:10:06.500Z</time>
      </trkpt>
      <trkpt lat="10.1584023399297" lon="-75.6815621467999">
        <ele>55.321895</ele>
        <time>2019-09-10T15:10:06.600Z</time>
      </trkpt>
      <trkpt lat="10.1584014232591" lon="-75.6815647019731">
        <ele>55.321895</ele>
        <time>2019-09-10T15:10:06.700Z</time>
      </trkpt>
      <trkpt lat="10.1584005097606" lon="-75.6815672312623">
        <ele>55.321895</ele>
        <time>2019-09-10T15:10:06.800Z</time>
      </trkpt>
      <trkpt lat="10.158399551747" lon="-75.681569737261">
        <ele>55.321895</ele>
        <time>2019-09-10T15:10:06.900Z</time>
      </trkpt>
      <trkpt lat="10.1583985976938" lon="-75.6815721914917">
        <ele>55.321895</ele>
        <time>2019-09-10T15:10:07.000Z</time>
      </trkpt>
      <trkpt lat="10.1583976343975" lon="-75.6815746049032">
        <ele>55.321895</ele>
        <time>2019-09-10T15:10:07.100Z</time>
      </trkpt>
      <trkpt lat="10.1583966794519" lon="-75.6815769921174">
        <ele>55.321895</ele>
        <time>2019-09-10T15:10:07.200Z</time>
      </trkpt>
      <trkpt lat="10.1583956746629" lon="-75.6815794633546">
        <ele>55.321895</ele>
        <time>2019-09-10T15:10:07.300Z</time>
      </trkpt>
      <trkpt lat="10.1583946813771" lon="-75.6815819455756">
        <ele>55.321895</ele>
        <time>2019-09-10T15:10:07.400Z</time>
      </trkpt>
      <trkpt lat="10.1583936938887" lon="-75.6815844509477">
        <ele>55.321895</ele>
        <time>2019-09-10T15:10:07.500Z</time>
      </trkpt>
      <trkpt lat="10.1583927196884" lon="-75.6815869302094">
        <ele>55.421895</ele>
        <time>2019-09-10T15:10:07.600Z</time>
      </trkpt>
      <trkpt lat="10.1583917358086" lon="-75.6815894611348">
        <ele>55.421895</ele>
        <time>2019-09-10T15:10:07.700Z</time>
      </trkpt>
      <trkpt lat="10.1583907637187" lon="-75.6815919637218">
        <ele>55.421895</ele>
        <time>2019-09-10T15:10:07.800Z</time>
      </trkpt>
      <trkpt lat="10.1583897928143" lon="-75.6815944962138">
        <ele>55.421895</ele>
        <time>2019-09-10T15:10:07.900Z</time>
      </trkpt>
      <trkpt lat="10.1583888175718" lon="-75.681596994658">
        <ele>55.421895</ele>
        <time>2019-09-10T15:10:08.000Z</time>
      </trkpt>
      <trkpt lat="10.1583878321547" lon="-75.681599481161">
        <ele>55.421895</ele>
        <time>2019-09-10T15:10:08.100Z</time>
      </trkpt>
      <trkpt lat="10.158386846438" lon="-75.6816019366798">
        <ele>55.421895</ele>
        <time>2019-09-10T15:10:08.200Z</time>
      </trkpt>
      <trkpt lat="10.1583858452446" lon="-75.6816043935215">
        <ele>55.421895</ele>
        <time>2019-09-10T15:10:08.300Z</time>
      </trkpt>
      <trkpt lat="10.1583848482721" lon="-75.6816068344533">
        <ele>55.421895</ele>
        <time>2019-09-10T15:10:08.400Z</time>
      </trkpt>
      <trkpt lat="10.1583828825708" lon="-75.6816117543336">
        <ele>55.321895</ele>
        <time>2019-09-10T15:10:08.600Z</time>
      </trkpt>
      <trkpt lat="10.1583819311166" lon="-75.6816142363804">
        <ele>55.321895</ele>
        <time>2019-09-10T15:10:08.700Z</time>
      </trkpt>
      <trkpt lat="10.1583809946441" lon="-75.6816166974694">
        <ele>55.321895</ele>
        <time>2019-09-10T15:10:08.800Z</time>
      </trkpt>
      <trkpt lat="10.1583800586014" lon="-75.6816191973061">
        <ele>55.321895</ele>
        <time>2019-09-10T15:10:08.900Z</time>
      </trkpt>
      <trkpt lat="10.1583781601875" lon="-75.6816242127502">
        <ele>55.321895</ele>
        <time>2019-09-10T15:10:09.100Z</time>
      </trkpt>
      <trkpt lat="10.1583772127197" lon="-75.6816267194104">
        <ele>55.321895</ele>
        <time>2019-09-10T15:10:09.200Z</time>
      </trkpt>
      <trkpt lat="10.1583762688214" lon="-75.6816293519223">
        <ele>55.321895</ele>
        <time>2019-09-10T15:10:09.300Z</time>
      </trkpt>
      <trkpt lat="10.1583753261738" lon="-75.6816319623623">
        <ele>55.321895</ele>
        <time>2019-09-10T15:10:09.400Z</time>
      </trkpt>
      <trkpt lat="10.1583743593341" lon="-75.6816345750304">
        <ele>55.321895</ele>
        <time>2019-09-10T15:10:09.500Z</time>
      </trkpt>
      <trkpt lat="10.158373386202" lon="-75.6816371474886">
        <ele>55.321895</ele>
        <time>2019-09-10T15:10:09.600Z</time>
      </trkpt>
      <trkpt lat="10.1583723754203" lon="-75.6816397413921">
        <ele>55.321895</ele>
        <time>2019-09-10T15:10:09.700Z</time>
      </trkpt>
      <trkpt lat="10.1583713538518" lon="-75.681642308106">
        <ele>55.321895</ele>
        <time>2019-09-10T15:10:09.800Z</time>
      </trkpt>
      <trkpt lat="10.1583703172625" lon="-75.6816449044116">
        <ele>55.421895</ele>
        <time>2019-09-10T15:10:09.900Z</time>
      </trkpt>
      <trkpt lat="10.1583693009962" lon="-75.6816474674005">
        <ele>55.421895</ele>
        <time>2019-09-10T15:10:10.000Z</time>
      </trkpt>
      <trkpt lat="10.158368296129" lon="-75.6816500272561">
        <ele>55.421895</ele>
        <time>2019-09-10T15:10:10.100Z</time>
      </trkpt>
      <trkpt lat="10.158367311715" lon="-75.6816525479811">
        <ele>55.421895</ele>
        <time>2019-09-10T15:10:10.200Z</time>
      </trkpt>
      <trkpt lat="10.1583663380358" lon="-75.6816550777924">
        <ele>55.421895</ele>
        <time>2019-09-10T15:10:10.300Z</time>
      </trkpt>
      <trkpt lat="10.1583653798854" lon="-75.6816575832689">
        <ele>55.421895</ele>
        <time>2019-09-10T15:10:10.400Z</time>
      </trkpt>
      <trkpt lat="10.1583644093979" lon="-75.681660054628">
        <ele>55.421895</ele>
        <time>2019-09-10T15:10:10.500Z</time>
      </trkpt>
      <trkpt lat="10.1583634445644" lon="-75.6816624975094">
        <ele>55.321895</ele>
        <time>2019-09-10T15:10:10.600Z</time>
      </trkpt>
      <trkpt lat="10.158362523751" lon="-75.6816649527845">
        <ele>55.321895</ele>
        <time>2019-09-10T15:10:10.700Z</time>
      </trkpt>
      <trkpt lat="10.1583616186097" lon="-75.6816674054833">
        <ele>55.321895</ele>
        <time>2019-09-10T15:10:10.800Z</time>
      </trkpt>
      <trkpt lat="10.1583606936665" lon="-75.6816698583911">
        <ele>55.321895</ele>
        <time>2019-09-10T15:10:10.900Z</time>
      </trkpt>
      <trkpt lat="10.1583597603597" lon="-75.6816723068427">
        <ele>55.321895</ele>
        <time>2019-09-10T15:10:11.000Z</time>
      </trkpt>
      <trkpt lat="10.1583588074985" lon="-75.6816747934153">
        <ele>55.321895</ele>
        <time>2019-09-10T15:10:11.100Z</time>
      </trkpt>
      <trkpt lat="10.1583578496086" lon="-75.6816772806146">
        <ele>55.321895</ele>
        <time>2019-09-10T15:10:11.200Z</time>
      </trkpt>
      <trkpt lat="10.1583568827689" lon="-75.6816797704598">
        <ele>55.321895</ele>
        <time>2019-09-10T15:10:11.300Z</time>
      </trkpt>
      <trkpt lat="10.1583559245403" lon="-75.6816822463795">
        <ele>55.321895</ele>
        <time>2019-09-10T15:10:11.400Z</time>
      </trkpt>
      <trkpt lat="10.1583549637453" lon="-75.6816847187133">
        <ele>55.321895</ele>
        <time>2019-09-10T15:10:11.500Z</time>
      </trkpt>
      <trkpt lat="10.1583540067935" lon="-75.6816871792104">
        <ele>55.321895</ele>
        <time>2019-09-10T15:10:11.600Z</time>
      </trkpt>
      <trkpt lat="10.1583530501543" lon="-75.6816896335455">
        <ele>55.321895</ele>
        <time>2019-09-10T15:10:11.700Z</time>
      </trkpt>
      <trkpt lat="10.1583520865323" lon="-75.6816920852">
        <ele>55.321895</ele>
        <time>2019-09-10T15:10:11.800Z</time>
      </trkpt>
      <trkpt lat="10.1583510955264" lon="-75.6816945751148">
        <ele>55.321895</ele>
        <time>2019-09-10T15:10:11.900Z</time>
      </trkpt>
      <trkpt lat="10.1583500944372" lon="-75.6816970635674">
        <ele>55.221895</ele>
        <time>2019-09-10T15:10:12.000Z</time>
      </trkpt>
      <trkpt lat="10.1583490877722" lon="-75.6816995394522">
        <ele>55.321895</ele>
        <time>2019-09-10T15:10:12.100Z</time>
      </trkpt>
      <trkpt lat="10.1583480826314" lon="-75.6817020060766">
        <ele>55.321895</ele>
        <time>2019-09-10T15:10:12.200Z</time>
      </trkpt>
      <trkpt lat="10.1583470739993" lon="-75.6817044950862">
        <ele>55.321895</ele>
        <time>2019-09-10T15:10:12.300Z</time>
      </trkpt>
      <trkpt lat="10.1583460646897" lon="-75.6817069848618">
        <ele>55.321895</ele>
        <time>2019-09-10T15:10:12.400Z</time>
      </trkpt>
      <trkpt lat="10.1583450329857" lon="-75.6817094893983">
        <ele>55.321895</ele>
        <time>2019-09-10T15:10:12.500Z</time>
      </trkpt>
      <trkpt lat="10.1583440105053" lon="-75.6817119794872">
        <ele>55.321895</ele>
        <time>2019-09-10T15:10:12.600Z</time>
      </trkpt>
      <trkpt lat="10.1583430102759" lon="-75.6817144835363">
        <ele>55.321895</ele>
        <time>2019-09-10T15:10:12.700Z</time>
      </trkpt>
      <trkpt lat="10.1583420301741" lon="-75.6817169871329">
        <ele>55.321895</ele>
        <time>2019-09-10T15:10:12.800Z</time>
      </trkpt>
      <trkpt lat="10.1583410526387" lon="-75.6817194870044">
        <ele>55.321895</ele>
        <time>2019-09-10T15:10:12.900Z</time>
      </trkpt>
      <trkpt lat="10.1583400696578" lon="-75.6817219836383">
        <ele>55.321895</ele>
        <time>2019-09-10T15:10:13.000Z</time>
      </trkpt>
      <trkpt lat="10.1583381119424" lon="-75.6817268350747">
        <ele>55.221895</ele>
        <time>2019-09-10T15:10:13.200Z</time>
      </trkpt>
      <trkpt lat="10.1583371148266" lon="-75.6817292678949">
        <ele>55.221895</ele>
        <time>2019-09-10T15:10:13.300Z</time>
      </trkpt>
      <trkpt lat="10.1583361260615" lon="-75.6817317274869">
        <ele>55.221895</ele>
        <time>2019-09-10T15:10:13.400Z</time>
      </trkpt>
      <trkpt lat="10.158335140905" lon="-75.6817342030932">
        <ele>55.221895</ele>
        <time>2019-09-10T15:10:13.500Z</time>
      </trkpt>
      <trkpt lat="10.158334169714" lon="-75.6817366988915">
        <ele>55.221895</ele>
        <time>2019-09-10T15:10:13.600Z</time>
      </trkpt>
      <trkpt lat="10.15833318715" lon="-75.6817392076754">
        <ele>55.221895</ele>
        <time>2019-09-10T15:10:13.700Z</time>
      </trkpt>
      <trkpt lat="10.1583322171315" lon="-75.6817417322298">
        <ele>55.221895</ele>
        <time>2019-09-10T15:10:13.800Z</time>
      </trkpt>
      <trkpt lat="10.1583312147135" lon="-75.6817443020422">
        <ele>55.221895</ele>
        <time>2019-09-10T15:10:13.900Z</time>
      </trkpt>
      <trkpt lat="10.1583302283715" lon="-75.6817468828557">
        <ele>55.221895</ele>
        <time>2019-09-10T15:10:14.000Z</time>
      </trkpt>
      <trkpt lat="10.1583292534416" lon="-75.6817494565324">
        <ele>55.221895</ele>
        <time>2019-09-10T15:10:14.100Z</time>
      </trkpt>
      <trkpt lat="10.1583282904189" lon="-75.6817520146125">
        <ele>55.221895</ele>
        <time>2019-09-10T15:10:14.200Z</time>
      </trkpt>
      <trkpt lat="10.1583273357729" lon="-75.6817545376352">
        <ele>55.121895</ele>
        <time>2019-09-10T15:10:14.300Z</time>
      </trkpt>
      <trkpt lat="10.1583263911712" lon="-75.681757061563">
        <ele>55.121895</ele>
        <time>2019-09-10T15:10:14.400Z</time>
      </trkpt>
      <trkpt lat="10.1583254487711" lon="-75.6817595872663">
        <ele>55.121895</ele>
        <time>2019-09-10T15:10:14.500Z</time>
      </trkpt>
      <trkpt lat="10.1583244976425" lon="-75.6817621279744">
        <ele>55.121895</ele>
        <time>2019-09-10T15:10:14.600Z</time>
      </trkpt>
      <trkpt lat="10.1583235311415" lon="-75.6817646381159">
        <ele>55.121895</ele>
        <time>2019-09-10T15:10:14.700Z</time>
      </trkpt>
      <trkpt lat="10.1583225410215" lon="-75.6817671619045">
        <ele>55.121895</ele>
        <time>2019-09-10T15:10:14.800Z</time>
      </trkpt>
      <trkpt lat="10.1583215400104" lon="-75.6817696643522">
        <ele>55.121895</ele>
        <time>2019-09-10T15:10:14.900Z</time>
      </trkpt>
      <trkpt lat="10.1583205220245" lon="-75.6817721812825">
        <ele>55.121895</ele>
        <time>2019-09-10T15:10:15.000Z</time>
      </trkpt>
      <trkpt lat="10.1583195131579" lon="-75.6817746913544">
        <ele>55.121895</ele>
        <time>2019-09-10T15:10:15.100Z</time>
      </trkpt>
      <trkpt lat="10.1583185040697" lon="-75.681777226179">
        <ele>55.121895</ele>
        <time>2019-09-10T15:10:15.200Z</time>
      </trkpt>
      <trkpt lat="10.1583174803386" lon="-75.6817797564429">
        <ele>55.121895</ele>
        <time>2019-09-10T15:10:15.300Z</time>
      </trkpt>
      <trkpt lat="10.1583164611411" lon="-75.6817822991005">
        <ele>55.121895</ele>
        <time>2019-09-10T15:10:15.400Z</time>
      </trkpt>
      <trkpt lat="10.1583154278087" lon="-75.6817848109131">
        <ele>55.121895</ele>
        <time>2019-09-10T15:10:15.500Z</time>
      </trkpt>
      <trkpt lat="10.1583143988276" lon="-75.6817873118987">
        <ele>55.121895</ele>
        <time>2019-09-10T15:10:15.600Z</time>
      </trkpt>
      <trkpt lat="10.1583133905471" lon="-75.6817898229802">
        <ele>55.221895</ele>
        <time>2019-09-10T15:10:15.700Z</time>
      </trkpt>
      <trkpt lat="10.1583124149659" lon="-75.6817923422778">
        <ele>55.221895</ele>
        <time>2019-09-10T15:10:15.800Z</time>
      </trkpt>
      <trkpt lat="10.1583114667685" lon="-75.6817948098074">
        <ele>55.221895</ele>
        <time>2019-09-10T15:10:15.900Z</time>
      </trkpt>
      <trkpt lat="10.1583105191574" lon="-75.6817972548472">
        <ele>55.221895</ele>
        <time>2019-09-10T15:10:16.000Z</time>
      </trkpt>
      <trkpt lat="10.1583095724713" lon="-75.6817997230382">
        <ele>55.221895</ele>
        <time>2019-09-10T15:10:16.100Z</time>
      </trkpt>
      <trkpt lat="10.1583086238571" lon="-75.6818022153203">
        <ele>55.221895</ele>
        <time>2019-09-10T15:10:16.200Z</time>
      </trkpt>
      <trkpt lat="10.158307661616" lon="-75.6818046942688">
        <ele>55.221895</ele>
        <time>2019-09-10T15:10:16.300Z</time>
      </trkpt>
      <trkpt lat="10.158306703635" lon="-75.6818071730083">
        <ele>55.221895</ele>
        <time>2019-09-10T15:10:16.400Z</time>
      </trkpt>
      <trkpt lat="10.1583057715658" lon="-75.6818096473962">
        <ele>55.221895</ele>
        <time>2019-09-10T15:10:16.500Z</time>
      </trkpt>
      <trkpt lat="10.1583048703327" lon="-75.6818121388776">
        <ele>55.221895</ele>
        <time>2019-09-10T15:10:16.600Z</time>
      </trkpt>
      <trkpt lat="10.1583030713711" lon="-75.681817238188">
        <ele>55.221895</ele>
        <time>2019-09-10T15:10:16.800Z</time>
      </trkpt>
      <trkpt lat="10.1583021557426" lon="-75.6818198215777">
        <ele>55.221895</ele>
        <time>2019-09-10T15:10:16.900Z</time>
      </trkpt>
      <trkpt lat="10.1583012397103" lon="-75.6818224023912">
        <ele>55.221895</ele>
        <time>2019-09-10T15:10:17.000Z</time>
      </trkpt>
      <trkpt lat="10.1583003096864" lon="-75.6818250299247">
        <ele>55.221895</ele>
        <time>2019-09-10T15:10:17.100Z</time>
      </trkpt>
      <trkpt lat="10.1582993920126" lon="-75.6818276610441">
        <ele>55.221895</ele>
        <time>2019-09-10T15:10:17.200Z</time>
      </trkpt>
      <trkpt lat="10.1582985014362" lon="-75.6818302526151">
        <ele>55.221895</ele>
        <time>2019-09-10T15:10:17.300Z</time>
      </trkpt>
      <trkpt lat="10.1582976207867" lon="-75.6818328175535">
        <ele>55.221895</ele>
        <time>2019-09-10T15:10:17.400Z</time>
      </trkpt>
      <trkpt lat="10.1582967462471" lon="-75.6818353911257">
        <ele>55.221895</ele>
        <time>2019-09-10T15:10:17.500Z</time>
      </trkpt>
      <trkpt lat="10.1582958554492" lon="-75.6818379809908">
        <ele>55.221895</ele>
        <time>2019-09-10T15:10:17.600Z</time>
      </trkpt>
      <trkpt lat="10.1582949450317" lon="-75.6818405451982">
        <ele>55.221895</ele>
        <time>2019-09-10T15:10:17.700Z</time>
      </trkpt>
      <trkpt lat="10.1582940123241" lon="-75.6818431015376">
        <ele>55.221895</ele>
        <time>2019-09-10T15:10:17.800Z</time>
      </trkpt>
      <trkpt lat="10.1582930836942" lon="-75.6818456385902">
        <ele>55.221895</ele>
        <time>2019-09-10T15:10:17.900Z</time>
      </trkpt>
      <trkpt lat="10.1582921579954" lon="-75.681848185147">
        <ele>55.221895</ele>
        <time>2019-09-10T15:10:18.000Z</time>
      </trkpt>
      <trkpt lat="10.1582912312935" lon="-75.6818507220603">
        <ele>55.221895</ele>
        <time>2019-09-10T15:10:18.100Z</time>
      </trkpt>
      <trkpt lat="10.1582902992503" lon="-75.6818532736999">
        <ele>55.221895</ele>
        <time>2019-09-10T15:10:18.200Z</time>
      </trkpt>
      <trkpt lat="10.1582893394064" lon="-75.6818558366191">
        <ele>55.221895</ele>
        <time>2019-09-10T15:10:18.300Z</time>
      </trkpt>
      <trkpt lat="10.1582883734916" lon="-75.6818584195563">
        <ele>55.221895</ele>
        <time>2019-09-10T15:10:18.400Z</time>
      </trkpt>
      <trkpt lat="10.1582873764409" lon="-75.68186099379">
        <ele>55.221895</ele>
        <time>2019-09-10T15:10:18.500Z</time>
      </trkpt>
      <trkpt lat="10.1582863824126" lon="-75.6818635693466">
        <ele>55.221895</ele>
        <time>2019-09-10T15:10:18.600Z</time>
      </trkpt>
      <trkpt lat="10.1582853724386" lon="-75.6818661496031">
        <ele>55.221895</ele>
        <time>2019-09-10T15:10:18.700Z</time>
      </trkpt>
      <trkpt lat="10.1582843752577" lon="-75.6818687255078">
        <ele>55.221895</ele>
        <time>2019-09-10T15:10:18.800Z</time>
      </trkpt>
      <trkpt lat="10.158283385737" lon="-75.681871307505">
        <ele>55.221895</ele>
        <time>2019-09-10T15:10:18.900Z</time>
      </trkpt>
      <trkpt lat="10.1582824174251" lon="-75.6818738919391">
        <ele>55.221895</ele>
        <time>2019-09-10T15:10:19.000Z</time>
      </trkpt>
      <trkpt lat="10.1582814443712" lon="-75.6818764951727">
        <ele>55.221895</ele>
        <time>2019-09-10T15:10:19.100Z</time>
      </trkpt>
      <trkpt lat="10.1582804675393" lon="-75.6818791018876">
        <ele>55.221895</ele>
        <time>2019-09-10T15:10:19.200Z</time>
      </trkpt>
      <trkpt lat="10.1582794963613" lon="-75.6818817047731">
        <ele>55.221895</ele>
        <time>2019-09-10T15:10:19.300Z</time>
      </trkpt>
      <trkpt lat="10.1582785282579" lon="-75.6818843056393">
        <ele>55.221895</ele>
        <time>2019-09-10T15:10:19.400Z</time>
      </trkpt>
      <trkpt lat="10.1582775288622" lon="-75.6818869434777">
        <ele>55.221895</ele>
        <time>2019-09-10T15:10:19.500Z</time>
      </trkpt>
      <trkpt lat="10.1582765161004" lon="-75.6818895815947">
        <ele>55.221895</ele>
        <time>2019-09-10T15:10:19.600Z</time>
      </trkpt>
      <trkpt lat="10.1582754921348" lon="-75.6818922204079">
        <ele>55.221895</ele>
        <time>2019-09-10T15:10:19.700Z</time>
      </trkpt>
      <trkpt lat="10.1582744778096" lon="-75.6818948436942">
        <ele>55.221895</ele>
        <time>2019-09-10T15:10:19.800Z</time>
      </trkpt>
      <trkpt lat="10.1582734736719" lon="-75.6818974223492">
        <ele>55.221895</ele>
        <time>2019-09-10T15:10:19.900Z</time>
      </trkpt>
      <trkpt lat="10.1582724763347" lon="-75.6818999906298">
        <ele>55.221895</ele>
        <time>2019-09-10T15:10:20.000Z</time>
      </trkpt>
      <trkpt lat="10.1582714862146" lon="-75.6819025368384">
        <ele>55.221895</ele>
        <time>2019-09-10T15:10:20.100Z</time>
      </trkpt>
      <trkpt lat="10.1582704908836" lon="-75.6819050864588">
        <ele>55.221895</ele>
        <time>2019-09-10T15:10:20.200Z</time>
      </trkpt>
      <trkpt lat="10.158269508502" lon="-75.6819076019617">
        <ele>55.221895</ele>
        <time>2019-09-10T15:10:20.300Z</time>
      </trkpt>
      <trkpt lat="10.1582685229937" lon="-75.6819101172557">
        <ele>55.221895</ele>
        <time>2019-09-10T15:10:20.400Z</time>
      </trkpt>
      <trkpt lat="10.1582675481681" lon="-75.6819126369362">
        <ele>55.221895</ele>
        <time>2019-09-10T15:10:20.500Z</time>
      </trkpt>
      <trkpt lat="10.1582665592987" lon="-75.6819151725615">
        <ele>55.221895</ele>
        <time>2019-09-10T15:10:20.600Z</time>
      </trkpt>
      <trkpt lat="10.1582655745721" lon="-75.6819177129214">
        <ele>55.221895</ele>
        <time>2019-09-10T15:10:20.700Z</time>
      </trkpt>
      <trkpt lat="10.1582645789284" lon="-75.6819202578767">
        <ele>55.321895</ele>
        <time>2019-09-10T15:10:20.800Z</time>
      </trkpt>
      <trkpt lat="10.1582635661405" lon="-75.681922797053">
        <ele>55.321895</ele>
        <time>2019-09-10T15:10:20.900Z</time>
      </trkpt>
      <trkpt lat="10.1582625449888" lon="-75.6819253359507">
        <ele>55.321895</ele>
        <time>2019-09-10T15:10:21.000Z</time>
      </trkpt>
      <trkpt lat="10.1582615124511" lon="-75.6819278717848">
        <ele>55.321895</ele>
        <time>2019-09-10T15:10:21.100Z</time>
      </trkpt>
      <trkpt lat="10.1582604807211" lon="-75.6819304023273">
        <ele>55.321895</ele>
        <time>2019-09-10T15:10:21.200Z</time>
      </trkpt>
      <trkpt lat="10.1582594144681" lon="-75.6819329662213">
        <ele>55.321895</ele>
        <time>2019-09-10T15:10:21.300Z</time>
      </trkpt>
      <trkpt lat="10.1582583473813" lon="-75.681935535407">
        <ele>55.321895</ele>
        <time>2019-09-10T15:10:21.400Z</time>
      </trkpt>
      <trkpt lat="10.1582572924623" lon="-75.6819380864199">
        <ele>55.321895</ele>
        <time>2019-09-10T15:10:21.500Z</time>
      </trkpt>
      <trkpt lat="10.1582562595858" lon="-75.6819406166838">
        <ele>55.321895</ele>
        <time>2019-09-10T15:10:21.600Z</time>
      </trkpt>
      <trkpt lat="10.1582542435461" lon="-75.6819455055799">
        <ele>55.221895</ele>
        <time>2019-09-10T15:10:21.800Z</time>
      </trkpt>
      <trkpt lat="10.1582532274492" lon="-75.6819479732487">
        <ele>55.221895</ele>
        <time>2019-09-10T15:10:21.900Z</time>
      </trkpt>
      <trkpt lat="10.1582521991845" lon="-75.6819504958536">
        <ele>55.221895</ele>
        <time>2019-09-10T15:10:22.000Z</time>
      </trkpt>
      <trkpt lat="10.1582511708156" lon="-75.6819530502782">
        <ele>55.221895</ele>
        <time>2019-09-10T15:10:22.100Z</time>
      </trkpt>
      <trkpt lat="10.1582501502372" lon="-75.6819556085324">
        <ele>55.321895</ele>
        <time>2019-09-10T15:10:22.200Z</time>
      </trkpt>
      <trkpt lat="10.1582491019622" lon="-75.6819581949857">
        <ele>55.321895</ele>
        <time>2019-09-10T15:10:22.300Z</time>
      </trkpt>
      <trkpt lat="10.1582480509253" lon="-75.681960772666">
        <ele>55.321895</ele>
        <time>2019-09-10T15:10:22.400Z</time>
      </trkpt>
      <trkpt lat="10.1582470122386" lon="-75.6819632741041">
        <ele>55.321895</ele>
        <time>2019-09-10T15:10:22.500Z</time>
      </trkpt>
      <trkpt lat="10.1582459897061" lon="-75.6819657412855">
        <ele>55.321895</ele>
        <time>2019-09-10T15:10:22.600Z</time>
      </trkpt>
      <trkpt lat="10.1582449823115" lon="-75.6819681844454">
        <ele>55.321895</ele>
        <time>2019-09-10T15:10:22.700Z</time>
      </trkpt>
      <trkpt lat="10.1582439802583" lon="-75.6819706505128">
        <ele>55.321895</ele>
        <time>2019-09-10T15:10:22.800Z</time>
      </trkpt>
      <trkpt lat="10.1582429543646" lon="-75.6819731359366">
        <ele>55.321895</ele>
        <time>2019-09-10T15:10:22.900Z</time>
      </trkpt>
      <trkpt lat="10.1582419178405" lon="-75.6819756529713">
        <ele>55.321895</ele>
        <time>2019-09-10T15:10:23.000Z</time>
      </trkpt>
      <trkpt lat="10.1582408803002" lon="-75.681978138047">
        <ele>55.321895</ele>
        <time>2019-09-10T15:10:23.100Z</time>
      </trkpt>
      <trkpt lat="10.1582398528172" lon="-75.6819806207553">
        <ele>55.321895</ele>
        <time>2019-09-10T15:10:23.200Z</time>
      </trkpt>
      <trkpt lat="10.1582388435988" lon="-75.681983123029">
        <ele>55.321895</ele>
        <time>2019-09-10T15:10:23.300Z</time>
      </trkpt>
      <trkpt lat="10.1582378460531" lon="-75.6819856514826">
        <ele>55.321895</ele>
        <time>2019-09-10T15:10:23.400Z</time>
      </trkpt>
      <trkpt lat="10.1582368293568" lon="-75.6819882095975">
        <ele>55.321895</ele>
        <time>2019-09-10T15:10:23.500Z</time>
      </trkpt>
      <trkpt lat="10.1582358063814" lon="-75.6819907813594">
        <ele>55.321895</ele>
        <time>2019-09-10T15:10:23.600Z</time>
      </trkpt>
      <trkpt lat="10.1582347797842" lon="-75.6819933135033">
        <ele>55.321895</ele>
        <time>2019-09-10T15:10:23.700Z</time>
      </trkpt>
      <trkpt lat="10.1582337674913" lon="-75.681995823436">
        <ele>55.321895</ele>
        <time>2019-09-10T15:10:23.800Z</time>
      </trkpt>
      <trkpt lat="10.1582327305242" lon="-75.6819983414455">
        <ele>55.321895</ele>
        <time>2019-09-10T15:10:23.900Z</time>
      </trkpt>
      <trkpt lat="10.1582317007223" lon="-75.6820008843816">
        <ele>55.321895</ele>
        <time>2019-09-10T15:10:24.000Z</time>
      </trkpt>
      <trkpt lat="10.1582306705035" lon="-75.6820034359516">
        <ele>55.321895</ele>
        <time>2019-09-10T15:10:24.100Z</time>
      </trkpt>
      <trkpt lat="10.1582296599563" lon="-75.6820059957375">
        <ele>55.321895</ele>
        <time>2019-09-10T15:10:24.200Z</time>
      </trkpt>
      <trkpt lat="10.1582286563137" lon="-75.6820085356797">
        <ele>55.321895</ele>
        <time>2019-09-10T15:10:24.300Z</time>
      </trkpt>
      <trkpt lat="10.1582276615037" lon="-75.6820110786158">
        <ele>55.321895</ele>
        <time>2019-09-10T15:10:24.400Z</time>
      </trkpt>
      <trkpt lat="10.1582266680747" lon="-75.682013616678">
        <ele>55.321895</ele>
        <time>2019-09-10T15:10:24.500Z</time>
      </trkpt>
      <trkpt lat="10.1582256832179" lon="-75.682016168248">
        <ele>55.321895</ele>
        <time>2019-09-10T15:10:24.600Z</time>
      </trkpt>
      <trkpt lat="10.1582247039368" lon="-75.6820187134122">
        <ele>55.321895</ele>
        <time>2019-09-10T15:10:24.700Z</time>
      </trkpt>
      <trkpt lat="10.1582237310913" lon="-75.682021270065">
        <ele>55.321895</ele>
        <time>2019-09-10T15:10:24.800Z</time>
      </trkpt>
      <trkpt lat="10.1582227689545" lon="-75.6820238803309">
        <ele>55.321895</ele>
        <time>2019-09-10T15:10:24.900Z</time>
      </trkpt>
      <trkpt lat="10.1582218101788" lon="-75.6820265058452">
        <ele>55.321895</ele>
        <time>2019-09-10T15:10:25.000Z</time>
      </trkpt>
      <trkpt lat="10.1582208535135" lon="-75.6820290890957">
        <ele>55.321895</ele>
        <time>2019-09-10T15:10:25.100Z</time>
      </trkpt>
      <trkpt lat="10.1582198986461" lon="-75.6820316485336">
        <ele>55.421895</ele>
        <time>2019-09-10T15:10:25.200Z</time>
      </trkpt>
      <trkpt lat="10.1582189593856" lon="-75.6820341913304">
        <ele>55.421895</ele>
        <time>2019-09-10T15:10:25.300Z</time>
      </trkpt>
      <trkpt lat="10.1582180279157" lon="-75.6820367416471">
        <ele>55.421895</ele>
        <time>2019-09-10T15:10:25.400Z</time>
      </trkpt>
      <trkpt lat="10.1582171281027" lon="-75.6820392730947">
        <ele>55.421895</ele>
        <time>2019-09-10T15:10:25.500Z</time>
      </trkpt>
      <trkpt lat="10.158216225632" lon="-75.6820418138724">
        <ele>55.421895</ele>
        <time>2019-09-10T15:10:25.600Z</time>
      </trkpt>
      <trkpt lat="10.1582143799927" lon="-75.6820468780905">
        <ele>55.421895</ele>
        <time>2019-09-10T15:10:25.800Z</time>
      </trkpt>
      <trkpt lat="10.1582134679338" lon="-75.6820493821048">
        <ele>55.421895</ele>
        <time>2019-09-10T15:10:25.900Z</time>
      </trkpt>
      <trkpt lat="10.1582125618154" lon="-75.6820518931516">
        <ele>55.421895</ele>
        <time>2019-09-10T15:10:26.000Z</time>
      </trkpt>
      <trkpt lat="10.1582116572864" lon="-75.682054428359">
        <ele>55.421895</ele>
        <time>2019-09-10T15:10:26.100Z</time>
      </trkpt>
      <trkpt lat="10.158210744524" lon="-75.6820569891198">
        <ele>55.421895</ele>
        <time>2019-09-10T15:10:26.200Z</time>
      </trkpt>
      <trkpt lat="10.1582088336688" lon="-75.6820620624591">
        <ele>55.421895</ele>
        <time>2019-09-10T15:10:26.400Z</time>
      </trkpt>
      <trkpt lat="10.1582078582438" lon="-75.6820645969703">
        <ele>55.421895</ele>
        <time>2019-09-10T15:10:26.500Z</time>
      </trkpt>
      <trkpt lat="10.1582068868835" lon="-75.6820671457552">
        <ele>55.421895</ele>
        <time>2019-09-10T15:10:26.600Z</time>
      </trkpt>
      <trkpt lat="10.1582058821466" lon="-75.6820696923816">
        <ele>55.421895</ele>
        <time>2019-09-10T15:10:26.700Z</time>
      </trkpt>
      <trkpt lat="10.1582048805623" lon="-75.6820722486862">
        <ele>55.421895</ele>
        <time>2019-09-10T15:10:26.800Z</time>
      </trkpt>
      <trkpt lat="10.1582038679568" lon="-75.682074828316">
        <ele>55.421895</ele>
        <time>2019-09-10T15:10:26.900Z</time>
      </trkpt>
      <trkpt lat="10.1582028760129" lon="-75.6820774196433">
        <ele>55.421895</ele>
        <time>2019-09-10T15:10:27.000Z</time>
      </trkpt>
      <trkpt lat="10.1582019111142" lon="-75.6820799478184">
        <ele>55.421895</ele>
        <time>2019-09-10T15:10:27.100Z</time>
      </trkpt>
      <trkpt lat="10.1582009703687" lon="-75.6820824525986">
        <ele>55.421895</ele>
        <time>2019-09-10T15:10:27.200Z</time>
      </trkpt>
      <trkpt lat="10.158200056564" lon="-75.6820849772227">
        <ele>55.421895</ele>
        <time>2019-09-10T15:10:27.300Z</time>
      </trkpt>
      <trkpt lat="10.1581991464072" lon="-75.6820875388887">
        <ele>55.421895</ele>
        <time>2019-09-10T15:10:27.400Z</time>
      </trkpt>
      <trkpt lat="10.158198224786" lon="-75.6820901346721">
        <ele>55.421895</ele>
        <time>2019-09-10T15:10:27.500Z</time>
      </trkpt>
      <trkpt lat="10.1581972846658" lon="-75.6820927387412">
        <ele>55.321895</ele>
        <time>2019-09-10T15:10:27.600Z</time>
      </trkpt>
      <trkpt lat="10.1581963478284" lon="-75.6820953272137">
        <ele>55.321895</ele>
        <time>2019-09-10T15:10:27.700Z</time>
      </trkpt>
      <trkpt lat="10.1581954145607" lon="-75.6820979032925">
        <ele>55.321895</ele>
        <time>2019-09-10T15:10:27.800Z</time>
      </trkpt>
      <trkpt lat="10.158194457687" lon="-75.6821004893281">
        <ele>55.321895</ele>
        <time>2019-09-10T15:10:27.900Z</time>
      </trkpt>
      <trkpt lat="10.1581934949248" lon="-75.6821030822568">
        <ele>55.321895</ele>
        <time>2019-09-10T15:10:28.000Z</time>
      </trkpt>
      <trkpt lat="10.1581925303388" lon="-75.6821056625133">
        <ele>55.321895</ele>
        <time>2019-09-10T15:10:28.100Z</time>
      </trkpt>
      <trkpt lat="10.1581915770607" lon="-75.6821082385921">
        <ele>55.321895</ele>
        <time>2019-09-10T15:10:28.200Z</time>
      </trkpt>
      <trkpt lat="10.1581906202652" lon="-75.6821108227477">
        <ele>55.321895</ele>
        <time>2019-09-10T15:10:28.300Z</time>
      </trkpt>
      <trkpt lat="10.1581896644858" lon="-75.6821134136572">
        <ele>55.321895</ele>
        <time>2019-09-10T15:10:28.400Z</time>
      </trkpt>
      <trkpt lat="10.1581887279612" lon="-75.6821159847925">
        <ele>55.321895</ele>
        <time>2019-09-10T15:10:28.500Z</time>
      </trkpt>
      <trkpt lat="10.1581877974813" lon="-75.682118551959">
        <ele>55.321895</ele>
        <time>2019-09-10T15:10:28.600Z</time>
      </trkpt>
      <trkpt lat="10.1581868685647" lon="-75.6821211262275">
        <ele>55.321895</ele>
        <time>2019-09-10T15:10:28.700Z</time>
      </trkpt>
      <trkpt lat="10.1581859278452" lon="-75.682123707041">
        <ele>55.321895</ele>
        <time>2019-09-10T15:10:28.800Z</time>
      </trkpt>
      <trkpt lat="10.1581849917896" lon="-75.6821262921714">
        <ele>55.321895</ele>
        <time>2019-09-10T15:10:28.900Z</time>
      </trkpt>
      <trkpt lat="10.1581840517996" lon="-75.6821288803655">
        <ele>55.321895</ele>
        <time>2019-09-10T15:10:29.000Z</time>
      </trkpt>
      <trkpt lat="10.1581831250195" lon="-75.6821314253208">
        <ele>55.321895</ele>
        <time>2019-09-10T15:10:29.100Z</time>
      </trkpt>
      <trkpt lat="10.1581821966762" lon="-75.6821339546099">
        <ele>55.321895</ele>
        <time>2019-09-10T15:10:29.200Z</time>
      </trkpt>
      <trkpt lat="10.1581812563214" lon="-75.6821365225423">
        <ele>55.321895</ele>
        <time>2019-09-10T15:10:29.300Z</time>
      </trkpt>
      <trkpt lat="10.1581803073164" lon="-75.682139116028">
        <ele>55.321895</ele>
        <time>2019-09-10T15:10:29.400Z</time>
      </trkpt>
      <trkpt lat="10.1581793642258" lon="-75.6821416976074">
        <ele>55.321895</ele>
        <time>2019-09-10T15:10:29.500Z</time>
      </trkpt>
      <trkpt lat="10.1581784261639" lon="-75.6821442637296">
        <ele>55.421895</ele>
        <time>2019-09-10T15:10:29.600Z</time>
      </trkpt>
      <trkpt lat="10.1581774612392" lon="-75.6821468169705">
        <ele>55.321895</ele>
        <time>2019-09-10T15:10:29.700Z</time>
      </trkpt>
      <trkpt lat="10.1581764761218" lon="-75.6821493698634">
        <ele>55.321895</ele>
        <time>2019-09-10T15:10:29.800Z</time>
      </trkpt>
      <trkpt lat="10.1581754768825" lon="-75.682151911407">
        <ele>55.321895</ele>
        <time>2019-09-10T15:10:29.900Z</time>
      </trkpt>
      <trkpt lat="10.1581734548501" lon="-75.6821569926142">
        <ele>55.321895</ele>
        <time>2019-09-10T15:10:30.100Z</time>
      </trkpt>
      <trkpt lat="10.1581724241362" lon="-75.6821595418865">
        <ele>55.321895</ele>
        <time>2019-09-10T15:10:30.200Z</time>
      </trkpt>
      <trkpt lat="10.1581713974609" lon="-75.6821620581553">
        <ele>55.321895</ele>
        <time>2019-09-10T15:10:30.300Z</time>
      </trkpt>
      <trkpt lat="10.1581703859236" lon="-75.6821645702464">
        <ele>55.221895</ele>
        <time>2019-09-10T15:10:30.400Z</time>
      </trkpt>
      <trkpt lat="10.1581693851992" lon="-75.6821670572716">
        <ele>55.221895</ele>
        <time>2019-09-10T15:10:30.500Z</time>
      </trkpt>
      <trkpt lat="10.1581683906498" lon="-75.6821695580831">
        <ele>55.221895</ele>
        <time>2019-09-10T15:10:30.600Z</time>
      </trkpt>
      <trkpt lat="10.1581674047768" lon="-75.6821720418359">
        <ele>55.221895</ele>
        <time>2019-09-10T15:10:30.700Z</time>
      </trkpt>
      <trkpt lat="10.1581664218219" lon="-75.6821745439703">
        <ele>55.221895</ele>
        <time>2019-09-10T15:10:30.800Z</time>
      </trkpt>
      <trkpt lat="10.1581654472047" lon="-75.68217700586">
        <ele>55.221895</ele>
        <time>2019-09-10T15:10:30.900Z</time>
      </trkpt>
      <trkpt lat="10.1581644758704" lon="-75.6821794822322">
        <ele>55.221895</ele>
        <time>2019-09-10T15:10:31.000Z</time>
      </trkpt>
      <trkpt lat="10.1581635273604" lon="-75.6821819693271">
        <ele>55.321895</ele>
        <time>2019-09-10T15:10:31.100Z</time>
      </trkpt>
      <trkpt lat="10.1581625752027" lon="-75.6821844885899">
        <ele>55.321895</ele>
        <time>2019-09-10T15:10:31.200Z</time>
      </trkpt>
      <trkpt lat="10.1581616064479" lon="-75.6821870224744">
        <ele>55.321895</ele>
        <time>2019-09-10T15:10:31.300Z</time>
      </trkpt>
      <trkpt lat="10.1581606225029" lon="-75.6821895729303">
        <ele>55.321895</ele>
        <time>2019-09-10T15:10:31.400Z</time>
      </trkpt>
      <trkpt lat="10.1581596303246" lon="-75.6821921345962">
        <ele>55.321895</ele>
        <time>2019-09-10T15:10:31.500Z</time>
      </trkpt>
      <trkpt lat="10.1581586386673" lon="-75.6821947011361">
        <ele>55.321895</ele>
        <time>2019-09-10T15:10:31.600Z</time>
      </trkpt>
      <trkpt lat="10.1581576442743" lon="-75.6821972711573">
        <ele>55.321895</ele>
        <time>2019-09-10T15:10:31.700Z</time>
      </trkpt>
      <trkpt lat="10.158156654493" lon="-75.6821998403431">
        <ele>55.221895</ele>
        <time>2019-09-10T15:10:31.800Z</time>
      </trkpt>
      <trkpt lat="10.1581556362595" lon="-75.6822024064652">
        <ele>55.221895</ele>
        <time>2019-09-10T15:10:31.900Z</time>
      </trkpt>
      <trkpt lat="10.1581546185993" lon="-75.6822049737709">
        <ele>55.221895</ele>
        <time>2019-09-10T15:10:32.000Z</time>
      </trkpt>
      <trkpt lat="10.1581536017728" lon="-75.6822075327214">
        <ele>55.221895</ele>
        <time>2019-09-10T15:10:32.100Z</time>
      </trkpt>
      <trkpt lat="10.1581526062854" lon="-75.6822100926466">
        <ele>55.221895</ele>
        <time>2019-09-10T15:10:32.200Z</time>
      </trkpt>
      <trkpt lat="10.1581516074109" lon="-75.6822126447736">
        <ele>55.221895</ele>
        <time>2019-09-10T15:10:32.300Z</time>
      </trkpt>
      <trkpt lat="10.1581506124447" lon="-75.6822152037241">
        <ele>55.221895</ele>
        <time>2019-09-10T15:10:32.400Z</time>
      </trkpt>
      <trkpt lat="10.1581496069521" lon="-75.6822177805688">
        <ele>55.221895</ele>
        <time>2019-09-10T15:10:32.500Z</time>
      </trkpt>
      <trkpt lat="10.1581486042215" lon="-75.682220369668">
        <ele>55.221895</ele>
        <time>2019-09-10T15:10:32.600Z</time>
      </trkpt>
      <trkpt lat="10.1581475866654" lon="-75.6822230068101">
        <ele>55.221895</ele>
        <time>2019-09-10T15:10:32.700Z</time>
      </trkpt>
      <trkpt lat="10.1581465762485" lon="-75.6822256493136">
        <ele>55.221895</ele>
        <time>2019-09-10T15:10:32.800Z</time>
      </trkpt>
      <trkpt lat="10.1581455756022" lon="-75.6822282407801">
        <ele>55.221895</ele>
        <time>2019-09-10T15:10:32.900Z</time>
      </trkpt>
      <trkpt lat="10.158144578734" lon="-75.68223080544">
        <ele>55.221895</ele>
        <time>2019-09-10T15:10:33.000Z</time>
      </trkpt>
      <trkpt lat="10.1581435758209" lon="-75.6822333467051">
        <ele>55.221895</ele>
        <time>2019-09-10T15:10:33.100Z</time>
      </trkpt>
      <trkpt lat="10.1581425721262" lon="-75.6822358929137">
        <ele>55.321895</ele>
        <time>2019-09-10T15:10:33.200Z</time>
      </trkpt>
      <trkpt lat="10.1581415494112" lon="-75.6822384152401">
        <ele>55.321895</ele>
        <time>2019-09-10T15:10:33.300Z</time>
      </trkpt>
      <trkpt lat="10.1581405254457" lon="-75.6822409511439">
        <ele>55.321895</ele>
        <time>2019-09-10T15:10:33.400Z</time>
      </trkpt>
      <trkpt lat="10.1581395102346" lon="-75.6822434486132">
        <ele>55.321895</ele>
        <time>2019-09-10T15:10:33.500Z</time>
      </trkpt>
      <trkpt lat="10.1581385083637" lon="-75.6822459559697">
        <ele>55.321895</ele>
        <time>2019-09-10T15:10:33.600Z</time>
      </trkpt>
      <trkpt lat="10.1581375139707" lon="-75.6822484575471">
        <ele>55.321895</ele>
        <time>2019-09-10T15:10:33.700Z</time>
      </trkpt>
      <trkpt lat="10.1581365265083" lon="-75.6822509855133">
        <ele>55.221895</ele>
        <time>2019-09-10T15:10:33.800Z</time>
      </trkpt>
      <trkpt lat="10.1581355682016" lon="-75.6822535143151">
        <ele>55.221895</ele>
        <time>2019-09-10T15:10:33.900Z</time>
      </trkpt>
      <trkpt lat="10.1581336561217" lon="-75.6822586075679">
        <ele>55.221895</ele>
        <time>2019-09-10T15:10:34.100Z</time>
      </trkpt>
      <trkpt lat="10.1581326862986" lon="-75.6822611680501">
        <ele>55.321895</ele>
        <time>2019-09-10T15:10:34.200Z</time>
      </trkpt>
      <trkpt lat="10.1581317339585" lon="-75.6822637265132">
        <ele>55.321895</ele>
        <time>2019-09-10T15:10:34.300Z</time>
      </trkpt>
      <trkpt lat="10.1581307846408" lon="-75.6822662917997">
        <ele>55.321895</ele>
        <time>2019-09-10T15:10:34.400Z</time>
      </trkpt>
      <trkpt lat="10.158128921727" lon="-75.6822713595689">
        <ele>55.321895</ele>
        <time>2019-09-10T15:10:34.600Z</time>
      </trkpt>
      <trkpt lat="10.1581279717058" lon="-75.6822739073789">
        <ele>55.321895</ele>
        <time>2019-09-10T15:10:34.700Z</time>
      </trkpt>
      <trkpt lat="10.1581270011271" lon="-75.6822764799067">
        <ele>55.321895</ele>
        <time>2019-09-10T15:10:34.800Z</time>
      </trkpt>
      <trkpt lat="10.1581250100481" lon="-75.682281607277">
        <ele>55.321895</ele>
        <time>2019-09-10T15:10:35.000Z</time>
      </trkpt>
      <trkpt lat="10.1581240070309" lon="-75.6822841287679">
        <ele>55.321895</ele>
        <time>2019-09-10T15:10:35.100Z</time>
      </trkpt>
      <trkpt lat="10.1581230079479" lon="-75.6822866450367">
        <ele>55.321895</ele>
        <time>2019-09-10T15:10:35.200Z</time>
      </trkpt>
      <trkpt lat="10.1581219765827" lon="-75.6822892184">
        <ele>55.221895</ele>
        <time>2019-09-10T15:10:35.300Z</time>
      </trkpt>
      <trkpt lat="10.1581209437583" lon="-75.6822918257416">
        <ele>55.221895</ele>
        <time>2019-09-10T15:10:35.400Z</time>
      </trkpt>
      <trkpt lat="10.15811990429" lon="-75.6822943921422">
        <ele>55.221895</ele>
        <time>2019-09-10T15:10:35.500Z</time>
      </trkpt>
      <trkpt lat="10.1581188762337" lon="-75.6822969379331">
        <ele>55.221895</ele>
        <time>2019-09-10T15:10:35.600Z</time>
      </trkpt>
      <trkpt lat="10.1581178769944" lon="-75.6822994691022">
        <ele>55.221895</ele>
        <time>2019-09-10T15:10:35.700Z</time>
      </trkpt>
      <trkpt lat="10.1581168916946" lon="-75.6823020123168">
        <ele>55.221895</ele>
        <time>2019-09-10T15:10:35.800Z</time>
      </trkpt>
      <trkpt lat="10.1581158910223" lon="-75.6823045223887">
        <ele>55.221895</ele>
        <time>2019-09-10T15:10:35.900Z</time>
      </trkpt>
      <trkpt lat="10.1581148838362" lon="-75.68230704193">
        <ele>55.221895</ele>
        <time>2019-09-10T15:10:36.000Z</time>
      </trkpt>
      <trkpt lat="10.1581138798809" lon="-75.6823095606358">
        <ele>55.221895</ele>
        <time>2019-09-10T15:10:36.100Z</time>
      </trkpt>
      <trkpt lat="10.1581128833774" lon="-75.6823121023883">
        <ele>55.221895</ele>
        <time>2019-09-10T15:10:36.200Z</time>
      </trkpt>
      <trkpt lat="10.1581118914075" lon="-75.682314616429">
        <ele>55.221895</ele>
        <time>2019-09-10T15:10:36.300Z</time>
      </trkpt>
      <trkpt lat="10.158110902955" lon="-75.6823171401479">
        <ele>55.221895</ele>
        <time>2019-09-10T15:10:36.400Z</time>
      </trkpt>
      <trkpt lat="10.1581099199481" lon="-75.6823196618477">
        <ele>55.221895</ele>
        <time>2019-09-10T15:10:36.500Z</time>
      </trkpt>
      <trkpt lat="10.158108943038" lon="-75.6823222063156">
        <ele>55.221895</ele>
        <time>2019-09-10T15:10:36.600Z</time>
      </trkpt>
      <trkpt lat="10.1581079721727" lon="-75.6823247479288">
        <ele>55.221895</ele>
        <time>2019-09-10T15:10:36.700Z</time>
      </trkpt>
      <trkpt lat="10.1581070039651" lon="-75.6823273027016">
        <ele>55.221895</ele>
        <time>2019-09-10T15:10:36.800Z</time>
      </trkpt>
      <trkpt lat="10.158106051625" lon="-75.6823298268383">
        <ele>55.221895</ele>
        <time>2019-09-10T15:10:36.900Z</time>
      </trkpt>
      <trkpt lat="10.1581042183878" lon="-75.6823347793043">
        <ele>55.221895</ele>
        <time>2019-09-10T15:10:37.100Z</time>
      </trkpt>
      <trkpt lat="10.1581033589602" lon="-75.6823371481716">
        <ele>55.221895</ele>
        <time>2019-09-10T15:10:37.200Z</time>
      </trkpt>
      <trkpt lat="10.1581025135503" lon="-75.6823395496943">
        <ele>55.221895</ele>
        <time>2019-09-10T15:10:37.300Z</time>
      </trkpt>
      <trkpt lat="10.1581016188962" lon="-75.6823420802367">
        <ele>55.221895</ele>
        <time>2019-09-10T15:10:37.400Z</time>
      </trkpt>
      <trkpt lat="10.158100695816" lon="-75.6823446849324">
        <ele>55.221895</ele>
        <time>2019-09-10T15:10:37.500Z</time>
      </trkpt>
      <trkpt lat="10.1580997423034" lon="-75.6823473155296">
        <ele>55.221895</ele>
        <time>2019-09-10T15:10:37.600Z</time>
      </trkpt>
      <trkpt lat="10.1580987904844" lon="-75.682349952811">
        <ele>55.221895</ele>
        <time>2019-09-10T15:10:37.700Z</time>
      </trkpt>
      <trkpt lat="10.1580978429645" lon="-75.682352564191">
        <ele>55.221895</ele>
        <time>2019-09-10T15:10:37.800Z</time>
      </trkpt>
      <trkpt lat="10.1580968793425" lon="-75.6823552249369">
        <ele>55.221895</ele>
        <time>2019-09-10T15:10:37.900Z</time>
      </trkpt>
      <trkpt lat="10.1580959094934" lon="-75.6823578851258">
        <ele>55.221895</ele>
        <time>2019-09-10T15:10:38.000Z</time>
      </trkpt>
      <trkpt lat="10.1580940061159" lon="-75.682363119235">
        <ele>55.321895</ele>
        <time>2019-09-10T15:10:38.200Z</time>
      </trkpt>
      <trkpt lat="10.1580930753755" lon="-75.6823657180821">
        <ele>55.321895</ele>
        <time>2019-09-10T15:10:38.300Z</time>
      </trkpt>
      <trkpt lat="10.1580921471103" lon="-75.6823683162328">
        <ele>55.321895</ele>
        <time>2019-09-10T15:10:38.400Z</time>
      </trkpt>
      <trkpt lat="10.1580912141031" lon="-75.6823709209982">
        <ele>55.321895</ele>
        <time>2019-09-10T15:10:38.500Z</time>
      </trkpt>
      <trkpt lat="10.1580902775784" lon="-75.682373527365">
        <ele>55.321895</ele>
        <time>2019-09-10T15:10:38.600Z</time>
      </trkpt>
      <trkpt lat="10.1580893352956" lon="-75.6823761089444">
        <ele>55.321895</ele>
        <time>2019-09-10T15:10:38.700Z</time>
      </trkpt>
      <trkpt lat="10.1580874405163" lon="-75.6823812455751">
        <ele>55.321895</ele>
        <time>2019-09-10T15:10:38.900Z</time>
      </trkpt>
      <trkpt lat="10.1580864846067" lon="-75.682383820888">
        <ele>55.321895</ele>
        <time>2019-09-10T15:10:39.000Z</time>
      </trkpt>
      <trkpt lat="10.1580845588479" lon="-75.6823889354468">
        <ele>55.321895</ele>
        <time>2019-09-10T15:10:39.200Z</time>
      </trkpt>
      <trkpt lat="10.158083575424" lon="-75.6823914788007">
        <ele>55.321895</ele>
        <time>2019-09-10T15:10:39.300Z</time>
      </trkpt>
      <trkpt lat="10.1580825900982" lon="-75.6823940286996">
        <ele>55.321895</ele>
        <time>2019-09-10T15:10:39.400Z</time>
      </trkpt>
      <trkpt lat="10.1580805900563" lon="-75.6823991117172">
        <ele>55.321895</ele>
        <time>2019-09-10T15:10:39.600Z</time>
      </trkpt>
      <trkpt lat="10.1580796044699" lon="-75.6824016222069">
        <ele>55.321895</ele>
        <time>2019-09-10T15:10:39.700Z</time>
      </trkpt>
      <trkpt lat="10.1580786368615" lon="-75.6824041362476">
        <ele>55.321895</ele>
        <time>2019-09-10T15:10:39.800Z</time>
      </trkpt>
      <trkpt lat="10.1580776614365" lon="-75.6824066443003">
        <ele>55.321895</ele>
        <time>2019-09-10T15:10:39.900Z</time>
      </trkpt>
      <trkpt lat="10.1580766824421" lon="-75.6824091760264">
        <ele>55.321895</ele>
        <time>2019-09-10T15:10:40.000Z</time>
      </trkpt>
      <trkpt lat="10.1580757417746" lon="-75.6824116808763">
        <ele>55.321895</ele>
        <time>2019-09-10T15:10:40.100Z</time>
      </trkpt>
      <trkpt lat="10.1580738896736" lon="-75.6824166916901">
        <ele>55.321895</ele>
        <time>2019-09-10T15:10:40.300Z</time>
      </trkpt>
      <trkpt lat="10.1580729327739" lon="-75.6824192234859">
        <ele>55.321895</ele>
        <time>2019-09-10T15:10:40.400Z</time>
      </trkpt>
      <trkpt lat="10.1580719617262" lon="-75.6824217588326">
        <ele>55.321895</ele>
        <time>2019-09-10T15:10:40.500Z</time>
      </trkpt>
      <trkpt lat="10.1580709718407" lon="-75.6824243056679">
        <ele>55.321895</ele>
        <time>2019-09-10T15:10:40.600Z</time>
      </trkpt>
      <trkpt lat="10.1580700009754" lon="-75.6824268058527">
        <ele>55.321895</ele>
        <time>2019-09-10T15:10:40.700Z</time>
      </trkpt>
      <trkpt lat="10.1580690315692" lon="-75.6824292985874">
        <ele>55.321895</ele>
        <time>2019-09-10T15:10:40.800Z</time>
      </trkpt>
      <trkpt lat="10.1580680488228" lon="-75.6824317941768">
        <ele>55.321895</ele>
        <time>2019-09-10T15:10:40.900Z</time>
      </trkpt>
      <trkpt lat="10.1580670440338" lon="-75.6824343262511">
        <ele>55.221895</ele>
        <time>2019-09-10T15:10:41.000Z</time>
      </trkpt>
      <trkpt lat="10.1580650260139" lon="-75.6824394187379">
        <ele>55.221895</ele>
        <time>2019-09-10T15:10:41.200Z</time>
      </trkpt>
      <trkpt lat="10.1580640038722" lon="-75.682441974207">
        <ele>55.221895</ele>
        <time>2019-09-10T15:10:41.300Z</time>
      </trkpt>
      <trkpt lat="10.1580629742787" lon="-75.6824445356641">
        <ele>55.221895</ele>
        <time>2019-09-10T15:10:41.400Z</time>
      </trkpt>
      <trkpt lat="10.1580619316576" lon="-75.6824470925953">
        <ele>55.221895</ele>
        <time>2019-09-10T15:10:41.500Z</time>
      </trkpt>
      <trkpt lat="10.1580608926843" lon="-75.6824496552361">
        <ele>55.221895</ele>
        <time>2019-09-10T15:10:41.600Z</time>
      </trkpt>
      <trkpt lat="10.1580598632993" lon="-75.6824522135599">
        <ele>55.221895</ele>
        <time>2019-09-10T15:10:41.700Z</time>
      </trkpt>
      <trkpt lat="10.1580588487135" lon="-75.6824547771057">
        <ele>55.221895</ele>
        <time>2019-09-10T15:10:41.800Z</time>
      </trkpt>
      <trkpt lat="10.1580578122936" lon="-75.6824573863969">
        <ele>55.221895</ele>
        <time>2019-09-10T15:10:41.900Z</time>
      </trkpt>
      <trkpt lat="10.1580567714443" lon="-75.6824600148356">
        <ele>55.221895</ele>
        <time>2019-09-10T15:10:42.000Z</time>
      </trkpt>
      <trkpt lat="10.1580557453422" lon="-75.6824626354761">
        <ele>55.321895</ele>
        <time>2019-09-10T15:10:42.100Z</time>
      </trkpt>
      <trkpt lat="10.1580547360196" lon="-75.682465236203">
        <ele>55.321895</ele>
        <time>2019-09-10T15:10:42.200Z</time>
      </trkpt>
      <trkpt lat="10.1580537503029" lon="-75.6824677908366">
        <ele>55.321895</ele>
        <time>2019-09-10T15:10:42.300Z</time>
      </trkpt>
      <trkpt lat="10.1580527748519" lon="-75.6824703283418">
        <ele>55.321895</ele>
        <time>2019-09-10T15:10:42.400Z</time>
      </trkpt>
      <trkpt lat="10.1580507872643" lon="-75.682475439837">
        <ele>55.321895</ele>
        <time>2019-09-10T15:10:42.600Z</time>
      </trkpt>
      <trkpt lat="10.158049782788" lon="-75.6824779964201">
        <ele>55.321895</ele>
        <time>2019-09-10T15:10:42.700Z</time>
      </trkpt>
      <trkpt lat="10.1580487805523" lon="-75.682480560523">
        <ele>55.321895</ele>
        <time>2019-09-10T15:10:42.800Z</time>
      </trkpt>
      <trkpt lat="10.1580477825376" lon="-75.6824831269932">
        <ele>55.321895</ele>
        <time>2019-09-10T15:10:42.900Z</time>
      </trkpt>
      <trkpt lat="10.1580467847314" lon="-75.6824857111489">
        <ele>55.321895</ele>
        <time>2019-09-10T15:10:43.000Z</time>
      </trkpt>
      <trkpt lat="10.1580457765552" lon="-75.6824883095085">
        <ele>55.321895</ele>
        <time>2019-09-10T15:10:43.100Z</time>
      </trkpt>
      <trkpt lat="10.1580447604582" lon="-75.6824909169197">
        <ele>55.321895</ele>
        <time>2019-09-10T15:10:43.200Z</time>
      </trkpt>
      <trkpt lat="10.1580437837045" lon="-75.6824934797693">
        <ele>55.321895</ele>
        <time>2019-09-10T15:10:43.300Z</time>
      </trkpt>
      <trkpt lat="10.1580428293582" lon="-75.6824960224269">
        <ele>55.321895</ele>
        <time>2019-09-10T15:10:43.400Z</time>
      </trkpt>
      <trkpt lat="10.1580418840269" lon="-75.6824985428038">
        <ele>55.321895</ele>
        <time>2019-09-10T15:10:43.500Z</time>
      </trkpt>
      <trkpt lat="10.1580409218119" lon="-75.6825010787771">
        <ele>55.321895</ele>
        <time>2019-09-10T15:10:43.600Z</time>
      </trkpt>
      <trkpt lat="10.1580399550112" lon="-75.6825035970651">
        <ele>55.321895</ele>
        <time>2019-09-10T15:10:43.700Z</time>
      </trkpt>
      <trkpt lat="10.1580389728901" lon="-75.6825061334563">
        <ele>55.321895</ele>
        <time>2019-09-10T15:10:43.800Z</time>
      </trkpt>
      <trkpt lat="10.1580379864439" lon="-75.6825086617706">
        <ele>55.321895</ele>
        <time>2019-09-10T15:10:43.900Z</time>
      </trkpt>
      <trkpt lat="10.1580369908784" lon="-75.6825112059601">
        <ele>55.321895</ele>
        <time>2019-09-10T15:10:44.000Z</time>
      </trkpt>
      <trkpt lat="10.1580359886427" lon="-75.682513765189">
        <ele>55.321895</ele>
        <time>2019-09-10T15:10:44.100Z</time>
      </trkpt>
      <trkpt lat="10.1580349893253" lon="-75.682516344053">
        <ele>55.321895</ele>
        <time>2019-09-10T15:10:44.200Z</time>
      </trkpt>
      <trkpt lat="10.1580339895909" lon="-75.6825188869891">
        <ele>55.321895</ele>
        <time>2019-09-10T15:10:44.300Z</time>
      </trkpt>
      <trkpt lat="10.158032994286" lon="-75.6825214168353">
        <ele>55.321895</ele>
        <time>2019-09-10T15:10:44.400Z</time>
      </trkpt>
      <trkpt lat="10.158031980534" lon="-75.6825239923571">
        <ele>55.321895</ele>
        <time>2019-09-10T15:10:44.500Z</time>
      </trkpt>
      <trkpt lat="10.1580309739732" lon="-75.6825266093769">
        <ele>55.321895</ele>
        <time>2019-09-10T15:10:44.600Z</time>
      </trkpt>
      <trkpt lat="10.1580299647548" lon="-75.6825292234723">
        <ele>55.321895</ele>
        <time>2019-09-10T15:10:44.700Z</time>
      </trkpt>
      <trkpt lat="10.1580289734102" lon="-75.6825318239208">
        <ele>55.321895</ele>
        <time>2019-09-10T15:10:44.800Z</time>
      </trkpt>
      <trkpt lat="10.1580280026492" lon="-75.682534410583">
        <ele>55.321895</ele>
        <time>2019-09-10T15:10:44.900Z</time>
      </trkpt>
      <trkpt lat="10.1580270510125" lon="-75.6825369898647">
        <ele>55.321895</ele>
        <time>2019-09-10T15:10:45.000Z</time>
      </trkpt>
      <trkpt lat="10.1580260978126" lon="-75.6825395680324">
        <ele>55.321895</ele>
        <time>2019-09-10T15:10:45.100Z</time>
      </trkpt>
      <trkpt lat="10.158025144769" lon="-75.6825421542768">
        <ele>55.321895</ele>
        <time>2019-09-10T15:10:45.200Z</time>
      </trkpt>
      <trkpt lat="10.1580241992293" lon="-75.6825447221396">
        <ele>55.321895</ele>
        <time>2019-09-10T15:10:45.300Z</time>
      </trkpt>
      <trkpt lat="10.1580232583274" lon="-75.6825472842929">
        <ele>55.321895</ele>
        <time>2019-09-10T15:10:45.400Z</time>
      </trkpt>
      <trkpt lat="10.1580223518703" lon="-75.6825497978462">
        <ele>55.321895</ele>
        <time>2019-09-10T15:10:45.500Z</time>
      </trkpt>
      <trkpt lat="10.1580214559395" lon="-75.6825523042976">
        <ele>55.321895</ele>
        <time>2019-09-10T15:10:45.600Z</time>
      </trkpt>
      <trkpt lat="10.1580205508894" lon="-75.68255482175">
        <ele>55.321895</ele>
        <time>2019-09-10T15:10:45.700Z</time>
      </trkpt>
      <trkpt lat="10.1580196190026" lon="-75.6825573783331">
        <ele>55.321895</ele>
        <time>2019-09-10T15:10:45.800Z</time>
      </trkpt>
      <trkpt lat="10.1580186892001" lon="-75.6825599019128">
        <ele>55.321895</ele>
        <time>2019-09-10T15:10:45.900Z</time>
      </trkpt>
      <trkpt lat="10.1580177550725" lon="-75.6825624204793">
        <ele>55.321895</ele>
        <time>2019-09-10T15:10:46.000Z</time>
      </trkpt>
      <trkpt lat="10.1580168107835" lon="-75.6825649333364">
        <ele>55.321895</ele>
        <time>2019-09-10T15:10:46.100Z</time>
      </trkpt>
      <trkpt lat="10.1580158550823" lon="-75.6825674666639">
        <ele>55.221895</ele>
        <time>2019-09-10T15:10:46.200Z</time>
      </trkpt>
      <trkpt lat="10.1580148936489" lon="-75.6825699778499">
        <ele>55.221895</ele>
        <time>2019-09-10T15:10:46.300Z</time>
      </trkpt>
      <trkpt lat="10.1580139274736" lon="-75.6825724922387">
        <ele>55.221895</ele>
        <time>2019-09-10T15:10:46.400Z</time>
      </trkpt>
      <trkpt lat="10.1580129581195" lon="-75.6825750038425">
        <ele>55.221895</ele>
        <time>2019-09-10T15:10:46.500Z</time>
      </trkpt>
      <trkpt lat="10.1580119801672" lon="-75.6825775393981">
        <ele>55.221895</ele>
        <time>2019-09-10T15:10:46.600Z</time>
      </trkpt>
      <trkpt lat="10.1580110037782" lon="-75.6825800564328">
        <ele>55.221895</ele>
        <time>2019-09-10T15:10:46.700Z</time>
      </trkpt>
      <trkpt lat="10.1580100255133" lon="-75.6825825780629">
        <ele>55.221895</ele>
        <time>2019-09-10T15:10:46.800Z</time>
      </trkpt>
      <trkpt lat="10.1580090468836" lon="-75.6825850761589">
        <ele>55.221895</ele>
        <time>2019-09-10T15:10:46.900Z</time>
      </trkpt>
      <trkpt lat="10.1580070735221" lon="-75.6825900698444">
        <ele>55.221895</ele>
        <time>2019-09-10T15:10:47.100Z</time>
      </trkpt>
      <trkpt lat="10.1580060803016" lon="-75.6825925647375">
        <ele>55.321895</ele>
        <time>2019-09-10T15:10:47.200Z</time>
      </trkpt>
      <trkpt lat="10.1580050829643" lon="-75.6825950962547">
        <ele>55.321895</ele>
        <time>2019-09-10T15:10:47.300Z</time>
      </trkpt>
      <trkpt lat="10.158004093183" lon="-75.682597670384">
        <ele>55.321895</ele>
        <time>2019-09-10T15:10:47.400Z</time>
      </trkpt>
      <trkpt lat="10.1580031050171" lon="-75.6826002006479">
        <ele>55.321895</ele>
        <time>2019-09-10T15:10:47.500Z</time>
      </trkpt>
      <trkpt lat="10.1580021163823" lon="-75.6826027083525">
        <ele>55.321895</ele>
        <time>2019-09-10T15:10:47.600Z</time>
      </trkpt>
      <trkpt lat="10.1580011134171" lon="-75.6826052409838">
        <ele>55.321895</ele>
        <time>2019-09-10T15:10:47.700Z</time>
      </trkpt>
      <trkpt lat="10.1579991540733" lon="-75.6826103527575">
        <ele>55.321895</ele>
        <time>2019-09-10T15:10:47.900Z</time>
      </trkpt>
      <trkpt lat="10.157998216298" lon="-75.6826128892879">
        <ele>55.321895</ele>
        <time>2019-09-10T15:10:48.000Z</time>
      </trkpt>
      <trkpt lat="10.1579972995752" lon="-75.6826154231725">
        <ele>55.321895</ele>
        <time>2019-09-10T15:10:48.100Z</time>
      </trkpt>
      <trkpt lat="10.1579963710755" lon="-75.6826179702862">
        <ele>55.321895</ele>
        <time>2019-09-10T15:10:48.200Z</time>
      </trkpt>
      <trkpt lat="10.157995450705" lon="-75.6826205236665">
        <ele>55.321895</ele>
        <time>2019-09-10T15:10:48.300Z</time>
      </trkpt>
      <trkpt lat="10.1579945164211" lon="-75.6826230877694">
        <ele>55.321895</ele>
        <time>2019-09-10T15:10:48.400Z</time>
      </trkpt>
      <trkpt lat="10.1579927406616" lon="-75.6826281562348">
        <ele>55.321895</ele>
        <time>2019-09-10T15:10:48.600Z</time>
      </trkpt>
      <trkpt lat="10.1579918555176" lon="-75.6826306553056">
        <ele>55.321895</ele>
        <time>2019-09-10T15:10:48.700Z</time>
      </trkpt>
      <trkpt lat="10.157990940775" lon="-75.6826331709477">
        <ele>55.321895</ele>
        <time>2019-09-10T15:10:48.800Z</time>
      </trkpt>
      <trkpt lat="10.1579900047714" lon="-75.6826357133268">
        <ele>55.321895</ele>
        <time>2019-09-10T15:10:48.900Z</time>
      </trkpt>
      <trkpt lat="10.1579890446408" lon="-75.6826382891272">
        <ele>55.321895</ele>
        <time>2019-09-10T15:10:49.000Z</time>
      </trkpt>
      <trkpt lat="10.1579871022328" lon="-75.6826434376642">
        <ele>55.221895</ele>
        <time>2019-09-10T15:10:49.200Z</time>
      </trkpt>
      <trkpt lat="10.1579861329309" lon="-75.6826460048307">
        <ele>55.221895</ele>
        <time>2019-09-10T15:10:49.300Z</time>
      </trkpt>
      <trkpt lat="10.157985159408" lon="-75.6826485758964">
        <ele>55.221895</ele>
        <time>2019-09-10T15:10:49.400Z</time>
      </trkpt>
      <trkpt lat="10.1579842064686" lon="-75.6826511324795">
        <ele>55.221895</ele>
        <time>2019-09-10T15:10:49.500Z</time>
      </trkpt>
      <trkpt lat="10.1579832562389" lon="-75.6826536908729">
        <ele>55.321895</ele>
        <time>2019-09-10T15:10:49.600Z</time>
      </trkpt>
      <trkpt lat="10.1579813134141" lon="-75.6826587898352">
        <ele>55.321895</ele>
        <time>2019-09-10T15:10:49.800Z</time>
      </trkpt>
      <trkpt lat="10.1579803122206" lon="-75.6826613581157">
        <ele>55.321895</ele>
        <time>2019-09-10T15:10:49.900Z</time>
      </trkpt>
      <trkpt lat="10.1579793028459" lon="-75.6826639419928">
        <ele>55.321895</ele>
        <time>2019-09-10T15:10:50.000Z</time>
      </trkpt>
      <trkpt lat="10.157977235165" lon="-75.6826690871877">
        <ele>55.321895</ele>
        <time>2019-09-10T15:10:50.200Z</time>
      </trkpt>
      <trkpt lat="10.15797620677" lon="-75.6826716365296">
        <ele>55.321895</ele>
        <time>2019-09-10T15:10:50.300Z</time>
      </trkpt>
      <trkpt lat="10.157975194425" lon="-75.6826741903276">
        <ele>55.321895</ele>
        <time>2019-09-10T15:10:50.400Z</time>
      </trkpt>
      <trkpt lat="10.157973242064" lon="-75.6826792206371">
        <ele>55.321895</ele>
        <time>2019-09-10T15:10:50.600Z</time>
      </trkpt>
      <trkpt lat="10.1579723012663" lon="-75.6826817009085">
        <ele>55.321895</ele>
        <time>2019-09-10T15:10:50.700Z</time>
      </trkpt>
      <trkpt lat="10.1579704171696" lon="-75.6826867191028">
        <ele>55.421895</ele>
        <time>2019-09-10T15:10:50.900Z</time>
      </trkpt>
      <trkpt lat="10.1579685404205" lon="-75.6826917804662">
        <ele>55.421895</ele>
        <time>2019-09-10T15:10:51.100Z</time>
      </trkpt>
      <trkpt lat="10.1579666973866" lon="-75.6826967241591">
        <ele>55.421895</ele>
        <time>2019-09-10T15:10:51.300Z</time>
      </trkpt>
      <trkpt lat="10.1579657322535" lon="-75.6826992208626">
        <ele>55.421895</ele>
        <time>2019-09-10T15:10:51.400Z</time>
      </trkpt>
      <trkpt lat="10.1579647843688" lon="-75.6827017209081">
        <ele>55.421895</ele>
        <time>2019-09-10T15:10:51.500Z</time>
      </trkpt>
      <trkpt lat="10.1579638398713" lon="-75.6827042501973">
        <ele>55.421895</ele>
        <time>2019-09-10T15:10:51.600Z</time>
      </trkpt>
      <trkpt lat="10.1579628625443" lon="-75.6827067658394">
        <ele>55.421895</ele>
        <time>2019-09-10T15:10:51.700Z</time>
      </trkpt>
      <trkpt lat="10.1579618672915" lon="-75.6827092902546">
        <ele>55.421895</ele>
        <time>2019-09-10T15:10:51.800Z</time>
      </trkpt>
      <trkpt lat="10.1579608555718" lon="-75.6827117958704">
        <ele>55.421895</ele>
        <time>2019-09-10T15:10:51.900Z</time>
      </trkpt>
      <trkpt lat="10.157958837604" lon="-75.6827168374596">
        <ele>55.421895</ele>
        <time>2019-09-10T15:10:52.100Z</time>
      </trkpt>
      <trkpt lat="10.1579578363584" lon="-75.6827193831808">
        <ele>55.421895</ele>
        <time>2019-09-10T15:10:52.200Z</time>
      </trkpt>
      <trkpt lat="10.1579558480934" lon="-75.6827245109689">
        <ele>55.321895</ele>
        <time>2019-09-10T15:10:52.400Z</time>
      </trkpt>
      <trkpt lat="10.1579538938564" lon="-75.6827296074245">
        <ele>55.321895</ele>
        <time>2019-09-10T15:10:52.600Z</time>
      </trkpt>
      <trkpt lat="10.1579529287754" lon="-75.6827321670712">
        <ele>55.321895</ele>
        <time>2019-09-10T15:10:52.700Z</time>
      </trkpt>
      <trkpt lat="10.1579519655703" lon="-75.6827347561008">
        <ele>55.321895</ele>
        <time>2019-09-10T15:10:52.800Z</time>
      </trkpt>
      <trkpt lat="10.1579509532253" lon="-75.6827373605877">
        <ele>55.421895</ele>
        <time>2019-09-10T15:10:52.900Z</time>
      </trkpt>
      <trkpt lat="10.1579499215474" lon="-75.6827399803926">
        <ele>55.321895</ele>
        <time>2019-09-10T15:10:53.000Z</time>
      </trkpt>
      <trkpt lat="10.1579478515215" lon="-75.6827452325353">
        <ele>55.321895</ele>
        <time>2019-09-10T15:10:53.200Z</time>
      </trkpt>
      <trkpt lat="10.1579468029599" lon="-75.6827478562394">
        <ele>55.321895</ele>
        <time>2019-09-10T15:10:53.300Z</time>
      </trkpt>
      <trkpt lat="10.1579457626838" lon="-75.6827504877417">
        <ele>55.321895</ele>
        <time>2019-09-10T15:10:53.400Z</time>
      </trkpt>
      <trkpt lat="10.1579446875981" lon="-75.6827531455633">
        <ele>55.321895</ele>
        <time>2019-09-10T15:10:53.500Z</time>
      </trkpt>
      <trkpt lat="10.1579425572807" lon="-75.6827584366974">
        <ele>55.321895</ele>
        <time>2019-09-10T15:10:53.700Z</time>
      </trkpt>
      <trkpt lat="10.1579415070516" lon="-75.6827610338038">
        <ele>55.321895</ele>
        <time>2019-09-10T15:10:53.800Z</time>
      </trkpt>
      <trkpt lat="10.1579404586463" lon="-75.6827635753474">
        <ele>55.321895</ele>
        <time>2019-09-10T15:10:53.900Z</time>
      </trkpt>
      <trkpt lat="10.1579394242066" lon="-75.6827661075609">
        <ele>55.321895</ele>
        <time>2019-09-10T15:10:54.000Z</time>
      </trkpt>
      <trkpt lat="10.1579383735606" lon="-75.6827686530036">
        <ele>55.321895</ele>
        <time>2019-09-10T15:10:54.100Z</time>
      </trkpt>
      <trkpt lat="10.1579373263538" lon="-75.6827712398051">
        <ele>55.321895</ele>
        <time>2019-09-10T15:10:54.200Z</time>
      </trkpt>
      <trkpt lat="10.1579352978598" lon="-75.6827763448945">
        <ele>55.321895</ele>
        <time>2019-09-10T15:10:54.400Z</time>
      </trkpt>
      <trkpt lat="10.1579332396108" lon="-75.6827815190545">
        <ele>55.321895</ele>
        <time>2019-09-10T15:10:54.600Z</time>
      </trkpt>
      <trkpt lat="10.1579322218463" lon="-75.6827841046026">
        <ele>55.321895</ele>
        <time>2019-09-10T15:10:54.700Z</time>
      </trkpt>
      <trkpt lat="10.1579312189853" lon="-75.6827866795674">
        <ele>55.321895</ele>
        <time>2019-09-10T15:10:54.800Z</time>
      </trkpt>
      <trkpt lat="10.1579302316532" lon="-75.6827892382394">
        <ele>55.321895</ele>
        <time>2019-09-10T15:10:54.900Z</time>
      </trkpt>
      <trkpt lat="10.1579292456239" lon="-75.6827917930122">
        <ele>55.321895</ele>
        <time>2019-09-10T15:10:55.000Z</time>
      </trkpt>
      <trkpt lat="10.1579282446389" lon="-75.6827943296819">
        <ele>55.321895</ele>
        <time>2019-09-10T15:10:55.100Z</time>
      </trkpt>
      <trkpt lat="10.1579272331798" lon="-75.6827968747068">
        <ele>55.321895</ele>
        <time>2019-09-10T15:10:55.200Z</time>
      </trkpt>
      <trkpt lat="10.1579261986358" lon="-75.6827993822722">
        <ele>55.321895</ele>
        <time>2019-09-10T15:10:55.300Z</time>
      </trkpt>
      <trkpt lat="10.1579251630496" lon="-75.6828018924834">
        <ele>55.321895</ele>
        <time>2019-09-10T15:10:55.400Z</time>
      </trkpt>
      <trkpt lat="10.1579241104234" lon="-75.6828044166201">
        <ele>55.321895</ele>
        <time>2019-09-10T15:10:55.500Z</time>
      </trkpt>
      <trkpt lat="10.1579230604549" lon="-75.6828069693041">
        <ele>55.321895</ele>
        <time>2019-09-10T15:10:55.600Z</time>
      </trkpt>
      <trkpt lat="10.1579220146551" lon="-75.6828094959474">
        <ele>55.321895</ele>
        <time>2019-09-10T15:10:55.700Z</time>
      </trkpt>
      <trkpt lat="10.1579209854785" lon="-75.6828120199448">
        <ele>55.321895</ele>
        <time>2019-09-10T15:10:55.800Z</time>
      </trkpt>
      <trkpt lat="10.1579199750094" lon="-75.6828145404609">
        <ele>55.321895</ele>
        <time>2019-09-10T15:10:55.900Z</time>
      </trkpt>
      <trkpt lat="10.1579189777243" lon="-75.6828170760165">
        <ele>55.321895</ele>
        <time>2019-09-10T15:10:56.000Z</time>
      </trkpt>
      <trkpt lat="10.1579179887768" lon="-75.6828196474999">
        <ele>55.321895</ele>
        <time>2019-09-10T15:10:56.100Z</time>
      </trkpt>
      <trkpt lat="10.1579160588752" lon="-75.6828247651223">
        <ele>55.321895</ele>
        <time>2019-09-10T15:10:56.300Z</time>
      </trkpt>
      <trkpt lat="10.1579151326684" lon="-75.682827267396">
        <ele>55.321895</ele>
        <time>2019-09-10T15:10:56.400Z</time>
      </trkpt>
      <trkpt lat="10.1579132296557" lon="-75.6828323502046">
        <ele>55.321895</ele>
        <time>2019-09-10T15:10:56.600Z</time>
      </trkpt>
      <trkpt lat="10.1579122508176" lon="-75.6828348836714">
        <ele>55.321895</ele>
        <time>2019-09-10T15:10:56.700Z</time>
      </trkpt>
      <trkpt lat="10.157911260932" lon="-75.6828374129606">
        <ele>55.321895</ele>
        <time>2019-09-10T15:10:56.800Z</time>
      </trkpt>
      <trkpt lat="10.1579102650539" lon="-75.6828399447563">
        <ele>55.321895</ele>
        <time>2019-09-10T15:10:56.900Z</time>
      </trkpt>
      <trkpt lat="10.1579092675081" lon="-75.6828424939589">
        <ele>55.321895</ele>
        <time>2019-09-10T15:10:57.000Z</time>
      </trkpt>
      <trkpt lat="10.1579082691287" lon="-75.6828449892698">
        <ele>55.321895</ele>
        <time>2019-09-10T15:10:57.100Z</time>
      </trkpt>
      <trkpt lat="10.1579072761166" lon="-75.6828474696804">
        <ele>55.321895</ele>
        <time>2019-09-10T15:10:57.200Z</time>
      </trkpt>
      <trkpt lat="10.1579062583521" lon="-75.6828499801702">
        <ele>55.321895</ele>
        <time>2019-09-10T15:10:57.300Z</time>
      </trkpt>
      <trkpt lat="10.1579041796238" lon="-75.6828551118573">
        <ele>55.321895</ele>
        <time>2019-09-10T15:10:57.500Z</time>
      </trkpt>
      <trkpt lat="10.1579031382013" lon="-75.682857682923">
        <ele>55.321895</ele>
        <time>2019-09-10T15:10:57.600Z</time>
      </trkpt>
      <trkpt lat="10.1579021325264" lon="-75.6828602734843">
        <ele>55.321895</ele>
        <time>2019-09-10T15:10:57.700Z</time>
      </trkpt>
      <trkpt lat="10.15790115546" lon="-75.6828628690589">
        <ele>55.321895</ele>
        <time>2019-09-10T15:10:57.800Z</time>
      </trkpt>
      <trkpt lat="10.1579001809991" lon="-75.6828654593417">
        <ele>55.321895</ele>
        <time>2019-09-10T15:10:57.900Z</time>
      </trkpt>
      <trkpt lat="10.1578991942402" lon="-75.6828680368131">
        <ele>55.321895</ele>
        <time>2019-09-10T15:10:58.000Z</time>
      </trkpt>
      <trkpt lat="10.1578982012281" lon="-75.6828706025871">
        <ele>55.321895</ele>
        <time>2019-09-10T15:10:58.100Z</time>
      </trkpt>
      <trkpt lat="10.1578971970123" lon="-75.6828731630693">
        <ele>55.321895</ele>
        <time>2019-09-10T15:10:58.200Z</time>
      </trkpt>
      <trkpt lat="10.1578961896698" lon="-75.6828757086513">
        <ele>55.321895</ele>
        <time>2019-09-10T15:10:58.300Z</time>
      </trkpt>
      <trkpt lat="10.1578951792529" lon="-75.6828782581324">
        <ele>55.321895</ele>
        <time>2019-09-10T15:10:58.400Z</time>
      </trkpt>
      <trkpt lat="10.1578941777989" lon="-75.6828808218176">
        <ele>55.321895</ele>
        <time>2019-09-10T15:10:58.500Z</time>
      </trkpt>
      <trkpt lat="10.1578931760323" lon="-75.6828833980356">
        <ele>55.321895</ele>
        <time>2019-09-10T15:10:58.600Z</time>
      </trkpt>
      <trkpt lat="10.157892167804" lon="-75.6828859724434">
        <ele>55.321895</ele>
        <time>2019-09-10T15:10:58.700Z</time>
      </trkpt>
      <trkpt lat="10.1578911532703" lon="-75.6828885451801">
        <ele>55.321895</ele>
        <time>2019-09-10T15:10:58.800Z</time>
      </trkpt>
      <trkpt lat="10.157890159216" lon="-75.6828910778114">
        <ele>55.321895</ele>
        <time>2019-09-10T15:10:58.900Z</time>
      </trkpt>
      <trkpt lat="10.1578891717276" lon="-75.6828936001378">
        <ele>55.321895</ele>
        <time>2019-09-10T15:10:59.000Z</time>
      </trkpt>
      <trkpt lat="10.1578873063906" lon="-75.6828983973344">
        <ele>55.321895</ele>
        <time>2019-09-10T15:10:59.200Z</time>
      </trkpt>
      <trkpt lat="10.1578863451136" lon="-75.6829008072819">
        <ele>55.321895</ele>
        <time>2019-09-10T15:10:59.300Z</time>
      </trkpt>
      <trkpt lat="10.1578853215649" lon="-75.6829033436731">
        <ele>55.321895</ele>
        <time>2019-09-10T15:10:59.400Z</time>
      </trkpt>
      <trkpt lat="10.1578842934826" lon="-75.6829058976104">
        <ele>55.321895</ele>
        <time>2019-09-10T15:10:59.500Z</time>
      </trkpt>
      <trkpt lat="10.1578832781673" lon="-75.6829084597637">
        <ele>55.321895</ele>
        <time>2019-09-10T15:10:59.600Z</time>
      </trkpt>
      <trkpt lat="10.1578822412784" lon="-75.682911013701">
        <ele>55.321895</ele>
        <time>2019-09-10T15:10:59.700Z</time>
      </trkpt>
      <trkpt lat="10.1578812024093" lon="-75.6829135617895">
        <ele>55.321895</ele>
        <time>2019-09-10T15:10:59.800Z</time>
      </trkpt>
      <trkpt lat="10.1578801674484" lon="-75.6829161139165">
        <ele>55.321895</ele>
        <time>2019-09-10T15:10:59.900Z</time>
      </trkpt>
      <trkpt lat="10.1578791467658" lon="-75.6829186771839">
        <ele>55.321895</ele>
        <time>2019-09-10T15:11:00.000Z</time>
      </trkpt>
      <trkpt lat="10.1578781363488" lon="-75.6829212394765">
        <ele>55.321895</ele>
        <time>2019-09-10T15:11:00.100Z</time>
      </trkpt>
      <trkpt lat="10.1578771351033" lon="-75.6829238060859">
        <ele>55.321895</ele>
        <time>2019-09-10T15:11:00.200Z</time>
      </trkpt>
      <trkpt lat="10.1578761653845" lon="-75.6829263679608">
        <ele>55.321895</ele>
        <time>2019-09-10T15:11:00.300Z</time>
      </trkpt>
      <trkpt lat="10.1578752103086" lon="-75.6829289283038">
        <ele>55.321895</ele>
        <time>2019-09-10T15:11:00.400Z</time>
      </trkpt>
      <trkpt lat="10.1578742883748" lon="-75.6829314768101">
        <ele>55.421895</ele>
        <time>2019-09-10T15:11:00.500Z</time>
      </trkpt>
      <trkpt lat="10.1578733595103" lon="-75.6829340262912">
        <ele>55.421895</ele>
        <time>2019-09-10T15:11:00.600Z</time>
      </trkpt>
      <trkpt lat="10.157872427415" lon="-75.6829365669993">
        <ele>55.421895</ele>
        <time>2019-09-10T15:11:00.700Z</time>
      </trkpt>
      <trkpt lat="10.1578714691083" lon="-75.6829391173159">
        <ele>55.421895</ele>
        <time>2019-09-10T15:11:00.800Z</time>
      </trkpt>
      <trkpt lat="10.1578705151788" lon="-75.6829416620624">
        <ele>55.421895</ele>
        <time>2019-09-10T15:11:00.900Z</time>
      </trkpt>
      <trkpt lat="10.1578695482218" lon="-75.6829442161389">
        <ele>55.421895</ele>
        <time>2019-09-10T15:11:01.000Z</time>
      </trkpt>
      <trkpt lat="10.1578685650585" lon="-75.6829467657593">
        <ele>55.421895</ele>
        <time>2019-09-10T15:11:01.100Z</time>
      </trkpt>
      <trkpt lat="10.1578675602174" lon="-75.6829493230387">
        <ele>55.421895</ele>
        <time>2019-09-10T15:11:01.200Z</time>
      </trkpt>
      <trkpt lat="10.1578665154598" lon="-75.6829519014849">
        <ele>55.421895</ele>
        <time>2019-09-10T15:11:01.300Z</time>
      </trkpt>
      <trkpt lat="10.1578654608013" lon="-75.682954500123">
        <ele>55.421895</ele>
        <time>2019-09-10T15:11:01.400Z</time>
      </trkpt>
      <trkpt lat="10.1578644118228" lon="-75.6829570159044">
        <ele>55.421895</ele>
        <time>2019-09-10T15:11:01.500Z</time>
      </trkpt>
      <trkpt lat="10.1578633795717" lon="-75.6829594903271">
        <ele>55.421895</ele>
        <time>2019-09-10T15:11:01.600Z</time>
      </trkpt>
      <trkpt lat="10.1578623379929" lon="-75.6829619483176">
        <ele>55.421895</ele>
        <time>2019-09-10T15:11:01.700Z</time>
      </trkpt>
      <trkpt lat="10.1578613015209" lon="-75.6829644544904">
        <ele>55.421895</ele>
        <time>2019-09-10T15:11:01.800Z</time>
      </trkpt>
      <trkpt lat="10.1578592706818" lon="-75.6829694951048">
        <ele>55.421895</ele>
        <time>2019-09-10T15:11:02.000Z</time>
      </trkpt>
      <trkpt lat="10.1578582667266" lon="-75.6829720792604">
        <ele>55.421895</ele>
        <time>2019-09-10T15:11:02.100Z</time>
      </trkpt>
      <trkpt lat="10.1578572668359" lon="-75.6829746986476">
        <ele>55.421895</ele>
        <time>2019-09-10T15:11:02.200Z</time>
      </trkpt>
      <trkpt lat="10.1578562813277" lon="-75.6829773222124">
        <ele>55.421895</ele>
        <time>2019-09-10T15:11:02.300Z</time>
      </trkpt>
      <trkpt lat="10.1578553001445" lon="-75.682979928231">
        <ele>55.421895</ele>
        <time>2019-09-10T15:11:02.400Z</time>
      </trkpt>
      <trkpt lat="10.1578543524162" lon="-75.682982494562">
        <ele>55.421895</ele>
        <time>2019-09-10T15:11:02.500Z</time>
      </trkpt>
      <trkpt lat="10.157853409482" lon="-75.6829850437646">
        <ele>55.421895</ele>
        <time>2019-09-10T15:11:02.600Z</time>
      </trkpt>
      <trkpt lat="10.1578524587312" lon="-75.6829875912962">
        <ele>55.421895</ele>
        <time>2019-09-10T15:11:02.700Z</time>
      </trkpt>
      <trkpt lat="10.1578505009507" lon="-75.682992740808">
        <ele>55.421895</ele>
        <time>2019-09-10T15:11:02.900Z</time>
      </trkpt>
      <trkpt lat="10.1578495033008" lon="-75.6829953305338">
        <ele>55.421895</ele>
        <time>2019-09-10T15:11:03.000Z</time>
      </trkpt>
      <trkpt lat="10.1578484900699" lon="-75.6829979329319">
        <ele>55.421895</ele>
        <time>2019-09-10T15:11:03.100Z</time>
      </trkpt>
      <trkpt lat="10.1578474690225" lon="-75.6830005409001">
        <ele>55.421895</ele>
        <time>2019-09-10T15:11:03.200Z</time>
      </trkpt>
      <trkpt lat="10.1578464549057" lon="-75.6830031307652">
        <ele>55.421895</ele>
        <time>2019-09-10T15:11:03.300Z</time>
      </trkpt>
      <trkpt lat="10.1578454498041" lon="-75.6830057093506">
        <ele>55.421895</ele>
        <time>2019-09-10T15:11:03.400Z</time>
      </trkpt>
      <trkpt lat="10.1578444630973" lon="-75.6830082439314">
        <ele>55.421895</ele>
        <time>2019-09-10T15:11:03.500Z</time>
      </trkpt>
      <trkpt lat="10.1578434864999" lon="-75.6830107637512">
        <ele>55.421895</ele>
        <time>2019-09-10T15:11:03.600Z</time>
      </trkpt>
      <trkpt lat="10.157842519595" lon="-75.6830132831532">
        <ele>55.421895</ele>
        <time>2019-09-10T15:11:03.700Z</time>
      </trkpt>
      <trkpt lat="10.1578415449777" lon="-75.6830158411289">
        <ele>55.421895</ele>
        <time>2019-09-10T15:11:03.800Z</time>
      </trkpt>
      <trkpt lat="10.1578405697873" lon="-75.6830184477046">
        <ele>55.421895</ele>
        <time>2019-09-10T15:11:03.900Z</time>
      </trkpt>
      <trkpt lat="10.157839580944" lon="-75.6830210831061">
        <ele>55.421895</ele>
        <time>2019-09-10T15:11:04.000Z</time>
      </trkpt>
      <trkpt lat="10.1578385866812" lon="-75.6830236511081">
        <ele>55.421895</ele>
        <time>2019-09-10T15:11:04.100Z</time>
      </trkpt>
      <trkpt lat="10.1578375890834" lon="-75.6830261716242">
        <ele>55.521895</ele>
        <time>2019-09-10T15:11:04.200Z</time>
      </trkpt>
      <trkpt lat="10.1578365939869" lon="-75.6830286670744">
        <ele>55.521895</ele>
        <time>2019-09-10T15:11:04.300Z</time>
      </trkpt>
      <trkpt lat="10.1578356026944" lon="-75.6830311885652">
        <ele>55.521895</ele>
        <time>2019-09-10T15:11:04.400Z</time>
      </trkpt>
      <trkpt lat="10.1578346169256" lon="-75.683033700726">
        <ele>55.421895</ele>
        <time>2019-09-10T15:11:04.500Z</time>
      </trkpt>
      <trkpt lat="10.1578336370974" lon="-75.6830362394845">
        <ele>55.421895</ele>
        <time>2019-09-10T15:11:04.600Z</time>
      </trkpt>
      <trkpt lat="10.1578326479414" lon="-75.6830387999667">
        <ele>55.421895</ele>
        <time>2019-09-10T15:11:04.700Z</time>
      </trkpt>
      <trkpt lat="10.1578316486239" lon="-75.6830413885785">
        <ele>55.421895</ele>
        <time>2019-09-10T15:11:04.800Z</time>
      </trkpt>
      <trkpt lat="10.1578306644706" lon="-75.6830439720379">
        <ele>55.421895</ele>
        <time>2019-09-10T15:11:04.900Z</time>
      </trkpt>
      <trkpt lat="10.1578296951686" lon="-75.6830465534084">
        <ele>55.421895</ele>
        <time>2019-09-10T15:11:05.000Z</time>
      </trkpt>
      <trkpt lat="10.1578287422292" lon="-75.6830490967623">
        <ele>55.421895</ele>
        <time>2019-09-10T15:11:05.100Z</time>
      </trkpt>
      <trkpt lat="10.1578277942924" lon="-75.6830516275833">
        <ele>55.421895</ele>
        <time>2019-09-10T15:11:05.200Z</time>
      </trkpt>
      <trkpt lat="10.1578268527652" lon="-75.6830541688483">
        <ele>55.421895</ele>
        <time>2019-09-10T15:11:05.300Z</time>
      </trkpt>
      <trkpt lat="10.1578259030566" lon="-75.6830567471552">
        <ele>55.421895</ele>
        <time>2019-09-10T15:11:05.400Z</time>
      </trkpt>
      <trkpt lat="10.1578249389136" lon="-75.6830593123722">
        <ele>55.421895</ele>
        <time>2019-09-10T15:11:05.500Z</time>
      </trkpt>
      <trkpt lat="10.1578239657554" lon="-75.6830618798172">
        <ele>55.421895</ele>
        <time>2019-09-10T15:11:05.600Z</time>
      </trkpt>
      <trkpt lat="10.1578229982252" lon="-75.6830644347292">
        <ele>55.421895</ele>
        <time>2019-09-10T15:11:05.700Z</time>
      </trkpt>
      <trkpt lat="10.1578210646238" lon="-75.6830695388439">
        <ele>55.421895</ele>
        <time>2019-09-10T15:11:05.900Z</time>
      </trkpt>
      <trkpt lat="10.1578200916741" lon="-75.6830720879073">
        <ele>55.421895</ele>
        <time>2019-09-10T15:11:06.000Z</time>
      </trkpt>
      <trkpt lat="10.1578191286775" lon="-75.6830746199815">
        <ele>55.421895</ele>
        <time>2019-09-10T15:11:06.100Z</time>
      </trkpt>
      <trkpt lat="10.1578181753734" lon="-75.6830771595755">
        <ele>55.421895</ele>
        <time>2019-09-10T15:11:06.200Z</time>
      </trkpt>
      <trkpt lat="10.157817220558" lon="-75.6830796935994">
        <ele>55.421895</ele>
        <time>2019-09-10T15:11:06.300Z</time>
      </trkpt>
      <trkpt lat="10.1578162599584" lon="-75.6830822421057">
        <ele>55.421895</ele>
        <time>2019-09-10T15:11:06.400Z</time>
      </trkpt>
      <trkpt lat="10.1578153196819" lon="-75.6830847885232">
        <ele>55.421895</ele>
        <time>2019-09-10T15:11:06.500Z</time>
      </trkpt>
      <trkpt lat="10.1578143852416" lon="-75.6830873481699">
        <ele>55.421895</ele>
        <time>2019-09-10T15:11:06.600Z</time>
      </trkpt>
      <trkpt lat="10.1578134665386" lon="-75.6830898775983">
        <ele>55.521895</ele>
        <time>2019-09-10T15:11:06.700Z</time>
      </trkpt>
      <trkpt lat="10.1578125344433" lon="-75.6830924066089">
        <ele>55.521895</ele>
        <time>2019-09-10T15:11:06.800Z</time>
      </trkpt>
      <trkpt lat="10.1578116023481" lon="-75.6830949065153">
        <ele>55.521895</ele>
        <time>2019-09-10T15:11:06.900Z</time>
      </trkpt>
      <trkpt lat="10.1578106500861" lon="-75.6830974186761">
        <ele>55.521895</ele>
        <time>2019-09-10T15:11:07.000Z</time>
      </trkpt>
      <trkpt lat="10.1578096970425" lon="-75.683099948383">
        <ele>55.521895</ele>
        <time>2019-09-10T15:11:07.100Z</time>
      </trkpt>
      <trkpt lat="10.1578087266462" lon="-75.6831025126251">
        <ele>55.521895</ele>
        <time>2019-09-10T15:11:07.200Z</time>
      </trkpt>
      <trkpt lat="10.1578077853796" lon="-75.6831050050117">
        <ele>55.521895</ele>
        <time>2019-09-10T15:11:07.300Z</time>
      </trkpt>
      <trkpt lat="10.157806849376" lon="-75.6831074625845">
        <ele>55.421895</ele>
        <time>2019-09-10T15:11:07.400Z</time>
      </trkpt>
      <trkpt lat="10.1578048368798" lon="-75.6831125346705">
        <ele>55.421895</ele>
        <time>2019-09-10T15:11:07.600Z</time>
      </trkpt>
      <trkpt lat="10.1578038004598" lon="-75.683115137904">
        <ele>55.421895</ele>
        <time>2019-09-10T15:11:07.700Z</time>
      </trkpt>
      <trkpt lat="10.1578027839981" lon="-75.6831177475433">
        <ele>55.421895</ele>
        <time>2019-09-10T15:11:07.800Z</time>
      </trkpt>
      <trkpt lat="10.1578017756656" lon="-75.6831203559293">
        <ele>55.421895</ele>
        <time>2019-09-10T15:11:07.900Z</time>
      </trkpt>
      <trkpt lat="10.1578007831225" lon="-75.683122947744">
        <ele>55.421895</ele>
        <time>2019-09-10T15:11:08.000Z</time>
      </trkpt>
      <trkpt lat="10.157799802721" lon="-75.6831255291145">
        <ele>55.421895</ele>
        <time>2019-09-10T15:11:08.100Z</time>
      </trkpt>
      <trkpt lat="10.1577988310741" lon="-75.683128109928">
        <ele>55.421895</ele>
        <time>2019-09-10T15:11:08.200Z</time>
      </trkpt>
      <trkpt lat="10.157797879698" lon="-75.6831306535604">
        <ele>55.421895</ele>
        <time>2019-09-10T15:11:08.300Z</time>
      </trkpt>
      <trkpt lat="10.1577969355132" lon="-75.6831331907871">
        <ele>55.421895</ele>
        <time>2019-09-10T15:11:08.400Z</time>
      </trkpt>
      <trkpt lat="10.1577959812189" lon="-75.6831357310774">
        <ele>55.421895</ele>
        <time>2019-09-10T15:11:08.500Z</time>
      </trkpt>
      <trkpt lat="10.1577950117606" lon="-75.6831382994972">
        <ele>55.421895</ele>
        <time>2019-09-10T15:11:08.600Z</time>
      </trkpt>
      <trkpt lat="10.157794029848" lon="-75.6831408541307">
        <ele>55.421895</ele>
        <time>2019-09-10T15:11:08.700Z</time>
      </trkpt>
      <trkpt lat="10.1577930420469" lon="-75.6831434144737">
        <ele>55.421895</ele>
        <time>2019-09-10T15:11:08.800Z</time>
      </trkpt>
      <trkpt lat="10.157792062844" lon="-75.6831459593595">
        <ele>55.421895</ele>
        <time>2019-09-10T15:11:08.900Z</time>
      </trkpt>
      <trkpt lat="10.1577910976066" lon="-75.6831485116257">
        <ele>55.421895</ele>
        <time>2019-09-10T15:11:09.000Z</time>
      </trkpt>
      <trkpt lat="10.1577901457615" lon="-75.6831510753108">
        <ele>55.421895</ele>
        <time>2019-09-10T15:11:09.100Z</time>
      </trkpt>
      <trkpt lat="10.1577891977205" lon="-75.6831536593272">
        <ele>55.321895</ele>
        <time>2019-09-10T15:11:09.200Z</time>
      </trkpt>
      <trkpt lat="10.1577882473866" lon="-75.6831562263544">
        <ele>55.321895</ele>
        <time>2019-09-10T15:11:09.300Z</time>
      </trkpt>
      <trkpt lat="10.1577872913207" lon="-75.6831587844694">
        <ele>55.321895</ele>
        <time>2019-09-10T15:11:09.400Z</time>
      </trkpt>
      <trkpt lat="10.1577863368701" lon="-75.6831613324187">
        <ele>55.321895</ele>
        <time>2019-09-10T15:11:09.500Z</time>
      </trkpt>
      <trkpt lat="10.1577853797619" lon="-75.6831638867737">
        <ele>55.321895</ele>
        <time>2019-09-10T15:11:09.600Z</time>
      </trkpt>
      <trkpt lat="10.157784403425" lon="-75.683166427064">
        <ele>55.321895</ele>
        <time>2019-09-10T15:11:09.700Z</time>
      </trkpt>
      <trkpt lat="10.1577834146339" lon="-75.6831689771022">
        <ele>55.321895</ele>
        <time>2019-09-10T15:11:09.800Z</time>
      </trkpt>
      <trkpt lat="10.1577824086463" lon="-75.6831715185065">
        <ele>55.321895</ele>
        <time>2019-09-10T15:11:09.900Z</time>
      </trkpt>
      <trkpt lat="10.1577814055248" lon="-75.6831740695194">
        <ele>55.321895</ele>
        <time>2019-09-10T15:11:10.000Z</time>
      </trkpt>
      <trkpt lat="10.1577804190264" lon="-75.6831766138481">
        <ele>55.321895</ele>
        <time>2019-09-10T15:11:10.100Z</time>
      </trkpt>
      <trkpt lat="10.1577794454514" lon="-75.6831791693172">
        <ele>55.321895</ele>
        <time>2019-09-10T15:11:10.200Z</time>
      </trkpt>
      <trkpt lat="10.1577784644768" lon="-75.6831817367622">
        <ele>55.321895</ele>
        <time>2019-09-10T15:11:10.300Z</time>
      </trkpt>
      <trkpt lat="10.157777478239" lon="-75.6831843203608">
        <ele>55.321895</ele>
        <time>2019-09-10T15:11:10.400Z</time>
      </trkpt>
      <trkpt lat="10.1577765002346" lon="-75.6831868717915">
        <ele>55.321895</ele>
        <time>2019-09-10T15:11:10.500Z</time>
      </trkpt>
      <trkpt lat="10.1577755312974" lon="-75.683189403448">
        <ele>55.321895</ele>
        <time>2019-09-10T15:11:10.600Z</time>
      </trkpt>
      <trkpt lat="10.1577745512086" lon="-75.6831919493085">
        <ele>55.321895</ele>
        <time>2019-09-10T15:11:10.700Z</time>
      </trkpt>
      <trkpt lat="10.1577735612189" lon="-75.6831945277546">
        <ele>55.321895</ele>
        <time>2019-09-10T15:11:10.800Z</time>
      </trkpt>
      <trkpt lat="10.1577725830581" lon="-75.6831970982633">
        <ele>55.321895</ele>
        <time>2019-09-10T15:11:10.900Z</time>
      </trkpt>
      <trkpt lat="10.1577716163617" lon="-75.6831996680756">
        <ele>55.321895</ele>
        <time>2019-09-10T15:11:11.000Z</time>
      </trkpt>
      <trkpt lat="10.1577706630575" lon="-75.6832022291149">
        <ele>55.321895</ele>
        <time>2019-09-10T15:11:11.100Z</time>
      </trkpt>
      <trkpt lat="10.1577697102745" lon="-75.6832047944711">
        <ele>55.321895</ele>
        <time>2019-09-10T15:11:11.200Z</time>
      </trkpt>
      <trkpt lat="10.1577687524368" lon="-75.6832073467373">
        <ele>55.321895</ele>
        <time>2019-09-10T15:11:11.300Z</time>
      </trkpt>
      <trkpt lat="10.1577677867304" lon="-75.6832099048522">
        <ele>55.321895</ele>
        <time>2019-09-10T15:11:11.400Z</time>
      </trkpt>
      <trkpt lat="10.1577668245675" lon="-75.683212424672">
        <ele>55.321895</ele>
        <time>2019-09-10T15:11:11.500Z</time>
      </trkpt>
      <trkpt lat="10.1577658730351" lon="-75.6832149387824">
        <ele>55.321895</ele>
        <time>2019-09-10T15:11:11.600Z</time>
      </trkpt>
      <trkpt lat="10.157764891852" lon="-75.6832174684893">
        <ele>55.321895</ele>
        <time>2019-09-10T15:11:11.700Z</time>
      </trkpt>
      <trkpt lat="10.1577638997779" lon="-75.6832200420615">
        <ele>55.321895</ele>
        <time>2019-09-10T15:11:11.800Z</time>
      </trkpt>
      <trkpt lat="10.1577629157808" lon="-75.6832225795667">
        <ele>55.321895</ele>
        <time>2019-09-10T15:11:11.900Z</time>
      </trkpt>
      <trkpt lat="10.1577619458014" lon="-75.68322510621">
        <ele>55.421895</ele>
        <time>2019-09-10T15:11:12.000Z</time>
      </trkpt>
      <trkpt lat="10.1577609784275" lon="-75.68322761851">
        <ele>55.421895</ele>
        <time>2019-09-10T15:11:12.100Z</time>
      </trkpt>
      <trkpt lat="10.157760011731" lon="-75.6832301475207">
        <ele>55.421895</ele>
        <time>2019-09-10T15:11:12.200Z</time>
      </trkpt>
      <trkpt lat="10.1577590616577" lon="-75.6832326472877">
        <ele>55.421895</ele>
        <time>2019-09-10T15:11:12.300Z</time>
      </trkpt>
      <trkpt lat="10.1577571691192" lon="-75.6832376624184">
        <ele>55.321895</ele>
        <time>2019-09-10T15:11:12.500Z</time>
      </trkpt>
      <trkpt lat="10.1577543257778" lon="-75.6832452871884">
        <ele>55.421895</ele>
        <time>2019-09-10T15:11:12.800Z</time>
      </trkpt>
      <trkpt lat="10.1577533638755" lon="-75.6832478214908">
        <ele>55.421895</ele>
        <time>2019-09-10T15:11:12.900Z</time>
      </trkpt>
      <trkpt lat="10.1577523865485" lon="-75.6832503557931">
        <ele>55.421895</ele>
        <time>2019-09-10T15:11:13.000Z</time>
      </trkpt>
      <trkpt lat="10.1577514162565" lon="-75.6832528888421">
        <ele>55.421895</ele>
        <time>2019-09-10T15:11:13.100Z</time>
      </trkpt>
      <trkpt lat="10.1577504494558" lon="-75.6832554370699">
        <ele>55.421895</ele>
        <time>2019-09-10T15:11:13.200Z</time>
      </trkpt>
      <trkpt lat="10.1577494749949" lon="-75.6832579815379">
        <ele>55.421895</ele>
        <time>2019-09-10T15:11:13.300Z</time>
      </trkpt>
      <trkpt lat="10.1577484966257" lon="-75.6832605331078">
        <ele>55.421895</ele>
        <time>2019-09-10T15:11:13.400Z</time>
      </trkpt>
      <trkpt lat="10.1577475291476" lon="-75.6832630818927">
        <ele>55.421895</ele>
        <time>2019-09-10T15:11:13.500Z</time>
      </trkpt>
      <trkpt lat="10.1577465592203" lon="-75.68326563583">
        <ele>55.421895</ele>
        <time>2019-09-10T15:11:13.600Z</time>
      </trkpt>
      <trkpt lat="10.1577456090949" lon="-75.6832681513329">
        <ele>55.421895</ele>
        <time>2019-09-10T15:11:13.700Z</time>
      </trkpt>
      <trkpt lat="10.1577446655354" lon="-75.683270659316">
        <ele>55.421895</ele>
        <time>2019-09-10T15:11:13.800Z</time>
      </trkpt>
      <trkpt lat="10.1577437452691" lon="-75.6832731571335">
        <ele>55.421895</ele>
        <time>2019-09-10T15:11:13.900Z</time>
      </trkpt>
      <trkpt lat="10.1577428166652" lon="-75.6832756745859">
        <ele>55.421895</ele>
        <time>2019-09-10T15:11:14.000Z</time>
      </trkpt>
      <trkpt lat="10.1577418818081" lon="-75.6832781698968">
        <ele>55.421895</ele>
        <time>2019-09-10T15:11:14.100Z</time>
      </trkpt>
      <trkpt lat="10.157740924283" lon="-75.6832806691069">
        <ele>55.421895</ele>
        <time>2019-09-10T15:11:14.200Z</time>
      </trkpt>
      <trkpt lat="10.1577399479982" lon="-75.6832832319565">
        <ele>55.421895</ele>
        <time>2019-09-10T15:11:14.300Z</time>
      </trkpt>
      <trkpt lat="10.1577389654603" lon="-75.6832858325442">
        <ele>55.421895</ele>
        <time>2019-09-10T15:11:14.400Z</time>
      </trkpt>
      <trkpt lat="10.1577379789098" lon="-75.6832883953938">
        <ele>55.421895</ele>
        <time>2019-09-10T15:11:14.500Z</time>
      </trkpt>
      <trkpt lat="10.157736995955" lon="-75.6832909207838">
        <ele>55.421895</ele>
        <time>2019-09-10T15:11:14.600Z</time>
      </trkpt>
      <trkpt lat="10.1577360454127" lon="-75.683293445756">
        <ele>55.421895</ele>
        <time>2019-09-10T15:11:14.700Z</time>
      </trkpt>
      <trkpt lat="10.1577351101908" lon="-75.6832959852108">
        <ele>55.421895</ele>
        <time>2019-09-10T15:11:14.800Z</time>
      </trkpt>
      <trkpt lat="10.1577341553233" lon="-75.683298537477">
        <ele>55.421895</ele>
        <time>2019-09-10T15:11:14.900Z</time>
      </trkpt>
      <trkpt lat="10.1577331763288" lon="-75.6833011024155">
        <ele>55.421895</ele>
        <time>2019-09-10T15:11:15.000Z</time>
      </trkpt>
      <trkpt lat="10.1577322157293" lon="-75.6833036211212">
        <ele>55.421895</ele>
        <time>2019-09-10T15:11:15.100Z</time>
      </trkpt>
      <trkpt lat="10.1577312639363" lon="-75.6833061229771">
        <ele>55.421895</ele>
        <time>2019-09-10T15:11:15.200Z</time>
      </trkpt>
      <trkpt lat="10.1577303222528" lon="-75.6833086194021">
        <ele>55.421895</ele>
        <time>2019-09-10T15:11:15.300Z</time>
      </trkpt>
      <trkpt lat="10.1577293727005" lon="-75.6833111429818">
        <ele>55.421895</ele>
        <time>2019-09-10T15:11:15.400Z</time>
      </trkpt>
      <trkpt lat="10.1577284096518" lon="-75.6833136448377">
        <ele>55.421895</ele>
        <time>2019-09-10T15:11:15.500Z</time>
      </trkpt>
      <trkpt lat="10.1577274266969" lon="-75.6833161597835">
        <ele>55.421895</ele>
        <time>2019-09-10T15:11:15.600Z</time>
      </trkpt>
      <trkpt lat="10.1577264544247" lon="-75.6833186539804">
        <ele>55.421895</ele>
        <time>2019-09-10T15:11:15.700Z</time>
      </trkpt>
      <trkpt lat="10.1577254896042" lon="-75.6833211654449">
        <ele>55.421895</ele>
        <time>2019-09-10T15:11:15.800Z</time>
      </trkpt>
      <trkpt lat="10.1577245245752" lon="-75.6833236816441">
        <ele>55.421895</ele>
        <time>2019-09-10T15:11:15.900Z</time>
      </trkpt>
      <trkpt lat="10.1577235510523" lon="-75.6833262286186">
        <ele>55.421895</ele>
        <time>2019-09-10T15:11:16.000Z</time>
      </trkpt>
      <trkpt lat="10.1577225863361" lon="-75.6833287813026">
        <ele>55.421895</ele>
        <time>2019-09-10T15:11:16.100Z</time>
      </trkpt>
      <trkpt lat="10.1577216229225" lon="-75.6833313493046">
        <ele>55.421895</ele>
        <time>2019-09-10T15:11:16.200Z</time>
      </trkpt>
      <trkpt lat="10.1577206706085" lon="-75.6833339181422">
        <ele>55.421895</ele>
        <time>2019-09-10T15:11:16.300Z</time>
      </trkpt>
      <trkpt lat="10.1577197113117" lon="-75.683336494221">
        <ele>55.421895</ele>
        <time>2019-09-10T15:11:16.400Z</time>
      </trkpt>
      <trkpt lat="10.1577187200192" lon="-75.6833390598557">
        <ele>55.421895</ele>
        <time>2019-09-10T15:11:16.500Z</time>
      </trkpt>
      <trkpt lat="10.157717706163" lon="-75.6833416292503">
        <ele>55.421895</ele>
        <time>2019-09-10T15:11:16.600Z</time>
      </trkpt>
      <trkpt lat="10.1577166835523" lon="-75.6833441840231">
        <ele>55.421895</ele>
        <time>2019-09-10T15:11:16.700Z</time>
      </trkpt>
      <trkpt lat="10.1577156686538" lon="-75.683346748126">
        <ele>55.421895</ele>
        <time>2019-09-10T15:11:16.800Z</time>
      </trkpt>
      <trkpt lat="10.1577135677266" lon="-75.6833519352367">
        <ele>55.421895</ele>
        <time>2019-09-10T15:11:17.000Z</time>
      </trkpt>
      <trkpt lat="10.1577125198424" lon="-75.6833544512966">
        <ele>55.421895</ele>
        <time>2019-09-10T15:11:17.100Z</time>
      </trkpt>
      <trkpt lat="10.1577114911869" lon="-75.683356926694">
        <ele>55.421895</ele>
        <time>2019-09-10T15:11:17.200Z</time>
      </trkpt>
      <trkpt lat="10.1577104774349" lon="-75.6833593793929">
        <ele>55.421895</ele>
        <time>2019-09-10T15:11:17.300Z</time>
      </trkpt>
      <trkpt lat="10.157709483068" lon="-75.6833618763749">
        <ele>55.421895</ele>
        <time>2019-09-10T15:11:17.400Z</time>
      </trkpt>
      <trkpt lat="10.157708491567" lon="-75.6833644037145">
        <ele>55.421895</ele>
        <time>2019-09-10T15:11:17.500Z</time>
      </trkpt>
      <trkpt lat="10.1577075291957" lon="-75.6833668870494">
        <ele>55.421895</ele>
        <time>2019-09-10T15:11:17.600Z</time>
      </trkpt>
      <trkpt lat="10.1577066708885" lon="-75.6833691215357">
        <ele>55.421895</ele>
        <time>2019-09-10T15:11:17.700Z</time>
      </trkpt>
      <trkpt lat="10.157705232282" lon="-75.6833729319711">
        <ele>55.321895</ele>
        <time>2019-09-10T15:11:17.900Z</time>
      </trkpt>
      <trkpt lat="10.1577046200912" lon="-75.6833745632046">
        <ele>55.221895</ele>
        <time>2019-09-10T15:11:18.000Z</time>
      </trkpt>
      <trkpt lat="10.1577040751748" lon="-75.6833760060259">
        <ele>55.121895</ele>
        <time>2019-09-10T15:11:18.100Z</time>
      </trkpt>
      <trkpt lat="10.157703564599" lon="-75.6833773146055">
        <ele>55.021895</ele>
        <time>2019-09-10T15:11:18.200Z</time>
      </trkpt>
      <trkpt lat="10.1577031606928" lon="-75.6833783851982">
        <ele>54.821895</ele>
        <time>2019-09-10T15:11:18.300Z</time>
      </trkpt>
      <trkpt lat="10.1577028403713" lon="-75.6833792641759">
        <ele>54.721895</ele>
        <time>2019-09-10T15:11:18.400Z</time>
      </trkpt>
      <trkpt lat="10.1577026547026" lon="-75.6833799341319">
        <ele>54.521895</ele>
        <time>2019-09-10T15:11:18.500Z</time>
      </trkpt>
      <trkpt lat="10.1577025591325" lon="-75.6833804332219">
        <ele>54.321895</ele>
        <time>2019-09-10T15:11:18.600Z</time>
      </trkpt>
      <trkpt lat="10.1577026125455" lon="-75.68338070463">
        <ele>54.121895</ele>
        <time>2019-09-10T15:11:18.700Z</time>
      </trkpt>
      <trkpt lat="10.1577027211953" lon="-75.6833808220219">
        <ele>53.821895</ele>
        <time>2019-09-10T15:11:18.800Z</time>
      </trkpt>
      <trkpt lat="10.1577029281249" lon="-75.6833807677125">
        <ele>53.621895</ele>
        <time>2019-09-10T15:11:18.900Z</time>
      </trkpt>
      <trkpt lat="10.1577031948249" lon="-75.6833805341818">
        <ele>53.321895</ele>
        <time>2019-09-10T15:11:19.000Z</time>
      </trkpt>
      <trkpt lat="10.1577035744999" lon="-75.683380070184">
        <ele>53.121895</ele>
        <time>2019-09-10T15:11:19.100Z</time>
      </trkpt>
      <trkpt lat="10.1577039993023" lon="-75.6833794506384">
        <ele>52.921895</ele>
        <time>2019-09-10T15:11:19.200Z</time>
      </trkpt>
      <trkpt lat="10.1577045088881" lon="-75.6833786868246">
        <ele>52.721895</ele>
        <time>2019-09-10T15:11:19.300Z</time>
      </trkpt>
      <trkpt lat="10.1577050463006" lon="-75.6833778042262">
        <ele>52.621895</ele>
        <time>2019-09-10T15:11:19.400Z</time>
      </trkpt>
      <trkpt lat="10.1577056780848" lon="-75.683376825124">
        <ele>52.521895</ele>
        <time>2019-09-10T15:11:19.500Z</time>
      </trkpt>
      <trkpt lat="10.1577064112754" lon="-75.6833757603801">
        <ele>52.421895</ele>
        <time>2019-09-10T15:11:19.600Z</time>
      </trkpt>
      <trkpt lat="10.1577072672377" lon="-75.6833746258693">
        <ele>52.421895</ele>
        <time>2019-09-10T15:11:19.700Z</time>
      </trkpt>
      <trkpt lat="10.1577082320061" lon="-75.6833734101729">
        <ele>52.321895</ele>
        <time>2019-09-10T15:11:19.800Z</time>
      </trkpt>
      <trkpt lat="10.1577093712916" lon="-75.6833721185825">
        <ele>52.321895</ele>
        <time>2019-09-10T15:11:19.900Z</time>
      </trkpt>
      <trkpt lat="10.157710639185" lon="-75.6833707154488">
        <ele>52.321895</ele>
        <time>2019-09-10T15:11:20.000Z</time>
      </trkpt>
      <trkpt lat="10.1577120683075" lon="-75.6833692201282">
        <ele>52.321895</ele>
        <time>2019-09-10T15:11:20.100Z</time>
      </trkpt>
      <trkpt lat="10.1577136144695" lon="-75.6833676030988">
        <ele>52.321895</ele>
        <time>2019-09-10T15:11:20.200Z</time>
      </trkpt>
      <trkpt lat="10.1577153051851" lon="-75.6833658787038">
        <ele>52.321895</ele>
        <time>2019-09-10T15:11:20.300Z</time>
      </trkpt>
      <trkpt lat="10.157717107573" lon="-75.6833640254978">
        <ele>52.321895</ele>
        <time>2019-09-10T15:11:20.400Z</time>
      </trkpt>
      <trkpt lat="10.1577190790064" lon="-75.6833620611663">
        <ele>52.321895</ele>
        <time>2019-09-10T15:11:20.500Z</time>
      </trkpt>
      <trkpt lat="10.1577211689384" lon="-75.6833599866841">
        <ele>52.321895</ele>
        <time>2019-09-10T15:11:20.600Z</time>
      </trkpt>
      <trkpt lat="10.1577233647583" lon="-75.6833578113813">
        <ele>52.321895</ele>
        <time>2019-09-10T15:11:20.700Z</time>
      </trkpt>
      <trkpt lat="10.1577256083633" lon="-75.6833555674257">
        <ele>52.321895</ele>
        <time>2019-09-10T15:11:20.800Z</time>
      </trkpt>
      <trkpt lat="10.1577278876117" lon="-75.6833533329394">
        <ele>52.321895</ele>
        <time>2019-09-10T15:11:20.900Z</time>
      </trkpt>
      <trkpt lat="10.1577301839001" lon="-75.6833511098721">
        <ele>52.321895</ele>
        <time>2019-09-10T15:11:21.000Z</time>
      </trkpt>
      <trkpt lat="10.1577324683596" lon="-75.683348891261">
        <ele>52.321895</ele>
        <time>2019-09-10T15:11:21.100Z</time>
      </trkpt>
      <trkpt lat="10.1577347567272" lon="-75.6833466534326">
        <ele>52.321895</ele>
        <time>2019-09-10T15:11:21.200Z</time>
      </trkpt>
      <trkpt lat="10.1577370251367" lon="-75.6833444292512">
        <ele>52.421895</ele>
        <time>2019-09-10T15:11:21.300Z</time>
      </trkpt>
      <trkpt lat="10.1577393137128" lon="-75.6833422054876">
        <ele>52.421895</ele>
        <time>2019-09-10T15:11:21.400Z</time>
      </trkpt>
      <trkpt lat="10.1577415812364" lon="-75.68334002921">
        <ele>52.421895</ele>
        <time>2019-09-10T15:11:21.500Z</time>
      </trkpt>
      <trkpt lat="10.1577438712716" lon="-75.6833378749347">
        <ele>52.421895</ele>
        <time>2019-09-10T15:11:21.600Z</time>
      </trkpt>
      <trkpt lat="10.1577461152414" lon="-75.6833357389017">
        <ele>52.421895</ele>
        <time>2019-09-10T15:11:21.700Z</time>
      </trkpt>
      <trkpt lat="10.157748366246" lon="-75.6833336069072">
        <ele>52.421895</ele>
        <time>2019-09-10T15:11:21.800Z</time>
      </trkpt>
      <trkpt lat="10.1577505908829" lon="-75.683331513347">
        <ele>52.421895</ele>
        <time>2019-09-10T15:11:21.900Z</time>
      </trkpt>
      <trkpt lat="10.1577528396989" lon="-75.6833294507015">
        <ele>52.421895</ele>
        <time>2019-09-10T15:11:22.000Z</time>
      </trkpt>
      <trkpt lat="10.1577550685567" lon="-75.6833274079695">
        <ele>52.421895</ele>
        <time>2019-09-10T15:11:22.100Z</time>
      </trkpt>
      <trkpt lat="10.1577573139856" lon="-75.6833253752637">
        <ele>52.421895</ele>
        <time>2019-09-10T15:11:22.200Z</time>
      </trkpt>
      <trkpt lat="10.1577595024059" lon="-75.683323382385">
        <ele>52.421895</ele>
        <time>2019-09-10T15:11:22.300Z</time>
      </trkpt>
      <trkpt lat="10.1577616757142" lon="-75.6833214133189">
        <ele>52.421895</ele>
        <time>2019-09-10T15:11:22.400Z</time>
      </trkpt>
      <trkpt lat="10.1577638378188" lon="-75.6833194654195">
        <ele>52.421895</ele>
        <time>2019-09-10T15:11:22.500Z</time>
      </trkpt>
      <trkpt lat="10.1577660310333" lon="-75.6833175172416">
        <ele>52.421895</ele>
        <time>2019-09-10T15:11:22.600Z</time>
      </trkpt>
      <trkpt lat="10.1577704106878" lon="-75.6833135888571">
        <ele>52.421895</ele>
        <time>2019-09-10T15:11:22.800Z</time>
      </trkpt>
      <trkpt lat="10.1577726062472" lon="-75.6833116380334">
        <ele>52.421895</ele>
        <time>2019-09-10T15:11:22.900Z</time>
      </trkpt>
      <trkpt lat="10.1577770207113" lon="-75.6833077771876">
        <ele>52.421895</ele>
        <time>2019-09-10T15:11:23.100Z</time>
      </trkpt>
      <trkpt lat="10.1577792317996" lon="-75.6833058457203">
        <ele>52.421895</ele>
        <time>2019-09-10T15:11:23.200Z</time>
      </trkpt>
      <trkpt lat="10.1577814166243" lon="-75.6833039106324">
        <ele>52.421895</ele>
        <time>2019-09-10T15:11:23.300Z</time>
      </trkpt>
      <trkpt lat="10.1577835710166" lon="-75.6833019951795">
        <ele>52.421895</ele>
        <time>2019-09-10T15:11:23.400Z</time>
      </trkpt>
      <trkpt lat="10.1577878058569" lon="-75.6832981052294">
        <ele>52.421895</ele>
        <time>2019-09-10T15:11:23.600Z</time>
      </trkpt>
      <trkpt lat="10.1577898938087" lon="-75.6832961432653">
        <ele>52.421895</ele>
        <time>2019-09-10T15:11:23.700Z</time>
      </trkpt>
      <trkpt lat="10.1577940207808" lon="-75.6832923187651">
        <ele>52.421895</ele>
        <time>2019-09-10T15:11:23.900Z</time>
      </trkpt>
      <trkpt lat="10.1577960456271" lon="-75.6832904638881">
        <ele>52.421895</ele>
        <time>2019-09-10T15:11:24.000Z</time>
      </trkpt>
      <trkpt lat="10.1577998938618" lon="-75.6832868454853">
        <ele>52.421895</ele>
        <time>2019-09-10T15:11:24.200Z</time>
      </trkpt>
      <trkpt lat="10.1578015700387" lon="-75.6832850775034">
        <ele>52.421895</ele>
        <time>2019-09-10T15:11:24.300Z</time>
      </trkpt>
      <trkpt lat="10.1578030620061" lon="-75.6832833315239">
        <ele>52.421895</ele>
        <time>2019-09-10T15:11:24.400Z</time>
      </trkpt>
      <trkpt lat="10.1578042558509" lon="-75.683281570644">
        <ele>52.421895</ele>
        <time>2019-09-10T15:11:24.500Z</time>
      </trkpt>
      <trkpt lat="10.1578052108226" lon="-75.6832797994592">
        <ele>52.421895</ele>
        <time>2019-09-10T15:11:24.600Z</time>
      </trkpt>
      <trkpt lat="10.1578058339565" lon="-75.6832779294034">
        <ele>52.421895</ele>
        <time>2019-09-10T15:11:24.700Z</time>
      </trkpt>
      <trkpt lat="10.1578062123808" lon="-75.6832760383201">
        <ele>52.421895</ele>
        <time>2019-09-10T15:11:24.800Z</time>
      </trkpt>
      <trkpt lat="10.1578059773117" lon="-75.6832722328978">
        <ele>52.421895</ele>
        <time>2019-09-10T15:11:25.000Z</time>
      </trkpt>
      <trkpt lat="10.1578053741881" lon="-75.6832703131279">
        <ele>52.421895</ele>
        <time>2019-09-10T15:11:25.100Z</time>
      </trkpt>
      <trkpt lat="10.1578044994662" lon="-75.6832684103472">
        <ele>52.421895</ele>
        <time>2019-09-10T15:11:25.200Z</time>
      </trkpt>
      <trkpt lat="10.1578017953633" lon="-75.6832644481238">
        <ele>52.421895</ele>
        <time>2019-09-10T15:11:25.400Z</time>
      </trkpt>
      <trkpt lat="10.1577982690134" lon="-75.6832605723777">
        <ele>52.521895</ele>
        <time>2019-09-10T15:11:25.600Z</time>
      </trkpt>
      <trkpt lat="10.1577963688147" lon="-75.6832586243391">
        <ele>52.521895</ele>
        <time>2019-09-10T15:11:25.700Z</time>
      </trkpt>
      <trkpt lat="10.1577924474173" lon="-75.6832547735197">
        <ele>52.521895</ele>
        <time>2019-09-10T15:11:25.900Z</time>
      </trkpt>
      <trkpt lat="10.1577904469064" lon="-75.6832528750559">
        <ele>52.521895</ele>
        <time>2019-09-10T15:11:26.000Z</time>
      </trkpt>
      <trkpt lat="10.1577865114393" lon="-75.6832490551511">
        <ele>52.521895</ele>
        <time>2019-09-10T15:11:26.200Z</time>
      </trkpt>
      <trkpt lat="10.1577826201616" lon="-75.6832453100263">
        <ele>52.521895</ele>
        <time>2019-09-10T15:11:26.400Z</time>
      </trkpt>
      <trkpt lat="10.1577787407651" lon="-75.6832416653043">
        <ele>52.521895</ele>
        <time>2019-09-10T15:11:26.600Z</time>
      </trkpt>
      <trkpt lat="10.1577767952305" lon="-75.6832398527608">
        <ele>52.521895</ele>
        <time>2019-09-10T15:11:26.700Z</time>
      </trkpt>
      <trkpt lat="10.1577748170228" lon="-75.6832380530288">
        <ele>52.521895</ele>
        <time>2019-09-10T15:11:26.800Z</time>
      </trkpt>
      <trkpt lat="10.1577728673193" lon="-75.6832362551071">
        <ele>52.521895</ele>
        <time>2019-09-10T15:11:26.900Z</time>
      </trkpt>
      <trkpt lat="10.1577709108416" lon="-75.6832344584387">
        <ele>52.521895</ele>
        <time>2019-09-10T15:11:27.000Z</time>
      </trkpt>
      <trkpt lat="10.1577689708306" lon="-75.6832326872539">
        <ele>52.521895</ele>
        <time>2019-09-10T15:11:27.100Z</time>
      </trkpt>
      <trkpt lat="10.1577650345298" lon="-75.6832291427956">
        <ele>52.521895</ele>
        <time>2019-09-10T15:11:27.300Z</time>
      </trkpt>
      <trkpt lat="10.1577630290163" lon="-75.6832273221753">
        <ele>52.521895</ele>
        <time>2019-09-10T15:11:27.400Z</time>
      </trkpt>
      <trkpt lat="10.1577610858266" lon="-75.6832255529401">
        <ele>52.521895</ele>
        <time>2019-09-10T15:11:27.500Z</time>
      </trkpt>
      <trkpt lat="10.1577591940177" lon="-75.6832238012511">
        <ele>52.521895</ele>
        <time>2019-09-10T15:11:27.600Z</time>
      </trkpt>
      <trkpt lat="10.1577572826673" lon="-75.6832220261672">
        <ele>52.521895</ele>
        <time>2019-09-10T15:11:27.700Z</time>
      </trkpt>
      <trkpt lat="10.1577533824267" lon="-75.683218290651">
        <ele>52.521895</ele>
        <time>2019-09-10T15:11:27.900Z</time>
      </trkpt>
      <trkpt lat="10.1577514414257" lon="-75.6832164054164">
        <ele>52.521895</ele>
        <time>2019-09-10T15:11:28.000Z</time>
      </trkpt>
      <trkpt lat="10.1577495061047" lon="-75.6832145286763">
        <ele>52.521895</ele>
        <time>2019-09-10T15:11:28.100Z</time>
      </trkpt>
      <trkpt lat="10.1577456667809" lon="-75.6832107706008">
        <ele>52.521895</ele>
        <time>2019-09-10T15:11:28.300Z</time>
      </trkpt>
      <trkpt lat="10.1577437590262" lon="-75.6832088916326">
        <ele>52.521895</ele>
        <time>2019-09-10T15:11:28.400Z</time>
      </trkpt>
      <trkpt lat="10.1577399076649" lon="-75.6832050988826">
        <ele>52.521895</ele>
        <time>2019-09-10T15:11:28.600Z</time>
      </trkpt>
      <trkpt lat="10.1577379921458" lon="-75.6832031908101">
        <ele>52.521895</ele>
        <time>2019-09-10T15:11:28.700Z</time>
      </trkpt>
      <trkpt lat="10.1577361073717" lon="-75.6832012444426">
        <ele>52.521895</ele>
        <time>2019-09-10T15:11:28.800Z</time>
      </trkpt>
      <trkpt lat="10.1577342321859" lon="-75.6831993032274">
        <ele>52.521895</ele>
        <time>2019-09-10T15:11:28.900Z</time>
      </trkpt>
      <trkpt lat="10.1577323718514" lon="-75.6831973266415">
        <ele>52.521895</ele>
        <time>2019-09-10T15:11:29.000Z</time>
      </trkpt>
      <trkpt lat="10.1577305161027" lon="-75.6831953451817">
        <ele>52.521895</ele>
        <time>2019-09-10T15:11:29.100Z</time>
      </trkpt>
      <trkpt lat="10.1577286724436" lon="-75.6831933243126">
        <ele>52.521895</ele>
        <time>2019-09-10T15:11:29.200Z</time>
      </trkpt>
      <trkpt lat="10.1577268677107" lon="-75.6831913340797">
        <ele>52.521895</ele>
        <time>2019-09-10T15:11:29.300Z</time>
      </trkpt>
      <trkpt lat="10.1577250886682" lon="-75.6831893361878">
        <ele>52.521895</ele>
        <time>2019-09-10T15:11:29.400Z</time>
      </trkpt>
      <trkpt lat="10.1577215708123" lon="-75.6831853339982">
        <ele>52.421895</ele>
        <time>2019-09-10T15:11:29.600Z</time>
      </trkpt>
      <trkpt lat="10.1577197969808" lon="-75.6831833025458">
        <ele>52.421895</ele>
        <time>2019-09-10T15:11:29.700Z</time>
      </trkpt>
      <trkpt lat="10.1577180027222" lon="-75.6831812314057">
        <ele>52.421895</ele>
        <time>2019-09-10T15:11:29.800Z</time>
      </trkpt>
      <trkpt lat="10.1577161691203" lon="-75.6831791336679">
        <ele>52.421895</ele>
        <time>2019-09-10T15:11:29.900Z</time>
      </trkpt>
      <trkpt lat="10.1577125127554" lon="-75.6831749142404">
        <ele>52.421895</ele>
        <time>2019-09-10T15:11:30.100Z</time>
      </trkpt>
      <trkpt lat="10.1577107240726" lon="-75.683172827086">
        <ele>52.421895</ele>
        <time>2019-09-10T15:11:30.200Z</time>
      </trkpt>
      <trkpt lat="10.157708916161" lon="-75.6831707431345">
        <ele>52.421895</ele>
        <time>2019-09-10T15:11:30.300Z</time>
      </trkpt>
      <trkpt lat="10.1577071040285" lon="-75.6831686339778">
        <ele>52.421895</ele>
        <time>2019-09-10T15:11:30.400Z</time>
      </trkpt>
      <trkpt lat="10.1577035395861" lon="-75.6831645166242">
        <ele>52.421895</ele>
        <time>2019-09-10T15:11:30.600Z</time>
      </trkpt>
      <trkpt lat="10.1577017495483" lon="-75.6831624723604">
        <ele>52.421895</ele>
        <time>2019-09-10T15:11:30.700Z</time>
      </trkpt>
      <trkpt lat="10.1576999445028" lon="-75.6831603891051">
        <ele>52.421895</ele>
        <time>2019-09-10T15:11:30.800Z</time>
      </trkpt>
      <trkpt lat="10.1576981406559" lon="-75.6831583165725">
        <ele>52.421895</ele>
        <time>2019-09-10T15:11:30.900Z</time>
      </trkpt>
      <trkpt lat="10.1576963500449" lon="-75.6831562224553">
        <ele>52.421895</ele>
        <time>2019-09-10T15:11:31.000Z</time>
      </trkpt>
      <trkpt lat="10.157694563238" lon="-75.683154144074">
        <ele>52.521895</ele>
        <time>2019-09-10T15:11:31.100Z</time>
      </trkpt>
      <trkpt lat="10.1576927849772" lon="-75.6831520496783">
        <ele>52.521895</ele>
        <time>2019-09-10T15:11:31.200Z</time>
      </trkpt>
      <trkpt lat="10.1576910058825" lon="-75.6831499640557">
        <ele>52.521895</ele>
        <time>2019-09-10T15:11:31.300Z</time>
      </trkpt>
      <trkpt lat="10.1576892340834" lon="-75.6831478640898">
        <ele>52.521895</ele>
        <time>2019-09-10T15:11:31.400Z</time>
      </trkpt>
      <trkpt lat="10.1576857583846" lon="-75.6831436740451">
        <ele>52.521895</ele>
        <time>2019-09-10T15:11:31.600Z</time>
      </trkpt>
      <trkpt lat="10.1576840270751" lon="-75.6831416044369">
        <ele>52.521895</ele>
        <time>2019-09-10T15:11:31.700Z</time>
      </trkpt>
      <trkpt lat="10.1576805482497" lon="-75.6831374742719">
        <ele>52.521895</ele>
        <time>2019-09-10T15:11:31.900Z</time>
      </trkpt>
      <trkpt lat="10.1576788120939" lon="-75.6831353828005">
        <ele>52.521895</ele>
        <time>2019-09-10T15:11:32.000Z</time>
      </trkpt>
      <trkpt lat="10.1576753347797" lon="-75.683131174235">
        <ele>52.521895</ele>
        <time>2019-09-10T15:11:32.200Z</time>
      </trkpt>
      <trkpt lat="10.157673591589" lon="-75.683129086245">
        <ele>52.521895</ele>
        <time>2019-09-10T15:11:32.300Z</time>
      </trkpt>
      <trkpt lat="10.1576718528277" lon="-75.6831269961663">
        <ele>52.521895</ele>
        <time>2019-09-10T15:11:32.400Z</time>
      </trkpt>
      <trkpt lat="10.1576700956194" lon="-75.6831248988462">
        <ele>52.521895</ele>
        <time>2019-09-10T15:11:32.500Z</time>
      </trkpt>
      <trkpt lat="10.1576683387238" lon="-75.6831227711686">
        <ele>52.521895</ele>
        <time>2019-09-10T15:11:32.600Z</time>
      </trkpt>
      <trkpt lat="10.1576666208586" lon="-75.683120677887">
        <ele>52.521895</ele>
        <time>2019-09-10T15:11:32.700Z</time>
      </trkpt>
      <trkpt lat="10.1576649313936" lon="-75.6831185935177">
        <ele>52.521895</ele>
        <time>2019-09-10T15:11:32.800Z</time>
      </trkpt>
      <trkpt lat="10.1576632623036" lon="-75.6831165226561">
        <ele>52.521895</ele>
        <time>2019-09-10T15:11:32.900Z</time>
      </trkpt>
      <trkpt lat="10.1576615843028" lon="-75.6831144290959">
        <ele>52.521895</ele>
        <time>2019-09-10T15:11:33.000Z</time>
      </trkpt>
      <trkpt lat="10.1576599210492" lon="-75.6831123511324">
        <ele>52.521895</ele>
        <time>2019-09-10T15:11:33.100Z</time>
      </trkpt>
      <trkpt lat="10.1576582439864" lon="-75.6831102595218">
        <ele>52.521895</ele>
        <time>2019-09-10T15:11:33.200Z</time>
      </trkpt>
      <trkpt lat="10.1576565769808" lon="-75.683108202725">
        <ele>52.521895</ele>
        <time>2019-09-10T15:11:33.300Z</time>
      </trkpt>
      <trkpt lat="10.1576548964787" lon="-75.683106142029">
        <ele>52.521895</ele>
        <time>2019-09-10T15:11:33.400Z</time>
      </trkpt>
      <trkpt lat="10.1576514834686" lon="-75.6831020111677">
        <ele>52.521895</ele>
        <time>2019-09-10T15:11:33.600Z</time>
      </trkpt>
      <trkpt lat="10.1576497540871" lon="-75.6830999297228">
        <ele>52.521895</ele>
        <time>2019-09-10T15:11:33.700Z</time>
      </trkpt>
      <trkpt lat="10.1576480166286" lon="-75.6830978321242">
        <ele>52.521895</ele>
        <time>2019-09-10T15:11:33.800Z</time>
      </trkpt>
      <trkpt lat="10.1576463035055" lon="-75.6830957538822">
        <ele>52.421895</ele>
        <time>2019-09-10T15:11:33.900Z</time>
      </trkpt>
      <trkpt lat="10.1576446097674" lon="-75.6830936743868">
        <ele>52.421895</ele>
        <time>2019-09-10T15:11:34.000Z</time>
      </trkpt>
      <trkpt lat="10.1576429322877" lon="-75.6830916011578">
        <ele>52.421895</ele>
        <time>2019-09-10T15:11:34.100Z</time>
      </trkpt>
      <trkpt lat="10.1576412479294" lon="-75.6830895073192">
        <ele>52.421895</ele>
        <time>2019-09-10T15:11:34.200Z</time>
      </trkpt>
      <trkpt lat="10.157639572013" lon="-75.6830874130628">
        <ele>52.421895</ele>
        <time>2019-09-10T15:11:34.300Z</time>
      </trkpt>
      <trkpt lat="10.1576378839028" lon="-75.6830853071089">
        <ele>52.421895</ele>
        <time>2019-09-10T15:11:34.400Z</time>
      </trkpt>
      <trkpt lat="10.1576362024107" lon="-75.6830832095104">
        <ele>52.421895</ele>
        <time>2019-09-10T15:11:34.500Z</time>
      </trkpt>
      <trkpt lat="10.1576345108612" lon="-75.6830811049491">
        <ele>52.421895</ele>
        <time>2019-09-10T15:11:34.600Z</time>
      </trkpt>
      <trkpt lat="10.1576328102967" lon="-75.6830789847912">
        <ele>52.421895</ele>
        <time>2019-09-10T15:11:34.700Z</time>
      </trkpt>
      <trkpt lat="10.1576310922231" lon="-75.6830768494546">
        <ele>52.421895</ele>
        <time>2019-09-10T15:11:34.800Z</time>
      </trkpt>
      <trkpt lat="10.157627616368" lon="-75.6830725991125">
        <ele>52.421895</ele>
        <time>2019-09-10T15:11:35.000Z</time>
      </trkpt>
      <trkpt lat="10.1576258647355" lon="-75.683070462244">
        <ele>52.421895</ele>
        <time>2019-09-10T15:11:35.100Z</time>
      </trkpt>
      <trkpt lat="10.1576241162296" lon="-75.6830683156277">
        <ele>52.421895</ele>
        <time>2019-09-10T15:11:35.200Z</time>
      </trkpt>
      <trkpt lat="10.1576223805428" lon="-75.6830662021541">
        <ele>52.421895</ele>
        <time>2019-09-10T15:11:35.300Z</time>
      </trkpt>
      <trkpt lat="10.1576206561118" lon="-75.68306410372">
        <ele>52.421895</ele>
        <time>2019-09-10T15:11:35.400Z</time>
      </trkpt>
      <trkpt lat="10.1576189381424" lon="-75.6830620420493">
        <ele>52.421895</ele>
        <time>2019-09-10T15:11:35.500Z</time>
      </trkpt>
      <trkpt lat="10.1576172182971" lon="-75.6830599801">
        <ele>52.421895</ele>
        <time>2019-09-10T15:11:35.600Z</time>
      </trkpt>
      <trkpt lat="10.1576155171073" lon="-75.6830579152264">
        <ele>52.421895</ele>
        <time>2019-09-10T15:11:35.700Z</time>
      </trkpt>
      <trkpt lat="10.1576138203989" lon="-75.6830558211093">
        <ele>52.421895</ele>
        <time>2019-09-10T15:11:35.800Z</time>
      </trkpt>
      <trkpt lat="10.1576121195217" lon="-75.6830537540076">
        <ele>52.421895</ele>
        <time>2019-09-10T15:11:35.900Z</time>
      </trkpt>
      <trkpt lat="10.157610405617" lon="-75.6830516849563">
        <ele>52.421895</ele>
        <time>2019-09-10T15:11:36.000Z</time>
      </trkpt>
      <trkpt lat="10.1576087065116" lon="-75.6830496099171">
        <ele>52.421895</ele>
        <time>2019-09-10T15:11:36.100Z</time>
      </trkpt>
      <trkpt lat="10.1576070091779" lon="-75.6830475059128">
        <ele>52.421895</ele>
        <time>2019-09-10T15:11:36.200Z</time>
      </trkpt>
      <trkpt lat="10.1576053223704" lon="-75.6830453783744">
        <ele>52.421895</ele>
        <time>2019-09-10T15:11:36.300Z</time>
      </trkpt>
      <trkpt lat="10.1576019345816" lon="-75.6830410905728">
        <ele>52.421895</ele>
        <time>2019-09-10T15:11:36.500Z</time>
      </trkpt>
      <trkpt lat="10.1576002265132" lon="-75.6830389532865">
        <ele>52.421895</ele>
        <time>2019-09-10T15:11:36.600Z</time>
      </trkpt>
      <trkpt lat="10.1575985432493" lon="-75.6830368062524">
        <ele>52.421895</ele>
        <time>2019-09-10T15:11:36.700Z</time>
      </trkpt>
      <trkpt lat="10.1575968513351" lon="-75.6830346522556">
        <ele>52.421895</ele>
        <time>2019-09-10T15:11:36.800Z</time>
      </trkpt>
      <trkpt lat="10.1575951700513" lon="-75.6830325184508">
        <ele>52.421895</ele>
        <time>2019-09-10T15:11:36.900Z</time>
      </trkpt>
      <trkpt lat="10.1575934621913" lon="-75.6830303962041">
        <ele>52.421895</ele>
        <time>2019-09-10T15:11:37.000Z</time>
      </trkpt>
      <trkpt lat="10.1575917422418" lon="-75.6830283013906">
        <ele>52.421895</ele>
        <time>2019-09-10T15:11:37.100Z</time>
      </trkpt>
      <trkpt lat="10.1575899971752" lon="-75.6830262047669">
        <ele>52.421895</ele>
        <time>2019-09-10T15:11:37.200Z</time>
      </trkpt>
      <trkpt lat="10.1575882547141" lon="-75.6830241177517">
        <ele>52.421895</ele>
        <time>2019-09-10T15:11:37.300Z</time>
      </trkpt>
      <trkpt lat="10.1575865038111" lon="-75.6830220247486">
        <ele>52.421895</ele>
        <time>2019-09-10T15:11:37.400Z</time>
      </trkpt>
      <trkpt lat="10.1575847529081" lon="-75.68301995333">
        <ele>52.421895</ele>
        <time>2019-09-10T15:11:37.500Z</time>
      </trkpt>
      <trkpt lat="10.1575829977321" lon="-75.683017877316">
        <ele>52.321895</ele>
        <time>2019-09-10T15:11:37.600Z</time>
      </trkpt>
      <trkpt lat="10.1575812522485" lon="-75.6830158365335">
        <ele>52.321895</ele>
        <time>2019-09-10T15:11:37.700Z</time>
      </trkpt>
      <trkpt lat="10.1575795003033" lon="-75.6830137931052">
        <ele>52.321895</ele>
        <time>2019-09-10T15:11:37.800Z</time>
      </trkpt>
      <trkpt lat="10.1575777412712" lon="-75.6830117285101">
        <ele>52.321895</ele>
        <time>2019-09-10T15:11:37.900Z</time>
      </trkpt>
      <trkpt lat="10.1575759681692" lon="-75.6830096288227">
        <ele>52.321895</ele>
        <time>2019-09-10T15:11:38.000Z</time>
      </trkpt>
      <trkpt lat="10.1575742034049" lon="-75.6830075649239">
        <ele>52.321895</ele>
        <time>2019-09-10T15:11:38.100Z</time>
      </trkpt>
      <trkpt lat="10.1575724396828" lon="-75.6830055209385">
        <ele>52.321895</ele>
        <time>2019-09-10T15:11:38.200Z</time>
      </trkpt>
      <trkpt lat="10.1575706683526" lon="-75.6830034960311">
        <ele>52.321895</ele>
        <time>2019-09-10T15:11:38.300Z</time>
      </trkpt>
      <trkpt lat="10.1575688878511" lon="-75.6830014513495">
        <ele>52.321895</ele>
        <time>2019-09-10T15:11:38.400Z</time>
      </trkpt>
      <trkpt lat="10.1575671075579" lon="-75.6829994203148">
        <ele>52.321895</ele>
        <time>2019-09-10T15:11:38.500Z</time>
      </trkpt>
      <trkpt lat="10.1575653289323" lon="-75.6829973727089">
        <ele>52.321895</ele>
        <time>2019-09-10T15:11:38.600Z</time>
      </trkpt>
      <trkpt lat="10.1575635639596" lon="-75.6829953139625">
        <ele>52.321895</ele>
        <time>2019-09-10T15:11:38.700Z</time>
      </trkpt>
      <trkpt lat="10.1575618073245" lon="-75.6829932295932">
        <ele>52.321895</ele>
        <time>2019-09-10T15:11:38.800Z</time>
      </trkpt>
      <trkpt lat="10.1575600227583" lon="-75.6829911524651">
        <ele>52.321895</ele>
        <time>2019-09-10T15:11:38.900Z</time>
      </trkpt>
      <trkpt lat="10.1575582169311" lon="-75.6829890710202">
        <ele>52.321895</ele>
        <time>2019-09-10T15:11:39.000Z</time>
      </trkpt>
      <trkpt lat="10.1575564209007" lon="-75.682986999323">
        <ele>52.321895</ele>
        <time>2019-09-10T15:11:39.100Z</time>
      </trkpt>
      <trkpt lat="10.1575546449848" lon="-75.6829849202454">
        <ele>52.321895</ele>
        <time>2019-09-10T15:11:39.200Z</time>
      </trkpt>
      <trkpt lat="10.1575528883497" lon="-75.6829828563466">
        <ele>52.321895</ele>
        <time>2019-09-10T15:11:39.300Z</time>
      </trkpt>
      <trkpt lat="10.1575511392185" lon="-75.6829807811681">
        <ele>52.321895</ele>
        <time>2019-09-10T15:11:39.400Z</time>
      </trkpt>
      <trkpt lat="10.1575494095765" lon="-75.6829787033438">
        <ele>52.321895</ele>
        <time>2019-09-10T15:11:39.500Z</time>
      </trkpt>
      <trkpt lat="10.1575476783711" lon="-75.6829766021246">
        <ele>52.321895</ele>
        <time>2019-09-10T15:11:39.600Z</time>
      </trkpt>
      <trkpt lat="10.1575459659255" lon="-75.6829744837771">
        <ele>52.321895</ele>
        <time>2019-09-10T15:11:39.700Z</time>
      </trkpt>
      <trkpt lat="10.1575442430578" lon="-75.6829723474656">
        <ele>52.321895</ele>
        <time>2019-09-10T15:11:39.800Z</time>
      </trkpt>
      <trkpt lat="10.1575425255053" lon="-75.6829702143571">
        <ele>52.321895</ele>
        <time>2019-09-10T15:11:39.900Z</time>
      </trkpt>
      <trkpt lat="10.1575407950295" lon="-75.6829680837551">
        <ele>52.421895</ele>
        <time>2019-09-10T15:11:40.000Z</time>
      </trkpt>
      <trkpt lat="10.1575390677846" lon="-75.6829659790545">
        <ele>52.421895</ele>
        <time>2019-09-10T15:11:40.100Z</time>
      </trkpt>
      <trkpt lat="10.1575373278248" lon="-75.6829638899505">
        <ele>52.421895</ele>
        <time>2019-09-10T15:11:40.200Z</time>
      </trkpt>
      <trkpt lat="10.1575355507624" lon="-75.6829617778695">
        <ele>52.421895</ele>
        <time>2019-09-10T15:11:40.300Z</time>
      </trkpt>
      <trkpt lat="10.1575337572333" lon="-75.6829596405832">
        <ele>52.421895</ele>
        <time>2019-09-10T15:11:40.400Z</time>
      </trkpt>
      <trkpt lat="10.1575320160228" lon="-75.6829575369967">
        <ele>52.421895</ele>
        <time>2019-09-10T15:11:40.500Z</time>
      </trkpt>
      <trkpt lat="10.1575286126009" lon="-75.6829533672833">
        <ele>52.421895</ele>
        <time>2019-09-10T15:11:40.700Z</time>
      </trkpt>
      <trkpt lat="10.1575268979666" lon="-75.6829512716344">
        <ele>52.421895</ele>
        <time>2019-09-10T15:11:40.800Z</time>
      </trkpt>
      <trkpt lat="10.1575252017794" lon="-75.6829491797453">
        <ele>52.421895</ele>
        <time>2019-09-10T15:11:40.900Z</time>
      </trkpt>
      <trkpt lat="10.1575234945447" lon="-75.6829470771335">
        <ele>52.421895</ele>
        <time>2019-09-10T15:11:41.000Z</time>
      </trkpt>
      <trkpt lat="10.1575218007545" lon="-75.6829449824594">
        <ele>52.421895</ele>
        <time>2019-09-10T15:11:41.100Z</time>
      </trkpt>
      <trkpt lat="10.1575200933115" lon="-75.6829428805439">
        <ele>52.421895</ele>
        <time>2019-09-10T15:11:41.200Z</time>
      </trkpt>
      <trkpt lat="10.157518388057" lon="-75.6829407847557">
        <ele>52.421895</ele>
        <time>2019-09-10T15:11:41.300Z</time>
      </trkpt>
      <trkpt lat="10.157516663626" lon="-75.6829386804729">
        <ele>52.421895</ele>
        <time>2019-09-10T15:11:41.400Z</time>
      </trkpt>
      <trkpt lat="10.1575149605602" lon="-75.6829365802285">
        <ele>52.421895</ele>
        <time>2019-09-10T15:11:41.500Z</time>
      </trkpt>
      <trkpt lat="10.1575132529087" lon="-75.6829344735784">
        <ele>52.421895</ele>
        <time>2019-09-10T15:11:41.600Z</time>
      </trkpt>
      <trkpt lat="10.157509817908" lon="-75.6829302232363">
        <ele>52.421895</ele>
        <time>2019-09-10T15:11:41.800Z</time>
      </trkpt>
      <trkpt lat="10.1575080890998" lon="-75.6829281014074">
        <ele>52.421895</ele>
        <time>2019-09-10T15:11:41.900Z</time>
      </trkpt>
      <trkpt lat="10.157506351537" lon="-75.6829259852879">
        <ele>52.421895</ele>
        <time>2019-09-10T15:11:42.000Z</time>
      </trkpt>
      <trkpt lat="10.1575045971947" lon="-75.6829238349117">
        <ele>52.421895</ele>
        <time>2019-09-10T15:11:42.100Z</time>
      </trkpt>
      <trkpt lat="10.1575028240928" lon="-75.6829216660146">
        <ele>52.421895</ele>
        <time>2019-09-10T15:11:42.200Z</time>
      </trkpt>
      <trkpt lat="10.1575010629762" lon="-75.6829195284499">
        <ele>52.421895</ele>
        <time>2019-09-10T15:11:42.300Z</time>
      </trkpt>
      <trkpt lat="10.1574993174927" lon="-75.6829174230531">
        <ele>52.421895</ele>
        <time>2019-09-10T15:11:42.400Z</time>
      </trkpt>
      <trkpt lat="10.1574975480385" lon="-75.6829152921726">
        <ele>52.421895</ele>
        <time>2019-09-10T15:11:42.500Z</time>
      </trkpt>
      <trkpt lat="10.1574957605541" lon="-75.6829131420749">
        <ele>52.421895</ele>
        <time>2019-09-10T15:11:42.600Z</time>
      </trkpt>
      <trkpt lat="10.1574940043359" lon="-75.6829110013073">
        <ele>52.421895</ele>
        <time>2019-09-10T15:11:42.700Z</time>
      </trkpt>
      <trkpt lat="10.157492269066" lon="-75.6829088818457">
        <ele>52.321895</ele>
        <time>2019-09-10T15:11:42.800Z</time>
      </trkpt>
      <trkpt lat="10.1574905260837" lon="-75.6829067541681">
        <ele>52.321895</ele>
        <time>2019-09-10T15:11:42.900Z</time>
      </trkpt>
      <trkpt lat="10.1574887683022" lon="-75.6829046266297">
        <ele>52.321895</ele>
        <time>2019-09-10T15:11:43.000Z</time>
      </trkpt>
      <trkpt lat="10.1574870411615" lon="-75.6829025086999">
        <ele>52.321895</ele>
        <time>2019-09-10T15:11:43.100Z</time>
      </trkpt>
      <trkpt lat="10.1574853194402" lon="-75.6829004002395">
        <ele>52.321895</ele>
        <time>2019-09-10T15:11:43.200Z</time>
      </trkpt>
      <trkpt lat="10.1574836055355" lon="-75.6828982991596">
        <ele>52.321895</ele>
        <time>2019-09-10T15:11:43.300Z</time>
      </trkpt>
      <trkpt lat="10.157481874747" lon="-75.6828961881925">
        <ele>52.321895</ele>
        <time>2019-09-10T15:11:43.400Z</time>
      </trkpt>
      <trkpt lat="10.1574801655322" lon="-75.6828941045195">
        <ele>52.321895</ele>
        <time>2019-09-10T15:11:43.500Z</time>
      </trkpt>
      <trkpt lat="10.157478450481" lon="-75.6828920246063">
        <ele>52.321895</ele>
        <time>2019-09-10T15:11:43.600Z</time>
      </trkpt>
      <trkpt lat="10.1574767393902" lon="-75.6828899554158">
        <ele>52.321895</ele>
        <time>2019-09-10T15:11:43.700Z</time>
      </trkpt>
      <trkpt lat="10.1574750083934" lon="-75.6828878714643">
        <ele>52.321895</ele>
        <time>2019-09-10T15:11:43.800Z</time>
      </trkpt>
      <trkpt lat="10.1574732814611" lon="-75.6828858195414">
        <ele>52.421895</ele>
        <time>2019-09-10T15:11:43.900Z</time>
      </trkpt>
      <trkpt lat="10.1574715417097" lon="-75.6828837620483">
        <ele>52.421895</ele>
        <time>2019-09-10T15:11:44.000Z</time>
      </trkpt>
      <trkpt lat="10.157469828326" lon="-75.6828817063655">
        <ele>52.421895</ele>
        <time>2019-09-10T15:11:44.100Z</time>
      </trkpt>
      <trkpt lat="10.1574681160888" lon="-75.6828796243635">
        <ele>52.421895</ele>
        <time>2019-09-10T15:11:44.200Z</time>
      </trkpt>
      <trkpt lat="10.1574664310531" lon="-75.6828775554515">
        <ele>52.421895</ele>
        <time>2019-09-10T15:11:44.300Z</time>
      </trkpt>
      <trkpt lat="10.1574647414318" lon="-75.6828754819441">
        <ele>52.421895</ele>
        <time>2019-09-10T15:11:44.400Z</time>
      </trkpt>
      <trkpt lat="10.157463024192" lon="-75.6828733959037">
        <ele>52.421895</ele>
        <time>2019-09-10T15:11:44.500Z</time>
      </trkpt>
      <trkpt lat="10.1574612687033" lon="-75.6828712912032">
        <ele>52.421895</ele>
        <time>2019-09-10T15:11:44.600Z</time>
      </trkpt>
      <trkpt lat="10.157459504877" lon="-75.6828691891485">
        <ele>52.421895</ele>
        <time>2019-09-10T15:11:44.700Z</time>
      </trkpt>
      <trkpt lat="10.1574577489714" lon="-75.6828670939173">
        <ele>52.421895</ele>
        <time>2019-09-10T15:11:44.800Z</time>
      </trkpt>
      <trkpt lat="10.1574560107833" lon="-75.6828649939514">
        <ele>52.421895</ele>
        <time>2019-09-10T15:11:44.900Z</time>
      </trkpt>
      <trkpt lat="10.157454282913" lon="-75.6828628921752">
        <ele>52.421895</ele>
        <time>2019-09-10T15:11:45.000Z</time>
      </trkpt>
      <trkpt lat="10.1574525554596" lon="-75.6828607668649">
        <ele>52.421895</ele>
        <time>2019-09-10T15:11:45.100Z</time>
      </trkpt>
      <trkpt lat="10.1574508185222" lon="-75.6828586369592">
        <ele>52.421895</ele>
        <time>2019-09-10T15:11:45.200Z</time>
      </trkpt>
      <trkpt lat="10.1574491024288" lon="-75.6828565239034">
        <ele>52.421895</ele>
        <time>2019-09-10T15:11:45.300Z</time>
      </trkpt>
      <trkpt lat="10.1574473860228" lon="-75.6828544272796">
        <ele>52.421895</ele>
        <time>2019-09-10T15:11:45.400Z</time>
      </trkpt>
      <trkpt lat="10.1574456297003" lon="-75.6828523016908">
        <ele>52.421895</ele>
        <time>2019-09-10T15:11:45.500Z</time>
      </trkpt>
      <trkpt lat="10.1574438439877" lon="-75.6828501561885">
        <ele>52.421895</ele>
        <time>2019-09-10T15:11:45.600Z</time>
      </trkpt>
      <trkpt lat="10.1574420810994" lon="-75.6828480538553">
        <ele>52.421895</ele>
        <time>2019-09-10T15:11:45.700Z</time>
      </trkpt>
      <trkpt lat="10.1574403384298" lon="-75.6828459743599">
        <ele>52.421895</ele>
        <time>2019-09-10T15:11:45.800Z</time>
      </trkpt>
      <trkpt lat="10.1574386063908" lon="-75.6828439036376">
        <ele>52.521895</ele>
        <time>2019-09-10T15:11:45.900Z</time>
      </trkpt>
      <trkpt lat="10.1574368732052" lon="-75.6828418106345">
        <ele>52.521895</ele>
        <time>2019-09-10T15:11:46.000Z</time>
      </trkpt>
      <trkpt lat="10.1574351663875" lon="-75.6828397296073">
        <ele>52.521895</ele>
        <time>2019-09-10T15:11:46.100Z</time>
      </trkpt>
      <trkpt lat="10.1574334646765" lon="-75.682837632705">
        <ele>52.521895</ele>
        <time>2019-09-10T15:11:46.200Z</time>
      </trkpt>
      <trkpt lat="10.1574317715117" lon="-75.682835542487">
        <ele>52.521895</ele>
        <time>2019-09-10T15:11:46.300Z</time>
      </trkpt>
      <trkpt lat="10.1574300608378" lon="-75.6828334395968">
        <ele>52.421895</ele>
        <time>2019-09-10T15:11:46.400Z</time>
      </trkpt>
      <trkpt lat="10.1574266269835" lon="-75.6828291988633">
        <ele>52.421895</ele>
        <time>2019-09-10T15:11:46.600Z</time>
      </trkpt>
      <trkpt lat="10.1574249190193" lon="-75.682827059906">
        <ele>52.421895</ele>
        <time>2019-09-10T15:11:46.700Z</time>
      </trkpt>
      <trkpt lat="10.1574232136607" lon="-75.6828249153785">
        <ele>52.421895</ele>
        <time>2019-09-10T15:11:46.800Z</time>
      </trkpt>
      <trkpt lat="10.1574215275828" lon="-75.6828227533049">
        <ele>52.421895</ele>
        <time>2019-09-10T15:11:46.900Z</time>
      </trkpt>
      <trkpt lat="10.1574198417133" lon="-75.6828205894209">
        <ele>52.421895</ele>
        <time>2019-09-10T15:11:47.000Z</time>
      </trkpt>
      <trkpt lat="10.1574181512582" lon="-75.6828183967112">
        <ele>52.421895</ele>
        <time>2019-09-10T15:11:47.100Z</time>
      </trkpt>
      <trkpt lat="10.1574164403758" lon="-75.6828162081791">
        <ele>52.421895</ele>
        <time>2019-09-10T15:11:47.200Z</time>
      </trkpt>
      <trkpt lat="10.1574147413746" lon="-75.6828140385857">
        <ele>52.421895</ele>
        <time>2019-09-10T15:11:47.300Z</time>
      </trkpt>
      <trkpt lat="10.1574130426861" lon="-75.6828118986537">
        <ele>52.421895</ele>
        <time>2019-09-10T15:11:47.400Z</time>
      </trkpt>
      <trkpt lat="10.1574113550449" lon="-75.6828097666591">
        <ele>52.421895</ele>
        <time>2019-09-10T15:11:47.500Z</time>
      </trkpt>
      <trkpt lat="10.1574096621927" lon="-75.6828076402348">
        <ele>52.421895</ele>
        <time>2019-09-10T15:11:47.600Z</time>
      </trkpt>
      <trkpt lat="10.1574079944576" lon="-75.6828055631067">
        <ele>52.421895</ele>
        <time>2019-09-10T15:11:47.700Z</time>
      </trkpt>
      <trkpt lat="10.157406324117" lon="-75.6828035043604">
        <ele>52.421895</ele>
        <time>2019-09-10T15:11:47.800Z</time>
      </trkpt>
      <trkpt lat="10.1574046212596" lon="-75.6828014376764">
        <ele>52.421895</ele>
        <time>2019-09-10T15:11:47.900Z</time>
      </trkpt>
      <trkpt lat="10.157402884739" lon="-75.6827993370143">
        <ele>52.521895</ele>
        <time>2019-09-10T15:11:48.000Z</time>
      </trkpt>
      <trkpt lat="10.1574011376922" lon="-75.6827972256295">
        <ele>52.521895</ele>
        <time>2019-09-10T15:11:48.100Z</time>
      </trkpt>
      <trkpt lat="10.1573993923129" lon="-75.6827951033828">
        <ele>52.521895</ele>
        <time>2019-09-10T15:11:48.200Z</time>
      </trkpt>
      <trkpt lat="10.1573976773659" lon="-75.682793005088">
        <ele>52.521895</ele>
        <time>2019-09-10T15:11:48.300Z</time>
      </trkpt>
      <trkpt lat="10.1573959811787" lon="-75.6827909141737">
        <ele>52.521895</ele>
        <time>2019-09-10T15:11:48.400Z</time>
      </trkpt>
      <trkpt lat="10.1573942830112" lon="-75.6827888335643">
        <ele>52.521895</ele>
        <time>2019-09-10T15:11:48.500Z</time>
      </trkpt>
      <trkpt lat="10.1573925687938" lon="-75.6827867422322">
        <ele>52.521895</ele>
        <time>2019-09-10T15:11:48.600Z</time>
      </trkpt>
      <trkpt lat="10.1573908878227" lon="-75.6827846811185">
        <ele>52.521895</ele>
        <time>2019-09-10T15:11:48.700Z</time>
      </trkpt>
      <trkpt lat="10.1573892111247" lon="-75.6827826194477">
        <ele>52.521895</ele>
        <time>2019-09-10T15:11:48.800Z</time>
      </trkpt>
      <trkpt lat="10.157387545474" lon="-75.6827805604228">
        <ele>52.521895</ele>
        <time>2019-09-10T15:11:48.900Z</time>
      </trkpt>
      <trkpt lat="10.1573858549146" lon="-75.6827784749395">
        <ele>52.521895</ele>
        <time>2019-09-10T15:11:49.000Z</time>
      </trkpt>
      <trkpt lat="10.1573841470547" lon="-75.6827763819364">
        <ele>52.521895</ele>
        <time>2019-09-10T15:11:49.100Z</time>
      </trkpt>
      <trkpt lat="10.1573824116805" lon="-75.6827742720834">
        <ele>52.521895</ele>
        <time>2019-09-10T15:11:49.200Z</time>
      </trkpt>
      <trkpt lat="10.1573806857904" lon="-75.6827721691931">
        <ele>52.521895</ele>
        <time>2019-09-10T15:11:49.300Z</time>
      </trkpt>
      <trkpt lat="10.1573789561484" lon="-75.6827700686702">
        <ele>52.521895</ele>
        <time>2019-09-10T15:11:49.400Z</time>
      </trkpt>
      <trkpt lat="10.1573772445365" lon="-75.6827679812373">
        <ele>52.521895</ele>
        <time>2019-09-10T15:11:49.500Z</time>
      </trkpt>
      <trkpt lat="10.1573755285474" lon="-75.6827658917156">
        <ele>52.521895</ele>
        <time>2019-09-10T15:11:49.600Z</time>
      </trkpt>
      <trkpt lat="10.1573738166228" lon="-75.682763806093">
        <ele>52.521895</ele>
        <time>2019-09-10T15:11:49.700Z</time>
      </trkpt>
      <trkpt lat="10.15737208375" lon="-75.6827617089122">
        <ele>52.521895</ele>
        <time>2019-09-10T15:11:49.800Z</time>
      </trkpt>
      <trkpt lat="10.1573703505645" lon="-75.6827596100603">
        <ele>52.521895</ele>
        <time>2019-09-10T15:11:49.900Z</time>
      </trkpt>
      <trkpt lat="10.1573686035176" lon="-75.6827575035495">
        <ele>52.521895</ele>
        <time>2019-09-10T15:11:50.000Z</time>
      </trkpt>
      <trkpt lat="10.1573668362521" lon="-75.6827553995452">
        <ele>52.521895</ele>
        <time>2019-09-10T15:11:50.100Z</time>
      </trkpt>
      <trkpt lat="10.1573650556462" lon="-75.6827532965157">
        <ele>52.521895</ele>
        <time>2019-09-10T15:11:50.200Z</time>
      </trkpt>
      <trkpt lat="10.157363288068" lon="-75.6827512050444">
        <ele>52.521895</ele>
        <time>2019-09-10T15:11:50.300Z</time>
      </trkpt>
      <trkpt lat="10.1573615298696" lon="-75.6827491162189">
        <ele>52.521895</ele>
        <time>2019-09-10T15:11:50.400Z</time>
      </trkpt>
      <trkpt lat="10.1573598085652" lon="-75.6827470517631">
        <ele>52.521895</ele>
        <time>2019-09-10T15:11:50.500Z</time>
      </trkpt>
      <trkpt lat="10.1573580989335" lon="-75.6827449958018">
        <ele>52.521895</ele>
        <time>2019-09-10T15:11:50.600Z</time>
      </trkpt>
      <trkpt lat="10.1573545888941" lon="-75.6827406943531">
        <ele>52.621895</ele>
        <time>2019-09-10T15:11:50.800Z</time>
      </trkpt>
      <trkpt lat="10.1573528359067" lon="-75.6827385329758">
        <ele>52.621895</ele>
        <time>2019-09-10T15:11:50.900Z</time>
      </trkpt>
      <trkpt lat="10.1573510952173" lon="-75.6827364048804">
        <ele>52.621895</ele>
        <time>2019-09-10T15:11:51.000Z</time>
      </trkpt>
      <trkpt lat="10.1573493622403" lon="-75.6827342801271">
        <ele>52.621895</ele>
        <time>2019-09-10T15:11:51.100Z</time>
      </trkpt>
      <trkpt lat="10.1573476195707" lon="-75.6827321647039">
        <ele>52.621895</ele>
        <time>2019-09-10T15:11:51.200Z</time>
      </trkpt>
      <trkpt lat="10.1573458855514" lon="-75.6827300608389">
        <ele>52.621895</ele>
        <time>2019-09-10T15:11:51.300Z</time>
      </trkpt>
      <trkpt lat="10.1573441426734" lon="-75.6827279569739">
        <ele>52.621895</ele>
        <time>2019-09-10T15:11:51.400Z</time>
      </trkpt>
      <trkpt lat="10.1573424446102" lon="-75.6827258890367">
        <ele>52.521895</ele>
        <time>2019-09-10T15:11:51.500Z</time>
      </trkpt>
      <trkpt lat="10.1573407595745" lon="-75.6827238309865">
        <ele>52.521895</ele>
        <time>2019-09-10T15:11:51.600Z</time>
      </trkpt>
      <trkpt lat="10.1573390693278" lon="-75.6827217878367">
        <ele>52.521895</ele>
        <time>2019-09-10T15:11:51.700Z</time>
      </trkpt>
      <trkpt lat="10.1573373395815" lon="-75.6827197321539">
        <ele>52.521895</ele>
        <time>2019-09-10T15:11:51.800Z</time>
      </trkpt>
      <trkpt lat="10.1573355895123" lon="-75.6827176560007">
        <ele>52.521895</ele>
        <time>2019-09-10T15:11:51.900Z</time>
      </trkpt>
      <trkpt lat="10.1573338241227" lon="-75.6827155643901">
        <ele>52.521895</ele>
        <time>2019-09-10T15:11:52.000Z</time>
      </trkpt>
      <trkpt lat="10.1573320502912" lon="-75.6827134903257">
        <ele>52.521895</ele>
        <time>2019-09-10T15:11:52.100Z</time>
      </trkpt>
      <trkpt lat="10.1573302772935" lon="-75.6827114306045">
        <ele>52.521895</ele>
        <time>2019-09-10T15:11:52.200Z</time>
      </trkpt>
      <trkpt lat="10.1573285040873" lon="-75.6827093534764">
        <ele>52.521895</ele>
        <time>2019-09-10T15:11:52.300Z</time>
      </trkpt>
      <trkpt lat="10.1573267306727" lon="-75.682707266879">
        <ele>52.521895</ele>
        <time>2019-09-10T15:11:52.400Z</time>
      </trkpt>
      <trkpt lat="10.1573249734123" lon="-75.6827051825097">
        <ele>52.521895</ele>
        <time>2019-09-10T15:11:52.500Z</time>
      </trkpt>
      <trkpt lat="10.1573232159434" lon="-75.6827031007863">
        <ele>52.521895</ele>
        <time>2019-09-10T15:11:52.600Z</time>
      </trkpt>
      <trkpt lat="10.1573214753583" lon="-75.6827010037447">
        <ele>52.521895</ele>
        <time>2019-09-10T15:11:52.700Z</time>
      </trkpt>
      <trkpt lat="10.1573197276861" lon="-75.6826988963983">
        <ele>52.521895</ele>
        <time>2019-09-10T15:11:52.800Z</time>
      </trkpt>
      <trkpt lat="10.157317974803" lon="-75.682696804927">
        <ele>52.521895</ele>
        <time>2019-09-10T15:11:52.900Z</time>
      </trkpt>
      <trkpt lat="10.1573162067036" lon="-75.6826947282167">
        <ele>52.521895</ele>
        <time>2019-09-10T15:11:53.000Z</time>
      </trkpt>
      <trkpt lat="10.1573144339143" lon="-75.6826926778256">
        <ele>52.521895</ele>
        <time>2019-09-10T15:11:53.100Z</time>
      </trkpt>
      <trkpt lat="10.1573126613335" lon="-75.6826906284093">
        <ele>52.521895</ele>
        <time>2019-09-10T15:11:53.200Z</time>
      </trkpt>
      <trkpt lat="10.1573108816657" lon="-75.6826885458503">
        <ele>52.521895</ele>
        <time>2019-09-10T15:11:53.300Z</time>
      </trkpt>
      <trkpt lat="10.1573091026232" lon="-75.6826864307057">
        <ele>52.521895</ele>
        <time>2019-09-10T15:11:53.400Z</time>
      </trkpt>
      <trkpt lat="10.1573073489062" lon="-75.6826843126366">
        <ele>52.521895</ele>
        <time>2019-09-10T15:11:53.500Z</time>
      </trkpt>
      <trkpt lat="10.1573055992539" lon="-75.6826821945676">
        <ele>52.521895</ele>
        <time>2019-09-10T15:11:53.600Z</time>
      </trkpt>
      <trkpt lat="10.1573038541873" lon="-75.6826800911203">
        <ele>52.521895</ele>
        <time>2019-09-10T15:11:53.700Z</time>
      </trkpt>
      <trkpt lat="10.1573020951551" lon="-75.6826779904582">
        <ele>52.521895</ele>
        <time>2019-09-10T15:11:53.800Z</time>
      </trkpt>
      <trkpt lat="10.157300336644" lon="-75.6826758780986">
        <ele>52.521895</ele>
        <time>2019-09-10T15:11:53.900Z</time>
      </trkpt>
      <trkpt lat="10.1572985637505" lon="-75.6826737435975">
        <ele>52.521895</ele>
        <time>2019-09-10T15:11:54.000Z</time>
      </trkpt>
      <trkpt lat="10.1572968140982" lon="-75.682671626921">
        <ele>52.521895</ele>
        <time>2019-09-10T15:11:54.100Z</time>
      </trkpt>
      <trkpt lat="10.1572950679893" lon="-75.682669521942">
        <ele>52.521895</ele>
        <time>2019-09-10T15:11:54.200Z</time>
      </trkpt>
      <trkpt lat="10.1572933387642" lon="-75.6826674331165">
        <ele>52.521895</ele>
        <time>2019-09-10T15:11:54.300Z</time>
      </trkpt>
      <trkpt lat="10.1572915971368" lon="-75.6826653401134">
        <ele>52.521895</ele>
        <time>2019-09-10T15:11:54.400Z</time>
      </trkpt>
      <trkpt lat="10.1572898631175" lon="-75.6826632340203">
        <ele>52.521895</ele>
        <time>2019-09-10T15:11:54.500Z</time>
      </trkpt>
      <trkpt lat="10.1572881158623" lon="-75.6826611085707">
        <ele>52.521895</ele>
        <time>2019-09-10T15:11:54.600Z</time>
      </trkpt>
      <trkpt lat="10.1572863431772" lon="-75.6826589413446">
        <ele>52.421895</ele>
        <time>2019-09-10T15:11:54.700Z</time>
      </trkpt>
      <trkpt lat="10.1572845379754" lon="-75.6826567624212">
        <ele>52.421895</ele>
        <time>2019-09-10T15:11:54.800Z</time>
      </trkpt>
      <trkpt lat="10.1572827393395" lon="-75.6826545885109">
        <ele>52.421895</ele>
        <time>2019-09-10T15:11:54.900Z</time>
      </trkpt>
      <trkpt lat="10.157280947061" lon="-75.6826524374384">
        <ele>52.421895</ele>
        <time>2019-09-10T15:11:55.000Z</time>
      </trkpt>
      <trkpt lat="10.1572791755223" lon="-75.6826502812135">
        <ele>52.421895</ele>
        <time>2019-09-10T15:11:55.100Z</time>
      </trkpt>
      <trkpt lat="10.1572756392194" lon="-75.6826460105402">
        <ele>52.421895</ele>
        <time>2019-09-10T15:11:55.300Z</time>
      </trkpt>
      <trkpt lat="10.1572738665344" lon="-75.6826439055611">
        <ele>52.421895</ele>
        <time>2019-09-10T15:11:55.400Z</time>
      </trkpt>
      <trkpt lat="10.1572721010405" lon="-75.6826418174319">
        <ele>52.421895</ele>
        <time>2019-09-10T15:11:55.500Z</time>
      </trkpt>
      <trkpt lat="10.1572703289808" lon="-75.6826397270746">
        <ele>52.421895</ele>
        <time>2019-09-10T15:11:55.600Z</time>
      </trkpt>
      <trkpt lat="10.1572685619236" lon="-75.6826376282228">
        <ele>52.421895</ele>
        <time>2019-09-10T15:11:55.700Z</time>
      </trkpt>
      <trkpt lat="10.157266790385" lon="-75.6826355130781">
        <ele>52.421895</ele>
        <time>2019-09-10T15:11:55.800Z</time>
      </trkpt>
      <trkpt lat="10.1572650179084" lon="-75.6826334008578">
        <ele>52.421895</ele>
        <time>2019-09-10T15:11:55.900Z</time>
      </trkpt>
      <trkpt lat="10.1572632391786" lon="-75.6826312935114">
        <ele>52.421895</ele>
        <time>2019-09-10T15:11:56.000Z</time>
      </trkpt>
      <trkpt lat="10.1572614806675" lon="-75.6826292186114">
        <ele>52.421895</ele>
        <time>2019-09-10T15:11:56.100Z</time>
      </trkpt>
      <trkpt lat="10.1572597339333" lon="-75.6826271533201">
        <ele>52.421895</ele>
        <time>2019-09-10T15:11:56.200Z</time>
      </trkpt>
      <trkpt lat="10.1572579892836" lon="-75.6826251135124">
        <ele>52.421895</ele>
        <time>2019-09-10T15:11:56.300Z</time>
      </trkpt>
      <trkpt lat="10.1572562355666" lon="-75.6826230642353">
        <ele>52.421895</ele>
        <time>2019-09-10T15:11:56.400Z</time>
      </trkpt>
      <trkpt lat="10.1572544971701" lon="-75.6826210120339">
        <ele>52.421895</ele>
        <time>2019-09-10T15:11:56.500Z</time>
      </trkpt>
      <trkpt lat="10.1572527601284" lon="-75.6826189372732">
        <ele>52.421895</ele>
        <time>2019-09-10T15:11:56.600Z</time>
      </trkpt>
      <trkpt lat="10.1572510346552" lon="-75.6826168583348">
        <ele>52.421895</ele>
        <time>2019-09-10T15:11:56.700Z</time>
      </trkpt>
      <trkpt lat="10.1572493128297" lon="-75.6826147793965">
        <ele>52.421895</ele>
        <time>2019-09-10T15:11:56.800Z</time>
      </trkpt>
      <trkpt lat="10.1572476051782" lon="-75.6826127264988">
        <ele>52.421895</ele>
        <time>2019-09-10T15:11:56.900Z</time>
      </trkpt>
      <trkpt lat="10.1572459019039" lon="-75.6826106871088">
        <ele>52.421895</ele>
        <time>2019-09-10T15:11:57.000Z</time>
      </trkpt>
      <trkpt lat="10.1572442255186" lon="-75.6826086353252">
        <ele>52.421895</ele>
        <time>2019-09-10T15:11:57.100Z</time>
      </trkpt>
      <trkpt lat="10.1572425531978" lon="-75.6826065693376">
        <ele>52.421895</ele>
        <time>2019-09-10T15:11:57.200Z</time>
      </trkpt>
      <trkpt lat="10.157240889423" lon="-75.6826045075276">
        <ele>52.421895</ele>
        <time>2019-09-10T15:11:57.300Z</time>
      </trkpt>
      <trkpt lat="10.157239214601" lon="-75.682602443768">
        <ele>52.421895</ele>
        <time>2019-09-10T15:11:57.400Z</time>
      </trkpt>
      <trkpt lat="10.1572375396747" lon="-75.6826003791729">
        <ele>52.421895</ele>
        <time>2019-09-10T15:11:57.500Z</time>
      </trkpt>
      <trkpt lat="10.1572358519293" lon="-75.6825983105394">
        <ele>52.421895</ele>
        <time>2019-09-10T15:11:57.600Z</time>
      </trkpt>
      <trkpt lat="10.1572341785663" lon="-75.6825962406526">
        <ele>52.421895</ele>
        <time>2019-09-10T15:11:57.700Z</time>
      </trkpt>
      <trkpt lat="10.1572324949897" lon="-75.6825941638031">
        <ele>52.421895</ele>
        <time>2019-09-10T15:11:57.800Z</time>
      </trkpt>
      <trkpt lat="10.1572308043261" lon="-75.6825921136905">
        <ele>52.421895</ele>
        <time>2019-09-10T15:11:57.900Z</time>
      </trkpt>
      <trkpt lat="10.1572290857314" lon="-75.6825900681733">
        <ele>52.421895</ele>
        <time>2019-09-10T15:11:58.000Z</time>
      </trkpt>
      <trkpt lat="10.1572273726604" lon="-75.6825880214029">
        <ele>52.421895</ele>
        <time>2019-09-10T15:11:58.100Z</time>
      </trkpt>
      <trkpt lat="10.1572256556291" lon="-75.6825859491487">
        <ele>52.421895</ele>
        <time>2019-09-10T15:11:58.200Z</time>
      </trkpt>
      <trkpt lat="10.1572239186916" lon="-75.6825838458407">
        <ele>52.421895</ele>
        <time>2019-09-10T15:11:58.300Z</time>
      </trkpt>
      <trkpt lat="10.1572221636198" lon="-75.6825817220623">
        <ele>52.421895</ele>
        <time>2019-09-10T15:11:58.400Z</time>
      </trkpt>
      <trkpt lat="10.1572203862449" lon="-75.6825795611027">
        <ele>52.421895</ele>
        <time>2019-09-10T15:11:58.500Z</time>
      </trkpt>
      <trkpt lat="10.1572186056391" lon="-75.6825774020927">
        <ele>52.421895</ele>
        <time>2019-09-10T15:11:58.600Z</time>
      </trkpt>
      <trkpt lat="10.1572168671383" lon="-75.6825752639709">
        <ele>52.421895</ele>
        <time>2019-09-10T15:11:58.700Z</time>
      </trkpt>
      <trkpt lat="10.1572151518787" lon="-75.6825731510543">
        <ele>52.421895</ele>
        <time>2019-09-10T15:11:58.800Z</time>
      </trkpt>
      <trkpt lat="10.1572134208818" lon="-75.6825710522025">
        <ele>52.421895</ele>
        <time>2019-09-10T15:11:58.900Z</time>
      </trkpt>
      <trkpt lat="10.1572099541981" lon="-75.6825668920977">
        <ele>52.421895</ele>
        <time>2019-09-10T15:11:59.100Z</time>
      </trkpt>
      <trkpt lat="10.1572082604079" lon="-75.6825648392">
        <ele>52.521895</ele>
        <time>2019-09-10T15:11:59.200Z</time>
      </trkpt>
      <trkpt lat="10.157206539312" lon="-75.6825627527418">
        <ele>52.521895</ele>
        <time>2019-09-10T15:11:59.300Z</time>
      </trkpt>
      <trkpt lat="10.1572047775701" lon="-75.6825606310522">
        <ele>52.521895</ele>
        <time>2019-09-10T15:11:59.400Z</time>
      </trkpt>
      <trkpt lat="10.1572030152028" lon="-75.6825585039316">
        <ele>52.521895</ele>
        <time>2019-09-10T15:11:59.500Z</time>
      </trkpt>
      <trkpt lat="10.1572012616943" lon="-75.6825563922683">
        <ele>52.521895</ele>
        <time>2019-09-10T15:11:59.600Z</time>
      </trkpt>
      <trkpt lat="10.1571995138138" lon="-75.6825542732245">
        <ele>52.521895</ele>
        <time>2019-09-10T15:11:59.700Z</time>
      </trkpt>
      <trkpt lat="10.1571977726033" lon="-75.6825521614219">
        <ele>52.521895</ele>
        <time>2019-09-10T15:11:59.800Z</time>
      </trkpt>
      <trkpt lat="10.1571960297253" lon="-75.6825500673047">
        <ele>52.521895</ele>
        <time>2019-09-10T15:11:59.900Z</time>
      </trkpt>
      <trkpt lat="10.1571942844502" lon="-75.6825479862775">
        <ele>52.521895</ele>
        <time>2019-09-10T15:12:00.000Z</time>
      </trkpt>
      <trkpt lat="10.1571907918156" lon="-75.6825438037527">
        <ele>52.521895</ele>
        <time>2019-09-10T15:12:00.200Z</time>
      </trkpt>
      <trkpt lat="10.1571890629031" lon="-75.6825416930642">
        <ele>52.521895</ele>
        <time>2019-09-10T15:12:00.300Z</time>
      </trkpt>
      <trkpt lat="10.1571873307598" lon="-75.6825395691464">
        <ele>52.521895</ele>
        <time>2019-09-10T15:12:00.400Z</time>
      </trkpt>
      <trkpt lat="10.157185596949" lon="-75.6825374446716">
        <ele>52.521895</ele>
        <time>2019-09-10T15:12:00.500Z</time>
      </trkpt>
      <trkpt lat="10.1571838461502" lon="-75.6825353206146">
        <ele>52.521895</ele>
        <time>2019-09-10T15:12:00.600Z</time>
      </trkpt>
      <trkpt lat="10.1571821034806" lon="-75.682533191823">
        <ele>52.521895</ele>
        <time>2019-09-10T15:12:00.700Z</time>
      </trkpt>
      <trkpt lat="10.1571803562254" lon="-75.682531062892">
        <ele>52.521895</ele>
        <time>2019-09-10T15:12:00.800Z</time>
      </trkpt>
      <trkpt lat="10.1571786528469" lon="-75.6825289533176">
        <ele>52.521895</ele>
        <time>2019-09-10T15:12:00.900Z</time>
      </trkpt>
      <trkpt lat="10.1571769561385" lon="-75.6825268586434">
        <ele>52.521895</ele>
        <time>2019-09-10T15:12:01.000Z</time>
      </trkpt>
      <trkpt lat="10.1571752543233" lon="-75.6825247535251">
        <ele>52.521895</ele>
        <time>2019-09-10T15:12:01.100Z</time>
      </trkpt>
      <trkpt lat="10.1571735250982" lon="-75.6825226439506">
        <ele>52.521895</ele>
        <time>2019-09-10T15:12:01.200Z</time>
      </trkpt>
      <trkpt lat="10.1571717972279" lon="-75.682520537579">
        <ele>52.521895</ele>
        <time>2019-09-10T15:12:01.300Z</time>
      </trkpt>
      <trkpt lat="10.1571700643551" lon="-75.6825184405375">
        <ele>52.521895</ele>
        <time>2019-09-10T15:12:01.400Z</time>
      </trkpt>
      <trkpt lat="10.1571683263754" lon="-75.6825163466988">
        <ele>52.421895</ele>
        <time>2019-09-10T15:12:01.500Z</time>
      </trkpt>
      <trkpt lat="10.1571665816214" lon="-75.6825142486825">
        <ele>52.421895</ele>
        <time>2019-09-10T15:12:01.600Z</time>
      </trkpt>
      <trkpt lat="10.1571648318649" lon="-75.6825121350696">
        <ele>52.421895</ele>
        <time>2019-09-10T15:12:01.700Z</time>
      </trkpt>
      <trkpt lat="10.157163070123" lon="-75.6825100114304">
        <ele>52.421895</ele>
        <time>2019-09-10T15:12:01.800Z</time>
      </trkpt>
      <trkpt lat="10.1571613098402" lon="-75.6825079014382">
        <ele>52.421895</ele>
        <time>2019-09-10T15:12:01.900Z</time>
      </trkpt>
      <trkpt lat="10.1571595561232" lon="-75.6825057929777">
        <ele>52.421895</ele>
        <time>2019-09-10T15:12:02.000Z</time>
      </trkpt>
      <trkpt lat="10.1571578497224" lon="-75.6825037223947">
        <ele>52.421895</ele>
        <time>2019-09-10T15:12:02.100Z</time>
      </trkpt>
      <trkpt lat="10.1571561621854" lon="-75.6825016625342">
        <ele>52.421895</ele>
        <time>2019-09-10T15:12:02.200Z</time>
      </trkpt>
      <trkpt lat="10.1571544853831" lon="-75.6824996136749">
        <ele>52.421895</ele>
        <time>2019-09-10T15:12:02.300Z</time>
      </trkpt>
      <trkpt lat="10.1571527940942" lon="-75.6824975366861">
        <ele>52.421895</ele>
        <time>2019-09-10T15:12:02.400Z</time>
      </trkpt>
      <trkpt lat="10.1571511124978" lon="-75.6824954503673">
        <ele>52.421895</ele>
        <time>2019-09-10T15:12:02.500Z</time>
      </trkpt>
      <trkpt lat="10.1571494210004" lon="-75.6824933364759">
        <ele>52.421895</ele>
        <time>2019-09-10T15:12:02.600Z</time>
      </trkpt>
      <trkpt lat="10.1571477388829" lon="-75.6824912179891">
        <ele>52.421895</ele>
        <time>2019-09-10T15:12:02.700Z</time>
      </trkpt>
      <trkpt lat="10.1571460431125" lon="-75.682489091704">
        <ele>52.421895</ele>
        <time>2019-09-10T15:12:02.800Z</time>
      </trkpt>
      <trkpt lat="10.1571443292078" lon="-75.6824869896493">
        <ele>52.421895</ele>
        <time>2019-09-10T15:12:02.900Z</time>
      </trkpt>
      <trkpt lat="10.1571425992531" lon="-75.6824848937218">
        <ele>52.521895</ele>
        <time>2019-09-10T15:12:03.000Z</time>
      </trkpt>
      <trkpt lat="10.1571408817007" lon="-75.6824828163153">
        <ele>52.521895</ele>
        <time>2019-09-10T15:12:03.100Z</time>
      </trkpt>
      <trkpt lat="10.1571391723816" lon="-75.6824807352881">
        <ele>52.421895</ele>
        <time>2019-09-10T15:12:03.200Z</time>
      </trkpt>
      <trkpt lat="10.1571357855308" lon="-75.6824765811712">
        <ele>52.421895</ele>
        <time>2019-09-10T15:12:03.400Z</time>
      </trkpt>
      <trkpt lat="10.1571324033698" lon="-75.6824724157747">
        <ele>52.421895</ele>
        <time>2019-09-10T15:12:03.600Z</time>
      </trkpt>
      <trkpt lat="10.1571289209489" lon="-75.682468174902">
        <ele>52.421895</ele>
        <time>2019-09-10T15:12:03.800Z</time>
      </trkpt>
      <trkpt lat="10.1571271916195" lon="-75.682466064492">
        <ele>52.421895</ele>
        <time>2019-09-10T15:12:03.900Z</time>
      </trkpt>
      <trkpt lat="10.1571254760473" lon="-75.6824639720459">
        <ele>52.421895</ele>
        <time>2019-09-10T15:12:04.000Z</time>
      </trkpt>
      <trkpt lat="10.157123777046" lon="-75.6824618985384">
        <ele>52.421895</ele>
        <time>2019-09-10T15:12:04.100Z</time>
      </trkpt>
      <trkpt lat="10.1571220697072" lon="-75.6824598205749">
        <ele>52.421895</ele>
        <time>2019-09-10T15:12:04.200Z</time>
      </trkpt>
      <trkpt lat="10.1571203612219" lon="-75.6824577167098">
        <ele>52.421895</ele>
        <time>2019-09-10T15:12:04.300Z</time>
      </trkpt>
      <trkpt lat="10.1571186318925" lon="-75.6824555802591">
        <ele>52.421895</ele>
        <time>2019-09-10T15:12:04.400Z</time>
      </trkpt>
      <trkpt lat="10.1571169191342" lon="-75.6824534477772">
        <ele>52.421895</ele>
        <time>2019-09-10T15:12:04.500Z</time>
      </trkpt>
      <trkpt lat="10.1571152008522" lon="-75.682451325252">
        <ele>52.421895</ele>
        <time>2019-09-10T15:12:04.600Z</time>
      </trkpt>
      <trkpt lat="10.1571134634979" lon="-75.6824491719515">
        <ele>52.421895</ele>
        <time>2019-09-10T15:12:04.700Z</time>
      </trkpt>
      <trkpt lat="10.1571116981083" lon="-75.6824470086245">
        <ele>52.421895</ele>
        <time>2019-09-10T15:12:04.800Z</time>
      </trkpt>
      <trkpt lat="10.157109934282" lon="-75.6824448567862">
        <ele>52.421895</ele>
        <time>2019-09-10T15:12:04.900Z</time>
      </trkpt>
      <trkpt lat="10.1571081726443" lon="-75.6824427302922">
        <ele>52.421895</ele>
        <time>2019-09-10T15:12:05.000Z</time>
      </trkpt>
      <trkpt lat="10.1571064434191" lon="-75.6824405994814">
        <ele>52.421895</ele>
        <time>2019-09-10T15:12:05.100Z</time>
      </trkpt>
      <trkpt lat="10.1571047220105" lon="-75.6824384711771">
        <ele>52.421895</ele>
        <time>2019-09-10T15:12:05.200Z</time>
      </trkpt>
      <trkpt lat="10.1571030121704" lon="-75.6824363350049">
        <ele>52.421895</ele>
        <time>2019-09-10T15:12:05.300Z</time>
      </trkpt>
      <trkpt lat="10.1571012863845" lon="-75.682434203637">
        <ele>52.421895</ele>
        <time>2019-09-10T15:12:05.400Z</time>
      </trkpt>
      <trkpt lat="10.1570995434023" lon="-75.6824320806244">
        <ele>52.421895</ele>
        <time>2019-09-10T15:12:05.500Z</time>
      </trkpt>
      <trkpt lat="10.1570977762409" lon="-75.6824299713981">
        <ele>52.421895</ele>
        <time>2019-09-10T15:12:05.600Z</time>
      </trkpt>
      <trkpt lat="10.1570960351347" lon="-75.6824278691345">
        <ele>52.421895</ele>
        <time>2019-09-10T15:12:05.700Z</time>
      </trkpt>
      <trkpt lat="10.1570943055969" lon="-75.6824257713271">
        <ele>52.421895</ele>
        <time>2019-09-10T15:12:05.800Z</time>
      </trkpt>
      <trkpt lat="10.1570925666792" lon="-75.6824236820838">
        <ele>52.421895</ele>
        <time>2019-09-10T15:12:05.900Z</time>
      </trkpt>
      <trkpt lat="10.1570908058753" lon="-75.6824215938154">
        <ele>52.421895</ele>
        <time>2019-09-10T15:12:06.000Z</time>
      </trkpt>
      <trkpt lat="10.1570890711265" lon="-75.6824195109779">
        <ele>52.421895</ele>
        <time>2019-09-10T15:12:06.100Z</time>
      </trkpt>
      <trkpt lat="10.1570873456533" lon="-75.6824174272352">
        <ele>52.421895</ele>
        <time>2019-09-10T15:12:06.200Z</time>
      </trkpt>
      <trkpt lat="10.157085590373" lon="-75.6824153147364">
        <ele>52.421895</ele>
        <time>2019-09-10T15:12:06.300Z</time>
      </trkpt>
      <trkpt lat="10.1570838072659" lon="-75.6824131904705">
        <ele>52.421895</ele>
        <time>2019-09-10T15:12:06.400Z</time>
      </trkpt>
      <trkpt lat="10.1570820495886" lon="-75.6824110810353">
        <ele>52.421895</ele>
        <time>2019-09-10T15:12:06.500Z</time>
      </trkpt>
      <trkpt lat="10.157080304522" lon="-75.6824089903298">
        <ele>52.421895</ele>
        <time>2019-09-10T15:12:06.600Z</time>
      </trkpt>
      <trkpt lat="10.1570785459067" lon="-75.6824069023399">
        <ele>52.421895</ele>
        <time>2019-09-10T15:12:06.700Z</time>
      </trkpt>
      <trkpt lat="10.1570767696781" lon="-75.6824048066909">
        <ele>52.421895</ele>
        <time>2019-09-10T15:12:06.800Z</time>
      </trkpt>
      <trkpt lat="10.1570749815685" lon="-75.6824027049844">
        <ele>52.421895</ele>
        <time>2019-09-10T15:12:06.900Z</time>
      </trkpt>
      <trkpt lat="10.1570731889773" lon="-75.6824006020245">
        <ele>52.421895</ele>
        <time>2019-09-10T15:12:07.000Z</time>
      </trkpt>
      <trkpt lat="10.1570713905498" lon="-75.6823984994824">
        <ele>52.421895</ele>
        <time>2019-09-10T15:12:07.100Z</time>
      </trkpt>
      <trkpt lat="10.157069597646" lon="-75.6823963961048">
        <ele>52.421895</ele>
        <time>2019-09-10T15:12:07.200Z</time>
      </trkpt>
      <trkpt lat="10.1570678285044" lon="-75.6823942937019">
        <ele>52.421895</ele>
        <time>2019-09-10T15:12:07.300Z</time>
      </trkpt>
      <trkpt lat="10.1570660769761" lon="-75.6823921890014">
        <ele>52.421895</ele>
        <time>2019-09-10T15:12:07.400Z</time>
      </trkpt>
      <trkpt lat="10.1570625594329" lon="-75.6823879807143">
        <ele>52.421895</ele>
        <time>2019-09-10T15:12:07.600Z</time>
      </trkpt>
      <trkpt lat="10.1570608082172" lon="-75.6823858787989">
        <ele>52.421895</ele>
        <time>2019-09-10T15:12:07.700Z</time>
      </trkpt>
      <trkpt lat="10.1570590623168" lon="-75.682383775282">
        <ele>52.421895</ele>
        <time>2019-09-10T15:12:07.800Z</time>
      </trkpt>
      <trkpt lat="10.1570573299651" lon="-75.6823816721829">
        <ele>52.421895</ele>
        <time>2019-09-10T15:12:07.900Z</time>
      </trkpt>
      <trkpt lat="10.15705559605" lon="-75.6823795642795">
        <ele>52.421895</ele>
        <time>2019-09-10T15:12:08.000Z</time>
      </trkpt>
      <trkpt lat="10.1570538700557" lon="-75.6823774544961">
        <ele>52.421895</ele>
        <time>2019-09-10T15:12:08.100Z</time>
      </trkpt>
      <trkpt lat="10.1570521371829" lon="-75.6823753409529">
        <ele>52.421895</ele>
        <time>2019-09-10T15:12:08.200Z</time>
      </trkpt>
      <trkpt lat="10.1570503856545" lon="-75.6823732317265">
        <ele>52.421895</ele>
        <time>2019-09-10T15:12:08.300Z</time>
      </trkpt>
      <trkpt lat="10.1570486189101" lon="-75.6823711206899">
        <ele>52.421895</ele>
        <time>2019-09-10T15:12:08.400Z</time>
      </trkpt>
      <trkpt lat="10.157046852374" lon="-75.6823690195403">
        <ele>52.421895</ele>
        <time>2019-09-10T15:12:08.500Z</time>
      </trkpt>
      <trkpt lat="10.1570450937587" lon="-75.6823669169983">
        <ele>52.421895</ele>
        <time>2019-09-10T15:12:08.600Z</time>
      </trkpt>
      <trkpt lat="10.157043323575" lon="-75.6823647985115">
        <ele>52.421895</ele>
        <time>2019-09-10T15:12:08.700Z</time>
      </trkpt>
      <trkpt lat="10.1570415488055" lon="-75.6823626664473">
        <ele>52.421895</ele>
        <time>2019-09-10T15:12:08.800Z</time>
      </trkpt>
      <trkpt lat="10.1570397360998" lon="-75.6823605425992">
        <ele>52.421895</ele>
        <time>2019-09-10T15:12:08.900Z</time>
      </trkpt>
      <trkpt lat="10.1570379197464" lon="-75.6823584297522">
        <ele>52.421895</ele>
        <time>2019-09-10T15:12:09.000Z</time>
      </trkpt>
      <trkpt lat="10.1570361200683" lon="-75.6823563292989">
        <ele>52.421895</ele>
        <time>2019-09-10T15:12:09.100Z</time>
      </trkpt>
      <trkpt lat="10.1570343478001" lon="-75.6823542321878">
        <ele>52.421895</ele>
        <time>2019-09-10T15:12:09.200Z</time>
      </trkpt>
      <trkpt lat="10.1570326147188" lon="-75.6823521648772">
        <ele>52.421895</ele>
        <time>2019-09-10T15:12:09.300Z</time>
      </trkpt>
      <trkpt lat="10.1570308972706" lon="-75.6823501018836">
        <ele>52.421895</ele>
        <time>2019-09-10T15:12:09.400Z</time>
      </trkpt>
      <trkpt lat="10.1570292313072" lon="-75.682348062424">
        <ele>52.421895</ele>
        <time>2019-09-10T15:12:09.500Z</time>
      </trkpt>
      <trkpt lat="10.1570275721182" lon="-75.6823460150269">
        <ele>52.421895</ele>
        <time>2019-09-10T15:12:09.600Z</time>
      </trkpt>
      <trkpt lat="10.1570259237681" lon="-75.6823439857329">
        <ele>52.421895</ele>
        <time>2019-09-10T15:12:09.700Z</time>
      </trkpt>
      <trkpt lat="10.1570225592204" lon="-75.682339868449">
        <ele>52.421895</ele>
        <time>2019-09-10T15:12:09.900Z</time>
      </trkpt>
      <trkpt lat="10.1570208628247" lon="-75.6823377743319">
        <ele>52.421895</ele>
        <time>2019-09-10T15:12:10.000Z</time>
      </trkpt>
      <trkpt lat="10.1570191802903" lon="-75.6823356562628">
        <ele>52.421895</ele>
        <time>2019-09-10T15:12:10.100Z</time>
      </trkpt>
      <trkpt lat="10.1570174792047" lon="-75.6823335186981">
        <ele>52.421895</ele>
        <time>2019-09-10T15:12:10.200Z</time>
      </trkpt>
      <trkpt lat="10.1570157715532" lon="-75.6823313819689">
        <ele>52.421895</ele>
        <time>2019-09-10T15:12:10.300Z</time>
      </trkpt>
      <trkpt lat="10.1570140425365" lon="-75.6823292552661">
        <ele>52.321895</ele>
        <time>2019-09-10T15:12:10.400Z</time>
      </trkpt>
      <trkpt lat="10.1570123315499" lon="-75.6823271349689">
        <ele>52.321895</ele>
        <time>2019-09-10T15:12:10.500Z</time>
      </trkpt>
      <trkpt lat="10.1570106205633" lon="-75.6823250189887">
        <ele>52.321895</ele>
        <time>2019-09-10T15:12:10.600Z</time>
      </trkpt>
      <trkpt lat="10.157008908743" lon="-75.6823228924948">
        <ele>52.321895</ele>
        <time>2019-09-10T15:12:10.700Z</time>
      </trkpt>
      <trkpt lat="10.1570071832698" lon="-75.6823207558352">
        <ele>52.321895</ele>
        <time>2019-09-10T15:12:10.800Z</time>
      </trkpt>
      <trkpt lat="10.1570054716579" lon="-75.6823186253028">
        <ele>52.321895</ele>
        <time>2019-09-10T15:12:10.900Z</time>
      </trkpt>
      <trkpt lat="10.1570037629642" lon="-75.6823165038917">
        <ele>52.321895</ele>
        <time>2019-09-10T15:12:11.000Z</time>
      </trkpt>
      <trkpt lat="10.1570020530198" lon="-75.6823143711312">
        <ele>52.321895</ele>
        <time>2019-09-10T15:12:11.100Z</time>
      </trkpt>
      <trkpt lat="10.1570003236905" lon="-75.6823122346806">
        <ele>52.321895</ele>
        <time>2019-09-10T15:12:11.200Z</time>
      </trkpt>
      <trkpt lat="10.1569985877952" lon="-75.6823101107628">
        <ele>52.321895</ele>
        <time>2019-09-10T15:12:11.300Z</time>
      </trkpt>
      <trkpt lat="10.1569968430413" lon="-75.6823080002136">
        <ele>52.321895</ele>
        <time>2019-09-10T15:12:11.400Z</time>
      </trkpt>
      <trkpt lat="10.1569933003809" lon="-75.6823037431872">
        <ele>52.321895</ele>
        <time>2019-09-10T15:12:11.600Z</time>
      </trkpt>
      <trkpt lat="10.1569915932505" lon="-75.6823016769211">
        <ele>52.321895</ele>
        <time>2019-09-10T15:12:11.700Z</time>
      </trkpt>
      <trkpt lat="10.1569899533422" lon="-75.6822996616919">
        <ele>52.321895</ele>
        <time>2019-09-10T15:12:11.800Z</time>
      </trkpt>
      <trkpt lat="10.1569883634598" lon="-75.6822976833653">
        <ele>52.321895</ele>
        <time>2019-09-10T15:12:11.900Z</time>
      </trkpt>
      <trkpt lat="10.1569867579443" lon="-75.6822957055261">
        <ele>52.321895</ele>
        <time>2019-09-10T15:12:12.000Z</time>
      </trkpt>
      <trkpt lat="10.1569851450291" lon="-75.6822937461381">
        <ele>52.321895</ele>
        <time>2019-09-10T15:12:12.100Z</time>
      </trkpt>
      <trkpt lat="10.1569834962621" lon="-75.682291775192">
        <ele>52.321895</ele>
        <time>2019-09-10T15:12:12.200Z</time>
      </trkpt>
      <trkpt lat="10.1569818371773" lon="-75.6822898088414">
        <ele>52.321895</ele>
        <time>2019-09-10T15:12:12.300Z</time>
      </trkpt>
      <trkpt lat="10.1569801670452" lon="-75.6822878429085">
        <ele>52.321895</ele>
        <time>2019-09-10T15:12:12.400Z</time>
      </trkpt>
      <trkpt lat="10.156978497851" lon="-75.6822858951483">
        <ele>52.321895</ele>
        <time>2019-09-10T15:12:12.500Z</time>
      </trkpt>
      <trkpt lat="10.1569768216741" lon="-75.6822839536547">
        <ele>52.321895</ele>
        <time>2019-09-10T15:12:12.600Z</time>
      </trkpt>
      <trkpt lat="10.1569751300725" lon="-75.6822820190541">
        <ele>52.321895</ele>
        <time>2019-09-10T15:12:12.700Z</time>
      </trkpt>
      <trkpt lat="10.1569734092892" lon="-75.6822800633565">
        <ele>52.321895</ele>
        <time>2019-09-10T15:12:12.800Z</time>
      </trkpt>
      <trkpt lat="10.1569716773543" lon="-75.6822780958918">
        <ele>52.321895</ele>
        <time>2019-09-10T15:12:12.900Z</time>
      </trkpt>
      <trkpt lat="10.15696994" lon="-75.6822761036397">
        <ele>52.321895</ele>
        <time>2019-09-10T15:12:13.000Z</time>
      </trkpt>
      <trkpt lat="10.1569681830522" lon="-75.6822740664778">
        <ele>52.321895</ele>
        <time>2019-09-10T15:12:13.100Z</time>
      </trkpt>
      <trkpt lat="10.1569664267298" lon="-75.6822720032752">
        <ele>52.321895</ele>
        <time>2019-09-10T15:12:13.200Z</time>
      </trkpt>
      <trkpt lat="10.1569646994848" lon="-75.6822699377054">
        <ele>52.321895</ele>
        <time>2019-09-10T15:12:13.300Z</time>
      </trkpt>
      <trkpt lat="10.1569630004836" lon="-75.682267881953">
        <ele>52.321895</ele>
        <time>2019-09-10T15:12:13.400Z</time>
      </trkpt>
      <trkpt lat="10.156961302733" lon="-75.6822657996028">
        <ele>52.321895</ele>
        <time>2019-09-10T15:12:13.500Z</time>
      </trkpt>
      <trkpt lat="10.1569595957068" lon="-75.6822636864077">
        <ele>52.321895</ele>
        <time>2019-09-10T15:12:13.600Z</time>
      </trkpt>
      <trkpt lat="10.1569579193215" lon="-75.6822615555272">
        <ele>52.321895</ele>
        <time>2019-09-10T15:12:13.700Z</time>
      </trkpt>
      <trkpt lat="10.1569562444994" lon="-75.6822594476935">
        <ele>52.321895</ele>
        <time>2019-09-10T15:12:13.800Z</time>
      </trkpt>
      <trkpt lat="10.156954546853" lon="-75.6822573478668">
        <ele>52.321895</ele>
        <time>2019-09-10T15:12:13.900Z</time>
      </trkpt>
      <trkpt lat="10.1569528176279" lon="-75.6822552349502">
        <ele>52.321895</ele>
        <time>2019-09-10T15:12:14.000Z</time>
      </trkpt>
      <trkpt lat="10.1569510725612" lon="-75.6822531336614">
        <ele>52.321895</ele>
        <time>2019-09-10T15:12:14.100Z</time>
      </trkpt>
      <trkpt lat="10.1569493159261" lon="-75.6822510297964">
        <ele>52.321895</ele>
        <time>2019-09-10T15:12:14.200Z</time>
      </trkpt>
      <trkpt lat="10.1569476102548" lon="-75.6822489801016">
        <ele>52.321895</ele>
        <time>2019-09-10T15:12:14.300Z</time>
      </trkpt>
      <trkpt lat="10.1569459292837" lon="-75.6822469570741">
        <ele>52.321895</ele>
        <time>2019-09-10T15:12:14.400Z</time>
      </trkpt>
      <trkpt lat="10.1569442509181" lon="-75.6822449357177">
        <ele>52.321895</ele>
        <time>2019-09-10T15:12:14.500Z</time>
      </trkpt>
      <trkpt lat="10.1569425353459" lon="-75.6822428771802">
        <ele>52.321895</ele>
        <time>2019-09-10T15:12:14.600Z</time>
      </trkpt>
      <trkpt lat="10.1569408188356" lon="-75.6822407908613">
        <ele>52.321895</ele>
        <time>2019-09-10T15:12:14.700Z</time>
      </trkpt>
      <trkpt lat="10.1569390847121" lon="-75.6822386675702">
        <ele>52.321895</ele>
        <time>2019-09-10T15:12:14.800Z</time>
      </trkpt>
      <trkpt lat="10.1569373510055" lon="-75.6822365325817">
        <ele>52.321895</ele>
        <time>2019-09-10T15:12:14.900Z</time>
      </trkpt>
      <trkpt lat="10.1569338748378" lon="-75.6822322559204">
        <ele>52.321895</ele>
        <time>2019-09-10T15:12:15.100Z</time>
      </trkpt>
      <trkpt lat="10.1569321362328" lon="-75.6822301283124">
        <ele>52.321895</ele>
        <time>2019-09-10T15:12:15.200Z</time>
      </trkpt>
      <trkpt lat="10.1569303951265" lon="-75.6822279863612">
        <ele>52.321895</ele>
        <time>2019-09-10T15:12:15.300Z</time>
      </trkpt>
      <trkpt lat="10.1569286452657" lon="-75.6822258347317">
        <ele>52.321895</ele>
        <time>2019-09-10T15:12:15.400Z</time>
      </trkpt>
      <trkpt lat="10.1569268993653" lon="-75.6822236890205">
        <ele>52.321895</ele>
        <time>2019-09-10T15:12:15.500Z</time>
      </trkpt>
      <trkpt lat="10.1569251460653" lon="-75.682221549924">
        <ele>52.321895</ele>
        <time>2019-09-10T15:12:15.600Z</time>
      </trkpt>
      <trkpt lat="10.1569233948496" lon="-75.6822194118719">
        <ele>52.321895</ele>
        <time>2019-09-10T15:12:15.700Z</time>
      </trkpt>
      <trkpt lat="10.156921637485" lon="-75.6822172751426">
        <ele>52.321895</ele>
        <time>2019-09-10T15:12:15.800Z</time>
      </trkpt>
      <trkpt lat="10.1569198711574" lon="-75.682215134375">
        <ele>52.321895</ele>
        <time>2019-09-10T15:12:15.900Z</time>
      </trkpt>
      <trkpt lat="10.1569180990977" lon="-75.6822129954874">
        <ele>52.321895</ele>
        <time>2019-09-10T15:12:16.000Z</time>
      </trkpt>
      <trkpt lat="10.1569163512171" lon="-75.6822108746333">
        <ele>52.321895</ele>
        <time>2019-09-10T15:12:16.100Z</time>
      </trkpt>
      <trkpt lat="10.1569146103192" lon="-75.6822087582353">
        <ele>52.321895</ele>
        <time>2019-09-10T15:12:16.200Z</time>
      </trkpt>
      <trkpt lat="10.1569128747366" lon="-75.682206644135">
        <ele>52.321895</ele>
        <time>2019-09-10T15:12:16.300Z</time>
      </trkpt>
      <trkpt lat="10.1569111321713" lon="-75.6822045156219">
        <ele>52.321895</ele>
        <time>2019-09-10T15:12:16.400Z</time>
      </trkpt>
      <trkpt lat="10.1569093977351" lon="-75.6822023779875">
        <ele>52.321895</ele>
        <time>2019-09-10T15:12:16.500Z</time>
      </trkpt>
      <trkpt lat="10.156907658088" lon="-75.6822002272632">
        <ele>52.321895</ele>
        <time>2019-09-10T15:12:16.600Z</time>
      </trkpt>
      <trkpt lat="10.1569059086441" lon="-75.6821980523781">
        <ele>52.321895</ele>
        <time>2019-09-10T15:12:16.700Z</time>
      </trkpt>
      <trkpt lat="10.1569041458599" lon="-75.682195870948">
        <ele>52.321895</ele>
        <time>2019-09-10T15:12:16.800Z</time>
      </trkpt>
      <trkpt lat="10.1569024082972" lon="-75.6821937376305">
        <ele>52.321895</ele>
        <time>2019-09-10T15:12:16.900Z</time>
      </trkpt>
      <trkpt lat="10.156900681886" lon="-75.6821916246443">
        <ele>52.321895</ele>
        <time>2019-09-10T15:12:17.000Z</time>
      </trkpt>
      <trkpt lat="10.1568989648546" lon="-75.6821895358188">
        <ele>52.321895</ele>
        <time>2019-09-10T15:12:17.100Z</time>
      </trkpt>
      <trkpt lat="10.156897233024" lon="-75.6821874384292">
        <ele>52.321895</ele>
        <time>2019-09-10T15:12:17.200Z</time>
      </trkpt>
      <trkpt lat="10.1568955019229" lon="-75.6821853481415">
        <ele>52.321895</ele>
        <time>2019-09-10T15:12:17.300Z</time>
      </trkpt>
      <trkpt lat="10.1568937610251" lon="-75.6821832417003">
        <ele>52.321895</ele>
        <time>2019-09-10T15:12:17.400Z</time>
      </trkpt>
      <trkpt lat="10.1568920229412" lon="-75.6821811262075">
        <ele>52.221895</ele>
        <time>2019-09-10T15:12:17.500Z</time>
      </trkpt>
      <trkpt lat="10.1568902726635" lon="-75.6821789919153">
        <ele>52.321895</ele>
        <time>2019-09-10T15:12:17.600Z</time>
      </trkpt>
      <trkpt lat="10.1568885261378" lon="-75.6821768642376">
        <ele>52.321895</ele>
        <time>2019-09-10T15:12:17.700Z</time>
      </trkpt>
      <trkpt lat="10.1568867711702" lon="-75.6821747331482">
        <ele>52.321895</ele>
        <time>2019-09-10T15:12:17.800Z</time>
      </trkpt>
      <trkpt lat="10.1568850213094" lon="-75.682172585766">
        <ele>52.321895</ele>
        <time>2019-09-10T15:12:17.900Z</time>
      </trkpt>
      <trkpt lat="10.1568832646743" lon="-75.6821704188881">
        <ele>52.321895</ele>
        <time>2019-09-10T15:12:18.000Z</time>
      </trkpt>
      <trkpt lat="10.156881544829" lon="-75.6821682801397">
        <ele>52.321895</ele>
        <time>2019-09-10T15:12:18.100Z</time>
      </trkpt>
      <trkpt lat="10.1568798324876" lon="-75.6821661622795">
        <ele>52.321895</ele>
        <time>2019-09-10T15:12:18.200Z</time>
      </trkpt>
      <trkpt lat="10.1568781000316" lon="-75.6821639949839">
        <ele>52.221895</ele>
        <time>2019-09-10T15:12:18.300Z</time>
      </trkpt>
      <trkpt lat="10.1568763181752" lon="-75.6821617798541">
        <ele>52.221895</ele>
        <time>2019-09-10T15:12:18.400Z</time>
      </trkpt>
      <trkpt lat="10.1568745339216" lon="-75.6821595971707">
        <ele>52.221895</ele>
        <time>2019-09-10T15:12:18.500Z</time>
      </trkpt>
      <trkpt lat="10.1568727459162" lon="-75.6821574511114">
        <ele>52.221895</ele>
        <time>2019-09-10T15:12:18.600Z</time>
      </trkpt>
      <trkpt lat="10.1568709529082" lon="-75.6821552996212">
        <ele>52.221895</ele>
        <time>2019-09-10T15:12:18.700Z</time>
      </trkpt>
      <trkpt lat="10.1568691585453" lon="-75.6821531360854">
        <ele>52.321895</ele>
        <time>2019-09-10T15:12:18.800Z</time>
      </trkpt>
      <trkpt lat="10.1568673600135" lon="-75.6821509778413">
        <ele>52.321895</ele>
        <time>2019-09-10T15:12:18.900Z</time>
      </trkpt>
      <trkpt lat="10.1568655575214" lon="-75.6821488321997">
        <ele>52.321895</ele>
        <time>2019-09-10T15:12:19.000Z</time>
      </trkpt>
      <trkpt lat="10.1568637499226" lon="-75.6821466901788">
        <ele>52.221895</ele>
        <time>2019-09-10T15:12:19.100Z</time>
      </trkpt>
      <trkpt lat="10.1568619397182" lon="-75.6821445478794">
        <ele>52.221895</ele>
        <time>2019-09-10T15:12:19.200Z</time>
      </trkpt>
      <trkpt lat="10.1568582159227" lon="-75.6821400711087">
        <ele>52.221895</ele>
        <time>2019-09-10T15:12:19.400Z</time>
      </trkpt>
      <trkpt lat="10.156856377683" lon="-75.6821378509657">
        <ele>52.221895</ele>
        <time>2019-09-10T15:12:19.500Z</time>
      </trkpt>
      <trkpt lat="10.1568545737318" lon="-75.6821356835308">
        <ele>52.221895</ele>
        <time>2019-09-10T15:12:19.600Z</time>
      </trkpt>
      <trkpt lat="10.1568527754086" lon="-75.6821335390729">
        <ele>52.321895</ele>
        <time>2019-09-10T15:12:19.700Z</time>
      </trkpt>
      <trkpt lat="10.1568509782317" lon="-75.6821314122308">
        <ele>52.321895</ele>
        <time>2019-09-10T15:12:19.800Z</time>
      </trkpt>
      <trkpt lat="10.1568492087775" lon="-75.6821293256334">
        <ele>52.321895</ele>
        <time>2019-09-10T15:12:19.900Z</time>
      </trkpt>
      <trkpt lat="10.1568474528719" lon="-75.6821272583925">
        <ele>52.321895</ele>
        <time>2019-09-10T15:12:20.000Z</time>
      </trkpt>
      <trkpt lat="10.1568457233341" lon="-75.6821252354346">
        <ele>52.321895</ele>
        <time>2019-09-10T15:12:20.100Z</time>
      </trkpt>
      <trkpt lat="10.1568439970272" lon="-75.6821232194395">
        <ele>52.321895</ele>
        <time>2019-09-10T15:12:20.200Z</time>
      </trkpt>
      <trkpt lat="10.1568422674894" lon="-75.6821211813029">
        <ele>52.321895</ele>
        <time>2019-09-10T15:12:20.300Z</time>
      </trkpt>
      <trkpt lat="10.1568405205467" lon="-75.6821191055674">
        <ele>52.321895</ele>
        <time>2019-09-10T15:12:20.400Z</time>
      </trkpt>
      <trkpt lat="10.156838779232" lon="-75.6821170283697">
        <ele>52.321895</ele>
        <time>2019-09-10T15:12:20.500Z</time>
      </trkpt>
      <trkpt lat="10.1568370358329" lon="-75.6821149497795">
        <ele>52.321895</ele>
        <time>2019-09-10T15:12:20.600Z</time>
      </trkpt>
      <trkpt lat="10.1568352960815" lon="-75.6821128750187">
        <ele>52.321895</ele>
        <time>2019-09-10T15:12:20.700Z</time>
      </trkpt>
      <trkpt lat="10.1568335599778" lon="-75.6821108015113">
        <ele>52.321895</ele>
        <time>2019-09-10T15:12:20.800Z</time>
      </trkpt>
      <trkpt lat="10.156831843676" lon="-75.6821087172116">
        <ele>52.321895</ele>
        <time>2019-09-10T15:12:20.900Z</time>
      </trkpt>
      <trkpt lat="10.1568301350865" lon="-75.6821066166887">
        <ele>52.321895</ele>
        <time>2019-09-10T15:12:21.000Z</time>
      </trkpt>
      <trkpt lat="10.1568284313954" lon="-75.6821045303002">
        <ele>52.321895</ele>
        <time>2019-09-10T15:12:21.100Z</time>
      </trkpt>
      <trkpt lat="10.1568267215552" lon="-75.6821024476716">
        <ele>52.321895</ele>
        <time>2019-09-10T15:12:21.200Z</time>
      </trkpt>
      <trkpt lat="10.156825023492" lon="-75.6821003815447">
        <ele>52.321895</ele>
        <time>2019-09-10T15:12:21.300Z</time>
      </trkpt>
      <trkpt lat="10.1568233265752" lon="-75.6820983131201">
        <ele>52.321895</ele>
        <time>2019-09-10T15:12:21.400Z</time>
      </trkpt>
      <trkpt lat="10.156821637058" lon="-75.6820962432333">
        <ele>52.321895</ele>
        <time>2019-09-10T15:12:21.500Z</time>
      </trkpt>
      <trkpt lat="10.1568199382653" lon="-75.6820941551737">
        <ele>52.321895</ele>
        <time>2019-09-10T15:12:21.600Z</time>
      </trkpt>
      <trkpt lat="10.1568182480186" lon="-75.6820920864706">
        <ele>52.321895</ele>
        <time>2019-09-10T15:12:21.700Z</time>
      </trkpt>
      <trkpt lat="10.1568165527693" lon="-75.6820900172801">
        <ele>52.321895</ele>
        <time>2019-09-10T15:12:21.800Z</time>
      </trkpt>
      <trkpt lat="10.1568148535596" lon="-75.6820879196815">
        <ele>52.321895</ele>
        <time>2019-09-10T15:12:21.900Z</time>
      </trkpt>
      <trkpt lat="10.156813141114" lon="-75.682085798897">
        <ele>52.321895</ele>
        <time>2019-09-10T15:12:22.000Z</time>
      </trkpt>
      <trkpt lat="10.1568114406537" lon="-75.6820837065902">
        <ele>52.321895</ele>
        <time>2019-09-10T15:12:22.100Z</time>
      </trkpt>
      <trkpt lat="10.1568097465508" lon="-75.6820816546673">
        <ele>52.321895</ele>
        <time>2019-09-10T15:12:22.200Z</time>
      </trkpt>
      <trkpt lat="10.1568081009104" lon="-75.68207966339">
        <ele>52.321895</ele>
        <time>2019-09-10T15:12:22.300Z</time>
      </trkpt>
      <trkpt lat="10.1568064601684" lon="-75.6820776912602">
        <ele>52.221895</ele>
        <time>2019-09-10T15:12:22.400Z</time>
      </trkpt>
      <trkpt lat="10.1568048412085" lon="-75.6820757751806">
        <ele>52.221895</ele>
        <time>2019-09-10T15:12:22.500Z</time>
      </trkpt>
      <trkpt lat="10.1568031954639" lon="-75.682073863209">
        <ele>52.221895</ele>
        <time>2019-09-10T15:12:22.600Z</time>
      </trkpt>
      <trkpt lat="10.1568015476349" lon="-75.6820719724042">
        <ele>52.221895</ele>
        <time>2019-09-10T15:12:22.700Z</time>
      </trkpt>
      <trkpt lat="10.1567998704158" lon="-75.6820700501974">
        <ele>52.221895</ele>
        <time>2019-09-10T15:12:22.800Z</time>
      </trkpt>
      <trkpt lat="10.1567981928839" lon="-75.6820681121851">
        <ele>52.221895</ele>
        <time>2019-09-10T15:12:22.900Z</time>
      </trkpt>
      <trkpt lat="10.1567964952376" lon="-75.6820661289149">
        <ele>52.221895</ele>
        <time>2019-09-10T15:12:23.000Z</time>
      </trkpt>
      <trkpt lat="10.1567948066584" lon="-75.6820640927975">
        <ele>52.221895</ele>
        <time>2019-09-10T15:12:23.100Z</time>
      </trkpt>
      <trkpt lat="10.1567931077614" lon="-75.6820620291772">
        <ele>52.221895</ele>
        <time>2019-09-10T15:12:23.200Z</time>
      </trkpt>
      <trkpt lat="10.1567914069885" lon="-75.6820599346423">
        <ele>52.221895</ele>
        <time>2019-09-10T15:12:23.300Z</time>
      </trkpt>
      <trkpt lat="10.1567896958977" lon="-75.6820578369741">
        <ele>52.221895</ele>
        <time>2019-09-10T15:12:23.400Z</time>
      </trkpt>
      <trkpt lat="10.1567879725089" lon="-75.6820557155629">
        <ele>52.221895</ele>
        <time>2019-09-10T15:12:23.500Z</time>
      </trkpt>
      <trkpt lat="10.1567862295266" lon="-75.6820535947784">
        <ele>52.221895</ele>
        <time>2019-09-10T15:12:23.600Z</time>
      </trkpt>
      <trkpt lat="10.1567827224054" lon="-75.6820493041917">
        <ele>52.321895</ele>
        <time>2019-09-10T15:12:23.800Z</time>
      </trkpt>
      <trkpt lat="10.1567809559736" lon="-75.6820471742859">
        <ele>52.321895</ele>
        <time>2019-09-10T15:12:23.900Z</time>
      </trkpt>
      <trkpt lat="10.1567791866236" lon="-75.6820450688891">
        <ele>52.321895</ele>
        <time>2019-09-10T15:12:24.000Z</time>
      </trkpt>
      <trkpt lat="10.1567774004941" lon="-75.6820429758164">
        <ele>52.321895</ele>
        <time>2019-09-10T15:12:24.100Z</time>
      </trkpt>
      <trkpt lat="10.1567756073819" lon="-75.6820408886619">
        <ele>52.321895</ele>
        <time>2019-09-10T15:12:24.200Z</time>
      </trkpt>
      <trkpt lat="10.1567738265676" lon="-75.6820388199588">
        <ele>52.321895</ele>
        <time>2019-09-10T15:12:24.300Z</time>
      </trkpt>
      <trkpt lat="10.156772055967" lon="-75.6820367535534">
        <ele>52.321895</ele>
        <time>2019-09-10T15:12:24.400Z</time>
      </trkpt>
      <trkpt lat="10.1567702369038" lon="-75.6820346324904">
        <ele>52.321895</ele>
        <time>2019-09-10T15:12:24.500Z</time>
      </trkpt>
      <trkpt lat="10.1567684008528" lon="-75.6820324801646">
        <ele>52.321895</ele>
        <time>2019-09-10T15:12:24.600Z</time>
      </trkpt>
      <trkpt lat="10.1567666115967" lon="-75.682030364254">
        <ele>52.321895</ele>
        <time>2019-09-10T15:12:24.700Z</time>
      </trkpt>
      <trkpt lat="10.156764860381" lon="-75.6820282787707">
        <ele>52.321895</ele>
        <time>2019-09-10T15:12:24.800Z</time>
      </trkpt>
      <trkpt lat="10.1567631212549" lon="-75.6820261950976">
        <ele>52.321895</ele>
        <time>2019-09-10T15:12:24.900Z</time>
      </trkpt>
      <trkpt lat="10.1567613842133" lon="-75.6820240995879">
        <ele>52.321895</ele>
        <time>2019-09-10T15:12:25.000Z</time>
      </trkpt>
      <trkpt lat="10.1567596845867" lon="-75.6820220052619">
        <ele>52.321895</ele>
        <time>2019-09-10T15:12:25.100Z</time>
      </trkpt>
      <trkpt lat="10.1567579837095" lon="-75.6820199040427">
        <ele>52.321895</ele>
        <time>2019-09-10T15:12:25.200Z</time>
      </trkpt>
      <trkpt lat="10.1567562826239" lon="-75.6820178351307">
        <ele>52.321895</ele>
        <time>2019-09-10T15:12:25.300Z</time>
      </trkpt>
      <trkpt lat="10.1567545569423" lon="-75.6820157787516">
        <ele>52.321895</ele>
        <time>2019-09-10T15:12:25.400Z</time>
      </trkpt>
      <trkpt lat="10.1567528537722" lon="-75.6820137312153">
        <ele>52.321895</ele>
        <time>2019-09-10T15:12:25.500Z</time>
      </trkpt>
      <trkpt lat="10.1567511455996" lon="-75.6820116648795">
        <ele>52.321895</ele>
        <time>2019-09-10T15:12:25.600Z</time>
      </trkpt>
      <trkpt lat="10.1567494390945" lon="-75.6820096135136">
        <ele>52.321895</ele>
        <time>2019-09-10T15:12:25.700Z</time>
      </trkpt>
      <trkpt lat="10.1567477173733" lon="-75.6820075514948">
        <ele>52.321895</ele>
        <time>2019-09-10T15:12:25.800Z</time>
      </trkpt>
      <trkpt lat="10.1567459994039" lon="-75.6820054916343">
        <ele>52.321895</ele>
        <time>2019-09-10T15:12:25.900Z</time>
      </trkpt>
      <trkpt lat="10.1567442633002" lon="-75.6820034092842">
        <ele>52.321895</ele>
        <time>2019-09-10T15:12:26.000Z</time>
      </trkpt>
      <trkpt lat="10.1567425428296" lon="-75.6820013125908">
        <ele>52.321895</ele>
        <time>2019-09-10T15:12:26.100Z</time>
      </trkpt>
      <trkpt lat="10.1567408254856" lon="-75.6819991881857">
        <ele>52.321895</ele>
        <time>2019-09-10T15:12:26.200Z</time>
      </trkpt>
      <trkpt lat="10.1567391223156" lon="-75.6819970621791">
        <ele>52.321895</ele>
        <time>2019-09-10T15:12:26.300Z</time>
      </trkpt>
      <trkpt lat="10.1567374168527" lon="-75.6819949379132">
        <ele>52.321895</ele>
        <time>2019-09-10T15:12:26.400Z</time>
      </trkpt>
      <trkpt lat="10.156735717643" lon="-75.6819928123941">
        <ele>52.321895</ele>
        <time>2019-09-10T15:12:26.500Z</time>
      </trkpt>
      <trkpt lat="10.1567340128055" lon="-75.681990682001">
        <ele>52.321895</ele>
        <time>2019-09-10T15:12:26.600Z</time>
      </trkpt>
      <trkpt lat="10.1567323240179" lon="-75.6819885414423">
        <ele>52.321895</ele>
        <time>2019-09-10T15:12:26.700Z</time>
      </trkpt>
      <trkpt lat="10.15673063794" lon="-75.681986399491">
        <ele>52.321895</ele>
        <time>2019-09-10T15:12:26.800Z</time>
      </trkpt>
      <trkpt lat="10.1567289579069" lon="-75.6819842752251">
        <ele>52.321895</ele>
        <time>2019-09-10T15:12:26.900Z</time>
      </trkpt>
      <trkpt lat="10.1567272641167" lon="-75.6819821609159">
        <ele>52.321895</ele>
        <time>2019-09-10T15:12:27.000Z</time>
      </trkpt>
      <trkpt lat="10.1567255496908" lon="-75.6819800275985">
        <ele>52.321895</ele>
        <time>2019-09-10T15:12:27.100Z</time>
      </trkpt>
      <trkpt lat="10.1567238162969" lon="-75.6819778738802">
        <ele>52.321895</ele>
        <time>2019-09-10T15:12:27.200Z</time>
      </trkpt>
      <trkpt lat="10.1567220916574" lon="-75.6819757273335">
        <ele>52.321895</ele>
        <time>2019-09-10T15:12:27.300Z</time>
      </trkpt>
      <trkpt lat="10.1567203755641" lon="-75.6819735831541">
        <ele>52.321895</ele>
        <time>2019-09-10T15:12:27.400Z</time>
      </trkpt>
      <trkpt lat="10.1567186578032" lon="-75.6819714580527">
        <ele>52.321895</ele>
        <time>2019-09-10T15:12:27.500Z</time>
      </trkpt>
      <trkpt lat="10.1567169358735" lon="-75.6819693339957">
        <ele>52.321895</ele>
        <time>2019-09-10T15:12:27.600Z</time>
      </trkpt>
      <trkpt lat="10.1567152354132" lon="-75.6819672125846">
        <ele>52.321895</ele>
        <time>2019-09-10T15:12:27.700Z</time>
      </trkpt>
      <trkpt lat="10.1567135453749" lon="-75.6819650727918">
        <ele>52.321895</ele>
        <time>2019-09-10T15:12:27.800Z</time>
      </trkpt>
      <trkpt lat="10.1567118634658" lon="-75.6819629348789">
        <ele>52.321895</ele>
        <time>2019-09-10T15:12:27.900Z</time>
      </trkpt>
      <trkpt lat="10.1567101677997" lon="-75.6819607894462">
        <ele>52.321895</ele>
        <time>2019-09-10T15:12:28.000Z</time>
      </trkpt>
      <trkpt lat="10.1567084881834" lon="-75.6819586619079">
        <ele>52.321895</ele>
        <time>2019-09-10T15:12:28.100Z</time>
      </trkpt>
      <trkpt lat="10.1567068108601" lon="-75.6819565349961">
        <ele>52.321895</ele>
        <time>2019-09-10T15:12:28.200Z</time>
      </trkpt>
      <trkpt lat="10.1567033767974" lon="-75.6819521983856">
        <ele>52.321895</ele>
        <time>2019-09-10T15:12:28.400Z</time>
      </trkpt>
      <trkpt lat="10.1567016438203" lon="-75.681950024336">
        <ele>52.321895</ele>
        <time>2019-09-10T15:12:28.500Z</time>
      </trkpt>
      <trkpt lat="10.1566999198062" lon="-75.6819478626802">
        <ele>52.321895</ele>
        <time>2019-09-10T15:12:28.600Z</time>
      </trkpt>
      <trkpt lat="10.1566982283088" lon="-75.6819457381358">
        <ele>52.321895</ele>
        <time>2019-09-10T15:12:28.700Z</time>
      </trkpt>
      <trkpt lat="10.1566965466082" lon="-75.6819436330175">
        <ele>52.321895</ele>
        <time>2019-09-10T15:12:28.800Z</time>
      </trkpt>
      <trkpt lat="10.1566948601134" lon="-75.6819415283169">
        <ele>52.321895</ele>
        <time>2019-09-10T15:12:28.900Z</time>
      </trkpt>
      <trkpt lat="10.1566931375584" lon="-75.6819393955565">
        <ele>52.321895</ele>
        <time>2019-09-10T15:12:29.000Z</time>
      </trkpt>
      <trkpt lat="10.1566914147949" lon="-75.6819372683662">
        <ele>52.321895</ele>
        <time>2019-09-10T15:12:29.100Z</time>
      </trkpt>
      <trkpt lat="10.1566896926568" lon="-75.6819351397138">
        <ele>52.321895</ele>
        <time>2019-09-10T15:12:29.200Z</time>
      </trkpt>
      <trkpt lat="10.1566879536349" lon="-75.6819329841156">
        <ele>52.321895</ele>
        <time>2019-09-10T15:12:29.300Z</time>
      </trkpt>
      <trkpt lat="10.1566862012728" lon="-75.6819307992041">
        <ele>52.321895</ele>
        <time>2019-09-10T15:12:29.400Z</time>
      </trkpt>
      <trkpt lat="10.1566844814275" lon="-75.6819286358076">
        <ele>52.321895</ele>
        <time>2019-09-10T15:12:29.500Z</time>
      </trkpt>
      <trkpt lat="10.1566827790913" lon="-75.6819265030471">
        <ele>52.321895</ele>
        <time>2019-09-10T15:12:29.600Z</time>
      </trkpt>
      <trkpt lat="10.1566810396525" lon="-75.6819243517658">
        <ele>52.321895</ele>
        <time>2019-09-10T15:12:29.700Z</time>
      </trkpt>
      <trkpt lat="10.156679264362" lon="-75.6819221885085">
        <ele>52.321895</ele>
        <time>2019-09-10T15:12:29.800Z</time>
      </trkpt>
      <trkpt lat="10.1566775211713" lon="-75.6819200842257">
        <ele>52.321895</ele>
        <time>2019-09-10T15:12:29.900Z</time>
      </trkpt>
      <trkpt lat="10.1566757950728" lon="-75.681918020118">
        <ele>52.321895</ele>
        <time>2019-09-10T15:12:30.000Z</time>
      </trkpt>
      <trkpt lat="10.1566740439613" lon="-75.6819159747401">
        <ele>52.321895</ele>
        <time>2019-09-10T15:12:30.100Z</time>
      </trkpt>
      <trkpt lat="10.1566722597078" lon="-75.6819139169685">
        <ele>52.321895</ele>
        <time>2019-09-10T15:12:30.200Z</time>
      </trkpt>
      <trkpt lat="10.156668655349" lon="-75.6819098058118">
        <ele>52.321895</ele>
        <time>2019-09-10T15:12:30.400Z</time>
      </trkpt>
      <trkpt lat="10.1566668575468" lon="-75.6819077524964">
        <ele>52.321895</ele>
        <time>2019-09-10T15:12:30.500Z</time>
      </trkpt>
      <trkpt lat="10.156665068916" lon="-75.6819057007824">
        <ele>52.321895</ele>
        <time>2019-09-10T15:12:30.600Z</time>
      </trkpt>
      <trkpt lat="10.1566632794515" lon="-75.6819036554741">
        <ele>52.321895</ele>
        <time>2019-09-10T15:12:30.700Z</time>
      </trkpt>
      <trkpt lat="10.1566614954064" lon="-75.6819016167804">
        <ele>52.321895</ele>
        <time>2019-09-10T15:12:30.800Z</time>
      </trkpt>
      <trkpt lat="10.1566597105276" lon="-75.6818995977217">
        <ele>52.321895</ele>
        <time>2019-09-10T15:12:30.900Z</time>
      </trkpt>
      <trkpt lat="10.1566579271078" lon="-75.6818975799859">
        <ele>52.321895</ele>
        <time>2019-09-10T15:12:31.000Z</time>
      </trkpt>
      <trkpt lat="10.1566561611971" lon="-75.6818955563318">
        <ele>52.321895</ele>
        <time>2019-09-10T15:12:31.100Z</time>
      </trkpt>
      <trkpt lat="10.1566544054999" lon="-75.6818935158278">
        <ele>52.321895</ele>
        <time>2019-09-10T15:12:31.200Z</time>
      </trkpt>
      <trkpt lat="10.1566526737735" lon="-75.6818914699625">
        <ele>52.321895</ele>
        <time>2019-09-10T15:12:31.300Z</time>
      </trkpt>
      <trkpt lat="10.156650940588" lon="-75.6818894211033">
        <ele>52.321895</ele>
        <time>2019-09-10T15:12:31.400Z</time>
      </trkpt>
      <trkpt lat="10.1566492215765" lon="-75.6818873956388">
        <ele>52.321895</ele>
        <time>2019-09-10T15:12:31.500Z</time>
      </trkpt>
      <trkpt lat="10.156647500689" lon="-75.6818853801311">
        <ele>52.321895</ele>
        <time>2019-09-10T15:12:31.600Z</time>
      </trkpt>
      <trkpt lat="10.1566457779255" lon="-75.6818833449884">
        <ele>52.321895</ele>
        <time>2019-09-10T15:12:31.700Z</time>
      </trkpt>
      <trkpt lat="10.1566440430724" lon="-75.6818812919515">
        <ele>52.321895</ele>
        <time>2019-09-10T15:12:31.800Z</time>
      </trkpt>
      <trkpt lat="10.1566423103038" lon="-75.681879253049">
        <ele>52.321895</ele>
        <time>2019-09-10T15:12:31.900Z</time>
      </trkpt>
      <trkpt lat="10.1566405829546" lon="-75.6818772207611">
        <ele>52.321895</ele>
        <time>2019-09-10T15:12:32.000Z</time>
      </trkpt>
      <trkpt lat="10.1566388697794" lon="-75.6818752152797">
        <ele>52.321895</ele>
        <time>2019-09-10T15:12:32.100Z</time>
      </trkpt>
      <trkpt lat="10.156637155562" lon="-75.6818732094502">
        <ele>52.321895</ele>
        <time>2019-09-10T15:12:32.200Z</time>
      </trkpt>
      <trkpt lat="10.1566354117461" lon="-75.6818711662308">
        <ele>52.321895</ele>
        <time>2019-09-10T15:12:32.300Z</time>
      </trkpt>
      <trkpt lat="10.1566336389568" lon="-75.6818690682493">
        <ele>52.321895</ele>
        <time>2019-09-10T15:12:32.400Z</time>
      </trkpt>
      <trkpt lat="10.1566318651253" lon="-75.6818669865954">
        <ele>52.321895</ele>
        <time>2019-09-10T15:12:32.500Z</time>
      </trkpt>
      <trkpt lat="10.1566283110007" lon="-75.6818628774232">
        <ele>52.321895</ele>
        <time>2019-09-10T15:12:32.700Z</time>
      </trkpt>
      <trkpt lat="10.156626523829" lon="-75.6818608096252">
        <ele>52.321895</ele>
        <time>2019-09-10T15:12:32.800Z</time>
      </trkpt>
      <trkpt lat="10.1566247387417" lon="-75.6818587245944">
        <ele>52.321895</ele>
        <time>2019-09-10T15:12:32.900Z</time>
      </trkpt>
      <trkpt lat="10.1566229461506" lon="-75.6818566142888">
        <ele>52.321895</ele>
        <time>2019-09-10T15:12:33.000Z</time>
      </trkpt>
      <trkpt lat="10.1566211806567" lon="-75.6818545042966">
        <ele>52.321895</ele>
        <time>2019-09-10T15:12:33.100Z</time>
      </trkpt>
      <trkpt lat="10.1566194243343" lon="-75.6818523844521">
        <ele>52.321895</ele>
        <time>2019-09-10T15:12:33.200Z</time>
      </trkpt>
      <trkpt lat="10.1566176734313" lon="-75.681850269934">
        <ele>52.321895</ele>
        <time>2019-09-10T15:12:33.300Z</time>
      </trkpt>
      <trkpt lat="10.156615907729" lon="-75.6818481556249">
        <ele>52.321895</ele>
        <time>2019-09-10T15:12:33.400Z</time>
      </trkpt>
      <trkpt lat="10.1566141403592" lon="-75.6818460305583">
        <ele>52.321895</ele>
        <time>2019-09-10T15:12:33.500Z</time>
      </trkpt>
      <trkpt lat="10.1566123583985" lon="-75.6818438929936">
        <ele>52.321895</ele>
        <time>2019-09-10T15:12:33.600Z</time>
      </trkpt>
      <trkpt lat="10.1566105976988" lon="-75.6818417646893">
        <ele>52.321895</ele>
        <time>2019-09-10T15:12:33.700Z</time>
      </trkpt>
      <trkpt lat="10.1566088409595" lon="-75.6818396479084">
        <ele>52.321895</ele>
        <time>2019-09-10T15:12:33.800Z</time>
      </trkpt>
      <trkpt lat="10.1566070863046" lon="-75.681837543173">
        <ele>52.321895</ele>
        <time>2019-09-10T15:12:33.900Z</time>
      </trkpt>
      <trkpt lat="10.1566053145575" lon="-75.6818354360007">
        <ele>52.321895</ele>
        <time>2019-09-10T15:12:34.000Z</time>
      </trkpt>
      <trkpt lat="10.1566035211326" lon="-75.681833295616">
        <ele>52.321895</ele>
        <time>2019-09-10T15:12:34.100Z</time>
      </trkpt>
      <trkpt lat="10.1566017170772" lon="-75.6818311335772">
        <ele>52.321895</ele>
        <time>2019-09-10T15:12:34.200Z</time>
      </trkpt>
      <trkpt lat="10.1565999507496" lon="-75.6818290047507">
        <ele>52.321895</ele>
        <time>2019-09-10T15:12:34.300Z</time>
      </trkpt>
      <trkpt lat="10.1565982098517" lon="-75.6818269097284">
        <ele>52.321895</ele>
        <time>2019-09-10T15:12:34.400Z</time>
      </trkpt>
      <trkpt lat="10.1565964737481" lon="-75.6818248131743">
        <ele>52.321895</ele>
        <time>2019-09-10T15:12:34.500Z</time>
      </trkpt>
      <trkpt lat="10.1565947172172" lon="-75.6818227038435">
        <ele>52.321895</ele>
        <time>2019-09-10T15:12:34.600Z</time>
      </trkpt>
      <trkpt lat="10.1565929629791" lon="-75.6818205792643">
        <ele>52.321895</ele>
        <time>2019-09-10T15:12:34.700Z</time>
      </trkpt>
      <trkpt lat="10.156591203947" lon="-75.6818184480357">
        <ele>52.321895</ele>
        <time>2019-09-10T15:12:34.800Z</time>
      </trkpt>
      <trkpt lat="10.1565894340759" lon="-75.6818162949788">
        <ele>52.321895</ele>
        <time>2019-09-10T15:12:34.900Z</time>
      </trkpt>
      <trkpt lat="10.1565876610781" lon="-75.6818141472833">
        <ele>52.321895</ele>
        <time>2019-09-10T15:12:35.000Z</time>
      </trkpt>
      <trkpt lat="10.1565859187212" lon="-75.6818120557075">
        <ele>52.321895</ele>
        <time>2019-09-10T15:12:35.100Z</time>
      </trkpt>
      <trkpt lat="10.1565841944987" lon="-75.6818099937234">
        <ele>52.321895</ele>
        <time>2019-09-10T15:12:35.200Z</time>
      </trkpt>
      <trkpt lat="10.156582482991" lon="-75.681807938354">
        <ele>52.321895</ele>
        <time>2019-09-10T15:12:35.300Z</time>
      </trkpt>
      <trkpt lat="10.1565807598106" lon="-75.6818058610519">
        <ele>52.321895</ele>
        <time>2019-09-10T15:12:35.400Z</time>
      </trkpt>
      <trkpt lat="10.1565790643529" lon="-75.6818037805469">
        <ele>52.321895</ele>
        <time>2019-09-10T15:12:35.500Z</time>
      </trkpt>
      <trkpt lat="10.1565773705627" lon="-75.6818016823217">
        <ele>52.321895</ele>
        <time>2019-09-10T15:12:35.600Z</time>
      </trkpt>
      <trkpt lat="10.1565756798991" lon="-75.6817996080135">
        <ele>52.321895</ele>
        <time>2019-09-10T15:12:35.700Z</time>
      </trkpt>
      <trkpt lat="10.1565739623467" lon="-75.6817975359683">
        <ele>52.321895</ele>
        <time>2019-09-10T15:12:35.800Z</time>
      </trkpt>
      <trkpt lat="10.1565722368735" lon="-75.6817954733228">
        <ele>52.321895</ele>
        <time>2019-09-10T15:12:35.900Z</time>
      </trkpt>
      <trkpt lat="10.1565704961841" lon="-75.6817933906942">
        <ele>52.321895</ele>
        <time>2019-09-10T15:12:36.000Z</time>
      </trkpt>
      <trkpt lat="10.1565687738375" lon="-75.6817913052804">
        <ele>52.321895</ele>
        <time>2019-09-10T15:12:36.100Z</time>
      </trkpt>
      <trkpt lat="10.1565670612876" lon="-75.6817892070204">
        <ele>52.321895</ele>
        <time>2019-09-10T15:12:36.200Z</time>
      </trkpt>
      <trkpt lat="10.1565636347288" lon="-75.681785055062">
        <ele>52.321895</ele>
        <time>2019-09-10T15:12:36.400Z</time>
      </trkpt>
      <trkpt lat="10.1565619150919" lon="-75.6817829661321">
        <ele>52.321895</ele>
        <time>2019-09-10T15:12:36.500Z</time>
      </trkpt>
      <trkpt lat="10.1565601912863" lon="-75.681780860596">
        <ele>52.321895</ele>
        <time>2019-09-10T15:12:36.600Z</time>
      </trkpt>
      <trkpt lat="10.1565584856149" lon="-75.6817787794644">
        <ele>52.321895</ele>
        <time>2019-09-10T15:12:36.700Z</time>
      </trkpt>
      <trkpt lat="10.1565567876559" lon="-75.6817767110398">
        <ele>52.321895</ele>
        <time>2019-09-10T15:12:36.800Z</time>
      </trkpt>
      <trkpt lat="10.1565533783977" lon="-75.6817725673322">
        <ele>52.321895</ele>
        <time>2019-09-10T15:12:37.000Z</time>
      </trkpt>
      <trkpt lat="10.1565516677238" lon="-75.6817705016579">
        <ele>52.321895</ele>
        <time>2019-09-10T15:12:37.100Z</time>
      </trkpt>
      <trkpt lat="10.156549956633" lon="-75.6817684381072">
        <ele>52.321895</ele>
        <time>2019-09-10T15:12:37.200Z</time>
      </trkpt>
      <trkpt lat="10.1565482522123" lon="-75.681766367559">
        <ele>52.321895</ele>
        <time>2019-09-10T15:12:37.300Z</time>
      </trkpt>
      <trkpt lat="10.1565465534195" lon="-75.6817642752521">
        <ele>52.321895</ele>
        <time>2019-09-10T15:12:37.400Z</time>
      </trkpt>
      <trkpt lat="10.1565448379515" lon="-75.6817621655036">
        <ele>52.321895</ele>
        <time>2019-09-10T15:12:37.500Z</time>
      </trkpt>
      <trkpt lat="10.1565414057648" lon="-75.6817579446836">
        <ele>52.321895</ele>
        <time>2019-09-10T15:12:37.700Z</time>
      </trkpt>
      <trkpt lat="10.1565397100986" lon="-75.6817558518545">
        <ele>52.321895</ele>
        <time>2019-09-10T15:12:37.800Z</time>
      </trkpt>
      <trkpt lat="10.1565380204772" lon="-75.6817537652919">
        <ele>52.321895</ele>
        <time>2019-09-10T15:12:37.900Z</time>
      </trkpt>
      <trkpt lat="10.1565363204338" lon="-75.6817516712792">
        <ele>52.321895</ele>
        <time>2019-09-10T15:12:38.000Z</time>
      </trkpt>
      <trkpt lat="10.1565346389416" lon="-75.6817495861788">
        <ele>52.321895</ele>
        <time>2019-09-10T15:12:38.100Z</time>
      </trkpt>
      <trkpt lat="10.156531267828" lon="-75.6817454123226">
        <ele>52.321895</ele>
        <time>2019-09-10T15:12:38.300Z</time>
      </trkpt>
      <trkpt lat="10.1565295786235" lon="-75.6817433190757">
        <ele>52.321895</ele>
        <time>2019-09-10T15:12:38.400Z</time>
      </trkpt>
      <trkpt lat="10.1565262052171" lon="-75.6817391317466">
        <ele>52.321895</ele>
        <time>2019-09-10T15:12:38.600Z</time>
      </trkpt>
      <trkpt lat="10.1565245247671" lon="-75.6817370374205">
        <ele>52.321895</ele>
        <time>2019-09-10T15:12:38.700Z</time>
      </trkpt>
      <trkpt lat="10.1565228384808" lon="-75.6817349421545">
        <ele>52.321895</ele>
        <time>2019-09-10T15:12:38.800Z</time>
      </trkpt>
      <trkpt lat="10.1565194852931" lon="-75.6817307605">
        <ele>52.321895</ele>
        <time>2019-09-10T15:12:39.000Z</time>
      </trkpt>
      <trkpt lat="10.1565177821231" lon="-75.6817286696553">
        <ele>52.321895</ele>
        <time>2019-09-10T15:12:39.100Z</time>
      </trkpt>
      <trkpt lat="10.1565160570668" lon="-75.6817265792632">
        <ele>52.321895</ele>
        <time>2019-09-10T15:12:39.200Z</time>
      </trkpt>
      <trkpt lat="10.1565143432663" lon="-75.68172450123">
        <ele>52.321895</ele>
        <time>2019-09-10T15:12:39.300Z</time>
      </trkpt>
      <trkpt lat="10.1565126494761" lon="-75.6817224192976">
        <ele>52.321895</ele>
        <time>2019-09-10T15:12:39.400Z</time>
      </trkpt>
      <trkpt lat="10.1565109786144" lon="-75.6817203175911">
        <ele>52.321895</ele>
        <time>2019-09-10T15:12:39.500Z</time>
      </trkpt>
      <trkpt lat="10.1565093148396" lon="-75.6817181818018">
        <ele>52.321895</ele>
        <time>2019-09-10T15:12:39.600Z</time>
      </trkpt>
      <trkpt lat="10.1565076477299" lon="-75.6817160290583">
        <ele>52.321895</ele>
        <time>2019-09-10T15:12:39.700Z</time>
      </trkpt>
      <trkpt lat="10.1565059595676" lon="-75.6817138641996">
        <ele>52.321895</ele>
        <time>2019-09-10T15:12:39.800Z</time>
      </trkpt>
      <trkpt lat="10.1565042657774" lon="-75.6817117030659">
        <ele>52.321895</ele>
        <time>2019-09-10T15:12:39.900Z</time>
      </trkpt>
      <trkpt lat="10.1565008360919" lon="-75.6817073652021">
        <ele>52.321895</ele>
        <time>2019-09-10T15:12:40.100Z</time>
      </trkpt>
      <trkpt lat="10.1564991029064" lon="-75.6817051839112">
        <ele>52.321895</ele>
        <time>2019-09-10T15:12:40.200Z</time>
      </trkpt>
      <trkpt lat="10.1564973930663" lon="-75.6817030514293">
        <ele>52.321895</ele>
        <time>2019-09-10T15:12:40.300Z</time>
      </trkpt>
      <trkpt lat="10.1564956894794" lon="-75.6817009446051">
        <ele>52.321895</ele>
        <time>2019-09-10T15:12:40.400Z</time>
      </trkpt>
      <trkpt lat="10.1564939898528" lon="-75.6816988472503">
        <ele>52.321895</ele>
        <time>2019-09-10T15:12:40.500Z</time>
      </trkpt>
      <trkpt lat="10.1564922731341" lon="-75.6816967309219">
        <ele>52.321895</ele>
        <time>2019-09-10T15:12:40.600Z</time>
      </trkpt>
      <trkpt lat="10.1564905455765" lon="-75.6816946416787">
        <ele>52.321895</ele>
        <time>2019-09-10T15:12:40.700Z</time>
      </trkpt>
      <trkpt lat="10.1564887967579" lon="-75.6816925464127">
        <ele>52.321895</ele>
        <time>2019-09-10T15:12:40.800Z</time>
      </trkpt>
      <trkpt lat="10.1564870671159" lon="-75.6816904453676">
        <ele>52.321895</ele>
        <time>2019-09-10T15:12:40.900Z</time>
      </trkpt>
      <trkpt lat="10.156485337057" lon="-75.6816883234342">
        <ele>52.321895</ele>
        <time>2019-09-10T15:12:41.000Z</time>
      </trkpt>
      <trkpt lat="10.156483589906" lon="-75.6816862145212">
        <ele>52.321895</ele>
        <time>2019-09-10T15:12:41.100Z</time>
      </trkpt>
      <trkpt lat="10.1564818200349" lon="-75.6816841069311">
        <ele>52.321895</ele>
        <time>2019-09-10T15:12:41.200Z</time>
      </trkpt>
      <trkpt lat="10.1564800576676" lon="-75.6816819907072">
        <ele>52.321895</ele>
        <time>2019-09-10T15:12:41.300Z</time>
      </trkpt>
      <trkpt lat="10.1564783013452" lon="-75.6816798643525">
        <ele>52.321895</ele>
        <time>2019-09-10T15:12:41.400Z</time>
      </trkpt>
      <trkpt lat="10.1564765619065" lon="-75.6816777313484">
        <ele>52.321895</ele>
        <time>2019-09-10T15:12:41.500Z</time>
      </trkpt>
      <trkpt lat="10.1564748224677" lon="-75.6816756053418">
        <ele>52.321895</ele>
        <time>2019-09-10T15:12:41.600Z</time>
      </trkpt>
      <trkpt lat="10.1564713506772" lon="-75.6816713991784">
        <ele>52.321895</ele>
        <time>2019-09-10T15:12:41.800Z</time>
      </trkpt>
      <trkpt lat="10.1564696185339" lon="-75.6816693087167">
        <ele>52.321895</ele>
        <time>2019-09-10T15:12:41.900Z</time>
      </trkpt>
      <trkpt lat="10.1564678757601" lon="-75.6816672166535">
        <ele>52.321895</ele>
        <time>2019-09-10T15:12:42.000Z</time>
      </trkpt>
      <trkpt lat="10.1564661133929" lon="-75.6816650975053">
        <ele>52.321895</ele>
        <time>2019-09-10T15:12:42.100Z</time>
      </trkpt>
      <trkpt lat="10.1564643318491" lon="-75.6816629619945">
        <ele>52.321895</ele>
        <time>2019-09-10T15:12:42.200Z</time>
      </trkpt>
      <trkpt lat="10.156462551556" lon="-75.6816608238031">
        <ele>52.321895</ele>
        <time>2019-09-10T15:12:42.300Z</time>
      </trkpt>
      <trkpt lat="10.1564607750148" lon="-75.6816586979706">
        <ele>52.321895</ele>
        <time>2019-09-10T15:12:42.400Z</time>
      </trkpt>
      <trkpt lat="10.1564572052571" lon="-75.6816544702923">
        <ele>52.321895</ele>
        <time>2019-09-10T15:12:42.600Z</time>
      </trkpt>
      <trkpt lat="10.1564553920303" lon="-75.6816523419184">
        <ele>52.321895</ele>
        <time>2019-09-10T15:12:42.700Z</time>
      </trkpt>
      <trkpt lat="10.156453573384" lon="-75.6816502058159">
        <ele>52.321895</ele>
        <time>2019-09-10T15:12:42.800Z</time>
      </trkpt>
      <trkpt lat="10.1564517989272" lon="-75.6816481003494">
        <ele>52.321895</ele>
        <time>2019-09-10T15:12:42.900Z</time>
      </trkpt>
      <trkpt lat="10.156450054069" lon="-75.6816460144831">
        <ele>52.321895</ele>
        <time>2019-09-10T15:12:43.000Z</time>
      </trkpt>
      <trkpt lat="10.1564483165062" lon="-75.6816439438652">
        <ele>52.321895</ele>
        <time>2019-09-10T15:12:43.100Z</time>
      </trkpt>
      <trkpt lat="10.1564465674792" lon="-75.6816418671549">
        <ele>52.321895</ele>
        <time>2019-09-10T15:12:43.200Z</time>
      </trkpt>
      <trkpt lat="10.1564448180353" lon="-75.6816397951445">
        <ele>52.321895</ele>
        <time>2019-09-10T15:12:43.300Z</time>
      </trkpt>
      <trkpt lat="10.1564430600454" lon="-75.6816377137344">
        <ele>52.321895</ele>
        <time>2019-09-10T15:12:43.400Z</time>
      </trkpt>
      <trkpt lat="10.1564413126859" lon="-75.6816356279377">
        <ele>52.321895</ele>
        <time>2019-09-10T15:12:43.500Z</time>
      </trkpt>
      <trkpt lat="10.1564395653264" lon="-75.6816335312791">
        <ele>52.321895</ele>
        <time>2019-09-10T15:12:43.600Z</time>
      </trkpt>
      <trkpt lat="10.1564378192175" lon="-75.681631422192">
        <ele>52.321895</ele>
        <time>2019-09-10T15:12:43.700Z</time>
      </trkpt>
      <trkpt lat="10.1564360914515" lon="-75.6816293392849">
        <ele>52.321895</ele>
        <time>2019-09-10T15:12:43.800Z</time>
      </trkpt>
      <trkpt lat="10.1564344720747" lon="-75.6816273171278">
        <ele>52.321895</ele>
        <time>2019-09-10T15:12:43.900Z</time>
      </trkpt>
      <trkpt lat="10.1564330104875" lon="-75.6816253321865">
        <ele>52.321895</ele>
        <time>2019-09-10T15:12:44.000Z</time>
      </trkpt>
      <trkpt lat="10.1564317923593" lon="-75.6816233974468">
        <ele>52.321895</ele>
        <time>2019-09-10T15:12:44.100Z</time>
      </trkpt>
      <trkpt lat="10.1564308262361" lon="-75.6816214879121">
        <ele>52.321895</ele>
        <time>2019-09-10T15:12:44.200Z</time>
      </trkpt>
      <trkpt lat="10.1564301932013" lon="-75.681619668754">
        <ele>52.321895</ele>
        <time>2019-09-10T15:12:44.300Z</time>
      </trkpt>
      <trkpt lat="10.1564298430207" lon="-75.6816178830519">
        <ele>52.321895</ele>
        <time>2019-09-10T15:12:44.400Z</time>
      </trkpt>
      <trkpt lat="10.1564298403109" lon="-75.6816161637049">
        <ele>52.321895</ele>
        <time>2019-09-10T15:12:44.500Z</time>
      </trkpt>
      <trkpt lat="10.1564301039886" lon="-75.6816144247925">
        <ele>52.321895</ele>
        <time>2019-09-10T15:12:44.600Z</time>
      </trkpt>
      <trkpt lat="10.1564307197228" lon="-75.6816127979108">
        <ele>52.321895</ele>
        <time>2019-09-10T15:12:44.700Z</time>
      </trkpt>
      <trkpt lat="10.156431613934" lon="-75.6816111803591">
        <ele>52.321895</ele>
        <time>2019-09-10T15:12:44.800Z</time>
      </trkpt>
      <trkpt lat="10.1564328335213" lon="-75.6816096714264">
        <ele>52.321895</ele>
        <time>2019-09-10T15:12:44.900Z</time>
      </trkpt>
      <trkpt lat="10.1564343240817" lon="-75.6816081428936">
        <ele>52.321895</ele>
        <time>2019-09-10T15:12:45.000Z</time>
      </trkpt>
      <trkpt lat="10.156436135224" lon="-75.6816067444597">
        <ele>52.321895</ele>
        <time>2019-09-10T15:12:45.100Z</time>
      </trkpt>
      <trkpt lat="10.1564381566832" lon="-75.6816053239888">
        <ele>52.321895</ele>
        <time>2019-09-10T15:12:45.200Z</time>
      </trkpt>
      <trkpt lat="10.1564403455204" lon="-75.6816040373071">
        <ele>52.321895</ele>
        <time>2019-09-10T15:12:45.300Z</time>
      </trkpt>
      <trkpt lat="10.1564426208605" lon="-75.6816026874036">
        <ele>52.321895</ele>
        <time>2019-09-10T15:12:45.400Z</time>
      </trkpt>
      <trkpt lat="10.1564448872377" lon="-75.68160144034">
        <ele>52.321895</ele>
        <time>2019-09-10T15:12:45.500Z</time>
      </trkpt>
      <trkpt lat="10.1564471723745" lon="-75.6816001267473">
        <ele>52.421895</ele>
        <time>2019-09-10T15:12:45.600Z</time>
      </trkpt>
      <trkpt lat="10.1564494331238" lon="-75.681598864853">
        <ele>52.421895</ele>
        <time>2019-09-10T15:12:45.700Z</time>
      </trkpt>
      <trkpt lat="10.1564517403553" lon="-75.6815974899533">
        <ele>52.421895</ele>
        <time>2019-09-10T15:12:45.800Z</time>
      </trkpt>
      <trkpt lat="10.1564539931839" lon="-75.6815961352107">
        <ele>52.421895</ele>
        <time>2019-09-10T15:12:45.900Z</time>
      </trkpt>
      <trkpt lat="10.1564585207272" lon="-75.6815932017338">
        <ele>52.421895</ele>
        <time>2019-09-10T15:12:46.100Z</time>
      </trkpt>
      <trkpt lat="10.1564607962757" lon="-75.6815916416249">
        <ele>52.421895</ele>
        <time>2019-09-10T15:12:46.200Z</time>
      </trkpt>
      <trkpt lat="10.1564652750439" lon="-75.6815884486463">
        <ele>52.421895</ele>
        <time>2019-09-10T15:12:46.400Z</time>
      </trkpt>
      <trkpt lat="10.1564675086958" lon="-75.6815867906062">
        <ele>52.421895</ele>
        <time>2019-09-10T15:12:46.500Z</time>
      </trkpt>
      <trkpt lat="10.1564697744477" lon="-75.6815850732436">
        <ele>52.421895</ele>
        <time>2019-09-10T15:12:46.600Z</time>
      </trkpt>
      <trkpt lat="10.1564720433261" lon="-75.6815833295269">
        <ele>52.421895</ele>
        <time>2019-09-10T15:12:46.700Z</time>
      </trkpt>
      <trkpt lat="10.1564743365921" lon="-75.6815815545126">
        <ele>52.421895</ele>
        <time>2019-09-10T15:12:46.800Z</time>
      </trkpt>
      <trkpt lat="10.1564766254809" lon="-75.6815797375478">
        <ele>52.421895</ele>
        <time>2019-09-10T15:12:46.900Z</time>
      </trkpt>
      <trkpt lat="10.1564789056152" lon="-75.6815778912872">
        <ele>52.421895</ele>
        <time>2019-09-10T15:12:47.000Z</time>
      </trkpt>
      <trkpt lat="10.1564811928364" lon="-75.6815760251479">
        <ele>52.421895</ele>
        <time>2019-09-10T15:12:47.100Z</time>
      </trkpt>
      <trkpt lat="10.1564834719285" lon="-75.6815741570416">
        <ele>52.321895</ele>
        <time>2019-09-10T15:12:47.200Z</time>
      </trkpt>
      <trkpt lat="10.1564857722815" lon="-75.6815722480814">
        <ele>52.321895</ele>
        <time>2019-09-10T15:12:47.300Z</time>
      </trkpt>
      <trkpt lat="10.1564880622125" lon="-75.6815703255265">
        <ele>52.321895</ele>
        <time>2019-09-10T15:12:47.400Z</time>
      </trkpt>
      <trkpt lat="10.1564903802829" lon="-75.6815683722135">
        <ele>52.321895</ele>
        <time>2019-09-10T15:12:47.500Z</time>
      </trkpt>
      <trkpt lat="10.1564926804275" lon="-75.6815664216857">
        <ele>52.321895</ele>
        <time>2019-09-10T15:12:47.600Z</time>
      </trkpt>
      <trkpt lat="10.1564949862" lon="-75.6815644392859">
        <ele>52.321895</ele>
        <time>2019-09-10T15:12:47.700Z</time>
      </trkpt>
      <trkpt lat="10.1564972517434" lon="-75.6815624655547">
        <ele>52.321895</ele>
        <time>2019-09-10T15:12:47.800Z</time>
      </trkpt>
      <trkpt lat="10.1564995470938" lon="-75.6815604552691">
        <ele>52.321895</ele>
        <time>2019-09-10T15:12:47.900Z</time>
      </trkpt>
      <trkpt lat="10.1565018109697" lon="-75.6815584611718">
        <ele>52.321895</ele>
        <time>2019-09-10T15:12:48.000Z</time>
      </trkpt>
      <trkpt lat="10.1565040383684" lon="-75.6815564602163">
        <ele>52.321895</ele>
        <time>2019-09-10T15:12:48.100Z</time>
      </trkpt>
      <trkpt lat="10.156506211781" lon="-75.6815544829689">
        <ele>52.321895</ele>
        <time>2019-09-10T15:12:48.200Z</time>
      </trkpt>
      <trkpt lat="10.1565083645579" lon="-75.6815524804467">
        <ele>52.321895</ele>
        <time>2019-09-10T15:12:48.300Z</time>
      </trkpt>
      <trkpt lat="10.1565104950316" lon="-75.6815504919197">
        <ele>52.321895</ele>
        <time>2019-09-10T15:12:48.400Z</time>
      </trkpt>
      <trkpt lat="10.1565126205028" lon="-75.6815484641576">
        <ele>52.321895</ele>
        <time>2019-09-10T15:12:48.500Z</time>
      </trkpt>
      <trkpt lat="10.1565147363857" lon="-75.6815464496769">
        <ele>52.321895</ele>
        <time>2019-09-10T15:12:48.600Z</time>
      </trkpt>
      <trkpt lat="10.1565168533108" lon="-75.6815443833585">
        <ele>52.321895</ele>
        <time>2019-09-10T15:12:48.700Z</time>
      </trkpt>
      <trkpt lat="10.156518941471" lon="-75.6815423459181">
        <ele>52.321895</ele>
        <time>2019-09-10T15:12:48.800Z</time>
      </trkpt>
      <trkpt lat="10.1565209623049" lon="-75.6815403750068">
        <ele>52.321895</ele>
        <time>2019-09-10T15:12:48.900Z</time>
      </trkpt>
      <trkpt lat="10.1565229245669" lon="-75.6815385813324">
        <ele>52.321895</ele>
        <time>2019-09-10T15:12:49.000Z</time>
      </trkpt>
      <trkpt lat="10.1565248009512" lon="-75.681537019065">
        <ele>52.321895</ele>
        <time>2019-09-10T15:12:49.100Z</time>
      </trkpt>
      <trkpt lat="10.1565266200144" lon="-75.6815357159512">
        <ele>52.321895</ele>
        <time>2019-09-10T15:12:49.200Z</time>
      </trkpt>
      <trkpt lat="10.1565283942627" lon="-75.6815346724437">
        <ele>52.321895</ele>
        <time>2019-09-10T15:12:49.300Z</time>
      </trkpt>
      <trkpt lat="10.15653015663" lon="-75.6815338885597">
        <ele>52.321895</ele>
        <time>2019-09-10T15:12:49.400Z</time>
      </trkpt>
      <trkpt lat="10.1565318362462" lon="-75.6815334250319">
        <ele>52.321895</ele>
        <time>2019-09-10T15:12:49.500Z</time>
      </trkpt>
      <trkpt lat="10.1565334735489" lon="-75.6815332709462">
        <ele>52.321895</ele>
        <time>2019-09-10T15:12:49.600Z</time>
      </trkpt>
      <trkpt lat="10.1565350208052" lon="-75.6815334341705">
        <ele>52.321895</ele>
        <time>2019-09-10T15:12:49.700Z</time>
      </trkpt>
      <trkpt lat="10.1565365422148" lon="-75.6815339000482">
        <ele>52.321895</ele>
        <time>2019-09-10T15:12:49.800Z</time>
      </trkpt>
      <trkpt lat="10.1565379502327" lon="-75.6815346760121">
        <ele>52.321895</ele>
        <time>2019-09-10T15:12:49.900Z</time>
      </trkpt>
      <trkpt lat="10.1565393449103" lon="-75.6815357552386">
        <ele>52.321895</ele>
        <time>2019-09-10T15:12:50.000Z</time>
      </trkpt>
      <trkpt lat="10.1565406316155" lon="-75.6815371192242">
        <ele>52.321895</ele>
        <time>2019-09-10T15:12:50.100Z</time>
      </trkpt>
      <trkpt lat="10.156541922698" lon="-75.6815387857762">
        <ele>52.321895</ele>
        <time>2019-09-10T15:12:50.200Z</time>
      </trkpt>
      <trkpt lat="10.1565430732914" lon="-75.6815406616459">
        <ele>52.321895</ele>
        <time>2019-09-10T15:12:50.300Z</time>
      </trkpt>
      <trkpt lat="10.1565442516074" lon="-75.6815427257014">
        <ele>52.321895</ele>
        <time>2019-09-10T15:12:50.400Z</time>
      </trkpt>
      <trkpt lat="10.1565453423783" lon="-75.68154488405">
        <ele>52.421895</ele>
        <time>2019-09-10T15:12:50.500Z</time>
      </trkpt>
      <trkpt lat="10.1565465298657" lon="-75.6815471697298">
        <ele>52.421895</ele>
        <time>2019-09-10T15:12:50.600Z</time>
      </trkpt>
      <trkpt lat="10.1565476819182" lon="-75.6815494452441">
        <ele>52.421895</ele>
        <time>2019-09-10T15:12:50.700Z</time>
      </trkpt>
      <trkpt lat="10.1565489238087" lon="-75.6815517824135">
        <ele>52.421895</ele>
        <time>2019-09-10T15:12:50.800Z</time>
      </trkpt>
      <trkpt lat="10.1565514194708" lon="-75.6815564599726">
        <ele>52.421895</ele>
        <time>2019-09-10T15:12:51.000Z</time>
      </trkpt>
      <trkpt lat="10.1565527276454" lon="-75.6815587981168">
        <ele>52.421895</ele>
        <time>2019-09-10T15:12:51.100Z</time>
      </trkpt>
      <trkpt lat="10.156554146919" lon="-75.6815612110235">
        <ele>52.421895</ele>
        <time>2019-09-10T15:12:51.200Z</time>
      </trkpt>
      <trkpt lat="10.1565555826595" lon="-75.6815635758699">
        <ele>52.421895</ele>
        <time>2019-09-10T15:12:51.300Z</time>
      </trkpt>
      <trkpt lat="10.1565570969821" lon="-75.6815659990641">
        <ele>52.421895</ele>
        <time>2019-09-10T15:12:51.400Z</time>
      </trkpt>
      <trkpt lat="10.1565586573702" lon="-75.6815683876883">
        <ele>52.421895</ele>
        <time>2019-09-10T15:12:51.500Z</time>
      </trkpt>
      <trkpt lat="10.1565602917547" lon="-75.6815708283068">
        <ele>52.421895</ele>
        <time>2019-09-10T15:12:51.600Z</time>
      </trkpt>
      <trkpt lat="10.156561997843" lon="-75.6815732765321">
        <ele>52.421895</ele>
        <time>2019-09-10T15:12:51.700Z</time>
      </trkpt>
      <trkpt lat="10.1565637614608" lon="-75.6815757807553">
        <ele>52.421895</ele>
        <time>2019-09-10T15:12:51.800Z</time>
      </trkpt>
      <trkpt lat="10.1565655830253" lon="-75.6815782898699">
        <ele>52.421895</ele>
        <time>2019-09-10T15:12:51.900Z</time>
      </trkpt>
      <trkpt lat="10.1565674158455" lon="-75.6815808112389">
        <ele>52.421895</ele>
        <time>2019-09-10T15:12:52.000Z</time>
      </trkpt>
      <trkpt lat="10.1565692628397" lon="-75.681583294539">
        <ele>52.421895</ele>
        <time>2019-09-10T15:12:52.100Z</time>
      </trkpt>
      <trkpt lat="10.1565711014963" lon="-75.6815857567769">
        <ele>52.321895</ele>
        <time>2019-09-10T15:12:52.200Z</time>
      </trkpt>
      <trkpt lat="10.1565729730865" lon="-75.6815881976043">
        <ele>52.321895</ele>
        <time>2019-09-10T15:12:52.300Z</time>
      </trkpt>
      <trkpt lat="10.1565748546819" lon="-75.6815906451507">
        <ele>52.321895</ele>
        <time>2019-09-10T15:12:52.400Z</time>
      </trkpt>
      <trkpt lat="10.1565767677518" lon="-75.681593079816">
        <ele>52.321895</ele>
        <time>2019-09-10T15:12:52.500Z</time>
      </trkpt>
      <trkpt lat="10.1565786758192" lon="-75.6815955170576">
        <ele>52.321895</ele>
        <time>2019-09-10T15:12:52.600Z</time>
      </trkpt>
      <trkpt lat="10.1565806101501" lon="-75.6815979125923">
        <ele>52.321895</ele>
        <time>2019-09-10T15:12:52.700Z</time>
      </trkpt>
      <trkpt lat="10.1565825278058" lon="-75.6816002844536">
        <ele>52.321895</ele>
        <time>2019-09-10T15:12:52.800Z</time>
      </trkpt>
      <trkpt lat="10.1565844915269" lon="-75.6816026467064">
        <ele>52.321895</ele>
        <time>2019-09-10T15:12:52.900Z</time>
      </trkpt>
      <trkpt lat="10.1565864560817" lon="-75.6816050127538">
        <ele>52.321895</ele>
        <time>2019-09-10T15:12:53.000Z</time>
      </trkpt>
      <trkpt lat="10.1565884677442" lon="-75.6816073844062">
        <ele>52.321895</ele>
        <time>2019-09-10T15:12:53.100Z</time>
      </trkpt>
      <trkpt lat="10.1565904537684" lon="-75.6816097512196">
        <ele>52.321895</ele>
        <time>2019-09-10T15:12:53.200Z</time>
      </trkpt>
      <trkpt lat="10.1565924274946" lon="-75.6816120694329">
        <ele>52.321895</ele>
        <time>2019-09-10T15:12:53.300Z</time>
      </trkpt>
      <trkpt lat="10.1565943378549" lon="-75.6816143429454">
        <ele>52.321895</ele>
        <time>2019-09-10T15:12:53.400Z</time>
      </trkpt>
      <trkpt lat="10.1565962584287" lon="-75.6816165825492">
        <ele>52.321895</ele>
        <time>2019-09-10T15:12:53.500Z</time>
      </trkpt>
      <trkpt lat="10.156598161285" lon="-75.6816188103512">
        <ele>52.321895</ele>
        <time>2019-09-10T15:12:53.600Z</time>
      </trkpt>
      <trkpt lat="10.1566000789407" lon="-75.6816210013551">
        <ele>52.421895</ele>
        <time>2019-09-10T15:12:53.700Z</time>
      </trkpt>
      <trkpt lat="10.1566019634542" lon="-75.6816231839688">
        <ele>52.421895</ele>
        <time>2019-09-10T15:12:53.800Z</time>
      </trkpt>
      <trkpt lat="10.1566038673528" lon="-75.6816253545022">
        <ele>52.421895</ele>
        <time>2019-09-10T15:12:53.900Z</time>
      </trkpt>
      <trkpt lat="10.1566057397768" lon="-75.681627531685">
        <ele>52.421895</ele>
        <time>2019-09-10T15:12:54.000Z</time>
      </trkpt>
      <trkpt lat="10.1566076276254" lon="-75.6816296965089">
        <ele>52.321895</ele>
        <time>2019-09-10T15:12:54.100Z</time>
      </trkpt>
      <trkpt lat="10.1566094871261" lon="-75.6816318530123">
        <ele>52.321895</ele>
        <time>2019-09-10T15:12:54.200Z</time>
      </trkpt>
      <trkpt lat="10.1566113728903" lon="-75.6816339870608">
        <ele>52.321895</ele>
        <time>2019-09-10T15:12:54.300Z</time>
      </trkpt>
      <trkpt lat="10.1566132175916" lon="-75.6816361091334">
        <ele>52.321895</ele>
        <time>2019-09-10T15:12:54.400Z</time>
      </trkpt>
      <trkpt lat="10.1566151050234" lon="-75.681638223547">
        <ele>52.321895</ele>
        <time>2019-09-10T15:12:54.500Z</time>
      </trkpt>
      <trkpt lat="10.1566169609805" lon="-75.6816403430086">
        <ele>52.321895</ele>
        <time>2019-09-10T15:12:54.600Z</time>
      </trkpt>
      <trkpt lat="10.1566188331961" lon="-75.6816424403287">
        <ele>52.321895</ele>
        <time>2019-09-10T15:12:54.700Z</time>
      </trkpt>
      <trkpt lat="10.1566206528845" lon="-75.6816445344458">
        <ele>52.321895</ele>
        <time>2019-09-10T15:12:54.800Z</time>
      </trkpt>
      <trkpt lat="10.1566224681957" lon="-75.6816466149508">
        <ele>52.321895</ele>
        <time>2019-09-10T15:12:54.900Z</time>
      </trkpt>
      <trkpt lat="10.1566242434863" lon="-75.6816486979972">
        <ele>52.321895</ele>
        <time>2019-09-10T15:12:55.000Z</time>
      </trkpt>
      <trkpt lat="10.1566278007375" lon="-75.6816528436891">
        <ele>52.321895</ele>
        <time>2019-09-10T15:12:55.200Z</time>
      </trkpt>
      <trkpt lat="10.156629584991" lon="-75.6816548910514">
        <ele>52.321895</ele>
        <time>2019-09-10T15:12:55.300Z</time>
      </trkpt>
      <trkpt lat="10.1566313521524" lon="-75.6816569396322">
        <ele>52.321895</ele>
        <time>2019-09-10T15:12:55.400Z</time>
      </trkpt>
      <trkpt lat="10.1566331349468" lon="-75.6816589907892">
        <ele>52.321895</ele>
        <time>2019-09-10T15:12:55.500Z</time>
      </trkpt>
      <trkpt lat="10.1566348914777" lon="-75.6816610625211">
        <ele>52.321895</ele>
        <time>2019-09-10T15:12:55.600Z</time>
      </trkpt>
      <trkpt lat="10.156636666143" lon="-75.6816631515206">
        <ele>52.321895</ele>
        <time>2019-09-10T15:12:55.700Z</time>
      </trkpt>
      <trkpt lat="10.1566384189219" lon="-75.6816652509991">
        <ele>52.321895</ele>
        <time>2019-09-10T15:12:55.800Z</time>
      </trkpt>
      <trkpt lat="10.1566401566931" lon="-75.681667319006">
        <ele>52.321895</ele>
        <time>2019-09-10T15:12:55.900Z</time>
      </trkpt>
      <trkpt lat="10.1566418665333" lon="-75.6816693753502">
        <ele>52.321895</ele>
        <time>2019-09-10T15:12:56.000Z</time>
      </trkpt>
      <trkpt lat="10.1566435824182" lon="-75.6816714323907">
        <ele>52.321895</ele>
        <time>2019-09-10T15:12:56.100Z</time>
      </trkpt>
      <trkpt lat="10.1566452912161" lon="-75.6816735116772">
        <ele>52.321895</ele>
        <time>2019-09-10T15:12:56.200Z</time>
      </trkpt>
      <trkpt lat="10.1566470168978" lon="-75.6816755762027">
        <ele>52.321895</ele>
        <time>2019-09-10T15:12:56.300Z</time>
      </trkpt>
      <trkpt lat="10.1566487361178" lon="-75.6816776424688">
        <ele>52.321895</ele>
        <time>2019-09-10T15:12:56.400Z</time>
      </trkpt>
      <trkpt lat="10.1566504495014" lon="-75.6816796903185">
        <ele>52.321895</ele>
        <time>2019-09-10T15:12:56.500Z</time>
      </trkpt>
      <trkpt lat="10.1566521387059" lon="-75.681681747742">
        <ele>52.321895</ele>
        <time>2019-09-10T15:12:56.600Z</time>
      </trkpt>
      <trkpt lat="10.1566538210319" lon="-75.6816838124415">
        <ele>52.321895</ele>
        <time>2019-09-10T15:12:56.700Z</time>
      </trkpt>
      <trkpt lat="10.1566554904345" lon="-75.6816858972983">
        <ele>52.321895</ele>
        <time>2019-09-10T15:12:56.800Z</time>
      </trkpt>
      <trkpt lat="10.156657155043" lon="-75.6816879679858">
        <ele>52.321895</ele>
        <time>2019-09-10T15:12:56.900Z</time>
      </trkpt>
      <trkpt lat="10.1566588086041" lon="-75.6816900403791">
        <ele>52.321895</ele>
        <time>2019-09-10T15:12:57.000Z</time>
      </trkpt>
      <trkpt lat="10.1566604669593" lon="-75.68169209829">
        <ele>52.321895</ele>
        <time>2019-09-10T15:12:57.100Z</time>
      </trkpt>
      <trkpt lat="10.156662136362" lon="-75.6816941619799">
        <ele>52.321895</ele>
        <time>2019-09-10T15:12:57.200Z</time>
      </trkpt>
      <trkpt lat="10.1566638207723" lon="-75.6816962287683">
        <ele>52.321895</ele>
        <time>2019-09-10T15:12:57.300Z</time>
      </trkpt>
      <trkpt lat="10.1566655018476" lon="-75.6816983174197">
        <ele>52.321895</ele>
        <time>2019-09-10T15:12:57.400Z</time>
      </trkpt>
      <trkpt lat="10.1566672006404" lon="-75.6817004132427">
        <ele>52.321895</ele>
        <time>2019-09-10T15:12:57.500Z</time>
      </trkpt>
      <trkpt lat="10.1566689073539" lon="-75.6817025186048">
        <ele>52.321895</ele>
        <time>2019-09-10T15:12:57.600Z</time>
      </trkpt>
      <trkpt lat="10.1566706288668" lon="-75.6817046262297">
        <ele>52.321895</ele>
        <time>2019-09-10T15:12:57.700Z</time>
      </trkpt>
      <trkpt lat="10.1566723414166" lon="-75.6817067358389">
        <ele>52.321895</ele>
        <time>2019-09-10T15:12:57.800Z</time>
      </trkpt>
      <trkpt lat="10.1566740422938" lon="-75.6817088478504">
        <ele>52.321895</ele>
        <time>2019-09-10T15:12:57.900Z</time>
      </trkpt>
      <trkpt lat="10.1566757302477" lon="-75.6817109680082">
        <ele>52.321895</ele>
        <time>2019-09-10T15:12:58.000Z</time>
      </trkpt>
      <trkpt lat="10.1566774031938" lon="-75.6817130831181">
        <ele>52.321895</ele>
        <time>2019-09-10T15:12:58.100Z</time>
      </trkpt>
      <trkpt lat="10.1566790690529" lon="-75.6817151958954">
        <ele>52.321895</ele>
        <time>2019-09-10T15:12:58.200Z</time>
      </trkpt>
      <trkpt lat="10.1566807863969" lon="-75.6817173472812">
        <ele>52.321895</ele>
        <time>2019-09-10T15:12:58.300Z</time>
      </trkpt>
      <trkpt lat="10.156682519374" lon="-75.6817195051076">
        <ele>52.321895</ele>
        <time>2019-09-10T15:12:58.400Z</time>
      </trkpt>
      <trkpt lat="10.1566842229609" lon="-75.6817216026017">
        <ele>52.321895</ele>
        <time>2019-09-10T15:12:58.500Z</time>
      </trkpt>
      <trkpt lat="10.1566858954901" lon="-75.6817236633325">
        <ele>52.321895</ele>
        <time>2019-09-10T15:12:58.600Z</time>
      </trkpt>
      <trkpt lat="10.156689235546" lon="-75.6817277784231">
        <ele>52.421895</ele>
        <time>2019-09-10T15:12:58.800Z</time>
      </trkpt>
      <trkpt lat="10.1566909105766" lon="-75.6817298228262">
        <ele>52.421895</ele>
        <time>2019-09-10T15:12:58.900Z</time>
      </trkpt>
      <trkpt lat="10.1566925943616" lon="-75.6817318752365">
        <ele>52.421895</ele>
        <time>2019-09-10T15:12:59.000Z</time>
      </trkpt>
      <trkpt lat="10.1566942523" lon="-75.6817338925893">
        <ele>52.321895</ele>
        <time>2019-09-10T15:12:59.100Z</time>
      </trkpt>
      <trkpt lat="10.1566958971066" lon="-75.681735906426">
        <ele>52.421895</ele>
        <time>2019-09-10T15:12:59.200Z</time>
      </trkpt>
      <trkpt lat="10.1566975817254" lon="-75.6817379870702">
        <ele>52.321895</ele>
        <time>2019-09-10T15:12:59.300Z</time>
      </trkpt>
      <trkpt lat="10.1567027925377" lon="-75.6817444521939">
        <ele>52.321895</ele>
        <time>2019-09-10T15:12:59.600Z</time>
      </trkpt>
      <trkpt lat="10.1567045419816" lon="-75.6817466082448">
        <ele>52.321895</ele>
        <time>2019-09-10T15:12:59.700Z</time>
      </trkpt>
      <trkpt lat="10.1567062568243" lon="-75.6817487487339">
        <ele>52.321895</ele>
        <time>2019-09-10T15:12:59.800Z</time>
      </trkpt>
      <trkpt lat="10.1567079476964" lon="-75.6817509066646">
        <ele>52.321895</ele>
        <time>2019-09-10T15:12:59.900Z</time>
      </trkpt>
      <trkpt lat="10.1567096210594" lon="-75.6817530627851">
        <ele>52.321895</ele>
        <time>2019-09-10T15:13:00.000Z</time>
      </trkpt>
      <trkpt lat="10.1567113069288" lon="-75.6817552321696">
        <ele>52.321895</ele>
        <time>2019-09-10T15:13:00.100Z</time>
      </trkpt>
      <trkpt lat="10.1567129975924" lon="-75.681757396541">
        <ele>52.321895</ele>
        <time>2019-09-10T15:13:00.200Z</time>
      </trkpt>
      <trkpt lat="10.1567146715807" lon="-75.6817595446195">
        <ele>52.321895</ele>
        <time>2019-09-10T15:13:00.300Z</time>
      </trkpt>
      <trkpt lat="10.1567163255587" lon="-75.6817616758133">
        <ele>52.321895</ele>
        <time>2019-09-10T15:13:00.400Z</time>
      </trkpt>
      <trkpt lat="10.156717983914" lon="-75.6817638087826">
        <ele>52.321895</ele>
        <time>2019-09-10T15:13:00.500Z</time>
      </trkpt>
      <trkpt lat="10.1567196485224" lon="-75.6817659444326">
        <ele>52.321895</ele>
        <time>2019-09-10T15:13:00.600Z</time>
      </trkpt>
      <trkpt lat="10.1567213010414" lon="-75.6817680600994">
        <ele>52.321895</ele>
        <time>2019-09-10T15:13:00.700Z</time>
      </trkpt>
      <trkpt lat="10.1567229529349" lon="-75.6817701664711">
        <ele>52.321895</ele>
        <time>2019-09-10T15:13:00.800Z</time>
      </trkpt>
      <trkpt lat="10.156724649018" lon="-75.6817722961331">
        <ele>52.321895</ele>
        <time>2019-09-10T15:13:00.900Z</time>
      </trkpt>
      <trkpt lat="10.1567263680295" lon="-75.6817744405561">
        <ele>52.421895</ele>
        <time>2019-09-10T15:13:01.000Z</time>
      </trkpt>
      <trkpt lat="10.1567280626535" lon="-75.6817765509313">
        <ele>52.421895</ele>
        <time>2019-09-10T15:13:01.100Z</time>
      </trkpt>
      <trkpt lat="10.1567297368503" lon="-75.6817786375287">
        <ele>52.421895</ele>
        <time>2019-09-10T15:13:01.200Z</time>
      </trkpt>
      <trkpt lat="10.1567314118808" lon="-75.6817807097828">
        <ele>52.421895</ele>
        <time>2019-09-10T15:13:01.300Z</time>
      </trkpt>
      <trkpt lat="10.1567330958743" lon="-75.6817827912974">
        <ele>52.421895</ele>
        <time>2019-09-10T15:13:01.400Z</time>
      </trkpt>
      <trkpt lat="10.1567347973768" lon="-75.6817848702706">
        <ele>52.421895</ele>
        <time>2019-09-10T15:13:01.500Z</time>
      </trkpt>
      <trkpt lat="10.1567365107604" lon="-75.6817869596183">
        <ele>52.421895</ele>
        <time>2019-09-10T15:13:01.600Z</time>
      </trkpt>
      <trkpt lat="10.1567382089279" lon="-75.6817890473645">
        <ele>52.421895</ele>
        <time>2019-09-10T15:13:01.700Z</time>
      </trkpt>
      <trkpt lat="10.1567398997999" lon="-75.6817911377218">
        <ele>52.421895</ele>
        <time>2019-09-10T15:13:01.800Z</time>
      </trkpt>
      <trkpt lat="10.1567416119329" lon="-75.6817932275917">
        <ele>52.421895</ele>
        <time>2019-09-10T15:13:01.900Z</time>
      </trkpt>
      <trkpt lat="10.1567433451184" lon="-75.6817953192023">
        <ele>52.421895</ele>
        <time>2019-09-10T15:13:02.000Z</time>
      </trkpt>
      <trkpt lat="10.1567451028999" lon="-75.6817974074359">
        <ele>52.421895</ele>
        <time>2019-09-10T15:13:02.100Z</time>
      </trkpt>
      <trkpt lat="10.1567468717288" lon="-75.6817994955303">
        <ele>52.421895</ele>
        <time>2019-09-10T15:13:02.200Z</time>
      </trkpt>
      <trkpt lat="10.156748662444" lon="-75.6818015640594">
        <ele>52.421895</ele>
        <time>2019-09-10T15:13:02.300Z</time>
      </trkpt>
      <trkpt lat="10.1567504512832" lon="-75.6818036261479">
        <ele>52.421895</ele>
        <time>2019-09-10T15:13:02.400Z</time>
      </trkpt>
      <trkpt lat="10.156752215318" lon="-75.68180569036">
        <ele>52.421895</ele>
        <time>2019-09-10T15:13:02.500Z</time>
      </trkpt>
      <trkpt lat="10.1567539599677" lon="-75.681807767314">
        <ele>52.421895</ele>
        <time>2019-09-10T15:13:02.600Z</time>
      </trkpt>
      <trkpt lat="10.1567556837734" lon="-75.6818098325706">
        <ele>52.421895</ele>
        <time>2019-09-10T15:13:02.700Z</time>
      </trkpt>
      <trkpt lat="10.156757397157" lon="-75.6818118947287">
        <ele>52.421895</ele>
        <time>2019-09-10T15:13:02.800Z</time>
      </trkpt>
      <trkpt lat="10.1567591055381" lon="-75.6818139448761">
        <ele>52.421895</ele>
        <time>2019-09-10T15:13:02.900Z</time>
      </trkpt>
      <trkpt lat="10.1567608231948" lon="-75.6818159967642">
        <ele>52.421895</ele>
        <time>2019-09-10T15:13:03.000Z</time>
      </trkpt>
      <trkpt lat="10.1567625504397" lon="-75.6818180406451">
        <ele>52.421895</ele>
        <time>2019-09-10T15:13:03.100Z</time>
      </trkpt>
      <trkpt lat="10.1567642859181" lon="-75.6818200917672">
        <ele>52.421895</ele>
        <time>2019-09-10T15:13:03.200Z</time>
      </trkpt>
      <trkpt lat="10.1567660019072" lon="-75.6818221370059">
        <ele>52.421895</ele>
        <time>2019-09-10T15:13:03.300Z</time>
      </trkpt>
      <trkpt lat="10.1567677230032" lon="-75.6818241926539">
        <ele>52.421895</ele>
        <time>2019-09-10T15:13:03.400Z</time>
      </trkpt>
      <trkpt lat="10.1567694774497" lon="-75.6818262626103">
        <ele>52.421895</ele>
        <time>2019-09-10T15:13:03.500Z</time>
      </trkpt>
      <trkpt lat="10.1567712427351" lon="-75.6818283460744">
        <ele>52.421895</ele>
        <time>2019-09-10T15:13:03.600Z</time>
      </trkpt>
      <trkpt lat="10.1567729937423" lon="-75.6818304180849">
        <ele>52.421895</ele>
        <time>2019-09-10T15:13:03.700Z</time>
      </trkpt>
      <trkpt lat="10.1567764580289" lon="-75.68183453046">
        <ele>52.421895</ele>
        <time>2019-09-10T15:13:03.900Z</time>
      </trkpt>
      <trkpt lat="10.1567781860034" lon="-75.6818365920263">
        <ele>52.321895</ele>
        <time>2019-09-10T15:13:04.000Z</time>
      </trkpt>
      <trkpt lat="10.156779876667" lon="-75.6818386711039">
        <ele>52.321895</ele>
        <time>2019-09-10T15:13:04.100Z</time>
      </trkpt>
      <trkpt lat="10.1567815570127" lon="-75.681840774029">
        <ele>52.321895</ele>
        <time>2019-09-10T15:13:04.200Z</time>
      </trkpt>
      <trkpt lat="10.156783231939" lon="-75.6818428700261">
        <ele>52.321895</ele>
        <time>2019-09-10T15:13:04.300Z</time>
      </trkpt>
      <trkpt lat="10.1567849218731" lon="-75.6818449601397">
        <ele>52.321895</ele>
        <time>2019-09-10T15:13:04.400Z</time>
      </trkpt>
      <trkpt lat="10.1567866063877" lon="-75.6818470587826">
        <ele>52.321895</ele>
        <time>2019-09-10T15:13:04.500Z</time>
      </trkpt>
      <trkpt lat="10.1567882981977" lon="-75.6818491686356">
        <ele>52.421895</ele>
        <time>2019-09-10T15:13:04.600Z</time>
      </trkpt>
      <trkpt lat="10.1567899440465" lon="-75.6818512567648">
        <ele>52.421895</ele>
        <time>2019-09-10T15:13:04.700Z</time>
      </trkpt>
      <trkpt lat="10.1567915835378" lon="-75.681853339846">
        <ele>52.321895</ele>
        <time>2019-09-10T15:13:04.800Z</time>
      </trkpt>
      <trkpt lat="10.1567932114607" lon="-75.6818554142586">
        <ele>52.321895</ele>
        <time>2019-09-10T15:13:04.900Z</time>
      </trkpt>
      <trkpt lat="10.1567948734637" lon="-75.6818575007864">
        <ele>52.321895</ele>
        <time>2019-09-10T15:13:05.000Z</time>
      </trkpt>
      <trkpt lat="10.156796558812" lon="-75.6818595788544">
        <ele>52.321895</ele>
        <time>2019-09-10T15:13:05.100Z</time>
      </trkpt>
      <trkpt lat="10.1567982784489" lon="-75.6818616655214">
        <ele>52.321895</ele>
        <time>2019-09-10T15:13:05.200Z</time>
      </trkpt>
      <trkpt lat="10.1568000226818" lon="-75.6818637684117">
        <ele>52.321895</ele>
        <time>2019-09-10T15:13:05.300Z</time>
      </trkpt>
      <trkpt lat="10.1568017695202" lon="-75.6818658825467">
        <ele>52.321895</ele>
        <time>2019-09-10T15:13:05.400Z</time>
      </trkpt>
      <trkpt lat="10.156803490095" lon="-75.6818679783001">
        <ele>52.321895</ele>
        <time>2019-09-10T15:13:05.500Z</time>
      </trkpt>
      <trkpt lat="10.1568051997267" lon="-75.6818700562637">
        <ele>52.321895</ele>
        <time>2019-09-10T15:13:05.600Z</time>
      </trkpt>
      <trkpt lat="10.1568069435427" lon="-75.6818721573785">
        <ele>52.321895</ele>
        <time>2019-09-10T15:13:05.700Z</time>
      </trkpt>
      <trkpt lat="10.1568087198755" lon="-75.6818742744031">
        <ele>52.321895</ele>
        <time>2019-09-10T15:13:05.800Z</time>
      </trkpt>
      <trkpt lat="10.1568105000644" lon="-75.6818763907314">
        <ele>52.321895</ele>
        <time>2019-09-10T15:13:05.900Z</time>
      </trkpt>
      <trkpt lat="10.156812277752" lon="-75.6818784968245">
        <ele>52.321895</ele>
        <time>2019-09-10T15:13:06.000Z</time>
      </trkpt>
      <trkpt lat="10.1568140669039" lon="-75.6818806079308">
        <ele>52.321895</ele>
        <time>2019-09-10T15:13:06.100Z</time>
      </trkpt>
      <trkpt lat="10.1568158595993" lon="-75.681882712701">
        <ele>52.321895</ele>
        <time>2019-09-10T15:13:06.200Z</time>
      </trkpt>
      <trkpt lat="10.1568176039364" lon="-75.6818847779227">
        <ele>52.321895</ele>
        <time>2019-09-10T15:13:06.300Z</time>
      </trkpt>
      <trkpt lat="10.1568193256577" lon="-75.6818868254591">
        <ele>52.321895</ele>
        <time>2019-09-10T15:13:06.400Z</time>
      </trkpt>
      <trkpt lat="10.1568210288277" lon="-75.6818888725081">
        <ele>52.321895</ele>
        <time>2019-09-10T15:13:06.500Z</time>
      </trkpt>
      <trkpt lat="10.1568227585739" lon="-75.6818909418378">
        <ele>52.321895</ele>
        <time>2019-09-10T15:13:06.600Z</time>
      </trkpt>
      <trkpt lat="10.1568245154175" lon="-75.6818930186874">
        <ele>52.321895</ele>
        <time>2019-09-10T15:13:06.700Z</time>
      </trkpt>
      <trkpt lat="10.1568263123859" lon="-75.6818951157289">
        <ele>52.321895</ele>
        <time>2019-09-10T15:13:06.800Z</time>
      </trkpt>
      <trkpt lat="10.1568281212354" lon="-75.6818972189673">
        <ele>52.321895</ele>
        <time>2019-09-10T15:13:06.900Z</time>
      </trkpt>
      <trkpt lat="10.1568299316483" lon="-75.6818993249211">
        <ele>52.321895</ele>
        <time>2019-09-10T15:13:07.000Z</time>
      </trkpt>
      <trkpt lat="10.1568317201748" lon="-75.6819014272543">
        <ele>52.321895</ele>
        <time>2019-09-10T15:13:07.100Z</time>
      </trkpt>
      <trkpt lat="10.1568334875446" lon="-75.6819035279861">
        <ele>52.321895</ele>
        <time>2019-09-10T15:13:07.200Z</time>
      </trkpt>
      <trkpt lat="10.1568352398025" lon="-75.6819056333133">
        <ele>52.321895</ele>
        <time>2019-09-10T15:13:07.300Z</time>
      </trkpt>
      <trkpt lat="10.1568369978967" lon="-75.6819077378746">
        <ele>52.321895</ele>
        <time>2019-09-10T15:13:07.400Z</time>
      </trkpt>
      <trkpt lat="10.1568387408789" lon="-75.6819098007986">
        <ele>52.321895</ele>
        <time>2019-09-10T15:13:07.500Z</time>
      </trkpt>
      <trkpt lat="10.1568404831316" lon="-75.6819118465943">
        <ele>52.321895</ele>
        <time>2019-09-10T15:13:07.600Z</time>
      </trkpt>
      <trkpt lat="10.1568422315333" lon="-75.6819139125819">
        <ele>52.321895</ele>
        <time>2019-09-10T15:13:07.700Z</time>
      </trkpt>
      <trkpt lat="10.1568439949427" lon="-75.6819160137315">
        <ele>52.321895</ele>
        <time>2019-09-10T15:13:07.800Z</time>
      </trkpt>
      <trkpt lat="10.1568457319844" lon="-75.6819180980312">
        <ele>52.321895</ele>
        <time>2019-09-10T15:13:07.900Z</time>
      </trkpt>
      <trkpt lat="10.156849184911" lon="-75.681922230842">
        <ele>52.321895</ele>
        <time>2019-09-10T15:13:08.100Z</time>
      </trkpt>
      <trkpt lat="10.156850927789" lon="-75.6819243053938">
        <ele>52.321895</ele>
        <time>2019-09-10T15:13:08.200Z</time>
      </trkpt>
      <trkpt lat="10.1568526568057" lon="-75.6819263828004">
        <ele>52.321895</ele>
        <time>2019-09-10T15:13:08.300Z</time>
      </trkpt>
      <trkpt lat="10.1568543849887" lon="-75.6819284657772">
        <ele>52.321895</ele>
        <time>2019-09-10T15:13:08.400Z</time>
      </trkpt>
      <trkpt lat="10.1568560829477" lon="-75.6819305397023">
        <ele>52.321895</ele>
        <time>2019-09-10T15:13:08.500Z</time>
      </trkpt>
      <trkpt lat="10.1568577746535" lon="-75.6819326107032">
        <ele>52.421895</ele>
        <time>2019-09-10T15:13:08.600Z</time>
      </trkpt>
      <trkpt lat="10.1568595090896" lon="-75.6819347214613">
        <ele>52.421895</ele>
        <time>2019-09-10T15:13:08.700Z</time>
      </trkpt>
      <trkpt lat="10.1568612711442" lon="-75.6819368473286">
        <ele>52.421895</ele>
        <time>2019-09-10T15:13:08.800Z</time>
      </trkpt>
      <trkpt lat="10.1568630144391" lon="-75.6819389388">
        <ele>52.421895</ele>
        <time>2019-09-10T15:13:08.900Z</time>
      </trkpt>
      <trkpt lat="10.1568647305324" lon="-75.6819410093134">
        <ele>52.421895</ele>
        <time>2019-09-10T15:13:09.000Z</time>
      </trkpt>
      <trkpt lat="10.1568663900341" lon="-75.6819430601223">
        <ele>52.421895</ele>
        <time>2019-09-10T15:13:09.100Z</time>
      </trkpt>
      <trkpt lat="10.1568680335901" lon="-75.6819451210967">
        <ele>52.421895</ele>
        <time>2019-09-10T15:13:09.200Z</time>
      </trkpt>
      <trkpt lat="10.1568696677662" lon="-75.6819471574927">
        <ele>52.421895</ele>
        <time>2019-09-10T15:13:09.300Z</time>
      </trkpt>
      <trkpt lat="10.1568713294565" lon="-75.6819492081623">
        <ele>52.421895</ele>
        <time>2019-09-10T15:13:09.400Z</time>
      </trkpt>
      <trkpt lat="10.1568729919806" lon="-75.6819512241574">
        <ele>52.421895</ele>
        <time>2019-09-10T15:13:09.500Z</time>
      </trkpt>
      <trkpt lat="10.156874657006" lon="-75.6819532505966">
        <ele>52.421895</ele>
        <time>2019-09-10T15:13:09.600Z</time>
      </trkpt>
      <trkpt lat="10.15687628076" lon="-75.6819552599074">
        <ele>52.421895</ele>
        <time>2019-09-10T15:13:09.700Z</time>
      </trkpt>
      <trkpt lat="10.1568778974271" lon="-75.6819572905939">
        <ele>52.421895</ele>
        <time>2019-09-10T15:13:09.800Z</time>
      </trkpt>
      <trkpt lat="10.1568794930417" lon="-75.6819593154317">
        <ele>52.421895</ele>
        <time>2019-09-10T15:13:09.900Z</time>
      </trkpt>
      <trkpt lat="10.1568811123143" lon="-75.6819613642214">
        <ele>52.421895</ele>
        <time>2019-09-10T15:13:10.000Z</time>
      </trkpt>
      <trkpt lat="10.1568827266885" lon="-75.6819634089726">
        <ele>52.421895</ele>
        <time>2019-09-10T15:13:10.100Z</time>
      </trkpt>
      <trkpt lat="10.1568843637828" lon="-75.6819654741248">
        <ele>52.421895</ele>
        <time>2019-09-10T15:13:10.200Z</time>
      </trkpt>
      <trkpt lat="10.1568859949365" lon="-75.681967553829">
        <ele>52.421895</ele>
        <time>2019-09-10T15:13:10.300Z</time>
      </trkpt>
      <trkpt lat="10.1568876403685" lon="-75.6819696596436">
        <ele>52.421895</ele>
        <time>2019-09-10T15:13:10.400Z</time>
      </trkpt>
      <trkpt lat="10.156889307374" lon="-75.6819718017341">
        <ele>52.421895</ele>
        <time>2019-09-10T15:13:10.500Z</time>
      </trkpt>
      <trkpt lat="10.1568910067921" lon="-75.6819739647826">
        <ele>52.421895</ele>
        <time>2019-09-10T15:13:10.600Z</time>
      </trkpt>
      <trkpt lat="10.1568927017287" lon="-75.6819761221215">
        <ele>52.421895</ele>
        <time>2019-09-10T15:13:10.700Z</time>
      </trkpt>
      <trkpt lat="10.1568944020848" lon="-75.6819782622625">
        <ele>52.421895</ele>
        <time>2019-09-10T15:13:10.800Z</time>
      </trkpt>
      <trkpt lat="10.1568961263074" lon="-75.6819804334573">
        <ele>52.421895</ele>
        <time>2019-09-10T15:13:10.900Z</time>
      </trkpt>
      <trkpt lat="10.156897875126" lon="-75.6819826079942">
        <ele>52.421895</ele>
        <time>2019-09-10T15:13:11.000Z</time>
      </trkpt>
      <trkpt lat="10.1568996323864" lon="-75.6819847570475">
        <ele>52.421895</ele>
        <time>2019-09-10T15:13:11.100Z</time>
      </trkpt>
      <trkpt lat="10.1569014002773" lon="-75.6819868760913">
        <ele>52.421895</ele>
        <time>2019-09-10T15:13:11.200Z</time>
      </trkpt>
      <trkpt lat="10.1569031951613" lon="-75.6819889968062">
        <ele>52.421895</ele>
        <time>2019-09-10T15:13:11.300Z</time>
      </trkpt>
      <trkpt lat="10.1569068085873" lon="-75.6819932287666">
        <ele>52.321895</ele>
        <time>2019-09-10T15:13:11.500Z</time>
      </trkpt>
      <trkpt lat="10.1569086075359" lon="-75.6819953259474">
        <ele>52.421895</ele>
        <time>2019-09-10T15:13:11.600Z</time>
      </trkpt>
      <trkpt lat="10.1569103845983" lon="-75.6819974386551">
        <ele>52.421895</ele>
        <time>2019-09-10T15:13:11.700Z</time>
      </trkpt>
      <trkpt lat="10.1569121641619" lon="-75.6819995643135">
        <ele>52.421895</ele>
        <time>2019-09-10T15:13:11.800Z</time>
      </trkpt>
      <trkpt lat="10.1569139385144" lon="-75.6820016865602">
        <ele>52.421895</ele>
        <time>2019-09-10T15:13:11.900Z</time>
      </trkpt>
      <trkpt lat="10.156915730376" lon="-75.6820038064396">
        <ele>52.421895</ele>
        <time>2019-09-10T15:13:12.000Z</time>
      </trkpt>
      <trkpt lat="10.1569175369327" lon="-75.6820059391304">
        <ele>52.421895</ele>
        <time>2019-09-10T15:13:12.100Z</time>
      </trkpt>
      <trkpt lat="10.1569193637082" lon="-75.6820080789928">
        <ele>52.421895</ele>
        <time>2019-09-10T15:13:12.200Z</time>
      </trkpt>
      <trkpt lat="10.1569211796447" lon="-75.6820102399524">
        <ele>52.321895</ele>
        <time>2019-09-10T15:13:12.300Z</time>
      </trkpt>
      <trkpt lat="10.1569229860972" lon="-75.6820123988928">
        <ele>52.321895</ele>
        <time>2019-09-10T15:13:12.400Z</time>
      </trkpt>
      <trkpt lat="10.1569265444948" lon="-75.6820166772251">
        <ele>52.421895</ele>
        <time>2019-09-10T15:13:12.600Z</time>
      </trkpt>
      <trkpt lat="10.1569283042565" lon="-75.6820187820649">
        <ele>52.421895</ele>
        <time>2019-09-10T15:13:12.700Z</time>
      </trkpt>
      <trkpt lat="10.1569300675618" lon="-75.6820208824486">
        <ele>52.421895</ele>
        <time>2019-09-10T15:13:12.800Z</time>
      </trkpt>
      <trkpt lat="10.1569318191943" lon="-75.6820229713437">
        <ele>52.421895</ele>
        <time>2019-09-10T15:13:12.900Z</time>
      </trkpt>
      <trkpt lat="10.1569335752041" lon="-75.6820250674104">
        <ele>52.421895</ele>
        <time>2019-09-10T15:13:13.000Z</time>
      </trkpt>
      <trkpt lat="10.1569353324645" lon="-75.6820271547737">
        <ele>52.421895</ele>
        <time>2019-09-10T15:13:13.100Z</time>
      </trkpt>
      <trkpt lat="10.1569370938938" lon="-75.6820292506315">
        <ele>52.421895</ele>
        <time>2019-09-10T15:13:13.200Z</time>
      </trkpt>
      <trkpt lat="10.1569388343747" lon="-75.6820313388304">
        <ele>52.421895</ele>
        <time>2019-09-10T15:13:13.300Z</time>
      </trkpt>
      <trkpt lat="10.15694056558" lon="-75.6820334296054">
        <ele>52.321895</ele>
        <time>2019-09-10T15:13:13.400Z</time>
      </trkpt>
      <trkpt lat="10.1569422656234" lon="-75.6820354818068">
        <ele>52.321895</ele>
        <time>2019-09-10T15:13:13.500Z</time>
      </trkpt>
      <trkpt lat="10.1569439546195" lon="-75.6820375238426">
        <ele>52.321895</ele>
        <time>2019-09-10T15:13:13.600Z</time>
      </trkpt>
      <trkpt lat="10.15694562965" lon="-75.6820395632325">
        <ele>52.321895</ele>
        <time>2019-09-10T15:13:13.700Z</time>
      </trkpt>
      <trkpt lat="10.1569473253162" lon="-75.6820416188457">
        <ele>52.321895</ele>
        <time>2019-09-10T15:13:13.800Z</time>
      </trkpt>
      <trkpt lat="10.156949026506" lon="-75.682043677801">
        <ele>52.321895</ele>
        <time>2019-09-10T15:13:13.900Z</time>
      </trkpt>
      <trkpt lat="10.1569507415572" lon="-75.682045749707">
        <ele>52.321895</ele>
        <time>2019-09-10T15:13:14.000Z</time>
      </trkpt>
      <trkpt lat="10.1569524349305" lon="-75.6820477895147">
        <ele>52.321895</ele>
        <time>2019-09-10T15:13:14.100Z</time>
      </trkpt>
      <trkpt lat="10.1569541247603" lon="-75.6820498183212">
        <ele>52.321895</ele>
        <time>2019-09-10T15:13:14.200Z</time>
      </trkpt>
      <trkpt lat="10.1569558054188" lon="-75.6820518238722">
        <ele>52.321895</ele>
        <time>2019-09-10T15:13:14.300Z</time>
      </trkpt>
      <trkpt lat="10.1569575078593" lon="-75.6820538400762">
        <ele>52.321895</ele>
        <time>2019-09-10T15:13:14.400Z</time>
      </trkpt>
      <trkpt lat="10.1569591813265" lon="-75.6820558375503">
        <ele>52.421895</ele>
        <time>2019-09-10T15:13:14.500Z</time>
      </trkpt>
      <trkpt lat="10.156960855419" lon="-75.6820578511085">
        <ele>52.421895</ele>
        <time>2019-09-10T15:13:14.600Z</time>
      </trkpt>
      <trkpt lat="10.1569625223203" lon="-75.6820598861119">
        <ele>52.421895</ele>
        <time>2019-09-10T15:13:14.700Z</time>
      </trkpt>
      <trkpt lat="10.1569642095447" lon="-75.6820619653287">
        <ele>52.421895</ele>
        <time>2019-09-10T15:13:14.800Z</time>
      </trkpt>
      <trkpt lat="10.1569658743616" lon="-75.6820640700989">
        <ele>52.421895</ele>
        <time>2019-09-10T15:13:14.900Z</time>
      </trkpt>
      <trkpt lat="10.1569675382405" lon="-75.6820661886554">
        <ele>52.421895</ele>
        <time>2019-09-10T15:13:15.000Z</time>
      </trkpt>
      <trkpt lat="10.1569691876328" lon="-75.6820683189092">
        <ele>52.421895</ele>
        <time>2019-09-10T15:13:15.100Z</time>
      </trkpt>
      <trkpt lat="10.1569708513033" lon="-75.6820704437321">
        <ele>52.421895</ele>
        <time>2019-09-10T15:13:15.200Z</time>
      </trkpt>
      <trkpt lat="10.156972499445" lon="-75.6820725687639">
        <ele>52.421895</ele>
        <time>2019-09-10T15:13:15.300Z</time>
      </trkpt>
      <trkpt lat="10.1569741596762" lon="-75.6820746896876">
        <ele>52.421895</ele>
        <time>2019-09-10T15:13:15.400Z</time>
      </trkpt>
      <trkpt lat="10.1569758026068" lon="-75.6820767823426">
        <ele>52.421895</ele>
        <time>2019-09-10T15:13:15.500Z</time>
      </trkpt>
      <trkpt lat="10.1569774555426" lon="-75.6820788596796">
        <ele>52.421895</ele>
        <time>2019-09-10T15:13:15.600Z</time>
      </trkpt>
      <trkpt lat="10.1569791274465" lon="-75.682080926085">
        <ele>52.321895</ele>
        <time>2019-09-10T15:13:15.700Z</time>
      </trkpt>
      <trkpt lat="10.1569808353065" lon="-75.6820829988961">
        <ele>52.321895</ele>
        <time>2019-09-10T15:13:15.800Z</time>
      </trkpt>
      <trkpt lat="10.1569825486901" lon="-75.6820850483124">
        <ele>52.321895</ele>
        <time>2019-09-10T15:13:15.900Z</time>
      </trkpt>
      <trkpt lat="10.1569842785406" lon="-75.6820871005835">
        <ele>52.321895</ele>
        <time>2019-09-10T15:13:16.000Z</time>
      </trkpt>
      <trkpt lat="10.1569860307984" lon="-75.6820891566144">
        <ele>52.321895</ele>
        <time>2019-09-10T15:13:16.100Z</time>
      </trkpt>
      <trkpt lat="10.1569877888926" lon="-75.682091233812">
        <ele>52.321895</ele>
        <time>2019-09-10T15:13:16.200Z</time>
      </trkpt>
      <trkpt lat="10.1569895193684" lon="-75.6820933266759">
        <ele>52.321895</ele>
        <time>2019-09-10T15:13:16.300Z</time>
      </trkpt>
      <trkpt lat="10.1569912343154" lon="-75.6820954300536">
        <ele>52.321895</ele>
        <time>2019-09-10T15:13:16.400Z</time>
      </trkpt>
      <trkpt lat="10.1569929868859" lon="-75.6820975689412">
        <ele>52.321895</ele>
        <time>2019-09-10T15:13:16.500Z</time>
      </trkpt>
      <trkpt lat="10.156994778539" lon="-75.6820997142346">
        <ele>52.321895</ele>
        <time>2019-09-10T15:13:16.600Z</time>
      </trkpt>
      <trkpt lat="10.1569965397598" lon="-75.6821018366902">
        <ele>52.321895</ele>
        <time>2019-09-10T15:13:16.700Z</time>
      </trkpt>
      <trkpt lat="10.1569982787817" lon="-75.6821039334532">
        <ele>52.321895</ele>
        <time>2019-09-10T15:13:16.800Z</time>
      </trkpt>
      <trkpt lat="10.1570017491131" lon="-75.6821081633248">
        <ele>52.321895</ele>
        <time>2019-09-10T15:13:17.000Z</time>
      </trkpt>
      <trkpt lat="10.1570034778171" lon="-75.6821102774947">
        <ele>52.321895</ele>
        <time>2019-09-10T15:13:17.100Z</time>
      </trkpt>
      <trkpt lat="10.1570052105858" lon="-75.6821123838663">
        <ele>52.321895</ele>
        <time>2019-09-10T15:13:17.200Z</time>
      </trkpt>
      <trkpt lat="10.1570069476274" lon="-75.6821144635705">
        <ele>52.321895</ele>
        <time>2019-09-10T15:13:17.300Z</time>
      </trkpt>
      <trkpt lat="10.1570086990515" lon="-75.6821165324825">
        <ele>52.321895</ele>
        <time>2019-09-10T15:13:17.400Z</time>
      </trkpt>
      <trkpt lat="10.1570104415127" lon="-75.6821186220043">
        <ele>52.321895</ele>
        <time>2019-09-10T15:13:17.500Z</time>
      </trkpt>
      <trkpt lat="10.157012178867" lon="-75.682120733598">
        <ele>52.321895</ele>
        <time>2019-09-10T15:13:17.600Z</time>
      </trkpt>
      <trkpt lat="10.1570156387764" lon="-75.6821249105526">
        <ele>52.321895</ele>
        <time>2019-09-10T15:13:17.800Z</time>
      </trkpt>
      <trkpt lat="10.157017386657" lon="-75.6821270160191">
        <ele>52.321895</ele>
        <time>2019-09-10T15:13:17.900Z</time>
      </trkpt>
      <trkpt lat="10.1570191447511" lon="-75.6821291381961">
        <ele>52.321895</ele>
        <time>2019-09-10T15:13:18.000Z</time>
      </trkpt>
      <trkpt lat="10.1570208853363" lon="-75.6821312386494">
        <ele>52.321895</ele>
        <time>2019-09-10T15:13:18.100Z</time>
      </trkpt>
      <trkpt lat="10.1570226122686" lon="-75.6821333237846">
        <ele>52.321895</ele>
        <time>2019-09-10T15:13:18.200Z</time>
      </trkpt>
      <trkpt lat="10.1570243585859" lon="-75.6821354301562">
        <ele>52.321895</ele>
        <time>2019-09-10T15:13:18.300Z</time>
      </trkpt>
      <trkpt lat="10.1570261155337" lon="-75.6821375492">
        <ele>52.321895</ele>
        <time>2019-09-10T15:13:18.400Z</time>
      </trkpt>
      <trkpt lat="10.1570278444461" lon="-75.6821396677565">
        <ele>52.321895</ele>
        <time>2019-09-10T15:13:18.500Z</time>
      </trkpt>
      <trkpt lat="10.1570295626239" lon="-75.6821417774702">
        <ele>52.321895</ele>
        <time>2019-09-10T15:13:18.600Z</time>
      </trkpt>
      <trkpt lat="10.1570312588112" lon="-75.6821438823796">
        <ele>52.321895</ele>
        <time>2019-09-10T15:13:18.700Z</time>
      </trkpt>
      <trkpt lat="10.1570329592715" lon="-75.6821459801871">
        <ele>52.321895</ele>
        <time>2019-09-10T15:13:18.800Z</time>
      </trkpt>
      <trkpt lat="10.1570346608782" lon="-75.6821480488206">
        <ele>52.321895</ele>
        <time>2019-09-10T15:13:18.900Z</time>
      </trkpt>
      <trkpt lat="10.1570363841628" lon="-75.6821501098647">
        <ele>52.321895</ele>
        <time>2019-09-10T15:13:19.000Z</time>
      </trkpt>
      <trkpt lat="10.1570380844146" lon="-75.682152149185">
        <ele>52.321895</ele>
        <time>2019-09-10T15:13:19.100Z</time>
      </trkpt>
      <trkpt lat="10.1570397812272" lon="-75.6821541985316">
        <ele>52.321895</ele>
        <time>2019-09-10T15:13:19.200Z</time>
      </trkpt>
      <trkpt lat="10.1570414380192" lon="-75.682156233535">
        <ele>52.321895</ele>
        <time>2019-09-10T15:13:19.300Z</time>
      </trkpt>
      <trkpt lat="10.157043103253" lon="-75.6821582834387">
        <ele>52.321895</ele>
        <time>2019-09-10T15:13:19.400Z</time>
      </trkpt>
      <trkpt lat="10.1570447739063" lon="-75.6821603178851">
        <ele>52.321895</ele>
        <time>2019-09-10T15:13:19.500Z</time>
      </trkpt>
      <trkpt lat="10.1570464789523" lon="-75.6821623713398">
        <ele>52.321895</ele>
        <time>2019-09-10T15:13:19.600Z</time>
      </trkpt>
      <trkpt lat="10.1570481793083" lon="-75.6821644146985">
        <ele>52.321895</ele>
        <time>2019-09-10T15:13:19.700Z</time>
      </trkpt>
      <trkpt lat="10.1570498923793" lon="-75.6821664698243">
        <ele>52.321895</ele>
        <time>2019-09-10T15:13:19.800Z</time>
      </trkpt>
      <trkpt lat="10.1570515894003" lon="-75.6821685344194">
        <ele>52.321895</ele>
        <time>2019-09-10T15:13:19.900Z</time>
      </trkpt>
      <trkpt lat="10.1570532943421" lon="-75.6821706243589">
        <ele>52.321895</ele>
        <time>2019-09-10T15:13:20.000Z</time>
      </trkpt>
      <trkpt lat="10.1570550125199" lon="-75.6821727302431">
        <ele>52.321895</ele>
        <time>2019-09-10T15:13:20.100Z</time>
      </trkpt>
      <trkpt lat="10.1570567613385" lon="-75.6821748396087">
        <ele>52.321895</ele>
        <time>2019-09-10T15:13:20.200Z</time>
      </trkpt>
      <trkpt lat="10.1570585193285" lon="-75.682176951829">
        <ele>52.321895</ele>
        <time>2019-09-10T15:13:20.300Z</time>
      </trkpt>
      <trkpt lat="10.1570602858645" lon="-75.6821790659293">
        <ele>52.321895</ele>
        <time>2019-09-10T15:13:20.400Z</time>
      </trkpt>
      <trkpt lat="10.1570620514626" lon="-75.6821811837894">
        <ele>52.321895</ele>
        <time>2019-09-10T15:13:20.500Z</time>
      </trkpt>
      <trkpt lat="10.1570638212295" lon="-75.6821832997696">
        <ele>52.321895</ele>
        <time>2019-09-10T15:13:20.600Z</time>
      </trkpt>
      <trkpt lat="10.1570655998551" lon="-75.6821854133825">
        <ele>52.321895</ele>
        <time>2019-09-10T15:13:20.700Z</time>
      </trkpt>
      <trkpt lat="10.157067383379" lon="-75.6821875222607">
        <ele>52.321895</ele>
        <time>2019-09-10T15:13:20.800Z</time>
      </trkpt>
      <trkpt lat="10.1570691468927" lon="-75.6821896248028">
        <ele>52.321895</ele>
        <time>2019-09-10T15:13:20.900Z</time>
      </trkpt>
      <trkpt lat="10.1570709035278" lon="-75.6821917270664">
        <ele>52.321895</ele>
        <time>2019-09-10T15:13:21.000Z</time>
      </trkpt>
      <trkpt lat="10.1570726409864" lon="-75.6821938267538">
        <ele>52.321895</ele>
        <time>2019-09-10T15:13:21.100Z</time>
      </trkpt>
      <trkpt lat="10.1570743812589" lon="-75.682195932081">
        <ele>52.321895</ele>
        <time>2019-09-10T15:13:21.200Z</time>
      </trkpt>
      <trkpt lat="10.1570761307028" lon="-75.6821980563468">
        <ele>52.221895</ele>
        <time>2019-09-10T15:13:21.300Z</time>
      </trkpt>
      <trkpt lat="10.1570796549161" lon="-75.6822023219374">
        <ele>52.221895</ele>
        <time>2019-09-10T15:13:21.500Z</time>
      </trkpt>
      <trkpt lat="10.1570814113428" lon="-75.6822044441144">
        <ele>52.221895</ele>
        <time>2019-09-10T15:13:21.600Z</time>
      </trkpt>
      <trkpt lat="10.1570831903853" lon="-75.682206581331">
        <ele>52.221895</ele>
        <time>2019-09-10T15:13:21.700Z</time>
      </trkpt>
      <trkpt lat="10.1570849811005" lon="-75.6822087247445">
        <ele>52.221895</ele>
        <time>2019-09-10T15:13:21.800Z</time>
      </trkpt>
      <trkpt lat="10.157086737006" lon="-75.6822108562516">
        <ele>52.221895</ele>
        <time>2019-09-10T15:13:21.900Z</time>
      </trkpt>
      <trkpt lat="10.1570884762363" lon="-75.6822129762006">
        <ele>52.221895</ele>
        <time>2019-09-10T15:13:22.000Z</time>
      </trkpt>
      <trkpt lat="10.1570902046277" lon="-75.6822151033212">
        <ele>52.321895</ele>
        <time>2019-09-10T15:13:22.100Z</time>
      </trkpt>
      <trkpt lat="10.1570919468804" lon="-75.6822172364298">
        <ele>52.321895</ele>
        <time>2019-09-10T15:13:22.200Z</time>
      </trkpt>
      <trkpt lat="10.1570936799617" lon="-75.6822193799825">
        <ele>52.321895</ele>
        <time>2019-09-10T15:13:22.300Z</time>
      </trkpt>
      <trkpt lat="10.1570954227355" lon="-75.6822215244403">
        <ele>52.321895</ele>
        <time>2019-09-10T15:13:22.400Z</time>
      </trkpt>
      <trkpt lat="10.1570971555041" lon="-75.6822236551119">
        <ele>52.321895</ele>
        <time>2019-09-10T15:13:22.500Z</time>
      </trkpt>
      <trkpt lat="10.1570988953597" lon="-75.6822257736683">
        <ele>52.321895</ele>
        <time>2019-09-10T15:13:22.600Z</time>
      </trkpt>
      <trkpt lat="10.1571006296917" lon="-75.6822278990483">
        <ele>52.321895</ele>
        <time>2019-09-10T15:13:22.700Z</time>
      </trkpt>
      <trkpt lat="10.1571023844508" lon="-75.6822300226875">
        <ele>52.321895</ele>
        <time>2019-09-10T15:13:22.800Z</time>
      </trkpt>
      <trkpt lat="10.157104158595" lon="-75.6822321323316">
        <ele>52.321895</ele>
        <time>2019-09-10T15:13:22.900Z</time>
      </trkpt>
      <trkpt lat="10.1571059523325" lon="-75.682234230139">
        <ele>52.321895</ele>
        <time>2019-09-10T15:13:23.000Z</time>
      </trkpt>
      <trkpt lat="10.1571077539909" lon="-75.6822363179897">
        <ele>52.321895</ele>
        <time>2019-09-10T15:13:23.100Z</time>
      </trkpt>
      <trkpt lat="10.1571095547112" lon="-75.6822384057012">
        <ele>52.321895</ele>
        <time>2019-09-10T15:13:23.200Z</time>
      </trkpt>
      <trkpt lat="10.157111331982" lon="-75.6822404700177">
        <ele>52.321895</ele>
        <time>2019-09-10T15:13:23.300Z</time>
      </trkpt>
      <trkpt lat="10.157113091431" lon="-75.6822425311315">
        <ele>52.321895</ele>
        <time>2019-09-10T15:13:23.400Z</time>
      </trkpt>
      <trkpt lat="10.157116599386" lon="-75.6822466232798">
        <ele>52.321895</ele>
        <time>2019-09-10T15:13:23.600Z</time>
      </trkpt>
      <trkpt lat="10.1571183348644" lon="-75.682248658701">
        <ele>52.321895</ele>
        <time>2019-09-10T15:13:23.700Z</time>
      </trkpt>
      <trkpt lat="10.1571200707596" lon="-75.6822507082566">
        <ele>52.321895</ele>
        <time>2019-09-10T15:13:23.800Z</time>
      </trkpt>
      <trkpt lat="10.157121790188" lon="-75.6822527466717">
        <ele>52.321895</ele>
        <time>2019-09-10T15:13:23.900Z</time>
      </trkpt>
      <trkpt lat="10.1571252334221" lon="-75.6822568675066">
        <ele>52.321895</ele>
        <time>2019-09-10T15:13:24.100Z</time>
      </trkpt>
      <trkpt lat="10.1571269551434" lon="-75.6822589550788">
        <ele>52.321895</ele>
        <time>2019-09-10T15:13:24.200Z</time>
      </trkpt>
      <trkpt lat="10.1571286896838" lon="-75.6822610553232">
        <ele>52.321895</ele>
        <time>2019-09-10T15:13:24.300Z</time>
      </trkpt>
      <trkpt lat="10.1571304420458" lon="-75.6822631651065">
        <ele>52.321895</ele>
        <time>2019-09-10T15:13:24.400Z</time>
      </trkpt>
      <trkpt lat="10.1571321624122" lon="-75.6822652354807">
        <ele>52.321895</ele>
        <time>2019-09-10T15:13:24.500Z</time>
      </trkpt>
      <trkpt lat="10.1571338675625" lon="-75.6822672869162">
        <ele>52.321895</ele>
        <time>2019-09-10T15:13:24.600Z</time>
      </trkpt>
      <trkpt lat="10.1571355889711" lon="-75.6822693589615">
        <ele>52.321895</ele>
        <time>2019-09-10T15:13:24.700Z</time>
      </trkpt>
      <trkpt lat="10.1571373415416" lon="-75.6822714665864">
        <ele>52.321895</ele>
        <time>2019-09-10T15:13:24.800Z</time>
      </trkpt>
      <trkpt lat="10.1571390774368" lon="-75.6822735367517">
        <ele>52.321895</ele>
        <time>2019-09-10T15:13:24.900Z</time>
      </trkpt>
      <trkpt lat="10.1571408073915" lon="-75.6822755886746">
        <ele>52.321895</ele>
        <time>2019-09-10T15:13:25.000Z</time>
      </trkpt>
      <trkpt lat="10.157142552875" lon="-75.6822776839754">
        <ele>52.321895</ele>
        <time>2019-09-10T15:13:25.100Z</time>
      </trkpt>
      <trkpt lat="10.1571443208702" lon="-75.6822798230719">
        <ele>52.421895</ele>
        <time>2019-09-10T15:13:25.200Z</time>
      </trkpt>
      <trkpt lat="10.1571460656242" lon="-75.6822819437868">
        <ele>52.421895</ele>
        <time>2019-09-10T15:13:25.300Z</time>
      </trkpt>
      <trkpt lat="10.1571477986012" lon="-75.6822840445882">
        <ele>52.421895</ele>
        <time>2019-09-10T15:13:25.400Z</time>
      </trkpt>
      <trkpt lat="10.1571512008767" lon="-75.6822882451466">
        <ele>52.421895</ele>
        <time>2019-09-10T15:13:25.600Z</time>
      </trkpt>
      <trkpt lat="10.1571528912276" lon="-75.682290342954">
        <ele>52.421895</ele>
        <time>2019-09-10T15:13:25.700Z</time>
      </trkpt>
      <trkpt lat="10.1571546032564" lon="-75.682292446262">
        <ele>52.421895</ele>
        <time>2019-09-10T15:13:25.800Z</time>
      </trkpt>
      <trkpt lat="10.1571563143472" lon="-75.6822945641222">
        <ele>52.421895</ele>
        <time>2019-09-10T15:13:25.900Z</time>
      </trkpt>
      <trkpt lat="10.1571580437808" lon="-75.6822966950723">
        <ele>52.321895</ele>
        <time>2019-09-10T15:13:26.000Z</time>
      </trkpt>
      <trkpt lat="10.1571597936415" lon="-75.6822988446826">
        <ele>52.321895</ele>
        <time>2019-09-10T15:13:26.100Z</time>
      </trkpt>
      <trkpt lat="10.1571632929462" lon="-75.6823031052599">
        <ele>52.321895</ele>
        <time>2019-09-10T15:13:26.300Z</time>
      </trkpt>
      <trkpt lat="10.1571650011188" lon="-75.6823051917877">
        <ele>52.321895</ele>
        <time>2019-09-10T15:13:26.400Z</time>
      </trkpt>
      <trkpt lat="10.1571667016834" lon="-75.682307266618">
        <ele>52.421895</ele>
        <time>2019-09-10T15:13:26.500Z</time>
      </trkpt>
      <trkpt lat="10.1571684245511" lon="-75.6823093505696">
        <ele>52.421895</ele>
        <time>2019-09-10T15:13:26.600Z</time>
      </trkpt>
      <trkpt lat="10.1571701486694" lon="-75.6823114311094">
        <ele>52.321895</ele>
        <time>2019-09-10T15:13:26.700Z</time>
      </trkpt>
      <trkpt lat="10.1571718929023" lon="-75.6823135232074">
        <ele>52.321895</ele>
        <time>2019-09-10T15:13:26.800Z</time>
      </trkpt>
      <trkpt lat="10.1571736528724" lon="-75.6823156630002">
        <ele>52.321895</ele>
        <time>2019-09-10T15:13:26.900Z</time>
      </trkpt>
      <trkpt lat="10.1571754276419" lon="-75.6823178247257">
        <ele>52.321895</ele>
        <time>2019-09-10T15:13:27.000Z</time>
      </trkpt>
      <trkpt lat="10.1571771715621" lon="-75.6823199636133">
        <ele>52.321895</ele>
        <time>2019-09-10T15:13:27.100Z</time>
      </trkpt>
      <trkpt lat="10.1571789033928" lon="-75.6823220749285">
        <ele>52.321895</ele>
        <time>2019-09-10T15:13:27.200Z</time>
      </trkpt>
      <trkpt lat="10.157180623655" lon="-75.6823241741285">
        <ele>52.321895</ele>
        <time>2019-09-10T15:13:27.300Z</time>
      </trkpt>
      <trkpt lat="10.1571823568405" lon="-75.6823262745121">
        <ele>52.321895</ele>
        <time>2019-09-10T15:13:27.400Z</time>
      </trkpt>
      <trkpt lat="10.1571840998227" lon="-75.6823283895175">
        <ele>52.321895</ele>
        <time>2019-09-10T15:13:27.500Z</time>
      </trkpt>
      <trkpt lat="10.1571858632321" lon="-75.6823305180307">
        <ele>52.321895</ele>
        <time>2019-09-10T15:13:27.600Z</time>
      </trkpt>
      <trkpt lat="10.1571876004822" lon="-75.6823326158381">
        <ele>52.321895</ele>
        <time>2019-09-10T15:13:27.700Z</time>
      </trkpt>
      <trkpt lat="10.1571893314791" lon="-75.6823346982578">
        <ele>52.321895</ele>
        <time>2019-09-10T15:13:27.800Z</time>
      </trkpt>
      <trkpt lat="10.157191054451" lon="-75.6823367727401">
        <ele>52.321895</ele>
        <time>2019-09-10T15:13:27.900Z</time>
      </trkpt>
      <trkpt lat="10.157192792118" lon="-75.6823388594071">
        <ele>52.321895</ele>
        <time>2019-09-10T15:13:28.000Z</time>
      </trkpt>
      <trkpt lat="10.1571945415619" lon="-75.6823409673105">
        <ele>52.321895</ele>
        <time>2019-09-10T15:13:28.100Z</time>
      </trkpt>
      <trkpt lat="10.15719630716" lon="-75.6823430924815">
        <ele>52.321895</ele>
        <time>2019-09-10T15:13:28.200Z</time>
      </trkpt>
      <trkpt lat="10.157199829289" lon="-75.6823472818299">
        <ele>52.321895</ele>
        <time>2019-09-10T15:13:28.400Z</time>
      </trkpt>
      <trkpt lat="10.1572016024951" lon="-75.68234936606">
        <ele>52.321895</ele>
        <time>2019-09-10T15:13:28.500Z</time>
      </trkpt>
      <trkpt lat="10.1572033820587" lon="-75.6823514635889">
        <ele>52.321895</ele>
        <time>2019-09-10T15:13:28.600Z</time>
      </trkpt>
      <trkpt lat="10.1572051432795" lon="-75.6823535357037">
        <ele>52.321895</ele>
        <time>2019-09-10T15:13:28.700Z</time>
      </trkpt>
      <trkpt lat="10.1572068931403" lon="-75.6823556090719">
        <ele>52.321895</ele>
        <time>2019-09-10T15:13:28.800Z</time>
      </trkpt>
      <trkpt lat="10.1572086668676" lon="-75.6823577027017">
        <ele>52.321895</ele>
        <time>2019-09-10T15:13:28.900Z</time>
      </trkpt>
      <trkpt lat="10.1572104498704" lon="-75.682359825575">
        <ele>52.321895</ele>
        <time>2019-09-10T15:13:29.000Z</time>
      </trkpt>
      <trkpt lat="10.1572121970215" lon="-75.6823619463595">
        <ele>52.321895</ele>
        <time>2019-09-10T15:13:29.100Z</time>
      </trkpt>
      <trkpt lat="10.1572139205145" lon="-75.6823640637323">
        <ele>52.321895</ele>
        <time>2019-09-10T15:13:29.200Z</time>
      </trkpt>
      <trkpt lat="10.1572156356699" lon="-75.6823661737245">
        <ele>52.321895</ele>
        <time>2019-09-10T15:13:29.300Z</time>
      </trkpt>
      <trkpt lat="10.1572173575996" lon="-75.6823682829509">
        <ele>52.321895</ele>
        <time>2019-09-10T15:13:29.400Z</time>
      </trkpt>
      <trkpt lat="10.1572190761942" lon="-75.6823704086093">
        <ele>52.321895</ele>
        <time>2019-09-10T15:13:29.500Z</time>
      </trkpt>
      <trkpt lat="10.1572208087544" lon="-75.6823725454777">
        <ele>52.321895</ele>
        <time>2019-09-10T15:13:29.600Z</time>
      </trkpt>
      <trkpt lat="10.1572225106738" lon="-75.6823746274101">
        <ele>52.321895</ele>
        <time>2019-09-10T15:13:29.700Z</time>
      </trkpt>
      <trkpt lat="10.157224205402" lon="-75.6823766837891">
        <ele>52.321895</ele>
        <time>2019-09-10T15:13:29.800Z</time>
      </trkpt>
      <trkpt lat="10.1572258763679" lon="-75.6823787259642">
        <ele>52.321895</ele>
        <time>2019-09-10T15:13:29.900Z</time>
      </trkpt>
      <trkpt lat="10.157227565364" lon="-75.6823807934836">
        <ele>52.321895</ele>
        <time>2019-09-10T15:13:30.000Z</time>
      </trkpt>
      <trkpt lat="10.1572292556107" lon="-75.6823828559203">
        <ele>52.321895</ele>
        <time>2019-09-10T15:13:30.100Z</time>
      </trkpt>
      <trkpt lat="10.1572309712872" lon="-75.6823849378526">
        <ele>52.321895</ele>
        <time>2019-09-10T15:13:30.200Z</time>
      </trkpt>
      <trkpt lat="10.1572326683082" lon="-75.6823870202028">
        <ele>52.321895</ele>
        <time>2019-09-10T15:13:30.300Z</time>
      </trkpt>
      <trkpt lat="10.1572343740838" lon="-75.6823891148073">
        <ele>52.321895</ele>
        <time>2019-09-10T15:13:30.400Z</time>
      </trkpt>
      <trkpt lat="10.1572360886138" lon="-75.6823912302305">
        <ele>52.321895</ele>
        <time>2019-09-10T15:13:30.500Z</time>
      </trkpt>
      <trkpt lat="10.1572378217993" lon="-75.6823933625732">
        <ele>52.321895</ele>
        <time>2019-09-10T15:13:30.600Z</time>
      </trkpt>
      <trkpt lat="10.1572395666575" lon="-75.6823955221402">
        <ele>52.321895</ele>
        <time>2019-09-10T15:13:30.700Z</time>
      </trkpt>
      <trkpt lat="10.1572413267319" lon="-75.6823976835872">
        <ele>52.321895</ele>
        <time>2019-09-10T15:13:30.800Z</time>
      </trkpt>
      <trkpt lat="10.1572430910793" lon="-75.6823998621625">
        <ele>52.321895</ele>
        <time>2019-09-10T15:13:30.900Z</time>
      </trkpt>
      <trkpt lat="10.1572448472976" lon="-75.6824020314774">
        <ele>52.321895</ele>
        <time>2019-09-10T15:13:31.000Z</time>
      </trkpt>
      <trkpt lat="10.1572465977837" lon="-75.6824041886075">
        <ele>52.321895</ele>
        <time>2019-09-10T15:13:31.100Z</time>
      </trkpt>
      <trkpt lat="10.1572483478529" lon="-75.6824063258241">
        <ele>52.321895</ele>
        <time>2019-09-10T15:13:31.200Z</time>
      </trkpt>
      <trkpt lat="10.1572500918773" lon="-75.6824084644332">
        <ele>52.321895</ele>
        <time>2019-09-10T15:13:31.300Z</time>
      </trkpt>
      <trkpt lat="10.1572518324625" lon="-75.6824106038779">
        <ele>52.321895</ele>
        <time>2019-09-10T15:13:31.400Z</time>
      </trkpt>
      <trkpt lat="10.1572535499107" lon="-75.6824127025209">
        <ele>52.321895</ele>
        <time>2019-09-10T15:13:31.500Z</time>
      </trkpt>
      <trkpt lat="10.1572552581876" lon="-75.682414782434">
        <ele>52.321895</ele>
        <time>2019-09-10T15:13:31.600Z</time>
      </trkpt>
      <trkpt lat="10.1572569516651" lon="-75.6824168904071">
        <ele>52.321895</ele>
        <time>2019-09-10T15:13:31.700Z</time>
      </trkpt>
      <trkpt lat="10.1572586567111" lon="-75.6824190302695">
        <ele>52.321895</ele>
        <time>2019-09-10T15:13:31.800Z</time>
      </trkpt>
      <trkpt lat="10.1572603588389" lon="-75.6824211607322">
        <ele>52.321895</ele>
        <time>2019-09-10T15:13:31.900Z</time>
      </trkpt>
      <trkpt lat="10.1572620677411" lon="-75.682423281099">
        <ele>52.321895</ele>
        <time>2019-09-10T15:13:32.000Z</time>
      </trkpt>
      <trkpt lat="10.1572637617397" lon="-75.6824254141379">
        <ele>52.321895</ele>
        <time>2019-09-10T15:13:32.100Z</time>
      </trkpt>
      <trkpt lat="10.1572654511527" lon="-75.6824275592224">
        <ele>52.321895</ele>
        <time>2019-09-10T15:13:32.200Z</time>
      </trkpt>
      <trkpt lat="10.1572687580665" lon="-75.6824317831757">
        <ele>52.321895</ele>
        <time>2019-09-10T15:13:32.400Z</time>
      </trkpt>
      <trkpt lat="10.1572704020393" lon="-75.6824338926805">
        <ele>52.321895</ele>
        <time>2019-09-10T15:13:32.500Z</time>
      </trkpt>
      <trkpt lat="10.1572720716504" lon="-75.6824360219596">
        <ele>52.321895</ele>
        <time>2019-09-10T15:13:32.600Z</time>
      </trkpt>
      <trkpt lat="10.1572737456387" lon="-75.6824381802733">
        <ele>52.321895</ele>
        <time>2019-09-10T15:13:32.700Z</time>
      </trkpt>
      <trkpt lat="10.1572754336967" lon="-75.6824403520252">
        <ele>52.321895</ele>
        <time>2019-09-10T15:13:32.800Z</time>
      </trkpt>
      <trkpt lat="10.1572770922604" lon="-75.6824425099908">
        <ele>52.321895</ele>
        <time>2019-09-10T15:13:32.900Z</time>
      </trkpt>
      <trkpt lat="10.1572787456131" lon="-75.6824446468592">
        <ele>52.321895</ele>
        <time>2019-09-10T15:13:33.000Z</time>
      </trkpt>
      <trkpt lat="10.1572803776006" lon="-75.6824467840062">
        <ele>52.321895</ele>
        <time>2019-09-10T15:13:33.100Z</time>
      </trkpt>
      <trkpt lat="10.1572820229283" lon="-75.6824489248434">
        <ele>52.321895</ele>
        <time>2019-09-10T15:13:33.200Z</time>
      </trkpt>
      <trkpt lat="10.1572836943111" lon="-75.6824510681872">
        <ele>52.321895</ele>
        <time>2019-09-10T15:13:33.300Z</time>
      </trkpt>
      <trkpt lat="10.1572854063399" lon="-75.6824532119488">
        <ele>52.321895</ele>
        <time>2019-09-10T15:13:33.400Z</time>
      </trkpt>
      <trkpt lat="10.1572871148252" lon="-75.6824553408798">
        <ele>52.321895</ele>
        <time>2019-09-10T15:13:33.500Z</time>
      </trkpt>
      <trkpt lat="10.1572888252906" lon="-75.6824574596451">
        <ele>52.321895</ele>
        <time>2019-09-10T15:13:33.600Z</time>
      </trkpt>
      <trkpt lat="10.1572905340886" lon="-75.6824595591932">
        <ele>52.321895</ele>
        <time>2019-09-10T15:13:33.700Z</time>
      </trkpt>
      <trkpt lat="10.1572922574774" lon="-75.682461656931">
        <ele>52.321895</ele>
        <time>2019-09-10T15:13:33.800Z</time>
      </trkpt>
      <trkpt lat="10.1572940135914" lon="-75.6824637791777">
        <ele>52.421895</ele>
        <time>2019-09-10T15:13:33.900Z</time>
      </trkpt>
      <trkpt lat="10.1572957954478" lon="-75.6824659216163">
        <ele>52.421895</ele>
        <time>2019-09-10T15:13:34.000Z</time>
      </trkpt>
      <trkpt lat="10.1572975575024" lon="-75.6824680562567">
        <ele>52.421895</ele>
        <time>2019-09-10T15:13:34.100Z</time>
      </trkpt>
      <trkpt lat="10.1572993055914" lon="-75.6824701783641">
        <ele>52.421895</ele>
        <time>2019-09-10T15:13:34.200Z</time>
      </trkpt>
      <trkpt lat="10.1573010308562" lon="-75.6824722687214">
        <ele>52.421895</ele>
        <time>2019-09-10T15:13:34.300Z</time>
      </trkpt>
      <trkpt lat="10.1573027557041" lon="-75.6824743447354">
        <ele>52.421895</ele>
        <time>2019-09-10T15:13:34.400Z</time>
      </trkpt>
      <trkpt lat="10.1573061880992" lon="-75.6824785495411">
        <ele>52.421895</ele>
        <time>2019-09-10T15:13:34.600Z</time>
      </trkpt>
      <trkpt lat="10.157307937022" lon="-75.6824807093866">
        <ele>52.421895</ele>
        <time>2019-09-10T15:13:34.700Z</time>
      </trkpt>
      <trkpt lat="10.1573097103324" lon="-75.682482883854">
        <ele>52.421895</ele>
        <time>2019-09-10T15:13:34.800Z</time>
      </trkpt>
      <trkpt lat="10.1573114537315" lon="-75.6824850477379">
        <ele>52.421895</ele>
        <time>2019-09-10T15:13:34.900Z</time>
      </trkpt>
      <trkpt lat="10.1573131836862" lon="-75.6824871910121">
        <ele>52.421895</ele>
        <time>2019-09-10T15:13:35.000Z</time>
      </trkpt>
      <trkpt lat="10.1573148970699" lon="-75.6824892951556">
        <ele>52.421895</ele>
        <time>2019-09-10T15:13:35.100Z</time>
      </trkpt>
      <trkpt lat="10.1573166193122" lon="-75.6824913678275">
        <ele>52.421895</ele>
        <time>2019-09-10T15:13:35.200Z</time>
      </trkpt>
      <trkpt lat="10.1573183617734" lon="-75.6824934626409">
        <ele>52.421895</ele>
        <time>2019-09-10T15:13:35.300Z</time>
      </trkpt>
      <trkpt lat="10.1573201365428" lon="-75.6824955848876">
        <ele>52.421895</ele>
        <time>2019-09-10T15:13:35.400Z</time>
      </trkpt>
      <trkpt lat="10.1573219010987" lon="-75.6824977019819">
        <ele>52.421895</ele>
        <time>2019-09-10T15:13:35.500Z</time>
      </trkpt>
      <trkpt lat="10.1573236631532" lon="-75.6824998083535">
        <ele>52.421895</ele>
        <time>2019-09-10T15:13:35.600Z</time>
      </trkpt>
      <trkpt lat="10.1573254112423" lon="-75.6825018686317">
        <ele>52.421895</ele>
        <time>2019-09-10T15:13:35.700Z</time>
      </trkpt>
      <trkpt lat="10.157327155892" lon="-75.6825039048187">
        <ele>52.421895</ele>
        <time>2019-09-10T15:13:35.800Z</time>
      </trkpt>
      <trkpt lat="10.1573289018967" lon="-75.6825059369674">
        <ele>52.421895</ele>
        <time>2019-09-10T15:13:35.900Z</time>
      </trkpt>
      <trkpt lat="10.1573306582191" lon="-75.6825079980811">
        <ele>52.421895</ele>
        <time>2019-09-10T15:13:36.000Z</time>
      </trkpt>
      <trkpt lat="10.1573324028689" lon="-75.6825100468012">
        <ele>52.421895</ele>
        <time>2019-09-10T15:13:36.100Z</time>
      </trkpt>
      <trkpt lat="10.1573341389726" lon="-75.6825121069401">
        <ele>52.421895</ele>
        <time>2019-09-10T15:13:36.200Z</time>
      </trkpt>
      <trkpt lat="10.1573358558997" lon="-75.6825141591415">
        <ele>52.421895</ele>
        <time>2019-09-10T15:13:36.300Z</time>
      </trkpt>
      <trkpt lat="10.1573375708466" lon="-75.6825162231796">
        <ele>52.421895</ele>
        <time>2019-09-10T15:13:36.400Z</time>
      </trkpt>
      <trkpt lat="10.15734095603" lon="-75.6825203466603">
        <ele>52.421895</ele>
        <time>2019-09-10T15:13:36.600Z</time>
      </trkpt>
      <trkpt lat="10.1573444384509" lon="-75.6825245121961">
        <ele>52.421895</ele>
        <time>2019-09-10T15:13:36.800Z</time>
      </trkpt>
      <trkpt lat="10.1573461797656" lon="-75.6825266189855">
        <ele>52.421895</ele>
        <time>2019-09-10T15:13:36.900Z</time>
      </trkpt>
      <trkpt lat="10.1573479006531" lon="-75.682528743321">
        <ele>52.421895</ele>
        <time>2019-09-10T15:13:37.000Z</time>
      </trkpt>
      <trkpt lat="10.15734962029" lon="-75.6825308730874">
        <ele>52.421895</ele>
        <time>2019-09-10T15:13:37.100Z</time>
      </trkpt>
      <trkpt lat="10.1573513486814" lon="-75.6825330073101">
        <ele>52.421895</ele>
        <time>2019-09-10T15:13:37.200Z</time>
      </trkpt>
      <trkpt lat="10.1573530821796" lon="-75.6825351572685">
        <ele>52.421895</ele>
        <time>2019-09-10T15:13:37.300Z</time>
      </trkpt>
      <trkpt lat="10.1573548312066" lon="-75.682537310012">
        <ele>52.421895</ele>
        <time>2019-09-10T15:13:37.400Z</time>
      </trkpt>
      <trkpt lat="10.1573565653301" lon="-75.6825394236249">
        <ele>52.421895</ele>
        <time>2019-09-10T15:13:37.500Z</time>
      </trkpt>
      <trkpt lat="10.1573582904906" lon="-75.6825415169065">
        <ele>52.421895</ele>
        <time>2019-09-10T15:13:37.600Z</time>
      </trkpt>
      <trkpt lat="10.1573600092937" lon="-75.6825435898569">
        <ele>52.421895</ele>
        <time>2019-09-10T15:13:37.700Z</time>
      </trkpt>
      <trkpt lat="10.1573617435214" lon="-75.6825456743655">
        <ele>52.421895</ele>
        <time>2019-09-10T15:13:37.800Z</time>
      </trkpt>
      <trkpt lat="10.1573634613865" lon="-75.6825477403532">
        <ele>52.421895</ele>
        <time>2019-09-10T15:13:37.900Z</time>
      </trkpt>
      <trkpt lat="10.1573651918623" lon="-75.6825498188738">
        <ele>52.421895</ele>
        <time>2019-09-10T15:13:38.000Z</time>
      </trkpt>
      <trkpt lat="10.1573669406809" lon="-75.6825518923812">
        <ele>52.421895</ele>
        <time>2019-09-10T15:13:38.100Z</time>
      </trkpt>
      <trkpt lat="10.1573687155546" lon="-75.6825539849665">
        <ele>52.421895</ele>
        <time>2019-09-10T15:13:38.200Z</time>
      </trkpt>
      <trkpt lat="10.1573704630183" lon="-75.6825560515112">
        <ele>52.421895</ele>
        <time>2019-09-10T15:13:38.300Z</time>
      </trkpt>
      <trkpt lat="10.1573722092314" lon="-75.6825581144352">
        <ele>52.521895</ele>
        <time>2019-09-10T15:13:38.400Z</time>
      </trkpt>
      <trkpt lat="10.1573739663876" lon="-75.6825601705358">
        <ele>52.521895</ele>
        <time>2019-09-10T15:13:38.500Z</time>
      </trkpt>
      <trkpt lat="10.1573757450132" lon="-75.6825622432077">
        <ele>52.521895</ele>
        <time>2019-09-10T15:13:38.600Z</time>
      </trkpt>
      <trkpt lat="10.1573775067551" lon="-75.682564294295">
        <ele>52.421895</ele>
        <time>2019-09-10T15:13:38.700Z</time>
      </trkpt>
      <trkpt lat="10.1573792690181" lon="-75.6825663487245">
        <ele>52.421895</ele>
        <time>2019-09-10T15:13:38.800Z</time>
      </trkpt>
      <trkpt lat="10.1573810763043" lon="-75.6825684347649">
        <ele>52.521895</ele>
        <time>2019-09-10T15:13:38.900Z</time>
      </trkpt>
      <trkpt lat="10.1573829116259" lon="-75.6825705478207">
        <ele>52.521895</ele>
        <time>2019-09-10T15:13:39.000Z</time>
      </trkpt>
      <trkpt lat="10.1573847303763" lon="-75.6825726456978">
        <ele>52.521895</ele>
        <time>2019-09-10T15:13:39.100Z</time>
      </trkpt>
      <trkpt lat="10.1573865285954" lon="-75.6825747354981">
        <ele>52.521895</ele>
        <time>2019-09-10T15:13:39.200Z</time>
      </trkpt>
      <trkpt lat="10.157388280749" lon="-75.6825767849144">
        <ele>52.521895</ele>
        <time>2019-09-10T15:13:39.300Z</time>
      </trkpt>
      <trkpt lat="10.1573900156021" lon="-75.6825788198481">
        <ele>52.521895</ele>
        <time>2019-09-10T15:13:39.400Z</time>
      </trkpt>
      <trkpt lat="10.1573917394077" lon="-75.682580850465">
        <ele>52.521895</ele>
        <time>2019-09-10T15:13:39.500Z</time>
      </trkpt>
      <trkpt lat="10.1573934907276" lon="-75.6825829093507">
        <ele>52.521895</ele>
        <time>2019-09-10T15:13:39.600Z</time>
      </trkpt>
      <trkpt lat="10.1573952253722" lon="-75.6825849724139">
        <ele>52.521895</ele>
        <time>2019-09-10T15:13:39.700Z</time>
      </trkpt>
      <trkpt lat="10.1573969726275" lon="-75.6825870507953">
        <ele>52.521895</ele>
        <time>2019-09-10T15:13:39.800Z</time>
      </trkpt>
      <trkpt lat="10.1573987688664" lon="-75.6825891929554">
        <ele>52.521895</ele>
        <time>2019-09-10T15:13:39.900Z</time>
      </trkpt>
      <trkpt lat="10.1574006012697" lon="-75.6825913540543">
        <ele>52.421895</ele>
        <time>2019-09-10T15:13:40.000Z</time>
      </trkpt>
      <trkpt lat="10.1574024012605" lon="-75.6825934601474">
        <ele>52.421895</ele>
        <time>2019-09-10T15:13:40.100Z</time>
      </trkpt>
      <trkpt lat="10.1574041729034" lon="-75.6825955168049">
        <ele>52.421895</ele>
        <time>2019-09-10T15:13:40.200Z</time>
      </trkpt>
      <trkpt lat="10.1574059569484" lon="-75.6825975712344">
        <ele>52.421895</ele>
        <time>2019-09-10T15:13:40.300Z</time>
      </trkpt>
      <trkpt lat="10.1574077600658" lon="-75.6825996522616">
        <ele>52.421895</ele>
        <time>2019-09-10T15:13:40.400Z</time>
      </trkpt>
      <trkpt lat="10.1574095615157" lon="-75.6826017168567">
        <ele>52.421895</ele>
        <time>2019-09-10T15:13:40.500Z</time>
      </trkpt>
      <trkpt lat="10.1574113559829" lon="-75.6826037877183">
        <ele>52.421895</ele>
        <time>2019-09-10T15:13:40.600Z</time>
      </trkpt>
      <trkpt lat="10.1574131242906" lon="-75.6826058577443">
        <ele>52.421895</ele>
        <time>2019-09-10T15:13:40.700Z</time>
      </trkpt>
      <trkpt lat="10.157414883427" lon="-75.6826079457343">
        <ele>52.421895</ele>
        <time>2019-09-10T15:13:40.800Z</time>
      </trkpt>
      <trkpt lat="10.1574166376651" lon="-75.6826100342813">
        <ele>52.421895</ele>
        <time>2019-09-10T15:13:40.900Z</time>
      </trkpt>
      <trkpt lat="10.1574201560421" lon="-75.6826142279465">
        <ele>52.421895</ele>
        <time>2019-09-10T15:13:41.100Z</time>
      </trkpt>
      <trkpt lat="10.1574219000665" lon="-75.682616329305">
        <ele>52.421895</ele>
        <time>2019-09-10T15:13:41.200Z</time>
      </trkpt>
      <trkpt lat="10.1574236590987" lon="-75.6826184560078">
        <ele>52.421895</ele>
        <time>2019-09-10T15:13:41.300Z</time>
      </trkpt>
      <trkpt lat="10.1574254383497" lon="-75.6826205906482">
        <ele>52.421895</ele>
        <time>2019-09-10T15:13:41.400Z</time>
      </trkpt>
      <trkpt lat="10.1574271816445" lon="-75.6826227003619">
        <ele>52.421895</ele>
        <time>2019-09-10T15:13:41.500Z</time>
      </trkpt>
      <trkpt lat="10.1574289013856" lon="-75.682624786263">
        <ele>52.421895</ele>
        <time>2019-09-10T15:13:41.600Z</time>
      </trkpt>
      <trkpt lat="10.1574306210225" lon="-75.6826268917991">
        <ele>52.421895</ele>
        <time>2019-09-10T15:13:41.700Z</time>
      </trkpt>
      <trkpt lat="10.1574323604612" lon="-75.6826290094504">
        <ele>52.421895</ele>
        <time>2019-09-10T15:13:41.800Z</time>
      </trkpt>
      <trkpt lat="10.157434074366" lon="-75.6826311230632">
        <ele>52.421895</ele>
        <time>2019-09-10T15:13:41.900Z</time>
      </trkpt>
      <trkpt lat="10.1574357828512" lon="-75.6826332265105">
        <ele>52.421895</ele>
        <time>2019-09-10T15:13:42.000Z</time>
      </trkpt>
      <trkpt lat="10.157437491545" lon="-75.6826353259194">
        <ele>52.421895</ele>
        <time>2019-09-10T15:13:42.100Z</time>
      </trkpt>
      <trkpt lat="10.1574392179561" lon="-75.6826374193403">
        <ele>52.421895</ele>
        <time>2019-09-10T15:13:42.200Z</time>
      </trkpt>
      <trkpt lat="10.1574409125801" lon="-75.6826394688958">
        <ele>52.421895</ele>
        <time>2019-09-10T15:13:42.300Z</time>
      </trkpt>
      <trkpt lat="10.1574425997002" lon="-75.6826415041081">
        <ele>52.421895</ele>
        <time>2019-09-10T15:13:42.400Z</time>
      </trkpt>
      <trkpt lat="10.157444299431" lon="-75.6826435670321">
        <ele>52.421895</ele>
        <time>2019-09-10T15:13:42.500Z</time>
      </trkpt>
      <trkpt lat="10.1574460344924" lon="-75.6826456697831">
        <ele>52.421895</ele>
        <time>2019-09-10T15:13:42.600Z</time>
      </trkpt>
      <trkpt lat="10.1574477541293" lon="-75.6826477581908">
        <ele>52.421895</ele>
        <time>2019-09-10T15:13:42.700Z</time>
      </trkpt>
      <trkpt lat="10.1574494701185" lon="-75.6826498388002">
        <ele>52.421895</ele>
        <time>2019-09-10T15:13:42.800Z</time>
      </trkpt>
      <trkpt lat="10.1574511843359" lon="-75.6826519259547">
        <ele>52.421895</ele>
        <time>2019-09-10T15:13:42.900Z</time>
      </trkpt>
      <trkpt lat="10.157452907412" lon="-75.6826540236925">
        <ele>52.421895</ele>
        <time>2019-09-10T15:13:43.000Z</time>
      </trkpt>
      <trkpt lat="10.1574545898422" lon="-75.6826561030486">
        <ele>52.421895</ele>
        <time>2019-09-10T15:13:43.100Z</time>
      </trkpt>
      <trkpt lat="10.1574562617461" lon="-75.6826581768345">
        <ele>52.421895</ele>
        <time>2019-09-10T15:13:43.200Z</time>
      </trkpt>
      <trkpt lat="10.1574579385483" lon="-75.6826602730405">
        <ele>52.421895</ele>
        <time>2019-09-10T15:13:43.300Z</time>
      </trkpt>
      <trkpt lat="10.1574596526615" lon="-75.68266238916">
        <ele>52.421895</ele>
        <time>2019-09-10T15:13:43.400Z</time>
      </trkpt>
      <trkpt lat="10.1574613464517" lon="-75.682664466288">
        <ele>52.421895</ele>
        <time>2019-09-10T15:13:43.500Z</time>
      </trkpt>
      <trkpt lat="10.1574630484753" lon="-75.6826665211353">
        <ele>52.421895</ele>
        <time>2019-09-10T15:13:43.600Z</time>
      </trkpt>
      <trkpt lat="10.1574647188159" lon="-75.6826685775143">
        <ele>52.421895</ele>
        <time>2019-09-10T15:13:43.700Z</time>
      </trkpt>
      <trkpt lat="10.1574664017672" lon="-75.6826706604911">
        <ele>52.421895</ele>
        <time>2019-09-10T15:13:43.800Z</time>
      </trkpt>
      <trkpt lat="10.1574680967038" lon="-75.6826727459744">
        <ele>52.421895</ele>
        <time>2019-09-10T15:13:43.900Z</time>
      </trkpt>
      <trkpt lat="10.1574698401029" lon="-75.6826748452441">
        <ele>52.421895</ele>
        <time>2019-09-10T15:13:44.000Z</time>
      </trkpt>
      <trkpt lat="10.1574715658888" lon="-75.6826769400575">
        <ele>52.421895</ele>
        <time>2019-09-10T15:13:44.100Z</time>
      </trkpt>
      <trkpt lat="10.157473298449" lon="-75.6826790331999">
        <ele>52.421895</ele>
        <time>2019-09-10T15:13:44.200Z</time>
      </trkpt>
      <trkpt lat="10.1574750130833" lon="-75.6826810799703">
        <ele>52.421895</ele>
        <time>2019-09-10T15:13:44.300Z</time>
      </trkpt>
      <trkpt lat="10.1574767375143" lon="-75.6826831075236">
        <ele>52.421895</ele>
        <time>2019-09-10T15:13:44.400Z</time>
      </trkpt>
      <trkpt lat="10.1574784543372" lon="-75.6826851367479">
        <ele>52.521895</ele>
        <time>2019-09-10T15:13:44.500Z</time>
      </trkpt>
      <trkpt lat="10.1574801928379" lon="-75.6826871999505">
        <ele>52.521895</ele>
        <time>2019-09-10T15:13:44.600Z</time>
      </trkpt>
      <trkpt lat="10.1574819193534" lon="-75.6826892742934">
        <ele>52.521895</ele>
        <time>2019-09-10T15:13:44.700Z</time>
      </trkpt>
      <trkpt lat="10.1574836606681" lon="-75.6826913646507">
        <ele>52.521895</ele>
        <time>2019-09-10T15:13:44.800Z</time>
      </trkpt>
      <trkpt lat="10.1574854114668" lon="-75.6826934661484">
        <ele>52.521895</ele>
        <time>2019-09-10T15:13:44.900Z</time>
      </trkpt>
      <trkpt lat="10.1574871832139" lon="-75.6826955709882">
        <ele>52.521895</ele>
        <time>2019-09-10T15:13:45.000Z</time>
      </trkpt>
      <trkpt lat="10.1574889449558" lon="-75.6826976878039">
        <ele>52.521895</ele>
        <time>2019-09-10T15:13:45.100Z</time>
      </trkpt>
      <trkpt lat="10.1574907058639" lon="-75.6826998022523">
        <ele>52.521895</ele>
        <time>2019-09-10T15:13:45.200Z</time>
      </trkpt>
      <trkpt lat="10.1574924465533" lon="-75.6827019417666">
        <ele>52.521895</ele>
        <time>2019-09-10T15:13:45.300Z</time>
      </trkpt>
      <trkpt lat="10.1574941846372" lon="-75.6827040821165">
        <ele>52.521895</ele>
        <time>2019-09-10T15:13:45.400Z</time>
      </trkpt>
      <trkpt lat="10.1574958836384" lon="-75.6827061975396">
        <ele>52.521895</ele>
        <time>2019-09-10T15:13:45.500Z</time>
      </trkpt>
      <trkpt lat="10.1574992461017" lon="-75.682710373241">
        <ele>52.521895</ele>
        <time>2019-09-10T15:13:45.700Z</time>
      </trkpt>
      <trkpt lat="10.157500942289" lon="-75.682712467776">
        <ele>52.521895</ele>
        <time>2019-09-10T15:13:45.800Z</time>
      </trkpt>
      <trkpt lat="10.1575026611963" lon="-75.6827146029733">
        <ele>52.521895</ele>
        <time>2019-09-10T15:13:45.900Z</time>
      </trkpt>
      <trkpt lat="10.1575044109528" lon="-75.6827167619834">
        <ele>52.521895</ele>
        <time>2019-09-10T15:13:46.000Z</time>
      </trkpt>
      <trkpt lat="10.1575061760298" lon="-75.6827189189046">
        <ele>52.521895</ele>
        <time>2019-09-10T15:13:46.100Z</time>
      </trkpt>
      <trkpt lat="10.1575079425659" lon="-75.6827210502028">
        <ele>52.521895</ele>
        <time>2019-09-10T15:13:46.200Z</time>
      </trkpt>
      <trkpt lat="10.1575097137918" lon="-75.6827231706392">
        <ele>52.521895</ele>
        <time>2019-09-10T15:13:46.300Z</time>
      </trkpt>
      <trkpt lat="10.1575114949187" lon="-75.6827252756182">
        <ele>52.421895</ele>
        <time>2019-09-10T15:13:46.400Z</time>
      </trkpt>
      <trkpt lat="10.1575132797976" lon="-75.6827273938265">
        <ele>52.521895</ele>
        <time>2019-09-10T15:13:46.500Z</time>
      </trkpt>
      <trkpt lat="10.1575150683241" lon="-75.6827295199723">
        <ele>52.421895</ele>
        <time>2019-09-10T15:13:46.600Z</time>
      </trkpt>
      <trkpt lat="10.1575168212073" lon="-75.6827316213308">
        <ele>52.421895</ele>
        <time>2019-09-10T15:13:46.700Z</time>
      </trkpt>
      <trkpt lat="10.1575185618967" lon="-75.6827337057001">
        <ele>52.421895</ele>
        <time>2019-09-10T15:13:46.800Z</time>
      </trkpt>
      <trkpt lat="10.1575203132166" lon="-75.6827357857525">
        <ele>52.421895</ele>
        <time>2019-09-10T15:13:46.900Z</time>
      </trkpt>
      <trkpt lat="10.1575220955941" lon="-75.6827378790341">
        <ele>52.421895</ele>
        <time>2019-09-10T15:13:47.000Z</time>
      </trkpt>
      <trkpt lat="10.1575238806814" lon="-75.6827399699484">
        <ele>52.421895</ele>
        <time>2019-09-10T15:13:47.100Z</time>
      </trkpt>
      <trkpt lat="10.1575256652476" lon="-75.6827420664329">
        <ele>52.421895</ele>
        <time>2019-09-10T15:13:47.200Z</time>
      </trkpt>
      <trkpt lat="10.157527449918" lon="-75.6827441673736">
        <ele>52.421895</ele>
        <time>2019-09-10T15:13:47.300Z</time>
      </trkpt>
      <trkpt lat="10.1575292333377" lon="-75.6827462745807">
        <ele>52.421895</ele>
        <time>2019-09-10T15:13:47.400Z</time>
      </trkpt>
      <trkpt lat="10.1575310049806" lon="-75.6827483361122">
        <ele>52.421895</ele>
        <time>2019-09-10T15:13:47.500Z</time>
      </trkpt>
      <trkpt lat="10.1575327663056" lon="-75.6827503802368">
        <ele>52.421895</ele>
        <time>2019-09-10T15:13:47.600Z</time>
      </trkpt>
      <trkpt lat="10.1575345635867" lon="-75.6827524646062">
        <ele>52.421895</ele>
        <time>2019-09-10T15:13:47.700Z</time>
      </trkpt>
      <trkpt lat="10.1575363810865" lon="-75.6827545939548">
        <ele>52.421895</ele>
        <time>2019-09-10T15:13:47.800Z</time>
      </trkpt>
      <trkpt lat="10.1575381641936" lon="-75.6827566999087">
        <ele>52.421895</ele>
        <time>2019-09-10T15:13:47.900Z</time>
      </trkpt>
      <trkpt lat="10.1575399196823" lon="-75.6827587872024">
        <ele>52.421895</ele>
        <time>2019-09-10T15:13:48.000Z</time>
      </trkpt>
      <trkpt lat="10.1575416547438" lon="-75.6827608474806">
        <ele>52.421895</ele>
        <time>2019-09-10T15:13:48.100Z</time>
      </trkpt>
      <trkpt lat="10.1575433927234" lon="-75.6827629067839">
        <ele>52.421895</ele>
        <time>2019-09-10T15:13:48.200Z</time>
      </trkpt>
      <trkpt lat="10.1575451319537" lon="-75.6827649878112">
        <ele>52.421895</ele>
        <time>2019-09-10T15:13:48.300Z</time>
      </trkpt>
      <trkpt lat="10.1575468895268" lon="-75.6827670961323">
        <ele>52.421895</ele>
        <time>2019-09-10T15:13:48.400Z</time>
      </trkpt>
      <trkpt lat="10.1575486321964" lon="-75.6827692137836">
        <ele>52.421895</ele>
        <time>2019-09-10T15:13:48.500Z</time>
      </trkpt>
      <trkpt lat="10.1575503758039" lon="-75.6827713315741">
        <ele>52.421895</ele>
        <time>2019-09-10T15:13:48.600Z</time>
      </trkpt>
      <trkpt lat="10.1575521066966" lon="-75.682773451175">
        <ele>52.421895</ele>
        <time>2019-09-10T15:13:48.700Z</time>
      </trkpt>
      <trkpt lat="10.1575538444678" lon="-75.6827755684085">
        <ele>52.421895</ele>
        <time>2019-09-10T15:13:48.800Z</time>
      </trkpt>
      <trkpt lat="10.1575555735887" lon="-75.6827777056947">
        <ele>52.421895</ele>
        <time>2019-09-10T15:13:48.900Z</time>
      </trkpt>
      <trkpt lat="10.1575573147992" lon="-75.6827798489689">
        <ele>52.421895</ele>
        <time>2019-09-10T15:13:49.000Z</time>
      </trkpt>
      <trkpt lat="10.1575590494438" lon="-75.6827819890402">
        <ele>52.421895</ele>
        <time>2019-09-10T15:13:49.100Z</time>
      </trkpt>
      <trkpt lat="10.1575607907585" lon="-75.6827841183889">
        <ele>52.421895</ele>
        <time>2019-09-10T15:13:49.200Z</time>
      </trkpt>
      <trkpt lat="10.1575625227976" lon="-75.6827862377112">
        <ele>52.421895</ele>
        <time>2019-09-10T15:13:49.300Z</time>
      </trkpt>
      <trkpt lat="10.1575642589013" lon="-75.6827883514633">
        <ele>52.421895</ele>
        <time>2019-09-10T15:13:49.400Z</time>
      </trkpt>
      <trkpt lat="10.1575659868758" lon="-75.6827904792802">
        <ele>52.421895</ele>
        <time>2019-09-10T15:13:49.500Z</time>
      </trkpt>
      <trkpt lat="10.1575677228753" lon="-75.6827926157309">
        <ele>52.421895</ele>
        <time>2019-09-10T15:13:49.600Z</time>
      </trkpt>
      <trkpt lat="10.1575694136431" lon="-75.6827947155575">
        <ele>52.421895</ele>
        <time>2019-09-10T15:13:49.700Z</time>
      </trkpt>
      <trkpt lat="10.1575710984703" lon="-75.6827968006231">
        <ele>52.421895</ele>
        <time>2019-09-10T15:13:49.800Z</time>
      </trkpt>
      <trkpt lat="10.157572775481" lon="-75.6827988686996">
        <ele>52.421895</ele>
        <time>2019-09-10T15:13:49.900Z</time>
      </trkpt>
      <trkpt lat="10.1575744793806" lon="-75.6828009504231">
        <ele>52.421895</ele>
        <time>2019-09-10T15:13:50.000Z</time>
      </trkpt>
      <trkpt lat="10.1575761835928" lon="-75.6828030229557">
        <ele>52.421895</ele>
        <time>2019-09-10T15:13:50.100Z</time>
      </trkpt>
      <trkpt lat="10.1575779068774" lon="-75.6828051085783">
        <ele>52.421895</ele>
        <time>2019-09-10T15:13:50.200Z</time>
      </trkpt>
      <trkpt lat="10.157579659031" lon="-75.682807217735">
        <ele>52.421895</ele>
        <time>2019-09-10T15:13:50.300Z</time>
      </trkpt>
      <trkpt lat="10.157581429319" lon="-75.6828093459697">
        <ele>52.421895</ele>
        <time>2019-09-10T15:13:50.400Z</time>
      </trkpt>
      <trkpt lat="10.1575848675505" lon="-75.6828135415845">
        <ele>52.421895</ele>
        <time>2019-09-10T15:13:50.600Z</time>
      </trkpt>
      <trkpt lat="10.1575865626956" lon="-75.6828156485132">
        <ele>52.321895</ele>
        <time>2019-09-10T15:13:50.700Z</time>
      </trkpt>
      <trkpt lat="10.1575882710767" lon="-75.6828177728487">
        <ele>52.321895</ele>
        <time>2019-09-10T15:13:50.800Z</time>
      </trkpt>
      <trkpt lat="10.1575899759142" lon="-75.6828198949561">
        <ele>52.421895</ele>
        <time>2019-09-10T15:13:50.900Z</time>
      </trkpt>
      <trkpt lat="10.1575916909654" lon="-75.6828220124681">
        <ele>52.321895</ele>
        <time>2019-09-10T15:13:51.000Z</time>
      </trkpt>
      <trkpt lat="10.1575934138331" lon="-75.6828241487795">
        <ele>52.321895</ele>
        <time>2019-09-10T15:13:51.100Z</time>
      </trkpt>
      <trkpt lat="10.1575951430582" lon="-75.6828262984595">
        <ele>52.321895</ele>
        <time>2019-09-10T15:13:51.200Z</time>
      </trkpt>
      <trkpt lat="10.1575968502928" lon="-75.6828284396448">
        <ele>52.421895</ele>
        <time>2019-09-10T15:13:51.300Z</time>
      </trkpt>
      <trkpt lat="10.1575985464801" lon="-75.6828305730319">
        <ele>52.421895</ele>
        <time>2019-09-10T15:13:51.400Z</time>
      </trkpt>
      <trkpt lat="10.1576002454813" lon="-75.6828327133818">
        <ele>52.421895</ele>
        <time>2019-09-10T15:13:51.500Z</time>
      </trkpt>
      <trkpt lat="10.1576019542793" lon="-75.6828348581878">
        <ele>52.421895</ele>
        <time>2019-09-10T15:13:51.600Z</time>
      </trkpt>
      <trkpt lat="10.1576036534889" lon="-75.6828370021582">
        <ele>52.421895</ele>
        <time>2019-09-10T15:13:51.700Z</time>
      </trkpt>
      <trkpt lat="10.1576053517606" lon="-75.682839139723">
        <ele>52.421895</ele>
        <time>2019-09-10T15:13:51.800Z</time>
      </trkpt>
      <trkpt lat="10.1576070473225" lon="-75.6828412584883">
        <ele>52.421895</ele>
        <time>2019-09-10T15:13:51.900Z</time>
      </trkpt>
      <trkpt lat="10.1576087560163" lon="-75.6828433578971">
        <ele>52.421895</ele>
        <time>2019-09-10T15:13:52.000Z</time>
      </trkpt>
      <trkpt lat="10.1576104437617" lon="-75.6828454340504">
        <ele>52.421895</ele>
        <time>2019-09-10T15:13:52.100Z</time>
      </trkpt>
      <trkpt lat="10.1576121326535" lon="-75.6828475141028">
        <ele>52.421895</ele>
        <time>2019-09-10T15:13:52.200Z</time>
      </trkpt>
      <trkpt lat="10.1576138260268" lon="-75.6828495898383">
        <ele>52.421895</ele>
        <time>2019-09-10T15:13:52.300Z</time>
      </trkpt>
      <trkpt lat="10.1576155433708" lon="-75.682851671144">
        <ele>52.421895</ele>
        <time>2019-09-10T15:13:52.400Z</time>
      </trkpt>
      <trkpt lat="10.1576172468535" lon="-75.6828537485506">
        <ele>52.421895</ele>
        <time>2019-09-10T15:13:52.500Z</time>
      </trkpt>
      <trkpt lat="10.1576189561726" lon="-75.6828558348695">
        <ele>52.421895</ele>
        <time>2019-09-10T15:13:52.600Z</time>
      </trkpt>
      <trkpt lat="10.1576206757052" lon="-75.6828579239734">
        <ele>52.421895</ele>
        <time>2019-09-10T15:13:52.700Z</time>
      </trkpt>
      <trkpt lat="10.1576224157693" lon="-75.682860021015">
        <ele>52.421895</ele>
        <time>2019-09-10T15:13:52.800Z</time>
      </trkpt>
      <trkpt lat="10.1576241553122" lon="-75.6828621268296">
        <ele>52.421895</ele>
        <time>2019-09-10T15:13:52.900Z</time>
      </trkpt>
      <trkpt lat="10.1576258949594" lon="-75.6828642380751">
        <ele>52.421895</ele>
        <time>2019-09-10T15:13:53.000Z</time>
      </trkpt>
      <trkpt lat="10.157627612095" lon="-75.6828663313567">
        <ele>52.421895</ele>
        <time>2019-09-10T15:13:53.100Z</time>
      </trkpt>
      <trkpt lat="10.1576293257913" lon="-75.6828684168401">
        <ele>52.421895</ele>
        <time>2019-09-10T15:13:53.200Z</time>
      </trkpt>
      <trkpt lat="10.1576310197899" lon="-75.6828704817137">
        <ele>52.421895</ele>
        <time>2019-09-10T15:13:53.300Z</time>
      </trkpt>
      <trkpt lat="10.1576327250444" lon="-75.6828725531323">
        <ele>52.421895</ele>
        <time>2019-09-10T15:13:53.400Z</time>
      </trkpt>
      <trkpt lat="10.1576344329043" lon="-75.6828746221835">
        <ele>52.421895</ele>
        <time>2019-09-10T15:13:53.500Z</time>
      </trkpt>
      <trkpt lat="10.1576361605662" lon="-75.682876709895">
        <ele>52.421895</ele>
        <time>2019-09-10T15:13:53.600Z</time>
      </trkpt>
      <trkpt lat="10.1576378914067" lon="-75.6828787964924">
        <ele>52.421895</ele>
        <time>2019-09-10T15:13:53.700Z</time>
      </trkpt>
      <trkpt lat="10.1576396409027" lon="-75.6828808875459">
        <ele>52.421895</ele>
        <time>2019-09-10T15:13:53.800Z</time>
      </trkpt>
      <trkpt lat="10.1576413939943" lon="-75.6828829774854">
        <ele>52.421895</ele>
        <time>2019-09-10T15:13:53.900Z</time>
      </trkpt>
      <trkpt lat="10.1576431550067" lon="-75.6828850707671">
        <ele>52.421895</ele>
        <time>2019-09-10T15:13:54.000Z</time>
      </trkpt>
      <trkpt lat="10.1576449120066" lon="-75.682887164745">
        <ele>52.421895</ele>
        <time>2019-09-10T15:13:54.100Z</time>
      </trkpt>
      <trkpt lat="10.1576466729147" lon="-75.6828892630398">
        <ele>52.421895</ele>
        <time>2019-09-10T15:13:54.200Z</time>
      </trkpt>
      <trkpt lat="10.1576484236614" lon="-75.6828913610561">
        <ele>52.421895</ele>
        <time>2019-09-10T15:13:54.300Z</time>
      </trkpt>
      <trkpt lat="10.1576519425074" lon="-75.6828955662796">
        <ele>52.421895</ele>
        <time>2019-09-10T15:13:54.500Z</time>
      </trkpt>
      <trkpt lat="10.1576537213415" lon="-75.6828976733475">
        <ele>52.421895</ele>
        <time>2019-09-10T15:13:54.600Z</time>
      </trkpt>
      <trkpt lat="10.1576554917858" lon="-75.682899758413">
        <ele>52.421895</ele>
        <time>2019-09-10T15:13:54.700Z</time>
      </trkpt>
      <trkpt lat="10.1576572616048" lon="-75.6829018335915">
        <ele>52.421895</ele>
        <time>2019-09-10T15:13:54.800Z</time>
      </trkpt>
      <trkpt lat="10.1576590341335" lon="-75.6829039472044">
        <ele>52.421895</ele>
        <time>2019-09-10T15:13:54.900Z</time>
      </trkpt>
      <trkpt lat="10.1576608159899" lon="-75.682906094517">
        <ele>52.421895</ele>
        <time>2019-09-10T15:13:55.000Z</time>
      </trkpt>
      <trkpt lat="10.157662572625" lon="-75.682908219688">
        <ele>52.421895</ele>
        <time>2019-09-10T15:13:55.100Z</time>
      </trkpt>
      <trkpt lat="10.1576643263941" lon="-75.6829103220212">
        <ele>52.421895</ele>
        <time>2019-09-10T15:13:55.200Z</time>
      </trkpt>
      <trkpt lat="10.1576660847488" lon="-75.6829124368874">
        <ele>52.421895</ele>
        <time>2019-09-10T15:13:55.300Z</time>
      </trkpt>
      <trkpt lat="10.157667856079" lon="-75.6829145599696">
        <ele>52.421895</ele>
        <time>2019-09-10T15:13:55.400Z</time>
      </trkpt>
      <trkpt lat="10.1576714130176" lon="-75.682918790816">
        <ele>52.421895</ele>
        <time>2019-09-10T15:13:55.600Z</time>
      </trkpt>
      <trkpt lat="10.1576731628784" lon="-75.6829208506764">
        <ele>52.421895</ele>
        <time>2019-09-10T15:13:55.700Z</time>
      </trkpt>
      <trkpt lat="10.1576749009101" lon="-75.6829228925729">
        <ele>52.421895</ele>
        <time>2019-09-10T15:13:55.800Z</time>
      </trkpt>
      <trkpt lat="10.1576765994945" lon="-75.6829249525726">
        <ele>52.421895</ele>
        <time>2019-09-10T15:13:55.900Z</time>
      </trkpt>
      <trkpt lat="10.1576783040715" lon="-75.6829270497534">
        <ele>52.421895</ele>
        <time>2019-09-10T15:13:56.000Z</time>
      </trkpt>
      <trkpt lat="10.157679987596" lon="-75.6829291337049">
        <ele>52.421895</ele>
        <time>2019-09-10T15:13:56.100Z</time>
      </trkpt>
      <trkpt lat="10.1576816946743" lon="-75.6829312154284">
        <ele>52.421895</ele>
        <time>2019-09-10T15:13:56.200Z</time>
      </trkpt>
      <trkpt lat="10.1576833908094" lon="-75.6829332991014">
        <ele>52.421895</ele>
        <time>2019-09-10T15:13:56.300Z</time>
      </trkpt>
      <trkpt lat="10.157685108883" lon="-75.6829353964215">
        <ele>52.421895</ele>
        <time>2019-09-10T15:13:56.400Z</time>
      </trkpt>
      <trkpt lat="10.1576868242989" lon="-75.6829374958303">
        <ele>52.421895</ele>
        <time>2019-09-10T15:13:56.500Z</time>
      </trkpt>
      <trkpt lat="10.1576885575886" lon="-75.6829395994169">
        <ele>52.421895</ele>
        <time>2019-09-10T15:13:56.600Z</time>
      </trkpt>
      <trkpt lat="10.1576902867096" lon="-75.6829417223598">
        <ele>52.421895</ele>
        <time>2019-09-10T15:13:56.700Z</time>
      </trkpt>
      <trkpt lat="10.1576920242723" lon="-75.6829438575572">
        <ele>52.421895</ele>
        <time>2019-09-10T15:13:56.800Z</time>
      </trkpt>
      <trkpt lat="10.1576937617309" lon="-75.6829459855134">
        <ele>52.521895</ele>
        <time>2019-09-10T15:13:56.900Z</time>
      </trkpt>
      <trkpt lat="10.1576955072665" lon="-75.6829481040001">
        <ele>52.521895</ele>
        <time>2019-09-10T15:13:57.000Z</time>
      </trkpt>
      <trkpt lat="10.1576972468616" lon="-75.6829501938004">
        <ele>52.521895</ele>
        <time>2019-09-10T15:13:57.100Z</time>
      </trkpt>
      <trkpt lat="10.1576989839033" lon="-75.6829522735743">
        <ele>52.421895</ele>
        <time>2019-09-10T15:13:57.200Z</time>
      </trkpt>
      <trkpt lat="10.1577007064062" lon="-75.6829543461069">
        <ele>52.421895</ele>
        <time>2019-09-10T15:13:57.300Z</time>
      </trkpt>
      <trkpt lat="10.1577024263557" lon="-75.6829564324258">
        <ele>52.521895</ele>
        <time>2019-09-10T15:13:57.400Z</time>
      </trkpt>
      <trkpt lat="10.1577041410942" lon="-75.68295849159">
        <ele>52.521895</ele>
        <time>2019-09-10T15:13:57.500Z</time>
      </trkpt>
      <trkpt lat="10.1577058672448" lon="-75.6829605511719">
        <ele>52.521895</ele>
        <time>2019-09-10T15:13:57.600Z</time>
      </trkpt>
      <trkpt lat="10.1577075778145" lon="-75.6829626054621">
        <ele>52.521895</ele>
        <time>2019-09-10T15:13:57.700Z</time>
      </trkpt>
      <trkpt lat="10.1577092919798" lon="-75.6829646789696">
        <ele>52.521895</ele>
        <time>2019-09-10T15:13:57.800Z</time>
      </trkpt>
      <trkpt lat="10.1577109961399" lon="-75.6829667335383">
        <ele>52.521895</ele>
        <time>2019-09-10T15:13:57.900Z</time>
      </trkpt>
      <trkpt lat="10.1577127147346" lon="-75.6829687878285">
        <ele>52.521895</ele>
        <time>2019-09-10T15:13:58.000Z</time>
      </trkpt>
      <trkpt lat="10.1577144605829" lon="-75.6829708705268">
        <ele>52.521895</ele>
        <time>2019-09-10T15:13:58.100Z</time>
      </trkpt>
      <trkpt lat="10.1577162372804" lon="-75.6829729760628">
        <ele>52.521895</ele>
        <time>2019-09-10T15:13:58.200Z</time>
      </trkpt>
      <trkpt lat="10.1577179892256" lon="-75.6829750699015">
        <ele>52.521895</ele>
        <time>2019-09-10T15:13:58.300Z</time>
      </trkpt>
      <trkpt lat="10.1577197274658" lon="-75.6829771563596">
        <ele>52.521895</ele>
        <time>2019-09-10T15:13:58.400Z</time>
      </trkpt>
      <trkpt lat="10.1577214492392" lon="-75.6829792517301">
        <ele>52.521895</ele>
        <time>2019-09-10T15:13:58.500Z</time>
      </trkpt>
      <trkpt lat="10.1577231766405" lon="-75.6829813586587">
        <ele>52.521895</ele>
        <time>2019-09-10T15:13:58.600Z</time>
      </trkpt>
      <trkpt lat="10.1577265646899" lon="-75.6829855836564">
        <ele>52.421895</ele>
        <time>2019-09-10T15:13:58.800Z</time>
      </trkpt>
      <trkpt lat="10.1577317126573" lon="-75.6829919690566">
        <ele>52.421895</ele>
        <time>2019-09-10T15:13:59.100Z</time>
      </trkpt>
      <trkpt lat="10.1577333753898" lon="-75.6829940404752">
        <ele>52.421895</ele>
        <time>2019-09-10T15:13:59.200Z</time>
      </trkpt>
      <trkpt lat="10.1577350415616" lon="-75.6829961675958">
        <ele>52.421895</ele>
        <time>2019-09-10T15:13:59.300Z</time>
      </trkpt>
      <trkpt lat="10.1577367506201" lon="-75.6829983479118">
        <ele>52.521895</ele>
        <time>2019-09-10T15:13:59.400Z</time>
      </trkpt>
      <trkpt lat="10.1577384639516" lon="-75.6830005478628">
        <ele>52.521895</ele>
        <time>2019-09-10T15:13:59.500Z</time>
      </trkpt>
      <trkpt lat="10.1577401862982" lon="-75.6830027294322">
        <ele>52.521895</ele>
        <time>2019-09-10T15:13:59.600Z</time>
      </trkpt>
      <trkpt lat="10.1577418651849" lon="-75.6830048704783">
        <ele>52.521895</ele>
        <time>2019-09-10T15:13:59.700Z</time>
      </trkpt>
      <trkpt lat="10.1577435237486" lon="-75.6830069760144">
        <ele>52.521895</ele>
        <time>2019-09-10T15:13:59.800Z</time>
      </trkpt>
      <trkpt lat="10.1577451980496" lon="-75.6830090765372">
        <ele>52.521895</ele>
        <time>2019-09-10T15:13:59.900Z</time>
      </trkpt>
      <trkpt lat="10.1577469126318" lon="-75.6830111954418">
        <ele>52.521895</ele>
        <time>2019-09-10T15:14:00.000Z</time>
      </trkpt>
      <trkpt lat="10.1577486236183" lon="-75.6830132919263">
        <ele>52.521895</ele>
        <time>2019-09-10T15:14:00.100Z</time>
      </trkpt>
      <trkpt lat="10.157750335126" lon="-75.6830153860435">
        <ele>52.521895</ele>
        <time>2019-09-10T15:14:00.200Z</time>
      </trkpt>
      <trkpt lat="10.1577537116069" lon="-75.6830195582635">
        <ele>52.421895</ele>
        <time>2019-09-10T15:14:00.400Z</time>
      </trkpt>
      <trkpt lat="10.1577554079505" lon="-75.6830216096293">
        <ele>52.421895</ele>
        <time>2019-09-10T15:14:00.500Z</time>
      </trkpt>
      <trkpt lat="10.1577571284732" lon="-75.6830236633626">
        <ele>52.421895</ele>
        <time>2019-09-10T15:14:00.600Z</time>
      </trkpt>
      <trkpt lat="10.1577588678078" lon="-75.683025757619">
        <ele>52.421895</ele>
        <time>2019-09-10T15:14:00.700Z</time>
      </trkpt>
      <trkpt lat="10.1577606134476" lon="-75.6830278944875">
        <ele>52.421895</ele>
        <time>2019-09-10T15:14:00.800Z</time>
      </trkpt>
      <trkpt lat="10.1577623160444" lon="-75.6830300014161">
        <ele>52.421895</ele>
        <time>2019-09-10T15:14:00.900Z</time>
      </trkpt>
      <trkpt lat="10.1577639931073" lon="-75.6830320789619">
        <ele>52.421895</ele>
        <time>2019-09-10T15:14:01.000Z</time>
      </trkpt>
      <trkpt lat="10.1577656544849" lon="-75.6830341322773">
        <ele>52.421895</ele>
        <time>2019-09-10T15:14:01.100Z</time>
      </trkpt>
      <trkpt lat="10.1577673436373" lon="-75.683036192277">
        <ele>52.421895</ele>
        <time>2019-09-10T15:14:01.200Z</time>
      </trkpt>
      <trkpt lat="10.1577690209086" lon="-75.6830382433644">
        <ele>52.421895</ele>
        <time>2019-09-10T15:14:01.300Z</time>
      </trkpt>
      <trkpt lat="10.1577707157931" lon="-75.6830403163148">
        <ele>52.421895</ele>
        <time>2019-09-10T15:14:01.400Z</time>
      </trkpt>
      <trkpt lat="10.1577724197448" lon="-75.6830423910755">
        <ele>52.421895</ele>
        <time>2019-09-10T15:14:01.500Z</time>
      </trkpt>
      <trkpt lat="10.1577741538683" lon="-75.6830444812935">
        <ele>52.421895</ele>
        <time>2019-09-10T15:14:01.600Z</time>
      </trkpt>
      <trkpt lat="10.1577758953393" lon="-75.6830465978308">
        <ele>52.421895</ele>
        <time>2019-09-10T15:14:01.700Z</time>
      </trkpt>
      <trkpt lat="10.1577776443663" lon="-75.6830487313571">
        <ele>52.421895</ele>
        <time>2019-09-10T15:14:01.800Z</time>
      </trkpt>
      <trkpt lat="10.1577793728098" lon="-75.6830508476158">
        <ele>52.421895</ele>
        <time>2019-09-10T15:14:01.900Z</time>
      </trkpt>
      <trkpt lat="10.1577810924988" lon="-75.6830529484172">
        <ele>52.421895</ele>
        <time>2019-09-10T15:14:02.000Z</time>
      </trkpt>
      <trkpt lat="10.1577828079668" lon="-75.6830550429521">
        <ele>52.421895</ele>
        <time>2019-09-10T15:14:02.100Z</time>
      </trkpt>
      <trkpt lat="10.1577845384426" lon="-75.6830571462602">
        <ele>52.421895</ele>
        <time>2019-09-10T15:14:02.200Z</time>
      </trkpt>
      <trkpt lat="10.1577862639679" lon="-75.6830592662788">
        <ele>52.421895</ele>
        <time>2019-09-10T15:14:02.300Z</time>
      </trkpt>
      <trkpt lat="10.1577880002279" lon="-75.6830614007799">
        <ele>52.421895</ele>
        <time>2019-09-10T15:14:02.400Z</time>
      </trkpt>
      <trkpt lat="10.1577897333092" lon="-75.6830635280398">
        <ele>52.421895</ele>
        <time>2019-09-10T15:14:02.500Z</time>
      </trkpt>
      <trkpt lat="10.1577931960325" lon="-75.6830677133497">
        <ele>52.421895</ele>
        <time>2019-09-10T15:14:02.700Z</time>
      </trkpt>
      <trkpt lat="10.157794915461" lon="-75.6830697549677">
        <ele>52.421895</ele>
        <time>2019-09-10T15:14:02.800Z</time>
      </trkpt>
      <trkpt lat="10.15779663046" lon="-75.6830717802929">
        <ele>52.421895</ele>
        <time>2019-09-10T15:14:02.900Z</time>
      </trkpt>
      <trkpt lat="10.157800087816" lon="-75.6830758725805">
        <ele>52.421895</ele>
        <time>2019-09-10T15:14:03.100Z</time>
      </trkpt>
      <trkpt lat="10.1578018190213" lon="-75.6830779389859">
        <ele>52.421895</ele>
        <time>2019-09-10T15:14:03.200Z</time>
      </trkpt>
      <trkpt lat="10.1578035644527" lon="-75.6830800364452">
        <ele>52.421895</ele>
        <time>2019-09-10T15:14:03.300Z</time>
      </trkpt>
      <trkpt lat="10.1578053259341" lon="-75.6830821552105">
        <ele>52.421895</ele>
        <time>2019-09-10T15:14:03.400Z</time>
      </trkpt>
      <trkpt lat="10.1578070710007" lon="-75.683084243479">
        <ele>52.421895</ele>
        <time>2019-09-10T15:14:03.500Z</time>
      </trkpt>
      <trkpt lat="10.1578088031961" lon="-75.6830863103022">
        <ele>52.421895</ele>
        <time>2019-09-10T15:14:03.600Z</time>
      </trkpt>
      <trkpt lat="10.1578105450319" lon="-75.6830883850629">
        <ele>52.421895</ele>
        <time>2019-09-10T15:14:03.700Z</time>
      </trkpt>
      <trkpt lat="10.1578122948406" lon="-75.6830904828007">
        <ele>52.421895</ele>
        <time>2019-09-10T15:14:03.800Z</time>
      </trkpt>
      <trkpt lat="10.1578140183857" lon="-75.6830925904256">
        <ele>52.421895</ele>
        <time>2019-09-10T15:14:03.900Z</time>
      </trkpt>
      <trkpt lat="10.1578157293202" lon="-75.6830947068236">
        <ele>52.321895</ele>
        <time>2019-09-10T15:14:04.000Z</time>
      </trkpt>
      <trkpt lat="10.1578174466121" lon="-75.6830968214112">
        <ele>52.321895</ele>
        <time>2019-09-10T15:14:04.100Z</time>
      </trkpt>
      <trkpt lat="10.1578191801103" lon="-75.6830989358596">
        <ele>52.421895</ele>
        <time>2019-09-10T15:14:04.200Z</time>
      </trkpt>
      <trkpt lat="10.1578209134521" lon="-75.683101062284">
        <ele>52.421895</ele>
        <time>2019-09-10T15:14:04.300Z</time>
      </trkpt>
      <trkpt lat="10.1578226563822" lon="-75.6831031977599">
        <ele>52.421895</ele>
        <time>2019-09-10T15:14:04.400Z</time>
      </trkpt>
      <trkpt lat="10.1578243799795" lon="-75.6831053312862">
        <ele>52.421895</ele>
        <time>2019-09-10T15:14:04.500Z</time>
      </trkpt>
      <trkpt lat="10.1578260920082" lon="-75.6831074604956">
        <ele>52.421895</ele>
        <time>2019-09-10T15:14:04.600Z</time>
      </trkpt>
      <trkpt lat="10.1578277977317" lon="-75.6831095859452">
        <ele>52.421895</ele>
        <time>2019-09-10T15:14:04.700Z</time>
      </trkpt>
      <trkpt lat="10.1578295139293" lon="-75.6831117080526">
        <ele>52.421895</ele>
        <time>2019-09-10T15:14:04.800Z</time>
      </trkpt>
      <trkpt lat="10.1578312260623" lon="-75.6831138651131">
        <ele>52.421895</ele>
        <time>2019-09-10T15:14:04.900Z</time>
      </trkpt>
      <trkpt lat="10.1578329538283" lon="-75.6831160398589">
        <ele>52.421895</ele>
        <time>2019-09-10T15:14:05.000Z</time>
      </trkpt>
      <trkpt lat="10.1578346943093" lon="-75.6831181991474">
        <ele>52.421895</ele>
        <time>2019-09-10T15:14:05.100Z</time>
      </trkpt>
      <trkpt lat="10.157836446515" lon="-75.6831203305849">
        <ele>52.421895</ele>
        <time>2019-09-10T15:14:05.200Z</time>
      </trkpt>
      <trkpt lat="10.157838203098" lon="-75.6831224554775">
        <ele>52.421895</ele>
        <time>2019-09-10T15:14:05.300Z</time>
      </trkpt>
      <trkpt lat="10.15783996015" lon="-75.6831245813448">
        <ele>52.421895</ele>
        <time>2019-09-10T15:14:05.400Z</time>
      </trkpt>
      <trkpt lat="10.1578416877076" lon="-75.6831266698917">
        <ele>52.421895</ele>
        <time>2019-09-10T15:14:05.500Z</time>
      </trkpt>
      <trkpt lat="10.157843406667" lon="-75.6831287436777">
        <ele>52.421895</ele>
        <time>2019-09-10T15:14:05.600Z</time>
      </trkpt>
      <trkpt lat="10.1578451239068" lon="-75.6831307802825">
        <ele>52.421895</ele>
        <time>2019-09-10T15:14:05.700Z</time>
      </trkpt>
      <trkpt lat="10.1578468672538" lon="-75.6831328256604">
        <ele>52.421895</ele>
        <time>2019-09-10T15:14:05.800Z</time>
      </trkpt>
      <trkpt lat="10.1578486280056" lon="-75.6831348846853">
        <ele>52.421895</ele>
        <time>2019-09-10T15:14:05.900Z</time>
      </trkpt>
      <trkpt lat="10.1578504147604" lon="-75.6831369769922">
        <ele>52.421895</ele>
        <time>2019-09-10T15:14:06.000Z</time>
      </trkpt>
      <trkpt lat="10.1578522000041" lon="-75.6831390294721">
        <ele>52.421895</ele>
        <time>2019-09-10T15:14:06.100Z</time>
      </trkpt>
      <trkpt lat="10.1578539823295" lon="-75.6831410738752">
        <ele>52.421895</ele>
        <time>2019-09-10T15:14:06.200Z</time>
      </trkpt>
      <trkpt lat="10.1578557674168" lon="-75.6831430983648">
        <ele>52.421895</ele>
        <time>2019-09-10T15:14:06.300Z</time>
      </trkpt>
      <trkpt lat="10.1578575566208" lon="-75.6831451437427">
        <ele>52.421895</ele>
        <time>2019-09-10T15:14:06.400Z</time>
      </trkpt>
      <trkpt lat="10.1578593478049" lon="-75.6831471971974">
        <ele>52.421895</ele>
        <time>2019-09-10T15:14:06.500Z</time>
      </trkpt>
      <trkpt lat="10.1578611439396" lon="-75.683149280592">
        <ele>52.421895</ele>
        <time>2019-09-10T15:14:06.600Z</time>
      </trkpt>
      <trkpt lat="10.157862942315" lon="-75.6831513518713">
        <ele>52.421895</ele>
        <time>2019-09-10T15:14:06.700Z</time>
      </trkpt>
      <trkpt lat="10.1578647452761" lon="-75.6831534289994">
        <ele>52.421895</ele>
        <time>2019-09-10T15:14:06.800Z</time>
      </trkpt>
      <trkpt lat="10.1578665475076" lon="-75.6831555098873">
        <ele>52.421895</ele>
        <time>2019-09-10T15:14:06.900Z</time>
      </trkpt>
      <trkpt lat="10.1578683464041" lon="-75.6831576047007">
        <ele>52.421895</ele>
        <time>2019-09-10T15:14:07.000Z</time>
      </trkpt>
      <trkpt lat="10.1578701324294" lon="-75.6831597048059">
        <ele>52.421895</ele>
        <time>2019-09-10T15:14:07.100Z</time>
      </trkpt>
      <trkpt lat="10.1578719133478" lon="-75.6831618156337">
        <ele>52.421895</ele>
        <time>2019-09-10T15:14:07.200Z</time>
      </trkpt>
      <trkpt lat="10.1578754023868" lon="-75.6831660396565">
        <ele>52.421895</ele>
        <time>2019-09-10T15:14:07.400Z</time>
      </trkpt>
      <trkpt lat="10.1578771455254" lon="-75.6831681504843">
        <ele>52.421895</ele>
        <time>2019-09-10T15:14:07.500Z</time>
      </trkpt>
      <trkpt lat="10.1578789033069" lon="-75.6831702640972">
        <ele>52.421895</ele>
        <time>2019-09-10T15:14:07.600Z</time>
      </trkpt>
      <trkpt lat="10.1578806424851" lon="-75.6831723513908">
        <ele>52.421895</ele>
        <time>2019-09-10T15:14:07.700Z</time>
      </trkpt>
      <trkpt lat="10.1578823838519" lon="-75.683174437292">
        <ele>52.421895</ele>
        <time>2019-09-10T15:14:07.800Z</time>
      </trkpt>
      <trkpt lat="10.157884130065" lon="-75.6831765343335">
        <ele>52.421895</ele>
        <time>2019-09-10T15:14:07.900Z</time>
      </trkpt>
      <trkpt lat="10.1578858918069" lon="-75.683178658669">
        <ele>52.421895</ele>
        <time>2019-09-10T15:14:08.000Z</time>
      </trkpt>
      <trkpt lat="10.1578876675664" lon="-75.6831807754847">
        <ele>52.421895</ele>
        <time>2019-09-10T15:14:08.100Z</time>
      </trkpt>
      <trkpt lat="10.1578894523932" lon="-75.6831828893761">
        <ele>52.421895</ele>
        <time>2019-09-10T15:14:08.200Z</time>
      </trkpt>
      <trkpt lat="10.1578912314357" lon="-75.6831849894812">
        <ele>52.421895</ele>
        <time>2019-09-10T15:14:08.300Z</time>
      </trkpt>
      <trkpt lat="10.1578930110514" lon="-75.6831870954351">
        <ele>52.421895</ele>
        <time>2019-09-10T15:14:08.400Z</time>
      </trkpt>
      <trkpt lat="10.1578947829027" lon="-75.6831892038955">
        <ele>52.421895</ele>
        <time>2019-09-10T15:14:08.500Z</time>
      </trkpt>
      <trkpt lat="10.1578965180162" lon="-75.6831912559577">
        <ele>52.421895</ele>
        <time>2019-09-10T15:14:08.600Z</time>
      </trkpt>
      <trkpt lat="10.1578981910145" lon="-75.6831931289378">
        <ele>52.421895</ele>
        <time>2019-09-10T15:14:08.700Z</time>
      </trkpt>
      <trkpt lat="10.1578998458783" lon="-75.6831948033403">
        <ele>52.421895</ele>
        <time>2019-09-10T15:14:08.800Z</time>
      </trkpt>
      <trkpt lat="10.1579014690071" lon="-75.6831961711032">
        <ele>52.321895</ele>
        <time>2019-09-10T15:14:08.900Z</time>
      </trkpt>
      <trkpt lat="10.1579030961483" lon="-75.6831972836117">
        <ele>52.321895</ele>
        <time>2019-09-10T15:14:09.000Z</time>
      </trkpt>
      <trkpt lat="10.1579047493968" lon="-75.6831980298794">
        <ele>52.421895</ele>
        <time>2019-09-10T15:14:09.100Z</time>
      </trkpt>
      <trkpt lat="10.1579064450108" lon="-75.6831984938772">
        <ele>52.421895</ele>
        <time>2019-09-10T15:14:09.200Z</time>
      </trkpt>
      <trkpt lat="10.1579081760077" lon="-75.683198544566">
        <ele>52.421895</ele>
        <time>2019-09-10T15:14:09.300Z</time>
      </trkpt>
      <trkpt lat="10.1579099335287" lon="-75.6831982957173">
        <ele>52.421895</ele>
        <time>2019-09-10T15:14:09.400Z</time>
      </trkpt>
      <trkpt lat="10.1579118081413" lon="-75.6831976598788">
        <ele>52.421895</ele>
        <time>2019-09-10T15:14:09.500Z</time>
      </trkpt>
      <trkpt lat="10.1579137280377" lon="-75.6831967811795">
        <ele>52.421895</ele>
        <time>2019-09-10T15:14:09.600Z</time>
      </trkpt>
      <trkpt lat="10.1579157401171" lon="-75.6831955704963">
        <ele>52.421895</ele>
        <time>2019-09-10T15:14:09.700Z</time>
      </trkpt>
      <trkpt lat="10.1579177613157" lon="-75.6831940916079">
        <ele>52.421895</ele>
        <time>2019-09-10T15:14:09.800Z</time>
      </trkpt>
      <trkpt lat="10.1579199231598" lon="-75.6831922881159">
        <ele>52.421895</ele>
        <time>2019-09-10T15:14:09.900Z</time>
      </trkpt>
      <trkpt lat="10.1579220782817" lon="-75.6831902974653">
        <ele>52.421895</ele>
        <time>2019-09-10T15:14:10.000Z</time>
      </trkpt>
      <trkpt lat="10.157924308338" lon="-75.6831881688129">
        <ele>52.421895</ele>
        <time>2019-09-10T15:14:10.100Z</time>
      </trkpt>
      <trkpt lat="10.1579264801351" lon="-75.6831859702544">
        <ele>52.421895</ele>
        <time>2019-09-10T15:14:10.200Z</time>
      </trkpt>
      <trkpt lat="10.1579287242612" lon="-75.6831837360467">
        <ele>52.521895</ele>
        <time>2019-09-10T15:14:10.300Z</time>
      </trkpt>
      <trkpt lat="10.1579309082522" lon="-75.6831814635438">
        <ele>52.421895</ele>
        <time>2019-09-10T15:14:10.400Z</time>
      </trkpt>
      <trkpt lat="10.1579331207474" lon="-75.6831792269688">
        <ele>52.421895</ele>
        <time>2019-09-10T15:14:10.500Z</time>
      </trkpt>
      <trkpt lat="10.1579352535661" lon="-75.6831769676951">
        <ele>52.421895</ele>
        <time>2019-09-10T15:14:10.600Z</time>
      </trkpt>
      <trkpt lat="10.1579373677814" lon="-75.6831747486662">
        <ele>52.421895</ele>
        <time>2019-09-10T15:14:10.700Z</time>
      </trkpt>
      <trkpt lat="10.1579394058638" lon="-75.6831724895318">
        <ele>52.421895</ele>
        <time>2019-09-10T15:14:10.800Z</time>
      </trkpt>
      <trkpt lat="10.1579414345142" lon="-75.6831702806685">
        <ele>52.421895</ele>
        <time>2019-09-10T15:14:10.900Z</time>
      </trkpt>
      <trkpt lat="10.1579434290845" lon="-75.6831680422831">
        <ele>52.421895</ele>
        <time>2019-09-10T15:14:11.000Z</time>
      </trkpt>
      <trkpt lat="10.1579454392879" lon="-75.6831658357872">
        <ele>52.421895</ele>
        <time>2019-09-10T15:14:11.100Z</time>
      </trkpt>
      <trkpt lat="10.1579474382875" lon="-75.6831635941989">
        <ele>52.421895</ele>
        <time>2019-09-10T15:14:11.200Z</time>
      </trkpt>
      <trkpt lat="10.1579494003411" lon="-75.683161424327">
        <ele>52.421895</ele>
        <time>2019-09-10T15:14:11.300Z</time>
      </trkpt>
      <trkpt lat="10.1579513348283" lon="-75.683159265874">
        <ele>52.421895</ele>
        <time>2019-09-10T15:14:11.400Z</time>
      </trkpt>
      <trkpt lat="10.1579532350271" lon="-75.6831571469694">
        <ele>52.421895</ele>
        <time>2019-09-10T15:14:11.500Z</time>
      </trkpt>
      <trkpt lat="10.1579551383524" lon="-75.6831550078729">
        <ele>52.421895</ele>
        <time>2019-09-10T15:14:11.600Z</time>
      </trkpt>
      <trkpt lat="10.157957012496" lon="-75.6831528820056">
        <ele>52.421895</ele>
        <time>2019-09-10T15:14:11.700Z</time>
      </trkpt>
      <trkpt lat="10.1579589049304" lon="-75.6831507454156">
        <ele>52.421895</ele>
        <time>2019-09-10T15:14:11.800Z</time>
      </trkpt>
      <trkpt lat="10.157960751195" lon="-75.6831486432217">
        <ele>52.421895</ele>
        <time>2019-09-10T15:14:11.900Z</time>
      </trkpt>
      <trkpt lat="10.1579644267885" lon="-75.6831444889656">
        <ele>52.421895</ele>
        <time>2019-09-10T15:14:12.100Z</time>
      </trkpt>
      <trkpt lat="10.1579662641424" lon="-75.6831424254845">
        <ele>52.421895</ele>
        <time>2019-09-10T15:14:12.200Z</time>
      </trkpt>
      <trkpt lat="10.1579680857589" lon="-75.6831403777393">
        <ele>52.421895</ele>
        <time>2019-09-10T15:14:12.300Z</time>
      </trkpt>
      <trkpt lat="10.1579699508875" lon="-75.6831383447551">
        <ele>52.421895</ele>
        <time>2019-09-10T15:14:12.400Z</time>
      </trkpt>
      <trkpt lat="10.157971796162" lon="-75.683136307454">
        <ele>52.421895</ele>
        <time>2019-09-10T15:14:12.500Z</time>
      </trkpt>
      <trkpt lat="10.1579736736928" lon="-75.6831342790652">
        <ele>52.421895</ele>
        <time>2019-09-10T15:14:12.600Z</time>
      </trkpt>
      <trkpt lat="10.1579755258459" lon="-75.6831322782489">
        <ele>52.421895</ele>
        <time>2019-09-10T15:14:12.700Z</time>
      </trkpt>
      <trkpt lat="10.1579774127566" lon="-75.6831303072332">
        <ele>52.421895</ele>
        <time>2019-09-10T15:14:12.800Z</time>
      </trkpt>
      <trkpt lat="10.157979247088" lon="-75.6831283282799">
        <ele>52.421895</ele>
        <time>2019-09-10T15:14:12.900Z</time>
      </trkpt>
      <trkpt lat="10.1579811098716" lon="-75.6831263572642">
        <ele>52.421895</ele>
        <time>2019-09-10T15:14:13.000Z</time>
      </trkpt>
      <trkpt lat="10.1579829526449" lon="-75.6831244113144">
        <ele>52.421895</ele>
        <time>2019-09-10T15:14:13.100Z</time>
      </trkpt>
      <trkpt lat="10.1579848513324" lon="-75.6831224980895">
        <ele>52.521895</ele>
        <time>2019-09-10T15:14:13.200Z</time>
      </trkpt>
      <trkpt lat="10.1579867119795" lon="-75.683120575813">
        <ele>52.521895</ele>
        <time>2019-09-10T15:14:13.300Z</time>
      </trkpt>
      <trkpt lat="10.1579886124909" lon="-75.6831186560432">
        <ele>52.521895</ele>
        <time>2019-09-10T15:14:13.400Z</time>
      </trkpt>
      <trkpt lat="10.1579904950764" lon="-75.6831167458819">
        <ele>52.421895</ele>
        <time>2019-09-10T15:14:13.500Z</time>
      </trkpt>
      <trkpt lat="10.1579923815701" lon="-75.6831148929544">
        <ele>52.521895</ele>
        <time>2019-09-10T15:14:13.600Z</time>
      </trkpt>
      <trkpt lat="10.1579941114727" lon="-75.6831130369634">
        <ele>52.521895</ele>
        <time>2019-09-10T15:14:13.700Z</time>
      </trkpt>
      <trkpt lat="10.1579957279834" lon="-75.6831111837574">
        <ele>52.421895</ele>
        <time>2019-09-10T15:14:13.800Z</time>
      </trkpt>
      <trkpt lat="10.1579970685707" lon="-75.6831093432237">
        <ele>52.421895</ele>
        <time>2019-09-10T15:14:13.900Z</time>
      </trkpt>
      <trkpt lat="10.1579981934216" lon="-75.6831075173117">
        <ele>52.421895</ele>
        <time>2019-09-10T15:14:14.000Z</time>
      </trkpt>
      <trkpt lat="10.1579989706454" lon="-75.6831056542186">
        <ele>52.421895</ele>
        <time>2019-09-10T15:14:14.100Z</time>
      </trkpt>
      <trkpt lat="10.1579995146238" lon="-75.6831037733009">
        <ele>52.421895</ele>
        <time>2019-09-10T15:14:14.200Z</time>
      </trkpt>
      <trkpt lat="10.1579997096723" lon="-75.6831018403018">
        <ele>52.421895</ele>
        <time>2019-09-10T15:14:14.300Z</time>
      </trkpt>
      <trkpt lat="10.1579996718924" lon="-75.6830999132907">
        <ele>52.421895</ele>
        <time>2019-09-10T15:14:14.400Z</time>
      </trkpt>
      <trkpt lat="10.1579992662666" lon="-75.683097963581">
        <ele>52.421895</ele>
        <time>2019-09-10T15:14:14.500Z</time>
      </trkpt>
      <trkpt lat="10.1579985903972" lon="-75.6830960394942">
        <ele>52.421895</ele>
        <time>2019-09-10T15:14:14.600Z</time>
      </trkpt>
      <trkpt lat="10.1579975630965" lon="-75.6830940280945">
        <ele>52.421895</ele>
        <time>2019-09-10T15:14:14.700Z</time>
      </trkpt>
      <trkpt lat="10.1579962971832" lon="-75.6830920180874">
        <ele>52.421895</ele>
        <time>2019-09-10T15:14:14.800Z</time>
      </trkpt>
      <trkpt lat="10.1579947116781" lon="-75.6830898991829">
        <ele>52.421895</ele>
        <time>2019-09-10T15:14:14.900Z</time>
      </trkpt>
      <trkpt lat="10.1579910276427" lon="-75.6830856357508">
        <ele>52.521895</ele>
        <time>2019-09-10T15:14:15.100Z</time>
      </trkpt>
      <trkpt lat="10.1579890253601" lon="-75.683083523252">
        <ele>52.521895</ele>
        <time>2019-09-10T15:14:15.200Z</time>
      </trkpt>
      <trkpt lat="10.1579869634634" lon="-75.6830813168952">
        <ele>52.521895</ele>
        <time>2019-09-10T15:14:15.300Z</time>
      </trkpt>
      <trkpt lat="10.1579848609728" lon="-75.6830791663798">
        <ele>52.521895</ele>
        <time>2019-09-10T15:14:15.400Z</time>
      </trkpt>
      <trkpt lat="10.1579827935524" lon="-75.6830769584913">
        <ele>52.521895</ele>
        <time>2019-09-10T15:14:15.500Z</time>
      </trkpt>
      <trkpt lat="10.157980719514" lon="-75.6830748224583">
        <ele>52.521895</ele>
        <time>2019-09-10T15:14:15.600Z</time>
      </trkpt>
      <trkpt lat="10.1579786803895" lon="-75.6830726407498">
        <ele>52.521895</ele>
        <time>2019-09-10T15:14:15.700Z</time>
      </trkpt>
      <trkpt lat="10.1579766076017" lon="-75.6830705243518">
        <ele>52.521895</ele>
        <time>2019-09-10T15:14:15.800Z</time>
      </trkpt>
      <trkpt lat="10.1579745758768" lon="-75.6830683976489">
        <ele>52.521895</ele>
        <time>2019-09-10T15:14:15.900Z</time>
      </trkpt>
      <trkpt lat="10.1579725217967" lon="-75.6830663352819">
        <ele>52.521895</ele>
        <time>2019-09-10T15:14:16.000Z</time>
      </trkpt>
      <trkpt lat="10.1579705319163" lon="-75.6830642860049">
        <ele>52.521895</ele>
        <time>2019-09-10T15:14:16.100Z</time>
      </trkpt>
      <trkpt lat="10.1579685379192" lon="-75.6830622797576">
        <ele>52.521895</ele>
        <time>2019-09-10T15:14:16.200Z</time>
      </trkpt>
      <trkpt lat="10.1579665437136" lon="-75.6830602762955">
        <ele>52.521895</ele>
        <time>2019-09-10T15:14:16.300Z</time>
      </trkpt>
      <trkpt lat="10.1579645172519" lon="-75.683058297203">
        <ele>52.521895</ele>
        <time>2019-09-10T15:14:16.400Z</time>
      </trkpt>
      <trkpt lat="10.1579625308628" lon="-75.6830563642039">
        <ele>52.521895</ele>
        <time>2019-09-10T15:14:16.500Z</time>
      </trkpt>
      <trkpt lat="10.1579605675065" lon="-75.683054456967">
        <ele>52.521895</ele>
        <time>2019-09-10T15:14:16.600Z</time>
      </trkpt>
      <trkpt lat="10.1579586260886" lon="-75.6830526013937">
        <ele>52.521895</ele>
        <time>2019-09-10T15:14:16.700Z</time>
      </trkpt>
      <trkpt lat="10.1579547566973" lon="-75.6830488967921">
        <ele>52.521895</ele>
        <time>2019-09-10T15:14:16.900Z</time>
      </trkpt>
      <trkpt lat="10.1579528297139" lon="-75.6830470122537">
        <ele>52.521895</ele>
        <time>2019-09-10T15:14:17.000Z</time>
      </trkpt>
      <trkpt lat="10.1579508995518" lon="-75.6830451499962">
        <ele>52.521895</ele>
        <time>2019-09-10T15:14:17.100Z</time>
      </trkpt>
      <trkpt lat="10.1579489773625" lon="-75.683043268243">
        <ele>52.521895</ele>
        <time>2019-09-10T15:14:17.200Z</time>
      </trkpt>
      <trkpt lat="10.1579470377685" lon="-75.683041408492">
        <ele>52.521895</ele>
        <time>2019-09-10T15:14:17.300Z</time>
      </trkpt>
      <trkpt lat="10.1579451134427" lon="-75.6830395214471">
        <ele>52.521895</ele>
        <time>2019-09-10T15:14:17.400Z</time>
      </trkpt>
      <trkpt lat="10.1579431734318" lon="-75.6830376406686">
        <ele>52.521895</ele>
        <time>2019-09-10T15:14:17.500Z</time>
      </trkpt>
      <trkpt lat="10.1579412458231" lon="-75.6830357225698">
        <ele>52.521895</ele>
        <time>2019-09-10T15:14:17.600Z</time>
      </trkpt>
      <trkpt lat="10.1579393224353" lon="-75.6830338380315">
        <ele>52.521895</ele>
        <time>2019-09-10T15:14:17.700Z</time>
      </trkpt>
      <trkpt lat="10.1579374300531" lon="-75.683031937618">
        <ele>52.521895</ele>
        <time>2019-09-10T15:14:17.800Z</time>
      </trkpt>
      <trkpt lat="10.1579355558574" lon="-75.6830300796774">
        <ele>52.521895</ele>
        <time>2019-09-10T15:14:17.900Z</time>
      </trkpt>
      <trkpt lat="10.1579337121461" lon="-75.6830281937465">
        <ele>52.521895</ele>
        <time>2019-09-10T15:14:18.000Z</time>
      </trkpt>
      <trkpt lat="10.1579318582213" lon="-75.683026325501">
        <ele>52.521895</ele>
        <time>2019-09-10T15:14:18.100Z</time>
      </trkpt>
      <trkpt lat="10.1579300146142" lon="-75.68302440782">
        <ele>52.521895</ele>
        <time>2019-09-10T15:14:18.200Z</time>
      </trkpt>
      <trkpt lat="10.1579281779899" lon="-75.6830225068495">
        <ele>52.521895</ele>
        <time>2019-09-10T15:14:18.300Z</time>
      </trkpt>
      <trkpt lat="10.1579263694531" lon="-75.6830205629885">
        <ele>52.521895</ele>
        <time>2019-09-10T15:14:18.400Z</time>
      </trkpt>
      <trkpt lat="10.1579227535778" lon="-75.6830166375285">
        <ele>52.521895</ele>
        <time>2019-09-10T15:14:18.600Z</time>
      </trkpt>
      <trkpt lat="10.157920964426" lon="-75.6830146829448">
        <ele>52.521895</ele>
        <time>2019-09-10T15:14:18.700Z</time>
      </trkpt>
      <trkpt lat="10.157919199818" lon="-75.6830127058019">
        <ele>52.521895</ele>
        <time>2019-09-10T15:14:18.800Z</time>
      </trkpt>
      <trkpt lat="10.1579174375029" lon="-75.6830107386853">
        <ele>52.521895</ele>
        <time>2019-09-10T15:14:18.900Z</time>
      </trkpt>
      <trkpt lat="10.1579156841507" lon="-75.6830087286782">
        <ele>52.521895</ele>
        <time>2019-09-10T15:14:19.000Z</time>
      </trkpt>
      <trkpt lat="10.157913959407" lon="-75.6830067529278">
        <ele>52.521895</ele>
        <time>2019-09-10T15:14:19.100Z</time>
      </trkpt>
      <trkpt lat="10.1579122519119" lon="-75.6830047597705">
        <ele>52.521895</ele>
        <time>2019-09-10T15:14:19.200Z</time>
      </trkpt>
      <trkpt lat="10.1579105278456" lon="-75.683002780121">
        <ele>52.521895</ele>
        <time>2019-09-10T15:14:19.300Z</time>
      </trkpt>
      <trkpt lat="10.1579087900223" lon="-75.6830007630119">
        <ele>52.521895</ele>
        <time>2019-09-10T15:14:19.400Z</time>
      </trkpt>
      <trkpt lat="10.1579070530328" lon="-75.6829987645629">
        <ele>52.521895</ele>
        <time>2019-09-10T15:14:19.500Z</time>
      </trkpt>
      <trkpt lat="10.1579053289144" lon="-75.6829967377059">
        <ele>52.521895</ele>
        <time>2019-09-10T15:14:19.600Z</time>
      </trkpt>
      <trkpt lat="10.1579036041186" lon="-75.6829947115452">
        <ele>52.521895</ele>
        <time>2019-09-10T15:14:19.700Z</time>
      </trkpt>
      <trkpt lat="10.1579018903181" lon="-75.6829926522418">
        <ele>52.521895</ele>
        <time>2019-09-10T15:14:19.800Z</time>
      </trkpt>
      <trkpt lat="10.1579001935576" lon="-75.6829906206501">
        <ele>52.521895</ele>
        <time>2019-09-10T15:14:19.900Z</time>
      </trkpt>
      <trkpt lat="10.1578985065418" lon="-75.6829885801462">
        <ele>52.521895</ele>
        <time>2019-09-10T15:14:20.000Z</time>
      </trkpt>
      <trkpt lat="10.1578968195259" lon="-75.6829865503648">
        <ele>52.521895</ele>
        <time>2019-09-10T15:14:20.100Z</time>
      </trkpt>
      <trkpt lat="10.1578951312594" lon="-75.6829844917577">
        <ele>52.521895</ele>
        <time>2019-09-10T15:14:20.200Z</time>
      </trkpt>
      <trkpt lat="10.1578934661298" lon="-75.6829824472153">
        <ele>52.521895</ele>
        <time>2019-09-10T15:14:20.300Z</time>
      </trkpt>
      <trkpt lat="10.1578918138714" lon="-75.6829803834557">
        <ele>52.521895</ele>
        <time>2019-09-10T15:14:20.400Z</time>
      </trkpt>
      <trkpt lat="10.1578901759955" lon="-75.6829783336217">
        <ele>52.521895</ele>
        <time>2019-09-10T15:14:20.500Z</time>
      </trkpt>
      <trkpt lat="10.1578885234245" lon="-75.6829762578862">
        <ele>52.521895</ele>
        <time>2019-09-10T15:14:20.600Z</time>
      </trkpt>
      <trkpt lat="10.1578868373466" lon="-75.6829741531856">
        <ele>52.521895</ele>
        <time>2019-09-10T15:14:20.700Z</time>
      </trkpt>
      <trkpt lat="10.1578851290176" lon="-75.6829720092152">
        <ele>52.521895</ele>
        <time>2019-09-10T15:14:20.800Z</time>
      </trkpt>
      <trkpt lat="10.1578834031797" lon="-75.6829698662195">
        <ele>52.521895</ele>
        <time>2019-09-10T15:14:20.900Z</time>
      </trkpt>
      <trkpt lat="10.1578816759347" lon="-75.6829677235023">
        <ele>52.521895</ele>
        <time>2019-09-10T15:14:21.000Z</time>
      </trkpt>
      <trkpt lat="10.1578799586949" lon="-75.682965638576">
        <ele>52.421895</ele>
        <time>2019-09-10T15:14:21.100Z</time>
      </trkpt>
      <trkpt lat="10.157878248959" lon="-75.6829635724491">
        <ele>52.421895</ele>
        <time>2019-09-10T15:14:21.200Z</time>
      </trkpt>
      <trkpt lat="10.1578748009829" lon="-75.6829593464766">
        <ele>52.421895</ele>
        <time>2019-09-10T15:14:21.400Z</time>
      </trkpt>
      <trkpt lat="10.157873039241" lon="-75.68295719805">
        <ele>52.421895</ele>
        <time>2019-09-10T15:14:21.500Z</time>
      </trkpt>
      <trkpt lat="10.1578712722359" lon="-75.6829550458635">
        <ele>52.421895</ele>
        <time>2019-09-10T15:14:21.600Z</time>
      </trkpt>
      <trkpt lat="10.1578695258144" lon="-75.6829529110838">
        <ele>52.421895</ele>
        <time>2019-09-10T15:14:21.700Z</time>
      </trkpt>
      <trkpt lat="10.1578677946612" lon="-75.6829507818744">
        <ele>52.421895</ele>
        <time>2019-09-10T15:14:21.800Z</time>
      </trkpt>
      <trkpt lat="10.1578660777862" lon="-75.6829486954163">
        <ele>52.421895</ele>
        <time>2019-09-10T15:14:21.900Z</time>
      </trkpt>
      <trkpt lat="10.1578643623181" lon="-75.6829466156424">
        <ele>52.421895</ele>
        <time>2019-09-10T15:14:22.000Z</time>
      </trkpt>
      <trkpt lat="10.157862665245" lon="-75.6829445766702">
        <ele>52.421895</ele>
        <time>2019-09-10T15:14:22.100Z</time>
      </trkpt>
      <trkpt lat="10.1578609630651" lon="-75.6829425262791">
        <ele>52.421895</ele>
        <time>2019-09-10T15:14:22.200Z</time>
      </trkpt>
      <trkpt lat="10.1578592555699" lon="-75.682940481876">
        <ele>52.421895</ele>
        <time>2019-09-10T15:14:22.300Z</time>
      </trkpt>
      <trkpt lat="10.1578575237913" lon="-75.682938392215">
        <ele>52.421895</ele>
        <time>2019-09-10T15:14:22.400Z</time>
      </trkpt>
      <trkpt lat="10.1578557846132" lon="-75.6829363045036">
        <ele>52.421895</ele>
        <time>2019-09-10T15:14:22.500Z</time>
      </trkpt>
      <trkpt lat="10.1578540407972" lon="-75.6829341903337">
        <ele>52.421895</ele>
        <time>2019-09-10T15:14:22.600Z</time>
      </trkpt>
      <trkpt lat="10.157852280358" lon="-75.682932062099">
        <ele>52.421895</ele>
        <time>2019-09-10T15:14:22.700Z</time>
      </trkpt>
      <trkpt lat="10.1578505158021" lon="-75.6829299054563">
        <ele>52.421895</ele>
        <time>2019-09-10T15:14:22.800Z</time>
      </trkpt>
      <trkpt lat="10.1578487801674" lon="-75.6829277635747">
        <ele>52.421895</ele>
        <time>2019-09-10T15:14:22.900Z</time>
      </trkpt>
      <trkpt lat="10.1578470689203" lon="-75.6829256296306">
        <ele>52.421895</ele>
        <time>2019-09-10T15:14:23.000Z</time>
      </trkpt>
      <trkpt lat="10.1578453623631" lon="-75.6829235055736">
        <ele>52.421895</ele>
        <time>2019-09-10T15:14:23.100Z</time>
      </trkpt>
      <trkpt lat="10.1578436442896" lon="-75.6829213746931">
        <ele>52.421895</ele>
        <time>2019-09-10T15:14:23.200Z</time>
      </trkpt>
      <trkpt lat="10.1578419405984" lon="-75.6829192653971">
        <ele>52.421895</ele>
        <time>2019-09-10T15:14:23.300Z</time>
      </trkpt>
      <trkpt lat="10.157840237689" lon="-75.6829171540123">
        <ele>52.421895</ele>
        <time>2019-09-10T15:14:23.400Z</time>
      </trkpt>
      <trkpt lat="10.1578385246701" lon="-75.6829150610092">
        <ele>52.421895</ele>
        <time>2019-09-10T15:14:23.500Z</time>
      </trkpt>
      <trkpt lat="10.1578367948717" lon="-75.6829129543591">
        <ele>52.421895</ele>
        <time>2019-09-10T15:14:23.600Z</time>
      </trkpt>
      <trkpt lat="10.1578350627805" lon="-75.6829108485445">
        <ele>52.421895</ele>
        <time>2019-09-10T15:14:23.700Z</time>
      </trkpt>
      <trkpt lat="10.1578333320963" lon="-75.682908724209">
        <ele>52.421895</ele>
        <time>2019-09-10T15:14:23.800Z</time>
      </trkpt>
      <trkpt lat="10.1578316320008" lon="-75.6829066170019">
        <ele>52.421895</ele>
        <time>2019-09-10T15:14:23.900Z</time>
      </trkpt>
      <trkpt lat="10.1578299517592" lon="-75.6829045155042">
        <ele>52.421895</ele>
        <time>2019-09-10T15:14:24.000Z</time>
      </trkpt>
      <trkpt lat="10.1578282533833" lon="-75.6829023779394">
        <ele>52.421895</ele>
        <time>2019-09-10T15:14:24.100Z</time>
      </trkpt>
      <trkpt lat="10.1578265482331" lon="-75.6829002215753">
        <ele>52.421895</ele>
        <time>2019-09-10T15:14:24.200Z</time>
      </trkpt>
      <trkpt lat="10.1578248574653" lon="-75.6828981129756">
        <ele>52.421895</ele>
        <time>2019-09-10T15:14:24.300Z</time>
      </trkpt>
      <trkpt lat="10.1578231936906" lon="-75.6828960391897">
        <ele>52.421895</ele>
        <time>2019-09-10T15:14:24.400Z</time>
      </trkpt>
      <trkpt lat="10.1578215528965" lon="-75.6828939736198">
        <ele>52.421895</ele>
        <time>2019-09-10T15:14:24.500Z</time>
      </trkpt>
      <trkpt lat="10.1578199224723" lon="-75.6828918917571">
        <ele>52.421895</ele>
        <time>2019-09-10T15:14:24.600Z</time>
      </trkpt>
      <trkpt lat="10.1578182719857" lon="-75.6828898079447">
        <ele>52.421895</ele>
        <time>2019-09-10T15:14:24.700Z</time>
      </trkpt>
      <trkpt lat="10.1578166039379" lon="-75.6828877120173">
        <ele>52.421895</ele>
        <time>2019-09-10T15:14:24.800Z</time>
      </trkpt>
      <trkpt lat="10.1578149307313" lon="-75.6828856141402">
        <ele>52.421895</ele>
        <time>2019-09-10T15:14:24.900Z</time>
      </trkpt>
      <trkpt lat="10.1578132483532" lon="-75.682883504148">
        <ele>52.421895</ele>
        <time>2019-09-10T15:14:25.000Z</time>
      </trkpt>
      <trkpt lat="10.1578115671737" lon="-75.682881409056">
        <ele>52.421895</ele>
        <time>2019-09-10T15:14:25.100Z</time>
      </trkpt>
      <trkpt lat="10.1578098778128" lon="-75.6828793213446">
        <ele>52.421895</ele>
        <time>2019-09-10T15:14:25.200Z</time>
      </trkpt>
      <trkpt lat="10.1578081811045" lon="-75.6828772503438">
        <ele>52.421895</ele>
        <time>2019-09-10T15:14:25.300Z</time>
      </trkpt>
      <trkpt lat="10.1578064768922" lon="-75.6828751630501">
        <ele>52.421895</ele>
        <time>2019-09-10T15:14:25.400Z</time>
      </trkpt>
      <trkpt lat="10.1578047786206" lon="-75.6828730763134">
        <ele>52.421895</ele>
        <time>2019-09-10T15:14:25.500Z</time>
      </trkpt>
      <trkpt lat="10.1578030689367" lon="-75.6828709663212">
        <ele>52.421895</ele>
        <time>2019-09-10T15:14:25.600Z</time>
      </trkpt>
      <trkpt lat="10.1578013551883" lon="-75.6828688547971">
        <ele>52.421895</ele>
        <time>2019-09-10T15:14:25.700Z</time>
      </trkpt>
      <trkpt lat="10.1577996342487" lon="-75.6828667397917">
        <ele>52.421895</ele>
        <time>2019-09-10T15:14:25.800Z</time>
      </trkpt>
      <trkpt lat="10.1577979220636" lon="-75.6828646470671">
        <ele>52.421895</ele>
        <time>2019-09-10T15:14:25.900Z</time>
      </trkpt>
      <trkpt lat="10.1577945235922" lon="-75.6828604907222">
        <ele>52.421895</ele>
        <time>2019-09-10T15:14:26.100Z</time>
      </trkpt>
      <trkpt lat="10.1577928426732" lon="-75.6828584312795">
        <ele>52.421895</ele>
        <time>2019-09-10T15:14:26.200Z</time>
      </trkpt>
      <trkpt lat="10.1577911857249" lon="-75.6828563806099">
        <ele>52.421895</ele>
        <time>2019-09-10T15:14:26.300Z</time>
      </trkpt>
      <trkpt lat="10.1577895263275" lon="-75.6828543313329">
        <ele>52.421895</ele>
        <time>2019-09-10T15:14:26.400Z</time>
      </trkpt>
      <trkpt lat="10.1577878812082" lon="-75.6828523000197">
        <ele>52.421895</ele>
        <time>2019-09-10T15:14:26.500Z</time>
      </trkpt>
      <trkpt lat="10.1577862267612" lon="-75.6828502664785">
        <ele>52.421895</ele>
        <time>2019-09-10T15:14:26.600Z</time>
      </trkpt>
      <trkpt lat="10.1577845554305" lon="-75.6828482094032">
        <ele>52.421895</ele>
        <time>2019-09-10T15:14:26.700Z</time>
      </trkpt>
      <trkpt lat="10.1577811911955" lon="-75.6828441070892">
        <ele>52.421895</ele>
        <time>2019-09-10T15:14:26.900Z</time>
      </trkpt>
      <trkpt lat="10.1577795142369" lon="-75.6828420949932">
        <ele>52.421895</ele>
        <time>2019-09-10T15:14:27.000Z</time>
      </trkpt>
      <trkpt lat="10.1577778704204" lon="-75.6828401011397">
        <ele>52.421895</ele>
        <time>2019-09-10T15:14:27.100Z</time>
      </trkpt>
      <trkpt lat="10.1577745759088" lon="-75.682835998408">
        <ele>52.421895</ele>
        <time>2019-09-10T15:14:27.300Z</time>
      </trkpt>
      <trkpt lat="10.1577728599718" lon="-75.6828338591722">
        <ele>52.421895</ele>
        <time>2019-09-10T15:14:27.400Z</time>
      </trkpt>
      <trkpt lat="10.1577693696301" lon="-75.68282961259">
        <ele>52.421895</ele>
        <time>2019-09-10T15:14:27.600Z</time>
      </trkpt>
      <trkpt lat="10.1577659195695" lon="-75.6828254088983">
        <ele>52.421895</ele>
        <time>2019-09-10T15:14:27.800Z</time>
      </trkpt>
      <trkpt lat="10.1577641949301" lon="-75.6828233218832">
        <ele>52.421895</ele>
        <time>2019-09-10T15:14:27.900Z</time>
      </trkpt>
      <trkpt lat="10.1577607458075" lon="-75.6828191804385">
        <ele>52.421895</ele>
        <time>2019-09-10T15:14:28.100Z</time>
      </trkpt>
      <trkpt lat="10.1577573726096" lon="-75.682815077289">
        <ele>52.421895</ele>
        <time>2019-09-10T15:14:28.300Z</time>
      </trkpt>
      <trkpt lat="10.1577557045097" lon="-75.682813028012">
        <ele>52.421895</ele>
        <time>2019-09-10T15:14:28.400Z</time>
      </trkpt>
      <trkpt lat="10.1577540376605" lon="-75.6828109508839">
        <ele>52.421895</ele>
        <time>2019-09-10T15:14:28.500Z</time>
      </trkpt>
      <trkpt lat="10.1577506469535" lon="-75.6828067416221">
        <ele>52.421895</ele>
        <time>2019-09-10T15:14:28.700Z</time>
      </trkpt>
      <trkpt lat="10.1577489416469" lon="-75.6828046476442">
        <ele>52.421895</ele>
        <time>2019-09-10T15:14:28.800Z</time>
      </trkpt>
      <trkpt lat="10.1577472242508" lon="-75.6828025629963">
        <ele>52.421895</ele>
        <time>2019-09-10T15:14:28.900Z</time>
      </trkpt>
      <trkpt lat="10.1577437890417" lon="-75.6827983939792">
        <ele>52.421895</ele>
        <time>2019-09-10T15:14:29.100Z</time>
      </trkpt>
      <trkpt lat="10.1577420911869" lon="-75.68279631894">
        <ele>52.421895</ele>
        <time>2019-09-10T15:14:29.200Z</time>
      </trkpt>
      <trkpt lat="10.1577403465371" lon="-75.6827941966933">
        <ele>52.421895</ele>
        <time>2019-09-10T15:14:29.300Z</time>
      </trkpt>
      <trkpt lat="10.1577385628047" lon="-75.6827920460386">
        <ele>52.421895</ele>
        <time>2019-09-10T15:14:29.400Z</time>
      </trkpt>
      <trkpt lat="10.1577350714729" lon="-75.6827878942891">
        <ele>52.421895</ele>
        <time>2019-09-10T15:14:29.600Z</time>
      </trkpt>
      <trkpt lat="10.1577333337538" lon="-75.6827858390241">
        <ele>52.421895</ele>
        <time>2019-09-10T15:14:29.700Z</time>
      </trkpt>
      <trkpt lat="10.1577298562312" lon="-75.6827817261267">
        <ele>52.321895</ele>
        <time>2019-09-10T15:14:29.900Z</time>
      </trkpt>
      <trkpt lat="10.1577281254948" lon="-75.6827796754571">
        <ele>52.321895</ele>
        <time>2019-09-10T15:14:30.000Z</time>
      </trkpt>
      <trkpt lat="10.1577264113816" lon="-75.6827776157359">
        <ele>52.321895</ele>
        <time>2019-09-10T15:14:30.100Z</time>
      </trkpt>
      <trkpt lat="10.1577229443853" lon="-75.6827734330718">
        <ele>52.321895</ele>
        <time>2019-09-10T15:14:30.300Z</time>
      </trkpt>
      <trkpt lat="10.1577211647696" lon="-75.6827713194589">
        <ele>52.321895</ele>
        <time>2019-09-10T15:14:30.400Z</time>
      </trkpt>
      <trkpt lat="10.1577193672801" lon="-75.6827691898317">
        <ele>52.321895</ele>
        <time>2019-09-10T15:14:30.500Z</time>
      </trkpt>
      <trkpt lat="10.1577175523858" lon="-75.6827670505959">
        <ele>52.321895</ele>
        <time>2019-09-10T15:14:30.600Z</time>
      </trkpt>
      <trkpt lat="10.1577139575631" lon="-75.682762770871">
        <ele>52.321895</ele>
        <time>2019-09-10T15:14:30.800Z</time>
      </trkpt>
      <trkpt lat="10.1577121793543" lon="-75.6827606443075">
        <ele>52.321895</ele>
        <time>2019-09-10T15:14:30.900Z</time>
      </trkpt>
      <trkpt lat="10.1577104045328" lon="-75.6827585320871">
        <ele>52.321895</ele>
        <time>2019-09-10T15:14:31.000Z</time>
      </trkpt>
      <trkpt lat="10.1577086543593" lon="-75.6827564262725">
        <ele>52.321895</ele>
        <time>2019-09-10T15:14:31.100Z</time>
      </trkpt>
      <trkpt lat="10.1577069115855" lon="-75.6827543470557">
        <ele>52.321895</ele>
        <time>2019-09-10T15:14:31.200Z</time>
      </trkpt>
      <trkpt lat="10.1577051743354" lon="-75.6827522766119">
        <ele>52.321895</ele>
        <time>2019-09-10T15:14:31.300Z</time>
      </trkpt>
      <trkpt lat="10.1576999536221" lon="-75.6827461368575">
        <ele>52.321895</ele>
        <time>2019-09-10T15:14:31.600Z</time>
      </trkpt>
      <trkpt lat="10.1576982095977" lon="-75.6827440912011">
        <ele>52.321895</ele>
        <time>2019-09-10T15:14:31.700Z</time>
      </trkpt>
      <trkpt lat="10.1576964724518" lon="-75.6827420465195">
        <ele>52.321895</ele>
        <time>2019-09-10T15:14:31.800Z</time>
      </trkpt>
      <trkpt lat="10.1576947122732" lon="-75.6827399801141">
        <ele>52.321895</ele>
        <time>2019-09-10T15:14:31.900Z</time>
      </trkpt>
      <trkpt lat="10.1576929594421" lon="-75.6827379184433">
        <ele>52.321895</ele>
        <time>2019-09-10T15:14:32.000Z</time>
      </trkpt>
      <trkpt lat="10.1576911907175" lon="-75.682735856494">
        <ele>52.321895</ele>
        <time>2019-09-10T15:14:32.100Z</time>
      </trkpt>
      <trkpt lat="10.1576894290277" lon="-75.6827338070778">
        <ele>52.321895</ele>
        <time>2019-09-10T15:14:32.200Z</time>
      </trkpt>
      <trkpt lat="10.1576876715588" lon="-75.6827317867658">
        <ele>52.321895</ele>
        <time>2019-09-10T15:14:32.300Z</time>
      </trkpt>
      <trkpt lat="10.1576859186235" lon="-75.6827297833036">
        <ele>52.321895</ele>
        <time>2019-09-10T15:14:32.400Z</time>
      </trkpt>
      <trkpt lat="10.1576841755892" lon="-75.6827278359612">
        <ele>52.321895</ele>
        <time>2019-09-10T15:14:32.500Z</time>
      </trkpt>
      <trkpt lat="10.1576824332844" lon="-75.6827258922395">
        <ele>52.321895</ele>
        <time>2019-09-10T15:14:32.600Z</time>
      </trkpt>
      <trkpt lat="10.1576806987961" lon="-75.6827239556198">
        <ele>52.321895</ele>
        <time>2019-09-10T15:14:32.700Z</time>
      </trkpt>
      <trkpt lat="10.15767895399" lon="-75.6827219755525">
        <ele>52.321895</ele>
        <time>2019-09-10T15:14:32.800Z</time>
      </trkpt>
      <trkpt lat="10.157677247068" lon="-75.6827200151202">
        <ele>52.321895</ele>
        <time>2019-09-10T15:14:32.900Z</time>
      </trkpt>
      <trkpt lat="10.1576755492653" lon="-75.6827180243302">
        <ele>52.321895</ele>
        <time>2019-09-10T15:14:33.000Z</time>
      </trkpt>
      <trkpt lat="10.1576738872624" lon="-75.6827160084744">
        <ele>52.321895</ele>
        <time>2019-09-10T15:14:33.100Z</time>
      </trkpt>
      <trkpt lat="10.1576722191104" lon="-75.6827139442971">
        <ele>52.321895</ele>
        <time>2019-09-10T15:14:33.200Z</time>
      </trkpt>
      <trkpt lat="10.157670574408" lon="-75.6827118636876">
        <ele>52.321895</ele>
        <time>2019-09-10T15:14:33.300Z</time>
      </trkpt>
      <trkpt lat="10.1576688994296" lon="-75.6827097631647">
        <ele>52.321895</ele>
        <time>2019-09-10T15:14:33.400Z</time>
      </trkpt>
      <trkpt lat="10.1576655402493" lon="-75.6827055068347">
        <ele>52.321895</ele>
        <time>2019-09-10T15:14:33.600Z</time>
      </trkpt>
      <trkpt lat="10.1576638603725" lon="-75.6827033614717">
        <ele>52.321895</ele>
        <time>2019-09-10T15:14:33.700Z</time>
      </trkpt>
      <trkpt lat="10.1576621613713" lon="-75.6827012175012">
        <ele>52.321895</ele>
        <time>2019-09-10T15:14:33.800Z</time>
      </trkpt>
      <trkpt lat="10.1576604508537" lon="-75.6826990498574">
        <ele>52.321895</ele>
        <time>2019-09-10T15:14:33.900Z</time>
      </trkpt>
      <trkpt lat="10.1576587156359" lon="-75.6826968635534">
        <ele>52.321895</ele>
        <time>2019-09-10T15:14:34.000Z</time>
      </trkpt>
      <trkpt lat="10.1576569951653" lon="-75.6826946683371">
        <ele>52.321895</ele>
        <time>2019-09-10T15:14:34.100Z</time>
      </trkpt>
      <trkpt lat="10.1576552732356" lon="-75.6826924908061">
        <ele>52.321895</ele>
        <time>2019-09-10T15:14:34.200Z</time>
      </trkpt>
      <trkpt lat="10.1576535452611" lon="-75.6826903191239">
        <ele>52.321895</ele>
        <time>2019-09-10T15:14:34.300Z</time>
      </trkpt>
      <trkpt lat="10.157651796703" lon="-75.6826881576073">
        <ele>52.321895</ele>
        <time>2019-09-10T15:14:34.400Z</time>
      </trkpt>
      <trkpt lat="10.1576482890086" lon="-75.6826837915443">
        <ele>52.321895</ele>
        <time>2019-09-10T15:14:34.600Z</time>
      </trkpt>
      <trkpt lat="10.1576465176263" lon="-75.6826816117853">
        <ele>52.321895</ele>
        <time>2019-09-10T15:14:34.700Z</time>
      </trkpt>
      <trkpt lat="10.1576447361346" lon="-75.6826794479014">
        <ele>52.321895</ele>
        <time>2019-09-10T15:14:34.800Z</time>
      </trkpt>
      <trkpt lat="10.1576429668889" lon="-75.6826773283005">
        <ele>52.321895</ele>
        <time>2019-09-10T15:14:34.900Z</time>
      </trkpt>
      <trkpt lat="10.1576412096284" lon="-75.6826752344619">
        <ele>52.321895</ele>
        <time>2019-09-10T15:14:35.000Z</time>
      </trkpt>
      <trkpt lat="10.1576377259568" lon="-75.6826710615456">
        <ele>52.321895</ele>
        <time>2019-09-10T15:14:35.200Z</time>
      </trkpt>
      <trkpt lat="10.157636002099" lon="-75.6826689689602">
        <ele>52.321895</ele>
        <time>2019-09-10T15:14:35.300Z</time>
      </trkpt>
      <trkpt lat="10.1576342768864" lon="-75.6826668650952">
        <ele>52.321895</ele>
        <time>2019-09-10T15:14:35.400Z</time>
      </trkpt>
      <trkpt lat="10.1576308865962" lon="-75.6826626430219">
        <ele>52.321895</ele>
        <time>2019-09-10T15:14:35.600Z</time>
      </trkpt>
      <trkpt lat="10.1576291909301" lon="-75.6826605526646">
        <ele>52.321895</ele>
        <time>2019-09-10T15:14:35.700Z</time>
      </trkpt>
      <trkpt lat="10.1576274652484" lon="-75.6826584609148">
        <ele>52.321895</ele>
        <time>2019-09-10T15:14:35.800Z</time>
      </trkpt>
      <trkpt lat="10.1576257065289" lon="-75.6826563858756">
        <ele>52.321895</ele>
        <time>2019-09-10T15:14:35.900Z</time>
      </trkpt>
      <trkpt lat="10.1576239210247" lon="-75.6826542941257">
        <ele>52.321895</ele>
        <time>2019-09-10T15:14:36.000Z</time>
      </trkpt>
      <trkpt lat="10.1576221293716" lon="-75.6826521848298">
        <ele>52.421895</ele>
        <time>2019-09-10T15:14:36.100Z</time>
      </trkpt>
      <trkpt lat="10.1576185512763" lon="-75.682647914992">
        <ele>52.421895</ele>
        <time>2019-09-10T15:14:36.300Z</time>
      </trkpt>
      <trkpt lat="10.1576167631666" lon="-75.6826457732496">
        <ele>52.421895</ele>
        <time>2019-09-10T15:14:36.400Z</time>
      </trkpt>
      <trkpt lat="10.1576149833946" lon="-75.682643639584">
        <ele>52.421895</ele>
        <time>2019-09-10T15:14:36.500Z</time>
      </trkpt>
      <trkpt lat="10.1576132135234" lon="-75.6826414974239">
        <ele>52.421895</ele>
        <time>2019-09-10T15:14:36.600Z</time>
      </trkpt>
      <trkpt lat="10.1576114630373" lon="-75.6826393513646">
        <ele>52.421895</ele>
        <time>2019-09-10T15:14:36.700Z</time>
      </trkpt>
      <trkpt lat="10.1576097172412" lon="-75.6826371805179">
        <ele>52.421895</ele>
        <time>2019-09-10T15:14:36.800Z</time>
      </trkpt>
      <trkpt lat="10.1576079811375" lon="-75.6826350226219">
        <ele>52.421895</ele>
        <time>2019-09-10T15:14:36.900Z</time>
      </trkpt>
      <trkpt lat="10.1576062359666" lon="-75.6826328686251">
        <ele>52.421895</ele>
        <time>2019-09-10T15:14:37.000Z</time>
      </trkpt>
      <trkpt lat="10.1576044630731" lon="-75.6826307126787">
        <ele>52.421895</ele>
        <time>2019-09-10T15:14:37.100Z</time>
      </trkpt>
      <trkpt lat="10.1576026896585" lon="-75.6826285535294">
        <ele>52.421895</ele>
        <time>2019-09-10T15:14:37.200Z</time>
      </trkpt>
      <trkpt lat="10.157600953138" lon="-75.682626424877">
        <ele>52.421895</ele>
        <time>2019-09-10T15:14:37.300Z</time>
      </trkpt>
      <trkpt lat="10.1575992283943" lon="-75.6826243236578">
        <ele>52.421895</ele>
        <time>2019-09-10T15:14:37.400Z</time>
      </trkpt>
      <trkpt lat="10.1575975030253" lon="-75.682622244998">
        <ele>52.421895</ele>
        <time>2019-09-10T15:14:37.500Z</time>
      </trkpt>
      <trkpt lat="10.157595769944" lon="-75.6826201607679">
        <ele>52.421895</ele>
        <time>2019-09-10T15:14:37.600Z</time>
      </trkpt>
      <trkpt lat="10.1575940424906" lon="-75.6826180772341">
        <ele>52.421895</ele>
        <time>2019-09-10T15:14:37.700Z</time>
      </trkpt>
      <trkpt lat="10.1575923020097" lon="-75.6826159870161">
        <ele>52.421895</ele>
        <time>2019-09-10T15:14:37.800Z</time>
      </trkpt>
      <trkpt lat="10.1575905567346" lon="-75.6826139275734">
        <ele>52.421895</ele>
        <time>2019-09-10T15:14:37.900Z</time>
      </trkpt>
      <trkpt lat="10.1575888005164" lon="-75.6826118699411">
        <ele>52.421895</ele>
        <time>2019-09-10T15:14:38.000Z</time>
      </trkpt>
      <trkpt lat="10.1575870446108" lon="-75.6826098145368">
        <ele>52.421895</ele>
        <time>2019-09-10T15:14:38.100Z</time>
      </trkpt>
      <trkpt lat="10.1575852775537" lon="-75.682607737548">
        <ele>52.421895</ele>
        <time>2019-09-10T15:14:38.200Z</time>
      </trkpt>
      <trkpt lat="10.1575835194595" lon="-75.6826056712818">
        <ele>52.421895</ele>
        <time>2019-09-10T15:14:38.300Z</time>
      </trkpt>
      <trkpt lat="10.1575817554247" lon="-75.6826035995848">
        <ele>52.421895</ele>
        <time>2019-09-10T15:14:38.400Z</time>
      </trkpt>
      <trkpt lat="10.1575799905562" lon="-75.6826015522573">
        <ele>52.421895</ele>
        <time>2019-09-10T15:14:38.500Z</time>
      </trkpt>
      <trkpt lat="10.1575782183922" lon="-75.6825994971315">
        <ele>52.421895</ele>
        <time>2019-09-10T15:14:38.600Z</time>
      </trkpt>
      <trkpt lat="10.1575764666555" lon="-75.6825974390814">
        <ele>52.421895</ele>
        <time>2019-09-10T15:14:38.700Z</time>
      </trkpt>
      <trkpt lat="10.1575747168989" lon="-75.6825953654347">
        <ele>52.421895</ele>
        <time>2019-09-10T15:14:38.800Z</time>
      </trkpt>
      <trkpt lat="10.1575729869442" lon="-75.6825933058528">
        <ele>52.421895</ele>
        <time>2019-09-10T15:14:38.900Z</time>
      </trkpt>
      <trkpt lat="10.1575712470886" lon="-75.6825912466887">
        <ele>52.421895</ele>
        <time>2019-09-10T15:14:39.000Z</time>
      </trkpt>
      <trkpt lat="10.1575695141115" lon="-75.6825892149577">
        <ele>52.421895</ele>
        <time>2019-09-10T15:14:39.100Z</time>
      </trkpt>
      <trkpt lat="10.1575677675858" lon="-75.6825871791884">
        <ele>52.421895</ele>
        <time>2019-09-10T15:14:39.200Z</time>
      </trkpt>
      <trkpt lat="10.1575660088663" lon="-75.6825851101372">
        <ele>52.321895</ele>
        <time>2019-09-10T15:14:39.300Z</time>
      </trkpt>
      <trkpt lat="10.1575642250297" lon="-75.6825829969421">
        <ele>52.321895</ele>
        <time>2019-09-10T15:14:39.400Z</time>
      </trkpt>
      <trkpt lat="10.1575624475505" lon="-75.6825808951659">
        <ele>52.321895</ele>
        <time>2019-09-10T15:14:39.500Z</time>
      </trkpt>
      <trkpt lat="10.1575588609091" lon="-75.682576677131">
        <ele>52.321895</ele>
        <time>2019-09-10T15:14:39.700Z</time>
      </trkpt>
      <trkpt lat="10.157557036218" lon="-75.6825745404018">
        <ele>52.321895</ele>
        <time>2019-09-10T15:14:39.800Z</time>
      </trkpt>
      <trkpt lat="10.1575552513392" lon="-75.6825724464238">
        <ele>52.321895</ele>
        <time>2019-09-10T15:14:39.900Z</time>
      </trkpt>
      <trkpt lat="10.1575534992898" lon="-75.6825703839176">
        <ele>52.321895</ele>
        <time>2019-09-10T15:14:40.000Z</time>
      </trkpt>
      <trkpt lat="10.1575517663127" lon="-75.6825683378434">
        <ele>52.321895</ele>
        <time>2019-09-10T15:14:40.100Z</time>
      </trkpt>
      <trkpt lat="10.1575500335441" lon="-75.6825662729698">
        <ele>52.321895</ele>
        <time>2019-09-10T15:14:40.200Z</time>
      </trkpt>
      <trkpt lat="10.1575483179718" lon="-75.68256421673">
        <ele>52.421895</ele>
        <time>2019-09-10T15:14:40.300Z</time>
      </trkpt>
      <trkpt lat="10.1575466034418" lon="-75.6825621454506">
        <ele>52.421895</ele>
        <time>2019-09-10T15:14:40.400Z</time>
      </trkpt>
      <trkpt lat="10.1575449038152" lon="-75.6825600818303">
        <ele>52.421895</ele>
        <time>2019-09-10T15:14:40.500Z</time>
      </trkpt>
      <trkpt lat="10.1575432102335" lon="-75.6825580084622">
        <ele>52.421895</ele>
        <time>2019-09-10T15:14:40.600Z</time>
      </trkpt>
      <trkpt lat="10.1575415133167" lon="-75.6825559265994">
        <ele>52.421895</ele>
        <time>2019-09-10T15:14:40.700Z</time>
      </trkpt>
      <trkpt lat="10.1575398092086" lon="-75.6825538295579">
        <ele>52.421895</ele>
        <time>2019-09-10T15:14:40.800Z</time>
      </trkpt>
      <trkpt lat="10.1575381043711" lon="-75.682551729592">
        <ele>52.421895</ele>
        <time>2019-09-10T15:14:40.900Z</time>
      </trkpt>
      <trkpt lat="10.1575363979702" lon="-75.6825496182072">
        <ele>52.421895</ele>
        <time>2019-09-10T15:14:41.000Z</time>
      </trkpt>
      <trkpt lat="10.1575346905271" lon="-75.682547494568">
        <ele>52.421895</ele>
        <time>2019-09-10T15:14:41.100Z</time>
      </trkpt>
      <trkpt lat="10.157532972662" lon="-75.6825453570033">
        <ele>52.421895</ele>
        <time>2019-09-10T15:14:41.200Z</time>
      </trkpt>
      <trkpt lat="10.1575312355161" lon="-75.6825432149824">
        <ele>52.421895</ele>
        <time>2019-09-10T15:14:41.300Z</time>
      </trkpt>
      <trkpt lat="10.1575294827372" lon="-75.682541066138">
        <ele>52.421895</ele>
        <time>2019-09-10T15:14:41.400Z</time>
      </trkpt>
      <trkpt lat="10.157527740276" lon="-75.6825389139515">
        <ele>52.421895</ele>
        <time>2019-09-10T15:14:41.500Z</time>
      </trkpt>
      <trkpt lat="10.1575260020879" lon="-75.6825367573088">
        <ele>52.421895</ele>
        <time>2019-09-10T15:14:41.600Z</time>
      </trkpt>
      <trkpt lat="10.1575242812004" lon="-75.6825346455063">
        <ele>52.321895</ele>
        <time>2019-09-10T15:14:41.700Z</time>
      </trkpt>
      <trkpt lat="10.1575225533302" lon="-75.6825325522246">
        <ele>52.321895</ele>
        <time>2019-09-10T15:14:41.800Z</time>
      </trkpt>
      <trkpt lat="10.1575207897123" lon="-75.682530444739">
        <ele>52.321895</ele>
        <time>2019-09-10T15:14:41.900Z</time>
      </trkpt>
      <trkpt lat="10.1575189911806" lon="-75.682528295059">
        <ele>52.321895</ele>
        <time>2019-09-10T15:14:42.000Z</time>
      </trkpt>
      <trkpt lat="10.1575171786833" lon="-75.6825261604187">
        <ele>52.321895</ele>
        <time>2019-09-10T15:14:42.100Z</time>
      </trkpt>
      <trkpt lat="10.1575153809854" lon="-75.6825240337158">
        <ele>52.421895</ele>
        <time>2019-09-10T15:14:42.200Z</time>
      </trkpt>
      <trkpt lat="10.1575135846423" lon="-75.6825219412697">
        <ele>52.421895</ele>
        <time>2019-09-10T15:14:42.300Z</time>
      </trkpt>
      <trkpt lat="10.1575117993466" lon="-75.6825198507732">
        <ele>52.421895</ele>
        <time>2019-09-10T15:14:42.400Z</time>
      </trkpt>
      <trkpt lat="10.1575100466718" lon="-75.6825177813042">
        <ele>52.321895</ele>
        <time>2019-09-10T15:14:42.500Z</time>
      </trkpt>
      <trkpt lat="10.1575083182805" lon="-75.6825157044546">
        <ele>52.321895</ele>
        <time>2019-09-10T15:14:42.600Z</time>
      </trkpt>
      <trkpt lat="10.157506609691" lon="-75.6825136358211">
        <ele>52.321895</ele>
        <time>2019-09-10T15:14:42.700Z</time>
      </trkpt>
      <trkpt lat="10.1575048926596" lon="-75.6825115520088">
        <ele>52.321895</ele>
        <time>2019-09-10T15:14:42.800Z</time>
      </trkpt>
      <trkpt lat="10.1575031808393" lon="-75.6825094716779">
        <ele>52.321895</ele>
        <time>2019-09-10T15:14:42.900Z</time>
      </trkpt>
      <trkpt lat="10.1575014521352" lon="-75.6825073761682">
        <ele>52.321895</ele>
        <time>2019-09-10T15:14:43.000Z</time>
      </trkpt>
      <trkpt lat="10.1574997224932" lon="-75.6825052813547">
        <ele>52.321895</ele>
        <time>2019-09-10T15:14:43.100Z</time>
      </trkpt>
      <trkpt lat="10.1574979797194" lon="-75.6825031779075">
        <ele>52.321895</ele>
        <time>2019-09-10T15:14:43.200Z</time>
      </trkpt>
      <trkpt lat="10.1574962388216" lon="-75.6825010544075">
        <ele>52.321895</ele>
        <time>2019-09-10T15:14:43.300Z</time>
      </trkpt>
      <trkpt lat="10.1574944927128" lon="-75.6824989165643">
        <ele>52.321895</ele>
        <time>2019-09-10T15:14:43.400Z</time>
      </trkpt>
      <trkpt lat="10.1574927512938" lon="-75.6824967815061">
        <ele>52.321895</ele>
        <time>2019-09-10T15:14:43.500Z</time>
      </trkpt>
      <trkpt lat="10.1574910025795" lon="-75.6824946580061">
        <ele>52.321895</ele>
        <time>2019-09-10T15:14:43.600Z</time>
      </trkpt>
      <trkpt lat="10.1574875491318" lon="-75.6824904362113">
        <ele>52.321895</ele>
        <time>2019-09-10T15:14:43.800Z</time>
      </trkpt>
      <trkpt lat="10.1574858287654" lon="-75.6824883404231">
        <ele>52.321895</ele>
        <time>2019-09-10T15:14:43.900Z</time>
      </trkpt>
      <trkpt lat="10.157484094225" lon="-75.6824862431031">
        <ele>52.321895</ele>
        <time>2019-09-10T15:14:44.000Z</time>
      </trkpt>
      <trkpt lat="10.1574823524934" lon="-75.682484152328">
        <ele>52.321895</ele>
        <time>2019-09-10T15:14:44.100Z</time>
      </trkpt>
      <trkpt lat="10.1574805917937" lon="-75.6824820562613">
        <ele>52.321895</ele>
        <time>2019-09-10T15:14:44.200Z</time>
      </trkpt>
      <trkpt lat="10.1574788218184" lon="-75.6824799427877">
        <ele>52.221895</ele>
        <time>2019-09-10T15:14:44.300Z</time>
      </trkpt>
      <trkpt lat="10.1574770498629" lon="-75.6824778159456">
        <ele>52.221895</ele>
        <time>2019-09-10T15:14:44.400Z</time>
      </trkpt>
      <trkpt lat="10.1574752864534" lon="-75.6824756917493">
        <ele>52.221895</ele>
        <time>2019-09-10T15:14:44.500Z</time>
      </trkpt>
      <trkpt lat="10.157473532007" lon="-75.6824735740981">
        <ele>52.221895</ele>
        <time>2019-09-10T15:14:44.600Z</time>
      </trkpt>
      <trkpt lat="10.1574717845432" lon="-75.6824714629918">
        <ele>52.221895</ele>
        <time>2019-09-10T15:14:44.700Z</time>
      </trkpt>
      <trkpt lat="10.1574700401019" lon="-75.6824693552276">
        <ele>52.221895</ele>
        <time>2019-09-10T15:14:44.800Z</time>
      </trkpt>
      <trkpt lat="10.1574682894074" lon="-75.6824672332595">
        <ele>52.221895</ele>
        <time>2019-09-10T15:14:44.900Z</time>
      </trkpt>
      <trkpt lat="10.1574665282908" lon="-75.6824651098987">
        <ele>52.221895</ele>
        <time>2019-09-10T15:14:45.000Z</time>
      </trkpt>
      <trkpt lat="10.157464821473" lon="-75.6824630408475">
        <ele>52.221895</ele>
        <time>2019-09-10T15:14:45.100Z</time>
      </trkpt>
      <trkpt lat="10.1574631434201" lon="-75.6824609975584">
        <ele>52.221895</ele>
        <time>2019-09-10T15:14:45.200Z</time>
      </trkpt>
      <trkpt lat="10.157461501219" lon="-75.6824589588647">
        <ele>52.221895</ele>
        <time>2019-09-10T15:14:45.300Z</time>
      </trkpt>
      <trkpt lat="10.1574598436975" lon="-75.6824568935734">
        <ele>52.221895</ele>
        <time>2019-09-10T15:14:45.400Z</time>
      </trkpt>
      <trkpt lat="10.1574581784637" lon="-75.6824548451318">
        <ele>52.221895</ele>
        <time>2019-09-10T15:14:45.500Z</time>
      </trkpt>
      <trkpt lat="10.1574564813385" lon="-75.6824527871514">
        <ele>52.221895</ele>
        <time>2019-09-10T15:14:45.600Z</time>
      </trkpt>
      <trkpt lat="10.1574547891116" lon="-75.6824507447674">
        <ele>52.221895</ele>
        <time>2019-09-10T15:14:45.700Z</time>
      </trkpt>
      <trkpt lat="10.1574530881302" lon="-75.6824486928445">
        <ele>52.221895</ele>
        <time>2019-09-10T15:14:45.800Z</time>
      </trkpt>
      <trkpt lat="10.1574514159136" lon="-75.6824466320093">
        <ele>52.221895</ele>
        <time>2019-09-10T15:14:45.900Z</time>
      </trkpt>
      <trkpt lat="10.1574497429675" lon="-75.682444548754">
        <ele>52.221895</ele>
        <time>2019-09-10T15:14:46.000Z</time>
      </trkpt>
      <trkpt lat="10.1574480600162" lon="-75.6824424506681">
        <ele>52.221895</ele>
        <time>2019-09-10T15:14:46.100Z</time>
      </trkpt>
      <trkpt lat="10.1574463502803" lon="-75.6824403444358">
        <ele>52.221895</ele>
        <time>2019-09-10T15:14:46.200Z</time>
      </trkpt>
      <trkpt lat="10.1574446470061" lon="-75.6824382531733">
        <ele>52.221895</ele>
        <time>2019-09-10T15:14:46.300Z</time>
      </trkpt>
      <trkpt lat="10.1574429393545" lon="-75.6824361716587">
        <ele>52.221895</ele>
        <time>2019-09-10T15:14:46.400Z</time>
      </trkpt>
      <trkpt lat="10.1574412173206" lon="-75.6824340917456">
        <ele>52.221895</ele>
        <time>2019-09-10T15:14:46.500Z</time>
      </trkpt>
      <trkpt lat="10.1574394830929" lon="-75.6824319983943">
        <ele>52.321895</ele>
        <time>2019-09-10T15:14:46.600Z</time>
      </trkpt>
      <trkpt lat="10.1574377206214" lon="-75.6824299015617">
        <ele>52.321895</ele>
        <time>2019-09-10T15:14:46.700Z</time>
      </trkpt>
      <trkpt lat="10.1574359523136" lon="-75.6824277971396">
        <ele>52.321895</ele>
        <time>2019-09-10T15:14:46.800Z</time>
      </trkpt>
      <trkpt lat="10.1574342197534" lon="-75.6824257164606">
        <ele>52.321895</ele>
        <time>2019-09-10T15:14:46.900Z</time>
      </trkpt>
      <trkpt lat="10.1574325164792" lon="-75.682423646713">
        <ele>52.321895</ele>
        <time>2019-09-10T15:14:47.000Z</time>
      </trkpt>
      <trkpt lat="10.1574308183117" lon="-75.68242156304">
        <ele>52.321895</ele>
        <time>2019-09-10T15:14:47.100Z</time>
      </trkpt>
      <trkpt lat="10.157429106283" lon="-75.6824194576432">
        <ele>52.321895</ele>
        <time>2019-09-10T15:14:47.200Z</time>
      </trkpt>
      <trkpt lat="10.1574274047805" lon="-75.6824173440999">
        <ele>52.321895</ele>
        <time>2019-09-10T15:14:47.300Z</time>
      </trkpt>
      <trkpt lat="10.1574256978585" lon="-75.6824152242206">
        <ele>52.321895</ele>
        <time>2019-09-10T15:14:47.400Z</time>
      </trkpt>
      <trkpt lat="10.1574239317393" lon="-75.6824130340871">
        <ele>52.321895</ele>
        <time>2019-09-10T15:14:47.500Z</time>
      </trkpt>
      <trkpt lat="10.1574221385228" lon="-75.6824108268948">
        <ele>52.321895</ele>
        <time>2019-09-10T15:14:47.600Z</time>
      </trkpt>
      <trkpt lat="10.1574203883494" lon="-75.6824086270135">
        <ele>52.321895</ele>
        <time>2019-09-10T15:14:47.700Z</time>
      </trkpt>
      <trkpt lat="10.157416961999" lon="-75.6824043097593">
        <ele>52.321895</ele>
        <time>2019-09-10T15:14:47.900Z</time>
      </trkpt>
      <trkpt lat="10.1574152580994" lon="-75.6824021730998">
        <ele>52.321895</ele>
        <time>2019-09-10T15:14:48.000Z</time>
      </trkpt>
      <trkpt lat="10.1574135630586" lon="-75.6824000620631">
        <ele>52.321895</ele>
        <time>2019-09-10T15:14:48.100Z</time>
      </trkpt>
      <trkpt lat="10.1574118486328" lon="-75.6823979599388">
        <ele>52.321895</ele>
        <time>2019-09-10T15:14:48.200Z</time>
      </trkpt>
      <trkpt lat="10.1574101570312" lon="-75.6823958735503">
        <ele>52.321895</ele>
        <time>2019-09-10T15:14:48.300Z</time>
      </trkpt>
      <trkpt lat="10.1574084630325" lon="-75.6823937828449">
        <ele>52.321895</ele>
        <time>2019-09-10T15:14:48.400Z</time>
      </trkpt>
      <trkpt lat="10.1574067890442" lon="-75.6823917030013">
        <ele>52.321895</ele>
        <time>2019-09-10T15:14:48.500Z</time>
      </trkpt>
      <trkpt lat="10.1574051004651" lon="-75.6823896152203">
        <ele>52.321895</ele>
        <time>2019-09-10T15:14:48.600Z</time>
      </trkpt>
      <trkpt lat="10.1574034248092" lon="-75.6823875408773">
        <ele>52.321895</ele>
        <time>2019-09-10T15:14:48.700Z</time>
      </trkpt>
      <trkpt lat="10.1574017316443" lon="-75.6823854572043">
        <ele>52.321895</ele>
        <time>2019-09-10T15:14:48.800Z</time>
      </trkpt>
      <trkpt lat="10.1574000299334" lon="-75.6823833758289">
        <ele>52.321895</ele>
        <time>2019-09-10T15:14:48.900Z</time>
      </trkpt>
      <trkpt lat="10.1573983039391" lon="-75.6823812879783">
        <ele>52.321895</ele>
        <time>2019-09-10T15:14:49.000Z</time>
      </trkpt>
      <trkpt lat="10.1573965890964" lon="-75.6823792015201">
        <ele>52.321895</ele>
        <time>2019-09-10T15:14:49.100Z</time>
      </trkpt>
      <trkpt lat="10.1573948654991" lon="-75.6823771130428">
        <ele>52.321895</ele>
        <time>2019-09-10T15:14:49.200Z</time>
      </trkpt>
      <trkpt lat="10.1573931124075" lon="-75.6823750487262">
        <ele>52.321895</ele>
        <time>2019-09-10T15:14:49.300Z</time>
      </trkpt>
      <trkpt lat="10.1573913336777" lon="-75.6823729901191">
        <ele>52.321895</ele>
        <time>2019-09-10T15:14:49.400Z</time>
      </trkpt>
      <trkpt lat="10.157389586214" lon="-75.682370968136">
        <ele>52.321895</ele>
        <time>2019-09-10T15:14:49.500Z</time>
      </trkpt>
      <trkpt lat="10.1573878648053" lon="-75.6823689525587">
        <ele>52.321895</ele>
        <time>2019-09-10T15:14:49.600Z</time>
      </trkpt>
      <trkpt lat="10.1573860748197" lon="-75.68236688302">
        <ele>52.321895</ele>
        <time>2019-09-10T15:14:49.700Z</time>
      </trkpt>
      <trkpt lat="10.1573842371011" lon="-75.6823647613304">
        <ele>52.321895</ele>
        <time>2019-09-10T15:14:49.800Z</time>
      </trkpt>
      <trkpt lat="10.1573824263756" lon="-75.6823626683969">
        <ele>52.321895</ele>
        <time>2019-09-10T15:14:49.900Z</time>
      </trkpt>
      <trkpt lat="10.1573806530652" lon="-75.6823606001115">
        <ele>52.421895</ele>
        <time>2019-09-10T15:14:50.000Z</time>
      </trkpt>
      <trkpt lat="10.1573788417144" lon="-75.6823584780737">
        <ele>52.421895</ele>
        <time>2019-09-10T15:14:50.100Z</time>
      </trkpt>
      <trkpt lat="10.1573770180656" lon="-75.6823563288116">
        <ele>52.421895</ele>
        <time>2019-09-10T15:14:50.200Z</time>
      </trkpt>
      <trkpt lat="10.1573752518422" lon="-75.6823542177749">
        <ele>52.321895</ele>
        <time>2019-09-10T15:14:50.300Z</time>
      </trkpt>
      <trkpt lat="10.1573735286618" lon="-75.6823521403683">
        <ele>52.321895</ele>
        <time>2019-09-10T15:14:50.400Z</time>
      </trkpt>
      <trkpt lat="10.1573718286184" lon="-75.6823500626833">
        <ele>52.321895</ele>
        <time>2019-09-10T15:14:50.500Z</time>
      </trkpt>
      <trkpt lat="10.1573701148179" lon="-75.6823479700979">
        <ele>52.421895</ele>
        <time>2019-09-10T15:14:50.600Z</time>
      </trkpt>
      <trkpt lat="10.1573684113352" lon="-75.6823458754237">
        <ele>52.321895</ele>
        <time>2019-09-10T15:14:50.700Z</time>
      </trkpt>
      <trkpt lat="10.1573666896139" lon="-75.6823437719765">
        <ele>52.321895</ele>
        <time>2019-09-10T15:14:50.800Z</time>
      </trkpt>
      <trkpt lat="10.1573649702897" lon="-75.6823416706877">
        <ele>52.321895</ele>
        <time>2019-09-10T15:14:50.900Z</time>
      </trkpt>
      <trkpt lat="10.1573632380422" lon="-75.6823395659871">
        <ele>52.321895</ele>
        <time>2019-09-10T15:14:51.000Z</time>
      </trkpt>
      <trkpt lat="10.157361531016" lon="-75.6823374850992">
        <ele>52.321895</ele>
        <time>2019-09-10T15:14:51.100Z</time>
      </trkpt>
      <trkpt lat="10.1573598251362" lon="-75.6823354135413">
        <ele>52.321895</ele>
        <time>2019-09-10T15:14:51.200Z</time>
      </trkpt>
      <trkpt lat="10.1573581250928" lon="-75.6823333495032">
        <ele>52.321895</ele>
        <time>2019-09-10T15:14:51.300Z</time>
      </trkpt>
      <trkpt lat="10.1573564066024" lon="-75.682331269799">
        <ele>52.321895</ele>
        <time>2019-09-10T15:14:51.400Z</time>
      </trkpt>
      <trkpt lat="10.1573546849853" lon="-75.682329213211">
        <ele>52.321895</ele>
        <time>2019-09-10T15:14:51.500Z</time>
      </trkpt>
      <trkpt lat="10.1573529520083" lon="-75.6823271554394">
        <ele>52.321895</ele>
        <time>2019-09-10T15:14:51.600Z</time>
      </trkpt>
      <trkpt lat="10.157351243523" lon="-75.6823250982249">
        <ele>52.321895</ele>
        <time>2019-09-10T15:14:51.700Z</time>
      </trkpt>
      <trkpt lat="10.157349544626" lon="-75.6823230218627">
        <ele>52.321895</ele>
        <time>2019-09-10T15:14:51.800Z</time>
      </trkpt>
      <trkpt lat="10.1573478316592" lon="-75.6823209126364">
        <ele>52.321895</ele>
        <time>2019-09-10T15:14:51.900Z</time>
      </trkpt>
      <trkpt lat="10.1573443776904" lon="-75.6823166487169">
        <ele>52.321895</ele>
        <time>2019-09-10T15:14:52.100Z</time>
      </trkpt>
      <trkpt lat="10.1573426636815" lon="-75.6823145218052">
        <ele>52.321895</ele>
        <time>2019-09-10T15:14:52.200Z</time>
      </trkpt>
      <trkpt lat="10.1573409732263" lon="-75.6823124143892">
        <ele>52.321895</ele>
        <time>2019-09-10T15:14:52.300Z</time>
      </trkpt>
      <trkpt lat="10.1573392876695" lon="-75.6823103250067">
        <ele>52.321895</ele>
        <time>2019-09-10T15:14:52.400Z</time>
      </trkpt>
      <trkpt lat="10.1573376189965" lon="-75.6823082440491">
        <ele>52.321895</ele>
        <time>2019-09-10T15:14:52.500Z</time>
      </trkpt>
      <trkpt lat="10.1573359314595" lon="-75.6823061542488">
        <ele>52.321895</ele>
        <time>2019-09-10T15:14:52.600Z</time>
      </trkpt>
      <trkpt lat="10.1573342412128" lon="-75.6823040455795">
        <ele>52.321895</ele>
        <time>2019-09-10T15:14:52.700Z</time>
      </trkpt>
      <trkpt lat="10.1573325231392" lon="-75.6823019217314">
        <ele>52.321895</ele>
        <time>2019-09-10T15:14:52.800Z</time>
      </trkpt>
      <trkpt lat="10.1573308325799" lon="-75.6822998184234">
        <ele>52.321895</ele>
        <time>2019-09-10T15:14:52.900Z</time>
      </trkpt>
      <trkpt lat="10.1573291450429" lon="-75.682297732383">
        <ele>52.321895</ele>
        <time>2019-09-10T15:14:53.000Z</time>
      </trkpt>
      <trkpt lat="10.1573274516696" lon="-75.6822956488493">
        <ele>52.321895</ele>
        <time>2019-09-10T15:14:53.100Z</time>
      </trkpt>
      <trkpt lat="10.1573257246331" lon="-75.6822935528522">
        <ele>52.321895</ele>
        <time>2019-09-10T15:14:53.200Z</time>
      </trkpt>
      <trkpt lat="10.1573240070806" lon="-75.6822914578995">
        <ele>52.321895</ele>
        <time>2019-09-10T15:14:53.300Z</time>
      </trkpt>
      <trkpt lat="10.1573222801483" lon="-75.6822893515278">
        <ele>52.321895</ele>
        <time>2019-09-10T15:14:53.400Z</time>
      </trkpt>
      <trkpt lat="10.157320551757" lon="-75.6822872435548">
        <ele>52.321895</ele>
        <time>2019-09-10T15:14:53.500Z</time>
      </trkpt>
      <trkpt lat="10.1573188067945" lon="-75.6822851303597">
        <ele>52.321895</ele>
        <time>2019-09-10T15:14:53.600Z</time>
      </trkpt>
      <trkpt lat="10.157317088721" lon="-75.6822830237792">
        <ele>52.321895</ele>
        <time>2019-09-10T15:14:53.700Z</time>
      </trkpt>
      <trkpt lat="10.1573153724192" lon="-75.6822809177557">
        <ele>52.321895</ele>
        <time>2019-09-10T15:14:53.800Z</time>
      </trkpt>
      <trkpt lat="10.1573136654972" lon="-75.6822787984334">
        <ele>52.321895</ele>
        <time>2019-09-10T15:14:53.900Z</time>
      </trkpt>
      <trkpt lat="10.1573119378354" lon="-75.6822766646286">
        <ele>52.321895</ele>
        <time>2019-09-10T15:14:54.000Z</time>
      </trkpt>
      <trkpt lat="10.1573102357075" lon="-75.682274536742">
        <ele>52.321895</ele>
        <time>2019-09-10T15:14:54.100Z</time>
      </trkpt>
      <trkpt lat="10.1573085321206" lon="-75.6822724188123">
        <ele>52.321895</ele>
        <time>2019-09-10T15:14:54.200Z</time>
      </trkpt>
      <trkpt lat="10.1573068356207" lon="-75.6822703150169">
        <ele>52.321895</ele>
        <time>2019-09-10T15:14:54.300Z</time>
      </trkpt>
      <trkpt lat="10.1573051174429" lon="-75.682268213937">
        <ele>52.321895</ele>
        <time>2019-09-10T15:14:54.400Z</time>
      </trkpt>
      <trkpt lat="10.1573034019749" lon="-75.6822661003937">
        <ele>52.321895</ele>
        <time>2019-09-10T15:14:54.500Z</time>
      </trkpt>
      <trkpt lat="10.1573016769186" lon="-75.6822639762671">
        <ele>52.321895</ele>
        <time>2019-09-10T15:14:54.600Z</time>
      </trkpt>
      <trkpt lat="10.1572999296633" lon="-75.6822618348728">
        <ele>52.321895</ele>
        <time>2019-09-10T15:14:54.700Z</time>
      </trkpt>
      <trkpt lat="10.1572981650032" lon="-75.6822596941052">
        <ele>52.321895</ele>
        <time>2019-09-10T15:14:54.800Z</time>
      </trkpt>
      <trkpt lat="10.1572963739754" lon="-75.6822575625981">
        <ele>52.321895</ele>
        <time>2019-09-10T15:14:54.900Z</time>
      </trkpt>
      <trkpt lat="10.1572945809673" lon="-75.6822554489852">
        <ele>52.321895</ele>
        <time>2019-09-10T15:14:55.000Z</time>
      </trkpt>
      <trkpt lat="10.1572927927534" lon="-75.6822533458861">
        <ele>52.321895</ele>
        <time>2019-09-10T15:14:55.100Z</time>
      </trkpt>
      <trkpt lat="10.1572910247583" lon="-75.6822512469646">
        <ele>52.321895</ele>
        <time>2019-09-10T15:14:55.200Z</time>
      </trkpt>
      <trkpt lat="10.157289228311" lon="-75.6822491298008">
        <ele>52.321895</ele>
        <time>2019-09-10T15:14:55.300Z</time>
      </trkpt>
      <trkpt lat="10.1572874303004" lon="-75.6822470001736">
        <ele>52.321895</ele>
        <time>2019-09-10T15:14:55.400Z</time>
      </trkpt>
      <trkpt lat="10.1572856602208" lon="-75.6822449128799">
        <ele>52.321895</ele>
        <time>2019-09-10T15:14:55.500Z</time>
      </trkpt>
      <trkpt lat="10.1572839158837" lon="-75.6822428481455">
        <ele>52.321895</ele>
        <time>2019-09-10T15:14:55.600Z</time>
      </trkpt>
      <trkpt lat="10.1572821836362" lon="-75.6822407927413">
        <ele>52.321895</ele>
        <time>2019-09-10T15:14:55.700Z</time>
      </trkpt>
      <trkpt lat="10.157278720496" lon="-75.6822366438465">
        <ele>52.321895</ele>
        <time>2019-09-10T15:14:55.900Z</time>
      </trkpt>
      <trkpt lat="10.1572769857472" lon="-75.6822345624015">
        <ele>52.321895</ele>
        <time>2019-09-10T15:14:56.000Z</time>
      </trkpt>
      <trkpt lat="10.1572752556883" lon="-75.6822324815832">
        <ele>52.421895</ele>
        <time>2019-09-10T15:14:56.100Z</time>
      </trkpt>
      <trkpt lat="10.1572735153116" lon="-75.6822303919919">
        <ele>52.421895</ele>
        <time>2019-09-10T15:14:56.200Z</time>
      </trkpt>
      <trkpt lat="10.1572718028659" lon="-75.6822282980139">
        <ele>52.421895</ele>
        <time>2019-09-10T15:14:56.300Z</time>
      </trkpt>
      <trkpt lat="10.1572700929215" lon="-75.6822261964466">
        <ele>52.421895</ele>
        <time>2019-09-10T15:14:56.400Z</time>
      </trkpt>
      <trkpt lat="10.1572683915233" lon="-75.6822241113114">
        <ele>52.321895</ele>
        <time>2019-09-10T15:14:56.500Z</time>
      </trkpt>
      <trkpt lat="10.1572666720948" lon="-75.6822220257584">
        <ele>52.321895</ele>
        <time>2019-09-10T15:14:56.600Z</time>
      </trkpt>
      <trkpt lat="10.1572649599618" lon="-75.6822199334516">
        <ele>52.321895</ele>
        <time>2019-09-10T15:14:56.700Z</time>
      </trkpt>
      <trkpt lat="10.157263238449" lon="-75.6822178268015">
        <ele>52.321895</ele>
        <time>2019-09-10T15:14:56.800Z</time>
      </trkpt>
      <trkpt lat="10.1572615157898" lon="-75.6822157012127">
        <ele>52.321895</ele>
        <time>2019-09-10T15:14:56.900Z</time>
      </trkpt>
      <trkpt lat="10.1572597851055" lon="-75.6822135653886">
        <ele>52.321895</ele>
        <time>2019-09-10T15:14:57.000Z</time>
      </trkpt>
      <trkpt lat="10.1572580726599" lon="-75.6822114638909">
        <ele>52.321895</ele>
        <time>2019-09-10T15:14:57.100Z</time>
      </trkpt>
      <trkpt lat="10.1572563585467" lon="-75.6822093820978">
        <ele>52.321895</ele>
        <time>2019-09-10T15:14:57.200Z</time>
      </trkpt>
      <trkpt lat="10.1572546663198" lon="-75.6822073087993">
        <ele>52.321895</ele>
        <time>2019-09-10T15:14:57.300Z</time>
      </trkpt>
      <trkpt lat="10.1572529745098" lon="-75.6822052243603">
        <ele>52.321895</ele>
        <time>2019-09-10T15:14:57.400Z</time>
      </trkpt>
      <trkpt lat="10.1572512874939" lon="-75.682203143542">
        <ele>52.321895</ele>
        <time>2019-09-10T15:14:57.500Z</time>
      </trkpt>
      <trkpt lat="10.157249583907" lon="-75.6822010553432">
        <ele>52.421895</ele>
        <time>2019-09-10T15:14:57.600Z</time>
      </trkpt>
      <trkpt lat="10.1572478892831" lon="-75.6821989721576">
        <ele>52.421895</ele>
        <time>2019-09-10T15:14:57.700Z</time>
      </trkpt>
      <trkpt lat="10.1572461916367" lon="-75.6821968826358">
        <ele>52.421895</ele>
        <time>2019-09-10T15:14:57.800Z</time>
      </trkpt>
      <trkpt lat="10.1572444603272" lon="-75.6821947918608">
        <ele>52.421895</ele>
        <time>2019-09-10T15:14:57.900Z</time>
      </trkpt>
      <trkpt lat="10.1572427078609" lon="-75.6821926970473">
        <ele>52.421895</ele>
        <time>2019-09-10T15:14:58.000Z</time>
      </trkpt>
      <trkpt lat="10.1572409641491" lon="-75.6821906193623">
        <ele>52.421895</ele>
        <time>2019-09-10T15:14:58.100Z</time>
      </trkpt>
      <trkpt lat="10.1572392308594" lon="-75.6821885440445">
        <ele>52.421895</ele>
        <time>2019-09-10T15:14:58.200Z</time>
      </trkpt>
      <trkpt lat="10.1572375356101" lon="-75.6821864882921">
        <ele>52.321895</ele>
        <time>2019-09-10T15:14:58.300Z</time>
      </trkpt>
      <trkpt lat="10.1572358479689" lon="-75.6821844259947">
        <ele>52.321895</ele>
        <time>2019-09-10T15:14:58.400Z</time>
      </trkpt>
      <trkpt lat="10.157234159077" lon="-75.6821823850033">
        <ele>52.321895</ele>
        <time>2019-09-10T15:14:58.500Z</time>
      </trkpt>
      <trkpt lat="10.1572324404824" lon="-75.6821803371885">
        <ele>52.321895</ele>
        <time>2019-09-10T15:14:58.600Z</time>
      </trkpt>
      <trkpt lat="10.1572306840557" lon="-75.6821782657003">
        <ele>52.321895</ele>
        <time>2019-09-10T15:14:58.700Z</time>
      </trkpt>
      <trkpt lat="10.1572289009486" lon="-75.682176162253">
        <ele>52.321895</ele>
        <time>2019-09-10T15:14:58.800Z</time>
      </trkpt>
      <trkpt lat="10.1572271560904" lon="-75.6821740607553">
        <ele>52.321895</ele>
        <time>2019-09-10T15:14:58.900Z</time>
      </trkpt>
      <trkpt lat="10.1572254353071" lon="-75.6821719600932">
        <ele>52.321895</ele>
        <time>2019-09-10T15:14:59.000Z</time>
      </trkpt>
      <trkpt lat="10.1572237598597" lon="-75.6821698903456">
        <ele>52.321895</ele>
        <time>2019-09-10T15:14:59.100Z</time>
      </trkpt>
      <trkpt lat="10.1572220940006" lon="-75.6821678311815">
        <ele>52.321895</ele>
        <time>2019-09-10T15:14:59.200Z</time>
      </trkpt>
      <trkpt lat="10.1572203882251" lon="-75.6821656815015">
        <ele>52.321895</ele>
        <time>2019-09-10T15:14:59.300Z</time>
      </trkpt>
      <trkpt lat="10.1572186285676" lon="-75.6821634664414">
        <ele>52.321895</ele>
        <time>2019-09-10T15:14:59.400Z</time>
      </trkpt>
      <trkpt lat="10.1572168615104" lon="-75.6821612252709">
        <ele>52.321895</ele>
        <time>2019-09-10T15:14:59.500Z</time>
      </trkpt>
      <trkpt lat="10.157215103312" lon="-75.6821590117426">
        <ele>52.321895</ele>
        <time>2019-09-10T15:14:59.600Z</time>
      </trkpt>
      <trkpt lat="10.1572134166088" lon="-75.6821568660314">
        <ele>52.321895</ele>
        <time>2019-09-10T15:14:59.700Z</time>
      </trkpt>
      <trkpt lat="10.1572117696136" lon="-75.6821547763704">
        <ele>52.321895</ele>
        <time>2019-09-10T15:14:59.800Z</time>
      </trkpt>
      <trkpt lat="10.1572083452433" lon="-75.6821504919805">
        <ele>52.321895</ele>
        <time>2019-09-10T15:15:00.000Z</time>
      </trkpt>
      <trkpt lat="10.157206630088" lon="-75.6821483491937">
        <ele>52.321895</ele>
        <time>2019-09-10T15:15:00.100Z</time>
      </trkpt>
      <trkpt lat="10.1572049306699" lon="-75.6821462292447">
        <ele>52.321895</ele>
        <time>2019-09-10T15:15:00.200Z</time>
      </trkpt>
      <trkpt lat="10.1572032317729" lon="-75.6821441079032">
        <ele>52.321895</ele>
        <time>2019-09-10T15:15:00.300Z</time>
      </trkpt>
      <trkpt lat="10.1572015109896" lon="-75.6821419773708">
        <ele>52.321895</ele>
        <time>2019-09-10T15:15:00.400Z</time>
      </trkpt>
      <trkpt lat="10.157199744662" lon="-75.6821398367425">
        <ele>52.321895</ele>
        <time>2019-09-10T15:15:00.500Z</time>
      </trkpt>
      <trkpt lat="10.1571979504033" lon="-75.6821376913794">
        <ele>52.321895</ele>
        <time>2019-09-10T15:15:00.600Z</time>
      </trkpt>
      <trkpt lat="10.1571961669835" lon="-75.6821355630055">
        <ele>52.321895</ele>
        <time>2019-09-10T15:15:00.700Z</time>
      </trkpt>
      <trkpt lat="10.1571944038868" lon="-75.6821334425692">
        <ele>52.321895</ele>
        <time>2019-09-10T15:15:00.800Z</time>
      </trkpt>
      <trkpt lat="10.1571926316186" lon="-75.6821312891294">
        <ele>52.321895</ele>
        <time>2019-09-10T15:15:00.900Z</time>
      </trkpt>
      <trkpt lat="10.1571908549732" lon="-75.6821291157761">
        <ele>52.321895</ele>
        <time>2019-09-10T15:15:01.000Z</time>
      </trkpt>
      <trkpt lat="10.1571890898962" lon="-75.6821269811357">
        <ele>52.321895</ele>
        <time>2019-09-10T15:15:01.100Z</time>
      </trkpt>
      <trkpt lat="10.1571873410776" lon="-75.6821248777581">
        <ele>52.321895</ele>
        <time>2019-09-10T15:15:01.200Z</time>
      </trkpt>
      <trkpt lat="10.1571856074752" lon="-75.6821227774441">
        <ele>52.321895</ele>
        <time>2019-09-10T15:15:01.300Z</time>
      </trkpt>
      <trkpt lat="10.1571838763741" lon="-75.6821206571469">
        <ele>52.321895</ele>
        <time>2019-09-10T15:15:01.400Z</time>
      </trkpt>
      <trkpt lat="10.1571821521516" lon="-75.6821185279375">
        <ele>52.321895</ele>
        <time>2019-09-10T15:15:01.500Z</time>
      </trkpt>
      <trkpt lat="10.1571804218842" lon="-75.6821163919742">
        <ele>52.321895</ele>
        <time>2019-09-10T15:15:01.600Z</time>
      </trkpt>
      <trkpt lat="10.157178653368" lon="-75.682114227951">
        <ele>52.321895</ele>
        <time>2019-09-10T15:15:01.700Z</time>
      </trkpt>
      <trkpt lat="10.1571768652583" lon="-75.6821120563384">
        <ele>52.321895</ele>
        <time>2019-09-10T15:15:01.800Z</time>
      </trkpt>
      <trkpt lat="10.1571750987223" lon="-75.6821099233691">
        <ele>52.421895</ele>
        <time>2019-09-10T15:15:01.900Z</time>
      </trkpt>
      <trkpt lat="10.1571733563654" lon="-75.6821078277201">
        <ele>52.421895</ele>
        <time>2019-09-10T15:15:02.000Z</time>
      </trkpt>
      <trkpt lat="10.1571716204701" lon="-75.6821057510795">
        <ele>52.421895</ele>
        <time>2019-09-10T15:15:02.100Z</time>
      </trkpt>
      <trkpt lat="10.157169882282" lon="-75.6821036709574">
        <ele>52.421895</ele>
        <time>2019-09-10T15:15:02.200Z</time>
      </trkpt>
      <trkpt lat="10.1571681496176" lon="-75.6821016249529">
        <ele>52.421895</ele>
        <time>2019-09-10T15:15:02.300Z</time>
      </trkpt>
      <trkpt lat="10.1571664137224" lon="-75.6820995807587">
        <ele>52.421895</ele>
        <time>2019-09-10T15:15:02.400Z</time>
      </trkpt>
      <trkpt lat="10.1571646829339" lon="-75.682097541508">
        <ele>52.421895</ele>
        <time>2019-09-10T15:15:02.500Z</time>
      </trkpt>
      <trkpt lat="10.1571611955104" lon="-75.682093391151">
        <ele>52.421895</ele>
        <time>2019-09-10T15:15:02.700Z</time>
      </trkpt>
      <trkpt lat="10.1571594333516" lon="-75.6820912808803">
        <ele>52.421895</ele>
        <time>2019-09-10T15:15:02.800Z</time>
      </trkpt>
      <trkpt lat="10.1571576715054" lon="-75.6820891374668">
        <ele>52.421895</ele>
        <time>2019-09-10T15:15:02.900Z</time>
      </trkpt>
      <trkpt lat="10.1571559172674" lon="-75.6820869959333">
        <ele>52.421895</ele>
        <time>2019-09-10T15:15:03.000Z</time>
      </trkpt>
      <trkpt lat="10.1571541656349" lon="-75.6820848674201">
        <ele>52.421895</ele>
        <time>2019-09-10T15:15:03.100Z</time>
      </trkpt>
      <trkpt lat="10.1571506886334" lon="-75.6820806773755">
        <ele>52.421895</ele>
        <time>2019-09-10T15:15:03.300Z</time>
      </trkpt>
      <trkpt lat="10.1571489681627" lon="-75.6820786003867">
        <ele>52.421895</ele>
        <time>2019-09-10T15:15:03.400Z</time>
      </trkpt>
      <trkpt lat="10.1571472545707" lon="-75.6820765253475">
        <ele>52.421895</ele>
        <time>2019-09-10T15:15:03.500Z</time>
      </trkpt>
      <trkpt lat="10.1571455289932" lon="-75.682074435408">
        <ele>52.421895</ele>
        <time>2019-09-10T15:15:03.600Z</time>
      </trkpt>
      <trkpt lat="10.15714379216" lon="-75.6820723472091">
        <ele>52.421895</ele>
        <time>2019-09-10T15:15:03.700Z</time>
      </trkpt>
      <trkpt lat="10.1571420389642" lon="-75.6820702558771">
        <ele>52.421895</ele>
        <time>2019-09-10T15:15:03.800Z</time>
      </trkpt>
      <trkpt lat="10.157140290354" lon="-75.6820681685834">
        <ele>52.421895</ele>
        <time>2019-09-10T15:15:03.900Z</time>
      </trkpt>
      <trkpt lat="10.1571385544588" lon="-75.6820660786439">
        <ele>52.421895</ele>
        <time>2019-09-10T15:15:04.000Z</time>
      </trkpt>
      <trkpt lat="10.157136846182" lon="-75.6820640102889">
        <ele>52.421895</ele>
        <time>2019-09-10T15:15:04.100Z</time>
      </trkpt>
      <trkpt lat="10.1571351541635" lon="-75.6820619498018">
        <ele>52.521895</ele>
        <time>2019-09-10T15:15:04.200Z</time>
      </trkpt>
      <trkpt lat="10.1571317569948" lon="-75.6820578053632">
        <ele>52.521895</ele>
        <time>2019-09-10T15:15:04.400Z</time>
      </trkpt>
      <trkpt lat="10.1571300593485" lon="-75.6820557336661">
        <ele>52.421895</ele>
        <time>2019-09-10T15:15:04.500Z</time>
      </trkpt>
      <trkpt lat="10.157128358784" lon="-75.6820536632223">
        <ele>52.421895</ele>
        <time>2019-09-10T15:15:04.600Z</time>
      </trkpt>
      <trkpt lat="10.1571266679119" lon="-75.6820516054507">
        <ele>52.421895</ele>
        <time>2019-09-10T15:15:04.700Z</time>
      </trkpt>
      <trkpt lat="10.1571249700571" lon="-75.6820495387667">
        <ele>52.421895</ele>
        <time>2019-09-10T15:15:04.800Z</time>
      </trkpt>
      <trkpt lat="10.157123263552" lon="-75.6820474661645">
        <ele>52.421895</ele>
        <time>2019-09-10T15:15:04.900Z</time>
      </trkpt>
      <trkpt lat="10.1571215453743" lon="-75.6820453748324">
        <ele>52.421895</ele>
        <time>2019-09-10T15:15:05.000Z</time>
      </trkpt>
      <trkpt lat="10.1571198356383" lon="-75.6820432796012">
        <ele>52.421895</ele>
        <time>2019-09-10T15:15:05.100Z</time>
      </trkpt>
      <trkpt lat="10.1571181317388" lon="-75.6820411843004">
        <ele>52.421895</ele>
        <time>2019-09-10T15:15:05.200Z</time>
      </trkpt>
      <trkpt lat="10.1571164157496" lon="-75.682039070966">
        <ele>52.421895</ele>
        <time>2019-09-10T15:15:05.300Z</time>
      </trkpt>
      <trkpt lat="10.157112971786" lon="-75.6820348282133">
        <ele>52.421895</ele>
        <time>2019-09-10T15:15:05.500Z</time>
      </trkpt>
      <trkpt lat="10.1571112614247" lon="-75.6820327173856">
        <ele>52.421895</ele>
        <time>2019-09-10T15:15:05.600Z</time>
      </trkpt>
      <trkpt lat="10.1571095248" lon="-75.6820305768268">
        <ele>52.421895</ele>
        <time>2019-09-10T15:15:05.700Z</time>
      </trkpt>
      <trkpt lat="10.1571077697281" lon="-75.682028437034">
        <ele>52.421895</ele>
        <time>2019-09-10T15:15:05.800Z</time>
      </trkpt>
      <trkpt lat="10.1571060200758" lon="-75.682026297659">
        <ele>52.421895</ele>
        <time>2019-09-10T15:15:05.900Z</time>
      </trkpt>
      <trkpt lat="10.1571042800117" lon="-75.6820241756908">
        <ele>52.421895</ele>
        <time>2019-09-10T15:15:06.000Z</time>
      </trkpt>
      <trkpt lat="10.1571025559976" lon="-75.6820220787189">
        <ele>52.421895</ele>
        <time>2019-09-10T15:15:06.100Z</time>
      </trkpt>
      <trkpt lat="10.1571008357354" lon="-75.6820199968562">
        <ele>52.421895</ele>
        <time>2019-09-10T15:15:06.200Z</time>
      </trkpt>
      <trkpt lat="10.1570991381933" lon="-75.6820179419393">
        <ele>52.421895</ele>
        <time>2019-09-10T15:15:06.300Z</time>
      </trkpt>
      <trkpt lat="10.1570974390879" lon="-75.682015885978">
        <ele>52.421895</ele>
        <time>2019-09-10T15:15:06.400Z</time>
      </trkpt>
      <trkpt lat="10.1570957374811" lon="-75.6820138583551">
        <ele>52.421895</ele>
        <time>2019-09-10T15:15:06.500Z</time>
      </trkpt>
      <trkpt lat="10.1570940148219" lon="-75.6820118202881">
        <ele>52.421895</ele>
        <time>2019-09-10T15:15:06.600Z</time>
      </trkpt>
      <trkpt lat="10.1570923087337" lon="-75.6820098197503">
        <ele>52.421895</ele>
        <time>2019-09-10T15:15:06.700Z</time>
      </trkpt>
      <trkpt lat="10.1570905953501" lon="-75.6820078089077">
        <ele>52.421895</ele>
        <time>2019-09-10T15:15:06.800Z</time>
      </trkpt>
      <trkpt lat="10.1570889039569" lon="-75.6820058085091">
        <ele>52.421895</ele>
        <time>2019-09-10T15:15:06.900Z</time>
      </trkpt>
      <trkpt lat="10.1570871999531" lon="-75.6820037774745">
        <ele>52.421895</ele>
        <time>2019-09-10T15:15:07.000Z</time>
      </trkpt>
      <trkpt lat="10.1570854937607" lon="-75.6820017469273">
        <ele>52.421895</ele>
        <time>2019-09-10T15:15:07.100Z</time>
      </trkpt>
      <trkpt lat="10.1570837659946" lon="-75.6819996903393">
        <ele>52.421895</ele>
        <time>2019-09-10T15:15:07.200Z</time>
      </trkpt>
      <trkpt lat="10.1570820140495" lon="-75.6819975855692">
        <ele>52.421895</ele>
        <time>2019-09-10T15:15:07.300Z</time>
      </trkpt>
      <trkpt lat="10.157080246367" lon="-75.6819954501629">
        <ele>52.421895</ele>
        <time>2019-09-10T15:15:07.400Z</time>
      </trkpt>
      <trkpt lat="10.157078475141" lon="-75.6819933029895">
        <ele>52.421895</ele>
        <time>2019-09-10T15:15:07.500Z</time>
      </trkpt>
      <trkpt lat="10.1570766988082" lon="-75.6819911627093">
        <ele>52.421895</ele>
        <time>2019-09-10T15:15:07.600Z</time>
      </trkpt>
      <trkpt lat="10.1570749606202" lon="-75.6819890462417">
        <ele>52.421895</ele>
        <time>2019-09-10T15:15:07.700Z</time>
      </trkpt>
      <trkpt lat="10.1570732311866" lon="-75.6819869453011">
        <ele>52.421895</ele>
        <time>2019-09-10T15:15:07.800Z</time>
      </trkpt>
      <trkpt lat="10.1570714938322" lon="-75.6819848315489">
        <ele>52.421895</ele>
        <time>2019-09-10T15:15:07.900Z</time>
      </trkpt>
      <trkpt lat="10.1570697220852" lon="-75.6819827008077">
        <ele>52.421895</ele>
        <time>2019-09-10T15:15:08.000Z</time>
      </trkpt>
      <trkpt lat="10.1570679680556" lon="-75.6819805816246">
        <ele>52.421895</ele>
        <time>2019-09-10T15:15:08.100Z</time>
      </trkpt>
      <trkpt lat="10.1570662086065" lon="-75.681978470588">
        <ele>52.421895</ele>
        <time>2019-09-10T15:15:08.200Z</time>
      </trkpt>
      <trkpt lat="10.1570644062186" lon="-75.6819762988361">
        <ele>52.421895</ele>
        <time>2019-09-10T15:15:08.300Z</time>
      </trkpt>
      <trkpt lat="10.1570625806938" lon="-75.6819741134373">
        <ele>52.421895</ele>
        <time>2019-09-10T15:15:08.400Z</time>
      </trkpt>
      <trkpt lat="10.1570607760131" lon="-75.681971964941">
        <ele>52.421895</ele>
        <time>2019-09-10T15:15:08.500Z</time>
      </trkpt>
      <trkpt lat="10.157058996658" lon="-75.6819698492394">
        <ele>52.421895</ele>
        <time>2019-09-10T15:15:08.600Z</time>
      </trkpt>
      <trkpt lat="10.1570555208029" lon="-75.6819656469403">
        <ele>52.421895</ele>
        <time>2019-09-10T15:15:08.800Z</time>
      </trkpt>
      <trkpt lat="10.1570537884511" lon="-75.6819635560259">
        <ele>52.421895</ele>
        <time>2019-09-10T15:15:08.900Z</time>
      </trkpt>
      <trkpt lat="10.1570520410916" lon="-75.6819614616999">
        <ele>52.421895</ele>
        <time>2019-09-10T15:15:09.000Z</time>
      </trkpt>
      <trkpt lat="10.1570503046753" lon="-75.6819593822045">
        <ele>52.421895</ele>
        <time>2019-09-10T15:15:09.100Z</time>
      </trkpt>
      <trkpt lat="10.15704856878" lon="-75.6819573020825">
        <ele>52.421895</ele>
        <time>2019-09-10T15:15:09.200Z</time>
      </trkpt>
      <trkpt lat="10.1570468163137" lon="-75.6819552286447">
        <ele>52.421895</ele>
        <time>2019-09-10T15:15:09.300Z</time>
      </trkpt>
      <trkpt lat="10.157045052279" lon="-75.6819531481745">
        <ele>52.421895</ele>
        <time>2019-09-10T15:15:09.400Z</time>
      </trkpt>
      <trkpt lat="10.1570433108601" lon="-75.6819511096897">
        <ele>52.421895</ele>
        <time>2019-09-10T15:15:09.500Z</time>
      </trkpt>
      <trkpt lat="10.1570415823645" lon="-75.6819490812313">
        <ele>52.421895</ele>
        <time>2019-09-10T15:15:09.600Z</time>
      </trkpt>
      <trkpt lat="10.1570398943064" lon="-75.6819470920428">
        <ele>52.421895</ele>
        <time>2019-09-10T15:15:09.700Z</time>
      </trkpt>
      <trkpt lat="10.1570382215687" lon="-75.6819450959612">
        <ele>52.421895</ele>
        <time>2019-09-10T15:15:09.800Z</time>
      </trkpt>
      <trkpt lat="10.1570365059965" lon="-75.6819430480767">
        <ele>52.421895</ele>
        <time>2019-09-10T15:15:09.900Z</time>
      </trkpt>
      <trkpt lat="10.1570347396688" lon="-75.6819409340461">
        <ele>52.421895</ele>
        <time>2019-09-10T15:15:10.000Z</time>
      </trkpt>
      <trkpt lat="10.1570329858477" lon="-75.6819388371438">
        <ele>52.421895</ele>
        <time>2019-09-10T15:15:10.100Z</time>
      </trkpt>
      <trkpt lat="10.1570312538086" lon="-75.6819367660037">
        <ele>52.421895</ele>
        <time>2019-09-10T15:15:10.200Z</time>
      </trkpt>
      <trkpt lat="10.1570295204146" lon="-75.6819346877616">
        <ele>52.421895</ele>
        <time>2019-09-10T15:15:10.300Z</time>
      </trkpt>
      <trkpt lat="10.1570277849363" lon="-75.6819325972651">
        <ele>52.421895</ele>
        <time>2019-09-10T15:15:10.400Z</time>
      </trkpt>
      <trkpt lat="10.1570260512297" lon="-75.6819305014768">
        <ele>52.421895</ele>
        <time>2019-09-10T15:15:10.500Z</time>
      </trkpt>
      <trkpt lat="10.1570243168977" lon="-75.6819284031124">
        <ele>52.421895</ele>
        <time>2019-09-10T15:15:10.600Z</time>
      </trkpt>
      <trkpt lat="10.157022575583" lon="-75.6819262989689">
        <ele>52.421895</ele>
        <time>2019-09-10T15:15:10.700Z</time>
      </trkpt>
      <trkpt lat="10.1570208348936" lon="-75.6819241920402">
        <ele>52.421895</ele>
        <time>2019-09-10T15:15:10.800Z</time>
      </trkpt>
      <trkpt lat="10.1570190681491" lon="-75.681922054754">
        <ele>52.421895</ele>
        <time>2019-09-10T15:15:10.900Z</time>
      </trkpt>
      <trkpt lat="10.1570172936923" lon="-75.6819199095999">
        <ele>52.421895</ele>
        <time>2019-09-10T15:15:11.000Z</time>
      </trkpt>
      <trkpt lat="10.1570155314293" lon="-75.6819177854036">
        <ele>52.421895</ele>
        <time>2019-09-10T15:15:11.100Z</time>
      </trkpt>
      <trkpt lat="10.1570137842783" lon="-75.6819156829312">
        <ele>52.421895</ele>
        <time>2019-09-10T15:15:11.200Z</time>
      </trkpt>
      <trkpt lat="10.157011999191" lon="-75.6819135394481">
        <ele>52.421895</ele>
        <time>2019-09-10T15:15:11.300Z</time>
      </trkpt>
      <trkpt lat="10.1570101987833" lon="-75.6819113722917">
        <ele>52.321895</ele>
        <time>2019-09-10T15:15:11.400Z</time>
      </trkpt>
      <trkpt lat="10.1570084264109" lon="-75.6819092116106">
        <ele>52.321895</ele>
        <time>2019-09-10T15:15:11.500Z</time>
      </trkpt>
      <trkpt lat="10.1570066835329" lon="-75.6819070730014">
        <ele>52.321895</ele>
        <time>2019-09-10T15:15:11.600Z</time>
      </trkpt>
      <trkpt lat="10.1570049637918" lon="-75.6819049306324">
        <ele>52.321895</ele>
        <time>2019-09-10T15:15:11.700Z</time>
      </trkpt>
      <trkpt lat="10.1570032463436" lon="-75.6819027932069">
        <ele>52.321895</ele>
        <time>2019-09-10T15:15:11.800Z</time>
      </trkpt>
      <trkpt lat="10.1569998699148" lon="-75.6818985736402">
        <ele>52.321895</ele>
        <time>2019-09-10T15:15:12.000Z</time>
      </trkpt>
      <trkpt lat="10.1569981864424" lon="-75.6818964646924">
        <ele>52.321895</ele>
        <time>2019-09-10T15:15:12.100Z</time>
      </trkpt>
      <trkpt lat="10.1569964813964" lon="-75.6818943463448">
        <ele>52.321895</ele>
        <time>2019-09-10T15:15:12.200Z</time>
      </trkpt>
      <trkpt lat="10.1569947919835" lon="-75.6818922337067">
        <ele>52.421895</ele>
        <time>2019-09-10T15:15:12.300Z</time>
      </trkpt>
      <trkpt lat="10.1569930959004" lon="-75.6818901278922">
        <ele>52.421895</ele>
        <time>2019-09-10T15:15:12.400Z</time>
      </trkpt>
      <trkpt lat="10.1569914075297" lon="-75.6818880479094">
        <ele>52.421895</ele>
        <time>2019-09-10T15:15:12.500Z</time>
      </trkpt>
      <trkpt lat="10.1569897084242" lon="-75.6818859778137">
        <ele>52.421895</ele>
        <time>2019-09-10T15:15:12.600Z</time>
      </trkpt>
      <trkpt lat="10.1569880190113" lon="-75.6818839326447">
        <ele>52.421895</ele>
        <time>2019-09-10T15:15:12.700Z</time>
      </trkpt>
      <trkpt lat="10.1569863188637" lon="-75.6818818822536">
        <ele>52.321895</ele>
        <time>2019-09-10T15:15:12.800Z</time>
      </trkpt>
      <trkpt lat="10.1569846303887" lon="-75.6818798320018">
        <ele>52.321895</ele>
        <time>2019-09-10T15:15:12.900Z</time>
      </trkpt>
      <trkpt lat="10.1569829308664" lon="-75.6818777606528">
        <ele>52.321895</ele>
        <time>2019-09-10T15:15:13.000Z</time>
      </trkpt>
      <trkpt lat="10.1569812239444" lon="-75.6818756842906">
        <ele>52.321895</ele>
        <time>2019-09-10T15:15:13.100Z</time>
      </trkpt>
      <trkpt lat="10.1569794998261" lon="-75.681873596997">
        <ele>52.321895</ele>
        <time>2019-09-10T15:15:13.200Z</time>
      </trkpt>
      <trkpt lat="10.1569777661195" lon="-75.6818715232807">
        <ele>52.321895</ele>
        <time>2019-09-10T15:15:13.300Z</time>
      </trkpt>
      <trkpt lat="10.1569760260554" lon="-75.6818694547864">
        <ele>52.321895</ele>
        <time>2019-09-10T15:15:13.400Z</time>
      </trkpt>
      <trkpt lat="10.1569724786009" lon="-75.6818652323998">
        <ele>52.321895</ele>
        <time>2019-09-10T15:15:13.600Z</time>
      </trkpt>
      <trkpt lat="10.1569707182138" lon="-75.681863121955">
        <ele>52.321895</ele>
        <time>2019-09-10T15:15:13.700Z</time>
      </trkpt>
      <trkpt lat="10.1569689781498" lon="-75.681861025749">
        <ele>52.321895</ele>
        <time>2019-09-10T15:15:13.800Z</time>
      </trkpt>
      <trkpt lat="10.1569672422545" lon="-75.6818589303437">
        <ele>52.321895</ele>
        <time>2019-09-10T15:15:13.900Z</time>
      </trkpt>
      <trkpt lat="10.1569654991681" lon="-75.6818568314571">
        <ele>52.321895</ele>
        <time>2019-09-10T15:15:14.000Z</time>
      </trkpt>
      <trkpt lat="10.1569637802608" lon="-75.681854736957">
        <ele>52.321895</ele>
        <time>2019-09-10T15:15:14.100Z</time>
      </trkpt>
      <trkpt lat="10.1569620626041" lon="-75.6818526446501">
        <ele>52.321895</ele>
        <time>2019-09-10T15:15:14.200Z</time>
      </trkpt>
      <trkpt lat="10.1569603463023" lon="-75.681850531838">
        <ele>52.321895</ele>
        <time>2019-09-10T15:15:14.300Z</time>
      </trkpt>
      <trkpt lat="10.1569586126999" lon="-75.6818484071195">
        <ele>52.321895</ele>
        <time>2019-09-10T15:15:14.400Z</time>
      </trkpt>
      <trkpt lat="10.1569568644024" lon="-75.6818462542715">
        <ele>52.321895</ele>
        <time>2019-09-10T15:15:14.500Z</time>
      </trkpt>
      <trkpt lat="10.1569550983875" lon="-75.6818441013191">
        <ele>52.321895</ele>
        <time>2019-09-10T15:15:14.600Z</time>
      </trkpt>
      <trkpt lat="10.1569533171563" lon="-75.6818419493066">
        <ele>52.321895</ele>
        <time>2019-09-10T15:15:14.700Z</time>
      </trkpt>
      <trkpt lat="10.1569515354041" lon="-75.6818398169292">
        <ele>52.321895</ele>
        <time>2019-09-10T15:15:14.800Z</time>
      </trkpt>
      <trkpt lat="10.1569497868982" lon="-75.6818376969106">
        <ele>52.321895</ele>
        <time>2019-09-10T15:15:14.900Z</time>
      </trkpt>
      <trkpt lat="10.156948060487" lon="-75.6818355920011">
        <ele>52.321895</ele>
        <time>2019-09-10T15:15:15.000Z</time>
      </trkpt>
      <trkpt lat="10.1569463496047" lon="-75.6818335035934">
        <ele>52.321895</ele>
        <time>2019-09-10T15:15:15.100Z</time>
      </trkpt>
      <trkpt lat="10.1569446279876" lon="-75.6818314256298">
        <ele>52.321895</ele>
        <time>2019-09-10T15:15:15.200Z</time>
      </trkpt>
      <trkpt lat="10.1569429335721" lon="-75.6818293559519">
        <ele>52.321895</ele>
        <time>2019-09-10T15:15:15.300Z</time>
      </trkpt>
      <trkpt lat="10.1569412364468" lon="-75.6818272789631">
        <ele>52.321895</ele>
        <time>2019-09-10T15:15:15.400Z</time>
      </trkpt>
      <trkpt lat="10.1569395401554" lon="-75.6818252116874">
        <ele>52.321895</ele>
        <time>2019-09-10T15:15:15.500Z</time>
      </trkpt>
      <trkpt lat="10.1569378216649" lon="-75.6818231427754">
        <ele>52.321895</ele>
        <time>2019-09-10T15:15:15.600Z</time>
      </trkpt>
      <trkpt lat="10.1569361050504" lon="-75.6818210879281">
        <ele>52.321895</ele>
        <time>2019-09-10T15:15:15.700Z</time>
      </trkpt>
      <trkpt lat="10.1569343795772" lon="-75.6818190284506">
        <ele>52.321895</ele>
        <time>2019-09-10T15:15:15.800Z</time>
      </trkpt>
      <trkpt lat="10.1569326272152" lon="-75.6818169656659">
        <ele>52.321895</ele>
        <time>2019-09-10T15:15:15.900Z</time>
      </trkpt>
      <trkpt lat="10.1569308595327" lon="-75.6818148888859">
        <ele>52.321895</ele>
        <time>2019-09-10T15:15:16.000Z</time>
      </trkpt>
      <trkpt lat="10.1569290882025" lon="-75.6818128036811">
        <ele>52.321895</ele>
        <time>2019-09-10T15:15:16.100Z</time>
      </trkpt>
      <trkpt lat="10.1569273293788" lon="-75.681810711792">
        <ele>52.321895</ele>
        <time>2019-09-10T15:15:16.200Z</time>
      </trkpt>
      <trkpt lat="10.1569255924413" lon="-75.6818086342114">
        <ele>52.321895</ele>
        <time>2019-09-10T15:15:16.300Z</time>
      </trkpt>
      <trkpt lat="10.1569238678019" lon="-75.6818065631409">
        <ele>52.321895</ele>
        <time>2019-09-10T15:15:16.400Z</time>
      </trkpt>
      <trkpt lat="10.1569221441004" lon="-75.6818045042205">
        <ele>52.321895</ele>
        <time>2019-09-10T15:15:16.500Z</time>
      </trkpt>
      <trkpt lat="10.1569204068503" lon="-75.6818024382676">
        <ele>52.321895</ele>
        <time>2019-09-10T15:15:16.600Z</time>
      </trkpt>
      <trkpt lat="10.1569186673074" lon="-75.6818003841863">
        <ele>52.321895</ele>
        <time>2019-09-10T15:15:16.700Z</time>
      </trkpt>
      <trkpt lat="10.1569169208859" lon="-75.6817983217148">
        <ele>52.321895</ele>
        <time>2019-09-10T15:15:16.800Z</time>
      </trkpt>
      <trkpt lat="10.1569151571638" lon="-75.6817962738651">
        <ele>52.321895</ele>
        <time>2019-09-10T15:15:16.900Z</time>
      </trkpt>
      <trkpt lat="10.1569133846871" lon="-75.681794216755">
        <ele>52.321895</ele>
        <time>2019-09-10T15:15:17.000Z</time>
      </trkpt>
      <trkpt lat="10.156911623779" lon="-75.6817921524384">
        <ele>52.321895</ele>
        <time>2019-09-10T15:15:17.100Z</time>
      </trkpt>
      <trkpt lat="10.1569098731887" lon="-75.681790071829">
        <ele>52.321895</ele>
        <time>2019-09-10T15:15:17.200Z</time>
      </trkpt>
      <trkpt lat="10.1569081322908" lon="-75.6817879858931">
        <ele>52.321895</ele>
        <time>2019-09-10T15:15:17.300Z</time>
      </trkpt>
      <trkpt lat="10.1569063949365" lon="-75.6817858909752">
        <ele>52.321895</ele>
        <time>2019-09-10T15:15:17.400Z</time>
      </trkpt>
      <trkpt lat="10.1569046643565" lon="-75.681783806014">
        <ele>52.321895</ele>
        <time>2019-09-10T15:15:17.500Z</time>
      </trkpt>
      <trkpt lat="10.1569029326301" lon="-75.6817817223758">
        <ele>52.321895</ele>
        <time>2019-09-10T15:15:17.600Z</time>
      </trkpt>
      <trkpt lat="10.1569011846453" lon="-75.6817796075444">
        <ele>52.321895</ele>
        <time>2019-09-10T15:15:17.700Z</time>
      </trkpt>
      <trkpt lat="10.1568994249878" lon="-75.6817774737048">
        <ele>52.321895</ele>
        <time>2019-09-10T15:15:17.800Z</time>
      </trkpt>
      <trkpt lat="10.1568959595547" lon="-75.6817731590617">
        <ele>52.321895</ele>
        <time>2019-09-10T15:15:18.000Z</time>
      </trkpt>
      <trkpt lat="10.1568942541961" lon="-75.6817710343084">
        <ele>52.321895</ele>
        <time>2019-09-10T15:15:18.100Z</time>
      </trkpt>
      <trkpt lat="10.1568925446686" lon="-75.6817689349692">
        <ele>52.321895</ele>
        <time>2019-09-10T15:15:18.200Z</time>
      </trkpt>
      <trkpt lat="10.1568908362875" lon="-75.6817668470489">
        <ele>52.321895</ele>
        <time>2019-09-10T15:15:18.300Z</time>
      </trkpt>
      <trkpt lat="10.1568891095637" lon="-75.6817647524791">
        <ele>52.321895</ele>
        <time>2019-09-10T15:15:18.400Z</time>
      </trkpt>
      <trkpt lat="10.156887382944" lon="-75.6817626641062">
        <ele>52.321895</ele>
        <time>2019-09-10T15:15:18.500Z</time>
      </trkpt>
      <trkpt lat="10.1568856440264" lon="-75.6817605655329">
        <ele>52.321895</ele>
        <time>2019-09-10T15:15:18.600Z</time>
      </trkpt>
      <trkpt lat="10.156883886766" lon="-75.6817584692225">
        <ele>52.321895</ele>
        <time>2019-09-10T15:15:18.700Z</time>
      </trkpt>
      <trkpt lat="10.1568821182497" lon="-75.6817563629901">
        <ele>52.321895</ele>
        <time>2019-09-10T15:15:18.800Z</time>
      </trkpt>
      <trkpt lat="10.1568803546319" lon="-75.6817542636857">
        <ele>52.321895</ele>
        <time>2019-09-10T15:15:18.900Z</time>
      </trkpt>
      <trkpt lat="10.1568785976841" lon="-75.6817521597859">
        <ele>52.321895</ele>
        <time>2019-09-10T15:15:19.000Z</time>
      </trkpt>
      <trkpt lat="10.1568768646028" lon="-75.6817500872184">
        <ele>52.321895</ele>
        <time>2019-09-10T15:15:19.100Z</time>
      </trkpt>
      <trkpt lat="10.1568751409013" lon="-75.6817480191071">
        <ele>52.321895</ele>
        <time>2019-09-10T15:15:19.200Z</time>
      </trkpt>
      <trkpt lat="10.1568734231404" lon="-75.6817459582719">
        <ele>52.321895</ele>
        <time>2019-09-10T15:15:19.300Z</time>
      </trkpt>
      <trkpt lat="10.1568716913098" lon="-75.6817438818401">
        <ele>52.321895</ele>
        <time>2019-09-10T15:15:19.400Z</time>
      </trkpt>
      <trkpt lat="10.1568699839709" lon="-75.6817418310313">
        <ele>52.321895</ele>
        <time>2019-09-10T15:15:19.500Z</time>
      </trkpt>
      <trkpt lat="10.1568682759026" lon="-75.6817397767062">
        <ele>52.321895</ele>
        <time>2019-09-10T15:15:19.600Z</time>
      </trkpt>
      <trkpt lat="10.1568665752338" lon="-75.6817377169154">
        <ele>52.321895</ele>
        <time>2019-09-10T15:15:19.700Z</time>
      </trkpt>
      <trkpt lat="10.1568648596615" lon="-75.6817356327202">
        <ele>52.321895</ele>
        <time>2019-09-10T15:15:19.800Z</time>
      </trkpt>
      <trkpt lat="10.1568631475286" lon="-75.6817335387771">
        <ele>52.321895</ele>
        <time>2019-09-10T15:15:19.900Z</time>
      </trkpt>
      <trkpt lat="10.1568614252862" lon="-75.6817314325099">
        <ele>52.321895</ele>
        <time>2019-09-10T15:15:20.000Z</time>
      </trkpt>
      <trkpt lat="10.1568596986666" lon="-75.6817293223784">
        <ele>52.321895</ele>
        <time>2019-09-10T15:15:20.100Z</time>
      </trkpt>
      <trkpt lat="10.1568579641262" lon="-75.6817272095315">
        <ele>52.321895</ele>
        <time>2019-09-10T15:15:20.200Z</time>
      </trkpt>
      <trkpt lat="10.1568562673136" lon="-75.68172512182">
        <ele>52.321895</ele>
        <time>2019-09-10T15:15:20.300Z</time>
      </trkpt>
      <trkpt lat="10.156854582799" lon="-75.6817230474771">
        <ele>52.321895</ele>
        <time>2019-09-10T15:15:20.400Z</time>
      </trkpt>
      <trkpt lat="10.1568529015153" lon="-75.6817209792614">
        <ele>52.321895</ele>
        <time>2019-09-10T15:15:20.500Z</time>
      </trkpt>
      <trkpt lat="10.1568511956355" lon="-75.6817188946483">
        <ele>52.321895</ele>
        <time>2019-09-10T15:15:20.600Z</time>
      </trkpt>
      <trkpt lat="10.1568495049719" lon="-75.6817168074939">
        <ele>52.321895</ele>
        <time>2019-09-10T15:15:20.700Z</time>
      </trkpt>
      <trkpt lat="10.1568478062833" lon="-75.6817147079806">
        <ele>52.321895</ele>
        <time>2019-09-10T15:15:20.800Z</time>
      </trkpt>
      <trkpt lat="10.1568460956094" lon="-75.6817126105213">
        <ele>52.321895</ele>
        <time>2019-09-10T15:15:20.900Z</time>
      </trkpt>
      <trkpt lat="10.1568443630493" lon="-75.6817105085711">
        <ele>52.321895</ele>
        <time>2019-09-10T15:15:21.000Z</time>
      </trkpt>
      <trkpt lat="10.156842639452" lon="-75.6817083890747">
        <ele>52.321895</ele>
        <time>2019-09-10T15:15:21.100Z</time>
      </trkpt>
      <trkpt lat="10.1568409182518" lon="-75.6817062579853">
        <ele>52.321895</ele>
        <time>2019-09-10T15:15:21.200Z</time>
      </trkpt>
      <trkpt lat="10.1568391561973" lon="-75.6817040777389">
        <ele>52.321895</ele>
        <time>2019-09-10T15:15:21.300Z</time>
      </trkpt>
      <trkpt lat="10.156837370172" lon="-75.6817018981191">
        <ele>52.321895</ele>
        <time>2019-09-10T15:15:21.400Z</time>
      </trkpt>
      <trkpt lat="10.1568356181226" lon="-75.6816997708941">
        <ele>52.321895</ele>
        <time>2019-09-10T15:15:21.500Z</time>
      </trkpt>
      <trkpt lat="10.1568338934832" lon="-75.6816976912943">
        <ele>52.321895</ele>
        <time>2019-09-10T15:15:21.600Z</time>
      </trkpt>
      <trkpt lat="10.1568321728041" lon="-75.6816956252022">
        <ele>52.321895</ele>
        <time>2019-09-10T15:15:21.700Z</time>
      </trkpt>
      <trkpt lat="10.1568304331569" lon="-75.6816935439313">
        <ele>52.321895</ele>
        <time>2019-09-10T15:15:21.800Z</time>
      </trkpt>
      <trkpt lat="10.1568286746458" lon="-75.6816914449054">
        <ele>52.321895</ele>
        <time>2019-09-10T15:15:21.900Z</time>
      </trkpt>
      <trkpt lat="10.1568268966455" lon="-75.6816893215795">
        <ele>52.321895</ele>
        <time>2019-09-10T15:15:22.000Z</time>
      </trkpt>
      <trkpt lat="10.156825125628" lon="-75.681687201909">
        <ele>52.321895</ele>
        <time>2019-09-10T15:15:22.100Z</time>
      </trkpt>
      <trkpt lat="10.1568233594046" lon="-75.6816850885398">
        <ele>52.321895</ele>
        <time>2019-09-10T15:15:22.200Z</time>
      </trkpt>
      <trkpt lat="10.1568216047497" lon="-75.6816829830038">
        <ele>52.321895</ele>
        <time>2019-09-10T15:15:22.300Z</time>
      </trkpt>
      <trkpt lat="10.1568198496779" lon="-75.6816808821327">
        <ele>52.321895</ele>
        <time>2019-09-10T15:15:22.400Z</time>
      </trkpt>
      <trkpt lat="10.1568181304579" lon="-75.6816788102615">
        <ele>52.321895</ele>
        <time>2019-09-10T15:15:22.500Z</time>
      </trkpt>
      <trkpt lat="10.156816419784" lon="-75.6816767520025">
        <ele>52.321895</ele>
        <time>2019-09-10T15:15:22.600Z</time>
      </trkpt>
      <trkpt lat="10.1568146895167" lon="-75.6816747022033">
        <ele>52.321895</ele>
        <time>2019-09-10T15:15:22.700Z</time>
      </trkpt>
      <trkpt lat="10.1568129270452" lon="-75.6816726357282">
        <ele>52.321895</ele>
        <time>2019-09-10T15:15:22.800Z</time>
      </trkpt>
      <trkpt lat="10.156811172703" lon="-75.6816705642748">
        <ele>52.321895</ele>
        <time>2019-09-10T15:15:22.900Z</time>
      </trkpt>
      <trkpt lat="10.1568076987239" lon="-75.6816663861017">
        <ele>52.321895</ele>
        <time>2019-09-10T15:15:23.100Z</time>
      </trkpt>
      <trkpt lat="10.1568059687692" lon="-75.6816642809486">
        <ele>52.321895</ele>
        <time>2019-09-10T15:15:23.200Z</time>
      </trkpt>
      <trkpt lat="10.1568042413158" lon="-75.6816621874232">
        <ele>52.321895</ele>
        <time>2019-09-10T15:15:23.300Z</time>
      </trkpt>
      <trkpt lat="10.1568007706717" lon="-75.6816580228623">
        <ele>52.321895</ele>
        <time>2019-09-10T15:15:23.500Z</time>
      </trkpt>
      <trkpt lat="10.1567990268557" lon="-75.6816559348027">
        <ele>52.321895</ele>
        <time>2019-09-10T15:15:23.600Z</time>
      </trkpt>
      <trkpt lat="10.1567972824144" lon="-75.6816538462905">
        <ele>52.321895</ele>
        <time>2019-09-10T15:15:23.700Z</time>
      </trkpt>
      <trkpt lat="10.1567955375562" lon="-75.6816517551325">
        <ele>52.321895</ele>
        <time>2019-09-10T15:15:23.800Z</time>
      </trkpt>
      <trkpt lat="10.1567937737299" lon="-75.6816496388738">
        <ele>52.321895</ele>
        <time>2019-09-10T15:15:23.900Z</time>
      </trkpt>
      <trkpt lat="10.1567920023997" lon="-75.6816475190293">
        <ele>52.321895</ele>
        <time>2019-09-10T15:15:24.000Z</time>
      </trkpt>
      <trkpt lat="10.1567885278995" lon="-75.681643350221">
        <ele>52.321895</ele>
        <time>2019-09-10T15:15:24.200Z</time>
      </trkpt>
      <trkpt lat="10.1567868075331" lon="-75.6816412691938">
        <ele>52.321895</ele>
        <time>2019-09-10T15:15:24.300Z</time>
      </trkpt>
      <trkpt lat="10.1567850802881" lon="-75.6816391763996">
        <ele>52.321895</ele>
        <time>2019-09-10T15:15:24.400Z</time>
      </trkpt>
      <trkpt lat="10.15678338087" lon="-75.681637114694">
        <ele>52.321895</ele>
        <time>2019-09-10T15:15:24.500Z</time>
      </trkpt>
      <trkpt lat="10.1567816869756" lon="-75.681635063537">
        <ele>52.321895</ele>
        <time>2019-09-10T15:15:24.600Z</time>
      </trkpt>
      <trkpt lat="10.156780000585" lon="-75.6816330326069">
        <ele>52.321895</ele>
        <time>2019-09-10T15:15:24.700Z</time>
      </trkpt>
      <trkpt lat="10.1567783003332" lon="-75.6816309852098">
        <ele>52.321895</ele>
        <time>2019-09-10T15:15:24.800Z</time>
      </trkpt>
      <trkpt lat="10.1567749807045" lon="-75.6816269151333">
        <ele>52.321895</ele>
        <time>2019-09-10T15:15:25.000Z</time>
      </trkpt>
      <trkpt lat="10.1567733342304" lon="-75.6816248699991">
        <ele>52.321895</ele>
        <time>2019-09-10T15:15:25.100Z</time>
      </trkpt>
      <trkpt lat="10.1567700092864" lon="-75.681620738546">
        <ele>52.321895</ele>
        <time>2019-09-10T15:15:25.300Z</time>
      </trkpt>
      <trkpt lat="10.1567683325884" lon="-75.681618666466">
        <ele>52.321895</ele>
        <time>2019-09-10T15:15:25.400Z</time>
      </trkpt>
      <trkpt lat="10.1567666531806" lon="-75.6816165989465">
        <ele>52.321895</ele>
        <time>2019-09-10T15:15:25.500Z</time>
      </trkpt>
      <trkpt lat="10.1567649593904" lon="-75.6816145180586">
        <ele>52.321895</ele>
        <time>2019-09-10T15:15:25.600Z</time>
      </trkpt>
      <trkpt lat="10.1567632596597" lon="-75.6816124015213">
        <ele>52.321895</ele>
        <time>2019-09-10T15:15:25.700Z</time>
      </trkpt>
      <trkpt lat="10.1567615405439" lon="-75.6816102583516">
        <ele>52.321895</ele>
        <time>2019-09-10T15:15:25.800Z</time>
      </trkpt>
      <trkpt lat="10.1567597967279" lon="-75.68160810338">
        <ele>52.321895</ele>
        <time>2019-09-10T15:15:25.900Z</time>
      </trkpt>
      <trkpt lat="10.1567580389464" lon="-75.681605956137">
        <ele>52.321895</ele>
        <time>2019-09-10T15:15:26.000Z</time>
      </trkpt>
      <trkpt lat="10.156756296381" lon="-75.6816038244558">
        <ele>52.321895</ele>
        <time>2019-09-10T15:15:26.100Z</time>
      </trkpt>
      <trkpt lat="10.1567545642377" lon="-75.6816017054468">
        <ele>52.321895</ele>
        <time>2019-09-10T15:15:26.200Z</time>
      </trkpt>
      <trkpt lat="10.1567528304269" lon="-75.6815995797187">
        <ele>52.321895</ele>
        <time>2019-09-10T15:15:26.300Z</time>
      </trkpt>
      <trkpt lat="10.1567510872362" lon="-75.6815974494649">
        <ele>52.321895</ele>
        <time>2019-09-10T15:15:26.400Z</time>
      </trkpt>
      <trkpt lat="10.1567475466602" lon="-75.6815931666764">
        <ele>52.321895</ele>
        <time>2019-09-10T15:15:26.600Z</time>
      </trkpt>
      <trkpt lat="10.1567440488146" lon="-75.681588924794">
        <ele>52.321895</ele>
        <time>2019-09-10T15:15:26.800Z</time>
      </trkpt>
      <trkpt lat="10.1567423166713" lon="-75.6815868260815">
        <ele>52.321895</ele>
        <time>2019-09-10T15:15:26.900Z</time>
      </trkpt>
      <trkpt lat="10.1567388452977" lon="-75.681582619918">
        <ele>52.321895</ele>
        <time>2019-09-10T15:15:27.100Z</time>
      </trkpt>
      <trkpt lat="10.1567371094025" lon="-75.6815805024757">
        <ele>52.321895</ele>
        <time>2019-09-10T15:15:27.200Z</time>
      </trkpt>
      <trkpt lat="10.1567353895572" lon="-75.6815783940152">
        <ele>52.321895</ele>
        <time>2019-09-10T15:15:27.300Z</time>
      </trkpt>
      <trkpt lat="10.1567336645008" lon="-75.6815762973218">
        <ele>52.321895</ele>
        <time>2019-09-10T15:15:27.400Z</time>
      </trkpt>
      <trkpt lat="10.1567302212667" lon="-75.6815721288443">
        <ele>52.321895</ele>
        <time>2019-09-10T15:15:27.600Z</time>
      </trkpt>
      <trkpt lat="10.1567267661515" lon="-75.6815679565895">
        <ele>52.321895</ele>
        <time>2019-09-10T15:15:27.800Z</time>
      </trkpt>
      <trkpt lat="10.1567250346335" lon="-75.6815658535948">
        <ele>52.321895</ele>
        <time>2019-09-10T15:15:27.900Z</time>
      </trkpt>
      <trkpt lat="10.1567215559645" lon="-75.6815616118343">
        <ele>52.321895</ele>
        <time>2019-09-10T15:15:28.100Z</time>
      </trkpt>
      <trkpt lat="10.1567198194439" lon="-75.6815594822245">
        <ele>52.321895</ele>
        <time>2019-09-10T15:15:28.200Z</time>
      </trkpt>
      <trkpt lat="10.1567180816727" lon="-75.681557333972">
        <ele>52.321895</ele>
        <time>2019-09-10T15:15:28.300Z</time>
      </trkpt>
      <trkpt lat="10.1567163361892" lon="-75.6815551804277">
        <ele>52.321895</ele>
        <time>2019-09-10T15:15:28.400Z</time>
      </trkpt>
      <trkpt lat="10.1567145898719" lon="-75.6815530316008">
        <ele>52.321895</ele>
        <time>2019-09-10T15:15:28.500Z</time>
      </trkpt>
      <trkpt lat="10.1567128416786" lon="-75.6815508928001">
        <ele>52.321895</ele>
        <time>2019-09-10T15:15:28.600Z</time>
      </trkpt>
      <trkpt lat="10.1567093757245" lon="-75.6815465991671">
        <ele>52.321895</ele>
        <time>2019-09-10T15:15:28.800Z</time>
      </trkpt>
      <trkpt lat="10.1567076604649" lon="-75.6815444571114">
        <ele>52.321895</ele>
        <time>2019-09-10T15:15:28.900Z</time>
      </trkpt>
      <trkpt lat="10.1567059443715" lon="-75.6815423241943">
        <ele>52.321895</ele>
        <time>2019-09-10T15:15:29.000Z</time>
      </trkpt>
      <trkpt lat="10.1567042489138" lon="-75.6815402130881">
        <ele>52.321895</ele>
        <time>2019-09-10T15:15:29.100Z</time>
      </trkpt>
      <trkpt lat="10.1567008492438" lon="-75.6815360038958">
        <ele>52.321895</ele>
        <time>2019-09-10T15:15:29.300Z</time>
      </trkpt>
      <trkpt lat="10.1566991264804" lon="-75.6815338854438">
        <ele>52.321895</ele>
        <time>2019-09-10T15:15:29.400Z</time>
      </trkpt>
      <trkpt lat="10.1566974166402" lon="-75.6815317707517">
        <ele>52.321895</ele>
        <time>2019-09-10T15:15:29.500Z</time>
      </trkpt>
      <trkpt lat="10.1566957020059" lon="-75.681529663005">
        <ele>52.321895</ele>
        <time>2019-09-10T15:15:29.600Z</time>
      </trkpt>
      <trkpt lat="10.1566939700711" lon="-75.6815275632132">
        <ele>52.321895</ele>
        <time>2019-09-10T15:15:29.700Z</time>
      </trkpt>
      <trkpt lat="10.1566922231285" lon="-75.6815254629514">
        <ele>52.321895</ele>
        <time>2019-09-10T15:15:29.800Z</time>
      </trkpt>
      <trkpt lat="10.1566904707664" lon="-75.6815233484334">
        <ele>52.321895</ele>
        <time>2019-09-10T15:15:29.900Z</time>
      </trkpt>
      <trkpt lat="10.1566887171537" lon="-75.6815212231405">
        <ele>52.321895</ele>
        <time>2019-09-10T15:15:30.000Z</time>
      </trkpt>
      <trkpt lat="10.1566869462404" lon="-75.6815190979869">
        <ele>52.321895</ele>
        <time>2019-09-10T15:15:30.100Z</time>
      </trkpt>
      <trkpt lat="10.1566833989943" lon="-75.6815148599166">
        <ele>52.321895</ele>
        <time>2019-09-10T15:15:30.300Z</time>
      </trkpt>
      <trkpt lat="10.1566816374608" lon="-75.6815127414124">
        <ele>52.321895</ele>
        <time>2019-09-10T15:15:30.400Z</time>
      </trkpt>
      <trkpt lat="10.1566799013571" lon="-75.6815106486878">
        <ele>52.321895</ele>
        <time>2019-09-10T15:15:30.500Z</time>
      </trkpt>
      <trkpt lat="10.1566781758839" lon="-75.6815085587483">
        <ele>52.321895</ele>
        <time>2019-09-10T15:15:30.600Z</time>
      </trkpt>
      <trkpt lat="10.1566764379043" lon="-75.6815064296607">
        <ele>52.321895</ele>
        <time>2019-09-10T15:15:30.700Z</time>
      </trkpt>
      <trkpt lat="10.1566746732442" lon="-75.6815042671867">
        <ele>52.321895</ele>
        <time>2019-09-10T15:15:30.800Z</time>
      </trkpt>
      <trkpt lat="10.1566729146289" lon="-75.6815020905958">
        <ele>52.321895</ele>
        <time>2019-09-10T15:15:30.900Z</time>
      </trkpt>
      <trkpt lat="10.1566711551799" lon="-75.6814999216638">
        <ele>52.321895</ele>
        <time>2019-09-10T15:15:31.000Z</time>
      </trkpt>
      <trkpt lat="10.1566676577511" lon="-75.6814955999187">
        <ele>52.321895</ele>
        <time>2019-09-10T15:15:31.200Z</time>
      </trkpt>
      <trkpt lat="10.1566659012203" lon="-75.6814934483067">
        <ele>52.321895</ele>
        <time>2019-09-10T15:15:31.300Z</time>
      </trkpt>
      <trkpt lat="10.1566641340589" lon="-75.681491305781">
        <ele>52.321895</ele>
        <time>2019-09-10T15:15:31.400Z</time>
      </trkpt>
      <trkpt lat="10.1566623741929" lon="-75.6814891640734">
        <ele>52.321895</ele>
        <time>2019-09-10T15:15:31.500Z</time>
      </trkpt>
      <trkpt lat="10.1566606216224" lon="-75.6814870289282">
        <ele>52.321895</ele>
        <time>2019-09-10T15:15:31.600Z</time>
      </trkpt>
      <trkpt lat="10.1566588384111" lon="-75.6814848887524">
        <ele>52.321895</ele>
        <time>2019-09-10T15:15:31.700Z</time>
      </trkpt>
      <trkpt lat="10.156657036857" lon="-75.6814827531547">
        <ele>52.321895</ele>
        <time>2019-09-10T15:15:31.800Z</time>
      </trkpt>
      <trkpt lat="10.1566552651099" lon="-75.6814806559565">
        <ele>52.321895</ele>
        <time>2019-09-10T15:15:31.900Z</time>
      </trkpt>
      <trkpt lat="10.1566535164998" lon="-75.6814785837198">
        <ele>52.321895</ele>
        <time>2019-09-10T15:15:32.000Z</time>
      </trkpt>
      <trkpt lat="10.1566517653884" lon="-75.68147650318">
        <ele>52.321895</ele>
        <time>2019-09-10T15:15:32.100Z</time>
      </trkpt>
      <trkpt lat="10.1566500028127" lon="-75.6814743986361">
        <ele>52.321895</ele>
        <time>2019-09-10T15:15:32.200Z</time>
      </trkpt>
      <trkpt lat="10.1566482500338" lon="-75.6814723198196">
        <ele>52.321895</ele>
        <time>2019-09-10T15:15:32.300Z</time>
      </trkpt>
      <trkpt lat="10.1566464993392" lon="-75.6814702568781">
        <ele>52.321895</ele>
        <time>2019-09-10T15:15:32.400Z</time>
      </trkpt>
      <trkpt lat="10.1566429691853" lon="-75.6814660619595">
        <ele>52.321895</ele>
        <time>2019-09-10T15:15:32.600Z</time>
      </trkpt>
      <trkpt lat="10.1566412101531" lon="-75.6814639674246">
        <ele>52.321895</ele>
        <time>2019-09-10T15:15:32.700Z</time>
      </trkpt>
      <trkpt lat="10.1566394602923" lon="-75.6814618804269">
        <ele>52.321895</ele>
        <time>2019-09-10T15:15:32.800Z</time>
      </trkpt>
      <trkpt lat="10.1566377231464" lon="-75.6814598090953">
        <ele>52.321895</ele>
        <time>2019-09-10T15:15:32.900Z</time>
      </trkpt>
      <trkpt lat="10.1566359847499" lon="-75.6814577322284">
        <ele>52.321895</ele>
        <time>2019-09-10T15:15:33.000Z</time>
      </trkpt>
      <trkpt lat="10.1566325029542" lon="-75.6814535973287">
        <ele>52.321895</ele>
        <time>2019-09-10T15:15:33.200Z</time>
      </trkpt>
      <trkpt lat="10.1566307716447" lon="-75.6814515581128">
        <ele>52.321895</ele>
        <time>2019-09-10T15:15:33.300Z</time>
      </trkpt>
      <trkpt lat="10.1566291155823" lon="-75.681449557575">
        <ele>52.321895</ele>
        <time>2019-09-10T15:15:33.400Z</time>
      </trkpt>
      <trkpt lat="10.1566276496179" lon="-75.6814476047321">
        <ele>52.321895</ele>
        <time>2019-09-10T15:15:33.500Z</time>
      </trkpt>
      <trkpt lat="10.1566263802133" lon="-75.6814456751622">
        <ele>52.321895</ele>
        <time>2019-09-10T15:15:33.600Z</time>
      </trkpt>
      <trkpt lat="10.1566253642726" lon="-75.6814437892487">
        <ele>52.321895</ele>
        <time>2019-09-10T15:15:33.700Z</time>
      </trkpt>
      <trkpt lat="10.1566245746988" lon="-75.6814419101935">
        <ele>52.321895</ele>
        <time>2019-09-10T15:15:33.800Z</time>
      </trkpt>
      <trkpt lat="10.1566240992452" lon="-75.6814400871885">
        <ele>52.321895</ele>
        <time>2019-09-10T15:15:33.900Z</time>
      </trkpt>
      <trkpt lat="10.1566238893453" lon="-75.6814382797626">
        <ele>52.321895</ele>
        <time>2019-09-10T15:15:34.000Z</time>
      </trkpt>
      <trkpt lat="10.1566240064891" lon="-75.6814365540794">
        <ele>52.321895</ele>
        <time>2019-09-10T15:15:34.100Z</time>
      </trkpt>
      <trkpt lat="10.1566243914793" lon="-75.681434840233">
        <ele>52.321895</ele>
        <time>2019-09-10T15:15:34.200Z</time>
      </trkpt>
      <trkpt lat="10.1566251262332" lon="-75.6814331992168">
        <ele>52.321895</ele>
        <time>2019-09-10T15:15:34.300Z</time>
      </trkpt>
      <trkpt lat="10.1566261494693" lon="-75.6814315310286">
        <ele>52.321895</ele>
        <time>2019-09-10T15:15:34.400Z</time>
      </trkpt>
      <trkpt lat="10.156629202919" lon="-75.681428413883">
        <ele>52.321895</ele>
        <time>2019-09-10T15:15:34.600Z</time>
      </trkpt>
      <trkpt lat="10.1566311420441" lon="-75.6814270318378">
        <ele>52.321895</ele>
        <time>2019-09-10T15:15:34.700Z</time>
      </trkpt>
      <trkpt lat="10.1566332247848" lon="-75.6814256545881">
        <ele>52.321895</ele>
        <time>2019-09-10T15:15:34.800Z</time>
      </trkpt>
      <trkpt lat="10.1566354052844" lon="-75.6814243938514">
        <ele>52.321895</ele>
        <time>2019-09-10T15:15:34.900Z</time>
      </trkpt>
      <trkpt lat="10.1566376564454" lon="-75.6814230665769">
        <ele>52.321895</ele>
        <time>2019-09-10T15:15:35.000Z</time>
      </trkpt>
      <trkpt lat="10.1566399015616" lon="-75.6814218330732">
        <ele>52.321895</ele>
        <time>2019-09-10T15:15:35.100Z</time>
      </trkpt>
      <trkpt lat="10.1566421750257" lon="-75.6814205338151">
        <ele>52.321895</ele>
        <time>2019-09-10T15:15:35.200Z</time>
      </trkpt>
      <trkpt lat="10.156644414514" lon="-75.6814192813379">
        <ele>52.421895</ele>
        <time>2019-09-10T15:15:35.300Z</time>
      </trkpt>
      <trkpt lat="10.1566467015268" lon="-75.6814179192931">
        <ele>52.421895</ele>
        <time>2019-09-10T15:15:35.400Z</time>
      </trkpt>
      <trkpt lat="10.1566489541469" lon="-75.6814165775013">
        <ele>52.421895</ele>
        <time>2019-09-10T15:15:35.500Z</time>
      </trkpt>
      <trkpt lat="10.1566512613784" lon="-75.6814151403371">
        <ele>52.421895</ele>
        <time>2019-09-10T15:15:35.600Z</time>
      </trkpt>
      <trkpt lat="10.1566535429718" lon="-75.6814136929464">
        <ele>52.421895</ele>
        <time>2019-09-10T15:15:35.700Z</time>
      </trkpt>
      <trkpt lat="10.1566558683377" lon="-75.6814121559103">
        <ele>52.421895</ele>
        <time>2019-09-10T15:15:35.800Z</time>
      </trkpt>
      <trkpt lat="10.1566581601446" lon="-75.6814105741559">
        <ele>52.421895</ele>
        <time>2019-09-10T15:15:35.900Z</time>
      </trkpt>
      <trkpt lat="10.1566604700859" lon="-75.6814089241318">
        <ele>52.421895</ele>
        <time>2019-09-10T15:15:36.000Z</time>
      </trkpt>
      <trkpt lat="10.1566650580771" lon="-75.6814055635423">
        <ele>52.421895</ele>
        <time>2019-09-10T15:15:36.200Z</time>
      </trkpt>
      <trkpt lat="10.156667364058" lon="-75.6814038214444">
        <ele>52.321895</ele>
        <time>2019-09-10T15:15:36.300Z</time>
      </trkpt>
      <trkpt lat="10.1566696773344" lon="-75.6814020450899">
        <ele>52.321895</ele>
        <time>2019-09-10T15:15:36.400Z</time>
      </trkpt>
      <trkpt lat="10.1566719389174" lon="-75.6814002278465">
        <ele>52.321895</ele>
        <time>2019-09-10T15:15:36.500Z</time>
      </trkpt>
      <trkpt lat="10.1566741748622" lon="-75.6813984011512">
        <ele>52.321895</ele>
        <time>2019-09-10T15:15:36.600Z</time>
      </trkpt>
      <trkpt lat="10.1566764166433" lon="-75.681396537301">
        <ele>52.321895</ele>
        <time>2019-09-10T15:15:36.700Z</time>
      </trkpt>
      <trkpt lat="10.1566786773926" lon="-75.6813946663574">
        <ele>52.321895</ele>
        <time>2019-09-10T15:15:36.800Z</time>
      </trkpt>
      <trkpt lat="10.1566809981728" lon="-75.6813927083968">
        <ele>52.321895</ele>
        <time>2019-09-10T15:15:36.900Z</time>
      </trkpt>
      <trkpt lat="10.1566833214543" lon="-75.6813907455449">
        <ele>52.321895</ele>
        <time>2019-09-10T15:15:37.000Z</time>
      </trkpt>
      <trkpt lat="10.1566856143035" lon="-75.6813888142604">
        <ele>52.321895</ele>
        <time>2019-09-10T15:15:37.100Z</time>
      </trkpt>
      <trkpt lat="10.1566878640054" lon="-75.6813869190604">
        <ele>52.321895</ele>
        <time>2019-09-10T15:15:37.200Z</time>
      </trkpt>
      <trkpt lat="10.1566901114144" lon="-75.6813849915096">
        <ele>52.321895</ele>
        <time>2019-09-10T15:15:37.300Z</time>
      </trkpt>
      <trkpt lat="10.1566923465254" lon="-75.681383045612">
        <ele>52.321895</ele>
        <time>2019-09-10T15:15:37.400Z</time>
      </trkpt>
      <trkpt lat="10.1566945912248" lon="-75.6813810720984">
        <ele>52.321895</ele>
        <time>2019-09-10T15:15:37.500Z</time>
      </trkpt>
      <trkpt lat="10.1566968192488" lon="-75.6813791040245">
        <ele>52.321895</ele>
        <time>2019-09-10T15:15:37.600Z</time>
      </trkpt>
      <trkpt lat="10.1566990428956" lon="-75.681377097725">
        <ele>52.321895</ele>
        <time>2019-09-10T15:15:37.700Z</time>
      </trkpt>
      <trkpt lat="10.156701239862" lon="-75.6813750921218">
        <ele>52.321895</ele>
        <time>2019-09-10T15:15:37.800Z</time>
      </trkpt>
      <trkpt lat="10.1567034372452" lon="-75.6813730579017">
        <ele>52.321895</ele>
        <time>2019-09-10T15:15:37.900Z</time>
      </trkpt>
      <trkpt lat="10.1567056148266" lon="-75.6813710420111">
        <ele>52.321895</ele>
        <time>2019-09-10T15:15:38.000Z</time>
      </trkpt>
      <trkpt lat="10.1567078113761" lon="-75.6813689598959">
        <ele>52.321895</ele>
        <time>2019-09-10T15:15:38.100Z</time>
      </trkpt>
      <trkpt lat="10.1567099866646" lon="-75.6813668918021">
        <ele>52.321895</ele>
        <time>2019-09-10T15:15:38.200Z</time>
      </trkpt>
      <trkpt lat="10.1567141779928" lon="-75.6813628601948">
        <ele>52.321895</ele>
        <time>2019-09-10T15:15:38.400Z</time>
      </trkpt>
      <trkpt lat="10.1567161846527" lon="-75.6813609960138">
        <ele>52.321895</ele>
        <time>2019-09-10T15:15:38.500Z</time>
      </trkpt>
      <trkpt lat="10.156718156503" lon="-75.6813593161804">
        <ele>52.421895</ele>
        <time>2019-09-10T15:15:38.600Z</time>
      </trkpt>
      <trkpt lat="10.1567200872904" lon="-75.6813578324615">
        <ele>52.421895</ele>
        <time>2019-09-10T15:15:38.700Z</time>
      </trkpt>
      <trkpt lat="10.156721977015" lon="-75.6813565998674">
        <ele>52.421895</ele>
        <time>2019-09-10T15:15:38.800Z</time>
      </trkpt>
      <trkpt lat="10.1567237981625" lon="-75.6813556680815">
        <ele>52.421895</ele>
        <time>2019-09-10T15:15:38.900Z</time>
      </trkpt>
      <trkpt lat="10.15672557387" lon="-75.6813550443408">
        <ele>52.421895</ele>
        <time>2019-09-10T15:15:39.000Z</time>
      </trkpt>
      <trkpt lat="10.1567272482752" lon="-75.6813547730154">
        <ele>52.421895</ele>
        <time>2019-09-10T15:15:39.100Z</time>
      </trkpt>
      <trkpt lat="10.1567288887045" lon="-75.6813548146179">
        <ele>52.421895</ele>
        <time>2019-09-10T15:15:39.200Z</time>
      </trkpt>
      <trkpt lat="10.1567304238712" lon="-75.6813551780648">
        <ele>52.321895</ele>
        <time>2019-09-10T15:15:39.300Z</time>
      </trkpt>
      <trkpt lat="10.1567319452809" lon="-75.6813558349177">
        <ele>52.321895</ele>
        <time>2019-09-10T15:15:39.400Z</time>
      </trkpt>
      <trkpt lat="10.1567333153624" lon="-75.6813567966173">
        <ele>52.321895</ele>
        <time>2019-09-10T15:15:39.500Z</time>
      </trkpt>
      <trkpt lat="10.1567346837765" lon="-75.6813580483721">
        <ele>52.321895</ele>
        <time>2019-09-10T15:15:39.600Z</time>
      </trkpt>
      <trkpt lat="10.1567358964853" lon="-75.6813595714349">
        <ele>52.321895</ele>
        <time>2019-09-10T15:15:39.700Z</time>
      </trkpt>
      <trkpt lat="10.1567371114869" lon="-75.6813613605661">
        <ele>52.421895</ele>
        <time>2019-09-10T15:15:39.800Z</time>
      </trkpt>
      <trkpt lat="10.1567382145558" lon="-75.6813633367517">
        <ele>52.421895</ele>
        <time>2019-09-10T15:15:39.900Z</time>
      </trkpt>
      <trkpt lat="10.1567394151749" lon="-75.6813654895561">
        <ele>52.421895</ele>
        <time>2019-09-10T15:15:40.000Z</time>
      </trkpt>
      <trkpt lat="10.1567405155341" lon="-75.6813676678965">
        <ele>52.421895</ele>
        <time>2019-09-10T15:15:40.100Z</time>
      </trkpt>
      <trkpt lat="10.1567416650853" lon="-75.681369912087">
        <ele>52.421895</ele>
        <time>2019-09-10T15:15:40.200Z</time>
      </trkpt>
      <trkpt lat="10.1567427867054" lon="-75.6813721386618">
        <ele>52.421895</ele>
        <time>2019-09-10T15:15:40.300Z</time>
      </trkpt>
      <trkpt lat="10.1567440513159" lon="-75.6813744650564">
        <ele>52.421895</ele>
        <time>2019-09-10T15:15:40.400Z</time>
      </trkpt>
      <trkpt lat="10.1567452894545" lon="-75.6813767209966">
        <ele>52.421895</ele>
        <time>2019-09-10T15:15:40.500Z</time>
      </trkpt>
      <trkpt lat="10.1567466082596" lon="-75.6813790214985">
        <ele>52.421895</ele>
        <time>2019-09-10T15:15:40.600Z</time>
      </trkpt>
      <trkpt lat="10.156747972088" lon="-75.6813812747667">
        <ele>52.421895</ele>
        <time>2019-09-10T15:15:40.700Z</time>
      </trkpt>
      <trkpt lat="10.1567494618146" lon="-75.6813836266101">
        <ele>52.421895</ele>
        <time>2019-09-10T15:15:40.800Z</time>
      </trkpt>
      <trkpt lat="10.1567509786385" lon="-75.6813859112543">
        <ele>52.421895</ele>
        <time>2019-09-10T15:15:40.900Z</time>
      </trkpt>
      <trkpt lat="10.1567541135886" lon="-75.6813905282549">
        <ele>52.421895</ele>
        <time>2019-09-10T15:15:41.100Z</time>
      </trkpt>
      <trkpt lat="10.1567557333823" lon="-75.6813928949115">
        <ele>52.421895</ele>
        <time>2019-09-10T15:15:41.200Z</time>
      </trkpt>
      <trkpt lat="10.1567574188349" lon="-75.6813952561198">
        <ele>52.421895</ele>
        <time>2019-09-10T15:15:41.300Z</time>
      </trkpt>
      <trkpt lat="10.1567591590032" lon="-75.6813976766856">
        <ele>52.421895</ele>
        <time>2019-09-10T15:15:41.400Z</time>
      </trkpt>
      <trkpt lat="10.1567609677485" lon="-75.6814000737695">
        <ele>52.421895</ele>
        <time>2019-09-10T15:15:41.500Z</time>
      </trkpt>
      <trkpt lat="10.1567628003603" lon="-75.6814024874857">
        <ele>52.421895</ele>
        <time>2019-09-10T15:15:41.600Z</time>
      </trkpt>
      <trkpt lat="10.1567646415182" lon="-75.6814048737773">
        <ele>52.421895</ele>
        <time>2019-09-10T15:15:41.700Z</time>
      </trkpt>
      <trkpt lat="10.1567664671472" lon="-75.6814072706784">
        <ele>52.421895</ele>
        <time>2019-09-10T15:15:41.800Z</time>
      </trkpt>
      <trkpt lat="10.1567683456159" lon="-75.6814096605124">
        <ele>52.421895</ele>
        <time>2019-09-10T15:15:41.900Z</time>
      </trkpt>
      <trkpt lat="10.1567702486807" lon="-75.6814120738978">
        <ele>52.421895</ele>
        <time>2019-09-10T15:15:42.000Z</time>
      </trkpt>
      <trkpt lat="10.1567722140693" lon="-75.6814145406614">
        <ele>52.421895</ele>
        <time>2019-09-10T15:15:42.100Z</time>
      </trkpt>
      <trkpt lat="10.1567741648671" lon="-75.6814170318643">
        <ele>52.421895</ele>
        <time>2019-09-10T15:15:42.200Z</time>
      </trkpt>
      <trkpt lat="10.1567761087863" lon="-75.6814194436222">
        <ele>52.421895</ele>
        <time>2019-09-10T15:15:42.300Z</time>
      </trkpt>
      <trkpt lat="10.156778015603" lon="-75.6814217941427">
        <ele>52.421895</ele>
        <time>2019-09-10T15:15:42.400Z</time>
      </trkpt>
      <trkpt lat="10.1567799631699" lon="-75.6814241566565">
        <ele>52.421895</ele>
        <time>2019-09-10T15:15:42.500Z</time>
      </trkpt>
      <trkpt lat="10.1567819082355" lon="-75.6814265445496">
        <ele>52.421895</ele>
        <time>2019-09-10T15:15:42.600Z</time>
      </trkpt>
      <trkpt lat="10.1567838726862" lon="-75.6814288971328">
        <ele>52.421895</ele>
        <time>2019-09-10T15:15:42.700Z</time>
      </trkpt>
      <trkpt lat="10.1567858072255" lon="-75.681431221691">
        <ele>52.421895</ele>
        <time>2019-09-10T15:15:42.800Z</time>
      </trkpt>
      <trkpt lat="10.1567877326977" lon="-75.6814335002166">
        <ele>52.421895</ele>
        <time>2019-09-10T15:15:42.900Z</time>
      </trkpt>
      <trkpt lat="10.1567896204421" lon="-75.6814357576625">
        <ele>52.421895</ele>
        <time>2019-09-10T15:15:43.000Z</time>
      </trkpt>
      <trkpt lat="10.1567915195465" lon="-75.6814379620871">
        <ele>52.421895</ele>
        <time>2019-09-10T15:15:43.100Z</time>
      </trkpt>
      <trkpt lat="10.1567934002039" lon="-75.6814401618118">
        <ele>52.421895</ele>
        <time>2019-09-10T15:15:43.200Z</time>
      </trkpt>
      <trkpt lat="10.1567952992041" lon="-75.6814423484639">
        <ele>52.321895</ele>
        <time>2019-09-10T15:15:43.300Z</time>
      </trkpt>
      <trkpt lat="10.1567971773602" lon="-75.6814445577276">
        <ele>52.321895</ele>
        <time>2019-09-10T15:15:43.400Z</time>
      </trkpt>
      <trkpt lat="10.1567990778195" lon="-75.6814467409331">
        <ele>52.321895</ele>
        <time>2019-09-10T15:15:43.500Z</time>
      </trkpt>
      <trkpt lat="10.1568009512857" lon="-75.681448920814">
        <ele>52.321895</ele>
        <time>2019-09-10T15:15:43.600Z</time>
      </trkpt>
      <trkpt lat="10.1568028171438" lon="-75.6814510817736">
        <ele>52.321895</ele>
        <time>2019-09-10T15:15:43.700Z</time>
      </trkpt>
      <trkpt lat="10.1568046353732" lon="-75.6814532513844">
        <ele>52.321895</ele>
        <time>2019-09-10T15:15:43.800Z</time>
      </trkpt>
      <trkpt lat="10.1568064817421" lon="-75.6814554122569">
        <ele>52.421895</ele>
        <time>2019-09-10T15:15:43.900Z</time>
      </trkpt>
      <trkpt lat="10.1568083115399" lon="-75.6814575812063">
        <ele>52.421895</ele>
        <time>2019-09-10T15:15:44.000Z</time>
      </trkpt>
      <trkpt lat="10.1568101534273" lon="-75.6814597295459">
        <ele>52.421895</ele>
        <time>2019-09-10T15:15:44.100Z</time>
      </trkpt>
      <trkpt lat="10.1568119560236" lon="-75.6814618730986">
        <ele>52.421895</ele>
        <time>2019-09-10T15:15:44.200Z</time>
      </trkpt>
      <trkpt lat="10.1568137608086" lon="-75.681464019506">
        <ele>52.321895</ele>
        <time>2019-09-10T15:15:44.300Z</time>
      </trkpt>
      <trkpt lat="10.1568155353696" lon="-75.6814661746517">
        <ele>52.321895</ele>
        <time>2019-09-10T15:15:44.400Z</time>
      </trkpt>
      <trkpt lat="10.1568173428643" lon="-75.6814682982213">
        <ele>52.321895</ele>
        <time>2019-09-10T15:15:44.500Z</time>
      </trkpt>
      <trkpt lat="10.1568191415002" lon="-75.6814704065251">
        <ele>52.321895</ele>
        <time>2019-09-10T15:15:44.600Z</time>
      </trkpt>
      <trkpt lat="10.1568210031895" lon="-75.6814725569709">
        <ele>52.321895</ele>
        <time>2019-09-10T15:15:44.700Z</time>
      </trkpt>
      <trkpt lat="10.1568228399701" lon="-75.6814747353025">
        <ele>52.321895</ele>
        <time>2019-09-10T15:15:44.800Z</time>
      </trkpt>
      <trkpt lat="10.1568246638274" lon="-75.681476870204">
        <ele>52.321895</ele>
        <time>2019-09-10T15:15:44.900Z</time>
      </trkpt>
      <trkpt lat="10.1568281618814" lon="-75.6814810376023">
        <ele>52.321895</ele>
        <time>2019-09-10T15:15:45.100Z</time>
      </trkpt>
      <trkpt lat="10.1568298573391" lon="-75.6814830984201">
        <ele>52.321895</ele>
        <time>2019-09-10T15:15:45.200Z</time>
      </trkpt>
      <trkpt lat="10.1568315516504" lon="-75.6814851441984">
        <ele>52.321895</ele>
        <time>2019-09-10T15:15:45.300Z</time>
      </trkpt>
      <trkpt lat="10.1568332474208" lon="-75.6814872149555">
        <ele>52.321895</ele>
        <time>2019-09-10T15:15:45.400Z</time>
      </trkpt>
      <trkpt lat="10.156834952571" lon="-75.6814892782799">
        <ele>52.321895</ele>
        <time>2019-09-10T15:15:45.500Z</time>
      </trkpt>
      <trkpt lat="10.1568383886139" lon="-75.6814934432761">
        <ele>52.321895</ele>
        <time>2019-09-10T15:15:45.700Z</time>
      </trkpt>
      <trkpt lat="10.1568401226332" lon="-75.6814955406483">
        <ele>52.321895</ele>
        <time>2019-09-10T15:15:45.800Z</time>
      </trkpt>
      <trkpt lat="10.1568436095356" lon="-75.681499746951">
        <ele>52.321895</ele>
        <time>2019-09-10T15:15:46.000Z</time>
      </trkpt>
      <trkpt lat="10.1568453378228" lon="-75.6815018534967">
        <ele>52.321895</ele>
        <time>2019-09-10T15:15:46.100Z</time>
      </trkpt>
      <trkpt lat="10.1568470397422" lon="-75.681503961696">
        <ele>52.321895</ele>
        <time>2019-09-10T15:15:46.200Z</time>
      </trkpt>
      <trkpt lat="10.1568487432249" lon="-75.6815060643774">
        <ele>52.321895</ele>
        <time>2019-09-10T15:15:46.300Z</time>
      </trkpt>
      <trkpt lat="10.156850430345" lon="-75.6815081703486">
        <ele>52.321895</ele>
        <time>2019-09-10T15:15:46.400Z</time>
      </trkpt>
      <trkpt lat="10.1568521398725" lon="-75.6815102717418">
        <ele>52.321895</ele>
        <time>2019-09-10T15:15:46.500Z</time>
      </trkpt>
      <trkpt lat="10.1568538453353" lon="-75.6815123817341">
        <ele>52.321895</ele>
        <time>2019-09-10T15:15:46.600Z</time>
      </trkpt>
      <trkpt lat="10.1568555581979" lon="-75.6815144870961">
        <ele>52.321895</ele>
        <time>2019-09-10T15:15:46.700Z</time>
      </trkpt>
      <trkpt lat="10.1568572539683" lon="-75.681516597332">
        <ele>52.321895</ele>
        <time>2019-09-10T15:15:46.800Z</time>
      </trkpt>
      <trkpt lat="10.1568589559919" lon="-75.6815186745993">
        <ele>52.321895</ele>
        <time>2019-09-10T15:15:46.900Z</time>
      </trkpt>
      <trkpt lat="10.1568606471766" lon="-75.6815207503522">
        <ele>52.321895</ele>
        <time>2019-09-10T15:15:47.000Z</time>
      </trkpt>
      <trkpt lat="10.1568623449271" lon="-75.6815228385511">
        <ele>52.321895</ele>
        <time>2019-09-10T15:15:47.100Z</time>
      </trkpt>
      <trkpt lat="10.1568640378836" lon="-75.6815249540439">
        <ele>52.321895</ele>
        <time>2019-09-10T15:15:47.200Z</time>
      </trkpt>
      <trkpt lat="10.1568657586669" lon="-75.6815270909297">
        <ele>52.321895</ele>
        <time>2019-09-10T15:15:47.300Z</time>
      </trkpt>
      <trkpt lat="10.1568674823683" lon="-75.6815292353702">
        <ele>52.321895</ele>
        <time>2019-09-10T15:15:47.400Z</time>
      </trkpt>
      <trkpt lat="10.1568691930422" lon="-75.6815313477124">
        <ele>52.321895</ele>
        <time>2019-09-10T15:15:47.500Z</time>
      </trkpt>
      <trkpt lat="10.1568708825594" lon="-75.6815334423343">
        <ele>52.321895</ele>
        <time>2019-09-10T15:15:47.600Z</time>
      </trkpt>
      <trkpt lat="10.1568725901067" lon="-75.6815355457816">
        <ele>52.321895</ele>
        <time>2019-09-10T15:15:47.700Z</time>
      </trkpt>
      <trkpt lat="10.1568743026565" lon="-75.681537666218">
        <ele>52.321895</ele>
        <time>2019-09-10T15:15:47.800Z</time>
      </trkpt>
      <trkpt lat="10.1568759960299" lon="-75.6815397744695">
        <ele>52.321895</ele>
        <time>2019-09-10T15:15:47.900Z</time>
      </trkpt>
      <trkpt lat="10.1568776684549" lon="-75.6815418756887">
        <ele>52.321895</ele>
        <time>2019-09-10T15:15:48.000Z</time>
      </trkpt>
      <trkpt lat="10.1568793365026" lon="-75.68154396763">
        <ele>52.321895</ele>
        <time>2019-09-10T15:15:48.100Z</time>
      </trkpt>
      <trkpt lat="10.156881011012" lon="-75.6815460630527">
        <ele>52.321895</ele>
        <time>2019-09-10T15:15:48.200Z</time>
      </trkpt>
      <trkpt lat="10.1568826883354" lon="-75.6815481511123">
        <ele>52.321895</ele>
        <time>2019-09-10T15:15:48.300Z</time>
      </trkpt>
      <trkpt lat="10.1568843720162" lon="-75.6815502456994">
        <ele>52.321895</ele>
        <time>2019-09-10T15:15:48.400Z</time>
      </trkpt>
      <trkpt lat="10.156886083107" lon="-75.6815523382848">
        <ele>52.321895</ele>
        <time>2019-09-10T15:15:48.500Z</time>
      </trkpt>
      <trkpt lat="10.1568878035776" lon="-75.6815544362488">
        <ele>52.321895</ele>
        <time>2019-09-10T15:15:48.600Z</time>
      </trkpt>
      <trkpt lat="10.1568895298846" lon="-75.6815565116884">
        <ele>52.321895</ele>
        <time>2019-09-10T15:15:48.700Z</time>
      </trkpt>
      <trkpt lat="10.1568912444147" lon="-75.6815585822541">
        <ele>52.321895</ele>
        <time>2019-09-10T15:15:48.800Z</time>
      </trkpt>
      <trkpt lat="10.1568929558181" lon="-75.6815606492687">
        <ele>52.321895</ele>
        <time>2019-09-10T15:15:48.900Z</time>
      </trkpt>
      <trkpt lat="10.1568946630527" lon="-75.6815627329592">
        <ele>52.321895</ele>
        <time>2019-09-10T15:15:49.000Z</time>
      </trkpt>
      <trkpt lat="10.1568963662228" lon="-75.6815647945951">
        <ele>52.321895</ele>
        <time>2019-09-10T15:15:49.100Z</time>
      </trkpt>
      <trkpt lat="10.1568980653282" lon="-75.6815668554303">
        <ele>52.321895</ele>
        <time>2019-09-10T15:15:49.200Z</time>
      </trkpt>
      <trkpt lat="10.1568997526568" lon="-75.6815689164222">
        <ele>52.321895</ele>
        <time>2019-09-10T15:15:49.300Z</time>
      </trkpt>
      <trkpt lat="10.1569014442583" lon="-75.6815709960395">
        <ele>52.321895</ele>
        <time>2019-09-10T15:15:49.400Z</time>
      </trkpt>
      <trkpt lat="10.1569031564955" lon="-75.6815730837161">
        <ele>52.321895</ele>
        <time>2019-09-10T15:15:49.500Z</time>
      </trkpt>
      <trkpt lat="10.1569048782168" lon="-75.6815751828638">
        <ele>52.321895</ele>
        <time>2019-09-10T15:15:49.600Z</time>
      </trkpt>
      <trkpt lat="10.1569065883696" lon="-75.6815772693568">
        <ele>52.321895</ele>
        <time>2019-09-10T15:15:49.700Z</time>
      </trkpt>
      <trkpt lat="10.1569082872666" lon="-75.6815793532387">
        <ele>52.321895</ele>
        <time>2019-09-10T15:15:49.800Z</time>
      </trkpt>
      <trkpt lat="10.1569099999207" lon="-75.6815814620473">
        <ele>52.321895</ele>
        <time>2019-09-10T15:15:49.900Z</time>
      </trkpt>
      <trkpt lat="10.1569117115326" lon="-75.6815835888546">
        <ele>52.321895</ele>
        <time>2019-09-10T15:15:50.000Z</time>
      </trkpt>
      <trkpt lat="10.1569133987569" lon="-75.6815856917796">
        <ele>52.321895</ele>
        <time>2019-09-10T15:15:50.100Z</time>
      </trkpt>
      <trkpt lat="10.1569150694102" lon="-75.6815877788644">
        <ele>52.321895</ele>
        <time>2019-09-10T15:15:50.200Z</time>
      </trkpt>
      <trkpt lat="10.1569183709045" lon="-75.6815918881063">
        <ele>52.321895</ele>
        <time>2019-09-10T15:15:50.400Z</time>
      </trkpt>
      <trkpt lat="10.1569200378058" lon="-75.6815939556954">
        <ele>52.321895</ele>
        <time>2019-09-10T15:15:50.500Z</time>
      </trkpt>
      <trkpt lat="10.1569217338889" lon="-75.6815960496385">
        <ele>52.321895</ele>
        <time>2019-09-10T15:15:50.600Z</time>
      </trkpt>
      <trkpt lat="10.1569234208005" lon="-75.6815981269406">
        <ele>52.321895</ele>
        <time>2019-09-10T15:15:50.700Z</time>
      </trkpt>
      <trkpt lat="10.1569251012505" lon="-75.681600196897">
        <ele>52.321895</ele>
        <time>2019-09-10T15:15:50.800Z</time>
      </trkpt>
      <trkpt lat="10.1569268030657" lon="-75.6816022990214">
        <ele>52.321895</ele>
        <time>2019-09-10T15:15:50.900Z</time>
      </trkpt>
      <trkpt lat="10.1569285233279" lon="-75.6816044269079">
        <ele>52.321895</ele>
        <time>2019-09-10T15:15:51.000Z</time>
      </trkpt>
      <trkpt lat="10.1569302655806" lon="-75.6816065879371">
        <ele>52.321895</ele>
        <time>2019-09-10T15:15:51.100Z</time>
      </trkpt>
      <trkpt lat="10.1569320116894" lon="-75.6816087506722">
        <ele>52.321895</ele>
        <time>2019-09-10T15:15:51.200Z</time>
      </trkpt>
      <trkpt lat="10.1569337326811" lon="-75.6816109094733">
        <ele>52.321895</ele>
        <time>2019-09-10T15:15:51.300Z</time>
      </trkpt>
      <trkpt lat="10.1569354233447" lon="-75.6816130426167">
        <ele>52.321895</ele>
        <time>2019-09-10T15:15:51.400Z</time>
      </trkpt>
      <trkpt lat="10.1569371341228" lon="-75.6816151875619">
        <ele>52.321895</ele>
        <time>2019-09-10T15:15:51.500Z</time>
      </trkpt>
      <trkpt lat="10.1569388696012" lon="-75.6816173304532">
        <ele>52.321895</ele>
        <time>2019-09-10T15:15:51.600Z</time>
      </trkpt>
      <trkpt lat="10.1569405990348" lon="-75.6816194434742">
        <ele>52.321895</ele>
        <time>2019-09-10T15:15:51.700Z</time>
      </trkpt>
      <trkpt lat="10.1569423127311" lon="-75.6816215286442">
        <ele>52.321895</ele>
        <time>2019-09-10T15:15:51.800Z</time>
      </trkpt>
      <trkpt lat="10.1569440454997" lon="-75.6816235969644">
        <ele>52.321895</ele>
        <time>2019-09-10T15:15:51.900Z</time>
      </trkpt>
      <trkpt lat="10.1569457877524" lon="-75.6816256728043">
        <ele>52.321895</ele>
        <time>2019-09-10T15:15:52.000Z</time>
      </trkpt>
      <trkpt lat="10.1569475376132" lon="-75.6816277218377">
        <ele>52.321895</ele>
        <time>2019-09-10T15:15:52.100Z</time>
      </trkpt>
      <trkpt lat="10.1569492816376" lon="-75.6816297697918">
        <ele>52.321895</ele>
        <time>2019-09-10T15:15:52.200Z</time>
      </trkpt>
      <trkpt lat="10.1569510211806" lon="-75.6816317934459">
        <ele>52.321895</ele>
        <time>2019-09-10T15:15:52.300Z</time>
      </trkpt>
      <trkpt lat="10.1569527489466" lon="-75.6816338300856">
        <ele>52.321895</ele>
        <time>2019-09-10T15:15:52.400Z</time>
      </trkpt>
      <trkpt lat="10.1569544980779" lon="-75.6816358760902">
        <ele>52.321895</ele>
        <time>2019-09-10T15:15:52.500Z</time>
      </trkpt>
      <trkpt lat="10.1569562453331" lon="-75.6816379510598">
        <ele>52.321895</ele>
        <time>2019-09-10T15:15:52.600Z</time>
      </trkpt>
      <trkpt lat="10.1569579623645" lon="-75.6816400194495">
        <ele>52.321895</ele>
        <time>2019-09-10T15:15:52.700Z</time>
      </trkpt>
      <trkpt lat="10.1569596516732" lon="-75.6816420887445">
        <ele>52.321895</ele>
        <time>2019-09-10T15:15:52.800Z</time>
      </trkpt>
      <trkpt lat="10.1569613147184" lon="-75.6816441656637">
        <ele>52.321895</ele>
        <time>2019-09-10T15:15:52.900Z</time>
      </trkpt>
      <trkpt lat="10.1569629829746" lon="-75.6816462567869">
        <ele>52.321895</ele>
        <time>2019-09-10T15:15:53.000Z</time>
      </trkpt>
      <trkpt lat="10.1569646625908" lon="-75.68164836006">
        <ele>52.321895</ele>
        <time>2019-09-10T15:15:53.100Z</time>
      </trkpt>
      <trkpt lat="10.1569663733689" lon="-75.6816504695997">
        <ele>52.321895</ele>
        <time>2019-09-10T15:15:53.200Z</time>
      </trkpt>
      <trkpt lat="10.1569680962366" lon="-75.6816526044142">
        <ele>52.321895</ele>
        <time>2019-09-10T15:15:53.300Z</time>
      </trkpt>
      <trkpt lat="10.1569698256702" lon="-75.681654742153">
        <ele>52.321895</ele>
        <time>2019-09-10T15:15:53.400Z</time>
      </trkpt>
      <trkpt lat="10.1569715450986" lon="-75.6816568814236">
        <ele>52.321895</ele>
        <time>2019-09-10T15:15:53.500Z</time>
      </trkpt>
      <trkpt lat="10.1569732567105" lon="-75.6816590019992">
        <ele>52.321895</ele>
        <time>2019-09-10T15:15:53.600Z</time>
      </trkpt>
      <trkpt lat="10.1569749599848" lon="-75.6816610718512">
        <ele>52.321895</ele>
        <time>2019-09-10T15:15:53.700Z</time>
      </trkpt>
      <trkpt lat="10.1569766675321" lon="-75.6816631111715">
        <ele>52.321895</ele>
        <time>2019-09-10T15:15:53.800Z</time>
      </trkpt>
      <trkpt lat="10.1569783610096" lon="-75.681665148577">
        <ele>52.321895</ele>
        <time>2019-09-10T15:15:53.900Z</time>
      </trkpt>
      <trkpt lat="10.1569800587602" lon="-75.6816672113966">
        <ele>52.321895</ele>
        <time>2019-09-10T15:15:54.000Z</time>
      </trkpt>
      <trkpt lat="10.1569817619302" lon="-75.681669281179">
        <ele>52.321895</ele>
        <time>2019-09-10T15:15:54.100Z</time>
      </trkpt>
      <trkpt lat="10.1569834795869" lon="-75.6816713708748">
        <ele>52.321895</ele>
        <time>2019-09-10T15:15:54.200Z</time>
      </trkpt>
      <trkpt lat="10.1569851954718" lon="-75.6816734768286">
        <ele>52.321895</ele>
        <time>2019-09-10T15:15:54.300Z</time>
      </trkpt>
      <trkpt lat="10.156988601395" lon="-75.6816777233412">
        <ele>52.321895</ele>
        <time>2019-09-10T15:15:54.500Z</time>
      </trkpt>
      <trkpt lat="10.1569902907037" lon="-75.6816798495218">
        <ele>52.321895</ele>
        <time>2019-09-10T15:15:54.600Z</time>
      </trkpt>
      <trkpt lat="10.1569919715706" lon="-75.6816819715596">
        <ele>52.321895</ele>
        <time>2019-09-10T15:15:54.700Z</time>
      </trkpt>
      <trkpt lat="10.1569936519163" lon="-75.6816840894894">
        <ele>52.321895</ele>
        <time>2019-09-10T15:15:54.800Z</time>
      </trkpt>
      <trkpt lat="10.1569953287186" lon="-75.6816861960351">
        <ele>52.321895</ele>
        <time>2019-09-10T15:15:54.900Z</time>
      </trkpt>
      <trkpt lat="10.1569970111488" lon="-75.681688300492">
        <ele>52.321895</ele>
        <time>2019-09-10T15:15:55.000Z</time>
      </trkpt>
      <trkpt lat="10.1569987133808" lon="-75.6816904171684">
        <ele>52.321895</ele>
        <time>2019-09-10T15:15:55.100Z</time>
      </trkpt>
      <trkpt lat="10.1570004316628" lon="-75.6816925519481">
        <ele>52.321895</ele>
        <time>2019-09-10T15:15:55.200Z</time>
      </trkpt>
      <trkpt lat="10.1570021345202" lon="-75.6816946814012">
        <ele>52.321895</ele>
        <time>2019-09-10T15:15:55.300Z</time>
      </trkpt>
      <trkpt lat="10.1570038239331" lon="-75.6816968038568">
        <ele>52.321895</ele>
        <time>2019-09-10T15:15:55.400Z</time>
      </trkpt>
      <trkpt lat="10.1570055041747" lon="-75.681698917017">
        <ele>52.321895</ele>
        <time>2019-09-10T15:15:55.500Z</time>
      </trkpt>
      <trkpt lat="10.157007193275" lon="-75.68170102781">
        <ele>52.321895</ele>
        <time>2019-09-10T15:15:55.600Z</time>
      </trkpt>
      <trkpt lat="10.1570088811246" lon="-75.6817031453568">
        <ele>52.321895</ele>
        <time>2019-09-10T15:15:55.700Z</time>
      </trkpt>
      <trkpt lat="10.1570105840862" lon="-75.6817052741833">
        <ele>52.321895</ele>
        <time>2019-09-10T15:15:55.800Z</time>
      </trkpt>
      <trkpt lat="10.15701228809" lon="-75.6817073703545">
        <ele>52.321895</ele>
        <time>2019-09-10T15:15:55.900Z</time>
      </trkpt>
      <trkpt lat="10.1570140037665" lon="-75.6817094473781">
        <ele>52.421895</ele>
        <time>2019-09-10T15:15:56.000Z</time>
      </trkpt>
      <trkpt lat="10.157015713294" lon="-75.6817115320956">
        <ele>52.421895</ele>
        <time>2019-09-10T15:15:56.100Z</time>
      </trkpt>
      <trkpt lat="10.157017427824" lon="-75.6817136389197">
        <ele>52.421895</ele>
        <time>2019-09-10T15:15:56.200Z</time>
      </trkpt>
      <trkpt lat="10.1570191469398" lon="-75.681715741253">
        <ele>52.421895</ele>
        <time>2019-09-10T15:15:56.300Z</time>
      </trkpt>
      <trkpt lat="10.1570208790831" lon="-75.6817178402789">
        <ele>52.421895</ele>
        <time>2019-09-10T15:15:56.400Z</time>
      </trkpt>
      <trkpt lat="10.1570226325916" lon="-75.6817199386085">
        <ele>52.421895</ele>
        <time>2019-09-10T15:15:56.500Z</time>
      </trkpt>
      <trkpt lat="10.1570243965221" lon="-75.6817220403847">
        <ele>52.421895</ele>
        <time>2019-09-10T15:15:56.600Z</time>
      </trkpt>
      <trkpt lat="10.1570261683734" lon="-75.6817241370433">
        <ele>52.421895</ele>
        <time>2019-09-10T15:15:56.700Z</time>
      </trkpt>
      <trkpt lat="10.1570279301153" lon="-75.6817262306382">
        <ele>52.421895</ele>
        <time>2019-09-10T15:15:56.800Z</time>
      </trkpt>
      <trkpt lat="10.15702968748" lon="-75.6817283236065">
        <ele>52.421895</ele>
        <time>2019-09-10T15:15:56.900Z</time>
      </trkpt>
      <trkpt lat="10.1570314391125" lon="-75.6817304158786">
        <ele>52.421895</ele>
        <time>2019-09-10T15:15:57.000Z</time>
      </trkpt>
      <trkpt lat="10.157033184596" lon="-75.6817324848254">
        <ele>52.421895</ele>
        <time>2019-09-10T15:15:57.100Z</time>
      </trkpt>
      <trkpt lat="10.1570349310175" lon="-75.6817345490027">
        <ele>52.421895</ele>
        <time>2019-09-10T15:15:57.200Z</time>
      </trkpt>
      <trkpt lat="10.1570366728533" lon="-75.6817366143289">
        <ele>52.421895</ele>
        <time>2019-09-10T15:15:57.300Z</time>
      </trkpt>
      <trkpt lat="10.1570384193791" lon="-75.6817386929191">
        <ele>52.421895</ele>
        <time>2019-09-10T15:15:57.400Z</time>
      </trkpt>
      <trkpt lat="10.1570401614233" lon="-75.6817407585238">
        <ele>52.421895</ele>
        <time>2019-09-10T15:15:57.500Z</time>
      </trkpt>
      <trkpt lat="10.1570419103461" lon="-75.6817428260781">
        <ele>52.421895</ele>
        <time>2019-09-10T15:15:57.600Z</time>
      </trkpt>
      <trkpt lat="10.1570436806341" lon="-75.6817448986108">
        <ele>52.421895</ele>
        <time>2019-09-10T15:15:57.700Z</time>
      </trkpt>
      <trkpt lat="10.1570454644707" lon="-75.6817469807172">
        <ele>52.421895</ele>
        <time>2019-09-10T15:15:57.800Z</time>
      </trkpt>
      <trkpt lat="10.157047242471" lon="-75.6817490260254">
        <ele>52.421895</ele>
        <time>2019-09-10T15:15:57.900Z</time>
      </trkpt>
      <trkpt lat="10.1570490110915" lon="-75.6817510631873">
        <ele>52.421895</ele>
        <time>2019-09-10T15:15:58.000Z</time>
      </trkpt>
      <trkpt lat="10.157050765538" lon="-75.6817531098533">
        <ele>52.421895</ele>
        <time>2019-09-10T15:15:58.100Z</time>
      </trkpt>
      <trkpt lat="10.1570525165452" lon="-75.681755182943">
        <ele>52.421895</ele>
        <time>2019-09-10T15:15:58.200Z</time>
      </trkpt>
      <trkpt lat="10.1570560370066" lon="-75.68175931927">
        <ele>52.421895</ele>
        <time>2019-09-10T15:15:58.400Z</time>
      </trkpt>
      <trkpt lat="10.1570577807184" lon="-75.6817613811496">
        <ele>52.421895</ele>
        <time>2019-09-10T15:15:58.500Z</time>
      </trkpt>
      <trkpt lat="10.1570595129659" lon="-75.6817634508623">
        <ele>52.421895</ele>
        <time>2019-09-10T15:15:58.600Z</time>
      </trkpt>
      <trkpt lat="10.1570612321859" lon="-75.6817655257623">
        <ele>52.421895</ele>
        <time>2019-09-10T15:15:58.700Z</time>
      </trkpt>
      <trkpt lat="10.157062955262" lon="-75.6817676170247">
        <ele>52.421895</ele>
        <time>2019-09-10T15:15:58.800Z</time>
      </trkpt>
      <trkpt lat="10.1570646755242" lon="-75.681769714484">
        <ele>52.421895</ele>
        <time>2019-09-10T15:15:58.900Z</time>
      </trkpt>
      <trkpt lat="10.1570664096477" lon="-75.681771818732">
        <ele>52.421895</ele>
        <time>2019-09-10T15:15:59.000Z</time>
      </trkpt>
      <trkpt lat="10.1570681130262" lon="-75.6817738837797">
        <ele>52.421895</ele>
        <time>2019-09-10T15:15:59.100Z</time>
      </trkpt>
      <trkpt lat="10.1570698011885" lon="-75.6817759283917">
        <ele>52.421895</ele>
        <time>2019-09-10T15:15:59.200Z</time>
      </trkpt>
      <trkpt lat="10.1570715110286" lon="-75.681778014815">
        <ele>52.421895</ele>
        <time>2019-09-10T15:15:59.300Z</time>
      </trkpt>
      <trkpt lat="10.1570732560953" lon="-75.6817801480629">
        <ele>52.421895</ele>
        <time>2019-09-10T15:15:59.400Z</time>
      </trkpt>
      <trkpt lat="10.1570750067898" lon="-75.6817822880994">
        <ele>52.421895</ele>
        <time>2019-09-10T15:15:59.500Z</time>
      </trkpt>
      <trkpt lat="10.1570767561295" lon="-75.6817844167518">
        <ele>52.421895</ele>
        <time>2019-09-10T15:15:59.600Z</time>
      </trkpt>
      <trkpt lat="10.157078514849" lon="-75.6817865457175">
        <ele>52.421895</ele>
        <time>2019-09-10T15:15:59.700Z</time>
      </trkpt>
      <trkpt lat="10.1570802680448" lon="-75.6817886647613">
        <ele>52.421895</ele>
        <time>2019-09-10T15:15:59.800Z</time>
      </trkpt>
      <trkpt lat="10.1570820178014" lon="-75.6817907746839">
        <ele>52.421895</ele>
        <time>2019-09-10T15:15:59.900Z</time>
      </trkpt>
      <trkpt lat="10.1570837570317" lon="-75.6817928812644">
        <ele>52.421895</ele>
        <time>2019-09-10T15:16:00.000Z</time>
      </trkpt>
      <trkpt lat="10.1570854893834" lon="-75.6817949625353">
        <ele>52.421895</ele>
        <time>2019-09-10T15:16:00.100Z</time>
      </trkpt>
      <trkpt lat="10.1570872129807" lon="-75.681797039176">
        <ele>52.421895</ele>
        <time>2019-09-10T15:16:00.200Z</time>
      </trkpt>
      <trkpt lat="10.157088954608" lon="-75.6817991108731">
        <ele>52.421895</ele>
        <time>2019-09-10T15:16:00.300Z</time>
      </trkpt>
      <trkpt lat="10.1570906940468" lon="-75.6818012011956">
        <ele>52.421895</ele>
        <time>2019-09-10T15:16:00.400Z</time>
      </trkpt>
      <trkpt lat="10.1570923774149" lon="-75.6818032461557">
        <ele>52.421895</ele>
        <time>2019-09-10T15:16:00.500Z</time>
      </trkpt>
      <trkpt lat="10.1570940288916" lon="-75.6818052800103">
        <ele>52.421895</ele>
        <time>2019-09-10T15:16:00.600Z</time>
      </trkpt>
      <trkpt lat="10.1570956874553" lon="-75.6818073089909">
        <ele>52.421895</ele>
        <time>2019-09-10T15:16:00.700Z</time>
      </trkpt>
      <trkpt lat="10.1570973813498" lon="-75.6818093733423">
        <ele>52.421895</ele>
        <time>2019-09-10T15:16:00.800Z</time>
      </trkpt>
      <trkpt lat="10.1570990584647" lon="-75.6818114212964">
        <ele>52.421895</ele>
        <time>2019-09-10T15:16:00.900Z</time>
      </trkpt>
      <trkpt lat="10.1571007344332" lon="-75.681813478685">
        <ele>52.421895</ele>
        <time>2019-09-10T15:16:01.000Z</time>
      </trkpt>
      <trkpt lat="10.1571024070667" lon="-75.6818155203379">
        <ele>52.421895</ele>
        <time>2019-09-10T15:16:01.100Z</time>
      </trkpt>
      <trkpt lat="10.1571041002315" lon="-75.6818175773436">
        <ele>52.421895</ele>
        <time>2019-09-10T15:16:01.200Z</time>
      </trkpt>
      <trkpt lat="10.1571057724481" lon="-75.6818196417994">
        <ele>52.421895</ele>
        <time>2019-09-10T15:16:01.300Z</time>
      </trkpt>
      <trkpt lat="10.1571074525854" lon="-75.6818217297197">
        <ele>52.421895</ele>
        <time>2019-09-10T15:16:01.400Z</time>
      </trkpt>
      <trkpt lat="10.1571091246978" lon="-75.6818238243939">
        <ele>52.421895</ele>
        <time>2019-09-10T15:16:01.500Z</time>
      </trkpt>
      <trkpt lat="10.1571108153614" lon="-75.6818259295122">
        <ele>52.421895</ele>
        <time>2019-09-10T15:16:01.600Z</time>
      </trkpt>
      <trkpt lat="10.1571125143626" lon="-75.6818280186162">
        <ele>52.421895</ele>
        <time>2019-09-10T15:16:01.700Z</time>
      </trkpt>
      <trkpt lat="10.1571142372303" lon="-75.6818301039603">
        <ele>52.421895</ele>
        <time>2019-09-10T15:16:01.800Z</time>
      </trkpt>
      <trkpt lat="10.1571159518646" lon="-75.6818321888867">
        <ele>52.421895</ele>
        <time>2019-09-10T15:16:01.900Z</time>
      </trkpt>
      <trkpt lat="10.1571176647271" lon="-75.6818342878081">
        <ele>52.421895</ele>
        <time>2019-09-10T15:16:02.000Z</time>
      </trkpt>
      <trkpt lat="10.1571193622692" lon="-75.6818363852674">
        <ele>52.421895</ele>
        <time>2019-09-10T15:16:02.100Z</time>
      </trkpt>
      <trkpt lat="10.157121062" lon="-75.6818384918131">
        <ele>52.421895</ele>
        <time>2019-09-10T15:16:02.200Z</time>
      </trkpt>
      <trkpt lat="10.157124490539" lon="-75.6818426971758">
        <ele>52.421895</ele>
        <time>2019-09-10T15:16:02.400Z</time>
      </trkpt>
      <trkpt lat="10.1571262173671" lon="-75.6818448197706">
        <ele>52.421895</ele>
        <time>2019-09-10T15:16:02.500Z</time>
      </trkpt>
      <trkpt lat="10.1571279539919" lon="-75.6818469556643">
        <ele>52.421895</ele>
        <time>2019-09-10T15:16:02.600Z</time>
      </trkpt>
      <trkpt lat="10.1571296981205" lon="-75.6818490867885">
        <ele>52.421895</ele>
        <time>2019-09-10T15:16:02.700Z</time>
      </trkpt>
      <trkpt lat="10.1571314406859" lon="-75.6818512094529">
        <ele>52.421895</ele>
        <time>2019-09-10T15:16:02.800Z</time>
      </trkpt>
      <trkpt lat="10.1571331824175" lon="-75.6818533483406">
        <ele>52.421895</ele>
        <time>2019-09-10T15:16:02.900Z</time>
      </trkpt>
      <trkpt lat="10.1571349280052" lon="-75.6818554891778">
        <ele>52.421895</ele>
        <time>2019-09-10T15:16:03.000Z</time>
      </trkpt>
      <trkpt lat="10.1571366631709" lon="-75.6818575942265">
        <ele>52.421895</ele>
        <time>2019-09-10T15:16:03.100Z</time>
      </trkpt>
      <trkpt lat="10.1571384008379" lon="-75.6818596827386">
        <ele>52.421895</ele>
        <time>2019-09-10T15:16:03.200Z</time>
      </trkpt>
      <trkpt lat="10.1571401198494" lon="-75.6818617601452">
        <ele>52.421895</ele>
        <time>2019-09-10T15:16:03.300Z</time>
      </trkpt>
      <trkpt lat="10.1571418463648" lon="-75.6818638544016">
        <ele>52.421895</ele>
        <time>2019-09-10T15:16:03.400Z</time>
      </trkpt>
      <trkpt lat="10.1571435646468" lon="-75.6818659444456">
        <ele>52.421895</ele>
        <time>2019-09-10T15:16:03.500Z</time>
      </trkpt>
      <trkpt lat="10.1571453016885" lon="-75.6818680489373">
        <ele>52.421895</ele>
        <time>2019-09-10T15:16:03.600Z</time>
      </trkpt>
      <trkpt lat="10.1571470326854" lon="-75.6818701459092">
        <ele>52.421895</ele>
        <time>2019-09-10T15:16:03.700Z</time>
      </trkpt>
      <trkpt lat="10.1571487756676" lon="-75.6818722520023">
        <ele>52.421895</ele>
        <time>2019-09-10T15:16:03.800Z</time>
      </trkpt>
      <trkpt lat="10.1571505078109" lon="-75.6818743487653">
        <ele>52.421895</ele>
        <time>2019-09-10T15:16:03.900Z</time>
      </trkpt>
      <trkpt lat="10.1571522445399" lon="-75.6818764539532">
        <ele>52.421895</ele>
        <time>2019-09-10T15:16:04.000Z</time>
      </trkpt>
      <trkpt lat="10.1571539668865" lon="-75.6818785749466">
        <ele>52.421895</ele>
        <time>2019-09-10T15:16:04.100Z</time>
      </trkpt>
      <trkpt lat="10.157155698613" lon="-75.6818807138343">
        <ele>52.321895</ele>
        <time>2019-09-10T15:16:04.200Z</time>
      </trkpt>
      <trkpt lat="10.1571574452429" lon="-75.6818828396319">
        <ele>52.321895</ele>
        <time>2019-09-10T15:16:04.300Z</time>
      </trkpt>
      <trkpt lat="10.1571592075059" lon="-75.6818849609038">
        <ele>52.321895</ele>
        <time>2019-09-10T15:16:04.400Z</time>
      </trkpt>
      <trkpt lat="10.1571609403788" lon="-75.681887064003">
        <ele>52.321895</ele>
        <time>2019-09-10T15:16:04.500Z</time>
      </trkpt>
      <trkpt lat="10.1571626545962" lon="-75.6818891659184">
        <ele>52.321895</ele>
        <time>2019-09-10T15:16:04.600Z</time>
      </trkpt>
      <trkpt lat="10.1571643792356" lon="-75.6818913017425">
        <ele>52.321895</ele>
        <time>2019-09-10T15:16:04.700Z</time>
      </trkpt>
      <trkpt lat="10.1571661295133" lon="-75.6818934624235">
        <ele>52.321895</ele>
        <time>2019-09-10T15:16:04.800Z</time>
      </trkpt>
      <trkpt lat="10.1571678441476" lon="-75.6818955914937">
        <ele>52.321895</ele>
        <time>2019-09-10T15:16:04.900Z</time>
      </trkpt>
      <trkpt lat="10.1571695375209" lon="-75.6818976935484">
        <ele>52.321895</ele>
        <time>2019-09-10T15:16:05.000Z</time>
      </trkpt>
      <trkpt lat="10.1571712468399" lon="-75.6818998215045">
        <ele>52.321895</ele>
        <time>2019-09-10T15:16:05.100Z</time>
      </trkpt>
      <trkpt lat="10.1571729904475" lon="-75.6819019722985">
        <ele>52.321895</ele>
        <time>2019-09-10T15:16:05.200Z</time>
      </trkpt>
      <trkpt lat="10.1571747373901" lon="-75.681904138689">
        <ele>52.321895</ele>
        <time>2019-09-10T15:16:05.300Z</time>
      </trkpt>
      <trkpt lat="10.1571764850622" lon="-75.6819062949836">
        <ele>52.321895</ele>
        <time>2019-09-10T15:16:05.400Z</time>
      </trkpt>
      <trkpt lat="10.1571782523278" lon="-75.6819084597727">
        <ele>52.321895</ele>
        <time>2019-09-10T15:16:05.500Z</time>
      </trkpt>
      <trkpt lat="10.1571800287648" lon="-75.6819106135606">
        <ele>52.321895</ele>
        <time>2019-09-10T15:16:05.600Z</time>
      </trkpt>
      <trkpt lat="10.1571817725808" lon="-75.6819127211159">
        <ele>52.221895</ele>
        <time>2019-09-10T15:16:05.700Z</time>
      </trkpt>
      <trkpt lat="10.1571835056621" lon="-75.681914799358">
        <ele>52.221895</ele>
        <time>2019-09-10T15:16:05.800Z</time>
      </trkpt>
      <trkpt lat="10.1571852210259" lon="-75.6819168601932">
        <ele>52.221895</ele>
        <time>2019-09-10T15:16:05.900Z</time>
      </trkpt>
      <trkpt lat="10.1571869432683" lon="-75.6819189343273">
        <ele>52.221895</ele>
        <time>2019-09-10T15:16:06.000Z</time>
      </trkpt>
      <trkpt lat="10.1571886437286" lon="-75.6819210063029">
        <ele>52.321895</ele>
        <time>2019-09-10T15:16:06.100Z</time>
      </trkpt>
      <trkpt lat="10.1571903509632" lon="-75.6819230920647">
        <ele>52.321895</ele>
        <time>2019-09-10T15:16:06.200Z</time>
      </trkpt>
      <trkpt lat="10.1571920538206" lon="-75.6819251531785">
        <ele>52.321895</ele>
        <time>2019-09-10T15:16:06.300Z</time>
      </trkpt>
      <trkpt lat="10.1571937643903" lon="-75.6819272197928">
        <ele>52.321895</ele>
        <time>2019-09-10T15:16:06.400Z</time>
      </trkpt>
      <trkpt lat="10.1571954802752" lon="-75.6819292867552">
        <ele>52.321895</ele>
        <time>2019-09-10T15:16:06.500Z</time>
      </trkpt>
      <trkpt lat="10.157197212627" lon="-75.6819313718904">
        <ele>52.321895</ele>
        <time>2019-09-10T15:16:06.600Z</time>
      </trkpt>
      <trkpt lat="10.1571989336187" lon="-75.6819334339789">
        <ele>52.321895</ele>
        <time>2019-09-10T15:16:06.700Z</time>
      </trkpt>
      <trkpt lat="10.1572006559653" lon="-75.6819354956497">
        <ele>52.321895</ele>
        <time>2019-09-10T15:16:06.800Z</time>
      </trkpt>
      <trkpt lat="10.1572041242123" lon="-75.6819396375817">
        <ele>52.321895</ele>
        <time>2019-09-10T15:16:07.000Z</time>
      </trkpt>
      <trkpt lat="10.157205876887" lon="-75.6819417206281">
        <ele>52.321895</ele>
        <time>2019-09-10T15:16:07.100Z</time>
      </trkpt>
      <trkpt lat="10.1572076372741" lon="-75.6819438106373">
        <ele>52.321895</ele>
        <time>2019-09-10T15:16:07.200Z</time>
      </trkpt>
      <trkpt lat="10.157209403289" lon="-75.6819459054507">
        <ele>52.321895</ele>
        <time>2019-09-10T15:16:07.300Z</time>
      </trkpt>
      <trkpt lat="10.1572111621127" lon="-75.6819479978968">
        <ele>52.321895</ele>
        <time>2019-09-10T15:16:07.400Z</time>
      </trkpt>
      <trkpt lat="10.1572128962362" lon="-75.6819501051736">
        <ele>52.321895</ele>
        <time>2019-09-10T15:16:07.500Z</time>
      </trkpt>
      <trkpt lat="10.1572146432831" lon="-75.6819522143303">
        <ele>52.321895</ele>
        <time>2019-09-10T15:16:07.600Z</time>
      </trkpt>
      <trkpt lat="10.1572163995013" lon="-75.6819543296838">
        <ele>52.321895</ele>
        <time>2019-09-10T15:16:07.700Z</time>
      </trkpt>
      <trkpt lat="10.1572181649951" lon="-75.6819564469869">
        <ele>52.321895</ele>
        <time>2019-09-10T15:16:07.800Z</time>
      </trkpt>
      <trkpt lat="10.1572216762852" lon="-75.6819606839606">
        <ele>52.321895</ele>
        <time>2019-09-10T15:16:08.000Z</time>
      </trkpt>
      <trkpt lat="10.1572234487618" lon="-75.6819627980608">
        <ele>52.321895</ele>
        <time>2019-09-10T15:16:08.100Z</time>
      </trkpt>
      <trkpt lat="10.1572252233228" lon="-75.6819649097241">
        <ele>52.321895</ele>
        <time>2019-09-10T15:16:08.200Z</time>
      </trkpt>
      <trkpt lat="10.1572269849605" lon="-75.6819670163046">
        <ele>52.321895</ele>
        <time>2019-09-10T15:16:08.300Z</time>
      </trkpt>
      <trkpt lat="10.1572287255457" lon="-75.6819691201">
        <ele>52.321895</ele>
        <time>2019-09-10T15:16:08.400Z</time>
      </trkpt>
      <trkpt lat="10.1572304757191" lon="-75.68197121742">
        <ele>52.321895</ele>
        <time>2019-09-10T15:16:08.500Z</time>
      </trkpt>
      <trkpt lat="10.1572322389201" lon="-75.6819733144615">
        <ele>52.321895</ele>
        <time>2019-09-10T15:16:08.600Z</time>
      </trkpt>
      <trkpt lat="10.157234003476" lon="-75.6819754067684">
        <ele>52.321895</ele>
        <time>2019-09-10T15:16:08.700Z</time>
      </trkpt>
      <trkpt lat="10.1572357651136" lon="-75.6819775036707">
        <ele>52.321895</ele>
        <time>2019-09-10T15:16:08.800Z</time>
      </trkpt>
      <trkpt lat="10.1572375108056" lon="-75.681979571399">
        <ele>52.321895</ele>
        <time>2019-09-10T15:16:08.900Z</time>
      </trkpt>
      <trkpt lat="10.1572392534752" lon="-75.6819816342534">
        <ele>52.321895</ele>
        <time>2019-09-10T15:16:09.000Z</time>
      </trkpt>
      <trkpt lat="10.1572409634195" lon="-75.6819836684909">
        <ele>52.321895</ele>
        <time>2019-09-10T15:16:09.100Z</time>
      </trkpt>
      <trkpt lat="10.1572426672149" lon="-75.6819857089253">
        <ele>52.321895</ele>
        <time>2019-09-10T15:16:09.200Z</time>
      </trkpt>
      <trkpt lat="10.1572443804943" lon="-75.6819877755396">
        <ele>52.321895</ele>
        <time>2019-09-10T15:16:09.300Z</time>
      </trkpt>
      <trkpt lat="10.1572461115954" lon="-75.6819898734166">
        <ele>52.321895</ele>
        <time>2019-09-10T15:16:09.400Z</time>
      </trkpt>
      <trkpt lat="10.1572478373813" lon="-75.681991983757">
        <ele>52.321895</ele>
        <time>2019-09-10T15:16:09.500Z</time>
      </trkpt>
      <trkpt lat="10.1572495560802" lon="-75.6819940891538">
        <ele>52.321895</ele>
        <time>2019-09-10T15:16:09.600Z</time>
      </trkpt>
      <trkpt lat="10.157251267171" lon="-75.6819962038807">
        <ele>52.321895</ele>
        <time>2019-09-10T15:16:09.700Z</time>
      </trkpt>
      <trkpt lat="10.1572529800335" lon="-75.6819983132463">
        <ele>52.321895</ele>
        <time>2019-09-10T15:16:09.800Z</time>
      </trkpt>
      <trkpt lat="10.157254687685" lon="-75.6820004267199">
        <ele>52.321895</ele>
        <time>2019-09-10T15:16:09.900Z</time>
      </trkpt>
      <trkpt lat="10.1572563883537" lon="-75.6820025391492">
        <ele>52.321895</ele>
        <time>2019-09-10T15:16:10.000Z</time>
      </trkpt>
      <trkpt lat="10.157258078392" lon="-75.6820046559649">
        <ele>52.321895</ele>
        <time>2019-09-10T15:16:10.100Z</time>
      </trkpt>
      <trkpt lat="10.1572597764552" lon="-75.6820067712488">
        <ele>52.321895</ele>
        <time>2019-09-10T15:16:10.200Z</time>
      </trkpt>
      <trkpt lat="10.1572614736847" lon="-75.6820089094402">
        <ele>52.321895</ele>
        <time>2019-09-10T15:16:10.300Z</time>
      </trkpt>
      <trkpt lat="10.1572631851924" lon="-75.6820110510433">
        <ele>52.321895</ele>
        <time>2019-09-10T15:16:10.400Z</time>
      </trkpt>
      <trkpt lat="10.1572648851316" lon="-75.6820131906273">
        <ele>52.321895</ele>
        <time>2019-09-10T15:16:10.500Z</time>
      </trkpt>
      <trkpt lat="10.1572665897607" lon="-75.6820153210204">
        <ele>52.421895</ele>
        <time>2019-09-10T15:16:10.600Z</time>
      </trkpt>
      <trkpt lat="10.1572682913674" lon="-75.6820174682633">
        <ele>52.421895</ele>
        <time>2019-09-10T15:16:10.700Z</time>
      </trkpt>
      <trkpt lat="10.1572700012076" lon="-75.6820196206587">
        <ele>52.421895</ele>
        <time>2019-09-10T15:16:10.800Z</time>
      </trkpt>
      <trkpt lat="10.1572717018763" lon="-75.682021706908">
        <ele>52.421895</ele>
        <time>2019-09-10T15:16:10.900Z</time>
      </trkpt>
      <trkpt lat="10.1572734055675" lon="-75.6820237667684">
        <ele>52.421895</ele>
        <time>2019-09-10T15:16:11.000Z</time>
      </trkpt>
      <trkpt lat="10.1572750613172" lon="-75.6820257683506">
        <ele>52.421895</ele>
        <time>2019-09-10T15:16:11.100Z</time>
      </trkpt>
      <trkpt lat="10.1572783186221" lon="-75.6820297587732">
        <ele>52.421895</ele>
        <time>2019-09-10T15:16:11.300Z</time>
      </trkpt>
      <trkpt lat="10.1572799634287" lon="-75.6820317966313">
        <ele>52.421895</ele>
        <time>2019-09-10T15:16:11.400Z</time>
      </trkpt>
      <trkpt lat="10.1572816265781" lon="-75.6820338638722">
        <ele>52.421895</ele>
        <time>2019-09-10T15:16:11.500Z</time>
      </trkpt>
      <trkpt lat="10.1572833256835" lon="-75.6820359689906">
        <ele>52.421895</ele>
        <time>2019-09-10T15:16:11.600Z</time>
      </trkpt>
      <trkpt lat="10.1572850399009" lon="-75.6820380864329">
        <ele>52.421895</ele>
        <time>2019-09-10T15:16:11.700Z</time>
      </trkpt>
      <trkpt lat="10.1572867652699" lon="-75.6820402024828">
        <ele>52.421895</ele>
        <time>2019-09-10T15:16:11.800Z</time>
      </trkpt>
      <trkpt lat="10.1572884908473" lon="-75.6820423278627">
        <ele>52.421895</ele>
        <time>2019-09-10T15:16:11.900Z</time>
      </trkpt>
      <trkpt lat="10.1572902176754" lon="-75.6820444512234">
        <ele>52.421895</ele>
        <time>2019-09-10T15:16:12.000Z</time>
      </trkpt>
      <trkpt lat="10.1572919550297" lon="-75.6820465762552">
        <ele>52.421895</ele>
        <time>2019-09-10T15:16:12.100Z</time>
      </trkpt>
      <trkpt lat="10.1572937035356" lon="-75.6820486943242">
        <ele>52.421895</ele>
        <time>2019-09-10T15:16:12.200Z</time>
      </trkpt>
      <trkpt lat="10.1572954590243" lon="-75.6820508059179">
        <ele>52.421895</ele>
        <time>2019-09-10T15:16:12.300Z</time>
      </trkpt>
      <trkpt lat="10.1572972164932" lon="-75.6820529123591">
        <ele>52.421895</ele>
        <time>2019-09-10T15:16:12.400Z</time>
      </trkpt>
      <trkpt lat="10.1572989713566" lon="-75.6820550332133">
        <ele>52.421895</ele>
        <time>2019-09-10T15:16:12.500Z</time>
      </trkpt>
      <trkpt lat="10.1573007285128" lon="-75.6820571580362">
        <ele>52.421895</ele>
        <time>2019-09-10T15:16:12.600Z</time>
      </trkpt>
      <trkpt lat="10.1573024840015" lon="-75.6820592738075">
        <ele>52.421895</ele>
        <time>2019-09-10T15:16:12.700Z</time>
      </trkpt>
      <trkpt lat="10.1573042495995" lon="-75.6820613813628">
        <ele>52.421895</ele>
        <time>2019-09-10T15:16:12.800Z</time>
      </trkpt>
      <trkpt lat="10.1573060128005" lon="-75.6820634788221">
        <ele>52.421895</ele>
        <time>2019-09-10T15:16:12.900Z</time>
      </trkpt>
      <trkpt lat="10.1573077801703" lon="-75.6820655706415">
        <ele>52.421895</ele>
        <time>2019-09-10T15:16:13.000Z</time>
      </trkpt>
      <trkpt lat="10.1573095521258" lon="-75.6820676582833">
        <ele>52.421895</ele>
        <time>2019-09-10T15:16:13.100Z</time>
      </trkpt>
      <trkpt lat="10.1573113326274" lon="-75.6820697480836">
        <ele>52.421895</ele>
        <time>2019-09-10T15:16:13.200Z</time>
      </trkpt>
      <trkpt lat="10.1573131381419" lon="-75.6820718654563">
        <ele>52.421895</ele>
        <time>2019-09-10T15:16:13.300Z</time>
      </trkpt>
      <trkpt lat="10.1573149543911" lon="-75.6820739961976">
        <ele>52.421895</ele>
        <time>2019-09-10T15:16:13.400Z</time>
      </trkpt>
      <trkpt lat="10.1573167446894" lon="-75.68207608934">
        <ele>52.421895</ele>
        <time>2019-09-10T15:16:13.500Z</time>
      </trkpt>
      <trkpt lat="10.1573185146647" lon="-75.6820781581823">
        <ele>52.421895</ele>
        <time>2019-09-10T15:16:13.600Z</time>
      </trkpt>
      <trkpt lat="10.1573202908933" lon="-75.6820802206886">
        <ele>52.421895</ele>
        <time>2019-09-10T15:16:13.700Z</time>
      </trkpt>
      <trkpt lat="10.157322069102" lon="-75.6820823000448">
        <ele>52.421895</ele>
        <time>2019-09-10T15:16:13.800Z</time>
      </trkpt>
      <trkpt lat="10.1573238184417" lon="-75.6820843829519">
        <ele>52.421895</ele>
        <time>2019-09-10T15:16:13.900Z</time>
      </trkpt>
      <trkpt lat="10.1573255511061" lon="-75.6820864763728">
        <ele>52.421895</ele>
        <time>2019-09-10T15:16:14.000Z</time>
      </trkpt>
      <trkpt lat="10.1573272804354" lon="-75.6820885690278">
        <ele>52.421895</ele>
        <time>2019-09-10T15:16:14.100Z</time>
      </trkpt>
      <trkpt lat="10.1573290216459" lon="-75.6820906669048">
        <ele>52.421895</ele>
        <time>2019-09-10T15:16:14.200Z</time>
      </trkpt>
      <trkpt lat="10.1573307334663" lon="-75.68209274271">
        <ele>52.421895</ele>
        <time>2019-09-10T15:16:14.300Z</time>
      </trkpt>
      <trkpt lat="10.1573324359067" lon="-75.6820948152426">
        <ele>52.421895</ele>
        <time>2019-09-10T15:16:14.400Z</time>
      </trkpt>
      <trkpt lat="10.1573341386599" lon="-75.6820968877056">
        <ele>52.421895</ele>
        <time>2019-09-10T15:16:14.500Z</time>
      </trkpt>
      <trkpt lat="10.1573358615276" lon="-75.6820989721445">
        <ele>52.421895</ele>
        <time>2019-09-10T15:16:14.600Z</time>
      </trkpt>
      <trkpt lat="10.1573375952342" lon="-75.6821010801872">
        <ele>52.421895</ele>
        <time>2019-09-10T15:16:14.700Z</time>
      </trkpt>
      <trkpt lat="10.1573393467625" lon="-75.682103202225">
        <ele>52.421895</ele>
        <time>2019-09-10T15:16:14.800Z</time>
      </trkpt>
      <trkpt lat="10.1573411062116" lon="-75.6821053069255">
        <ele>52.421895</ele>
        <time>2019-09-10T15:16:14.900Z</time>
      </trkpt>
      <trkpt lat="10.1573428669113" lon="-75.6821073923393">
        <ele>52.421895</ele>
        <time>2019-09-10T15:16:15.000Z</time>
      </trkpt>
      <trkpt lat="10.1573446363655" lon="-75.6821094789367">
        <ele>52.421895</ele>
        <time>2019-09-10T15:16:15.100Z</time>
      </trkpt>
      <trkpt lat="10.1573464075915" lon="-75.682111573402">
        <ele>52.421895</ele>
        <time>2019-09-10T15:16:15.200Z</time>
      </trkpt>
      <trkpt lat="10.1573481843411" lon="-75.6821136948131">
        <ele>52.321895</ele>
        <time>2019-09-10T15:16:15.300Z</time>
      </trkpt>
      <trkpt lat="10.1573499520236" lon="-75.682115833283">
        <ele>52.321895</ele>
        <time>2019-09-10T15:16:15.400Z</time>
      </trkpt>
      <trkpt lat="10.1573516962565" lon="-75.6821179287231">
        <ele>52.321895</ele>
        <time>2019-09-10T15:16:15.500Z</time>
      </trkpt>
      <trkpt lat="10.1573534286082" lon="-75.6821199981225">
        <ele>52.321895</ele>
        <time>2019-09-10T15:16:15.600Z</time>
      </trkpt>
      <trkpt lat="10.1573551532477" lon="-75.6821220781053">
        <ele>52.321895</ele>
        <time>2019-09-10T15:16:15.700Z</time>
      </trkpt>
      <trkpt lat="10.1573568817433" lon="-75.6821241857302">
        <ele>52.321895</ele>
        <time>2019-09-10T15:16:15.800Z</time>
      </trkpt>
      <trkpt lat="10.1573603849041" lon="-75.6821284058539">
        <ele>52.321895</ele>
        <time>2019-09-10T15:16:16.000Z</time>
      </trkpt>
      <trkpt lat="10.1573621255935" lon="-75.6821305349241">
        <ele>52.321895</ele>
        <time>2019-09-10T15:16:16.100Z</time>
      </trkpt>
      <trkpt lat="10.1573638589874" lon="-75.6821326708874">
        <ele>52.321895</ele>
        <time>2019-09-10T15:16:16.200Z</time>
      </trkpt>
      <trkpt lat="10.1573655889421" lon="-75.6821348049708">
        <ele>52.321895</ele>
        <time>2019-09-10T15:16:16.300Z</time>
      </trkpt>
      <trkpt lat="10.1573673257753" lon="-75.6821369260338">
        <ele>52.421895</ele>
        <time>2019-09-10T15:16:16.400Z</time>
      </trkpt>
      <trkpt lat="10.1573690542709" lon="-75.682139038463">
        <ele>52.421895</ele>
        <time>2019-09-10T15:16:16.500Z</time>
      </trkpt>
      <trkpt lat="10.1573707921464" lon="-75.6821411499174">
        <ele>52.421895</ele>
        <time>2019-09-10T15:16:16.600Z</time>
      </trkpt>
      <trkpt lat="10.1573725161605" lon="-75.6821432523899">
        <ele>52.421895</ele>
        <time>2019-09-10T15:16:16.700Z</time>
      </trkpt>
      <trkpt lat="10.1573742464278" lon="-75.6821453555586">
        <ele>52.421895</ele>
        <time>2019-09-10T15:16:16.800Z</time>
      </trkpt>
      <trkpt lat="10.1573759809682" lon="-75.6821474468907">
        <ele>52.421895</ele>
        <time>2019-09-10T15:16:16.900Z</time>
      </trkpt>
      <trkpt lat="10.1573777279108" lon="-75.6821495369695">
        <ele>52.421895</ele>
        <time>2019-09-10T15:16:17.000Z</time>
      </trkpt>
      <trkpt lat="10.1573794801687" lon="-75.6821516427144">
        <ele>52.421895</ele>
        <time>2019-09-10T15:16:17.100Z</time>
      </trkpt>
      <trkpt lat="10.1573812450372" lon="-75.682153759182">
        <ele>52.421895</ele>
        <time>2019-09-10T15:16:17.200Z</time>
      </trkpt>
      <trkpt lat="10.1573830307498" lon="-75.6821558733519">
        <ele>52.421895</ele>
        <time>2019-09-10T15:16:17.300Z</time>
      </trkpt>
      <trkpt lat="10.1573848278224" lon="-75.6821579820909">
        <ele>52.421895</ele>
        <time>2019-09-10T15:16:17.400Z</time>
      </trkpt>
      <trkpt lat="10.1573866317736" lon="-75.6821600872788">
        <ele>52.421895</ele>
        <time>2019-09-10T15:16:17.500Z</time>
      </trkpt>
      <trkpt lat="10.157388435829" lon="-75.6821621897513">
        <ele>52.421895</ele>
        <time>2019-09-10T15:16:17.600Z</time>
      </trkpt>
      <trkpt lat="10.1573902455123" lon="-75.6821642897868">
        <ele>52.421895</ele>
        <time>2019-09-10T15:16:17.700Z</time>
      </trkpt>
      <trkpt lat="10.1573920517563" lon="-75.682166388012">
        <ele>52.421895</ele>
        <time>2019-09-10T15:16:17.800Z</time>
      </trkpt>
      <trkpt lat="10.1573938572708" lon="-75.682168484775">
        <ele>52.421895</ele>
        <time>2019-09-10T15:16:17.900Z</time>
      </trkpt>
      <trkpt lat="10.1573956603882" lon="-75.6821705827913">
        <ele>52.421895</ele>
        <time>2019-09-10T15:16:18.000Z</time>
      </trkpt>
      <trkpt lat="10.1573974552722" lon="-75.6821726828964">
        <ele>52.421895</ele>
        <time>2019-09-10T15:16:18.100Z</time>
      </trkpt>
      <trkpt lat="10.1573992406722" lon="-75.6821747841156">
        <ele>52.421895</ele>
        <time>2019-09-10T15:16:18.200Z</time>
      </trkpt>
      <trkpt lat="10.1574010077293" lon="-75.6821768852651">
        <ele>52.421895</ele>
        <time>2019-09-10T15:16:18.300Z</time>
      </trkpt>
      <trkpt lat="10.1574027618631" lon="-75.6821789867628">
        <ele>52.421895</ele>
        <time>2019-09-10T15:16:18.400Z</time>
      </trkpt>
      <trkpt lat="10.1574044965077" lon="-75.6821811110287">
        <ele>52.421895</ele>
        <time>2019-09-10T15:16:18.500Z</time>
      </trkpt>
      <trkpt lat="10.1574062174995" lon="-75.6821832380797">
        <ele>52.421895</ele>
        <time>2019-09-10T15:16:18.600Z</time>
      </trkpt>
      <trkpt lat="10.1574078817953" lon="-75.6821853111693">
        <ele>52.421895</ele>
        <time>2019-09-10T15:16:18.700Z</time>
      </trkpt>
      <trkpt lat="10.1574095415054" lon="-75.6821873556421">
        <ele>52.421895</ele>
        <time>2019-09-10T15:16:18.800Z</time>
      </trkpt>
      <trkpt lat="10.1574111838107" lon="-75.6821893949624">
        <ele>52.421895</ele>
        <time>2019-09-10T15:16:18.900Z</time>
      </trkpt>
      <trkpt lat="10.1574128540471" lon="-75.6821914548924">
        <ele>52.421895</ele>
        <time>2019-09-10T15:16:19.000Z</time>
      </trkpt>
      <trkpt lat="10.1574145057323" lon="-75.6821934820976">
        <ele>52.421895</ele>
        <time>2019-09-10T15:16:19.100Z</time>
      </trkpt>
      <trkpt lat="10.1574161658593" lon="-75.6821955101382">
        <ele>52.421895</ele>
        <time>2019-09-10T15:16:19.200Z</time>
      </trkpt>
      <trkpt lat="10.1574178334901" lon="-75.6821975513385">
        <ele>52.421895</ele>
        <time>2019-09-10T15:16:19.300Z</time>
      </trkpt>
      <trkpt lat="10.1574195329082" lon="-75.6821996273525">
        <ele>52.421895</ele>
        <time>2019-09-10T15:16:19.400Z</time>
      </trkpt>
      <trkpt lat="10.157421228366" lon="-75.6822016979356">
        <ele>52.421895</ele>
        <time>2019-09-10T15:16:19.500Z</time>
      </trkpt>
      <trkpt lat="10.1574229267419" lon="-75.6822037724178">
        <ele>52.421895</ele>
        <time>2019-09-10T15:16:19.600Z</time>
      </trkpt>
      <trkpt lat="10.157424634706" lon="-75.6822058615218">
        <ele>52.421895</ele>
        <time>2019-09-10T15:16:19.700Z</time>
      </trkpt>
      <trkpt lat="10.157426364348" lon="-75.682207969077">
        <ele>52.421895</ele>
        <time>2019-09-10T15:16:19.800Z</time>
      </trkpt>
      <trkpt lat="10.1574280751262" lon="-75.6822100535856">
        <ele>52.421895</ele>
        <time>2019-09-10T15:16:19.900Z</time>
      </trkpt>
      <trkpt lat="10.1574297806933" lon="-75.6822121310618">
        <ele>52.421895</ele>
        <time>2019-09-10T15:16:20.000Z</time>
      </trkpt>
      <trkpt lat="10.1574314965782" lon="-75.6822142021322">
        <ele>52.421895</ele>
        <time>2019-09-10T15:16:20.100Z</time>
      </trkpt>
      <trkpt lat="10.1574349852524" lon="-75.6822183994181">
        <ele>52.421895</ele>
        <time>2019-09-10T15:16:20.300Z</time>
      </trkpt>
      <trkpt lat="10.1574367438677" lon="-75.6822205281402">
        <ele>52.421895</ele>
        <time>2019-09-10T15:16:20.400Z</time>
      </trkpt>
      <trkpt lat="10.1574384516234" lon="-75.6822226172442">
        <ele>52.421895</ele>
        <time>2019-09-10T15:16:20.500Z</time>
      </trkpt>
      <trkpt lat="10.1574418174218" lon="-75.6822267870272">
        <ele>52.421895</ele>
        <time>2019-09-10T15:16:20.700Z</time>
      </trkpt>
      <trkpt lat="10.1574435407063" lon="-75.6822289186736">
        <ele>52.421895</ele>
        <time>2019-09-10T15:16:20.800Z</time>
      </trkpt>
      <trkpt lat="10.1574470181247" lon="-75.6822331687372">
        <ele>52.421895</ele>
        <time>2019-09-10T15:16:21.000Z</time>
      </trkpt>
      <trkpt lat="10.1574487789287" lon="-75.6822352756658">
        <ele>52.421895</ele>
        <time>2019-09-10T15:16:21.100Z</time>
      </trkpt>
      <trkpt lat="10.1574505529686" lon="-75.6822373825944">
        <ele>52.421895</ele>
        <time>2019-09-10T15:16:21.200Z</time>
      </trkpt>
      <trkpt lat="10.1574540827056" lon="-75.6822415861468">
        <ele>52.421895</ele>
        <time>2019-09-10T15:16:21.400Z</time>
      </trkpt>
      <trkpt lat="10.1574576067105" lon="-75.6822457652599">
        <ele>52.421895</ele>
        <time>2019-09-10T15:16:21.600Z</time>
      </trkpt>
      <trkpt lat="10.1574593675145" lon="-75.6822478325009">
        <ele>52.421895</ele>
        <time>2019-09-10T15:16:21.700Z</time>
      </trkpt>
      <trkpt lat="10.1574628438906" lon="-75.6822520121014">
        <ele>52.421895</ele>
        <time>2019-09-10T15:16:21.900Z</time>
      </trkpt>
      <trkpt lat="10.1574645472691" lon="-75.6822541521031">
        <ele>52.421895</ele>
        <time>2019-09-10T15:16:22.000Z</time>
      </trkpt>
      <trkpt lat="10.1574662101059" lon="-75.6822562937062">
        <ele>52.421895</ele>
        <time>2019-09-10T15:16:22.100Z</time>
      </trkpt>
      <trkpt lat="10.1574678851364" lon="-75.6822584328724">
        <ele>52.421895</ele>
        <time>2019-09-10T15:16:22.200Z</time>
      </trkpt>
      <trkpt lat="10.1574695600627" lon="-75.6822605482956">
        <ele>52.421895</ele>
        <time>2019-09-10T15:16:22.300Z</time>
      </trkpt>
      <trkpt lat="10.1574712540613" lon="-75.6822626577308">
        <ele>52.421895</ele>
        <time>2019-09-10T15:16:22.400Z</time>
      </trkpt>
      <trkpt lat="10.1574746382024" lon="-75.6822668777153">
        <ele>52.421895</ele>
        <time>2019-09-10T15:16:22.600Z</time>
      </trkpt>
      <trkpt lat="10.157476339705" lon="-75.6822689779597">
        <ele>52.421895</ele>
        <time>2019-09-10T15:16:22.700Z</time>
      </trkpt>
      <trkpt lat="10.1574780593418" lon="-75.6822710745138">
        <ele>52.421895</ele>
        <time>2019-09-10T15:16:22.800Z</time>
      </trkpt>
      <trkpt lat="10.1574797615739" lon="-75.6822731549144">
        <ele>52.421895</ele>
        <time>2019-09-10T15:16:22.900Z</time>
      </trkpt>
      <trkpt lat="10.1574814576569" lon="-75.6822752291181">
        <ele>52.421895</ele>
        <time>2019-09-10T15:16:23.000Z</time>
      </trkpt>
      <trkpt lat="10.1574849170452" lon="-75.6822794172828">
        <ele>52.421895</ele>
        <time>2019-09-10T15:16:23.200Z</time>
      </trkpt>
      <trkpt lat="10.1574866511687" lon="-75.6822814970567">
        <ele>52.421895</ele>
        <time>2019-09-10T15:16:23.300Z</time>
      </trkpt>
      <trkpt lat="10.1574883881061" lon="-75.6822835637406">
        <ele>52.421895</ele>
        <time>2019-09-10T15:16:23.400Z</time>
      </trkpt>
      <trkpt lat="10.1574901230634" lon="-75.6822856114162">
        <ele>52.421895</ele>
        <time>2019-09-10T15:16:23.500Z</time>
      </trkpt>
      <trkpt lat="10.1574936424826" lon="-75.6822897571081">
        <ele>52.421895</ele>
        <time>2019-09-10T15:16:23.700Z</time>
      </trkpt>
      <trkpt lat="10.1574954546672" lon="-75.6822918898686">
        <ele>52.421895</ele>
        <time>2019-09-10T15:16:23.800Z</time>
      </trkpt>
      <trkpt lat="10.1574972564297" lon="-75.6822940199135">
        <ele>52.421895</ele>
        <time>2019-09-10T15:16:23.900Z</time>
      </trkpt>
      <trkpt lat="10.1574990271346" lon="-75.6822961268422">
        <ele>52.421895</ele>
        <time>2019-09-10T15:16:24.000Z</time>
      </trkpt>
      <trkpt lat="10.1575007806431" lon="-75.6822982477659">
        <ele>52.421895</ele>
        <time>2019-09-10T15:16:24.100Z</time>
      </trkpt>
      <trkpt lat="10.1575025172679" lon="-75.682300369386">
        <ele>52.421895</ele>
        <time>2019-09-10T15:16:24.200Z</time>
      </trkpt>
      <trkpt lat="10.1575042002192" lon="-75.6823024654527">
        <ele>52.421895</ele>
        <time>2019-09-10T15:16:24.300Z</time>
      </trkpt>
      <trkpt lat="10.1575058672247" lon="-75.682304546828">
        <ele>52.421895</ele>
        <time>2019-09-10T15:16:24.400Z</time>
      </trkpt>
      <trkpt lat="10.1575075322501" lon="-75.6823066023019">
        <ele>52.421895</ele>
        <time>2019-09-10T15:16:24.500Z</time>
      </trkpt>
      <trkpt lat="10.157509229688" lon="-75.6823086588898">
        <ele>52.421895</ele>
        <time>2019-09-10T15:16:24.600Z</time>
      </trkpt>
      <trkpt lat="10.1575109148279" lon="-75.6823107144334">
        <ele>52.521895</ele>
        <time>2019-09-10T15:16:24.700Z</time>
      </trkpt>
      <trkpt lat="10.1575126033028" lon="-75.6823127936502">
        <ele>52.521895</ele>
        <time>2019-09-10T15:16:24.800Z</time>
      </trkpt>
      <trkpt lat="10.1575142769785" lon="-75.6823148808047">
        <ele>52.421895</ele>
        <time>2019-09-10T15:16:24.900Z</time>
      </trkpt>
      <trkpt lat="10.1575159621184" lon="-75.6823169778462">
        <ele>52.421895</ele>
        <time>2019-09-10T15:16:25.000Z</time>
      </trkpt>
      <trkpt lat="10.1575176394418" lon="-75.6823190562972">
        <ele>52.421895</ele>
        <time>2019-09-10T15:16:25.100Z</time>
      </trkpt>
      <trkpt lat="10.157519328021" lon="-75.6823211300135">
        <ele>52.421895</ele>
        <time>2019-09-10T15:16:25.200Z</time>
      </trkpt>
      <trkpt lat="10.157522702678" lon="-75.682325295967">
        <ele>52.421895</ele>
        <time>2019-09-10T15:16:25.400Z</time>
      </trkpt>
      <trkpt lat="10.1575243627008" lon="-75.6823273893879">
        <ele>52.421895</ele>
        <time>2019-09-10T15:16:25.500Z</time>
      </trkpt>
      <trkpt lat="10.1575260252249" lon="-75.6823294901893">
        <ele>52.521895</ele>
        <time>2019-09-10T15:16:25.600Z</time>
      </trkpt>
      <trkpt lat="10.1575276807662" lon="-75.6823315724698">
        <ele>52.521895</ele>
        <time>2019-09-10T15:16:25.700Z</time>
      </trkpt>
      <trkpt lat="10.1575293624668" lon="-75.6823336516867">
        <ele>52.521895</ele>
        <time>2019-09-10T15:16:25.800Z</time>
      </trkpt>
      <trkpt lat="10.1575310446885" lon="-75.6823357318087">
        <ele>52.521895</ele>
        <time>2019-09-10T15:16:25.900Z</time>
      </trkpt>
      <trkpt lat="10.1575327444193" lon="-75.6823378263436">
        <ele>52.521895</ele>
        <time>2019-09-10T15:16:26.000Z</time>
      </trkpt>
      <trkpt lat="10.1575344413361" lon="-75.6823399228281">
        <ele>52.421895</ele>
        <time>2019-09-10T15:16:26.100Z</time>
      </trkpt>
      <trkpt lat="10.1575361507594" lon="-75.6823420294782">
        <ele>52.521895</ele>
        <time>2019-09-10T15:16:26.200Z</time>
      </trkpt>
      <trkpt lat="10.1575378947838" lon="-75.6823441593143">
        <ele>52.521895</ele>
        <time>2019-09-10T15:16:26.300Z</time>
      </trkpt>
      <trkpt lat="10.1575396627789" lon="-75.6823463005693">
        <ele>52.421895</ele>
        <time>2019-09-10T15:16:26.400Z</time>
      </trkpt>
      <trkpt lat="10.1575414066992" lon="-75.6823483710828">
        <ele>52.421895</ele>
        <time>2019-09-10T15:16:26.500Z</time>
      </trkpt>
      <trkpt lat="10.1575431339441" lon="-75.6823503994716">
        <ele>52.421895</ele>
        <time>2019-09-10T15:16:26.600Z</time>
      </trkpt>
      <trkpt lat="10.1575448774475" lon="-75.6823524585661">
        <ele>52.421895</ele>
        <time>2019-09-10T15:16:26.700Z</time>
      </trkpt>
      <trkpt lat="10.1575466453384" lon="-75.6823545729448">
        <ele>52.421895</ele>
        <time>2019-09-10T15:16:26.800Z</time>
      </trkpt>
      <trkpt lat="10.1575484271948" lon="-75.6823567153835">
        <ele>52.421895</ele>
        <time>2019-09-10T15:16:26.900Z</time>
      </trkpt>
      <trkpt lat="10.157550213637" lon="-75.6823588624176">
        <ele>52.421895</ele>
        <time>2019-09-10T15:16:27.000Z</time>
      </trkpt>
      <trkpt lat="10.1575519948681" lon="-75.6823609623139">
        <ele>52.421895</ele>
        <time>2019-09-10T15:16:27.100Z</time>
      </trkpt>
      <trkpt lat="10.1575537688038" lon="-75.6823630350554">
        <ele>52.421895</ele>
        <time>2019-09-10T15:16:27.200Z</time>
      </trkpt>
      <trkpt lat="10.1575555474294" lon="-75.6823651490164">
        <ele>52.421895</ele>
        <time>2019-09-10T15:16:27.300Z</time>
      </trkpt>
      <trkpt lat="10.1575573307449" lon="-75.682367297443">
        <ele>52.421895</ele>
        <time>2019-09-10T15:16:27.400Z</time>
      </trkpt>
      <trkpt lat="10.1575591206264" lon="-75.6823694409957">
        <ele>52.421895</ele>
        <time>2019-09-10T15:16:27.500Z</time>
      </trkpt>
      <trkpt lat="10.1575609156146" lon="-75.6823715715977">
        <ele>52.421895</ele>
        <time>2019-09-10T15:16:27.600Z</time>
      </trkpt>
      <trkpt lat="10.1575626915305" lon="-75.6823736874386">
        <ele>52.521895</ele>
        <time>2019-09-10T15:16:27.700Z</time>
      </trkpt>
      <trkpt lat="10.157566231898" lon="-75.6823778917569">
        <ele>52.521895</ele>
        <time>2019-09-10T15:16:27.900Z</time>
      </trkpt>
      <trkpt lat="10.1575680108363" lon="-75.6823799895643">
        <ele>52.521895</ele>
        <time>2019-09-10T15:16:28.000Z</time>
      </trkpt>
      <trkpt lat="10.1575697672629" lon="-75.6823820779721">
        <ele>52.521895</ele>
        <time>2019-09-10T15:16:28.100Z</time>
      </trkpt>
      <trkpt lat="10.1575715211883" lon="-75.6823841718107">
        <ele>52.521895</ele>
        <time>2019-09-10T15:16:28.200Z</time>
      </trkpt>
      <trkpt lat="10.1575732506219" lon="-75.6823862352918">
        <ele>52.521895</ele>
        <time>2019-09-10T15:16:28.300Z</time>
      </trkpt>
      <trkpt lat="10.1575749759909" lon="-75.6823882946648">
        <ele>52.521895</ele>
        <time>2019-09-10T15:16:28.400Z</time>
      </trkpt>
      <trkpt lat="10.1575766786398" lon="-75.6823903514616">
        <ele>52.521895</ele>
        <time>2019-09-10T15:16:28.500Z</time>
      </trkpt>
      <trkpt lat="10.1575783860829" lon="-75.6823924280327">
        <ele>52.521895</ele>
        <time>2019-09-10T15:16:28.600Z</time>
      </trkpt>
      <trkpt lat="10.1575800852925" lon="-75.6823945071103">
        <ele>52.521895</ele>
        <time>2019-09-10T15:16:28.700Z</time>
      </trkpt>
      <trkpt lat="10.1575818027408" lon="-75.6823965970498">
        <ele>52.521895</ele>
        <time>2019-09-10T15:16:28.800Z</time>
      </trkpt>
      <trkpt lat="10.1575835456188" lon="-75.6823986924203">
        <ele>52.521895</ele>
        <time>2019-09-10T15:16:28.900Z</time>
      </trkpt>
      <trkpt lat="10.1575853110084" lon="-75.6824007957979">
        <ele>52.521895</ele>
        <time>2019-09-10T15:16:29.000Z</time>
      </trkpt>
      <trkpt lat="10.1575870802542" lon="-75.6824029034924">
        <ele>52.521895</ele>
        <time>2019-09-10T15:16:29.100Z</time>
      </trkpt>
      <trkpt lat="10.1575888403286" lon="-75.6824050141809">
        <ele>52.521895</ele>
        <time>2019-09-10T15:16:29.200Z</time>
      </trkpt>
      <trkpt lat="10.1575905873754" lon="-75.682407127376">
        <ele>52.521895</ele>
        <time>2019-09-10T15:16:29.300Z</time>
      </trkpt>
      <trkpt lat="10.1575923261888" lon="-75.68240924266">
        <ele>52.521895</ele>
        <time>2019-09-10T15:16:29.400Z</time>
      </trkpt>
      <trkpt lat="10.1575940339445" lon="-75.6824113783448">
        <ele>52.521895</ele>
        <time>2019-09-10T15:16:29.500Z</time>
      </trkpt>
      <trkpt lat="10.1575957346133" lon="-75.6824135212708">
        <ele>52.521895</ele>
        <time>2019-09-10T15:16:29.600Z</time>
      </trkpt>
      <trkpt lat="10.157597431009" lon="-75.6824156559808">
        <ele>52.521895</ele>
        <time>2019-09-10T15:16:29.700Z</time>
      </trkpt>
      <trkpt lat="10.1576008653844" lon="-75.6824199158619">
        <ele>52.521895</ele>
        <time>2019-09-10T15:16:29.900Z</time>
      </trkpt>
      <trkpt lat="10.1576025912745" lon="-75.6824220567687">
        <ele>52.521895</ele>
        <time>2019-09-10T15:16:30.000Z</time>
      </trkpt>
      <trkpt lat="10.1576042947571" lon="-75.6824241879277">
        <ele>52.521895</ele>
        <time>2019-09-10T15:16:30.100Z</time>
      </trkpt>
      <trkpt lat="10.1576059946963" lon="-75.6824263089211">
        <ele>52.521895</ele>
        <time>2019-09-10T15:16:30.200Z</time>
      </trkpt>
      <trkpt lat="10.1576077063082" lon="-75.6824284088174">
        <ele>52.521895</ele>
        <time>2019-09-10T15:16:30.300Z</time>
      </trkpt>
      <trkpt lat="10.1576094354292" lon="-75.6824305047448">
        <ele>52.521895</ele>
        <time>2019-09-10T15:16:30.400Z</time>
      </trkpt>
      <trkpt lat="10.1576111548576" lon="-75.6824326120216">
        <ele>52.521895</ele>
        <time>2019-09-10T15:16:30.500Z</time>
      </trkpt>
      <trkpt lat="10.1576128757451" lon="-75.6824347291855">
        <ele>52.521895</ele>
        <time>2019-09-10T15:16:30.600Z</time>
      </trkpt>
      <trkpt lat="10.1576146043449" lon="-75.6824368145992">
        <ele>52.421895</ele>
        <time>2019-09-10T15:16:30.700Z</time>
      </trkpt>
      <trkpt lat="10.1576163480567" lon="-75.6824388911702">
        <ele>52.421895</ele>
        <time>2019-09-10T15:16:30.800Z</time>
      </trkpt>
      <trkpt lat="10.1576180605023" lon="-75.6824409209516">
        <ele>52.421895</ele>
        <time>2019-09-10T15:16:30.900Z</time>
      </trkpt>
      <trkpt lat="10.157619761588" lon="-75.6824429424473">
        <ele>52.421895</ele>
        <time>2019-09-10T15:16:31.000Z</time>
      </trkpt>
      <trkpt lat="10.1576214552739" lon="-75.6824449832297">
        <ele>52.421895</ele>
        <time>2019-09-10T15:16:31.100Z</time>
      </trkpt>
      <trkpt lat="10.1576231742855" lon="-75.6824470723337">
        <ele>52.421895</ele>
        <time>2019-09-10T15:16:31.200Z</time>
      </trkpt>
      <trkpt lat="10.1576248747458" lon="-75.682449147373">
        <ele>52.421895</ele>
        <time>2019-09-10T15:16:31.300Z</time>
      </trkpt>
      <trkpt lat="10.1576265822931" lon="-75.6824512186523">
        <ele>52.421895</ele>
        <time>2019-09-10T15:16:31.400Z</time>
      </trkpt>
      <trkpt lat="10.1576301103626" lon="-75.6824554932248">
        <ele>52.421895</ele>
        <time>2019-09-10T15:16:31.600Z</time>
      </trkpt>
      <trkpt lat="10.1576319140011" lon="-75.6824576752119">
        <ele>52.521895</ele>
        <time>2019-09-10T15:16:31.700Z</time>
      </trkpt>
      <trkpt lat="10.1576337159721" lon="-75.6824598488436">
        <ele>52.421895</ele>
        <time>2019-09-10T15:16:31.800Z</time>
      </trkpt>
      <trkpt lat="10.1576355149728" lon="-75.6824620187155">
        <ele>52.421895</ele>
        <time>2019-09-10T15:16:31.900Z</time>
      </trkpt>
      <trkpt lat="10.1576372958913" lon="-75.6824641658889">
        <ele>52.521895</ele>
        <time>2019-09-10T15:16:32.000Z</time>
      </trkpt>
      <trkpt lat="10.1576390405931" lon="-75.6824662783877">
        <ele>52.521895</ele>
        <time>2019-09-10T15:16:32.100Z</time>
      </trkpt>
      <trkpt lat="10.1576407712774" lon="-75.6824683712516">
        <ele>52.521895</ele>
        <time>2019-09-10T15:16:32.200Z</time>
      </trkpt>
      <trkpt lat="10.1576424821597" lon="-75.6824704698249">
        <ele>52.521895</ele>
        <time>2019-09-10T15:16:32.300Z</time>
      </trkpt>
      <trkpt lat="10.1576442059654" lon="-75.6824725899828">
        <ele>52.521895</ele>
        <time>2019-09-10T15:16:32.400Z</time>
      </trkpt>
      <trkpt lat="10.1576459189842" lon="-75.6824747020638">
        <ele>52.521895</ele>
        <time>2019-09-10T15:16:32.500Z</time>
      </trkpt>
      <trkpt lat="10.1576476496164" lon="-75.6824768112205">
        <ele>52.421895</ele>
        <time>2019-09-10T15:16:32.600Z</time>
      </trkpt>
      <trkpt lat="10.1576493993208" lon="-75.6824789031096">
        <ele>52.421895</ele>
        <time>2019-09-10T15:16:32.700Z</time>
      </trkpt>
      <trkpt lat="10.1576511713284" lon="-75.682480995138">
        <ele>52.421895</ele>
        <time>2019-09-10T15:16:32.800Z</time>
      </trkpt>
      <trkpt lat="10.1576529412516" lon="-75.6824830800643">
        <ele>52.421895</ele>
        <time>2019-09-10T15:16:32.900Z</time>
      </trkpt>
      <trkpt lat="10.1576547119044" lon="-75.6824851713964">
        <ele>52.421895</ele>
        <time>2019-09-10T15:16:33.000Z</time>
      </trkpt>
      <trkpt lat="10.1576564934482" lon="-75.682487256462">
        <ele>52.421895</ele>
        <time>2019-09-10T15:16:33.100Z</time>
      </trkpt>
      <trkpt lat="10.1576582848408" lon="-75.6824893503006">
        <ele>52.421895</ele>
        <time>2019-09-10T15:16:33.200Z</time>
      </trkpt>
      <trkpt lat="10.157660082174" lon="-75.6824914416327">
        <ele>52.421895</ele>
        <time>2019-09-10T15:16:33.300Z</time>
      </trkpt>
      <trkpt lat="10.1576618744525" lon="-75.6824935393705">
        <ele>52.421895</ele>
        <time>2019-09-10T15:16:33.400Z</time>
      </trkpt>
      <trkpt lat="10.1576636263977" lon="-75.6824956127386">
        <ele>52.421895</ele>
        <time>2019-09-10T15:16:33.500Z</time>
      </trkpt>
      <trkpt lat="10.1576653554144" lon="-75.6824976824862">
        <ele>52.421895</ele>
        <time>2019-09-10T15:16:33.600Z</time>
      </trkpt>
      <trkpt lat="10.1576671031386" lon="-75.682499773679">
        <ele>52.421895</ele>
        <time>2019-09-10T15:16:33.700Z</time>
      </trkpt>
      <trkpt lat="10.1576688817121" lon="-75.6825018900769">
        <ele>52.421895</ele>
        <time>2019-09-10T15:16:33.800Z</time>
      </trkpt>
      <trkpt lat="10.1576724029552" lon="-75.6825061224551">
        <ele>52.421895</ele>
        <time>2019-09-10T15:16:34.000Z</time>
      </trkpt>
      <trkpt lat="10.1576741831441" lon="-75.682508257374">
        <ele>52.421895</ele>
        <time>2019-09-10T15:16:34.100Z</time>
      </trkpt>
      <trkpt lat="10.1576759712017" lon="-75.6825103968883">
        <ele>52.421895</ele>
        <time>2019-09-10T15:16:34.200Z</time>
      </trkpt>
      <trkpt lat="10.1576777429488" lon="-75.6825125323642">
        <ele>52.421895</ele>
        <time>2019-09-10T15:16:34.300Z</time>
      </trkpt>
      <trkpt lat="10.1576794970826" lon="-75.6825146532184">
        <ele>52.421895</ele>
        <time>2019-09-10T15:16:34.400Z</time>
      </trkpt>
      <trkpt lat="10.157681235427" lon="-75.6825167637676">
        <ele>52.421895</ele>
        <time>2019-09-10T15:16:34.500Z</time>
      </trkpt>
      <trkpt lat="10.1576829719476" lon="-75.6825188701392">
        <ele>52.421895</ele>
        <time>2019-09-10T15:16:34.600Z</time>
      </trkpt>
      <trkpt lat="10.157684663497" lon="-75.6825209472673">
        <ele>52.421895</ele>
        <time>2019-09-10T15:16:34.700Z</time>
      </trkpt>
      <trkpt lat="10.1576863426964" lon="-75.6825230196607">
        <ele>52.421895</ele>
        <time>2019-09-10T15:16:34.800Z</time>
      </trkpt>
      <trkpt lat="10.1576880142355" lon="-75.6825250892689">
        <ele>52.421895</ele>
        <time>2019-09-10T15:16:34.900Z</time>
      </trkpt>
      <trkpt lat="10.1576897130804" lon="-75.68252717893">
        <ele>52.421895</ele>
        <time>2019-09-10T15:16:35.000Z</time>
      </trkpt>
      <trkpt lat="10.1576913973865" lon="-75.6825292690087">
        <ele>52.421895</ele>
        <time>2019-09-10T15:16:35.100Z</time>
      </trkpt>
      <trkpt lat="10.1576930972736" lon="-75.6825313668858">
        <ele>52.421895</ele>
        <time>2019-09-10T15:16:35.200Z</time>
      </trkpt>
      <trkpt lat="10.1576947978382" lon="-75.682533482866">
        <ele>52.421895</ele>
        <time>2019-09-10T15:16:35.300Z</time>
      </trkpt>
      <trkpt lat="10.1576965143484" lon="-75.6825356158353">
        <ele>52.421895</ele>
        <time>2019-09-10T15:16:35.400Z</time>
      </trkpt>
      <trkpt lat="10.1576982235111" lon="-75.6825377426774">
        <ele>52.421895</ele>
        <time>2019-09-10T15:16:35.500Z</time>
      </trkpt>
      <trkpt lat="10.1576999438775" lon="-75.6825398625568">
        <ele>52.421895</ele>
        <time>2019-09-10T15:16:35.600Z</time>
      </trkpt>
      <trkpt lat="10.1577016745096" lon="-75.6825419705994">
        <ele>52.421895</ele>
        <time>2019-09-10T15:16:35.700Z</time>
      </trkpt>
      <trkpt lat="10.1577034205143" lon="-75.6825440751607">
        <ele>52.421895</ele>
        <time>2019-09-10T15:16:35.800Z</time>
      </trkpt>
      <trkpt lat="10.1577051621416" lon="-75.6825461503392">
        <ele>52.421895</ele>
        <time>2019-09-10T15:16:35.900Z</time>
      </trkpt>
      <trkpt lat="10.1577069006424" lon="-75.6825482241251">
        <ele>52.421895</ele>
        <time>2019-09-10T15:16:36.000Z</time>
      </trkpt>
      <trkpt lat="10.1577086400811" lon="-75.6825503002784">
        <ele>52.421895</ele>
        <time>2019-09-10T15:16:36.100Z</time>
      </trkpt>
      <trkpt lat="10.1577103895771" lon="-75.6825523927245">
        <ele>52.421895</ele>
        <time>2019-09-10T15:16:36.200Z</time>
      </trkpt>
      <trkpt lat="10.1577121184375" lon="-75.6825544834995">
        <ele>52.421895</ele>
        <time>2019-09-10T15:16:36.300Z</time>
      </trkpt>
      <trkpt lat="10.1577138445881" lon="-75.6825565858328">
        <ele>52.421895</ele>
        <time>2019-09-10T15:16:36.400Z</time>
      </trkpt>
      <trkpt lat="10.157715566101" lon="-75.682558708915">
        <ele>52.421895</ele>
        <time>2019-09-10T15:16:36.500Z</time>
      </trkpt>
      <trkpt lat="10.157717305696" lon="-75.6825608452264">
        <ele>52.421895</ele>
        <time>2019-09-10T15:16:36.600Z</time>
      </trkpt>
      <trkpt lat="10.157719062279" lon="-75.6825629988055">
        <ele>52.421895</ele>
        <time>2019-09-10T15:16:36.700Z</time>
      </trkpt>
      <trkpt lat="10.1577208384034" lon="-75.6825651529416">
        <ele>52.421895</ele>
        <time>2019-09-10T15:16:36.800Z</time>
      </trkpt>
      <trkpt lat="10.1577226082745" lon="-75.6825672721246">
        <ele>52.421895</ele>
        <time>2019-09-10T15:16:36.900Z</time>
      </trkpt>
      <trkpt lat="10.15772437455" lon="-75.6825693698624">
        <ele>52.421895</ele>
        <time>2019-09-10T15:16:37.000Z</time>
      </trkpt>
      <trkpt lat="10.1577261264951" lon="-75.6825714510289">
        <ele>52.421895</ele>
        <time>2019-09-10T15:16:37.100Z</time>
      </trkpt>
      <trkpt lat="10.15772787547" lon="-75.6825735388796">
        <ele>52.421895</ele>
        <time>2019-09-10T15:16:37.200Z</time>
      </trkpt>
      <trkpt lat="10.1577296284574" lon="-75.6825756162861">
        <ele>52.421895</ele>
        <time>2019-09-10T15:16:37.300Z</time>
      </trkpt>
      <trkpt lat="10.1577313934302" lon="-75.6825777045546">
        <ele>52.421895</ele>
        <time>2019-09-10T15:16:37.400Z</time>
      </trkpt>
      <trkpt lat="10.157733145219" lon="-75.6825797873921">
        <ele>52.421895</ele>
        <time>2019-09-10T15:16:37.500Z</time>
      </trkpt>
      <trkpt lat="10.1577348964347" lon="-75.6825818799775">
        <ele>52.421895</ele>
        <time>2019-09-10T15:16:37.600Z</time>
      </trkpt>
      <trkpt lat="10.1577366584893" lon="-75.6825839682459">
        <ele>52.421895</ele>
        <time>2019-09-10T15:16:37.700Z</time>
      </trkpt>
      <trkpt lat="10.1577384295068" lon="-75.6825860644519">
        <ele>52.421895</ele>
        <time>2019-09-10T15:16:37.800Z</time>
      </trkpt>
      <trkpt lat="10.1577402114153" lon="-75.682588183635">
        <ele>52.421895</ele>
        <time>2019-09-10T15:16:37.900Z</time>
      </trkpt>
      <trkpt lat="10.1577419906142" lon="-75.682590314794">
        <ele>52.421895</ele>
        <time>2019-09-10T15:16:38.000Z</time>
      </trkpt>
      <trkpt lat="10.1577437792971" lon="-75.6825924472063">
        <ele>52.421895</ele>
        <time>2019-09-10T15:16:38.100Z</time>
      </trkpt>
      <trkpt lat="10.1577473410819" lon="-75.6825966901678">
        <ele>52.421895</ele>
        <time>2019-09-10T15:16:38.300Z</time>
      </trkpt>
      <trkpt lat="10.1577491038139" lon="-75.6825988043377">
        <ele>52.421895</ele>
        <time>2019-09-10T15:16:38.400Z</time>
      </trkpt>
      <trkpt lat="10.1577508473693" lon="-75.6826008850864">
        <ele>52.421895</ele>
        <time>2019-09-10T15:16:38.500Z</time>
      </trkpt>
      <trkpt lat="10.1577525876939" lon="-75.6826029604042">
        <ele>52.421895</ele>
        <time>2019-09-10T15:16:38.600Z</time>
      </trkpt>
      <trkpt lat="10.1577543137925" lon="-75.6826050479763">
        <ele>52.421895</ele>
        <time>2019-09-10T15:16:38.700Z</time>
      </trkpt>
      <trkpt lat="10.1577560497398" lon="-75.6826071556012">
        <ele>52.421895</ele>
        <time>2019-09-10T15:16:38.800Z</time>
      </trkpt>
      <trkpt lat="10.1577577781833" lon="-75.6826092551493">
        <ele>52.421895</ele>
        <time>2019-09-10T15:16:38.900Z</time>
      </trkpt>
      <trkpt lat="10.1577595170488" lon="-75.68261135609">
        <ele>52.421895</ele>
        <time>2019-09-10T15:16:39.000Z</time>
      </trkpt>
      <trkpt lat="10.1577612295466" lon="-75.6826134312685">
        <ele>52.421895</ele>
        <time>2019-09-10T15:16:39.100Z</time>
      </trkpt>
      <trkpt lat="10.157762941888" lon="-75.6826155007375">
        <ele>52.421895</ele>
        <time>2019-09-10T15:16:39.200Z</time>
      </trkpt>
      <trkpt lat="10.1577646863815" lon="-75.6826176448472">
        <ele>52.421895</ele>
        <time>2019-09-10T15:16:39.300Z</time>
      </trkpt>
      <trkpt lat="10.1577664576595" lon="-75.6826198201501">
        <ele>52.421895</ele>
        <time>2019-09-10T15:16:39.400Z</time>
      </trkpt>
      <trkpt lat="10.1577681842792" lon="-75.6826219439286">
        <ele>52.421895</ele>
        <time>2019-09-10T15:16:39.500Z</time>
      </trkpt>
      <trkpt lat="10.1577698890646" lon="-75.6826240277409">
        <ele>52.421895</ele>
        <time>2019-09-10T15:16:39.600Z</time>
      </trkpt>
      <trkpt lat="10.1577715864504" lon="-75.6826260768787">
        <ele>52.421895</ele>
        <time>2019-09-10T15:16:39.700Z</time>
      </trkpt>
      <trkpt lat="10.1577733032733" lon="-75.6826281293586">
        <ele>52.421895</ele>
        <time>2019-09-10T15:16:39.800Z</time>
      </trkpt>
      <trkpt lat="10.1577767602645" lon="-75.6826322414204">
        <ele>52.521895</ele>
        <time>2019-09-10T15:16:40.000Z</time>
      </trkpt>
      <trkpt lat="10.1577785186193" lon="-75.6826343086613">
        <ele>52.521895</ele>
        <time>2019-09-10T15:16:40.100Z</time>
      </trkpt>
      <trkpt lat="10.1577802857806" lon="-75.6826363896886">
        <ele>52.521895</ele>
        <time>2019-09-10T15:16:40.200Z</time>
      </trkpt>
      <trkpt lat="10.1577820265742" lon="-75.6826384563725">
        <ele>52.521895</ele>
        <time>2019-09-10T15:16:40.300Z</time>
      </trkpt>
      <trkpt lat="10.1577837531939" lon="-75.6826405199928">
        <ele>52.521895</ele>
        <time>2019-09-10T15:16:40.400Z</time>
      </trkpt>
      <trkpt lat="10.1577854751757" lon="-75.6826425682951">
        <ele>52.521895</ele>
        <time>2019-09-10T15:16:40.500Z</time>
      </trkpt>
      <trkpt lat="10.1577872075796" lon="-75.6826446214712">
        <ele>52.521895</ele>
        <time>2019-09-10T15:16:40.600Z</time>
      </trkpt>
      <trkpt lat="10.1577889400355" lon="-75.6826466795214">
        <ele>52.521895</ele>
        <time>2019-09-10T15:16:40.700Z</time>
      </trkpt>
      <trkpt lat="10.1577906819234" lon="-75.6826487563709">
        <ele>52.521895</ele>
        <time>2019-09-10T15:16:40.800Z</time>
      </trkpt>
      <trkpt lat="10.1577924234987" lon="-75.6826508227763">
        <ele>52.521895</ele>
        <time>2019-09-10T15:16:40.900Z</time>
      </trkpt>
      <trkpt lat="10.1577941695033" lon="-75.6826528895995">
        <ele>52.521895</ele>
        <time>2019-09-10T15:16:41.000Z</time>
      </trkpt>
      <trkpt lat="10.1577959276496" lon="-75.6826549663098">
        <ele>52.521895</ele>
        <time>2019-09-10T15:16:41.100Z</time>
      </trkpt>
      <trkpt lat="10.15779769528" lon="-75.6826570575026">
        <ele>52.521895</ele>
        <time>2019-09-10T15:16:41.200Z</time>
      </trkpt>
      <trkpt lat="10.1577994595232" lon="-75.6826591585825">
        <ele>52.521895</ele>
        <time>2019-09-10T15:16:41.300Z</time>
      </trkpt>
      <trkpt lat="10.1578012166794" lon="-75.6826612628653">
        <ele>52.521895</ele>
        <time>2019-09-10T15:16:41.400Z</time>
      </trkpt>
      <trkpt lat="10.1578029461651" lon="-75.6826633338661">
        <ele>52.521895</ele>
        <time>2019-09-10T15:16:41.500Z</time>
      </trkpt>
      <trkpt lat="10.1578046640302" lon="-75.6826653855105">
        <ele>52.521895</ele>
        <time>2019-09-10T15:16:41.600Z</time>
      </trkpt>
      <trkpt lat="10.1578063887218" lon="-75.6826674616638">
        <ele>52.521895</ele>
        <time>2019-09-10T15:16:41.700Z</time>
      </trkpt>
      <trkpt lat="10.1578081326941" lon="-75.6826695731878">
        <ele>52.521895</ele>
        <time>2019-09-10T15:16:41.800Z</time>
      </trkpt>
      <trkpt lat="10.157809895374" lon="-75.6826716979411">
        <ele>52.521895</ele>
        <time>2019-09-10T15:16:41.900Z</time>
      </trkpt>
      <trkpt lat="10.1578116630565" lon="-75.6826738193522">
        <ele>52.521895</ele>
        <time>2019-09-10T15:16:42.000Z</time>
      </trkpt>
      <trkpt lat="10.1578134071851" lon="-75.6826759194574">
        <ele>52.521895</ele>
        <time>2019-09-10T15:16:42.100Z</time>
      </trkpt>
      <trkpt lat="10.1578151354202" lon="-75.6826780066118">
        <ele>52.521895</ele>
        <time>2019-09-10T15:16:42.200Z</time>
      </trkpt>
      <trkpt lat="10.1578168793925" lon="-75.6826800929307">
        <ele>52.521895</ele>
        <time>2019-09-10T15:16:42.300Z</time>
      </trkpt>
      <trkpt lat="10.1578203559771" lon="-75.682684294255">
        <ele>52.521895</ele>
        <time>2019-09-10T15:16:42.500Z</time>
      </trkpt>
      <trkpt lat="10.1578220693607" lon="-75.6826864080071">
        <ele>52.521895</ele>
        <time>2019-09-10T15:16:42.600Z</time>
      </trkpt>
      <trkpt lat="10.1578237392324" lon="-75.6826884941867">
        <ele>52.521895</ele>
        <time>2019-09-10T15:16:42.700Z</time>
      </trkpt>
      <trkpt lat="10.1578254007663" lon="-75.6826905752139">
        <ele>52.521895</ele>
        <time>2019-09-10T15:16:42.800Z</time>
      </trkpt>
      <trkpt lat="10.1578270639678" lon="-75.6826926466325">
        <ele>52.421895</ele>
        <time>2019-09-10T15:16:42.900Z</time>
      </trkpt>
      <trkpt lat="10.1578287592171" lon="-75.6826947372683">
        <ele>52.421895</ele>
        <time>2019-09-10T15:16:43.000Z</time>
      </trkpt>
      <trkpt lat="10.1578304453471" lon="-75.6826968457287">
        <ele>52.421895</ele>
        <time>2019-09-10T15:16:43.100Z</time>
      </trkpt>
      <trkpt lat="10.1578321429935" lon="-75.6826989715961">
        <ele>52.421895</ele>
        <time>2019-09-10T15:16:43.200Z</time>
      </trkpt>
      <trkpt lat="10.1578355370355" lon="-75.6827032073164">
        <ele>52.521895</ele>
        <time>2019-09-10T15:16:43.400Z</time>
      </trkpt>
      <trkpt lat="10.1578372332749" lon="-75.6827053354118">
        <ele>52.521895</ele>
        <time>2019-09-10T15:16:43.500Z</time>
      </trkpt>
      <trkpt lat="10.1578389381125" lon="-75.682707473812">
        <ele>52.521895</ele>
        <time>2019-09-10T15:16:43.600Z</time>
      </trkpt>
      <trkpt lat="10.1578406289845" lon="-75.6827096258593">
        <ele>52.521895</ele>
        <time>2019-09-10T15:16:43.700Z</time>
      </trkpt>
      <trkpt lat="10.1578423286632" lon="-75.682711776514">
        <ele>52.521895</ele>
        <time>2019-09-10T15:16:43.800Z</time>
      </trkpt>
      <trkpt lat="10.1578440368879" lon="-75.6827139381698">
        <ele>52.521895</ele>
        <time>2019-09-10T15:16:43.900Z</time>
      </trkpt>
      <trkpt lat="10.1578457646018" lon="-75.682716094534">
        <ele>52.421895</ele>
        <time>2019-09-10T15:16:44.000Z</time>
      </trkpt>
      <trkpt lat="10.1578474747546" lon="-75.6827182355801">
        <ele>52.421895</ele>
        <time>2019-09-10T15:16:44.100Z</time>
      </trkpt>
      <trkpt lat="10.1578491782894" lon="-75.6827203607511">
        <ele>52.421895</ele>
        <time>2019-09-10T15:16:44.200Z</time>
      </trkpt>
      <trkpt lat="10.1578508819806" lon="-75.6827224882895">
        <ele>52.421895</ele>
        <time>2019-09-10T15:16:44.300Z</time>
      </trkpt>
      <trkpt lat="10.1578525959374" lon="-75.6827246211196">
        <ele>52.421895</ele>
        <time>2019-09-10T15:16:44.400Z</time>
      </trkpt>
      <trkpt lat="10.1578560454769" lon="-75.6827289587746">
        <ele>52.421895</ele>
        <time>2019-09-10T15:16:44.600Z</time>
      </trkpt>
      <trkpt lat="10.1578577396839" lon="-75.6827311353307">
        <ele>52.421895</ele>
        <time>2019-09-10T15:16:44.700Z</time>
      </trkpt>
      <trkpt lat="10.1578594166946" lon="-75.6827333008857">
        <ele>52.421895</ele>
        <time>2019-09-10T15:16:44.800Z</time>
      </trkpt>
      <trkpt lat="10.1578610984995" lon="-75.6827354775811">
        <ele>52.421895</ele>
        <time>2019-09-10T15:16:44.900Z</time>
      </trkpt>
      <trkpt lat="10.1578628085481" lon="-75.6827376385407">
        <ele>52.421895</ele>
        <time>2019-09-10T15:16:45.000Z</time>
      </trkpt>
      <trkpt lat="10.1578645193262" lon="-75.6827397737381">
        <ele>52.421895</ele>
        <time>2019-09-10T15:16:45.100Z</time>
      </trkpt>
      <trkpt lat="10.1578662424023" lon="-75.6827418877687">
        <ele>52.421895</ele>
        <time>2019-09-10T15:16:45.200Z</time>
      </trkpt>
      <trkpt lat="10.1578679583394" lon="-75.6827439991535">
        <ele>52.421895</ele>
        <time>2019-09-10T15:16:45.300Z</time>
      </trkpt>
      <trkpt lat="10.1578696819366" lon="-75.6827461136019">
        <ele>52.421895</ele>
        <time>2019-09-10T15:16:45.400Z</time>
      </trkpt>
      <trkpt lat="10.1578714091294" lon="-75.6827482343168">
        <ele>52.421895</ele>
        <time>2019-09-10T15:16:45.500Z</time>
      </trkpt>
      <trkpt lat="10.1578748510608" lon="-75.6827524792279">
        <ele>52.421895</ele>
        <time>2019-09-10T15:16:45.700Z</time>
      </trkpt>
      <trkpt lat="10.1578765499578" lon="-75.6827545921445">
        <ele>52.421895</ele>
        <time>2019-09-10T15:16:45.800Z</time>
      </trkpt>
      <trkpt lat="10.1578782720959" lon="-75.6827566953133">
        <ele>52.421895</ele>
        <time>2019-09-10T15:16:45.900Z</time>
      </trkpt>
      <trkpt lat="10.1578800213314" lon="-75.6827587954184">
        <ele>52.421895</ele>
        <time>2019-09-10T15:16:46.000Z</time>
      </trkpt>
      <trkpt lat="10.1578817549859" lon="-75.6827608900926">
        <ele>52.421895</ele>
        <time>2019-09-10T15:16:46.100Z</time>
      </trkpt>
      <trkpt lat="10.1578834779057" lon="-75.6827629883874">
        <ele>52.421895</ele>
        <time>2019-09-10T15:16:46.200Z</time>
      </trkpt>
      <trkpt lat="10.157885200096" lon="-75.6827650841756">
        <ele>52.421895</ele>
        <time>2019-09-10T15:16:46.300Z</time>
      </trkpt>
      <trkpt lat="10.1578869334899" lon="-75.6827671852556">
        <ele>52.421895</ele>
        <time>2019-09-10T15:16:46.400Z</time>
      </trkpt>
      <trkpt lat="10.1578904165362" lon="-75.68277138282">
        <ele>52.421895</ele>
        <time>2019-09-10T15:16:46.600Z</time>
      </trkpt>
      <trkpt lat="10.1578921567566" lon="-75.6827734788867">
        <ele>52.421895</ele>
        <time>2019-09-10T15:16:46.700Z</time>
      </trkpt>
      <trkpt lat="10.1578938973418" lon="-75.6827755775993">
        <ele>52.421895</ele>
        <time>2019-09-10T15:16:46.800Z</time>
      </trkpt>
      <trkpt lat="10.1578956354778" lon="-75.6827776501319">
        <ele>52.421895</ele>
        <time>2019-09-10T15:16:46.900Z</time>
      </trkpt>
      <trkpt lat="10.1578973759587" lon="-75.6827797158411">
        <ele>52.421895</ele>
        <time>2019-09-10T15:16:47.000Z</time>
      </trkpt>
      <trkpt lat="10.1578991362415" lon="-75.6827818016029">
        <ele>52.421895</ele>
        <time>2019-09-10T15:16:47.100Z</time>
      </trkpt>
      <trkpt lat="10.1579009074154" lon="-75.6827839108989">
        <ele>52.421895</ele>
        <time>2019-09-10T15:16:47.200Z</time>
      </trkpt>
      <trkpt lat="10.1579026571719" lon="-75.6827860002814">
        <ele>52.421895</ele>
        <time>2019-09-10T15:16:47.300Z</time>
      </trkpt>
      <trkpt lat="10.157904390618" lon="-75.6827880801946">
        <ele>52.421895</ele>
        <time>2019-09-10T15:16:47.400Z</time>
      </trkpt>
      <trkpt lat="10.1579061167165" lon="-75.6827901386624">
        <ele>52.421895</ele>
        <time>2019-09-10T15:16:47.500Z</time>
      </trkpt>
      <trkpt lat="10.1579078509443" lon="-75.6827922007509">
        <ele>52.421895</ele>
        <time>2019-09-10T15:16:47.600Z</time>
      </trkpt>
      <trkpt lat="10.1579095810553" lon="-75.6827942664601">
        <ele>52.421895</ele>
        <time>2019-09-10T15:16:47.700Z</time>
      </trkpt>
      <trkpt lat="10.157911319556" lon="-75.6827963502724">
        <ele>52.421895</ele>
        <time>2019-09-10T15:16:47.800Z</time>
      </trkpt>
      <trkpt lat="10.15791305295" lon="-75.6827984158423">
        <ele>52.421895</ele>
        <time>2019-09-10T15:16:47.900Z</time>
      </trkpt>
      <trkpt lat="10.1579147916071" lon="-75.682800483501">
        <ele>52.421895</ele>
        <time>2019-09-10T15:16:48.000Z</time>
      </trkpt>
      <trkpt lat="10.1579165260432" lon="-75.6828025549195">
        <ele>52.421895</ele>
        <time>2019-09-10T15:16:48.100Z</time>
      </trkpt>
      <trkpt lat="10.1579182620948" lon="-75.6828046394281">
        <ele>52.421895</ele>
        <time>2019-09-10T15:16:48.200Z</time>
      </trkpt>
      <trkpt lat="10.1579200161765" lon="-75.6828067288106">
        <ele>52.421895</ele>
        <time>2019-09-10T15:16:48.300Z</time>
      </trkpt>
      <trkpt lat="10.1579217807324" lon="-75.682808829055">
        <ele>52.521895</ele>
        <time>2019-09-10T15:16:48.400Z</time>
      </trkpt>
      <trkpt lat="10.1579235441418" lon="-75.68281093292">
        <ele>52.521895</ele>
        <time>2019-09-10T15:16:48.500Z</time>
      </trkpt>
      <trkpt lat="10.1579252999432" lon="-75.6828130390131">
        <ele>52.521895</ele>
        <time>2019-09-10T15:16:48.600Z</time>
      </trkpt>
      <trkpt lat="10.1579270493871" lon="-75.6828151495624">
        <ele>52.521895</ele>
        <time>2019-09-10T15:16:48.700Z</time>
      </trkpt>
      <trkpt lat="10.1579287976324" lon="-75.6828172589976">
        <ele>52.521895</ele>
        <time>2019-09-10T15:16:48.800Z</time>
      </trkpt>
      <trkpt lat="10.157930538426" lon="-75.6828193670403">
        <ele>52.521895</ele>
        <time>2019-09-10T15:16:48.900Z</time>
      </trkpt>
      <trkpt lat="10.1579322794281" lon="-75.6828214746652">
        <ele>52.521895</ele>
        <time>2019-09-10T15:16:49.000Z</time>
      </trkpt>
      <trkpt lat="10.1579340356984" lon="-75.6828235813153">
        <ele>52.521895</ele>
        <time>2019-09-10T15:16:49.100Z</time>
      </trkpt>
      <trkpt lat="10.1579358018697" lon="-75.6828256900542">
        <ele>52.521895</ele>
        <time>2019-09-10T15:16:49.200Z</time>
      </trkpt>
      <trkpt lat="10.1579375645496" lon="-75.6828277678786">
        <ele>52.521895</ele>
        <time>2019-09-10T15:16:49.300Z</time>
      </trkpt>
      <trkpt lat="10.1579393155568" lon="-75.6828298384616">
        <ele>52.521895</ele>
        <time>2019-09-10T15:16:49.400Z</time>
      </trkpt>
      <trkpt lat="10.1579410574447" lon="-75.6828319015249">
        <ele>52.521895</ele>
        <time>2019-09-10T15:16:49.500Z</time>
      </trkpt>
      <trkpt lat="10.1579427961018" lon="-75.6828339790708">
        <ele>52.521895</ele>
        <time>2019-09-10T15:16:49.600Z</time>
      </trkpt>
      <trkpt lat="10.1579445506004" lon="-75.6828360581484">
        <ele>52.521895</ele>
        <time>2019-09-10T15:16:49.700Z</time>
      </trkpt>
      <trkpt lat="10.1579463148957" lon="-75.682838149759">
        <ele>52.521895</ele>
        <time>2019-09-10T15:16:49.800Z</time>
      </trkpt>
      <trkpt lat="10.1579480768981" lon="-75.6828402225701">
        <ele>52.521895</ele>
        <time>2019-09-10T15:16:49.900Z</time>
      </trkpt>
      <trkpt lat="10.1579498319178" lon="-75.6828422983056">
        <ele>52.521895</ele>
        <time>2019-09-10T15:16:50.000Z</time>
      </trkpt>
      <trkpt lat="10.1579515812054" lon="-75.682844379472">
        <ele>52.521895</ele>
        <time>2019-09-10T15:16:50.100Z</time>
      </trkpt>
      <trkpt lat="10.1579550514847" lon="-75.6828485554519">
        <ele>52.521895</ele>
        <time>2019-09-10T15:16:50.300Z</time>
      </trkpt>
      <trkpt lat="10.1579567657021" lon="-75.6828506353651">
        <ele>52.521895</ele>
        <time>2019-09-10T15:16:50.400Z</time>
      </trkpt>
      <trkpt lat="10.1579584502688" lon="-75.6828526920226">
        <ele>52.521895</ele>
        <time>2019-09-10T15:16:50.500Z</time>
      </trkpt>
      <trkpt lat="10.1579601371804" lon="-75.682854755643">
        <ele>52.521895</ele>
        <time>2019-09-10T15:16:50.600Z</time>
      </trkpt>
      <trkpt lat="10.1579618409237" lon="-75.682856817453">
        <ele>52.521895</ele>
        <time>2019-09-10T15:16:50.700Z</time>
      </trkpt>
      <trkpt lat="10.157963575881" lon="-75.6828589043289">
        <ele>52.521895</ele>
        <time>2019-09-10T15:16:50.800Z</time>
      </trkpt>
      <trkpt lat="10.1579652965079" lon="-75.682860997332">
        <ele>52.521895</ele>
        <time>2019-09-10T15:16:50.900Z</time>
      </trkpt>
      <trkpt lat="10.1579670161448" lon="-75.6828631056532">
        <ele>52.521895</ele>
        <time>2019-09-10T15:16:51.000Z</time>
      </trkpt>
      <trkpt lat="10.1579687426081" lon="-75.682865190858">
        <ele>52.521895</ele>
        <time>2019-09-10T15:16:51.100Z</time>
      </trkpt>
      <trkpt lat="10.157970479754" lon="-75.6828672764806">
        <ele>52.521895</ele>
        <time>2019-09-10T15:16:51.200Z</time>
      </trkpt>
      <trkpt lat="10.1579721925123" lon="-75.6828693551405">
        <ele>52.521895</ele>
        <time>2019-09-10T15:16:51.300Z</time>
      </trkpt>
      <trkpt lat="10.1579738984441" lon="-75.6828714498147">
        <ele>52.421895</ele>
        <time>2019-09-10T15:16:51.400Z</time>
      </trkpt>
      <trkpt lat="10.1579755620104" lon="-75.6828735155238">
        <ele>52.421895</ele>
        <time>2019-09-10T15:16:51.500Z</time>
      </trkpt>
      <trkpt lat="10.1579772245345" lon="-75.6828755790049">
        <ele>52.521895</ele>
        <time>2019-09-10T15:16:51.600Z</time>
      </trkpt>
      <trkpt lat="10.1579788937287" lon="-75.6828776585003">
        <ele>52.521895</ele>
        <time>2019-09-10T15:16:51.700Z</time>
      </trkpt>
      <trkpt lat="10.157980600807" lon="-75.6828797679355">
        <ele>52.521895</ele>
        <time>2019-09-10T15:16:51.800Z</time>
      </trkpt>
      <trkpt lat="10.1579823159102" lon="-75.6828818997908">
        <ele>52.421895</ele>
        <time>2019-09-10T15:16:51.900Z</time>
      </trkpt>
      <trkpt lat="10.1579840385174" lon="-75.6828840383303">
        <ele>52.421895</ele>
        <time>2019-09-10T15:16:52.000Z</time>
      </trkpt>
      <trkpt lat="10.1579857635216" lon="-75.682886175338">
        <ele>52.421895</ele>
        <time>2019-09-10T15:16:52.100Z</time>
      </trkpt>
      <trkpt lat="10.1579874910792" lon="-75.6828883023194">
        <ele>52.421895</ele>
        <time>2019-09-10T15:16:52.200Z</time>
      </trkpt>
      <trkpt lat="10.1579892284335" lon="-75.6828904208061">
        <ele>52.421895</ele>
        <time>2019-09-10T15:16:52.300Z</time>
      </trkpt>
      <trkpt lat="10.1579909712594" lon="-75.6828925342798">
        <ele>52.421895</ele>
        <time>2019-09-10T15:16:52.400Z</time>
      </trkpt>
      <trkpt lat="10.1579926859979" lon="-75.6828946140537">
        <ele>52.421895</ele>
        <time>2019-09-10T15:16:52.500Z</time>
      </trkpt>
      <trkpt lat="10.1579943839049" lon="-75.6828966851937">
        <ele>52.421895</ele>
        <time>2019-09-10T15:16:52.600Z</time>
      </trkpt>
      <trkpt lat="10.1579961050529" lon="-75.6828987712341">
        <ele>52.421895</ele>
        <time>2019-09-10T15:16:52.700Z</time>
      </trkpt>
      <trkpt lat="10.1579978617401" lon="-75.6829008830367">
        <ele>52.421895</ele>
        <time>2019-09-10T15:16:52.800Z</time>
      </trkpt>
      <trkpt lat="10.1579996290057" lon="-75.6829029927504">
        <ele>52.421895</ele>
        <time>2019-09-10T15:16:52.900Z</time>
      </trkpt>
      <trkpt lat="10.1580013922588" lon="-75.6829051023249">
        <ele>52.421895</ele>
        <time>2019-09-10T15:16:53.000Z</time>
      </trkpt>
      <trkpt lat="10.1580031675494" lon="-75.6829072086965">
        <ele>52.421895</ele>
        <time>2019-09-10T15:16:53.100Z</time>
      </trkpt>
      <trkpt lat="10.1580049405471" lon="-75.6829093192458">
        <ele>52.421895</ele>
        <time>2019-09-10T15:16:53.200Z</time>
      </trkpt>
      <trkpt lat="10.1580067080732" lon="-75.6829114235285">
        <ele>52.421895</ele>
        <time>2019-09-10T15:16:53.300Z</time>
      </trkpt>
      <trkpt lat="10.1580084687208" lon="-75.6829135287861">
        <ele>52.421895</ele>
        <time>2019-09-10T15:16:53.400Z</time>
      </trkpt>
      <trkpt lat="10.1580102327035" lon="-75.6829156235995">
        <ele>52.421895</ele>
        <time>2019-09-10T15:16:53.500Z</time>
      </trkpt>
      <trkpt lat="10.1580120005944" lon="-75.6829177154886">
        <ele>52.421895</ele>
        <time>2019-09-10T15:16:53.600Z</time>
      </trkpt>
      <trkpt lat="10.1580137771877" lon="-75.6829197763238">
        <ele>52.421895</ele>
        <time>2019-09-10T15:16:53.700Z</time>
      </trkpt>
      <trkpt lat="10.1580173170862" lon="-75.6829238878287">
        <ele>52.421895</ele>
        <time>2019-09-10T15:16:53.900Z</time>
      </trkpt>
      <trkpt lat="10.1580190666344" lon="-75.6829259578547">
        <ele>52.421895</ele>
        <time>2019-09-10T15:16:54.000Z</time>
      </trkpt>
      <trkpt lat="10.1580208255102" lon="-75.682928008385">
        <ele>52.421895</ele>
        <time>2019-09-10T15:16:54.100Z</time>
      </trkpt>
      <trkpt lat="10.1580225873042" lon="-75.6829300649033">
        <ele>52.421895</ele>
        <time>2019-09-10T15:16:54.200Z</time>
      </trkpt>
      <trkpt lat="10.1580243351327" lon="-75.6829321311695">
        <ele>52.421895</ele>
        <time>2019-09-10T15:16:54.300Z</time>
      </trkpt>
      <trkpt lat="10.1580260746757" lon="-75.6829342155388">
        <ele>52.421895</ele>
        <time>2019-09-10T15:16:54.400Z</time>
      </trkpt>
      <trkpt lat="10.1580295343245" lon="-75.6829383530843">
        <ele>52.421895</ele>
        <time>2019-09-10T15:16:54.600Z</time>
      </trkpt>
      <trkpt lat="10.1580312636017" lon="-75.6829404033361">
        <ele>52.421895</ele>
        <time>2019-09-10T15:16:54.700Z</time>
      </trkpt>
      <trkpt lat="10.1580330021025" lon="-75.682942460133">
        <ele>52.421895</ele>
        <time>2019-09-10T15:16:54.800Z</time>
      </trkpt>
      <trkpt lat="10.1580347616037" lon="-75.6829445297412">
        <ele>52.421895</ele>
        <time>2019-09-10T15:16:54.900Z</time>
      </trkpt>
      <trkpt lat="10.1580365284524" lon="-75.6829466207948">
        <ele>52.421895</ele>
        <time>2019-09-10T15:16:55.000Z</time>
      </trkpt>
      <trkpt lat="10.1580382691939" lon="-75.6829486749458">
        <ele>52.421895</ele>
        <time>2019-09-10T15:16:55.100Z</time>
      </trkpt>
      <trkpt lat="10.1580399909151" lon="-75.6829507186526">
        <ele>52.421895</ele>
        <time>2019-09-10T15:16:55.200Z</time>
      </trkpt>
      <trkpt lat="10.158041702996" lon="-75.6829527693222">
        <ele>52.421895</ele>
        <time>2019-09-10T15:16:55.300Z</time>
      </trkpt>
      <trkpt lat="10.1580434230498" lon="-75.6829548426904">
        <ele>52.421895</ele>
        <time>2019-09-10T15:16:55.400Z</time>
      </trkpt>
      <trkpt lat="10.1580451185075" lon="-75.6829569061715">
        <ele>52.421895</ele>
        <time>2019-09-10T15:16:55.500Z</time>
      </trkpt>
      <trkpt lat="10.1580468172482" lon="-75.682958975362">
        <ele>52.421895</ele>
        <time>2019-09-10T15:16:55.600Z</time>
      </trkpt>
      <trkpt lat="10.1580485246391" lon="-75.6829610270063">
        <ele>52.421895</ele>
        <time>2019-09-10T15:16:55.700Z</time>
      </trkpt>
      <trkpt lat="10.1580502555318" lon="-75.6829630875631">
        <ele>52.521895</ele>
        <time>2019-09-10T15:16:55.800Z</time>
      </trkpt>
      <trkpt lat="10.1580519715209" lon="-75.6829651546647">
        <ele>52.521895</ele>
        <time>2019-09-10T15:16:55.900Z</time>
      </trkpt>
      <trkpt lat="10.1580536886565" lon="-75.6829672414014">
        <ele>52.521895</ele>
        <time>2019-09-10T15:16:56.000Z</time>
      </trkpt>
      <trkpt lat="10.1580554056357" lon="-75.6829693391392">
        <ele>52.521895</ele>
        <time>2019-09-10T15:16:56.100Z</time>
      </trkpt>
      <trkpt lat="10.158057134913" lon="-75.6829714459286">
        <ele>52.521895</ele>
        <time>2019-09-10T15:16:56.200Z</time>
      </trkpt>
      <trkpt lat="10.1580588417828" lon="-75.6829735606555">
        <ele>52.521895</ele>
        <time>2019-09-10T15:16:56.300Z</time>
      </trkpt>
      <trkpt lat="10.1580605495386" lon="-75.6829756780282">
        <ele>52.521895</ele>
        <time>2019-09-10T15:16:56.400Z</time>
      </trkpt>
      <trkpt lat="10.1580622582844" lon="-75.682977795958">
        <ele>52.521895</ele>
        <time>2019-09-10T15:16:56.500Z</time>
      </trkpt>
      <trkpt lat="10.1580639817774" lon="-75.6829799133308">
        <ele>52.521895</ele>
        <time>2019-09-10T15:16:56.600Z</time>
      </trkpt>
      <trkpt lat="10.1580656810913" lon="-75.6829820245763">
        <ele>52.521895</ele>
        <time>2019-09-10T15:16:56.700Z</time>
      </trkpt>
      <trkpt lat="10.1580673799362" lon="-75.6829841376321">
        <ele>52.421895</ele>
        <time>2019-09-10T15:16:56.800Z</time>
      </trkpt>
      <trkpt lat="10.1580690843569" lon="-75.6829862445608">
        <ele>52.421895</ele>
        <time>2019-09-10T15:16:56.900Z</time>
      </trkpt>
      <trkpt lat="10.1580708106117" lon="-75.6829883517679">
        <ele>52.421895</ele>
        <time>2019-09-10T15:16:57.000Z</time>
      </trkpt>
      <trkpt lat="10.1580725255326" lon="-75.682990449088">
        <ele>52.421895</ele>
        <time>2019-09-10T15:16:57.100Z</time>
      </trkpt>
      <trkpt lat="10.158074246368" lon="-75.6829925522567">
        <ele>52.421895</ele>
        <time>2019-09-10T15:16:57.200Z</time>
      </trkpt>
      <trkpt lat="10.1580759715807" lon="-75.6829946486019">
        <ele>52.521895</ele>
        <time>2019-09-10T15:16:57.300Z</time>
      </trkpt>
      <trkpt lat="10.1580777107328" lon="-75.6829967531632">
        <ele>52.521895</ele>
        <time>2019-09-10T15:16:57.400Z</time>
      </trkpt>
      <trkpt lat="10.1580794452732" lon="-75.6829988794483">
        <ele>52.521895</ele>
        <time>2019-09-10T15:16:57.500Z</time>
      </trkpt>
      <trkpt lat="10.1580811806734" lon="-75.6830010203552">
        <ele>52.521895</ele>
        <time>2019-09-10T15:16:57.600Z</time>
      </trkpt>
      <trkpt lat="10.1580828884812" lon="-75.6830031283978">
        <ele>52.521895</ele>
        <time>2019-09-10T15:16:57.700Z</time>
      </trkpt>
      <trkpt lat="10.1580845930843" lon="-75.6830052239076">
        <ele>52.521895</ele>
        <time>2019-09-10T15:16:57.800Z</time>
      </trkpt>
      <trkpt lat="10.1580862956811" lon="-75.6830073042385">
        <ele>52.521895</ele>
        <time>2019-09-10T15:16:57.900Z</time>
      </trkpt>
      <trkpt lat="10.1580880134941" lon="-75.683009393621">
        <ele>52.521895</ele>
        <time>2019-09-10T15:16:58.000Z</time>
      </trkpt>
      <trkpt lat="10.1580897381336" lon="-75.6830114724201">
        <ele>52.421895</ele>
        <time>2019-09-10T15:16:58.100Z</time>
      </trkpt>
      <trkpt lat="10.1580931650311" lon="-75.6830156017495">
        <ele>52.421895</ele>
        <time>2019-09-10T15:16:58.300Z</time>
      </trkpt>
      <trkpt lat="10.1580948212238" lon="-75.6830175449142">
        <ele>52.421895</ele>
        <time>2019-09-10T15:16:58.400Z</time>
      </trkpt>
      <trkpt lat="10.1580964528986" lon="-75.6830192630428">
        <ele>52.421895</ele>
        <time>2019-09-10T15:16:58.500Z</time>
      </trkpt>
      <trkpt lat="10.158098091478" lon="-75.6830207566923">
        <ele>52.421895</ele>
        <time>2019-09-10T15:16:58.600Z</time>
      </trkpt>
      <trkpt lat="10.1580997693486" lon="-75.6830219372964">
        <ele>52.421895</ele>
        <time>2019-09-10T15:16:58.700Z</time>
      </trkpt>
      <trkpt lat="10.1581014746291" lon="-75.6830228537338">
        <ele>52.421895</ele>
        <time>2019-09-10T15:16:58.800Z</time>
      </trkpt>
      <trkpt lat="10.1581032206076" lon="-75.6830233991958">
        <ele>52.421895</ele>
        <time>2019-09-10T15:16:58.900Z</time>
      </trkpt>
      <trkpt lat="10.1581049813334" lon="-75.6830236562606">
        <ele>52.421895</ele>
        <time>2019-09-10T15:16:59.000Z</time>
      </trkpt>
      <trkpt lat="10.158106765639" lon="-75.6830235387293">
        <ele>52.421895</ele>
        <time>2019-09-10T15:16:59.100Z</time>
      </trkpt>
      <trkpt lat="10.1581085609139" lon="-75.6830231220783">
        <ele>52.421895</ele>
        <time>2019-09-10T15:16:59.200Z</time>
      </trkpt>
      <trkpt lat="10.1581105058492" lon="-75.683022332363">
        <ele>52.421895</ele>
        <time>2019-09-10T15:16:59.300Z</time>
      </trkpt>
      <trkpt lat="10.1581124980225" lon="-75.6830212851651">
        <ele>52.421895</ele>
        <time>2019-09-10T15:16:59.400Z</time>
      </trkpt>
      <trkpt lat="10.1581145972822" lon="-75.6830199115535">
        <ele>52.421895</ele>
        <time>2019-09-10T15:16:59.500Z</time>
      </trkpt>
      <trkpt lat="10.1581188745141" lon="-75.6830163531697">
        <ele>52.521895</ele>
        <time>2019-09-10T15:16:59.700Z</time>
      </trkpt>
      <trkpt lat="10.158121023487" lon="-75.6830143009683">
        <ele>52.521895</ele>
        <time>2019-09-10T15:16:59.800Z</time>
      </trkpt>
      <trkpt lat="10.1581232427825" lon="-75.6830121777468">
        <ele>52.521895</ele>
        <time>2019-09-10T15:16:59.900Z</time>
      </trkpt>
      <trkpt lat="10.1581253974875" lon="-75.6830099929746">
        <ele>52.521895</ele>
        <time>2019-09-10T15:17:00.000Z</time>
      </trkpt>
      <trkpt lat="10.1581276074815" lon="-75.6830077977583">
        <ele>52.521895</ele>
        <time>2019-09-10T15:17:00.100Z</time>
      </trkpt>
      <trkpt lat="10.1581297392058" lon="-75.6830055505999">
        <ele>52.521895</ele>
        <time>2019-09-10T15:17:00.200Z</time>
      </trkpt>
      <trkpt lat="10.1581318531606" lon="-75.6830033814242">
        <ele>52.421895</ele>
        <time>2019-09-10T15:17:00.300Z</time>
      </trkpt>
      <trkpt lat="10.1581338967406" lon="-75.6830011947025">
        <ele>52.421895</ele>
        <time>2019-09-10T15:17:00.400Z</time>
      </trkpt>
      <trkpt lat="10.1581359384967" lon="-75.6829990760764">
        <ele>52.421895</ele>
        <time>2019-09-10T15:17:00.500Z</time>
      </trkpt>
      <trkpt lat="10.1581379423948" lon="-75.6829969043942">
        <ele>52.421895</ele>
        <time>2019-09-10T15:17:00.600Z</time>
      </trkpt>
      <trkpt lat="10.1581399385023" lon="-75.6829947882747">
        <ele>52.421895</ele>
        <time>2019-09-10T15:17:00.700Z</time>
      </trkpt>
      <trkpt lat="10.1581419122286" lon="-75.682992622302">
        <ele>52.421895</ele>
        <time>2019-09-10T15:17:00.800Z</time>
      </trkpt>
      <trkpt lat="10.1581438716766" lon="-75.6829904861298">
        <ele>52.421895</ele>
        <time>2019-09-10T15:17:00.900Z</time>
      </trkpt>
      <trkpt lat="10.1581458197125" lon="-75.6829883069278">
        <ele>52.421895</ele>
        <time>2019-09-10T15:17:01.000Z</time>
      </trkpt>
      <trkpt lat="10.158147761417" lon="-75.6829861707556">
        <ele>52.421895</ele>
        <time>2019-09-10T15:17:01.100Z</time>
      </trkpt>
      <trkpt lat="10.1581497068735" lon="-75.682984015784">
        <ele>52.421895</ele>
        <time>2019-09-10T15:17:01.200Z</time>
      </trkpt>
      <trkpt lat="10.1581515839613" lon="-75.6829819127545">
        <ele>52.421895</ele>
        <time>2019-09-10T15:17:01.300Z</time>
      </trkpt>
      <trkpt lat="10.1581534368179" lon="-75.68297981627">
        <ele>52.421895</ele>
        <time>2019-09-10T15:17:01.400Z</time>
      </trkpt>
      <trkpt lat="10.1581552794088" lon="-75.68297771895">
        <ele>52.421895</ele>
        <time>2019-09-10T15:17:01.500Z</time>
      </trkpt>
      <trkpt lat="10.1581571732241" lon="-75.6829755879302">
        <ele>52.421895</ele>
        <time>2019-09-10T15:17:01.600Z</time>
      </trkpt>
      <trkpt lat="10.1581590510415" lon="-75.6829734791913">
        <ele>52.421895</ele>
        <time>2019-09-10T15:17:01.700Z</time>
      </trkpt>
      <trkpt lat="10.1581609485826" lon="-75.6829713832638">
        <ele>52.421895</ele>
        <time>2019-09-10T15:17:01.800Z</time>
      </trkpt>
      <trkpt lat="10.158162833513" lon="-75.6829692949953">
        <ele>52.421895</ele>
        <time>2019-09-10T15:17:01.900Z</time>
      </trkpt>
      <trkpt lat="10.1581647473646" lon="-75.6829672157785">
        <ele>52.421895</ele>
        <time>2019-09-10T15:17:02.000Z</time>
      </trkpt>
      <trkpt lat="10.1581666277875" lon="-75.682965128067">
        <ele>52.421895</ele>
        <time>2019-09-10T15:17:02.100Z</time>
      </trkpt>
      <trkpt lat="10.1581685254068" lon="-75.6829630513567">
        <ele>52.421895</ele>
        <time>2019-09-10T15:17:02.200Z</time>
      </trkpt>
      <trkpt lat="10.1581704028334" lon="-75.6829609778493">
        <ele>52.421895</ele>
        <time>2019-09-10T15:17:02.300Z</time>
      </trkpt>
      <trkpt lat="10.1581723164765" lon="-75.6829589319144">
        <ele>52.421895</ele>
        <time>2019-09-10T15:17:02.400Z</time>
      </trkpt>
      <trkpt lat="10.1581742090672" lon="-75.6829568989302">
        <ele>52.421895</ele>
        <time>2019-09-10T15:17:02.500Z</time>
      </trkpt>
      <trkpt lat="10.1581761363893" lon="-75.6829548960251">
        <ele>52.421895</ele>
        <time>2019-09-10T15:17:02.600Z</time>
      </trkpt>
      <trkpt lat="10.1581800134669" lon="-75.6829508509449">
        <ele>52.521895</ele>
        <time>2019-09-10T15:17:02.800Z</time>
      </trkpt>
      <trkpt lat="10.1581838400237" lon="-75.6829469181043">
        <ele>52.421895</ele>
        <time>2019-09-10T15:17:03.000Z</time>
      </trkpt>
      <trkpt lat="10.1581857417336" lon="-75.6829450140703">
        <ele>52.421895</ele>
        <time>2019-09-10T15:17:03.100Z</time>
      </trkpt>
      <trkpt lat="10.1581876989149" lon="-75.682943130646">
        <ele>52.421895</ele>
        <time>2019-09-10T15:17:03.200Z</time>
      </trkpt>
      <trkpt lat="10.1581895904633" lon="-75.6829412784148">
        <ele>52.421895</ele>
        <time>2019-09-10T15:17:03.300Z</time>
      </trkpt>
      <trkpt lat="10.1581914169261" lon="-75.6829394497177">
        <ele>52.421895</ele>
        <time>2019-09-10T15:17:03.400Z</time>
      </trkpt>
      <trkpt lat="10.1581930284082" lon="-75.6829376531885">
        <ele>52.421895</ele>
        <time>2019-09-10T15:17:03.500Z</time>
      </trkpt>
      <trkpt lat="10.158194481345" lon="-75.6829358639006">
        <ele>52.421895</ele>
        <time>2019-09-10T15:17:03.600Z</time>
      </trkpt>
      <trkpt lat="10.1581956514276" lon="-75.6829340640294">
        <ele>52.421895</ele>
        <time>2019-09-10T15:17:03.700Z</time>
      </trkpt>
      <trkpt lat="10.1581966207035" lon="-75.6829322473082">
        <ele>52.421895</ele>
        <time>2019-09-10T15:17:03.800Z</time>
      </trkpt>
      <trkpt lat="10.1581972502991" lon="-75.6829303833796">
        <ele>52.421895</ele>
        <time>2019-09-10T15:17:03.900Z</time>
      </trkpt>
      <trkpt lat="10.1581976313029" lon="-75.6829285014871">
        <ele>52.421895</ele>
        <time>2019-09-10T15:17:04.000Z</time>
      </trkpt>
      <trkpt lat="10.1581976427411" lon="-75.6829265797677">
        <ele>52.421895</ele>
        <time>2019-09-10T15:17:04.100Z</time>
      </trkpt>
      <trkpt lat="10.158197396859" lon="-75.6829246636184">
        <ele>52.421895</ele>
        <time>2019-09-10T15:17:04.200Z</time>
      </trkpt>
      <trkpt lat="10.1581967724745" lon="-75.682922693299">
        <ele>52.421895</ele>
        <time>2019-09-10T15:17:04.300Z</time>
      </trkpt>
      <trkpt lat="10.158195888972" lon="-75.682920728689">
        <ele>52.421895</ele>
        <time>2019-09-10T15:17:04.400Z</time>
      </trkpt>
      <trkpt lat="10.1581946677693" lon="-75.6829186710567">
        <ele>52.421895</ele>
        <time>2019-09-10T15:17:04.500Z</time>
      </trkpt>
      <trkpt lat="10.1581932074068" lon="-75.6829166155131">
        <ele>52.421895</ele>
        <time>2019-09-10T15:17:04.600Z</time>
      </trkpt>
      <trkpt lat="10.1581914949611" lon="-75.6829144949375">
        <ele>52.521895</ele>
        <time>2019-09-10T15:17:04.700Z</time>
      </trkpt>
      <trkpt lat="10.1581896608642" lon="-75.682912419202">
        <ele>52.521895</ele>
        <time>2019-09-10T15:17:04.800Z</time>
      </trkpt>
      <trkpt lat="10.1581877094411" lon="-75.6829102561536">
        <ele>52.521895</ele>
        <time>2019-09-10T15:17:04.900Z</time>
      </trkpt>
      <trkpt lat="10.1581856862102" lon="-75.6829081364135">
        <ele>52.521895</ele>
        <time>2019-09-10T15:17:05.000Z</time>
      </trkpt>
      <trkpt lat="10.1581836464864" lon="-75.6829059565152">
        <ele>52.521895</ele>
        <time>2019-09-10T15:17:05.100Z</time>
      </trkpt>
      <trkpt lat="10.1581815789618" lon="-75.6829038458267">
        <ele>52.521895</ele>
        <time>2019-09-10T15:17:05.200Z</time>
      </trkpt>
      <trkpt lat="10.1581795064606" lon="-75.6829016593835">
        <ele>52.521895</ele>
        <time>2019-09-10T15:17:05.300Z</time>
      </trkpt>
      <trkpt lat="10.1581773927143" lon="-75.682899536719">
        <ele>52.521895</ele>
        <time>2019-09-10T15:17:05.400Z</time>
      </trkpt>
      <trkpt lat="10.1581753503068" lon="-75.6828974231062">
        <ele>52.521895</ele>
        <time>2019-09-10T15:17:05.500Z</time>
      </trkpt>
      <trkpt lat="10.1581733123287" lon="-75.6828953838555">
        <ele>52.521895</ele>
        <time>2019-09-10T15:17:05.600Z</time>
      </trkpt>
      <trkpt lat="10.1581712887329" lon="-75.6828933185641">
        <ele>52.521895</ele>
        <time>2019-09-10T15:17:05.700Z</time>
      </trkpt>
      <trkpt lat="10.1581692095878" lon="-75.6828912907323">
        <ele>52.521895</ele>
        <time>2019-09-10T15:17:05.800Z</time>
      </trkpt>
      <trkpt lat="10.1581671617348" lon="-75.6828892567733">
        <ele>52.521895</ele>
        <time>2019-09-10T15:17:05.900Z</time>
      </trkpt>
      <trkpt lat="10.1581651055181" lon="-75.6828872534505">
        <ele>52.521895</ele>
        <time>2019-09-10T15:17:06.000Z</time>
      </trkpt>
      <trkpt lat="10.1581630776754" lon="-75.6828852864731">
        <ele>52.521895</ele>
        <time>2019-09-10T15:17:06.100Z</time>
      </trkpt>
      <trkpt lat="10.1581610410261" lon="-75.6828833462328">
        <ele>52.521895</ele>
        <time>2019-09-10T15:17:06.200Z</time>
      </trkpt>
      <trkpt lat="10.1581590252208" lon="-75.6828814115626">
        <ele>52.521895</ele>
        <time>2019-09-10T15:17:06.300Z</time>
      </trkpt>
      <trkpt lat="10.1581570104057" lon="-75.6828794760569">
        <ele>52.521895</ele>
        <time>2019-09-10T15:17:06.400Z</time>
      </trkpt>
      <trkpt lat="10.1581550224794" lon="-75.6828775924934">
        <ele>52.521895</ele>
        <time>2019-09-10T15:17:06.500Z</time>
      </trkpt>
      <trkpt lat="10.1581530408846" lon="-75.6828757131075">
        <ele>52.521895</ele>
        <time>2019-09-10T15:17:06.600Z</time>
      </trkpt>
      <trkpt lat="10.1581510686435" lon="-75.6828738707634">
        <ele>52.521895</ele>
        <time>2019-09-10T15:17:06.700Z</time>
      </trkpt>
      <trkpt lat="10.1581490952299" lon="-75.6828719906812">
        <ele>52.521895</ele>
        <time>2019-09-10T15:17:06.800Z</time>
      </trkpt>
      <trkpt lat="10.1581471118372" lon="-75.6828701416529">
        <ele>52.521895</ele>
        <time>2019-09-10T15:17:06.900Z</time>
      </trkpt>
      <trkpt lat="10.1581451304508" lon="-75.6828682608744">
        <ele>52.521895</ele>
        <time>2019-09-10T15:17:07.000Z</time>
      </trkpt>
      <trkpt lat="10.1581431498981" lon="-75.6828663933252">
        <ele>52.521895</ele>
        <time>2019-09-10T15:17:07.100Z</time>
      </trkpt>
      <trkpt lat="10.1581392502047" lon="-75.682862574813">
        <ele>52.521895</ele>
        <time>2019-09-10T15:17:07.300Z</time>
      </trkpt>
      <trkpt lat="10.1581373354932" lon="-75.6828606129881">
        <ele>52.521895</ele>
        <time>2019-09-10T15:17:07.400Z</time>
      </trkpt>
      <trkpt lat="10.1581354343044" lon="-75.6828586606326">
        <ele>52.521895</ele>
        <time>2019-09-10T15:17:07.500Z</time>
      </trkpt>
      <trkpt lat="10.1581335594833" lon="-75.6828566820971">
        <ele>52.521895</ele>
        <time>2019-09-10T15:17:07.600Z</time>
      </trkpt>
      <trkpt lat="10.1581316694982" lon="-75.6828547237536">
        <ele>52.521895</ele>
        <time>2019-09-10T15:17:07.700Z</time>
      </trkpt>
      <trkpt lat="10.1581297741457" lon="-75.6828527278112">
        <ele>52.521895</ele>
        <time>2019-09-10T15:17:07.800Z</time>
      </trkpt>
      <trkpt lat="10.158127829966" lon="-75.6828507247668">
        <ele>52.521895</ele>
        <time>2019-09-10T15:17:07.900Z</time>
      </trkpt>
      <trkpt lat="10.1581259075683" lon="-75.6828486823133">
        <ele>52.521895</ele>
        <time>2019-09-10T15:17:08.000Z</time>
      </trkpt>
      <trkpt lat="10.1581240223252" lon="-75.6828467132471">
        <ele>52.521895</ele>
        <time>2019-09-10T15:17:08.100Z</time>
      </trkpt>
      <trkpt lat="10.1581221911725" lon="-75.6828447493334">
        <ele>52.521895</ele>
        <time>2019-09-10T15:17:08.200Z</time>
      </trkpt>
      <trkpt lat="10.1581203736727" lon="-75.682842799763">
        <ele>52.521895</ele>
        <time>2019-09-10T15:17:08.300Z</time>
      </trkpt>
      <trkpt lat="10.1581185696694" lon="-75.6828407974149">
        <ele>52.521895</ele>
        <time>2019-09-10T15:17:08.400Z</time>
      </trkpt>
      <trkpt lat="10.1581167813773" lon="-75.6828388075997">
        <ele>52.621895</ele>
        <time>2019-09-10T15:17:08.500Z</time>
      </trkpt>
      <trkpt lat="10.1581150097345" lon="-75.682836780882">
        <ele>52.621895</ele>
        <time>2019-09-10T15:17:08.600Z</time>
      </trkpt>
      <trkpt lat="10.1581132268619" lon="-75.682834748037">
        <ele>52.621895</ele>
        <time>2019-09-10T15:17:08.700Z</time>
      </trkpt>
      <trkpt lat="10.1581114380487" lon="-75.6828326732763">
        <ele>52.621895</ele>
        <time>2019-09-10T15:17:08.800Z</time>
      </trkpt>
      <trkpt lat="10.1581096327427" lon="-75.6828306071494">
        <ele>52.521895</ele>
        <time>2019-09-10T15:17:08.900Z</time>
      </trkpt>
      <trkpt lat="10.1581061243187" lon="-75.6828265091523">
        <ele>52.521895</ele>
        <time>2019-09-10T15:17:09.100Z</time>
      </trkpt>
      <trkpt lat="10.1581044254738" lon="-75.6828244661418">
        <ele>52.521895</ele>
        <time>2019-09-10T15:17:09.200Z</time>
      </trkpt>
      <trkpt lat="10.1581027381974" lon="-75.6828224508429">
        <ele>52.521895</ele>
        <time>2019-09-10T15:17:09.300Z</time>
      </trkpt>
      <trkpt lat="10.1581010768719" lon="-75.6828204324805">
        <ele>52.521895</ele>
        <time>2019-09-10T15:17:09.400Z</time>
      </trkpt>
      <trkpt lat="10.1580994487405" lon="-75.6828184266511">
        <ele>52.521895</ele>
        <time>2019-09-10T15:17:09.500Z</time>
      </trkpt>
      <trkpt lat="10.1580978271751" lon="-75.6828164133018">
        <ele>52.521895</ele>
        <time>2019-09-10T15:17:09.600Z</time>
      </trkpt>
      <trkpt lat="10.1580961865633" lon="-75.6828144227904">
        <ele>52.521895</ele>
        <time>2019-09-10T15:17:09.700Z</time>
      </trkpt>
      <trkpt lat="10.158094516822" lon="-75.6828123988577">
        <ele>52.521895</ele>
        <time>2019-09-10T15:17:09.800Z</time>
      </trkpt>
      <trkpt lat="10.1580928148244" lon="-75.6828103962311">
        <ele>52.521895</ele>
        <time>2019-09-10T15:17:09.900Z</time>
      </trkpt>
      <trkpt lat="10.1580910869021" lon="-75.6828083614366">
        <ele>52.521895</ele>
        <time>2019-09-10T15:17:10.000Z</time>
      </trkpt>
      <trkpt lat="10.1580892781828" lon="-75.6828063149447">
        <ele>52.521895</ele>
        <time>2019-09-10T15:17:10.100Z</time>
      </trkpt>
      <trkpt lat="10.1580874302246" lon="-75.6828042351708">
        <ele>52.521895</ele>
        <time>2019-09-10T15:17:10.200Z</time>
      </trkpt>
      <trkpt lat="10.1580855593378" lon="-75.6828021673728">
        <ele>52.621895</ele>
        <time>2019-09-10T15:17:10.300Z</time>
      </trkpt>
      <trkpt lat="10.1580837342559" lon="-75.6828000931691">
        <ele>52.621895</ele>
        <time>2019-09-10T15:17:10.400Z</time>
      </trkpt>
      <trkpt lat="10.1580819260057" lon="-75.6827979912537">
        <ele>52.621895</ele>
        <time>2019-09-10T15:17:10.500Z</time>
      </trkpt>
      <trkpt lat="10.1580801554571" lon="-75.6827958727669">
        <ele>52.621895</ele>
        <time>2019-09-10T15:17:10.600Z</time>
      </trkpt>
      <trkpt lat="10.1580784649499" lon="-75.682793772801">
        <ele>52.621895</ele>
        <time>2019-09-10T15:17:10.700Z</time>
      </trkpt>
      <trkpt lat="10.1580768184237" lon="-75.6827916738099">
        <ele>52.621895</ele>
        <time>2019-09-10T15:17:10.800Z</time>
      </trkpt>
      <trkpt lat="10.1580751999066" lon="-75.6827895941752">
        <ele>52.521895</ele>
        <time>2019-09-10T15:17:10.900Z</time>
      </trkpt>
      <trkpt lat="10.1580735678149" lon="-75.68278751092">
        <ele>52.521895</ele>
        <time>2019-09-10T15:17:11.000Z</time>
      </trkpt>
      <trkpt lat="10.1580719865567" lon="-75.6827854594148">
        <ele>52.521895</ele>
        <time>2019-09-10T15:17:11.100Z</time>
      </trkpt>
      <trkpt lat="10.158070408842" lon="-75.6827834044283">
        <ele>52.521895</ele>
        <time>2019-09-10T15:17:11.200Z</time>
      </trkpt>
      <trkpt lat="10.1580688393868" lon="-75.6827813917754">
        <ele>52.521895</ele>
        <time>2019-09-10T15:17:11.300Z</time>
      </trkpt>
      <trkpt lat="10.1580672404893" lon="-75.6827793710456">
        <ele>52.521895</ele>
        <time>2019-09-10T15:17:11.400Z</time>
      </trkpt>
      <trkpt lat="10.1580655965164" lon="-75.6827773078431">
        <ele>52.521895</ele>
        <time>2019-09-10T15:17:11.500Z</time>
      </trkpt>
      <trkpt lat="10.1580639183072" lon="-75.6827751842038">
        <ele>52.521895</ele>
        <time>2019-09-10T15:17:11.600Z</time>
      </trkpt>
      <trkpt lat="10.1580605575114" lon="-75.6827709406852">
        <ele>52.521895</ele>
        <time>2019-09-10T15:17:11.800Z</time>
      </trkpt>
      <trkpt lat="10.1580588580412" lon="-75.6827688480999">
        <ele>52.521895</ele>
        <time>2019-09-10T15:17:11.900Z</time>
      </trkpt>
      <trkpt lat="10.1580571540895" lon="-75.68276676944">
        <ele>52.521895</ele>
        <time>2019-09-10T15:17:12.000Z</time>
      </trkpt>
      <trkpt lat="10.1580554574333" lon="-75.6827647143143">
        <ele>52.521895</ele>
        <time>2019-09-10T15:17:12.100Z</time>
      </trkpt>
      <trkpt lat="10.1580537690625" lon="-75.6827626536183">
        <ele>52.521895</ele>
        <time>2019-09-10T15:17:12.200Z</time>
      </trkpt>
      <trkpt lat="10.158052052396" lon="-75.6827605936186">
        <ele>52.521895</ele>
        <time>2019-09-10T15:17:12.300Z</time>
      </trkpt>
      <trkpt lat="10.1580503257763" lon="-75.6827585113381">
        <ele>52.521895</ele>
        <time>2019-09-10T15:17:12.400Z</time>
      </trkpt>
      <trkpt lat="10.1580485958217" lon="-75.6827564493889">
        <ele>52.521895</ele>
        <time>2019-09-10T15:17:12.500Z</time>
      </trkpt>
      <trkpt lat="10.1580468788945" lon="-75.6827543796414">
        <ele>52.521895</ele>
        <time>2019-09-10T15:17:12.600Z</time>
      </trkpt>
      <trkpt lat="10.1580451688459" lon="-75.6827523264652">
        <ele>52.521895</ele>
        <time>2019-09-10T15:17:12.700Z</time>
      </trkpt>
      <trkpt lat="10.1580434667181" lon="-75.6827502597812">
        <ele>52.521895</ele>
        <time>2019-09-10T15:17:12.800Z</time>
      </trkpt>
      <trkpt lat="10.1580417748039" lon="-75.6827481885019">
        <ele>52.521895</ele>
        <time>2019-09-10T15:17:12.900Z</time>
      </trkpt>
      <trkpt lat="10.1580400850262" lon="-75.682746096195">
        <ele>52.521895</ele>
        <time>2019-09-10T15:17:13.000Z</time>
      </trkpt>
      <trkpt lat="10.1580383547588" lon="-75.6827439739484">
        <ele>52.521895</ele>
        <time>2019-09-10T15:17:13.100Z</time>
      </trkpt>
      <trkpt lat="10.1580366104217" lon="-75.6827418374977">
        <ele>52.421895</ele>
        <time>2019-09-10T15:17:13.200Z</time>
      </trkpt>
      <trkpt lat="10.1580348910454" lon="-75.6827397279232">
        <ele>52.421895</ele>
        <time>2019-09-10T15:17:13.300Z</time>
      </trkpt>
      <trkpt lat="10.1580331908457" lon="-75.6827376294891">
        <ele>52.421895</ele>
        <time>2019-09-10T15:17:13.400Z</time>
      </trkpt>
      <trkpt lat="10.158031526602" lon="-75.6827355405244">
        <ele>52.421895</ele>
        <time>2019-09-10T15:17:13.500Z</time>
      </trkpt>
      <trkpt lat="10.1580298665792" lon="-75.682733440837">
        <ele>52.421895</ele>
        <time>2019-09-10T15:17:13.600Z</time>
      </trkpt>
      <trkpt lat="10.1580282200008" lon="-75.6827313490872">
        <ele>52.421895</ele>
        <time>2019-09-10T15:17:13.700Z</time>
      </trkpt>
      <trkpt lat="10.1580265574768" lon="-75.6827292509316">
        <ele>52.421895</ele>
        <time>2019-09-10T15:17:13.800Z</time>
      </trkpt>
      <trkpt lat="10.1580249002679" lon="-75.6827271589033">
        <ele>52.421895</ele>
        <time>2019-09-10T15:17:13.900Z</time>
      </trkpt>
      <trkpt lat="10.1580232320638" lon="-75.6827250581019">
        <ele>52.421895</ele>
        <time>2019-09-10T15:17:14.000Z</time>
      </trkpt>
      <trkpt lat="10.1580215625049" lon="-75.6827229877973">
        <ele>52.421895</ele>
        <time>2019-09-10T15:17:14.100Z</time>
      </trkpt>
      <trkpt lat="10.1580198824197" lon="-75.6827209186068">
        <ele>52.421895</ele>
        <time>2019-09-10T15:17:14.200Z</time>
      </trkpt>
      <trkpt lat="10.1580181996768" lon="-75.6827188774066">
        <ele>52.421895</ele>
        <time>2019-09-10T15:17:14.300Z</time>
      </trkpt>
      <trkpt lat="10.158016515527" lon="-75.682716827851">
        <ele>52.421895</ele>
        <time>2019-09-10T15:17:14.400Z</time>
      </trkpt>
      <trkpt lat="10.1580148290323" lon="-75.6827147820553">
        <ele>52.421895</ele>
        <time>2019-09-10T15:17:14.500Z</time>
      </trkpt>
      <trkpt lat="10.158013138994" lon="-75.6827127104975">
        <ele>52.421895</ele>
        <time>2019-09-10T15:17:14.600Z</time>
      </trkpt>
      <trkpt lat="10.1580114406181" lon="-75.6827106562072">
        <ele>52.421895</ele>
        <time>2019-09-10T15:17:14.700Z</time>
      </trkpt>
      <trkpt lat="10.1580097387508" lon="-75.6827085941187">
        <ele>52.421895</ele>
        <time>2019-09-10T15:17:14.800Z</time>
      </trkpt>
      <trkpt lat="10.1580080351118" lon="-75.682706524789">
        <ele>52.421895</ele>
        <time>2019-09-10T15:17:14.900Z</time>
      </trkpt>
      <trkpt lat="10.1580063308996" lon="-75.6827044395841">
        <ele>52.421895</ele>
        <time>2019-09-10T15:17:15.000Z</time>
      </trkpt>
      <trkpt lat="10.1580046309082" lon="-75.6827023759638">
        <ele>52.421895</ele>
        <time>2019-09-10T15:17:15.100Z</time>
      </trkpt>
      <trkpt lat="10.1580029322718" lon="-75.6827003096977">
        <ele>52.421895</ele>
        <time>2019-09-10T15:17:15.200Z</time>
      </trkpt>
      <trkpt lat="10.1580012156052" lon="-75.6826982346584">
        <ele>52.421895</ele>
        <time>2019-09-10T15:17:15.300Z</time>
      </trkpt>
      <trkpt lat="10.1579994913827" lon="-75.6826961458329">
        <ele>52.421895</ele>
        <time>2019-09-10T15:17:15.400Z</time>
      </trkpt>
      <trkpt lat="10.1579961181326" lon="-75.682691954535">
        <ele>52.421895</ele>
        <time>2019-09-10T15:17:15.600Z</time>
      </trkpt>
      <trkpt lat="10.1579943989126" lon="-75.6826898519233">
        <ele>52.421895</ele>
        <time>2019-09-10T15:17:15.700Z</time>
      </trkpt>
      <trkpt lat="10.1579926577542" lon="-75.6826877438806">
        <ele>52.421895</ele>
        <time>2019-09-10T15:17:15.800Z</time>
      </trkpt>
      <trkpt lat="10.1579909423904" lon="-75.6826856533841">
        <ele>52.421895</ele>
        <time>2019-09-10T15:17:15.900Z</time>
      </trkpt>
      <trkpt lat="10.1579892394809" lon="-75.6826835669259">
        <ele>52.421895</ele>
        <time>2019-09-10T15:17:16.000Z</time>
      </trkpt>
      <trkpt lat="10.1579875216679" lon="-75.6826814803285">
        <ele>52.421895</ele>
        <time>2019-09-10T15:17:16.100Z</time>
      </trkpt>
      <trkpt lat="10.1579857866585" lon="-75.6826793785524">
        <ele>52.421895</ele>
        <time>2019-09-10T15:17:16.200Z</time>
      </trkpt>
      <trkpt lat="10.1579840604037" lon="-75.6826773213378">
        <ele>52.421895</ele>
        <time>2019-09-10T15:17:16.300Z</time>
      </trkpt>
      <trkpt lat="10.1579823372754" lon="-75.6826752722">
        <ele>52.421895</ele>
        <time>2019-09-10T15:17:16.400Z</time>
      </trkpt>
      <trkpt lat="10.1579806151894" lon="-75.6826732060731">
        <ele>52.421895</ele>
        <time>2019-09-10T15:17:16.500Z</time>
      </trkpt>
      <trkpt lat="10.1579788842446" lon="-75.6826710995622">
        <ele>52.421895</ele>
        <time>2019-09-10T15:17:16.600Z</time>
      </trkpt>
      <trkpt lat="10.1579771460044" lon="-75.682668969935">
        <ele>52.421895</ele>
        <time>2019-09-10T15:17:16.700Z</time>
      </trkpt>
      <trkpt lat="10.1579754020321" lon="-75.6826668318133">
        <ele>52.421895</ele>
        <time>2019-09-10T15:17:16.800Z</time>
      </trkpt>
      <trkpt lat="10.1579736803108" lon="-75.6826646959196">
        <ele>52.421895</ele>
        <time>2019-09-10T15:17:16.900Z</time>
      </trkpt>
      <trkpt lat="10.1579719650512" lon="-75.6826625720018">
        <ele>52.421895</ele>
        <time>2019-09-10T15:17:17.000Z</time>
      </trkpt>
      <trkpt lat="10.1579702561491" lon="-75.6826604585282">
        <ele>52.421895</ele>
        <time>2019-09-10T15:17:17.100Z</time>
      </trkpt>
      <trkpt lat="10.1579685369291" lon="-75.682658350207">
        <ele>52.421895</ele>
        <time>2019-09-10T15:17:17.200Z</time>
      </trkpt>
      <trkpt lat="10.1579668413671" lon="-75.6826562531655">
        <ele>52.421895</ele>
        <time>2019-09-10T15:17:17.300Z</time>
      </trkpt>
      <trkpt lat="10.1579651465868" lon="-75.6826541551492">
        <ele>52.321895</ele>
        <time>2019-09-10T15:17:17.400Z</time>
      </trkpt>
      <trkpt lat="10.157963470931" lon="-75.6826520627031">
        <ele>52.321895</ele>
        <time>2019-09-10T15:17:17.500Z</time>
      </trkpt>
      <trkpt lat="10.1579617842799" lon="-75.6826499674719">
        <ele>52.321895</ele>
        <time>2019-09-10T15:17:17.600Z</time>
      </trkpt>
      <trkpt lat="10.1579600861645" lon="-75.682647881153">
        <ele>52.421895</ele>
        <time>2019-09-10T15:17:17.700Z</time>
      </trkpt>
      <trkpt lat="10.157958365277" lon="-75.6826457894032">
        <ele>52.421895</ele>
        <time>2019-09-10T15:17:17.800Z</time>
      </trkpt>
      <trkpt lat="10.1579566552806" lon="-75.6826437229978">
        <ele>52.421895</ele>
        <time>2019-09-10T15:17:17.900Z</time>
      </trkpt>
      <trkpt lat="10.1579549457531" lon="-75.682641654225">
        <ele>52.421895</ele>
        <time>2019-09-10T15:17:18.000Z</time>
      </trkpt>
      <trkpt lat="10.1579532309104" lon="-75.6826395837812">
        <ele>52.421895</ele>
        <time>2019-09-10T15:17:18.100Z</time>
      </trkpt>
      <trkpt lat="10.15794974974" lon="-75.6826354040414">
        <ele>52.421895</ele>
        <time>2019-09-10T15:17:18.300Z</time>
      </trkpt>
      <trkpt lat="10.1579479925838" lon="-75.6826333036578">
        <ele>52.421895</ele>
        <time>2019-09-10T15:17:18.400Z</time>
      </trkpt>
      <trkpt lat="10.1579462773763" lon="-75.6826312248587">
        <ele>52.421895</ele>
        <time>2019-09-10T15:17:18.500Z</time>
      </trkpt>
      <trkpt lat="10.1579445794694" lon="-75.6826291477306">
        <ele>52.421895</ele>
        <time>2019-09-10T15:17:18.600Z</time>
      </trkpt>
      <trkpt lat="10.1579428750488" lon="-75.682627067539">
        <ele>52.421895</ele>
        <time>2019-09-10T15:17:18.700Z</time>
      </trkpt>
      <trkpt lat="10.1579411519726" lon="-75.6826249721685">
        <ele>52.421895</ele>
        <time>2019-09-10T15:17:18.800Z</time>
      </trkpt>
      <trkpt lat="10.1579394196209" lon="-75.6826228747092">
        <ele>52.421895</ele>
        <time>2019-09-10T15:17:18.900Z</time>
      </trkpt>
      <trkpt lat="10.1579376789315" lon="-75.6826207722367">
        <ele>52.421895</ele>
        <time>2019-09-10T15:17:19.000Z</time>
      </trkpt>
      <trkpt lat="10.1579359564807" lon="-75.6826186822972">
        <ele>52.321895</ele>
        <time>2019-09-10T15:17:19.100Z</time>
      </trkpt>
      <trkpt lat="10.1579342406479" lon="-75.682616592497">
        <ele>52.321895</ele>
        <time>2019-09-10T15:17:19.200Z</time>
      </trkpt>
      <trkpt lat="10.1579325278374" lon="-75.6826145024182">
        <ele>52.321895</ele>
        <time>2019-09-10T15:17:19.300Z</time>
      </trkpt>
      <trkpt lat="10.1579290788712" lon="-75.6826102892572">
        <ele>52.321895</ele>
        <time>2019-09-10T15:17:19.500Z</time>
      </trkpt>
      <trkpt lat="10.1579273440703" lon="-75.6826081638077">
        <ele>52.321895</ele>
        <time>2019-09-10T15:17:19.600Z</time>
      </trkpt>
      <trkpt lat="10.1579256036414" lon="-75.6826060400292">
        <ele>52.321895</ele>
        <time>2019-09-10T15:17:19.700Z</time>
      </trkpt>
      <trkpt lat="10.1579238613888" lon="-75.6826039177825">
        <ele>52.321895</ele>
        <time>2019-09-10T15:17:19.800Z</time>
      </trkpt>
      <trkpt lat="10.1579220909444" lon="-75.6826018118286">
        <ele>52.321895</ele>
        <time>2019-09-10T15:17:19.900Z</time>
      </trkpt>
      <trkpt lat="10.1579203101302" lon="-75.6825997025327">
        <ele>52.321895</ele>
        <time>2019-09-10T15:17:20.000Z</time>
      </trkpt>
      <trkpt lat="10.1579185201446" lon="-75.6825976020098">
        <ele>52.321895</ele>
        <time>2019-09-10T15:17:20.100Z</time>
      </trkpt>
      <trkpt lat="10.1579167406852" lon="-75.6825954961952">
        <ele>52.321895</ele>
        <time>2019-09-10T15:17:20.200Z</time>
      </trkpt>
      <trkpt lat="10.1579149718563" lon="-75.682593379101">
        <ele>52.321895</ele>
        <time>2019-09-10T15:17:20.300Z</time>
      </trkpt>
      <trkpt lat="10.1579132126678" lon="-75.6825912526766">
        <ele>52.321895</ele>
        <time>2019-09-10T15:17:20.400Z</time>
      </trkpt>
      <trkpt lat="10.1579114714052" lon="-75.6825891390638">
        <ele>52.321895</ele>
        <time>2019-09-10T15:17:20.500Z</time>
      </trkpt>
      <trkpt lat="10.1579097328523" lon="-75.6825870318566">
        <ele>52.321895</ele>
        <time>2019-09-10T15:17:20.600Z</time>
      </trkpt>
      <trkpt lat="10.1579080072749" lon="-75.6825849377394">
        <ele>52.321895</ele>
        <time>2019-09-10T15:17:20.700Z</time>
      </trkpt>
      <trkpt lat="10.157906276747" lon="-75.6825828443185">
        <ele>52.321895</ele>
        <time>2019-09-10T15:17:20.800Z</time>
      </trkpt>
      <trkpt lat="10.1579045324099" lon="-75.6825807600885">
        <ele>52.321895</ele>
        <time>2019-09-10T15:17:20.900Z</time>
      </trkpt>
      <trkpt lat="10.1579027766085" lon="-75.6825786716808">
        <ele>52.321895</ele>
        <time>2019-09-10T15:17:21.000Z</time>
      </trkpt>
      <trkpt lat="10.1579010454553" lon="-75.6825766126559">
        <ele>52.321895</ele>
        <time>2019-09-10T15:17:21.100Z</time>
      </trkpt>
      <trkpt lat="10.1578993247242" lon="-75.6825745578086">
        <ele>52.321895</ele>
        <time>2019-09-10T15:17:21.200Z</time>
      </trkpt>
      <trkpt lat="10.1578976122785" lon="-75.6825725037969">
        <ele>52.321895</ele>
        <time>2019-09-10T15:17:21.300Z</time>
      </trkpt>
      <trkpt lat="10.1578958900361" lon="-75.6825704336316">
        <ele>52.321895</ele>
        <time>2019-09-10T15:17:21.400Z</time>
      </trkpt>
      <trkpt lat="10.1578941693571" lon="-75.6825683842153">
        <ele>52.321895</ele>
        <time>2019-09-10T15:17:21.500Z</time>
      </trkpt>
      <trkpt lat="10.1578924486259" lon="-75.6825663290896">
        <ele>52.321895</ele>
        <time>2019-09-10T15:17:21.600Z</time>
      </trkpt>
      <trkpt lat="10.1578907264877" lon="-75.6825642605953">
        <ele>52.321895</ele>
        <time>2019-09-10T15:17:21.700Z</time>
      </trkpt>
      <trkpt lat="10.1578889994512" lon="-75.682562175112">
        <ele>52.421895</ele>
        <time>2019-09-10T15:17:21.800Z</time>
      </trkpt>
      <trkpt lat="10.1578872892984" lon="-75.6825601004905">
        <ele>52.421895</ele>
        <time>2019-09-10T15:17:21.900Z</time>
      </trkpt>
      <trkpt lat="10.1578855808131" lon="-75.6825580264261">
        <ele>52.421895</ele>
        <time>2019-09-10T15:17:22.000Z</time>
      </trkpt>
      <trkpt lat="10.1578838831668" lon="-75.6825559643376">
        <ele>52.421895</ele>
        <time>2019-09-10T15:17:22.100Z</time>
      </trkpt>
      <trkpt lat="10.1578821783292" lon="-75.6825538955648">
        <ele>52.421895</ele>
        <time>2019-09-10T15:17:22.200Z</time>
      </trkpt>
      <trkpt lat="10.1578804439452" lon="-75.6825518160694">
        <ele>52.421895</ele>
        <time>2019-09-10T15:17:22.300Z</time>
      </trkpt>
      <trkpt lat="10.1578786850172" lon="-75.6825497172176">
        <ele>52.421895</ele>
        <time>2019-09-10T15:17:22.400Z</time>
      </trkpt>
      <trkpt lat="10.1578769180643" lon="-75.682547613074">
        <ele>52.421895</ele>
        <time>2019-09-10T15:17:22.500Z</time>
      </trkpt>
      <trkpt lat="10.1578751587716" lon="-75.6825455060062">
        <ele>52.421895</ele>
        <time>2019-09-10T15:17:22.600Z</time>
      </trkpt>
      <trkpt lat="10.157871648628" lon="-75.68254130315">
        <ele>52.421895</ele>
        <time>2019-09-10T15:17:22.800Z</time>
      </trkpt>
      <trkpt lat="10.1578698995488" lon="-75.682539205273">
        <ele>52.421895</ele>
        <time>2019-09-10T15:17:22.900Z</time>
      </trkpt>
      <trkpt lat="10.1578681513035" lon="-75.6825371058641">
        <ele>52.421895</ele>
        <time>2019-09-10T15:17:23.000Z</time>
      </trkpt>
      <trkpt lat="10.1578664072269" lon="-75.6825350065945">
        <ele>52.421895</ele>
        <time>2019-09-10T15:17:23.100Z</time>
      </trkpt>
      <trkpt lat="10.1578646640884" lon="-75.6825329037043">
        <ele>52.421895</ele>
        <time>2019-09-10T15:17:23.200Z</time>
      </trkpt>
      <trkpt lat="10.1578629266298" lon="-75.6825308055488">
        <ele>52.421895</ele>
        <time>2019-09-10T15:17:23.300Z</time>
      </trkpt>
      <trkpt lat="10.1578611852109" lon="-75.6825287073932">
        <ele>52.421895</ele>
        <time>2019-09-10T15:17:23.400Z</time>
      </trkpt>
      <trkpt lat="10.1578576522951" lon="-75.6825244454929">
        <ele>52.421895</ele>
        <time>2019-09-10T15:17:23.600Z</time>
      </trkpt>
      <trkpt lat="10.1578559062905" lon="-75.6825223332726">
        <ele>52.421895</ele>
        <time>2019-09-10T15:17:23.700Z</time>
      </trkpt>
      <trkpt lat="10.1578541775343" lon="-75.6825202429153">
        <ele>52.421895</ele>
        <time>2019-09-10T15:17:23.800Z</time>
      </trkpt>
      <trkpt lat="10.1578524613889" lon="-75.6825181641162">
        <ele>52.421895</ele>
        <time>2019-09-10T15:17:23.900Z</time>
      </trkpt>
      <trkpt lat="10.1578507388859" lon="-75.6825160797469">
        <ele>52.421895</ele>
        <time>2019-09-10T15:17:24.000Z</time>
      </trkpt>
      <trkpt lat="10.1578490413438" lon="-75.6825140026189">
        <ele>52.421895</ele>
        <time>2019-09-10T15:17:24.100Z</time>
      </trkpt>
      <trkpt lat="10.157847342551" lon="-75.6825119229842">
        <ele>52.421895</ele>
        <time>2019-09-10T15:17:24.200Z</time>
      </trkpt>
      <trkpt lat="10.1578456446962" lon="-75.6825098219043">
        <ele>52.421895</ele>
        <time>2019-09-10T15:17:24.300Z</time>
      </trkpt>
      <trkpt lat="10.157843924903" lon="-75.6825077053671">
        <ele>52.421895</ele>
        <time>2019-09-10T15:17:24.400Z</time>
      </trkpt>
      <trkpt lat="10.1578422215767" lon="-75.6825055817279">
        <ele>52.421895</ele>
        <time>2019-09-10T15:17:24.500Z</time>
      </trkpt>
      <trkpt lat="10.157840514811" lon="-75.6825034668617">
        <ele>52.421895</ele>
        <time>2019-09-10T15:17:24.600Z</time>
      </trkpt>
      <trkpt lat="10.157838804554" lon="-75.6825013515777">
        <ele>52.421895</ele>
        <time>2019-09-10T15:17:24.700Z</time>
      </trkpt>
      <trkpt lat="10.1578370757979" lon="-75.6824992450669">
        <ele>52.421895</ele>
        <time>2019-09-10T15:17:24.800Z</time>
      </trkpt>
      <trkpt lat="10.1578353652803" lon="-75.6824971370242">
        <ele>52.421895</ele>
        <time>2019-09-10T15:17:24.900Z</time>
      </trkpt>
      <trkpt lat="10.1578336537726" lon="-75.6824950349695">
        <ele>52.421895</ele>
        <time>2019-09-10T15:17:25.000Z</time>
      </trkpt>
      <trkpt lat="10.1578319425255" lon="-75.6824929365354">
        <ele>52.321895</ele>
        <time>2019-09-10T15:17:25.100Z</time>
      </trkpt>
      <trkpt lat="10.1578302165833" lon="-75.6824908415827">
        <ele>52.321895</ele>
        <time>2019-09-10T15:17:25.200Z</time>
      </trkpt>
      <trkpt lat="10.1578285102346" lon="-75.6824887652902">
        <ele>52.321895</ele>
        <time>2019-09-10T15:17:25.300Z</time>
      </trkpt>
      <trkpt lat="10.1578267990395" lon="-75.6824866990241">
        <ele>52.321895</ele>
        <time>2019-09-10T15:17:25.400Z</time>
      </trkpt>
      <trkpt lat="10.157825105562" lon="-75.6824846320616">
        <ele>52.321895</ele>
        <time>2019-09-10T15:17:25.500Z</time>
      </trkpt>
      <trkpt lat="10.1578234028089" lon="-75.6824825539588">
        <ele>52.321895</ele>
        <time>2019-09-10T15:17:25.600Z</time>
      </trkpt>
      <trkpt lat="10.1578216964601" lon="-75.6824804688932">
        <ele>52.321895</ele>
        <time>2019-09-10T15:17:25.700Z</time>
      </trkpt>
      <trkpt lat="10.1578199701531" lon="-75.6824783751938">
        <ele>52.321895</ele>
        <time>2019-09-10T15:17:25.800Z</time>
      </trkpt>
      <trkpt lat="10.1578182398337" lon="-75.6824762920778">
        <ele>52.321895</ele>
        <time>2019-09-10T15:17:25.900Z</time>
      </trkpt>
      <trkpt lat="10.1578164996654" lon="-75.6824742123039">
        <ele>52.321895</ele>
        <time>2019-09-10T15:17:26.000Z</time>
      </trkpt>
      <trkpt lat="10.1578147375066" lon="-75.6824720979947">
        <ele>52.321895</ele>
        <time>2019-09-10T15:17:26.100Z</time>
      </trkpt>
      <trkpt lat="10.1578129641441" lon="-75.6824699621011">
        <ele>52.321895</ele>
        <time>2019-09-10T15:17:26.200Z</time>
      </trkpt>
      <trkpt lat="10.1578112094892" lon="-75.682467842918">
        <ele>52.321895</ele>
        <time>2019-09-10T15:17:26.300Z</time>
      </trkpt>
      <trkpt lat="10.1578094695815" lon="-75.6824657368249">
        <ele>52.321895</ele>
        <time>2019-09-10T15:17:26.400Z</time>
      </trkpt>
      <trkpt lat="10.1578077377508" lon="-75.6824636328206">
        <ele>52.321895</ele>
        <time>2019-09-10T15:17:26.500Z</time>
      </trkpt>
      <trkpt lat="10.1578059987811" lon="-75.6824615221321">
        <ele>52.321895</ele>
        <time>2019-09-10T15:17:26.600Z</time>
      </trkpt>
      <trkpt lat="10.1578042458458" lon="-75.6824594140894">
        <ele>52.321895</ele>
        <time>2019-09-10T15:17:26.700Z</time>
      </trkpt>
      <trkpt lat="10.1578024791534" lon="-75.68245729797">
        <ele>52.421895</ele>
        <time>2019-09-10T15:17:26.800Z</time>
      </trkpt>
      <trkpt lat="10.1578007421117" lon="-75.6824551917376">
        <ele>52.421895</ele>
        <time>2019-09-10T15:17:26.900Z</time>
      </trkpt>
      <trkpt lat="10.1577990222664" lon="-75.6824530796566">
        <ele>52.421895</ele>
        <time>2019-09-10T15:17:27.000Z</time>
      </trkpt>
      <trkpt lat="10.1577973147713" lon="-75.6824509821973">
        <ele>52.421895</ele>
        <time>2019-09-10T15:17:27.100Z</time>
      </trkpt>
      <trkpt lat="10.1577955984695" lon="-75.6824488794463">
        <ele>52.421895</ele>
        <time>2019-09-10T15:17:27.200Z</time>
      </trkpt>
      <trkpt lat="10.1577938664304" lon="-75.6824467657638">
        <ele>52.321895</ele>
        <time>2019-09-10T15:17:27.300Z</time>
      </trkpt>
      <trkpt lat="10.1577921203736" lon="-75.6824446361366">
        <ele>52.321895</ele>
        <time>2019-09-10T15:17:27.400Z</time>
      </trkpt>
      <trkpt lat="10.1577904170473" lon="-75.6824425159091">
        <ele>52.321895</ele>
        <time>2019-09-10T15:17:27.500Z</time>
      </trkpt>
      <trkpt lat="10.1577887300314" lon="-75.6824404030621">
        <ele>52.321895</ele>
        <time>2019-09-10T15:17:27.600Z</time>
      </trkpt>
      <trkpt lat="10.157787022901" lon="-75.6824383044192">
        <ele>52.321895</ele>
        <time>2019-09-10T15:17:27.700Z</time>
      </trkpt>
      <trkpt lat="10.1577852869015" lon="-75.6824362001364">
        <ele>52.321895</ele>
        <time>2019-09-10T15:17:27.800Z</time>
      </trkpt>
      <trkpt lat="10.1577818470025" lon="-75.6824319557823">
        <ele>52.321895</ele>
        <time>2019-09-10T15:17:28.000Z</time>
      </trkpt>
      <trkpt lat="10.1577801208518" lon="-75.6824298386184">
        <ele>52.321895</ele>
        <time>2019-09-10T15:17:28.100Z</time>
      </trkpt>
      <trkpt lat="10.1577783785991" lon="-75.6824277228471">
        <ele>52.321895</ele>
        <time>2019-09-10T15:17:28.200Z</time>
      </trkpt>
      <trkpt lat="10.1577766504683" lon="-75.6824256141778">
        <ele>52.321895</ele>
        <time>2019-09-10T15:17:28.300Z</time>
      </trkpt>
      <trkpt lat="10.157774924005" lon="-75.6824235018182">
        <ele>52.321895</ele>
        <time>2019-09-10T15:17:28.400Z</time>
      </trkpt>
      <trkpt lat="10.1577731983755" lon="-75.6824213976747">
        <ele>52.321895</ele>
        <time>2019-09-10T15:17:28.500Z</time>
      </trkpt>
      <trkpt lat="10.1577714602395" lon="-75.6824192886572">
        <ele>52.321895</ele>
        <time>2019-09-10T15:17:28.600Z</time>
      </trkpt>
      <trkpt lat="10.1577697231978" lon="-75.6824171769243">
        <ele>52.321895</ele>
        <time>2019-09-10T15:17:28.700Z</time>
      </trkpt>
      <trkpt lat="10.157767980893" lon="-75.6824150637292">
        <ele>52.321895</ele>
        <time>2019-09-10T15:17:28.800Z</time>
      </trkpt>
      <trkpt lat="10.1577662449457" lon="-75.6824129657825">
        <ele>52.321895</ele>
        <time>2019-09-10T15:17:28.900Z</time>
      </trkpt>
      <trkpt lat="10.157764502224" lon="-75.6824108743808">
        <ele>52.321895</ele>
        <time>2019-09-10T15:17:29.000Z</time>
      </trkpt>
      <trkpt lat="10.1577627815449" lon="-75.6824088120834">
        <ele>52.321895</ele>
        <time>2019-09-10T15:17:29.100Z</time>
      </trkpt>
      <trkpt lat="10.1577610625334" lon="-75.6824067567488">
        <ele>52.321895</ele>
        <time>2019-09-10T15:17:29.200Z</time>
      </trkpt>
      <trkpt lat="10.1577593513905" lon="-75.6824046775319">
        <ele>52.321895</ele>
        <time>2019-09-10T15:17:29.300Z</time>
      </trkpt>
      <trkpt lat="10.1577576256567" lon="-75.6824025736669">
        <ele>52.321895</ele>
        <time>2019-09-10T15:17:29.400Z</time>
      </trkpt>
      <trkpt lat="10.1577559046129" lon="-75.6824004562245">
        <ele>52.321895</ele>
        <time>2019-09-10T15:17:29.500Z</time>
      </trkpt>
      <trkpt lat="10.1577541721048" lon="-75.6823983405228">
        <ele>52.321895</ele>
        <time>2019-09-10T15:17:29.600Z</time>
      </trkpt>
      <trkpt lat="10.1577524443388" lon="-75.6823962200864">
        <ele>52.321895</ele>
        <time>2019-09-10T15:17:29.700Z</time>
      </trkpt>
      <trkpt lat="10.1577507080266" lon="-75.6823941016693">
        <ele>52.321895</ele>
        <time>2019-09-10T15:17:29.800Z</time>
      </trkpt>
      <trkpt lat="10.1577489745285" lon="-75.6823919864549">
        <ele>52.321895</ele>
        <time>2019-09-10T15:17:29.900Z</time>
      </trkpt>
      <trkpt lat="10.1577472393628" lon="-75.6823898769501">
        <ele>52.321895</ele>
        <time>2019-09-10T15:17:30.000Z</time>
      </trkpt>
      <trkpt lat="10.1577455080011" lon="-75.6823877709963">
        <ele>52.321895</ele>
        <time>2019-09-10T15:17:30.100Z</time>
      </trkpt>
      <trkpt lat="10.1577437704904" lon="-75.6823856696378">
        <ele>52.321895</ele>
        <time>2019-09-10T15:17:30.200Z</time>
      </trkpt>
      <trkpt lat="10.1577420330319" lon="-75.6823835527525">
        <ele>52.321895</ele>
        <time>2019-09-10T15:17:30.300Z</time>
      </trkpt>
      <trkpt lat="10.1577402917693" lon="-75.682381431968">
        <ele>52.321895</ele>
        <time>2019-09-10T15:17:30.400Z</time>
      </trkpt>
      <trkpt lat="10.1577385697354" lon="-75.6823793360405">
        <ele>52.321895</ele>
        <time>2019-09-10T15:17:30.500Z</time>
      </trkpt>
      <trkpt lat="10.1577368546321" lon="-75.6823772598872">
        <ele>52.321895</ele>
        <time>2019-09-10T15:17:30.600Z</time>
      </trkpt>
      <trkpt lat="10.1577351279603" lon="-75.6823751882597">
        <ele>52.421895</ele>
        <time>2019-09-10T15:17:30.700Z</time>
      </trkpt>
      <trkpt lat="10.1577333852908" lon="-75.6823731075111">
        <ele>52.421895</ele>
        <time>2019-09-10T15:17:30.800Z</time>
      </trkpt>
      <trkpt lat="10.1577316627878" lon="-75.6823710463973">
        <ele>52.421895</ele>
        <time>2019-09-10T15:17:30.900Z</time>
      </trkpt>
      <trkpt lat="10.1577299510196" lon="-75.6823689905753">
        <ele>52.421895</ele>
        <time>2019-09-10T15:17:31.000Z</time>
      </trkpt>
      <trkpt lat="10.1577282402936" lon="-75.6823669348229">
        <ele>52.421895</ele>
        <time>2019-09-10T15:17:31.100Z</time>
      </trkpt>
      <trkpt lat="10.1577265217511" lon="-75.6823648676516">
        <ele>52.421895</ele>
        <time>2019-09-10T15:17:31.200Z</time>
      </trkpt>
      <trkpt lat="10.1577248001861" lon="-75.6823627649702">
        <ele>52.421895</ele>
        <time>2019-09-10T15:17:31.300Z</time>
      </trkpt>
      <trkpt lat="10.1577230720553" lon="-75.6823606490596">
        <ele>52.421895</ele>
        <time>2019-09-10T15:17:31.400Z</time>
      </trkpt>
      <trkpt lat="10.1577213538254" lon="-75.6823585626711">
        <ele>52.421895</ele>
        <time>2019-09-10T15:17:31.500Z</time>
      </trkpt>
      <trkpt lat="10.1577196368983" lon="-75.6823565032285">
        <ele>52.421895</ele>
        <time>2019-09-10T15:17:31.600Z</time>
      </trkpt>
      <trkpt lat="10.1577178923006" lon="-75.6823544107824">
        <ele>52.421895</ele>
        <time>2019-09-10T15:17:31.700Z</time>
      </trkpt>
      <trkpt lat="10.1577161267026" lon="-75.6823522970302">
        <ele>52.421895</ele>
        <time>2019-09-10T15:17:31.800Z</time>
      </trkpt>
      <trkpt lat="10.1577143753827" lon="-75.6823501730429">
        <ele>52.421895</ele>
        <time>2019-09-10T15:17:31.900Z</time>
      </trkpt>
      <trkpt lat="10.1577126370383" lon="-75.6823480562271">
        <ele>52.421895</ele>
        <time>2019-09-10T15:17:32.000Z</time>
      </trkpt>
      <trkpt lat="10.1577109019768" lon="-75.6823459321005">
        <ele>52.421895</ele>
        <time>2019-09-10T15:17:32.100Z</time>
      </trkpt>
      <trkpt lat="10.1577091604537" lon="-75.6823438136833">
        <ele>52.421895</ele>
        <time>2019-09-10T15:17:32.200Z</time>
      </trkpt>
      <trkpt lat="10.1577074471221" lon="-75.6823416971461">
        <ele>52.421895</ele>
        <time>2019-09-10T15:17:32.300Z</time>
      </trkpt>
      <trkpt lat="10.157705732071" lon="-75.6823395855524">
        <ele>52.421895</ele>
        <time>2019-09-10T15:17:32.400Z</time>
      </trkpt>
      <trkpt lat="10.1577022843033" lon="-75.6823353632703">
        <ele>52.421895</ele>
        <time>2019-09-10T15:17:32.600Z</time>
      </trkpt>
      <trkpt lat="10.1577005764954" lon="-75.6823332535565">
        <ele>52.421895</ele>
        <time>2019-09-10T15:17:32.700Z</time>
      </trkpt>
      <trkpt lat="10.1576988647793" lon="-75.6823311431465">
        <ele>52.421895</ele>
        <time>2019-09-10T15:17:32.800Z</time>
      </trkpt>
      <trkpt lat="10.1576971603586" lon="-75.6823290383067">
        <ele>52.421895</ele>
        <time>2019-09-10T15:17:32.900Z</time>
      </trkpt>
      <trkpt lat="10.1576954403049" lon="-75.6823269315173">
        <ele>52.421895</ele>
        <time>2019-09-10T15:17:33.000Z</time>
      </trkpt>
      <trkpt lat="10.1576937500582" lon="-75.6823248326655">
        <ele>52.421895</ele>
        <time>2019-09-10T15:17:33.100Z</time>
      </trkpt>
      <trkpt lat="10.1576920594467" lon="-75.6823227332567">
        <ele>52.421895</ele>
        <time>2019-09-10T15:17:33.200Z</time>
      </trkpt>
      <trkpt lat="10.1576903711802" lon="-75.6823206409498">
        <ele>52.421895</ele>
        <time>2019-09-10T15:17:33.300Z</time>
      </trkpt>
      <trkpt lat="10.1576886667595" lon="-75.6823185434905">
        <ele>52.421895</ele>
        <time>2019-09-10T15:17:33.400Z</time>
      </trkpt>
      <trkpt lat="10.157686975627" lon="-75.6823164697046">
        <ele>52.421895</ele>
        <time>2019-09-10T15:17:33.500Z</time>
      </trkpt>
      <trkpt lat="10.1576852811593" lon="-75.6823144032992">
        <ele>52.421895</ele>
        <time>2019-09-10T15:17:33.600Z</time>
      </trkpt>
      <trkpt lat="10.1576835776766" lon="-75.6823123249178">
        <ele>52.421895</ele>
        <time>2019-09-10T15:17:33.700Z</time>
      </trkpt>
      <trkpt lat="10.1576818605932" lon="-75.6823102279459">
        <ele>52.421895</ele>
        <time>2019-09-10T15:17:33.800Z</time>
      </trkpt>
      <trkpt lat="10.1576801553387" lon="-75.6823081058385">
        <ele>52.421895</ele>
        <time>2019-09-10T15:17:33.900Z</time>
      </trkpt>
      <trkpt lat="10.1576784512828" lon="-75.6823059826866">
        <ele>52.421895</ele>
        <time>2019-09-10T15:17:34.000Z</time>
      </trkpt>
      <trkpt lat="10.1576767340951" lon="-75.6823038509706">
        <ele>52.421895</ele>
        <time>2019-09-10T15:17:34.100Z</time>
      </trkpt>
      <trkpt lat="10.1576750007012" lon="-75.6823017269833">
        <ele>52.421895</ele>
        <time>2019-09-10T15:17:34.200Z</time>
      </trkpt>
      <trkpt lat="10.1576732751759" lon="-75.6822995998626">
        <ele>52.421895</ele>
        <time>2019-09-10T15:17:34.300Z</time>
      </trkpt>
      <trkpt lat="10.1576715483999" lon="-75.6822974820721">
        <ele>52.421895</ele>
        <time>2019-09-10T15:17:34.400Z</time>
      </trkpt>
      <trkpt lat="10.1576698099513" lon="-75.6822953666489">
        <ele>52.421895</ele>
        <time>2019-09-10T15:17:34.500Z</time>
      </trkpt>
      <trkpt lat="10.1576680586835" lon="-75.6822932577011">
        <ele>52.421895</ele>
        <time>2019-09-10T15:17:34.600Z</time>
      </trkpt>
      <trkpt lat="10.15766630283" lon="-75.6822911517473">
        <ele>52.421895</ele>
        <time>2019-09-10T15:17:34.700Z</time>
      </trkpt>
      <trkpt lat="10.1576645408797" lon="-75.6822890469075">
        <ele>52.421895</ele>
        <time>2019-09-10T15:17:34.800Z</time>
      </trkpt>
      <trkpt lat="10.1576628028479" lon="-75.6822869738178">
        <ele>52.421895</ele>
        <time>2019-09-10T15:17:34.900Z</time>
      </trkpt>
      <trkpt lat="10.1576610705483" lon="-75.6822849108241">
        <ele>52.421895</ele>
        <time>2019-09-10T15:17:35.000Z</time>
      </trkpt>
      <trkpt lat="10.157659347889" lon="-75.6822828519385">
        <ele>52.421895</ele>
        <time>2019-09-10T15:17:35.100Z</time>
      </trkpt>
      <trkpt lat="10.157657612098" lon="-75.682280780311">
        <ele>52.421895</ele>
        <time>2019-09-10T15:17:35.200Z</time>
      </trkpt>
      <trkpt lat="10.1576559072605" lon="-75.6822787102153">
        <ele>52.421895</ele>
        <time>2019-09-10T15:17:35.300Z</time>
      </trkpt>
      <trkpt lat="10.1576541980977" lon="-75.6822766305111">
        <ele>52.421895</ele>
        <time>2019-09-10T15:17:35.400Z</time>
      </trkpt>
      <trkpt lat="10.1576524974811" lon="-75.6822745683529">
        <ele>52.421895</ele>
        <time>2019-09-10T15:17:35.500Z</time>
      </trkpt>
      <trkpt lat="10.1576507704446" lon="-75.6822725114865">
        <ele>52.421895</ele>
        <time>2019-09-10T15:17:35.600Z</time>
      </trkpt>
      <trkpt lat="10.1576490440334" lon="-75.682270440416">
        <ele>52.421895</ele>
        <time>2019-09-10T15:17:35.700Z</time>
      </trkpt>
      <trkpt lat="10.1576472998005" lon="-75.6822683479699">
        <ele>52.421895</ele>
        <time>2019-09-10T15:17:35.800Z</time>
      </trkpt>
      <trkpt lat="10.1576455413937" lon="-75.6822662400665">
        <ele>52.421895</ele>
        <time>2019-09-10T15:17:35.900Z</time>
      </trkpt>
      <trkpt lat="10.1576437694903" lon="-75.6822641257574">
        <ele>52.321895</ele>
        <time>2019-09-10T15:17:36.000Z</time>
      </trkpt>
      <trkpt lat="10.1576420069667" lon="-75.6822620076883">
        <ele>52.321895</ele>
        <time>2019-09-10T15:17:36.100Z</time>
      </trkpt>
      <trkpt lat="10.1576402512175" lon="-75.6822598944236">
        <ele>52.321895</ele>
        <time>2019-09-10T15:17:36.200Z</time>
      </trkpt>
      <trkpt lat="10.1576384833266" lon="-75.6822577597832">
        <ele>52.321895</ele>
        <time>2019-09-10T15:17:36.300Z</time>
      </trkpt>
      <trkpt lat="10.1576367072022" lon="-75.6822556183193">
        <ele>52.321895</ele>
        <time>2019-09-10T15:17:36.400Z</time>
      </trkpt>
      <trkpt lat="10.1576349219065" lon="-75.6822534764377">
        <ele>52.421895</ele>
        <time>2019-09-10T15:17:36.500Z</time>
      </trkpt>
      <trkpt lat="10.1576331371319" lon="-75.6822513481334">
        <ele>52.421895</ele>
        <time>2019-09-10T15:17:36.600Z</time>
      </trkpt>
      <trkpt lat="10.157631384874" lon="-75.6822492304822">
        <ele>52.421895</ele>
        <time>2019-09-10T15:17:36.700Z</time>
      </trkpt>
      <trkpt lat="10.1576296507505" lon="-75.6822471241802">
        <ele>52.421895</ele>
        <time>2019-09-10T15:17:36.800Z</time>
      </trkpt>
      <trkpt lat="10.1576261517585" lon="-75.682242925084">
        <ele>52.421895</ele>
        <time>2019-09-10T15:17:37.000Z</time>
      </trkpt>
      <trkpt lat="10.1576244025231" lon="-75.6822408521335">
        <ele>52.421895</ele>
        <time>2019-09-10T15:17:37.100Z</time>
      </trkpt>
      <trkpt lat="10.1576208962356" lon="-75.6822366664058">
        <ele>52.421895</ele>
        <time>2019-09-10T15:17:37.300Z</time>
      </trkpt>
      <trkpt lat="10.15761912897" lon="-75.6822345227835">
        <ele>52.421895</ele>
        <time>2019-09-10T15:17:37.400Z</time>
      </trkpt>
      <trkpt lat="10.1576173490938" lon="-75.6822324026952">
        <ele>52.421895</ele>
        <time>2019-09-10T15:17:37.500Z</time>
      </trkpt>
      <trkpt lat="10.1576155701555" lon="-75.6822303028686">
        <ele>52.421895</ele>
        <time>2019-09-10T15:17:37.600Z</time>
      </trkpt>
      <trkpt lat="10.1576138055996" lon="-75.6822282109795">
        <ele>52.421895</ele>
        <time>2019-09-10T15:17:37.700Z</time>
      </trkpt>
      <trkpt lat="10.157612057719" lon="-75.6822261145647">
        <ele>52.421895</ele>
        <time>2019-09-10T15:17:37.800Z</time>
      </trkpt>
      <trkpt lat="10.157610328077" lon="-75.6822240256696">
        <ele>52.421895</ele>
        <time>2019-09-10T15:17:37.900Z</time>
      </trkpt>
      <trkpt lat="10.1576085997899" lon="-75.682221930508">
        <ele>52.421895</ele>
        <time>2019-09-10T15:17:38.000Z</time>
      </trkpt>
      <trkpt lat="10.157606851805" lon="-75.6822198617352">
        <ele>52.421895</ele>
        <time>2019-09-10T15:17:38.100Z</time>
      </trkpt>
      <trkpt lat="10.1576050940235" lon="-75.6822177924751">
        <ele>52.421895</ele>
        <time>2019-09-10T15:17:38.200Z</time>
      </trkpt>
      <trkpt lat="10.1576033370757" lon="-75.6822157482809">
        <ele>52.421895</ele>
        <time>2019-09-10T15:17:38.300Z</time>
      </trkpt>
      <trkpt lat="10.1576015897163" lon="-75.6822136911359">
        <ele>52.421895</ele>
        <time>2019-09-10T15:17:38.400Z</time>
      </trkpt>
      <trkpt lat="10.1575998537168" lon="-75.6822116289081">
        <ele>52.421895</ele>
        <time>2019-09-10T15:17:38.500Z</time>
      </trkpt>
      <trkpt lat="10.1575981255339" lon="-75.6822095376457">
        <ele>52.421895</ele>
        <time>2019-09-10T15:17:38.600Z</time>
      </trkpt>
      <trkpt lat="10.1575964209047" lon="-75.6822074386546">
        <ele>52.421895</ele>
        <time>2019-09-10T15:17:38.700Z</time>
      </trkpt>
      <trkpt lat="10.1575947200275" lon="-75.6822053244151">
        <ele>52.421895</ele>
        <time>2019-09-10T15:17:38.800Z</time>
      </trkpt>
      <trkpt lat="10.1575930182124" lon="-75.6822032140747">
        <ele>52.421895</ele>
        <time>2019-09-10T15:17:38.900Z</time>
      </trkpt>
      <trkpt lat="10.1575913047245" lon="-75.6822011004618">
        <ele>52.421895</ele>
        <time>2019-09-10T15:17:39.000Z</time>
      </trkpt>
      <trkpt lat="10.1575896062444" lon="-75.6821989758478">
        <ele>52.421895</ele>
        <time>2019-09-10T15:17:39.100Z</time>
      </trkpt>
      <trkpt lat="10.1575879049503" lon="-75.6821968432266">
        <ele>52.421895</ele>
        <time>2019-09-10T15:17:39.200Z</time>
      </trkpt>
      <trkpt lat="10.1575861939638" lon="-75.6821946954963">
        <ele>52.421895</ele>
        <time>2019-09-10T15:17:39.300Z</time>
      </trkpt>
      <trkpt lat="10.1575844663019" lon="-75.6821925542413">
        <ele>52.421895</ele>
        <time>2019-09-10T15:17:39.400Z</time>
      </trkpt>
      <trkpt lat="10.1575827529183" lon="-75.6821904273992">
        <ele>52.421895</ele>
        <time>2019-09-10T15:17:39.500Z</time>
      </trkpt>
      <trkpt lat="10.1575810415149" lon="-75.6821883159448">
        <ele>52.421895</ele>
        <time>2019-09-10T15:17:39.600Z</time>
      </trkpt>
      <trkpt lat="10.1575793452234" lon="-75.6821861957173">
        <ele>52.421895</ele>
        <time>2019-09-10T15:17:39.700Z</time>
      </trkpt>
      <trkpt lat="10.1575776409069" lon="-75.6821840716603">
        <ele>52.421895</ele>
        <time>2019-09-10T15:17:39.800Z</time>
      </trkpt>
      <trkpt lat="10.1575759267937" lon="-75.6821819556801">
        <ele>52.421895</ele>
        <time>2019-09-10T15:17:39.900Z</time>
      </trkpt>
      <trkpt lat="10.1575741945462" lon="-75.6821798502833">
        <ele>52.421895</ele>
        <time>2019-09-10T15:17:40.000Z</time>
      </trkpt>
      <trkpt lat="10.1575724772022" lon="-75.6821777519188">
        <ele>52.421895</ele>
        <time>2019-09-10T15:17:40.100Z</time>
      </trkpt>
      <trkpt lat="10.157570755064" lon="-75.6821756532062">
        <ele>52.421895</ele>
        <time>2019-09-10T15:17:40.200Z</time>
      </trkpt>
      <trkpt lat="10.1575690252136" lon="-75.6821735790025">
        <ele>52.421895</ele>
        <time>2019-09-10T15:17:40.300Z</time>
      </trkpt>
      <trkpt lat="10.1575672769161" lon="-75.6821715048685">
        <ele>52.421895</ele>
        <time>2019-09-10T15:17:40.400Z</time>
      </trkpt>
      <trkpt lat="10.1575655250751" lon="-75.6821694305255">
        <ele>52.421895</ele>
        <time>2019-09-10T15:17:40.500Z</time>
      </trkpt>
      <trkpt lat="10.15756376844" lon="-75.6821673427444">
        <ele>52.421895</ele>
        <time>2019-09-10T15:17:40.600Z</time>
      </trkpt>
      <trkpt lat="10.1575619983605" lon="-75.6821652571218">
        <ele>52.421895</ele>
        <time>2019-09-10T15:17:40.700Z</time>
      </trkpt>
      <trkpt lat="10.1575602249459" lon="-75.6821631669038">
        <ele>52.421895</ele>
        <time>2019-09-10T15:17:40.800Z</time>
      </trkpt>
      <trkpt lat="10.1575566644638" lon="-75.6821590508732">
        <ele>52.421895</ele>
        <time>2019-09-10T15:17:41.000Z</time>
      </trkpt>
      <trkpt lat="10.1575548971982" lon="-75.6821570152432">
        <ele>52.421895</ele>
        <time>2019-09-10T15:17:41.100Z</time>
      </trkpt>
      <trkpt lat="10.157553143794" lon="-75.6821549674283">
        <ele>52.421895</ele>
        <time>2019-09-10T15:17:41.200Z</time>
      </trkpt>
      <trkpt lat="10.1575514214474" lon="-75.6821529283865">
        <ele>52.421895</ele>
        <time>2019-09-10T15:17:41.300Z</time>
      </trkpt>
      <trkpt lat="10.1575497075426" lon="-75.6821508729126">
        <ele>52.421895</ele>
        <time>2019-09-10T15:17:41.400Z</time>
      </trkpt>
      <trkpt lat="10.1575479579945" lon="-75.6821488025384">
        <ele>52.421895</ele>
        <time>2019-09-10T15:17:41.500Z</time>
      </trkpt>
      <trkpt lat="10.1575461838504" lon="-75.682146704174">
        <ele>52.421895</ele>
        <time>2019-09-10T15:17:41.600Z</time>
      </trkpt>
      <trkpt lat="10.1575443950111" lon="-75.6821445619442">
        <ele>52.421895</ele>
        <time>2019-09-10T15:17:41.700Z</time>
      </trkpt>
      <trkpt lat="10.1575426138842" lon="-75.6821424058585">
        <ele>52.421895</ele>
        <time>2019-09-10T15:17:41.800Z</time>
      </trkpt>
      <trkpt lat="10.1575408328616" lon="-75.6821402742818">
        <ele>52.421895</ele>
        <time>2019-09-10T15:17:41.900Z</time>
      </trkpt>
      <trkpt lat="10.1575390647622" lon="-75.6821381680494">
        <ele>52.421895</ele>
        <time>2019-09-10T15:17:42.000Z</time>
      </trkpt>
      <trkpt lat="10.157537311879" lon="-75.6821360765085">
        <ele>52.421895</ele>
        <time>2019-09-10T15:17:42.100Z</time>
      </trkpt>
      <trkpt lat="10.1575355732741" lon="-75.6821339840624">
        <ele>52.421895</ele>
        <time>2019-09-10T15:17:42.200Z</time>
      </trkpt>
      <trkpt lat="10.157533871042" lon="-75.6821319031048">
        <ele>52.421895</ele>
        <time>2019-09-10T15:17:42.300Z</time>
      </trkpt>
      <trkpt lat="10.1575321806911" lon="-75.6821298128171">
        <ele>52.421895</ele>
        <time>2019-09-10T15:17:42.400Z</time>
      </trkpt>
      <trkpt lat="10.1575304977398" lon="-75.6821277283086">
        <ele>52.421895</ele>
        <time>2019-09-10T15:17:42.500Z</time>
      </trkpt>
      <trkpt lat="10.1575287987386" lon="-75.6821256387172">
        <ele>52.421895</ele>
        <time>2019-09-10T15:17:42.600Z</time>
      </trkpt>
      <trkpt lat="10.1575270909829" lon="-75.682123551702">
        <ele>52.421895</ele>
        <time>2019-09-10T15:17:42.700Z</time>
      </trkpt>
      <trkpt lat="10.157525372284" lon="-75.6821214560531">
        <ele>52.421895</ele>
        <time>2019-09-10T15:17:42.800Z</time>
      </trkpt>
      <trkpt lat="10.1575236631734" lon="-75.6821193529539">
        <ele>52.421895</ele>
        <time>2019-09-10T15:17:42.900Z</time>
      </trkpt>
      <trkpt lat="10.1575219540628" lon="-75.6821172394803">
        <ele>52.421895</ele>
        <time>2019-09-10T15:17:43.000Z</time>
      </trkpt>
      <trkpt lat="10.1575202259841" lon="-75.6821151216898">
        <ele>52.421895</ele>
        <time>2019-09-10T15:17:43.100Z</time>
      </trkpt>
      <trkpt lat="10.1575184794583" lon="-75.6821129965884">
        <ele>52.421895</ele>
        <time>2019-09-10T15:17:43.200Z</time>
      </trkpt>
      <trkpt lat="10.1575167172995" lon="-75.6821108721136">
        <ele>52.321895</ele>
        <time>2019-09-10T15:17:43.300Z</time>
      </trkpt>
      <trkpt lat="10.1575149508677" lon="-75.6821087399799">
        <ele>52.421895</ele>
        <time>2019-09-10T15:17:43.400Z</time>
      </trkpt>
      <trkpt lat="10.1575131847486" lon="-75.682106592528">
        <ele>52.421895</ele>
        <time>2019-09-10T15:17:43.500Z</time>
      </trkpt>
      <trkpt lat="10.1575114230066" lon="-75.6821044375564">
        <ele>52.421895</ele>
        <time>2019-09-10T15:17:43.600Z</time>
      </trkpt>
      <trkpt lat="10.1575096513638" lon="-75.6821023055619">
        <ele>52.421895</ele>
        <time>2019-09-10T15:17:43.700Z</time>
      </trkpt>
      <trkpt lat="10.1575078786787" lon="-75.682100185404">
        <ele>52.421895</ele>
        <time>2019-09-10T15:17:43.800Z</time>
      </trkpt>
      <trkpt lat="10.1575061164157" lon="-75.6820980724178">
        <ele>52.421895</ele>
        <time>2019-09-10T15:17:43.900Z</time>
      </trkpt>
      <trkpt lat="10.1575043684309" lon="-75.6820959558109">
        <ele>52.421895</ele>
        <time>2019-09-10T15:17:44.000Z</time>
      </trkpt>
      <trkpt lat="10.157502635037" lon="-75.6820938573072">
        <ele>52.421895</ele>
        <time>2019-09-10T15:17:44.100Z</time>
      </trkpt>
      <trkpt lat="10.157500904457" lon="-75.6820917653485">
        <ele>52.421895</ele>
        <time>2019-09-10T15:17:44.200Z</time>
      </trkpt>
      <trkpt lat="10.1574991548046" lon="-75.6820896585591">
        <ele>52.421895</ele>
        <time>2019-09-10T15:17:44.300Z</time>
      </trkpt>
      <trkpt lat="10.1574956564379" lon="-75.6820854365555">
        <ele>52.421895</ele>
        <time>2019-09-10T15:17:44.500Z</time>
      </trkpt>
      <trkpt lat="10.1574939257537" lon="-75.6820833406976">
        <ele>52.421895</ele>
        <time>2019-09-10T15:17:44.600Z</time>
      </trkpt>
      <trkpt lat="10.1574904542759" lon="-75.6820791595653">
        <ele>52.421895</ele>
        <time>2019-09-10T15:17:44.800Z</time>
      </trkpt>
      <trkpt lat="10.1574887141076" lon="-75.682077077424">
        <ele>52.421895</ele>
        <time>2019-09-10T15:17:44.900Z</time>
      </trkpt>
      <trkpt lat="10.157486972376" lon="-75.6820749884593">
        <ele>52.421895</ele>
        <time>2019-09-10T15:17:45.000Z</time>
      </trkpt>
      <trkpt lat="10.1574852363765" lon="-75.6820729072929">
        <ele>52.421895</ele>
        <time>2019-09-10T15:17:45.100Z</time>
      </trkpt>
      <trkpt lat="10.1574834974589" lon="-75.6820708195814">
        <ele>52.421895</ele>
        <time>2019-09-10T15:17:45.200Z</time>
      </trkpt>
      <trkpt lat="10.1574817696928" lon="-75.6820687359084">
        <ele>52.421895</ele>
        <time>2019-09-10T15:17:45.300Z</time>
      </trkpt>
      <trkpt lat="10.1574800389044" lon="-75.6820666441586">
        <ele>52.421895</ele>
        <time>2019-09-10T15:17:45.400Z</time>
      </trkpt>
      <trkpt lat="10.1574783091581" lon="-75.6820645746895">
        <ele>52.421895</ele>
        <time>2019-09-10T15:17:45.500Z</time>
      </trkpt>
      <trkpt lat="10.1574765705532" lon="-75.6820625111389">
        <ele>52.421895</ele>
        <time>2019-09-10T15:17:45.600Z</time>
      </trkpt>
      <trkpt lat="10.157474829968" lon="-75.6820604498859">
        <ele>52.421895</ele>
        <time>2019-09-10T15:17:45.700Z</time>
      </trkpt>
      <trkpt lat="10.1574730806283" lon="-75.6820583749163">
        <ele>52.421895</ele>
        <time>2019-09-10T15:17:45.800Z</time>
      </trkpt>
      <trkpt lat="10.1574713392094" lon="-75.6820562943068">
        <ele>52.421895</ele>
        <time>2019-09-10T15:17:45.900Z</time>
      </trkpt>
      <trkpt lat="10.1574695977905" lon="-75.6820542048547">
        <ele>52.421895</ele>
        <time>2019-09-10T15:17:46.000Z</time>
      </trkpt>
      <trkpt lat="10.1574678843026" lon="-75.6820521081613">
        <ele>52.421895</ele>
        <time>2019-09-10T15:17:46.100Z</time>
      </trkpt>
      <trkpt lat="10.1574661740456" lon="-75.68205001669">
        <ele>52.421895</ele>
        <time>2019-09-10T15:17:46.200Z</time>
      </trkpt>
      <trkpt lat="10.1574644655603" lon="-75.6820479228514">
        <ele>52.421895</ele>
        <time>2019-09-10T15:17:46.300Z</time>
      </trkpt>
      <trkpt lat="10.1574627422757" lon="-75.682045836811">
        <ele>52.421895</ele>
        <time>2019-09-10T15:17:46.400Z</time>
      </trkpt>
      <trkpt lat="10.1574610239937" lon="-75.682043748821">
        <ele>52.421895</ele>
        <time>2019-09-10T15:17:46.500Z</time>
      </trkpt>
      <trkpt lat="10.1574592967488" lon="-75.6820416650784">
        <ele>52.421895</ele>
        <time>2019-09-10T15:17:46.600Z</time>
      </trkpt>
      <trkpt lat="10.1574575705461" lon="-75.6820395920583">
        <ele>52.421895</ele>
        <time>2019-09-10T15:17:46.700Z</time>
      </trkpt>
      <trkpt lat="10.1574558440306" lon="-75.6820375230071">
        <ele>52.421895</ele>
        <time>2019-09-10T15:17:46.800Z</time>
      </trkpt>
      <trkpt lat="10.1574540763482" lon="-75.6820353791759">
        <ele>52.421895</ele>
        <time>2019-09-10T15:17:46.900Z</time>
      </trkpt>
      <trkpt lat="10.1574523004323" lon="-75.6820332193303">
        <ele>52.421895</ele>
        <time>2019-09-10T15:17:47.000Z</time>
      </trkpt>
      <trkpt lat="10.157450563078" lon="-75.6820310996599">
        <ele>52.421895</ele>
        <time>2019-09-10T15:17:47.100Z</time>
      </trkpt>
      <trkpt lat="10.1574488541758" lon="-75.6820290122966">
        <ele>52.421895</ele>
        <time>2019-09-10T15:17:47.200Z</time>
      </trkpt>
      <trkpt lat="10.157447170495" lon="-75.682026925351">
        <ele>52.421895</ele>
        <time>2019-09-10T15:17:47.300Z</time>
      </trkpt>
      <trkpt lat="10.1574454853551" lon="-75.6820248293539">
        <ele>52.421895</ele>
        <time>2019-09-10T15:17:47.400Z</time>
      </trkpt>
      <trkpt lat="10.1574438239774" lon="-75.6820227334264">
        <ele>52.421895</ele>
        <time>2019-09-10T15:17:47.500Z</time>
      </trkpt>
      <trkpt lat="10.1574421591605" lon="-75.6820206352709">
        <ele>52.421895</ele>
        <time>2019-09-10T15:17:47.600Z</time>
      </trkpt>
      <trkpt lat="10.1574404888199" lon="-75.6820185421981">
        <ele>52.421895</ele>
        <time>2019-09-10T15:17:47.700Z</time>
      </trkpt>
      <trkpt lat="10.1574388015956" lon="-75.6820164484987">
        <ele>52.421895</ele>
        <time>2019-09-10T15:17:47.800Z</time>
      </trkpt>
      <trkpt lat="10.1574371075969" lon="-75.6820143547993">
        <ele>52.421895</ele>
        <time>2019-09-10T15:17:47.900Z</time>
      </trkpt>
      <trkpt lat="10.1574354039058" lon="-75.6820122535801">
        <ele>52.421895</ele>
        <time>2019-09-10T15:17:48.000Z</time>
      </trkpt>
      <trkpt lat="10.1574336906264" lon="-75.6820101424042">
        <ele>52.421895</ele>
        <time>2019-09-10T15:17:48.100Z</time>
      </trkpt>
      <trkpt lat="10.1574319691136" lon="-75.6820080200879">
        <ele>52.421895</ele>
        <time>2019-09-10T15:17:48.200Z</time>
      </trkpt>
      <trkpt lat="10.157430249164" lon="-75.6820058901126">
        <ele>52.421895</ele>
        <time>2019-09-10T15:17:48.300Z</time>
      </trkpt>
      <trkpt lat="10.1574285199389" lon="-75.6820037602069">
        <ele>52.421895</ele>
        <time>2019-09-10T15:17:48.400Z</time>
      </trkpt>
      <trkpt lat="10.1574267767482" lon="-75.68200162118">
        <ele>52.421895</ele>
        <time>2019-09-10T15:17:48.500Z</time>
      </trkpt>
      <trkpt lat="10.1574250196962" lon="-75.6819994786717">
        <ele>52.421895</ele>
        <time>2019-09-10T15:17:48.600Z</time>
      </trkpt>
      <trkpt lat="10.1574232620189" lon="-75.6819973512029">
        <ele>52.421895</ele>
        <time>2019-09-10T15:17:48.700Z</time>
      </trkpt>
      <trkpt lat="10.1574215052796" lon="-75.6819952311843">
        <ele>52.421895</ele>
        <time>2019-09-10T15:17:48.800Z</time>
      </trkpt>
      <trkpt lat="10.1574180098311" lon="-75.6819909211715">
        <ele>52.421895</ele>
        <time>2019-09-10T15:17:49.000Z</time>
      </trkpt>
      <trkpt lat="10.1574162489229" lon="-75.6819887768529">
        <ele>52.421895</ele>
        <time>2019-09-10T15:17:49.100Z</time>
      </trkpt>
      <trkpt lat="10.1574144790518" lon="-75.681986652587">
        <ele>52.421895</ele>
        <time>2019-09-10T15:17:49.200Z</time>
      </trkpt>
      <trkpt lat="10.1574127146002" lon="-75.6819845203139">
        <ele>52.421895</ele>
        <time>2019-09-10T15:17:49.300Z</time>
      </trkpt>
      <trkpt lat="10.157410956506" lon="-75.6819823833759">
        <ele>52.421895</ele>
        <time>2019-09-10T15:17:49.400Z</time>
      </trkpt>
      <trkpt lat="10.1574092092507" lon="-75.6819802357848">
        <ele>52.421895</ele>
        <time>2019-09-10T15:17:49.500Z</time>
      </trkpt>
      <trkpt lat="10.1574074602237" lon="-75.6819780920232">
        <ele>52.321895</ele>
        <time>2019-09-10T15:17:49.600Z</time>
      </trkpt>
      <trkpt lat="10.1574057165119" lon="-75.6819759667129">
        <ele>52.321895</ele>
        <time>2019-09-10T15:17:49.700Z</time>
      </trkpt>
      <trkpt lat="10.1574039686313" lon="-75.6819738570688">
        <ele>52.321895</ele>
        <time>2019-09-10T15:17:49.800Z</time>
      </trkpt>
      <trkpt lat="10.1574022528506" lon="-75.6819717910115">
        <ele>52.321895</ele>
        <time>2019-09-10T15:17:49.900Z</time>
      </trkpt>
      <trkpt lat="10.1574005376952" lon="-75.6819697383227">
        <ele>52.321895</ele>
        <time>2019-09-10T15:17:50.000Z</time>
      </trkpt>
      <trkpt lat="10.1573988063857" lon="-75.6819676948247">
        <ele>52.321895</ele>
        <time>2019-09-10T15:17:50.100Z</time>
      </trkpt>
      <trkpt lat="10.1573970504801" lon="-75.6819656316918">
        <ele>52.321895</ele>
        <time>2019-09-10T15:17:50.200Z</time>
      </trkpt>
      <trkpt lat="10.1573953030164" lon="-75.6819635616658">
        <ele>52.321895</ele>
        <time>2019-09-10T15:17:50.300Z</time>
      </trkpt>
      <trkpt lat="10.1573935572202" lon="-75.6819614770876">
        <ele>52.321895</ele>
        <time>2019-09-10T15:17:50.400Z</time>
      </trkpt>
      <trkpt lat="10.1573918224714" lon="-75.6819594094289">
        <ele>52.321895</ele>
        <time>2019-09-10T15:17:50.500Z</time>
      </trkpt>
      <trkpt lat="10.1573900880353" lon="-75.6819573422576">
        <ele>52.321895</ele>
        <time>2019-09-10T15:17:50.600Z</time>
      </trkpt>
      <trkpt lat="10.1573883662098" lon="-75.6819552717441">
        <ele>52.321895</ele>
        <time>2019-09-10T15:17:50.700Z</time>
      </trkpt>
      <trkpt lat="10.157386646156" lon="-75.6819531908562">
        <ele>52.321895</ele>
        <time>2019-09-10T15:17:50.800Z</time>
      </trkpt>
      <trkpt lat="10.1573849317302" lon="-75.6819511035625">
        <ele>52.321895</ele>
        <time>2019-09-10T15:17:50.900Z</time>
      </trkpt>
      <trkpt lat="10.1573832117807" lon="-75.6819490095846">
        <ele>52.321895</ele>
        <time>2019-09-10T15:17:51.000Z</time>
      </trkpt>
      <trkpt lat="10.1573814904763" lon="-75.6819469008456">
        <ele>52.321895</ele>
        <time>2019-09-10T15:17:51.100Z</time>
      </trkpt>
      <trkpt lat="10.157379764482" lon="-75.68194479148">
        <ele>52.321895</ele>
        <time>2019-09-10T15:17:51.200Z</time>
      </trkpt>
      <trkpt lat="10.1573780308796" lon="-75.6819426828804">
        <ele>52.321895</ele>
        <time>2019-09-10T15:17:51.300Z</time>
      </trkpt>
      <trkpt lat="10.1573762926915" lon="-75.6819405836804">
        <ele>52.321895</ele>
        <time>2019-09-10T15:17:51.400Z</time>
      </trkpt>
      <trkpt lat="10.1573745698238" lon="-75.6819384887277">
        <ele>52.321895</ele>
        <time>2019-09-10T15:17:51.500Z</time>
      </trkpt>
      <trkpt lat="10.1573728569613" lon="-75.6819363976741">
        <ele>52.321895</ele>
        <time>2019-09-10T15:17:51.600Z</time>
      </trkpt>
      <trkpt lat="10.1573711207533" lon="-75.6819342766807">
        <ele>52.321895</ele>
        <time>2019-09-10T15:17:51.700Z</time>
      </trkpt>
      <trkpt lat="10.1573693690166" lon="-75.681932149769">
        <ele>52.321895</ele>
        <time>2019-09-10T15:17:51.800Z</time>
      </trkpt>
      <trkpt lat="10.1573676084211" lon="-75.6819300129702">
        <ele>52.321895</ele>
        <time>2019-09-10T15:17:51.900Z</time>
      </trkpt>
      <trkpt lat="10.1573658500143" lon="-75.6819278913502">
        <ele>52.321895</ele>
        <time>2019-09-10T15:17:52.000Z</time>
      </trkpt>
      <trkpt lat="10.15736408525" lon="-75.6819257689642">
        <ele>52.321895</ele>
        <time>2019-09-10T15:17:52.100Z</time>
      </trkpt>
      <trkpt lat="10.1573623232996" lon="-75.6819236539588">
        <ele>52.321895</ele>
        <time>2019-09-10T15:17:52.200Z</time>
      </trkpt>
      <trkpt lat="10.1573605869875" lon="-75.6819215636711">
        <ele>52.321895</ele>
        <time>2019-09-10T15:17:52.300Z</time>
      </trkpt>
      <trkpt lat="10.1573588592214" lon="-75.6819194838276">
        <ele>52.321895</ele>
        <time>2019-09-10T15:17:52.400Z</time>
      </trkpt>
      <trkpt lat="10.1573571403141" lon="-75.681917407744">
        <ele>52.321895</ele>
        <time>2019-09-10T15:17:52.500Z</time>
      </trkpt>
      <trkpt lat="10.1573554117143" lon="-75.6819153179437">
        <ele>52.321895</ele>
        <time>2019-09-10T15:17:52.600Z</time>
      </trkpt>
      <trkpt lat="10.1573536862411" lon="-75.6819132500761">
        <ele>52.321895</ele>
        <time>2019-09-10T15:17:52.700Z</time>
      </trkpt>
      <trkpt lat="10.1573519510754" lon="-75.6819111776131">
        <ele>52.321895</ele>
        <time>2019-09-10T15:17:52.800Z</time>
      </trkpt>
      <trkpt lat="10.1573501708865" lon="-75.6819090515369">
        <ele>52.321895</ele>
        <time>2019-09-10T15:17:52.900Z</time>
      </trkpt>
      <trkpt lat="10.1573466049849" lon="-75.6819047973653">
        <ele>52.321895</ele>
        <time>2019-09-10T15:17:53.100Z</time>
      </trkpt>
      <trkpt lat="10.1573448581465" lon="-75.6819027264341">
        <ele>52.321895</ele>
        <time>2019-09-10T15:17:53.200Z</time>
      </trkpt>
      <trkpt lat="10.1573431264201" lon="-75.6819006635797">
        <ele>52.321895</ele>
        <time>2019-09-10T15:17:53.300Z</time>
      </trkpt>
      <trkpt lat="10.1573413926093" lon="-75.6818985861035">
        <ele>52.321895</ele>
        <time>2019-09-10T15:17:53.400Z</time>
      </trkpt>
      <trkpt lat="10.1573396449371" lon="-75.6818964845362">
        <ele>52.321895</ele>
        <time>2019-09-10T15:17:53.500Z</time>
      </trkpt>
      <trkpt lat="10.1573378842374" lon="-75.6818943668153">
        <ele>52.321895</ele>
        <time>2019-09-10T15:17:53.600Z</time>
      </trkpt>
      <trkpt lat="10.1573361466747" lon="-75.6818922756225">
        <ele>52.321895</ele>
        <time>2019-09-10T15:17:53.700Z</time>
      </trkpt>
      <trkpt lat="10.1573344158862" lon="-75.6818901965449">
        <ele>52.221895</ele>
        <time>2019-09-10T15:17:53.800Z</time>
      </trkpt>
      <trkpt lat="10.1573326696731" lon="-75.6818880941421">
        <ele>52.221895</ele>
        <time>2019-09-10T15:17:53.900Z</time>
      </trkpt>
      <trkpt lat="10.1573309065764" lon="-75.6818859800418">
        <ele>52.321895</ele>
        <time>2019-09-10T15:17:54.000Z</time>
      </trkpt>
      <trkpt lat="10.1573291963193" lon="-75.6818839187192">
        <ele>52.321895</ele>
        <time>2019-09-10T15:17:54.100Z</time>
      </trkpt>
      <trkpt lat="10.1573274987772" lon="-75.6818818777974">
        <ele>52.321895</ele>
        <time>2019-09-10T15:17:54.200Z</time>
      </trkpt>
      <trkpt lat="10.1573258076967" lon="-75.6818798333943">
        <ele>52.321895</ele>
        <time>2019-09-10T15:17:54.300Z</time>
      </trkpt>
      <trkpt lat="10.1573240908738" lon="-75.6818777671282">
        <ele>52.221895</ele>
        <time>2019-09-10T15:17:54.400Z</time>
      </trkpt>
      <trkpt lat="10.1573223299657" lon="-75.6818756679978">
        <ele>52.221895</ele>
        <time>2019-09-10T15:17:54.500Z</time>
      </trkpt>
      <trkpt lat="10.1573205415434" lon="-75.6818735564738">
        <ele>52.221895</ele>
        <time>2019-09-10T15:17:54.600Z</time>
      </trkpt>
      <trkpt lat="10.1573187324854" lon="-75.6818714310938">
        <ele>52.221895</ele>
        <time>2019-09-10T15:17:54.700Z</time>
      </trkpt>
      <trkpt lat="10.1573169341621" lon="-75.6818693190824">
        <ele>52.221895</ele>
        <time>2019-09-10T15:17:54.800Z</time>
      </trkpt>
      <trkpt lat="10.1573151726286" lon="-75.6818672518415">
        <ele>52.321895</ele>
        <time>2019-09-10T15:17:54.900Z</time>
      </trkpt>
      <trkpt lat="10.1573134388178" lon="-75.6818651993964">
        <ele>52.321895</ele>
        <time>2019-09-10T15:17:55.000Z</time>
      </trkpt>
      <trkpt lat="10.1573117261637" lon="-75.6818631668995">
        <ele>52.321895</ele>
        <time>2019-09-10T15:17:55.100Z</time>
      </trkpt>
      <trkpt lat="10.1573100177826" lon="-75.6818611251423">
        <ele>52.321895</ele>
        <time>2019-09-10T15:17:55.200Z</time>
      </trkpt>
      <trkpt lat="10.157308323784" lon="-75.6818590983201">
        <ele>52.321895</ele>
        <time>2019-09-10T15:17:55.300Z</time>
      </trkpt>
      <trkpt lat="10.1573066256166" lon="-75.6818570596961">
        <ele>52.321895</ele>
        <time>2019-09-10T15:17:55.400Z</time>
      </trkpt>
      <trkpt lat="10.1573049465214" lon="-75.6818550093746">
        <ele>52.321895</ele>
        <time>2019-09-10T15:17:55.500Z</time>
      </trkpt>
      <trkpt lat="10.1573032629448" lon="-75.681852938513">
        <ele>52.321895</ele>
        <time>2019-09-10T15:17:55.600Z</time>
      </trkpt>
      <trkpt lat="10.157301566966" lon="-75.6818508722469">
        <ele>52.321895</ele>
        <time>2019-09-10T15:17:55.700Z</time>
      </trkpt>
      <trkpt lat="10.1572998552499" lon="-75.6818487998883">
        <ele>52.321895</ele>
        <time>2019-09-10T15:17:55.800Z</time>
      </trkpt>
      <trkpt lat="10.1572981514545" lon="-75.6818467029512">
        <ele>52.321895</ele>
        <time>2019-09-10T15:17:55.900Z</time>
      </trkpt>
      <trkpt lat="10.1572964450537" lon="-75.6818445884332">
        <ele>52.321895</ele>
        <time>2019-09-10T15:17:56.000Z</time>
      </trkpt>
      <trkpt lat="10.1572947192678" lon="-75.6818424821312">
        <ele>52.321895</ele>
        <time>2019-09-10T15:17:56.100Z</time>
      </trkpt>
      <trkpt lat="10.1572929856654" lon="-75.6818403798676">
        <ele>52.321895</ele>
        <time>2019-09-10T15:17:56.200Z</time>
      </trkpt>
      <trkpt lat="10.1572912638399" lon="-75.6818382544529">
        <ele>52.321895</ele>
        <time>2019-09-10T15:17:56.300Z</time>
      </trkpt>
      <trkpt lat="10.1572895513943" lon="-75.6818361154956">
        <ele>52.321895</ele>
        <time>2019-09-10T15:17:56.400Z</time>
      </trkpt>
      <trkpt lat="10.1572878536437" lon="-75.6818339825959">
        <ele>52.321895</ele>
        <time>2019-09-10T15:17:56.500Z</time>
      </trkpt>
      <trkpt lat="10.1572861546425" lon="-75.6818318557886">
        <ele>52.321895</ele>
        <time>2019-09-10T15:17:56.600Z</time>
      </trkpt>
      <trkpt lat="10.1572844413631" lon="-75.6818297374411">
        <ele>52.321895</ele>
        <time>2019-09-10T15:17:56.700Z</time>
      </trkpt>
      <trkpt lat="10.1572827138055" lon="-75.6818276248378">
        <ele>52.321895</ele>
        <time>2019-09-10T15:17:56.800Z</time>
      </trkpt>
      <trkpt lat="10.1572810030273" lon="-75.6818255339583">
        <ele>52.321895</ele>
        <time>2019-09-10T15:17:56.900Z</time>
      </trkpt>
      <trkpt lat="10.1572792965222" lon="-75.681823445481">
        <ele>52.321895</ele>
        <time>2019-09-10T15:17:57.000Z</time>
      </trkpt>
      <trkpt lat="10.1572776018983" lon="-75.6818213732965">
        <ele>52.321895</ele>
        <time>2019-09-10T15:17:57.100Z</time>
      </trkpt>
      <trkpt lat="10.1572759012295" lon="-75.6818192999283">
        <ele>52.321895</ele>
        <time>2019-09-10T15:17:57.200Z</time>
      </trkpt>
      <trkpt lat="10.1572741736719" lon="-75.6818171723551">
        <ele>52.321895</ele>
        <time>2019-09-10T15:17:57.300Z</time>
      </trkpt>
      <trkpt lat="10.157272425166" lon="-75.6818150261218">
        <ele>52.321895</ele>
        <time>2019-09-10T15:17:57.400Z</time>
      </trkpt>
      <trkpt lat="10.1572707038616" lon="-75.6818129485412">
        <ele>52.321895</ele>
        <time>2019-09-10T15:17:57.500Z</time>
      </trkpt>
      <trkpt lat="10.1572689918328" lon="-75.6818108968968">
        <ele>52.321895</ele>
        <time>2019-09-10T15:17:57.600Z</time>
      </trkpt>
      <trkpt lat="10.1572656057115" lon="-75.6818067522492">
        <ele>52.321895</ele>
        <time>2019-09-10T15:17:57.800Z</time>
      </trkpt>
      <trkpt lat="10.1572639020204" lon="-75.6818046614742">
        <ele>52.321895</ele>
        <time>2019-09-10T15:17:57.900Z</time>
      </trkpt>
      <trkpt lat="10.1572621804034" lon="-75.6818025556596">
        <ele>52.321895</ele>
        <time>2019-09-10T15:17:58.000Z</time>
      </trkpt>
      <trkpt lat="10.157260476608" lon="-75.6818004524213">
        <ele>52.321895</ele>
        <time>2019-09-10T15:17:58.100Z</time>
      </trkpt>
      <trkpt lat="10.157258768748" lon="-75.6817983422898">
        <ele>52.321895</ele>
        <time>2019-09-10T15:17:58.200Z</time>
      </trkpt>
      <trkpt lat="10.1572570581784" lon="-75.6817962402699">
        <ele>52.321895</ele>
        <time>2019-09-10T15:17:58.300Z</time>
      </trkpt>
      <trkpt lat="10.1572553327052" lon="-75.6817941338286">
        <ele>52.321895</ele>
        <time>2019-09-10T15:17:58.400Z</time>
      </trkpt>
      <trkpt lat="10.1572536018125" lon="-75.6817920372745">
        <ele>52.321895</ele>
        <time>2019-09-10T15:17:58.500Z</time>
      </trkpt>
      <trkpt lat="10.1572518635202" lon="-75.6817899399197">
        <ele>52.321895</ele>
        <time>2019-09-10T15:17:58.600Z</time>
      </trkpt>
      <trkpt lat="10.157250117724" lon="-75.6817878567688">
        <ele>52.321895</ele>
        <time>2019-09-10T15:17:58.700Z</time>
      </trkpt>
      <trkpt lat="10.1572483724489" lon="-75.6817857653323">
        <ele>52.321895</ele>
        <time>2019-09-10T15:17:58.800Z</time>
      </trkpt>
      <trkpt lat="10.1572466306131" lon="-75.6817836734432">
        <ele>52.321895</ele>
        <time>2019-09-10T15:17:58.900Z</time>
      </trkpt>
      <trkpt lat="10.1572448870055" lon="-75.6817815726766">
        <ele>52.321895</ele>
        <time>2019-09-10T15:17:59.000Z</time>
      </trkpt>
      <trkpt lat="10.1572431787287" lon="-75.681779519779">
        <ele>52.321895</ele>
        <time>2019-09-10T15:17:59.100Z</time>
      </trkpt>
      <trkpt lat="10.1572414906706" lon="-75.6817774830349">
        <ele>52.321895</ele>
        <time>2019-09-10T15:17:59.200Z</time>
      </trkpt>
      <trkpt lat="10.1572397926074" lon="-75.6817754106415">
        <ele>52.321895</ele>
        <time>2019-09-10T15:17:59.300Z</time>
      </trkpt>
      <trkpt lat="10.1572380640076" lon="-75.6817732921547">
        <ele>52.321895</ele>
        <time>2019-09-10T15:17:59.400Z</time>
      </trkpt>
      <trkpt lat="10.1572345875272" lon="-75.6817690522567">
        <ele>52.321895</ele>
        <time>2019-09-10T15:17:59.600Z</time>
      </trkpt>
      <trkpt lat="10.1572328638257" lon="-75.6817669594625">
        <ele>52.321895</ele>
        <time>2019-09-10T15:17:59.700Z</time>
      </trkpt>
      <trkpt lat="10.1572311484619" lon="-75.6817648768687">
        <ele>52.321895</ele>
        <time>2019-09-10T15:17:59.800Z</time>
      </trkpt>
      <trkpt lat="10.1572294130877" lon="-75.6817627408009">
        <ele>52.321895</ele>
        <time>2019-09-10T15:17:59.900Z</time>
      </trkpt>
      <trkpt lat="10.1572276615594" lon="-75.6817605883707">
        <ele>52.321895</ele>
        <time>2019-09-10T15:18:00.000Z</time>
      </trkpt>
      <trkpt lat="10.1572241986277" lon="-75.6817563585688">
        <ele>52.321895</ele>
        <time>2019-09-10T15:18:00.200Z</time>
      </trkpt>
      <trkpt lat="10.1572224918099" lon="-75.6817542865932">
        <ele>52.321895</ele>
        <time>2019-09-10T15:18:00.300Z</time>
      </trkpt>
      <trkpt lat="10.1572207799896" lon="-75.6817522162538">
        <ele>52.321895</ele>
        <time>2019-09-10T15:18:00.400Z</time>
      </trkpt>
      <trkpt lat="10.1572190907851" lon="-75.6817501746706">
        <ele>52.321895</ele>
        <time>2019-09-10T15:18:00.500Z</time>
      </trkpt>
      <trkpt lat="10.157217393243" lon="-75.6817481270646">
        <ele>52.321895</ele>
        <time>2019-09-10T15:18:00.600Z</time>
      </trkpt>
      <trkpt lat="10.157215697681" lon="-75.6817461064741">
        <ele>52.321895</ele>
        <time>2019-09-10T15:18:00.700Z</time>
      </trkpt>
      <trkpt lat="10.1572122570524" lon="-75.6817420010617">
        <ele>52.321895</ele>
        <time>2019-09-10T15:18:00.900Z</time>
      </trkpt>
      <trkpt lat="10.1572105286611" lon="-75.6817398968833">
        <ele>52.321895</ele>
        <time>2019-09-10T15:18:01.000Z</time>
      </trkpt>
      <trkpt lat="10.1572087992275" lon="-75.6817378024528">
        <ele>52.321895</ele>
        <time>2019-09-10T15:18:01.100Z</time>
      </trkpt>
      <trkpt lat="10.1572070637491" lon="-75.6817357118519">
        <ele>52.321895</ele>
        <time>2019-09-10T15:18:01.200Z</time>
      </trkpt>
      <trkpt lat="10.1572053424447" lon="-75.6817336405029">
        <ele>52.321895</ele>
        <time>2019-09-10T15:18:01.300Z</time>
      </trkpt>
      <trkpt lat="10.1572036254134" lon="-75.6817315664036">
        <ele>52.321895</ele>
        <time>2019-09-10T15:18:01.400Z</time>
      </trkpt>
      <trkpt lat="10.1572019486111" lon="-75.6817295087017">
        <ele>52.321895</ele>
        <time>2019-09-10T15:18:01.500Z</time>
      </trkpt>
      <trkpt lat="10.157200273789" lon="-75.6817274403119">
        <ele>52.321895</ele>
        <time>2019-09-10T15:18:01.600Z</time>
      </trkpt>
      <trkpt lat="10.1571985742667" lon="-75.6817253191444">
        <ele>52.321895</ele>
        <time>2019-09-10T15:18:01.700Z</time>
      </trkpt>
      <trkpt lat="10.1571951067493" lon="-75.6817210111856">
        <ele>52.321895</ele>
        <time>2019-09-10T15:18:01.900Z</time>
      </trkpt>
      <trkpt lat="10.1571916724781" lon="-75.6817167421485">
        <ele>52.321895</ele>
        <time>2019-09-10T15:18:02.100Z</time>
      </trkpt>
      <trkpt lat="10.1571899647224" lon="-75.6817146209462">
        <ele>52.321895</ele>
        <time>2019-09-10T15:18:02.200Z</time>
      </trkpt>
      <trkpt lat="10.1571882347677" lon="-75.6817124652087">
        <ele>52.321895</ele>
        <time>2019-09-10T15:18:02.300Z</time>
      </trkpt>
      <trkpt lat="10.1571864827183" lon="-75.681710302961">
        <ele>52.321895</ele>
        <time>2019-09-10T15:18:02.400Z</time>
      </trkpt>
      <trkpt lat="10.1571847273338" lon="-75.681708133855">
        <ele>52.321895</ele>
        <time>2019-09-10T15:18:02.500Z</time>
      </trkpt>
      <trkpt lat="10.1571829753886" lon="-75.6817059834092">
        <ele>52.321895</ele>
        <time>2019-09-10T15:18:02.600Z</time>
      </trkpt>
      <trkpt lat="10.1571812536674" lon="-75.6817038802056">
        <ele>52.321895</ele>
        <time>2019-09-10T15:18:02.700Z</time>
      </trkpt>
      <trkpt lat="10.1571778321111" lon="-75.681699739875">
        <ele>52.321895</ele>
        <time>2019-09-10T15:18:02.900Z</time>
      </trkpt>
      <trkpt lat="10.1571761082012" lon="-75.6816976662284">
        <ele>52.321895</ele>
        <time>2019-09-10T15:18:03.000Z</time>
      </trkpt>
      <trkpt lat="10.157174384604" lon="-75.6816955920595">
        <ele>52.321895</ele>
        <time>2019-09-10T15:18:03.100Z</time>
      </trkpt>
      <trkpt lat="10.1571709120839" lon="-75.6816914395789">
        <ele>52.321895</ele>
        <time>2019-09-10T15:18:03.300Z</time>
      </trkpt>
      <trkpt lat="10.1571691729579" lon="-75.6816893710846">
        <ele>52.321895</ele>
        <time>2019-09-10T15:18:03.400Z</time>
      </trkpt>
      <trkpt lat="10.1571656884525" lon="-75.6816852117457">
        <ele>52.321895</ele>
        <time>2019-09-10T15:18:03.600Z</time>
      </trkpt>
      <trkpt lat="10.1571639467209" lon="-75.6816831228506">
        <ele>52.321895</ele>
        <time>2019-09-10T15:18:03.700Z</time>
      </trkpt>
      <trkpt lat="10.1571604681561" lon="-75.6816789355563">
        <ele>52.321895</ele>
        <time>2019-09-10T15:18:03.900Z</time>
      </trkpt>
      <trkpt lat="10.1571587234021" lon="-75.6816768411606">
        <ele>52.321895</ele>
        <time>2019-09-10T15:18:04.000Z</time>
      </trkpt>
      <trkpt lat="10.1571569543648" lon="-75.6816747429702">
        <ele>52.321895</ele>
        <time>2019-09-10T15:18:04.100Z</time>
      </trkpt>
      <trkpt lat="10.1571534002401" lon="-75.6816705464502">
        <ele>52.321895</ele>
        <time>2019-09-10T15:18:04.300Z</time>
      </trkpt>
      <trkpt lat="10.157151633183" lon="-75.6816684502094">
        <ele>52.321895</ele>
        <time>2019-09-10T15:18:04.400Z</time>
      </trkpt>
      <trkpt lat="10.157149857684" lon="-75.6816663487813">
        <ele>52.321895</ele>
        <time>2019-09-10T15:18:04.500Z</time>
      </trkpt>
      <trkpt lat="10.1571462982441" lon="-75.6816621505555">
        <ele>52.421895</ele>
        <time>2019-09-10T15:18:04.700Z</time>
      </trkpt>
      <trkpt lat="10.1571445171172" lon="-75.6816600537228">
        <ele>52.321895</ele>
        <time>2019-09-10T15:18:04.800Z</time>
      </trkpt>
      <trkpt lat="10.1571427449533" lon="-75.6816579526081">
        <ele>52.421895</ele>
        <time>2019-09-10T15:18:04.900Z</time>
      </trkpt>
      <trkpt lat="10.1571409876928" lon="-75.6816558545918">
        <ele>52.421895</ele>
        <time>2019-09-10T15:18:05.000Z</time>
      </trkpt>
      <trkpt lat="10.1571392008338" lon="-75.6816537246513">
        <ele>52.421895</ele>
        <time>2019-09-10T15:18:05.100Z</time>
      </trkpt>
      <trkpt lat="10.15713740793" lon="-75.6816515936663">
        <ele>52.421895</ele>
        <time>2019-09-10T15:18:05.200Z</time>
      </trkpt>
      <trkpt lat="10.157135649002" lon="-75.6816495118384">
        <ele>52.421895</ele>
        <time>2019-09-10T15:18:05.300Z</time>
      </trkpt>
      <trkpt lat="10.1571339147743" lon="-75.6816474551112">
        <ele>52.421895</ele>
        <time>2019-09-10T15:18:05.400Z</time>
      </trkpt>
      <trkpt lat="10.1571322197335" lon="-75.6816453984885">
        <ele>52.421895</ele>
        <time>2019-09-10T15:18:05.500Z</time>
      </trkpt>
      <trkpt lat="10.1571305257348" lon="-75.6816433252248">
        <ele>52.421895</ele>
        <time>2019-09-10T15:18:05.600Z</time>
      </trkpt>
      <trkpt lat="10.1571288341333" lon="-75.6816412720834">
        <ele>52.421895</ele>
        <time>2019-09-10T15:18:05.700Z</time>
      </trkpt>
      <trkpt lat="10.1571271205412" lon="-75.6816392177235">
        <ele>52.421895</ele>
        <time>2019-09-10T15:18:05.800Z</time>
      </trkpt>
      <trkpt lat="10.1571236679273" lon="-75.6816351291262">
        <ele>52.421895</ele>
        <time>2019-09-10T15:18:06.000Z</time>
      </trkpt>
      <trkpt lat="10.1571219538141" lon="-75.6816330678732">
        <ele>52.421895</ele>
        <time>2019-09-10T15:18:06.100Z</time>
      </trkpt>
      <trkpt lat="10.1571202393882" lon="-75.6816309899096">
        <ele>52.421895</ele>
        <time>2019-09-10T15:18:06.200Z</time>
      </trkpt>
      <trkpt lat="10.1571168459715" lon="-75.6816268530952">
        <ele>52.321895</ele>
        <time>2019-09-10T15:18:06.400Z</time>
      </trkpt>
      <trkpt lat="10.15711513832" lon="-75.6816248007893">
        <ele>52.321895</ele>
        <time>2019-09-10T15:18:06.500Z</time>
      </trkpt>
      <trkpt lat="10.157113409616" lon="-75.6816227439229">
        <ele>52.321895</ele>
        <time>2019-09-10T15:18:06.600Z</time>
      </trkpt>
      <trkpt lat="10.1571116758051" lon="-75.6816206710769">
        <ele>52.321895</ele>
        <time>2019-09-10T15:18:06.700Z</time>
      </trkpt>
      <trkpt lat="10.1571099307385" lon="-75.6816185824255">
        <ele>52.321895</ele>
        <time>2019-09-10T15:18:06.800Z</time>
      </trkpt>
      <trkpt lat="10.1571082088088" lon="-75.6816165004932">
        <ele>52.321895</ele>
        <time>2019-09-10T15:18:06.900Z</time>
      </trkpt>
      <trkpt lat="10.1571064866706" lon="-75.6816144181779">
        <ele>52.321895</ele>
        <time>2019-09-10T15:18:07.000Z</time>
      </trkpt>
      <trkpt lat="10.1571047640114" lon="-75.6816123279947">
        <ele>52.321895</ele>
        <time>2019-09-10T15:18:07.100Z</time>
      </trkpt>
      <trkpt lat="10.1571012789849" lon="-75.6816081191158">
        <ele>52.321895</ele>
        <time>2019-09-10T15:18:07.300Z</time>
      </trkpt>
      <trkpt lat="10.1570995252679" lon="-75.681606010168">
        <ele>52.321895</ele>
        <time>2019-09-10T15:18:07.400Z</time>
      </trkpt>
      <trkpt lat="10.1570977543546" lon="-75.6816039021601">
        <ele>52.321895</ele>
        <time>2019-09-10T15:18:07.500Z</time>
      </trkpt>
      <trkpt lat="10.1570959729151" lon="-75.6816017973551">
        <ele>52.321895</ele>
        <time>2019-09-10T15:18:07.600Z</time>
      </trkpt>
      <trkpt lat="10.1570941559363" lon="-75.6815996407821">
        <ele>52.321895</ele>
        <time>2019-09-10T15:18:07.700Z</time>
      </trkpt>
      <trkpt lat="10.1570923423969" lon="-75.6815974786736">
        <ele>52.321895</ele>
        <time>2019-09-10T15:18:07.800Z</time>
      </trkpt>
      <trkpt lat="10.1570905710667" lon="-75.6815953499864">
        <ele>52.321895</ele>
        <time>2019-09-10T15:18:07.900Z</time>
      </trkpt>
      <trkpt lat="10.157088821727" lon="-75.6815932466784">
        <ele>52.321895</ele>
        <time>2019-09-10T15:18:08.000Z</time>
      </trkpt>
      <trkpt lat="10.1570870722831" lon="-75.6815911490102">
        <ele>52.321895</ele>
        <time>2019-09-10T15:18:08.100Z</time>
      </trkpt>
      <trkpt lat="10.1570853109581" lon="-75.6815890468511">
        <ele>52.321895</ele>
        <time>2019-09-10T15:18:08.200Z</time>
      </trkpt>
      <trkpt lat="10.1570835407743" lon="-75.6815869245">
        <ele>52.321895</ele>
        <time>2019-09-10T15:18:08.300Z</time>
      </trkpt>
      <trkpt lat="10.15708176465" lon="-75.6815847930624">
        <ele>52.321895</ele>
        <time>2019-09-10T15:18:08.400Z</time>
      </trkpt>
      <trkpt lat="10.1570800018659" lon="-75.6815826673344">
        <ele>52.321895</ele>
        <time>2019-09-10T15:18:08.500Z</time>
      </trkpt>
      <trkpt lat="10.1570765262192" lon="-75.6815784639212">
        <ele>52.321895</ele>
        <time>2019-09-10T15:18:08.700Z</time>
      </trkpt>
      <trkpt lat="10.1570748131483" lon="-75.681576387298">
        <ele>52.321895</ele>
        <time>2019-09-10T15:18:08.800Z</time>
      </trkpt>
      <trkpt lat="10.1570730964296" lon="-75.6815743189778">
        <ele>52.321895</ele>
        <time>2019-09-10T15:18:08.900Z</time>
      </trkpt>
      <trkpt lat="10.1570713542811" lon="-75.6815722347478">
        <ele>52.321895</ele>
        <time>2019-09-10T15:18:09.000Z</time>
      </trkpt>
      <trkpt lat="10.1570695949363" lon="-75.6815701524847">
        <ele>52.321895</ele>
        <time>2019-09-10T15:18:09.100Z</time>
      </trkpt>
      <trkpt lat="10.1570678243356" lon="-75.6815680593075">
        <ele>52.321895</ele>
        <time>2019-09-10T15:18:09.200Z</time>
      </trkpt>
      <trkpt lat="10.1570642978294" lon="-75.6815638624916">
        <ele>52.321895</ele>
        <time>2019-09-10T15:18:09.400Z</time>
      </trkpt>
      <trkpt lat="10.1570625659988" lon="-75.681561807975">
        <ele>52.321895</ele>
        <time>2019-09-10T15:18:09.500Z</time>
      </trkpt>
      <trkpt lat="10.157059119117" lon="-75.6815577235553">
        <ele>52.321895</ele>
        <time>2019-09-10T15:18:09.700Z</time>
      </trkpt>
      <trkpt lat="10.1570573808246" lon="-75.6815556581421">
        <ele>52.321895</ele>
        <time>2019-09-10T15:18:09.800Z</time>
      </trkpt>
      <trkpt lat="10.1570556048045" lon="-75.681553567576">
        <ele>52.321895</ele>
        <time>2019-09-10T15:18:09.900Z</time>
      </trkpt>
      <trkpt lat="10.1570538117965" lon="-75.6815514541894">
        <ele>52.321895</ele>
        <time>2019-09-10T15:18:10.000Z</time>
      </trkpt>
      <trkpt lat="10.1570503112412" lon="-75.6815472784358">
        <ele>52.321895</ele>
        <time>2019-09-10T15:18:10.200Z</time>
      </trkpt>
      <trkpt lat="10.1570485682589" lon="-75.6815451710372">
        <ele>52.321895</ele>
        <time>2019-09-10T15:18:10.300Z</time>
      </trkpt>
      <trkpt lat="10.1570468158969" lon="-75.6815430477287">
        <ele>52.321895</ele>
        <time>2019-09-10T15:18:10.400Z</time>
      </trkpt>
      <trkpt lat="10.1570450946967" lon="-75.6815409442466">
        <ele>52.321895</ele>
        <time>2019-09-10T15:18:10.500Z</time>
      </trkpt>
      <trkpt lat="10.1570416803317" lon="-75.6815367487362">
        <ele>52.321895</ele>
        <time>2019-09-10T15:18:10.700Z</time>
      </trkpt>
      <trkpt lat="10.1570399676776" lon="-75.6815346327386">
        <ele>52.321895</ele>
        <time>2019-09-10T15:18:10.800Z</time>
      </trkpt>
      <trkpt lat="10.1570382800364" lon="-75.6815325429209">
        <ele>52.321895</ele>
        <time>2019-09-10T15:18:10.900Z</time>
      </trkpt>
      <trkpt lat="10.1570365849955" lon="-75.6815304706494">
        <ele>52.321895</ele>
        <time>2019-09-10T15:18:11.000Z</time>
      </trkpt>
      <trkpt lat="10.1570332170086" lon="-75.6815262763574">
        <ele>52.321895</ele>
        <time>2019-09-10T15:18:11.200Z</time>
      </trkpt>
      <trkpt lat="10.1570315190496" lon="-75.6815241674618">
        <ele>52.321895</ele>
        <time>2019-09-10T15:18:11.300Z</time>
      </trkpt>
      <trkpt lat="10.157029800976" lon="-75.6815220653201">
        <ele>52.321895</ele>
        <time>2019-09-10T15:18:11.400Z</time>
      </trkpt>
      <trkpt lat="10.1570280895726" lon="-75.6815200043282">
        <ele>52.321895</ele>
        <time>2019-09-10T15:18:11.500Z</time>
      </trkpt>
      <trkpt lat="10.1570263725412" lon="-75.6815179646946">
        <ele>52.321895</ele>
        <time>2019-09-10T15:18:11.600Z</time>
      </trkpt>
      <trkpt lat="10.1570229240961" lon="-75.6815137925442">
        <ele>52.321895</ele>
        <time>2019-09-10T15:18:11.800Z</time>
      </trkpt>
      <trkpt lat="10.1570211872629" lon="-75.6815116713245">
        <ele>52.321895</ele>
        <time>2019-09-10T15:18:11.900Z</time>
      </trkpt>
      <trkpt lat="10.1570194474072" lon="-75.6815095487123">
        <ele>52.321895</ele>
        <time>2019-09-10T15:18:12.000Z</time>
      </trkpt>
      <trkpt lat="10.1570177070305" lon="-75.6815074180059">
        <ele>52.321895</ele>
        <time>2019-09-10T15:18:12.100Z</time>
      </trkpt>
      <trkpt lat="10.1570159611301" lon="-75.6815052886224">
        <ele>52.321895</ele>
        <time>2019-09-10T15:18:12.200Z</time>
      </trkpt>
      <trkpt lat="10.1570142060583" lon="-75.6815031632947">
        <ele>52.321895</ele>
        <time>2019-09-10T15:18:12.300Z</time>
      </trkpt>
      <trkpt lat="10.1570124482768" lon="-75.6815010446512">
        <ele>52.321895</ele>
        <time>2019-09-10T15:18:12.400Z</time>
      </trkpt>
      <trkpt lat="10.1570106714229" lon="-75.6814989104112">
        <ele>52.321895</ele>
        <time>2019-09-10T15:18:12.500Z</time>
      </trkpt>
      <trkpt lat="10.1570071066678" lon="-75.6814946192326">
        <ele>52.321895</ele>
        <time>2019-09-10T15:18:12.700Z</time>
      </trkpt>
      <trkpt lat="10.1570053409655" lon="-75.6814924743047">
        <ele>52.321895</ele>
        <time>2019-09-10T15:18:12.800Z</time>
      </trkpt>
      <trkpt lat="10.1570035480617" lon="-75.6814902920043">
        <ele>52.321895</ele>
        <time>2019-09-10T15:18:12.900Z</time>
      </trkpt>
      <trkpt lat="10.1570017526566" lon="-75.6814881170844">
        <ele>52.321895</ele>
        <time>2019-09-10T15:18:13.000Z</time>
      </trkpt>
      <trkpt lat="10.1569982130186" lon="-75.6814838850892">
        <ele>52.321895</ele>
        <time>2019-09-10T15:18:13.200Z</time>
      </trkpt>
      <trkpt lat="10.1569964412715" lon="-75.6814818059768">
        <ele>52.321895</ele>
        <time>2019-09-10T15:18:13.300Z</time>
      </trkpt>
      <trkpt lat="10.1569946683781" lon="-75.6814797191531">
        <ele>52.321895</ele>
        <time>2019-09-10T15:18:13.400Z</time>
      </trkpt>
      <trkpt lat="10.1569929015293" lon="-75.6814776099267">
        <ele>52.321895</ele>
        <time>2019-09-10T15:18:13.500Z</time>
      </trkpt>
      <trkpt lat="10.1569893894056" lon="-75.6814733761734">
        <ele>52.321895</ele>
        <time>2019-09-10T15:18:13.700Z</time>
      </trkpt>
      <trkpt lat="10.1569876381899" lon="-75.6814712809074">
        <ele>52.321895</ele>
        <time>2019-09-10T15:18:13.800Z</time>
      </trkpt>
      <trkpt lat="10.1569858996892" lon="-75.6814691956677">
        <ele>52.321895</ele>
        <time>2019-09-10T15:18:13.900Z</time>
      </trkpt>
      <trkpt lat="10.1569841608757" lon="-75.6814671004888">
        <ele>52.321895</ele>
        <time>2019-09-10T15:18:14.000Z</time>
      </trkpt>
      <trkpt lat="10.1569824359236" lon="-75.6814649889473">
        <ele>52.321895</ele>
        <time>2019-09-10T15:18:14.100Z</time>
      </trkpt>
      <trkpt lat="10.1569789914389" lon="-75.6814607650115">
        <ele>52.321895</ele>
        <time>2019-09-10T15:18:14.300Z</time>
      </trkpt>
      <trkpt lat="10.156977265653" lon="-75.6814586756812">
        <ele>52.321895</ele>
        <time>2019-09-10T15:18:14.400Z</time>
      </trkpt>
      <trkpt lat="10.1569755639421" lon="-75.681456569884">
        <ele>52.321895</ele>
        <time>2019-09-10T15:18:14.500Z</time>
      </trkpt>
      <trkpt lat="10.1569738658788" lon="-75.6814544456704">
        <ele>52.321895</ele>
        <time>2019-09-10T15:18:14.600Z</time>
      </trkpt>
      <trkpt lat="10.1569721706296" lon="-75.6814523266265">
        <ele>52.321895</ele>
        <time>2019-09-10T15:18:14.700Z</time>
      </trkpt>
      <trkpt lat="10.1569704670426" lon="-75.6814502126655">
        <ele>52.321895</ele>
        <time>2019-09-10T15:18:14.800Z</time>
      </trkpt>
      <trkpt lat="10.1569670928025" lon="-75.6814459481717">
        <ele>52.421895</ele>
        <time>2019-09-10T15:18:15.000Z</time>
      </trkpt>
      <trkpt lat="10.1569654523731" lon="-75.6814438384057">
        <ele>52.421895</ele>
        <time>2019-09-10T15:18:15.100Z</time>
      </trkpt>
      <trkpt lat="10.1569638280979" lon="-75.6814417431049">
        <ele>52.421895</ele>
        <time>2019-09-10T15:18:15.200Z</time>
      </trkpt>
      <trkpt lat="10.15696222425" lon="-75.6814396550627">
        <ele>52.421895</ele>
        <time>2019-09-10T15:18:15.300Z</time>
      </trkpt>
      <trkpt lat="10.1569606083124" lon="-75.6814375406317">
        <ele>52.421895</ele>
        <time>2019-09-10T15:18:15.400Z</time>
      </trkpt>
      <trkpt lat="10.1569589847668" lon="-75.6814354016918">
        <ele>52.421895</ele>
        <time>2019-09-10T15:18:15.500Z</time>
      </trkpt>
      <trkpt lat="10.1569573368336" lon="-75.6814332404712">
        <ele>52.421895</ele>
        <time>2019-09-10T15:18:15.600Z</time>
      </trkpt>
      <trkpt lat="10.1569540424262" lon="-75.6814289568384">
        <ele>52.421895</ele>
        <time>2019-09-10T15:18:15.800Z</time>
      </trkpt>
      <trkpt lat="10.1569523808401" lon="-75.6814268224765">
        <ele>52.421895</ele>
        <time>2019-09-10T15:18:15.900Z</time>
      </trkpt>
      <trkpt lat="10.1569506996606" lon="-75.6814246861129">
        <ele>52.421895</ele>
        <time>2019-09-10T15:18:16.000Z</time>
      </trkpt>
      <trkpt lat="10.1569490386998" lon="-75.6814225583569">
        <ele>52.421895</ele>
        <time>2019-09-10T15:18:16.100Z</time>
      </trkpt>
      <trkpt lat="10.1569473748209" lon="-75.6814204266931">
        <ele>52.321895</ele>
        <time>2019-09-10T15:18:16.200Z</time>
      </trkpt>
      <trkpt lat="10.1569457168825" lon="-75.6814183221144">
        <ele>52.321895</ele>
        <time>2019-09-10T15:18:16.300Z</time>
      </trkpt>
      <trkpt lat="10.1569440450828" lon="-75.6814162264219">
        <ele>52.321895</ele>
        <time>2019-09-10T15:18:16.400Z</time>
      </trkpt>
      <trkpt lat="10.1569423678637" lon="-75.6814141399029">
        <ele>52.421895</ele>
        <time>2019-09-10T15:18:16.500Z</time>
      </trkpt>
      <trkpt lat="10.156940688977" lon="-75.6814120551419">
        <ele>52.421895</ele>
        <time>2019-09-10T15:18:16.600Z</time>
      </trkpt>
      <trkpt lat="10.1569390330188" lon="-75.6814099910603">
        <ele>52.321895</ele>
        <time>2019-09-10T15:18:16.700Z</time>
      </trkpt>
      <trkpt lat="10.1569373711201" lon="-75.6814079336629">
        <ele>52.421895</ele>
        <time>2019-09-10T15:18:16.800Z</time>
      </trkpt>
      <trkpt lat="10.1569357029681" lon="-75.6814059005569">
        <ele>52.421895</ele>
        <time>2019-09-10T15:18:16.900Z</time>
      </trkpt>
      <trkpt lat="10.1569340111581" lon="-75.6814038686171">
        <ele>52.421895</ele>
        <time>2019-09-10T15:18:17.000Z</time>
      </trkpt>
      <trkpt lat="10.1569323106978" lon="-75.6814018146054">
        <ele>52.421895</ele>
        <time>2019-09-10T15:18:17.100Z</time>
      </trkpt>
      <trkpt lat="10.1569306025252" lon="-75.6813997386784">
        <ele>52.421895</ele>
        <time>2019-09-10T15:18:17.200Z</time>
      </trkpt>
      <trkpt lat="10.1569288974792" lon="-75.681397661855">
        <ele>52.421895</ele>
        <time>2019-09-10T15:18:17.300Z</time>
      </trkpt>
      <trkpt lat="10.1569271889939" lon="-75.6813955927776">
        <ele>52.421895</ele>
        <time>2019-09-10T15:18:17.400Z</time>
      </trkpt>
      <trkpt lat="10.1569254717541" lon="-75.6813935160586">
        <ele>52.421895</ele>
        <time>2019-09-10T15:18:17.500Z</time>
      </trkpt>
      <trkpt lat="10.1569237509708" lon="-75.6813914486958">
        <ele>52.421895</ele>
        <time>2019-09-10T15:18:17.600Z</time>
      </trkpt>
      <trkpt lat="10.1569220418602" lon="-75.681389398061">
        <ele>52.421895</ele>
        <time>2019-09-10T15:18:17.700Z</time>
      </trkpt>
      <trkpt lat="10.1569203446307" lon="-75.681387359759">
        <ele>52.421895</ele>
        <time>2019-09-10T15:18:17.800Z</time>
      </trkpt>
      <trkpt lat="10.1569186634512" lon="-75.6813853225536">
        <ele>52.421895</ele>
        <time>2019-09-10T15:18:17.900Z</time>
      </trkpt>
      <trkpt lat="10.1569169719539" lon="-75.6813832830419">
        <ele>52.421895</ele>
        <time>2019-09-10T15:18:18.000Z</time>
      </trkpt>
      <trkpt lat="10.1569152684712" lon="-75.6813812169933">
        <ele>52.421895</ele>
        <time>2019-09-10T15:18:18.100Z</time>
      </trkpt>
      <trkpt lat="10.1569135565466" lon="-75.6813791479768">
        <ele>52.421895</ele>
        <time>2019-09-10T15:18:18.200Z</time>
      </trkpt>
      <trkpt lat="10.1569118523344" lon="-75.6813771043135">
        <ele>52.421895</ele>
        <time>2019-09-10T15:18:18.300Z</time>
      </trkpt>
      <trkpt lat="10.1569101493728" lon="-75.6813750804853">
        <ele>52.421895</ele>
        <time>2019-09-10T15:18:18.400Z</time>
      </trkpt>
      <trkpt lat="10.1569084534982" lon="-75.6813730749953">
        <ele>52.421895</ele>
        <time>2019-09-10T15:18:18.500Z</time>
      </trkpt>
      <trkpt lat="10.1569067514746" lon="-75.6813710706889">
        <ele>52.421895</ele>
        <time>2019-09-10T15:18:18.600Z</time>
      </trkpt>
      <trkpt lat="10.1569050200608" lon="-75.6813690565302">
        <ele>52.421895</ele>
        <time>2019-09-10T15:18:18.700Z</time>
      </trkpt>
      <trkpt lat="10.1569014914702" lon="-75.681365022547">
        <ele>52.421895</ele>
        <time>2019-09-10T15:18:18.900Z</time>
      </trkpt>
      <trkpt lat="10.1568997126361" lon="-75.6813630091542">
        <ele>52.421895</ele>
        <time>2019-09-10T15:18:19.000Z</time>
      </trkpt>
      <trkpt lat="10.1568979407848" lon="-75.6813609782501">
        <ele>52.421895</ele>
        <time>2019-09-10T15:18:19.100Z</time>
      </trkpt>
      <trkpt lat="10.1568961680998" lon="-75.6813589389777">
        <ele>52.421895</ele>
        <time>2019-09-10T15:18:19.200Z</time>
      </trkpt>
      <trkpt lat="10.156894371444" lon="-75.6813569144489">
        <ele>52.421895</ele>
        <time>2019-09-10T15:18:19.300Z</time>
      </trkpt>
      <trkpt lat="10.1568925656169" lon="-75.6813548977183">
        <ele>52.421895</ele>
        <time>2019-09-10T15:18:19.400Z</time>
      </trkpt>
      <trkpt lat="10.1568907749017" lon="-75.6813528660483">
        <ele>52.421895</ele>
        <time>2019-09-10T15:18:19.500Z</time>
      </trkpt>
      <trkpt lat="10.1568889971098" lon="-75.6813508170542">
        <ele>52.421895</ele>
        <time>2019-09-10T15:18:19.600Z</time>
      </trkpt>
      <trkpt lat="10.1568871998288" lon="-75.6813487479115">
        <ele>52.421895</ele>
        <time>2019-09-10T15:18:19.700Z</time>
      </trkpt>
      <trkpt lat="10.1568853905624" lon="-75.6813466703613">
        <ele>52.421895</ele>
        <time>2019-09-10T15:18:19.800Z</time>
      </trkpt>
      <trkpt lat="10.156883578482" lon="-75.6813445783417">
        <ele>52.421895</ele>
        <time>2019-09-10T15:18:19.900Z</time>
      </trkpt>
      <trkpt lat="10.1568817726548" lon="-75.6813424775403">
        <ele>52.421895</ele>
        <time>2019-09-10T15:18:20.000Z</time>
      </trkpt>
      <trkpt lat="10.1568799935081" lon="-75.6813403474083">
        <ele>52.421895</ele>
        <time>2019-09-10T15:18:20.100Z</time>
      </trkpt>
      <trkpt lat="10.1568782261383" lon="-75.6813382060184">
        <ele>52.421895</ele>
        <time>2019-09-10T15:18:20.200Z</time>
      </trkpt>
      <trkpt lat="10.1568764619993" lon="-75.6813360613821">
        <ele>52.421895</ele>
        <time>2019-09-10T15:18:20.300Z</time>
      </trkpt>
      <trkpt lat="10.1568746801429" lon="-75.6813339246311">
        <ele>52.421895</ele>
        <time>2019-09-10T15:18:20.400Z</time>
      </trkpt>
      <trkpt lat="10.1568728950556" lon="-75.6813317978935">
        <ele>52.421895</ele>
        <time>2019-09-10T15:18:20.500Z</time>
      </trkpt>
      <trkpt lat="10.1568711124696" lon="-75.6813296751812">
        <ele>52.421895</ele>
        <time>2019-09-10T15:18:20.600Z</time>
      </trkpt>
      <trkpt lat="10.1568693355115" lon="-75.6813275388741">
        <ele>52.421895</ele>
        <time>2019-09-10T15:18:20.700Z</time>
      </trkpt>
      <trkpt lat="10.1568657769054" lon="-75.6813232550259">
        <ele>52.321895</ele>
        <time>2019-09-10T15:18:20.900Z</time>
      </trkpt>
      <trkpt lat="10.1568640091187" lon="-75.6813211223786">
        <ele>52.321895</ele>
        <time>2019-09-10T15:18:21.000Z</time>
      </trkpt>
      <trkpt lat="10.1568622497739" lon="-75.6813190053214">
        <ele>52.321895</ele>
        <time>2019-09-10T15:18:21.100Z</time>
      </trkpt>
      <trkpt lat="10.1568604840716" lon="-75.6813168812883">
        <ele>52.321895</ele>
        <time>2019-09-10T15:18:21.200Z</time>
      </trkpt>
      <trkpt lat="10.1568587416105" lon="-75.6813147748884">
        <ele>52.321895</ele>
        <time>2019-09-10T15:18:21.300Z</time>
      </trkpt>
      <trkpt lat="10.1568570021717" lon="-75.6813126643914">
        <ele>52.321895</ele>
        <time>2019-09-10T15:18:21.400Z</time>
      </trkpt>
      <trkpt lat="10.1568535622727" lon="-75.6813084415174">
        <ele>52.321895</ele>
        <time>2019-09-10T15:18:21.600Z</time>
      </trkpt>
      <trkpt lat="10.1568518528494" lon="-75.6813063487819">
        <ele>52.321895</ele>
        <time>2019-09-10T15:18:21.700Z</time>
      </trkpt>
      <trkpt lat="10.1568501323788" lon="-75.6813042553283">
        <ele>52.321895</ele>
        <time>2019-09-10T15:18:21.800Z</time>
      </trkpt>
      <trkpt lat="10.1568483726171" lon="-75.6813021303695">
        <ele>52.321895</ele>
        <time>2019-09-10T15:18:21.900Z</time>
      </trkpt>
      <trkpt lat="10.156846580547" lon="-75.6812999858148">
        <ele>52.321895</ele>
        <time>2019-09-10T15:18:22.000Z</time>
      </trkpt>
      <trkpt lat="10.1568447869137" lon="-75.6812978527062">
        <ele>52.321895</ele>
        <time>2019-09-10T15:18:22.100Z</time>
      </trkpt>
      <trkpt lat="10.1568430100598" lon="-75.6812957342455">
        <ele>52.321895</ele>
        <time>2019-09-10T15:18:22.200Z</time>
      </trkpt>
      <trkpt lat="10.1568412448786" lon="-75.6812936258596">
        <ele>52.321895</ele>
        <time>2019-09-10T15:18:22.300Z</time>
      </trkpt>
      <trkpt lat="10.1568394873055" lon="-75.6812915247938">
        <ele>52.321895</ele>
        <time>2019-09-10T15:18:22.400Z</time>
      </trkpt>
      <trkpt lat="10.1568377238961" lon="-75.6812894092085">
        <ele>52.321895</ele>
        <time>2019-09-10T15:18:22.500Z</time>
      </trkpt>
      <trkpt lat="10.1568359522533" lon="-75.6812872873255">
        <ele>52.321895</ele>
        <time>2019-09-10T15:18:22.600Z</time>
      </trkpt>
      <trkpt lat="10.1568341939506" lon="-75.6812851718775">
        <ele>52.321895</ele>
        <time>2019-09-10T15:18:22.700Z</time>
      </trkpt>
      <trkpt lat="10.1568324398168" lon="-75.681283068717">
        <ele>52.321895</ele>
        <time>2019-09-10T15:18:22.800Z</time>
      </trkpt>
      <trkpt lat="10.1568288937172" lon="-75.6812789375543">
        <ele>52.321895</ele>
        <time>2019-09-10T15:18:23.000Z</time>
      </trkpt>
      <trkpt lat="10.1568271260347" lon="-75.6812768642999">
        <ele>52.321895</ele>
        <time>2019-09-10T15:18:23.100Z</time>
      </trkpt>
      <trkpt lat="10.1568253740895" lon="-75.6812747904813">
        <ele>52.321895</ele>
        <time>2019-09-10T15:18:23.200Z</time>
      </trkpt>
      <trkpt lat="10.1568236861356" lon="-75.6812727496596">
        <ele>52.321895</ele>
        <time>2019-09-10T15:18:23.300Z</time>
      </trkpt>
      <trkpt lat="10.1568221247054" lon="-75.6812707226645">
        <ele>52.321895</ele>
        <time>2019-09-10T15:18:23.400Z</time>
      </trkpt>
      <trkpt lat="10.15682079256" lon="-75.6812687452061">
        <ele>52.321895</ele>
        <time>2019-09-10T15:18:23.500Z</time>
      </trkpt>
      <trkpt lat="10.1568196925135" lon="-75.681266785383">
        <ele>52.321895</ele>
        <time>2019-09-10T15:18:23.600Z</time>
      </trkpt>
      <trkpt lat="10.1568189033565" lon="-75.6812648627192">
        <ele>52.321895</ele>
        <time>2019-09-10T15:18:23.700Z</time>
      </trkpt>
      <trkpt lat="10.156818365475" lon="-75.6812629480582">
        <ele>52.321895</ele>
        <time>2019-09-10T15:18:23.800Z</time>
      </trkpt>
      <trkpt lat="10.1568181557835" lon="-75.6812611019499">
        <ele>52.321895</ele>
        <time>2019-09-10T15:18:23.900Z</time>
      </trkpt>
      <trkpt lat="10.1568182071642" lon="-75.6812592776416">
        <ele>52.321895</ele>
        <time>2019-09-10T15:18:24.000Z</time>
      </trkpt>
      <trkpt lat="10.1568186084128" lon="-75.6812575549372">
        <ele>52.321895</ele>
        <time>2019-09-10T15:18:24.100Z</time>
      </trkpt>
      <trkpt lat="10.1568192899101" lon="-75.6812558446569">
        <ele>52.321895</ele>
        <time>2019-09-10T15:18:24.200Z</time>
      </trkpt>
      <trkpt lat="10.1568203412856" lon="-75.6812542568906">
        <ele>52.321895</ele>
        <time>2019-09-10T15:18:24.300Z</time>
      </trkpt>
      <trkpt lat="10.1568216877092" lon="-75.6812526611825">
        <ele>52.321895</ele>
        <time>2019-09-10T15:18:24.400Z</time>
      </trkpt>
      <trkpt lat="10.1568233598215" lon="-75.6812512042528">
        <ele>52.321895</ele>
        <time>2019-09-10T15:18:24.500Z</time>
      </trkpt>
      <trkpt lat="10.156825256112" lon="-75.6812497495947">
        <ele>52.321895</ele>
        <time>2019-09-10T15:18:24.600Z</time>
      </trkpt>
      <trkpt lat="10.1568273438554" lon="-75.6812484565552">
        <ele>52.321895</ele>
        <time>2019-09-10T15:18:24.700Z</time>
      </trkpt>
      <trkpt lat="10.1568295566632" lon="-75.6812471275008">
        <ele>52.321895</ele>
        <time>2019-09-10T15:18:24.800Z</time>
      </trkpt>
      <trkpt lat="10.1568318419043" lon="-75.6812459157775">
        <ele>52.321895</ele>
        <time>2019-09-10T15:18:24.900Z</time>
      </trkpt>
      <trkpt lat="10.1568341906156" lon="-75.681244608225">
        <ele>52.321895</ele>
        <time>2019-09-10T15:18:25.000Z</time>
      </trkpt>
      <trkpt lat="10.1568364730427" lon="-75.6812433784203">
        <ele>52.321895</ele>
        <time>2019-09-10T15:18:25.100Z</time>
      </trkpt>
      <trkpt lat="10.1568387689142" lon="-75.6812420755284">
        <ele>52.421895</ele>
        <time>2019-09-10T15:18:25.200Z</time>
      </trkpt>
      <trkpt lat="10.1568410117376" lon="-75.6812408134601">
        <ele>52.421895</ele>
        <time>2019-09-10T15:18:25.300Z</time>
      </trkpt>
      <trkpt lat="10.156843315113" lon="-75.6812394405056">
        <ele>52.421895</ele>
        <time>2019-09-10T15:18:25.400Z</time>
      </trkpt>
      <trkpt lat="10.1568455569983" lon="-75.6812380661542">
        <ele>52.421895</ele>
        <time>2019-09-10T15:18:25.500Z</time>
      </trkpt>
      <trkpt lat="10.1568478394254" lon="-75.681236588123">
        <ele>52.421895</ele>
        <time>2019-09-10T15:18:25.600Z</time>
      </trkpt>
      <trkpt lat="10.1568500485856" lon="-75.6812350790684">
        <ele>52.421895</ele>
        <time>2019-09-10T15:18:25.700Z</time>
      </trkpt>
      <trkpt lat="10.1568522937018" lon="-75.6812334818872">
        <ele>52.421895</ele>
        <time>2019-09-10T15:18:25.800Z</time>
      </trkpt>
      <trkpt lat="10.1568545261031" lon="-75.6812318234947">
        <ele>52.421895</ele>
        <time>2019-09-10T15:18:25.900Z</time>
      </trkpt>
      <trkpt lat="10.1568568100935" lon="-75.6812301019456">
        <ele>52.421895</ele>
        <time>2019-09-10T15:18:26.000Z</time>
      </trkpt>
      <trkpt lat="10.1568590509367" lon="-75.68122835161">
        <ele>52.421895</ele>
        <time>2019-09-10T15:18:26.100Z</time>
      </trkpt>
      <trkpt lat="10.1568612926136" lon="-75.6812265790849">
        <ele>52.321895</ele>
        <time>2019-09-10T15:18:26.200Z</time>
      </trkpt>
      <trkpt lat="10.1568635499236" lon="-75.6812247867508">
        <ele>52.321895</ele>
        <time>2019-09-10T15:18:26.300Z</time>
      </trkpt>
      <trkpt lat="10.1568658295367" lon="-75.6812229878369">
        <ele>52.321895</ele>
        <time>2019-09-10T15:18:26.400Z</time>
      </trkpt>
      <trkpt lat="10.1568681220732" lon="-75.6812211764031">
        <ele>52.321895</ele>
        <time>2019-09-10T15:18:26.500Z</time>
      </trkpt>
      <trkpt lat="10.1568704131506" lon="-75.6812193489158">
        <ele>52.321895</ele>
        <time>2019-09-10T15:18:26.600Z</time>
      </trkpt>
      <trkpt lat="10.1568750228196" lon="-75.6812155939822">
        <ele>52.321895</ele>
        <time>2019-09-10T15:18:26.800Z</time>
      </trkpt>
      <trkpt lat="10.1568773244233" lon="-75.681213676175">
        <ele>52.321895</ele>
        <time>2019-09-10T15:18:26.900Z</time>
      </trkpt>
      <trkpt lat="10.1568795973663" lon="-75.6812117555522">
        <ele>52.321895</ele>
        <time>2019-09-10T15:18:27.000Z</time>
      </trkpt>
      <trkpt lat="10.1568818917788" lon="-75.6812098012644">
        <ele>52.321895</ele>
        <time>2019-09-10T15:18:27.100Z</time>
      </trkpt>
      <trkpt lat="10.1568841738932" lon="-75.6812078339564">
        <ele>52.321895</ele>
        <time>2019-09-10T15:18:27.200Z</time>
      </trkpt>
      <trkpt lat="10.1568864653875" lon="-75.6812057986397">
        <ele>52.321895</ele>
        <time>2019-09-10T15:18:27.300Z</time>
      </trkpt>
      <trkpt lat="10.1568887218637" lon="-75.6812037532705">
        <ele>52.321895</ele>
        <time>2019-09-10T15:18:27.400Z</time>
      </trkpt>
      <trkpt lat="10.1568909637491" lon="-75.6812016762381">
        <ele>52.321895</ele>
        <time>2019-09-10T15:18:27.500Z</time>
      </trkpt>
      <trkpt lat="10.1568931699911" lon="-75.6811996260298">
        <ele>52.321895</ele>
        <time>2019-09-10T15:18:27.600Z</time>
      </trkpt>
      <trkpt lat="10.1568953699798" lon="-75.6811975485798">
        <ele>52.221895</ele>
        <time>2019-09-10T15:18:27.700Z</time>
      </trkpt>
      <trkpt lat="10.1568975466232" lon="-75.6811954937586">
        <ele>52.221895</ele>
        <time>2019-09-10T15:18:27.800Z</time>
      </trkpt>
      <trkpt lat="10.1568997115939" lon="-75.6811934218787">
        <ele>52.221895</ele>
        <time>2019-09-10T15:18:27.900Z</time>
      </trkpt>
      <trkpt lat="10.1569018504053" lon="-75.6811913731239">
        <ele>52.221895</ele>
        <time>2019-09-10T15:18:28.000Z</time>
      </trkpt>
      <trkpt lat="10.1569039636827" lon="-75.6811893119318">
        <ele>52.221895</ele>
        <time>2019-09-10T15:18:28.100Z</time>
      </trkpt>
      <trkpt lat="10.1569060630987" lon="-75.6811872727682">
        <ele>52.221895</ele>
        <time>2019-09-10T15:18:28.200Z</time>
      </trkpt>
      <trkpt lat="10.1569081212435" lon="-75.6811852466771">
        <ele>52.221895</ele>
        <time>2019-09-10T15:18:28.300Z</time>
      </trkpt>
      <trkpt lat="10.156910115918" lon="-75.6811833523822">
        <ele>52.221895</ele>
        <time>2019-09-10T15:18:28.400Z</time>
      </trkpt>
      <trkpt lat="10.1569120690086" lon="-75.6811816136961">
        <ele>52.321895</ele>
        <time>2019-09-10T15:18:28.500Z</time>
      </trkpt>
      <trkpt lat="10.1569139757211" lon="-75.6811800990104">
        <ele>52.321895</ele>
        <time>2019-09-10T15:18:28.600Z</time>
      </trkpt>
      <trkpt lat="10.1569157768583" lon="-75.6811788594231">
        <ele>52.321895</ele>
        <time>2019-09-10T15:18:28.700Z</time>
      </trkpt>
      <trkpt lat="10.1569175186942" lon="-75.6811779047689">
        <ele>52.321895</ele>
        <time>2019-09-10T15:18:28.800Z</time>
      </trkpt>
      <trkpt lat="10.1569191843448" lon="-75.6811772349783">
        <ele>52.321895</ele>
        <time>2019-09-10T15:18:28.900Z</time>
      </trkpt>
      <trkpt lat="10.1569208409284" lon="-75.6811768401816">
        <ele>52.321895</ele>
        <time>2019-09-10T15:18:29.000Z</time>
      </trkpt>
      <trkpt lat="10.1569223981898" lon="-75.6811767492393">
        <ele>52.321895</ele>
        <time>2019-09-10T15:18:29.100Z</time>
      </trkpt>
      <trkpt lat="10.1569239478432" lon="-75.6811769604196">
        <ele>52.321895</ele>
        <time>2019-09-10T15:18:29.200Z</time>
      </trkpt>
      <trkpt lat="10.1569253969238" lon="-75.6811774767424">
        <ele>52.321895</ele>
        <time>2019-09-10T15:18:29.300Z</time>
      </trkpt>
      <trkpt lat="10.1569268588236" lon="-75.681178287903">
        <ele>52.321895</ele>
        <time>2019-09-10T15:18:29.400Z</time>
      </trkpt>
      <trkpt lat="10.156928237347" lon="-75.6811793860943">
        <ele>52.321895</ele>
        <time>2019-09-10T15:18:29.500Z</time>
      </trkpt>
      <trkpt lat="10.1569296406749" lon="-75.68118077693">
        <ele>52.321895</ele>
        <time>2019-09-10T15:18:29.600Z</time>
      </trkpt>
      <trkpt lat="10.156930907891" lon="-75.6811824221412">
        <ele>52.321895</ele>
        <time>2019-09-10T15:18:29.700Z</time>
      </trkpt>
      <trkpt lat="10.1569321889683" lon="-75.6811842966967">
        <ele>52.321895</ele>
        <time>2019-09-10T15:18:29.800Z</time>
      </trkpt>
      <trkpt lat="10.1569333601974" lon="-75.6811862948236">
        <ele>52.321895</ele>
        <time>2019-09-10T15:18:29.900Z</time>
      </trkpt>
      <trkpt lat="10.1569345832239" lon="-75.6811884497256">
        <ele>52.421895</ele>
        <time>2019-09-10T15:18:30.000Z</time>
      </trkpt>
      <trkpt lat="10.1569357145366" lon="-75.6811906137749">
        <ele>52.421895</ele>
        <time>2019-09-10T15:18:30.100Z</time>
      </trkpt>
      <trkpt lat="10.1569369179697" lon="-75.6811928702025">
        <ele>52.421895</ele>
        <time>2019-09-10T15:18:30.200Z</time>
      </trkpt>
      <trkpt lat="10.1569380786725" lon="-75.681195085489">
        <ele>52.421895</ele>
        <time>2019-09-10T15:18:30.300Z</time>
      </trkpt>
      <trkpt lat="10.1569393323398" lon="-75.6811973829272">
        <ele>52.421895</ele>
        <time>2019-09-10T15:18:30.400Z</time>
      </trkpt>
      <trkpt lat="10.156940586841" lon="-75.6811996147415">
        <ele>52.421895</ele>
        <time>2019-09-10T15:18:30.500Z</time>
      </trkpt>
      <trkpt lat="10.1569419373291" lon="-75.6812019215707">
        <ele>52.421895</ele>
        <time>2019-09-10T15:18:30.600Z</time>
      </trkpt>
      <trkpt lat="10.1569433038672" lon="-75.6812041736031">
        <ele>52.421895</ele>
        <time>2019-09-10T15:18:30.700Z</time>
      </trkpt>
      <trkpt lat="10.1569447523226" lon="-75.6812064987008">
        <ele>52.421895</ele>
        <time>2019-09-10T15:18:30.800Z</time>
      </trkpt>
      <trkpt lat="10.1569478323485" lon="-75.6812111255276">
        <ele>52.321895</ele>
        <time>2019-09-10T15:18:31.000Z</time>
      </trkpt>
      <trkpt lat="10.1569494710061" lon="-75.6812134773014">
        <ele>52.321895</ele>
        <time>2019-09-10T15:18:31.100Z</time>
      </trkpt>
      <trkpt lat="10.156951152811" lon="-75.6812158925406">
        <ele>52.321895</ele>
        <time>2019-09-10T15:18:31.200Z</time>
      </trkpt>
      <trkpt lat="10.1569528652566" lon="-75.6812182592887">
        <ele>52.321895</ele>
        <time>2019-09-10T15:18:31.300Z</time>
      </trkpt>
      <trkpt lat="10.1569545968788" lon="-75.6812206343268">
        <ele>52.321895</ele>
        <time>2019-09-10T15:18:31.400Z</time>
      </trkpt>
      <trkpt lat="10.15695633934" lon="-75.6812229830761">
        <ele>52.321895</ele>
        <time>2019-09-10T15:18:31.500Z</time>
      </trkpt>
      <trkpt lat="10.1569580962877" lon="-75.681225359955">
        <ele>52.421895</ele>
        <time>2019-09-10T15:18:31.600Z</time>
      </trkpt>
      <trkpt lat="10.1569598994051" lon="-75.6812277166897">
        <ele>52.421895</ele>
        <time>2019-09-10T15:18:31.700Z</time>
      </trkpt>
      <trkpt lat="10.1569617341013" lon="-75.6812301026637">
        <ele>52.421895</ele>
        <time>2019-09-10T15:18:31.800Z</time>
      </trkpt>
      <trkpt lat="10.1569636590524" lon="-75.6812325208969">
        <ele>52.421895</ele>
        <time>2019-09-10T15:18:31.900Z</time>
      </trkpt>
      <trkpt lat="10.1569656009914" lon="-75.6812349749144">
        <ele>52.421895</ele>
        <time>2019-09-10T15:18:32.000Z</time>
      </trkpt>
      <trkpt lat="10.1569675859735" lon="-75.6812374626011">
        <ele>52.421895</ele>
        <time>2019-09-10T15:18:32.100Z</time>
      </trkpt>
      <trkpt lat="10.1569695447962" lon="-75.6812399506664">
        <ele>52.421895</ele>
        <time>2019-09-10T15:18:32.200Z</time>
      </trkpt>
      <trkpt lat="10.1569715394707" lon="-75.6812424362773">
        <ele>52.421895</ele>
        <time>2019-09-10T15:18:32.300Z</time>
      </trkpt>
      <trkpt lat="10.1569735018369" lon="-75.681244894368">
        <ele>52.421895</ele>
        <time>2019-09-10T15:18:32.400Z</time>
      </trkpt>
      <trkpt lat="10.1569754801489" lon="-75.6812473410876">
        <ele>52.421895</ele>
        <time>2019-09-10T15:18:32.500Z</time>
      </trkpt>
      <trkpt lat="10.1569774303213" lon="-75.6812497571841">
        <ele>52.421895</ele>
        <time>2019-09-10T15:18:32.600Z</time>
      </trkpt>
      <trkpt lat="10.1569793930002" lon="-75.6812521350378">
        <ele>52.421895</ele>
        <time>2019-09-10T15:18:32.700Z</time>
      </trkpt>
      <trkpt lat="10.1569813288944" lon="-75.6812544865156">
        <ele>52.421895</ele>
        <time>2019-09-10T15:18:32.800Z</time>
      </trkpt>
      <trkpt lat="10.1569832722925" lon="-75.681256819577">
        <ele>52.421895</ele>
        <time>2019-09-10T15:18:32.900Z</time>
      </trkpt>
      <trkpt lat="10.1569851943254" lon="-75.6812591431887">
        <ele>52.421895</ele>
        <time>2019-09-10T15:18:33.000Z</time>
      </trkpt>
      <trkpt lat="10.1569890765359" lon="-75.6812636956467">
        <ele>52.321895</ele>
        <time>2019-09-10T15:18:33.200Z</time>
      </trkpt>
      <trkpt lat="10.1569910187875" lon="-75.6812659469175">
        <ele>52.321895</ele>
        <time>2019-09-10T15:18:33.300Z</time>
      </trkpt>
      <trkpt lat="10.156992916016" lon="-75.6812682025684">
        <ele>52.321895</ele>
        <time>2019-09-10T15:18:33.400Z</time>
      </trkpt>
      <trkpt lat="10.1569948181428" lon="-75.681270428683">
        <ele>52.321895</ele>
        <time>2019-09-10T15:18:33.500Z</time>
      </trkpt>
      <trkpt lat="10.1569966856684" lon="-75.6812726500749">
        <ele>52.321895</ele>
        <time>2019-09-10T15:18:33.600Z</time>
      </trkpt>
      <trkpt lat="10.1569985899839" lon="-75.6812748753964">
        <ele>52.321895</ele>
        <time>2019-09-10T15:18:33.700Z</time>
      </trkpt>
      <trkpt lat="10.1570004707455" lon="-75.6812771131345">
        <ele>52.321895</ele>
        <time>2019-09-10T15:18:33.800Z</time>
      </trkpt>
      <trkpt lat="10.1570023331643" lon="-75.6812792921896">
        <ele>52.321895</ele>
        <time>2019-09-10T15:18:33.900Z</time>
      </trkpt>
      <trkpt lat="10.1570041481629" lon="-75.6812814523593">
        <ele>52.321895</ele>
        <time>2019-09-10T15:18:34.000Z</time>
      </trkpt>
      <trkpt lat="10.157005972437" lon="-75.6812835719648">
        <ele>52.321895</ele>
        <time>2019-09-10T15:18:34.100Z</time>
      </trkpt>
      <trkpt lat="10.157007772532" lon="-75.6812857080723">
        <ele>52.321895</ele>
        <time>2019-09-10T15:18:34.200Z</time>
      </trkpt>
      <trkpt lat="10.1570095690836" lon="-75.6812878406379">
        <ele>52.321895</ele>
        <time>2019-09-10T15:18:34.300Z</time>
      </trkpt>
      <trkpt lat="10.1570113268651" lon="-75.6812899942516">
        <ele>52.321895</ele>
        <time>2019-09-10T15:18:34.400Z</time>
      </trkpt>
      <trkpt lat="10.1570130827707" lon="-75.6812921272698">
        <ele>52.321895</ele>
        <time>2019-09-10T15:18:34.500Z</time>
      </trkpt>
      <trkpt lat="10.1570148104325" lon="-75.6812942626903">
        <ele>52.321895</ele>
        <time>2019-09-10T15:18:34.600Z</time>
      </trkpt>
      <trkpt lat="10.1570182614831" lon="-75.6812984911807">
        <ele>52.321895</ele>
        <time>2019-09-10T15:18:34.800Z</time>
      </trkpt>
      <trkpt lat="10.1570199953982" lon="-75.6813005680542">
        <ele>52.321895</ele>
        <time>2019-09-10T15:18:34.900Z</time>
      </trkpt>
      <trkpt lat="10.1570217196207" lon="-75.6813026422438">
        <ele>52.321895</ele>
        <time>2019-09-10T15:18:35.000Z</time>
      </trkpt>
      <trkpt lat="10.1570234671887" lon="-75.681304693985">
        <ele>52.321895</ele>
        <time>2019-09-10T15:18:35.100Z</time>
      </trkpt>
      <trkpt lat="10.1570251935999" lon="-75.6813067522429">
        <ele>52.321895</ele>
        <time>2019-09-10T15:18:35.200Z</time>
      </trkpt>
      <trkpt lat="10.1570269355399" lon="-75.6813088024773">
        <ele>52.321895</ele>
        <time>2019-09-10T15:18:35.300Z</time>
      </trkpt>
      <trkpt lat="10.1570286703929" lon="-75.6813108647312">
        <ele>52.321895</ele>
        <time>2019-09-10T15:18:35.400Z</time>
      </trkpt>
      <trkpt lat="10.1570304339066" lon="-75.6813129074371">
        <ele>52.321895</ele>
        <time>2019-09-10T15:18:35.500Z</time>
      </trkpt>
      <trkpt lat="10.1570321830378" lon="-75.6813149497231">
        <ele>52.321895</ele>
        <time>2019-09-10T15:18:35.600Z</time>
      </trkpt>
      <trkpt lat="10.1570339545765" lon="-75.6813169830903">
        <ele>52.321895</ele>
        <time>2019-09-10T15:18:35.700Z</time>
      </trkpt>
      <trkpt lat="10.1570357131917" lon="-75.6813190309878">
        <ele>52.321895</ele>
        <time>2019-09-10T15:18:35.800Z</time>
      </trkpt>
      <trkpt lat="10.1570374829586" lon="-75.681321073511">
        <ele>52.221895</ele>
        <time>2019-09-10T15:18:35.900Z</time>
      </trkpt>
      <trkpt lat="10.1570409959162" lon="-75.6813251711687">
        <ele>52.221895</ele>
        <time>2019-09-10T15:18:36.100Z</time>
      </trkpt>
      <trkpt lat="10.1570427434841" lon="-75.6813272293189">
        <ele>52.221895</ele>
        <time>2019-09-10T15:18:36.200Z</time>
      </trkpt>
      <trkpt lat="10.1570444866748" lon="-75.6813293054808">
        <ele>52.221895</ele>
        <time>2019-09-10T15:18:36.300Z</time>
      </trkpt>
      <trkpt lat="10.1570461920335" lon="-75.681331403867">
        <ele>52.321895</ele>
        <time>2019-09-10T15:18:36.400Z</time>
      </trkpt>
      <trkpt lat="10.1570478757143" lon="-75.6813334784363">
        <ele>52.321895</ele>
        <time>2019-09-10T15:18:36.500Z</time>
      </trkpt>
      <trkpt lat="10.1570495311514" lon="-75.6813355483535">
        <ele>52.321895</ele>
        <time>2019-09-10T15:18:36.600Z</time>
      </trkpt>
      <trkpt lat="10.1570511590743" lon="-75.6813376330318">
        <ele>52.321895</ele>
        <time>2019-09-10T15:18:36.700Z</time>
      </trkpt>
      <trkpt lat="10.1570527676122" lon="-75.6813397393599">
        <ele>52.321895</ele>
        <time>2019-09-10T15:18:36.800Z</time>
      </trkpt>
      <trkpt lat="10.1570543545764" lon="-75.6813418566978">
        <ele>52.321895</ele>
        <time>2019-09-10T15:18:36.900Z</time>
      </trkpt>
      <trkpt lat="10.1570559323693" lon="-75.6813439854808">
        <ele>52.321895</ele>
        <time>2019-09-10T15:18:37.000Z</time>
      </trkpt>
      <trkpt lat="10.157057527567" lon="-75.6813460913737">
        <ele>52.321895</ele>
        <time>2019-09-10T15:18:37.100Z</time>
      </trkpt>
      <trkpt lat="10.1570591467354" lon="-75.6813481899253">
        <ele>52.321895</ele>
        <time>2019-09-10T15:18:37.200Z</time>
      </trkpt>
      <trkpt lat="10.157060800088" lon="-75.6813502677322">
        <ele>52.321895</ele>
        <time>2019-09-10T15:18:37.300Z</time>
      </trkpt>
      <trkpt lat="10.1570624576095" lon="-75.681352346453">
        <ele>52.321895</ele>
        <time>2019-09-10T15:18:37.400Z</time>
      </trkpt>
      <trkpt lat="10.1570641261784" lon="-75.6813544227194">
        <ele>52.321895</ele>
        <time>2019-09-10T15:18:37.500Z</time>
      </trkpt>
      <trkpt lat="10.1570657872434" lon="-75.6813565078024">
        <ele>52.321895</ele>
        <time>2019-09-10T15:18:37.600Z</time>
      </trkpt>
      <trkpt lat="10.1570674718622" lon="-75.6813585714314">
        <ele>52.321895</ele>
        <time>2019-09-10T15:18:37.700Z</time>
      </trkpt>
      <trkpt lat="10.1570691435576" lon="-75.6813606420014">
        <ele>52.321895</ele>
        <time>2019-09-10T15:18:37.800Z</time>
      </trkpt>
      <trkpt lat="10.1570708132729" lon="-75.681362714595">
        <ele>52.221895</ele>
        <time>2019-09-10T15:18:37.900Z</time>
      </trkpt>
      <trkpt lat="10.1570741460334" lon="-75.6813668844303">
        <ele>52.221895</ele>
        <time>2019-09-10T15:18:38.100Z</time>
      </trkpt>
      <trkpt lat="10.1570758188753" lon="-75.6813689727683">
        <ele>52.221895</ele>
        <time>2019-09-10T15:18:38.200Z</time>
      </trkpt>
      <trkpt lat="10.1570775224622" lon="-75.6813710616112">
        <ele>52.321895</ele>
        <time>2019-09-10T15:18:38.300Z</time>
      </trkpt>
      <trkpt lat="10.1570792334488" lon="-75.6813731448056">
        <ele>52.321895</ele>
        <time>2019-09-10T15:18:38.400Z</time>
      </trkpt>
      <trkpt lat="10.1570809571502" lon="-75.681375214057">
        <ele>52.321895</ele>
        <time>2019-09-10T15:18:38.500Z</time>
      </trkpt>
      <trkpt lat="10.1570826770997" lon="-75.6813772792352">
        <ele>52.321895</ele>
        <time>2019-09-10T15:18:38.600Z</time>
      </trkpt>
      <trkpt lat="10.1570844105979" lon="-75.6813793526034">
        <ele>52.321895</ele>
        <time>2019-09-10T15:18:38.700Z</time>
      </trkpt>
      <trkpt lat="10.1570861398231" lon="-75.6813814398188">
        <ele>52.321895</ele>
        <time>2019-09-10T15:18:38.800Z</time>
      </trkpt>
      <trkpt lat="10.1570878832222" lon="-75.6813835714477">
        <ele>52.321895</ele>
        <time>2019-09-10T15:18:38.900Z</time>
      </trkpt>
      <trkpt lat="10.1570896371475" lon="-75.6813857116931">
        <ele>52.321895</ele>
        <time>2019-09-10T15:18:39.000Z</time>
      </trkpt>
      <trkpt lat="10.1570913699162" lon="-75.6813878281433">
        <ele>52.221895</ele>
        <time>2019-09-10T15:18:39.100Z</time>
      </trkpt>
      <trkpt lat="10.1570930802774" lon="-75.6813899326785">
        <ele>52.221895</ele>
        <time>2019-09-10T15:18:39.200Z</time>
      </trkpt>
      <trkpt lat="10.1570947848023" lon="-75.6813920364652">
        <ele>52.221895</ele>
        <time>2019-09-10T15:18:39.300Z</time>
      </trkpt>
      <trkpt lat="10.1570964869302" lon="-75.6813941461006">
        <ele>52.221895</ele>
        <time>2019-09-10T15:18:39.400Z</time>
      </trkpt>
      <trkpt lat="10.1570981623776" lon="-75.6813962514191">
        <ele>52.221895</ele>
        <time>2019-09-10T15:18:39.500Z</time>
      </trkpt>
      <trkpt lat="10.1570998287578" lon="-75.681398363709">
        <ele>52.221895</ele>
        <time>2019-09-10T15:18:39.600Z</time>
      </trkpt>
      <trkpt lat="10.1571014986815" lon="-75.6814004651023">
        <ele>52.221895</ele>
        <time>2019-09-10T15:18:39.700Z</time>
      </trkpt>
      <trkpt lat="10.1571031939308" lon="-75.6814025650681">
        <ele>52.221895</ele>
        <time>2019-09-10T15:18:39.800Z</time>
      </trkpt>
      <trkpt lat="10.1571049311809" lon="-75.681404653267">
        <ele>52.221895</ele>
        <time>2019-09-10T15:18:39.900Z</time>
      </trkpt>
      <trkpt lat="10.1571066933397" lon="-75.6814067410393">
        <ele>52.221895</ele>
        <time>2019-09-10T15:18:40.000Z</time>
      </trkpt>
      <trkpt lat="10.1571084579998" lon="-75.68140881627">
        <ele>52.221895</ele>
        <time>2019-09-10T15:18:40.100Z</time>
      </trkpt>
      <trkpt lat="10.1571102152602" lon="-75.6814108897775">
        <ele>52.221895</ele>
        <time>2019-09-10T15:18:40.200Z</time>
      </trkpt>
      <trkpt lat="10.157111995866" lon="-75.6814129580715">
        <ele>52.321895</ele>
        <time>2019-09-10T15:18:40.300Z</time>
      </trkpt>
      <trkpt lat="10.1571137769929" lon="-75.6814150338941">
        <ele>52.321895</ele>
        <time>2019-09-10T15:18:40.400Z</time>
      </trkpt>
      <trkpt lat="10.1571155622886" lon="-75.6814171521111">
        <ele>52.321895</ele>
        <time>2019-09-10T15:18:40.500Z</time>
      </trkpt>
      <trkpt lat="10.1571173295542" lon="-75.6814192865774">
        <ele>52.221895</ele>
        <time>2019-09-10T15:18:40.600Z</time>
      </trkpt>
      <trkpt lat="10.1571190744124" lon="-75.6814214338812">
        <ele>52.221895</ele>
        <time>2019-09-10T15:18:40.700Z</time>
      </trkpt>
      <trkpt lat="10.1571207994688" lon="-75.6814235663458">
        <ele>52.221895</ele>
        <time>2019-09-10T15:18:40.800Z</time>
      </trkpt>
      <trkpt lat="10.1571225234829" lon="-75.6814256956074">
        <ele>52.221895</ele>
        <time>2019-09-10T15:18:40.900Z</time>
      </trkpt>
      <trkpt lat="10.1571242487476" lon="-75.6814278090288">
        <ele>52.221895</ele>
        <time>2019-09-10T15:18:41.000Z</time>
      </trkpt>
      <trkpt lat="10.157125936493" lon="-75.6814298919098">
        <ele>52.221895</ele>
        <time>2019-09-10T15:18:41.100Z</time>
      </trkpt>
      <trkpt lat="10.1571276142333" lon="-75.6814319664443">
        <ele>52.221895</ele>
        <time>2019-09-10T15:18:41.200Z</time>
      </trkpt>
      <trkpt lat="10.1571293005196" lon="-75.6814340652787">
        <ele>52.221895</ele>
        <time>2019-09-10T15:18:41.300Z</time>
      </trkpt>
      <trkpt lat="10.1571310103598" lon="-75.6814361859936">
        <ele>52.221895</ele>
        <time>2019-09-10T15:18:41.400Z</time>
      </trkpt>
      <trkpt lat="10.1571326990432" lon="-75.681438285855">
        <ele>52.221895</ele>
        <time>2019-09-10T15:18:41.500Z</time>
      </trkpt>
      <trkpt lat="10.1571343919996" lon="-75.6814403794674">
        <ele>52.221895</ele>
        <time>2019-09-10T15:18:41.600Z</time>
      </trkpt>
      <trkpt lat="10.1571360635909" lon="-75.6814424177781">
        <ele>52.221895</ele>
        <time>2019-09-10T15:18:41.700Z</time>
      </trkpt>
      <trkpt lat="10.1571377384129" lon="-75.6814444435384">
        <ele>52.221895</ele>
        <time>2019-09-10T15:18:41.800Z</time>
      </trkpt>
      <trkpt lat="10.1571394524219" lon="-75.6814465056792">
        <ele>52.221895</ele>
        <time>2019-09-10T15:18:41.900Z</time>
      </trkpt>
      <trkpt lat="10.1571412094739" lon="-75.6814486105016">
        <ele>52.221895</ele>
        <time>2019-09-10T15:18:42.000Z</time>
      </trkpt>
      <trkpt lat="10.157146553063" lon="-75.6814549385287">
        <ele>52.221895</ele>
        <time>2019-09-10T15:18:42.300Z</time>
      </trkpt>
      <trkpt lat="10.1571483191822" lon="-75.6814570551878">
        <ele>52.221895</ele>
        <time>2019-09-10T15:18:42.400Z</time>
      </trkpt>
      <trkpt lat="10.1571500987458" lon="-75.6814591789315">
        <ele>52.221895</ele>
        <time>2019-09-10T15:18:42.500Z</time>
      </trkpt>
      <trkpt lat="10.1571518803938" lon="-75.6814613007604">
        <ele>52.221895</ele>
        <time>2019-09-10T15:18:42.600Z</time>
      </trkpt>
      <trkpt lat="10.1571536693373" lon="-75.6814634185335">
        <ele>52.221895</ele>
        <time>2019-09-10T15:18:42.700Z</time>
      </trkpt>
      <trkpt lat="10.1571554571343" lon="-75.6814655303883">
        <ele>52.221895</ele>
        <time>2019-09-10T15:18:42.800Z</time>
      </trkpt>
      <trkpt lat="10.1571572419089" lon="-75.6814676287701">
        <ele>52.221895</ele>
        <time>2019-09-10T15:18:42.900Z</time>
      </trkpt>
      <trkpt lat="10.1571590238696" lon="-75.6814697325829">
        <ele>52.221895</ele>
        <time>2019-09-10T15:18:43.000Z</time>
      </trkpt>
      <trkpt lat="10.1571608081231" lon="-75.6814718412348">
        <ele>52.221895</ele>
        <time>2019-09-10T15:18:43.100Z</time>
      </trkpt>
      <trkpt lat="10.1571625753887" lon="-75.6814739524281">
        <ele>52.221895</ele>
        <time>2019-09-10T15:18:43.200Z</time>
      </trkpt>
      <trkpt lat="10.157164295234" lon="-75.6814760862678">
        <ele>52.221895</ele>
        <time>2019-09-10T15:18:43.300Z</time>
      </trkpt>
      <trkpt lat="10.1571659925677" lon="-75.6814782278535">
        <ele>52.221895</ele>
        <time>2019-09-10T15:18:43.400Z</time>
      </trkpt>
      <trkpt lat="10.1571693473186" lon="-75.6814824824951">
        <ele>52.221895</ele>
        <time>2019-09-10T15:18:43.600Z</time>
      </trkpt>
      <trkpt lat="10.157171003381" lon="-75.6814845943499">
        <ele>52.321895</ele>
        <time>2019-09-10T15:18:43.700Z</time>
      </trkpt>
      <trkpt lat="10.1571726517311" lon="-75.6814867065528">
        <ele>52.321895</ele>
        <time>2019-09-10T15:18:43.800Z</time>
      </trkpt>
      <trkpt lat="10.1571742941407" lon="-75.681488809913">
        <ele>52.321895</ele>
        <time>2019-09-10T15:18:43.900Z</time>
      </trkpt>
      <trkpt lat="10.1571759488482" lon="-75.6814909138129">
        <ele>52.321895</ele>
        <time>2019-09-10T15:18:44.000Z</time>
      </trkpt>
      <trkpt lat="10.1571776210648" lon="-75.6814930547023">
        <ele>52.321895</ele>
        <time>2019-09-10T15:18:44.100Z</time>
      </trkpt>
      <trkpt lat="10.1571793149592" lon="-75.681495207968">
        <ele>52.321895</ele>
        <time>2019-09-10T15:18:44.200Z</time>
      </trkpt>
      <trkpt lat="10.1571810080198" lon="-75.6814973194921">
        <ele>52.321895</ele>
        <time>2019-09-10T15:18:44.300Z</time>
      </trkpt>
      <trkpt lat="10.1571827066042" lon="-75.6814994061765">
        <ele>52.321895</ele>
        <time>2019-09-10T15:18:44.400Z</time>
      </trkpt>
      <trkpt lat="10.1571844145684" lon="-75.6815014791965">
        <ele>52.321895</ele>
        <time>2019-09-10T15:18:44.500Z</time>
      </trkpt>
      <trkpt lat="10.1571861384783" lon="-75.68150356045">
        <ele>52.321895</ele>
        <time>2019-09-10T15:18:44.600Z</time>
      </trkpt>
      <trkpt lat="10.1571878627008" lon="-75.681505641512">
        <ele>52.321895</ele>
        <time>2019-09-10T15:18:44.700Z</time>
      </trkpt>
      <trkpt lat="10.1571895901542" lon="-75.6815077318345">
        <ele>52.321895</ele>
        <time>2019-09-10T15:18:44.800Z</time>
      </trkpt>
      <trkpt lat="10.1571913493948" lon="-75.6815097943408">
        <ele>52.321895</ele>
        <time>2019-09-10T15:18:44.900Z</time>
      </trkpt>
      <trkpt lat="10.1571931205166" lon="-75.68151185582">
        <ele>52.321895</ele>
        <time>2019-09-10T15:18:45.000Z</time>
      </trkpt>
      <trkpt lat="10.1571948911172" lon="-75.6815139153498">
        <ele>52.321895</ele>
        <time>2019-09-10T15:18:45.100Z</time>
      </trkpt>
      <trkpt lat="10.1571966500452" lon="-75.6815159921123">
        <ele>52.321895</ele>
        <time>2019-09-10T15:18:45.200Z</time>
      </trkpt>
      <trkpt lat="10.1571983988637" lon="-75.6815180757853">
        <ele>52.321895</ele>
        <time>2019-09-10T15:18:45.300Z</time>
      </trkpt>
      <trkpt lat="10.1572001369476" lon="-75.681520170268">
        <ele>52.321895</ele>
        <time>2019-09-10T15:18:45.400Z</time>
      </trkpt>
      <trkpt lat="10.1572018547085" lon="-75.6815222711042">
        <ele>52.321895</ele>
        <time>2019-09-10T15:18:45.500Z</time>
      </trkpt>
      <trkpt lat="10.1572035566279" lon="-75.6815243780503">
        <ele>52.321895</ele>
        <time>2019-09-10T15:18:45.600Z</time>
      </trkpt>
      <trkpt lat="10.1572052416636" lon="-75.6815264936997">
        <ele>52.321895</ele>
        <time>2019-09-10T15:18:45.700Z</time>
      </trkpt>
      <trkpt lat="10.1572069350369" lon="-75.6815286058504">
        <ele>52.321895</ele>
        <time>2019-09-10T15:18:45.800Z</time>
      </trkpt>
      <trkpt lat="10.1572086188219" lon="-75.6815307167652">
        <ele>52.321895</ele>
        <time>2019-09-10T15:18:45.900Z</time>
      </trkpt>
      <trkpt lat="10.1572103137586" lon="-75.6815328293337">
        <ele>52.321895</ele>
        <time>2019-09-10T15:18:46.000Z</time>
      </trkpt>
      <trkpt lat="10.1572137582433" lon="-75.6815370520162">
        <ele>52.321895</ele>
        <time>2019-09-10T15:18:46.200Z</time>
      </trkpt>
      <trkpt lat="10.157217188033" lon="-75.6815412742636">
        <ele>52.321895</ele>
        <time>2019-09-10T15:18:46.400Z</time>
      </trkpt>
      <trkpt lat="10.1572188843245" lon="-75.6815433826718">
        <ele>52.321895</ele>
        <time>2019-09-10T15:18:46.500Z</time>
      </trkpt>
      <trkpt lat="10.1572223136972" lon="-75.6815476298284">
        <ele>52.321895</ele>
        <time>2019-09-10T15:18:46.700Z</time>
      </trkpt>
      <trkpt lat="10.1572240505305" lon="-75.681549779491">
        <ele>52.321895</ele>
        <time>2019-09-10T15:18:46.800Z</time>
      </trkpt>
      <trkpt lat="10.1572257402561" lon="-75.6815519204152">
        <ele>52.421895</ele>
        <time>2019-09-10T15:18:46.900Z</time>
      </trkpt>
      <trkpt lat="10.1572274080954" lon="-75.6815540530538">
        <ele>52.321895</ele>
        <time>2019-09-10T15:18:47.000Z</time>
      </trkpt>
      <trkpt lat="10.1572290865652" lon="-75.6815561661445">
        <ele>52.421895</ele>
        <time>2019-09-10T15:18:47.100Z</time>
      </trkpt>
      <trkpt lat="10.1572307823356" lon="-75.6815582770941">
        <ele>52.421895</ele>
        <time>2019-09-10T15:18:47.200Z</time>
      </trkpt>
      <trkpt lat="10.1572324767511" lon="-75.6815603638481">
        <ele>52.421895</ele>
        <time>2019-09-10T15:18:47.300Z</time>
      </trkpt>
      <trkpt lat="10.1572341767945" lon="-75.6815624507937">
        <ele>52.321895</ele>
        <time>2019-09-10T15:18:47.400Z</time>
      </trkpt>
      <trkpt lat="10.1572358680834" lon="-75.6815645210808">
        <ele>52.321895</ele>
        <time>2019-09-10T15:18:47.500Z</time>
      </trkpt>
      <trkpt lat="10.1572375576006" lon="-75.6815666006981">
        <ele>52.321895</ele>
        <time>2019-09-10T15:18:47.600Z</time>
      </trkpt>
      <trkpt lat="10.1572392465966" lon="-75.6815686950763">
        <ele>52.321895</ele>
        <time>2019-09-10T15:18:47.700Z</time>
      </trkpt>
      <trkpt lat="10.1572409448683" lon="-75.6815708043027">
        <ele>52.321895</ele>
        <time>2019-09-10T15:18:47.800Z</time>
      </trkpt>
      <trkpt lat="10.1572426486637" lon="-75.6815728905345">
        <ele>52.421895</ele>
        <time>2019-09-10T15:18:47.900Z</time>
      </trkpt>
      <trkpt lat="10.1572443629853" lon="-75.6815749659741">
        <ele>52.421895</ele>
        <time>2019-09-10T15:18:48.000Z</time>
      </trkpt>
      <trkpt lat="10.1572460706368" lon="-75.6815770390464">
        <ele>52.421895</ele>
        <time>2019-09-10T15:18:48.100Z</time>
      </trkpt>
      <trkpt lat="10.1572477826656" lon="-75.6815791266359">
        <ele>52.421895</ele>
        <time>2019-09-10T15:18:48.200Z</time>
      </trkpt>
      <trkpt lat="10.1572495072008" lon="-75.6815812138252">
        <ele>52.421895</ele>
        <time>2019-09-10T15:18:48.300Z</time>
      </trkpt>
      <trkpt lat="10.1572512420538" lon="-75.6815833015366">
        <ele>52.421895</ele>
        <time>2019-09-10T15:18:48.400Z</time>
      </trkpt>
      <trkpt lat="10.1572529635667" lon="-75.6815853938435">
        <ele>52.421895</ele>
        <time>2019-09-10T15:18:48.500Z</time>
      </trkpt>
      <trkpt lat="10.1572546795558" lon="-75.6815874914768">
        <ele>52.421895</ele>
        <time>2019-09-10T15:18:48.600Z</time>
      </trkpt>
      <trkpt lat="10.1572563923141" lon="-75.6815895726433">
        <ele>52.421895</ele>
        <time>2019-09-10T15:18:48.700Z</time>
      </trkpt>
      <trkpt lat="10.1572581075737" lon="-75.6815916521735">
        <ele>52.421895</ele>
        <time>2019-09-10T15:18:48.800Z</time>
      </trkpt>
      <trkpt lat="10.1572598048032" lon="-75.6815937318777">
        <ele>52.421895</ele>
        <time>2019-09-10T15:18:48.900Z</time>
      </trkpt>
      <trkpt lat="10.1572615081817" lon="-75.6815958225135">
        <ele>52.421895</ele>
        <time>2019-09-10T15:18:49.000Z</time>
      </trkpt>
      <trkpt lat="10.1572632018676" lon="-75.6815979150989">
        <ele>52.421895</ele>
        <time>2019-09-10T15:18:49.100Z</time>
      </trkpt>
      <trkpt lat="10.1572649063925" lon="-75.6816000149951">
        <ele>52.421895</ele>
        <time>2019-09-10T15:18:49.200Z</time>
      </trkpt>
      <trkpt lat="10.1572666379105" lon="-75.6816021469549">
        <ele>52.421895</ele>
        <time>2019-09-10T15:18:49.300Z</time>
      </trkpt>
      <trkpt lat="10.1572683817265" lon="-75.6816042871654">
        <ele>52.421895</ele>
        <time>2019-09-10T15:18:49.400Z</time>
      </trkpt>
      <trkpt lat="10.157270086043" lon="-75.6816064089944">
        <ele>52.421895</ele>
        <time>2019-09-10T15:18:49.500Z</time>
      </trkpt>
      <trkpt lat="10.1572717737884" lon="-75.6816085160622">
        <ele>52.421895</ele>
        <time>2019-09-10T15:18:49.600Z</time>
      </trkpt>
      <trkpt lat="10.1572734414193" lon="-75.6816106069069">
        <ele>52.421895</ele>
        <time>2019-09-10T15:18:49.700Z</time>
      </trkpt>
      <trkpt lat="10.1572751154076" lon="-75.6816126959413">
        <ele>52.421895</ele>
        <time>2019-09-10T15:18:49.800Z</time>
      </trkpt>
      <trkpt lat="10.1572784951715" lon="-75.68161680205">
        <ele>52.421895</ele>
        <time>2019-09-10T15:18:50.000Z</time>
      </trkpt>
      <trkpt lat="10.1572801916714" lon="-75.6816188501781">
        <ele>52.421895</ele>
        <time>2019-09-10T15:18:50.100Z</time>
      </trkpt>
      <trkpt lat="10.157281892757" lon="-75.681620919299">
        <ele>52.421895</ele>
        <time>2019-09-10T15:18:50.200Z</time>
      </trkpt>
      <trkpt lat="10.1572835940511" lon="-75.6816229716397">
        <ele>52.421895</ele>
        <time>2019-09-10T15:18:50.300Z</time>
      </trkpt>
      <trkpt lat="10.1572853024321" lon="-75.6816250289935">
        <ele>52.421895</ele>
        <time>2019-09-10T15:18:50.400Z</time>
      </trkpt>
      <trkpt lat="10.1572870004954" lon="-75.6816270947027">
        <ele>52.421895</ele>
        <time>2019-09-10T15:18:50.500Z</time>
      </trkpt>
      <trkpt lat="10.157288704395" lon="-75.6816291759736">
        <ele>52.421895</ele>
        <time>2019-09-10T15:18:50.600Z</time>
      </trkpt>
      <trkpt lat="10.1572904215305" lon="-75.6816312406731">
        <ele>52.421895</ele>
        <time>2019-09-10T15:18:50.700Z</time>
      </trkpt>
      <trkpt lat="10.1572921530485" lon="-75.68163330586">
        <ele>52.421895</ele>
        <time>2019-09-10T15:18:50.800Z</time>
      </trkpt>
      <trkpt lat="10.1572938886311" lon="-75.6816353558334">
        <ele>52.421895</ele>
        <time>2019-09-10T15:18:50.900Z</time>
      </trkpt>
      <trkpt lat="10.1572956132705" lon="-75.6816374144405">
        <ele>52.421895</ele>
        <time>2019-09-10T15:18:51.000Z</time>
      </trkpt>
      <trkpt lat="10.1572973366593" lon="-75.6816395134316">
        <ele>52.421895</ele>
        <time>2019-09-10T15:18:51.100Z</time>
      </trkpt>
      <trkpt lat="10.157299053378" lon="-75.6816416322317">
        <ele>52.421895</ele>
        <time>2019-09-10T15:18:51.200Z</time>
      </trkpt>
      <trkpt lat="10.1573007595705" lon="-75.6816437327198">
        <ele>52.421895</ele>
        <time>2019-09-10T15:18:51.300Z</time>
      </trkpt>
      <trkpt lat="10.1573024639911" lon="-75.6816458235296">
        <ele>52.421895</ele>
        <time>2019-09-10T15:18:51.400Z</time>
      </trkpt>
      <trkpt lat="10.1573041417314" lon="-75.6816478710312">
        <ele>52.421895</ele>
        <time>2019-09-10T15:18:51.500Z</time>
      </trkpt>
      <trkpt lat="10.1573058178041" lon="-75.6816499117789">
        <ele>52.421895</ele>
        <time>2019-09-10T15:18:51.600Z</time>
      </trkpt>
      <trkpt lat="10.157307509093" lon="-75.6816519777665">
        <ele>52.421895</ele>
        <time>2019-09-10T15:18:51.700Z</time>
      </trkpt>
      <trkpt lat="10.1573092243526" lon="-75.6816540717444">
        <ele>52.421895</ele>
        <time>2019-09-10T15:18:51.800Z</time>
      </trkpt>
      <trkpt lat="10.1573109503469" lon="-75.6816561725458">
        <ele>52.421895</ele>
        <time>2019-09-10T15:18:51.900Z</time>
      </trkpt>
      <trkpt lat="10.1573126774877" lon="-75.6816582675682">
        <ele>52.421895</ele>
        <time>2019-09-10T15:18:52.000Z</time>
      </trkpt>
      <trkpt lat="10.1573143970203" lon="-75.6816603375942">
        <ele>52.421895</ele>
        <time>2019-09-10T15:18:52.100Z</time>
      </trkpt>
      <trkpt lat="10.1573161164487" lon="-75.6816624015627">
        <ele>52.421895</ele>
        <time>2019-09-10T15:18:52.200Z</time>
      </trkpt>
      <trkpt lat="10.1573178186808" lon="-75.6816644523367">
        <ele>52.421895</ele>
        <time>2019-09-10T15:18:52.300Z</time>
      </trkpt>
      <trkpt lat="10.1573195098655" lon="-75.681666513346">
        <ele>52.421895</ele>
        <time>2019-09-10T15:18:52.400Z</time>
      </trkpt>
      <trkpt lat="10.1573211720769" lon="-75.6816685970886">
        <ele>52.421895</ele>
        <time>2019-09-10T15:18:52.500Z</time>
      </trkpt>
      <trkpt lat="10.1573228473158" lon="-75.6816707046439">
        <ele>52.421895</ele>
        <time>2019-09-10T15:18:52.600Z</time>
      </trkpt>
      <trkpt lat="10.1573245489226" lon="-75.6816728215989">
        <ele>52.421895</ele>
        <time>2019-09-10T15:18:52.700Z</time>
      </trkpt>
      <trkpt lat="10.1573262688721" lon="-75.6816749435323">
        <ele>52.421895</ele>
        <time>2019-09-10T15:18:52.800Z</time>
      </trkpt>
      <trkpt lat="10.1573279852781" lon="-75.6816770655004">
        <ele>52.421895</ele>
        <time>2019-09-10T15:18:52.900Z</time>
      </trkpt>
      <trkpt lat="10.1573297017884" lon="-75.6816791896619">
        <ele>52.421895</ele>
        <time>2019-09-10T15:18:53.000Z</time>
      </trkpt>
      <trkpt lat="10.1573313870325" lon="-75.681681284719">
        <ele>52.421895</ele>
        <time>2019-09-10T15:18:53.100Z</time>
      </trkpt>
      <trkpt lat="10.1573330782172" lon="-75.6816833744148">
        <ele>52.321895</ele>
        <time>2019-09-10T15:18:53.200Z</time>
      </trkpt>
      <trkpt lat="10.1573347646077" lon="-75.6816854727445">
        <ele>52.421895</ele>
        <time>2019-09-10T15:18:53.300Z</time>
      </trkpt>
      <trkpt lat="10.1573364697579" lon="-75.6816875912661">
        <ele>52.421895</ele>
        <time>2019-09-10T15:18:53.400Z</time>
      </trkpt>
      <trkpt lat="10.1573381844964" lon="-75.6816897071418">
        <ele>52.321895</ele>
        <time>2019-09-10T15:18:53.500Z</time>
      </trkpt>
      <trkpt lat="10.1573399189326" lon="-75.6816918289011">
        <ele>52.321895</ele>
        <time>2019-09-10T15:18:53.600Z</time>
      </trkpt>
      <trkpt lat="10.1573416555574" lon="-75.6816939855438">
        <ele>52.421895</ele>
        <time>2019-09-10T15:18:53.700Z</time>
      </trkpt>
      <trkpt lat="10.1573433978101" lon="-75.681696153118">
        <ele>52.321895</ele>
        <time>2019-09-10T15:18:53.800Z</time>
      </trkpt>
      <trkpt lat="10.1573451890464" lon="-75.6816983804326">
        <ele>52.321895</ele>
        <time>2019-09-10T15:18:53.900Z</time>
      </trkpt>
      <trkpt lat="10.1573469946651" lon="-75.6817005951794">
        <ele>52.321895</ele>
        <time>2019-09-10T15:18:54.000Z</time>
      </trkpt>
      <trkpt lat="10.1573487766257" lon="-75.6817028084989">
        <ele>52.321895</ele>
        <time>2019-09-10T15:18:54.100Z</time>
      </trkpt>
      <trkpt lat="10.1573522868736" lon="-75.6817071264145">
        <ele>52.321895</ele>
        <time>2019-09-10T15:18:54.300Z</time>
      </trkpt>
      <trkpt lat="10.157354048407" lon="-75.6817092383563">
        <ele>52.321895</ele>
        <time>2019-09-10T15:18:54.400Z</time>
      </trkpt>
      <trkpt lat="10.1573558221343" lon="-75.6817113476871">
        <ele>52.321895</ele>
        <time>2019-09-10T15:18:54.500Z</time>
      </trkpt>
      <trkpt lat="10.1573576075342" lon="-75.6817134570527">
        <ele>52.421895</ele>
        <time>2019-09-10T15:18:54.600Z</time>
      </trkpt>
      <trkpt lat="10.1573593530178" lon="-75.6817155302468">
        <ele>52.421895</ele>
        <time>2019-09-10T15:18:54.700Z</time>
      </trkpt>
      <trkpt lat="10.1573610869328" lon="-75.6817175884361">
        <ele>52.421895</ele>
        <time>2019-09-10T15:18:54.800Z</time>
      </trkpt>
      <trkpt lat="10.1573628244956" lon="-75.6817196186701">
        <ele>52.421895</ele>
        <time>2019-09-10T15:18:54.900Z</time>
      </trkpt>
      <trkpt lat="10.1573645834235" lon="-75.6817216577119">
        <ele>52.421895</ele>
        <time>2019-09-10T15:18:55.000Z</time>
      </trkpt>
      <trkpt lat="10.1573663268227" lon="-75.6817236532017">
        <ele>52.421895</ele>
        <time>2019-09-10T15:18:55.100Z</time>
      </trkpt>
      <trkpt lat="10.157368074599" lon="-75.6817256558979">
        <ele>52.421895</ele>
        <time>2019-09-10T15:18:55.200Z</time>
      </trkpt>
      <trkpt lat="10.1573698338397" lon="-75.6817276491596">
        <ele>52.421895</ele>
        <time>2019-09-10T15:18:55.300Z</time>
      </trkpt>
      <trkpt lat="10.1573716121526" lon="-75.6817296671739">
        <ele>52.421895</ele>
        <time>2019-09-10T15:18:55.400Z</time>
      </trkpt>
      <trkpt lat="10.1573733797309" lon="-75.6817316817068">
        <ele>52.421895</ele>
        <time>2019-09-10T15:18:55.500Z</time>
      </trkpt>
      <trkpt lat="10.1573751466838" lon="-75.6817337155962">
        <ele>52.421895</ele>
        <time>2019-09-10T15:18:55.600Z</time>
      </trkpt>
      <trkpt lat="10.1573769137409" lon="-75.6817357511914">
        <ele>52.421895</ele>
        <time>2019-09-10T15:18:55.700Z</time>
      </trkpt>
      <trkpt lat="10.157378688302" lon="-75.6817378024877">
        <ele>52.421895</ele>
        <time>2019-09-10T15:18:55.800Z</time>
      </trkpt>
      <trkpt lat="10.1573804731808" lon="-75.68173985918">
        <ele>52.421895</ele>
        <time>2019-09-10T15:18:55.900Z</time>
      </trkpt>
      <trkpt lat="10.1573822634791" lon="-75.6817419230092">
        <ele>52.421895</ele>
        <time>2019-09-10T15:18:56.000Z</time>
      </trkpt>
      <trkpt lat="10.1573840513803" lon="-75.6817439881614">
        <ele>52.421895</ele>
        <time>2019-09-10T15:18:56.100Z</time>
      </trkpt>
      <trkpt lat="10.1573858244823" lon="-75.681746060311">
        <ele>52.421895</ele>
        <time>2019-09-10T15:18:56.200Z</time>
      </trkpt>
      <trkpt lat="10.1573875751768" lon="-75.6817481598591">
        <ele>52.421895</ele>
        <time>2019-09-10T15:18:56.300Z</time>
      </trkpt>
      <trkpt lat="10.1573893321246" lon="-75.6817502774408">
        <ele>52.321895</ele>
        <time>2019-09-10T15:18:56.400Z</time>
      </trkpt>
      <trkpt lat="10.157391106894" lon="-75.6817523824198">
        <ele>52.421895</ele>
        <time>2019-09-10T15:18:56.500Z</time>
      </trkpt>
      <trkpt lat="10.1573928968797" lon="-75.681754480088">
        <ele>52.421895</ele>
        <time>2019-09-10T15:18:56.600Z</time>
      </trkpt>
      <trkpt lat="10.1573946959325" lon="-75.6817565982963">
        <ele>52.321895</ele>
        <time>2019-09-10T15:18:56.700Z</time>
      </trkpt>
      <trkpt lat="10.1573964921714" lon="-75.6817587293857">
        <ele>52.321895</ele>
        <time>2019-09-10T15:18:56.800Z</time>
      </trkpt>
      <trkpt lat="10.1573982744447" lon="-75.6817608866898">
        <ele>52.321895</ele>
        <time>2019-09-10T15:18:56.900Z</time>
      </trkpt>
      <trkpt lat="10.1574000408765" lon="-75.6817630421836">
        <ele>52.421895</ele>
        <time>2019-09-10T15:18:57.000Z</time>
      </trkpt>
      <trkpt lat="10.1574018221077" lon="-75.6817652206545">
        <ele>52.421895</ele>
        <time>2019-09-10T15:18:57.100Z</time>
      </trkpt>
      <trkpt lat="10.1574036024008" lon="-75.6817673891687">
        <ele>52.421895</ele>
        <time>2019-09-10T15:18:57.200Z</time>
      </trkpt>
      <trkpt lat="10.157405319849" lon="-75.6817695162545">
        <ele>52.421895</ele>
        <time>2019-09-10T15:18:57.300Z</time>
      </trkpt>
      <trkpt lat="10.1574070185376" lon="-75.6817716229394">
        <ele>52.421895</ele>
        <time>2019-09-10T15:18:57.400Z</time>
      </trkpt>
      <trkpt lat="10.1574087261891" lon="-75.6817737076917">
        <ele>52.421895</ele>
        <time>2019-09-10T15:18:57.500Z</time>
      </trkpt>
      <trkpt lat="10.157410458124" lon="-75.6817757966216">
        <ele>52.421895</ele>
        <time>2019-09-10T15:18:57.600Z</time>
      </trkpt>
      <trkpt lat="10.1574121768228" lon="-75.6817778873618">
        <ele>52.321895</ele>
        <time>2019-09-10T15:18:57.700Z</time>
      </trkpt>
      <trkpt lat="10.1574138939584" lon="-75.6817799988163">
        <ele>52.321895</ele>
        <time>2019-09-10T15:18:57.800Z</time>
      </trkpt>
      <trkpt lat="10.1574156199527" lon="-75.6817821464074">
        <ele>52.321895</ele>
        <time>2019-09-10T15:18:57.900Z</time>
      </trkpt>
      <trkpt lat="10.1574173433415" lon="-75.6817843078195">
        <ele>52.321895</ele>
        <time>2019-09-10T15:18:58.000Z</time>
      </trkpt>
      <trkpt lat="10.1574190654797" lon="-75.6817864821824">
        <ele>52.321895</ele>
        <time>2019-09-10T15:18:58.100Z</time>
      </trkpt>
      <trkpt lat="10.1574207773" lon="-75.6817886585297">
        <ele>52.321895</ele>
        <time>2019-09-10T15:18:58.200Z</time>
      </trkpt>
      <trkpt lat="10.1574241783248" lon="-75.6817930104583">
        <ele>52.321895</ele>
        <time>2019-09-10T15:18:58.400Z</time>
      </trkpt>
      <trkpt lat="10.1574258814949" lon="-75.6817951748296">
        <ele>52.321895</ele>
        <time>2019-09-10T15:18:58.500Z</time>
      </trkpt>
      <trkpt lat="10.1574275973798" lon="-75.6817973174772">
        <ele>52.321895</ele>
        <time>2019-09-10T15:18:58.600Z</time>
      </trkpt>
      <trkpt lat="10.1574293291062" lon="-75.6817994503072">
        <ele>52.321895</ele>
        <time>2019-09-10T15:18:58.700Z</time>
      </trkpt>
      <trkpt lat="10.1574310785501" lon="-75.681801575339">
        <ele>52.321895</ele>
        <time>2019-09-10T15:18:58.800Z</time>
      </trkpt>
      <trkpt lat="10.1574328333093" lon="-75.6818036766974">
        <ele>52.321895</ele>
        <time>2019-09-10T15:18:58.900Z</time>
      </trkpt>
      <trkpt lat="10.1574345935921" lon="-75.6818057664629">
        <ele>52.321895</ele>
        <time>2019-09-10T15:18:59.000Z</time>
      </trkpt>
      <trkpt lat="10.1574362888414" lon="-75.6818077753212">
        <ele>52.321895</ele>
        <time>2019-09-10T15:18:59.100Z</time>
      </trkpt>
      <trkpt lat="10.1574379578271" lon="-75.681809759218">
        <ele>52.321895</ele>
        <time>2019-09-10T15:18:59.200Z</time>
      </trkpt>
      <trkpt lat="10.1574396567241" lon="-75.6818117772671">
        <ele>52.321895</ele>
        <time>2019-09-10T15:18:59.300Z</time>
      </trkpt>
      <trkpt lat="10.1574414035625" lon="-75.6818138690517">
        <ele>52.321895</ele>
        <time>2019-09-10T15:18:59.400Z</time>
      </trkpt>
      <trkpt lat="10.1574431456067" lon="-75.6818159464583">
        <ele>52.421895</ele>
        <time>2019-09-10T15:18:59.500Z</time>
      </trkpt>
      <trkpt lat="10.1574448718095" lon="-75.6818180183643">
        <ele>52.421895</ele>
        <time>2019-09-10T15:18:59.600Z</time>
      </trkpt>
      <trkpt lat="10.1574483446422" lon="-75.6818222563126">
        <ele>52.421895</ele>
        <time>2019-09-10T15:18:59.800Z</time>
      </trkpt>
      <trkpt lat="10.1574500289483" lon="-75.6818243605954">
        <ele>52.421895</ele>
        <time>2019-09-10T15:18:59.900Z</time>
      </trkpt>
      <trkpt lat="10.1574517046042" lon="-75.6818264419359">
        <ele>52.421895</ele>
        <time>2019-09-10T15:19:00.000Z</time>
      </trkpt>
      <trkpt lat="10.1574533878681" lon="-75.6818285157219">
        <ele>52.421895</ele>
        <time>2019-09-10T15:19:00.100Z</time>
      </trkpt>
      <trkpt lat="10.1574550825963" lon="-75.6818305873842">
        <ele>52.421895</ele>
        <time>2019-09-10T15:19:00.200Z</time>
      </trkpt>
      <trkpt lat="10.1574567432444" lon="-75.6818326389241">
        <ele>52.421895</ele>
        <time>2019-09-10T15:19:00.300Z</time>
      </trkpt>
      <trkpt lat="10.1574584081655" lon="-75.6818346850679">
        <ele>52.421895</ele>
        <time>2019-09-10T15:19:00.400Z</time>
      </trkpt>
      <trkpt lat="10.1574600903873" lon="-75.681836745938">
        <ele>52.421895</ele>
        <time>2019-09-10T15:19:00.500Z</time>
      </trkpt>
      <trkpt lat="10.1574617930362" lon="-75.6818388198979">
        <ele>52.421895</ele>
        <time>2019-09-10T15:19:00.600Z</time>
      </trkpt>
      <trkpt lat="10.1574634922459" lon="-75.6818408888448">
        <ele>52.421895</ele>
        <time>2019-09-10T15:19:00.700Z</time>
      </trkpt>
      <trkpt lat="10.1574651936441" lon="-75.6818429534399">
        <ele>52.421895</ele>
        <time>2019-09-10T15:19:00.800Z</time>
      </trkpt>
      <trkpt lat="10.1574668906652" lon="-75.6818450134047">
        <ele>52.421895</ele>
        <time>2019-09-10T15:19:00.900Z</time>
      </trkpt>
      <trkpt lat="10.1574685942521" lon="-75.6818470741703">
        <ele>52.421895</ele>
        <time>2019-09-10T15:19:01.000Z</time>
      </trkpt>
      <trkpt lat="10.1574702972137" lon="-75.6818491241785">
        <ele>52.421895</ele>
        <time>2019-09-10T15:19:01.100Z</time>
      </trkpt>
      <trkpt lat="10.157472007158" lon="-75.6818511804182">
        <ele>52.421895</ele>
        <time>2019-09-10T15:19:01.200Z</time>
      </trkpt>
      <trkpt lat="10.1574737284624" lon="-75.6818532310182">
        <ele>52.421895</ele>
        <time>2019-09-10T15:19:01.300Z</time>
      </trkpt>
      <trkpt lat="10.1574754581045" lon="-75.6818552925845">
        <ele>52.421895</ele>
        <time>2019-09-10T15:19:01.400Z</time>
      </trkpt>
      <trkpt lat="10.157477162942" lon="-75.6818573435674">
        <ele>52.421895</ele>
        <time>2019-09-10T15:19:01.500Z</time>
      </trkpt>
      <trkpt lat="10.157478873199" lon="-75.6818593984147">
        <ele>52.421895</ele>
        <time>2019-09-10T15:19:01.600Z</time>
      </trkpt>
      <trkpt lat="10.157480620767" lon="-75.6818614660386">
        <ele>52.421895</ele>
        <time>2019-09-10T15:19:01.700Z</time>
      </trkpt>
      <trkpt lat="10.1574823978293" lon="-75.6818635444896">
        <ele>52.421895</ele>
        <time>2019-09-10T15:19:01.800Z</time>
      </trkpt>
      <trkpt lat="10.1574841522758" lon="-75.6818656143067">
        <ele>52.421895</ele>
        <time>2019-09-10T15:19:01.900Z</time>
      </trkpt>
      <trkpt lat="10.1574858904639" lon="-75.6818676845068">
        <ele>52.421895</ele>
        <time>2019-09-10T15:19:02.000Z</time>
      </trkpt>
      <trkpt lat="10.1574876535606" lon="-75.68186982611">
        <ele>52.421895</ele>
        <time>2019-09-10T15:19:02.100Z</time>
      </trkpt>
      <trkpt lat="10.1574894286428" lon="-75.6818719914561">
        <ele>52.421895</ele>
        <time>2019-09-10T15:19:02.200Z</time>
      </trkpt>
      <trkpt lat="10.1574912181073" lon="-75.6818741982306">
        <ele>52.421895</ele>
        <time>2019-09-10T15:19:02.300Z</time>
      </trkpt>
      <trkpt lat="10.1574947471148" lon="-75.6818785324042">
        <ele>52.421895</ele>
        <time>2019-09-10T15:19:02.500Z</time>
      </trkpt>
      <trkpt lat="10.1574964751935" lon="-75.6818806513784">
        <ele>52.421895</ele>
        <time>2019-09-10T15:19:02.600Z</time>
      </trkpt>
      <trkpt lat="10.1574981677331" lon="-75.6818827035798">
        <ele>52.421895</ele>
        <time>2019-09-10T15:19:02.700Z</time>
      </trkpt>
      <trkpt lat="10.1574998617317" lon="-75.6818847370514">
        <ele>52.421895</ele>
        <time>2019-09-10T15:19:02.800Z</time>
      </trkpt>
      <trkpt lat="10.1575015750111" lon="-75.681886756876">
        <ele>52.421895</ele>
        <time>2019-09-10T15:19:02.900Z</time>
      </trkpt>
      <trkpt lat="10.1575033075713" lon="-75.6818888106092">
        <ele>52.421895</ele>
        <time>2019-09-10T15:19:03.000Z</time>
      </trkpt>
      <trkpt lat="10.1575050191832" lon="-75.6818908194326">
        <ele>52.421895</ele>
        <time>2019-09-10T15:19:03.100Z</time>
      </trkpt>
      <trkpt lat="10.1575067239165" lon="-75.68189283313">
        <ele>52.421895</ele>
        <time>2019-09-10T15:19:03.200Z</time>
      </trkpt>
      <trkpt lat="10.1575084573105" lon="-75.681894856436">
        <ele>52.421895</ele>
        <time>2019-09-10T15:19:03.300Z</time>
      </trkpt>
      <trkpt lat="10.157510208943" lon="-75.6818969174105">
        <ele>52.421895</ele>
        <time>2019-09-10T15:19:03.400Z</time>
      </trkpt>
      <trkpt lat="10.1575119752706" lon="-75.6818989948867">
        <ele>52.421895</ele>
        <time>2019-09-10T15:19:03.500Z</time>
      </trkpt>
      <trkpt lat="10.157513736283" lon="-75.6819010879594">
        <ele>52.421895</ele>
        <time>2019-09-10T15:19:03.600Z</time>
      </trkpt>
      <trkpt lat="10.1575154987544" lon="-75.681903168917">
        <ele>52.421895</ele>
        <time>2019-09-10T15:19:03.700Z</time>
      </trkpt>
      <trkpt lat="10.1575172516376" lon="-75.6819052496657">
        <ele>52.421895</ele>
        <time>2019-09-10T15:19:03.800Z</time>
      </trkpt>
      <trkpt lat="10.1575189981633" lon="-75.6819073134253">
        <ele>52.421895</ele>
        <time>2019-09-10T15:19:03.900Z</time>
      </trkpt>
      <trkpt lat="10.1575207362472" lon="-75.6819093824765">
        <ele>52.421895</ele>
        <time>2019-09-10T15:19:04.000Z</time>
      </trkpt>
      <trkpt lat="10.1575224434819" lon="-75.6819114308484">
        <ele>52.421895</ele>
        <time>2019-09-10T15:19:04.100Z</time>
      </trkpt>
      <trkpt lat="10.1575241424831" lon="-75.6819134877148">
        <ele>52.421895</ele>
        <time>2019-09-10T15:19:04.200Z</time>
      </trkpt>
      <trkpt lat="10.1575258422138" lon="-75.6819155270351">
        <ele>52.421895</ele>
        <time>2019-09-10T15:19:04.300Z</time>
      </trkpt>
      <trkpt lat="10.1575275517413" lon="-75.6819175793758">
        <ele>52.421895</ele>
        <time>2019-09-10T15:19:04.400Z</time>
      </trkpt>
      <trkpt lat="10.1575292474075" lon="-75.681919593491">
        <ele>52.421895</ele>
        <time>2019-09-10T15:19:04.500Z</time>
      </trkpt>
      <trkpt lat="10.1575309459918" lon="-75.6819216157525">
        <ele>52.421895</ele>
        <time>2019-09-10T15:19:04.600Z</time>
      </trkpt>
      <trkpt lat="10.1575343785954" lon="-75.6819257814972">
        <ele>52.421895</ele>
        <time>2019-09-10T15:19:04.800Z</time>
      </trkpt>
      <trkpt lat="10.1575360923959" lon="-75.681927901098">
        <ele>52.321895</ele>
        <time>2019-09-10T15:19:04.900Z</time>
      </trkpt>
      <trkpt lat="10.1575378081766" lon="-75.6819300255031">
        <ele>52.321895</ele>
        <time>2019-09-10T15:19:05.000Z</time>
      </trkpt>
      <trkpt lat="10.157539511972" lon="-75.6819321061126">
        <ele>52.321895</ele>
        <time>2019-09-10T15:19:05.100Z</time>
      </trkpt>
      <trkpt lat="10.1575429391562" lon="-75.681936272832">
        <ele>52.321895</ele>
        <time>2019-09-10T15:19:05.300Z</time>
      </trkpt>
      <trkpt lat="10.1575446733839" lon="-75.681938399883">
        <ele>52.321895</ele>
        <time>2019-09-10T15:19:05.400Z</time>
      </trkpt>
      <trkpt lat="10.1575464337709" lon="-75.681940549911">
        <ele>52.421895</ele>
        <time>2019-09-10T15:19:05.500Z</time>
      </trkpt>
      <trkpt lat="10.1575482005154" lon="-75.6819427005658">
        <ele>52.421895</ele>
        <time>2019-09-10T15:19:05.600Z</time>
      </trkpt>
      <trkpt lat="10.1575499753891" lon="-75.6819448604809">
        <ele>52.421895</ele>
        <time>2019-09-10T15:19:05.700Z</time>
      </trkpt>
      <trkpt lat="10.157551745156" lon="-75.6819470080024">
        <ele>52.421895</ele>
        <time>2019-09-10T15:19:05.800Z</time>
      </trkpt>
      <trkpt lat="10.1575535386851" lon="-75.6819491352623">
        <ele>52.421895</ele>
        <time>2019-09-10T15:19:05.900Z</time>
      </trkpt>
      <trkpt lat="10.1575553331522" lon="-75.6819512431657">
        <ele>52.421895</ele>
        <time>2019-09-10T15:19:06.000Z</time>
      </trkpt>
      <trkpt lat="10.157557096249" lon="-75.6819533062986">
        <ele>52.421895</ele>
        <time>2019-09-10T15:19:06.100Z</time>
      </trkpt>
      <trkpt lat="10.157558834854" lon="-75.6819553575252">
        <ele>52.421895</ele>
        <time>2019-09-10T15:19:06.200Z</time>
      </trkpt>
      <trkpt lat="10.1575622731897" lon="-75.6819594594214">
        <ele>52.421895</ele>
        <time>2019-09-10T15:19:06.400Z</time>
      </trkpt>
      <trkpt lat="10.1575640079385" lon="-75.681961526175">
        <ele>52.421895</ele>
        <time>2019-09-10T15:19:06.500Z</time>
      </trkpt>
      <trkpt lat="10.1575657540474" lon="-75.6819636044867">
        <ele>52.421895</ele>
        <time>2019-09-10T15:19:06.600Z</time>
      </trkpt>
      <trkpt lat="10.1575674917144" lon="-75.6819656694996">
        <ele>52.421895</ele>
        <time>2019-09-10T15:19:06.700Z</time>
      </trkpt>
      <trkpt lat="10.1575692241703" lon="-75.6819677363227">
        <ele>52.421895</ele>
        <time>2019-09-10T15:19:06.800Z</time>
      </trkpt>
      <trkpt lat="10.1575709316134" lon="-75.6819698115709">
        <ele>52.421895</ele>
        <time>2019-09-10T15:19:06.900Z</time>
      </trkpt>
      <trkpt lat="10.1575726359299" lon="-75.6819718977505">
        <ele>52.421895</ele>
        <time>2019-09-10T15:19:07.000Z</time>
      </trkpt>
      <trkpt lat="10.1575743196107" lon="-75.6819739454957">
        <ele>52.421895</ele>
        <time>2019-09-10T15:19:07.100Z</time>
      </trkpt>
      <trkpt lat="10.1575760102743" lon="-75.681975986139">
        <ele>52.421895</ele>
        <time>2019-09-10T15:19:07.200Z</time>
      </trkpt>
      <trkpt lat="10.1575777301196" lon="-75.6819780617352">
        <ele>52.421895</ele>
        <time>2019-09-10T15:19:07.300Z</time>
      </trkpt>
      <trkpt lat="10.1575794739356" lon="-75.6819801673409">
        <ele>52.421895</ele>
        <time>2019-09-10T15:19:07.400Z</time>
      </trkpt>
      <trkpt lat="10.1575812262977" lon="-75.6819823186223">
        <ele>52.421895</ele>
        <time>2019-09-10T15:19:07.500Z</time>
      </trkpt>
      <trkpt lat="10.1575829724065" lon="-75.6819844699036">
        <ele>52.421895</ele>
        <time>2019-09-10T15:19:07.600Z</time>
      </trkpt>
      <trkpt lat="10.1575846974628" lon="-75.6819865747434">
        <ele>52.421895</ele>
        <time>2019-09-10T15:19:07.700Z</time>
      </trkpt>
      <trkpt lat="10.1575864129309" lon="-75.6819886561188">
        <ele>52.421895</ele>
        <time>2019-09-10T15:19:07.800Z</time>
      </trkpt>
      <trkpt lat="10.1575881283989" lon="-75.681990761446">
        <ele>52.421895</ele>
        <time>2019-09-10T15:19:07.900Z</time>
      </trkpt>
      <trkpt lat="10.1575898517877" lon="-75.6819928867562">
        <ele>52.421895</ele>
        <time>2019-09-10T15:19:08.000Z</time>
      </trkpt>
      <trkpt lat="10.1575915409922" lon="-75.6819949825445">
        <ele>52.421895</ele>
        <time>2019-09-10T15:19:08.100Z</time>
      </trkpt>
      <trkpt lat="10.1575932282165" lon="-75.6819970687937">
        <ele>52.421895</ele>
        <time>2019-09-10T15:19:08.200Z</time>
      </trkpt>
      <trkpt lat="10.157594944831" lon="-75.6819991721714">
        <ele>52.421895</ele>
        <time>2019-09-10T15:19:08.300Z</time>
      </trkpt>
      <trkpt lat="10.157596684895" lon="-75.682001292747">
        <ele>52.421895</ele>
        <time>2019-09-10T15:19:08.400Z</time>
      </trkpt>
      <trkpt lat="10.1575984322545" lon="-75.6820034327487">
        <ele>52.421895</ele>
        <time>2019-09-10T15:19:08.500Z</time>
      </trkpt>
      <trkpt lat="10.1576001812816" lon="-75.6820055764406">
        <ele>52.421895</ele>
        <time>2019-09-10T15:19:08.600Z</time>
      </trkpt>
      <trkpt lat="10.1576019379167" lon="-75.6820077386535">
        <ele>52.421895</ele>
        <time>2019-09-10T15:19:08.700Z</time>
      </trkpt>
      <trkpt lat="10.1576036975742" lon="-75.6820098995435">
        <ele>52.421895</ele>
        <time>2019-09-10T15:19:08.800Z</time>
      </trkpt>
      <trkpt lat="10.1576054574401" lon="-75.6820120734538">
        <ele>52.321895</ele>
        <time>2019-09-10T15:19:08.900Z</time>
      </trkpt>
      <trkpt lat="10.1576072093853" lon="-75.6820142454841">
        <ele>52.321895</ele>
        <time>2019-09-10T15:19:09.000Z</time>
      </trkpt>
      <trkpt lat="10.1576089455932" lon="-75.6820164276801">
        <ele>52.321895</ele>
        <time>2019-09-10T15:19:09.100Z</time>
      </trkpt>
      <trkpt lat="10.1576106761732" lon="-75.6820186022867">
        <ele>52.321895</ele>
        <time>2019-09-10T15:19:09.200Z</time>
      </trkpt>
      <trkpt lat="10.1576124008126" lon="-75.6820207518273">
        <ele>52.321895</ele>
        <time>2019-09-10T15:19:09.300Z</time>
      </trkpt>
      <trkpt lat="10.1576141226381" lon="-75.6820228891136">
        <ele>52.321895</ele>
        <time>2019-09-10T15:19:09.400Z</time>
      </trkpt>
      <trkpt lat="10.1576158224731" lon="-75.6820250226399">
        <ele>52.321895</ele>
        <time>2019-09-10T15:19:09.500Z</time>
      </trkpt>
      <trkpt lat="10.1576175231419" lon="-75.6820271626416">
        <ele>52.321895</ele>
        <time>2019-09-10T15:19:09.600Z</time>
      </trkpt>
      <trkpt lat="10.1576192307934" lon="-75.6820292987442">
        <ele>52.321895</ele>
        <time>2019-09-10T15:19:09.700Z</time>
      </trkpt>
      <trkpt lat="10.157620952202" lon="-75.6820314417399">
        <ele>52.321895</ele>
        <time>2019-09-10T15:19:09.800Z</time>
      </trkpt>
      <trkpt lat="10.1576226860128" lon="-75.682033590445">
        <ele>52.321895</ele>
        <time>2019-09-10T15:19:09.900Z</time>
      </trkpt>
      <trkpt lat="10.1576244332681" lon="-75.6820357378272">
        <ele>52.321895</ele>
        <time>2019-09-10T15:19:10.000Z</time>
      </trkpt>
      <trkpt lat="10.1576261926129" lon="-75.6820379095094">
        <ele>52.321895</ele>
        <time>2019-09-10T15:19:10.100Z</time>
      </trkpt>
      <trkpt lat="10.1576279532084" lon="-75.6820400873885">
        <ele>52.321895</ele>
        <time>2019-09-10T15:19:10.200Z</time>
      </trkpt>
      <trkpt lat="10.1576296918134" lon="-75.6820422326122">
        <ele>52.321895</ele>
        <time>2019-09-10T15:19:10.300Z</time>
      </trkpt>
      <trkpt lat="10.1576314383391" lon="-75.6820443554856">
        <ele>52.321895</ele>
        <time>2019-09-10T15:19:10.400Z</time>
      </trkpt>
      <trkpt lat="10.1576332108157" lon="-75.6820464677059">
        <ele>52.321895</ele>
        <time>2019-09-10T15:19:10.500Z</time>
      </trkpt>
      <trkpt lat="10.1576367682233" lon="-75.6820506592127">
        <ele>52.321895</ele>
        <time>2019-09-10T15:19:10.700Z</time>
      </trkpt>
      <trkpt lat="10.1576385296004" lon="-75.6820527317454">
        <ele>52.321895</ele>
        <time>2019-09-10T15:19:10.800Z</time>
      </trkpt>
      <trkpt lat="10.1576402906128" lon="-75.6820547911184">
        <ele>52.321895</ele>
        <time>2019-09-10T15:19:10.900Z</time>
      </trkpt>
      <trkpt lat="10.1576420511562" lon="-75.6820568528588">
        <ele>52.321895</ele>
        <time>2019-09-10T15:19:11.000Z</time>
      </trkpt>
      <trkpt lat="10.1576438203498" lon="-75.6820589141814">
        <ele>52.321895</ele>
        <time>2019-09-10T15:19:11.100Z</time>
      </trkpt>
      <trkpt lat="10.1576456017373" lon="-75.6820609758521">
        <ele>52.321895</ele>
        <time>2019-09-10T15:19:11.200Z</time>
      </trkpt>
      <trkpt lat="10.157647379008" lon="-75.682063018236">
        <ele>52.321895</ele>
        <time>2019-09-10T15:19:11.300Z</time>
      </trkpt>
      <trkpt lat="10.1576491514847" lon="-75.682065054632">
        <ele>52.321895</ele>
        <time>2019-09-10T15:19:11.400Z</time>
      </trkpt>
      <trkpt lat="10.1576509049932" lon="-75.682067065405">
        <ele>52.321895</ele>
        <time>2019-09-10T15:19:11.500Z</time>
      </trkpt>
      <trkpt lat="10.1576526543328" lon="-75.6820690760388">
        <ele>52.321895</ele>
        <time>2019-09-10T15:19:11.600Z</time>
      </trkpt>
      <trkpt lat="10.1576544261841" lon="-75.6820710889703">
        <ele>52.321895</ele>
        <time>2019-09-10T15:19:11.700Z</time>
      </trkpt>
      <trkpt lat="10.1576562098123" lon="-75.6820731243915">
        <ele>52.321895</ele>
        <time>2019-09-10T15:19:11.800Z</time>
      </trkpt>
      <trkpt lat="10.1576579771821" lon="-75.6820751685161">
        <ele>52.321895</ele>
        <time>2019-09-10T15:19:11.900Z</time>
      </trkpt>
      <trkpt lat="10.1576597305864" lon="-75.6820772240596">
        <ele>52.321895</ele>
        <time>2019-09-10T15:19:12.000Z</time>
      </trkpt>
      <trkpt lat="10.1576614474614" lon="-75.6820792576704">
        <ele>52.321895</ele>
        <time>2019-09-10T15:19:12.100Z</time>
      </trkpt>
      <trkpt lat="10.1576631578227" lon="-75.6820812876607">
        <ele>52.321895</ele>
        <time>2019-09-10T15:19:12.200Z</time>
      </trkpt>
      <trkpt lat="10.157664897053" lon="-75.6820833672257">
        <ele>52.321895</ele>
        <time>2019-09-10T15:19:12.300Z</time>
      </trkpt>
      <trkpt lat="10.1576666569189" lon="-75.6820854763128">
        <ele>52.321895</ele>
        <time>2019-09-10T15:19:12.400Z</time>
      </trkpt>
      <trkpt lat="10.1576683905734" lon="-75.6820875869317">
        <ele>52.321895</ele>
        <time>2019-09-10T15:19:12.500Z</time>
      </trkpt>
      <trkpt lat="10.1576701059894" lon="-75.6820896881508">
        <ele>52.321895</ele>
        <time>2019-09-10T15:19:12.600Z</time>
      </trkpt>
      <trkpt lat="10.1576718351624" lon="-75.6820918593457">
        <ele>52.321895</ele>
        <time>2019-09-10T15:19:12.700Z</time>
      </trkpt>
      <trkpt lat="10.1576735755391" lon="-75.6820940381299">
        <ele>52.321895</ele>
        <time>2019-09-10T15:19:12.800Z</time>
      </trkpt>
      <trkpt lat="10.1576753005433" lon="-75.6820961967221">
        <ele>52.321895</ele>
        <time>2019-09-10T15:19:12.900Z</time>
      </trkpt>
      <trkpt lat="10.1576770152818" lon="-75.6820983251657">
        <ele>52.321895</ele>
        <time>2019-09-10T15:19:13.000Z</time>
      </trkpt>
      <trkpt lat="10.1576786921883" lon="-75.6821004224857">
        <ele>52.321895</ele>
        <time>2019-09-10T15:19:13.100Z</time>
      </trkpt>
      <trkpt lat="10.1576803570052" lon="-75.6821025088742">
        <ele>52.321895</ele>
        <time>2019-09-10T15:19:13.200Z</time>
      </trkpt>
      <trkpt lat="10.1576820495448" lon="-75.6821046102326">
        <ele>52.321895</ele>
        <time>2019-09-10T15:19:13.300Z</time>
      </trkpt>
      <trkpt lat="10.1576837791347" lon="-75.6821067356125">
        <ele>52.321895</ele>
        <time>2019-09-10T15:19:13.400Z</time>
      </trkpt>
      <trkpt lat="10.157685491893" lon="-75.6821088381546">
        <ele>52.321895</ele>
        <time>2019-09-10T15:19:13.500Z</time>
      </trkpt>
      <trkpt lat="10.157687204964" lon="-75.682110931854">
        <ele>52.321895</ele>
        <time>2019-09-10T15:19:13.600Z</time>
      </trkpt>
      <trkpt lat="10.1576889494053" lon="-75.6821130564681">
        <ele>52.321895</ele>
        <time>2019-09-10T15:19:13.700Z</time>
      </trkpt>
      <trkpt lat="10.157690720527" lon="-75.6821152140159">
        <ele>52.321895</ele>
        <time>2019-09-10T15:19:13.800Z</time>
      </trkpt>
      <trkpt lat="10.1576924969119" lon="-75.6821173765073">
        <ele>52.321895</ele>
        <time>2019-09-10T15:19:13.900Z</time>
      </trkpt>
      <trkpt lat="10.157694275277" lon="-75.6821195354477">
        <ele>52.321895</ele>
        <time>2019-09-10T15:19:14.000Z</time>
      </trkpt>
      <trkpt lat="10.1576960761016" lon="-75.6821216997494">
        <ele>52.321895</ele>
        <time>2019-09-10T15:19:14.100Z</time>
      </trkpt>
      <trkpt lat="10.157697875467" lon="-75.6821238499167">
        <ele>52.321895</ele>
        <time>2019-09-10T15:19:14.200Z</time>
      </trkpt>
      <trkpt lat="10.1576996363752" lon="-75.6821259753662">
        <ele>52.321895</ele>
        <time>2019-09-10T15:19:14.300Z</time>
      </trkpt>
      <trkpt lat="10.1577013806602" lon="-75.6821280828519">
        <ele>52.321895</ele>
        <time>2019-09-10T15:19:14.400Z</time>
      </trkpt>
      <trkpt lat="10.1577031278633" lon="-75.6821301679175">
        <ele>52.321895</ele>
        <time>2019-09-10T15:19:14.500Z</time>
      </trkpt>
      <trkpt lat="10.1577066907946" lon="-75.6821343407641">
        <ele>52.321895</ele>
        <time>2019-09-10T15:19:14.700Z</time>
      </trkpt>
      <trkpt lat="10.1577085036045" lon="-75.6821364405908">
        <ele>52.321895</ele>
        <time>2019-09-10T15:19:14.800Z</time>
      </trkpt>
      <trkpt lat="10.1577103260027" lon="-75.6821385629071">
        <ele>52.321895</ele>
        <time>2019-09-10T15:19:14.900Z</time>
      </trkpt>
      <trkpt lat="10.1577121349564" lon="-75.6821406831345">
        <ele>52.321895</ele>
        <time>2019-09-10T15:19:15.000Z</time>
      </trkpt>
      <trkpt lat="10.1577139070162" lon="-75.6821428084448">
        <ele>52.321895</ele>
        <time>2019-09-10T15:19:15.100Z</time>
      </trkpt>
      <trkpt lat="10.1577156590135" lon="-75.6821449226147">
        <ele>52.321895</ele>
        <time>2019-09-10T15:19:15.200Z</time>
      </trkpt>
      <trkpt lat="10.1577174278424" lon="-75.6821470388734">
        <ele>52.321895</ele>
        <time>2019-09-10T15:19:15.300Z</time>
      </trkpt>
      <trkpt lat="10.1577192051131" lon="-75.6821491459413">
        <ele>52.321895</ele>
        <time>2019-09-10T15:19:15.400Z</time>
      </trkpt>
      <trkpt lat="10.1577209414252" lon="-75.6821512263419">
        <ele>52.321895</ele>
        <time>2019-09-10T15:19:15.500Z</time>
      </trkpt>
      <trkpt lat="10.1577226606452" lon="-75.6821532964375">
        <ele>52.321895</ele>
        <time>2019-09-10T15:19:15.600Z</time>
      </trkpt>
      <trkpt lat="10.1577243651701" lon="-75.6821553446702">
        <ele>52.321895</ele>
        <time>2019-09-10T15:19:15.700Z</time>
      </trkpt>
      <trkpt lat="10.1577260775637" lon="-75.68215739903">
        <ele>52.321895</ele>
        <time>2019-09-10T15:19:15.800Z</time>
      </trkpt>
      <trkpt lat="10.1577277611924" lon="-75.6821594610489">
        <ele>52.321895</ele>
        <time>2019-09-10T15:19:15.900Z</time>
      </trkpt>
      <trkpt lat="10.157729457067" lon="-75.6821615380377">
        <ele>52.321895</ele>
        <time>2019-09-10T15:19:16.000Z</time>
      </trkpt>
      <trkpt lat="10.1577311338171" lon="-75.682163626515">
        <ele>52.321895</ele>
        <time>2019-09-10T15:19:16.100Z</time>
      </trkpt>
      <trkpt lat="10.1577328271383" lon="-75.6821657229299">
        <ele>52.321895</ele>
        <time>2019-09-10T15:19:16.200Z</time>
      </trkpt>
      <trkpt lat="10.1577345272339" lon="-75.6821678056978">
        <ele>52.321895</ele>
        <time>2019-09-10T15:19:16.300Z</time>
      </trkpt>
      <trkpt lat="10.1577362417639" lon="-75.6821698854021">
        <ele>52.321895</ele>
        <time>2019-09-10T15:19:16.400Z</time>
      </trkpt>
      <trkpt lat="10.1577379382117" lon="-75.6821719715817">
        <ele>52.421895</ele>
        <time>2019-09-10T15:19:16.500Z</time>
      </trkpt>
      <trkpt lat="10.157739640079" lon="-75.6821740647937">
        <ele>52.421895</ele>
        <time>2019-09-10T15:19:16.600Z</time>
      </trkpt>
      <trkpt lat="10.1577413505445" lon="-75.682176163367">
        <ele>52.421895</ele>
        <time>2019-09-10T15:19:16.700Z</time>
      </trkpt>
      <trkpt lat="10.1577430786753" lon="-75.6821782665358">
        <ele>52.421895</ele>
        <time>2019-09-10T15:19:16.800Z</time>
      </trkpt>
      <trkpt lat="10.1577447928406" lon="-75.6821803472845">
        <ele>52.421895</ele>
        <time>2019-09-10T15:19:16.900Z</time>
      </trkpt>
      <trkpt lat="10.1577465058074" lon="-75.6821824229503">
        <ele>52.421895</ele>
        <time>2019-09-10T15:19:17.000Z</time>
      </trkpt>
      <trkpt lat="10.1577482211191" lon="-75.6821845257013">
        <ele>52.421895</ele>
        <time>2019-09-10T15:19:17.100Z</time>
      </trkpt>
      <trkpt lat="10.1577499465923" lon="-75.6821866425867">
        <ele>52.421895</ele>
        <time>2019-09-10T15:19:17.200Z</time>
      </trkpt>
      <trkpt lat="10.1577516772765" lon="-75.6821887618394">
        <ele>52.421895</ele>
        <time>2019-09-10T15:19:17.300Z</time>
      </trkpt>
      <trkpt lat="10.1577534125985" lon="-75.6821908774018">
        <ele>52.421895</ele>
        <time>2019-09-10T15:19:17.400Z</time>
      </trkpt>
      <trkpt lat="10.157755154278" lon="-75.6821929686643">
        <ele>52.421895</ele>
        <time>2019-09-10T15:19:17.500Z</time>
      </trkpt>
      <trkpt lat="10.1577568972602" lon="-75.6821950519892">
        <ele>52.421895</ele>
        <time>2019-09-10T15:19:17.600Z</time>
      </trkpt>
      <trkpt lat="10.1577586465999" lon="-75.6821971325986">
        <ele>52.421895</ele>
        <time>2019-09-10T15:19:17.700Z</time>
      </trkpt>
      <trkpt lat="10.1577604014112" lon="-75.6821992230951">
        <ele>52.421895</ele>
        <time>2019-09-10T15:19:17.800Z</time>
      </trkpt>
      <trkpt lat="10.157762184883" lon="-75.6822013390057">
        <ele>52.421895</ele>
        <time>2019-09-10T15:19:17.900Z</time>
      </trkpt>
      <trkpt lat="10.1577639750771" lon="-75.6822034645249">
        <ele>52.421895</ele>
        <time>2019-09-10T15:19:18.000Z</time>
      </trkpt>
      <trkpt lat="10.1577657400499" lon="-75.6822055866323">
        <ele>52.421895</ele>
        <time>2019-09-10T15:19:18.100Z</time>
      </trkpt>
      <trkpt lat="10.1577674860545" lon="-75.6822076930736">
        <ele>52.421895</ele>
        <time>2019-09-10T15:19:18.200Z</time>
      </trkpt>
      <trkpt lat="10.1577709273084" lon="-75.6822118954423">
        <ele>52.421895</ele>
        <time>2019-09-10T15:19:18.400Z</time>
      </trkpt>
      <trkpt lat="10.1577726395456" lon="-75.6822139650506">
        <ele>52.321895</ele>
        <time>2019-09-10T15:19:18.500Z</time>
      </trkpt>
      <trkpt lat="10.157774368875" lon="-75.6822160258161">
        <ele>52.321895</ele>
        <time>2019-09-10T15:19:18.600Z</time>
      </trkpt>
      <trkpt lat="10.1577760822586" lon="-75.6822180642313">
        <ele>52.321895</ele>
        <time>2019-09-10T15:19:18.700Z</time>
      </trkpt>
      <trkpt lat="10.1577778061164" lon="-75.6822201113499">
        <ele>52.321895</ele>
        <time>2019-09-10T15:19:18.800Z</time>
      </trkpt>
      <trkpt lat="10.1577795261701" lon="-75.6822221675897">
        <ele>52.321895</ele>
        <time>2019-09-10T15:19:18.900Z</time>
      </trkpt>
      <trkpt lat="10.1577812580008" lon="-75.6822242485472">
        <ele>52.321895</ele>
        <time>2019-09-10T15:19:19.000Z</time>
      </trkpt>
      <trkpt lat="10.1577829793573" lon="-75.6822263428733">
        <ele>52.321895</ele>
        <time>2019-09-10T15:19:19.100Z</time>
      </trkpt>
      <trkpt lat="10.1577847107711" lon="-75.6822284487575">
        <ele>52.321895</ele>
        <time>2019-09-10T15:19:19.200Z</time>
      </trkpt>
      <trkpt lat="10.1577864359316" lon="-75.6822305622311">
        <ele>52.421895</ele>
        <time>2019-09-10T15:19:19.300Z</time>
      </trkpt>
      <trkpt lat="10.1577881630723" lon="-75.6822326749388">
        <ele>52.321895</ele>
        <time>2019-09-10T15:19:19.400Z</time>
      </trkpt>
      <trkpt lat="10.1577899104318" lon="-75.6822347916849">
        <ele>52.321895</ele>
        <time>2019-09-10T15:19:19.500Z</time>
      </trkpt>
      <trkpt lat="10.1577916668064" lon="-75.6822369040445">
        <ele>52.321895</ele>
        <time>2019-09-10T15:19:19.600Z</time>
      </trkpt>
      <trkpt lat="10.1577934245879" lon="-75.6822390342984">
        <ele>52.321895</ele>
        <time>2019-09-10T15:19:19.700Z</time>
      </trkpt>
      <trkpt lat="10.1577951783048" lon="-75.6822411691476">
        <ele>52.321895</ele>
        <time>2019-09-10T15:19:19.800Z</time>
      </trkpt>
      <trkpt lat="10.1577969367117" lon="-75.6822432988445">
        <ele>52.321895</ele>
        <time>2019-09-10T15:19:19.900Z</time>
      </trkpt>
      <trkpt lat="10.157798697203" lon="-75.6822454122484">
        <ele>52.321895</ele>
        <time>2019-09-10T15:19:20.000Z</time>
      </trkpt>
      <trkpt lat="10.1578004595702" lon="-75.6822475176453">
        <ele>52.321895</ele>
        <time>2019-09-10T15:19:20.100Z</time>
      </trkpt>
      <trkpt lat="10.1578022266273" lon="-75.6822496188644">
        <ele>52.321895</ele>
        <time>2019-09-10T15:19:20.200Z</time>
      </trkpt>
      <trkpt lat="10.1578039858159" lon="-75.6822517396489">
        <ele>52.321895</ele>
        <time>2019-09-10T15:19:20.300Z</time>
      </trkpt>
      <trkpt lat="10.1578057486521" lon="-75.6822538681621">
        <ele>52.421895</ele>
        <time>2019-09-10T15:19:20.400Z</time>
      </trkpt>
      <trkpt lat="10.1578075225878" lon="-75.68225602383">
        <ele>52.421895</ele>
        <time>2019-09-10T15:19:20.500Z</time>
      </trkpt>
      <trkpt lat="10.1578093052259" lon="-75.6822581753202">
        <ele>52.421895</ele>
        <time>2019-09-10T15:19:20.600Z</time>
      </trkpt>
      <trkpt lat="10.1578110482081" lon="-75.682260316436">
        <ele>52.421895</ele>
        <time>2019-09-10T15:19:20.700Z</time>
      </trkpt>
      <trkpt lat="10.157812779674" lon="-75.6822624413285">
        <ele>52.421895</ele>
        <time>2019-09-10T15:19:20.800Z</time>
      </trkpt>
      <trkpt lat="10.1578145109314" lon="-75.6822645540362">
        <ele>52.421895</ele>
        <time>2019-09-10T15:19:20.900Z</time>
      </trkpt>
      <trkpt lat="10.1578162567797" lon="-75.6822666601989">
        <ele>52.421895</ele>
        <time>2019-09-10T15:19:21.000Z</time>
      </trkpt>
      <trkpt lat="10.1578179839205" lon="-75.682268758076">
        <ele>52.421895</ele>
        <time>2019-09-10T15:19:21.100Z</time>
      </trkpt>
      <trkpt lat="10.1578197085078" lon="-75.6822708510095">
        <ele>52.421895</ele>
        <time>2019-09-10T15:19:21.200Z</time>
      </trkpt>
      <trkpt lat="10.1578214442467" lon="-75.6822729563367">
        <ele>52.421895</ele>
        <time>2019-09-10T15:19:21.300Z</time>
      </trkpt>
      <trkpt lat="10.157823191971" lon="-75.682275069114">
        <ele>52.421895</ele>
        <time>2019-09-10T15:19:21.400Z</time>
      </trkpt>
      <trkpt lat="10.1578249169752" lon="-75.6822771549455">
        <ele>52.421895</ele>
        <time>2019-09-10T15:19:21.500Z</time>
      </trkpt>
      <trkpt lat="10.1578266306194" lon="-75.6822792273389">
        <ele>52.421895</ele>
        <time>2019-09-10T15:19:21.600Z</time>
      </trkpt>
      <trkpt lat="10.1578283391567" lon="-75.6822812983397">
        <ele>52.421895</ele>
        <time>2019-09-10T15:19:21.700Z</time>
      </trkpt>
      <trkpt lat="10.1578300550938" lon="-75.6822833801328">
        <ele>52.421895</ele>
        <time>2019-09-10T15:19:21.800Z</time>
      </trkpt>
      <trkpt lat="10.1578317907285" lon="-75.6822854659643">
        <ele>52.421895</ele>
        <time>2019-09-10T15:19:21.900Z</time>
      </trkpt>
      <trkpt lat="10.1578335345966" lon="-75.6822875572964">
        <ele>52.421895</ele>
        <time>2019-09-10T15:19:22.000Z</time>
      </trkpt>
      <trkpt lat="10.1578352499083" lon="-75.6822896051809">
        <ele>52.421895</ele>
        <time>2019-09-10T15:19:22.100Z</time>
      </trkpt>
      <trkpt lat="10.1578369452618" lon="-75.6822916380955">
        <ele>52.421895</ele>
        <time>2019-09-10T15:19:22.200Z</time>
      </trkpt>
      <trkpt lat="10.1578386842837" lon="-75.6822937298453">
        <ele>52.421895</ele>
        <time>2019-09-10T15:19:22.300Z</time>
      </trkpt>
      <trkpt lat="10.1578404415962" lon="-75.6822958640679">
        <ele>52.421895</ele>
        <time>2019-09-10T15:19:22.400Z</time>
      </trkpt>
      <trkpt lat="10.1578421785336" lon="-75.682297987359">
        <ele>52.421895</ele>
        <time>2019-09-10T15:19:22.500Z</time>
      </trkpt>
      <trkpt lat="10.1578438946791" lon="-75.6823000910152">
        <ele>52.421895</ele>
        <time>2019-09-10T15:19:22.600Z</time>
      </trkpt>
      <trkpt lat="10.1578473490648" lon="-75.682304300277">
        <ele>52.421895</ele>
        <time>2019-09-10T15:19:22.800Z</time>
      </trkpt>
      <trkpt lat="10.1578490982482" lon="-75.6823064049079">
        <ele>52.421895</ele>
        <time>2019-09-10T15:19:22.900Z</time>
      </trkpt>
      <trkpt lat="10.1578508526946" lon="-75.6823085105136">
        <ele>52.421895</ele>
        <time>2019-09-10T15:19:23.000Z</time>
      </trkpt>
      <trkpt lat="10.1578544191173" lon="-75.6823127753382">
        <ele>52.421895</ele>
        <time>2019-09-10T15:19:23.200Z</time>
      </trkpt>
      <trkpt lat="10.1578561494888" lon="-75.6823148780892">
        <ele>52.321895</ele>
        <time>2019-09-10T15:19:23.300Z</time>
      </trkpt>
      <trkpt lat="10.1578578572967" lon="-75.6823169638511">
        <ele>52.321895</ele>
        <time>2019-09-10T15:19:23.400Z</time>
      </trkpt>
      <trkpt lat="10.1578595594245" lon="-75.6823190400739">
        <ele>52.321895</ele>
        <time>2019-09-10T15:19:23.500Z</time>
      </trkpt>
      <trkpt lat="10.1578612735898" lon="-75.6823211205441">
        <ele>52.321895</ele>
        <time>2019-09-10T15:19:23.600Z</time>
      </trkpt>
      <trkpt lat="10.1578629888494" lon="-75.682323199204">
        <ele>52.321895</ele>
        <time>2019-09-10T15:19:23.700Z</time>
      </trkpt>
      <trkpt lat="10.1578647127593" lon="-75.6823252828074">
        <ele>52.321895</ele>
        <time>2019-09-10T15:19:23.800Z</time>
      </trkpt>
      <trkpt lat="10.1578664162941" lon="-75.6823273712847">
        <ele>52.321895</ele>
        <time>2019-09-10T15:19:23.900Z</time>
      </trkpt>
      <trkpt lat="10.1578681189951" lon="-75.6823294674211">
        <ele>52.321895</ele>
        <time>2019-09-10T15:19:24.000Z</time>
      </trkpt>
      <trkpt lat="10.1578698038745" lon="-75.6823315719824">
        <ele>52.321895</ele>
        <time>2019-09-10T15:19:24.100Z</time>
      </trkpt>
      <trkpt lat="10.1578714978731" lon="-75.6823336826013">
        <ele>52.321895</ele>
        <time>2019-09-10T15:19:24.200Z</time>
      </trkpt>
      <trkpt lat="10.1578731993235" lon="-75.6823357956571">
        <ele>52.321895</ele>
        <time>2019-09-10T15:19:24.300Z</time>
      </trkpt>
      <trkpt lat="10.1578749179703" lon="-75.6823379080863">
        <ele>52.321895</ele>
        <time>2019-09-10T15:19:24.400Z</time>
      </trkpt>
      <trkpt lat="10.1578766241106" lon="-75.6823400197496">
        <ele>52.321895</ele>
        <time>2019-09-10T15:19:24.500Z</time>
      </trkpt>
      <trkpt lat="10.1578783333775" lon="-75.68234213009">
        <ele>52.321895</ele>
        <time>2019-09-10T15:19:24.600Z</time>
      </trkpt>
      <trkpt lat="10.1578800262819" lon="-75.682344237506">
        <ele>52.321895</ele>
        <time>2019-09-10T15:19:24.700Z</time>
      </trkpt>
      <trkpt lat="10.1578817275759" lon="-75.6823463458272">
        <ele>52.321895</ele>
        <time>2019-09-10T15:19:24.800Z</time>
      </trkpt>
      <trkpt lat="10.1578834125074" lon="-75.6823484484389">
        <ele>52.321895</ele>
        <time>2019-09-10T15:19:24.900Z</time>
      </trkpt>
      <trkpt lat="10.1578851066624" lon="-75.6823505527217">
        <ele>52.321895</ele>
        <time>2019-09-10T15:19:25.000Z</time>
      </trkpt>
      <trkpt lat="10.1578868110309" lon="-75.6823526719744">
        <ele>52.321895</ele>
        <time>2019-09-10T15:19:25.100Z</time>
      </trkpt>
      <trkpt lat="10.1578885361394" lon="-75.6823547936641">
        <ele>52.321895</ele>
        <time>2019-09-10T15:19:25.200Z</time>
      </trkpt>
      <trkpt lat="10.1578902539003" lon="-75.6823569081821">
        <ele>52.321895</ele>
        <time>2019-09-10T15:19:25.300Z</time>
      </trkpt>
      <trkpt lat="10.1578919769764" lon="-75.6823590167122">
        <ele>52.321895</ele>
        <time>2019-09-10T15:19:25.400Z</time>
      </trkpt>
      <trkpt lat="10.1578937063579" lon="-75.6823611259385">
        <ele>52.321895</ele>
        <time>2019-09-10T15:19:25.500Z</time>
      </trkpt>
      <trkpt lat="10.1578954454318" lon="-75.6823632357219">
        <ele>52.321895</ele>
        <time>2019-09-10T15:19:25.600Z</time>
      </trkpt>
      <trkpt lat="10.1578972062879" lon="-75.6823653691089">
        <ele>52.321895</ele>
        <time>2019-09-10T15:19:25.700Z</time>
      </trkpt>
      <trkpt lat="10.1578989698536" lon="-75.6823675066737">
        <ele>52.321895</ele>
        <time>2019-09-10T15:19:25.800Z</time>
      </trkpt>
      <trkpt lat="10.1579007077291" lon="-75.6823696110261">
        <ele>52.421895</ele>
        <time>2019-09-10T15:19:25.900Z</time>
      </trkpt>
      <trkpt lat="10.1579024344008" lon="-75.6823717031937">
        <ele>52.421895</ele>
        <time>2019-09-10T15:19:26.000Z</time>
      </trkpt>
      <trkpt lat="10.1579041359033" lon="-75.682373787563">
        <ele>52.421895</ele>
        <time>2019-09-10T15:19:26.100Z</time>
      </trkpt>
      <trkpt lat="10.1579058428253" lon="-75.6823758779899">
        <ele>52.421895</ele>
        <time>2019-09-10T15:19:26.200Z</time>
      </trkpt>
      <trkpt lat="10.1579075512585" lon="-75.6823779590867">
        <ele>52.421895</ele>
        <time>2019-09-10T15:19:26.300Z</time>
      </trkpt>
      <trkpt lat="10.1579092812131" lon="-75.6823800458234">
        <ele>52.421895</ele>
        <time>2019-09-10T15:19:26.400Z</time>
      </trkpt>
      <trkpt lat="10.1579109976192" lon="-75.6823821291483">
        <ele>52.421895</ele>
        <time>2019-09-10T15:19:26.500Z</time>
      </trkpt>
      <trkpt lat="10.1579127247599" lon="-75.6823842201322">
        <ele>52.421895</ele>
        <time>2019-09-10T15:19:26.600Z</time>
      </trkpt>
      <trkpt lat="10.1579161923295" lon="-75.6823884032141">
        <ele>52.421895</ele>
        <time>2019-09-10T15:19:26.800Z</time>
      </trkpt>
      <trkpt lat="10.1579179458901" lon="-75.6823904978187">
        <ele>52.421895</ele>
        <time>2019-09-10T15:19:26.900Z</time>
      </trkpt>
      <trkpt lat="10.1579197004929" lon="-75.6823926009178">
        <ele>52.421895</ele>
        <time>2019-09-10T15:19:27.000Z</time>
      </trkpt>
      <trkpt lat="10.157921438681" lon="-75.6823947128596">
        <ele>52.421895</ele>
        <time>2019-09-10T15:19:27.100Z</time>
      </trkpt>
      <trkpt lat="10.1579231671766" lon="-75.6823968284916">
        <ele>52.421895</ele>
        <time>2019-09-10T15:19:27.200Z</time>
      </trkpt>
      <trkpt lat="10.1579248928582" lon="-75.6823989682845">
        <ele>52.421895</ele>
        <time>2019-09-10T15:19:27.300Z</time>
      </trkpt>
      <trkpt lat="10.1579266167681" lon="-75.6824011137868">
        <ele>52.321895</ele>
        <time>2019-09-10T15:19:27.400Z</time>
      </trkpt>
      <trkpt lat="10.1579283415639" lon="-75.6824032565039">
        <ele>52.321895</ele>
        <time>2019-09-10T15:19:27.500Z</time>
      </trkpt>
      <trkpt lat="10.1579300663596" lon="-75.6824053903784">
        <ele>52.321895</ele>
        <time>2019-09-10T15:19:27.600Z</time>
      </trkpt>
      <trkpt lat="10.1579317685917" lon="-75.6824075131821">
        <ele>52.321895</ele>
        <time>2019-09-10T15:19:27.700Z</time>
      </trkpt>
      <trkpt lat="10.1579334533668" lon="-75.6824096392583">
        <ele>52.321895</ele>
        <time>2019-09-10T15:19:27.800Z</time>
      </trkpt>
      <trkpt lat="10.1579351320972" lon="-75.6824117546815">
        <ele>52.321895</ele>
        <time>2019-09-10T15:19:27.900Z</time>
      </trkpt>
      <trkpt lat="10.1579368151006" lon="-75.6824138652307">
        <ele>52.321895</ele>
        <time>2019-09-10T15:19:28.000Z</time>
      </trkpt>
      <trkpt lat="10.1579385065458" lon="-75.6824159738304">
        <ele>52.321895</ele>
        <time>2019-09-10T15:19:28.100Z</time>
      </trkpt>
      <trkpt lat="10.1579402074751" lon="-75.6824180965645">
        <ele>52.321895</ele>
        <time>2019-09-10T15:19:28.200Z</time>
      </trkpt>
      <trkpt lat="10.1579419498841" lon="-75.6824202332241">
        <ele>52.321895</ele>
        <time>2019-09-10T15:19:28.300Z</time>
      </trkpt>
      <trkpt lat="10.1579437226734" lon="-75.6824223641046">
        <ele>52.321895</ele>
        <time>2019-09-10T15:19:28.400Z</time>
      </trkpt>
      <trkpt lat="10.1579455240712" lon="-75.6824244848195">
        <ele>52.321895</ele>
        <time>2019-09-10T15:19:28.500Z</time>
      </trkpt>
      <trkpt lat="10.1579473262506" lon="-75.6824265964131">
        <ele>52.321895</ele>
        <time>2019-09-10T15:19:28.600Z</time>
      </trkpt>
      <trkpt lat="10.1579491034692" lon="-75.6824286954738">
        <ele>52.421895</ele>
        <time>2019-09-10T15:19:28.700Z</time>
      </trkpt>
      <trkpt lat="10.1579508550497" lon="-75.6824307975982">
        <ele>52.421895</ele>
        <time>2019-09-10T15:19:28.800Z</time>
      </trkpt>
      <trkpt lat="10.157952623618" lon="-75.6824329378088">
        <ele>52.421895</ele>
        <time>2019-09-10T15:19:28.900Z</time>
      </trkpt>
      <trkpt lat="10.157954406204" lon="-75.6824350837288">
        <ele>52.321895</ele>
        <time>2019-09-10T15:19:29.000Z</time>
      </trkpt>
      <trkpt lat="10.1579561573675" lon="-75.6824371972721">
        <ele>52.321895</ele>
        <time>2019-09-10T15:19:29.100Z</time>
      </trkpt>
      <trkpt lat="10.1579578956598" lon="-75.6824392861672">
        <ele>52.321895</ele>
        <time>2019-09-10T15:19:29.200Z</time>
      </trkpt>
      <trkpt lat="10.1579596288975" lon="-75.6824413624597">
        <ele>52.321895</ele>
        <time>2019-09-10T15:19:29.300Z</time>
      </trkpt>
      <trkpt lat="10.1579613842298" lon="-75.6824434507281">
        <ele>52.421895</ele>
        <time>2019-09-10T15:19:29.400Z</time>
      </trkpt>
      <trkpt lat="10.1579631355497" lon="-75.6824455336353">
        <ele>52.421895</ele>
        <time>2019-09-10T15:19:29.500Z</time>
      </trkpt>
      <trkpt lat="10.1579649015646" lon="-75.6824476232266">
        <ele>52.421895</ele>
        <time>2019-09-10T15:19:29.600Z</time>
      </trkpt>
      <trkpt lat="10.1579666950938" lon="-75.6824497419223">
        <ele>52.421895</ele>
        <time>2019-09-10T15:19:29.700Z</time>
      </trkpt>
      <trkpt lat="10.1579685087375" lon="-75.6824518744739">
        <ele>52.421895</ele>
        <time>2019-09-10T15:19:29.800Z</time>
      </trkpt>
      <trkpt lat="10.1579703249866" lon="-75.6824540108549">
        <ele>52.421895</ele>
        <time>2019-09-10T15:19:29.900Z</time>
      </trkpt>
      <trkpt lat="10.157972131856" lon="-75.6824561329624">
        <ele>52.421895</ele>
        <time>2019-09-10T15:19:30.000Z</time>
      </trkpt>
      <trkpt lat="10.1579739164222" lon="-75.6824582209523">
        <ele>52.421895</ele>
        <time>2019-09-10T15:19:30.100Z</time>
      </trkpt>
      <trkpt lat="10.1579756944225" lon="-75.6824602966878">
        <ele>52.421895</ele>
        <time>2019-09-10T15:19:30.200Z</time>
      </trkpt>
      <trkpt lat="10.1579774722664" lon="-75.6824623654606">
        <ele>52.321895</ele>
        <time>2019-09-10T15:19:30.300Z</time>
      </trkpt>
      <trkpt lat="10.1579792651702" lon="-75.6824644502477">
        <ele>52.421895</ele>
        <time>2019-09-10T15:19:30.400Z</time>
      </trkpt>
      <trkpt lat="10.1579810475478" lon="-75.6824665457574">
        <ele>52.421895</ele>
        <time>2019-09-10T15:19:30.500Z</time>
      </trkpt>
      <trkpt lat="10.1579828391488" lon="-75.6824686615983">
        <ele>52.421895</ele>
        <time>2019-09-10T15:19:30.600Z</time>
      </trkpt>
      <trkpt lat="10.1579846390875" lon="-75.6824708350909">
        <ele>52.421895</ele>
        <time>2019-09-10T15:19:30.700Z</time>
      </trkpt>
      <trkpt lat="10.1579864363686" lon="-75.6824730371307">
        <ele>52.421895</ele>
        <time>2019-09-10T15:19:30.800Z</time>
      </trkpt>
      <trkpt lat="10.1579900562042" lon="-75.6824774463627">
        <ele>52.421895</ele>
        <time>2019-09-10T15:19:31.000Z</time>
      </trkpt>
      <trkpt lat="10.1579917904319" lon="-75.6824795709767">
        <ele>52.421895</ele>
        <time>2019-09-10T15:19:31.100Z</time>
      </trkpt>
      <trkpt lat="10.1579934949047" lon="-75.6824816610555">
        <ele>52.421895</ele>
        <time>2019-09-10T15:19:31.200Z</time>
      </trkpt>
      <trkpt lat="10.1579952143852" lon="-75.6824837448678">
        <ele>52.421895</ele>
        <time>2019-09-10T15:19:31.300Z</time>
      </trkpt>
      <trkpt lat="10.157996970395" lon="-75.6824858423271">
        <ele>52.421895</ele>
        <time>2019-09-10T15:19:31.400Z</time>
      </trkpt>
      <trkpt lat="10.1579986792972" lon="-75.6824878775394">
        <ele>52.421895</ele>
        <time>2019-09-10T15:19:31.500Z</time>
      </trkpt>
      <trkpt lat="10.1580003660004" lon="-75.6824899078778">
        <ele>52.421895</ele>
        <time>2019-09-10T15:19:31.600Z</time>
      </trkpt>
      <trkpt lat="10.1580020562471" lon="-75.6824919284683">
        <ele>52.421895</ele>
        <time>2019-09-10T15:19:31.700Z</time>
      </trkpt>
      <trkpt lat="10.1580037649408" lon="-75.6824939660479">
        <ele>52.421895</ele>
        <time>2019-09-10T15:19:31.800Z</time>
      </trkpt>
      <trkpt lat="10.1580054649321" lon="-75.6824959664464">
        <ele>52.421895</ele>
        <time>2019-09-10T15:19:31.900Z</time>
      </trkpt>
      <trkpt lat="10.158007166591" lon="-75.6824979701871">
        <ele>52.421895</ele>
        <time>2019-09-10T15:19:32.000Z</time>
      </trkpt>
      <trkpt lat="10.1580088425595" lon="-75.6824999471907">
        <ele>52.421895</ele>
        <time>2019-09-10T15:19:32.100Z</time>
      </trkpt>
      <trkpt lat="10.158010520925" lon="-75.6825019344993">
        <ele>52.421895</ele>
        <time>2019-09-10T15:19:32.200Z</time>
      </trkpt>
      <trkpt lat="10.1580122290455" lon="-75.6825039741678">
        <ele>52.421895</ele>
        <time>2019-09-10T15:19:32.300Z</time>
      </trkpt>
      <trkpt lat="10.1580139608762" lon="-75.6825060546379">
        <ele>52.421895</ele>
        <time>2019-09-10T15:19:32.400Z</time>
      </trkpt>
      <trkpt lat="10.1580156800441" lon="-75.6825081461092">
        <ele>52.421895</ele>
        <time>2019-09-10T15:19:32.500Z</time>
      </trkpt>
      <trkpt lat="10.1580173933756" lon="-75.6825102268579">
        <ele>52.421895</ele>
        <time>2019-09-10T15:19:32.600Z</time>
      </trkpt>
      <trkpt lat="10.1580191193699" lon="-75.6825123059356">
        <ele>52.421895</ele>
        <time>2019-09-10T15:19:32.700Z</time>
      </trkpt>
      <trkpt lat="10.1580208339" lon="-75.6825143787467">
        <ele>52.421895</ele>
        <time>2019-09-10T15:19:32.800Z</time>
      </trkpt>
      <trkpt lat="10.1580225093995" lon="-75.682516463673">
        <ele>52.421895</ele>
        <time>2019-09-10T15:19:32.900Z</time>
      </trkpt>
      <trkpt lat="10.158024166452" lon="-75.6825185644744">
        <ele>52.421895</ele>
        <time>2019-09-10T15:19:33.000Z</time>
      </trkpt>
      <trkpt lat="10.1580258230876" lon="-75.6825206669469">
        <ele>52.321895</ele>
        <time>2019-09-10T15:19:33.100Z</time>
      </trkpt>
      <trkpt lat="10.1580275031728" lon="-75.6825227752681">
        <ele>52.321895</ele>
        <time>2019-09-10T15:19:33.200Z</time>
      </trkpt>
      <trkpt lat="10.1580291782033" lon="-75.6825248923623">
        <ele>52.321895</ele>
        <time>2019-09-10T15:19:33.300Z</time>
      </trkpt>
      <trkpt lat="10.1580308538592" lon="-75.6825270256102">
        <ele>52.321895</ele>
        <time>2019-09-10T15:19:33.400Z</time>
      </trkpt>
      <trkpt lat="10.1580325272222" lon="-75.6825292101039">
        <ele>52.321895</ele>
        <time>2019-09-10T15:19:33.500Z</time>
      </trkpt>
      <trkpt lat="10.158034222263" lon="-75.6825314001677">
        <ele>52.321895</ele>
        <time>2019-09-10T15:19:33.600Z</time>
      </trkpt>
      <trkpt lat="10.1580359037031" lon="-75.6825335423279">
        <ele>52.321895</ele>
        <time>2019-09-10T15:19:33.700Z</time>
      </trkpt>
      <trkpt lat="10.1580375898852" lon="-75.6825356629035">
        <ele>52.321895</ele>
        <time>2019-09-10T15:19:33.800Z</time>
      </trkpt>
      <trkpt lat="10.158039275911" lon="-75.6825377816688">
        <ele>52.321895</ele>
        <time>2019-09-10T15:19:33.900Z</time>
      </trkpt>
      <trkpt lat="10.1580409846047" lon="-75.6825399165877">
        <ele>52.421895</ele>
        <time>2019-09-10T15:19:34.000Z</time>
      </trkpt>
      <trkpt lat="10.1580426711516" lon="-75.6825420292258">
        <ele>52.421895</ele>
        <time>2019-09-10T15:19:34.100Z</time>
      </trkpt>
      <trkpt lat="10.1580443463384" lon="-75.6825441481303">
        <ele>52.421895</ele>
        <time>2019-09-10T15:19:34.200Z</time>
      </trkpt>
      <trkpt lat="10.158045995366" lon="-75.6825462652246">
        <ele>52.421895</ele>
        <time>2019-09-10T15:19:34.300Z</time>
      </trkpt>
      <trkpt lat="10.1580476471032" lon="-75.6825483942948">
        <ele>52.421895</ele>
        <time>2019-09-10T15:19:34.400Z</time>
      </trkpt>
      <trkpt lat="10.1580492775274" lon="-75.6825505211369">
        <ele>52.421895</ele>
        <time>2019-09-10T15:19:34.500Z</time>
      </trkpt>
      <trkpt lat="10.1580509549029" lon="-75.6825526541062">
        <ele>52.421895</ele>
        <time>2019-09-10T15:19:34.600Z</time>
      </trkpt>
      <trkpt lat="10.1580526473903" lon="-75.6825547991907">
        <ele>52.421895</ele>
        <time>2019-09-10T15:19:34.700Z</time>
      </trkpt>
      <trkpt lat="10.1580543657765" lon="-75.6825569448322">
        <ele>52.421895</ele>
        <time>2019-09-10T15:19:34.800Z</time>
      </trkpt>
      <trkpt lat="10.1580560990663" lon="-75.682559089499">
        <ele>52.421895</ele>
        <time>2019-09-10T15:19:34.900Z</time>
      </trkpt>
      <trkpt lat="10.1580578682078" lon="-75.6825612251141">
        <ele>52.421895</ele>
        <time>2019-09-10T15:19:35.000Z</time>
      </trkpt>
      <trkpt lat="10.1580596369846" lon="-75.6825633274474">
        <ele>52.421895</ele>
        <time>2019-09-10T15:19:35.100Z</time>
      </trkpt>
      <trkpt lat="10.158061397997" lon="-75.6825654190579">
        <ele>52.421895</ele>
        <time>2019-09-10T15:19:35.200Z</time>
      </trkpt>
      <trkpt lat="10.1580648888598" lon="-75.6825695710859">
        <ele>52.421895</ele>
        <time>2019-09-10T15:19:35.400Z</time>
      </trkpt>
      <trkpt lat="10.1580665884864" lon="-75.6825716363773">
        <ele>52.421895</ele>
        <time>2019-09-10T15:19:35.500Z</time>
      </trkpt>
      <trkpt lat="10.1580682733657" lon="-75.68257369582">
        <ele>52.421895</ele>
        <time>2019-09-10T15:19:35.600Z</time>
      </trkpt>
      <trkpt lat="10.1580699446443" lon="-75.6825757579085">
        <ele>52.421895</ele>
        <time>2019-09-10T15:19:35.700Z</time>
      </trkpt>
      <trkpt lat="10.1580716241042" lon="-75.6825778272383">
        <ele>52.321895</ele>
        <time>2019-09-10T15:19:35.800Z</time>
      </trkpt>
      <trkpt lat="10.15807331581" lon="-75.6825798922511">
        <ele>52.321895</ele>
        <time>2019-09-10T15:19:35.900Z</time>
      </trkpt>
      <trkpt lat="10.1580750337793" lon="-75.6825819607454">
        <ele>52.421895</ele>
        <time>2019-09-10T15:19:36.000Z</time>
      </trkpt>
      <trkpt lat="10.158076783119" lon="-75.6825840591794">
        <ele>52.421895</ele>
        <time>2019-09-10T15:19:36.100Z</time>
      </trkpt>
      <trkpt lat="10.1580785688316" lon="-75.6825861700072">
        <ele>52.421895</ele>
        <time>2019-09-10T15:19:36.200Z</time>
      </trkpt>
      <trkpt lat="10.1580803817197" lon="-75.6825882670487">
        <ele>52.421895</ele>
        <time>2019-09-10T15:19:36.300Z</time>
      </trkpt>
      <trkpt lat="10.1580822082867" lon="-75.6825903636725">
        <ele>52.421895</ele>
        <time>2019-09-10T15:19:36.400Z</time>
      </trkpt>
      <trkpt lat="10.1580840153905" lon="-75.6825924641954">
        <ele>52.421895</ele>
        <time>2019-09-10T15:19:36.500Z</time>
      </trkpt>
      <trkpt lat="10.1580858101964" lon="-75.6825945746054">
        <ele>52.421895</ele>
        <time>2019-09-10T15:19:36.600Z</time>
      </trkpt>
      <trkpt lat="10.1580875772275" lon="-75.6825966508979">
        <ele>52.421895</ele>
        <time>2019-09-10T15:19:36.700Z</time>
      </trkpt>
      <trkpt lat="10.1580893334978" lon="-75.6825987141005">
        <ele>52.421895</ele>
        <time>2019-09-10T15:19:36.800Z</time>
      </trkpt>
      <trkpt lat="10.1580910969072" lon="-75.6826007618457">
        <ele>52.421895</ele>
        <time>2019-09-10T15:19:36.900Z</time>
      </trkpt>
      <trkpt lat="10.1580928646418" lon="-75.6826028187818">
        <ele>52.421895</ele>
        <time>2019-09-10T15:19:37.000Z</time>
      </trkpt>
      <trkpt lat="10.1580945870405" lon="-75.682604845221">
        <ele>52.421895</ele>
        <time>2019-09-10T15:19:37.100Z</time>
      </trkpt>
      <trkpt lat="10.1580962981573" lon="-75.6826068638619">
        <ele>52.421895</ele>
        <time>2019-09-10T15:19:37.200Z</time>
      </trkpt>
      <trkpt lat="10.1580979977578" lon="-75.6826088703877">
        <ele>52.421895</ele>
        <time>2019-09-10T15:19:37.300Z</time>
      </trkpt>
      <trkpt lat="10.1580997145547" lon="-75.6826108872183">
        <ele>52.421895</ele>
        <time>2019-09-10T15:19:37.400Z</time>
      </trkpt>
      <trkpt lat="10.1581014190014" lon="-75.6826129072518">
        <ele>52.421895</ele>
        <time>2019-09-10T15:19:37.500Z</time>
      </trkpt>
      <trkpt lat="10.1581031349645" lon="-75.6826149577821">
        <ele>52.421895</ele>
        <time>2019-09-10T15:19:37.600Z</time>
      </trkpt>
      <trkpt lat="10.1581048764877" lon="-75.6826170520386">
        <ele>52.421895</ele>
        <time>2019-09-10T15:19:37.700Z</time>
      </trkpt>
      <trkpt lat="10.1581066299701" lon="-75.6826191618916">
        <ele>52.421895</ele>
        <time>2019-09-10T15:19:37.800Z</time>
      </trkpt>
      <trkpt lat="10.1581083776162" lon="-75.6826212800998">
        <ele>52.321895</ele>
        <time>2019-09-10T15:19:37.900Z</time>
      </trkpt>
      <trkpt lat="10.1581101078575" lon="-75.6826234023465">
        <ele>52.421895</ele>
        <time>2019-09-10T15:19:38.000Z</time>
      </trkpt>
      <trkpt lat="10.158111832992" lon="-75.6826255433926">
        <ele>52.421895</ele>
        <time>2019-09-10T15:19:38.100Z</time>
      </trkpt>
      <trkpt lat="10.158113564979" lon="-75.6826276985035">
        <ele>52.421895</ele>
        <time>2019-09-10T15:19:38.200Z</time>
      </trkpt>
      <trkpt lat="10.1581153359704" lon="-75.6826299034677">
        <ele>52.421895</ele>
        <time>2019-09-10T15:19:38.300Z</time>
      </trkpt>
      <trkpt lat="10.1581171290566" lon="-75.6826321121917">
        <ele>52.421895</ele>
        <time>2019-09-10T15:19:38.400Z</time>
      </trkpt>
      <trkpt lat="10.1581189264159" lon="-75.6826342841525">
        <ele>52.421895</ele>
        <time>2019-09-10T15:19:38.500Z</time>
      </trkpt>
      <trkpt lat="10.158120717574" lon="-75.6826364114123">
        <ele>52.421895</ele>
        <time>2019-09-10T15:19:38.600Z</time>
      </trkpt>
      <trkpt lat="10.1581243346998" lon="-75.6826406166358">
        <ele>52.421895</ele>
        <time>2019-09-10T15:19:38.800Z</time>
      </trkpt>
      <trkpt lat="10.1581260844043" lon="-75.6826426728756">
        <ele>52.421895</ele>
        <time>2019-09-10T15:19:38.900Z</time>
      </trkpt>
      <trkpt lat="10.1581278064382" lon="-75.6826447235452">
        <ele>52.421895</ele>
        <time>2019-09-10T15:19:39.000Z</time>
      </trkpt>
      <trkpt lat="10.1581294998115" lon="-75.6826467492881">
        <ele>52.421895</ele>
        <time>2019-09-10T15:19:39.100Z</time>
      </trkpt>
      <trkpt lat="10.1581311926898" lon="-75.68264878645">
        <ele>52.421895</ele>
        <time>2019-09-10T15:19:39.200Z</time>
      </trkpt>
      <trkpt lat="10.1581328804873" lon="-75.682650807876">
        <ele>52.421895</ele>
        <time>2019-09-10T15:19:39.300Z</time>
      </trkpt>
      <trkpt lat="10.158134584439" lon="-75.6826528476837">
        <ele>52.421895</ele>
        <time>2019-09-10T15:19:39.400Z</time>
      </trkpt>
      <trkpt lat="10.158136232737" lon="-75.6826548450186">
        <ele>52.421895</ele>
        <time>2019-09-10T15:19:39.500Z</time>
      </trkpt>
      <trkpt lat="10.158137869206" lon="-75.6826568429106">
        <ele>52.421895</ele>
        <time>2019-09-10T15:19:39.600Z</time>
      </trkpt>
      <trkpt lat="10.1581395196926" lon="-75.6826588285481">
        <ele>52.421895</ele>
        <time>2019-09-10T15:19:39.700Z</time>
      </trkpt>
      <trkpt lat="10.1581411913881" lon="-75.6826608346561">
        <ele>52.421895</ele>
        <time>2019-09-10T15:19:39.800Z</time>
      </trkpt>
      <trkpt lat="10.1581428679819" lon="-75.6826628442454">
        <ele>52.421895</ele>
        <time>2019-09-10T15:19:39.900Z</time>
      </trkpt>
      <trkpt lat="10.1581462477458" lon="-75.6826669057577">
        <ele>52.421895</ele>
        <time>2019-09-10T15:19:40.100Z</time>
      </trkpt>
      <trkpt lat="10.1581479439591" lon="-75.6826689526674">
        <ele>52.421895</ele>
        <time>2019-09-10T15:19:40.200Z</time>
      </trkpt>
      <trkpt lat="10.1581496650029" lon="-75.6826710362012">
        <ele>52.421895</ele>
        <time>2019-09-10T15:19:40.300Z</time>
      </trkpt>
      <trkpt lat="10.1581513945407" lon="-75.6826731304576">
        <ele>52.421895</ele>
        <time>2019-09-10T15:19:40.400Z</time>
      </trkpt>
      <trkpt lat="10.1581531283255" lon="-75.6826752291702">
        <ele>52.421895</ele>
        <time>2019-09-10T15:19:40.500Z</time>
      </trkpt>
      <trkpt lat="10.1581548568471" lon="-75.6826773191097">
        <ele>52.421895</ele>
        <time>2019-09-10T15:19:40.600Z</time>
      </trkpt>
      <trkpt lat="10.158156557073" lon="-75.6826794008332">
        <ele>52.421895</ele>
        <time>2019-09-10T15:19:40.700Z</time>
      </trkpt>
      <trkpt lat="10.1581582528955" lon="-75.6826814765687">
        <ele>52.421895</ele>
        <time>2019-09-10T15:19:40.800Z</time>
      </trkpt>
      <trkpt lat="10.1581599561958" lon="-75.6826835676222">
        <ele>52.421895</ele>
        <time>2019-09-10T15:19:40.900Z</time>
      </trkpt>
      <trkpt lat="10.1581616690062" lon="-75.6826856687021">
        <ele>52.421895</ele>
        <time>2019-09-10T15:19:41.000Z</time>
      </trkpt>
      <trkpt lat="10.1581650078896" lon="-75.6826897836883">
        <ele>52.421895</ele>
        <time>2019-09-10T15:19:41.200Z</time>
      </trkpt>
      <trkpt lat="10.1581667006897" lon="-75.6826918622089">
        <ele>52.421895</ele>
        <time>2019-09-10T15:19:41.300Z</time>
      </trkpt>
      <trkpt lat="10.1581684155324" lon="-75.6826939635673">
        <ele>52.421895</ele>
        <time>2019-09-10T15:19:41.400Z</time>
      </trkpt>
      <trkpt lat="10.1581718080893" lon="-75.6826981076578">
        <ele>52.421895</ele>
        <time>2019-09-10T15:19:41.600Z</time>
      </trkpt>
      <trkpt lat="10.1581734867155" lon="-75.6827001350719">
        <ele>52.421895</ele>
        <time>2019-09-10T15:19:41.700Z</time>
      </trkpt>
      <trkpt lat="10.158175172142" lon="-75.682702160397">
        <ele>52.421895</ele>
        <time>2019-09-10T15:19:41.800Z</time>
      </trkpt>
      <trkpt lat="10.1581768930555" lon="-75.6827042242958">
        <ele>52.421895</ele>
        <time>2019-09-10T15:19:41.900Z</time>
      </trkpt>
      <trkpt lat="10.1581786463295" lon="-75.6827063220336">
        <ele>52.421895</ele>
        <time>2019-09-10T15:19:42.000Z</time>
      </trkpt>
      <trkpt lat="10.1581803626835" lon="-75.6827084129479">
        <ele>52.421895</ele>
        <time>2019-09-10T15:19:42.100Z</time>
      </trkpt>
      <trkpt lat="10.1581820634304" lon="-75.6827105007986">
        <ele>52.421895</ele>
        <time>2019-09-10T15:19:42.200Z</time>
      </trkpt>
      <trkpt lat="10.1581837667567" lon="-75.6827126013215">
        <ele>52.421895</ele>
        <time>2019-09-10T15:19:42.300Z</time>
      </trkpt>
      <trkpt lat="10.1581854925947" lon="-75.6827147090857">
        <ele>52.421895</ele>
        <time>2019-09-10T15:19:42.400Z</time>
      </trkpt>
      <trkpt lat="10.1581872241909" lon="-75.6827168490178">
        <ele>52.421895</ele>
        <time>2019-09-10T15:19:42.500Z</time>
      </trkpt>
      <trkpt lat="10.1581889686843" lon="-75.6827189900639">
        <ele>52.421895</ele>
        <time>2019-09-10T15:19:42.600Z</time>
      </trkpt>
      <trkpt lat="10.1581907206034" lon="-75.6827211301352">
        <ele>52.421895</ele>
        <time>2019-09-10T15:19:42.700Z</time>
      </trkpt>
      <trkpt lat="10.1581924846903" lon="-75.682723255167">
        <ele>52.421895</ele>
        <time>2019-09-10T15:19:42.800Z</time>
      </trkpt>
      <trkpt lat="10.1581942466146" lon="-75.6827253761604">
        <ele>52.421895</ele>
        <time>2019-09-10T15:19:42.900Z</time>
      </trkpt>
      <trkpt lat="10.1581977601975" lon="-75.6827295973981">
        <ele>52.421895</ele>
        <time>2019-09-10T15:19:43.100Z</time>
      </trkpt>
      <trkpt lat="10.1581995058113" lon="-75.6827317058586">
        <ele>52.421895</ele>
        <time>2019-09-10T15:19:43.200Z</time>
      </trkpt>
      <trkpt lat="10.1582012309457" lon="-75.6827337820119">
        <ele>52.421895</ele>
        <time>2019-09-10T15:19:43.300Z</time>
      </trkpt>
      <trkpt lat="10.1582029557936" lon="-75.6827358592792">
        <ele>52.421895</ele>
        <time>2019-09-10T15:19:43.400Z</time>
      </trkpt>
      <trkpt lat="10.1582046648782" lon="-75.6827379325081">
        <ele>52.421895</ele>
        <time>2019-09-10T15:19:43.500Z</time>
      </trkpt>
      <trkpt lat="10.1582063846193" lon="-75.6827400220298">
        <ele>52.421895</ele>
        <time>2019-09-10T15:19:43.600Z</time>
      </trkpt>
      <trkpt lat="10.1582081059236" lon="-75.6827420848146">
        <ele>52.421895</ele>
        <time>2019-09-10T15:19:43.700Z</time>
      </trkpt>
      <trkpt lat="10.1582098429653" lon="-75.6827441527518">
        <ele>52.421895</ele>
        <time>2019-09-10T15:19:43.800Z</time>
      </trkpt>
      <trkpt lat="10.1582115832118" lon="-75.6827462428306">
        <ele>52.421895</ele>
        <time>2019-09-10T15:19:43.900Z</time>
      </trkpt>
      <trkpt lat="10.1582133341669" lon="-75.6827483585323">
        <ele>52.421895</ele>
        <time>2019-09-10T15:19:44.000Z</time>
      </trkpt>
      <trkpt lat="10.1582150638089" lon="-75.68275044694">
        <ele>52.421895</ele>
        <time>2019-09-10T15:19:44.100Z</time>
      </trkpt>
      <trkpt lat="10.1582167941023" lon="-75.682752528385">
        <ele>52.421895</ele>
        <time>2019-09-10T15:19:44.200Z</time>
      </trkpt>
      <trkpt lat="10.1582185180903" lon="-75.6827545819789">
        <ele>52.421895</ele>
        <time>2019-09-10T15:19:44.300Z</time>
      </trkpt>
      <trkpt lat="10.1582202643034" lon="-75.6827566412823">
        <ele>52.421895</ele>
        <time>2019-09-10T15:19:44.400Z</time>
      </trkpt>
      <trkpt lat="10.1582220076244" lon="-75.6827587003072">
        <ele>52.421895</ele>
        <time>2019-09-10T15:19:44.500Z</time>
      </trkpt>
      <trkpt lat="10.1582237636341" lon="-75.6827607791063">
        <ele>52.421895</ele>
        <time>2019-09-10T15:19:44.600Z</time>
      </trkpt>
      <trkpt lat="10.1582255089353" lon="-75.6827628630579">
        <ele>52.421895</ele>
        <time>2019-09-10T15:19:44.700Z</time>
      </trkpt>
      <trkpt lat="10.158227261115" lon="-75.6827649599601">
        <ele>52.421895</ele>
        <time>2019-09-10T15:19:44.800Z</time>
      </trkpt>
      <trkpt lat="10.1582289938054" lon="-75.6827670869415">
        <ele>52.421895</ele>
        <time>2019-09-10T15:19:44.900Z</time>
      </trkpt>
      <trkpt lat="10.1582307348856" lon="-75.6827692247847">
        <ele>52.421895</ele>
        <time>2019-09-10T15:19:45.000Z</time>
      </trkpt>
      <trkpt lat="10.1582324835739" lon="-75.6827713617925">
        <ele>52.421895</ele>
        <time>2019-09-10T15:19:45.100Z</time>
      </trkpt>
      <trkpt lat="10.1582342421111" lon="-75.6827734873813">
        <ele>52.421895</ele>
        <time>2019-09-10T15:19:45.200Z</time>
      </trkpt>
      <trkpt lat="10.1582359848328" lon="-75.6827755813592">
        <ele>52.421895</ele>
        <time>2019-09-10T15:19:45.300Z</time>
      </trkpt>
      <trkpt lat="10.1582377287009" lon="-75.6827776673995">
        <ele>52.421895</ele>
        <time>2019-09-10T15:19:45.400Z</time>
      </trkpt>
      <trkpt lat="10.1582394641011" lon="-75.682779740907">
        <ele>52.421895</ele>
        <time>2019-09-10T15:19:45.500Z</time>
      </trkpt>
      <trkpt lat="10.1582412011427" lon="-75.6827818272259">
        <ele>52.421895</ele>
        <time>2019-09-10T15:19:45.600Z</time>
      </trkpt>
      <trkpt lat="10.1582429333642" lon="-75.6827839363826">
        <ele>52.421895</ele>
        <time>2019-09-10T15:19:45.700Z</time>
      </trkpt>
      <trkpt lat="10.1582446777274" lon="-75.6827860586292">
        <ele>52.421895</ele>
        <time>2019-09-10T15:19:45.800Z</time>
      </trkpt>
      <trkpt lat="10.1582464229764" lon="-75.6827881786479">
        <ele>52.421895</ele>
        <time>2019-09-10T15:19:45.900Z</time>
      </trkpt>
      <trkpt lat="10.1582481822431" lon="-75.6827902951851">
        <ele>52.421895</ele>
        <time>2019-09-10T15:19:46.000Z</time>
      </trkpt>
      <trkpt lat="10.1582499103218" lon="-75.6827923780226">
        <ele>52.421895</ele>
        <time>2019-09-10T15:19:46.100Z</time>
      </trkpt>
      <trkpt lat="10.1582516300889" lon="-75.6827944532011">
        <ele>52.421895</ele>
        <time>2019-09-10T15:19:46.200Z</time>
      </trkpt>
      <trkpt lat="10.1582533488399" lon="-75.6827965501033">
        <ele>52.421895</ele>
        <time>2019-09-10T15:19:46.300Z</time>
      </trkpt>
      <trkpt lat="10.1582550840056" lon="-75.6827986670583">
        <ele>52.421895</ele>
        <time>2019-09-10T15:19:46.400Z</time>
      </trkpt>
      <trkpt lat="10.1582568282906" lon="-75.6828008335881">
        <ele>52.421895</ele>
        <time>2019-09-10T15:19:46.500Z</time>
      </trkpt>
      <trkpt lat="10.1582585744776" lon="-75.6828030058274">
        <ele>52.421895</ele>
        <time>2019-09-10T15:19:46.600Z</time>
      </trkpt>
      <trkpt lat="10.1582602969805" lon="-75.6828051440884">
        <ele>52.421895</ele>
        <time>2019-09-10T15:19:46.700Z</time>
      </trkpt>
      <trkpt lat="10.1582620129436" lon="-75.6828072567264">
        <ele>52.421895</ele>
        <time>2019-09-10T15:19:46.800Z</time>
      </trkpt>
      <trkpt lat="10.1582637104076" lon="-75.6828093054465">
        <ele>52.421895</ele>
        <time>2019-09-10T15:19:46.900Z</time>
      </trkpt>
      <trkpt lat="10.1582654170951" lon="-75.6828113417728">
        <ele>52.421895</ele>
        <time>2019-09-10T15:19:47.000Z</time>
      </trkpt>
      <trkpt lat="10.1582671077586" lon="-75.6828133640344">
        <ele>52.421895</ele>
        <time>2019-09-10T15:19:47.100Z</time>
      </trkpt>
      <trkpt lat="10.1582688106942" lon="-75.6828154135899">
        <ele>52.421895</ele>
        <time>2019-09-10T15:19:47.200Z</time>
      </trkpt>
      <trkpt lat="10.1582705200653" lon="-75.6828174624492">
        <ele>52.421895</ele>
        <time>2019-09-10T15:19:47.300Z</time>
      </trkpt>
      <trkpt lat="10.1582722481701" lon="-75.6828195301079">
        <ele>52.421895</ele>
        <time>2019-09-10T15:19:47.400Z</time>
      </trkpt>
      <trkpt lat="10.1582757131342" lon="-75.6828236987073">
        <ele>52.421895</ele>
        <time>2019-09-10T15:19:47.600Z</time>
      </trkpt>
      <trkpt lat="10.1582774423332" lon="-75.6828258010405">
        <ele>52.421895</ele>
        <time>2019-09-10T15:19:47.700Z</time>
      </trkpt>
      <trkpt lat="10.1582791733301" lon="-75.6828279096402">
        <ele>52.421895</ele>
        <time>2019-09-10T15:19:47.800Z</time>
      </trkpt>
      <trkpt lat="10.1582809573492" lon="-75.682830056535">
        <ele>52.421895</ele>
        <time>2019-09-10T15:19:47.900Z</time>
      </trkpt>
      <trkpt lat="10.1582827633847" lon="-75.6828322074682">
        <ele>52.421895</ele>
        <time>2019-09-10T15:19:48.000Z</time>
      </trkpt>
      <trkpt lat="10.1582845789565" lon="-75.6828343830496">
        <ele>52.321895</ele>
        <time>2019-09-10T15:19:48.100Z</time>
      </trkpt>
      <trkpt lat="10.1582863724335" lon="-75.6828365480476">
        <ele>52.321895</ele>
        <time>2019-09-10T15:19:48.200Z</time>
      </trkpt>
      <trkpt lat="10.158288156192" lon="-75.682838683245">
        <ele>52.321895</ele>
        <time>2019-09-10T15:19:48.300Z</time>
      </trkpt>
      <trkpt lat="10.1582899028871" lon="-75.682840765804">
        <ele>52.321895</ele>
        <time>2019-09-10T15:19:48.400Z</time>
      </trkpt>
      <trkpt lat="10.1582916198403" lon="-75.6828427684306">
        <ele>52.321895</ele>
        <time>2019-09-10T15:19:48.500Z</time>
      </trkpt>
      <trkpt lat="10.1582933272442" lon="-75.682844627346">
        <ele>52.321895</ele>
        <time>2019-09-10T15:19:48.600Z</time>
      </trkpt>
      <trkpt lat="10.1582950023269" lon="-75.6828462077514">
        <ele>52.321895</ele>
        <time>2019-09-10T15:19:48.700Z</time>
      </trkpt>
      <trkpt lat="10.1582966478109" lon="-75.6828475209263">
        <ele>52.321895</ele>
        <time>2019-09-10T15:19:48.800Z</time>
      </trkpt>
      <trkpt lat="10.1582983058535" lon="-75.6828484764943">
        <ele>52.321895</ele>
        <time>2019-09-10T15:19:48.900Z</time>
      </trkpt>
      <trkpt lat="10.1582999861211" lon="-75.6828491378165">
        <ele>52.321895</ele>
        <time>2019-09-10T15:19:49.000Z</time>
      </trkpt>
      <trkpt lat="10.1583017442414" lon="-75.682849387083">
        <ele>52.321895</ele>
        <time>2019-09-10T15:19:49.100Z</time>
      </trkpt>
      <trkpt lat="10.1583035437501" lon="-75.6828493631311">
        <ele>52.321895</ele>
        <time>2019-09-10T15:19:49.200Z</time>
      </trkpt>
      <trkpt lat="10.1583054645454" lon="-75.6828489769769">
        <ele>52.321895</ele>
        <time>2019-09-10T15:19:49.300Z</time>
      </trkpt>
      <trkpt lat="10.1583074080347" lon="-75.6828483522788">
        <ele>52.321895</ele>
        <time>2019-09-10T15:19:49.400Z</time>
      </trkpt>
      <trkpt lat="10.1583094559008" lon="-75.6828473845956">
        <ele>52.321895</ele>
        <time>2019-09-10T15:19:49.500Z</time>
      </trkpt>
      <trkpt lat="10.1583114992593" lon="-75.6828461612402">
        <ele>52.421895</ele>
        <time>2019-09-10T15:19:49.600Z</time>
      </trkpt>
      <trkpt lat="10.1583136442066" lon="-75.682844613699">
        <ele>52.421895</ele>
        <time>2019-09-10T15:19:49.700Z</time>
      </trkpt>
      <trkpt lat="10.1583157566632" lon="-75.6828428381974">
        <ele>52.421895</ele>
        <time>2019-09-10T15:19:49.800Z</time>
      </trkpt>
      <trkpt lat="10.1583179509459" lon="-75.6828408639788">
        <ele>52.421895</ele>
        <time>2019-09-10T15:19:49.900Z</time>
      </trkpt>
      <trkpt lat="10.1583200941736" lon="-75.6828387688868">
        <ele>52.421895</ele>
        <time>2019-09-10T15:19:50.000Z</time>
      </trkpt>
      <trkpt lat="10.1583222711297" lon="-75.6828365969261">
        <ele>52.421895</ele>
        <time>2019-09-10T15:19:50.100Z</time>
      </trkpt>
      <trkpt lat="10.1583243750663" lon="-75.6828343584015">
        <ele>52.421895</ele>
        <time>2019-09-10T15:19:50.200Z</time>
      </trkpt>
      <trkpt lat="10.1583265038334" lon="-75.682832151627">
        <ele>52.421895</ele>
        <time>2019-09-10T15:19:50.300Z</time>
      </trkpt>
      <trkpt lat="10.1583285743674" lon="-75.6828299054433">
        <ele>52.421895</ele>
        <time>2019-09-10T15:19:50.400Z</time>
      </trkpt>
      <trkpt lat="10.1583306745521" lon="-75.6828276891995">
        <ele>52.321895</ele>
        <time>2019-09-10T15:19:50.500Z</time>
      </trkpt>
      <trkpt lat="10.1583327326057" lon="-75.6828254180892">
        <ele>52.321895</ele>
        <time>2019-09-10T15:19:50.600Z</time>
      </trkpt>
      <trkpt lat="10.1583347783222" lon="-75.6828231865273">
        <ele>52.321895</ele>
        <time>2019-09-10T15:19:50.700Z</time>
      </trkpt>
      <trkpt lat="10.1583367818945" lon="-75.6828209145814">
        <ele>52.421895</ele>
        <time>2019-09-10T15:19:50.800Z</time>
      </trkpt>
      <trkpt lat="10.1583387844898" lon="-75.6828187080855">
        <ele>52.421895</ele>
        <time>2019-09-10T15:19:50.900Z</time>
      </trkpt>
      <trkpt lat="10.1583407707095" lon="-75.6828164769414">
        <ele>52.421895</ele>
        <time>2019-09-10T15:19:51.000Z</time>
      </trkpt>
      <trkpt lat="10.1583427096912" lon="-75.6828143343634">
        <ele>52.421895</ele>
        <time>2019-09-10T15:19:51.100Z</time>
      </trkpt>
      <trkpt lat="10.158344626474" lon="-75.6828121880256">
        <ele>52.421895</ele>
        <time>2019-09-10T15:19:51.200Z</time>
      </trkpt>
      <trkpt lat="10.1583465484157" lon="-75.6828100643864">
        <ele>52.421895</ele>
        <time>2019-09-10T15:19:51.300Z</time>
      </trkpt>
      <trkpt lat="10.1583484900812" lon="-75.6828078970211">
        <ele>52.421895</ele>
        <time>2019-09-10T15:19:51.400Z</time>
      </trkpt>
      <trkpt lat="10.1583504054179" lon="-75.6828057690649">
        <ele>52.421895</ele>
        <time>2019-09-10T15:19:51.500Z</time>
      </trkpt>
      <trkpt lat="10.1583523210282" lon="-75.6828036399948">
        <ele>52.421895</ele>
        <time>2019-09-10T15:19:51.600Z</time>
      </trkpt>
      <trkpt lat="10.1583541893876" lon="-75.6828015323699">
        <ele>52.421895</ele>
        <time>2019-09-10T15:19:51.700Z</time>
      </trkpt>
      <trkpt lat="10.1583560720643" lon="-75.6827994194533">
        <ele>52.421895</ele>
        <time>2019-09-10T15:19:51.800Z</time>
      </trkpt>
      <trkpt lat="10.1583579119585" lon="-75.6827973516553">
        <ele>52.421895</ele>
        <time>2019-09-10T15:19:51.900Z</time>
      </trkpt>
      <trkpt lat="10.1583597718891" lon="-75.6827952930482">
        <ele>52.421895</ele>
        <time>2019-09-10T15:19:52.000Z</time>
      </trkpt>
      <trkpt lat="10.1583616333308" lon="-75.682793234441">
        <ele>52.421895</ele>
        <time>2019-09-10T15:19:52.100Z</time>
      </trkpt>
      <trkpt lat="10.1583635351971" lon="-75.6827911628832">
        <ele>52.421895</ele>
        <time>2019-09-10T15:19:52.200Z</time>
      </trkpt>
      <trkpt lat="10.1583653956097" lon="-75.6827891005162">
        <ele>52.421895</ele>
        <time>2019-09-10T15:19:52.300Z</time>
      </trkpt>
      <trkpt lat="10.1583672701702" lon="-75.6827870476185">
        <ele>52.421895</ele>
        <time>2019-09-10T15:19:52.400Z</time>
      </trkpt>
      <trkpt lat="10.1583691496421" lon="-75.6827849665913">
        <ele>52.421895</ele>
        <time>2019-09-10T15:19:52.500Z</time>
      </trkpt>
      <trkpt lat="10.1583710701898" lon="-75.682782889324">
        <ele>52.421895</ele>
        <time>2019-09-10T15:19:52.600Z</time>
      </trkpt>
      <trkpt lat="10.158372980537" lon="-75.6827808053724">
        <ele>52.421895</ele>
        <time>2019-09-10T15:19:52.700Z</time>
      </trkpt>
      <trkpt lat="10.1583749153109" lon="-75.6827787481578">
        <ele>52.421895</ele>
        <time>2019-09-10T15:19:52.800Z</time>
      </trkpt>
      <trkpt lat="10.1583788057418" lon="-75.6827747273081">
        <ele>52.421895</ele>
        <time>2019-09-10T15:19:53.000Z</time>
      </trkpt>
      <trkpt lat="10.1583807466776" lon="-75.6827727324797">
        <ele>52.421895</ele>
        <time>2019-09-10T15:19:53.100Z</time>
      </trkpt>
      <trkpt lat="10.1583827203127" lon="-75.6827707511592">
        <ele>52.421895</ele>
        <time>2019-09-10T15:19:53.200Z</time>
      </trkpt>
      <trkpt lat="10.1583846309856" lon="-75.6827688269331">
        <ele>52.421895</ele>
        <time>2019-09-10T15:19:53.300Z</time>
      </trkpt>
      <trkpt lat="10.158386557539" lon="-75.6827669472687">
        <ele>52.421895</ele>
        <time>2019-09-10T15:19:53.400Z</time>
      </trkpt>
      <trkpt lat="10.1583883964562" lon="-75.6827651162043">
        <ele>52.421895</ele>
        <time>2019-09-10T15:19:53.500Z</time>
      </trkpt>
      <trkpt lat="10.1583901491179" lon="-75.6827632908493">
        <ele>52.421895</ele>
        <time>2019-09-10T15:19:53.600Z</time>
      </trkpt>
      <trkpt lat="10.1583916746051" lon="-75.6827614493408">
        <ele>52.421895</ele>
        <time>2019-09-10T15:19:53.700Z</time>
      </trkpt>
      <trkpt lat="10.1583930184362" lon="-75.6827595966919">
        <ele>52.321895</ele>
        <time>2019-09-10T15:19:53.800Z</time>
      </trkpt>
      <trkpt lat="10.1583940170371" lon="-75.6827577647919">
        <ele>52.321895</ele>
        <time>2019-09-10T15:19:53.900Z</time>
      </trkpt>
      <trkpt lat="10.1583947591907" lon="-75.6827559445894">
        <ele>52.321895</ele>
        <time>2019-09-10T15:19:54.000Z</time>
      </trkpt>
      <trkpt lat="10.1583951177871" lon="-75.682754086788">
        <ele>52.321895</ele>
        <time>2019-09-10T15:19:54.100Z</time>
      </trkpt>
      <trkpt lat="10.158395232169" lon="-75.6827522064273">
        <ele>52.321895</ele>
        <time>2019-09-10T15:19:54.200Z</time>
      </trkpt>
      <trkpt lat="10.1583949880848" lon="-75.6827502161944">
        <ele>52.321895</ele>
        <time>2019-09-10T15:19:54.300Z</time>
      </trkpt>
      <trkpt lat="10.1583945135823" lon="-75.6827482240119">
        <ele>52.321895</ele>
        <time>2019-09-10T15:19:54.400Z</time>
      </trkpt>
      <trkpt lat="10.1583936644725" lon="-75.6827461680506">
        <ele>52.321895</ele>
        <time>2019-09-10T15:19:54.500Z</time>
      </trkpt>
      <trkpt lat="10.1583925445981" lon="-75.6827441456498">
        <ele>52.321895</ele>
        <time>2019-09-10T15:19:54.600Z</time>
      </trkpt>
      <trkpt lat="10.1583910907493" lon="-75.6827420434559">
        <ele>52.321895</ele>
        <time>2019-09-10T15:19:54.700Z</time>
      </trkpt>
      <trkpt lat="10.1583894205781" lon="-75.6827399916722">
        <ele>52.321895</ele>
        <time>2019-09-10T15:19:54.800Z</time>
      </trkpt>
      <trkpt lat="10.1583875551499" lon="-75.6827378911493">
        <ele>52.421895</ele>
        <time>2019-09-10T15:19:54.900Z</time>
      </trkpt>
      <trkpt lat="10.158385592484" lon="-75.682735847721">
        <ele>52.421895</ele>
        <time>2019-09-10T15:19:55.000Z</time>
      </trkpt>
      <trkpt lat="10.1583835576716" lon="-75.6827337335511">
        <ele>52.421895</ele>
        <time>2019-09-10T15:19:55.100Z</time>
      </trkpt>
      <trkpt lat="10.1583814806499" lon="-75.6827316667279">
        <ele>52.421895</ele>
        <time>2019-09-10T15:19:55.200Z</time>
      </trkpt>
      <trkpt lat="10.1583794311424" lon="-75.6827295561787">
        <ele>52.421895</ele>
        <time>2019-09-10T15:19:55.300Z</time>
      </trkpt>
      <trkpt lat="10.1583773710826" lon="-75.6827274996603">
        <ele>52.421895</ele>
        <time>2019-09-10T15:19:55.400Z</time>
      </trkpt>
      <trkpt lat="10.1583753697901" lon="-75.6827254219753">
        <ele>52.421895</ele>
        <time>2019-09-10T15:19:55.500Z</time>
      </trkpt>
      <trkpt lat="10.158373339394" lon="-75.6827234072335">
        <ele>52.421895</ele>
        <time>2019-09-10T15:19:55.600Z</time>
      </trkpt>
      <trkpt lat="10.1583713540993" lon="-75.682721374667">
        <ele>52.421895</ele>
        <time>2019-09-10T15:19:55.700Z</time>
      </trkpt>
      <trkpt lat="10.1583693272206" lon="-75.6827193802565">
        <ele>52.421895</ele>
        <time>2019-09-10T15:19:55.800Z</time>
      </trkpt>
      <trkpt lat="10.1583673548232" lon="-75.6827173624511">
        <ele>52.421895</ele>
        <time>2019-09-10T15:19:55.900Z</time>
      </trkpt>
      <trkpt lat="10.1583653565531" lon="-75.682715375421">
        <ele>52.421895</ele>
        <time>2019-09-10T15:19:56.000Z</time>
      </trkpt>
      <trkpt lat="10.1583633858492" lon="-75.6827133874162">
        <ele>52.421895</ele>
        <time>2019-09-10T15:19:56.100Z</time>
      </trkpt>
      <trkpt lat="10.1583613852471" lon="-75.6827114299082">
        <ele>52.421895</ele>
        <time>2019-09-10T15:19:56.200Z</time>
      </trkpt>
      <trkpt lat="10.1583593912631" lon="-75.682709487022">
        <ele>52.421895</ele>
        <time>2019-09-10T15:19:56.300Z</time>
      </trkpt>
      <trkpt lat="10.1583573775553" lon="-75.6827075661381">
        <ele>52.421895</ele>
        <time>2019-09-10T15:19:56.400Z</time>
      </trkpt>
      <trkpt lat="10.1583553539075" lon="-75.6827056605723">
        <ele>52.421895</ele>
        <time>2019-09-10T15:19:56.500Z</time>
      </trkpt>
      <trkpt lat="10.158353325244" lon="-75.6827037550064">
        <ele>52.421895</ele>
        <time>2019-09-10T15:19:56.600Z</time>
      </trkpt>
      <trkpt lat="10.1583513007494" lon="-75.6827018786841">
        <ele>52.421895</ele>
        <time>2019-09-10T15:19:56.700Z</time>
      </trkpt>
      <trkpt lat="10.158349291914" lon="-75.6827000041721">
        <ele>52.421895</ele>
        <time>2019-09-10T15:19:56.800Z</time>
      </trkpt>
      <trkpt lat="10.1583472607102" lon="-75.6826981346733">
        <ele>52.421895</ele>
        <time>2019-09-10T15:19:56.900Z</time>
      </trkpt>
      <trkpt lat="10.1583452404625" lon="-75.6826962341206">
        <ele>52.421895</ele>
        <time>2019-09-10T15:19:57.000Z</time>
      </trkpt>
      <trkpt lat="10.1583432654857" lon="-75.6826943779903">
        <ele>52.421895</ele>
        <time>2019-09-10T15:19:57.100Z</time>
      </trkpt>
      <trkpt lat="10.1583413365091" lon="-75.6826925219993">
        <ele>52.421895</ele>
        <time>2019-09-10T15:19:57.200Z</time>
      </trkpt>
      <trkpt lat="10.1583394231265" lon="-75.6826906980369">
        <ele>52.421895</ele>
        <time>2019-09-10T15:19:57.300Z</time>
      </trkpt>
      <trkpt lat="10.158337522602" lon="-75.6826888427421">
        <ele>52.421895</ele>
        <time>2019-09-10T15:19:57.400Z</time>
      </trkpt>
      <trkpt lat="10.1583337113005" lon="-75.6826851374442">
        <ele>52.421895</ele>
        <time>2019-09-10T15:19:57.600Z</time>
      </trkpt>
      <trkpt lat="10.1583318250282" lon="-75.6826832856308">
        <ele>52.421895</ele>
        <time>2019-09-10T15:19:57.700Z</time>
      </trkpt>
      <trkpt lat="10.1583299669867" lon="-75.6826813949652">
        <ele>52.421895</ele>
        <time>2019-09-10T15:19:57.800Z</time>
      </trkpt>
      <trkpt lat="10.1583281148466" lon="-75.6826795235168">
        <ele>52.421895</ele>
        <time>2019-09-10T15:19:57.900Z</time>
      </trkpt>
      <trkpt lat="10.1583262785871" lon="-75.6826776166977">
        <ele>52.421895</ele>
        <time>2019-09-10T15:19:58.000Z</time>
      </trkpt>
      <trkpt lat="10.1583244577522" lon="-75.6826757406539">
        <ele>52.421895</ele>
        <time>2019-09-10T15:19:58.100Z</time>
      </trkpt>
      <trkpt lat="10.1583226568625" lon="-75.6826738265935">
        <ele>52.421895</ele>
        <time>2019-09-10T15:19:58.200Z</time>
      </trkpt>
      <trkpt lat="10.1583208782238" lon="-75.6826719307755">
        <ele>52.421895</ele>
        <time>2019-09-10T15:19:58.300Z</time>
      </trkpt>
      <trkpt lat="10.1583191156612" lon="-75.6826699896996">
        <ele>52.421895</ele>
        <time>2019-09-10T15:19:58.400Z</time>
      </trkpt>
      <trkpt lat="10.1583173633382" lon="-75.6826680537762">
        <ele>52.421895</ele>
        <time>2019-09-10T15:19:58.500Z</time>
      </trkpt>
      <trkpt lat="10.1583156132169" lon="-75.6826660731518">
        <ele>52.421895</ele>
        <time>2019-09-10T15:19:58.600Z</time>
      </trkpt>
      <trkpt lat="10.1583138628871" lon="-75.6826641065923">
        <ele>52.421895</ele>
        <time>2019-09-10T15:19:58.700Z</time>
      </trkpt>
      <trkpt lat="10.1583121142248" lon="-75.6826621116247">
        <ele>52.421895</ele>
        <time>2019-09-10T15:19:58.800Z</time>
      </trkpt>
      <trkpt lat="10.1583103781472" lon="-75.6826601449259">
        <ele>52.421895</ele>
        <time>2019-09-10T15:19:58.900Z</time>
      </trkpt>
      <trkpt lat="10.1583086528564" lon="-75.6826581533004">
        <ele>52.421895</ele>
        <time>2019-09-10T15:19:59.000Z</time>
      </trkpt>
      <trkpt lat="10.1583069677295" lon="-75.6826562077684">
        <ele>52.421895</ele>
        <time>2019-09-10T15:19:59.100Z</time>
      </trkpt>
      <trkpt lat="10.1583053049579" lon="-75.6826542547166">
        <ele>52.421895</ele>
        <time>2019-09-10T15:19:59.200Z</time>
      </trkpt>
      <trkpt lat="10.1583035887994" lon="-75.6826522579387">
        <ele>52.421895</ele>
        <time>2019-09-10T15:19:59.300Z</time>
      </trkpt>
      <trkpt lat="10.1583018306792" lon="-75.682650170645">
        <ele>52.421895</ele>
        <time>2019-09-10T15:19:59.400Z</time>
      </trkpt>
      <trkpt lat="10.1583000584892" lon="-75.6826480666407">
        <ele>52.421895</ele>
        <time>2019-09-10T15:19:59.500Z</time>
      </trkpt>
      <trkpt lat="10.1582983114033" lon="-75.6826459534456">
        <ele>52.421895</ele>
        <time>2019-09-10T15:19:59.600Z</time>
      </trkpt>
      <trkpt lat="10.1582965958961" lon="-75.6826438713044">
        <ele>52.421895</ele>
        <time>2019-09-10T15:19:59.700Z</time>
      </trkpt>
      <trkpt lat="10.1582949037213" lon="-75.6826417909735">
        <ele>52.421895</ele>
        <time>2019-09-10T15:19:59.800Z</time>
      </trkpt>
      <trkpt lat="10.158293226424" lon="-75.6826397332019">
        <ele>52.421895</ele>
        <time>2019-09-10T15:19:59.900Z</time>
      </trkpt>
      <trkpt lat="10.158291546899" lon="-75.6826376566308">
        <ele>52.421895</ele>
        <time>2019-09-10T15:20:00.000Z</time>
      </trkpt>
      <trkpt lat="10.158289879672" lon="-75.6826356081893">
        <ele>52.421895</ele>
        <time>2019-09-10T15:20:00.100Z</time>
      </trkpt>
      <trkpt lat="10.1582882084585" lon="-75.6826335394166">
        <ele>52.421895</ele>
        <time>2019-09-10T15:20:00.200Z</time>
      </trkpt>
      <trkpt lat="10.1582865452831" lon="-75.682631477328">
        <ele>52.421895</ele>
        <time>2019-09-10T15:20:00.300Z</time>
      </trkpt>
      <trkpt lat="10.1582848783296" lon="-75.6826293840464">
        <ele>52.421895</ele>
        <time>2019-09-10T15:20:00.400Z</time>
      </trkpt>
      <trkpt lat="10.1582832091094" lon="-75.6826273133241">
        <ele>52.421895</ele>
        <time>2019-09-10T15:20:00.500Z</time>
      </trkpt>
      <trkpt lat="10.1582815297537" lon="-75.6826252260304">
        <ele>52.421895</ele>
        <time>2019-09-10T15:20:00.600Z</time>
      </trkpt>
      <trkpt lat="10.1582798383345" lon="-75.682623145978">
        <ele>52.421895</ele>
        <time>2019-09-10T15:20:00.700Z</time>
      </trkpt>
      <trkpt lat="10.158278141079" lon="-75.6826210408597">
        <ele>52.421895</ele>
        <time>2019-09-10T15:20:00.800Z</time>
      </trkpt>
      <trkpt lat="10.158276441244" lon="-75.6826189466033">
        <ele>52.421895</ele>
        <time>2019-09-10T15:20:00.900Z</time>
      </trkpt>
      <trkpt lat="10.1582747435195" lon="-75.6826168374466">
        <ele>52.421895</ele>
        <time>2019-09-10T15:20:01.000Z</time>
      </trkpt>
      <trkpt lat="10.1582730480357" lon="-75.6826147200738">
        <ele>52.421895</ele>
        <time>2019-09-10T15:20:01.100Z</time>
      </trkpt>
      <trkpt lat="10.1582696698873" lon="-75.6826104695925">
        <ele>52.421895</ele>
        <time>2019-09-10T15:20:01.300Z</time>
      </trkpt>
      <trkpt lat="10.1582679852424" lon="-75.6826083575114">
        <ele>52.421895</ele>
        <time>2019-09-10T15:20:01.400Z</time>
      </trkpt>
      <trkpt lat="10.1582662989822" lon="-75.6826062667364">
        <ele>52.421895</ele>
        <time>2019-09-10T15:20:01.500Z</time>
      </trkpt>
      <trkpt lat="10.1582646095692" lon="-75.6826041698341">
        <ele>52.421895</ele>
        <time>2019-09-10T15:20:01.600Z</time>
      </trkpt>
      <trkpt lat="10.1582629353204" lon="-75.6826021064923">
        <ele>52.421895</ele>
        <time>2019-09-10T15:20:01.700Z</time>
      </trkpt>
      <trkpt lat="10.1582612633122" lon="-75.6826000418972">
        <ele>52.421895</ele>
        <time>2019-09-10T15:20:01.800Z</time>
      </trkpt>
      <trkpt lat="10.1582595483392" lon="-75.6825979637944">
        <ele>52.421895</ele>
        <time>2019-09-10T15:20:01.900Z</time>
      </trkpt>
      <trkpt lat="10.1582578091871" lon="-75.6825958497637">
        <ele>52.421895</ele>
        <time>2019-09-10T15:20:02.000Z</time>
      </trkpt>
      <trkpt lat="10.1582560471065" lon="-75.6825937134523">
        <ele>52.421895</ele>
        <time>2019-09-10T15:20:02.100Z</time>
      </trkpt>
      <trkpt lat="10.1582543006589" lon="-75.6825915633546">
        <ele>52.421895</ele>
        <time>2019-09-10T15:20:02.200Z</time>
      </trkpt>
      <trkpt lat="10.1582525883175" lon="-75.6825894477922">
        <ele>52.421895</ele>
        <time>2019-09-10T15:20:02.300Z</time>
      </trkpt>
      <trkpt lat="10.1582509042458" lon="-75.682587340585">
        <ele>52.421895</ele>
        <time>2019-09-10T15:20:02.400Z</time>
      </trkpt>
      <trkpt lat="10.1582492157969" lon="-75.6825852406191">
        <ele>52.421895</ele>
        <time>2019-09-10T15:20:02.500Z</time>
      </trkpt>
      <trkpt lat="10.1582475211469" lon="-75.6825831206005">
        <ele>52.421895</ele>
        <time>2019-09-10T15:20:02.600Z</time>
      </trkpt>
      <trkpt lat="10.1582458295714" lon="-75.6825809895808">
        <ele>52.421895</ele>
        <time>2019-09-10T15:20:02.700Z</time>
      </trkpt>
      <trkpt lat="10.1582441375008" lon="-75.6825788415719">
        <ele>52.421895</ele>
        <time>2019-09-10T15:20:02.800Z</time>
      </trkpt>
      <trkpt lat="10.1582424164309" lon="-75.682576713755">
        <ele>52.421895</ele>
        <time>2019-09-10T15:20:02.900Z</time>
      </trkpt>
      <trkpt lat="10.1582406863199" lon="-75.6825745856596">
        <ele>52.421895</ele>
        <time>2019-09-10T15:20:03.000Z</time>
      </trkpt>
      <trkpt lat="10.1582389583194" lon="-75.6825724600708">
        <ele>52.421895</ele>
        <time>2019-09-10T15:20:03.100Z</time>
      </trkpt>
      <trkpt lat="10.1582372397247" lon="-75.6825703163789">
        <ele>52.421895</ele>
        <time>2019-09-10T15:20:03.200Z</time>
      </trkpt>
      <trkpt lat="10.1582355278523" lon="-75.6825681722692">
        <ele>52.421895</ele>
        <time>2019-09-10T15:20:03.300Z</time>
      </trkpt>
      <trkpt lat="10.1582338233013" lon="-75.6825660237033">
        <ele>52.421895</ele>
        <time>2019-09-10T15:20:03.400Z</time>
      </trkpt>
      <trkpt lat="10.1582321270098" lon="-75.6825639077231">
        <ele>52.421895</ele>
        <time>2019-09-10T15:20:03.500Z</time>
      </trkpt>
      <trkpt lat="10.1582304293635" lon="-75.6825617982878">
        <ele>52.421895</ele>
        <time>2019-09-10T15:20:03.600Z</time>
      </trkpt>
      <trkpt lat="10.1582287410449" lon="-75.6825597135008">
        <ele>52.421895</ele>
        <time>2019-09-10T15:20:03.700Z</time>
      </trkpt>
      <trkpt lat="10.1582270499905" lon="-75.6825576206369">
        <ele>52.421895</ele>
        <time>2019-09-10T15:20:03.800Z</time>
      </trkpt>
      <trkpt lat="10.1582253653195" lon="-75.6825555242917">
        <ele>52.421895</ele>
        <time>2019-09-10T15:20:03.900Z</time>
      </trkpt>
      <trkpt lat="10.1582236714512" lon="-75.6825534084507">
        <ele>52.421895</ele>
        <time>2019-09-10T15:20:04.000Z</time>
      </trkpt>
      <trkpt lat="10.1582219559571" lon="-75.6825513056997">
        <ele>52.421895</ele>
        <time>2019-09-10T15:20:04.100Z</time>
      </trkpt>
      <trkpt lat="10.1582202250905" lon="-75.6825492021132">
        <ele>52.421895</ele>
        <time>2019-09-10T15:20:04.200Z</time>
      </trkpt>
      <trkpt lat="10.1582184824209" lon="-75.6825471081353">
        <ele>52.421895</ele>
        <time>2019-09-10T15:20:04.300Z</time>
      </trkpt>
      <trkpt lat="10.1582167431124" lon="-75.6825450074732">
        <ele>52.421895</ele>
        <time>2019-09-10T15:20:04.400Z</time>
      </trkpt>
      <trkpt lat="10.1582149934862" lon="-75.6825428906574">
        <ele>52.421895</ele>
        <time>2019-09-10T15:20:04.500Z</time>
      </trkpt>
      <trkpt lat="10.1582132471949" lon="-75.6825407576881">
        <ele>52.421895</ele>
        <time>2019-09-10T15:20:04.600Z</time>
      </trkpt>
      <trkpt lat="10.1582114981158" lon="-75.682538608983">
        <ele>52.421895</ele>
        <time>2019-09-10T15:20:04.700Z</time>
      </trkpt>
      <trkpt lat="10.1582097583904" lon="-75.6825364601386">
        <ele>52.421895</ele>
        <time>2019-09-10T15:20:04.800Z</time>
      </trkpt>
      <trkpt lat="10.1582080347411" lon="-75.6825343487538">
        <ele>52.421895</ele>
        <time>2019-09-10T15:20:04.900Z</time>
      </trkpt>
      <trkpt lat="10.1582063222173" lon="-75.6825322613208">
        <ele>52.421895</ele>
        <time>2019-09-10T15:20:05.000Z</time>
      </trkpt>
      <trkpt lat="10.1582046059676" lon="-75.6825301919911">
        <ele>52.421895</ele>
        <time>2019-09-10T15:20:05.100Z</time>
      </trkpt>
      <trkpt lat="10.1582028799212" lon="-75.682528107204">
        <ele>52.421895</ele>
        <time>2019-09-10T15:20:05.200Z</time>
      </trkpt>
      <trkpt lat="10.1581994074272" lon="-75.6825239316419">
        <ele>52.421895</ele>
        <time>2019-09-10T15:20:05.400Z</time>
      </trkpt>
      <trkpt lat="10.158197663064" lon="-75.6825218352966">
        <ele>52.421895</ele>
        <time>2019-09-10T15:20:05.500Z</time>
      </trkpt>
      <trkpt lat="10.1581959228176" lon="-75.6825197314316">
        <ele>52.421895</ele>
        <time>2019-09-10T15:20:05.600Z</time>
      </trkpt>
      <trkpt lat="10.1581941838218" lon="-75.68251763815">
        <ele>52.421895</ele>
        <time>2019-09-10T15:20:05.700Z</time>
      </trkpt>
      <trkpt lat="10.1581924475618" lon="-75.6825155412477">
        <ele>52.421895</ele>
        <time>2019-09-10T15:20:05.800Z</time>
      </trkpt>
      <trkpt lat="10.1581907107285" lon="-75.6825134570176">
        <ele>52.421895</ele>
        <time>2019-09-10T15:20:05.900Z</time>
      </trkpt>
      <trkpt lat="10.1581889775951" lon="-75.682511369724">
        <ele>52.421895</ele>
        <time>2019-09-10T15:20:06.000Z</time>
      </trkpt>
      <trkpt lat="10.1581872401626" lon="-75.6825092886968">
        <ele>52.421895</ele>
        <time>2019-09-10T15:20:06.100Z</time>
      </trkpt>
      <trkpt lat="10.158185506456" lon="-75.6825072050238">
        <ele>52.421895</ele>
        <time>2019-09-10T15:20:06.200Z</time>
      </trkpt>
      <trkpt lat="10.1581837683461" lon="-75.6825051464166">
        <ele>52.421895</ele>
        <time>2019-09-10T15:20:06.300Z</time>
      </trkpt>
      <trkpt lat="10.1581820316171" lon="-75.6825030898983">
        <ele>52.421895</ele>
        <time>2019-09-10T15:20:06.400Z</time>
      </trkpt>
      <trkpt lat="10.1581802885046" lon="-75.6825010285061">
        <ele>52.421895</ele>
        <time>2019-09-10T15:20:06.500Z</time>
      </trkpt>
      <trkpt lat="10.1581785518277" lon="-75.6824989445545">
        <ele>52.421895</ele>
        <time>2019-09-10T15:20:06.600Z</time>
      </trkpt>
      <trkpt lat="10.1581768159064" lon="-75.682496847513">
        <ele>52.421895</ele>
        <time>2019-09-10T15:20:06.700Z</time>
      </trkpt>
      <trkpt lat="10.1581750859256" lon="-75.6824947428125">
        <ele>52.421895</ele>
        <time>2019-09-10T15:20:06.800Z</time>
      </trkpt>
      <trkpt lat="10.1581716094973" lon="-75.6824905306263">
        <ele>52.421895</ele>
        <time>2019-09-10T15:20:07.000Z</time>
      </trkpt>
      <trkpt lat="10.1581698864994" lon="-75.6824884784249">
        <ele>52.421895</ele>
        <time>2019-09-10T15:20:07.100Z</time>
      </trkpt>
      <trkpt lat="10.1581681768677" lon="-75.6824864515679">
        <ele>52.421895</ele>
        <time>2019-09-10T15:20:07.200Z</time>
      </trkpt>
      <trkpt lat="10.1581646577872" lon="-75.6824822776768">
        <ele>52.421895</ele>
        <time>2019-09-10T15:20:07.400Z</time>
      </trkpt>
      <trkpt lat="10.1581611268516" lon="-75.6824781012791">
        <ele>52.421895</ele>
        <time>2019-09-10T15:20:07.600Z</time>
      </trkpt>
      <trkpt lat="10.158159388924" lon="-75.6824760309746">
        <ele>52.421895</ele>
        <time>2019-09-10T15:20:07.700Z</time>
      </trkpt>
      <trkpt lat="10.1581576673852" lon="-75.682473961227">
        <ele>52.421895</ele>
        <time>2019-09-10T15:20:07.800Z</time>
      </trkpt>
      <trkpt lat="10.1581559360756" lon="-75.6824719008096">
        <ele>52.421895</ele>
        <time>2019-09-10T15:20:07.900Z</time>
      </trkpt>
      <trkpt lat="10.1581541976009" lon="-75.682469835379">
        <ele>52.421895</ele>
        <time>2019-09-10T15:20:08.000Z</time>
      </trkpt>
      <trkpt lat="10.15815080692" lon="-75.6824657192788">
        <ele>52.421895</ele>
        <time>2019-09-10T15:20:08.200Z</time>
      </trkpt>
      <trkpt lat="10.1581491206597" lon="-75.6824636745971">
        <ele>52.421895</ele>
        <time>2019-09-10T15:20:08.300Z</time>
      </trkpt>
      <trkpt lat="10.1581474143891" lon="-75.6824616232312">
        <ele>52.421895</ele>
        <time>2019-09-10T15:20:08.400Z</time>
      </trkpt>
      <trkpt lat="10.1581457269824" lon="-75.682459581474">
        <ele>52.421895</ele>
        <time>2019-09-10T15:20:08.500Z</time>
      </trkpt>
      <trkpt lat="10.1581440375695" lon="-75.6824575260697">
        <ele>52.421895</ele>
        <time>2019-09-10T15:20:08.600Z</time>
      </trkpt>
      <trkpt lat="10.1581423375781" lon="-75.6824554577147">
        <ele>52.421895</ele>
        <time>2019-09-10T15:20:08.700Z</time>
      </trkpt>
      <trkpt lat="10.1581388687319" lon="-75.6824512458767">
        <ele>52.421895</ele>
        <time>2019-09-10T15:20:08.900Z</time>
      </trkpt>
      <trkpt lat="10.1581371052703" lon="-75.6824491114452">
        <ele>52.421895</ele>
        <time>2019-09-10T15:20:09.000Z</time>
      </trkpt>
      <trkpt lat="10.158135330084" lon="-75.6824469932369">
        <ele>52.421895</ele>
        <time>2019-09-10T15:20:09.100Z</time>
      </trkpt>
      <trkpt lat="10.1581335693061" lon="-75.6824448941762">
        <ele>52.421895</ele>
        <time>2019-09-10T15:20:09.200Z</time>
      </trkpt>
      <trkpt lat="10.1581318037341" lon="-75.6824427954636">
        <ele>52.421895</ele>
        <time>2019-09-10T15:20:09.300Z</time>
      </trkpt>
      <trkpt lat="10.1581300442069" lon="-75.6824406900667">
        <ele>52.421895</ele>
        <time>2019-09-10T15:20:09.400Z</time>
      </trkpt>
      <trkpt lat="10.1581265242666" lon="-75.6824364727977">
        <ele>52.421895</ele>
        <time>2019-09-10T15:20:09.600Z</time>
      </trkpt>
      <trkpt lat="10.1581247713052" lon="-75.6824343689327">
        <ele>52.421895</ele>
        <time>2019-09-10T15:20:09.700Z</time>
      </trkpt>
      <trkpt lat="10.1581230248837" lon="-75.6824322642322">
        <ele>52.421895</ele>
        <time>2019-09-10T15:20:09.800Z</time>
      </trkpt>
      <trkpt lat="10.158121266555" lon="-75.682430135162">
        <ele>52.421895</ele>
        <time>2019-09-10T15:20:09.900Z</time>
      </trkpt>
      <trkpt lat="10.1581177827531" lon="-75.6824258888583">
        <ele>52.421895</ele>
        <time>2019-09-10T15:20:10.100Z</time>
      </trkpt>
      <trkpt lat="10.1581160706462" lon="-75.6824237975959">
        <ele>52.421895</ele>
        <time>2019-09-10T15:20:10.200Z</time>
      </trkpt>
      <trkpt lat="10.1581127581045" lon="-75.6824196355415">
        <ele>52.421895</ele>
        <time>2019-09-10T15:20:10.400Z</time>
      </trkpt>
      <trkpt lat="10.1581111231207" lon="-75.6824175547232">
        <ele>52.421895</ele>
        <time>2019-09-10T15:20:10.500Z</time>
      </trkpt>
      <trkpt lat="10.1581078047687" lon="-75.682413373939">
        <ele>52.421895</ele>
        <time>2019-09-10T15:20:10.700Z</time>
      </trkpt>
      <trkpt lat="10.158106124006" lon="-75.6824112750175">
        <ele>52.421895</ele>
        <time>2019-09-10T15:20:10.800Z</time>
      </trkpt>
      <trkpt lat="10.1581044476207" lon="-75.6824091742161">
        <ele>52.321895</ele>
        <time>2019-09-10T15:20:10.900Z</time>
      </trkpt>
      <trkpt lat="10.1581010379716" lon="-75.6824049356411">
        <ele>52.321895</ele>
        <time>2019-09-10T15:20:11.100Z</time>
      </trkpt>
      <trkpt lat="10.1580993039523" lon="-75.6824027976586">
        <ele>52.321895</ele>
        <time>2019-09-10T15:20:11.200Z</time>
      </trkpt>
      <trkpt lat="10.1580975550035" lon="-75.6824006637145">
        <ele>52.321895</ele>
        <time>2019-09-10T15:20:11.300Z</time>
      </trkpt>
      <trkpt lat="10.1580958056638" lon="-75.682398540493">
        <ele>52.321895</ele>
        <time>2019-09-10T15:20:11.400Z</time>
      </trkpt>
      <trkpt lat="10.1580940479604" lon="-75.6823964273675">
        <ele>52.321895</ele>
        <time>2019-09-10T15:20:11.500Z</time>
      </trkpt>
      <trkpt lat="10.1580905743721" lon="-75.6823922084971">
        <ele>52.321895</ele>
        <time>2019-09-10T15:20:11.700Z</time>
      </trkpt>
      <trkpt lat="10.1580888707591" lon="-75.6823900992708">
        <ele>52.321895</ele>
        <time>2019-09-10T15:20:11.800Z</time>
      </trkpt>
      <trkpt lat="10.1580871666251" lon="-75.6823879994441">
        <ele>52.321895</ele>
        <time>2019-09-10T15:20:11.900Z</time>
      </trkpt>
      <trkpt lat="10.158085440292" lon="-75.6823858923763">
        <ele>52.321895</ele>
        <time>2019-09-10T15:20:12.000Z</time>
      </trkpt>
      <trkpt lat="10.1580836930628" lon="-75.6823837724969">
        <ele>52.321895</ele>
        <time>2019-09-10T15:20:12.100Z</time>
      </trkpt>
      <trkpt lat="10.1580819278816" lon="-75.6823816424519">
        <ele>52.321895</ele>
        <time>2019-09-10T15:20:12.200Z</time>
      </trkpt>
      <trkpt lat="10.1580784467895" lon="-75.6823773561821">
        <ele>52.321895</ele>
        <time>2019-09-10T15:20:12.400Z</time>
      </trkpt>
      <trkpt lat="10.1580750297408" lon="-75.6823731570162">
        <ele>52.321895</ele>
        <time>2019-09-10T15:20:12.600Z</time>
      </trkpt>
      <trkpt lat="10.158073329515" lon="-75.6823710589999">
        <ele>52.321895</ele>
        <time>2019-09-10T15:20:12.700Z</time>
      </trkpt>
      <trkpt lat="10.1580716075592" lon="-75.6823689469188">
        <ele>52.321895</ele>
        <time>2019-09-10T15:20:12.800Z</time>
      </trkpt>
      <trkpt lat="10.1580698906581" lon="-75.6823668233492">
        <ele>52.321895</ele>
        <time>2019-09-10T15:20:12.900Z</time>
      </trkpt>
      <trkpt lat="10.1580664481536" lon="-75.6823625731464">
        <ele>52.321895</ele>
        <time>2019-09-10T15:20:13.100Z</time>
      </trkpt>
      <trkpt lat="10.1580647234099" lon="-75.6823604617616">
        <ele>52.321895</ele>
        <time>2019-09-10T15:20:13.200Z</time>
      </trkpt>
      <trkpt lat="10.1580630008028" lon="-75.6823583617957">
        <ele>52.321895</ele>
        <time>2019-09-10T15:20:13.300Z</time>
      </trkpt>
      <trkpt lat="10.1580612756422" lon="-75.6823562655898">
        <ele>52.321895</ele>
        <time>2019-09-10T15:20:13.400Z</time>
      </trkpt>
      <trkpt lat="10.1580595506901" lon="-75.682354176625">
        <ele>52.321895</ele>
        <time>2019-09-10T15:20:13.500Z</time>
      </trkpt>
      <trkpt lat="10.1580578246958" lon="-75.6823520917683">
        <ele>52.321895</ele>
        <time>2019-09-10T15:20:13.600Z</time>
      </trkpt>
      <trkpt lat="10.1580560926046" lon="-75.6823500351804">
        <ele>52.321895</ele>
        <time>2019-09-10T15:20:13.700Z</time>
      </trkpt>
      <trkpt lat="10.1580526401991" lon="-75.6823459193587">
        <ele>52.321895</ele>
        <time>2019-09-10T15:20:13.900Z</time>
      </trkpt>
      <trkpt lat="10.1580509282746" lon="-75.6823438400722">
        <ele>52.421895</ele>
        <time>2019-09-10T15:20:14.000Z</time>
      </trkpt>
      <trkpt lat="10.1580474824871" lon="-75.6823396584524">
        <ele>52.421895</ele>
        <time>2019-09-10T15:20:14.200Z</time>
      </trkpt>
      <trkpt lat="10.1580440079347" lon="-75.6823354463359">
        <ele>52.421895</ele>
        <time>2019-09-10T15:20:14.400Z</time>
      </trkpt>
      <trkpt lat="10.158040518062" lon="-75.6823312228004">
        <ele>52.421895</ele>
        <time>2019-09-10T15:20:14.600Z</time>
      </trkpt>
      <trkpt lat="10.1580387740376" lon="-75.6823291100927">
        <ele>52.421895</ele>
        <time>2019-09-10T15:20:14.700Z</time>
      </trkpt>
      <trkpt lat="10.1580370330355" lon="-75.682327000936">
        <ele>52.421895</ele>
        <time>2019-09-10T15:20:14.800Z</time>
      </trkpt>
      <trkpt lat="10.1580352972445" lon="-75.6823248912222">
        <ele>52.421895</ele>
        <time>2019-09-10T15:20:14.900Z</time>
      </trkpt>
      <trkpt lat="10.1580335771386" lon="-75.6823227855469">
        <ele>52.421895</ele>
        <time>2019-09-10T15:20:15.000Z</time>
      </trkpt>
      <trkpt lat="10.1580318392111" lon="-75.6823206579389">
        <ele>52.421895</ele>
        <time>2019-09-10T15:20:15.100Z</time>
      </trkpt>
      <trkpt lat="10.1580301077452" lon="-75.6823185349263">
        <ele>52.421895</ele>
        <time>2019-09-10T15:20:15.200Z</time>
      </trkpt>
      <trkpt lat="10.1580284456901" lon="-75.6823164406003">
        <ele>52.421895</ele>
        <time>2019-09-10T15:20:15.300Z</time>
      </trkpt>
      <trkpt lat="10.158026812452" lon="-75.6823143762141">
        <ele>52.421895</ele>
        <time>2019-09-10T15:20:15.400Z</time>
      </trkpt>
      <trkpt lat="10.1580235840683" lon="-75.6823103300895">
        <ele>52.421895</ele>
        <time>2019-09-10T15:20:15.600Z</time>
      </trkpt>
      <trkpt lat="10.1580219247229" lon="-75.682308300517">
        <ele>52.421895</ele>
        <time>2019-09-10T15:20:15.700Z</time>
      </trkpt>
      <trkpt lat="10.1580202195206" lon="-75.6823062352953">
        <ele>52.421895</ele>
        <time>2019-09-10T15:20:15.800Z</time>
      </trkpt>
      <trkpt lat="10.1580185134845" lon="-75.6823041745297">
        <ele>52.421895</ele>
        <time>2019-09-10T15:20:15.900Z</time>
      </trkpt>
      <trkpt lat="10.1580167981728" lon="-75.682302106314">
        <ele>52.421895</ele>
        <time>2019-09-10T15:20:16.000Z</time>
      </trkpt>
      <trkpt lat="10.158015074784" lon="-75.6823000348257">
        <ele>52.421895</ele>
        <time>2019-09-10T15:20:16.100Z</time>
      </trkpt>
      <trkpt lat="10.1580133273203" lon="-75.6822979443292">
        <ele>52.421895</ele>
        <time>2019-09-10T15:20:16.200Z</time>
      </trkpt>
      <trkpt lat="10.1580115581787" lon="-75.6822958037009">
        <ele>52.421895</ele>
        <time>2019-09-10T15:20:16.300Z</time>
      </trkpt>
      <trkpt lat="10.1580097827839" lon="-75.6822936284676">
        <ele>52.321895</ele>
        <time>2019-09-10T15:20:16.400Z</time>
      </trkpt>
      <trkpt lat="10.1580063132863" lon="-75.6822893662193">
        <ele>52.321895</ele>
        <time>2019-09-10T15:20:16.600Z</time>
      </trkpt>
      <trkpt lat="10.1580046027687" lon="-75.6822872536508">
        <ele>52.321895</ele>
        <time>2019-09-10T15:20:16.700Z</time>
      </trkpt>
      <trkpt lat="10.158002887926" lon="-75.6822851408038">
        <ele>52.321895</ele>
        <time>2019-09-10T15:20:16.800Z</time>
      </trkpt>
      <trkpt lat="10.1580011702693" lon="-75.6822830248932">
        <ele>52.321895</ele>
        <time>2019-09-10T15:20:16.900Z</time>
      </trkpt>
      <trkpt lat="10.1579994397936" lon="-75.682280906685">
        <ele>52.321895</ele>
        <time>2019-09-10T15:20:17.000Z</time>
      </trkpt>
      <trkpt lat="10.1579977062954" lon="-75.6822787967623">
        <ele>52.321895</ele>
        <time>2019-09-10T15:20:17.100Z</time>
      </trkpt>
      <trkpt lat="10.1579959683157" lon="-75.6822766962395">
        <ele>52.321895</ele>
        <time>2019-09-10T15:20:17.200Z</time>
      </trkpt>
      <trkpt lat="10.1579942347654" lon="-75.6822745998246">
        <ele>52.321895</ele>
        <time>2019-09-10T15:20:17.300Z</time>
      </trkpt>
      <trkpt lat="10.1579925029348" lon="-75.6822725058467">
        <ele>52.321895</ele>
        <time>2019-09-10T15:20:17.400Z</time>
      </trkpt>
      <trkpt lat="10.1579907920524" lon="-75.6822704111028">
        <ele>52.321895</ele>
        <time>2019-09-10T15:20:17.500Z</time>
      </trkpt>
      <trkpt lat="10.1579890904457" lon="-75.6822683169161">
        <ele>52.321895</ele>
        <time>2019-09-10T15:20:17.600Z</time>
      </trkpt>
      <trkpt lat="10.1579873643993" lon="-75.6822661989863">
        <ele>52.321895</ele>
        <time>2019-09-10T15:20:17.700Z</time>
      </trkpt>
      <trkpt lat="10.1579856137048" lon="-75.6822640782018">
        <ele>52.321895</ele>
        <time>2019-09-10T15:20:17.800Z</time>
      </trkpt>
      <trkpt lat="10.1579838679607" lon="-75.6822619776789">
        <ele>52.321895</ele>
        <time>2019-09-10T15:20:17.900Z</time>
      </trkpt>
      <trkpt lat="10.1579821264896" lon="-75.6822598895497">
        <ele>52.321895</ele>
        <time>2019-09-10T15:20:18.000Z</time>
      </trkpt>
      <trkpt lat="10.1579803573481" lon="-75.6822577638912">
        <ele>52.321895</ele>
        <time>2019-09-10T15:20:18.100Z</time>
      </trkpt>
      <trkpt lat="10.1579785664766" lon="-75.6822556273709">
        <ele>52.321895</ele>
        <time>2019-09-10T15:20:18.200Z</time>
      </trkpt>
      <trkpt lat="10.1579767526245" lon="-75.6822535022695">
        <ele>52.321895</ele>
        <time>2019-09-10T15:20:18.300Z</time>
      </trkpt>
      <trkpt lat="10.1579749398145" lon="-75.6822513957586">
        <ele>52.321895</ele>
        <time>2019-09-10T15:20:18.400Z</time>
      </trkpt>
      <trkpt lat="10.1579731481614" lon="-75.68224932622">
        <ele>52.321895</ele>
        <time>2019-09-10T15:20:18.500Z</time>
      </trkpt>
      <trkpt lat="10.1579696440626" lon="-75.6822452757785">
        <ele>52.321895</ele>
        <time>2019-09-10T15:20:18.700Z</time>
      </trkpt>
      <trkpt lat="10.1579679023831" lon="-75.6822432612456">
        <ele>52.321895</ele>
        <time>2019-09-10T15:20:18.800Z</time>
      </trkpt>
      <trkpt lat="10.1579661556489" lon="-75.6822412330657">
        <ele>52.321895</ele>
        <time>2019-09-10T15:20:18.900Z</time>
      </trkpt>
      <trkpt lat="10.1579643974505" lon="-75.6822391800288">
        <ele>52.321895</ele>
        <time>2019-09-10T15:20:19.000Z</time>
      </trkpt>
      <trkpt lat="10.1579626487882" lon="-75.6822371042933">
        <ele>52.321895</ele>
        <time>2019-09-10T15:20:19.100Z</time>
      </trkpt>
      <trkpt lat="10.1579609079946" lon="-75.6822349917944">
        <ele>52.321895</ele>
        <time>2019-09-10T15:20:19.200Z</time>
      </trkpt>
      <trkpt lat="10.1579573336513" lon="-75.6822305632059">
        <ele>52.321895</ele>
        <time>2019-09-10T15:20:19.400Z</time>
      </trkpt>
      <trkpt lat="10.157955522561" lon="-75.6822283351254">
        <ele>52.321895</ele>
        <time>2019-09-10T15:20:19.500Z</time>
      </trkpt>
      <trkpt lat="10.1579537370568" lon="-75.6822261345478">
        <ele>52.321895</ele>
        <time>2019-09-10T15:20:19.600Z</time>
      </trkpt>
      <trkpt lat="10.1579519866749" lon="-75.6822239731704">
        <ele>52.321895</ele>
        <time>2019-09-10T15:20:19.700Z</time>
      </trkpt>
      <trkpt lat="10.1579502505191" lon="-75.6822218445876">
        <ele>52.321895</ele>
        <time>2019-09-10T15:20:19.800Z</time>
      </trkpt>
      <trkpt lat="10.1579485170731" lon="-75.6822197311836">
        <ele>52.321895</ele>
        <time>2019-09-10T15:20:19.900Z</time>
      </trkpt>
      <trkpt lat="10.1579467790413" lon="-75.6822176204255">
        <ele>52.321895</ele>
        <time>2019-09-10T15:20:20.000Z</time>
      </trkpt>
      <trkpt lat="10.1579450436151" lon="-75.6822155304164">
        <ele>52.321895</ele>
        <time>2019-09-10T15:20:20.100Z</time>
      </trkpt>
      <trkpt lat="10.1579433048537" lon="-75.6822134457685">
        <ele>52.321895</ele>
        <time>2019-09-10T15:20:20.200Z</time>
      </trkpt>
      <trkpt lat="10.1579415610899" lon="-75.6822113744892">
        <ele>52.321895</ele>
        <time>2019-09-10T15:20:20.300Z</time>
      </trkpt>
      <trkpt lat="10.1579398199315" lon="-75.6822092947849">
        <ele>52.321895</ele>
        <time>2019-09-10T15:20:20.400Z</time>
      </trkpt>
      <trkpt lat="10.1579381026917" lon="-75.6822072486411">
        <ele>52.321895</ele>
        <time>2019-09-10T15:20:20.500Z</time>
      </trkpt>
      <trkpt lat="10.1579363964472" lon="-75.6822052111311">
        <ele>52.321895</ele>
        <time>2019-09-10T15:20:20.600Z</time>
      </trkpt>
      <trkpt lat="10.1579346873366" lon="-75.6822031649177">
        <ele>52.321895</ele>
        <time>2019-09-10T15:20:20.700Z</time>
      </trkpt>
      <trkpt lat="10.1579329612901" lon="-75.6822011094438">
        <ele>52.321895</ele>
        <time>2019-09-10T15:20:20.800Z</time>
      </trkpt>
      <trkpt lat="10.1579312147123" lon="-75.6821990558498">
        <ele>52.321895</ele>
        <time>2019-09-10T15:20:20.900Z</time>
      </trkpt>
      <trkpt lat="10.1579294532831" lon="-75.6821970028825">
        <ele>52.321895</ele>
        <time>2019-09-10T15:20:21.000Z</time>
      </trkpt>
      <trkpt lat="10.1579277082164" lon="-75.6821949651637">
        <ele>52.321895</ele>
        <time>2019-09-10T15:20:21.100Z</time>
      </trkpt>
      <trkpt lat="10.1579259676834" lon="-75.6821929319706">
        <ele>52.321895</ele>
        <time>2019-09-10T15:20:21.200Z</time>
      </trkpt>
      <trkpt lat="10.1579242223041" lon="-75.6821908926503">
        <ele>52.321895</ele>
        <time>2019-09-10T15:20:21.300Z</time>
      </trkpt>
      <trkpt lat="10.157922467128" lon="-75.6821888385689">
        <ele>52.321895</ele>
        <time>2019-09-10T15:20:21.400Z</time>
      </trkpt>
      <trkpt lat="10.1579207178405" lon="-75.682186774879">
        <ele>52.321895</ele>
        <time>2019-09-10T15:20:21.500Z</time>
      </trkpt>
      <trkpt lat="10.1579189628208" lon="-75.6821847029033">
        <ele>52.321895</ele>
        <time>2019-09-10T15:20:21.600Z</time>
      </trkpt>
      <trkpt lat="10.1579172050392" lon="-75.6821826219458">
        <ele>52.321895</ele>
        <time>2019-09-10T15:20:21.700Z</time>
      </trkpt>
      <trkpt lat="10.1579154510617" lon="-75.6821805339558">
        <ele>52.321895</ele>
        <time>2019-09-10T15:20:21.800Z</time>
      </trkpt>
      <trkpt lat="10.1579137298095" lon="-75.6821784598218">
        <ele>52.321895</ele>
        <time>2019-09-10T15:20:21.900Z</time>
      </trkpt>
      <trkpt lat="10.1579120280985" lon="-75.682176393486">
        <ele>52.321895</ele>
        <time>2019-09-10T15:20:22.000Z</time>
      </trkpt>
      <trkpt lat="10.1579103531722" lon="-75.6821743388476">
        <ele>52.321895</ele>
        <time>2019-09-10T15:20:22.100Z</time>
      </trkpt>
      <trkpt lat="10.1579086630818" lon="-75.6821722867855">
        <ele>52.321895</ele>
        <time>2019-09-10T15:20:22.200Z</time>
      </trkpt>
      <trkpt lat="10.1579052559601" lon="-75.68216819596">
        <ele>52.321895</ele>
        <time>2019-09-10T15:20:22.400Z</time>
      </trkpt>
      <trkpt lat="10.1579035319981" lon="-75.6821661271873">
        <ele>52.321895</ele>
        <time>2019-09-10T15:20:22.500Z</time>
      </trkpt>
      <trkpt lat="10.1579017912045" lon="-75.6821640412862">
        <ele>52.321895</ele>
        <time>2019-09-10T15:20:22.600Z</time>
      </trkpt>
      <trkpt lat="10.1579000557261" lon="-75.6821619464727">
        <ele>52.321895</ele>
        <time>2019-09-10T15:20:22.700Z</time>
      </trkpt>
      <trkpt lat="10.1578983158184" lon="-75.6821598481779">
        <ele>52.321895</ele>
        <time>2019-09-10T15:20:22.800Z</time>
      </trkpt>
      <trkpt lat="10.1578964837277" lon="-75.6821576497587">
        <ele>52.321895</ele>
        <time>2019-09-10T15:20:22.900Z</time>
      </trkpt>
      <trkpt lat="10.1578946304803" lon="-75.6821554346986">
        <ele>52.321895</ele>
        <time>2019-09-10T15:20:23.000Z</time>
      </trkpt>
      <trkpt lat="10.157892812303" lon="-75.6821532649659">
        <ele>52.321895</ele>
        <time>2019-09-10T15:20:23.100Z</time>
      </trkpt>
      <trkpt lat="10.1578910369604" lon="-75.6821511688992">
        <ele>52.321895</ele>
        <time>2019-09-10T15:20:23.200Z</time>
      </trkpt>
      <trkpt lat="10.1578892869432" lon="-75.6821491325728">
        <ele>52.321895</ele>
        <time>2019-09-10T15:20:23.300Z</time>
      </trkpt>
      <trkpt lat="10.1578875500579" lon="-75.6821471169259">
        <ele>52.321895</ele>
        <time>2019-09-10T15:20:23.400Z</time>
      </trkpt>
      <trkpt lat="10.1578858246368" lon="-75.682145114717">
        <ele>52.321895</ele>
        <time>2019-09-10T15:20:23.500Z</time>
      </trkpt>
      <trkpt lat="10.1578823722834" lon="-75.6821410868349">
        <ele>52.321895</ele>
        <time>2019-09-10T15:20:23.700Z</time>
      </trkpt>
      <trkpt lat="10.1578806502495" lon="-75.6821390648518">
        <ele>52.321895</ele>
        <time>2019-09-10T15:20:23.800Z</time>
      </trkpt>
      <trkpt lat="10.1578789606281" lon="-75.6821370287344">
        <ele>52.321895</ele>
        <time>2019-09-10T15:20:23.900Z</time>
      </trkpt>
      <trkpt lat="10.1578772695476" lon="-75.6821349594046">
        <ele>52.321895</ele>
        <time>2019-09-10T15:20:24.000Z</time>
      </trkpt>
      <trkpt lat="10.1578756019689" lon="-75.6821328586032">
        <ele>52.321895</ele>
        <time>2019-09-10T15:20:24.100Z</time>
      </trkpt>
      <trkpt lat="10.157873926313" lon="-75.6821307465221">
        <ele>52.321895</ele>
        <time>2019-09-10T15:20:24.200Z</time>
      </trkpt>
      <trkpt lat="10.157872248208" lon="-75.6821286294279">
        <ele>52.321895</ele>
        <time>2019-09-10T15:20:24.300Z</time>
      </trkpt>
      <trkpt lat="10.1578705445169" lon="-75.6821265180431">
        <ele>52.321895</ele>
        <time>2019-09-10T15:20:24.400Z</time>
      </trkpt>
      <trkpt lat="10.1578688102892" lon="-75.6821244003918">
        <ele>52.321895</ele>
        <time>2019-09-10T15:20:24.500Z</time>
      </trkpt>
      <trkpt lat="10.1578670567286" lon="-75.6821222952735">
        <ele>52.321895</ele>
        <time>2019-09-10T15:20:24.600Z</time>
      </trkpt>
      <trkpt lat="10.1578652929022" lon="-75.682120230748">
        <ele>52.321895</ele>
        <time>2019-09-10T15:20:24.700Z</time>
      </trkpt>
      <trkpt lat="10.1578617491997" lon="-75.6821161627604">
        <ele>52.321895</ele>
        <time>2019-09-10T15:20:24.900Z</time>
      </trkpt>
      <trkpt lat="10.1578599670305" lon="-75.682114145512">
        <ele>52.321895</ele>
        <time>2019-09-10T15:20:25.000Z</time>
      </trkpt>
      <trkpt lat="10.1578581913231" lon="-75.6821121511015">
        <ele>52.321895</ele>
        <time>2019-09-10T15:20:25.100Z</time>
      </trkpt>
      <trkpt lat="10.1578564200971" lon="-75.6821101335049">
        <ele>52.321895</ele>
        <time>2019-09-10T15:20:25.200Z</time>
      </trkpt>
      <trkpt lat="10.1578546413152" lon="-75.6821081054643">
        <ele>52.321895</ele>
        <time>2019-09-10T15:20:25.300Z</time>
      </trkpt>
      <trkpt lat="10.1578528499747" lon="-75.6821060487371">
        <ele>52.321895</ele>
        <time>2019-09-10T15:20:25.400Z</time>
      </trkpt>
      <trkpt lat="10.1578510493586" lon="-75.6821039620005">
        <ele>52.321895</ele>
        <time>2019-09-10T15:20:25.500Z</time>
      </trkpt>
      <trkpt lat="10.1578492462933" lon="-75.6821018512423">
        <ele>52.321895</ele>
        <time>2019-09-10T15:20:25.600Z</time>
      </trkpt>
      <trkpt lat="10.1578474770996" lon="-75.6820997450796">
        <ele>52.321895</ele>
        <time>2019-09-10T15:20:25.700Z</time>
      </trkpt>
      <trkpt lat="10.1578457249981" lon="-75.6820976421893">
        <ele>52.321895</ele>
        <time>2019-09-10T15:20:25.800Z</time>
      </trkpt>
      <trkpt lat="10.1578439818074" lon="-75.6820955347037">
        <ele>52.321895</ele>
        <time>2019-09-10T15:20:25.900Z</time>
      </trkpt>
      <trkpt lat="10.1578422290806" lon="-75.6820934227619">
        <ele>52.321895</ele>
        <time>2019-09-10T15:20:26.000Z</time>
      </trkpt>
      <trkpt lat="10.157840495426" lon="-75.6820912876341">
        <ele>52.321895</ele>
        <time>2019-09-10T15:20:26.100Z</time>
      </trkpt>
      <trkpt lat="10.1578387594787" lon="-75.682089132941">
        <ele>52.321895</ele>
        <time>2019-09-10T15:20:26.200Z</time>
      </trkpt>
      <trkpt lat="10.1578370064913" lon="-75.682086979919">
        <ele>52.321895</ele>
        <time>2019-09-10T15:20:26.300Z</time>
      </trkpt>
      <trkpt lat="10.1578352350569" lon="-75.6820848363663">
        <ele>52.321895</ele>
        <time>2019-09-10T15:20:26.400Z</time>
      </trkpt>
      <trkpt lat="10.1578334688335" lon="-75.6820827166958">
        <ele>52.321895</ele>
        <time>2019-09-10T15:20:26.500Z</time>
      </trkpt>
      <trkpt lat="10.1578317095929" lon="-75.6820806076783">
        <ele>52.321895</ele>
        <time>2019-09-10T15:20:26.600Z</time>
      </trkpt>
      <trkpt lat="10.1578299631193" lon="-75.6820785173211">
        <ele>52.321895</ele>
        <time>2019-09-10T15:20:26.700Z</time>
      </trkpt>
      <trkpt lat="10.1578282146655" lon="-75.6820764147093">
        <ele>52.321895</ele>
        <time>2019-09-10T15:20:26.800Z</time>
      </trkpt>
      <trkpt lat="10.1578264573008" lon="-75.6820742733151">
        <ele>52.321895</ele>
        <time>2019-09-10T15:20:26.900Z</time>
      </trkpt>
      <trkpt lat="10.1578246797695" lon="-75.6820721017025">
        <ele>52.321895</ele>
        <time>2019-09-10T15:20:27.000Z</time>
      </trkpt>
      <trkpt lat="10.1578229012481" lon="-75.6820699458257">
        <ele>52.321895</ele>
        <time>2019-09-10T15:20:27.100Z</time>
      </trkpt>
      <trkpt lat="10.1578211269997" lon="-75.6820678097232">
        <ele>52.321895</ele>
        <time>2019-09-10T15:20:27.200Z</time>
      </trkpt>
      <trkpt lat="10.1578193316468" lon="-75.6820656514791">
        <ele>52.321895</ele>
        <time>2019-09-10T15:20:27.300Z</time>
      </trkpt>
      <trkpt lat="10.157817522224" lon="-75.6820634852974">
        <ele>52.321895</ele>
        <time>2019-09-10T15:20:27.400Z</time>
      </trkpt>
      <trkpt lat="10.1578157326552" lon="-75.6820613463401">
        <ele>52.321895</ele>
        <time>2019-09-10T15:20:27.500Z</time>
      </trkpt>
      <trkpt lat="10.1578139675783" lon="-75.6820592275052">
        <ele>52.321895</ele>
        <time>2019-09-10T15:20:27.600Z</time>
      </trkpt>
      <trkpt lat="10.1578122088588" lon="-75.6820571127783">
        <ele>52.321895</ele>
        <time>2019-09-10T15:20:27.700Z</time>
      </trkpt>
      <trkpt lat="10.1578104447198" lon="-75.6820549983995">
        <ele>52.321895</ele>
        <time>2019-09-10T15:20:27.800Z</time>
      </trkpt>
      <trkpt lat="10.157808672608" lon="-75.6820528774758">
        <ele>52.321895</ele>
        <time>2019-09-10T15:20:27.900Z</time>
      </trkpt>
      <trkpt lat="10.1578068985159" lon="-75.6820507503551">
        <ele>52.321895</ele>
        <time>2019-09-10T15:20:28.000Z</time>
      </trkpt>
      <trkpt lat="10.1578051188481" lon="-75.6820485978901">
        <ele>52.321895</ele>
        <time>2019-09-10T15:20:28.100Z</time>
      </trkpt>
      <trkpt lat="10.1578033477264" lon="-75.6820464351898">
        <ele>52.321895</ele>
        <time>2019-09-10T15:20:28.200Z</time>
      </trkpt>
      <trkpt lat="10.1577999263264" lon="-75.6820421294939">
        <ele>52.321895</ele>
        <time>2019-09-10T15:20:28.400Z</time>
      </trkpt>
      <trkpt lat="10.1577982429583" lon="-75.6820399953409">
        <ele>52.321895</ele>
        <time>2019-09-10T15:20:28.500Z</time>
      </trkpt>
      <trkpt lat="10.1577965527116" lon="-75.6820378556874">
        <ele>52.321895</ele>
        <time>2019-09-10T15:20:28.600Z</time>
      </trkpt>
      <trkpt lat="10.1577948630902" lon="-75.6820357136665">
        <ele>52.321895</ele>
        <time>2019-09-10T15:20:28.700Z</time>
      </trkpt>
      <trkpt lat="10.1577931585653" lon="-75.6820335662146">
        <ele>52.321895</ele>
        <time>2019-09-10T15:20:28.800Z</time>
      </trkpt>
      <trkpt lat="10.1577914546657" lon="-75.6820314335934">
        <ele>52.321895</ele>
        <time>2019-09-10T15:20:28.900Z</time>
      </trkpt>
      <trkpt lat="10.1577897545702" lon="-75.682029304384">
        <ele>52.321895</ele>
        <time>2019-09-10T15:20:29.000Z</time>
      </trkpt>
      <trkpt lat="10.1577880425935" lon="-75.6820272001708">
        <ele>52.321895</ele>
        <time>2019-09-10T15:20:29.100Z</time>
      </trkpt>
      <trkpt lat="10.1577863196216" lon="-75.6820251093958">
        <ele>52.321895</ele>
        <time>2019-09-10T15:20:29.200Z</time>
      </trkpt>
      <trkpt lat="10.1577845796618" lon="-75.6820229948778">
        <ele>52.321895</ele>
        <time>2019-09-10T15:20:29.300Z</time>
      </trkpt>
      <trkpt lat="10.1577828403794" lon="-75.6820208529265">
        <ele>52.321895</ele>
        <time>2019-09-10T15:20:29.400Z</time>
      </trkpt>
      <trkpt lat="10.1577811309561" lon="-75.6820187354841">
        <ele>52.321895</ele>
        <time>2019-09-10T15:20:29.500Z</time>
      </trkpt>
      <trkpt lat="10.1577794396151" lon="-75.682016628834">
        <ele>52.321895</ele>
        <time>2019-09-10T15:20:29.600Z</time>
      </trkpt>
      <trkpt lat="10.1577777547878" lon="-75.682014507214">
        <ele>52.321895</ele>
        <time>2019-09-10T15:20:29.700Z</time>
      </trkpt>
      <trkpt lat="10.1577760647496" lon="-75.6820123727128">
        <ele>52.321895</ele>
        <time>2019-09-10T15:20:29.800Z</time>
      </trkpt>
      <trkpt lat="10.1577743687708" lon="-75.6820102078541">
        <ele>52.321895</ele>
        <time>2019-09-10T15:20:29.900Z</time>
      </trkpt>
      <trkpt lat="10.1577726753974" lon="-75.682008035963">
        <ele>52.321895</ele>
        <time>2019-09-10T15:20:30.000Z</time>
      </trkpt>
      <trkpt lat="10.157771006568" lon="-75.6820058509123">
        <ele>52.321895</ele>
        <time>2019-09-10T15:20:30.100Z</time>
      </trkpt>
      <trkpt lat="10.1577693411258" lon="-75.6820036801352">
        <ele>52.321895</ele>
        <time>2019-09-10T15:20:30.200Z</time>
      </trkpt>
      <trkpt lat="10.157767662187" lon="-75.6820015051805">
        <ele>52.321895</ele>
        <time>2019-09-10T15:20:30.300Z</time>
      </trkpt>
      <trkpt lat="10.1577659624041" lon="-75.6819993440817">
        <ele>52.321895</ele>
        <time>2019-09-10T15:20:30.400Z</time>
      </trkpt>
      <trkpt lat="10.1577642735123" lon="-75.6819972342983">
        <ele>52.321895</ele>
        <time>2019-09-10T15:20:30.500Z</time>
      </trkpt>
      <trkpt lat="10.1577625874865" lon="-75.6819951506949">
        <ele>52.321895</ele>
        <time>2019-09-10T15:20:30.600Z</time>
      </trkpt>
      <trkpt lat="10.1577608668596" lon="-75.6819930425826">
        <ele>52.321895</ele>
        <time>2019-09-10T15:20:30.700Z</time>
      </trkpt>
      <trkpt lat="10.1577591238252" lon="-75.6819909038342">
        <ele>52.321895</ele>
        <time>2019-09-10T15:20:30.800Z</time>
      </trkpt>
      <trkpt lat="10.1577573630734" lon="-75.6819887508122">
        <ele>52.321895</ele>
        <time>2019-09-10T15:20:30.900Z</time>
      </trkpt>
      <trkpt lat="10.1577556008104" lon="-75.6819865977901">
        <ele>52.421895</ele>
        <time>2019-09-10T15:20:31.000Z</time>
      </trkpt>
      <trkpt lat="10.1577538448527" lon="-75.6819844327225">
        <ele>52.421895</ele>
        <time>2019-09-10T15:20:31.100Z</time>
      </trkpt>
      <trkpt lat="10.1577520993692" lon="-75.6819822759406">
        <ele>52.421895</ele>
        <time>2019-09-10T15:20:31.200Z</time>
      </trkpt>
      <trkpt lat="10.157750335126" lon="-75.6819801419269">
        <ele>52.421895</ele>
        <time>2019-09-10T15:20:31.300Z</time>
      </trkpt>
      <trkpt lat="10.1577485635352" lon="-75.6819780230919">
        <ele>52.421895</ele>
        <time>2019-09-10T15:20:31.400Z</time>
      </trkpt>
      <trkpt lat="10.1577468188334" lon="-75.6819759057192">
        <ele>52.421895</ele>
        <time>2019-09-10T15:20:31.500Z</time>
      </trkpt>
      <trkpt lat="10.1577450946108" lon="-75.6819737964928">
        <ele>52.421895</ele>
        <time>2019-09-10T15:20:31.600Z</time>
      </trkpt>
      <trkpt lat="10.1577433614253" lon="-75.6819717130287">
        <ele>52.321895</ele>
        <time>2019-09-10T15:20:31.700Z</time>
      </trkpt>
      <trkpt lat="10.1577416203711" lon="-75.6819696403568">
        <ele>52.321895</ele>
        <time>2019-09-10T15:20:31.800Z</time>
      </trkpt>
      <trkpt lat="10.1577398827042" lon="-75.6819675724196">
        <ele>52.421895</ele>
        <time>2019-09-10T15:20:31.900Z</time>
      </trkpt>
      <trkpt lat="10.1577364039309" lon="-75.6819634389821">
        <ele>52.421895</ele>
        <time>2019-09-10T15:20:32.100Z</time>
      </trkpt>
      <trkpt lat="10.1577346707454" lon="-75.6819613718108">
        <ele>52.421895</ele>
        <time>2019-09-10T15:20:32.200Z</time>
      </trkpt>
      <trkpt lat="10.1577329329221" lon="-75.6819593177991">
        <ele>52.421895</ele>
        <time>2019-09-10T15:20:32.300Z</time>
      </trkpt>
      <trkpt lat="10.1577311985901" lon="-75.6819572548054">
        <ele>52.421895</ele>
        <time>2019-09-10T15:20:32.400Z</time>
      </trkpt>
      <trkpt lat="10.1577294844769" lon="-75.681955181298">
        <ele>52.421895</ele>
        <time>2019-09-10T15:20:32.500Z</time>
      </trkpt>
      <trkpt lat="10.1577277771902" lon="-75.6819530982516">
        <ele>52.421895</ele>
        <time>2019-09-10T15:20:32.600Z</time>
      </trkpt>
      <trkpt lat="10.1577260652135" lon="-75.6819510403407">
        <ele>52.421895</ele>
        <time>2019-09-10T15:20:32.700Z</time>
      </trkpt>
      <trkpt lat="10.1577243351546" lon="-75.6819489918992">
        <ele>52.421895</ele>
        <time>2019-09-10T15:20:32.800Z</time>
      </trkpt>
      <trkpt lat="10.1577226195824" lon="-75.681946966574">
        <ele>52.421895</ele>
        <time>2019-09-10T15:20:32.900Z</time>
      </trkpt>
      <trkpt lat="10.157720915787" lon="-75.6819449440339">
        <ele>52.421895</ele>
        <time>2019-09-10T15:20:33.000Z</time>
      </trkpt>
      <trkpt lat="10.1577192174632" lon="-75.6819428695517">
        <ele>52.421895</ele>
        <time>2019-09-10T15:20:33.100Z</time>
      </trkpt>
      <trkpt lat="10.1577175022036" lon="-75.6819407618572">
        <ele>52.321895</ele>
        <time>2019-09-10T15:20:33.200Z</time>
      </trkpt>
      <trkpt lat="10.1577157482782" lon="-75.6819386139876">
        <ele>52.321895</ele>
        <time>2019-09-10T15:20:33.300Z</time>
      </trkpt>
      <trkpt lat="10.1577139796578" lon="-75.6819364701564">
        <ele>52.321895</ele>
        <time>2019-09-10T15:20:33.400Z</time>
      </trkpt>
      <trkpt lat="10.1577122230748" lon="-75.6819343237489">
        <ele>52.321895</ele>
        <time>2019-09-10T15:20:33.500Z</time>
      </trkpt>
      <trkpt lat="10.1577104782687" lon="-75.6819321808229">
        <ele>52.321895</ele>
        <time>2019-09-10T15:20:33.600Z</time>
      </trkpt>
      <trkpt lat="10.1577087544109" lon="-75.6819300475054">
        <ele>52.321895</ele>
        <time>2019-09-10T15:20:33.700Z</time>
      </trkpt>
      <trkpt lat="10.1577070378486" lon="-75.6819279244929">
        <ele>52.321895</ele>
        <time>2019-09-10T15:20:33.800Z</time>
      </trkpt>
      <trkpt lat="10.1577053310829" lon="-75.6819258059364">
        <ele>52.321895</ele>
        <time>2019-09-10T15:20:33.900Z</time>
      </trkpt>
      <trkpt lat="10.1577036155107" lon="-75.6819236866141">
        <ele>52.321895</ele>
        <time>2019-09-10T15:20:34.000Z</time>
      </trkpt>
      <trkpt lat="10.1577019006679" lon="-75.6819215524611">
        <ele>52.321895</ele>
        <time>2019-09-10T15:20:34.100Z</time>
      </trkpt>
      <trkpt lat="10.1577001756637" lon="-75.6819194133646">
        <ele>52.321895</ele>
        <time>2019-09-10T15:20:34.200Z</time>
      </trkpt>
      <trkpt lat="10.1576984517017" lon="-75.6819172366692">
        <ele>52.321895</ele>
        <time>2019-09-10T15:20:34.300Z</time>
      </trkpt>
      <trkpt lat="10.1576967227892" lon="-75.6819150626196">
        <ele>52.321895</ele>
        <time>2019-09-10T15:20:34.400Z</time>
      </trkpt>
      <trkpt lat="10.1576950341058" lon="-75.6819129290933">
        <ele>52.321895</ele>
        <time>2019-09-10T15:20:34.500Z</time>
      </trkpt>
      <trkpt lat="10.1576933634526" lon="-75.6819108319125">
        <ele>52.321895</ele>
        <time>2019-09-10T15:20:34.600Z</time>
      </trkpt>
      <trkpt lat="10.1576917037946" lon="-75.6819087280475">
        <ele>52.321895</ele>
        <time>2019-09-10T15:20:34.700Z</time>
      </trkpt>
      <trkpt lat="10.1576900318906" lon="-75.6819066170805">
        <ele>52.321895</ele>
        <time>2019-09-10T15:20:34.800Z</time>
      </trkpt>
      <trkpt lat="10.1576883593614" lon="-75.6819045125888">
        <ele>52.321895</ele>
        <time>2019-09-10T15:20:34.900Z</time>
      </trkpt>
      <trkpt lat="10.1576866705217" lon="-75.6819024180539">
        <ele>52.321895</ele>
        <time>2019-09-10T15:20:35.000Z</time>
      </trkpt>
      <trkpt lat="10.1576849704783" lon="-75.6819003288106">
        <ele>52.321895</ele>
        <time>2019-09-10T15:20:35.100Z</time>
      </trkpt>
      <trkpt lat="10.1576832517273" lon="-75.6818982312121">
        <ele>52.321895</ele>
        <time>2019-09-10T15:20:35.200Z</time>
      </trkpt>
      <trkpt lat="10.1576815336016" lon="-75.6818961221946">
        <ele>52.321895</ele>
        <time>2019-09-10T15:20:35.300Z</time>
      </trkpt>
      <trkpt lat="10.1576798085453" lon="-75.6818940035686">
        <ele>52.321895</ele>
        <time>2019-09-10T15:20:35.400Z</time>
      </trkpt>
      <trkpt lat="10.1576780993826" lon="-75.6818918711563">
        <ele>52.321895</ele>
        <time>2019-09-10T15:20:35.500Z</time>
      </trkpt>
      <trkpt lat="10.1576763947535" lon="-75.6818897461245">
        <ele>52.321895</ele>
        <time>2019-09-10T15:20:35.600Z</time>
      </trkpt>
      <trkpt lat="10.1576747213384" lon="-75.6818876176113">
        <ele>52.321895</ele>
        <time>2019-09-10T15:20:35.700Z</time>
      </trkpt>
      <trkpt lat="10.1576730537596" lon="-75.6818855129804">
        <ele>52.321895</ele>
        <time>2019-09-10T15:20:35.800Z</time>
      </trkpt>
      <trkpt lat="10.1576713628876" lon="-75.6818834247816">
        <ele>52.321895</ele>
        <time>2019-09-10T15:20:35.900Z</time>
      </trkpt>
      <trkpt lat="10.157667934557" lon="-75.6818793260186">
        <ele>52.321895</ele>
        <time>2019-09-10T15:20:36.100Z</time>
      </trkpt>
      <trkpt lat="10.1576662203396" lon="-75.6818773179611">
        <ele>52.321895</ele>
        <time>2019-09-10T15:20:36.200Z</time>
      </trkpt>
      <trkpt lat="10.157664521182" lon="-75.6818753072576">
        <ele>52.321895</ele>
        <time>2019-09-10T15:20:36.300Z</time>
      </trkpt>
      <trkpt lat="10.1576628256201" lon="-75.6818732746912">
        <ele>52.321895</ele>
        <time>2019-09-10T15:20:36.400Z</time>
      </trkpt>
      <trkpt lat="10.1576611049931" lon="-75.681871242264">
        <ele>52.321895</ele>
        <time>2019-09-10T15:20:36.500Z</time>
      </trkpt>
      <trkpt lat="10.15765937483" lon="-75.6818692093146">
        <ele>52.321895</ele>
        <time>2019-09-10T15:20:36.600Z</time>
      </trkpt>
      <trkpt lat="10.1576576334111" lon="-75.68186717922">
        <ele>52.321895</ele>
        <time>2019-09-10T15:20:36.700Z</time>
      </trkpt>
      <trkpt lat="10.1576558962652" lon="-75.6818651515622">
        <ele>52.321895</ele>
        <time>2019-09-10T15:20:36.800Z</time>
      </trkpt>
      <trkpt lat="10.1576541659457" lon="-75.6818631267941">
        <ele>52.321895</ele>
        <time>2019-09-10T15:20:36.900Z</time>
      </trkpt>
      <trkpt lat="10.1576524481849" lon="-75.6818611054377">
        <ele>52.321895</ele>
        <time>2019-09-10T15:20:37.000Z</time>
      </trkpt>
      <trkpt lat="10.1576507621591" lon="-75.6818591221675">
        <ele>52.321895</ele>
        <time>2019-09-10T15:20:37.100Z</time>
      </trkpt>
      <trkpt lat="10.1576490789472" lon="-75.6818571482971">
        <ele>52.321895</ele>
        <time>2019-09-10T15:20:37.200Z</time>
      </trkpt>
      <trkpt lat="10.1576473697324" lon="-75.6818551553487">
        <ele>52.321895</ele>
        <time>2019-09-10T15:20:37.300Z</time>
      </trkpt>
      <trkpt lat="10.1576456357653" lon="-75.6818531474652">
        <ele>52.321895</ele>
        <time>2019-09-10T15:20:37.400Z</time>
      </trkpt>
      <trkpt lat="10.1576439129497" lon="-75.6818511144114">
        <ele>52.321895</ele>
        <time>2019-09-10T15:20:37.500Z</time>
      </trkpt>
      <trkpt lat="10.1576422052982" lon="-75.6818490591115">
        <ele>52.321895</ele>
        <time>2019-09-10T15:20:37.600Z</time>
      </trkpt>
      <trkpt lat="10.1576405408981" lon="-75.6818469924624">
        <ele>52.321895</ele>
        <time>2019-09-10T15:20:37.700Z</time>
      </trkpt>
      <trkpt lat="10.1576388829076" lon="-75.6818449282155">
        <ele>52.321895</ele>
        <time>2019-09-10T15:20:37.800Z</time>
      </trkpt>
      <trkpt lat="10.1576372293986" lon="-75.6818428514704">
        <ele>52.321895</ele>
        <time>2019-09-10T15:20:37.900Z</time>
      </trkpt>
      <trkpt lat="10.1576355544202" lon="-75.6818407612175">
        <ele>52.321895</ele>
        <time>2019-09-10T15:20:38.000Z</time>
      </trkpt>
      <trkpt lat="10.1576338756378" lon="-75.6818386627138">
        <ele>52.321895</ele>
        <time>2019-09-10T15:20:38.100Z</time>
      </trkpt>
      <trkpt lat="10.1576321760112" lon="-75.6818365648716">
        <ele>52.321895</ele>
        <time>2019-09-10T15:20:38.200Z</time>
      </trkpt>
      <trkpt lat="10.1576304775311" lon="-75.6818344595792">
        <ele>52.321895</ele>
        <time>2019-09-10T15:20:38.300Z</time>
      </trkpt>
      <trkpt lat="10.1576287686289" lon="-75.6818323475678">
        <ele>52.321895</ele>
        <time>2019-09-10T15:20:38.400Z</time>
      </trkpt>
      <trkpt lat="10.1576270458655" lon="-75.68183017505">
        <ele>52.321895</ele>
        <time>2019-09-10T15:20:38.500Z</time>
      </trkpt>
      <trkpt lat="10.1576253110124" lon="-75.6818279860305">
        <ele>52.321895</ele>
        <time>2019-09-10T15:20:38.600Z</time>
      </trkpt>
      <trkpt lat="10.1576235837675" lon="-75.6818258277864">
        <ele>52.321895</ele>
        <time>2019-09-10T15:20:38.700Z</time>
      </trkpt>
      <trkpt lat="10.1576218474554" lon="-75.6818237032421">
        <ele>52.321895</ele>
        <time>2019-09-10T15:20:38.800Z</time>
      </trkpt>
      <trkpt lat="10.1576201010338" lon="-75.6818215729186">
        <ele>52.321895</ele>
        <time>2019-09-10T15:20:38.900Z</time>
      </trkpt>
      <trkpt lat="10.1576183399173" lon="-75.6818194382434">
        <ele>52.321895</ele>
        <time>2019-09-10T15:20:39.000Z</time>
      </trkpt>
      <trkpt lat="10.1576148296694" lon="-75.6818152321844">
        <ele>52.321895</ele>
        <time>2019-09-10T15:20:39.200Z</time>
      </trkpt>
      <trkpt lat="10.1576130648009" lon="-75.6818131349688">
        <ele>52.321895</ele>
        <time>2019-09-10T15:20:39.300Z</time>
      </trkpt>
      <trkpt lat="10.1576112918032" lon="-75.6818110316608">
        <ele>52.321895</ele>
        <time>2019-09-10T15:20:39.400Z</time>
      </trkpt>
      <trkpt lat="10.1576095235996" lon="-75.6818089427309">
        <ele>52.321895</ele>
        <time>2019-09-10T15:20:39.500Z</time>
      </trkpt>
      <trkpt lat="10.1576077533116" lon="-75.6818068620867">
        <ele>52.321895</ele>
        <time>2019-09-10T15:20:39.600Z</time>
      </trkpt>
      <trkpt lat="10.1576059929246" lon="-75.6818047485782">
        <ele>52.321895</ele>
        <time>2019-09-10T15:20:39.700Z</time>
      </trkpt>
      <trkpt lat="10.157604238895" lon="-75.6818026161659">
        <ele>52.321895</ele>
        <time>2019-09-10T15:20:39.800Z</time>
      </trkpt>
      <trkpt lat="10.1576024903891" lon="-75.6818005012649">
        <ele>52.321895</ele>
        <time>2019-09-10T15:20:39.900Z</time>
      </trkpt>
      <trkpt lat="10.1576007363595" lon="-75.6817984073915">
        <ele>52.421895</ele>
        <time>2019-09-10T15:20:40.000Z</time>
      </trkpt>
      <trkpt lat="10.1575990064048" lon="-75.6817963187401">
        <ele>52.421895</ele>
        <time>2019-09-10T15:20:40.100Z</time>
      </trkpt>
      <trkpt lat="10.1575972886439" lon="-75.6817942266769">
        <ele>52.421895</ele>
        <time>2019-09-10T15:20:40.200Z</time>
      </trkpt>
      <trkpt lat="10.1575938643779" lon="-75.681790030505">
        <ele>52.421895</ele>
        <time>2019-09-10T15:20:40.400Z</time>
      </trkpt>
      <trkpt lat="10.1575921490141" lon="-75.6817879191203">
        <ele>52.421895</ele>
        <time>2019-09-10T15:20:40.500Z</time>
      </trkpt>
      <trkpt lat="10.1575904396951" lon="-75.6817858007727">
        <ele>52.421895</ele>
        <time>2019-09-10T15:20:40.600Z</time>
      </trkpt>
      <trkpt lat="10.1575887300634" lon="-75.6817836881694">
        <ele>52.421895</ele>
        <time>2019-09-10T15:20:40.700Z</time>
      </trkpt>
      <trkpt lat="10.1575870252258" lon="-75.6817815747655">
        <ele>52.421895</ele>
        <time>2019-09-10T15:20:40.800Z</time>
      </trkpt>
      <trkpt lat="10.1575853340411" lon="-75.6817794656784">
        <ele>52.421895</ele>
        <time>2019-09-10T15:20:40.900Z</time>
      </trkpt>
      <trkpt lat="10.1575836496308" lon="-75.6817773439191">
        <ele>52.421895</ele>
        <time>2019-09-10T15:20:41.000Z</time>
      </trkpt>
      <trkpt lat="10.1575819381231" lon="-75.6817752217072">
        <ele>52.421895</ele>
        <time>2019-09-10T15:20:41.100Z</time>
      </trkpt>
      <trkpt lat="10.1575802053545" lon="-75.6817730983813">
        <ele>52.421895</ele>
        <time>2019-09-10T15:20:41.200Z</time>
      </trkpt>
      <trkpt lat="10.1575784671664" lon="-75.6817709906172">
        <ele>52.421895</ele>
        <time>2019-09-10T15:20:41.300Z</time>
      </trkpt>
      <trkpt lat="10.1575767315838" lon="-75.6817688874484">
        <ele>52.421895</ele>
        <time>2019-09-10T15:20:41.400Z</time>
      </trkpt>
      <trkpt lat="10.1575749991278" lon="-75.681766810947">
        <ele>52.421895</ele>
        <time>2019-09-10T15:20:41.500Z</time>
      </trkpt>
      <trkpt lat="10.1575732694858" lon="-75.6817647371611">
        <ele>52.421895</ele>
        <time>2019-09-10T15:20:41.600Z</time>
      </trkpt>
      <trkpt lat="10.1575715434915" lon="-75.6817626779273">
        <ele>52.421895</ele>
        <time>2019-09-10T15:20:41.700Z</time>
      </trkpt>
      <trkpt lat="10.1575698119735" lon="-75.6817606156995">
        <ele>52.421895</ele>
        <time>2019-09-10T15:20:41.800Z</time>
      </trkpt>
      <trkpt lat="10.1575680783711" lon="-75.6817585523925">
        <ele>52.421895</ele>
        <time>2019-09-10T15:20:41.900Z</time>
      </trkpt>
      <trkpt lat="10.1575663346593" lon="-75.6817564721312">
        <ele>52.421895</ele>
        <time>2019-09-10T15:20:42.000Z</time>
      </trkpt>
      <trkpt lat="10.157564578858" lon="-75.6817543780141">
        <ele>52.421895</ele>
        <time>2019-09-10T15:20:42.100Z</time>
      </trkpt>
      <trkpt lat="10.157562814719" lon="-75.681752281634">
        <ele>52.421895</ele>
        <time>2019-09-10T15:20:42.200Z</time>
      </trkpt>
      <trkpt lat="10.1575610481829" lon="-75.6817501791267">
        <ele>52.421895</ele>
        <time>2019-09-10T15:20:42.300Z</time>
      </trkpt>
      <trkpt lat="10.1575592774781" lon="-75.6817480900924">
        <ele>52.421895</ele>
        <time>2019-09-10T15:20:42.400Z</time>
      </trkpt>
      <trkpt lat="10.1575575235527" lon="-75.6817460253928">
        <ele>52.421895</ele>
        <time>2019-09-10T15:20:42.500Z</time>
      </trkpt>
      <trkpt lat="10.1575557753595" lon="-75.6817439643487">
        <ele>52.421895</ele>
        <time>2019-09-10T15:20:42.600Z</time>
      </trkpt>
      <trkpt lat="10.1575540204961" lon="-75.6817418908065">
        <ele>52.421895</ele>
        <time>2019-09-10T15:20:42.700Z</time>
      </trkpt>
      <trkpt lat="10.1575522576078" lon="-75.6817397994396">
        <ele>52.421895</ele>
        <time>2019-09-10T15:20:42.800Z</time>
      </trkpt>
      <trkpt lat="10.1575505047246" lon="-75.6817377008663">
        <ele>52.421895</ele>
        <time>2019-09-10T15:20:42.900Z</time>
      </trkpt>
      <trkpt lat="10.1575487521541" lon="-75.6817356020841">
        <ele>52.421895</ele>
        <time>2019-09-10T15:20:43.000Z</time>
      </trkpt>
      <trkpt lat="10.1575470292864" lon="-75.6817335180281">
        <ele>52.421895</ele>
        <time>2019-09-10T15:20:43.100Z</time>
      </trkpt>
      <trkpt lat="10.1575453138183" lon="-75.6817314389505">
        <ele>52.421895</ele>
        <time>2019-09-10T15:20:43.200Z</time>
      </trkpt>
      <trkpt lat="10.1575436058542" lon="-75.6817293452163">
        <ele>52.421895</ele>
        <time>2019-09-10T15:20:43.300Z</time>
      </trkpt>
      <trkpt lat="10.157541879443" lon="-75.6817272353633">
        <ele>52.421895</ele>
        <time>2019-09-10T15:20:43.400Z</time>
      </trkpt>
      <trkpt lat="10.1575401164504" lon="-75.6817250750303">
        <ele>52.421895</ele>
        <time>2019-09-10T15:20:43.500Z</time>
      </trkpt>
      <trkpt lat="10.1575383361573" lon="-75.681722909545">
        <ele>52.421895</ele>
        <time>2019-09-10T15:20:43.600Z</time>
      </trkpt>
      <trkpt lat="10.157536545859" lon="-75.6817207391509">
        <ele>52.421895</ele>
        <time>2019-09-10T15:20:43.700Z</time>
      </trkpt>
      <trkpt lat="10.1575347733824" lon="-75.6817186064252">
        <ele>52.421895</ele>
        <time>2019-09-10T15:20:43.800Z</time>
      </trkpt>
      <trkpt lat="10.1575330044492" lon="-75.6817165288098">
        <ele>52.421895</ele>
        <time>2019-09-10T15:20:43.900Z</time>
      </trkpt>
      <trkpt lat="10.1575312521914" lon="-75.6817144801246">
        <ele>52.421895</ele>
        <time>2019-09-10T15:20:44.000Z</time>
      </trkpt>
      <trkpt lat="10.1575295145244" lon="-75.6817124500299">
        <ele>52.421895</ele>
        <time>2019-09-10T15:20:44.100Z</time>
      </trkpt>
      <trkpt lat="10.1575277891554" lon="-75.6817104013447">
        <ele>52.421895</ele>
        <time>2019-09-10T15:20:44.200Z</time>
      </trkpt>
      <trkpt lat="10.1575243405019" lon="-75.681706292242">
        <ele>52.421895</ele>
        <time>2019-09-10T15:20:44.400Z</time>
      </trkpt>
      <trkpt lat="10.1575226315997" lon="-75.6817042172724">
        <ele>52.421895</ele>
        <time>2019-09-10T15:20:44.500Z</time>
      </trkpt>
      <trkpt lat="10.1575209187372" lon="-75.6817021284122">
        <ele>52.421895</ele>
        <time>2019-09-10T15:20:44.600Z</time>
      </trkpt>
      <trkpt lat="10.1575191877403" lon="-75.6817000700139">
        <ele>52.421895</ele>
        <time>2019-09-10T15:20:44.700Z</time>
      </trkpt>
      <trkpt lat="10.157517440485" lon="-75.6816980189962">
        <ele>52.421895</ele>
        <time>2019-09-10T15:20:44.800Z</time>
      </trkpt>
      <trkpt lat="10.1575157163667" lon="-75.6816959594839">
        <ele>52.421895</ele>
        <time>2019-09-10T15:20:44.900Z</time>
      </trkpt>
      <trkpt lat="10.1575139953749" lon="-75.6816938821818">
        <ele>52.421895</ele>
        <time>2019-09-10T15:20:45.000Z</time>
      </trkpt>
      <trkpt lat="10.1575122793858" lon="-75.6816918159504">
        <ele>52.421895</ele>
        <time>2019-09-10T15:20:45.100Z</time>
      </trkpt>
      <trkpt lat="10.1575105623544" lon="-75.6816897472473">
        <ele>52.421895</ele>
        <time>2019-09-10T15:20:45.200Z</time>
      </trkpt>
      <trkpt lat="10.1575088424049" lon="-75.6816876912164">
        <ele>52.421895</ele>
        <time>2019-09-10T15:20:45.300Z</time>
      </trkpt>
      <trkpt lat="10.1575071063012" lon="-75.6816856351855">
        <ele>52.421895</ele>
        <time>2019-09-10T15:20:45.400Z</time>
      </trkpt>
      <trkpt lat="10.1575053710313" lon="-75.6816835754643">
        <ele>52.421895</ele>
        <time>2019-09-10T15:20:45.500Z</time>
      </trkpt>
      <trkpt lat="10.1575036397218" lon="-75.6816814971874">
        <ele>52.421895</ele>
        <time>2019-09-10T15:20:45.600Z</time>
      </trkpt>
      <trkpt lat="10.1575019072658" lon="-75.681679393949">
        <ele>52.421895</ele>
        <time>2019-09-10T15:20:45.700Z</time>
      </trkpt>
      <trkpt lat="10.1575001853361" lon="-75.6816772713194">
        <ele>52.421895</ele>
        <time>2019-09-10T15:20:45.800Z</time>
      </trkpt>
      <trkpt lat="10.1574984938387" lon="-75.681675156488">
        <ele>52.421895</ele>
        <time>2019-09-10T15:20:45.900Z</time>
      </trkpt>
      <trkpt lat="10.1574968014034" lon="-75.6816730627538">
        <ele>52.421895</ele>
        <time>2019-09-10T15:20:46.000Z</time>
      </trkpt>
      <trkpt lat="10.1574950891662" lon="-75.6816709621265">
        <ele>52.421895</ele>
        <time>2019-09-10T15:20:46.100Z</time>
      </trkpt>
      <trkpt lat="10.1574933552511" lon="-75.6816688498713">
        <ele>52.421895</ele>
        <time>2019-09-10T15:20:46.200Z</time>
      </trkpt>
      <trkpt lat="10.1574916139364" lon="-75.6816667080245">
        <ele>52.421895</ele>
        <time>2019-09-10T15:20:46.300Z</time>
      </trkpt>
      <trkpt lat="10.1574898695993" lon="-75.6816645613734">
        <ele>52.421895</ele>
        <time>2019-09-10T15:20:46.400Z</time>
      </trkpt>
      <trkpt lat="10.157488143605" lon="-75.6816624331039">
        <ele>52.421895</ele>
        <time>2019-09-10T15:20:46.500Z</time>
      </trkpt>
      <trkpt lat="10.1574864323058" lon="-75.6816603166711">
        <ele>52.421895</ele>
        <time>2019-09-10T15:20:46.600Z</time>
      </trkpt>
      <trkpt lat="10.1574847271556" lon="-75.6816582107869">
        <ele>52.421895</ele>
        <time>2019-09-10T15:20:46.700Z</time>
      </trkpt>
      <trkpt lat="10.1574830184619" lon="-75.6816561036146">
        <ele>52.421895</ele>
        <time>2019-09-10T15:20:46.800Z</time>
      </trkpt>
      <trkpt lat="10.1574813062246" lon="-75.6816539704364">
        <ele>52.421895</ele>
        <time>2019-09-10T15:20:46.900Z</time>
      </trkpt>
      <trkpt lat="10.1574795842949" lon="-75.6816518337072">
        <ele>52.421895</ele>
        <time>2019-09-10T15:20:47.000Z</time>
      </trkpt>
      <trkpt lat="10.1574778608019" lon="-75.6816497392767">
        <ele>52.421895</ele>
        <time>2019-09-10T15:20:47.100Z</time>
      </trkpt>
      <trkpt lat="10.1574761343907" lon="-75.6816476679625">
        <ele>52.421895</ele>
        <time>2019-09-10T15:20:47.200Z</time>
      </trkpt>
      <trkpt lat="10.1574744213198" lon="-75.6816456107131">
        <ele>52.421895</ele>
        <time>2019-09-10T15:20:47.300Z</time>
      </trkpt>
      <trkpt lat="10.1574727062686" lon="-75.6816435542993">
        <ele>52.421895</ele>
        <time>2019-09-10T15:20:47.400Z</time>
      </trkpt>
      <trkpt lat="10.1574709895499" lon="-75.6816415229861">
        <ele>52.421895</ele>
        <time>2019-09-10T15:20:47.500Z</time>
      </trkpt>
      <trkpt lat="10.1574692661611" lon="-75.6816394859983">
        <ele>52.421895</ele>
        <time>2019-09-10T15:20:47.600Z</time>
      </trkpt>
      <trkpt lat="10.1574675362064" lon="-75.6816374559385">
        <ele>52.421895</ele>
        <time>2019-09-10T15:20:47.700Z</time>
      </trkpt>
      <trkpt lat="10.1574657924947" lon="-75.6816354156086">
        <ele>52.421895</ele>
        <time>2019-09-10T15:20:47.800Z</time>
      </trkpt>
      <trkpt lat="10.1574640465942" lon="-75.68163336755">
        <ele>52.421895</ele>
        <time>2019-09-10T15:20:47.900Z</time>
      </trkpt>
      <trkpt lat="10.1574605700096" lon="-75.681629211031">
        <ele>52.421895</ele>
        <time>2019-09-10T15:20:48.100Z</time>
      </trkpt>
      <trkpt lat="10.15745882734" lon="-75.681627106226">
        <ele>52.421895</ele>
        <time>2019-09-10T15:20:48.200Z</time>
      </trkpt>
      <trkpt lat="10.1574570852958" lon="-75.6816249902458">
        <ele>52.421895</ele>
        <time>2019-09-10T15:20:48.300Z</time>
      </trkpt>
      <trkpt lat="10.1574536117336" lon="-75.6816207720368">
        <ele>52.421895</ele>
        <time>2019-09-10T15:20:48.500Z</time>
      </trkpt>
      <trkpt lat="10.1574518730244" lon="-75.6816186681022">
        <ele>52.421895</ele>
        <time>2019-09-10T15:20:48.600Z</time>
      </trkpt>
      <trkpt lat="10.1574501328561" lon="-75.681616558667">
        <ele>52.421895</ele>
        <time>2019-09-10T15:20:48.700Z</time>
      </trkpt>
      <trkpt lat="10.1574483906034" lon="-75.6816144504154">
        <ele>52.421895</ele>
        <time>2019-09-10T15:20:48.800Z</time>
      </trkpt>
      <trkpt lat="10.1574466198985" lon="-75.6816123118063">
        <ele>52.421895</ele>
        <time>2019-09-10T15:20:48.900Z</time>
      </trkpt>
      <trkpt lat="10.1574448346028" lon="-75.6816101610123">
        <ele>52.421895</ele>
        <time>2019-09-10T15:20:49.000Z</time>
      </trkpt>
      <trkpt lat="10.1574430771339" lon="-75.6816080541881">
        <ele>52.421895</ele>
        <time>2019-09-10T15:20:49.100Z</time>
      </trkpt>
      <trkpt lat="10.1574413316504" lon="-75.681605973335">
        <ele>52.421895</ele>
        <time>2019-09-10T15:20:49.200Z</time>
      </trkpt>
      <trkpt lat="10.1574395779335" lon="-75.681603878069">
        <ele>52.421895</ele>
        <time>2019-09-10T15:20:49.300Z</time>
      </trkpt>
      <trkpt lat="10.1574377986825" lon="-75.6816017615317">
        <ele>52.421895</ele>
        <time>2019-09-10T15:20:49.400Z</time>
      </trkpt>
      <trkpt lat="10.1574360143248" lon="-75.6815996297809">
        <ele>52.421895</ele>
        <time>2019-09-10T15:20:49.500Z</time>
      </trkpt>
      <trkpt lat="10.1574342226716" lon="-75.6815974923554">
        <ele>52.421895</ele>
        <time>2019-09-10T15:20:49.600Z</time>
      </trkpt>
      <trkpt lat="10.1574324290383" lon="-75.6815953595602">
        <ele>52.421895</ele>
        <time>2019-09-10T15:20:49.700Z</time>
      </trkpt>
      <trkpt lat="10.1574306276926" lon="-75.6815932280182">
        <ele>52.421895</ele>
        <time>2019-09-10T15:20:49.800Z</time>
      </trkpt>
      <trkpt lat="10.15742884198" lon="-75.6815911027776">
        <ele>52.421895</ele>
        <time>2019-09-10T15:20:49.900Z</time>
      </trkpt>
      <trkpt lat="10.157427069816" lon="-75.6815889767362">
        <ele>52.421895</ele>
        <time>2019-09-10T15:20:50.000Z</time>
      </trkpt>
      <trkpt lat="10.1574252945255" lon="-75.6815868521918">
        <ele>52.421895</ele>
        <time>2019-09-10T15:20:50.100Z</time>
      </trkpt>
      <trkpt lat="10.1574235071453" lon="-75.6815847307458">
        <ele>52.421895</ele>
        <time>2019-09-10T15:20:50.200Z</time>
      </trkpt>
      <trkpt lat="10.1574217308126" lon="-75.6815826096828">
        <ele>52.421895</ele>
        <time>2019-09-10T15:20:50.300Z</time>
      </trkpt>
      <trkpt lat="10.1574199602119" lon="-75.6815804862176">
        <ele>52.421895</ele>
        <time>2019-09-10T15:20:50.400Z</time>
      </trkpt>
      <trkpt lat="10.1574181569903" lon="-75.6815783221596">
        <ele>52.421895</ele>
        <time>2019-09-10T15:20:50.500Z</time>
      </trkpt>
      <trkpt lat="10.1574163510589" lon="-75.681576156152">
        <ele>52.421895</ele>
        <time>2019-09-10T15:20:50.600Z</time>
      </trkpt>
      <trkpt lat="10.1574145366857" lon="-75.6815739796655">
        <ele>52.421895</ele>
        <time>2019-09-10T15:20:50.700Z</time>
      </trkpt>
      <trkpt lat="10.1574127317966" lon="-75.6815718249376">
        <ele>52.421895</ele>
        <time>2019-09-10T15:20:50.800Z</time>
      </trkpt>
      <trkpt lat="10.1574108963708" lon="-75.681569684257">
        <ele>52.421895</ele>
        <time>2019-09-10T15:20:50.900Z</time>
      </trkpt>
      <trkpt lat="10.1574090639675" lon="-75.6815675559876">
        <ele>52.421895</ele>
        <time>2019-09-10T15:20:51.000Z</time>
      </trkpt>
      <trkpt lat="10.1574072673117" lon="-75.681565405124">
        <ele>52.321895</ele>
        <time>2019-09-10T15:20:51.100Z</time>
      </trkpt>
      <trkpt lat="10.1574055082795" lon="-75.6815632483769">
        <ele>52.321895</ele>
        <time>2019-09-10T15:20:51.200Z</time>
      </trkpt>
      <trkpt lat="10.1574037582103" lon="-75.6815611062167">
        <ele>52.321895</ele>
        <time>2019-09-10T15:20:51.300Z</time>
      </trkpt>
      <trkpt lat="10.1574020050145" lon="-75.6815589796357">
        <ele>52.321895</ele>
        <time>2019-09-10T15:20:51.400Z</time>
      </trkpt>
      <trkpt lat="10.157400218885" lon="-75.6815568243508">
        <ele>52.321895</ele>
        <time>2019-09-10T15:20:51.500Z</time>
      </trkpt>
      <trkpt lat="10.1573984263981" lon="-75.681554654827">
        <ele>52.321895</ele>
        <time>2019-09-10T15:20:51.600Z</time>
      </trkpt>
      <trkpt lat="10.157396682999" lon="-75.6815525233199">
        <ele>52.321895</ele>
        <time>2019-09-10T15:20:51.700Z</time>
      </trkpt>
      <trkpt lat="10.1573949592975" lon="-75.6815504105425">
        <ele>52.321895</ele>
        <time>2019-09-10T15:20:51.800Z</time>
      </trkpt>
      <trkpt lat="10.1573932413282" lon="-75.6815482923168">
        <ele>52.321895</ele>
        <time>2019-09-10T15:20:51.900Z</time>
      </trkpt>
      <trkpt lat="10.1573915018894" lon="-75.681546167111">
        <ele>52.321895</ele>
        <time>2019-09-10T15:20:52.000Z</time>
      </trkpt>
      <trkpt lat="10.1573897723516" lon="-75.6815440744734">
        <ele>52.321895</ele>
        <time>2019-09-10T15:20:52.100Z</time>
      </trkpt>
      <trkpt lat="10.157388029682" lon="-75.6815419881371">
        <ele>52.321895</ele>
        <time>2019-09-10T15:20:52.200Z</time>
      </trkpt>
      <trkpt lat="10.1573863026455" lon="-75.6815399185637">
        <ele>52.221895</ele>
        <time>2019-09-10T15:20:52.300Z</time>
      </trkpt>
      <trkpt lat="10.1573845734204" lon="-75.6815378496168">
        <ele>52.221895</ele>
        <time>2019-09-10T15:20:52.400Z</time>
      </trkpt>
      <trkpt lat="10.1573828602452" lon="-75.6815357882594">
        <ele>52.221895</ele>
        <time>2019-09-10T15:20:52.500Z</time>
      </trkpt>
      <trkpt lat="10.1573811417548" lon="-75.6815337133769">
        <ele>52.221895</ele>
        <time>2019-09-10T15:20:52.600Z</time>
      </trkpt>
      <trkpt lat="10.1573777156128" lon="-75.6815295416094">
        <ele>52.321895</ele>
        <time>2019-09-10T15:20:52.800Z</time>
      </trkpt>
      <trkpt lat="10.1573742880118" lon="-75.681525401157">
        <ele>52.321895</ele>
        <time>2019-09-10T15:20:53.000Z</time>
      </trkpt>
      <trkpt lat="10.1573725946385" lon="-75.6815233258218">
        <ele>52.321895</ele>
        <time>2019-09-10T15:20:53.100Z</time>
      </trkpt>
      <trkpt lat="10.1573709030369" lon="-75.6815212406692">
        <ele>52.321895</ele>
        <time>2019-09-10T15:20:53.200Z</time>
      </trkpt>
      <trkpt lat="10.1573692437437" lon="-75.6815191693725">
        <ele>52.321895</ele>
        <time>2019-09-10T15:20:53.300Z</time>
      </trkpt>
      <trkpt lat="10.1573675826787" lon="-75.6815170988242">
        <ele>52.321895</ele>
        <time>2019-09-10T15:20:53.400Z</time>
      </trkpt>
      <trkpt lat="10.1573659075439" lon="-75.6815150216265">
        <ele>52.321895</ele>
        <time>2019-09-10T15:20:53.500Z</time>
      </trkpt>
      <trkpt lat="10.1573642016642" lon="-75.681512934124">
        <ele>52.321895</ele>
        <time>2019-09-10T15:20:53.600Z</time>
      </trkpt>
      <trkpt lat="10.1573624831737" lon="-75.6815108477877">
        <ele>52.321895</ele>
        <time>2019-09-10T15:20:53.700Z</time>
      </trkpt>
      <trkpt lat="10.1573607523853" lon="-75.6815087619214">
        <ele>52.321895</ele>
        <time>2019-09-10T15:20:53.800Z</time>
      </trkpt>
      <trkpt lat="10.1573590042962" lon="-75.6815066735485">
        <ele>52.321895</ele>
        <time>2019-09-10T15:20:53.900Z</time>
      </trkpt>
      <trkpt lat="10.1573572626689" lon="-75.6815045926605">
        <ele>52.321895</ele>
        <time>2019-09-10T15:20:54.000Z</time>
      </trkpt>
      <trkpt lat="10.1573554901923" lon="-75.6815025012588">
        <ele>52.321895</ele>
        <time>2019-09-10T15:20:54.100Z</time>
      </trkpt>
      <trkpt lat="10.1573537205296" lon="-75.6815004046873">
        <ele>52.321895</ele>
        <time>2019-09-10T15:20:54.200Z</time>
      </trkpt>
      <trkpt lat="10.1573502247684" lon="-75.6814962792918">
        <ele>52.321895</ele>
        <time>2019-09-10T15:20:54.400Z</time>
      </trkpt>
      <trkpt lat="10.1573484820988" lon="-75.6814942338791">
        <ele>52.321895</ele>
        <time>2019-09-10T15:20:54.500Z</time>
      </trkpt>
      <trkpt lat="10.1573467314043" lon="-75.681492174976">
        <ele>52.421895</ele>
        <time>2019-09-10T15:20:54.600Z</time>
      </trkpt>
      <trkpt lat="10.1573449564264" lon="-75.6814901106246">
        <ele>52.421895</ele>
        <time>2019-09-10T15:20:54.700Z</time>
      </trkpt>
      <trkpt lat="10.1573431790514" lon="-75.6814880270212">
        <ele>52.421895</ele>
        <time>2019-09-10T15:20:54.800Z</time>
      </trkpt>
      <trkpt lat="10.1573413915671" lon="-75.6814859409809">
        <ele>52.421895</ele>
        <time>2019-09-10T15:20:54.900Z</time>
      </trkpt>
      <trkpt lat="10.1573396233635" lon="-75.681483863348">
        <ele>52.421895</ele>
        <time>2019-09-10T15:20:55.000Z</time>
      </trkpt>
      <trkpt lat="10.1573378884062" lon="-75.6814818389106">
        <ele>52.321895</ele>
        <time>2019-09-10T15:20:55.100Z</time>
      </trkpt>
      <trkpt lat="10.1573361697074" lon="-75.6814798331507">
        <ele>52.321895</ele>
        <time>2019-09-10T15:20:55.200Z</time>
      </trkpt>
      <trkpt lat="10.1573344425666" lon="-75.6814778089222">
        <ele>52.321895</ele>
        <time>2019-09-10T15:20:55.300Z</time>
      </trkpt>
      <trkpt lat="10.1573327012519" lon="-75.6814757577826">
        <ele>52.321895</ele>
        <time>2019-09-10T15:20:55.400Z</time>
      </trkpt>
      <trkpt lat="10.1573309648356" lon="-75.6814737320223">
        <ele>52.321895</ele>
        <time>2019-09-10T15:20:55.500Z</time>
      </trkpt>
      <trkpt lat="10.1573292284192" lon="-75.6814717149479">
        <ele>52.321895</ele>
        <time>2019-09-10T15:20:55.600Z</time>
      </trkpt>
      <trkpt lat="10.1573274941915" lon="-75.681469698831">
        <ele>52.321895</ele>
        <time>2019-09-10T15:20:55.700Z</time>
      </trkpt>
      <trkpt lat="10.1573257596511" lon="-75.6814676721132">
        <ele>52.321895</ele>
        <time>2019-09-10T15:20:55.800Z</time>
      </trkpt>
      <trkpt lat="10.1573240260487" lon="-75.6814656426626">
        <ele>52.321895</ele>
        <time>2019-09-10T15:20:55.900Z</time>
      </trkpt>
      <trkpt lat="10.157322292759" lon="-75.6814636145349">
        <ele>52.321895</ele>
        <time>2019-09-10T15:20:56.000Z</time>
      </trkpt>
      <trkpt lat="10.1573205667647" lon="-75.6814616073129">
        <ele>52.321895</ele>
        <time>2019-09-10T15:20:56.100Z</time>
      </trkpt>
      <trkpt lat="10.1573188515051" lon="-75.6814596037986">
        <ele>52.321895</ele>
        <time>2019-09-10T15:20:56.200Z</time>
      </trkpt>
      <trkpt lat="10.1573171644892" lon="-75.681457587995">
        <ele>52.321895</ele>
        <time>2019-09-10T15:20:56.300Z</time>
      </trkpt>
      <trkpt lat="10.1573154807042" lon="-75.6814555588403">
        <ele>52.321895</ele>
        <time>2019-09-10T15:20:56.400Z</time>
      </trkpt>
      <trkpt lat="10.157313767529" lon="-75.6814535157252">
        <ele>52.321895</ele>
        <time>2019-09-10T15:20:56.500Z</time>
      </trkpt>
      <trkpt lat="10.1573120457035" lon="-75.681451480043">
        <ele>52.321895</ele>
        <time>2019-09-10T15:20:56.600Z</time>
      </trkpt>
      <trkpt lat="10.1573103136644" lon="-75.6814494061526">
        <ele>52.321895</ele>
        <time>2019-09-10T15:20:56.700Z</time>
      </trkpt>
      <trkpt lat="10.157308596112" lon="-75.6814473304345">
        <ele>52.321895</ele>
        <time>2019-09-10T15:20:56.800Z</time>
      </trkpt>
      <trkpt lat="10.157305282007" lon="-75.6814433340066">
        <ele>52.321895</ele>
        <time>2019-09-10T15:20:57.000Z</time>
      </trkpt>
      <trkpt lat="10.1573019846814" lon="-75.6814392822422">
        <ele>52.321895</ele>
        <time>2019-09-10T15:20:57.200Z</time>
      </trkpt>
      <trkpt lat="10.157300298812" lon="-75.6814372076903">
        <ele>52.321895</ele>
        <time>2019-09-10T15:20:57.300Z</time>
      </trkpt>
      <trkpt lat="10.1572985887634" lon="-75.6814351192652">
        <ele>52.321895</ele>
        <time>2019-09-10T15:20:57.400Z</time>
      </trkpt>
      <trkpt lat="10.1572968866356" lon="-75.6814330291516">
        <ele>52.321895</ele>
        <time>2019-09-10T15:20:57.500Z</time>
      </trkpt>
      <trkpt lat="10.1572951953467" lon="-75.6814309393427">
        <ele>52.321895</ele>
        <time>2019-09-10T15:20:57.600Z</time>
      </trkpt>
      <trkpt lat="10.1572935008269" lon="-75.6814288338327">
        <ele>52.321895</ele>
        <time>2019-09-10T15:20:57.700Z</time>
      </trkpt>
      <trkpt lat="10.1572917948429" lon="-75.6814267133441">
        <ele>52.321895</ele>
        <time>2019-09-10T15:20:57.800Z</time>
      </trkpt>
      <trkpt lat="10.1572900919856" lon="-75.6814245883297">
        <ele>52.321895</ele>
        <time>2019-09-10T15:20:57.900Z</time>
      </trkpt>
      <trkpt lat="10.1572883894409" lon="-75.6814224599297">
        <ele>52.321895</ele>
        <time>2019-09-10T15:20:58.000Z</time>
      </trkpt>
      <trkpt lat="10.157286691065" lon="-75.6814203305288">
        <ele>52.321895</ele>
        <time>2019-09-10T15:20:58.100Z</time>
      </trkpt>
      <trkpt lat="10.1572849906047" lon="-75.6814181956708">
        <ele>52.321895</ele>
        <time>2019-09-10T15:20:58.200Z</time>
      </trkpt>
      <trkpt lat="10.1572833028592" lon="-75.6814160420918">
        <ele>52.321895</ele>
        <time>2019-09-10T15:20:58.300Z</time>
      </trkpt>
      <trkpt lat="10.1572816198037" lon="-75.6814138763801">
        <ele>52.321895</ele>
        <time>2019-09-10T15:20:58.400Z</time>
      </trkpt>
      <trkpt lat="10.1572799571755" lon="-75.6814116978483">
        <ele>52.321895</ele>
        <time>2019-09-10T15:20:58.500Z</time>
      </trkpt>
      <trkpt lat="10.1572782855842" lon="-75.6814095100386">
        <ele>52.321895</ele>
        <time>2019-09-10T15:20:58.600Z</time>
      </trkpt>
      <trkpt lat="10.1572765952333" lon="-75.6814073289915">
        <ele>52.321895</ele>
        <time>2019-09-10T15:20:58.700Z</time>
      </trkpt>
      <trkpt lat="10.1572748697601" lon="-75.6814051556208">
        <ele>52.321895</ele>
        <time>2019-09-10T15:20:58.800Z</time>
      </trkpt>
      <trkpt lat="10.1572731338648" lon="-75.681402986158">
        <ele>52.321895</ele>
        <time>2019-09-10T15:20:58.900Z</time>
      </trkpt>
      <trkpt lat="10.1572713884855" lon="-75.6814008173827">
        <ele>52.321895</ele>
        <time>2019-09-10T15:20:59.000Z</time>
      </trkpt>
      <trkpt lat="10.1572696749977" lon="-75.6813986922987">
        <ele>52.321895</ele>
        <time>2019-09-10T15:20:59.100Z</time>
      </trkpt>
      <trkpt lat="10.1572679666166" lon="-75.6813965907227">
        <ele>52.321895</ele>
        <time>2019-09-10T15:20:59.200Z</time>
      </trkpt>
      <trkpt lat="10.1572662078971" lon="-75.6813944254984">
        <ele>52.321895</ele>
        <time>2019-09-10T15:20:59.300Z</time>
      </trkpt>
      <trkpt lat="10.1572644182241" lon="-75.6813922391857">
        <ele>52.321895</ele>
        <time>2019-09-10T15:20:59.400Z</time>
      </trkpt>
      <trkpt lat="10.1572626568991" lon="-75.6813900987923">
        <ele>52.321895</ele>
        <time>2019-09-10T15:20:59.500Z</time>
      </trkpt>
      <trkpt lat="10.1572609111029" lon="-75.6813880167207">
        <ele>52.321895</ele>
        <time>2019-09-10T15:20:59.600Z</time>
      </trkpt>
      <trkpt lat="10.1572591664531" lon="-75.6813859604374">
        <ele>52.321895</ele>
        <time>2019-09-10T15:20:59.700Z</time>
      </trkpt>
      <trkpt lat="10.1572574212823" lon="-75.6813839163215">
        <ele>52.321895</ele>
        <time>2019-09-10T15:20:59.800Z</time>
      </trkpt>
      <trkpt lat="10.1572556929951" lon="-75.6813818812485">
        <ele>52.321895</ele>
        <time>2019-09-10T15:20:59.900Z</time>
      </trkpt>
      <trkpt lat="10.1572539660628" lon="-75.6813798480119">
        <ele>52.321895</ele>
        <time>2019-09-10T15:21:00.000Z</time>
      </trkpt>
      <trkpt lat="10.1572522268325" lon="-75.681377814314">
        <ele>52.321895</ele>
        <time>2019-09-10T15:21:00.100Z</time>
      </trkpt>
      <trkpt lat="10.1572504869769" lon="-75.6813757650979">
        <ele>52.321895</ele>
        <time>2019-09-10T15:21:00.200Z</time>
      </trkpt>
      <trkpt lat="10.1572487581687" lon="-75.6813736932354">
        <ele>52.321895</ele>
        <time>2019-09-10T15:21:00.300Z</time>
      </trkpt>
      <trkpt lat="10.1572470439513" lon="-75.6813716001713">
        <ele>52.321895</ele>
        <time>2019-09-10T15:21:00.400Z</time>
      </trkpt>
      <trkpt lat="10.1572453261904" lon="-75.6813694933994">
        <ele>52.321895</ele>
        <time>2019-09-10T15:21:00.500Z</time>
      </trkpt>
      <trkpt lat="10.1572436098886" lon="-75.6813673789075">
        <ele>52.321895</ele>
        <time>2019-09-10T15:21:00.600Z</time>
      </trkpt>
      <trkpt lat="10.1572419081776" lon="-75.6813652180958">
        <ele>52.321895</ele>
        <time>2019-09-10T15:21:00.700Z</time>
      </trkpt>
      <trkpt lat="10.15724020803" lon="-75.6813630270833">
        <ele>52.321895</ele>
        <time>2019-09-10T15:21:00.800Z</time>
      </trkpt>
      <trkpt lat="10.1572385086119" lon="-75.6813608179589">
        <ele>52.321895</ele>
        <time>2019-09-10T15:21:00.900Z</time>
      </trkpt>
      <trkpt lat="10.1572368047123" lon="-75.6813586240655">
        <ele>52.321895</ele>
        <time>2019-09-10T15:21:01.000Z</time>
      </trkpt>
      <trkpt lat="10.1572350905991" lon="-75.6813564468305">
        <ele>52.321895</ele>
        <time>2019-09-10T15:21:01.100Z</time>
      </trkpt>
      <trkpt lat="10.1572333712749" lon="-75.6813542904706">
        <ele>52.321895</ele>
        <time>2019-09-10T15:21:01.200Z</time>
      </trkpt>
      <trkpt lat="10.1572316661247" lon="-75.6813521486412">
        <ele>52.321895</ele>
        <time>2019-09-10T15:21:01.300Z</time>
      </trkpt>
      <trkpt lat="10.1572299723345" lon="-75.6813500139965">
        <ele>52.321895</ele>
        <time>2019-09-10T15:21:01.400Z</time>
      </trkpt>
      <trkpt lat="10.1572282896959" lon="-75.6813478816886">
        <ele>52.321895</ele>
        <time>2019-09-10T15:21:01.500Z</time>
      </trkpt>
      <trkpt lat="10.1572249597494" lon="-75.6813435947747">
        <ele>52.321895</ele>
        <time>2019-09-10T15:21:01.700Z</time>
      </trkpt>
      <trkpt lat="10.157223294724" lon="-75.6813414535676">
        <ele>52.321895</ele>
        <time>2019-09-10T15:21:01.800Z</time>
      </trkpt>
      <trkpt lat="10.157221593951" lon="-75.6813392669851">
        <ele>52.321895</ele>
        <time>2019-09-10T15:21:01.900Z</time>
      </trkpt>
      <trkpt lat="10.1572198748353" lon="-75.6813370666772">
        <ele>52.321895</ele>
        <time>2019-09-10T15:21:02.000Z</time>
      </trkpt>
      <trkpt lat="10.1572181506127" lon="-75.6813349061006">
        <ele>52.321895</ele>
        <time>2019-09-10T15:21:02.100Z</time>
      </trkpt>
      <trkpt lat="10.1572164300379" lon="-75.6813327767911">
        <ele>52.321895</ele>
        <time>2019-09-10T15:21:02.200Z</time>
      </trkpt>
      <trkpt lat="10.1572147133192" lon="-75.6813306860291">
        <ele>52.321895</ele>
        <time>2019-09-10T15:21:02.300Z</time>
      </trkpt>
      <trkpt lat="10.1572130048339" lon="-75.681328605981">
        <ele>52.321895</ele>
        <time>2019-09-10T15:21:02.400Z</time>
      </trkpt>
      <trkpt lat="10.1572113056243" lon="-75.6813265287485">
        <ele>52.321895</ele>
        <time>2019-09-10T15:21:02.500Z</time>
      </trkpt>
      <trkpt lat="10.1572096053724" lon="-75.6813244457761">
        <ele>52.321895</ele>
        <time>2019-09-10T15:21:02.600Z</time>
      </trkpt>
      <trkpt lat="10.1572079087682" lon="-75.6813223585782">
        <ele>52.421895</ele>
        <time>2019-09-10T15:21:02.700Z</time>
      </trkpt>
      <trkpt lat="10.1572062148738" lon="-75.6813202709407">
        <ele>52.421895</ele>
        <time>2019-09-10T15:21:02.800Z</time>
      </trkpt>
      <trkpt lat="10.1572045025324" lon="-75.6813181712664">
        <ele>52.421895</ele>
        <time>2019-09-10T15:21:02.900Z</time>
      </trkpt>
      <trkpt lat="10.1572027754959" lon="-75.6813160703214">
        <ele>52.421895</ele>
        <time>2019-09-10T15:21:03.000Z</time>
      </trkpt>
      <trkpt lat="10.1572010334516" lon="-75.6813139819659">
        <ele>52.421895</ele>
        <time>2019-09-10T15:21:03.100Z</time>
      </trkpt>
      <trkpt lat="10.1571992910947" lon="-75.6813119055167">
        <ele>52.421895</ele>
        <time>2019-09-10T15:21:03.200Z</time>
      </trkpt>
      <trkpt lat="10.1571975547826" lon="-75.681309825671">
        <ele>52.421895</ele>
        <time>2019-09-10T15:21:03.300Z</time>
      </trkpt>
      <trkpt lat="10.1571958233688" lon="-75.6813077386776">
        <ele>52.421895</ele>
        <time>2019-09-10T15:21:03.400Z</time>
      </trkpt>
      <trkpt lat="10.1571941205115" lon="-75.6813056899359">
        <ele>52.421895</ele>
        <time>2019-09-10T15:21:03.500Z</time>
      </trkpt>
      <trkpt lat="10.1571924291183" lon="-75.6813036555384">
        <ele>52.421895</ele>
        <time>2019-09-10T15:21:03.600Z</time>
      </trkpt>
      <trkpt lat="10.157190698851" lon="-75.6813015891744">
        <ele>52.421895</ele>
        <time>2019-09-10T15:21:03.700Z</time>
      </trkpt>
      <trkpt lat="10.1571889323149" lon="-75.6812994895349">
        <ele>52.421895</ele>
        <time>2019-09-10T15:21:03.800Z</time>
      </trkpt>
      <trkpt lat="10.1571871581708" lon="-75.6812973741106">
        <ele>52.421895</ele>
        <time>2019-09-10T15:21:03.900Z</time>
      </trkpt>
      <trkpt lat="10.1571853920516" lon="-75.6812952579449">
        <ele>52.421895</ele>
        <time>2019-09-10T15:21:04.000Z</time>
      </trkpt>
      <trkpt lat="10.157183625724" lon="-75.6812931306497">
        <ele>52.421895</ele>
        <time>2019-09-10T15:21:04.100Z</time>
      </trkpt>
      <trkpt lat="10.1571818572078" lon="-75.6812910091659">
        <ele>52.421895</ele>
        <time>2019-09-10T15:21:04.200Z</time>
      </trkpt>
      <trkpt lat="10.157180087962" lon="-75.6812888914294">
        <ele>52.421895</ele>
        <time>2019-09-10T15:21:04.300Z</time>
      </trkpt>
      <trkpt lat="10.1571783272623" lon="-75.6812867851768">
        <ele>52.421895</ele>
        <time>2019-09-10T15:21:04.400Z</time>
      </trkpt>
      <trkpt lat="10.1571765399864" lon="-75.6812846629543">
        <ele>52.421895</ele>
        <time>2019-09-10T15:21:04.500Z</time>
      </trkpt>
      <trkpt lat="10.1571730078523" lon="-75.6812804708817">
        <ele>52.421895</ele>
        <time>2019-09-10T15:21:04.700Z</time>
      </trkpt>
      <trkpt lat="10.1571712806073" lon="-75.6812784190459">
        <ele>52.421895</ele>
        <time>2019-09-10T15:21:04.800Z</time>
      </trkpt>
      <trkpt lat="10.1571695565932" lon="-75.6812763682604">
        <ele>52.421895</ele>
        <time>2019-09-10T15:21:04.900Z</time>
      </trkpt>
      <trkpt lat="10.1571678184051" lon="-75.6812743091126">
        <ele>52.421895</ele>
        <time>2019-09-10T15:21:05.000Z</time>
      </trkpt>
      <trkpt lat="10.1571660898053" lon="-75.6812722478596">
        <ele>52.421895</ele>
        <time>2019-09-10T15:21:05.100Z</time>
      </trkpt>
      <trkpt lat="10.1571643677714" lon="-75.6812701798636">
        <ele>52.421895</ele>
        <time>2019-09-10T15:21:05.200Z</time>
      </trkpt>
      <trkpt lat="10.1571626569933" lon="-75.681268111389">
        <ele>52.421895</ele>
        <time>2019-09-10T15:21:05.300Z</time>
      </trkpt>
      <trkpt lat="10.1571609439223" lon="-75.6812660424269">
        <ele>52.421895</ele>
        <time>2019-09-10T15:21:05.400Z</time>
      </trkpt>
      <trkpt lat="10.157159222201" lon="-75.6812639661975">
        <ele>52.421895</ele>
        <time>2019-09-10T15:21:05.500Z</time>
      </trkpt>
      <trkpt lat="10.1571574853678" lon="-75.68126187752">
        <ele>52.421895</ele>
        <time>2019-09-10T15:21:05.600Z</time>
      </trkpt>
      <trkpt lat="10.1571557381125" lon="-75.6812597892559">
        <ele>52.421895</ele>
        <time>2019-09-10T15:21:05.700Z</time>
      </trkpt>
      <trkpt lat="10.1571539873137" lon="-75.6812576948319">
        <ele>52.421895</ele>
        <time>2019-09-10T15:21:05.800Z</time>
      </trkpt>
      <trkpt lat="10.1571522291153" lon="-75.6812555587489">
        <ele>52.421895</ele>
        <time>2019-09-10T15:21:05.900Z</time>
      </trkpt>
      <trkpt lat="10.1571486870803" lon="-75.6812512466907">
        <ele>52.421895</ele>
        <time>2019-09-10T15:21:06.100Z</time>
      </trkpt>
      <trkpt lat="10.1571468969904" lon="-75.6812490969847">
        <ele>52.421895</ele>
        <time>2019-09-10T15:21:06.200Z</time>
      </trkpt>
      <trkpt lat="10.1571451088807" lon="-75.6812469349024">
        <ele>52.421895</ele>
        <time>2019-09-10T15:21:06.300Z</time>
      </trkpt>
      <trkpt lat="10.1571433272327" lon="-75.6812447733945">
        <ele>52.421895</ele>
        <time>2019-09-10T15:21:06.400Z</time>
      </trkpt>
      <trkpt lat="10.1571415356838" lon="-75.6812426325355">
        <ele>52.421895</ele>
        <time>2019-09-10T15:21:06.500Z</time>
      </trkpt>
      <trkpt lat="10.1571397468446" lon="-75.6812404979038">
        <ele>52.421895</ele>
        <time>2019-09-10T15:21:06.600Z</time>
      </trkpt>
      <trkpt lat="10.1571379826014" lon="-75.68123833365">
        <ele>52.421895</ele>
        <time>2019-09-10T15:21:06.700Z</time>
      </trkpt>
      <trkpt lat="10.1571362231523" lon="-75.6812361542696">
        <ele>52.421895</ele>
        <time>2019-09-10T15:21:06.800Z</time>
      </trkpt>
      <trkpt lat="10.1571344367102" lon="-75.681233942347">
        <ele>52.421895</ele>
        <time>2019-09-10T15:21:06.900Z</time>
      </trkpt>
      <trkpt lat="10.1571326281733" lon="-75.6812317367954">
        <ele>52.421895</ele>
        <time>2019-09-10T15:21:07.000Z</time>
      </trkpt>
      <trkpt lat="10.1571308090059" lon="-75.6812295377539">
        <ele>52.421895</ele>
        <time>2019-09-10T15:21:07.100Z</time>
      </trkpt>
      <trkpt lat="10.1571289982804" lon="-75.681227360323">
        <ele>52.421895</ele>
        <time>2019-09-10T15:21:07.200Z</time>
      </trkpt>
      <trkpt lat="10.1571272002698" lon="-75.6812251952293">
        <ele>52.421895</ele>
        <time>2019-09-10T15:21:07.300Z</time>
      </trkpt>
      <trkpt lat="10.1571254204978" lon="-75.681223035423">
        <ele>52.421895</ele>
        <time>2019-09-10T15:21:07.400Z</time>
      </trkpt>
      <trkpt lat="10.1571236956499" lon="-75.6812209113094">
        <ele>52.421895</ele>
        <time>2019-09-10T15:21:07.500Z</time>
      </trkpt>
      <trkpt lat="10.1571219886237" lon="-75.6812187971613">
        <ele>52.421895</ele>
        <time>2019-09-10T15:21:07.600Z</time>
      </trkpt>
      <trkpt lat="10.1571202733641" lon="-75.6812166939881">
        <ele>52.421895</ele>
        <time>2019-09-10T15:21:07.700Z</time>
      </trkpt>
      <trkpt lat="10.1571185282975" lon="-75.6812145784431">
        <ele>52.421895</ele>
        <time>2019-09-10T15:21:07.800Z</time>
      </trkpt>
      <trkpt lat="10.157116792298" lon="-75.6812124676937">
        <ele>52.421895</ele>
        <time>2019-09-10T15:21:07.900Z</time>
      </trkpt>
      <trkpt lat="10.1571150517128" lon="-75.6812103633064">
        <ele>52.421895</ele>
        <time>2019-09-10T15:21:08.000Z</time>
      </trkpt>
      <trkpt lat="10.1571132965368" lon="-75.6812082980325">
        <ele>52.421895</ele>
        <time>2019-09-10T15:21:08.100Z</time>
      </trkpt>
      <trkpt lat="10.1571115316683" lon="-75.6812062416099">
        <ele>52.421895</ele>
        <time>2019-09-10T15:21:08.200Z</time>
      </trkpt>
      <trkpt lat="10.1571097512709" lon="-75.6812041828113">
        <ele>52.421895</ele>
        <time>2019-09-10T15:21:08.300Z</time>
      </trkpt>
      <trkpt lat="10.1571079741044" lon="-75.6812021135077">
        <ele>52.421895</ele>
        <time>2019-09-10T15:21:08.400Z</time>
      </trkpt>
      <trkpt lat="10.1571062045459" lon="-75.681200036719">
        <ele>52.421895</ele>
        <time>2019-09-10T15:21:08.500Z</time>
      </trkpt>
      <trkpt lat="10.1571044543725" lon="-75.68119795067">
        <ele>52.421895</ele>
        <time>2019-09-10T15:21:08.600Z</time>
      </trkpt>
      <trkpt lat="10.1571026939855" lon="-75.6811958761268">
        <ele>52.421895</ele>
        <time>2019-09-10T15:21:08.700Z</time>
      </trkpt>
      <trkpt lat="10.1571009320351" lon="-75.6811938016533">
        <ele>52.421895</ele>
        <time>2019-09-10T15:21:08.800Z</time>
      </trkpt>
      <trkpt lat="10.1570991695637" lon="-75.6811917081715">
        <ele>52.421895</ele>
        <time>2019-09-10T15:21:08.900Z</time>
      </trkpt>
      <trkpt lat="10.1570974084471" lon="-75.6811895997546">
        <ele>52.421895</ele>
        <time>2019-09-10T15:21:09.000Z</time>
      </trkpt>
      <trkpt lat="10.1570956478516" lon="-75.6811874769596">
        <ele>52.421895</ele>
        <time>2019-09-10T15:21:09.100Z</time>
      </trkpt>
      <trkpt lat="10.1570938911123" lon="-75.6811853496997">
        <ele>52.421895</ele>
        <time>2019-09-10T15:21:09.200Z</time>
      </trkpt>
      <trkpt lat="10.1570921431274" lon="-75.6811832254426">
        <ele>52.421895</ele>
        <time>2019-09-10T15:21:09.300Z</time>
      </trkpt>
      <trkpt lat="10.1570903984777" lon="-75.68118110243">
        <ele>52.321895</ele>
        <time>2019-09-10T15:21:09.400Z</time>
      </trkpt>
      <trkpt lat="10.1570886680019" lon="-75.681178983508">
        <ele>52.321895</ele>
        <time>2019-09-10T15:21:09.500Z</time>
      </trkpt>
      <trkpt lat="10.157086937943" lon="-75.6811768642901">
        <ele>52.321895</ele>
        <time>2019-09-10T15:21:09.600Z</time>
      </trkpt>
      <trkpt lat="10.1570834533334" lon="-75.6811725435111">
        <ele>52.321895</ele>
        <time>2019-09-10T15:21:09.800Z</time>
      </trkpt>
      <trkpt lat="10.1570817596474" lon="-75.6811704161903">
        <ele>52.321895</ele>
        <time>2019-09-10T15:21:09.900Z</time>
      </trkpt>
      <trkpt lat="10.1570800766961" lon="-75.6811683221515">
        <ele>52.321895</ele>
        <time>2019-09-10T15:21:10.000Z</time>
      </trkpt>
      <trkpt lat="10.1570783895761" lon="-75.6811662535441">
        <ele>52.321895</ele>
        <time>2019-09-10T15:21:10.100Z</time>
      </trkpt>
      <trkpt lat="10.157076679319" lon="-75.6811641829784">
        <ele>52.321895</ele>
        <time>2019-09-10T15:21:10.200Z</time>
      </trkpt>
      <trkpt lat="10.1570749620792" lon="-75.6811621196801">
        <ele>52.321895</ele>
        <time>2019-09-10T15:21:10.300Z</time>
      </trkpt>
      <trkpt lat="10.1570732402537" lon="-75.6811600415599">
        <ele>52.321895</ele>
        <time>2019-09-10T15:21:10.400Z</time>
      </trkpt>
      <trkpt lat="10.1570715049838" lon="-75.6811579519859">
        <ele>52.321895</ele>
        <time>2019-09-10T15:21:10.500Z</time>
      </trkpt>
      <trkpt lat="10.1570697419913" lon="-75.6811558489303">
        <ele>52.321895</ele>
        <time>2019-09-10T15:21:10.600Z</time>
      </trkpt>
      <trkpt lat="10.157067950755" lon="-75.6811537497652">
        <ele>52.321895</ele>
        <time>2019-09-10T15:21:10.700Z</time>
      </trkpt>
      <trkpt lat="10.1570661486798" lon="-75.6811516497906">
        <ele>52.321895</ele>
        <time>2019-09-10T15:21:10.800Z</time>
      </trkpt>
      <trkpt lat="10.1570643515029" lon="-75.6811495562826">
        <ele>52.321895</ele>
        <time>2019-09-10T15:21:10.900Z</time>
      </trkpt>
      <trkpt lat="10.1570625639144" lon="-75.6811474685625">
        <ele>52.321895</ele>
        <time>2019-09-10T15:21:11.000Z</time>
      </trkpt>
      <trkpt lat="10.1570607916462" lon="-75.6811453841323">
        <ele>52.321895</ele>
        <time>2019-09-10T15:21:11.100Z</time>
      </trkpt>
      <trkpt lat="10.1570590285494" lon="-75.6811433012426">
        <ele>52.321895</ele>
        <time>2019-09-10T15:21:11.200Z</time>
      </trkpt>
      <trkpt lat="10.1570572667033" lon="-75.6811412178306">
        <ele>52.321895</ele>
        <time>2019-09-10T15:21:11.300Z</time>
      </trkpt>
      <trkpt lat="10.1570555026685" lon="-75.6811391350453">
        <ele>52.321895</ele>
        <time>2019-09-10T15:21:11.400Z</time>
      </trkpt>
      <trkpt lat="10.1570537383211" lon="-75.6811370391004">
        <ele>52.321895</ele>
        <time>2019-09-10T15:21:11.500Z</time>
      </trkpt>
      <trkpt lat="10.1570519814776" lon="-75.6811349357228">
        <ele>52.321895</ele>
        <time>2019-09-10T15:21:11.600Z</time>
      </trkpt>
      <trkpt lat="10.1570502454781" lon="-75.6811328448607">
        <ele>52.321895</ele>
        <time>2019-09-10T15:21:11.700Z</time>
      </trkpt>
      <trkpt lat="10.1570485262581" lon="-75.6811307654698">
        <ele>52.321895</ele>
        <time>2019-09-10T15:21:11.800Z</time>
      </trkpt>
      <trkpt lat="10.1570468219417" lon="-75.6811286940686">
        <ele>52.321895</ele>
        <time>2019-09-10T15:21:11.900Z</time>
      </trkpt>
      <trkpt lat="10.1570451231489" lon="-75.6811266198301">
        <ele>52.321895</ele>
        <time>2019-09-10T15:21:12.000Z</time>
      </trkpt>
      <trkpt lat="10.1570434326937" lon="-75.6811245080449">
        <ele>52.321895</ele>
        <time>2019-09-10T15:21:12.100Z</time>
      </trkpt>
      <trkpt lat="10.1570417489087" lon="-75.6811223884441">
        <ele>52.321895</ele>
        <time>2019-09-10T15:21:12.200Z</time>
      </trkpt>
      <trkpt lat="10.1570400797145" lon="-75.6811202843528">
        <ele>52.321895</ele>
        <time>2019-09-10T15:21:12.300Z</time>
      </trkpt>
      <trkpt lat="10.1570384123963" lon="-75.681118196328">
        <ele>52.321895</ele>
        <time>2019-09-10T15:21:12.400Z</time>
      </trkpt>
      <trkpt lat="10.1570367553959" lon="-75.6811161151964">
        <ele>52.321895</ele>
        <time>2019-09-10T15:21:12.500Z</time>
      </trkpt>
      <trkpt lat="10.1570350972491" lon="-75.6811140366758">
        <ele>52.321895</ele>
        <time>2019-09-10T15:21:12.600Z</time>
      </trkpt>
      <trkpt lat="10.1570334416036" lon="-75.681111960157">
        <ele>52.321895</ele>
        <time>2019-09-10T15:21:12.700Z</time>
      </trkpt>
      <trkpt lat="10.1570317794964" lon="-75.6811098727763">
        <ele>52.321895</ele>
        <time>2019-09-10T15:21:12.800Z</time>
      </trkpt>
      <trkpt lat="10.157030104987" lon="-75.6811077827846">
        <ele>52.321895</ele>
        <time>2019-09-10T15:21:12.900Z</time>
      </trkpt>
      <trkpt lat="10.1570267180319" lon="-75.6811036267181">
        <ele>52.321895</ele>
        <time>2019-09-10T15:21:13.100Z</time>
      </trkpt>
      <trkpt lat="10.1570250181969" lon="-75.6811015638115">
        <ele>52.321895</ele>
        <time>2019-09-10T15:21:13.200Z</time>
      </trkpt>
      <trkpt lat="10.15702334202" lon="-75.6810994915052">
        <ele>52.321895</ele>
        <time>2019-09-10T15:21:13.300Z</time>
      </trkpt>
      <trkpt lat="10.1570216705329" lon="-75.6810974063177">
        <ele>52.321895</ele>
        <time>2019-09-10T15:21:13.400Z</time>
      </trkpt>
      <trkpt lat="10.1570200031105" lon="-75.6810953291548">
        <ele>52.321895</ele>
        <time>2019-09-10T15:21:13.500Z</time>
      </trkpt>
      <trkpt lat="10.1570183948853" lon="-75.6810932958051">
        <ele>52.321895</ele>
        <time>2019-09-10T15:21:13.600Z</time>
      </trkpt>
      <trkpt lat="10.1570169718597" lon="-75.6810913473661">
        <ele>52.321895</ele>
        <time>2019-09-10T15:21:13.700Z</time>
      </trkpt>
      <trkpt lat="10.1570157397659" lon="-75.6810894443417">
        <ele>52.321895</ele>
        <time>2019-09-10T15:21:13.800Z</time>
      </trkpt>
      <trkpt lat="10.1570147501931" lon="-75.6810875731196">
        <ele>52.321895</ele>
        <time>2019-09-10T15:21:13.900Z</time>
      </trkpt>
      <trkpt lat="10.157013975627" lon="-75.6810856916448">
        <ele>52.321895</ele>
        <time>2019-09-10T15:21:14.000Z</time>
      </trkpt>
      <trkpt lat="10.157013514139" lon="-75.6810838509022">
        <ele>52.321895</ele>
        <time>2019-09-10T15:21:14.100Z</time>
      </trkpt>
      <trkpt lat="10.1570134377454" lon="-75.6810802757381">
        <ele>52.321895</ele>
        <time>2019-09-10T15:21:14.300Z</time>
      </trkpt>
      <trkpt lat="10.1570138437881" lon="-75.6810785369128">
        <ele>52.321895</ele>
        <time>2019-09-10T15:21:14.400Z</time>
      </trkpt>
      <trkpt lat="10.1570145653061" lon="-75.6810768809094">
        <ele>52.321895</ele>
        <time>2019-09-10T15:21:14.500Z</time>
      </trkpt>
      <trkpt lat="10.1570155514397" lon="-75.6810752434094">
        <ele>52.321895</ele>
        <time>2019-09-10T15:21:14.600Z</time>
      </trkpt>
      <trkpt lat="10.1570168569046" lon="-75.6810737145981">
        <ele>52.321895</ele>
        <time>2019-09-10T15:21:14.700Z</time>
      </trkpt>
      <trkpt lat="10.1570184556458" lon="-75.6810721808954">
        <ele>52.321895</ele>
        <time>2019-09-10T15:21:14.800Z</time>
      </trkpt>
      <trkpt lat="10.1570203344272" lon="-75.6810707405806">
        <ele>52.321895</ele>
        <time>2019-09-10T15:21:14.900Z</time>
      </trkpt>
      <trkpt lat="10.1570223830879" lon="-75.6810692737029">
        <ele>52.321895</ele>
        <time>2019-09-10T15:21:15.000Z</time>
      </trkpt>
      <trkpt lat="10.1570245157503" lon="-75.6810679222154">
        <ele>52.321895</ele>
        <time>2019-09-10T15:21:15.100Z</time>
      </trkpt>
      <trkpt lat="10.157026731789" lon="-75.6810665480816">
        <ele>52.321895</ele>
        <time>2019-09-10T15:21:15.200Z</time>
      </trkpt>
      <trkpt lat="10.1570289686718" lon="-75.6810652767876">
        <ele>52.321895</ele>
        <time>2019-09-10T15:21:15.300Z</time>
      </trkpt>
      <trkpt lat="10.1570312751738" lon="-75.681063952037">
        <ele>52.421895</ele>
        <time>2019-09-10T15:21:15.400Z</time>
      </trkpt>
      <trkpt lat="10.1570335515561" lon="-75.6810626838415">
        <ele>52.421895</ele>
        <time>2019-09-10T15:21:15.500Z</time>
      </trkpt>
      <trkpt lat="10.1570358756714" lon="-75.681061327306">
        <ele>52.421895</ele>
        <time>2019-09-10T15:21:15.600Z</time>
      </trkpt>
      <trkpt lat="10.1570381440287" lon="-75.6810599554524">
        <ele>52.421895</ele>
        <time>2019-09-10T15:21:15.700Z</time>
      </trkpt>
      <trkpt lat="10.1570404639752" lon="-75.6810584836138">
        <ele>52.421895</ele>
        <time>2019-09-10T15:21:15.800Z</time>
      </trkpt>
      <trkpt lat="10.1570427430672" lon="-75.68105699872">
        <ele>52.421895</ele>
        <time>2019-09-10T15:21:15.900Z</time>
      </trkpt>
      <trkpt lat="10.1570450690585" lon="-75.6810554467749">
        <ele>52.421895</ele>
        <time>2019-09-10T15:21:16.000Z</time>
      </trkpt>
      <trkpt lat="10.1570473410635" lon="-75.6810538674836">
        <ele>52.421895</ele>
        <time>2019-09-10T15:21:16.100Z</time>
      </trkpt>
      <trkpt lat="10.1570496343296" lon="-75.6810522294789">
        <ele>52.421895</ele>
        <time>2019-09-10T15:21:16.200Z</time>
      </trkpt>
      <trkpt lat="10.1570519089401" lon="-75.6810505449281">
        <ele>52.421895</ele>
        <time>2019-09-10T15:21:16.300Z</time>
      </trkpt>
      <trkpt lat="10.157054216797" lon="-75.6810488069905">
        <ele>52.321895</ele>
        <time>2019-09-10T15:21:16.400Z</time>
      </trkpt>
      <trkpt lat="10.157056493492" lon="-75.6810470264235">
        <ele>52.321895</ele>
        <time>2019-09-10T15:21:16.500Z</time>
      </trkpt>
      <trkpt lat="10.1570587778993" lon="-75.6810452174832">
        <ele>52.321895</ele>
        <time>2019-09-10T15:21:16.600Z</time>
      </trkpt>
      <trkpt lat="10.1570610673092" lon="-75.6810433619969">
        <ele>52.321895</ele>
        <time>2019-09-10T15:21:16.700Z</time>
      </trkpt>
      <trkpt lat="10.1570633673495" lon="-75.6810414886512">
        <ele>52.321895</ele>
        <time>2019-09-10T15:21:16.800Z</time>
      </trkpt>
      <trkpt lat="10.157067945544" lon="-75.6810377194179">
        <ele>52.321895</ele>
        <time>2019-09-10T15:21:17.000Z</time>
      </trkpt>
      <trkpt lat="10.1570702659073" lon="-75.6810357881421">
        <ele>52.321895</ele>
        <time>2019-09-10T15:21:17.100Z</time>
      </trkpt>
      <trkpt lat="10.1570725841862" lon="-75.6810338511742">
        <ele>52.321895</ele>
        <time>2019-09-10T15:21:17.200Z</time>
      </trkpt>
      <trkpt lat="10.1570749180982" lon="-75.6810319047544">
        <ele>52.321895</ele>
        <time>2019-09-10T15:21:17.300Z</time>
      </trkpt>
      <trkpt lat="10.1570772236623" lon="-75.6810299814161">
        <ele>52.321895</ele>
        <time>2019-09-10T15:21:17.400Z</time>
      </trkpt>
      <trkpt lat="10.1570795774804" lon="-75.6810280049521">
        <ele>52.321895</ele>
        <time>2019-09-10T15:21:17.500Z</time>
      </trkpt>
      <trkpt lat="10.1570819008661" lon="-75.6810260351374">
        <ele>52.321895</ele>
        <time>2019-09-10T15:21:17.600Z</time>
      </trkpt>
      <trkpt lat="10.1570841918393" lon="-75.6810240625203">
        <ele>52.221895</ele>
        <time>2019-09-10T15:21:17.700Z</time>
      </trkpt>
      <trkpt lat="10.1570864259081" lon="-75.6810221191641">
        <ele>52.221895</ele>
        <time>2019-09-10T15:21:17.800Z</time>
      </trkpt>
      <trkpt lat="10.157088637778" lon="-75.6810201327259">
        <ele>52.221895</ele>
        <time>2019-09-10T15:21:17.900Z</time>
      </trkpt>
      <trkpt lat="10.1570908210915" lon="-75.6810181510571">
        <ele>52.221895</ele>
        <time>2019-09-10T15:21:18.000Z</time>
      </trkpt>
      <trkpt lat="10.1570929749106" lon="-75.6810161518248">
        <ele>52.221895</ele>
        <time>2019-09-10T15:21:18.100Z</time>
      </trkpt>
      <trkpt lat="10.1570951022577" lon="-75.6810141795558">
        <ele>52.221895</ele>
        <time>2019-09-10T15:21:18.200Z</time>
      </trkpt>
      <trkpt lat="10.1570972471139" lon="-75.6810121224631">
        <ele>52.221895</ele>
        <time>2019-09-10T15:21:18.300Z</time>
      </trkpt>
      <trkpt lat="10.1570993872801" lon="-75.6810100751008">
        <ele>52.221895</ele>
        <time>2019-09-10T15:21:18.400Z</time>
      </trkpt>
      <trkpt lat="10.1571014902397" lon="-75.6810080213154">
        <ele>52.221895</ele>
        <time>2019-09-10T15:21:18.500Z</time>
      </trkpt>
      <trkpt lat="10.1571035189943" lon="-75.6810060485416">
        <ele>52.221895</ele>
        <time>2019-09-10T15:21:18.600Z</time>
      </trkpt>
      <trkpt lat="10.1571054626008" lon="-75.6810041671713">
        <ele>52.221895</ele>
        <time>2019-09-10T15:21:18.700Z</time>
      </trkpt>
      <trkpt lat="10.1571073626432" lon="-75.6810024754663">
        <ele>52.221895</ele>
        <time>2019-09-10T15:21:18.800Z</time>
      </trkpt>
      <trkpt lat="10.157109213702" lon="-75.6810010236456">
        <ele>52.221895</ele>
        <time>2019-09-10T15:21:18.900Z</time>
      </trkpt>
      <trkpt lat="10.1571110457927" lon="-75.6809998515534">
        <ele>52.221895</ele>
        <time>2019-09-10T15:21:19.000Z</time>
      </trkpt>
      <trkpt lat="10.1571128296293" lon="-75.6809989823757">
        <ele>52.221895</ele>
        <time>2019-09-10T15:21:19.100Z</time>
      </trkpt>
      <trkpt lat="10.1571145907459" lon="-75.6809984120567">
        <ele>52.221895</ele>
        <time>2019-09-10T15:21:19.200Z</time>
      </trkpt>
      <trkpt lat="10.1571162675482" lon="-75.6809981711978">
        <ele>52.221895</ele>
        <time>2019-09-10T15:21:19.300Z</time>
      </trkpt>
      <trkpt lat="10.1571179156898" lon="-75.6809982288145">
        <ele>52.221895</ele>
        <time>2019-09-10T15:21:19.400Z</time>
      </trkpt>
      <trkpt lat="10.1571194489806" lon="-75.6809985987281">
        <ele>52.221895</ele>
        <time>2019-09-10T15:21:19.500Z</time>
      </trkpt>
      <trkpt lat="10.1571209670552" lon="-75.6809992471692">
        <ele>52.221895</ele>
        <time>2019-09-10T15:21:19.600Z</time>
      </trkpt>
      <trkpt lat="10.157122363713" lon="-75.6810001693682">
        <ele>52.321895</ele>
        <time>2019-09-10T15:21:19.700Z</time>
      </trkpt>
      <trkpt lat="10.1571250412397" lon="-75.6810028051352">
        <ele>52.321895</ele>
        <time>2019-09-10T15:21:19.900Z</time>
      </trkpt>
      <trkpt lat="10.157126328466" lon="-75.6810045215753">
        <ele>52.321895</ele>
        <time>2019-09-10T15:21:20.000Z</time>
      </trkpt>
      <trkpt lat="10.1571274878139" lon="-75.6810064273501">
        <ele>52.321895</ele>
        <time>2019-09-10T15:21:20.100Z</time>
      </trkpt>
      <trkpt lat="10.1571286939568" lon="-75.6810085248442">
        <ele>52.321895</ele>
        <time>2019-09-10T15:21:20.200Z</time>
      </trkpt>
      <trkpt lat="10.1571297772238" lon="-75.6810106926098">
        <ele>52.321895</ele>
        <time>2019-09-10T15:21:20.300Z</time>
      </trkpt>
      <trkpt lat="10.1571309243779" lon="-75.6810129694818">
        <ele>52.321895</ele>
        <time>2019-09-10T15:21:20.400Z</time>
      </trkpt>
      <trkpt lat="10.1571320405786" lon="-75.681015201827">
        <ele>52.321895</ele>
        <time>2019-09-10T15:21:20.500Z</time>
      </trkpt>
      <trkpt lat="10.1571332491185" lon="-75.6810175237654">
        <ele>52.321895</ele>
        <time>2019-09-10T15:21:20.600Z</time>
      </trkpt>
      <trkpt lat="10.1571344270177" lon="-75.6810198014207">
        <ele>52.321895</ele>
        <time>2019-09-10T15:21:20.700Z</time>
      </trkpt>
      <trkpt lat="10.1571357016333" lon="-75.6810221771116">
        <ele>52.221895</ele>
        <time>2019-09-10T15:21:20.800Z</time>
      </trkpt>
      <trkpt lat="10.1571370025126" lon="-75.6810244861515">
        <ele>52.221895</ele>
        <time>2019-09-10T15:21:20.900Z</time>
      </trkpt>
      <trkpt lat="10.1571383744701" lon="-75.6810268742012">
        <ele>52.221895</ele>
        <time>2019-09-10T15:21:21.000Z</time>
      </trkpt>
      <trkpt lat="10.1571397486163" lon="-75.6810292242865">
        <ele>52.221895</ele>
        <time>2019-09-10T15:21:21.100Z</time>
      </trkpt>
      <trkpt lat="10.1571411842525" lon="-75.6810316569849">
        <ele>52.221895</ele>
        <time>2019-09-10T15:21:21.200Z</time>
      </trkpt>
      <trkpt lat="10.1571442367643" lon="-75.681036486802">
        <ele>52.221895</ele>
        <time>2019-09-10T15:21:21.400Z</time>
      </trkpt>
      <trkpt lat="10.1571458743797" lon="-75.6810388950262">
        <ele>52.221895</ele>
        <time>2019-09-10T15:21:21.500Z</time>
      </trkpt>
      <trkpt lat="10.157147567753" lon="-75.6810413501969">
        <ele>52.221895</ele>
        <time>2019-09-10T15:21:21.600Z</time>
      </trkpt>
      <trkpt lat="10.1571493454406" lon="-75.6810438123477">
        <ele>52.221895</ele>
        <time>2019-09-10T15:21:21.700Z</time>
      </trkpt>
      <trkpt lat="10.1571511724245" lon="-75.6810463143429">
        <ele>52.221895</ele>
        <time>2019-09-10T15:21:21.800Z</time>
      </trkpt>
      <trkpt lat="10.157153082889" lon="-75.6810488176958">
        <ele>52.221895</ele>
        <time>2019-09-10T15:21:21.900Z</time>
      </trkpt>
      <trkpt lat="10.1571550141975" lon="-75.681051328638">
        <ele>52.221895</ele>
        <time>2019-09-10T15:21:22.000Z</time>
      </trkpt>
      <trkpt lat="10.1571569598884" lon="-75.6810538000667">
        <ele>52.221895</ele>
        <time>2019-09-10T15:21:22.100Z</time>
      </trkpt>
      <trkpt lat="10.1571588820256" lon="-75.6810562499109">
        <ele>52.221895</ele>
        <time>2019-09-10T15:21:22.200Z</time>
      </trkpt>
      <trkpt lat="10.157160882328" lon="-75.6810587721328">
        <ele>52.221895</ele>
        <time>2019-09-10T15:21:22.300Z</time>
      </trkpt>
      <trkpt lat="10.157162890447" lon="-75.6810613326325">
        <ele>52.221895</ele>
        <time>2019-09-10T15:21:22.400Z</time>
      </trkpt>
      <trkpt lat="10.1571649121146" lon="-75.6810639102257">
        <ele>52.221895</ele>
        <time>2019-09-10T15:21:22.500Z</time>
      </trkpt>
      <trkpt lat="10.1571668933447" lon="-75.6810664478179">
        <ele>52.221895</ele>
        <time>2019-09-10T15:21:22.600Z</time>
      </trkpt>
      <trkpt lat="10.157168945132" lon="-75.6810689981694">
        <ele>52.221895</ele>
        <time>2019-09-10T15:21:22.700Z</time>
      </trkpt>
      <trkpt lat="10.157170976909" lon="-75.6810715053866">
        <ele>52.221895</ele>
        <time>2019-09-10T15:21:22.800Z</time>
      </trkpt>
      <trkpt lat="10.1571730057679" lon="-75.6810739434115">
        <ele>52.221895</ele>
        <time>2019-09-10T15:21:22.900Z</time>
      </trkpt>
      <trkpt lat="10.1571749794941" lon="-75.6810763178664">
        <ele>52.221895</ele>
        <time>2019-09-10T15:21:23.000Z</time>
      </trkpt>
      <trkpt lat="10.1571769575976" lon="-75.6810786469939">
        <ele>52.221895</ele>
        <time>2019-09-10T15:21:23.100Z</time>
      </trkpt>
      <trkpt lat="10.1571808694067" lon="-75.6810832230883">
        <ele>52.221895</ele>
        <time>2019-09-10T15:21:23.300Z</time>
      </trkpt>
      <trkpt lat="10.1571828060305" lon="-75.6810854792113">
        <ele>52.221895</ele>
        <time>2019-09-10T15:21:23.400Z</time>
      </trkpt>
      <trkpt lat="10.1571847682924" lon="-75.6810876832529">
        <ele>52.221895</ele>
        <time>2019-09-10T15:21:23.500Z</time>
      </trkpt>
      <trkpt lat="10.1571867027276" lon="-75.6810898758408">
        <ele>52.221895</ele>
        <time>2019-09-10T15:21:23.600Z</time>
      </trkpt>
      <trkpt lat="10.1571886450835" lon="-75.6810920389588">
        <ele>52.221895</ele>
        <time>2019-09-10T15:21:23.700Z</time>
      </trkpt>
      <trkpt lat="10.157190546585" lon="-75.6810942080648">
        <ele>52.221895</ele>
        <time>2019-09-10T15:21:23.800Z</time>
      </trkpt>
      <trkpt lat="10.1571924628857" lon="-75.6810963747164">
        <ele>52.221895</ele>
        <time>2019-09-10T15:21:23.900Z</time>
      </trkpt>
      <trkpt lat="10.1571943414587" lon="-75.6810985493752">
        <ele>52.221895</ele>
        <time>2019-09-10T15:21:24.000Z</time>
      </trkpt>
      <trkpt lat="10.1571962424391" lon="-75.6811006940072">
        <ele>52.221895</ele>
        <time>2019-09-10T15:21:24.100Z</time>
      </trkpt>
      <trkpt lat="10.1571981095479" lon="-75.6811028278642">
        <ele>52.221895</ele>
        <time>2019-09-10T15:21:24.200Z</time>
      </trkpt>
      <trkpt lat="10.1571999937488" lon="-75.6811049169856">
        <ele>52.221895</ele>
        <time>2019-09-10T15:21:24.300Z</time>
      </trkpt>
      <trkpt lat="10.1572018381375" lon="-75.6811070048537">
        <ele>52.221895</ele>
        <time>2019-09-10T15:21:24.400Z</time>
      </trkpt>
      <trkpt lat="10.157203684819" lon="-75.68110909119">
        <ele>52.221895</ele>
        <time>2019-09-10T15:21:24.500Z</time>
      </trkpt>
      <trkpt lat="10.1572054922095" lon="-75.6811112009734">
        <ele>52.221895</ele>
        <time>2019-09-10T15:21:24.600Z</time>
      </trkpt>
      <trkpt lat="10.1572073162752" lon="-75.6811132701987">
        <ele>52.221895</ele>
        <time>2019-09-10T15:21:24.700Z</time>
      </trkpt>
      <trkpt lat="10.1572091140774" lon="-75.6811153369697">
        <ele>52.221895</ele>
        <time>2019-09-10T15:21:24.800Z</time>
      </trkpt>
      <trkpt lat="10.1572109317856" lon="-75.681117390494">
        <ele>52.221895</ele>
        <time>2019-09-10T15:21:24.900Z</time>
      </trkpt>
      <trkpt lat="10.1572127211459" lon="-75.6811194656899">
        <ele>52.221895</ele>
        <time>2019-09-10T15:21:25.000Z</time>
      </trkpt>
      <trkpt lat="10.1572144918508" lon="-75.6811215383095">
        <ele>52.221895</ele>
        <time>2019-09-10T15:21:25.100Z</time>
      </trkpt>
      <trkpt lat="10.1572162239941" lon="-75.6811236286494">
        <ele>52.221895</ele>
        <time>2019-09-10T15:21:25.200Z</time>
      </trkpt>
      <trkpt lat="10.1572179984509" lon="-75.6811257180145">
        <ele>52.321895</ele>
        <time>2019-09-10T15:21:25.300Z</time>
      </trkpt>
      <trkpt lat="10.1572197601928" lon="-75.6811278203129">
        <ele>52.321895</ele>
        <time>2019-09-10T15:21:25.400Z</time>
      </trkpt>
      <trkpt lat="10.1572214961923" lon="-75.6811298973017">
        <ele>52.321895</ele>
        <time>2019-09-10T15:21:25.500Z</time>
      </trkpt>
      <trkpt lat="10.1572231912331" lon="-75.6811319759093">
        <ele>52.321895</ele>
        <time>2019-09-10T15:21:25.600Z</time>
      </trkpt>
      <trkpt lat="10.1572265768333" lon="-75.6811361472764">
        <ele>52.321895</ele>
        <time>2019-09-10T15:21:25.800Z</time>
      </trkpt>
      <trkpt lat="10.1572282647872" lon="-75.6811382438653">
        <ele>52.321895</ele>
        <time>2019-09-10T15:21:25.900Z</time>
      </trkpt>
      <trkpt lat="10.1572299326265" lon="-75.6811403531091">
        <ele>52.321895</ele>
        <time>2019-09-10T15:21:26.000Z</time>
      </trkpt>
      <trkpt lat="10.1572315982772" lon="-75.6811424616914">
        <ele>52.321895</ele>
        <time>2019-09-10T15:21:26.100Z</time>
      </trkpt>
      <trkpt lat="10.1572332488159" lon="-75.6811445836421">
        <ele>52.321895</ele>
        <time>2019-09-10T15:21:26.200Z</time>
      </trkpt>
      <trkpt lat="10.1572349088387" lon="-75.6811467177516">
        <ele>52.221895</ele>
        <time>2019-09-10T15:21:26.300Z</time>
      </trkpt>
      <trkpt lat="10.15723655302" lon="-75.6811488564304">
        <ele>52.221895</ele>
        <time>2019-09-10T15:21:26.400Z</time>
      </trkpt>
      <trkpt lat="10.1572381981393" lon="-75.6811509746735">
        <ele>52.221895</ele>
        <time>2019-09-10T15:21:26.500Z</time>
      </trkpt>
      <trkpt lat="10.1572398221018" lon="-75.6811530763801">
        <ele>52.321895</ele>
        <time>2019-09-10T15:21:26.600Z</time>
      </trkpt>
      <trkpt lat="10.1572430253163" lon="-75.6811572751107">
        <ele>52.321895</ele>
        <time>2019-09-10T15:21:26.800Z</time>
      </trkpt>
      <trkpt lat="10.1572445843495" lon="-75.6811593404543">
        <ele>52.321895</ele>
        <time>2019-09-10T15:21:26.900Z</time>
      </trkpt>
      <trkpt lat="10.1572461254567" lon="-75.6811614003757">
        <ele>52.321895</ele>
        <time>2019-09-10T15:21:27.000Z</time>
      </trkpt>
      <trkpt lat="10.1572476821971" lon="-75.6811634476771">
        <ele>52.321895</ele>
        <time>2019-09-10T15:21:27.100Z</time>
      </trkpt>
      <trkpt lat="10.1572492475877" lon="-75.6811655164498">
        <ele>52.321895</ele>
        <time>2019-09-10T15:21:27.200Z</time>
      </trkpt>
      <trkpt lat="10.157252393481" lon="-75.6811696308354">
        <ele>52.321895</ele>
        <time>2019-09-10T15:21:27.400Z</time>
      </trkpt>
      <trkpt lat="10.1572540017062" lon="-75.6811716921319">
        <ele>52.321895</ele>
        <time>2019-09-10T15:21:27.500Z</time>
      </trkpt>
      <trkpt lat="10.1572556301502" lon="-75.6811737696952">
        <ele>52.321895</ele>
        <time>2019-09-10T15:21:27.600Z</time>
      </trkpt>
      <trkpt lat="10.1572572925701" lon="-75.6811758379979">
        <ele>52.321895</ele>
        <time>2019-09-10T15:21:27.700Z</time>
      </trkpt>
      <trkpt lat="10.1572589620769" lon="-75.6811779219234">
        <ele>52.321895</ele>
        <time>2019-09-10T15:21:27.800Z</time>
      </trkpt>
      <trkpt lat="10.1572623243317" lon="-75.6811821541275">
        <ele>52.321895</ele>
        <time>2019-09-10T15:21:28.000Z</time>
      </trkpt>
      <trkpt lat="10.1572639922753" lon="-75.6811842674009">
        <ele>52.321895</ele>
        <time>2019-09-10T15:21:28.100Z</time>
      </trkpt>
      <trkpt lat="10.1572656453153" lon="-75.6811863595424">
        <ele>52.321895</ele>
        <time>2019-09-10T15:21:28.200Z</time>
      </trkpt>
      <trkpt lat="10.1572673150306" lon="-75.6811884346077">
        <ele>52.321895</ele>
        <time>2019-09-10T15:21:28.300Z</time>
      </trkpt>
      <trkpt lat="10.1572689932919" lon="-75.6811905092814">
        <ele>52.321895</ele>
        <time>2019-09-10T15:21:28.400Z</time>
      </trkpt>
      <trkpt lat="10.157272317819" lon="-75.6811946730678">
        <ele>52.321895</ele>
        <time>2019-09-10T15:21:28.600Z</time>
      </trkpt>
      <trkpt lat="10.1572756821582" lon="-75.6811988577337">
        <ele>52.321895</ele>
        <time>2019-09-10T15:21:28.800Z</time>
      </trkpt>
      <trkpt lat="10.1572773676108" lon="-75.681200928221">
        <ele>52.321895</ele>
        <time>2019-09-10T15:21:28.900Z</time>
      </trkpt>
      <trkpt lat="10.1572790387852" lon="-75.6812029939476">
        <ele>52.321895</ele>
        <time>2019-09-10T15:21:29.000Z</time>
      </trkpt>
      <trkpt lat="10.1572807246546" lon="-75.681205064226">
        <ele>52.321895</ele>
        <time>2019-09-10T15:21:29.100Z</time>
      </trkpt>
      <trkpt lat="10.1572824079185" lon="-75.681207152216">
        <ele>52.321895</ele>
        <time>2019-09-10T15:21:29.200Z</time>
      </trkpt>
      <trkpt lat="10.1572840678371" lon="-75.6812092783966">
        <ele>52.321895</ele>
        <time>2019-09-10T15:21:29.300Z</time>
      </trkpt>
      <trkpt lat="10.1572857229615" lon="-75.6812114216795">
        <ele>52.321895</ele>
        <time>2019-09-10T15:21:29.400Z</time>
      </trkpt>
      <trkpt lat="10.1572890578064" lon="-75.6812157055037">
        <ele>52.321895</ele>
        <time>2019-09-10T15:21:29.600Z</time>
      </trkpt>
      <trkpt lat="10.1572907485742" lon="-75.6812178316844">
        <ele>52.321895</ele>
        <time>2019-09-10T15:21:29.700Z</time>
      </trkpt>
      <trkpt lat="10.1572924614367" lon="-75.681219940828">
        <ele>52.321895</ele>
        <time>2019-09-10T15:21:29.800Z</time>
      </trkpt>
      <trkpt lat="10.1572941808651" lon="-75.6812220267596">
        <ele>52.321895</ele>
        <time>2019-09-10T15:21:29.900Z</time>
      </trkpt>
      <trkpt lat="10.1572959035244" lon="-75.6812241039573">
        <ele>52.321895</ele>
        <time>2019-09-10T15:21:30.000Z</time>
      </trkpt>
      <trkpt lat="10.1572976349382" lon="-75.6812261760678">
        <ele>52.321895</ele>
        <time>2019-09-10T15:21:30.100Z</time>
      </trkpt>
      <trkpt lat="10.1572993602029" lon="-75.6812282544056">
        <ele>52.321895</ele>
        <time>2019-09-10T15:21:30.200Z</time>
      </trkpt>
      <trkpt lat="10.157301068584" lon="-75.6812303323823">
        <ele>52.321895</ele>
        <time>2019-09-10T15:21:30.300Z</time>
      </trkpt>
      <trkpt lat="10.1573027616446" lon="-75.6812324069297">
        <ele>52.321895</ele>
        <time>2019-09-10T15:21:30.400Z</time>
      </trkpt>
      <trkpt lat="10.1573044904529" lon="-75.6812345081663">
        <ele>52.321895</ele>
        <time>2019-09-10T15:21:30.500Z</time>
      </trkpt>
      <trkpt lat="10.1573079830875" lon="-75.6812386962135">
        <ele>52.321895</ele>
        <time>2019-09-10T15:21:30.700Z</time>
      </trkpt>
      <trkpt lat="10.1573097234642" lon="-75.6812407636895">
        <ele>52.321895</ele>
        <time>2019-09-10T15:21:30.800Z</time>
      </trkpt>
      <trkpt lat="10.1573114535231" lon="-75.681242778614">
        <ele>52.321895</ele>
        <time>2019-09-10T15:21:30.900Z</time>
      </trkpt>
      <trkpt lat="10.1573131668025" lon="-75.6812447820631">
        <ele>52.321895</ele>
        <time>2019-09-10T15:21:31.000Z</time>
      </trkpt>
      <trkpt lat="10.1573148456892" lon="-75.6812467771003">
        <ele>52.321895</ele>
        <time>2019-09-10T15:21:31.100Z</time>
      </trkpt>
      <trkpt lat="10.1573165230126" lon="-75.6812487932695">
        <ele>52.321895</ele>
        <time>2019-09-10T15:21:31.200Z</time>
      </trkpt>
      <trkpt lat="10.1573182172196" lon="-75.6812508074847">
        <ele>52.321895</ele>
        <time>2019-09-10T15:21:31.300Z</time>
      </trkpt>
      <trkpt lat="10.1573199296653" lon="-75.6812528401991">
        <ele>52.321895</ele>
        <time>2019-09-10T15:21:31.400Z</time>
      </trkpt>
      <trkpt lat="10.1573216468009" lon="-75.6812549029643">
        <ele>52.321895</ele>
        <time>2019-09-10T15:21:31.500Z</time>
      </trkpt>
      <trkpt lat="10.1573250529325" lon="-75.6812590551425">
        <ele>52.321895</ele>
        <time>2019-09-10T15:21:31.700Z</time>
      </trkpt>
      <trkpt lat="10.1573267495366" lon="-75.6812611025722">
        <ele>52.321895</ele>
        <time>2019-09-10T15:21:31.800Z</time>
      </trkpt>
      <trkpt lat="10.1573284898091" lon="-75.6812631696152">
        <ele>52.321895</ele>
        <time>2019-09-10T15:21:31.900Z</time>
      </trkpt>
      <trkpt lat="10.1573302490498" lon="-75.6812652485383">
        <ele>52.321895</ele>
        <time>2019-09-10T15:21:32.000Z</time>
      </trkpt>
      <trkpt lat="10.1573319975557" lon="-75.6812672996975">
        <ele>52.321895</ele>
        <time>2019-09-10T15:21:32.100Z</time>
      </trkpt>
      <trkpt lat="10.1573337348058" lon="-75.6812693393996">
        <ele>52.321895</ele>
        <time>2019-09-10T15:21:32.200Z</time>
      </trkpt>
      <trkpt lat="10.157335468304" lon="-75.6812713706095">
        <ele>52.321895</ele>
        <time>2019-09-10T15:21:32.300Z</time>
      </trkpt>
      <trkpt lat="10.1573371920054" lon="-75.6812734204152">
        <ele>52.321895</ele>
        <time>2019-09-10T15:21:32.400Z</time>
      </trkpt>
      <trkpt lat="10.1573405739579" lon="-75.6812775915941">
        <ele>52.321895</ele>
        <time>2019-09-10T15:21:32.600Z</time>
      </trkpt>
      <trkpt lat="10.1573422660806" lon="-75.6812797052489">
        <ele>52.321895</ele>
        <time>2019-09-10T15:21:32.700Z</time>
      </trkpt>
      <trkpt lat="10.1573439783178" lon="-75.6812818059349">
        <ele>52.321895</ele>
        <time>2019-09-10T15:21:32.800Z</time>
      </trkpt>
      <trkpt lat="10.1573456895128" lon="-75.6812839181335">
        <ele>52.321895</ele>
        <time>2019-09-10T15:21:32.900Z</time>
      </trkpt>
      <trkpt lat="10.1573473997698" lon="-75.6812860421927">
        <ele>52.321895</ele>
        <time>2019-09-10T15:21:33.000Z</time>
      </trkpt>
      <trkpt lat="10.1573491094015" lon="-75.6812881725677">
        <ele>52.321895</ele>
        <time>2019-09-10T15:21:33.100Z</time>
      </trkpt>
      <trkpt lat="10.1573508186163" lon="-75.6812903032014">
        <ele>52.321895</ele>
        <time>2019-09-10T15:21:33.200Z</time>
      </trkpt>
      <trkpt lat="10.1573525219948" lon="-75.681292456435">
        <ele>52.321895</ele>
        <time>2019-09-10T15:21:33.300Z</time>
      </trkpt>
      <trkpt lat="10.1573542284999" lon="-75.6812946092378">
        <ele>52.221895</ele>
        <time>2019-09-10T15:21:33.400Z</time>
      </trkpt>
      <trkpt lat="10.157355930732" lon="-75.6812967535814">
        <ele>52.221895</ele>
        <time>2019-09-10T15:21:33.500Z</time>
      </trkpt>
      <trkpt lat="10.1573576303585" lon="-75.681298877942">
        <ele>52.221895</ele>
        <time>2019-09-10T15:21:33.600Z</time>
      </trkpt>
      <trkpt lat="10.1573593179997" lon="-75.6813010066836">
        <ele>52.221895</ele>
        <time>2019-09-10T15:21:33.700Z</time>
      </trkpt>
      <trkpt lat="10.1573610153334" lon="-75.6813031327032">
        <ele>52.221895</ele>
        <time>2019-09-10T15:21:33.800Z</time>
      </trkpt>
      <trkpt lat="10.1573627067265" lon="-75.6813052060747">
        <ele>52.321895</ele>
        <time>2019-09-10T15:21:33.900Z</time>
      </trkpt>
      <trkpt lat="10.1573644202144" lon="-75.6813072443179">
        <ele>52.321895</ele>
        <time>2019-09-10T15:21:34.000Z</time>
      </trkpt>
      <trkpt lat="10.1573661915446" lon="-75.6813093320925">
        <ele>52.321895</ele>
        <time>2019-09-10T15:21:34.100Z</time>
      </trkpt>
      <trkpt lat="10.1573679942451" lon="-75.6813114697029">
        <ele>52.321895</ele>
        <time>2019-09-10T15:21:34.200Z</time>
      </trkpt>
      <trkpt lat="10.1573698159137" lon="-75.68131363375">
        <ele>52.321895</ele>
        <time>2019-09-10T15:21:34.300Z</time>
      </trkpt>
      <trkpt lat="10.1573716196565" lon="-75.6813157772744">
        <ele>52.321895</ele>
        <time>2019-09-10T15:21:34.400Z</time>
      </trkpt>
      <trkpt lat="10.1573733804604" lon="-75.6813179167126">
        <ele>52.321895</ele>
        <time>2019-09-10T15:21:34.500Z</time>
      </trkpt>
      <trkpt lat="10.1573751163556" lon="-75.6813200370989">
        <ele>52.321895</ele>
        <time>2019-09-10T15:21:34.600Z</time>
      </trkpt>
      <trkpt lat="10.1573768619434" lon="-75.681322156963">
        <ele>52.321895</ele>
        <time>2019-09-10T15:21:34.700Z</time>
      </trkpt>
      <trkpt lat="10.1573786190996" lon="-75.6813242588219">
        <ele>52.321895</ele>
        <time>2019-09-10T15:21:34.800Z</time>
      </trkpt>
      <trkpt lat="10.1573803435306" lon="-75.6813263298619">
        <ele>52.321895</ele>
        <time>2019-09-10T15:21:34.900Z</time>
      </trkpt>
      <trkpt lat="10.1573820703587" lon="-75.6813283833819">
        <ele>52.321895</ele>
        <time>2019-09-10T15:21:35.000Z</time>
      </trkpt>
      <trkpt lat="10.1573855846711" lon="-75.6813324868882">
        <ele>52.321895</ele>
        <time>2019-09-10T15:21:35.200Z</time>
      </trkpt>
      <trkpt lat="10.1573873455792" lon="-75.6813345286107">
        <ele>52.321895</ele>
        <time>2019-09-10T15:21:35.300Z</time>
      </trkpt>
      <trkpt lat="10.1573891004426" lon="-75.6813365638926">
        <ele>52.421895</ele>
        <time>2019-09-10T15:21:35.400Z</time>
      </trkpt>
      <trkpt lat="10.1573908564524" lon="-75.681338594862">
        <ele>52.421895</ele>
        <time>2019-09-10T15:21:35.500Z</time>
      </trkpt>
      <trkpt lat="10.1573925971418" lon="-75.6813406385731">
        <ele>52.421895</ele>
        <time>2019-09-10T15:21:35.600Z</time>
      </trkpt>
      <trkpt lat="10.1573943389776" lon="-75.6813427513853">
        <ele>52.421895</ele>
        <time>2019-09-10T15:21:35.700Z</time>
      </trkpt>
      <trkpt lat="10.1573960596566" lon="-75.6813448887325">
        <ele>52.421895</ele>
        <time>2019-09-10T15:21:35.800Z</time>
      </trkpt>
      <trkpt lat="10.1573977061308" lon="-75.6813469803169">
        <ele>52.421895</ele>
        <time>2019-09-10T15:21:35.900Z</time>
      </trkpt>
      <trkpt lat="10.1573993025791" lon="-75.6813490507694">
        <ele>52.421895</ele>
        <time>2019-09-10T15:21:36.000Z</time>
      </trkpt>
      <trkpt lat="10.1574008617165" lon="-75.6813511101207">
        <ele>52.421895</ele>
        <time>2019-09-10T15:21:36.100Z</time>
      </trkpt>
      <trkpt lat="10.1574024290874" lon="-75.6813531926797">
        <ele>52.321895</ele>
        <time>2019-09-10T15:21:36.200Z</time>
      </trkpt>
      <trkpt lat="10.1574039772816" lon="-75.6813552822102">
        <ele>52.321895</ele>
        <time>2019-09-10T15:21:36.300Z</time>
      </trkpt>
      <trkpt lat="10.1574071160879" lon="-75.6813595021207">
        <ele>52.321895</ele>
        <time>2019-09-10T15:21:36.500Z</time>
      </trkpt>
      <trkpt lat="10.1574087078463" lon="-75.681361623819">
        <ele>52.321895</ele>
        <time>2019-09-10T15:21:36.600Z</time>
      </trkpt>
      <trkpt lat="10.1574103334764" lon="-75.6813637351255">
        <ele>52.321895</ele>
        <time>2019-09-10T15:21:36.700Z</time>
      </trkpt>
      <trkpt lat="10.1574119981891" lon="-75.6813658507227">
        <ele>52.321895</ele>
        <time>2019-09-10T15:21:36.800Z</time>
      </trkpt>
      <trkpt lat="10.1574137071954" lon="-75.681368000011">
        <ele>52.321895</ele>
        <time>2019-09-10T15:21:36.900Z</time>
      </trkpt>
      <trkpt lat="10.1574154227677" lon="-75.681370165244">
        <ele>52.321895</ele>
        <time>2019-09-10T15:21:37.000Z</time>
      </trkpt>
      <trkpt lat="10.1574171217689" lon="-75.6813723143234">
        <ele>52.321895</ele>
        <time>2019-09-10T15:21:37.100Z</time>
      </trkpt>
      <trkpt lat="10.157418832547" lon="-75.681374441209">
        <ele>52.421895</ele>
        <time>2019-09-10T15:21:37.200Z</time>
      </trkpt>
      <trkpt lat="10.1574205850133" lon="-75.6813765587819">
        <ele>52.421895</ele>
        <time>2019-09-10T15:21:37.300Z</time>
      </trkpt>
      <trkpt lat="10.1574223631178" lon="-75.6813786745445">
        <ele>52.421895</ele>
        <time>2019-09-10T15:21:37.400Z</time>
      </trkpt>
      <trkpt lat="10.1574241473714" lon="-75.6813807970001">
        <ele>52.421895</ele>
        <time>2019-09-10T15:21:37.500Z</time>
      </trkpt>
      <trkpt lat="10.1574259353768" lon="-75.6813829182372">
        <ele>52.421895</ele>
        <time>2019-09-10T15:21:37.600Z</time>
      </trkpt>
      <trkpt lat="10.1574277447475" lon="-75.6813850496051">
        <ele>52.421895</ele>
        <time>2019-09-10T15:21:37.700Z</time>
      </trkpt>
      <trkpt lat="10.1574295566194" lon="-75.6813871769346">
        <ele>52.421895</ele>
        <time>2019-09-10T15:21:37.800Z</time>
      </trkpt>
      <trkpt lat="10.1574313630719" lon="-75.6813892673963">
        <ele>52.421895</ele>
        <time>2019-09-10T15:21:37.900Z</time>
      </trkpt>
      <trkpt lat="10.1574331527448" lon="-75.6813913326441">
        <ele>52.421895</ele>
        <time>2019-09-10T15:21:38.000Z</time>
      </trkpt>
      <trkpt lat="10.1574349021887" lon="-75.6813933967954">
        <ele>52.421895</ele>
        <time>2019-09-10T15:21:38.100Z</time>
      </trkpt>
      <trkpt lat="10.1574366347489" lon="-75.6813954696152">
        <ele>52.421895</ele>
        <time>2019-09-10T15:21:38.200Z</time>
      </trkpt>
      <trkpt lat="10.157438361577" lon="-75.6813975812611">
        <ele>52.421895</ele>
        <time>2019-09-10T15:21:38.300Z</time>
      </trkpt>
      <trkpt lat="10.157440103517" lon="-75.6813997018715">
        <ele>52.421895</ele>
        <time>2019-09-10T15:21:38.400Z</time>
      </trkpt>
      <trkpt lat="10.157441785843" lon="-75.6814017789909">
        <ele>52.421895</ele>
        <time>2019-09-10T15:21:38.500Z</time>
      </trkpt>
      <trkpt lat="10.1574434488881" lon="-75.6814038413753">
        <ele>52.421895</ele>
        <time>2019-09-10T15:21:38.600Z</time>
      </trkpt>
      <trkpt lat="10.1574451017197" lon="-75.6814058813136">
        <ele>52.421895</ele>
        <time>2019-09-10T15:21:38.700Z</time>
      </trkpt>
      <trkpt lat="10.1574467761249" lon="-75.6814079243938">
        <ele>52.421895</ele>
        <time>2019-09-10T15:21:38.800Z</time>
      </trkpt>
      <trkpt lat="10.1574484303114" lon="-75.6814099589794">
        <ele>52.421895</ele>
        <time>2019-09-10T15:21:38.900Z</time>
      </trkpt>
      <trkpt lat="10.1574500925228" lon="-75.6814120081868">
        <ele>52.421895</ele>
        <time>2019-09-10T15:21:39.000Z</time>
      </trkpt>
      <trkpt lat="10.1574517498358" lon="-75.6814140466803">
        <ele>52.421895</ele>
        <time>2019-09-10T15:21:39.100Z</time>
      </trkpt>
      <trkpt lat="10.1574551126118" lon="-75.6814181453475">
        <ele>52.421895</ele>
        <time>2019-09-10T15:21:39.300Z</time>
      </trkpt>
      <trkpt lat="10.1574568195337" lon="-75.6814202174711">
        <ele>52.421895</ele>
        <time>2019-09-10T15:21:39.400Z</time>
      </trkpt>
      <trkpt lat="10.1574585555332" lon="-75.6814223110748">
        <ele>52.421895</ele>
        <time>2019-09-10T15:21:39.500Z</time>
      </trkpt>
      <trkpt lat="10.1574603058109" lon="-75.681424419483">
        <ele>52.421895</ele>
        <time>2019-09-10T15:21:39.600Z</time>
      </trkpt>
      <trkpt lat="10.1574620708878" lon="-75.6814265472129">
        <ele>52.421895</ele>
        <time>2019-09-10T15:21:39.700Z</time>
      </trkpt>
      <trkpt lat="10.1574638561835" lon="-75.6814286640286">
        <ele>52.421895</ele>
        <time>2019-09-10T15:21:39.800Z</time>
      </trkpt>
      <trkpt lat="10.1574656761847" lon="-75.6814307848566">
        <ele>52.421895</ele>
        <time>2019-09-10T15:21:39.900Z</time>
      </trkpt>
      <trkpt lat="10.1574675265139" lon="-75.6814329077125">
        <ele>52.421895</ele>
        <time>2019-09-10T15:21:40.000Z</time>
      </trkpt>
      <trkpt lat="10.157469396124" lon="-75.681435029202">
        <ele>52.421895</ele>
        <time>2019-09-10T15:21:40.100Z</time>
      </trkpt>
      <trkpt lat="10.1574712626074" lon="-75.6814371448863">
        <ele>52.421895</ele>
        <time>2019-09-10T15:21:40.200Z</time>
      </trkpt>
      <trkpt lat="10.1574731263811" lon="-75.681439271624">
        <ele>52.421895</ele>
        <time>2019-09-10T15:21:40.300Z</time>
      </trkpt>
      <trkpt lat="10.1574749821298" lon="-75.6814414011641">
        <ele>52.421895</ele>
        <time>2019-09-10T15:21:40.400Z</time>
      </trkpt>
      <trkpt lat="10.1574768209948" lon="-75.6814435232193">
        <ele>52.421895</ele>
        <time>2019-09-10T15:21:40.500Z</time>
      </trkpt>
      <trkpt lat="10.1574786414128" lon="-75.6814456349871">
        <ele>52.421895</ele>
        <time>2019-09-10T15:21:40.600Z</time>
      </trkpt>
      <trkpt lat="10.1574804043012" lon="-75.6814477129855">
        <ele>52.421895</ele>
        <time>2019-09-10T15:21:40.700Z</time>
      </trkpt>
      <trkpt lat="10.1574821393627" lon="-75.6814497789383">
        <ele>52.421895</ele>
        <time>2019-09-10T15:21:40.800Z</time>
      </trkpt>
      <trkpt lat="10.1574838798436" lon="-75.6814518938915">
        <ele>52.421895</ele>
        <time>2019-09-10T15:21:40.900Z</time>
      </trkpt>
      <trkpt lat="10.1574856469007" lon="-75.6814540363302">
        <ele>52.421895</ele>
        <time>2019-09-10T15:21:41.000Z</time>
      </trkpt>
      <trkpt lat="10.1574873925927" lon="-75.6814561513878">
        <ele>52.421895</ele>
        <time>2019-09-10T15:21:41.100Z</time>
      </trkpt>
      <trkpt lat="10.1574891272373" lon="-75.6814582482205">
        <ele>52.421895</ele>
        <time>2019-09-10T15:21:41.200Z</time>
      </trkpt>
      <trkpt lat="10.1574908522936" lon="-75.6814603356882">
        <ele>52.421895</ele>
        <time>2019-09-10T15:21:41.300Z</time>
      </trkpt>
      <trkpt lat="10.1574925847496" lon="-75.681462419866">
        <ele>52.421895</ele>
        <time>2019-09-10T15:21:41.400Z</time>
      </trkpt>
      <trkpt lat="10.1574943167887" lon="-75.6814645002492">
        <ele>52.421895</ele>
        <time>2019-09-10T15:21:41.500Z</time>
      </trkpt>
      <trkpt lat="10.1574960556021" lon="-75.681466582843">
        <ele>52.421895</ele>
        <time>2019-09-10T15:21:41.600Z</time>
      </trkpt>
      <trkpt lat="10.1574977882665" lon="-75.6814686432256">
        <ele>52.421895</ele>
        <time>2019-09-10T15:21:41.700Z</time>
      </trkpt>
      <trkpt lat="10.1574995236407" lon="-75.6814707009798">
        <ele>52.421895</ele>
        <time>2019-09-10T15:21:41.800Z</time>
      </trkpt>
      <trkpt lat="10.1575012549502" lon="-75.6814727638342">
        <ele>52.421895</ele>
        <time>2019-09-10T15:21:41.900Z</time>
      </trkpt>
      <trkpt lat="10.1575029928256" lon="-75.6814748449485">
        <ele>52.421895</ele>
        <time>2019-09-10T15:21:42.000Z</time>
      </trkpt>
      <trkpt lat="10.1575047053755" lon="-75.6814768911793">
        <ele>52.421895</ele>
        <time>2019-09-10T15:21:42.100Z</time>
      </trkpt>
      <trkpt lat="10.1575064157368" lon="-75.6814789303778">
        <ele>52.421895</ele>
        <time>2019-09-10T15:21:42.200Z</time>
      </trkpt>
      <trkpt lat="10.1575081432944" lon="-75.6814810072099">
        <ele>52.421895</ele>
        <time>2019-09-10T15:21:42.300Z</time>
      </trkpt>
      <trkpt lat="10.1575098913834" lon="-75.6814831190647">
        <ele>52.421895</ele>
        <time>2019-09-10T15:21:42.400Z</time>
      </trkpt>
      <trkpt lat="10.1575116448919" lon="-75.6814852137911">
        <ele>52.421895</ele>
        <time>2019-09-10T15:21:42.500Z</time>
      </trkpt>
      <trkpt lat="10.1575134064254" lon="-75.6814873026514">
        <ele>52.421895</ele>
        <time>2019-09-10T15:21:42.600Z</time>
      </trkpt>
      <trkpt lat="10.1575151750458" lon="-75.6814893964378">
        <ele>52.421895</ele>
        <time>2019-09-10T15:21:42.700Z</time>
      </trkpt>
      <trkpt lat="10.1575169486689" lon="-75.6814915027398">
        <ele>52.421895</ele>
        <time>2019-09-10T15:21:42.800Z</time>
      </trkpt>
      <trkpt lat="10.1575205068581" lon="-75.6814957493394">
        <ele>52.421895</ele>
        <time>2019-09-10T15:21:43.000Z</time>
      </trkpt>
      <trkpt lat="10.1575223094544" lon="-75.6814978670777">
        <ele>52.421895</ele>
        <time>2019-09-10T15:21:43.100Z</time>
      </trkpt>
      <trkpt lat="10.157524120701" lon="-75.6814999773484">
        <ele>52.421895</ele>
        <time>2019-09-10T15:21:43.200Z</time>
      </trkpt>
      <trkpt lat="10.1575259241311" lon="-75.6815020717267">
        <ele>52.421895</ele>
        <time>2019-09-10T15:21:43.300Z</time>
      </trkpt>
      <trkpt lat="10.1575277192235" lon="-75.6815041633373">
        <ele>52.421895</ele>
        <time>2019-09-10T15:21:43.400Z</time>
      </trkpt>
      <trkpt lat="10.1575295212987" lon="-75.6815062725114">
        <ele>52.421895</ele>
        <time>2019-09-10T15:21:43.500Z</time>
      </trkpt>
      <trkpt lat="10.157531321498" lon="-75.6815083813896">
        <ele>52.421895</ele>
        <time>2019-09-10T15:21:43.600Z</time>
      </trkpt>
      <trkpt lat="10.1575330909522" lon="-75.6815104549666">
        <ele>52.421895</ele>
        <time>2019-09-10T15:21:43.700Z</time>
      </trkpt>
      <trkpt lat="10.157534846962" lon="-75.6815125099357">
        <ele>52.421895</ele>
        <time>2019-09-10T15:21:43.800Z</time>
      </trkpt>
      <trkpt lat="10.1575365787926" lon="-75.6815145402915">
        <ele>52.421895</ele>
        <time>2019-09-10T15:21:43.900Z</time>
      </trkpt>
      <trkpt lat="10.157538313333" lon="-75.6815165700032">
        <ele>52.421895</ele>
        <time>2019-09-10T15:21:44.000Z</time>
      </trkpt>
      <trkpt lat="10.1575400319277" lon="-75.6815185631779">
        <ele>52.421895</ele>
        <time>2019-09-10T15:21:44.100Z</time>
      </trkpt>
      <trkpt lat="10.157541764071" lon="-75.6815205537241">
        <ele>52.421895</ele>
        <time>2019-09-10T15:21:44.200Z</time>
      </trkpt>
      <trkpt lat="10.1575435084081" lon="-75.6815225645668">
        <ele>52.421895</ele>
        <time>2019-09-10T15:21:44.300Z</time>
      </trkpt>
      <trkpt lat="10.1575452731724" lon="-75.6815246097532">
        <ele>52.421895</ele>
        <time>2019-09-10T15:21:44.400Z</time>
      </trkpt>
      <trkpt lat="10.1575470286611" lon="-75.6815266619372">
        <ele>52.421895</ele>
        <time>2019-09-10T15:21:44.500Z</time>
      </trkpt>
      <trkpt lat="10.1575487728939" lon="-75.6815287193085">
        <ele>52.421895</ele>
        <time>2019-09-10T15:21:44.600Z</time>
      </trkpt>
      <trkpt lat="10.1575504952405" lon="-75.681530766166">
        <ele>52.421895</ele>
        <time>2019-09-10T15:21:44.700Z</time>
      </trkpt>
      <trkpt lat="10.1575522178998" lon="-75.681532808254">
        <ele>52.421895</ele>
        <time>2019-09-10T15:21:44.800Z</time>
      </trkpt>
      <trkpt lat="10.1575539534824" lon="-75.6815348507945">
        <ele>52.421895</ele>
        <time>2019-09-10T15:21:44.900Z</time>
      </trkpt>
      <trkpt lat="10.1575557007376" lon="-75.681536911769">
        <ele>52.421895</ele>
        <time>2019-09-10T15:21:45.000Z</time>
      </trkpt>
      <trkpt lat="10.1575574359033" lon="-75.6815389720298">
        <ele>52.421895</ele>
        <time>2019-09-10T15:21:45.100Z</time>
      </trkpt>
      <trkpt lat="10.1575591580415" lon="-75.6815410463728">
        <ele>52.421895</ele>
        <time>2019-09-10T15:21:45.200Z</time>
      </trkpt>
      <trkpt lat="10.15756086142" lon="-75.6815431432054">
        <ele>52.421895</ele>
        <time>2019-09-10T15:21:45.300Z</time>
      </trkpt>
      <trkpt lat="10.1575625656322" lon="-75.6815452539113">
        <ele>52.421895</ele>
        <time>2019-09-10T15:21:45.400Z</time>
      </trkpt>
      <trkpt lat="10.1575642753681" lon="-75.6815473810841">
        <ele>52.421895</ele>
        <time>2019-09-10T15:21:45.500Z</time>
      </trkpt>
      <trkpt lat="10.1575659975063" lon="-75.6815495190666">
        <ele>52.421895</ele>
        <time>2019-09-10T15:21:45.600Z</time>
      </trkpt>
      <trkpt lat="10.1575677050536" lon="-75.6815516508001">
        <ele>52.421895</ele>
        <time>2019-09-10T15:21:45.700Z</time>
      </trkpt>
      <trkpt lat="10.1575694064519" lon="-75.6815537743871">
        <ele>52.421895</ele>
        <time>2019-09-10T15:21:45.800Z</time>
      </trkpt>
      <trkpt lat="10.1575711179595" lon="-75.6815558907154">
        <ele>52.421895</ele>
        <time>2019-09-10T15:21:45.900Z</time>
      </trkpt>
      <trkpt lat="10.157572844996" lon="-75.6815579974352">
        <ele>52.421895</ele>
        <time>2019-09-10T15:21:46.000Z</time>
      </trkpt>
      <trkpt lat="10.1575746295622" lon="-75.6815601476547">
        <ele>52.421895</ele>
        <time>2019-09-10T15:21:46.100Z</time>
      </trkpt>
      <trkpt lat="10.1575764522731" lon="-75.6815623058466">
        <ele>52.321895</ele>
        <time>2019-09-10T15:21:46.200Z</time>
      </trkpt>
      <trkpt lat="10.1575782687307" lon="-75.6815644182062">
        <ele>52.321895</ele>
        <time>2019-09-10T15:21:46.300Z</time>
      </trkpt>
      <trkpt lat="10.1575800740367" lon="-75.6815665142381">
        <ele>52.421895</ele>
        <time>2019-09-10T15:21:46.400Z</time>
      </trkpt>
      <trkpt lat="10.1575818403643" lon="-75.681568604752">
        <ele>52.421895</ele>
        <time>2019-09-10T15:21:46.500Z</time>
      </trkpt>
      <trkpt lat="10.1575835843888" lon="-75.6815707034646">
        <ele>52.421895</ele>
        <time>2019-09-10T15:21:46.600Z</time>
      </trkpt>
      <trkpt lat="10.1575853517586" lon="-75.6815728155979">
        <ele>52.421895</ele>
        <time>2019-09-10T15:21:46.700Z</time>
      </trkpt>
      <trkpt lat="10.1575871540422" lon="-75.6815749326399">
        <ele>52.421895</ele>
        <time>2019-09-10T15:21:46.800Z</time>
      </trkpt>
      <trkpt lat="10.157588964872" lon="-75.681577059778">
        <ele>52.421895</ele>
        <time>2019-09-10T15:21:46.900Z</time>
      </trkpt>
      <trkpt lat="10.1575907671556" lon="-75.681579179901">
        <ele>52.421895</ele>
        <time>2019-09-10T15:21:47.000Z</time>
      </trkpt>
      <trkpt lat="10.1575942772992" lon="-75.6815833887103">
        <ele>52.421895</ele>
        <time>2019-09-10T15:21:47.200Z</time>
      </trkpt>
      <trkpt lat="10.1575960101721" lon="-75.681585453375">
        <ele>52.421895</ele>
        <time>2019-09-10T15:21:47.300Z</time>
      </trkpt>
      <trkpt lat="10.1575977446082" lon="-75.6815875082919">
        <ele>52.421895</ele>
        <time>2019-09-10T15:21:47.400Z</time>
      </trkpt>
      <trkpt lat="10.1575994586172" lon="-75.6815895676301">
        <ele>52.421895</ele>
        <time>2019-09-10T15:21:47.500Z</time>
      </trkpt>
      <trkpt lat="10.1576011639759" lon="-75.6815916396753">
        <ele>52.421895</ele>
        <time>2019-09-10T15:21:47.600Z</time>
      </trkpt>
      <trkpt lat="10.1576028602673" lon="-75.6815937014505">
        <ele>52.421895</ele>
        <time>2019-09-10T15:21:47.700Z</time>
      </trkpt>
      <trkpt lat="10.1576045621867" lon="-75.681595762982">
        <ele>52.421895</ele>
        <time>2019-09-10T15:21:47.800Z</time>
      </trkpt>
      <trkpt lat="10.157606250349" lon="-75.6815978129553">
        <ele>52.421895</ele>
        <time>2019-09-10T15:21:47.900Z</time>
      </trkpt>
      <trkpt lat="10.1576079396577" lon="-75.6815998689514">
        <ele>52.421895</ele>
        <time>2019-09-10T15:21:48.000Z</time>
      </trkpt>
      <trkpt lat="10.1576096190655" lon="-75.6816019406485">
        <ele>52.421895</ele>
        <time>2019-09-10T15:21:48.100Z</time>
      </trkpt>
      <trkpt lat="10.1576113097291" lon="-75.6816040306229">
        <ele>52.421895</ele>
        <time>2019-09-10T15:21:48.200Z</time>
      </trkpt>
      <trkpt lat="10.1576129924719" lon="-75.6816061042347">
        <ele>52.421895</ele>
        <time>2019-09-10T15:21:48.300Z</time>
      </trkpt>
      <trkpt lat="10.1576146801131" lon="-75.6816081698046">
        <ele>52.421895</ele>
        <time>2019-09-10T15:21:48.400Z</time>
      </trkpt>
      <trkpt lat="10.1576163596251" lon="-75.6816102501703">
        <ele>52.421895</ele>
        <time>2019-09-10T15:21:48.500Z</time>
      </trkpt>
      <trkpt lat="10.1576180482043" lon="-75.6816123440438">
        <ele>52.421895</ele>
        <time>2019-09-10T15:21:48.600Z</time>
      </trkpt>
      <trkpt lat="10.1576197812856" lon="-75.6816144752028">
        <ele>52.421895</ele>
        <time>2019-09-10T15:21:48.700Z</time>
      </trkpt>
      <trkpt lat="10.1576215362532" lon="-75.6816166074759">
        <ele>52.421895</ele>
        <time>2019-09-10T15:21:48.800Z</time>
      </trkpt>
      <trkpt lat="10.1576232580787" lon="-75.6816186920889">
        <ele>52.421895</ele>
        <time>2019-09-10T15:21:48.900Z</time>
      </trkpt>
      <trkpt lat="10.1576249524942" lon="-75.6816207556396">
        <ele>52.421895</ele>
        <time>2019-09-10T15:21:49.000Z</time>
      </trkpt>
      <trkpt lat="10.1576266326315" lon="-75.6816228217317">
        <ele>52.421895</ele>
        <time>2019-09-10T15:21:49.100Z</time>
      </trkpt>
      <trkpt lat="10.1576283190221" lon="-75.6816248998345">
        <ele>52.421895</ele>
        <time>2019-09-10T15:21:49.200Z</time>
      </trkpt>
      <trkpt lat="10.157629996137" lon="-75.6816269834379">
        <ele>52.421895</ele>
        <time>2019-09-10T15:21:49.300Z</time>
      </trkpt>
      <trkpt lat="10.1576316871133" lon="-75.6816290795046">
        <ele>52.421895</ele>
        <time>2019-09-10T15:21:49.400Z</time>
      </trkpt>
      <trkpt lat="10.1576333914297" lon="-75.6816311679472">
        <ele>52.421895</ele>
        <time>2019-09-10T15:21:49.500Z</time>
      </trkpt>
      <trkpt lat="10.1576351113792" lon="-75.6816332579563">
        <ele>52.421895</ele>
        <time>2019-09-10T15:21:49.600Z</time>
      </trkpt>
      <trkpt lat="10.1576368334653" lon="-75.6816353733447">
        <ele>52.421895</ele>
        <time>2019-09-10T15:21:49.700Z</time>
      </trkpt>
      <trkpt lat="10.1576385565414" lon="-75.6816375036333">
        <ele>52.421895</ele>
        <time>2019-09-10T15:21:49.800Z</time>
      </trkpt>
      <trkpt lat="10.1576402664337" lon="-75.6816396319028">
        <ele>52.421895</ele>
        <time>2019-09-10T15:21:49.900Z</time>
      </trkpt>
      <trkpt lat="10.1576419830481" lon="-75.6816417542191">
        <ele>52.521895</ele>
        <time>2019-09-10T15:21:50.000Z</time>
      </trkpt>
      <trkpt lat="10.1576437163379" lon="-75.6816438728103">
        <ele>52.521895</ele>
        <time>2019-09-10T15:21:50.100Z</time>
      </trkpt>
      <trkpt lat="10.1576454676056" lon="-75.6816459887905">
        <ele>52.521895</ele>
        <time>2019-09-10T15:21:50.200Z</time>
      </trkpt>
      <trkpt lat="10.1576472228859" lon="-75.6816480959281">
        <ele>52.521895</ele>
        <time>2019-09-10T15:21:50.300Z</time>
      </trkpt>
      <trkpt lat="10.1576489803026" lon="-75.6816502062336">
        <ele>52.521895</ele>
        <time>2019-09-10T15:21:50.400Z</time>
      </trkpt>
      <trkpt lat="10.1576507247439" lon="-75.6816523053988">
        <ele>52.521895</ele>
        <time>2019-09-10T15:21:50.500Z</time>
      </trkpt>
      <trkpt lat="10.1576524611603" lon="-75.681654409786">
        <ele>52.521895</ele>
        <time>2019-09-10T15:21:50.600Z</time>
      </trkpt>
      <trkpt lat="10.1576559051239" lon="-75.6816586791364">
        <ele>52.521895</ele>
        <time>2019-09-10T15:21:50.800Z</time>
      </trkpt>
      <trkpt lat="10.1576576378926" lon="-75.6816607976232">
        <ele>52.521895</ele>
        <time>2019-09-10T15:21:50.900Z</time>
      </trkpt>
      <trkpt lat="10.1576593861379" lon="-75.681662902463">
        <ele>52.521895</ele>
        <time>2019-09-10T15:21:51.000Z</time>
      </trkpt>
      <trkpt lat="10.1576611356339" lon="-75.681665015867">
        <ele>52.521895</ele>
        <time>2019-09-10T15:21:51.100Z</time>
      </trkpt>
      <trkpt lat="10.1576628828892" lon="-75.681667138984">
        <ele>52.421895</ele>
        <time>2019-09-10T15:21:51.200Z</time>
      </trkpt>
      <trkpt lat="10.1576646613585" lon="-75.6816693363588">
        <ele>52.421895</ele>
        <time>2019-09-10T15:21:51.300Z</time>
      </trkpt>
      <trkpt lat="10.1576664330013" lon="-75.6816715488079">
        <ele>52.421895</ele>
        <time>2019-09-10T15:21:51.400Z</time>
      </trkpt>
      <trkpt lat="10.1576681545663" lon="-75.6816737723278">
        <ele>52.421895</ele>
        <time>2019-09-10T15:21:51.500Z</time>
      </trkpt>
      <trkpt lat="10.1576698171946" lon="-75.6816759805993">
        <ele>52.421895</ele>
        <time>2019-09-10T15:21:51.600Z</time>
      </trkpt>
      <trkpt lat="10.1576714133302" lon="-75.6816781896019">
        <ele>52.421895</ele>
        <time>2019-09-10T15:21:51.700Z</time>
      </trkpt>
      <trkpt lat="10.1576729846093" lon="-75.6816803825205">
        <ele>52.421895</ele>
        <time>2019-09-10T15:21:51.800Z</time>
      </trkpt>
      <trkpt lat="10.1576745486972" lon="-75.6816825665268">
        <ele>52.421895</ele>
        <time>2019-09-10T15:21:51.900Z</time>
      </trkpt>
      <trkpt lat="10.1576761331081" lon="-75.6816847371646">
        <ele>52.421895</ele>
        <time>2019-09-10T15:21:52.000Z</time>
      </trkpt>
      <trkpt lat="10.1576777011564" lon="-75.6816868682888">
        <ele>52.421895</ele>
        <time>2019-09-10T15:21:52.100Z</time>
      </trkpt>
      <trkpt lat="10.1576792871306" lon="-75.6816889813794">
        <ele>52.421895</ele>
        <time>2019-09-10T15:21:52.200Z</time>
      </trkpt>
      <trkpt lat="10.15768087373" lon="-75.6816910852444">
        <ele>52.421895</ele>
        <time>2019-09-10T15:21:52.300Z</time>
      </trkpt>
      <trkpt lat="10.1576824739303" lon="-75.6816932050194">
        <ele>52.421895</ele>
        <time>2019-09-10T15:21:52.400Z</time>
      </trkpt>
      <trkpt lat="10.1576840889299" lon="-75.6816953088147">
        <ele>52.421895</ele>
        <time>2019-09-10T15:21:52.500Z</time>
      </trkpt>
      <trkpt lat="10.1576857273269" lon="-75.6816974262919">
        <ele>52.421895</ele>
        <time>2019-09-10T15:21:52.600Z</time>
      </trkpt>
      <trkpt lat="10.157687361972" lon="-75.6816995273022">
        <ele>52.421895</ele>
        <time>2019-09-10T15:21:52.700Z</time>
      </trkpt>
      <trkpt lat="10.1576890062054" lon="-75.6817016365982">
        <ele>52.521895</ele>
        <time>2019-09-10T15:21:52.800Z</time>
      </trkpt>
      <trkpt lat="10.157690661382" lon="-75.6817037202016">
        <ele>52.521895</ele>
        <time>2019-09-10T15:21:52.900Z</time>
      </trkpt>
      <trkpt lat="10.1576923334943" lon="-75.6817058117077">
        <ele>52.521895</ele>
        <time>2019-09-10T15:21:53.000Z</time>
      </trkpt>
      <trkpt lat="10.1576939962789" lon="-75.6817079048153">
        <ele>52.521895</ele>
        <time>2019-09-10T15:21:53.100Z</time>
      </trkpt>
      <trkpt lat="10.1576956625549" lon="-75.6817100151905">
        <ele>52.521895</ele>
        <time>2019-09-10T15:21:53.200Z</time>
      </trkpt>
      <trkpt lat="10.1576973186695" lon="-75.6817121202392">
        <ele>52.421895</ele>
        <time>2019-09-10T15:21:53.300Z</time>
      </trkpt>
      <trkpt lat="10.1576989813499" lon="-75.6817142302314">
        <ele>52.421895</ele>
        <time>2019-09-10T15:21:53.400Z</time>
      </trkpt>
      <trkpt lat="10.1577006474174" lon="-75.681716343531">
        <ele>52.421895</ele>
        <time>2019-09-10T15:21:53.500Z</time>
      </trkpt>
      <trkpt lat="10.1577023331305" lon="-75.6817184672746">
        <ele>52.421895</ele>
        <time>2019-09-10T15:21:53.600Z</time>
      </trkpt>
      <trkpt lat="10.1577040247842" lon="-75.6817205988862">
        <ele>52.421895</ele>
        <time>2019-09-10T15:21:53.700Z</time>
      </trkpt>
      <trkpt lat="10.1577057288922" lon="-75.6817227455722">
        <ele>52.421895</ele>
        <time>2019-09-10T15:21:53.800Z</time>
      </trkpt>
      <trkpt lat="10.1577074561372" lon="-75.6817249296829">
        <ele>52.421895</ele>
        <time>2019-09-10T15:21:53.900Z</time>
      </trkpt>
      <trkpt lat="10.1577091938042" lon="-75.6817271268836">
        <ele>52.421895</ele>
        <time>2019-09-10T15:21:54.000Z</time>
      </trkpt>
      <trkpt lat="10.1577109104708" lon="-75.681729273674">
        <ele>52.421895</ele>
        <time>2019-09-10T15:21:54.100Z</time>
      </trkpt>
      <trkpt lat="10.1577126235939" lon="-75.6817313834573">
        <ele>52.421895</ele>
        <time>2019-09-10T15:21:54.200Z</time>
      </trkpt>
      <trkpt lat="10.1577143600102" lon="-75.6817335106128">
        <ele>52.421895</ele>
        <time>2019-09-10T15:21:54.300Z</time>
      </trkpt>
      <trkpt lat="10.1577161239928" lon="-75.6817356616852">
        <ele>52.421895</ele>
        <time>2019-09-10T15:21:54.400Z</time>
      </trkpt>
      <trkpt lat="10.1577178761986" lon="-75.6817378156125">
        <ele>52.421895</ele>
        <time>2019-09-10T15:21:54.500Z</time>
      </trkpt>
      <trkpt lat="10.1577196403897" lon="-75.6817399602792">
        <ele>52.421895</ele>
        <time>2019-09-10T15:21:54.600Z</time>
      </trkpt>
      <trkpt lat="10.1577214237573" lon="-75.6817420917515">
        <ele>52.421895</ele>
        <time>2019-09-10T15:21:54.700Z</time>
      </trkpt>
      <trkpt lat="10.1577232290113" lon="-75.6817442124664">
        <ele>52.421895</ele>
        <time>2019-09-10T15:21:54.800Z</time>
      </trkpt>
      <trkpt lat="10.1577250478138" lon="-75.6817463362101">
        <ele>52.421895</ele>
        <time>2019-09-10T15:21:54.900Z</time>
      </trkpt>
      <trkpt lat="10.157728737425" lon="-75.6817505174816">
        <ele>52.421895</ele>
        <time>2019-09-10T15:21:55.100Z</time>
      </trkpt>
      <trkpt lat="10.1577305885359" lon="-75.6817525921727">
        <ele>52.421895</ele>
        <time>2019-09-10T15:21:55.200Z</time>
      </trkpt>
      <trkpt lat="10.1577324006163" lon="-75.6817546842011">
        <ele>52.421895</ele>
        <time>2019-09-10T15:21:55.300Z</time>
      </trkpt>
      <trkpt lat="10.1577341902893" lon="-75.6817567785271">
        <ele>52.421895</ele>
        <time>2019-09-10T15:21:55.400Z</time>
      </trkpt>
      <trkpt lat="10.1577359634433" lon="-75.6817588677356">
        <ele>52.421895</ele>
        <time>2019-09-10T15:21:55.500Z</time>
      </trkpt>
      <trkpt lat="10.1577377209122" lon="-75.6817609422178">
        <ele>52.421895</ele>
        <time>2019-09-10T15:21:55.600Z</time>
      </trkpt>
      <trkpt lat="10.1577394637902" lon="-75.6817630068129">
        <ele>52.321895</ele>
        <time>2019-09-10T15:21:55.700Z</time>
      </trkpt>
      <trkpt lat="10.1577412125567" lon="-75.6817650329388">
        <ele>52.321895</ele>
        <time>2019-09-10T15:21:55.800Z</time>
      </trkpt>
      <trkpt lat="10.157742983001" lon="-75.6817670315618">
        <ele>52.321895</ele>
        <time>2019-09-10T15:21:55.900Z</time>
      </trkpt>
      <trkpt lat="10.1577447750189" lon="-75.6817690481139">
        <ele>52.321895</ele>
        <time>2019-09-10T15:21:56.000Z</time>
      </trkpt>
      <trkpt lat="10.1577465527587" lon="-75.6817710777908">
        <ele>52.321895</ele>
        <time>2019-09-10T15:21:56.100Z</time>
      </trkpt>
      <trkpt lat="10.157748328883" lon="-75.6817731266849">
        <ele>52.321895</ele>
        <time>2019-09-10T15:21:56.200Z</time>
      </trkpt>
      <trkpt lat="10.157750137472" lon="-75.6817752092787">
        <ele>52.321895</ele>
        <time>2019-09-10T15:21:56.300Z</time>
      </trkpt>
      <trkpt lat="10.1577519573689" lon="-75.6817773283225">
        <ele>52.321895</ele>
        <time>2019-09-10T15:21:56.400Z</time>
      </trkpt>
      <trkpt lat="10.1577537994126" lon="-75.6817794852437">
        <ele>52.321895</ele>
        <time>2019-09-10T15:21:56.500Z</time>
      </trkpt>
      <trkpt lat="10.1577556321807" lon="-75.6817816451241">
        <ele>52.321895</ele>
        <time>2019-09-10T15:21:56.600Z</time>
      </trkpt>
      <trkpt lat="10.1577574010617" lon="-75.6817837648642">
        <ele>52.321895</ele>
        <time>2019-09-10T15:21:56.700Z</time>
      </trkpt>
      <trkpt lat="10.1577591385724" lon="-75.6817858718972">
        <ele>52.321895</ele>
        <time>2019-09-10T15:21:56.800Z</time>
      </trkpt>
      <trkpt lat="10.1577608767605" lon="-75.6817879951883">
        <ele>52.321895</ele>
        <time>2019-09-10T15:21:56.900Z</time>
      </trkpt>
      <trkpt lat="10.1577626348547" lon="-75.6817901287495">
        <ele>52.321895</ele>
        <time>2019-09-10T15:21:57.000Z</time>
      </trkpt>
      <trkpt lat="10.157764384507" lon="-75.6817922484199">
        <ele>52.321895</ele>
        <time>2019-09-10T15:21:57.100Z</time>
      </trkpt>
      <trkpt lat="10.1577661452588" lon="-75.6817943650616">
        <ele>52.321895</ele>
        <time>2019-09-10T15:21:57.200Z</time>
      </trkpt>
      <trkpt lat="10.1577679183087" lon="-75.6817964977524">
        <ele>52.321895</ele>
        <time>2019-09-10T15:21:57.300Z</time>
      </trkpt>
      <trkpt lat="10.1577697051156" lon="-75.6817986528633">
        <ele>52.321895</ele>
        <time>2019-09-10T15:21:57.400Z</time>
      </trkpt>
      <trkpt lat="10.1577714798329" lon="-75.6818008241626">
        <ele>52.321895</ele>
        <time>2019-09-10T15:21:57.500Z</time>
      </trkpt>
      <trkpt lat="10.1577732450662" lon="-75.6818029929204">
        <ele>52.321895</ele>
        <time>2019-09-10T15:21:57.600Z</time>
      </trkpt>
      <trkpt lat="10.1577749785644" lon="-75.681805144167">
        <ele>52.321895</ele>
        <time>2019-09-10T15:21:57.700Z</time>
      </trkpt>
      <trkpt lat="10.1577766973675" lon="-75.6818072609479">
        <ele>52.321895</ele>
        <time>2019-09-10T15:21:57.800Z</time>
      </trkpt>
      <trkpt lat="10.1577784084062" lon="-75.6818093352908">
        <ele>52.321895</ele>
        <time>2019-09-10T15:21:57.900Z</time>
      </trkpt>
      <trkpt lat="10.1577801249685" lon="-75.6818113885366">
        <ele>52.321895</ele>
        <time>2019-09-10T15:21:58.000Z</time>
      </trkpt>
      <trkpt lat="10.1577818317342" lon="-75.6818134148366">
        <ele>52.321895</ele>
        <time>2019-09-10T15:21:58.100Z</time>
      </trkpt>
      <trkpt lat="10.157783554185" lon="-75.6818154553754">
        <ele>52.321895</ele>
        <time>2019-09-10T15:21:58.200Z</time>
      </trkpt>
      <trkpt lat="10.1577853260363" lon="-75.6818174922936">
        <ele>52.321895</ele>
        <time>2019-09-10T15:21:58.300Z</time>
      </trkpt>
      <trkpt lat="10.1577871506752" lon="-75.6818195554613">
        <ele>52.321895</ele>
        <time>2019-09-10T15:21:58.400Z</time>
      </trkpt>
      <trkpt lat="10.1577889949597" lon="-75.6818216348523">
        <ele>52.321895</ele>
        <time>2019-09-10T15:21:58.500Z</time>
      </trkpt>
      <trkpt lat="10.1577908386709" lon="-75.6818237330426">
        <ele>52.321895</ele>
        <time>2019-09-10T15:21:58.600Z</time>
      </trkpt>
      <trkpt lat="10.1577926683125" lon="-75.6818258356544">
        <ele>52.321895</ele>
        <time>2019-09-10T15:21:58.700Z</time>
      </trkpt>
      <trkpt lat="10.1577944997257" lon="-75.6818279658038">
        <ele>52.321895</ele>
        <time>2019-09-10T15:21:58.800Z</time>
      </trkpt>
      <trkpt lat="10.1577963454693" lon="-75.6818301002701">
        <ele>52.321895</ele>
        <time>2019-09-10T15:21:58.900Z</time>
      </trkpt>
      <trkpt lat="10.1577981864708" lon="-75.6818322382874">
        <ele>52.321895</ele>
        <time>2019-09-10T15:21:59.000Z</time>
      </trkpt>
      <trkpt lat="10.1577999462846" lon="-75.6818343380792">
        <ele>52.321895</ele>
        <time>2019-09-10T15:21:59.100Z</time>
      </trkpt>
      <trkpt lat="10.1578016592514" lon="-75.6818363960597">
        <ele>52.321895</ele>
        <time>2019-09-10T15:21:59.200Z</time>
      </trkpt>
      <trkpt lat="10.1578051112921" lon="-75.6818405041527">
        <ele>52.321895</ele>
        <time>2019-09-10T15:21:59.400Z</time>
      </trkpt>
      <trkpt lat="10.1578068213407" lon="-75.6818425500877">
        <ele>52.321895</ele>
        <time>2019-09-10T15:21:59.500Z</time>
      </trkpt>
      <trkpt lat="10.1578085270641" lon="-75.6818445957441">
        <ele>52.321895</ele>
        <time>2019-09-10T15:21:59.600Z</time>
      </trkpt>
      <trkpt lat="10.157810251443" lon="-75.681846655709">
        <ele>52.321895</ele>
        <time>2019-09-10T15:21:59.700Z</time>
      </trkpt>
      <trkpt lat="10.1578137037443" lon="-75.6818507697552">
        <ele>52.321895</ele>
        <time>2019-09-10T15:21:59.900Z</time>
      </trkpt>
      <trkpt lat="10.1578154305724" lon="-75.681852810294">
        <ele>52.321895</ele>
        <time>2019-09-10T15:22:00.000Z</time>
      </trkpt>
      <trkpt lat="10.1578171781403" lon="-75.6818548482217">
        <ele>52.321895</ele>
        <time>2019-09-10T15:22:00.100Z</time>
      </trkpt>
      <trkpt lat="10.1578189247703" lon="-75.6818568906753">
        <ele>52.321895</ele>
        <time>2019-09-10T15:22:00.200Z</time>
      </trkpt>
      <trkpt lat="10.157820631588" lon="-75.6818589344169">
        <ele>52.321895</ele>
        <time>2019-09-10T15:22:00.300Z</time>
      </trkpt>
      <trkpt lat="10.1578223203235" lon="-75.6818609716136">
        <ele>52.321895</ele>
        <time>2019-09-10T15:22:00.400Z</time>
      </trkpt>
      <trkpt lat="10.1578240329255" lon="-75.6818630433455">
        <ele>52.321895</ele>
        <time>2019-09-10T15:22:00.500Z</time>
      </trkpt>
      <trkpt lat="10.1578257630886" lon="-75.6818651264615">
        <ele>52.321895</ele>
        <time>2019-09-10T15:22:00.600Z</time>
      </trkpt>
      <trkpt lat="10.157827478244" lon="-75.6818671902559">
        <ele>52.321895</ele>
        <time>2019-09-10T15:22:00.700Z</time>
      </trkpt>
      <trkpt lat="10.1578291854786" lon="-75.6818692406122">
        <ele>52.321895</ele>
        <time>2019-09-10T15:22:00.800Z</time>
      </trkpt>
      <trkpt lat="10.1578308732762" lon="-75.681871312936">
        <ele>52.321895</ele>
        <time>2019-09-10T15:22:00.900Z</time>
      </trkpt>
      <trkpt lat="10.157832559354" lon="-75.6818734004385">
        <ele>52.321895</ele>
        <time>2019-09-10T15:22:01.000Z</time>
      </trkpt>
      <trkpt lat="10.157834217084" lon="-75.6818754405944">
        <ele>52.321895</ele>
        <time>2019-09-10T15:22:01.100Z</time>
      </trkpt>
      <trkpt lat="10.1578358751266" lon="-75.6818774666158">
        <ele>52.321895</ele>
        <time>2019-09-10T15:22:01.200Z</time>
      </trkpt>
      <trkpt lat="10.1578375487501" lon="-75.6818795341352">
        <ele>52.321895</ele>
        <time>2019-09-10T15:22:01.300Z</time>
      </trkpt>
      <trkpt lat="10.15783924426" lon="-75.6818816356329">
        <ele>52.321895</ele>
        <time>2019-09-10T15:22:01.400Z</time>
      </trkpt>
      <trkpt lat="10.1578409424795" lon="-75.6818837557908">
        <ele>52.321895</ele>
        <time>2019-09-10T15:22:01.500Z</time>
      </trkpt>
      <trkpt lat="10.1578426551857" lon="-75.6818858702392">
        <ele>52.321895</ele>
        <time>2019-09-10T15:22:01.600Z</time>
      </trkpt>
      <trkpt lat="10.1578443789393" lon="-75.68188796554">
        <ele>52.321895</ele>
        <time>2019-09-10T15:22:01.700Z</time>
      </trkpt>
      <trkpt lat="10.1578461105094" lon="-75.6818900408578">
        <ele>52.321895</ele>
        <time>2019-09-10T15:22:01.800Z</time>
      </trkpt>
      <trkpt lat="10.1578478317096" lon="-75.6818920961228">
        <ele>52.321895</ele>
        <time>2019-09-10T15:22:01.900Z</time>
      </trkpt>
      <trkpt lat="10.1578495592672" lon="-75.6818941521537">
        <ele>52.421895</ele>
        <time>2019-09-10T15:22:02.000Z</time>
      </trkpt>
      <trkpt lat="10.1578512905767" lon="-75.6818961824921">
        <ele>52.421895</ele>
        <time>2019-09-10T15:22:02.100Z</time>
      </trkpt>
      <trkpt lat="10.1578530348096" lon="-75.6818982203502">
        <ele>52.421895</ele>
        <time>2019-09-10T15:22:02.200Z</time>
      </trkpt>
      <trkpt lat="10.1578547571562" lon="-75.681900239757">
        <ele>52.421895</ele>
        <time>2019-09-10T15:22:02.300Z</time>
      </trkpt>
      <trkpt lat="10.1578564807534" lon="-75.6819022675192">
        <ele>52.421895</ele>
        <time>2019-09-10T15:22:02.400Z</time>
      </trkpt>
      <trkpt lat="10.1578582022141" lon="-75.6819042883186">
        <ele>52.421895</ele>
        <time>2019-09-10T15:22:02.500Z</time>
      </trkpt>
      <trkpt lat="10.157859939829" lon="-75.6819063181695">
        <ele>52.421895</ele>
        <time>2019-09-10T15:22:02.600Z</time>
      </trkpt>
      <trkpt lat="10.1578616740567" lon="-75.681908347742">
        <ele>52.421895</ele>
        <time>2019-09-10T15:22:02.700Z</time>
      </trkpt>
      <trkpt lat="10.1578634143814" lon="-75.6819103869927">
        <ele>52.421895</ele>
        <time>2019-09-10T15:22:02.800Z</time>
      </trkpt>
      <trkpt lat="10.1578651460036" lon="-75.6819124332757">
        <ele>52.421895</ele>
        <time>2019-09-10T15:22:02.900Z</time>
      </trkpt>
      <trkpt lat="10.1578668818467" lon="-75.6819144897244">
        <ele>52.421895</ele>
        <time>2019-09-10T15:22:03.000Z</time>
      </trkpt>
      <trkpt lat="10.1578686117493" lon="-75.6819165518129">
        <ele>52.421895</ele>
        <time>2019-09-10T15:22:03.100Z</time>
      </trkpt>
      <trkpt lat="10.1578703474361" lon="-75.6819186202375">
        <ele>52.421895</ele>
        <time>2019-09-10T15:22:03.200Z</time>
      </trkpt>
      <trkpt lat="10.1578720822891" lon="-75.6819206876177">
        <ele>52.421895</ele>
        <time>2019-09-10T15:22:03.300Z</time>
      </trkpt>
      <trkpt lat="10.1578738250629" lon="-75.6819227514469">
        <ele>52.421895</ele>
        <time>2019-09-10T15:22:03.400Z</time>
      </trkpt>
      <trkpt lat="10.1578755729435" lon="-75.6819248073386">
        <ele>52.421895</ele>
        <time>2019-09-10T15:22:03.500Z</time>
      </trkpt>
      <trkpt lat="10.1578773294744" lon="-75.6819268632303">
        <ele>52.421895</ele>
        <time>2019-09-10T15:22:03.600Z</time>
      </trkpt>
      <trkpt lat="10.1578790795436" lon="-75.6819289333956">
        <ele>52.421895</ele>
        <time>2019-09-10T15:22:03.700Z</time>
      </trkpt>
      <trkpt lat="10.1578825599323" lon="-75.6819330973299">
        <ele>52.421895</ele>
        <time>2019-09-10T15:22:03.900Z</time>
      </trkpt>
      <trkpt lat="10.1578860303679" lon="-75.6819372393315">
        <ele>52.421895</ele>
        <time>2019-09-10T15:22:04.100Z</time>
      </trkpt>
      <trkpt lat="10.1578877755388" lon="-75.681939306851">
        <ele>52.421895</ele>
        <time>2019-09-10T15:22:04.200Z</time>
      </trkpt>
      <trkpt lat="10.1578895373849" lon="-75.6819413904544">
        <ele>52.421895</ele>
        <time>2019-09-10T15:22:04.300Z</time>
      </trkpt>
      <trkpt lat="10.1578913122586" lon="-75.6819434870782">
        <ele>52.421895</ele>
        <time>2019-09-10T15:22:04.400Z</time>
      </trkpt>
      <trkpt lat="10.1578931007851" lon="-75.6819455948423">
        <ele>52.421895</ele>
        <time>2019-09-10T15:22:04.500Z</time>
      </trkpt>
      <trkpt lat="10.1578948857682" lon="-75.681947705322">
        <ele>52.421895</ele>
        <time>2019-09-10T15:22:04.600Z</time>
      </trkpt>
      <trkpt lat="10.1578966801832" lon="-75.6819498437222">
        <ele>52.421895</ele>
        <time>2019-09-10T15:22:04.700Z</time>
      </trkpt>
      <trkpt lat="10.1578984646452" lon="-75.6819519845595">
        <ele>52.421895</ele>
        <time>2019-09-10T15:22:04.800Z</time>
      </trkpt>
      <trkpt lat="10.1579002567673" lon="-75.6819541281122">
        <ele>52.421895</ele>
        <time>2019-09-10T15:22:04.900Z</time>
      </trkpt>
      <trkpt lat="10.1579020432616" lon="-75.6819562567646">
        <ele>52.421895</ele>
        <time>2019-09-10T15:22:05.000Z</time>
      </trkpt>
      <trkpt lat="10.1579038211056" lon="-75.6819583822141">
        <ele>52.421895</ele>
        <time>2019-09-10T15:22:05.100Z</time>
      </trkpt>
      <trkpt lat="10.1579055868078" lon="-75.6819605020239">
        <ele>52.421895</ele>
        <time>2019-09-10T15:22:05.200Z</time>
      </trkpt>
      <trkpt lat="10.1579073603788" lon="-75.6819626371516">
        <ele>52.421895</ele>
        <time>2019-09-10T15:22:05.300Z</time>
      </trkpt>
      <trkpt lat="10.1579091418183" lon="-75.6819647763178">
        <ele>52.421895</ele>
        <time>2019-09-10T15:22:05.400Z</time>
      </trkpt>
      <trkpt lat="10.157910911012" lon="-75.6819669039258">
        <ele>52.421895</ele>
        <time>2019-09-10T15:22:05.500Z</time>
      </trkpt>
      <trkpt lat="10.1579126702005" lon="-75.6819690218556">
        <ele>52.421895</ele>
        <time>2019-09-10T15:22:05.600Z</time>
      </trkpt>
      <trkpt lat="10.1579162132257" lon="-75.6819732358521">
        <ele>52.421895</ele>
        <time>2019-09-10T15:22:05.800Z</time>
      </trkpt>
      <trkpt lat="10.1579179750718" lon="-75.6819753348432">
        <ele>52.421895</ele>
        <time>2019-09-10T15:22:05.900Z</time>
      </trkpt>
      <trkpt lat="10.1579197311337" lon="-75.6819774358535">
        <ele>52.421895</ele>
        <time>2019-09-10T15:22:06.000Z</time>
      </trkpt>
      <trkpt lat="10.1579214693218" lon="-75.6819795307365">
        <ele>52.421895</ele>
        <time>2019-09-10T15:22:06.100Z</time>
      </trkpt>
      <trkpt lat="10.1579232121477" lon="-75.681981632095">
        <ele>52.421895</ele>
        <time>2019-09-10T15:22:06.200Z</time>
      </trkpt>
      <trkpt lat="10.1579249631028" lon="-75.6819837529491">
        <ele>52.421895</ele>
        <time>2019-09-10T15:22:06.300Z</time>
      </trkpt>
      <trkpt lat="10.1579267215617" lon="-75.6819858875895">
        <ele>52.421895</ele>
        <time>2019-09-10T15:22:06.400Z</time>
      </trkpt>
      <trkpt lat="10.1579284614174" lon="-75.6819880178433">
        <ele>52.421895</ele>
        <time>2019-09-10T15:22:06.500Z</time>
      </trkpt>
      <trkpt lat="10.1579301970521" lon="-75.6819901407166">
        <ele>52.421895</ele>
        <time>2019-09-10T15:22:06.600Z</time>
      </trkpt>
      <trkpt lat="10.1579319225253" lon="-75.68199225238">
        <ele>52.421895</ele>
        <time>2019-09-10T15:22:06.700Z</time>
      </trkpt>
      <trkpt lat="10.1579336552939" lon="-75.6819943635559">
        <ele>52.421895</ele>
        <time>2019-09-10T15:22:06.800Z</time>
      </trkpt>
      <trkpt lat="10.1579354064053" lon="-75.6819964878217">
        <ele>52.421895</ele>
        <time>2019-09-10T15:22:06.900Z</time>
      </trkpt>
      <trkpt lat="10.1579371653333" lon="-75.6819986216962">
        <ele>52.421895</ele>
        <time>2019-09-10T15:22:07.000Z</time>
      </trkpt>
      <trkpt lat="10.1579389203009" lon="-75.682000719434">
        <ele>52.421895</ele>
        <time>2019-09-10T15:22:07.100Z</time>
      </trkpt>
      <trkpt lat="10.157940670787" lon="-75.6820028029678">
        <ele>52.421895</ele>
        <time>2019-09-10T15:22:07.200Z</time>
      </trkpt>
      <trkpt lat="10.1579424174169" lon="-75.6820048728546">
        <ele>52.421895</ele>
        <time>2019-09-10T15:22:07.300Z</time>
      </trkpt>
      <trkpt lat="10.1579441611287" lon="-75.6820069551351">
        <ele>52.421895</ele>
        <time>2019-09-10T15:22:07.400Z</time>
      </trkpt>
      <trkpt lat="10.1579458750334" lon="-75.6820090282247">
        <ele>52.421895</ele>
        <time>2019-09-10T15:22:07.500Z</time>
      </trkpt>
      <trkpt lat="10.1579475806005" lon="-75.6820111142651">
        <ele>52.421895</ele>
        <time>2019-09-10T15:22:07.600Z</time>
      </trkpt>
      <trkpt lat="10.1579492792891" lon="-75.6820131756573">
        <ele>52.421895</ele>
        <time>2019-09-10T15:22:07.700Z</time>
      </trkpt>
      <trkpt lat="10.1579509886602" lon="-75.6820152402524">
        <ele>52.421895</ele>
        <time>2019-09-10T15:22:07.800Z</time>
      </trkpt>
      <trkpt lat="10.1579527037635" lon="-75.6820173025498">
        <ele>52.421895</ele>
        <time>2019-09-10T15:22:07.900Z</time>
      </trkpt>
      <trkpt lat="10.1579544279861" lon="-75.6820193810704">
        <ele>52.421895</ele>
        <time>2019-09-10T15:22:08.000Z</time>
      </trkpt>
      <trkpt lat="10.1579561598688" lon="-75.6820214392598">
        <ele>52.421895</ele>
        <time>2019-09-10T15:22:08.100Z</time>
      </trkpt>
      <trkpt lat="10.1579578920121" lon="-75.6820235012787">
        <ele>52.421895</ele>
        <time>2019-09-10T15:22:08.200Z</time>
      </trkpt>
      <trkpt lat="10.1579613201864" lon="-75.6820276513571">
        <ele>52.421895</ele>
        <time>2019-09-10T15:22:08.400Z</time>
      </trkpt>
      <trkpt lat="10.1579647601375" lon="-75.6820318329769">
        <ele>52.421895</ele>
        <time>2019-09-10T15:22:08.600Z</time>
      </trkpt>
      <trkpt lat="10.1579664891021" lon="-75.6820339344049">
        <ele>52.421895</ele>
        <time>2019-09-10T15:22:08.700Z</time>
      </trkpt>
      <trkpt lat="10.1579682222355" lon="-75.6820360398017">
        <ele>52.421895</ele>
        <time>2019-09-10T15:22:08.800Z</time>
      </trkpt>
      <trkpt lat="10.1579716499408" lon="-75.6820402529627">
        <ele>52.421895</ele>
        <time>2019-09-10T15:22:09.000Z</time>
      </trkpt>
      <trkpt lat="10.1579733428451" lon="-75.6820423608661">
        <ele>52.421895</ele>
        <time>2019-09-10T15:22:09.100Z</time>
      </trkpt>
      <trkpt lat="10.1579750383549" lon="-75.682044466263">
        <ele>52.421895</ele>
        <time>2019-09-10T15:22:09.200Z</time>
      </trkpt>
      <trkpt lat="10.157976739649" lon="-75.6820465942191">
        <ele>52.421895</ele>
        <time>2019-09-10T15:22:09.300Z</time>
      </trkpt>
      <trkpt lat="10.1579784570972" lon="-75.6820487275366">
        <ele>52.421895</ele>
        <time>2019-09-10T15:22:09.400Z</time>
      </trkpt>
      <trkpt lat="10.1579801851238" lon="-75.6820508860592">
        <ele>52.421895</ele>
        <time>2019-09-10T15:22:09.500Z</time>
      </trkpt>
      <trkpt lat="10.1579819177361" lon="-75.6820530363657">
        <ele>52.421895</ele>
        <time>2019-09-10T15:22:09.600Z</time>
      </trkpt>
      <trkpt lat="10.15798361705" lon="-75.682055155897">
        <ele>52.421895</ele>
        <time>2019-09-10T15:22:09.700Z</time>
      </trkpt>
      <trkpt lat="10.1579853046391" lon="-75.6820572512674">
        <ele>52.421895</ele>
        <time>2019-09-10T15:22:09.800Z</time>
      </trkpt>
      <trkpt lat="10.1579869707067" lon="-75.6820593632789">
        <ele>52.421895</ele>
        <time>2019-09-10T15:22:09.900Z</time>
      </trkpt>
      <trkpt lat="10.1579886500102" lon="-75.682061489355">
        <ele>52.421895</ele>
        <time>2019-09-10T15:22:10.000Z</time>
      </trkpt>
      <trkpt lat="10.1579903387457" lon="-75.682063609304">
        <ele>52.421895</ele>
        <time>2019-09-10T15:22:10.100Z</time>
      </trkpt>
      <trkpt lat="10.1579920489507" lon="-75.6820657238221">
        <ele>52.421895</ele>
        <time>2019-09-10T15:22:10.200Z</time>
      </trkpt>
      <trkpt lat="10.1579937533713" lon="-75.6820678262945">
        <ele>52.421895</ele>
        <time>2019-09-10T15:22:10.300Z</time>
      </trkpt>
      <trkpt lat="10.1579954622214" lon="-75.6820699267478">
        <ele>52.421895</ele>
        <time>2019-09-10T15:22:10.400Z</time>
      </trkpt>
      <trkpt lat="10.1579971625254" lon="-75.6820720191939">
        <ele>52.421895</ele>
        <time>2019-09-10T15:22:10.500Z</time>
      </trkpt>
      <trkpt lat="10.1579988684572" lon="-75.6820741125452">
        <ele>52.421895</ele>
        <time>2019-09-10T15:22:10.600Z</time>
      </trkpt>
      <trkpt lat="10.1580005828831" lon="-75.682076201858">
        <ele>52.421895</ele>
        <time>2019-09-10T15:22:10.700Z</time>
      </trkpt>
      <trkpt lat="10.1580023110139" lon="-75.6820782933294">
        <ele>52.421895</ele>
        <time>2019-09-10T15:22:10.800Z</time>
      </trkpt>
      <trkpt lat="10.1580040258566" lon="-75.6820803812497">
        <ele>52.421895</ele>
        <time>2019-09-10T15:22:10.900Z</time>
      </trkpt>
      <trkpt lat="10.1580057388234" lon="-75.6820824722336">
        <ele>52.521895</ele>
        <time>2019-09-10T15:22:11.000Z</time>
      </trkpt>
      <trkpt lat="10.1580074558547" lon="-75.6820845627998">
        <ele>52.521895</ele>
        <time>2019-09-10T15:22:11.100Z</time>
      </trkpt>
      <trkpt lat="10.158009181849" lon="-75.6820866562206">
        <ele>52.521895</ele>
        <time>2019-09-10T15:22:11.200Z</time>
      </trkpt>
      <trkpt lat="10.1580108938257" lon="-75.6820887289622">
        <ele>52.521895</ele>
        <time>2019-09-10T15:22:11.300Z</time>
      </trkpt>
      <trkpt lat="10.1580126118471" lon="-75.6820907946017">
        <ele>52.521895</ele>
        <time>2019-09-10T15:22:11.400Z</time>
      </trkpt>
      <trkpt lat="10.1580143387273" lon="-75.6820928607286">
        <ele>52.521895</ele>
        <time>2019-09-10T15:22:11.500Z</time>
      </trkpt>
      <trkpt lat="10.1580160546644" lon="-75.6820949483704">
        <ele>52.421895</ele>
        <time>2019-09-10T15:22:11.600Z</time>
      </trkpt>
      <trkpt lat="10.158017729278" lon="-75.6820970603818">
        <ele>52.421895</ele>
        <time>2019-09-10T15:22:11.700Z</time>
      </trkpt>
      <trkpt lat="10.1580193935217" lon="-75.6820991840907">
        <ele>52.421895</ele>
        <time>2019-09-10T15:22:11.800Z</time>
      </trkpt>
      <trkpt lat="10.1580210677706" lon="-75.6821013149712">
        <ele>52.421895</ele>
        <time>2019-09-10T15:22:11.900Z</time>
      </trkpt>
      <trkpt lat="10.1580244787485" lon="-75.6821055880118">
        <ele>52.421895</ele>
        <time>2019-09-10T15:22:12.100Z</time>
      </trkpt>
      <trkpt lat="10.1580262087031" lon="-75.682107743262">
        <ele>52.421895</ele>
        <time>2019-09-10T15:22:12.200Z</time>
      </trkpt>
      <trkpt lat="10.1580279466828" lon="-75.682109865996">
        <ele>52.421895</ele>
        <time>2019-09-10T15:22:12.300Z</time>
      </trkpt>
      <trkpt lat="10.1580297048291" lon="-75.6821119771719">
        <ele>52.421895</ele>
        <time>2019-09-10T15:22:12.400Z</time>
      </trkpt>
      <trkpt lat="10.1580314732932" lon="-75.6821140510275">
        <ele>52.421895</ele>
        <time>2019-09-10T15:22:12.500Z</time>
      </trkpt>
      <trkpt lat="10.1580332112729" lon="-75.682116129757">
        <ele>52.421895</ele>
        <time>2019-09-10T15:22:12.600Z</time>
      </trkpt>
      <trkpt lat="10.1580349564437" lon="-75.6821182051443">
        <ele>52.421895</ele>
        <time>2019-09-10T15:22:12.700Z</time>
      </trkpt>
      <trkpt lat="10.1580367162055" lon="-75.6821202887478">
        <ele>52.421895</ele>
        <time>2019-09-10T15:22:12.800Z</time>
      </trkpt>
      <trkpt lat="10.1580384800318" lon="-75.6821223596093">
        <ele>52.421895</ele>
        <time>2019-09-10T15:22:12.900Z</time>
      </trkpt>
      <trkpt lat="10.1580402379175" lon="-75.6821244398706">
        <ele>52.421895</ele>
        <time>2019-09-10T15:22:13.000Z</time>
      </trkpt>
      <trkpt lat="10.1580419902796" lon="-75.6821265160935">
        <ele>52.421895</ele>
        <time>2019-09-10T15:22:13.100Z</time>
      </trkpt>
      <trkpt lat="10.1580437429543" lon="-75.6821286036657">
        <ele>52.421895</ele>
        <time>2019-09-10T15:22:13.200Z</time>
      </trkpt>
      <trkpt lat="10.1580454906786" lon="-75.682130688035">
        <ele>52.421895</ele>
        <time>2019-09-10T15:22:13.300Z</time>
      </trkpt>
      <trkpt lat="10.1580472364227" lon="-75.6821327791582">
        <ele>52.421895</ele>
        <time>2019-09-10T15:22:13.400Z</time>
      </trkpt>
      <trkpt lat="10.1580489742981" lon="-75.6821348741109">
        <ele>52.421895</ele>
        <time>2019-09-10T15:22:13.500Z</time>
      </trkpt>
      <trkpt lat="10.1580507183225" lon="-75.6821369712917">
        <ele>52.421895</ele>
        <time>2019-09-10T15:22:13.600Z</time>
      </trkpt>
      <trkpt lat="10.1580524823052" lon="-75.6821390438939">
        <ele>52.421895</ele>
        <time>2019-09-10T15:22:13.700Z</time>
      </trkpt>
      <trkpt lat="10.1580542570225" lon="-75.6821411123185">
        <ele>52.421895</ele>
        <time>2019-09-10T15:22:13.800Z</time>
      </trkpt>
      <trkpt lat="10.1580560240276" lon="-75.6821432034417">
        <ele>52.421895</ele>
        <time>2019-09-10T15:22:13.900Z</time>
      </trkpt>
      <trkpt lat="10.1580577832682" lon="-75.6821453144784">
        <ele>52.421895</ele>
        <time>2019-09-10T15:22:14.000Z</time>
      </trkpt>
      <trkpt lat="10.1580595487099" lon="-75.6821474316423">
        <ele>52.421895</ele>
        <time>2019-09-10T15:22:14.100Z</time>
      </trkpt>
      <trkpt lat="10.158061311025" lon="-75.6821495485276">
        <ele>52.421895</ele>
        <time>2019-09-10T15:22:14.200Z</time>
      </trkpt>
      <trkpt lat="10.158063062397" lon="-75.6821516669448">
        <ele>52.421895</ele>
        <time>2019-09-10T15:22:14.300Z</time>
      </trkpt>
      <trkpt lat="10.1580648004809" lon="-75.6821537798614">
        <ele>52.421895</ele>
        <time>2019-09-10T15:22:14.400Z</time>
      </trkpt>
      <trkpt lat="10.1580665053706" lon="-75.6821558692439">
        <ele>52.421895</ele>
        <time>2019-09-10T15:22:14.500Z</time>
      </trkpt>
      <trkpt lat="10.1580681975454" lon="-75.6821579488785">
        <ele>52.421895</ele>
        <time>2019-09-10T15:22:14.600Z</time>
      </trkpt>
      <trkpt lat="10.1580699062391" lon="-75.6821600548324">
        <ele>52.421895</ele>
        <time>2019-09-10T15:22:14.700Z</time>
      </trkpt>
      <trkpt lat="10.1580716348649" lon="-75.6821621814656">
        <ele>52.421895</ele>
        <time>2019-09-10T15:22:14.800Z</time>
      </trkpt>
      <trkpt lat="10.1580733705778" lon="-75.6821643080292">
        <ele>52.421895</ele>
        <time>2019-09-10T15:22:14.900Z</time>
      </trkpt>
      <trkpt lat="10.1580751049619" lon="-75.6821664284655">
        <ele>52.421895</ele>
        <time>2019-09-10T15:22:15.000Z</time>
      </trkpt>
      <trkpt lat="10.1580768467977" lon="-75.6821685381097">
        <ele>52.321895</ele>
        <time>2019-09-10T15:22:15.100Z</time>
      </trkpt>
      <trkpt lat="10.1580785862625" lon="-75.6821706427406">
        <ele>52.321895</ele>
        <time>2019-09-10T15:22:15.200Z</time>
      </trkpt>
      <trkpt lat="10.1580803176241" lon="-75.6821727356044">
        <ele>52.321895</ele>
        <time>2019-09-10T15:22:15.300Z</time>
      </trkpt>
      <trkpt lat="10.1580820532588" lon="-75.6821748320889">
        <ele>52.321895</ele>
        <time>2019-09-10T15:22:15.400Z</time>
      </trkpt>
      <trkpt lat="10.1580838073145" lon="-75.6821769271809">
        <ele>52.321895</ele>
        <time>2019-09-10T15:22:15.500Z</time>
      </trkpt>
      <trkpt lat="10.1580855776024" lon="-75.6821790289571">
        <ele>52.321895</ele>
        <time>2019-09-10T15:22:15.600Z</time>
      </trkpt>
      <trkpt lat="10.1580873490108" lon="-75.6821811459817">
        <ele>52.421895</ele>
        <time>2019-09-10T15:22:15.700Z</time>
      </trkpt>
      <trkpt lat="10.1580891215656" lon="-75.6821832723364">
        <ele>52.421895</ele>
        <time>2019-09-10T15:22:15.800Z</time>
      </trkpt>
      <trkpt lat="10.1580926732671" lon="-75.6821875078478">
        <ele>52.421895</ele>
        <time>2019-09-10T15:22:16.000Z</time>
      </trkpt>
      <trkpt lat="10.1580944589276" lon="-75.6821896159601">
        <ele>52.421895</ele>
        <time>2019-09-10T15:22:16.100Z</time>
      </trkpt>
      <trkpt lat="10.1580962476104" lon="-75.6821917234458">
        <ele>52.421895</ele>
        <time>2019-09-10T15:22:16.200Z</time>
      </trkpt>
      <trkpt lat="10.1580980221194" lon="-75.6821938248738">
        <ele>52.421895</ele>
        <time>2019-09-10T15:22:16.300Z</time>
      </trkpt>
      <trkpt lat="10.1580997820635" lon="-75.6821959274159">
        <ele>52.321895</ele>
        <time>2019-09-10T15:22:16.400Z</time>
      </trkpt>
      <trkpt lat="10.1581015328883" lon="-75.6821980284262">
        <ele>52.321895</ele>
        <time>2019-09-10T15:22:16.500Z</time>
      </trkpt>
      <trkpt lat="10.1581032745417" lon="-75.6822001354941">
        <ele>52.421895</ele>
        <time>2019-09-10T15:22:16.600Z</time>
      </trkpt>
      <trkpt lat="10.1581049948039" lon="-75.6822022626843">
        <ele>52.421895</ele>
        <time>2019-09-10T15:22:16.700Z</time>
      </trkpt>
      <trkpt lat="10.1581067076143" lon="-75.6822044042875">
        <ele>52.421895</ele>
        <time>2019-09-10T15:22:16.800Z</time>
      </trkpt>
      <trkpt lat="10.1581083908261" lon="-75.6822065478402">
        <ele>52.421895</ele>
        <time>2019-09-10T15:22:16.900Z</time>
      </trkpt>
      <trkpt lat="10.1581100720578" lon="-75.682208685196">
        <ele>52.421895</ele>
        <time>2019-09-10T15:22:17.000Z</time>
      </trkpt>
      <trkpt lat="10.1581117602722" lon="-75.6822108318123">
        <ele>52.421895</ele>
        <time>2019-09-10T15:22:17.100Z</time>
      </trkpt>
      <trkpt lat="10.1581134683927" lon="-75.6822129799605">
        <ele>52.421895</ele>
        <time>2019-09-10T15:22:17.200Z</time>
      </trkpt>
      <trkpt lat="10.1581151956637" lon="-75.6822151411289">
        <ele>52.421895</ele>
        <time>2019-09-10T15:22:17.300Z</time>
      </trkpt>
      <trkpt lat="10.158116935832" lon="-75.6822172938725">
        <ele>52.421895</ele>
        <time>2019-09-10T15:22:17.400Z</time>
      </trkpt>
      <trkpt lat="10.1581186638065" lon="-75.682219419322">
        <ele>52.421895</ele>
        <time>2019-09-10T15:22:17.500Z</time>
      </trkpt>
      <trkpt lat="10.158120387065" lon="-75.682221529732">
        <ele>52.421895</ele>
        <time>2019-09-10T15:22:17.600Z</time>
      </trkpt>
      <trkpt lat="10.1581221083694" lon="-75.682223615842">
        <ele>52.421895</ele>
        <time>2019-09-10T15:22:17.700Z</time>
      </trkpt>
      <trkpt lat="10.1581238254528" lon="-75.6822257050156">
        <ele>52.421895</ele>
        <time>2019-09-10T15:22:17.800Z</time>
      </trkpt>
      <trkpt lat="10.1581255254963" lon="-75.6822277813081">
        <ele>52.421895</ele>
        <time>2019-09-10T15:22:17.900Z</time>
      </trkpt>
      <trkpt lat="10.1581272282494" lon="-75.6822298639368">
        <ele>52.421895</ele>
        <time>2019-09-10T15:22:18.000Z</time>
      </trkpt>
      <trkpt lat="10.1581289409296" lon="-75.6822319384886">
        <ele>52.421895</ele>
        <time>2019-09-10T15:22:18.100Z</time>
      </trkpt>
      <trkpt lat="10.1581306575961" lon="-75.6822340262697">
        <ele>52.421895</ele>
        <time>2019-09-10T15:22:18.200Z</time>
      </trkpt>
      <trkpt lat="10.1581323549298" lon="-75.6822361162788">
        <ele>52.421895</ele>
        <time>2019-09-10T15:22:18.300Z</time>
      </trkpt>
      <trkpt lat="10.1581340443167" lon="-75.6822382108834">
        <ele>52.421895</ele>
        <time>2019-09-10T15:22:18.400Z</time>
      </trkpt>
      <trkpt lat="10.1581357460277" lon="-75.6822402992214">
        <ele>52.421895</ele>
        <time>2019-09-10T15:22:18.500Z</time>
      </trkpt>
      <trkpt lat="10.1581374606098" lon="-75.6822423909713">
        <ele>52.421895</ele>
        <time>2019-09-10T15:22:18.600Z</time>
      </trkpt>
      <trkpt lat="10.1581391737069" lon="-75.6822444578641">
        <ele>52.421895</ele>
        <time>2019-09-10T15:22:18.700Z</time>
      </trkpt>
      <trkpt lat="10.1581408864131" lon="-75.6822465203704">
        <ele>52.421895</ele>
        <time>2019-09-10T15:22:18.800Z</time>
      </trkpt>
      <trkpt lat="10.1581425950547" lon="-75.682248586358">
        <ele>52.421895</ele>
        <time>2019-09-10T15:22:18.900Z</time>
      </trkpt>
      <trkpt lat="10.1581443047645" lon="-75.6822506678726">
        <ele>52.421895</ele>
        <time>2019-09-10T15:22:19.000Z</time>
      </trkpt>
      <trkpt lat="10.1581460051988" lon="-75.6822527570462">
        <ele>52.421895</ele>
        <time>2019-09-10T15:22:19.100Z</time>
      </trkpt>
      <trkpt lat="10.1581477115215" lon="-75.6822548552018">
        <ele>52.421895</ele>
        <time>2019-09-10T15:22:19.200Z</time>
      </trkpt>
      <trkpt lat="10.1581494295429" lon="-75.6822569617126">
        <ele>52.421895</ele>
        <time>2019-09-10T15:22:19.300Z</time>
      </trkpt>
      <trkpt lat="10.1581511640833" lon="-75.6822590694768">
        <ele>52.421895</ele>
        <time>2019-09-10T15:22:19.400Z</time>
      </trkpt>
      <trkpt lat="10.1581528844497" lon="-75.6822611525232">
        <ele>52.421895</ele>
        <time>2019-09-10T15:22:19.500Z</time>
      </trkpt>
      <trkpt lat="10.1581546023409" lon="-75.6822632256128">
        <ele>52.421895</ele>
        <time>2019-09-10T15:22:19.600Z</time>
      </trkpt>
      <trkpt lat="10.1581563263811" lon="-75.6822652968922">
        <ele>52.421895</ele>
        <time>2019-09-10T15:22:19.700Z</time>
      </trkpt>
      <trkpt lat="10.1581580613383" lon="-75.6822673817489">
        <ele>52.421895</ele>
        <time>2019-09-10T15:22:19.800Z</time>
      </trkpt>
      <trkpt lat="10.1581597938725" lon="-75.6822694744735">
        <ele>52.421895</ele>
        <time>2019-09-10T15:22:19.900Z</time>
      </trkpt>
      <trkpt lat="10.1581632471638" lon="-75.6822736282422">
        <ele>52.421895</ele>
        <time>2019-09-10T15:22:20.100Z</time>
      </trkpt>
      <trkpt lat="10.1581649632572" lon="-75.6822756688855">
        <ele>52.421895</ele>
        <time>2019-09-10T15:22:20.200Z</time>
      </trkpt>
      <trkpt lat="10.15816668193" lon="-75.6822777125227">
        <ele>52.421895</ele>
        <time>2019-09-10T15:22:20.300Z</time>
      </trkpt>
      <trkpt lat="10.1581684127445" lon="-75.6822797810169">
        <ele>52.421895</ele>
        <time>2019-09-10T15:22:20.400Z</time>
      </trkpt>
      <trkpt lat="10.1581701460864" lon="-75.6822818341235">
        <ele>52.421895</ele>
        <time>2019-09-10T15:22:20.500Z</time>
      </trkpt>
      <trkpt lat="10.1581718885475" lon="-75.682283891338">
        <ele>52.421895</ele>
        <time>2019-09-10T15:22:20.600Z</time>
      </trkpt>
      <trkpt lat="10.1581736329367" lon="-75.6822859562813">
        <ele>52.421895</ele>
        <time>2019-09-10T15:22:20.700Z</time>
      </trkpt>
      <trkpt lat="10.1581753828235" lon="-75.6822880372388">
        <ele>52.421895</ele>
        <time>2019-09-10T15:22:20.800Z</time>
      </trkpt>
      <trkpt lat="10.1581771308084" lon="-75.6822901041317">
        <ele>52.421895</ele>
        <time>2019-09-10T15:22:20.900Z</time>
      </trkpt>
      <trkpt lat="10.1581788824148" lon="-75.6822921692142">
        <ele>52.421895</ele>
        <time>2019-09-10T15:22:21.000Z</time>
      </trkpt>
      <trkpt lat="10.1581806307644" lon="-75.6822942427912">
        <ele>52.421895</ele>
        <time>2019-09-10T15:22:21.100Z</time>
      </trkpt>
      <trkpt lat="10.1581823795048" lon="-75.6822963277175">
        <ele>52.421895</ele>
        <time>2019-09-10T15:22:21.200Z</time>
      </trkpt>
      <trkpt lat="10.1581841166768" lon="-75.6822984037316">
        <ele>52.421895</ele>
        <time>2019-09-10T15:22:21.300Z</time>
      </trkpt>
      <trkpt lat="10.1581858505658" lon="-75.6823004809292">
        <ele>52.421895</ele>
        <time>2019-09-10T15:22:21.400Z</time>
      </trkpt>
      <trkpt lat="10.1581875682746" lon="-75.6823025677355">
        <ele>52.421895</ele>
        <time>2019-09-10T15:22:21.500Z</time>
      </trkpt>
      <trkpt lat="10.1581892883283" lon="-75.6823046677014">
        <ele>52.421895</ele>
        <time>2019-09-10T15:22:21.600Z</time>
      </trkpt>
      <trkpt lat="10.1581910086687" lon="-75.6823067749085">
        <ele>52.421895</ele>
        <time>2019-09-10T15:22:21.700Z</time>
      </trkpt>
      <trkpt lat="10.1581927361481" lon="-75.6823088862933">
        <ele>52.421895</ele>
        <time>2019-09-10T15:22:21.800Z</time>
      </trkpt>
      <trkpt lat="10.158194468109" lon="-75.6823109999758">
        <ele>52.421895</ele>
        <time>2019-09-10T15:22:21.900Z</time>
      </trkpt>
      <trkpt lat="10.1581962074175" lon="-75.6823131133102">
        <ele>52.421895</ele>
        <time>2019-09-10T15:22:22.000Z</time>
      </trkpt>
      <trkpt lat="10.1581979588155" lon="-75.6823151971225">
        <ele>52.421895</ele>
        <time>2019-09-10T15:22:22.100Z</time>
      </trkpt>
      <trkpt lat="10.1581997155288" lon="-75.6823172682626">
        <ele>52.421895</ele>
        <time>2019-09-10T15:22:22.200Z</time>
      </trkpt>
      <trkpt lat="10.1582014763067" lon="-75.6823193379405">
        <ele>52.421895</ele>
        <time>2019-09-10T15:22:22.300Z</time>
      </trkpt>
      <trkpt lat="10.1582032414878" lon="-75.6823214201513">
        <ele>52.421895</ele>
        <time>2019-09-10T15:22:22.400Z</time>
      </trkpt>
      <trkpt lat="10.1582050474453" lon="-75.6823235334161">
        <ele>52.421895</ele>
        <time>2019-09-10T15:22:22.500Z</time>
      </trkpt>
      <trkpt lat="10.1582068638508" lon="-75.6823256583782">
        <ele>52.421895</ele>
        <time>2019-09-10T15:22:22.600Z</time>
      </trkpt>
      <trkpt lat="10.1582086470882" lon="-75.6823277609899">
        <ele>52.421895</ele>
        <time>2019-09-10T15:22:22.700Z</time>
      </trkpt>
      <trkpt lat="10.1582104107842" lon="-75.6823298473785">
        <ele>52.421895</ele>
        <time>2019-09-10T15:22:22.800Z</time>
      </trkpt>
      <trkpt lat="10.1582121553297" lon="-75.6823319048019">
        <ele>52.421895</ele>
        <time>2019-09-10T15:22:22.900Z</time>
      </trkpt>
      <trkpt lat="10.1582139039399" lon="-75.6823339596492">
        <ele>52.421895</ele>
        <time>2019-09-10T15:22:23.000Z</time>
      </trkpt>
      <trkpt lat="10.1582156241239" lon="-75.6823360154712">
        <ele>52.421895</ele>
        <time>2019-09-10T15:22:23.100Z</time>
      </trkpt>
      <trkpt lat="10.1582173448551" lon="-75.6823380914156">
        <ele>52.421895</ele>
        <time>2019-09-10T15:22:23.200Z</time>
      </trkpt>
      <trkpt lat="10.1582190553466" lon="-75.6823402001545">
        <ele>52.421895</ele>
        <time>2019-09-10T15:22:23.300Z</time>
      </trkpt>
      <trkpt lat="10.1582207826958" lon="-75.6823423301995">
        <ele>52.421895</ele>
        <time>2019-09-10T15:22:23.400Z</time>
      </trkpt>
      <trkpt lat="10.158222514318" lon="-75.6823444880955">
        <ele>52.421895</ele>
        <time>2019-09-10T15:22:23.500Z</time>
      </trkpt>
      <trkpt lat="10.1582242475816" lon="-75.6823466377754">
        <ele>52.421895</ele>
        <time>2019-09-10T15:22:23.600Z</time>
      </trkpt>
      <trkpt lat="10.1582259653165" lon="-75.6823487858539">
        <ele>52.421895</ele>
        <time>2019-09-10T15:22:23.700Z</time>
      </trkpt>
      <trkpt lat="10.1582276642916" lon="-75.682350922792">
        <ele>52.421895</ele>
        <time>2019-09-10T15:22:23.800Z</time>
      </trkpt>
      <trkpt lat="10.1582310063277" lon="-75.6823551673549">
        <ele>52.421895</ele>
        <time>2019-09-10T15:22:24.000Z</time>
      </trkpt>
      <trkpt lat="10.1582326505611" lon="-75.6823572345263">
        <ele>52.421895</ele>
        <time>2019-09-10T15:22:24.100Z</time>
      </trkpt>
      <trkpt lat="10.1582342997189" lon="-75.6823592888165">
        <ele>52.421895</ele>
        <time>2019-09-10T15:22:24.200Z</time>
      </trkpt>
      <trkpt lat="10.1582359731861" lon="-75.6823613340551">
        <ele>52.421895</ele>
        <time>2019-09-10T15:22:24.300Z</time>
      </trkpt>
      <trkpt lat="10.1582376707543" lon="-75.6823633942637">
        <ele>52.421895</ele>
        <time>2019-09-10T15:22:24.400Z</time>
      </trkpt>
      <trkpt lat="10.1582393311679" lon="-75.6823654145061">
        <ele>52.421895</ele>
        <time>2019-09-10T15:22:24.500Z</time>
      </trkpt>
      <trkpt lat="10.1582409791793" lon="-75.6823674294568">
        <ele>52.421895</ele>
        <time>2019-09-10T15:22:24.600Z</time>
      </trkpt>
      <trkpt lat="10.1582426694781" lon="-75.6823694774805">
        <ele>52.421895</ele>
        <time>2019-09-10T15:22:24.700Z</time>
      </trkpt>
      <trkpt lat="10.1582443958111" lon="-75.6823715670719">
        <ele>52.421895</ele>
        <time>2019-09-10T15:22:24.800Z</time>
      </trkpt>
      <trkpt lat="10.1582461251144" lon="-75.6823736817292">
        <ele>52.421895</ele>
        <time>2019-09-10T15:22:24.900Z</time>
      </trkpt>
      <trkpt lat="10.1582478437612" lon="-75.6823757995197">
        <ele>52.421895</ele>
        <time>2019-09-10T15:22:25.000Z</time>
      </trkpt>
      <trkpt lat="10.158249580881" lon="-75.6823779639606">
        <ele>52.421895</ele>
        <time>2019-09-10T15:22:25.100Z</time>
      </trkpt>
      <trkpt lat="10.1582513250618" lon="-75.6823801251987">
        <ele>52.421895</ele>
        <time>2019-09-10T15:22:25.200Z</time>
      </trkpt>
      <trkpt lat="10.1582530696334" lon="-75.6823822592125">
        <ele>52.321895</ele>
        <time>2019-09-10T15:22:25.300Z</time>
      </trkpt>
      <trkpt lat="10.1582548145177" lon="-75.682384371015">
        <ele>52.321895</ele>
        <time>2019-09-10T15:22:25.400Z</time>
      </trkpt>
      <trkpt lat="10.1582565694071" lon="-75.6823864454276">
        <ele>52.321895</ele>
        <time>2019-09-10T15:22:25.500Z</time>
      </trkpt>
      <trkpt lat="10.1582583310448" lon="-75.6823885148966">
        <ele>52.321895</ele>
        <time>2019-09-10T15:22:25.600Z</time>
      </trkpt>
      <trkpt lat="10.1582600955485" lon="-75.6823905999622">
        <ele>52.321895</ele>
        <time>2019-09-10T15:22:25.700Z</time>
      </trkpt>
      <trkpt lat="10.1582618645338" lon="-75.6823927079353">
        <ele>52.321895</ele>
        <time>2019-09-10T15:22:25.800Z</time>
      </trkpt>
      <trkpt lat="10.1582636508717" lon="-75.6823947943934">
        <ele>52.421895</ele>
        <time>2019-09-10T15:22:25.900Z</time>
      </trkpt>
      <trkpt lat="10.1582654410658" lon="-75.6823968795983">
        <ele>52.421895</ele>
        <time>2019-09-10T15:22:26.000Z</time>
      </trkpt>
      <trkpt lat="10.1582672146627" lon="-75.6823989908438">
        <ele>52.421895</ele>
        <time>2019-09-10T15:22:26.100Z</time>
      </trkpt>
      <trkpt lat="10.1582689764568" lon="-75.6824011213761">
        <ele>52.421895</ele>
        <time>2019-09-10T15:22:26.200Z</time>
      </trkpt>
      <trkpt lat="10.1582707357755" lon="-75.682403248079">
        <ele>52.421895</ele>
        <time>2019-09-10T15:22:26.300Z</time>
      </trkpt>
      <trkpt lat="10.1582724952246" lon="-75.682405369142">
        <ele>52.421895</ele>
        <time>2019-09-10T15:22:26.400Z</time>
      </trkpt>
      <trkpt lat="10.1582742353147" lon="-75.682407481432">
        <ele>52.421895</ele>
        <time>2019-09-10T15:22:26.500Z</time>
      </trkpt>
      <trkpt lat="10.1582759676144" lon="-75.6824095917027">
        <ele>52.421895</ele>
        <time>2019-09-10T15:22:26.600Z</time>
      </trkpt>
      <trkpt lat="10.1582776873294" lon="-75.6824116896494">
        <ele>52.421895</ele>
        <time>2019-09-10T15:22:26.700Z</time>
      </trkpt>
      <trkpt lat="10.1582794135842" lon="-75.6824137891279">
        <ele>52.421895</ele>
        <time>2019-09-10T15:22:26.800Z</time>
      </trkpt>
      <trkpt lat="10.1582811663632" lon="-75.682415879137">
        <ele>52.421895</ele>
        <time>2019-09-10T15:22:26.900Z</time>
      </trkpt>
      <trkpt lat="10.1582829341759" lon="-75.6824179755519">
        <ele>52.421895</ele>
        <time>2019-09-10T15:22:27.000Z</time>
      </trkpt>
      <trkpt lat="10.1582847017281" lon="-75.6824200689032">
        <ele>52.421895</ele>
        <time>2019-09-10T15:22:27.100Z</time>
      </trkpt>
      <trkpt lat="10.1582882169004" lon="-75.6824242913246">
        <ele>52.421895</ele>
        <time>2019-09-10T15:22:27.300Z</time>
      </trkpt>
      <trkpt lat="10.1582899668002" lon="-75.6824264226925">
        <ele>52.421895</ele>
        <time>2019-09-10T15:22:27.400Z</time>
      </trkpt>
      <trkpt lat="10.1582934469935" lon="-75.6824306752626">
        <ele>52.421895</ele>
        <time>2019-09-10T15:22:27.600Z</time>
      </trkpt>
      <trkpt lat="10.1582952012576" lon="-75.682432843742">
        <ele>52.421895</ele>
        <time>2019-09-10T15:22:27.700Z</time>
      </trkpt>
      <trkpt lat="10.1582969607197" lon="-75.6824350196715">
        <ele>52.421895</ele>
        <time>2019-09-10T15:22:27.800Z</time>
      </trkpt>
      <trkpt lat="10.158298692407" lon="-75.6824371552866">
        <ele>52.421895</ele>
        <time>2019-09-10T15:22:27.900Z</time>
      </trkpt>
      <trkpt lat="10.1583021333483" lon="-75.6824413813984">
        <ele>52.421895</ele>
        <time>2019-09-10T15:22:28.100Z</time>
      </trkpt>
      <trkpt lat="10.1583038646839" lon="-75.682443505525">
        <ele>52.421895</ele>
        <time>2019-09-10T15:22:28.200Z</time>
      </trkpt>
      <trkpt lat="10.1583055961628" lon="-75.6824456376588">
        <ele>52.421895</ele>
        <time>2019-09-10T15:22:28.300Z</time>
      </trkpt>
      <trkpt lat="10.1583073349371" lon="-75.6824477695141">
        <ele>52.421895</ele>
        <time>2019-09-10T15:22:28.400Z</time>
      </trkpt>
      <trkpt lat="10.1583090679793" lon="-75.6824498892541">
        <ele>52.421895</ele>
        <time>2019-09-10T15:22:28.500Z</time>
      </trkpt>
      <trkpt lat="10.1583108064801" lon="-75.6824520004997">
        <ele>52.421895</ele>
        <time>2019-09-10T15:22:28.600Z</time>
      </trkpt>
      <trkpt lat="10.1583125405124" lon="-75.6824541246263">
        <ele>52.421895</ele>
        <time>2019-09-10T15:22:28.700Z</time>
      </trkpt>
      <trkpt lat="10.1583142753654" lon="-75.6824562552283">
        <ele>52.421895</ele>
        <time>2019-09-10T15:22:28.800Z</time>
      </trkpt>
      <trkpt lat="10.1583159867038" lon="-75.6824583514343">
        <ele>52.421895</ele>
        <time>2019-09-10T15:22:28.900Z</time>
      </trkpt>
      <trkpt lat="10.1583176957232" lon="-75.6824604330185">
        <ele>52.421895</ele>
        <time>2019-09-10T15:22:29.000Z</time>
      </trkpt>
      <trkpt lat="10.1583193779709" lon="-75.6824625258824">
        <ele>52.421895</ele>
        <time>2019-09-10T15:22:29.100Z</time>
      </trkpt>
      <trkpt lat="10.1583210701848" lon="-75.6824646354568">
        <ele>52.421895</ele>
        <time>2019-09-10T15:22:29.200Z</time>
      </trkpt>
      <trkpt lat="10.1583227667499" lon="-75.682466763413">
        <ele>52.421895</ele>
        <time>2019-09-10T15:22:29.300Z</time>
      </trkpt>
      <trkpt lat="10.1583244842242" lon="-75.6824688959645">
        <ele>52.421895</ele>
        <time>2019-09-10T15:22:29.400Z</time>
      </trkpt>
      <trkpt lat="10.1583262312189" lon="-75.6824710544175">
        <ele>52.421895</ele>
        <time>2019-09-10T15:22:29.500Z</time>
      </trkpt>
      <trkpt lat="10.158327993052" lon="-75.6824732078573">
        <ele>52.421895</ele>
        <time>2019-09-10T15:22:29.600Z</time>
      </trkpt>
      <trkpt lat="10.158329786529" lon="-75.6824753525241">
        <ele>52.421895</ele>
        <time>2019-09-10T15:22:29.700Z</time>
      </trkpt>
      <trkpt lat="10.15833157714" lon="-75.6824774797839">
        <ele>52.421895</ele>
        <time>2019-09-10T15:22:29.800Z</time>
      </trkpt>
      <trkpt lat="10.1583333656535" lon="-75.6824796213871">
        <ele>52.421895</ele>
        <time>2019-09-10T15:22:29.900Z</time>
      </trkpt>
      <trkpt lat="10.1583351386382" lon="-75.6824817613192">
        <ele>52.421895</ele>
        <time>2019-09-10T15:22:30.000Z</time>
      </trkpt>
      <trkpt lat="10.1583368832228" lon="-75.6824838617028">
        <ele>52.421895</ele>
        <time>2019-09-10T15:22:30.100Z</time>
      </trkpt>
      <trkpt lat="10.1583386161738" lon="-75.6824859460721">
        <ele>52.421895</ele>
        <time>2019-09-10T15:22:30.200Z</time>
      </trkpt>
      <trkpt lat="10.1583403560164" lon="-75.6824880724964">
        <ele>52.421895</ele>
        <time>2019-09-10T15:22:30.300Z</time>
      </trkpt>
      <trkpt lat="10.1583421046396" lon="-75.6824902200875">
        <ele>52.421895</ele>
        <time>2019-09-10T15:22:30.400Z</time>
      </trkpt>
      <trkpt lat="10.1583438216319" lon="-75.6824923323079">
        <ele>52.421895</ele>
        <time>2019-09-10T15:22:30.500Z</time>
      </trkpt>
      <trkpt lat="10.1583455307294" lon="-75.6824944229436">
        <ele>52.421895</ele>
        <time>2019-09-10T15:22:30.600Z</time>
      </trkpt>
      <trkpt lat="10.1583472545221" lon="-75.6824964990969">
        <ele>52.421895</ele>
        <time>2019-09-10T15:22:30.700Z</time>
      </trkpt>
      <trkpt lat="10.1583489923715" lon="-75.6824985865298">
        <ele>52.421895</ele>
        <time>2019-09-10T15:22:30.800Z</time>
      </trkpt>
      <trkpt lat="10.1583507299342" lon="-75.6825006657467">
        <ele>52.421895</ele>
        <time>2019-09-10T15:22:30.900Z</time>
      </trkpt>
      <trkpt lat="10.1583524672755" lon="-75.6825027515086">
        <ele>52.421895</ele>
        <time>2019-09-10T15:22:31.000Z</time>
      </trkpt>
      <trkpt lat="10.1583541870687" lon="-75.6825048088624">
        <ele>52.421895</ele>
        <time>2019-09-10T15:22:31.100Z</time>
      </trkpt>
      <trkpt lat="10.1583558996577" lon="-75.6825068648237">
        <ele>52.421895</ele>
        <time>2019-09-10T15:22:31.200Z</time>
      </trkpt>
      <trkpt lat="10.158357592562" lon="-75.6825089010108">
        <ele>52.421895</ele>
        <time>2019-09-10T15:22:31.300Z</time>
      </trkpt>
      <trkpt lat="10.1583592901823" lon="-75.6825109470849">
        <ele>52.421895</ele>
        <time>2019-09-10T15:22:31.400Z</time>
      </trkpt>
      <trkpt lat="10.1583609955019" lon="-75.6825129758915">
        <ele>52.421895</ele>
        <time>2019-09-10T15:22:31.500Z</time>
      </trkpt>
      <trkpt lat="10.1583627160767" lon="-75.6825150212694">
        <ele>52.421895</ele>
        <time>2019-09-10T15:22:31.600Z</time>
      </trkpt>
      <trkpt lat="10.1583644440121" lon="-75.682517078484">
        <ele>52.421895</ele>
        <time>2019-09-10T15:22:31.700Z</time>
      </trkpt>
      <trkpt lat="10.1583679278531" lon="-75.6825212529321">
        <ele>52.421895</ele>
        <time>2019-09-10T15:22:31.900Z</time>
      </trkpt>
      <trkpt lat="10.1583696729849" lon="-75.6825233576326">
        <ele>52.421895</ele>
        <time>2019-09-10T15:22:32.000Z</time>
      </trkpt>
      <trkpt lat="10.1583713943544" lon="-75.6825254503572">
        <ele>52.421895</ele>
        <time>2019-09-10T15:22:32.100Z</time>
      </trkpt>
      <trkpt lat="10.1583731076469" lon="-75.6825275373724">
        <ele>52.421895</ele>
        <time>2019-09-10T15:22:32.200Z</time>
      </trkpt>
      <trkpt lat="10.1583748226459" lon="-75.6825296256409">
        <ele>52.421895</ele>
        <time>2019-09-10T15:22:32.300Z</time>
      </trkpt>
      <trkpt lat="10.158376547142" lon="-75.6825317217076">
        <ele>52.421895</ele>
        <time>2019-09-10T15:22:32.400Z</time>
      </trkpt>
      <trkpt lat="10.1583783000904" lon="-75.6825338449291">
        <ele>52.421895</ele>
        <time>2019-09-10T15:22:32.500Z</time>
      </trkpt>
      <trkpt lat="10.1583800636561" lon="-75.6825359769236">
        <ele>52.421895</ele>
        <time>2019-09-10T15:22:32.600Z</time>
      </trkpt>
      <trkpt lat="10.1583818282511" lon="-75.68253811045">
        <ele>52.421895</ele>
        <time>2019-09-10T15:22:32.700Z</time>
      </trkpt>
      <trkpt lat="10.1583835823067" lon="-75.6825402363173">
        <ele>52.421895</ele>
        <time>2019-09-10T15:22:32.800Z</time>
      </trkpt>
      <trkpt lat="10.1583853582747" lon="-75.6825424127342">
        <ele>52.421895</ele>
        <time>2019-09-10T15:22:32.900Z</time>
      </trkpt>
      <trkpt lat="10.1583871351286" lon="-75.6825445923539">
        <ele>52.421895</ele>
        <time>2019-09-10T15:22:33.000Z</time>
      </trkpt>
      <trkpt lat="10.1583888691088" lon="-75.6825467101444">
        <ele>52.421895</ele>
        <time>2019-09-10T15:22:33.100Z</time>
      </trkpt>
      <trkpt lat="10.1583905783497" lon="-75.6825487942352">
        <ele>52.421895</ele>
        <time>2019-09-10T15:22:33.200Z</time>
      </trkpt>
      <trkpt lat="10.1583922772206" lon="-75.6825508627295">
        <ele>52.421895</ele>
        <time>2019-09-10T15:22:33.300Z</time>
      </trkpt>
      <trkpt lat="10.1583939949294" lon="-75.6825529464025">
        <ele>52.421895</ele>
        <time>2019-09-10T15:22:33.400Z</time>
      </trkpt>
      <trkpt lat="10.1583957376511" lon="-75.6825550675351">
        <ele>52.421895</ele>
        <time>2019-09-10T15:22:33.500Z</time>
      </trkpt>
      <trkpt lat="10.1583974949766" lon="-75.6825572119234">
        <ele>52.421895</ele>
        <time>2019-09-10T15:22:33.600Z</time>
      </trkpt>
      <trkpt lat="10.1583992230163" lon="-75.6825593522732">
        <ele>52.421895</ele>
        <time>2019-09-10T15:22:33.700Z</time>
      </trkpt>
      <trkpt lat="10.1584009398587" lon="-75.6825614814827">
        <ele>52.421895</ele>
        <time>2019-09-10T15:22:33.800Z</time>
      </trkpt>
      <trkpt lat="10.1584026527538" lon="-75.6825635974629">
        <ele>52.421895</ele>
        <time>2019-09-10T15:22:33.900Z</time>
      </trkpt>
      <trkpt lat="10.1584043746835" lon="-75.6825657064803">
        <ele>52.421895</ele>
        <time>2019-09-10T15:22:34.000Z</time>
      </trkpt>
      <trkpt lat="10.1584060733591" lon="-75.6825677784559">
        <ele>52.421895</ele>
        <time>2019-09-10T15:22:34.100Z</time>
      </trkpt>
      <trkpt lat="10.158407770087" lon="-75.6825698469502">
        <ele>52.421895</ele>
        <time>2019-09-10T15:22:34.200Z</time>
      </trkpt>
      <trkpt lat="10.1584094481073" lon="-75.6825718820232">
        <ele>52.421895</ele>
        <time>2019-09-10T15:22:34.300Z</time>
      </trkpt>
      <trkpt lat="10.1584111351558" lon="-75.6825739279581">
        <ele>52.421895</ele>
        <time>2019-09-10T15:22:34.400Z</time>
      </trkpt>
      <trkpt lat="10.158412801562" lon="-75.6825759772352">
        <ele>52.421895</ele>
        <time>2019-09-10T15:22:34.500Z</time>
      </trkpt>
      <trkpt lat="10.1584144706976" lon="-75.6825780543632">
        <ele>52.421895</ele>
        <time>2019-09-10T15:22:34.600Z</time>
      </trkpt>
      <trkpt lat="10.1584161261803" lon="-75.6825801372007">
        <ele>52.421895</ele>
        <time>2019-09-10T15:22:34.700Z</time>
      </trkpt>
      <trkpt lat="10.1584177934138" lon="-75.6825822338245">
        <ele>52.421895</ele>
        <time>2019-09-10T15:22:34.800Z</time>
      </trkpt>
      <trkpt lat="10.1584194620478" lon="-75.6825843318408">
        <ele>52.421895</ele>
        <time>2019-09-10T15:22:34.900Z</time>
      </trkpt>
      <trkpt lat="10.1584211486859" lon="-75.6825864320852">
        <ele>52.421895</ele>
        <time>2019-09-10T15:22:35.000Z</time>
      </trkpt>
      <trkpt lat="10.1584228634635" lon="-75.6825885546104">
        <ele>52.421895</ele>
        <time>2019-09-10T15:22:35.100Z</time>
      </trkpt>
      <trkpt lat="10.1584245947469" lon="-75.6825906821488">
        <ele>52.421895</ele>
        <time>2019-09-10T15:22:35.200Z</time>
      </trkpt>
      <trkpt lat="10.1584263507372" lon="-75.6825928114974">
        <ele>52.421895</ele>
        <time>2019-09-10T15:22:35.300Z</time>
      </trkpt>
      <trkpt lat="10.1584281042587" lon="-75.6825949301235">
        <ele>52.421895</ele>
        <time>2019-09-10T15:22:35.400Z</time>
      </trkpt>
      <trkpt lat="10.158429865727" lon="-75.682597076322">
        <ele>52.421895</ele>
        <time>2019-09-10T15:22:35.500Z</time>
      </trkpt>
      <trkpt lat="10.158431619001" lon="-75.6825992214065">
        <ele>52.421895</ele>
        <time>2019-09-10T15:22:35.600Z</time>
      </trkpt>
      <trkpt lat="10.1584333546553" lon="-75.6826013318166">
        <ele>52.421895</ele>
        <time>2019-09-10T15:22:35.700Z</time>
      </trkpt>
      <trkpt lat="10.1584368035499" lon="-75.6826055100245">
        <ele>52.421895</ele>
        <time>2019-09-10T15:22:35.900Z</time>
      </trkpt>
      <trkpt lat="10.158438534436" lon="-75.6826076038632">
        <ele>52.421895</ele>
        <time>2019-09-10T15:22:36.000Z</time>
      </trkpt>
      <trkpt lat="10.158440272585" lon="-75.6826096684583">
        <ele>52.421895</ele>
        <time>2019-09-10T15:22:36.100Z</time>
      </trkpt>
      <trkpt lat="10.1584420166876" lon="-75.6826117354207">
        <ele>52.421895</ele>
        <time>2019-09-10T15:22:36.200Z</time>
      </trkpt>
      <trkpt lat="10.1584437650502" lon="-75.6826137993196">
        <ele>52.421895</ele>
        <time>2019-09-10T15:22:36.300Z</time>
      </trkpt>
      <trkpt lat="10.1584455147807" lon="-75.6826158831318">
        <ele>52.421895</ele>
        <time>2019-09-10T15:22:36.400Z</time>
      </trkpt>
      <trkpt lat="10.1584472654492" lon="-75.6826179677797">
        <ele>52.421895</ele>
        <time>2019-09-10T15:22:36.500Z</time>
      </trkpt>
      <trkpt lat="10.1584490206578" lon="-75.6826200635679">
        <ele>52.421895</ele>
        <time>2019-09-10T15:22:36.600Z</time>
      </trkpt>
      <trkpt lat="10.158450775684" lon="-75.6826221600524">
        <ele>52.421895</ele>
        <time>2019-09-10T15:22:36.700Z</time>
      </trkpt>
      <trkpt lat="10.1584525332441" lon="-75.6826242639174">
        <ele>52.421895</ele>
        <time>2019-09-10T15:22:36.800Z</time>
      </trkpt>
      <trkpt lat="10.1584542799359" lon="-75.6826263420203">
        <ele>52.421895</ele>
        <time>2019-09-10T15:22:36.900Z</time>
      </trkpt>
      <trkpt lat="10.1584560287284" lon="-75.682628416781">
        <ele>52.421895</ele>
        <time>2019-09-10T15:22:37.000Z</time>
      </trkpt>
      <trkpt lat="10.1584577950039" lon="-75.6826304852752">
        <ele>52.421895</ele>
        <time>2019-09-10T15:22:37.100Z</time>
      </trkpt>
      <trkpt lat="10.1584595711967" lon="-75.6826325640743">
        <ele>52.421895</ele>
        <time>2019-09-10T15:22:37.200Z</time>
      </trkpt>
      <trkpt lat="10.158463095993" lon="-75.6826367323952">
        <ele>52.421895</ele>
        <time>2019-09-10T15:22:37.400Z</time>
      </trkpt>
      <trkpt lat="10.1584648546799" lon="-75.6826388020035">
        <ele>52.421895</ele>
        <time>2019-09-10T15:22:37.500Z</time>
      </trkpt>
      <trkpt lat="10.1584666166368" lon="-75.6826408727258">
        <ele>52.421895</ele>
        <time>2019-09-10T15:22:37.600Z</time>
      </trkpt>
      <trkpt lat="10.1584683656345" lon="-75.6826429465117">
        <ele>52.421895</ele>
        <time>2019-09-10T15:22:37.700Z</time>
      </trkpt>
      <trkpt lat="10.1584701051123" lon="-75.6826450351979">
        <ele>52.421895</ele>
        <time>2019-09-10T15:22:37.800Z</time>
      </trkpt>
      <trkpt lat="10.1584718295368" lon="-75.682647127644">
        <ele>52.421895</ele>
        <time>2019-09-10T15:22:37.900Z</time>
      </trkpt>
      <trkpt lat="10.1584735588857" lon="-75.6826492253818">
        <ele>52.421895</ele>
        <time>2019-09-10T15:22:38.000Z</time>
      </trkpt>
      <trkpt lat="10.1584753122411" lon="-75.6826513281328">
        <ele>52.421895</ele>
        <time>2019-09-10T15:22:38.100Z</time>
      </trkpt>
      <trkpt lat="10.1584770693811" lon="-75.6826534345044">
        <ele>52.421895</ele>
        <time>2019-09-10T15:22:38.200Z</time>
      </trkpt>
      <trkpt lat="10.158478796131" lon="-75.6826555192915">
        <ele>52.421895</ele>
        <time>2019-09-10T15:22:38.300Z</time>
      </trkpt>
      <trkpt lat="10.1584805106529" lon="-75.6826576035216">
        <ele>52.421895</ele>
        <time>2019-09-10T15:22:38.400Z</time>
      </trkpt>
      <trkpt lat="10.1584822232858" lon="-75.6826596643568">
        <ele>52.421895</ele>
        <time>2019-09-10T15:22:38.500Z</time>
      </trkpt>
      <trkpt lat="10.1584839438509" lon="-75.6826617324332">
        <ele>52.421895</ele>
        <time>2019-09-10T15:22:38.600Z</time>
      </trkpt>
      <trkpt lat="10.1584856727845" lon="-75.6826637989779">
        <ele>52.421895</ele>
        <time>2019-09-10T15:22:38.700Z</time>
      </trkpt>
      <trkpt lat="10.1584874048187" lon="-75.6826658793088">
        <ele>52.421895</ele>
        <time>2019-09-10T15:22:38.800Z</time>
      </trkpt>
      <trkpt lat="10.1584890811129" lon="-75.6826679019882">
        <ele>52.421895</ele>
        <time>2019-09-10T15:22:38.900Z</time>
      </trkpt>
      <trkpt lat="10.1584907298815" lon="-75.6826698033764">
        <ele>52.421895</ele>
        <time>2019-09-10T15:22:39.000Z</time>
      </trkpt>
      <trkpt lat="10.1584923663424" lon="-75.6826714412941">
        <ele>52.421895</ele>
        <time>2019-09-10T15:22:39.100Z</time>
      </trkpt>
      <trkpt lat="10.1584940123434" lon="-75.6826728264639">
        <ele>52.421895</ele>
        <time>2019-09-10T15:22:39.200Z</time>
      </trkpt>
      <trkpt lat="10.1584956958166" lon="-75.6826738846628">
        <ele>52.421895</ele>
        <time>2019-09-10T15:22:39.300Z</time>
      </trkpt>
      <trkpt lat="10.1584974028998" lon="-75.6826746728463">
        <ele>52.421895</ele>
        <time>2019-09-10T15:22:39.400Z</time>
      </trkpt>
      <trkpt lat="10.1585009804472" lon="-75.6826751865581">
        <ele>52.421895</ele>
        <time>2019-09-10T15:22:39.600Z</time>
      </trkpt>
      <trkpt lat="10.158502866969" lon="-75.6826749306074">
        <ele>52.421895</ele>
        <time>2019-09-10T15:22:39.700Z</time>
      </trkpt>
      <trkpt lat="10.1585047654463" lon="-75.6826744107684">
        <ele>52.421895</ele>
        <time>2019-09-10T15:22:39.800Z</time>
      </trkpt>
      <trkpt lat="10.1585067344651" lon="-75.6826735586668">
        <ele>52.421895</ele>
        <time>2019-09-10T15:22:39.900Z</time>
      </trkpt>
      <trkpt lat="10.1585087080515" lon="-75.682672443234">
        <ele>52.421895</ele>
        <time>2019-09-10T15:22:40.000Z</time>
      </trkpt>
      <trkpt lat="10.1585107731696" lon="-75.6826710045903">
        <ele>52.421895</ele>
        <time>2019-09-10T15:22:40.100Z</time>
      </trkpt>
      <trkpt lat="10.1585128332555" lon="-75.6826693066537">
        <ele>52.421895</ele>
        <time>2019-09-10T15:22:40.200Z</time>
      </trkpt>
      <trkpt lat="10.158514971994" lon="-75.6826673976065">
        <ele>52.421895</ele>
        <time>2019-09-10T15:22:40.300Z</time>
      </trkpt>
      <trkpt lat="10.1585170728195" lon="-75.682665363369">
        <ele>52.421895</ele>
        <time>2019-09-10T15:22:40.400Z</time>
      </trkpt>
      <trkpt lat="10.1585213253528" lon="-75.6826610591352">
        <ele>52.421895</ele>
        <time>2019-09-10T15:22:40.600Z</time>
      </trkpt>
      <trkpt lat="10.1585235242977" lon="-75.6826588342575">
        <ele>52.421895</ele>
        <time>2019-09-10T15:22:40.700Z</time>
      </trkpt>
      <trkpt lat="10.1585256579388" lon="-75.6826565506143">
        <ele>52.421895</ele>
        <time>2019-09-10T15:22:40.800Z</time>
      </trkpt>
      <trkpt lat="10.1585277689103" lon="-75.682654328104">
        <ele>52.421895</ele>
        <time>2019-09-10T15:22:40.900Z</time>
      </trkpt>
      <trkpt lat="10.1585298048789" lon="-75.6826520884653">
        <ele>52.421895</ele>
        <time>2019-09-10T15:22:41.000Z</time>
      </trkpt>
      <trkpt lat="10.1585317966304" lon="-75.6826499191504">
        <ele>52.421895</ele>
        <time>2019-09-10T15:22:41.100Z</time>
      </trkpt>
      <trkpt lat="10.1585337463745" lon="-75.6826477235163">
        <ele>52.421895</ele>
        <time>2019-09-10T15:22:41.200Z</time>
      </trkpt>
      <trkpt lat="10.1585356975403" lon="-75.6826455959779">
        <ele>52.421895</ele>
        <time>2019-09-10T15:22:41.300Z</time>
      </trkpt>
      <trkpt lat="10.1585376504355" lon="-75.6826434237387">
        <ele>52.421895</ele>
        <time>2019-09-10T15:22:41.400Z</time>
      </trkpt>
      <trkpt lat="10.1585396020833" lon="-75.6826412906301">
        <ele>52.421895</ele>
        <time>2019-09-10T15:22:41.500Z</time>
      </trkpt>
      <trkpt lat="10.1585415529331" lon="-75.6826391165806">
        <ele>52.421895</ele>
        <time>2019-09-10T15:22:41.600Z</time>
      </trkpt>
      <trkpt lat="10.1585434766726" lon="-75.6826369947517">
        <ele>52.421895</ele>
        <time>2019-09-10T15:22:41.700Z</time>
      </trkpt>
      <trkpt lat="10.158545396201" lon="-75.6826348577439">
        <ele>52.421895</ele>
        <time>2019-09-10T15:22:41.800Z</time>
      </trkpt>
      <trkpt lat="10.1585472862708" lon="-75.6826327346617">
        <ele>52.421895</ele>
        <time>2019-09-10T15:22:41.900Z</time>
      </trkpt>
      <trkpt lat="10.1585491887917" lon="-75.6826305920838">
        <ele>52.421895</ele>
        <time>2019-09-10T15:22:42.000Z</time>
      </trkpt>
      <trkpt lat="10.1585510665505" lon="-75.6826284903076">
        <ele>52.421895</ele>
        <time>2019-09-10T15:22:42.100Z</time>
      </trkpt>
      <trkpt lat="10.1585529621146" lon="-75.6826263992541">
        <ele>52.421895</ele>
        <time>2019-09-10T15:22:42.200Z</time>
      </trkpt>
      <trkpt lat="10.158554814385" lon="-75.682624306808">
        <ele>52.421895</ele>
        <time>2019-09-10T15:22:42.300Z</time>
      </trkpt>
      <trkpt lat="10.1585566826044" lon="-75.6826222072598">
        <ele>52.421895</ele>
        <time>2019-09-10T15:22:42.400Z</time>
      </trkpt>
      <trkpt lat="10.15855855368" lon="-75.6826201043696">
        <ele>52.421895</ele>
        <time>2019-09-10T15:22:42.500Z</time>
      </trkpt>
      <trkpt lat="10.15856046774" lon="-75.6826180148479">
        <ele>52.421895</ele>
        <time>2019-09-10T15:22:42.600Z</time>
      </trkpt>
      <trkpt lat="10.1585623647959" lon="-75.6826159311748">
        <ele>52.421895</ele>
        <time>2019-09-10T15:22:42.700Z</time>
      </trkpt>
      <trkpt lat="10.158564283155" lon="-75.6826138639339">
        <ele>52.421895</ele>
        <time>2019-09-10T15:22:42.800Z</time>
      </trkpt>
      <trkpt lat="10.1585661590899" lon="-75.6826117922368">
        <ele>52.421895</ele>
        <time>2019-09-10T15:22:42.900Z</time>
      </trkpt>
      <trkpt lat="10.1585680563314" lon="-75.6826097386428">
        <ele>52.421895</ele>
        <time>2019-09-10T15:22:43.000Z</time>
      </trkpt>
      <trkpt lat="10.1585699341488" lon="-75.6826077006454">
        <ele>52.421895</ele>
        <time>2019-09-10T15:22:43.100Z</time>
      </trkpt>
      <trkpt lat="10.1585718526773" lon="-75.6826056877139">
        <ele>52.421895</ele>
        <time>2019-09-10T15:22:43.200Z</time>
      </trkpt>
      <trkpt lat="10.1585757348683" lon="-75.6826016229988">
        <ele>52.421895</ele>
        <time>2019-09-10T15:22:43.400Z</time>
      </trkpt>
      <trkpt lat="10.1585795671376" lon="-75.6825977459995">
        <ele>52.421895</ele>
        <time>2019-09-10T15:22:43.600Z</time>
      </trkpt>
      <trkpt lat="10.1585814530582" lon="-75.6825958344457">
        <ele>52.421895</ele>
        <time>2019-09-10T15:22:43.700Z</time>
      </trkpt>
      <trkpt lat="10.1585833968601" lon="-75.6825939174609">
        <ele>52.421895</ele>
        <time>2019-09-10T15:22:43.800Z</time>
      </trkpt>
      <trkpt lat="10.1585852592008" lon="-75.6825920634194">
        <ele>52.421895</ele>
        <time>2019-09-10T15:22:43.900Z</time>
      </trkpt>
      <trkpt lat="10.1585870481833" lon="-75.6825902409888">
        <ele>52.421895</ele>
        <time>2019-09-10T15:22:44.000Z</time>
      </trkpt>
      <trkpt lat="10.1585886269272" lon="-75.6825884234322">
        <ele>52.421895</ele>
        <time>2019-09-10T15:22:44.100Z</time>
      </trkpt>
      <trkpt lat="10.1585900514509" lon="-75.6825865934818">
        <ele>52.421895</ele>
        <time>2019-09-10T15:22:44.200Z</time>
      </trkpt>
      <trkpt lat="10.1585911689608" lon="-75.6825847604678">
        <ele>52.421895</ele>
        <time>2019-09-10T15:22:44.300Z</time>
      </trkpt>
      <trkpt lat="10.1585920644813" lon="-75.6825829190985">
        <ele>52.421895</ele>
        <time>2019-09-10T15:22:44.400Z</time>
      </trkpt>
      <trkpt lat="10.158592594162" lon="-75.6825810405481">
        <ele>52.421895</ele>
        <time>2019-09-10T15:22:44.500Z</time>
      </trkpt>
      <trkpt lat="10.1585928692062" lon="-75.682579147933">
        <ele>52.421895</ele>
        <time>2019-09-10T15:22:44.600Z</time>
      </trkpt>
      <trkpt lat="10.1585927391326" lon="-75.6825772047683">
        <ele>52.321895</ele>
        <time>2019-09-10T15:22:44.700Z</time>
      </trkpt>
      <trkpt lat="10.1585923501364" lon="-75.6825752648064">
        <ele>52.321895</ele>
        <time>2019-09-10T15:22:44.800Z</time>
      </trkpt>
      <trkpt lat="10.1585916173171" lon="-75.6825732822325">
        <ele>52.321895</ele>
        <time>2019-09-10T15:22:44.900Z</time>
      </trkpt>
      <trkpt lat="10.1585906412538" lon="-75.6825713148375">
        <ele>52.421895</ele>
        <time>2019-09-10T15:22:45.000Z</time>
      </trkpt>
      <trkpt lat="10.1585893267998" lon="-75.6825692668137">
        <ele>52.421895</ele>
        <time>2019-09-10T15:22:45.100Z</time>
      </trkpt>
      <trkpt lat="10.1585877653631" lon="-75.6825672327155">
        <ele>52.421895</ele>
        <time>2019-09-10T15:22:45.200Z</time>
      </trkpt>
      <trkpt lat="10.1585859537647" lon="-75.6825650972395">
        <ele>52.421895</ele>
        <time>2019-09-10T15:22:45.300Z</time>
      </trkpt>
      <trkpt lat="10.1585840245276" lon="-75.6825629922605">
        <ele>52.421895</ele>
        <time>2019-09-10T15:22:45.400Z</time>
      </trkpt>
      <trkpt lat="10.1585820371159" lon="-75.6825608081846">
        <ele>52.421895</ele>
        <time>2019-09-10T15:22:45.500Z</time>
      </trkpt>
      <trkpt lat="10.158580009195" lon="-75.6825586866342">
        <ele>52.421895</ele>
        <time>2019-09-10T15:22:45.600Z</time>
      </trkpt>
      <trkpt lat="10.1585779794047" lon="-75.6825565033938">
        <ele>52.421895</ele>
        <time>2019-09-10T15:22:45.700Z</time>
      </trkpt>
      <trkpt lat="10.1585759098869" lon="-75.682554386578">
        <ele>52.421895</ele>
        <time>2019-09-10T15:22:45.800Z</time>
      </trkpt>
      <trkpt lat="10.1585738851773" lon="-75.6825521916402">
        <ele>52.421895</ele>
        <time>2019-09-10T15:22:45.900Z</time>
      </trkpt>
      <trkpt lat="10.1585718263291" lon="-75.682550062013">
        <ele>52.421895</ele>
        <time>2019-09-10T15:22:46.000Z</time>
      </trkpt>
      <trkpt lat="10.1585698516714" lon="-75.6825479181818">
        <ele>52.421895</ele>
        <time>2019-09-10T15:22:46.100Z</time>
      </trkpt>
      <trkpt lat="10.1585678606576" lon="-75.6825458352051">
        <ele>52.421895</ele>
        <time>2019-09-10T15:22:46.200Z</time>
      </trkpt>
      <trkpt lat="10.1585659051243" lon="-75.6825437341251">
        <ele>52.421895</ele>
        <time>2019-09-10T15:22:46.300Z</time>
      </trkpt>
      <trkpt lat="10.1585638902897" lon="-75.6825416927856">
        <ele>52.421895</ele>
        <time>2019-09-10T15:22:46.400Z</time>
      </trkpt>
      <trkpt lat="10.1585619003441" lon="-75.6825396674605">
        <ele>52.421895</ele>
        <time>2019-09-10T15:22:46.500Z</time>
      </trkpt>
      <trkpt lat="10.1585598859589" lon="-75.6825376816837">
        <ele>52.421895</ele>
        <time>2019-09-10T15:22:46.600Z</time>
      </trkpt>
      <trkpt lat="10.1585579286409" lon="-75.6825357702691">
        <ele>52.421895</ele>
        <time>2019-09-10T15:22:46.700Z</time>
      </trkpt>
      <trkpt lat="10.1585559721533" lon="-75.6825338993778">
        <ele>52.421895</ele>
        <time>2019-09-10T15:22:46.800Z</time>
      </trkpt>
      <trkpt lat="10.1585540146106" lon="-75.6825320158142">
        <ele>52.421895</ele>
        <time>2019-09-10T15:22:46.900Z</time>
      </trkpt>
      <trkpt lat="10.1585520343803" lon="-75.6825301089951">
        <ele>52.421895</ele>
        <time>2019-09-10T15:22:47.000Z</time>
      </trkpt>
      <trkpt lat="10.1585500827619" lon="-75.6825282567639">
        <ele>52.421895</ele>
        <time>2019-09-10T15:22:47.100Z</time>
      </trkpt>
      <trkpt lat="10.1585461666276" lon="-75.6825245960276">
        <ele>52.421895</ele>
        <time>2019-09-10T15:22:47.300Z</time>
      </trkpt>
      <trkpt lat="10.158544181157" lon="-75.6825227454675">
        <ele>52.421895</ele>
        <time>2019-09-10T15:22:47.400Z</time>
      </trkpt>
      <trkpt lat="10.1585421864304" lon="-75.6825209302782">
        <ele>52.421895</ele>
        <time>2019-09-10T15:22:47.500Z</time>
      </trkpt>
      <trkpt lat="10.1585402125185" lon="-75.6825190891874">
        <ele>52.421895</ele>
        <time>2019-09-10T15:22:47.600Z</time>
      </trkpt>
      <trkpt lat="10.1585382263705" lon="-75.6825172574267">
        <ele>52.421895</ele>
        <time>2019-09-10T15:22:47.700Z</time>
      </trkpt>
      <trkpt lat="10.1585362602589" lon="-75.6825153858391">
        <ele>52.421895</ele>
        <time>2019-09-10T15:22:47.800Z</time>
      </trkpt>
      <trkpt lat="10.1585342843261" lon="-75.6825135272022">
        <ele>52.421895</ele>
        <time>2019-09-10T15:22:47.900Z</time>
      </trkpt>
      <trkpt lat="10.1585323339697" lon="-75.6825116320804">
        <ele>52.521895</ele>
        <time>2019-09-10T15:22:48.000Z</time>
      </trkpt>
      <trkpt lat="10.1585303945564" lon="-75.6825097611891">
        <ele>52.521895</ele>
        <time>2019-09-10T15:22:48.100Z</time>
      </trkpt>
      <trkpt lat="10.1585284858458" lon="-75.6825078584084">
        <ele>52.521895</ele>
        <time>2019-09-10T15:22:48.200Z</time>
      </trkpt>
      <trkpt lat="10.1585265783288" lon="-75.6825059613371">
        <ele>52.521895</ele>
        <time>2019-09-10T15:22:48.300Z</time>
      </trkpt>
      <trkpt lat="10.1585246894706" lon="-75.6825040226285">
        <ele>52.521895</ele>
        <time>2019-09-10T15:22:48.400Z</time>
      </trkpt>
      <trkpt lat="10.15852278935" lon="-75.682502071944">
        <ele>52.521895</ele>
        <time>2019-09-10T15:22:48.500Z</time>
      </trkpt>
      <trkpt lat="10.1585209086788" lon="-75.6825000824074">
        <ele>52.521895</ele>
        <time>2019-09-10T15:22:48.600Z</time>
      </trkpt>
      <trkpt lat="10.1585190552416" lon="-75.6824981495475">
        <ele>52.521895</ele>
        <time>2019-09-10T15:22:48.700Z</time>
      </trkpt>
      <trkpt lat="10.1585172299155" lon="-75.6824962041547">
        <ele>52.421895</ele>
        <time>2019-09-10T15:22:48.800Z</time>
      </trkpt>
      <trkpt lat="10.1585154451922" lon="-75.682494295386">
        <ele>52.421895</ele>
        <time>2019-09-10T15:22:48.900Z</time>
      </trkpt>
      <trkpt lat="10.1585136815816" lon="-75.6824923570952">
        <ele>52.521895</ele>
        <time>2019-09-10T15:22:49.000Z</time>
      </trkpt>
      <trkpt lat="10.158511921508" lon="-75.682490467126">
        <ele>52.521895</ele>
        <time>2019-09-10T15:22:49.100Z</time>
      </trkpt>
      <trkpt lat="10.1585101556993" lon="-75.6824885352409">
        <ele>52.421895</ele>
        <time>2019-09-10T15:22:49.200Z</time>
      </trkpt>
      <trkpt lat="10.1585083955134" lon="-75.6824866005708">
        <ele>52.421895</ele>
        <time>2019-09-10T15:22:49.300Z</time>
      </trkpt>
      <trkpt lat="10.1585066452477" lon="-75.6824846090845">
        <ele>52.421895</ele>
        <time>2019-09-10T15:22:49.400Z</time>
      </trkpt>
      <trkpt lat="10.1585030962759" lon="-75.6824805886525">
        <ele>52.421895</ele>
        <time>2019-09-10T15:22:49.600Z</time>
      </trkpt>
      <trkpt lat="10.1585013309323" lon="-75.6824785758603">
        <ele>52.421895</ele>
        <time>2019-09-10T15:22:49.700Z</time>
      </trkpt>
      <trkpt lat="10.1584995857687" lon="-75.6824765462182">
        <ele>52.421895</ele>
        <time>2019-09-10T15:22:49.800Z</time>
      </trkpt>
      <trkpt lat="10.1584978241693" lon="-75.6824745408065">
        <ele>52.421895</ele>
        <time>2019-09-10T15:22:49.900Z</time>
      </trkpt>
      <trkpt lat="10.1584960685276" lon="-75.682472507683">
        <ele>52.521895</ele>
        <time>2019-09-10T15:22:50.000Z</time>
      </trkpt>
      <trkpt lat="10.1584943122344" lon="-75.6824704887636">
        <ele>52.421895</ele>
        <time>2019-09-10T15:22:50.100Z</time>
      </trkpt>
      <trkpt lat="10.1584925699598" lon="-75.6824684412968">
        <ele>52.421895</ele>
        <time>2019-09-10T15:22:50.200Z</time>
      </trkpt>
      <trkpt lat="10.1584908219587" lon="-75.682466370296">
        <ele>52.421895</ele>
        <time>2019-09-10T15:22:50.300Z</time>
      </trkpt>
      <trkpt lat="10.1584873685696" lon="-75.6824621734279">
        <ele>52.421895</ele>
        <time>2019-09-10T15:22:50.500Z</time>
      </trkpt>
      <trkpt lat="10.1584856654109" lon="-75.6824600726265">
        <ele>52.421895</ele>
        <time>2019-09-10T15:22:50.600Z</time>
      </trkpt>
      <trkpt lat="10.158483960733" lon="-75.6824579736354">
        <ele>52.421895</ele>
        <time>2019-09-10T15:22:50.700Z</time>
      </trkpt>
      <trkpt lat="10.1584822518145" lon="-75.6824558551486">
        <ele>52.421895</ele>
        <time>2019-09-10T15:22:50.800Z</time>
      </trkpt>
      <trkpt lat="10.1584805320962" lon="-75.6824537469667">
        <ele>52.421895</ele>
        <time>2019-09-10T15:22:50.900Z</time>
      </trkpt>
      <trkpt lat="10.1584788128714" lon="-75.6824516268784">
        <ele>52.421895</ele>
        <time>2019-09-10T15:22:51.000Z</time>
      </trkpt>
      <trkpt lat="10.1584770573208" lon="-75.6824494962764">
        <ele>52.421895</ele>
        <time>2019-09-10T15:22:51.100Z</time>
      </trkpt>
      <trkpt lat="10.1584753059391" lon="-75.6824473479194">
        <ele>52.421895</ele>
        <time>2019-09-10T15:22:51.200Z</time>
      </trkpt>
      <trkpt lat="10.1584735892041" lon="-75.6824452475358">
        <ele>52.421895</ele>
        <time>2019-09-10T15:22:51.300Z</time>
      </trkpt>
      <trkpt lat="10.1584718975048" lon="-75.6824431567608">
        <ele>52.421895</ele>
        <time>2019-09-10T15:22:51.400Z</time>
      </trkpt>
      <trkpt lat="10.1584701980769" lon="-75.6824410911909">
        <ele>52.421895</ele>
        <time>2019-09-10T15:22:51.500Z</time>
      </trkpt>
      <trkpt lat="10.1584684935586" lon="-75.6824390070304">
        <ele>52.421895</ele>
        <time>2019-09-10T15:22:51.600Z</time>
      </trkpt>
      <trkpt lat="10.1584651046038" lon="-75.6824348466471">
        <ele>52.421895</ele>
        <time>2019-09-10T15:22:51.800Z</time>
      </trkpt>
      <trkpt lat="10.1584633931221" lon="-75.68243276374">
        <ele>52.421895</ele>
        <time>2019-09-10T15:22:51.900Z</time>
      </trkpt>
      <trkpt lat="10.1584616731922" lon="-75.6824306602231">
        <ele>52.421895</ele>
        <time>2019-09-10T15:22:52.000Z</time>
      </trkpt>
      <trkpt lat="10.1584599544151" lon="-75.6824285622068">
        <ele>52.421895</ele>
        <time>2019-09-10T15:22:52.100Z</time>
      </trkpt>
      <trkpt lat="10.1584582431322" lon="-75.682426451936">
        <ele>52.421895</ele>
        <time>2019-09-10T15:22:52.200Z</time>
      </trkpt>
      <trkpt lat="10.1584565385812" lon="-75.6824243520398">
        <ele>52.421895</ele>
        <time>2019-09-10T15:22:52.300Z</time>
      </trkpt>
      <trkpt lat="10.1584548370038" lon="-75.6824222419083">
        <ele>52.421895</ele>
        <time>2019-09-10T15:22:52.400Z</time>
      </trkpt>
      <trkpt lat="10.1584531383934" lon="-75.6824201454934">
        <ele>52.421895</ele>
        <time>2019-09-10T15:22:52.500Z</time>
      </trkpt>
      <trkpt lat="10.1584514376921" lon="-75.6824180402359">
        <ele>52.421895</ele>
        <time>2019-09-10T15:22:52.600Z</time>
      </trkpt>
      <trkpt lat="10.1584497259825" lon="-75.6824159253697">
        <ele>52.421895</ele>
        <time>2019-09-10T15:22:52.700Z</time>
      </trkpt>
      <trkpt lat="10.1584480082998" lon="-75.6824137910078">
        <ele>52.421895</ele>
        <time>2019-09-10T15:22:52.800Z</time>
      </trkpt>
      <trkpt lat="10.1584462982968" lon="-75.6824116684826">
        <ele>52.421895</ele>
        <time>2019-09-10T15:22:52.900Z</time>
      </trkpt>
      <trkpt lat="10.1584445951202" lon="-75.6824095448434">
        <ele>52.421895</ele>
        <time>2019-09-10T15:22:53.000Z</time>
      </trkpt>
      <trkpt lat="10.1584428785514" lon="-75.6824074408391">
        <ele>52.421895</ele>
        <time>2019-09-10T15:22:53.100Z</time>
      </trkpt>
      <trkpt lat="10.1584411585237" lon="-75.6824053337712">
        <ele>52.421895</ele>
        <time>2019-09-10T15:22:53.200Z</time>
      </trkpt>
      <trkpt lat="10.1584394225503" lon="-75.6824032182784">
        <ele>52.421895</ele>
        <time>2019-09-10T15:22:53.300Z</time>
      </trkpt>
      <trkpt lat="10.1584376899249" lon="-75.6824010906704">
        <ele>52.421895</ele>
        <time>2019-09-10T15:22:53.400Z</time>
      </trkpt>
      <trkpt lat="10.1584359424417" lon="-75.6823989791464">
        <ele>52.421895</ele>
        <time>2019-09-10T15:22:53.500Z</time>
      </trkpt>
      <trkpt lat="10.1584342008013" lon="-75.6823968690149">
        <ele>52.421895</ele>
        <time>2019-09-10T15:22:53.600Z</time>
      </trkpt>
      <trkpt lat="10.1584324469736" lon="-75.6823947732266">
        <ele>52.421895</ele>
        <time>2019-09-10T15:22:53.700Z</time>
      </trkpt>
      <trkpt lat="10.1584307021871" lon="-75.6823926711719">
        <ele>52.421895</ele>
        <time>2019-09-10T15:22:53.800Z</time>
      </trkpt>
      <trkpt lat="10.158428946757" lon="-75.6823905815806">
        <ele>52.421895</ele>
        <time>2019-09-10T15:22:53.900Z</time>
      </trkpt>
      <trkpt lat="10.1584271994106" lon="-75.6823884821021">
        <ele>52.421895</ele>
        <time>2019-09-10T15:22:54.000Z</time>
      </trkpt>
      <trkpt lat="10.1584254943841" lon="-75.6823863922322">
        <ele>52.421895</ele>
        <time>2019-09-10T15:22:54.100Z</time>
      </trkpt>
      <trkpt lat="10.1584238124294" lon="-75.6823842992291">
        <ele>52.421895</ele>
        <time>2019-09-10T15:22:54.200Z</time>
      </trkpt>
      <trkpt lat="10.1584221069535" lon="-75.6823822172967">
        <ele>52.421895</ele>
        <time>2019-09-10T15:22:54.300Z</time>
      </trkpt>
      <trkpt lat="10.1584203818776" lon="-75.6823801278446">
        <ele>52.421895</ele>
        <time>2019-09-10T15:22:54.400Z</time>
      </trkpt>
      <trkpt lat="10.1584186447318" lon="-75.6823780216122">
        <ele>52.421895</ele>
        <time>2019-09-10T15:22:54.500Z</time>
      </trkpt>
      <trkpt lat="10.1584169124842" lon="-75.6823759036128">
        <ele>52.421895</ele>
        <time>2019-09-10T15:22:54.600Z</time>
      </trkpt>
      <trkpt lat="10.1584151942283" lon="-75.6823738098438">
        <ele>52.421895</ele>
        <time>2019-09-10T15:22:54.700Z</time>
      </trkpt>
      <trkpt lat="10.1584134904916" lon="-75.6823717231768">
        <ele>52.421895</ele>
        <time>2019-09-10T15:22:54.800Z</time>
      </trkpt>
      <trkpt lat="10.158411801515" lon="-75.6823696385986">
        <ele>52.421895</ele>
        <time>2019-09-10T15:22:54.900Z</time>
      </trkpt>
      <trkpt lat="10.1584101143103" lon="-75.6823675426015">
        <ele>52.421895</ele>
        <time>2019-09-10T15:22:55.000Z</time>
      </trkpt>
      <trkpt lat="10.1584084567432" lon="-75.6823654757087">
        <ele>52.421895</ele>
        <time>2019-09-10T15:22:55.100Z</time>
      </trkpt>
      <trkpt lat="10.1584068003486" lon="-75.6823634087462">
        <ele>52.421895</ele>
        <time>2019-09-10T15:22:55.200Z</time>
      </trkpt>
      <trkpt lat="10.1584051456215" lon="-75.6823613429675">
        <ele>52.321895</ele>
        <time>2019-09-10T15:22:55.300Z</time>
      </trkpt>
      <trkpt lat="10.158403475802" lon="-75.6823592621491">
        <ele>52.321895</ele>
        <time>2019-09-10T15:22:55.400Z</time>
      </trkpt>
      <trkpt lat="10.1584018311713" lon="-75.68235719832">
        <ele>52.321895</ele>
        <time>2019-09-10T15:22:55.500Z</time>
      </trkpt>
      <trkpt lat="10.1584001814793" lon="-75.6823551215401">
        <ele>52.321895</ele>
        <time>2019-09-10T15:22:55.600Z</time>
      </trkpt>
      <trkpt lat="10.1583967941986" lon="-75.6823509410344">
        <ele>52.321895</ele>
        <time>2019-09-10T15:22:55.800Z</time>
      </trkpt>
      <trkpt lat="10.1583950777665" lon="-75.6823488193447">
        <ele>52.321895</ele>
        <time>2019-09-10T15:22:55.900Z</time>
      </trkpt>
      <trkpt lat="10.1583933638487" lon="-75.6823466835903">
        <ele>52.321895</ele>
        <time>2019-09-10T15:22:56.000Z</time>
      </trkpt>
      <trkpt lat="10.1583916514812" lon="-75.6823445530579">
        <ele>52.321895</ele>
        <time>2019-09-10T15:22:56.100Z</time>
      </trkpt>
      <trkpt lat="10.1583899437515" lon="-75.6823424352674">
        <ele>52.321895</ele>
        <time>2019-09-10T15:22:56.200Z</time>
      </trkpt>
      <trkpt lat="10.1583881953108" lon="-75.6823402777892">
        <ele>52.321895</ele>
        <time>2019-09-10T15:22:56.300Z</time>
      </trkpt>
      <trkpt lat="10.158386436005" lon="-75.6823381142534">
        <ele>52.321895</ele>
        <time>2019-09-10T15:22:56.400Z</time>
      </trkpt>
      <trkpt lat="10.1583846833824" lon="-75.6823359633898">
        <ele>52.321895</ele>
        <time>2019-09-10T15:22:56.500Z</time>
      </trkpt>
      <trkpt lat="10.1583829461714" lon="-75.6823338361996">
        <ele>52.321895</ele>
        <time>2019-09-10T15:22:56.600Z</time>
      </trkpt>
      <trkpt lat="10.1583812226002" lon="-75.6823317469563">
        <ele>52.321895</ele>
        <time>2019-09-10T15:22:56.700Z</time>
      </trkpt>
      <trkpt lat="10.1583795049305" lon="-75.6823296697587">
        <ele>52.321895</ele>
        <time>2019-09-10T15:22:56.800Z</time>
      </trkpt>
      <trkpt lat="10.1583777859971" lon="-75.6823276011948">
        <ele>52.321895</ele>
        <time>2019-09-10T15:22:56.900Z</time>
      </trkpt>
      <trkpt lat="10.15837605913" lon="-75.6823255139011">
        <ele>52.321895</ele>
        <time>2019-09-10T15:22:57.000Z</time>
      </trkpt>
      <trkpt lat="10.1583743277943" lon="-75.6823234282785">
        <ele>52.321895</ele>
        <time>2019-09-10T15:22:57.100Z</time>
      </trkpt>
      <trkpt lat="10.1583725926938" lon="-75.6823213308888">
        <ele>52.321895</ele>
        <time>2019-09-10T15:22:57.200Z</time>
      </trkpt>
      <trkpt lat="10.1583708778641" lon="-75.6823192389998">
        <ele>52.321895</ele>
        <time>2019-09-10T15:22:57.300Z</time>
      </trkpt>
      <trkpt lat="10.1583691700432" lon="-75.6823171443256">
        <ele>52.321895</ele>
        <time>2019-09-10T15:22:57.400Z</time>
      </trkpt>
      <trkpt lat="10.1583674587831" lon="-75.6823150550127">
        <ele>52.321895</ele>
        <time>2019-09-10T15:22:57.500Z</time>
      </trkpt>
      <trkpt lat="10.1583657392113" lon="-75.682312959503">
        <ele>52.321895</ele>
        <time>2019-09-10T15:22:57.600Z</time>
      </trkpt>
      <trkpt lat="10.1583640153536" lon="-75.6823108681013">
        <ele>52.321895</ele>
        <time>2019-09-10T15:22:57.700Z</time>
      </trkpt>
      <trkpt lat="10.1583622853337" lon="-75.6823087725916">
        <ele>52.321895</ele>
        <time>2019-09-10T15:22:57.800Z</time>
      </trkpt>
      <trkpt lat="10.1583605202698" lon="-75.6823066520856">
        <ele>52.321895</ele>
        <time>2019-09-10T15:22:57.900Z</time>
      </trkpt>
      <trkpt lat="10.158358750529" lon="-75.6823045273323">
        <ele>52.321895</ele>
        <time>2019-09-10T15:22:58.000Z</time>
      </trkpt>
      <trkpt lat="10.158356995379" lon="-75.6823024291768">
        <ele>52.321895</ele>
        <time>2019-09-10T15:22:58.100Z</time>
      </trkpt>
      <trkpt lat="10.1583552566177" lon="-75.6823003481496">
        <ele>52.321895</ele>
        <time>2019-09-10T15:22:58.200Z</time>
      </trkpt>
      <trkpt lat="10.1583534981848" lon="-75.6822982435883">
        <ele>52.321895</ele>
        <time>2019-09-10T15:22:58.300Z</time>
      </trkpt>
      <trkpt lat="10.1583517360651" lon="-75.6822961269118">
        <ele>52.321895</ele>
        <time>2019-09-10T15:22:58.400Z</time>
      </trkpt>
      <trkpt lat="10.1583499754175" lon="-75.6822940349531">
        <ele>52.321895</ele>
        <time>2019-09-10T15:22:58.500Z</time>
      </trkpt>
      <trkpt lat="10.1583482226776" lon="-75.6822919562932">
        <ele>52.321895</ele>
        <time>2019-09-10T15:22:58.600Z</time>
      </trkpt>
      <trkpt lat="10.1583465008912" lon="-75.6822898805577">
        <ele>52.321895</ele>
        <time>2019-09-10T15:22:58.700Z</time>
      </trkpt>
      <trkpt lat="10.1583447868823" lon="-75.6822877967454">
        <ele>52.321895</ele>
        <time>2019-09-10T15:22:58.800Z</time>
      </trkpt>
      <trkpt lat="10.1583430498276" lon="-75.6822856744291">
        <ele>52.321895</ele>
        <time>2019-09-10T15:22:58.900Z</time>
      </trkpt>
      <trkpt lat="10.1583412970095" lon="-75.6822835389532">
        <ele>52.321895</ele>
        <time>2019-09-10T15:22:59.000Z</time>
      </trkpt>
      <trkpt lat="10.1583396388236" lon="-75.682281510634">
        <ele>52.321895</ele>
        <time>2019-09-10T15:22:59.100Z</time>
      </trkpt>
      <trkpt lat="10.1583380249314" lon="-75.6822795332126">
        <ele>52.321895</ele>
        <time>2019-09-10T15:22:59.200Z</time>
      </trkpt>
      <trkpt lat="10.1583363600884" lon="-75.6822775188189">
        <ele>52.321895</ele>
        <time>2019-09-10T15:22:59.300Z</time>
      </trkpt>
      <trkpt lat="10.1583346160119" lon="-75.6822754211507">
        <ele>52.321895</ele>
        <time>2019-09-10T15:22:59.400Z</time>
      </trkpt>
      <trkpt lat="10.1583328341685" lon="-75.6822732833075">
        <ele>52.321895</ele>
        <time>2019-09-10T15:22:59.500Z</time>
      </trkpt>
      <trkpt lat="10.1583310537972" lon="-75.6822711334883">
        <ele>52.321895</ele>
        <time>2019-09-10T15:22:59.600Z</time>
      </trkpt>
      <trkpt lat="10.1583292884857" lon="-75.6822690318514">
        <ele>52.321895</ele>
        <time>2019-09-10T15:22:59.700Z</time>
      </trkpt>
      <trkpt lat="10.1583275459464" lon="-75.6822669586225">
        <ele>52.321895</ele>
        <time>2019-09-10T15:22:59.800Z</time>
      </trkpt>
      <trkpt lat="10.1583257594391" lon="-75.6822648742531">
        <ele>52.421895</ele>
        <time>2019-09-10T15:22:59.900Z</time>
      </trkpt>
      <trkpt lat="10.1583221764845" lon="-75.6822606710489">
        <ele>52.321895</ele>
        <time>2019-09-10T15:23:00.100Z</time>
      </trkpt>
      <trkpt lat="10.1583204096749" lon="-75.6822585747037">
        <ele>52.321895</ele>
        <time>2019-09-10T15:23:00.200Z</time>
      </trkpt>
      <trkpt lat="10.158315187724" lon="-75.6822523294636">
        <ele>52.321895</ele>
        <time>2019-09-10T15:23:00.500Z</time>
      </trkpt>
      <trkpt lat="10.1583134769328" lon="-75.682250287219">
        <ele>52.321895</ele>
        <time>2019-09-10T15:23:00.600Z</time>
      </trkpt>
      <trkpt lat="10.1583117475253" lon="-75.682248219421">
        <ele>52.321895</ele>
        <time>2019-09-10T15:23:00.700Z</time>
      </trkpt>
      <trkpt lat="10.1583100000095" lon="-75.6822461200122">
        <ele>52.321895</ele>
        <time>2019-09-10T15:23:00.800Z</time>
      </trkpt>
      <trkpt lat="10.1583082735071" lon="-75.6822440377316">
        <ele>52.321895</ele>
        <time>2019-09-10T15:23:00.900Z</time>
      </trkpt>
      <trkpt lat="10.158306556137" lon="-75.6822419567045">
        <ele>52.321895</ele>
        <time>2019-09-10T15:23:01.000Z</time>
      </trkpt>
      <trkpt lat="10.1583048387539" lon="-75.6822398677397">
        <ele>52.321895</ele>
        <time>2019-09-10T15:23:01.100Z</time>
      </trkpt>
      <trkpt lat="10.1583031087081" lon="-75.6822377668687">
        <ele>52.321895</ele>
        <time>2019-09-10T15:23:01.200Z</time>
      </trkpt>
      <trkpt lat="10.1583014003791" lon="-75.6822356636303">
        <ele>52.321895</ele>
        <time>2019-09-10T15:23:01.300Z</time>
      </trkpt>
      <trkpt lat="10.1582996954373" lon="-75.6822335567017">
        <ele>52.321895</ele>
        <time>2019-09-10T15:23:01.400Z</time>
      </trkpt>
      <trkpt lat="10.1582962198949" lon="-75.6822293367172">
        <ele>52.321895</ele>
        <time>2019-09-10T15:23:01.600Z</time>
      </trkpt>
      <trkpt lat="10.1582945166467" lon="-75.6822272577788">
        <ele>52.321895</ele>
        <time>2019-09-10T15:23:01.700Z</time>
      </trkpt>
      <trkpt lat="10.1582928242374" lon="-75.682225184341">
        <ele>52.321895</ele>
        <time>2019-09-10T15:23:01.800Z</time>
      </trkpt>
      <trkpt lat="10.1582911276203" lon="-75.6822230913379">
        <ele>52.321895</ele>
        <time>2019-09-10T15:23:01.900Z</time>
      </trkpt>
      <trkpt lat="10.15828941253" lon="-75.6822209815546">
        <ele>52.321895</ele>
        <time>2019-09-10T15:23:02.000Z</time>
      </trkpt>
      <trkpt lat="10.1582876895972" lon="-75.6822188724675">
        <ele>52.321895</ele>
        <time>2019-09-10T15:23:02.100Z</time>
      </trkpt>
      <trkpt lat="10.1582859576623" lon="-75.682216768324">
        <ele>52.321895</ele>
        <time>2019-09-10T15:23:02.200Z</time>
      </trkpt>
      <trkpt lat="10.1582842435231" lon="-75.6822146727446">
        <ele>52.321895</ele>
        <time>2019-09-10T15:23:02.300Z</time>
      </trkpt>
      <trkpt lat="10.1582825307648" lon="-75.6822125787667">
        <ele>52.321895</ele>
        <time>2019-09-10T15:23:02.400Z</time>
      </trkpt>
      <trkpt lat="10.1582808138376" lon="-75.6822104821429">
        <ele>52.321895</ele>
        <time>2019-09-10T15:23:02.500Z</time>
      </trkpt>
      <trkpt lat="10.1582790866709" lon="-75.6822083843355">
        <ele>52.321895</ele>
        <time>2019-09-10T15:23:02.600Z</time>
      </trkpt>
      <trkpt lat="10.1582773528079" lon="-75.6822063071378">
        <ele>52.321895</ele>
        <time>2019-09-10T15:23:02.700Z</time>
      </trkpt>
      <trkpt lat="10.1582756115714" lon="-75.6822042306364">
        <ele>52.321895</ele>
        <time>2019-09-10T15:23:02.800Z</time>
      </trkpt>
      <trkpt lat="10.1582738669477" lon="-75.6822021536476">
        <ele>52.321895</ele>
        <time>2019-09-10T15:23:02.900Z</time>
      </trkpt>
      <trkpt lat="10.1582721245386" lon="-75.6822000653792">
        <ele>52.321895</ele>
        <time>2019-09-10T15:23:03.000Z</time>
      </trkpt>
      <trkpt lat="10.1582704034687" lon="-75.6821979969546">
        <ele>52.321895</ele>
        <time>2019-09-10T15:23:03.100Z</time>
      </trkpt>
      <trkpt lat="10.1582686863592" lon="-75.6821959288085">
        <ele>52.321895</ele>
        <time>2019-09-10T15:23:03.200Z</time>
      </trkpt>
      <trkpt lat="10.15826694765" lon="-75.6821938339254">
        <ele>52.321895</ele>
        <time>2019-09-10T15:23:03.300Z</time>
      </trkpt>
      <trkpt lat="10.1582651964344" lon="-75.6821917214266">
        <ele>52.321895</ele>
        <time>2019-09-10T15:23:03.400Z</time>
      </trkpt>
      <trkpt lat="10.1582634450624" lon="-75.682189581216">
        <ele>52.321895</ele>
        <time>2019-09-10T15:23:03.500Z</time>
      </trkpt>
      <trkpt lat="10.1582617029661" lon="-75.6821874366189">
        <ele>52.321895</ele>
        <time>2019-09-10T15:23:03.600Z</time>
      </trkpt>
      <trkpt lat="10.158259981349" lon="-75.6821853171573">
        <ele>52.321895</ele>
        <time>2019-09-10T15:23:03.700Z</time>
      </trkpt>
      <trkpt lat="10.1582582683041" lon="-75.6821832181662">
        <ele>52.321895</ele>
        <time>2019-09-10T15:23:03.800Z</time>
      </trkpt>
      <trkpt lat="10.1582565329299" lon="-75.6821810996794">
        <ele>52.321895</ele>
        <time>2019-09-10T15:23:03.900Z</time>
      </trkpt>
      <trkpt lat="10.1582547852057" lon="-75.6821789743691">
        <ele>52.321895</ele>
        <time>2019-09-10T15:23:04.000Z</time>
      </trkpt>
      <trkpt lat="10.1582530331302" lon="-75.682176832209">
        <ele>52.421895</ele>
        <time>2019-09-10T15:23:04.100Z</time>
      </trkpt>
      <trkpt lat="10.1582512911902" lon="-75.6821746952709">
        <ele>52.321895</ele>
        <time>2019-09-10T15:23:04.200Z</time>
      </trkpt>
      <trkpt lat="10.1582478683833" lon="-75.6821704525878">
        <ele>52.321895</ele>
        <time>2019-09-10T15:23:04.400Z</time>
      </trkpt>
      <trkpt lat="10.1582461596375" lon="-75.6821683455199">
        <ele>52.321895</ele>
        <time>2019-09-10T15:23:04.500Z</time>
      </trkpt>
      <trkpt lat="10.158244440209" lon="-75.682166246877">
        <ele>52.321895</ele>
        <time>2019-09-10T15:23:04.600Z</time>
      </trkpt>
      <trkpt lat="10.1582427345377" lon="-75.6821641528991">
        <ele>52.321895</ele>
        <time>2019-09-10T15:23:04.700Z</time>
      </trkpt>
      <trkpt lat="10.1582410311853" lon="-75.682162056902">
        <ele>52.321895</ele>
        <time>2019-09-10T15:23:04.800Z</time>
      </trkpt>
      <trkpt lat="10.1582393427885" lon="-75.6821599373707">
        <ele>52.321895</ele>
        <time>2019-09-10T15:23:04.900Z</time>
      </trkpt>
      <trkpt lat="10.158237647904" lon="-75.6821578108768">
        <ele>52.321895</ele>
        <time>2019-09-10T15:23:05.000Z</time>
      </trkpt>
      <trkpt lat="10.1582359993455" lon="-75.682155736882">
        <ele>52.321895</ele>
        <time>2019-09-10T15:23:05.100Z</time>
      </trkpt>
      <trkpt lat="10.1582343540959" lon="-75.6821536901811">
        <ele>52.321895</ele>
        <time>2019-09-10T15:23:05.200Z</time>
      </trkpt>
      <trkpt lat="10.1582326566059" lon="-75.6821515966906">
        <ele>52.321895</ele>
        <time>2019-09-10T15:23:05.300Z</time>
      </trkpt>
      <trkpt lat="10.1582309120082" lon="-75.6821494692915">
        <ele>52.321895</ele>
        <time>2019-09-10T15:23:05.400Z</time>
      </trkpt>
      <trkpt lat="10.1582291754616" lon="-75.6821473359044">
        <ele>52.321895</ele>
        <time>2019-09-10T15:23:05.500Z</time>
      </trkpt>
      <trkpt lat="10.1582274530629" lon="-75.6821452202723">
        <ele>52.321895</ele>
        <time>2019-09-10T15:23:05.600Z</time>
      </trkpt>
      <trkpt lat="10.1582257499971" lon="-75.682143109375">
        <ele>52.321895</ele>
        <time>2019-09-10T15:23:05.700Z</time>
      </trkpt>
      <trkpt lat="10.1582240527416" lon="-75.6821410091306">
        <ele>52.321895</ele>
        <time>2019-09-10T15:23:05.800Z</time>
      </trkpt>
      <trkpt lat="10.1582223723698" lon="-75.6821389060315">
        <ele>52.321895</ele>
        <time>2019-09-10T15:23:05.900Z</time>
      </trkpt>
      <trkpt lat="10.1582206888192" lon="-75.6821368045338">
        <ele>52.321895</ele>
        <time>2019-09-10T15:23:06.000Z</time>
      </trkpt>
      <trkpt lat="10.1582190160034" lon="-75.682134699137">
        <ele>52.321895</ele>
        <time>2019-09-10T15:23:06.100Z</time>
      </trkpt>
      <trkpt lat="10.1582173343288" lon="-75.6821325960378">
        <ele>52.321895</ele>
        <time>2019-09-10T15:23:06.200Z</time>
      </trkpt>
      <trkpt lat="10.1582156564322" lon="-75.682130489527">
        <ele>52.321895</ele>
        <time>2019-09-10T15:23:06.300Z</time>
      </trkpt>
      <trkpt lat="10.1582139666545" lon="-75.6821283854531">
        <ele>52.321895</ele>
        <time>2019-09-10T15:23:06.400Z</time>
      </trkpt>
      <trkpt lat="10.1582122809414" lon="-75.6821262797081">
        <ele>52.321895</ele>
        <time>2019-09-10T15:23:06.500Z</time>
      </trkpt>
      <trkpt lat="10.1582105855879" lon="-75.6821241783497">
        <ele>52.321895</ele>
        <time>2019-09-10T15:23:06.600Z</time>
      </trkpt>
      <trkpt lat="10.1582088735331" lon="-75.6821220524824">
        <ele>52.321895</ele>
        <time>2019-09-10T15:23:06.700Z</time>
      </trkpt>
      <trkpt lat="10.1582071519942" lon="-75.6821199285646">
        <ele>52.321895</ele>
        <time>2019-09-10T15:23:06.800Z</time>
      </trkpt>
      <trkpt lat="10.1582054352494" lon="-75.6821178320801">
        <ele>52.321895</ele>
        <time>2019-09-10T15:23:06.900Z</time>
      </trkpt>
      <trkpt lat="10.1582037196251" lon="-75.6821157518885">
        <ele>52.321895</ele>
        <time>2019-09-10T15:23:07.000Z</time>
      </trkpt>
      <trkpt lat="10.1582020163247" lon="-75.6821136935598">
        <ele>52.321895</ele>
        <time>2019-09-10T15:23:07.100Z</time>
      </trkpt>
      <trkpt lat="10.1582003115393" lon="-75.6821116278507">
        <ele>52.321895</ele>
        <time>2019-09-10T15:23:07.200Z</time>
      </trkpt>
      <trkpt lat="10.1581986166548" lon="-75.6821095556662">
        <ele>52.321895</ele>
        <time>2019-09-10T15:23:07.300Z</time>
      </trkpt>
      <trkpt lat="10.1581969146051" lon="-75.6821074683029">
        <ele>52.321895</ele>
        <time>2019-09-10T15:23:07.400Z</time>
      </trkpt>
      <trkpt lat="10.1581952050255" lon="-75.6821054060055">
        <ele>52.321895</ele>
        <time>2019-09-10T15:23:07.500Z</time>
      </trkpt>
      <trkpt lat="10.1581934860661" lon="-75.6821033441955">
        <ele>52.321895</ele>
        <time>2019-09-10T15:23:07.600Z</time>
      </trkpt>
      <trkpt lat="10.1581917829742" lon="-75.6821012820374">
        <ele>52.321895</ele>
        <time>2019-09-10T15:23:07.700Z</time>
      </trkpt>
      <trkpt lat="10.1581900815238" lon="-75.6820992079033">
        <ele>52.321895</ele>
        <time>2019-09-10T15:23:07.800Z</time>
      </trkpt>
      <trkpt lat="10.1581883626947" lon="-75.682097148948">
        <ele>52.321895</ele>
        <time>2019-09-10T15:23:07.900Z</time>
      </trkpt>
      <trkpt lat="10.1581866334956" lon="-75.6820950897143">
        <ele>52.321895</ele>
        <time>2019-09-10T15:23:08.000Z</time>
      </trkpt>
      <trkpt lat="10.1581849187831" lon="-75.6820930439882">
        <ele>52.321895</ele>
        <time>2019-09-10T15:23:08.100Z</time>
      </trkpt>
      <trkpt lat="10.1581832061812" lon="-75.6820909915083">
        <ele>52.321895</ele>
        <time>2019-09-10T15:23:08.200Z</time>
      </trkpt>
      <trkpt lat="10.1581814863359" lon="-75.6820889222482">
        <ele>52.321895</ele>
        <time>2019-09-10T15:23:08.300Z</time>
      </trkpt>
      <trkpt lat="10.1581797589867" lon="-75.6820868390625">
        <ele>52.321895</ele>
        <time>2019-09-10T15:23:08.400Z</time>
      </trkpt>
      <trkpt lat="10.1581780200951" lon="-75.6820847638144">
        <ele>52.321895</ele>
        <time>2019-09-10T15:23:08.500Z</time>
      </trkpt>
      <trkpt lat="10.158176281438" lon="-75.6820826852938">
        <ele>52.321895</ele>
        <time>2019-09-10T15:23:08.600Z</time>
      </trkpt>
      <trkpt lat="10.1581728086053" lon="-75.6820785534577">
        <ele>52.421895</ele>
        <time>2019-09-10T15:23:08.800Z</time>
      </trkpt>
      <trkpt lat="10.1581710949611" lon="-75.6820764846154">
        <ele>52.421895</ele>
        <time>2019-09-10T15:23:08.900Z</time>
      </trkpt>
      <trkpt lat="10.1581693896025" lon="-75.6820744068607">
        <ele>52.421895</ele>
        <time>2019-09-10T15:23:09.000Z</time>
      </trkpt>
      <trkpt lat="10.1581676783814" lon="-75.6820723240232">
        <ele>52.421895</ele>
        <time>2019-09-10T15:23:09.100Z</time>
      </trkpt>
      <trkpt lat="10.1581659569728" lon="-75.6820702392361">
        <ele>52.421895</ele>
        <time>2019-09-10T15:23:09.200Z</time>
      </trkpt>
      <trkpt lat="10.1581641970026" lon="-75.6820681149702">
        <ele>52.421895</ele>
        <time>2019-09-10T15:23:09.300Z</time>
      </trkpt>
      <trkpt lat="10.1581624295286" lon="-75.6820659897295">
        <ele>52.421895</ele>
        <time>2019-09-10T15:23:09.400Z</time>
      </trkpt>
      <trkpt lat="10.1581606982712" lon="-75.6820638824528">
        <ele>52.421895</ele>
        <time>2019-09-10T15:23:09.500Z</time>
      </trkpt>
      <trkpt lat="10.158158984653" lon="-75.6820617868734">
        <ele>52.421895</ele>
        <time>2019-09-10T15:23:09.600Z</time>
      </trkpt>
      <trkpt lat="10.1581572984709" lon="-75.6820596795967">
        <ele>52.321895</ele>
        <time>2019-09-10T15:23:09.700Z</time>
      </trkpt>
      <trkpt lat="10.1581556059314" lon="-75.6820575649394">
        <ele>52.321895</ele>
        <time>2019-09-10T15:23:09.800Z</time>
      </trkpt>
      <trkpt lat="10.1581539091188" lon="-75.6820554472881">
        <ele>52.321895</ele>
        <time>2019-09-10T15:23:09.900Z</time>
      </trkpt>
      <trkpt lat="10.1581521934163" lon="-75.6820533308205">
        <ele>52.321895</ele>
        <time>2019-09-10T15:23:10.000Z</time>
      </trkpt>
      <trkpt lat="10.1581504932165" lon="-75.6820512192965">
        <ele>52.321895</ele>
        <time>2019-09-10T15:23:10.100Z</time>
      </trkpt>
      <trkpt lat="10.158148786972" lon="-75.6820491101398">
        <ele>52.321895</ele>
        <time>2019-09-10T15:23:10.200Z</time>
      </trkpt>
      <trkpt lat="10.1581470728327" lon="-75.6820469835762">
        <ele>52.321895</ele>
        <time>2019-09-10T15:23:10.300Z</time>
      </trkpt>
      <trkpt lat="10.1581453425914" lon="-75.6820448544364">
        <ele>52.321895</ele>
        <time>2019-09-10T15:23:10.400Z</time>
      </trkpt>
      <trkpt lat="10.1581436314225" lon="-75.6820427325378">
        <ele>52.321895</ele>
        <time>2019-09-10T15:23:10.500Z</time>
      </trkpt>
      <trkpt lat="10.1581419200972" lon="-75.6820406213619">
        <ele>52.321895</ele>
        <time>2019-09-10T15:23:10.600Z</time>
      </trkpt>
      <trkpt lat="10.1581401843322" lon="-75.6820384663207">
        <ele>52.321895</ele>
        <time>2019-09-10T15:23:10.700Z</time>
      </trkpt>
      <trkpt lat="10.1581384354355" lon="-75.6820363062662">
        <ele>52.321895</ele>
        <time>2019-09-10T15:23:10.800Z</time>
      </trkpt>
      <trkpt lat="10.1581367031619" lon="-75.6820341804685">
        <ele>52.321895</ele>
        <time>2019-09-10T15:23:10.900Z</time>
      </trkpt>
      <trkpt lat="10.1581349799294" lon="-75.6820320812686">
        <ele>52.321895</ele>
        <time>2019-09-10T15:23:11.000Z</time>
      </trkpt>
      <trkpt lat="10.1581332803029" lon="-75.6820299746881">
        <ele>52.321895</ele>
        <time>2019-09-10T15:23:11.100Z</time>
      </trkpt>
      <trkpt lat="10.1581315789307" lon="-75.6820278676898">
        <ele>52.321895</ele>
        <time>2019-09-10T15:23:11.200Z</time>
      </trkpt>
      <trkpt lat="10.1581298496274" lon="-75.682025742658">
        <ele>52.321895</ele>
        <time>2019-09-10T15:23:11.300Z</time>
      </trkpt>
      <trkpt lat="10.158128098542" lon="-75.6820236227091">
        <ele>52.321895</ele>
        <time>2019-09-10T15:23:11.400Z</time>
      </trkpt>
      <trkpt lat="10.1581263592856" lon="-75.6820215314466">
        <ele>52.321895</ele>
        <time>2019-09-10T15:23:11.500Z</time>
      </trkpt>
      <trkpt lat="10.1581246252664" lon="-75.6820194608636">
        <ele>52.321895</ele>
        <time>2019-09-10T15:23:11.600Z</time>
      </trkpt>
      <trkpt lat="10.1581228937744" lon="-75.6820173932745">
        <ele>52.321895</ele>
        <time>2019-09-10T15:23:11.700Z</time>
      </trkpt>
      <trkpt lat="10.1581211570454" lon="-75.6820153226218">
        <ele>52.321895</ele>
        <time>2019-09-10T15:23:11.800Z</time>
      </trkpt>
      <trkpt lat="10.1581193743031" lon="-75.6820132083823">
        <ele>52.321895</ele>
        <time>2019-09-10T15:23:11.900Z</time>
      </trkpt>
      <trkpt lat="10.1581175841611" lon="-75.6820110818187">
        <ele>52.321895</ele>
        <time>2019-09-10T15:23:12.000Z</time>
      </trkpt>
      <trkpt lat="10.1581141799576" lon="-75.6820069140548">
        <ele>52.321895</ele>
        <time>2019-09-10T15:23:12.200Z</time>
      </trkpt>
      <trkpt lat="10.1581125014096" lon="-75.6820048534285">
        <ele>52.321895</ele>
        <time>2019-09-10T15:23:12.300Z</time>
      </trkpt>
      <trkpt lat="10.1581108010014" lon="-75.6820027786678">
        <ele>52.321895</ele>
        <time>2019-09-10T15:23:12.400Z</time>
      </trkpt>
      <trkpt lat="10.1581090798013" lon="-75.6820006463251">
        <ele>52.321895</ele>
        <time>2019-09-10T15:23:12.500Z</time>
      </trkpt>
      <trkpt lat="10.1581073415871" lon="-75.6819984914928">
        <ele>52.321895</ele>
        <time>2019-09-10T15:23:12.600Z</time>
      </trkpt>
      <trkpt lat="10.1581056201003" lon="-75.6819963443194">
        <ele>52.321895</ele>
        <time>2019-09-10T15:23:12.700Z</time>
      </trkpt>
      <trkpt lat="10.1581021830673" lon="-75.6819921261453">
        <ele>52.321895</ele>
        <time>2019-09-10T15:23:12.900Z</time>
      </trkpt>
      <trkpt lat="10.1581004565259" lon="-75.6819900527771">
        <ele>52.321895</ele>
        <time>2019-09-10T15:23:13.000Z</time>
      </trkpt>
      <trkpt lat="10.1580987694318" lon="-75.6819880184003">
        <ele>52.321895</ele>
        <time>2019-09-10T15:23:13.100Z</time>
      </trkpt>
      <trkpt lat="10.1580970841096" lon="-75.6819859800548">
        <ele>52.321895</ele>
        <time>2019-09-10T15:23:13.200Z</time>
      </trkpt>
      <trkpt lat="10.1580953688239" lon="-75.6819839103769">
        <ele>52.321895</ele>
        <time>2019-09-10T15:23:13.300Z</time>
      </trkpt>
      <trkpt lat="10.1580936257374" lon="-75.6819818151457">
        <ele>52.321895</ele>
        <time>2019-09-10T15:23:13.400Z</time>
      </trkpt>
      <trkpt lat="10.1580901770057" lon="-75.6819776637443">
        <ele>52.321895</ele>
        <time>2019-09-10T15:23:13.600Z</time>
      </trkpt>
      <trkpt lat="10.1580884485883" lon="-75.6819755841793">
        <ele>52.321895</ele>
        <time>2019-09-10T15:23:13.700Z</time>
      </trkpt>
      <trkpt lat="10.1580867082637" lon="-75.6819734920117">
        <ele>52.321895</ele>
        <time>2019-09-10T15:23:13.800Z</time>
      </trkpt>
      <trkpt lat="10.1580849613471" lon="-75.6819713829943">
        <ele>52.321895</ele>
        <time>2019-09-10T15:23:13.900Z</time>
      </trkpt>
      <trkpt lat="10.1580832078647" lon="-75.6819692696599">
        <ele>52.321895</ele>
        <time>2019-09-10T15:23:14.000Z</time>
      </trkpt>
      <trkpt lat="10.1580780139621" lon="-75.681963004019">
        <ele>52.321895</ele>
        <time>2019-09-10T15:23:14.300Z</time>
      </trkpt>
      <trkpt lat="10.15807627197" lon="-75.6819609084397">
        <ele>52.321895</ele>
        <time>2019-09-10T15:23:14.400Z</time>
      </trkpt>
      <trkpt lat="10.1580744854236" lon="-75.6819587818761">
        <ele>52.321895</ele>
        <time>2019-09-10T15:23:14.500Z</time>
      </trkpt>
      <trkpt lat="10.1580726830618" lon="-75.6819566441024">
        <ele>52.321895</ele>
        <time>2019-09-10T15:23:14.600Z</time>
      </trkpt>
      <trkpt lat="10.1580709164736" lon="-75.6819545392626">
        <ele>52.321895</ele>
        <time>2019-09-10T15:23:14.700Z</time>
      </trkpt>
      <trkpt lat="10.158067437987" lon="-75.6819503666945">
        <ele>52.321895</ele>
        <time>2019-09-10T15:23:14.900Z</time>
      </trkpt>
      <trkpt lat="10.1580656990172" lon="-75.6819482739699">
        <ele>52.321895</ele>
        <time>2019-09-10T15:23:15.000Z</time>
      </trkpt>
      <trkpt lat="10.1580639719286" lon="-75.6819462161287">
        <ele>52.321895</ele>
        <time>2019-09-10T15:23:15.100Z</time>
      </trkpt>
      <trkpt lat="10.1580605384912" lon="-75.6819421461219">
        <ele>52.321895</ele>
        <time>2019-09-10T15:23:15.300Z</time>
      </trkpt>
      <trkpt lat="10.1580588398027" lon="-75.6819401273417">
        <ele>52.321895</ele>
        <time>2019-09-10T15:23:15.400Z</time>
      </trkpt>
      <trkpt lat="10.1580571267838" lon="-75.681938101738">
        <ele>52.321895</ele>
        <time>2019-09-10T15:23:15.500Z</time>
      </trkpt>
      <trkpt lat="10.1580553867197" lon="-75.6819360500239">
        <ele>52.321895</ele>
        <time>2019-09-10T15:23:15.600Z</time>
      </trkpt>
      <trkpt lat="10.1580536519188" lon="-75.681933997544">
        <ele>52.321895</ele>
        <time>2019-09-10T15:23:15.700Z</time>
      </trkpt>
      <trkpt lat="10.1580501829423" lon="-75.6819298739937">
        <ele>52.321895</ele>
        <time>2019-09-10T15:23:15.900Z</time>
      </trkpt>
      <trkpt lat="10.1580484472033" lon="-75.6819278077971">
        <ele>52.321895</ele>
        <time>2019-09-10T15:23:16.000Z</time>
      </trkpt>
      <trkpt lat="10.1580467099532" lon="-75.6819257247507">
        <ele>52.321895</ele>
        <time>2019-09-10T15:23:16.100Z</time>
      </trkpt>
      <trkpt lat="10.1580449694723" lon="-75.6819236266648">
        <ele>52.321895</ele>
        <time>2019-09-10T15:23:16.200Z</time>
      </trkpt>
      <trkpt lat="10.158043223624" lon="-75.6819215372127">
        <ele>52.321895</ele>
        <time>2019-09-10T15:23:16.300Z</time>
      </trkpt>
      <trkpt lat="10.1580414648524" lon="-75.6819194477606">
        <ele>52.321895</ele>
        <time>2019-09-10T15:23:16.400Z</time>
      </trkpt>
      <trkpt lat="10.158039704309" lon="-75.6819173393001">
        <ele>52.321895</ele>
        <time>2019-09-10T15:23:16.500Z</time>
      </trkpt>
      <trkpt lat="10.1580379484034" lon="-75.6819152118314">
        <ele>52.321895</ele>
        <time>2019-09-10T15:23:16.600Z</time>
      </trkpt>
      <trkpt lat="10.158034530547" lon="-75.681910921175">
        <ele>52.321895</ele>
        <time>2019-09-10T15:23:16.800Z</time>
      </trkpt>
      <trkpt lat="10.158031176265" lon="-75.681906603155">
        <ele>52.321895</ele>
        <time>2019-09-10T15:23:17.000Z</time>
      </trkpt>
      <trkpt lat="10.15802946507" lon="-75.6819044302891">
        <ele>52.321895</ele>
        <time>2019-09-10T15:23:17.100Z</time>
      </trkpt>
      <trkpt lat="10.1580277255792" lon="-75.6819022579106">
        <ele>52.321895</ele>
        <time>2019-09-10T15:23:17.200Z</time>
      </trkpt>
      <trkpt lat="10.1580243110578" lon="-75.6818979765843">
        <ele>52.321895</ele>
        <time>2019-09-10T15:23:17.400Z</time>
      </trkpt>
      <trkpt lat="10.1580226003318" lon="-75.6818958383232">
        <ele>52.321895</ele>
        <time>2019-09-10T15:23:17.500Z</time>
      </trkpt>
      <trkpt lat="10.1580208702208" lon="-75.6818936992267">
        <ele>52.321895</ele>
        <time>2019-09-10T15:23:17.600Z</time>
      </trkpt>
      <trkpt lat="10.1580191410999" lon="-75.6818915658396">
        <ele>52.321895</ele>
        <time>2019-09-10T15:23:17.700Z</time>
      </trkpt>
      <trkpt lat="10.1580174067679" lon="-75.6818894427574">
        <ele>52.321895</ele>
        <time>2019-09-10T15:23:17.800Z</time>
      </trkpt>
      <trkpt lat="10.1580139383125" lon="-75.6818852206841">
        <ele>52.321895</ele>
        <time>2019-09-10T15:23:18.000Z</time>
      </trkpt>
      <trkpt lat="10.1580104521917" lon="-75.6818810537558">
        <ele>52.321895</ele>
        <time>2019-09-10T15:23:18.200Z</time>
      </trkpt>
      <trkpt lat="10.1580069179732" lon="-75.6818768503427">
        <ele>52.321895</ele>
        <time>2019-09-10T15:23:18.400Z</time>
      </trkpt>
      <trkpt lat="10.1580051373152" lon="-75.6818747267034">
        <ele>52.321895</ele>
        <time>2019-09-10T15:23:18.500Z</time>
      </trkpt>
      <trkpt lat="10.1580033589502" lon="-75.6818726153186">
        <ele>52.321895</ele>
        <time>2019-09-10T15:23:18.600Z</time>
      </trkpt>
      <trkpt lat="10.1580015818879" lon="-75.6818704635151">
        <ele>52.321895</ele>
        <time>2019-09-10T15:23:18.700Z</time>
      </trkpt>
      <trkpt lat="10.1579998108703" lon="-75.6818683082998">
        <ele>52.321895</ele>
        <time>2019-09-10T15:23:18.800Z</time>
      </trkpt>
      <trkpt lat="10.1579980436569" lon="-75.6818661270438">
        <ele>52.321895</ele>
        <time>2019-09-10T15:23:18.900Z</time>
      </trkpt>
      <trkpt lat="10.1579962759744" lon="-75.6818639625332">
        <ele>52.321895</ele>
        <time>2019-09-10T15:23:19.000Z</time>
      </trkpt>
      <trkpt lat="10.157994550866" lon="-75.6818618321053">
        <ele>52.321895</ele>
        <time>2019-09-10T15:23:19.100Z</time>
      </trkpt>
      <trkpt lat="10.1579928390456" lon="-75.681859730155">
        <ele>52.321895</ele>
        <time>2019-09-10T15:23:19.200Z</time>
      </trkpt>
      <trkpt lat="10.157991126131" lon="-75.6818575988219">
        <ele>52.321895</ele>
        <time>2019-09-10T15:23:19.300Z</time>
      </trkpt>
      <trkpt lat="10.1579893951862" lon="-75.6818554651911">
        <ele>52.321895</ele>
        <time>2019-09-10T15:23:19.400Z</time>
      </trkpt>
      <trkpt lat="10.1579876413651" lon="-75.6818533764701">
        <ele>52.321895</ele>
        <time>2019-09-10T15:23:19.500Z</time>
      </trkpt>
      <trkpt lat="10.1579858763923" lon="-75.6818513128498">
        <ele>52.321895</ele>
        <time>2019-09-10T15:23:19.600Z</time>
      </trkpt>
      <trkpt lat="10.1579840814562" lon="-75.6818492863758">
        <ele>52.321895</ele>
        <time>2019-09-10T15:23:19.700Z</time>
      </trkpt>
      <trkpt lat="10.1579822854779" lon="-75.6818472579521">
        <ele>52.321895</ele>
        <time>2019-09-10T15:23:19.800Z</time>
      </trkpt>
      <trkpt lat="10.1579804952317" lon="-75.6818452672319">
        <ele>52.321895</ele>
        <time>2019-09-10T15:23:19.900Z</time>
      </trkpt>
      <trkpt lat="10.1579787175441" lon="-75.6818432714287">
        <ele>52.421895</ele>
        <time>2019-09-10T15:23:20.000Z</time>
      </trkpt>
      <trkpt lat="10.1579769360524" lon="-75.6818412523352">
        <ele>52.421895</ele>
        <time>2019-09-10T15:23:20.100Z</time>
      </trkpt>
      <trkpt lat="10.1579751607618" lon="-75.6818391978709">
        <ele>52.421895</ele>
        <time>2019-09-10T15:23:20.200Z</time>
      </trkpt>
      <trkpt lat="10.1579733785406" lon="-75.6818371607787">
        <ele>52.321895</ele>
        <time>2019-09-10T15:23:20.300Z</time>
      </trkpt>
      <trkpt lat="10.157971600853" lon="-75.6818351182207">
        <ele>52.421895</ele>
        <time>2019-09-10T15:23:20.400Z</time>
      </trkpt>
      <trkpt lat="10.1579698366619" lon="-75.6818330688044">
        <ele>52.421895</ele>
        <time>2019-09-10T15:23:20.500Z</time>
      </trkpt>
      <trkpt lat="10.1579680799225" lon="-75.6818310044878">
        <ele>52.421895</ele>
        <time>2019-09-10T15:23:20.600Z</time>
      </trkpt>
      <trkpt lat="10.1579663569506" lon="-75.6818289715732">
        <ele>52.421895</ele>
        <time>2019-09-10T15:23:20.700Z</time>
      </trkpt>
      <trkpt lat="10.1579646376264" lon="-75.6818269344114">
        <ele>52.321895</ele>
        <time>2019-09-10T15:23:20.800Z</time>
      </trkpt>
      <trkpt lat="10.1579629541019" lon="-75.6818249073107">
        <ele>52.321895</ele>
        <time>2019-09-10T15:23:20.900Z</time>
      </trkpt>
      <trkpt lat="10.1579595731917" lon="-75.6818207989391">
        <ele>52.321895</ele>
        <time>2019-09-10T15:23:21.100Z</time>
      </trkpt>
      <trkpt lat="10.1579578641332" lon="-75.6818187117847">
        <ele>52.321895</ele>
        <time>2019-09-10T15:23:21.200Z</time>
      </trkpt>
      <trkpt lat="10.1579561526776" lon="-75.6818166051694">
        <ele>52.321895</ele>
        <time>2019-09-10T15:23:21.300Z</time>
      </trkpt>
      <trkpt lat="10.1579544258495" lon="-75.681814488841">
        <ele>52.321895</ele>
        <time>2019-09-10T15:23:21.400Z</time>
      </trkpt>
      <trkpt lat="10.1579526966244" lon="-75.6818123630782">
        <ele>52.321895</ele>
        <time>2019-09-10T15:23:21.500Z</time>
      </trkpt>
      <trkpt lat="10.1579509615108" lon="-75.6818102446262">
        <ele>52.321895</ele>
        <time>2019-09-10T15:23:21.600Z</time>
      </trkpt>
      <trkpt lat="10.1579492533382" lon="-75.6818081061911">
        <ele>52.321895</ele>
        <time>2019-09-10T15:23:21.700Z</time>
      </trkpt>
      <trkpt lat="10.1579475455825" lon="-75.6818059721078">
        <ele>52.321895</ele>
        <time>2019-09-10T15:23:21.800Z</time>
      </trkpt>
      <trkpt lat="10.1579458371493" lon="-75.6818038233678">
        <ele>52.321895</ele>
        <time>2019-09-10T15:23:21.900Z</time>
      </trkpt>
      <trkpt lat="10.157944116366" lon="-75.6818016899459">
        <ele>52.321895</ele>
        <time>2019-09-10T15:23:22.000Z</time>
      </trkpt>
      <trkpt lat="10.1579423945926" lon="-75.6817995631386">
        <ele>52.321895</ele>
        <time>2019-09-10T15:23:22.100Z</time>
      </trkpt>
      <trkpt lat="10.1579389009159" lon="-75.6817953262695">
        <ele>52.321895</ele>
        <time>2019-09-10T15:23:22.300Z</time>
      </trkpt>
      <trkpt lat="10.1579371303673" lon="-75.681793205659">
        <ele>52.321895</ele>
        <time>2019-09-10T15:23:22.400Z</time>
      </trkpt>
      <trkpt lat="10.1579337002129" lon="-75.6817891050857">
        <ele>52.321895</ele>
        <time>2019-09-10T15:23:22.600Z</time>
      </trkpt>
      <trkpt lat="10.1579319562406" lon="-75.6817870382974">
        <ele>52.321895</ele>
        <time>2019-09-10T15:23:22.700Z</time>
      </trkpt>
      <trkpt lat="10.1579301877764" lon="-75.681784943275">
        <ele>52.321895</ele>
        <time>2019-09-10T15:23:22.800Z</time>
      </trkpt>
      <trkpt lat="10.1579284165505" lon="-75.6817828592887">
        <ele>52.321895</ele>
        <time>2019-09-10T15:23:22.900Z</time>
      </trkpt>
      <trkpt lat="10.1579266591337" lon="-75.6817807836576">
        <ele>52.321895</ele>
        <time>2019-09-10T15:23:23.000Z</time>
      </trkpt>
      <trkpt lat="10.157924901248" lon="-75.6817787021082">
        <ele>52.321895</ele>
        <time>2019-09-10T15:23:23.100Z</time>
      </trkpt>
      <trkpt lat="10.157923151283" lon="-75.6817766188878">
        <ele>52.321895</ele>
        <time>2019-09-10T15:23:23.200Z</time>
      </trkpt>
      <trkpt lat="10.1579214075712" lon="-75.6817745494187">
        <ele>52.321895</ele>
        <time>2019-09-10T15:23:23.300Z</time>
      </trkpt>
      <trkpt lat="10.1579196694352" lon="-75.6817724833615">
        <ele>52.321895</ele>
        <time>2019-09-10T15:23:23.400Z</time>
      </trkpt>
      <trkpt lat="10.1579162106201" lon="-75.6817683008018">
        <ele>52.321895</ele>
        <time>2019-09-10T15:23:23.600Z</time>
      </trkpt>
      <trkpt lat="10.15791448374" lon="-75.681766188477">
        <ele>52.321895</ele>
        <time>2019-09-10T15:23:23.700Z</time>
      </trkpt>
      <trkpt lat="10.1579127513882" lon="-75.6817640764656">
        <ele>52.321895</ele>
        <time>2019-09-10T15:23:23.800Z</time>
      </trkpt>
      <trkpt lat="10.1579110384736" lon="-75.6817619554026">
        <ele>52.321895</ele>
        <time>2019-09-10T15:23:23.900Z</time>
      </trkpt>
      <trkpt lat="10.1579093271222" lon="-75.6817598338522">
        <ele>52.321895</ele>
        <time>2019-09-10T15:23:24.000Z</time>
      </trkpt>
      <trkpt lat="10.157907615823" lon="-75.681757680656">
        <ele>52.321895</ele>
        <time>2019-09-10T15:23:24.100Z</time>
      </trkpt>
      <trkpt lat="10.1579058938933" lon="-75.6817555252318">
        <ele>52.321895</ele>
        <time>2019-09-10T15:23:24.200Z</time>
      </trkpt>
      <trkpt lat="10.1579041910359" lon="-75.6817533517741">
        <ele>52.321895</ele>
        <time>2019-09-10T15:23:24.300Z</time>
      </trkpt>
      <trkpt lat="10.1579024904193" lon="-75.6817511896309">
        <ele>52.321895</ele>
        <time>2019-09-10T15:23:24.400Z</time>
      </trkpt>
      <trkpt lat="10.15790080653" lon="-75.6817490742077">
        <ele>52.321895</ele>
        <time>2019-09-10T15:23:24.500Z</time>
      </trkpt>
      <trkpt lat="10.1578991168044" lon="-75.6817469813438">
        <ele>52.321895</ele>
        <time>2019-09-10T15:23:24.600Z</time>
      </trkpt>
      <trkpt lat="10.1578974206693" lon="-75.6817448778966">
        <ele>52.321895</ele>
        <time>2019-09-10T15:23:24.700Z</time>
      </trkpt>
      <trkpt lat="10.1578957113502" lon="-75.6817427547447">
        <ele>52.421895</ele>
        <time>2019-09-10T15:23:24.800Z</time>
      </trkpt>
      <trkpt lat="10.1578939600825" lon="-75.6817405816351">
        <ele>52.421895</ele>
        <time>2019-09-10T15:23:24.900Z</time>
      </trkpt>
      <trkpt lat="10.1578922013108" lon="-75.6817384027813">
        <ele>52.321895</ele>
        <time>2019-09-10T15:23:25.000Z</time>
      </trkpt>
      <trkpt lat="10.1578904795375" lon="-75.6817362709956">
        <ele>52.321895</ele>
        <time>2019-09-10T15:23:25.100Z</time>
      </trkpt>
      <trkpt lat="10.1578870584502" lon="-75.6817320582524">
        <ele>52.321895</ele>
        <time>2019-09-10T15:23:25.300Z</time>
      </trkpt>
      <trkpt lat="10.15788533157" lon="-75.6817299375375">
        <ele>52.421895</ele>
        <time>2019-09-10T15:23:25.400Z</time>
      </trkpt>
      <trkpt lat="10.1578836430951" lon="-75.6817278555704">
        <ele>52.421895</ele>
        <time>2019-09-10T15:23:25.500Z</time>
      </trkpt>
      <trkpt lat="10.1578819553497" lon="-75.6817257799741">
        <ele>52.421895</ele>
        <time>2019-09-10T15:23:25.600Z</time>
      </trkpt>
      <trkpt lat="10.1578802584328" lon="-75.6817236932375">
        <ele>52.421895</ele>
        <time>2019-09-10T15:23:25.700Z</time>
      </trkpt>
      <trkpt lat="10.1578785386397" lon="-75.681721585717">
        <ele>52.321895</ele>
        <time>2019-09-10T15:23:25.800Z</time>
      </trkpt>
      <trkpt lat="10.1578768113426" lon="-75.6817194828268">
        <ele>52.321895</ele>
        <time>2019-09-10T15:23:25.900Z</time>
      </trkpt>
      <trkpt lat="10.1578750780529" lon="-75.6817173765944">
        <ele>52.321895</ele>
        <time>2019-09-10T15:23:26.000Z</time>
      </trkpt>
      <trkpt lat="10.1578733384578" lon="-75.6817152469672">
        <ele>52.321895</ele>
        <time>2019-09-10T15:23:26.100Z</time>
      </trkpt>
      <trkpt lat="10.1578715929222" lon="-75.6817131149031">
        <ele>52.321895</ele>
        <time>2019-09-10T15:23:26.200Z</time>
      </trkpt>
      <trkpt lat="10.1578698443641" lon="-75.6817109682171">
        <ele>52.321895</ele>
        <time>2019-09-10T15:23:26.300Z</time>
      </trkpt>
      <trkpt lat="10.1578680939822" lon="-75.6817088270666">
        <ele>52.321895</ele>
        <time>2019-09-10T15:23:26.400Z</time>
      </trkpt>
      <trkpt lat="10.1578663451116" lon="-75.6817066946543">
        <ele>52.321895</ele>
        <time>2019-09-10T15:23:26.500Z</time>
      </trkpt>
      <trkpt lat="10.1578645989506" lon="-75.6817045756801">
        <ele>52.321895</ele>
        <time>2019-09-10T15:23:26.600Z</time>
      </trkpt>
      <trkpt lat="10.1578628337694" lon="-75.6817024445211">
        <ele>52.321895</ele>
        <time>2019-09-10T15:23:26.700Z</time>
      </trkpt>
      <trkpt lat="10.1578610662954" lon="-75.6817003094977">
        <ele>52.421895</ele>
        <time>2019-09-10T15:23:26.800Z</time>
      </trkpt>
      <trkpt lat="10.157859306221" lon="-75.681698181089">
        <ele>52.421895</ele>
        <time>2019-09-10T15:23:26.900Z</time>
      </trkpt>
      <trkpt lat="10.1578575609459" lon="-75.6816960581113">
        <ele>52.421895</ele>
        <time>2019-09-10T15:23:27.000Z</time>
      </trkpt>
      <trkpt lat="10.1578558221325" lon="-75.6816939458213">
        <ele>52.421895</ele>
        <time>2019-09-10T15:23:27.100Z</time>
      </trkpt>
      <trkpt lat="10.1578540877485" lon="-75.6816918384749">
        <ele>52.421895</ele>
        <time>2019-09-10T15:23:27.200Z</time>
      </trkpt>
      <trkpt lat="10.1578523303317" lon="-75.6816897748546">
        <ele>52.421895</ele>
        <time>2019-09-10T15:23:27.300Z</time>
      </trkpt>
      <trkpt lat="10.1578505678602" lon="-75.6816877180578">
        <ele>52.421895</ele>
        <time>2019-09-10T15:23:27.400Z</time>
      </trkpt>
      <trkpt lat="10.1578487841278" lon="-75.6816856375876">
        <ele>52.421895</ele>
        <time>2019-09-10T15:23:27.500Z</time>
      </trkpt>
      <trkpt lat="10.1578470076387" lon="-75.6816835395017">
        <ele>52.421895</ele>
        <time>2019-09-10T15:23:27.600Z</time>
      </trkpt>
      <trkpt lat="10.1578452565794" lon="-75.6816814674216">
        <ele>52.421895</ele>
        <time>2019-09-10T15:23:27.700Z</time>
      </trkpt>
      <trkpt lat="10.1578435244361" lon="-75.6816793995192">
        <ele>52.421895</ele>
        <time>2019-09-10T15:23:27.800Z</time>
      </trkpt>
      <trkpt lat="10.1578418007868" lon="-75.6816773274391">
        <ele>52.421895</ele>
        <time>2019-09-10T15:23:27.900Z</time>
      </trkpt>
      <trkpt lat="10.1578400775543" lon="-75.6816752395536">
        <ele>52.421895</ele>
        <time>2019-09-10T15:23:28.000Z</time>
      </trkpt>
      <trkpt lat="10.1578366320794" lon="-75.6816710400397">
        <ele>52.421895</ele>
        <time>2019-09-10T15:23:28.200Z</time>
      </trkpt>
      <trkpt lat="10.1578349258349" lon="-75.681668931997">
        <ele>52.421895</ele>
        <time>2019-09-10T15:23:28.300Z</time>
      </trkpt>
      <trkpt lat="10.1578332183918" lon="-75.6816668224921">
        <ele>52.421895</ele>
        <time>2019-09-10T15:23:28.400Z</time>
      </trkpt>
      <trkpt lat="10.1578315007352" lon="-75.6816647345718">
        <ele>52.421895</ele>
        <time>2019-09-10T15:23:28.500Z</time>
      </trkpt>
      <trkpt lat="10.1578297665596" lon="-75.6816626506899">
        <ele>52.421895</ele>
        <time>2019-09-10T15:23:28.600Z</time>
      </trkpt>
      <trkpt lat="10.1578280223788" lon="-75.6816605689664">
        <ele>52.421895</ele>
        <time>2019-09-10T15:23:28.700Z</time>
      </trkpt>
      <trkpt lat="10.1578262732997" lon="-75.6816584767988">
        <ele>52.421895</ele>
        <time>2019-09-10T15:23:28.800Z</time>
      </trkpt>
      <trkpt lat="10.1578245263049" lon="-75.6816563891222">
        <ele>52.421895</ele>
        <time>2019-09-10T15:23:28.900Z</time>
      </trkpt>
      <trkpt lat="10.1578227785286" lon="-75.6816542994264">
        <ele>52.421895</ele>
        <time>2019-09-10T15:23:29.000Z</time>
      </trkpt>
      <trkpt lat="10.1578210311691" lon="-75.6816522121327">
        <ele>52.421895</ele>
        <time>2019-09-10T15:23:29.100Z</time>
      </trkpt>
      <trkpt lat="10.1578192839138" lon="-75.6816501207659">
        <ele>52.421895</ele>
        <time>2019-09-10T15:23:29.200Z</time>
      </trkpt>
      <trkpt lat="10.1578175177425" lon="-75.6816480004687">
        <ele>52.421895</ele>
        <time>2019-09-10T15:23:29.300Z</time>
      </trkpt>
      <trkpt lat="10.1578157494347" lon="-75.6816458748799">
        <ele>52.421895</ele>
        <time>2019-09-10T15:23:29.400Z</time>
      </trkpt>
      <trkpt lat="10.1578140108819" lon="-75.6816437723378">
        <ele>52.421895</ele>
        <time>2019-09-10T15:23:29.500Z</time>
      </trkpt>
      <trkpt lat="10.15781228322" lon="-75.681641683582">
        <ele>52.421895</ele>
        <time>2019-09-10T15:23:29.600Z</time>
      </trkpt>
      <trkpt lat="10.1578087853223" lon="-75.6816373805667">
        <ele>52.421895</ele>
        <time>2019-09-10T15:23:29.800Z</time>
      </trkpt>
      <trkpt lat="10.1578070374417" lon="-75.6816352301905">
        <ele>52.421895</ele>
        <time>2019-09-10T15:23:29.900Z</time>
      </trkpt>
      <trkpt lat="10.1578052974819" lon="-75.6816331001803">
        <ele>52.421895</ele>
        <time>2019-09-10T15:23:30.000Z</time>
      </trkpt>
      <trkpt lat="10.1578035925401" lon="-75.6816309743478">
        <ele>52.321895</ele>
        <time>2019-09-10T15:23:30.100Z</time>
      </trkpt>
      <trkpt lat="10.1578018938516" lon="-75.6816288537026">
        <ele>52.321895</ele>
        <time>2019-09-10T15:23:30.200Z</time>
      </trkpt>
      <trkpt lat="10.1578001969347" lon="-75.6816267157201">
        <ele>52.321895</ele>
        <time>2019-09-10T15:23:30.300Z</time>
      </trkpt>
      <trkpt lat="10.1577984850102" lon="-75.6816245825071">
        <ele>52.321895</ele>
        <time>2019-09-10T15:23:30.400Z</time>
      </trkpt>
      <trkpt lat="10.1577967643832" lon="-75.6816224394418">
        <ele>52.321895</ele>
        <time>2019-09-10T15:23:30.500Z</time>
      </trkpt>
      <trkpt lat="10.1577950385453" lon="-75.6816203117641">
        <ele>52.421895</ele>
        <time>2019-09-10T15:23:30.600Z</time>
      </trkpt>
      <trkpt lat="10.1577933547602" lon="-75.6816182300059">
        <ele>52.421895</ele>
        <time>2019-09-10T15:23:30.700Z</time>
      </trkpt>
      <trkpt lat="10.1577916816578" lon="-75.6816161713987">
        <ele>52.421895</ele>
        <time>2019-09-10T15:23:30.800Z</time>
      </trkpt>
      <trkpt lat="10.1577899798947" lon="-75.6816140942707">
        <ele>52.421895</ele>
        <time>2019-09-10T15:23:30.900Z</time>
      </trkpt>
      <trkpt lat="10.1577882578087" lon="-75.6816120040178">
        <ele>52.421895</ele>
        <time>2019-09-10T15:23:31.000Z</time>
      </trkpt>
      <trkpt lat="10.1577865454151" lon="-75.6816099011276">
        <ele>52.421895</ele>
        <time>2019-09-10T15:23:31.100Z</time>
      </trkpt>
      <trkpt lat="10.157784833699" lon="-75.6816077991773">
        <ele>52.421895</ele>
        <time>2019-09-10T15:23:31.200Z</time>
      </trkpt>
      <trkpt lat="10.1577830991065" lon="-75.6816057096556">
        <ele>52.421895</ele>
        <time>2019-09-10T15:23:31.300Z</time>
      </trkpt>
      <trkpt lat="10.1577813551863" lon="-75.6816036259477">
        <ele>52.421895</ele>
        <time>2019-09-10T15:23:31.400Z</time>
      </trkpt>
      <trkpt lat="10.1577796233036" lon="-75.6816015298462">
        <ele>52.421895</ele>
        <time>2019-09-10T15:23:31.500Z</time>
      </trkpt>
      <trkpt lat="10.15777789387" lon="-75.681599426573">
        <ele>52.421895</ele>
        <time>2019-09-10T15:23:31.600Z</time>
      </trkpt>
      <trkpt lat="10.1577761587564" lon="-75.6815973201318">
        <ele>52.421895</ele>
        <time>2019-09-10T15:23:31.700Z</time>
      </trkpt>
      <trkpt lat="10.1577744183276" lon="-75.6815952158142">
        <ele>52.421895</ele>
        <time>2019-09-10T15:23:31.800Z</time>
      </trkpt>
      <trkpt lat="10.1577726760228" lon="-75.6815931105566">
        <ele>52.421895</ele>
        <time>2019-09-10T15:23:31.900Z</time>
      </trkpt>
      <trkpt lat="10.1577709336658" lon="-75.6815910082234">
        <ele>52.421895</ele>
        <time>2019-09-10T15:23:32.000Z</time>
      </trkpt>
      <trkpt lat="10.1577691924554" lon="-75.6815889082575">
        <ele>52.421895</ele>
        <time>2019-09-10T15:23:32.100Z</time>
      </trkpt>
      <trkpt lat="10.1577674504632" lon="-75.6815868085005">
        <ele>52.421895</ele>
        <time>2019-09-10T15:23:32.200Z</time>
      </trkpt>
      <trkpt lat="10.1577657093048" lon="-75.681584735202">
        <ele>52.421895</ele>
        <time>2019-09-10T15:23:32.300Z</time>
      </trkpt>
      <trkpt lat="10.1577639654888" lon="-75.6815826652456">
        <ele>52.421895</ele>
        <time>2019-09-10T15:23:32.400Z</time>
      </trkpt>
      <trkpt lat="10.1577622527305" lon="-75.6815805926433">
        <ele>52.421895</ele>
        <time>2019-09-10T15:23:32.500Z</time>
      </trkpt>
      <trkpt lat="10.157760545079" lon="-75.6815785117902">
        <ele>52.421895</ele>
        <time>2019-09-10T15:23:32.600Z</time>
      </trkpt>
      <trkpt lat="10.1577588408668" lon="-75.6815764558985">
        <ele>52.421895</ele>
        <time>2019-09-10T15:23:32.700Z</time>
      </trkpt>
      <trkpt lat="10.1577571221158" lon="-75.6815743987361">
        <ele>52.421895</ele>
        <time>2019-09-10T15:23:32.800Z</time>
      </trkpt>
      <trkpt lat="10.1577554213949" lon="-75.6815723342629">
        <ele>52.421895</ele>
        <time>2019-09-10T15:23:32.900Z</time>
      </trkpt>
      <trkpt lat="10.1577537155673" lon="-75.68157025945">
        <ele>52.421895</ele>
        <time>2019-09-10T15:23:33.000Z</time>
      </trkpt>
      <trkpt lat="10.157752051532" lon="-75.6815682267443">
        <ele>52.321895</ele>
        <time>2019-09-10T15:23:33.100Z</time>
      </trkpt>
      <trkpt lat="10.1577503844222" lon="-75.6815662009665">
        <ele>52.321895</ele>
        <time>2019-09-10T15:23:33.200Z</time>
      </trkpt>
      <trkpt lat="10.1577487101213" lon="-75.6815641837529">
        <ele>52.321895</ele>
        <time>2019-09-10T15:23:33.300Z</time>
      </trkpt>
      <trkpt lat="10.157747011589" lon="-75.6815621459992">
        <ele>52.321895</ele>
        <time>2019-09-10T15:23:33.400Z</time>
      </trkpt>
      <trkpt lat="10.1577453286378" lon="-75.6815600894287">
        <ele>52.321895</ele>
        <time>2019-09-10T15:23:33.500Z</time>
      </trkpt>
      <trkpt lat="10.1577436357855" lon="-75.6815580151206">
        <ele>52.321895</ele>
        <time>2019-09-10T15:23:33.600Z</time>
      </trkpt>
      <trkpt lat="10.1577419506456" lon="-75.681555946783">
        <ele>52.321895</ele>
        <time>2019-09-10T15:23:33.700Z</time>
      </trkpt>
      <trkpt lat="10.1577402540936" lon="-75.6815538794724">
        <ele>52.321895</ele>
        <time>2019-09-10T15:23:33.800Z</time>
      </trkpt>
      <trkpt lat="10.1577385430028" lon="-75.681551795399">
        <ele>52.321895</ele>
        <time>2019-09-10T15:23:33.900Z</time>
      </trkpt>
      <trkpt lat="10.1577368204999" lon="-75.68154970163">
        <ele>52.321895</ele>
        <time>2019-09-10T15:23:34.000Z</time>
      </trkpt>
      <trkpt lat="10.1577350868975" lon="-75.6815475957806">
        <ele>52.321895</ele>
        <time>2019-09-10T15:23:34.100Z</time>
      </trkpt>
      <trkpt lat="10.1577316301147" lon="-75.6815434087647">
        <ele>52.321895</ele>
        <time>2019-09-10T15:23:34.300Z</time>
      </trkpt>
      <trkpt lat="10.1577299167311" lon="-75.6815413387387">
        <ele>52.321895</ele>
        <time>2019-09-10T15:23:34.400Z</time>
      </trkpt>
      <trkpt lat="10.1577282212734" lon="-75.6815392611058">
        <ele>52.321895</ele>
        <time>2019-09-10T15:23:34.500Z</time>
      </trkpt>
      <trkpt lat="10.1577265261283" lon="-75.6815371757095">
        <ele>52.321895</ele>
        <time>2019-09-10T15:23:34.600Z</time>
      </trkpt>
      <trkpt lat="10.15772482473" lon="-75.6815350796776">
        <ele>52.321895</ele>
        <time>2019-09-10T15:23:34.700Z</time>
      </trkpt>
      <trkpt lat="10.1577231136393" lon="-75.681532978824">
        <ele>52.321895</ele>
        <time>2019-09-10T15:23:34.800Z</time>
      </trkpt>
      <trkpt lat="10.1577214130226" lon="-75.6815308907296">
        <ele>52.321895</ele>
        <time>2019-09-10T15:23:34.900Z</time>
      </trkpt>
      <trkpt lat="10.1577197072471" lon="-75.6815288053159">
        <ele>52.321895</ele>
        <time>2019-09-10T15:23:35.000Z</time>
      </trkpt>
      <trkpt lat="10.1577179841188" lon="-75.6815266854713">
        <ele>52.321895</ele>
        <time>2019-09-10T15:23:35.100Z</time>
      </trkpt>
      <trkpt lat="10.157716247025" lon="-75.6815245504828">
        <ele>52.321895</ele>
        <time>2019-09-10T15:23:35.200Z</time>
      </trkpt>
      <trkpt lat="10.157714469129" lon="-75.6815223819338">
        <ele>52.321895</ele>
        <time>2019-09-10T15:23:35.300Z</time>
      </trkpt>
      <trkpt lat="10.1577126820094" lon="-75.6815202196513">
        <ele>52.321895</ele>
        <time>2019-09-10T15:23:35.400Z</time>
      </trkpt>
      <trkpt lat="10.1577109065625" lon="-75.6815180928963">
        <ele>52.321895</ele>
        <time>2019-09-10T15:23:35.500Z</time>
      </trkpt>
      <trkpt lat="10.1577091432052" lon="-75.6815159878302">
        <ele>52.321895</ele>
        <time>2019-09-10T15:23:35.600Z</time>
      </trkpt>
      <trkpt lat="10.1577073883418" lon="-75.6815138712929">
        <ele>52.321895</ele>
        <time>2019-09-10T15:23:35.700Z</time>
      </trkpt>
      <trkpt lat="10.1577056299871" lon="-75.681511745356">
        <ele>52.321895</ele>
        <time>2019-09-10T15:23:35.800Z</time>
      </trkpt>
      <trkpt lat="10.1577038371354" lon="-75.6815096075824">
        <ele>52.321895</ele>
        <time>2019-09-10T15:23:35.900Z</time>
      </trkpt>
      <trkpt lat="10.1577020334969" lon="-75.6815074753964">
        <ele>52.321895</ele>
        <time>2019-09-10T15:23:36.000Z</time>
      </trkpt>
      <trkpt lat="10.157700216935" lon="-75.6815053311996">
        <ele>52.321895</ele>
        <time>2019-09-10T15:23:36.100Z</time>
      </trkpt>
      <trkpt lat="10.1576984129317" lon="-75.6815031964026">
        <ele>52.321895</ele>
        <time>2019-09-10T15:23:36.200Z</time>
      </trkpt>
      <trkpt lat="10.1576966324301" lon="-75.6815010984211">
        <ele>52.321895</ele>
        <time>2019-09-10T15:23:36.300Z</time>
      </trkpt>
      <trkpt lat="10.1576948716783" lon="-75.6814990186472">
        <ele>52.321895</ele>
        <time>2019-09-10T15:23:36.400Z</time>
      </trkpt>
      <trkpt lat="10.1576931167628" lon="-75.6814969513366">
        <ele>52.421895</ele>
        <time>2019-09-10T15:23:36.500Z</time>
      </trkpt>
      <trkpt lat="10.1576913634107" lon="-75.6814948773592">
        <ele>52.421895</ele>
        <time>2019-09-10T15:23:36.600Z</time>
      </trkpt>
      <trkpt lat="10.1576896050038" lon="-75.6814928022329">
        <ele>52.421895</ele>
        <time>2019-09-10T15:23:36.700Z</time>
      </trkpt>
      <trkpt lat="10.1576878481082" lon="-75.6814907186817">
        <ele>52.421895</ele>
        <time>2019-09-10T15:23:36.800Z</time>
      </trkpt>
      <trkpt lat="10.1576860979868" lon="-75.6814886560884">
        <ele>52.421895</ele>
        <time>2019-09-10T15:23:36.900Z</time>
      </trkpt>
      <trkpt lat="10.157684351878" lon="-75.681486595114">
        <ele>52.421895</ele>
        <time>2019-09-10T15:23:37.000Z</time>
      </trkpt>
      <trkpt lat="10.1576826107196" lon="-75.6814845525734">
        <ele>52.421895</ele>
        <time>2019-09-10T15:23:37.100Z</time>
      </trkpt>
      <trkpt lat="10.1576808701344" lon="-75.6814825007549">
        <ele>52.421895</ele>
        <time>2019-09-10T15:23:37.200Z</time>
      </trkpt>
      <trkpt lat="10.1576791104248" lon="-75.6814804074733">
        <ele>52.421895</ele>
        <time>2019-09-10T15:23:37.300Z</time>
      </trkpt>
      <trkpt lat="10.1576773480576" lon="-75.6814782917194">
        <ele>52.421895</ele>
        <time>2019-09-10T15:23:37.400Z</time>
      </trkpt>
      <trkpt lat="10.1576755920999" lon="-75.681476158489">
        <ele>52.421895</ele>
        <time>2019-09-10T15:23:37.500Z</time>
      </trkpt>
      <trkpt lat="10.1576738428645" lon="-75.6814740303065">
        <ele>52.421895</ele>
        <time>2019-09-10T15:23:37.600Z</time>
      </trkpt>
      <trkpt lat="10.1576720972246" lon="-75.6814719521863">
        <ele>52.421895</ele>
        <time>2019-09-10T15:23:37.700Z</time>
      </trkpt>
      <trkpt lat="10.1576703594534" lon="-75.6814698886008">
        <ele>52.421895</ele>
        <time>2019-09-10T15:23:37.800Z</time>
      </trkpt>
      <trkpt lat="10.1576686100616" lon="-75.6814678014638">
        <ele>52.421895</ele>
        <time>2019-09-10T15:23:37.900Z</time>
      </trkpt>
      <trkpt lat="10.1576651127892" lon="-75.6814635790423">
        <ele>52.421895</ele>
        <time>2019-09-10T15:23:38.100Z</time>
      </trkpt>
      <trkpt lat="10.157663375956" lon="-75.6814614673442">
        <ele>52.421895</ele>
        <time>2019-09-10T15:23:38.200Z</time>
      </trkpt>
      <trkpt lat="10.1576616698678" lon="-75.6814593567427">
        <ele>52.421895</ele>
        <time>2019-09-10T15:23:38.300Z</time>
      </trkpt>
      <trkpt lat="10.1576599708145" lon="-75.6814572453754">
        <ele>52.421895</ele>
        <time>2019-09-10T15:23:38.400Z</time>
      </trkpt>
      <trkpt lat="10.157658309541" lon="-75.6814551387426">
        <ele>52.421895</ele>
        <time>2019-09-10T15:23:38.500Z</time>
      </trkpt>
      <trkpt lat="10.1576566471733" lon="-75.6814530341465">
        <ele>52.421895</ele>
        <time>2019-09-10T15:23:38.600Z</time>
      </trkpt>
      <trkpt lat="10.1576549912151" lon="-75.6814509638768">
        <ele>52.421895</ele>
        <time>2019-09-10T15:23:38.700Z</time>
      </trkpt>
      <trkpt lat="10.1576533113904" lon="-75.6814488977673">
        <ele>52.421895</ele>
        <time>2019-09-10T15:23:38.800Z</time>
      </trkpt>
      <trkpt lat="10.1576516121808" lon="-75.6814468082107">
        <ele>52.421895</ele>
        <time>2019-09-10T15:23:38.900Z</time>
      </trkpt>
      <trkpt lat="10.1576498899384" lon="-75.6814446959382">
        <ele>52.421895</ele>
        <time>2019-09-10T15:23:39.000Z</time>
      </trkpt>
      <trkpt lat="10.1576481483632" lon="-75.6814425610715">
        <ele>52.421895</ele>
        <time>2019-09-10T15:23:39.100Z</time>
      </trkpt>
      <trkpt lat="10.1576464007431" lon="-75.6814404258567">
        <ele>52.421895</ele>
        <time>2019-09-10T15:23:39.200Z</time>
      </trkpt>
      <trkpt lat="10.1576446667759" lon="-75.6814382968039">
        <ele>52.421895</ele>
        <time>2019-09-10T15:23:39.300Z</time>
      </trkpt>
      <trkpt lat="10.1576429398437" lon="-75.6814361848621">
        <ele>52.421895</ele>
        <time>2019-09-10T15:23:39.400Z</time>
      </trkpt>
      <trkpt lat="10.1576412075961" lon="-75.6814340529546">
        <ele>52.421895</ele>
        <time>2019-09-10T15:23:39.500Z</time>
      </trkpt>
      <trkpt lat="10.1576394710234" lon="-75.6814319168521">
        <ele>52.421895</ele>
        <time>2019-09-10T15:23:39.600Z</time>
      </trkpt>
      <trkpt lat="10.157637736431" lon="-75.6814297575897">
        <ele>52.421895</ele>
        <time>2019-09-10T15:23:39.700Z</time>
      </trkpt>
      <trkpt lat="10.1576360015258" lon="-75.681427608519">
        <ele>52.421895</ele>
        <time>2019-09-10T15:23:39.800Z</time>
      </trkpt>
      <trkpt lat="10.1576342697994" lon="-75.6814254676643">
        <ele>52.421895</ele>
        <time>2019-09-10T15:23:39.900Z</time>
      </trkpt>
      <trkpt lat="10.1576325364054" lon="-75.6814233429024">
        <ele>52.421895</ele>
        <time>2019-09-10T15:23:40.000Z</time>
      </trkpt>
      <trkpt lat="10.1576307990511" lon="-75.681421208201">
        <ele>52.421895</ele>
        <time>2019-09-10T15:23:40.100Z</time>
      </trkpt>
      <trkpt lat="10.1576290633643" lon="-75.6814190828647">
        <ele>52.421895</ele>
        <time>2019-09-10T15:23:40.200Z</time>
      </trkpt>
      <trkpt lat="10.1576273518566" lon="-75.681416970479">
        <ele>52.421895</ele>
        <time>2019-09-10T15:23:40.300Z</time>
      </trkpt>
      <trkpt lat="10.1576256467064" lon="-75.6814148689204">
        <ele>52.421895</ele>
        <time>2019-09-10T15:23:40.400Z</time>
      </trkpt>
      <trkpt lat="10.1576238890291" lon="-75.6814126817982">
        <ele>52.421895</ele>
        <time>2019-09-10T15:23:40.500Z</time>
      </trkpt>
      <trkpt lat="10.1576221165525" lon="-75.6814104856594">
        <ele>52.421895</ele>
        <time>2019-09-10T15:23:40.600Z</time>
      </trkpt>
      <trkpt lat="10.1576203836796" lon="-75.6814083492087">
        <ele>52.321895</ele>
        <time>2019-09-10T15:23:40.700Z</time>
      </trkpt>
      <trkpt lat="10.1576186644596" lon="-75.681406250792">
        <ele>52.321895</ele>
        <time>2019-09-10T15:23:40.800Z</time>
      </trkpt>
      <trkpt lat="10.1576169437806" lon="-75.6814041191108">
        <ele>52.321895</ele>
        <time>2019-09-10T15:23:40.900Z</time>
      </trkpt>
      <trkpt lat="10.1576152074684" lon="-75.681401976324">
        <ele>52.321895</ele>
        <time>2019-09-10T15:23:41.000Z</time>
      </trkpt>
      <trkpt lat="10.1576134902287" lon="-75.6813998725112">
        <ele>52.321895</ele>
        <time>2019-09-10T15:23:41.100Z</time>
      </trkpt>
      <trkpt lat="10.1576117714256" lon="-75.6813977813967">
        <ele>52.321895</ele>
        <time>2019-09-10T15:23:41.200Z</time>
      </trkpt>
      <trkpt lat="10.1576100313615" lon="-75.6813956736761">
        <ele>52.421895</ele>
        <time>2019-09-10T15:23:41.300Z</time>
      </trkpt>
      <trkpt lat="10.1576082719124" lon="-75.6813935543537">
        <ele>52.421895</ele>
        <time>2019-09-10T15:23:41.400Z</time>
      </trkpt>
      <trkpt lat="10.1576065119423" lon="-75.6813914147698">
        <ele>52.421895</ele>
        <time>2019-09-10T15:23:41.500Z</time>
      </trkpt>
      <trkpt lat="10.1576047564536" lon="-75.6813892785367">
        <ele>52.421895</ele>
        <time>2019-09-10T15:23:41.600Z</time>
      </trkpt>
      <trkpt lat="10.1576030098236" lon="-75.6813871548975">
        <ele>52.421895</ele>
        <time>2019-09-10T15:23:41.700Z</time>
      </trkpt>
      <trkpt lat="10.1576012587122" lon="-75.6813850493527">
        <ele>52.421895</ele>
        <time>2019-09-10T15:23:41.800Z</time>
      </trkpt>
      <trkpt lat="10.1575977774377" lon="-75.6813808724415">
        <ele>52.421895</ele>
        <time>2019-09-10T15:23:42.000Z</time>
      </trkpt>
      <trkpt lat="10.1575960168422" lon="-75.6813787874717">
        <ele>52.421895</ele>
        <time>2019-09-10T15:23:42.100Z</time>
      </trkpt>
      <trkpt lat="10.1575942434276" lon="-75.6813767053914">
        <ele>52.421895</ele>
        <time>2019-09-10T15:23:42.200Z</time>
      </trkpt>
      <trkpt lat="10.1575924740776" lon="-75.6813746213963">
        <ele>52.421895</ele>
        <time>2019-09-10T15:23:42.300Z</time>
      </trkpt>
      <trkpt lat="10.157590708688" lon="-75.6813725397076">
        <ele>52.421895</ele>
        <time>2019-09-10T15:23:42.400Z</time>
      </trkpt>
      <trkpt lat="10.157588960182" lon="-75.6813704516132">
        <ele>52.421895</ele>
        <time>2019-09-10T15:23:42.500Z</time>
      </trkpt>
      <trkpt lat="10.1575872160534" lon="-75.6813683634666">
        <ele>52.421895</ele>
        <time>2019-09-10T15:23:42.600Z</time>
      </trkpt>
      <trkpt lat="10.1575854623365" lon="-75.6813662636922">
        <ele>52.421895</ele>
        <time>2019-09-10T15:23:42.700Z</time>
      </trkpt>
      <trkpt lat="10.1575836993439" lon="-75.6813641630301">
        <ele>52.421895</ele>
        <time>2019-09-10T15:23:42.800Z</time>
      </trkpt>
      <trkpt lat="10.157581948024" lon="-75.6813620763456">
        <ele>52.421895</ele>
        <time>2019-09-10T15:23:42.900Z</time>
      </trkpt>
      <trkpt lat="10.1575802044165" lon="-75.6813599973116">
        <ele>52.421895</ele>
        <time>2019-09-10T15:23:43.000Z</time>
      </trkpt>
      <trkpt lat="10.1575784696677" lon="-75.6813579117542">
        <ele>52.421895</ele>
        <time>2019-09-10T15:23:43.100Z</time>
      </trkpt>
      <trkpt lat="10.1575767318964" lon="-75.6813558238731">
        <ele>52.421895</ele>
        <time>2019-09-10T15:23:43.200Z</time>
      </trkpt>
      <trkpt lat="10.1575750012122" lon="-75.6813537319492">
        <ele>52.421895</ele>
        <time>2019-09-10T15:23:43.300Z</time>
      </trkpt>
      <trkpt lat="10.1575732685478" lon="-75.6813516411654">
        <ele>52.421895</ele>
        <time>2019-09-10T15:23:43.400Z</time>
      </trkpt>
      <trkpt lat="10.1575715604794" lon="-75.6813495719749">
        <ele>52.421895</ele>
        <time>2019-09-10T15:23:43.500Z</time>
      </trkpt>
      <trkpt lat="10.1575698523068" lon="-75.6813475141554">
        <ele>52.421895</ele>
        <time>2019-09-10T15:23:43.600Z</time>
      </trkpt>
      <trkpt lat="10.1575681258956" lon="-75.6813454458353">
        <ele>52.421895</ele>
        <time>2019-09-10T15:23:43.700Z</time>
      </trkpt>
      <trkpt lat="10.1575663865611" lon="-75.6813433677411">
        <ele>52.421895</ele>
        <time>2019-09-10T15:23:43.800Z</time>
      </trkpt>
      <trkpt lat="10.1575646755745" lon="-75.6813412744726">
        <ele>52.421895</ele>
        <time>2019-09-10T15:23:43.900Z</time>
      </trkpt>
      <trkpt lat="10.1575629727171" lon="-75.6813391802161">
        <ele>52.421895</ele>
        <time>2019-09-10T15:23:44.000Z</time>
      </trkpt>
      <trkpt lat="10.1575612849717" lon="-75.6813371244724">
        <ele>52.421895</ele>
        <time>2019-09-10T15:23:44.100Z</time>
      </trkpt>
      <trkpt lat="10.1575595921195" lon="-75.6813350807786">
        <ele>52.421895</ele>
        <time>2019-09-10T15:23:44.200Z</time>
      </trkpt>
      <trkpt lat="10.1575578912423" lon="-75.6813330526292">
        <ele>52.421895</ele>
        <time>2019-09-10T15:23:44.300Z</time>
      </trkpt>
      <trkpt lat="10.1575561780671" lon="-75.6813310139268">
        <ele>52.421895</ele>
        <time>2019-09-10T15:23:44.400Z</time>
      </trkpt>
      <trkpt lat="10.15755444978" lon="-75.6813289596758">
        <ele>52.421895</ele>
        <time>2019-09-10T15:23:44.500Z</time>
      </trkpt>
      <trkpt lat="10.157552715448" lon="-75.6813268878133">
        <ele>52.421895</ele>
        <time>2019-09-10T15:23:44.600Z</time>
      </trkpt>
      <trkpt lat="10.1575509681928" lon="-75.6813247954673">
        <ele>52.421895</ele>
        <time>2019-09-10T15:23:44.700Z</time>
      </trkpt>
      <trkpt lat="10.1575492246894" lon="-75.6813227005537">
        <ele>52.421895</ele>
        <time>2019-09-10T15:23:44.800Z</time>
      </trkpt>
      <trkpt lat="10.1575474992162" lon="-75.6813206174921">
        <ele>52.421895</ele>
        <time>2019-09-10T15:23:44.900Z</time>
      </trkpt>
      <trkpt lat="10.1575457837482" lon="-75.6813185439521">
        <ele>52.421895</ele>
        <time>2019-09-10T15:23:45.000Z</time>
      </trkpt>
      <trkpt lat="10.157544060151" lon="-75.6813164561471">
        <ele>52.421895</ele>
        <time>2019-09-10T15:23:45.100Z</time>
      </trkpt>
      <trkpt lat="10.157542326757" lon="-75.6813143613663">
        <ele>52.421895</ele>
        <time>2019-09-10T15:23:45.200Z</time>
      </trkpt>
      <trkpt lat="10.1575405880478" lon="-75.6813122555256">
        <ele>52.421895</ele>
        <time>2019-09-10T15:23:45.300Z</time>
      </trkpt>
      <trkpt lat="10.1575388472542" lon="-75.6813101559274">
        <ele>52.421895</ele>
        <time>2019-09-10T15:23:45.400Z</time>
      </trkpt>
      <trkpt lat="10.1575371031255" lon="-75.6813080543362">
        <ele>52.421895</ele>
        <time>2019-09-10T15:23:45.500Z</time>
      </trkpt>
      <trkpt lat="10.1575353626446" lon="-75.681305961692">
        <ele>52.421895</ele>
        <time>2019-09-10T15:23:45.600Z</time>
      </trkpt>
      <trkpt lat="10.157533596317" lon="-75.6813038403396">
        <ele>52.421895</ele>
        <time>2019-09-10T15:23:45.700Z</time>
      </trkpt>
      <trkpt lat="10.1575318281134" lon="-75.681301726668">
        <ele>52.421895</ele>
        <time>2019-09-10T15:23:45.800Z</time>
      </trkpt>
      <trkpt lat="10.1575300796075" lon="-75.6812996565713">
        <ele>52.321895</ele>
        <time>2019-09-10T15:23:45.900Z</time>
      </trkpt>
      <trkpt lat="10.1575283401688" lon="-75.6812976109834">
        <ele>52.321895</ele>
        <time>2019-09-10T15:23:46.000Z</time>
      </trkpt>
      <trkpt lat="10.1575248600406" lon="-75.6812934932736">
        <ele>52.421895</ele>
        <time>2019-09-10T15:23:46.200Z</time>
      </trkpt>
      <trkpt lat="10.1575231306071" lon="-75.6812914616286">
        <ele>52.421895</ele>
        <time>2019-09-10T15:23:46.300Z</time>
      </trkpt>
      <trkpt lat="10.1575214026326" lon="-75.6812894309641">
        <ele>52.421895</ele>
        <time>2019-09-10T15:23:46.400Z</time>
      </trkpt>
      <trkpt lat="10.157519679348" lon="-75.6812873770257">
        <ele>52.421895</ele>
        <time>2019-09-10T15:23:46.500Z</time>
      </trkpt>
      <trkpt lat="10.1575179512693" lon="-75.6812853001779">
        <ele>52.421895</ele>
        <time>2019-09-10T15:23:46.600Z</time>
      </trkpt>
      <trkpt lat="10.1575162270467" lon="-75.6812832251363">
        <ele>52.421895</ele>
        <time>2019-09-10T15:23:46.700Z</time>
      </trkpt>
      <trkpt lat="10.1575145038664" lon="-75.6812811528957">
        <ele>52.421895</ele>
        <time>2019-09-10T15:23:46.800Z</time>
      </trkpt>
      <trkpt lat="10.1575128051778" lon="-75.6812790898542">
        <ele>52.421895</ele>
        <time>2019-09-10T15:23:46.900Z</time>
      </trkpt>
      <trkpt lat="10.157511111596" lon="-75.681277023105">
        <ele>52.421895</ele>
        <time>2019-09-10T15:23:47.000Z</time>
      </trkpt>
      <trkpt lat="10.1575094097809" lon="-75.6812749369972">
        <ele>52.421895</ele>
        <time>2019-09-10T15:23:47.100Z</time>
      </trkpt>
      <trkpt lat="10.1575076905609" lon="-75.681272841754">
        <ele>52.421895</ele>
        <time>2019-09-10T15:23:47.200Z</time>
      </trkpt>
      <trkpt lat="10.1575059758224" lon="-75.6812707629941">
        <ele>52.421895</ele>
        <time>2019-09-10T15:23:47.300Z</time>
      </trkpt>
      <trkpt lat="10.157504260667" lon="-75.6812686841449">
        <ele>52.421895</ele>
        <time>2019-09-10T15:23:47.400Z</time>
      </trkpt>
      <trkpt lat="10.1575025356107" lon="-75.6812665919947">
        <ele>52.421895</ele>
        <time>2019-09-10T15:23:47.500Z</time>
      </trkpt>
      <trkpt lat="10.1575007996112" lon="-75.6812644919918">
        <ele>52.421895</ele>
        <time>2019-09-10T15:23:47.600Z</time>
      </trkpt>
      <trkpt lat="10.1574990518348" lon="-75.6812623856311">
        <ele>52.421895</ele>
        <time>2019-09-10T15:23:47.700Z</time>
      </trkpt>
      <trkpt lat="10.1574972966588" lon="-75.6812602724273">
        <ele>52.421895</ele>
        <time>2019-09-10T15:23:47.800Z</time>
      </trkpt>
      <trkpt lat="10.1574955329367" lon="-75.6812581580268">
        <ele>52.421895</ele>
        <time>2019-09-10T15:23:47.900Z</time>
      </trkpt>
      <trkpt lat="10.15749376984" lon="-75.6812560469009">
        <ele>52.321895</ele>
        <time>2019-09-10T15:23:48.000Z</time>
      </trkpt>
      <trkpt lat="10.1574920158104" lon="-75.6812539179635">
        <ele>52.321895</ele>
        <time>2019-09-10T15:23:48.100Z</time>
      </trkpt>
      <trkpt lat="10.1574902719944" lon="-75.6812517858841">
        <ele>52.321895</ele>
        <time>2019-09-10T15:23:48.200Z</time>
      </trkpt>
      <trkpt lat="10.1574885157761" lon="-75.6812496349704">
        <ele>52.321895</ele>
        <time>2019-09-10T15:23:48.300Z</time>
      </trkpt>
      <trkpt lat="10.1574867480937" lon="-75.6812474908302">
        <ele>52.321895</ele>
        <time>2019-09-10T15:23:48.400Z</time>
      </trkpt>
      <trkpt lat="10.1574849745748" lon="-75.6812453559375">
        <ele>52.421895</ele>
        <time>2019-09-10T15:23:48.500Z</time>
      </trkpt>
      <trkpt lat="10.1574832039742" lon="-75.6812432373288">
        <ele>52.321895</ele>
        <time>2019-09-10T15:23:48.600Z</time>
      </trkpt>
      <trkpt lat="10.157481468079" lon="-75.6812411517323">
        <ele>52.421895</ele>
        <time>2019-09-10T15:23:48.700Z</time>
      </trkpt>
      <trkpt lat="10.1574797366652" lon="-75.6812390717582">
        <ele>52.421895</ele>
        <time>2019-09-10T15:23:48.800Z</time>
      </trkpt>
      <trkpt lat="10.1574780155692" lon="-75.6812370179293">
        <ele>52.421895</ele>
        <time>2019-09-10T15:23:48.900Z</time>
      </trkpt>
      <trkpt lat="10.1574762816542" lon="-75.6812349523072">
        <ele>52.321895</ele>
        <time>2019-09-10T15:23:49.000Z</time>
      </trkpt>
      <trkpt lat="10.1574745364833" lon="-75.6812328658882">
        <ele>52.321895</ele>
        <time>2019-09-10T15:23:49.100Z</time>
      </trkpt>
      <trkpt lat="10.1574727733865" lon="-75.6812307616489">
        <ele>52.321895</ele>
        <time>2019-09-10T15:23:49.200Z</time>
      </trkpt>
      <trkpt lat="10.1574710187316" lon="-75.6812286910224">
        <ele>52.321895</ele>
        <time>2019-09-10T15:23:49.300Z</time>
      </trkpt>
      <trkpt lat="10.1574692605332" lon="-75.6812266316102">
        <ele>52.321895</ele>
        <time>2019-09-10T15:23:49.400Z</time>
      </trkpt>
      <trkpt lat="10.157467488265" lon="-75.6812245704312">
        <ele>52.321895</ele>
        <time>2019-09-10T15:23:49.500Z</time>
      </trkpt>
      <trkpt lat="10.1574657093268" lon="-75.6812224957401">
        <ele>52.321895</ele>
        <time>2019-09-10T15:23:49.600Z</time>
      </trkpt>
      <trkpt lat="10.1574639235099" lon="-75.6812203874319">
        <ele>52.321895</ele>
        <time>2019-09-10T15:23:49.700Z</time>
      </trkpt>
      <trkpt lat="10.1574621404028" lon="-75.6812182705771">
        <ele>52.321895</ele>
        <time>2019-09-10T15:23:49.800Z</time>
      </trkpt>
      <trkpt lat="10.1574603501045" lon="-75.6812161444573">
        <ele>52.321895</ele>
        <time>2019-09-10T15:23:49.900Z</time>
      </trkpt>
      <trkpt lat="10.1574585660595" lon="-75.6812140315843">
        <ele>52.321895</ele>
        <time>2019-09-10T15:23:50.000Z</time>
      </trkpt>
      <trkpt lat="10.1574568001487" lon="-75.6812119461488">
        <ele>52.321895</ele>
        <time>2019-09-10T15:23:50.100Z</time>
      </trkpt>
      <trkpt lat="10.1574550448685" lon="-75.6812098721104">
        <ele>52.321895</ele>
        <time>2019-09-10T15:23:50.200Z</time>
      </trkpt>
      <trkpt lat="10.1574533117872" lon="-75.6812077950607">
        <ele>52.321895</ele>
        <time>2019-09-10T15:23:50.300Z</time>
      </trkpt>
      <trkpt lat="10.1574515814156" lon="-75.6812057108655">
        <ele>52.321895</ele>
        <time>2019-09-10T15:23:50.400Z</time>
      </trkpt>
      <trkpt lat="10.1574498636547" lon="-75.6812036422407">
        <ele>52.321895</ele>
        <time>2019-09-10T15:23:50.500Z</time>
      </trkpt>
      <trkpt lat="10.1574463676851" lon="-75.6811994723358">
        <ele>52.321895</ele>
        <time>2019-09-10T15:23:50.700Z</time>
      </trkpt>
      <trkpt lat="10.1574445815556" lon="-75.6811973572608">
        <ele>52.321895</ele>
        <time>2019-09-10T15:23:50.800Z</time>
      </trkpt>
      <trkpt lat="10.1574427964683" lon="-75.6811952577736">
        <ele>52.321895</ele>
        <time>2019-09-10T15:23:50.900Z</time>
      </trkpt>
      <trkpt lat="10.1574410256593" lon="-75.6811931690351">
        <ele>52.321895</ele>
        <time>2019-09-10T15:23:51.000Z</time>
      </trkpt>
      <trkpt lat="10.1574392663144" lon="-75.6811910743435">
        <ele>52.321895</ele>
        <time>2019-09-10T15:23:51.100Z</time>
      </trkpt>
      <trkpt lat="10.1574375148903" lon="-75.6811889751609">
        <ele>52.321895</ele>
        <time>2019-09-10T15:23:51.200Z</time>
      </trkpt>
      <trkpt lat="10.157435773263" lon="-75.681186898442">
        <ele>52.321895</ele>
        <time>2019-09-10T15:23:51.300Z</time>
      </trkpt>
      <trkpt lat="10.1574340345538" lon="-75.6811848243862">
        <ele>52.321895</ele>
        <time>2019-09-10T15:23:51.400Z</time>
      </trkpt>
      <trkpt lat="10.1574322813579" lon="-75.6811827457873">
        <ele>52.321895</ele>
        <time>2019-09-10T15:23:51.500Z</time>
      </trkpt>
      <trkpt lat="10.1574305217004" lon="-75.6811806597295">
        <ele>52.321895</ele>
        <time>2019-09-10T15:23:51.600Z</time>
      </trkpt>
      <trkpt lat="10.1574287886191" lon="-75.6811786031851">
        <ele>52.321895</ele>
        <time>2019-09-10T15:23:51.700Z</time>
      </trkpt>
      <trkpt lat="10.157427065543" lon="-75.6811765457181">
        <ele>52.321895</ele>
        <time>2019-09-10T15:23:51.800Z</time>
      </trkpt>
      <trkpt lat="10.157425349137" lon="-75.6811744771368">
        <ele>52.321895</ele>
        <time>2019-09-10T15:23:51.900Z</time>
      </trkpt>
      <trkpt lat="10.1574236240807" lon="-75.6811723925412">
        <ele>52.321895</ele>
        <time>2019-09-10T15:23:52.000Z</time>
      </trkpt>
      <trkpt lat="10.1574219016298" lon="-75.6811703227676">
        <ele>52.321895</ele>
        <time>2019-09-10T15:23:52.100Z</time>
      </trkpt>
      <trkpt lat="10.1574201746976" lon="-75.6811682490339">
        <ele>52.321895</ele>
        <time>2019-09-10T15:23:52.200Z</time>
      </trkpt>
      <trkpt lat="10.1574184490159" lon="-75.6811661657786">
        <ele>52.321895</ele>
        <time>2019-09-10T15:23:52.300Z</time>
      </trkpt>
      <trkpt lat="10.1574167239596" lon="-75.6811640724883">
        <ele>52.321895</ele>
        <time>2019-09-10T15:23:52.400Z</time>
      </trkpt>
      <trkpt lat="10.1574150188094" lon="-75.6811619792937">
        <ele>52.321895</ele>
        <time>2019-09-10T15:23:52.500Z</time>
      </trkpt>
      <trkpt lat="10.1574133167858" lon="-75.6811598843758">
        <ele>52.321895</ele>
        <time>2019-09-10T15:23:52.600Z</time>
      </trkpt>
      <trkpt lat="10.1574115850593" lon="-75.681157704756">
        <ele>52.321895</ele>
        <time>2019-09-10T15:23:52.700Z</time>
      </trkpt>
      <trkpt lat="10.1574098412433" lon="-75.6811555115937">
        <ele>52.321895</ele>
        <time>2019-09-10T15:23:52.800Z</time>
      </trkpt>
      <trkpt lat="10.1574064010316" lon="-75.6811511473933">
        <ele>52.321895</ele>
        <time>2019-09-10T15:23:53.000Z</time>
      </trkpt>
      <trkpt lat="10.1574046817074" lon="-75.681148967965">
        <ele>52.321895</ele>
        <time>2019-09-10T15:23:53.100Z</time>
      </trkpt>
      <trkpt lat="10.1574029572764" lon="-75.6811468040201">
        <ele>52.321895</ele>
        <time>2019-09-10T15:23:53.200Z</time>
      </trkpt>
      <trkpt lat="10.1573995486435" lon="-75.6811424880193">
        <ele>52.321895</ele>
        <time>2019-09-10T15:23:53.400Z</time>
      </trkpt>
      <trkpt lat="10.1573960614284" lon="-75.6811381907047">
        <ele>52.321895</ele>
        <time>2019-09-10T15:23:53.600Z</time>
      </trkpt>
      <trkpt lat="10.1573943215728" lon="-75.6811361045251">
        <ele>52.321895</ele>
        <time>2019-09-10T15:23:53.700Z</time>
      </trkpt>
      <trkpt lat="10.1573925905759" lon="-75.6811340367968">
        <ele>52.321895</ele>
        <time>2019-09-10T15:23:53.800Z</time>
      </trkpt>
      <trkpt lat="10.1573908818822" lon="-75.6811319609046">
        <ele>52.321895</ele>
        <time>2019-09-10T15:23:53.900Z</time>
      </trkpt>
      <trkpt lat="10.1573874919047" lon="-75.6811277950555">
        <ele>52.321895</ele>
        <time>2019-09-10T15:23:54.100Z</time>
      </trkpt>
      <trkpt lat="10.1573858014496" lon="-75.6811257120788">
        <ele>52.321895</ele>
        <time>2019-09-10T15:23:54.200Z</time>
      </trkpt>
      <trkpt lat="10.1573823765583" lon="-75.6811215750729">
        <ele>52.321895</ele>
        <time>2019-09-10T15:23:54.400Z</time>
      </trkpt>
      <trkpt lat="10.1573806670308" lon="-75.6811194910517">
        <ele>52.321895</ele>
        <time>2019-09-10T15:23:54.500Z</time>
      </trkpt>
      <trkpt lat="10.1573789586497" lon="-75.6811173953679">
        <ele>52.321895</ele>
        <time>2019-09-10T15:23:54.600Z</time>
      </trkpt>
      <trkpt lat="10.157377269341" lon="-75.6811152948624">
        <ele>52.321895</ele>
        <time>2019-09-10T15:23:54.700Z</time>
      </trkpt>
      <trkpt lat="10.1573755715904" lon="-75.6811131965502">
        <ele>52.321895</ele>
        <time>2019-09-10T15:23:54.800Z</time>
      </trkpt>
      <trkpt lat="10.1573738610207" lon="-75.6811110924937">
        <ele>52.321895</ele>
        <time>2019-09-10T15:23:54.900Z</time>
      </trkpt>
      <trkpt lat="10.1573721336716" lon="-75.6811089915182">
        <ele>52.321895</ele>
        <time>2019-09-10T15:23:55.000Z</time>
      </trkpt>
      <trkpt lat="10.1573703976721" lon="-75.6811068869221">
        <ele>52.321895</ele>
        <time>2019-09-10T15:23:55.100Z</time>
      </trkpt>
      <trkpt lat="10.1573686555236" lon="-75.6811047814034">
        <ele>52.321895</ele>
        <time>2019-09-10T15:23:55.200Z</time>
      </trkpt>
      <trkpt lat="10.1573669334897" lon="-75.6811026690439">
        <ele>52.321895</ele>
        <time>2019-09-10T15:23:55.300Z</time>
      </trkpt>
      <trkpt lat="10.1573652178132" lon="-75.6811005575546">
        <ele>52.321895</ele>
        <time>2019-09-10T15:23:55.400Z</time>
      </trkpt>
      <trkpt lat="10.1573634983848" lon="-75.681098443437">
        <ele>52.321895</ele>
        <time>2019-09-10T15:23:55.500Z</time>
      </trkpt>
      <trkpt lat="10.1573617710356" lon="-75.6810963273175">
        <ele>52.321895</ele>
        <time>2019-09-10T15:23:55.600Z</time>
      </trkpt>
      <trkpt lat="10.1573600903772" lon="-75.6810942159153">
        <ele>52.321895</ele>
        <time>2019-09-10T15:23:55.700Z</time>
      </trkpt>
      <trkpt lat="10.1573584179522" lon="-75.6810921042172">
        <ele>52.321895</ele>
        <time>2019-09-10T15:23:55.800Z</time>
      </trkpt>
      <trkpt lat="10.1573567436512" lon="-75.6810899967838">
        <ele>52.321895</ele>
        <time>2019-09-10T15:23:55.900Z</time>
      </trkpt>
      <trkpt lat="10.1573550505906" lon="-75.6810878903251">
        <ele>52.321895</ele>
        <time>2019-09-10T15:23:56.000Z</time>
      </trkpt>
      <trkpt lat="10.1573533467952" lon="-75.6810857406104">
        <ele>52.321895</ele>
        <time>2019-09-10T15:23:56.100Z</time>
      </trkpt>
      <trkpt lat="10.1573516305976" lon="-75.6810835868398">
        <ele>52.321895</ele>
        <time>2019-09-10T15:23:56.200Z</time>
      </trkpt>
      <trkpt lat="10.1573499130452" lon="-75.6810814690841">
        <ele>52.321895</ele>
        <time>2019-09-10T15:23:56.300Z</time>
      </trkpt>
      <trkpt lat="10.1573481920534" lon="-75.6810793678127">
        <ele>52.321895</ele>
        <time>2019-09-10T15:23:56.400Z</time>
      </trkpt>
      <trkpt lat="10.1573464854441" lon="-75.6810772450264">
        <ele>52.321895</ele>
        <time>2019-09-10T15:23:56.500Z</time>
      </trkpt>
      <trkpt lat="10.1573447803981" lon="-75.6810751109083">
        <ele>52.321895</ele>
        <time>2019-09-10T15:23:56.600Z</time>
      </trkpt>
      <trkpt lat="10.1573430711833" lon="-75.6810729616809">
        <ele>52.321895</ele>
        <time>2019-09-10T15:23:56.700Z</time>
      </trkpt>
      <trkpt lat="10.1573413478987" lon="-75.6810708208785">
        <ele>52.321895</ele>
        <time>2019-09-10T15:23:56.800Z</time>
      </trkpt>
      <trkpt lat="10.1573396028321" lon="-75.6810686709549">
        <ele>52.321895</ele>
        <time>2019-09-10T15:23:56.900Z</time>
      </trkpt>
      <trkpt lat="10.1573378496362" lon="-75.6810665271237">
        <ele>52.321895</ele>
        <time>2019-09-10T15:23:57.000Z</time>
      </trkpt>
      <trkpt lat="10.1573361088426" lon="-75.6810643970613">
        <ele>52.321895</ele>
        <time>2019-09-10T15:23:57.100Z</time>
      </trkpt>
      <trkpt lat="10.1573343775331" lon="-75.6810622821429">
        <ele>52.321895</ele>
        <time>2019-09-10T15:23:57.200Z</time>
      </trkpt>
      <trkpt lat="10.157332650705" lon="-75.6810601539257">
        <ele>52.321895</ele>
        <time>2019-09-10T15:23:57.300Z</time>
      </trkpt>
      <trkpt lat="10.1573309172068" lon="-75.6810580212175">
        <ele>52.321895</ele>
        <time>2019-09-10T15:23:57.400Z</time>
      </trkpt>
      <trkpt lat="10.1573291653659" lon="-75.6810558994582">
        <ele>52.321895</ele>
        <time>2019-09-10T15:23:57.500Z</time>
      </trkpt>
      <trkpt lat="10.1573274059168" lon="-75.6810537907715">
        <ele>52.321895</ele>
        <time>2019-09-10T15:23:57.600Z</time>
      </trkpt>
      <trkpt lat="10.1573256295841" lon="-75.6810516424319">
        <ele>52.321895</ele>
        <time>2019-09-10T15:23:57.700Z</time>
      </trkpt>
      <trkpt lat="10.1573221172518" lon="-75.6810473568931">
        <ele>52.321895</ele>
        <time>2019-09-10T15:23:57.900Z</time>
      </trkpt>
      <trkpt lat="10.1573186666181" lon="-75.6810431750297">
        <ele>52.321895</ele>
        <time>2019-09-10T15:23:58.100Z</time>
      </trkpt>
      <trkpt lat="10.1573169373929" lon="-75.681041094751">
        <ele>52.321895</ele>
        <time>2019-09-10T15:23:58.200Z</time>
      </trkpt>
      <trkpt lat="10.157315202123" lon="-75.6810390247249">
        <ele>52.321895</ele>
        <time>2019-09-10T15:23:58.300Z</time>
      </trkpt>
      <trkpt lat="10.157313459245" lon="-75.6810369474924">
        <ele>52.321895</ele>
        <time>2019-09-10T15:23:58.400Z</time>
      </trkpt>
      <trkpt lat="10.1573117363773" lon="-75.6810348672311">
        <ele>52.321895</ele>
        <time>2019-09-10T15:23:58.500Z</time>
      </trkpt>
      <trkpt lat="10.1573100232021" lon="-75.6810327795719">
        <ele>52.321895</ele>
        <time>2019-09-10T15:23:58.600Z</time>
      </trkpt>
      <trkpt lat="10.1573082940812" lon="-75.68103065736">
        <ele>52.321895</ele>
        <time>2019-09-10T15:23:58.700Z</time>
      </trkpt>
      <trkpt lat="10.1573065484934" lon="-75.6810285275936">
        <ele>52.321895</ele>
        <time>2019-09-10T15:23:58.800Z</time>
      </trkpt>
      <trkpt lat="10.1573048180177" lon="-75.6810264435202">
        <ele>52.321895</ele>
        <time>2019-09-10T15:23:58.900Z</time>
      </trkpt>
      <trkpt lat="10.1573030959837" lon="-75.6810243836772">
        <ele>52.321895</ele>
        <time>2019-09-10T15:23:59.000Z</time>
      </trkpt>
      <trkpt lat="10.1573014134493" lon="-75.6810223500315">
        <ele>52.321895</ele>
        <time>2019-09-10T15:23:59.100Z</time>
      </trkpt>
      <trkpt lat="10.157299737064" lon="-75.6810203116337">
        <ele>52.321895</ele>
        <time>2019-09-10T15:23:59.200Z</time>
      </trkpt>
      <trkpt lat="10.157298015968" lon="-75.6810182178995">
        <ele>52.321895</ele>
        <time>2019-09-10T15:23:59.300Z</time>
      </trkpt>
      <trkpt lat="10.1572962524543" lon="-75.6810160884464">
        <ele>52.321895</ele>
        <time>2019-09-10T15:23:59.400Z</time>
      </trkpt>
      <trkpt lat="10.1572945005092" lon="-75.6810139751121">
        <ele>52.321895</ele>
        <time>2019-09-10T15:23:59.500Z</time>
      </trkpt>
      <trkpt lat="10.1572927620084" lon="-75.6810118846329">
        <ele>52.321895</ele>
        <time>2019-09-10T15:23:59.600Z</time>
      </trkpt>
      <trkpt lat="10.1572910235076" lon="-75.6810098161561">
        <ele>52.321895</ele>
        <time>2019-09-10T15:23:59.700Z</time>
      </trkpt>
      <trkpt lat="10.1572892844858" lon="-75.6810077548683">
        <ele>52.321895</ele>
        <time>2019-09-10T15:23:59.800Z</time>
      </trkpt>
      <trkpt lat="10.157287546923" lon="-75.6810056875751">
        <ele>52.321895</ele>
        <time>2019-09-10T15:23:59.900Z</time>
      </trkpt>
      <trkpt lat="10.1572858052956" lon="-75.6810036115263">
        <ele>52.321895</ele>
        <time>2019-09-10T15:24:00.000Z</time>
      </trkpt>
      <trkpt lat="10.1572840639809" lon="-75.6810015465831">
        <ele>52.321895</ele>
        <time>2019-09-10T15:24:00.100Z</time>
      </trkpt>
      <trkpt lat="10.1572823205818" lon="-75.6809994791855">
        <ele>52.321895</ele>
        <time>2019-09-10T15:24:00.200Z</time>
      </trkpt>
      <trkpt lat="10.1572805853119" lon="-75.6809973935628">
        <ele>52.321895</ele>
        <time>2019-09-10T15:24:00.300Z</time>
      </trkpt>
      <trkpt lat="10.1572788480618" lon="-75.6809952967824">
        <ele>52.321895</ele>
        <time>2019-09-10T15:24:00.400Z</time>
      </trkpt>
      <trkpt lat="10.1572771372837" lon="-75.6809932151634">
        <ele>52.321895</ele>
        <time>2019-09-10T15:24:00.500Z</time>
      </trkpt>
      <trkpt lat="10.1572754303617" lon="-75.6809911375828">
        <ele>52.321895</ele>
        <time>2019-09-10T15:24:00.600Z</time>
      </trkpt>
      <trkpt lat="10.1572737275043" lon="-75.6809890562423">
        <ele>52.321895</ele>
        <time>2019-09-10T15:24:00.700Z</time>
      </trkpt>
      <trkpt lat="10.1572720110983" lon="-75.6809869683219">
        <ele>52.321895</ele>
        <time>2019-09-10T15:24:00.800Z</time>
      </trkpt>
      <trkpt lat="10.1572702917741" lon="-75.6809848748314">
        <ele>52.321895</ele>
        <time>2019-09-10T15:24:00.900Z</time>
      </trkpt>
      <trkpt lat="10.1572685671347" lon="-75.6809827812365">
        <ele>52.321895</ele>
        <time>2019-09-10T15:24:01.000Z</time>
      </trkpt>
      <trkpt lat="10.1572668655279" lon="-75.6809806795995">
        <ele>52.321895</ele>
        <time>2019-09-10T15:24:01.100Z</time>
      </trkpt>
      <trkpt lat="10.1572651674647" lon="-75.6809785732975">
        <ele>52.321895</ele>
        <time>2019-09-10T15:24:01.200Z</time>
      </trkpt>
      <trkpt lat="10.1572634398029" lon="-75.6809764352106">
        <ele>52.321895</ele>
        <time>2019-09-10T15:24:01.300Z</time>
      </trkpt>
      <trkpt lat="10.1572616969248" lon="-75.6809742963229">
        <ele>52.321895</ele>
        <time>2019-09-10T15:24:01.400Z</time>
      </trkpt>
      <trkpt lat="10.1572599660322" lon="-75.6809722104218">
        <ele>52.321895</ele>
        <time>2019-09-10T15:24:01.500Z</time>
      </trkpt>
      <trkpt lat="10.1572582418096" lon="-75.6809701458964">
        <ele>52.321895</ele>
        <time>2019-09-10T15:24:01.600Z</time>
      </trkpt>
      <trkpt lat="10.1572565102916" lon="-75.6809680850959">
        <ele>52.321895</ele>
        <time>2019-09-10T15:24:01.700Z</time>
      </trkpt>
      <trkpt lat="10.1572547738753" lon="-75.6809660108922">
        <ele>52.321895</ele>
        <time>2019-09-10T15:24:01.800Z</time>
      </trkpt>
      <trkpt lat="10.1572530254736" lon="-75.6809639384989">
        <ele>52.321895</ele>
        <time>2019-09-10T15:24:01.900Z</time>
      </trkpt>
      <trkpt lat="10.1572512708187" lon="-75.6809618602916">
        <ele>52.321895</ele>
        <time>2019-09-10T15:24:02.000Z</time>
      </trkpt>
      <trkpt lat="10.1572495105358" lon="-75.6809597800651">
        <ele>52.321895</ele>
        <time>2019-09-10T15:24:02.100Z</time>
      </trkpt>
      <trkpt lat="10.1572477551514" lon="-75.680957695278">
        <ele>52.321895</ele>
        <time>2019-09-10T15:24:02.200Z</time>
      </trkpt>
      <trkpt lat="10.1572459871562" lon="-75.6809556034586">
        <ele>52.321895</ele>
        <time>2019-09-10T15:24:02.300Z</time>
      </trkpt>
      <trkpt lat="10.1572442280198" lon="-75.68095351801">
        <ele>52.321895</ele>
        <time>2019-09-10T15:24:02.400Z</time>
      </trkpt>
      <trkpt lat="10.1572424882684" lon="-75.680951456026">
        <ele>52.321895</ele>
        <time>2019-09-10T15:24:02.500Z</time>
      </trkpt>
      <trkpt lat="10.1572407763439" lon="-75.6809494054956">
        <ele>52.321895</ele>
        <time>2019-09-10T15:24:02.600Z</time>
      </trkpt>
      <trkpt lat="10.1572374743285" lon="-75.6809453311023">
        <ele>52.321895</ele>
        <time>2019-09-10T15:24:02.800Z</time>
      </trkpt>
      <trkpt lat="10.1572357692825" lon="-75.6809432331208">
        <ele>52.321895</ele>
        <time>2019-09-10T15:24:02.900Z</time>
      </trkpt>
      <trkpt lat="10.1572340374518" lon="-75.6809411149821">
        <ele>52.321895</ele>
        <time>2019-09-10T15:24:03.000Z</time>
      </trkpt>
      <trkpt lat="10.1572323031199" lon="-75.680939008889">
        <ele>52.321895</ele>
        <time>2019-09-10T15:24:03.100Z</time>
      </trkpt>
      <trkpt lat="10.157230585359" lon="-75.6809369245545">
        <ele>52.321895</ele>
        <time>2019-09-10T15:24:03.200Z</time>
      </trkpt>
      <trkpt lat="10.157228872288" lon="-75.6809348587758">
        <ele>52.321895</ele>
        <time>2019-09-10T15:24:03.300Z</time>
      </trkpt>
      <trkpt lat="10.1572271695349" lon="-75.6809328034063">
        <ele>52.321895</ele>
        <time>2019-09-10T15:24:03.400Z</time>
      </trkpt>
      <trkpt lat="10.157223773721" lon="-75.6809286665919">
        <ele>52.321895</ele>
        <time>2019-09-10T15:24:03.600Z</time>
      </trkpt>
      <trkpt lat="10.1572220531462" lon="-75.6809265982021">
        <ele>52.321895</ele>
        <time>2019-09-10T15:24:03.700Z</time>
      </trkpt>
      <trkpt lat="10.1572203220451" lon="-75.6809245223273">
        <ele>52.321895</ele>
        <time>2019-09-10T15:24:03.800Z</time>
      </trkpt>
      <trkpt lat="10.157218536124" lon="-75.6809223814901">
        <ele>52.321895</ele>
        <time>2019-09-10T15:24:03.900Z</time>
      </trkpt>
      <trkpt lat="10.1572167426991" lon="-75.680920220809">
        <ele>52.321895</ele>
        <time>2019-09-10T15:24:04.000Z</time>
      </trkpt>
      <trkpt lat="10.1572150077419" lon="-75.6809181165263">
        <ele>52.321895</ele>
        <time>2019-09-10T15:24:04.100Z</time>
      </trkpt>
      <trkpt lat="10.1572133607466" lon="-75.6809160823236">
        <ele>52.321895</ele>
        <time>2019-09-10T15:24:04.200Z</time>
      </trkpt>
      <trkpt lat="10.1572104603967" lon="-75.6809120605686">
        <ele>52.321895</ele>
        <time>2019-09-10T15:24:04.400Z</time>
      </trkpt>
      <trkpt lat="10.1572093831745" lon="-75.6809101029562">
        <ele>52.321895</ele>
        <time>2019-09-10T15:24:04.500Z</time>
      </trkpt>
      <trkpt lat="10.1572085647315" lon="-75.6809081729163">
        <ele>52.321895</ele>
        <time>2019-09-10T15:24:04.600Z</time>
      </trkpt>
      <trkpt lat="10.1572080856303" lon="-75.6809063127476">
        <ele>52.321895</ele>
        <time>2019-09-10T15:24:04.700Z</time>
      </trkpt>
      <trkpt lat="10.1572078650999" lon="-75.6809044720746">
        <ele>52.321895</ele>
        <time>2019-09-10T15:24:04.800Z</time>
      </trkpt>
      <trkpt lat="10.1572080160111" lon="-75.6809027047193">
        <ele>52.321895</ele>
        <time>2019-09-10T15:24:04.900Z</time>
      </trkpt>
      <trkpt lat="10.1572084383122" lon="-75.6809009469727">
        <ele>52.321895</ele>
        <time>2019-09-10T15:24:05.000Z</time>
      </trkpt>
      <trkpt lat="10.1572092417474" lon="-75.6808993271582">
        <ele>52.321895</ele>
        <time>2019-09-10T15:24:05.100Z</time>
      </trkpt>
      <trkpt lat="10.1572103206371" lon="-75.680897725969">
        <ele>52.321895</ele>
        <time>2019-09-10T15:24:05.200Z</time>
      </trkpt>
      <trkpt lat="10.1572117502286" lon="-75.6808962347565">
        <ele>52.321895</ele>
        <time>2019-09-10T15:24:05.300Z</time>
      </trkpt>
      <trkpt lat="10.157213437036" lon="-75.6808946995046">
        <ele>52.221895</ele>
        <time>2019-09-10T15:24:05.400Z</time>
      </trkpt>
      <trkpt lat="10.1572154124297" lon="-75.6808932784766">
        <ele>52.221895</ele>
        <time>2019-09-10T15:24:05.500Z</time>
      </trkpt>
      <trkpt lat="10.1572175410275" lon="-75.6808918323827">
        <ele>52.221895</ele>
        <time>2019-09-10T15:24:05.600Z</time>
      </trkpt>
      <trkpt lat="10.1572197587337" lon="-75.6808905008609">
        <ele>52.321895</ele>
        <time>2019-09-10T15:24:05.700Z</time>
      </trkpt>
      <trkpt lat="10.1572220448086" lon="-75.6808891220969">
        <ele>52.321895</ele>
        <time>2019-09-10T15:24:05.800Z</time>
      </trkpt>
      <trkpt lat="10.1572243126448" lon="-75.6808878258066">
        <ele>52.321895</ele>
        <time>2019-09-10T15:24:05.900Z</time>
      </trkpt>
      <trkpt lat="10.1572266305069" lon="-75.680886454423">
        <ele>52.321895</ele>
        <time>2019-09-10T15:24:06.000Z</time>
      </trkpt>
      <trkpt lat="10.1572288939659" lon="-75.6808850941451">
        <ele>52.321895</ele>
        <time>2019-09-10T15:24:06.100Z</time>
      </trkpt>
      <trkpt lat="10.157231208076" lon="-75.6808836484341">
        <ele>52.321895</ele>
        <time>2019-09-10T15:24:06.200Z</time>
      </trkpt>
      <trkpt lat="10.1572334532964" lon="-75.680882206309">
        <ele>52.321895</ele>
        <time>2019-09-10T15:24:06.300Z</time>
      </trkpt>
      <trkpt lat="10.1572357533367" lon="-75.6808806879418">
        <ele>52.321895</ele>
        <time>2019-09-10T15:24:06.400Z</time>
      </trkpt>
      <trkpt lat="10.1572379825072" lon="-75.6808791574246">
        <ele>52.321895</ele>
        <time>2019-09-10T15:24:06.500Z</time>
      </trkpt>
      <trkpt lat="10.1572402570136" lon="-75.6808775608308">
        <ele>52.321895</ele>
        <time>2019-09-10T15:24:06.600Z</time>
      </trkpt>
      <trkpt lat="10.1572424875389" lon="-75.6808759035219">
        <ele>52.321895</ele>
        <time>2019-09-10T15:24:06.700Z</time>
      </trkpt>
      <trkpt lat="10.1572447687154" lon="-75.6808741931568">
        <ele>52.321895</ele>
        <time>2019-09-10T15:24:06.800Z</time>
      </trkpt>
      <trkpt lat="10.1572470216481" lon="-75.6808724641663">
        <ele>52.321895</ele>
        <time>2019-09-10T15:24:06.900Z</time>
      </trkpt>
      <trkpt lat="10.1572493041794" lon="-75.680870713452">
        <ele>52.321895</ele>
        <time>2019-09-10T15:24:07.000Z</time>
      </trkpt>
      <trkpt lat="10.157251532933" lon="-75.6808689437991">
        <ele>52.321895</ele>
        <time>2019-09-10T15:24:07.100Z</time>
      </trkpt>
      <trkpt lat="10.1572537693989" lon="-75.6808671574007">
        <ele>52.321895</ele>
        <time>2019-09-10T15:24:07.200Z</time>
      </trkpt>
      <trkpt lat="10.1572582582764" lon="-75.6808634914424">
        <ele>52.221895</ele>
        <time>2019-09-10T15:24:07.400Z</time>
      </trkpt>
      <trkpt lat="10.1572605300731" lon="-75.6808616043974">
        <ele>52.221895</ele>
        <time>2019-09-10T15:24:07.500Z</time>
      </trkpt>
      <trkpt lat="10.1572628052047" lon="-75.6808597058291">
        <ele>52.221895</ele>
        <time>2019-09-10T15:24:07.600Z</time>
      </trkpt>
      <trkpt lat="10.1572650852348" lon="-75.6808577490523">
        <ele>52.221895</ele>
        <time>2019-09-10T15:24:07.700Z</time>
      </trkpt>
      <trkpt lat="10.1572673528626" lon="-75.6808558105526">
        <ele>52.221895</ele>
        <time>2019-09-10T15:24:07.800Z</time>
      </trkpt>
      <trkpt lat="10.1572696125696" lon="-75.6808538691286">
        <ele>52.221895</ele>
        <time>2019-09-10T15:24:07.900Z</time>
      </trkpt>
      <trkpt lat="10.1572718467427" lon="-75.6808519647116">
        <ele>52.221895</ele>
        <time>2019-09-10T15:24:08.000Z</time>
      </trkpt>
      <trkpt lat="10.1572740874816" lon="-75.6808500186225">
        <ele>52.221895</ele>
        <time>2019-09-10T15:24:08.100Z</time>
      </trkpt>
      <trkpt lat="10.1572763110242" lon="-75.6808480695743">
        <ele>52.221895</ele>
        <time>2019-09-10T15:24:08.200Z</time>
      </trkpt>
      <trkpt lat="10.1572785399862" lon="-75.6808460661818">
        <ele>52.221895</ele>
        <time>2019-09-10T15:24:08.300Z</time>
      </trkpt>
      <trkpt lat="10.1572829463212" lon="-75.6808420836967">
        <ele>52.221895</ele>
        <time>2019-09-10T15:24:08.500Z</time>
      </trkpt>
      <trkpt lat="10.1572851232772" lon="-75.6808401170327">
        <ele>52.321895</ele>
        <time>2019-09-10T15:24:08.600Z</time>
      </trkpt>
      <trkpt lat="10.157287288769" lon="-75.6808381407253">
        <ele>52.321895</ele>
        <time>2019-09-10T15:24:08.700Z</time>
      </trkpt>
      <trkpt lat="10.1572894380025" lon="-75.6808361769509">
        <ele>52.321895</ele>
        <time>2019-09-10T15:24:08.800Z</time>
      </trkpt>
      <trkpt lat="10.157291611415" lon="-75.6808341385705">
        <ele>52.321895</ele>
        <time>2019-09-10T15:24:08.900Z</time>
      </trkpt>
      <trkpt lat="10.1572937801376" lon="-75.6808321012694">
        <ele>52.321895</ele>
        <time>2019-09-10T15:24:09.000Z</time>
      </trkpt>
      <trkpt lat="10.1572959887767" lon="-75.6808299801019">
        <ele>52.321895</ele>
        <time>2019-09-10T15:24:09.100Z</time>
      </trkpt>
      <trkpt lat="10.1572981282134" lon="-75.6808279408861">
        <ele>52.221895</ele>
        <time>2019-09-10T15:24:09.200Z</time>
      </trkpt>
      <trkpt lat="10.1573001636381" lon="-75.6808260410645">
        <ele>52.221895</ele>
        <time>2019-09-10T15:24:09.300Z</time>
      </trkpt>
      <trkpt lat="10.1573021195427" lon="-75.680824376375">
        <ele>52.221895</ele>
        <time>2019-09-10T15:24:09.400Z</time>
      </trkpt>
      <trkpt lat="10.1573040227117" lon="-75.6808229702125">
        <ele>52.221895</ele>
        <time>2019-09-10T15:24:09.500Z</time>
      </trkpt>
      <trkpt lat="10.1573058979496" lon="-75.6808218469118">
        <ele>52.221895</ele>
        <time>2019-09-10T15:24:09.600Z</time>
      </trkpt>
      <trkpt lat="10.1573076997122" lon="-75.680821046648">
        <ele>52.221895</ele>
        <time>2019-09-10T15:24:09.700Z</time>
      </trkpt>
      <trkpt lat="10.1573094646849" lon="-75.6808205534763">
        <ele>52.321895</ele>
        <time>2019-09-10T15:24:09.800Z</time>
      </trkpt>
      <trkpt lat="10.1573111212684" lon="-75.6808203868576">
        <ele>52.321895</ele>
        <time>2019-09-10T15:24:09.900Z</time>
      </trkpt>
      <trkpt lat="10.1573127548192" lon="-75.6808205200899">
        <ele>52.321895</ele>
        <time>2019-09-10T15:24:10.000Z</time>
      </trkpt>
      <trkpt lat="10.1573142803977" lon="-75.6808209839136">
        <ele>52.321895</ele>
        <time>2019-09-10T15:24:10.100Z</time>
      </trkpt>
      <trkpt lat="10.1573158023284" lon="-75.6808217485281">
        <ele>52.321895</ele>
        <time>2019-09-10T15:24:10.200Z</time>
      </trkpt>
      <trkpt lat="10.1573171955469" lon="-75.6808228049864">
        <ele>52.321895</ele>
        <time>2019-09-10T15:24:10.300Z</time>
      </trkpt>
      <trkpt lat="10.1573186036689" lon="-75.6808241395719">
        <ele>52.421895</ele>
        <time>2019-09-10T15:24:10.400Z</time>
      </trkpt>
      <trkpt lat="10.1573198616094" lon="-75.6808257006208">
        <ele>52.421895</ele>
        <time>2019-09-10T15:24:10.500Z</time>
      </trkpt>
      <trkpt lat="10.1573211181949" lon="-75.6808274984032">
        <ele>52.421895</ele>
        <time>2019-09-10T15:24:10.600Z</time>
      </trkpt>
      <trkpt lat="10.1573222703516" lon="-75.680829413891">
        <ele>52.421895</ele>
        <time>2019-09-10T15:24:10.700Z</time>
      </trkpt>
      <trkpt lat="10.1573234920233" lon="-75.6808314830815">
        <ele>52.421895</ele>
        <time>2019-09-10T15:24:10.800Z</time>
      </trkpt>
      <trkpt lat="10.1573246648157" lon="-75.6808336067904">
        <ele>52.421895</ele>
        <time>2019-09-10T15:24:10.900Z</time>
      </trkpt>
      <trkpt lat="10.1573259316148" lon="-75.6808358611553">
        <ele>52.421895</ele>
        <time>2019-09-10T15:24:11.000Z</time>
      </trkpt>
      <trkpt lat="10.1573271561005" lon="-75.6808380904194">
        <ele>52.421895</ele>
        <time>2019-09-10T15:24:11.100Z</time>
      </trkpt>
      <trkpt lat="10.1573284548953" lon="-75.6808404025055">
        <ele>52.421895</ele>
        <time>2019-09-10T15:24:11.200Z</time>
      </trkpt>
      <trkpt lat="10.1573297628615" lon="-75.680842659934">
        <ele>52.421895</ele>
        <time>2019-09-10T15:24:11.300Z</time>
      </trkpt>
      <trkpt lat="10.1573311584771" lon="-75.6808449951713">
        <ele>52.421895</ele>
        <time>2019-09-10T15:24:11.400Z</time>
      </trkpt>
      <trkpt lat="10.1573325816069" lon="-75.6808472578219">
        <ele>52.421895</ele>
        <time>2019-09-10T15:24:11.500Z</time>
      </trkpt>
      <trkpt lat="10.1573340858201" lon="-75.6808495954961">
        <ele>52.421895</ele>
        <time>2019-09-10T15:24:11.600Z</time>
      </trkpt>
      <trkpt lat="10.157335661216" lon="-75.6808519080696">
        <ele>52.421895</ele>
        <time>2019-09-10T15:24:11.700Z</time>
      </trkpt>
      <trkpt lat="10.157337299144" lon="-75.6808543155454">
        <ele>52.421895</ele>
        <time>2019-09-10T15:24:11.800Z</time>
      </trkpt>
      <trkpt lat="10.1573389397818" lon="-75.6808566918629">
        <ele>52.421895</ele>
        <time>2019-09-10T15:24:11.900Z</time>
      </trkpt>
      <trkpt lat="10.1573406094971" lon="-75.6808591033771">
        <ele>52.421895</ele>
        <time>2019-09-10T15:24:12.000Z</time>
      </trkpt>
      <trkpt lat="10.157342355189" lon="-75.6808614908002">
        <ele>52.421895</ele>
        <time>2019-09-10T15:24:12.100Z</time>
      </trkpt>
      <trkpt lat="10.1573459409967" lon="-75.6808663513926">
        <ele>52.421895</ele>
        <time>2019-09-10T15:24:12.300Z</time>
      </trkpt>
      <trkpt lat="10.1573477630822" lon="-75.6808688106364">
        <ele>52.421895</ele>
        <time>2019-09-10T15:24:12.400Z</time>
      </trkpt>
      <trkpt lat="10.1573496270643" lon="-75.6808712620472">
        <ele>52.421895</ele>
        <time>2019-09-10T15:24:12.500Z</time>
      </trkpt>
      <trkpt lat="10.1573514957364" lon="-75.6808737315611">
        <ele>52.421895</ele>
        <time>2019-09-10T15:24:12.600Z</time>
      </trkpt>
      <trkpt lat="10.1573533861905" lon="-75.680876202015">
        <ele>52.421895</ele>
        <time>2019-09-10T15:24:12.700Z</time>
      </trkpt>
      <trkpt lat="10.1573552653888" lon="-75.6808786872648">
        <ele>52.421895</ele>
        <time>2019-09-10T15:24:12.800Z</time>
      </trkpt>
      <trkpt lat="10.1573571788757" lon="-75.6808811802431">
        <ele>52.421895</ele>
        <time>2019-09-10T15:24:12.900Z</time>
      </trkpt>
      <trkpt lat="10.1573590714142" lon="-75.6808836784784">
        <ele>52.421895</ele>
        <time>2019-09-10T15:24:13.000Z</time>
      </trkpt>
      <trkpt lat="10.1573609609303" lon="-75.680886196662">
        <ele>52.321895</ele>
        <time>2019-09-10T15:24:13.100Z</time>
      </trkpt>
      <trkpt lat="10.1573628119891" lon="-75.6808887046451">
        <ele>52.321895</ele>
        <time>2019-09-10T15:24:13.200Z</time>
      </trkpt>
      <trkpt lat="10.157364679619" lon="-75.6808911767352">
        <ele>52.321895</ele>
        <time>2019-09-10T15:24:13.300Z</time>
      </trkpt>
      <trkpt lat="10.1573665162954" lon="-75.6808935950729">
        <ele>52.321895</ele>
        <time>2019-09-10T15:24:13.400Z</time>
      </trkpt>
      <trkpt lat="10.1573683902827" lon="-75.6808959784924">
        <ele>52.321895</ele>
        <time>2019-09-10T15:24:13.500Z</time>
      </trkpt>
      <trkpt lat="10.1573702438428" lon="-75.6808983555062">
        <ele>52.321895</ele>
        <time>2019-09-10T15:24:13.600Z</time>
      </trkpt>
      <trkpt lat="10.1573721134528" lon="-75.6809007031371">
        <ele>52.321895</ele>
        <time>2019-09-10T15:24:13.700Z</time>
      </trkpt>
      <trkpt lat="10.1573739470026" lon="-75.6809030367381">
        <ele>52.321895</ele>
        <time>2019-09-10T15:24:13.800Z</time>
      </trkpt>
      <trkpt lat="10.1573758114016" lon="-75.6809053693644">
        <ele>52.321895</ele>
        <time>2019-09-10T15:24:13.900Z</time>
      </trkpt>
      <trkpt lat="10.157377640053" lon="-75.680907704706">
        <ele>52.321895</ele>
        <time>2019-09-10T15:24:14.000Z</time>
      </trkpt>
      <trkpt lat="10.1573794907992" lon="-75.6809100175929">
        <ele>52.321895</ele>
        <time>2019-09-10T15:24:14.100Z</time>
      </trkpt>
      <trkpt lat="10.1573813086117" lon="-75.6809123169719">
        <ele>52.321895</ele>
        <time>2019-09-10T15:24:14.200Z</time>
      </trkpt>
      <trkpt lat="10.1573831731149" lon="-75.6809146200761">
        <ele>52.321895</ele>
        <time>2019-09-10T15:24:14.300Z</time>
      </trkpt>
      <trkpt lat="10.1573850034338" lon="-75.680916917436">
        <ele>52.321895</ele>
        <time>2019-09-10T15:24:14.400Z</time>
      </trkpt>
      <trkpt lat="10.1573868241645" lon="-75.6809191494156">
        <ele>52.321895</ele>
        <time>2019-09-10T15:24:14.500Z</time>
      </trkpt>
      <trkpt lat="10.1573886172768" lon="-75.6809213572345">
        <ele>52.321895</ele>
        <time>2019-09-10T15:24:14.600Z</time>
      </trkpt>
      <trkpt lat="10.1573904381116" lon="-75.6809235448963">
        <ele>52.321895</ele>
        <time>2019-09-10T15:24:14.700Z</time>
      </trkpt>
      <trkpt lat="10.1573922400826" lon="-75.6809257359698">
        <ele>52.321895</ele>
        <time>2019-09-10T15:24:14.800Z</time>
      </trkpt>
      <trkpt lat="10.1573940482026" lon="-75.6809278717242">
        <ele>52.321895</ele>
        <time>2019-09-10T15:24:14.900Z</time>
      </trkpt>
      <trkpt lat="10.157395825786" lon="-75.6809300028832">
        <ele>52.321895</ele>
        <time>2019-09-10T15:24:15.000Z</time>
      </trkpt>
      <trkpt lat="10.1573976361989" lon="-75.6809321179582">
        <ele>52.321895</ele>
        <time>2019-09-10T15:24:15.100Z</time>
      </trkpt>
      <trkpt lat="10.1573994313955" lon="-75.6809342594917">
        <ele>52.321895</ele>
        <time>2019-09-10T15:24:15.200Z</time>
      </trkpt>
      <trkpt lat="10.1574012443097" lon="-75.6809363780482">
        <ele>52.321895</ele>
        <time>2019-09-10T15:24:15.300Z</time>
      </trkpt>
      <trkpt lat="10.1574030096993" lon="-75.6809385042984">
        <ele>52.321895</ele>
        <time>2019-09-10T15:24:15.400Z</time>
      </trkpt>
      <trkpt lat="10.1574047927022" lon="-75.6809406514718">
        <ele>52.321895</ele>
        <time>2019-09-10T15:24:15.500Z</time>
      </trkpt>
      <trkpt lat="10.1574065380815" lon="-75.6809428091937">
        <ele>52.321895</ele>
        <time>2019-09-10T15:24:15.600Z</time>
      </trkpt>
      <trkpt lat="10.1574083132678" lon="-75.6809449363143">
        <ele>52.321895</ele>
        <time>2019-09-10T15:24:15.700Z</time>
      </trkpt>
      <trkpt lat="10.1574100700071" lon="-75.6809470522945">
        <ele>52.321895</ele>
        <time>2019-09-10T15:24:15.800Z</time>
      </trkpt>
      <trkpt lat="10.1574118338335" lon="-75.6809491558113">
        <ele>52.321895</ele>
        <time>2019-09-10T15:24:15.900Z</time>
      </trkpt>
      <trkpt lat="10.1574135604531" lon="-75.680951267788">
        <ele>52.321895</ele>
        <time>2019-09-10T15:24:16.000Z</time>
      </trkpt>
      <trkpt lat="10.1574153016636" lon="-75.6809533599556">
        <ele>52.321895</ele>
        <time>2019-09-10T15:24:16.100Z</time>
      </trkpt>
      <trkpt lat="10.1574170282832" lon="-75.6809554544905">
        <ele>52.321895</ele>
        <time>2019-09-10T15:24:16.200Z</time>
      </trkpt>
      <trkpt lat="10.1574187791862" lon="-75.6809575350999">
        <ele>52.321895</ele>
        <time>2019-09-10T15:24:16.300Z</time>
      </trkpt>
      <trkpt lat="10.157420495488" lon="-75.6809596173456">
        <ele>52.321895</ele>
        <time>2019-09-10T15:24:16.400Z</time>
      </trkpt>
      <trkpt lat="10.1574221989707" lon="-75.6809616948914">
        <ele>52.321895</ele>
        <time>2019-09-10T15:24:16.500Z</time>
      </trkpt>
      <trkpt lat="10.1574255790472" lon="-75.6809658569458">
        <ele>52.321895</ele>
        <time>2019-09-10T15:24:16.700Z</time>
      </trkpt>
      <trkpt lat="10.1574272741923" lon="-75.6809679457365">
        <ele>52.321895</ele>
        <time>2019-09-10T15:24:16.800Z</time>
      </trkpt>
      <trkpt lat="10.1574290082116" lon="-75.6809700365115">
        <ele>52.321895</ele>
        <time>2019-09-10T15:24:16.900Z</time>
      </trkpt>
      <trkpt lat="10.1574307359776" lon="-75.6809721281569">
        <ele>52.321895</ele>
        <time>2019-09-10T15:24:17.000Z</time>
      </trkpt>
      <trkpt lat="10.1574324688505" lon="-75.6809741974867">
        <ele>52.321895</ele>
        <time>2019-09-10T15:24:17.100Z</time>
      </trkpt>
      <trkpt lat="10.157434186924" lon="-75.6809762594011">
        <ele>52.321895</ele>
        <time>2019-09-10T15:24:17.200Z</time>
      </trkpt>
      <trkpt lat="10.1574359145859" lon="-75.680978294126">
        <ele>52.321895</ele>
        <time>2019-09-10T15:24:17.300Z</time>
      </trkpt>
      <trkpt lat="10.1574376467292" lon="-75.6809803238725">
        <ele>52.321895</ele>
        <time>2019-09-10T15:24:17.400Z</time>
      </trkpt>
      <trkpt lat="10.1574394095133" lon="-75.6809823358292">
        <ele>52.221895</ele>
        <time>2019-09-10T15:24:17.500Z</time>
      </trkpt>
      <trkpt lat="10.1574411733396" lon="-75.6809843635914">
        <ele>52.221895</ele>
        <time>2019-09-10T15:24:17.600Z</time>
      </trkpt>
      <trkpt lat="10.1574429391461" lon="-75.6809863914231">
        <ele>52.221895</ele>
        <time>2019-09-10T15:24:17.700Z</time>
      </trkpt>
      <trkpt lat="10.1574446860887" lon="-75.6809884416402">
        <ele>52.221895</ele>
        <time>2019-09-10T15:24:17.800Z</time>
      </trkpt>
      <trkpt lat="10.1574464422027" lon="-75.6809905247562">
        <ele>52.321895</ele>
        <time>2019-09-10T15:24:17.900Z</time>
      </trkpt>
      <trkpt lat="10.1574481794528" lon="-75.6809926278205">
        <ele>52.321895</ele>
        <time>2019-09-10T15:24:18.000Z</time>
      </trkpt>
      <trkpt lat="10.1574498816849" lon="-75.6809947177252">
        <ele>52.321895</ele>
        <time>2019-09-10T15:24:18.100Z</time>
      </trkpt>
      <trkpt lat="10.1574515561943" lon="-75.6809967940873">
        <ele>52.321895</ele>
        <time>2019-09-10T15:24:18.200Z</time>
      </trkpt>
      <trkpt lat="10.1574532442524" lon="-75.6809988564892">
        <ele>52.321895</ele>
        <time>2019-09-10T15:24:18.300Z</time>
      </trkpt>
      <trkpt lat="10.1574549380426" lon="-75.6810009173592">
        <ele>52.321895</ele>
        <time>2019-09-10T15:24:18.400Z</time>
      </trkpt>
      <trkpt lat="10.1574566392324" lon="-75.6810029613097">
        <ele>52.321895</ele>
        <time>2019-09-10T15:24:18.500Z</time>
      </trkpt>
      <trkpt lat="10.1574583438615" lon="-75.681005007001">
        <ele>52.321895</ele>
        <time>2019-09-10T15:24:18.600Z</time>
      </trkpt>
      <trkpt lat="10.1574600582874" lon="-75.6810070610127">
        <ele>52.321895</ele>
        <time>2019-09-10T15:24:18.700Z</time>
      </trkpt>
      <trkpt lat="10.1574617609363" lon="-75.681009128567">
        <ele>52.321895</ele>
        <time>2019-09-10T15:24:18.800Z</time>
      </trkpt>
      <trkpt lat="10.1574634512872" lon="-75.681011202231">
        <ele>52.321895</ele>
        <time>2019-09-10T15:24:18.900Z</time>
      </trkpt>
      <trkpt lat="10.157465137782" lon="-75.6810132759474">
        <ele>52.321895</ele>
        <time>2019-09-10T15:24:19.000Z</time>
      </trkpt>
      <trkpt lat="10.1574668264654" lon="-75.6810153360689">
        <ele>52.321895</ele>
        <time>2019-09-10T15:24:19.100Z</time>
      </trkpt>
      <trkpt lat="10.1574685215062" lon="-75.6810173901328">
        <ele>52.321895</ele>
        <time>2019-09-10T15:24:19.200Z</time>
      </trkpt>
      <trkpt lat="10.1574702187357" lon="-75.6810194260066">
        <ele>52.321895</ele>
        <time>2019-09-10T15:24:19.300Z</time>
      </trkpt>
      <trkpt lat="10.1574719142977" lon="-75.6810214629595">
        <ele>52.321895</ele>
        <time>2019-09-10T15:24:19.400Z</time>
      </trkpt>
      <trkpt lat="10.15747362518" lon="-75.6810235198086">
        <ele>52.321895</ele>
        <time>2019-09-10T15:24:19.500Z</time>
      </trkpt>
      <trkpt lat="10.1574753349159" lon="-75.6810255894691">
        <ele>52.321895</ele>
        <time>2019-09-10T15:24:19.600Z</time>
      </trkpt>
      <trkpt lat="10.1574770284977" lon="-75.6810276329148">
        <ele>52.321895</ele>
        <time>2019-09-10T15:24:19.700Z</time>
      </trkpt>
      <trkpt lat="10.157478706759" lon="-75.6810296758906">
        <ele>52.321895</ele>
        <time>2019-09-10T15:24:19.800Z</time>
      </trkpt>
      <trkpt lat="10.1574803842908" lon="-75.6810317213903">
        <ele>52.321895</ele>
        <time>2019-09-10T15:24:19.900Z</time>
      </trkpt>
      <trkpt lat="10.1574820565074" lon="-75.6810337774735">
        <ele>52.321895</ele>
        <time>2019-09-10T15:24:20.000Z</time>
      </trkpt>
      <trkpt lat="10.1574837325801" lon="-75.6810358268027">
        <ele>52.321895</ele>
        <time>2019-09-10T15:24:20.100Z</time>
      </trkpt>
      <trkpt lat="10.1574853994815" lon="-75.6810378870635">
        <ele>52.321895</ele>
        <time>2019-09-10T15:24:20.200Z</time>
      </trkpt>
      <trkpt lat="10.1574870781597" lon="-75.6810399697618">
        <ele>52.321895</ele>
        <time>2019-09-10T15:24:20.300Z</time>
      </trkpt>
      <trkpt lat="10.1574887523565" lon="-75.6810420670818">
        <ele>52.321895</ele>
        <time>2019-09-10T15:24:20.400Z</time>
      </trkpt>
      <trkpt lat="10.1574904478142" lon="-75.6810441545669">
        <ele>52.321895</ele>
        <time>2019-09-10T15:24:20.500Z</time>
      </trkpt>
      <trkpt lat="10.1574921535897" lon="-75.6810462261248">
        <ele>52.321895</ele>
        <time>2019-09-10T15:24:20.600Z</time>
      </trkpt>
      <trkpt lat="10.1574938513403" lon="-75.6810482989011">
        <ele>52.321895</ele>
        <time>2019-09-10T15:24:20.700Z</time>
      </trkpt>
      <trkpt lat="10.1574955337705" lon="-75.6810503834097">
        <ele>52.321895</ele>
        <time>2019-09-10T15:24:20.800Z</time>
      </trkpt>
      <trkpt lat="10.1574972410051" lon="-75.6810524849596">
        <ele>52.321895</ele>
        <time>2019-09-10T15:24:20.900Z</time>
      </trkpt>
      <trkpt lat="10.157498957828" lon="-75.6810545864225">
        <ele>52.321895</ele>
        <time>2019-09-10T15:24:21.000Z</time>
      </trkpt>
      <trkpt lat="10.157502390119" lon="-75.6810587469103">
        <ele>52.321895</ele>
        <time>2019-09-10T15:24:21.200Z</time>
      </trkpt>
      <trkpt lat="10.1575041123614" lon="-75.6810608079369">
        <ele>52.321895</ele>
        <time>2019-09-10T15:24:21.300Z</time>
      </trkpt>
      <trkpt lat="10.1575058148018" lon="-75.6810628809744">
        <ele>52.321895</ele>
        <time>2019-09-10T15:24:21.400Z</time>
      </trkpt>
      <trkpt lat="10.1575075023388" lon="-75.6810649730723">
        <ele>52.321895</ele>
        <time>2019-09-10T15:24:21.500Z</time>
      </trkpt>
      <trkpt lat="10.1575091733047" lon="-75.6810670859541">
        <ele>52.321895</ele>
        <time>2019-09-10T15:24:21.600Z</time>
      </trkpt>
      <trkpt lat="10.1575108380174" lon="-75.681069206199">
        <ele>52.321895</ele>
        <time>2019-09-10T15:24:21.700Z</time>
      </trkpt>
      <trkpt lat="10.1575124976233" lon="-75.6810713318226">
        <ele>52.321895</ele>
        <time>2019-09-10T15:24:21.800Z</time>
      </trkpt>
      <trkpt lat="10.1575158355948" lon="-75.6810754993254">
        <ele>52.321895</ele>
        <time>2019-09-10T15:24:22.000Z</time>
      </trkpt>
      <trkpt lat="10.1575175551275" lon="-75.68107761682">
        <ele>52.321895</ele>
        <time>2019-09-10T15:24:22.100Z</time>
      </trkpt>
      <trkpt lat="10.1575192817471" lon="-75.6810797535144">
        <ele>52.321895</ele>
        <time>2019-09-10T15:24:22.200Z</time>
      </trkpt>
      <trkpt lat="10.1575209930463" lon="-75.6810818352204">
        <ele>52.321895</ele>
        <time>2019-09-10T15:24:22.300Z</time>
      </trkpt>
      <trkpt lat="10.1575226863154" lon="-75.681083897396">
        <ele>52.321895</ele>
        <time>2019-09-10T15:24:22.400Z</time>
      </trkpt>
      <trkpt lat="10.157524377917" lon="-75.6810859272469">
        <ele>52.321895</ele>
        <time>2019-09-10T15:24:22.500Z</time>
      </trkpt>
      <trkpt lat="10.1575260781688" lon="-75.6810879700138">
        <ele>52.321895</ele>
        <time>2019-09-10T15:24:22.600Z</time>
      </trkpt>
      <trkpt lat="10.1575278139599" lon="-75.6810900398484">
        <ele>52.321895</ele>
        <time>2019-09-10T15:24:22.700Z</time>
      </trkpt>
      <trkpt lat="10.1575295681979" lon="-75.6810921444271">
        <ele>52.321895</ele>
        <time>2019-09-10T15:24:22.800Z</time>
      </trkpt>
      <trkpt lat="10.1575313090957" lon="-75.6810942603551">
        <ele>52.321895</ele>
        <time>2019-09-10T15:24:22.900Z</time>
      </trkpt>
      <trkpt lat="10.157533031755" lon="-75.6810963830195">
        <ele>52.321895</ele>
        <time>2019-09-10T15:24:23.000Z</time>
      </trkpt>
      <trkpt lat="10.1575347648363" lon="-75.6810984987386">
        <ele>52.321895</ele>
        <time>2019-09-10T15:24:23.100Z</time>
      </trkpt>
      <trkpt lat="10.1575365169899" lon="-75.681100601507">
        <ele>52.321895</ele>
        <time>2019-09-10T15:24:23.200Z</time>
      </trkpt>
      <trkpt lat="10.1575382802951" lon="-75.6811027172609">
        <ele>52.321895</ele>
        <time>2019-09-10T15:24:23.300Z</time>
      </trkpt>
      <trkpt lat="10.1575400497494" lon="-75.6811048359392">
        <ele>52.321895</ele>
        <time>2019-09-10T15:24:23.400Z</time>
      </trkpt>
      <trkpt lat="10.1575418248315" lon="-75.6811069458096">
        <ele>52.321895</ele>
        <time>2019-09-10T15:24:23.500Z</time>
      </trkpt>
      <trkpt lat="10.1575435979334" lon="-75.6811090420852">
        <ele>52.321895</ele>
        <time>2019-09-10T15:24:23.600Z</time>
      </trkpt>
      <trkpt lat="10.1575453533179" lon="-75.6811111354017">
        <ele>52.321895</ele>
        <time>2019-09-10T15:24:23.700Z</time>
      </trkpt>
      <trkpt lat="10.1575471053673" lon="-75.6811132210939">
        <ele>52.421895</ele>
        <time>2019-09-10T15:24:23.800Z</time>
      </trkpt>
      <trkpt lat="10.1575488607517" lon="-75.6811152818073">
        <ele>52.321895</ele>
        <time>2019-09-10T15:24:23.900Z</time>
      </trkpt>
      <trkpt lat="10.1575506216599" lon="-75.68111733796">
        <ele>52.321895</ele>
        <time>2019-09-10T15:24:24.000Z</time>
      </trkpt>
      <trkpt lat="10.1575523902803" lon="-75.6811194013192">
        <ele>52.321895</ele>
        <time>2019-09-10T15:24:24.100Z</time>
      </trkpt>
      <trkpt lat="10.157554159943" lon="-75.6811214706664">
        <ele>52.321895</ele>
        <time>2019-09-10T15:24:24.200Z</time>
      </trkpt>
      <trkpt lat="10.157555917933" lon="-75.6811235329986">
        <ele>52.321895</ele>
        <time>2019-09-10T15:24:24.300Z</time>
      </trkpt>
      <trkpt lat="10.1575576624785" lon="-75.6811255943386">
        <ele>52.321895</ele>
        <time>2019-09-10T15:24:24.400Z</time>
      </trkpt>
      <trkpt lat="10.1575593855547" lon="-75.6811276721107">
        <ele>52.321895</ele>
        <time>2019-09-10T15:24:24.500Z</time>
      </trkpt>
      <trkpt lat="10.1575628283719" lon="-75.6811318630431">
        <ele>52.321895</ele>
        <time>2019-09-10T15:24:24.700Z</time>
      </trkpt>
      <trkpt lat="10.1575645538451" lon="-75.6811339661074">
        <ele>52.321895</ele>
        <time>2019-09-10T15:24:24.800Z</time>
      </trkpt>
      <trkpt lat="10.1575662532632" lon="-75.6811360583795">
        <ele>52.321895</ele>
        <time>2019-09-10T15:24:24.900Z</time>
      </trkpt>
      <trkpt lat="10.1575679346511" lon="-75.6811381480927">
        <ele>52.321895</ele>
        <time>2019-09-10T15:24:25.000Z</time>
      </trkpt>
      <trkpt lat="10.1575696014483" lon="-75.6811402189021">
        <ele>52.421895</ele>
        <time>2019-09-10T15:24:25.100Z</time>
      </trkpt>
      <trkpt lat="10.157571261471" lon="-75.6811422873789">
        <ele>52.421895</ele>
        <time>2019-09-10T15:24:25.200Z</time>
      </trkpt>
      <trkpt lat="10.1575729144068" lon="-75.6811443370476">
        <ele>52.421895</ele>
        <time>2019-09-10T15:24:25.300Z</time>
      </trkpt>
      <trkpt lat="10.1575745754718" lon="-75.6811463935572">
        <ele>52.421895</ele>
        <time>2019-09-10T15:24:25.400Z</time>
      </trkpt>
      <trkpt lat="10.1575762320553" lon="-75.6811484505542">
        <ele>52.421895</ele>
        <time>2019-09-10T15:24:25.500Z</time>
      </trkpt>
      <trkpt lat="10.1575778945794" lon="-75.6811505220946">
        <ele>52.421895</ele>
        <time>2019-09-10T15:24:25.600Z</time>
      </trkpt>
      <trkpt lat="10.1575795740914" lon="-75.6811525998842">
        <ele>52.421895</ele>
        <time>2019-09-10T15:24:25.700Z</time>
      </trkpt>
      <trkpt lat="10.1575812738222" lon="-75.6811546813726">
        <ele>52.421895</ele>
        <time>2019-09-10T15:24:25.800Z</time>
      </trkpt>
      <trkpt lat="10.1575829868931" lon="-75.6811567448276">
        <ele>52.421895</ele>
        <time>2019-09-10T15:24:25.900Z</time>
      </trkpt>
      <trkpt lat="10.1575847070511" lon="-75.6811587979341">
        <ele>52.421895</ele>
        <time>2019-09-10T15:24:26.000Z</time>
      </trkpt>
      <trkpt lat="10.1575864286681" lon="-75.6811608659236">
        <ele>52.421895</ele>
        <time>2019-09-10T15:24:26.100Z</time>
      </trkpt>
      <trkpt lat="10.157588151119" lon="-75.6811629424511">
        <ele>52.421895</ele>
        <time>2019-09-10T15:24:26.200Z</time>
      </trkpt>
      <trkpt lat="10.1575898812821" lon="-75.6811650119114">
        <ele>52.421895</ele>
        <time>2019-09-10T15:24:26.300Z</time>
      </trkpt>
      <trkpt lat="10.1575916170731" lon="-75.6811670786737">
        <ele>52.421895</ele>
        <time>2019-09-10T15:24:26.400Z</time>
      </trkpt>
      <trkpt lat="10.1575933387944" lon="-75.6811691330422">
        <ele>52.421895</ele>
        <time>2019-09-10T15:24:26.500Z</time>
      </trkpt>
      <trkpt lat="10.1575950491556" lon="-75.681171187933">
        <ele>52.421895</ele>
        <time>2019-09-10T15:24:26.600Z</time>
      </trkpt>
      <trkpt lat="10.1575967635815" lon="-75.6811732609878">
        <ele>52.421895</ele>
        <time>2019-09-10T15:24:26.700Z</time>
      </trkpt>
      <trkpt lat="10.1575984880125" lon="-75.6811753406399">
        <ele>52.421895</ele>
        <time>2019-09-10T15:24:26.800Z</time>
      </trkpt>
      <trkpt lat="10.1576002222402" lon="-75.6811774125546">
        <ele>52.421895</ele>
        <time>2019-09-10T15:24:26.900Z</time>
      </trkpt>
      <trkpt lat="10.1576019594903" lon="-75.6811794799783">
        <ele>52.421895</ele>
        <time>2019-09-10T15:24:27.000Z</time>
      </trkpt>
      <trkpt lat="10.1576036837128" lon="-75.6811815185066">
        <ele>52.421895</ele>
        <time>2019-09-10T15:24:27.100Z</time>
      </trkpt>
      <trkpt lat="10.157605398764" lon="-75.681183555329">
        <ele>52.421895</ele>
        <time>2019-09-10T15:24:27.200Z</time>
      </trkpt>
      <trkpt lat="10.1576071368479" lon="-75.681185636948">
        <ele>52.421895</ele>
        <time>2019-09-10T15:24:27.300Z</time>
      </trkpt>
      <trkpt lat="10.1576088891057" lon="-75.6811877487071">
        <ele>52.421895</ele>
        <time>2019-09-10T15:24:27.400Z</time>
      </trkpt>
      <trkpt lat="10.1576106070751" lon="-75.6811898240161">
        <ele>52.421895</ele>
        <time>2019-09-10T15:24:27.500Z</time>
      </trkpt>
      <trkpt lat="10.1576123084734" lon="-75.6811918822316">
        <ele>52.421895</ele>
        <time>2019-09-10T15:24:27.600Z</time>
      </trkpt>
      <trkpt lat="10.1576140347803" lon="-75.6811939727107">
        <ele>52.421895</ele>
        <time>2019-09-10T15:24:27.700Z</time>
      </trkpt>
      <trkpt lat="10.1576157852664" lon="-75.6811960868545">
        <ele>52.421895</ele>
        <time>2019-09-10T15:24:27.800Z</time>
      </trkpt>
      <trkpt lat="10.1576175687904" lon="-75.6811982138184">
        <ele>52.421895</ele>
        <time>2019-09-10T15:24:27.900Z</time>
      </trkpt>
      <trkpt lat="10.1576193480413" lon="-75.6812003327926">
        <ele>52.421895</ele>
        <time>2019-09-10T15:24:28.000Z</time>
      </trkpt>
      <trkpt lat="10.157621121977" lon="-75.6812024544736">
        <ele>52.421895</ele>
        <time>2019-09-10T15:24:28.100Z</time>
      </trkpt>
      <trkpt lat="10.1576228791333" lon="-75.6812045727776">
        <ele>52.421895</ele>
        <time>2019-09-10T15:24:28.200Z</time>
      </trkpt>
      <trkpt lat="10.1576246232619" lon="-75.6812066907074">
        <ele>52.421895</ele>
        <time>2019-09-10T15:24:28.300Z</time>
      </trkpt>
      <trkpt lat="10.1576263539461" lon="-75.6812088035457">
        <ele>52.421895</ele>
        <time>2019-09-10T15:24:28.400Z</time>
      </trkpt>
      <trkpt lat="10.1576280808784" lon="-75.6812109077762">
        <ele>52.421895</ele>
        <time>2019-09-10T15:24:28.500Z</time>
      </trkpt>
      <trkpt lat="10.1576298065601" lon="-75.6812130069327">
        <ele>52.421895</ele>
        <time>2019-09-10T15:24:28.600Z</time>
      </trkpt>
      <trkpt lat="10.1576315108765" lon="-75.6812150968591">
        <ele>52.421895</ele>
        <time>2019-09-10T15:24:28.700Z</time>
      </trkpt>
      <trkpt lat="10.1576332132128" lon="-75.6812171872817">
        <ele>52.321895</ele>
        <time>2019-09-10T15:24:28.800Z</time>
      </trkpt>
      <trkpt lat="10.157636588391" lon="-75.6812213223119">
        <ele>52.321895</ele>
        <time>2019-09-10T15:24:29.000Z</time>
      </trkpt>
      <trkpt lat="10.1576382853078" lon="-75.681223394875">
        <ele>52.321895</ele>
        <time>2019-09-10T15:24:29.100Z</time>
      </trkpt>
      <trkpt lat="10.1576399931156" lon="-75.681225483026">
        <ele>52.321895</ele>
        <time>2019-09-10T15:24:29.200Z</time>
      </trkpt>
      <trkpt lat="10.1576416845609" lon="-75.6812275738706">
        <ele>52.421895</ele>
        <time>2019-09-10T15:24:29.300Z</time>
      </trkpt>
      <trkpt lat="10.157643375485" lon="-75.6812296707773">
        <ele>52.421895</ele>
        <time>2019-09-10T15:24:29.400Z</time>
      </trkpt>
      <trkpt lat="10.1576450876701" lon="-75.6812317702862">
        <ele>52.421895</ele>
        <time>2019-09-10T15:24:29.500Z</time>
      </trkpt>
      <trkpt lat="10.1576468114237" lon="-75.6812338761313">
        <ele>52.321895</ele>
        <time>2019-09-10T15:24:29.600Z</time>
      </trkpt>
      <trkpt lat="10.1576485322069" lon="-75.6812359854881">
        <ele>52.321895</ele>
        <time>2019-09-10T15:24:29.700Z</time>
      </trkpt>
      <trkpt lat="10.1576502530945" lon="-75.6812380945622">
        <ele>52.321895</ele>
        <time>2019-09-10T15:24:29.800Z</time>
      </trkpt>
      <trkpt lat="10.1576520090521" lon="-75.6812402324054">
        <ele>52.321895</ele>
        <time>2019-09-10T15:24:29.900Z</time>
      </trkpt>
      <trkpt lat="10.1576537750671" lon="-75.6812423767414">
        <ele>52.321895</ele>
        <time>2019-09-10T15:24:30.000Z</time>
      </trkpt>
      <trkpt lat="10.1576555314416" lon="-75.6812445115385">
        <ele>52.321895</ele>
        <time>2019-09-10T15:24:30.100Z</time>
      </trkpt>
      <trkpt lat="10.1576572781758" lon="-75.6812466350994">
        <ele>52.321895</ele>
        <time>2019-09-10T15:24:30.200Z</time>
      </trkpt>
      <trkpt lat="10.1576590233467" lon="-75.6812487505226">
        <ele>52.321895</ele>
        <time>2019-09-10T15:24:30.300Z</time>
      </trkpt>
      <trkpt lat="10.1576607685696" lon="-75.6812508664571">
        <ele>52.321895</ele>
        <time>2019-09-10T15:24:30.400Z</time>
      </trkpt>
      <trkpt lat="10.157662514939" lon="-75.6812529695475">
        <ele>52.321895</ele>
        <time>2019-09-10T15:24:30.500Z</time>
      </trkpt>
      <trkpt lat="10.1576642626112" lon="-75.6812550707645">
        <ele>52.321895</ele>
        <time>2019-09-10T15:24:30.600Z</time>
      </trkpt>
      <trkpt lat="10.1576660007993" lon="-75.6812571863443">
        <ele>52.321895</ele>
        <time>2019-09-10T15:24:30.700Z</time>
      </trkpt>
      <trkpt lat="10.157667739769" lon="-75.6812593096659">
        <ele>52.321895</ele>
        <time>2019-09-10T15:24:30.800Z</time>
      </trkpt>
      <trkpt lat="10.157669476967" lon="-75.6812613954843">
        <ele>52.321895</ele>
        <time>2019-09-10T15:24:30.900Z</time>
      </trkpt>
      <trkpt lat="10.1576712183338" lon="-75.6812634680213">
        <ele>52.421895</ele>
        <time>2019-09-10T15:24:31.000Z</time>
      </trkpt>
      <trkpt lat="10.1576729553755" lon="-75.6812655333257">
        <ele>52.421895</ele>
        <time>2019-09-10T15:24:31.100Z</time>
      </trkpt>
      <trkpt lat="10.1576746944495" lon="-75.6812676086261">
        <ele>52.421895</ele>
        <time>2019-09-10T15:24:31.200Z</time>
      </trkpt>
      <trkpt lat="10.1576764266449" lon="-75.6812696828145">
        <ele>52.321895</ele>
        <time>2019-09-10T15:24:31.300Z</time>
      </trkpt>
      <trkpt lat="10.1576781608726" lon="-75.6812717659436">
        <ele>52.321895</ele>
        <time>2019-09-10T15:24:31.400Z</time>
      </trkpt>
      <trkpt lat="10.1576798914005" lon="-75.6812738525443">
        <ele>52.321895</ele>
        <time>2019-09-10T15:24:31.500Z</time>
      </trkpt>
      <trkpt lat="10.1576816228664" lon="-75.6812759426894">
        <ele>52.321895</ele>
        <time>2019-09-10T15:24:31.600Z</time>
      </trkpt>
      <trkpt lat="10.1576833491213" lon="-75.6812780371922">
        <ele>52.321895</ele>
        <time>2019-09-10T15:24:31.700Z</time>
      </trkpt>
      <trkpt lat="10.157685077669" lon="-75.6812801343088">
        <ele>52.321895</ele>
        <time>2019-09-10T15:24:31.800Z</time>
      </trkpt>
      <trkpt lat="10.1576868090306" lon="-75.6812822413767">
        <ele>52.321895</ele>
        <time>2019-09-10T15:24:31.900Z</time>
      </trkpt>
      <trkpt lat="10.157688542164" lon="-75.6812843510206">
        <ele>52.321895</ele>
        <time>2019-09-10T15:24:32.000Z</time>
      </trkpt>
      <trkpt lat="10.1576902797789" lon="-75.6812864395915">
        <ele>52.321895</ele>
        <time>2019-09-10T15:24:32.100Z</time>
      </trkpt>
      <trkpt lat="10.1576920223443" lon="-75.6812885211554">
        <ele>52.321895</ele>
        <time>2019-09-10T15:24:32.200Z</time>
      </trkpt>
      <trkpt lat="10.1576937677757" lon="-75.6812906029565">
        <ele>52.321895</ele>
        <time>2019-09-10T15:24:32.300Z</time>
      </trkpt>
      <trkpt lat="10.1576955134676" lon="-75.6812926937223">
        <ele>52.321895</ele>
        <time>2019-09-10T15:24:32.400Z</time>
      </trkpt>
      <trkpt lat="10.1576972825571" lon="-75.6812948142093">
        <ele>52.321895</ele>
        <time>2019-09-10T15:24:32.500Z</time>
      </trkpt>
      <trkpt lat="10.1576990506043" lon="-75.6812969436287">
        <ele>52.321895</ele>
        <time>2019-09-10T15:24:32.600Z</time>
      </trkpt>
      <trkpt lat="10.1577007454367" lon="-75.6812989966069">
        <ele>52.321895</ele>
        <time>2019-09-10T15:24:32.700Z</time>
      </trkpt>
      <trkpt lat="10.1577024121296" lon="-75.6813010206885">
        <ele>52.321895</ele>
        <time>2019-09-10T15:24:32.800Z</time>
      </trkpt>
      <trkpt lat="10.1577040740805" lon="-75.6813030433537">
        <ele>52.321895</ele>
        <time>2019-09-10T15:24:32.900Z</time>
      </trkpt>
      <trkpt lat="10.157707483964" lon="-75.6813072172568">
        <ele>52.321895</ele>
        <time>2019-09-10T15:24:33.100Z</time>
      </trkpt>
      <trkpt lat="10.1577092212142" lon="-75.6813093633095">
        <ele>52.421895</ele>
        <time>2019-09-10T15:24:33.200Z</time>
      </trkpt>
      <trkpt lat="10.1577109702412" lon="-75.6813115186249">
        <ele>52.421895</ele>
        <time>2019-09-10T15:24:33.300Z</time>
      </trkpt>
      <trkpt lat="10.1577127146304" lon="-75.6813136579478">
        <ele>52.421895</ele>
        <time>2019-09-10T15:24:33.400Z</time>
      </trkpt>
      <trkpt lat="10.1577144446893" lon="-75.6813157965308">
        <ele>52.421895</ele>
        <time>2019-09-10T15:24:33.500Z</time>
      </trkpt>
      <trkpt lat="10.1577161683386" lon="-75.6813179228811">
        <ele>52.421895</ele>
        <time>2019-09-10T15:24:33.600Z</time>
      </trkpt>
      <trkpt lat="10.1577178988665" lon="-75.6813200388701">
        <ele>52.421895</ele>
        <time>2019-09-10T15:24:33.700Z</time>
      </trkpt>
      <trkpt lat="10.157719632521" lon="-75.6813221516082">
        <ele>52.421895</ele>
        <time>2019-09-10T15:24:33.800Z</time>
      </trkpt>
      <trkpt lat="10.1577213672699" lon="-75.6813242560716">
        <ele>52.421895</ele>
        <time>2019-09-10T15:24:33.900Z</time>
      </trkpt>
      <trkpt lat="10.1577231023834" lon="-75.6813263615206">
        <ele>52.421895</ele>
        <time>2019-09-10T15:24:34.000Z</time>
      </trkpt>
      <trkpt lat="10.1577248453657" lon="-75.6813284565082">
        <ele>52.421895</ele>
        <time>2019-09-10T15:24:34.100Z</time>
      </trkpt>
      <trkpt lat="10.1577265905365" lon="-75.6813305551555">
        <ele>52.421895</ele>
        <time>2019-09-10T15:24:34.200Z</time>
      </trkpt>
      <trkpt lat="10.1577283414916" lon="-75.6813326489288">
        <ele>52.421895</ele>
        <time>2019-09-10T15:24:34.300Z</time>
      </trkpt>
      <trkpt lat="10.1577300928115" lon="-75.6813347492342">
        <ele>52.421895</ele>
        <time>2019-09-10T15:24:34.400Z</time>
      </trkpt>
      <trkpt lat="10.157731843975" lon="-75.6813368447917">
        <ele>52.321895</ele>
        <time>2019-09-10T15:24:34.500Z</time>
      </trkpt>
      <trkpt lat="10.1577335912303" lon="-75.6813389482869">
        <ele>52.321895</ele>
        <time>2019-09-10T15:24:34.600Z</time>
      </trkpt>
      <trkpt lat="10.1577353073237" lon="-75.681341047204">
        <ele>52.321895</ele>
        <time>2019-09-10T15:24:34.700Z</time>
      </trkpt>
      <trkpt lat="10.1577370122134" lon="-75.6813431514215">
        <ele>52.321895</ele>
        <time>2019-09-10T15:24:34.800Z</time>
      </trkpt>
      <trkpt lat="10.1577387092344" lon="-75.6813452505431">
        <ele>52.321895</ele>
        <time>2019-09-10T15:24:34.900Z</time>
      </trkpt>
      <trkpt lat="10.1577404141241" lon="-75.6813473531592">
        <ele>52.321895</ele>
        <time>2019-09-10T15:24:35.000Z</time>
      </trkpt>
      <trkpt lat="10.157742140431" lon="-75.6813494762545">
        <ele>52.321895</ele>
        <time>2019-09-10T15:24:35.100Z</time>
      </trkpt>
      <trkpt lat="10.157743873356" lon="-75.681351606665">
        <ele>52.321895</ele>
        <time>2019-09-10T15:24:35.200Z</time>
      </trkpt>
      <trkpt lat="10.1577455739205" lon="-75.681353729077">
        <ele>52.321895</ele>
        <time>2019-09-10T15:24:35.300Z</time>
      </trkpt>
      <trkpt lat="10.1577472630729" lon="-75.6813558432687">
        <ele>52.321895</ele>
        <time>2019-09-10T15:24:35.400Z</time>
      </trkpt>
      <trkpt lat="10.1577489402921" lon="-75.6813579486916">
        <ele>52.321895</ele>
        <time>2019-09-10T15:24:35.500Z</time>
      </trkpt>
      <trkpt lat="10.1577506277769" lon="-75.6813600539361">
        <ele>52.321895</ele>
        <time>2019-09-10T15:24:35.600Z</time>
      </trkpt>
      <trkpt lat="10.1577523049961" lon="-75.6813621519263">
        <ele>52.321895</ele>
        <time>2019-09-10T15:24:35.700Z</time>
      </trkpt>
      <trkpt lat="10.1577539918556" lon="-75.6813642552604">
        <ele>52.421895</ele>
        <time>2019-09-10T15:24:35.800Z</time>
      </trkpt>
      <trkpt lat="10.1577556945566" lon="-75.6813663509964">
        <ele>52.421895</ele>
        <time>2019-09-10T15:24:35.900Z</time>
      </trkpt>
      <trkpt lat="10.1577574121612" lon="-75.681368451528">
        <ele>52.421895</ele>
        <time>2019-09-10T15:24:36.000Z</time>
      </trkpt>
      <trkpt lat="10.1577591245026" lon="-75.6813705477775">
        <ele>52.421895</ele>
        <time>2019-09-10T15:24:36.100Z</time>
      </trkpt>
      <trkpt lat="10.1577608366356" lon="-75.6813726463422">
        <ele>52.421895</ele>
        <time>2019-09-10T15:24:36.200Z</time>
      </trkpt>
      <trkpt lat="10.1577625665382" lon="-75.6813747408684">
        <ele>52.421895</ele>
        <time>2019-09-10T15:24:36.300Z</time>
      </trkpt>
      <trkpt lat="10.1577643057685" lon="-75.6813768406341">
        <ele>52.421895</ele>
        <time>2019-09-10T15:24:36.400Z</time>
      </trkpt>
      <trkpt lat="10.157766029001" lon="-75.6813789381456">
        <ele>52.421895</ele>
        <time>2019-09-10T15:24:36.500Z</time>
      </trkpt>
      <trkpt lat="10.1577677467619" lon="-75.6813810397738">
        <ele>52.421895</ele>
        <time>2019-09-10T15:24:36.600Z</time>
      </trkpt>
      <trkpt lat="10.1577694704633" lon="-75.6813831641877">
        <ele>52.421895</ele>
        <time>2019-09-10T15:24:36.700Z</time>
      </trkpt>
      <trkpt lat="10.1577712045347" lon="-75.6813852957384">
        <ele>52.421895</ele>
        <time>2019-09-10T15:24:36.800Z</time>
      </trkpt>
      <trkpt lat="10.1577729456931" lon="-75.6813874240949">
        <ele>52.421895</ele>
        <time>2019-09-10T15:24:36.900Z</time>
      </trkpt>
      <trkpt lat="10.1577746893006" lon="-75.6813895470465">
        <ele>52.421895</ele>
        <time>2019-09-10T15:24:37.000Z</time>
      </trkpt>
      <trkpt lat="10.1577764140443" lon="-75.6813916384482">
        <ele>52.421895</ele>
        <time>2019-09-10T15:24:37.100Z</time>
      </trkpt>
      <trkpt lat="10.1577798452931" lon="-75.681395809911">
        <ele>52.421895</ele>
        <time>2019-09-10T15:24:37.300Z</time>
      </trkpt>
      <trkpt lat="10.1577815714958" lon="-75.6813979247946">
        <ele>52.421895</ele>
        <time>2019-09-10T15:24:37.400Z</time>
      </trkpt>
      <trkpt lat="10.1577833250043" lon="-75.6814000888265">
        <ele>52.421895</ele>
        <time>2019-09-10T15:24:37.500Z</time>
      </trkpt>
      <trkpt lat="10.157785090915" lon="-75.6814022632068">
        <ele>52.421895</ele>
        <time>2019-09-10T15:24:37.600Z</time>
      </trkpt>
      <trkpt lat="10.1577868606298" lon="-75.6814044312597">
        <ele>52.421895</ele>
        <time>2019-09-10T15:24:37.700Z</time>
      </trkpt>
      <trkpt lat="10.1577886239871" lon="-75.6814065717748">
        <ele>52.421895</ele>
        <time>2019-09-10T15:24:37.800Z</time>
      </trkpt>
      <trkpt lat="10.1577903855727" lon="-75.6814087144485">
        <ele>52.421895</ele>
        <time>2019-09-10T15:24:37.900Z</time>
      </trkpt>
      <trkpt lat="10.1577921419473" lon="-75.6814108520132">
        <ele>52.421895</ele>
        <time>2019-09-10T15:24:38.000Z</time>
      </trkpt>
      <trkpt lat="10.1577938866491" lon="-75.6814129997784">
        <ele>52.421895</ele>
        <time>2019-09-10T15:24:38.100Z</time>
      </trkpt>
      <trkpt lat="10.1577956222317" lon="-75.681415139519">
        <ele>52.321895</ele>
        <time>2019-09-10T15:24:38.200Z</time>
      </trkpt>
      <trkpt lat="10.1577973458289" lon="-75.6814172895645">
        <ele>52.321895</ele>
        <time>2019-09-10T15:24:38.300Z</time>
      </trkpt>
      <trkpt lat="10.1577990668207" lon="-75.6814194334218">
        <ele>52.321895</ele>
        <time>2019-09-10T15:24:38.400Z</time>
      </trkpt>
      <trkpt lat="10.1578007638938" lon="-75.6814215355113">
        <ele>52.321895</ele>
        <time>2019-09-10T15:24:38.500Z</time>
      </trkpt>
      <trkpt lat="10.1578024486168" lon="-75.6814236256597">
        <ele>52.321895</ele>
        <time>2019-09-10T15:24:38.600Z</time>
      </trkpt>
      <trkpt lat="10.1578041098903" lon="-75.6814257083841">
        <ele>52.421895</ele>
        <time>2019-09-10T15:24:38.700Z</time>
      </trkpt>
      <trkpt lat="10.1578057864841" lon="-75.6814277994202">
        <ele>52.421895</ele>
        <time>2019-09-10T15:24:38.800Z</time>
      </trkpt>
      <trkpt lat="10.1578074822024" lon="-75.6814299072888">
        <ele>52.421895</ele>
        <time>2019-09-10T15:24:38.900Z</time>
      </trkpt>
      <trkpt lat="10.1578091987126" lon="-75.6814320279863">
        <ele>52.421895</ele>
        <time>2019-09-10T15:24:39.000Z</time>
      </trkpt>
      <trkpt lat="10.1578109120962" lon="-75.6814341385617">
        <ele>52.421895</ele>
        <time>2019-09-10T15:24:39.100Z</time>
      </trkpt>
      <trkpt lat="10.1578126292839" lon="-75.6814362472484">
        <ele>52.421895</ele>
        <time>2019-09-10T15:24:39.200Z</time>
      </trkpt>
      <trkpt lat="10.157814360385" lon="-75.6814383254208">
        <ele>52.421895</ele>
        <time>2019-09-10T15:24:39.300Z</time>
      </trkpt>
      <trkpt lat="10.1578161002407" lon="-75.6814403974661">
        <ele>52.421895</ele>
        <time>2019-09-10T15:24:39.400Z</time>
      </trkpt>
      <trkpt lat="10.1578178485902" lon="-75.6814424628271">
        <ele>52.421895</ele>
        <time>2019-09-10T15:24:39.500Z</time>
      </trkpt>
      <trkpt lat="10.1578196004833" lon="-75.6814445385104">
        <ele>52.421895</ele>
        <time>2019-09-10T15:24:39.600Z</time>
      </trkpt>
      <trkpt lat="10.1578213292916" lon="-75.6814465883792">
        <ele>52.421895</ele>
        <time>2019-09-10T15:24:39.700Z</time>
      </trkpt>
      <trkpt lat="10.1578230491369" lon="-75.6814486443057">
        <ele>52.421895</ele>
        <time>2019-09-10T15:24:39.800Z</time>
      </trkpt>
      <trkpt lat="10.1578247626247" lon="-75.6814507037832">
        <ele>52.421895</ele>
        <time>2019-09-10T15:24:39.900Z</time>
      </trkpt>
      <trkpt lat="10.1578264803856" lon="-75.6814527782132">
        <ele>52.421895</ele>
        <time>2019-09-10T15:24:40.000Z</time>
      </trkpt>
      <trkpt lat="10.1578281904342" lon="-75.6814548622866">
        <ele>52.421895</ele>
        <time>2019-09-10T15:24:40.100Z</time>
      </trkpt>
      <trkpt lat="10.1578298997533" lon="-75.6814569612429">
        <ele>52.421895</ele>
        <time>2019-09-10T15:24:40.200Z</time>
      </trkpt>
      <trkpt lat="10.1578316161593" lon="-75.6814591028982">
        <ele>52.421895</ele>
        <time>2019-09-10T15:24:40.300Z</time>
      </trkpt>
      <trkpt lat="10.1578333369426" lon="-75.6814612519863">
        <ele>52.421895</ele>
        <time>2019-09-10T15:24:40.400Z</time>
      </trkpt>
      <trkpt lat="10.157835047877" lon="-75.6814633814917">
        <ele>52.421895</ele>
        <time>2019-09-10T15:24:40.500Z</time>
      </trkpt>
      <trkpt lat="10.1578367585509" lon="-75.6814654940427">
        <ele>52.421895</ele>
        <time>2019-09-10T15:24:40.600Z</time>
      </trkpt>
      <trkpt lat="10.1578384575521" lon="-75.6814675934516">
        <ele>52.421895</ele>
        <time>2019-09-10T15:24:40.700Z</time>
      </trkpt>
      <trkpt lat="10.1578401572308" lon="-75.6814696944271">
        <ele>52.421895</ele>
        <time>2019-09-10T15:24:40.800Z</time>
      </trkpt>
      <trkpt lat="10.1578418619641" lon="-75.6814718115387">
        <ele>52.421895</ele>
        <time>2019-09-10T15:24:40.900Z</time>
      </trkpt>
      <trkpt lat="10.1578435753478" lon="-75.6814739367097">
        <ele>52.421895</ele>
        <time>2019-09-10T15:24:41.000Z</time>
      </trkpt>
      <trkpt lat="10.1578452757039" lon="-75.681476057355">
        <ele>52.421895</ele>
        <time>2019-09-10T15:24:41.100Z</time>
      </trkpt>
      <trkpt lat="10.1578486596886" lon="-75.6814802951119">
        <ele>52.421895</ele>
        <time>2019-09-10T15:24:41.300Z</time>
      </trkpt>
      <trkpt lat="10.1578503577519" lon="-75.6814824190993">
        <ele>52.421895</ele>
        <time>2019-09-10T15:24:41.400Z</time>
      </trkpt>
      <trkpt lat="10.1578520598276" lon="-75.6814845553759">
        <ele>52.421895</ele>
        <time>2019-09-10T15:24:41.500Z</time>
      </trkpt>
      <trkpt lat="10.1578537729507" lon="-75.681486698859">
        <ele>52.421895</ele>
        <time>2019-09-10T15:24:41.600Z</time>
      </trkpt>
      <trkpt lat="10.1578555080122" lon="-75.6814888501229">
        <ele>52.421895</ele>
        <time>2019-09-10T15:24:41.700Z</time>
      </trkpt>
      <trkpt lat="10.1578572615728" lon="-75.681490991169">
        <ele>52.421895</ele>
        <time>2019-09-10T15:24:41.800Z</time>
      </trkpt>
      <trkpt lat="10.1578590234189" lon="-75.6814931359054">
        <ele>52.421895</ele>
        <time>2019-09-10T15:24:41.900Z</time>
      </trkpt>
      <trkpt lat="10.1578607824511" lon="-75.6814952739749">
        <ele>52.421895</ele>
        <time>2019-09-10T15:24:42.000Z</time>
      </trkpt>
      <trkpt lat="10.1578625056835" lon="-75.6814974191291">
        <ele>52.421895</ele>
        <time>2019-09-10T15:24:42.100Z</time>
      </trkpt>
      <trkpt lat="10.1578642175039" lon="-75.6814995598096">
        <ele>52.421895</ele>
        <time>2019-09-10T15:24:42.200Z</time>
      </trkpt>
      <trkpt lat="10.1578659195796" lon="-75.6815016914386">
        <ele>52.421895</ele>
        <time>2019-09-10T15:24:42.300Z</time>
      </trkpt>
      <trkpt lat="10.1578676326506" lon="-75.681503813929">
        <ele>52.421895</ele>
        <time>2019-09-10T15:24:42.400Z</time>
      </trkpt>
      <trkpt lat="10.1578693305054" lon="-75.681505918351">
        <ele>52.421895</ele>
        <time>2019-09-10T15:24:42.500Z</time>
      </trkpt>
      <trkpt lat="10.1578710454002" lon="-75.6815080227383">
        <ele>52.421895</ele>
        <time>2019-09-10T15:24:42.600Z</time>
      </trkpt>
      <trkpt lat="10.1578727902063" lon="-75.6815101725923">
        <ele>52.421895</ele>
        <time>2019-09-10T15:24:42.700Z</time>
      </trkpt>
      <trkpt lat="10.1578745595042" lon="-75.6815123449185">
        <ele>52.421895</ele>
        <time>2019-09-10T15:24:42.800Z</time>
      </trkpt>
      <trkpt lat="10.1578763561599" lon="-75.6815145274627">
        <ele>52.421895</ele>
        <time>2019-09-10T15:24:42.900Z</time>
      </trkpt>
      <trkpt lat="10.1578781455202" lon="-75.6815166916077">
        <ele>52.421895</ele>
        <time>2019-09-10T15:24:43.000Z</time>
      </trkpt>
      <trkpt lat="10.1578799273246" lon="-75.6815188274317">
        <ele>52.421895</ele>
        <time>2019-09-10T15:24:43.100Z</time>
      </trkpt>
      <trkpt lat="10.1578816958408" lon="-75.6815209476244">
        <ele>52.421895</ele>
        <time>2019-09-10T15:24:43.200Z</time>
      </trkpt>
      <trkpt lat="10.1578834441904" lon="-75.6815230712636">
        <ele>52.421895</ele>
        <time>2019-09-10T15:24:43.300Z</time>
      </trkpt>
      <trkpt lat="10.1578851893613" lon="-75.6815251959125">
        <ele>52.421895</ele>
        <time>2019-09-10T15:24:43.400Z</time>
      </trkpt>
      <trkpt lat="10.1578869545424" lon="-75.6815272988723">
        <ele>52.421895</ele>
        <time>2019-09-10T15:24:43.500Z</time>
      </trkpt>
      <trkpt lat="10.1578887310315" lon="-75.6815293952524">
        <ele>52.421895</ele>
        <time>2019-09-10T15:24:43.600Z</time>
      </trkpt>
      <trkpt lat="10.157890497776" lon="-75.6815314758966">
        <ele>52.421895</ele>
        <time>2019-09-10T15:24:43.700Z</time>
      </trkpt>
      <trkpt lat="10.1578922624361" lon="-75.6815335600222">
        <ele>52.321895</ele>
        <time>2019-09-10T15:24:43.800Z</time>
      </trkpt>
      <trkpt lat="10.1578940353817" lon="-75.6815356632258">
        <ele>52.321895</ele>
        <time>2019-09-10T15:24:43.900Z</time>
      </trkpt>
      <trkpt lat="10.1578958126525" lon="-75.6815377690926">
        <ele>52.421895</ele>
        <time>2019-09-10T15:24:44.000Z</time>
      </trkpt>
      <trkpt lat="10.1578975750718" lon="-75.6815398724354">
        <ele>52.421895</ele>
        <time>2019-09-10T15:24:44.100Z</time>
      </trkpt>
      <trkpt lat="10.1578993260269" lon="-75.6815419675796">
        <ele>52.421895</ele>
        <time>2019-09-10T15:24:44.200Z</time>
      </trkpt>
      <trkpt lat="10.1579010679148" lon="-75.6815440380756">
        <ele>52.421895</ele>
        <time>2019-09-10T15:24:44.300Z</time>
      </trkpt>
      <trkpt lat="10.1579027869785" lon="-75.6815460957254">
        <ele>52.421895</ele>
        <time>2019-09-10T15:24:44.400Z</time>
      </trkpt>
      <trkpt lat="10.1579044756619" lon="-75.681548153584">
        <ele>52.421895</ele>
        <time>2019-09-10T15:24:44.500Z</time>
      </trkpt>
      <trkpt lat="10.157906146732" lon="-75.6815502176221">
        <ele>52.321895</ele>
        <time>2019-09-10T15:24:44.600Z</time>
      </trkpt>
      <trkpt lat="10.1579077889852" lon="-75.6815522432258">
        <ele>52.321895</ele>
        <time>2019-09-10T15:24:44.700Z</time>
      </trkpt>
      <trkpt lat="10.1579110411833" lon="-75.6815562841805">
        <ele>52.321895</ele>
        <time>2019-09-10T15:24:44.900Z</time>
      </trkpt>
      <trkpt lat="10.157912657173" lon="-75.6815583276611">
        <ele>52.321895</ele>
        <time>2019-09-10T15:24:45.000Z</time>
      </trkpt>
      <trkpt lat="10.1579159104132" lon="-75.6815624218112">
        <ele>52.321895</ele>
        <time>2019-09-10T15:24:45.200Z</time>
      </trkpt>
      <trkpt lat="10.1579176138438" lon="-75.6815644897659">
        <ele>52.321895</ele>
        <time>2019-09-10T15:24:45.300Z</time>
      </trkpt>
      <trkpt lat="10.1579193602132" lon="-75.6815665675728">
        <ele>52.321895</ele>
        <time>2019-09-10T15:24:45.400Z</time>
      </trkpt>
      <trkpt lat="10.1579211510326" lon="-75.6815686739792">
        <ele>52.321895</ele>
        <time>2019-09-10T15:24:45.500Z</time>
      </trkpt>
      <trkpt lat="10.157922954619" lon="-75.6815707886365">
        <ele>52.321895</ele>
        <time>2019-09-10T15:24:45.600Z</time>
      </trkpt>
      <trkpt lat="10.1579247585181" lon="-75.6815728837981">
        <ele>52.321895</ele>
        <time>2019-09-10T15:24:45.700Z</time>
      </trkpt>
      <trkpt lat="10.157926554288" lon="-75.68157495365">
        <ele>52.321895</ele>
        <time>2019-09-10T15:24:45.800Z</time>
      </trkpt>
      <trkpt lat="10.1579283415639" lon="-75.6815770372883">
        <ele>52.421895</ele>
        <time>2019-09-10T15:24:45.900Z</time>
      </trkpt>
      <trkpt lat="10.1579301310284" lon="-75.6815791252086">
        <ele>52.421895</ele>
        <time>2019-09-10T15:24:46.000Z</time>
      </trkpt>
      <trkpt lat="10.1579319139271" lon="-75.6815811857305">
        <ele>52.421895</ele>
        <time>2019-09-10T15:24:46.100Z</time>
      </trkpt>
      <trkpt lat="10.1579336949498" lon="-75.6815832285322">
        <ele>52.421895</ele>
        <time>2019-09-10T15:24:46.200Z</time>
      </trkpt>
      <trkpt lat="10.1579354619027" lon="-75.6815852568513">
        <ele>52.421895</ele>
        <time>2019-09-10T15:24:46.300Z</time>
      </trkpt>
      <trkpt lat="10.1579372292204" lon="-75.681587284509">
        <ele>52.421895</ele>
        <time>2019-09-10T15:24:46.400Z</time>
      </trkpt>
      <trkpt lat="10.1579389989352" lon="-75.6815893080239">
        <ele>52.421895</ele>
        <time>2019-09-10T15:24:46.500Z</time>
      </trkpt>
      <trkpt lat="10.157940778134" lon="-75.681591333732">
        <ele>52.421895</ele>
        <time>2019-09-10T15:24:46.600Z</time>
      </trkpt>
      <trkpt lat="10.1579425706209" lon="-75.6815933636178">
        <ele>52.421895</ele>
        <time>2019-09-10T15:24:46.700Z</time>
      </trkpt>
      <trkpt lat="10.1579443715497" lon="-75.6815954009537">
        <ele>52.421895</ele>
        <time>2019-09-10T15:24:46.800Z</time>
      </trkpt>
      <trkpt lat="10.1579461782106" lon="-75.6815974532248">
        <ele>52.421895</ele>
        <time>2019-09-10T15:24:46.900Z</time>
      </trkpt>
      <trkpt lat="10.1579479844546" lon="-75.6815995120408">
        <ele>52.421895</ele>
        <time>2019-09-10T15:24:47.000Z</time>
      </trkpt>
      <trkpt lat="10.1579497557848" lon="-75.6816015830764">
        <ele>52.421895</ele>
        <time>2019-09-10T15:24:47.100Z</time>
      </trkpt>
      <trkpt lat="10.1579515183605" lon="-75.6816036567927">
        <ele>52.421895</ele>
        <time>2019-09-10T15:24:47.200Z</time>
      </trkpt>
      <trkpt lat="10.1579532758815" lon="-75.6816057594741">
        <ele>52.421895</ele>
        <time>2019-09-10T15:24:47.300Z</time>
      </trkpt>
      <trkpt lat="10.1579550351742" lon="-75.6816078599274">
        <ele>52.421895</ele>
        <time>2019-09-10T15:24:47.400Z</time>
      </trkpt>
      <trkpt lat="10.1579567844097" lon="-75.6816099544623">
        <ele>52.421895</ele>
        <time>2019-09-10T15:24:47.500Z</time>
      </trkpt>
      <trkpt lat="10.1579602735529" lon="-75.6816141290496">
        <ele>52.421895</ele>
        <time>2019-09-10T15:24:47.700Z</time>
      </trkpt>
      <trkpt lat="10.1579620080411" lon="-75.6816162227838">
        <ele>52.421895</ele>
        <time>2019-09-10T15:24:47.800Z</time>
      </trkpt>
      <trkpt lat="10.1579637309088" lon="-75.6816183029059">
        <ele>52.421895</ele>
        <time>2019-09-10T15:24:47.900Z</time>
      </trkpt>
      <trkpt lat="10.1579654619578" lon="-75.6816203767614">
        <ele>52.421895</ele>
        <time>2019-09-10T15:24:48.000Z</time>
      </trkpt>
      <trkpt lat="10.1579672074934" lon="-75.6816224871714">
        <ele>52.421895</ele>
        <time>2019-09-10T15:24:48.100Z</time>
      </trkpt>
      <trkpt lat="10.1579689633469" lon="-75.6816246093485">
        <ele>52.421895</ele>
        <time>2019-09-10T15:24:48.200Z</time>
      </trkpt>
      <trkpt lat="10.1579706946043" lon="-75.6816266910372">
        <ele>52.421895</ele>
        <time>2019-09-10T15:24:48.300Z</time>
      </trkpt>
      <trkpt lat="10.1579724169509" lon="-75.6816287554234">
        <ele>52.421895</ele>
        <time>2019-09-10T15:24:48.400Z</time>
      </trkpt>
      <trkpt lat="10.1579741311683" lon="-75.6816308286871">
        <ele>52.421895</ele>
        <time>2019-09-10T15:24:48.500Z</time>
      </trkpt>
      <trkpt lat="10.1579758518474" lon="-75.6816329200888">
        <ele>52.421895</ele>
        <time>2019-09-10T15:24:48.600Z</time>
      </trkpt>
      <trkpt lat="10.1579775229175" lon="-75.6816349951976">
        <ele>52.421895</ele>
        <time>2019-09-10T15:24:48.700Z</time>
      </trkpt>
      <trkpt lat="10.1579791867965" lon="-75.6816370730568">
        <ele>52.421895</ele>
        <time>2019-09-10T15:24:48.800Z</time>
      </trkpt>
      <trkpt lat="10.157980875532" lon="-75.6816391798113">
        <ele>52.421895</ele>
        <time>2019-09-10T15:24:48.900Z</time>
      </trkpt>
      <trkpt lat="10.1579843230912" lon="-75.6816433944345">
        <ele>52.421895</ele>
        <time>2019-09-10T15:24:49.100Z</time>
      </trkpt>
      <trkpt lat="10.1579860510657" lon="-75.681645471667">
        <ele>52.421895</ele>
        <time>2019-09-10T15:24:49.200Z</time>
      </trkpt>
      <trkpt lat="10.1579877613228" lon="-75.6816475424589">
        <ele>52.421895</ele>
        <time>2019-09-10T15:24:49.300Z</time>
      </trkpt>
      <trkpt lat="10.1579894605845" lon="-75.6816496192737">
        <ele>52.421895</ele>
        <time>2019-09-10T15:24:49.400Z</time>
      </trkpt>
      <trkpt lat="10.1579911714148" lon="-75.6816516782986">
        <ele>52.421895</ele>
        <time>2019-09-10T15:24:49.500Z</time>
      </trkpt>
      <trkpt lat="10.1579928910516" lon="-75.6816537380894">
        <ele>52.421895</ele>
        <time>2019-09-10T15:24:49.600Z</time>
      </trkpt>
      <trkpt lat="10.1579946027677" lon="-75.6816557804733">
        <ele>52.421895</ele>
        <time>2019-09-10T15:24:49.700Z</time>
      </trkpt>
      <trkpt lat="10.1579963104192" lon="-75.6816578356687">
        <ele>52.421895</ele>
        <time>2019-09-10T15:24:49.800Z</time>
      </trkpt>
      <trkpt lat="10.1579980075966" lon="-75.6816598788533">
        <ele>52.421895</ele>
        <time>2019-09-10T15:24:49.900Z</time>
      </trkpt>
      <trkpt lat="10.1579997049824" lon="-75.6816619423344">
        <ele>52.421895</ele>
        <time>2019-09-10T15:24:50.000Z</time>
      </trkpt>
      <trkpt lat="10.1580013870478" lon="-75.6816639987134">
        <ele>52.421895</ele>
        <time>2019-09-10T15:24:50.100Z</time>
      </trkpt>
      <trkpt lat="10.1580030757312" lon="-75.6816660724646">
        <ele>52.421895</ele>
        <time>2019-09-10T15:24:50.200Z</time>
      </trkpt>
      <trkpt lat="10.158004764154" lon="-75.6816681271029">
        <ele>52.421895</ele>
        <time>2019-09-10T15:24:50.300Z</time>
      </trkpt>
      <trkpt lat="10.158006458309" lon="-75.6816701906188">
        <ele>52.421895</ele>
        <time>2019-09-10T15:24:50.400Z</time>
      </trkpt>
      <trkpt lat="10.1580081371957" lon="-75.6816722551094">
        <ele>52.421895</ele>
        <time>2019-09-10T15:24:50.500Z</time>
      </trkpt>
      <trkpt lat="10.158009831507" lon="-75.6816743369722">
        <ele>52.421895</ele>
        <time>2019-09-10T15:24:50.600Z</time>
      </trkpt>
      <trkpt lat="10.158011527121" lon="-75.6816764255887">
        <ele>52.421895</ele>
        <time>2019-09-10T15:24:50.700Z</time>
      </trkpt>
      <trkpt lat="10.1580132353979" lon="-75.6816785256939">
        <ele>52.421895</ele>
        <time>2019-09-10T15:24:50.800Z</time>
      </trkpt>
      <trkpt lat="10.158014939558" lon="-75.6816806054678">
        <ele>52.421895</ele>
        <time>2019-09-10T15:24:50.900Z</time>
      </trkpt>
      <trkpt lat="10.1580166524205" lon="-75.6816826822129">
        <ele>52.421895</ele>
        <time>2019-09-10T15:24:51.000Z</time>
      </trkpt>
      <trkpt lat="10.158018345377" lon="-75.6816847606987">
        <ele>52.421895</ele>
        <time>2019-09-10T15:24:51.100Z</time>
      </trkpt>
      <trkpt lat="10.1580200404699" lon="-75.6816868555817">
        <ele>52.421895</ele>
        <time>2019-09-10T15:24:51.200Z</time>
      </trkpt>
      <trkpt lat="10.1580217406697" lon="-75.6816889778981">
        <ele>52.421895</ele>
        <time>2019-09-10T15:24:51.300Z</time>
      </trkpt>
      <trkpt lat="10.1580234531153" lon="-75.6816911143836">
        <ele>52.421895</ele>
        <time>2019-09-10T15:24:51.400Z</time>
      </trkpt>
      <trkpt lat="10.1580251502406" lon="-75.6816932529927">
        <ele>52.421895</ele>
        <time>2019-09-10T15:24:51.500Z</time>
      </trkpt>
      <trkpt lat="10.1580268464279" lon="-75.6816953835599">
        <ele>52.421895</ele>
        <time>2019-09-10T15:24:51.600Z</time>
      </trkpt>
      <trkpt lat="10.1580285517865" lon="-75.6816975295496">
        <ele>52.421895</ele>
        <time>2019-09-10T15:24:51.700Z</time>
      </trkpt>
      <trkpt lat="10.1580302664208" lon="-75.6816996783591">
        <ele>52.421895</ele>
        <time>2019-09-10T15:24:51.800Z</time>
      </trkpt>
      <trkpt lat="10.1580319730301" lon="-75.6817018394928">
        <ele>52.421895</ele>
        <time>2019-09-10T15:24:51.900Z</time>
      </trkpt>
      <trkpt lat="10.1580336795352" lon="-75.6817039933852">
        <ele>52.421895</ele>
        <time>2019-09-10T15:24:52.000Z</time>
      </trkpt>
      <trkpt lat="10.1580353996932" lon="-75.681706182718">
        <ele>52.421895</ele>
        <time>2019-09-10T15:24:52.100Z</time>
      </trkpt>
      <trkpt lat="10.1580371273029" lon="-75.6817083680472">
        <ele>52.421895</ele>
        <time>2019-09-10T15:24:52.200Z</time>
      </trkpt>
      <trkpt lat="10.1580388696077" lon="-75.6817105323837">
        <ele>52.421895</ele>
        <time>2019-09-10T15:24:52.300Z</time>
      </trkpt>
      <trkpt lat="10.1580406138406" lon="-75.6817126724898">
        <ele>52.421895</ele>
        <time>2019-09-10T15:24:52.400Z</time>
      </trkpt>
      <trkpt lat="10.1580423474951" lon="-75.6817147855109">
        <ele>52.421895</ele>
        <time>2019-09-10T15:24:52.500Z</time>
      </trkpt>
      <trkpt lat="10.158044072343" lon="-75.6817168916736">
        <ele>52.421895</ele>
        <time>2019-09-10T15:24:52.600Z</time>
      </trkpt>
      <trkpt lat="10.1580458236107" lon="-75.6817190272888">
        <ele>52.421895</ele>
        <time>2019-09-10T15:24:52.700Z</time>
      </trkpt>
      <trkpt lat="10.1580493502732" lon="-75.681723310878">
        <ele>52.421895</ele>
        <time>2019-09-10T15:24:52.900Z</time>
      </trkpt>
      <trkpt lat="10.1580511051366" lon="-75.6817254288774">
        <ele>52.421895</ele>
        <time>2019-09-10T15:24:53.000Z</time>
      </trkpt>
      <trkpt lat="10.1580528279522" lon="-75.6817275563113">
        <ele>52.421895</ele>
        <time>2019-09-10T15:24:53.100Z</time>
      </trkpt>
      <trkpt lat="10.1580545379487" lon="-75.6817296857296">
        <ele>52.421895</ele>
        <time>2019-09-10T15:24:53.200Z</time>
      </trkpt>
      <trkpt lat="10.1580562703525" lon="-75.6817318297349">
        <ele>52.421895</ele>
        <time>2019-09-10T15:24:53.300Z</time>
      </trkpt>
      <trkpt lat="10.1580580155755" lon="-75.6817339718951">
        <ele>52.421895</ele>
        <time>2019-09-10T15:24:53.400Z</time>
      </trkpt>
      <trkpt lat="10.1580597190061" lon="-75.6817360715824">
        <ele>52.421895</ele>
        <time>2019-09-10T15:24:53.500Z</time>
      </trkpt>
      <trkpt lat="10.1580614143075" lon="-75.6817381544199">
        <ele>52.421895</ele>
        <time>2019-09-10T15:24:53.600Z</time>
      </trkpt>
      <trkpt lat="10.1580630932463" lon="-75.6817402255252">
        <ele>52.421895</ele>
        <time>2019-09-10T15:24:53.700Z</time>
      </trkpt>
      <trkpt lat="10.1580647867759" lon="-75.6817423076664">
        <ele>52.421895</ele>
        <time>2019-09-10T15:24:53.800Z</time>
      </trkpt>
      <trkpt lat="10.1580682010888" lon="-75.6817465325945">
        <ele>52.421895</ele>
        <time>2019-09-10T15:24:54.000Z</time>
      </trkpt>
      <trkpt lat="10.1580698939411" lon="-75.681748649828">
        <ele>52.421895</ele>
        <time>2019-09-10T15:24:54.100Z</time>
      </trkpt>
      <trkpt lat="10.1580715888777" lon="-75.6817507676881">
        <ele>52.421895</ele>
        <time>2019-09-10T15:24:54.200Z</time>
      </trkpt>
      <trkpt lat="10.1580732780301" lon="-75.6817528743731">
        <ele>52.421895</ele>
        <time>2019-09-10T15:24:54.300Z</time>
      </trkpt>
      <trkpt lat="10.1580749927165" lon="-75.6817549693258">
        <ele>52.421895</ele>
        <time>2019-09-10T15:24:54.400Z</time>
      </trkpt>
      <trkpt lat="10.1580767311391" lon="-75.681757054461">
        <ele>52.421895</ele>
        <time>2019-09-10T15:24:54.500Z</time>
      </trkpt>
      <trkpt lat="10.1580784932718" lon="-75.6817591356622">
        <ele>52.421895</ele>
        <time>2019-09-10T15:24:54.600Z</time>
      </trkpt>
      <trkpt lat="10.1580802807301" lon="-75.6817612137999">
        <ele>52.421895</ele>
        <time>2019-09-10T15:24:54.700Z</time>
      </trkpt>
      <trkpt lat="10.1580820955202" lon="-75.6817632901969">
        <ele>52.421895</ele>
        <time>2019-09-10T15:24:54.800Z</time>
      </trkpt>
      <trkpt lat="10.1580839469177" lon="-75.6817653794749">
        <ele>52.421895</ele>
        <time>2019-09-10T15:24:54.900Z</time>
      </trkpt>
      <trkpt lat="10.1580857954231" lon="-75.6817674781527">
        <ele>52.421895</ele>
        <time>2019-09-10T15:24:55.000Z</time>
      </trkpt>
      <trkpt lat="10.158087629963" lon="-75.6817695929144">
        <ele>52.421895</ele>
        <time>2019-09-10T15:24:55.100Z</time>
      </trkpt>
      <trkpt lat="10.1580894542893" lon="-75.6817717151263">
        <ele>52.421895</ele>
        <time>2019-09-10T15:24:55.200Z</time>
      </trkpt>
      <trkpt lat="10.1580912866144" lon="-75.6817738507414">
        <ele>52.321895</ele>
        <time>2019-09-10T15:24:55.300Z</time>
      </trkpt>
      <trkpt lat="10.1580931118005" lon="-75.6817759824226">
        <ele>52.321895</ele>
        <time>2019-09-10T15:24:55.400Z</time>
      </trkpt>
      <trkpt lat="10.1580949349283" lon="-75.6817781041123">
        <ele>52.321895</ele>
        <time>2019-09-10T15:24:55.500Z</time>
      </trkpt>
      <trkpt lat="10.1580967497184" lon="-75.6817802185607">
        <ele>52.321895</ele>
        <time>2019-09-10T15:24:55.600Z</time>
      </trkpt>
      <trkpt lat="10.158098548198" lon="-75.6817823211028">
        <ele>52.321895</ele>
        <time>2019-09-10T15:24:55.700Z</time>
      </trkpt>
      <trkpt lat="10.1581003376364" lon="-75.6817844229138">
        <ele>52.321895</ele>
        <time>2019-09-10T15:24:55.800Z</time>
      </trkpt>
      <trkpt lat="10.1581021406496" lon="-75.6817865490944">
        <ele>52.321895</ele>
        <time>2019-09-10T15:24:55.900Z</time>
      </trkpt>
      <trkpt lat="10.158105685212" lon="-75.6817907842229">
        <ele>52.321895</ele>
        <time>2019-09-10T15:24:56.100Z</time>
      </trkpt>
      <trkpt lat="10.1581073936973" lon="-75.6817928684878">
        <ele>52.321895</ele>
        <time>2019-09-10T15:24:56.200Z</time>
      </trkpt>
      <trkpt lat="10.1581091092175" lon="-75.6817949698114">
        <ele>52.321895</ele>
        <time>2019-09-10T15:24:56.300Z</time>
      </trkpt>
      <trkpt lat="10.1581108494639" lon="-75.6817970904915">
        <ele>52.421895</ele>
        <time>2019-09-10T15:24:56.400Z</time>
      </trkpt>
      <trkpt lat="10.1581125671988" lon="-75.6817991848523">
        <ele>52.421895</ele>
        <time>2019-09-10T15:24:56.500Z</time>
      </trkpt>
      <trkpt lat="10.1581142757882" lon="-75.6818012739911">
        <ele>52.421895</ele>
        <time>2019-09-10T15:24:56.600Z</time>
      </trkpt>
      <trkpt lat="10.1581160123088" lon="-75.6818033822427">
        <ele>52.421895</ele>
        <time>2019-09-10T15:24:56.700Z</time>
      </trkpt>
      <trkpt lat="10.158117769439" lon="-75.681805510164">
        <ele>52.321895</ele>
        <time>2019-09-10T15:24:56.800Z</time>
      </trkpt>
      <trkpt lat="10.1581212694993" lon="-75.6818097747797">
        <ele>52.321895</ele>
        <time>2019-09-10T15:24:57.000Z</time>
      </trkpt>
      <trkpt lat="10.1581230063325" lon="-75.6818118897155">
        <ele>52.321895</ele>
        <time>2019-09-10T15:24:57.100Z</time>
      </trkpt>
      <trkpt lat="10.1581247061414" lon="-75.6818139941027">
        <ele>52.321895</ele>
        <time>2019-09-10T15:24:57.200Z</time>
      </trkpt>
      <trkpt lat="10.1581263346636" lon="-75.6818160880458">
        <ele>52.321895</ele>
        <time>2019-09-10T15:24:57.300Z</time>
      </trkpt>
      <trkpt lat="10.1581279420029" lon="-75.6818181803875">
        <ele>52.321895</ele>
        <time>2019-09-10T15:24:57.400Z</time>
      </trkpt>
      <trkpt lat="10.1581295468931" lon="-75.6818202684123">
        <ele>52.321895</ele>
        <time>2019-09-10T15:24:57.500Z</time>
      </trkpt>
      <trkpt lat="10.1581311821375" lon="-75.6818223669856">
        <ele>52.321895</ele>
        <time>2019-09-10T15:24:57.600Z</time>
      </trkpt>
      <trkpt lat="10.1581328484135" lon="-75.6818244992934">
        <ele>52.421895</ele>
        <time>2019-09-10T15:24:57.700Z</time>
      </trkpt>
      <trkpt lat="10.1581345394158" lon="-75.6818266415928">
        <ele>52.421895</ele>
        <time>2019-09-10T15:24:57.800Z</time>
      </trkpt>
      <trkpt lat="10.1581362477969" lon="-75.6818287557976">
        <ele>52.421895</ele>
        <time>2019-09-10T15:24:57.900Z</time>
      </trkpt>
      <trkpt lat="10.1581379579757" lon="-75.681830854719">
        <ele>52.421895</ele>
        <time>2019-09-10T15:24:58.000Z</time>
      </trkpt>
      <trkpt lat="10.1581413904751" lon="-75.6818349678253">
        <ele>52.421895</ele>
        <time>2019-09-10T15:24:58.200Z</time>
      </trkpt>
      <trkpt lat="10.1581431217586" lon="-75.6818370539005">
        <ele>52.421895</ele>
        <time>2019-09-10T15:24:58.300Z</time>
      </trkpt>
      <trkpt lat="10.1581448285503" lon="-75.6818391777834">
        <ele>52.421895</ele>
        <time>2019-09-10T15:24:58.400Z</time>
      </trkpt>
      <trkpt lat="10.1581465043625" lon="-75.6818413340083">
        <ele>52.421895</ele>
        <time>2019-09-10T15:24:58.500Z</time>
      </trkpt>
      <trkpt lat="10.1581481666521" lon="-75.6818434872392">
        <ele>52.421895</ele>
        <time>2019-09-10T15:24:58.600Z</time>
      </trkpt>
      <trkpt lat="10.1581498060131" lon="-75.6818455896769">
        <ele>52.421895</ele>
        <time>2019-09-10T15:24:58.700Z</time>
      </trkpt>
      <trkpt lat="10.1581514539203" lon="-75.6818476648205">
        <ele>52.321895</ele>
        <time>2019-09-10T15:24:58.800Z</time>
      </trkpt>
      <trkpt lat="10.1581530707177" lon="-75.6818497188671">
        <ele>52.321895</ele>
        <time>2019-09-10T15:24:58.900Z</time>
      </trkpt>
      <trkpt lat="10.1581547114336" lon="-75.6818517760817">
        <ele>52.321895</ele>
        <time>2019-09-10T15:24:59.000Z</time>
      </trkpt>
      <trkpt lat="10.1581563760681" lon="-75.6818538002928">
        <ele>52.321895</ele>
        <time>2019-09-10T15:24:59.100Z</time>
      </trkpt>
      <trkpt lat="10.1581580816613" lon="-75.6818558295171">
        <ele>52.321895</ele>
        <time>2019-09-10T15:24:59.200Z</time>
      </trkpt>
      <trkpt lat="10.1581598705787" lon="-75.6818579501972">
        <ele>52.321895</ele>
        <time>2019-09-10T15:24:59.300Z</time>
      </trkpt>
      <trkpt lat="10.1581617186412" lon="-75.6818601353523">
        <ele>52.321895</ele>
        <time>2019-09-10T15:24:59.400Z</time>
      </trkpt>
      <trkpt lat="10.1581654939997" lon="-75.6818645636623">
        <ele>52.421895</ele>
        <time>2019-09-10T15:24:59.600Z</time>
      </trkpt>
      <trkpt lat="10.1581674083984" lon="-75.6818667361105">
        <ele>52.421895</ele>
        <time>2019-09-10T15:24:59.700Z</time>
      </trkpt>
      <trkpt lat="10.1581693144856" lon="-75.6818688778877">
        <ele>52.421895</ele>
        <time>2019-09-10T15:24:59.800Z</time>
      </trkpt>
      <trkpt lat="10.1581711875349" lon="-75.681871017019">
        <ele>52.421895</ele>
        <time>2019-09-10T15:24:59.900Z</time>
      </trkpt>
      <trkpt lat="10.1581730168898" lon="-75.6818731477603">
        <ele>52.321895</ele>
        <time>2019-09-10T15:25:00.000Z</time>
      </trkpt>
      <trkpt lat="10.1581748112006" lon="-75.6818752811473">
        <ele>52.321895</ele>
        <time>2019-09-10T15:25:00.100Z</time>
      </trkpt>
      <trkpt lat="10.1581765877158" lon="-75.681877407502">
        <ele>52.421895</ele>
        <time>2019-09-10T15:25:00.200Z</time>
      </trkpt>
      <trkpt lat="10.1581783593065" lon="-75.6818795236911">
        <ele>52.421895</ele>
        <time>2019-09-10T15:25:00.300Z</time>
      </trkpt>
      <trkpt lat="10.1581801153424" lon="-75.6818816453808">
        <ele>52.321895</ele>
        <time>2019-09-10T15:25:00.400Z</time>
      </trkpt>
      <trkpt lat="10.158181811712" lon="-75.681883773128">
        <ele>52.321895</ele>
        <time>2019-09-10T15:25:00.500Z</time>
      </trkpt>
      <trkpt lat="10.1581834749396" lon="-75.681885888412">
        <ele>52.321895</ele>
        <time>2019-09-10T15:25:00.600Z</time>
      </trkpt>
      <trkpt lat="10.1581850958797" lon="-75.681887964983">
        <ele>52.321895</ele>
        <time>2019-09-10T15:25:00.700Z</time>
      </trkpt>
      <trkpt lat="10.1581867171325" lon="-75.6818900542959">
        <ele>52.321895</ele>
        <time>2019-09-10T15:25:00.800Z</time>
      </trkpt>
      <trkpt lat="10.1581883268689" lon="-75.6818921463242">
        <ele>52.321895</ele>
        <time>2019-09-10T15:25:00.900Z</time>
      </trkpt>
      <trkpt lat="10.1581899739684" lon="-75.6818942533225">
        <ele>52.321895</ele>
        <time>2019-09-10T15:25:01.000Z</time>
      </trkpt>
      <trkpt lat="10.1581916914426" lon="-75.681896389982">
        <ele>52.421895</ele>
        <time>2019-09-10T15:25:01.100Z</time>
      </trkpt>
      <trkpt lat="10.1581934509959" lon="-75.6818985475995">
        <ele>52.421895</ele>
        <time>2019-09-10T15:25:01.200Z</time>
      </trkpt>
      <trkpt lat="10.1581969406863" lon="-75.6819027774015">
        <ele>52.421895</ele>
        <time>2019-09-10T15:25:01.400Z</time>
      </trkpt>
      <trkpt lat="10.1581986752527" lon="-75.6819048535547">
        <ele>52.421895</ele>
        <time>2019-09-10T15:25:01.500Z</time>
      </trkpt>
      <trkpt lat="10.158200406927" lon="-75.6819069292206">
        <ele>52.421895</ele>
        <time>2019-09-10T15:25:01.600Z</time>
      </trkpt>
      <trkpt lat="10.1582021073092" lon="-75.6819089725793">
        <ele>52.421895</ele>
        <time>2019-09-10T15:25:01.700Z</time>
      </trkpt>
      <trkpt lat="10.1582038138664" lon="-75.6819110128744">
        <ele>52.421895</ele>
        <time>2019-09-10T15:25:01.800Z</time>
      </trkpt>
      <trkpt lat="10.1582054934565" lon="-75.6819130316546">
        <ele>52.421895</ele>
        <time>2019-09-10T15:25:01.900Z</time>
      </trkpt>
      <trkpt lat="10.1582071513167" lon="-75.6819150472319">
        <ele>52.421895</ele>
        <time>2019-09-10T15:25:02.000Z</time>
      </trkpt>
      <trkpt lat="10.1582087975824" lon="-75.6819170487445">
        <ele>52.321895</ele>
        <time>2019-09-10T15:25:02.100Z</time>
      </trkpt>
      <trkpt lat="10.1582104431446" lon="-75.6819190579857">
        <ele>52.321895</ele>
        <time>2019-09-10T15:25:02.200Z</time>
      </trkpt>
      <trkpt lat="10.1582121040793" lon="-75.6819210733542">
        <ele>52.321895</ele>
        <time>2019-09-10T15:25:02.300Z</time>
      </trkpt>
      <trkpt lat="10.1582138128252" lon="-75.6819231072435">
        <ele>52.321895</ele>
        <time>2019-09-10T15:25:02.400Z</time>
      </trkpt>
      <trkpt lat="10.1582155543223" lon="-75.6819251633441">
        <ele>52.321895</ele>
        <time>2019-09-10T15:25:02.500Z</time>
      </trkpt>
      <trkpt lat="10.1582173359703" lon="-75.6819272378959">
        <ele>52.321895</ele>
        <time>2019-09-10T15:25:02.600Z</time>
      </trkpt>
      <trkpt lat="10.1582191523758" lon="-75.6819293203853">
        <ele>52.321895</ele>
        <time>2019-09-10T15:25:02.700Z</time>
      </trkpt>
      <trkpt lat="10.1582209942111" lon="-75.6819314161039">
        <ele>52.321895</ele>
        <time>2019-09-10T15:25:02.800Z</time>
      </trkpt>
      <trkpt lat="10.1582228466508" lon="-75.6819335467755">
        <ele>52.321895</ele>
        <time>2019-09-10T15:25:02.900Z</time>
      </trkpt>
      <trkpt lat="10.1582246654795" lon="-75.6819356831566">
        <ele>52.321895</ele>
        <time>2019-09-10T15:25:03.000Z</time>
      </trkpt>
      <trkpt lat="10.1582264325366" lon="-75.6819377983012">
        <ele>52.421895</ele>
        <time>2019-09-10T15:25:03.100Z</time>
      </trkpt>
      <trkpt lat="10.1582281865662" lon="-75.6819398874052">
        <ele>52.421895</ele>
        <time>2019-09-10T15:25:03.200Z</time>
      </trkpt>
      <trkpt lat="10.1582299376516" lon="-75.6819419669703">
        <ele>52.421895</ele>
        <time>2019-09-10T15:25:03.300Z</time>
      </trkpt>
      <trkpt lat="10.1582316980647" lon="-75.6819440601823">
        <ele>52.421895</ele>
        <time>2019-09-10T15:25:03.400Z</time>
      </trkpt>
      <trkpt lat="10.1582334934698" lon="-75.6819461561097">
        <ele>52.421895</ele>
        <time>2019-09-10T15:25:03.500Z</time>
      </trkpt>
      <trkpt lat="10.1582353174052" lon="-75.681948239922">
        <ele>52.421895</ele>
        <time>2019-09-10T15:25:03.600Z</time>
      </trkpt>
      <trkpt lat="10.1582371475157" lon="-75.6819503191389">
        <ele>52.421895</ele>
        <time>2019-09-10T15:25:03.700Z</time>
      </trkpt>
      <trkpt lat="10.1582389675429" lon="-75.6819523920893">
        <ele>52.421895</ele>
        <time>2019-09-10T15:25:03.800Z</time>
      </trkpt>
      <trkpt lat="10.1582407649803" lon="-75.6819544135154">
        <ele>52.421895</ele>
        <time>2019-09-10T15:25:03.900Z</time>
      </trkpt>
      <trkpt lat="10.1582425443615" lon="-75.6819564201804">
        <ele>52.421895</ele>
        <time>2019-09-10T15:25:04.000Z</time>
      </trkpt>
      <trkpt lat="10.1582442992509" lon="-75.6819584126414">
        <ele>52.421895</ele>
        <time>2019-09-10T15:25:04.100Z</time>
      </trkpt>
      <trkpt lat="10.1582460474442" lon="-75.6819604195849">
        <ele>52.421895</ele>
        <time>2019-09-10T15:25:04.200Z</time>
      </trkpt>
      <trkpt lat="10.1582494710067" lon="-75.6819644497647">
        <ele>52.421895</ele>
        <time>2019-09-10T15:25:04.400Z</time>
      </trkpt>
      <trkpt lat="10.1582511761308" lon="-75.681966456569">
        <ele>52.421895</ele>
        <time>2019-09-10T15:25:04.500Z</time>
      </trkpt>
      <trkpt lat="10.1582528915728" lon="-75.6819684685953">
        <ele>52.421895</ele>
        <time>2019-09-10T15:25:04.600Z</time>
      </trkpt>
      <trkpt lat="10.1582546003968" lon="-75.6819704948257">
        <ele>52.421895</ele>
        <time>2019-09-10T15:25:04.700Z</time>
      </trkpt>
      <trkpt lat="10.1582563223526" lon="-75.6819725346334">
        <ele>52.421895</ele>
        <time>2019-09-10T15:25:04.800Z</time>
      </trkpt>
      <trkpt lat="10.1582580532713" lon="-75.6819745903858">
        <ele>52.421895</ele>
        <time>2019-09-10T15:25:04.900Z</time>
      </trkpt>
      <trkpt lat="10.1582597942212" lon="-75.6819766512906">
        <ele>52.421895</ele>
        <time>2019-09-10T15:25:05.000Z</time>
      </trkpt>
      <trkpt lat="10.1582615382196" lon="-75.681978700498">
        <ele>52.421895</ele>
        <time>2019-09-10T15:25:05.100Z</time>
      </trkpt>
      <trkpt lat="10.1582632806287" lon="-75.6819807454582">
        <ele>52.421895</ele>
        <time>2019-09-10T15:25:05.200Z</time>
      </trkpt>
      <trkpt lat="10.1582650222039" lon="-75.6819827919501">
        <ele>52.421895</ele>
        <time>2019-09-10T15:25:05.300Z</time>
      </trkpt>
      <trkpt lat="10.1582667630757" lon="-75.6819848509054">
        <ele>52.521895</ele>
        <time>2019-09-10T15:25:05.400Z</time>
      </trkpt>
      <trkpt lat="10.1582701792125" lon="-75.6819889850391">
        <ele>52.521895</ele>
        <time>2019-09-10T15:25:05.600Z</time>
      </trkpt>
      <trkpt lat="10.1582736241141" lon="-75.6819931109569">
        <ele>52.521895</ele>
        <time>2019-09-10T15:25:05.800Z</time>
      </trkpt>
      <trkpt lat="10.1582753561532" lon="-75.681995163576">
        <ele>52.521895</ele>
        <time>2019-09-10T15:25:05.900Z</time>
      </trkpt>
      <trkpt lat="10.1582770919442" lon="-75.6819972248986">
        <ele>52.521895</ele>
        <time>2019-09-10T15:25:06.000Z</time>
      </trkpt>
      <trkpt lat="10.1582788245826" lon="-75.6819992777267">
        <ele>52.521895</ele>
        <time>2019-09-10T15:25:06.100Z</time>
      </trkpt>
      <trkpt lat="10.1582805560224" lon="-75.682001335916">
        <ele>52.521895</ele>
        <time>2019-09-10T15:25:06.200Z</time>
      </trkpt>
      <trkpt lat="10.1582823108076" lon="-75.6820034076132">
        <ele>52.521895</ele>
        <time>2019-09-10T15:25:06.300Z</time>
      </trkpt>
      <trkpt lat="10.1582840747121" lon="-75.6820054942105">
        <ele>52.521895</ele>
        <time>2019-09-10T15:25:06.400Z</time>
      </trkpt>
      <trkpt lat="10.1582858224363" lon="-75.6820075427217">
        <ele>52.521895</ele>
        <time>2019-09-10T15:25:06.500Z</time>
      </trkpt>
      <trkpt lat="10.1582875604941" lon="-75.6820095846182">
        <ele>52.521895</ele>
        <time>2019-09-10T15:25:06.600Z</time>
      </trkpt>
      <trkpt lat="10.1582892705688" lon="-75.6820116091775">
        <ele>52.521895</ele>
        <time>2019-09-10T15:25:06.700Z</time>
      </trkpt>
      <trkpt lat="10.1582909817508" lon="-75.68201364996">
        <ele>52.521895</ele>
        <time>2019-09-10T15:25:06.800Z</time>
      </trkpt>
      <trkpt lat="10.1582926879953" lon="-75.6820157103774">
        <ele>52.521895</ele>
        <time>2019-09-10T15:25:06.900Z</time>
      </trkpt>
      <trkpt lat="10.1582944146931" lon="-75.6820177939808">
        <ele>52.521895</ele>
        <time>2019-09-10T15:25:07.000Z</time>
      </trkpt>
      <trkpt lat="10.1582961494419" lon="-75.6820198948519">
        <ele>52.521895</ele>
        <time>2019-09-10T15:25:07.100Z</time>
      </trkpt>
      <trkpt lat="10.1582978960458" lon="-75.6820220022679">
        <ele>52.521895</ele>
        <time>2019-09-10T15:25:07.200Z</time>
      </trkpt>
      <trkpt lat="10.1582996133117" lon="-75.6820241229131">
        <ele>52.521895</ele>
        <time>2019-09-10T15:25:07.300Z</time>
      </trkpt>
      <trkpt lat="10.1583013273597" lon="-75.6820262397289">
        <ele>52.521895</ele>
        <time>2019-09-10T15:25:07.400Z</time>
      </trkpt>
      <trkpt lat="10.1583030352327" lon="-75.682028357032">
        <ele>52.521895</ele>
        <time>2019-09-10T15:25:07.500Z</time>
      </trkpt>
      <trkpt lat="10.1583047546481" lon="-75.6820304694612">
        <ele>52.521895</ele>
        <time>2019-09-10T15:25:07.600Z</time>
      </trkpt>
      <trkpt lat="10.1583064709629" lon="-75.6820325827259">
        <ele>52.521895</ele>
        <time>2019-09-10T15:25:07.700Z</time>
      </trkpt>
      <trkpt lat="10.1583082035622" lon="-75.6820346955033">
        <ele>52.521895</ele>
        <time>2019-09-10T15:25:07.800Z</time>
      </trkpt>
      <trkpt lat="10.1583099460754" lon="-75.682036803546">
        <ele>52.521895</ele>
        <time>2019-09-10T15:25:07.900Z</time>
      </trkpt>
      <trkpt lat="10.1583116963791" lon="-75.6820389091517">
        <ele>52.521895</ele>
        <time>2019-09-10T15:25:08.000Z</time>
      </trkpt>
      <trkpt lat="10.1583134207711" lon="-75.6820410099531">
        <ele>52.521895</ele>
        <time>2019-09-10T15:25:08.100Z</time>
      </trkpt>
      <trkpt lat="10.1583151440556" lon="-75.6820431120774">
        <ele>52.521895</ele>
        <time>2019-09-10T15:25:08.200Z</time>
      </trkpt>
      <trkpt lat="10.158316868682" lon="-75.682045205359">
        <ele>52.521895</ele>
        <time>2019-09-10T15:25:08.300Z</time>
      </trkpt>
      <trkpt lat="10.1583186147388" lon="-75.6820472978748">
        <ele>52.521895</ele>
        <time>2019-09-10T15:25:08.400Z</time>
      </trkpt>
      <trkpt lat="10.1583203578122" lon="-75.682049387675">
        <ele>52.521895</ele>
        <time>2019-09-10T15:25:08.500Z</time>
      </trkpt>
      <trkpt lat="10.1583221075167" lon="-75.6820514845773">
        <ele>52.521895</ele>
        <time>2019-09-10T15:25:08.600Z</time>
      </trkpt>
      <trkpt lat="10.1583238437506" lon="-75.6820535820366">
        <ele>52.521895</ele>
        <time>2019-09-10T15:25:08.700Z</time>
      </trkpt>
      <trkpt lat="10.1583273634174" lon="-75.6820578153199">
        <ele>52.521895</ele>
        <time>2019-09-10T15:25:08.900Z</time>
      </trkpt>
      <trkpt lat="10.1583291531164" lon="-75.6820599533024">
        <ele>52.521895</ele>
        <time>2019-09-10T15:25:09.000Z</time>
      </trkpt>
      <trkpt lat="10.1583309100121" lon="-75.6820620590474">
        <ele>52.521895</ele>
        <time>2019-09-10T15:25:09.100Z</time>
      </trkpt>
      <trkpt lat="10.1583326498286" lon="-75.682064148778">
        <ele>52.521895</ele>
        <time>2019-09-10T15:25:09.200Z</time>
      </trkpt>
      <trkpt lat="10.1583361640629" lon="-75.6820683819221">
        <ele>52.521895</ele>
        <time>2019-09-10T15:25:09.400Z</time>
      </trkpt>
      <trkpt lat="10.1583379173629" lon="-75.6820705005481">
        <ele>52.521895</ele>
        <time>2019-09-10T15:25:09.500Z</time>
      </trkpt>
      <trkpt lat="10.1583396665723" lon="-75.6820726136736">
        <ele>52.521895</ele>
        <time>2019-09-10T15:25:09.600Z</time>
      </trkpt>
      <trkpt lat="10.1583413825094" lon="-75.682074720463">
        <ele>52.521895</ele>
        <time>2019-09-10T15:25:09.700Z</time>
      </trkpt>
      <trkpt lat="10.1583430965313" lon="-75.6820768292019">
        <ele>52.521895</ele>
        <time>2019-09-10T15:25:09.800Z</time>
      </trkpt>
      <trkpt lat="10.1583448243104" lon="-75.682078931744">
        <ele>52.521895</ele>
        <time>2019-09-10T15:25:09.900Z</time>
      </trkpt>
      <trkpt lat="10.1583465715136" lon="-75.6820810358179">
        <ele>52.521895</ele>
        <time>2019-09-10T15:25:10.000Z</time>
      </trkpt>
      <trkpt lat="10.1583482863302" lon="-75.6820831595964">
        <ele>52.521895</ele>
        <time>2019-09-10T15:25:10.100Z</time>
      </trkpt>
      <trkpt lat="10.1583499962225" lon="-75.6820852924265">
        <ele>52.521895</ele>
        <time>2019-09-10T15:25:10.200Z</time>
      </trkpt>
      <trkpt lat="10.1583517020502" lon="-75.6820874163442">
        <ele>52.521895</ele>
        <time>2019-09-10T15:25:10.300Z</time>
      </trkpt>
      <trkpt lat="10.1583534190815" lon="-75.6820895289127">
        <ele>52.521895</ele>
        <time>2019-09-10T15:25:10.400Z</time>
      </trkpt>
      <trkpt lat="10.15835513524" lon="-75.6820916326385">
        <ele>52.521895</ele>
        <time>2019-09-10T15:25:10.500Z</time>
      </trkpt>
      <trkpt lat="10.1583585968169" lon="-75.6820958292281">
        <ele>52.521895</ele>
        <time>2019-09-10T15:25:10.700Z</time>
      </trkpt>
      <trkpt lat="10.1583603356694" lon="-75.68209792432">
        <ele>52.521895</ele>
        <time>2019-09-10T15:25:10.800Z</time>
      </trkpt>
      <trkpt lat="10.1583637672959" lon="-75.6821021046168">
        <ele>52.521895</ele>
        <time>2019-09-10T15:25:11.000Z</time>
      </trkpt>
      <trkpt lat="10.1583654849656" lon="-75.6821041944867">
        <ele>52.521895</ele>
        <time>2019-09-10T15:25:11.100Z</time>
      </trkpt>
      <trkpt lat="10.1583672153763" lon="-75.6821062881861">
        <ele>52.521895</ele>
        <time>2019-09-10T15:25:11.200Z</time>
      </trkpt>
      <trkpt lat="10.158368973705" lon="-75.6821083838351">
        <ele>52.521895</ele>
        <time>2019-09-10T15:25:11.300Z</time>
      </trkpt>
      <trkpt lat="10.1583707415959" lon="-75.6821104822692">
        <ele>52.521895</ele>
        <time>2019-09-10T15:25:11.400Z</time>
      </trkpt>
      <trkpt lat="10.1583743176719" lon="-75.6821147436124">
        <ele>52.521895</ele>
        <time>2019-09-10T15:25:11.600Z</time>
      </trkpt>
      <trkpt lat="10.1583760690439" lon="-75.6821168475471">
        <ele>52.521895</ele>
        <time>2019-09-10T15:25:11.700Z</time>
      </trkpt>
      <trkpt lat="10.1583778011612" lon="-75.6821189395754">
        <ele>52.421895</ele>
        <time>2019-09-10T15:25:11.800Z</time>
      </trkpt>
      <trkpt lat="10.158379551035" lon="-75.6821209998536">
        <ele>52.421895</ele>
        <time>2019-09-10T15:25:11.900Z</time>
      </trkpt>
      <trkpt lat="10.1583813084387" lon="-75.6821230629169">
        <ele>52.421895</ele>
        <time>2019-09-10T15:25:12.000Z</time>
      </trkpt>
      <trkpt lat="10.1583830343549" lon="-75.6821251492358">
        <ele>52.421895</ele>
        <time>2019-09-10T15:25:12.100Z</time>
      </trkpt>
      <trkpt lat="10.158384747999" lon="-75.6821272602724">
        <ele>52.421895</ele>
        <time>2019-09-10T15:25:12.200Z</time>
      </trkpt>
      <trkpt lat="10.1583864580997" lon="-75.6821293490979">
        <ele>52.421895</ele>
        <time>2019-09-10T15:25:12.300Z</time>
      </trkpt>
      <trkpt lat="10.158388184081" lon="-75.6821314282451">
        <ele>52.421895</ele>
        <time>2019-09-10T15:25:12.400Z</time>
      </trkpt>
      <trkpt lat="10.1583916743185" lon="-75.6821355910654">
        <ele>52.421895</ele>
        <time>2019-09-10T15:25:12.600Z</time>
      </trkpt>
      <trkpt lat="10.1583934290125" lon="-75.6821376833723">
        <ele>52.421895</ele>
        <time>2019-09-10T15:25:12.700Z</time>
      </trkpt>
      <trkpt lat="10.1583951897383" lon="-75.6821397828508">
        <ele>52.421895</ele>
        <time>2019-09-10T15:25:12.800Z</time>
      </trkpt>
      <trkpt lat="10.1583969474417" lon="-75.6821418847662">
        <ele>52.421895</ele>
        <time>2019-09-10T15:25:12.900Z</time>
      </trkpt>
      <trkpt lat="10.1583987071643" lon="-75.6821439925304">
        <ele>52.421895</ele>
        <time>2019-09-10T15:25:13.000Z</time>
      </trkpt>
      <trkpt lat="10.1584004554618" lon="-75.6821461001553">
        <ele>52.421895</ele>
        <time>2019-09-10T15:25:13.100Z</time>
      </trkpt>
      <trkpt lat="10.1584022064299" lon="-75.6821482093816">
        <ele>52.421895</ele>
        <time>2019-09-10T15:25:13.200Z</time>
      </trkpt>
      <trkpt lat="10.158403968491" lon="-75.6821503155443">
        <ele>52.421895</ele>
        <time>2019-09-10T15:25:13.300Z</time>
      </trkpt>
      <trkpt lat="10.1584057408634" lon="-75.6821524228211">
        <ele>52.421895</ele>
        <time>2019-09-10T15:25:13.400Z</time>
      </trkpt>
      <trkpt lat="10.1584092494827" lon="-75.6821566276268">
        <ele>52.421895</ele>
        <time>2019-09-10T15:25:13.600Z</time>
      </trkpt>
      <trkpt lat="10.1584110084563" lon="-75.6821587818325">
        <ele>52.421895</ele>
        <time>2019-09-10T15:25:13.700Z</time>
      </trkpt>
      <trkpt lat="10.1584127758717" lon="-75.6821609451594">
        <ele>52.421895</ele>
        <time>2019-09-10T15:25:13.800Z</time>
      </trkpt>
      <trkpt lat="10.1584145556177" lon="-75.6821631029161">
        <ele>52.421895</ele>
        <time>2019-09-10T15:25:13.900Z</time>
      </trkpt>
      <trkpt lat="10.1584163372787" lon="-75.6821652459118">
        <ele>52.421895</ele>
        <time>2019-09-10T15:25:14.000Z</time>
      </trkpt>
      <trkpt lat="10.1584181041209" lon="-75.6821673705955">
        <ele>52.421895</ele>
        <time>2019-09-10T15:25:14.100Z</time>
      </trkpt>
      <trkpt lat="10.1584198575122" lon="-75.6821694836513">
        <ele>52.421895</ele>
        <time>2019-09-10T15:25:14.200Z</time>
      </trkpt>
      <trkpt lat="10.1584215899486" lon="-75.6821715533292">
        <ele>52.421895</ele>
        <time>2019-09-10T15:25:14.300Z</time>
      </trkpt>
      <trkpt lat="10.1584233180664" lon="-75.6821736167407">
        <ele>52.421895</ele>
        <time>2019-09-10T15:25:14.400Z</time>
      </trkpt>
      <trkpt lat="10.1584267603104" lon="-75.682177740848">
        <ele>52.421895</ele>
        <time>2019-09-10T15:25:14.600Z</time>
      </trkpt>
      <trkpt lat="10.1584284763777" lon="-75.6821798422065">
        <ele>52.421895</ele>
        <time>2019-09-10T15:25:14.700Z</time>
      </trkpt>
      <trkpt lat="10.1584301981511" lon="-75.6821819634784">
        <ele>52.421895</ele>
        <time>2019-09-10T15:25:14.800Z</time>
      </trkpt>
      <trkpt lat="10.1584318987091" lon="-75.6821840860036">
        <ele>52.421895</ele>
        <time>2019-09-10T15:25:14.900Z</time>
      </trkpt>
      <trkpt lat="10.158433596831" lon="-75.6821862044207">
        <ele>52.421895</ele>
        <time>2019-09-10T15:25:15.000Z</time>
      </trkpt>
      <trkpt lat="10.1584369628964" lon="-75.6821904274688">
        <ele>52.421895</ele>
        <time>2019-09-10T15:25:15.200Z</time>
      </trkpt>
      <trkpt lat="10.1584386347156" lon="-75.6821925325175">
        <ele>52.421895</ele>
        <time>2019-09-10T15:25:15.300Z</time>
      </trkpt>
      <trkpt lat="10.1584403184029" lon="-75.6821946371484">
        <ele>52.421895</ele>
        <time>2019-09-10T15:25:15.400Z</time>
      </trkpt>
      <trkpt lat="10.1584419891083" lon="-75.6821967382283">
        <ele>52.421895</ele>
        <time>2019-09-10T15:25:15.500Z</time>
      </trkpt>
      <trkpt lat="10.1584436773227" lon="-75.6821988449481">
        <ele>52.421895</ele>
        <time>2019-09-10T15:25:15.600Z</time>
      </trkpt>
      <trkpt lat="10.1584453932141" lon="-75.6822009432429">
        <ele>52.421895</ele>
        <time>2019-09-10T15:25:15.700Z</time>
      </trkpt>
      <trkpt lat="10.1584471165443" lon="-75.6822030366638">
        <ele>52.421895</ele>
        <time>2019-09-10T15:25:15.800Z</time>
      </trkpt>
      <trkpt lat="10.1584488197599" lon="-75.6822051195013">
        <ele>52.421895</ele>
        <time>2019-09-10T15:25:15.900Z</time>
      </trkpt>
      <trkpt lat="10.1584505288836" lon="-75.6822072038706">
        <ele>52.421895</ele>
        <time>2019-09-10T15:25:16.000Z</time>
      </trkpt>
      <trkpt lat="10.158452262968" lon="-75.6822092887273">
        <ele>52.421895</ele>
        <time>2019-09-10T15:25:16.100Z</time>
      </trkpt>
      <trkpt lat="10.158454010347" lon="-75.6822113845156">
        <ele>52.421895</ele>
        <time>2019-09-10T15:25:16.200Z</time>
      </trkpt>
      <trkpt lat="10.1584557444542" lon="-75.6822134865703">
        <ele>52.421895</ele>
        <time>2019-09-10T15:25:16.300Z</time>
      </trkpt>
      <trkpt lat="10.1584574768581" lon="-75.6822155899479">
        <ele>52.421895</ele>
        <time>2019-09-10T15:25:16.400Z</time>
      </trkpt>
      <trkpt lat="10.1584609418124" lon="-75.682219794475">
        <ele>52.421895</ele>
        <time>2019-09-10T15:25:16.600Z</time>
      </trkpt>
      <trkpt lat="10.1584626608044" lon="-75.6822219137974">
        <ele>52.421895</ele>
        <time>2019-09-10T15:25:16.700Z</time>
      </trkpt>
      <trkpt lat="10.1584643821544" lon="-75.682224037924">
        <ele>52.421895</ele>
        <time>2019-09-10T15:25:16.800Z</time>
      </trkpt>
      <trkpt lat="10.1584660826309" lon="-75.6822261359403">
        <ele>52.421895</ele>
        <time>2019-09-10T15:25:16.900Z</time>
      </trkpt>
      <trkpt lat="10.1584677803587" lon="-75.6822282152268">
        <ele>52.421895</ele>
        <time>2019-09-10T15:25:17.000Z</time>
      </trkpt>
      <trkpt lat="10.1584694806236" lon="-75.6822302887342">
        <ele>52.421895</ele>
        <time>2019-09-10T15:25:17.100Z</time>
      </trkpt>
      <trkpt lat="10.1584711953491" lon="-75.6822323648875">
        <ele>52.421895</ele>
        <time>2019-09-10T15:25:17.200Z</time>
      </trkpt>
      <trkpt lat="10.1584728894389" lon="-75.6822344149305">
        <ele>52.421895</ele>
        <time>2019-09-10T15:25:17.300Z</time>
      </trkpt>
      <trkpt lat="10.1584745729211" lon="-75.6822364676889">
        <ele>52.421895</ele>
        <time>2019-09-10T15:25:17.400Z</time>
      </trkpt>
      <trkpt lat="10.158476248515" lon="-75.6822385368098">
        <ele>52.421895</ele>
        <time>2019-09-10T15:25:17.500Z</time>
      </trkpt>
      <trkpt lat="10.1584779122181" lon="-75.6822406314143">
        <ele>52.321895</ele>
        <time>2019-09-10T15:25:17.600Z</time>
      </trkpt>
      <trkpt lat="10.1584795270483" lon="-75.6822427309624">
        <ele>52.321895</ele>
        <time>2019-09-10T15:25:17.700Z</time>
      </trkpt>
      <trkpt lat="10.1584811349934" lon="-75.6822448377518">
        <ele>52.321895</ele>
        <time>2019-09-10T15:25:17.800Z</time>
      </trkpt>
      <trkpt lat="10.1584827600991" lon="-75.6822469356289">
        <ele>52.321895</ele>
        <time>2019-09-10T15:25:17.900Z</time>
      </trkpt>
      <trkpt lat="10.1584844133118" lon="-75.682249056483">
        <ele>52.421895</ele>
        <time>2019-09-10T15:25:18.000Z</time>
      </trkpt>
      <trkpt lat="10.1584860533519" lon="-75.6822511907056">
        <ele>52.421895</ele>
        <time>2019-09-10T15:25:18.100Z</time>
      </trkpt>
      <trkpt lat="10.1584876890343" lon="-75.6822533403159">
        <ele>52.421895</ele>
        <time>2019-09-10T15:25:18.200Z</time>
      </trkpt>
      <trkpt lat="10.1584893082092" lon="-75.6822554871411">
        <ele>52.421895</ele>
        <time>2019-09-10T15:25:18.300Z</time>
      </trkpt>
      <trkpt lat="10.1584909315285" lon="-75.6822576285354">
        <ele>52.421895</ele>
        <time>2019-09-10T15:25:18.400Z</time>
      </trkpt>
      <trkpt lat="10.158494250347" lon="-75.6822619067284">
        <ele>52.421895</ele>
        <time>2019-09-10T15:25:18.600Z</time>
      </trkpt>
      <trkpt lat="10.1584959356539" lon="-75.6822640401155">
        <ele>52.421895</ele>
        <time>2019-09-10T15:25:18.700Z</time>
      </trkpt>
      <trkpt lat="10.1584976559274" lon="-75.6822661687679">
        <ele>52.421895</ele>
        <time>2019-09-10T15:25:18.800Z</time>
      </trkpt>
      <trkpt lat="10.1584994241986" lon="-75.6822682821023">
        <ele>52.421895</ele>
        <time>2019-09-10T15:25:18.900Z</time>
      </trkpt>
      <trkpt lat="10.1585012042332" lon="-75.6822703904235">
        <ele>52.421895</ele>
        <time>2019-09-10T15:25:19.000Z</time>
      </trkpt>
      <trkpt lat="10.158504762857" lon="-75.6822745913996">
        <ele>52.421895</ele>
        <time>2019-09-10T15:25:19.200Z</time>
      </trkpt>
      <trkpt lat="10.1585065663697" lon="-75.6822767053606">
        <ele>52.421895</ele>
        <time>2019-09-10T15:25:19.300Z</time>
      </trkpt>
      <trkpt lat="10.1585083828919" lon="-75.68227881215">
        <ele>52.421895</ele>
        <time>2019-09-10T15:25:19.400Z</time>
      </trkpt>
      <trkpt lat="10.1585101866088" lon="-75.682280867415">
        <ele>52.321895</ele>
        <time>2019-09-10T15:25:19.500Z</time>
      </trkpt>
      <trkpt lat="10.1585119678422" lon="-75.6822829063176">
        <ele>52.321895</ele>
        <time>2019-09-10T15:25:19.600Z</time>
      </trkpt>
      <trkpt lat="10.158513771567" lon="-75.6822849849078">
        <ele>52.321895</ele>
        <time>2019-09-10T15:25:19.700Z</time>
      </trkpt>
      <trkpt lat="10.1585155794126" lon="-75.6822870876588">
        <ele>52.321895</ele>
        <time>2019-09-10T15:25:19.800Z</time>
      </trkpt>
      <trkpt lat="10.1585173461481" lon="-75.6822891933341">
        <ele>52.321895</ele>
        <time>2019-09-10T15:25:19.900Z</time>
      </trkpt>
      <trkpt lat="10.1585190982724" lon="-75.6822913027694">
        <ele>52.321895</ele>
        <time>2019-09-10T15:25:20.000Z</time>
      </trkpt>
      <trkpt lat="10.1585208558097" lon="-75.6822934246679">
        <ele>52.321895</ele>
        <time>2019-09-10T15:25:20.100Z</time>
      </trkpt>
      <trkpt lat="10.1585226279533" lon="-75.6822955502567">
        <ele>52.321895</ele>
        <time>2019-09-10T15:25:20.200Z</time>
      </trkpt>
      <trkpt lat="10.1585243742722" lon="-75.6822976942968">
        <ele>52.321895</ele>
        <time>2019-09-10T15:25:20.300Z</time>
      </trkpt>
      <trkpt lat="10.1585261122372" lon="-75.6822998362481">
        <ele>52.321895</ele>
        <time>2019-09-10T15:25:20.400Z</time>
      </trkpt>
      <trkpt lat="10.1585278758567" lon="-75.6823019607925">
        <ele>52.321895</ele>
        <time>2019-09-10T15:25:20.500Z</time>
      </trkpt>
      <trkpt lat="10.1585296549823" lon="-75.6823040799755">
        <ele>52.321895</ele>
        <time>2019-09-10T15:25:20.600Z</time>
      </trkpt>
      <trkpt lat="10.158531441286" lon="-75.6823062394729">
        <ele>52.321895</ele>
        <time>2019-09-10T15:25:20.700Z</time>
      </trkpt>
      <trkpt lat="10.1585332270002" lon="-75.6823084074649">
        <ele>52.321895</ele>
        <time>2019-09-10T15:25:20.800Z</time>
      </trkpt>
      <trkpt lat="10.1585350149617" lon="-75.6823105562397">
        <ele>52.321895</ele>
        <time>2019-09-10T15:25:20.900Z</time>
      </trkpt>
      <trkpt lat="10.1585367952125" lon="-75.6823126877468">
        <ele>52.321895</ele>
        <time>2019-09-10T15:25:21.000Z</time>
      </trkpt>
      <trkpt lat="10.1585385312543" lon="-75.6823147875734">
        <ele>52.321895</ele>
        <time>2019-09-10T15:25:21.100Z</time>
      </trkpt>
      <trkpt lat="10.1585402532882" lon="-75.6823168794625">
        <ele>52.321895</ele>
        <time>2019-09-10T15:25:21.200Z</time>
      </trkpt>
      <trkpt lat="10.1585420074872" lon="-75.6823190038676">
        <ele>52.321895</ele>
        <time>2019-09-10T15:25:21.300Z</time>
      </trkpt>
      <trkpt lat="10.1585437816151" lon="-75.6823211557757">
        <ele>52.321895</ele>
        <time>2019-09-10T15:25:21.400Z</time>
      </trkpt>
      <trkpt lat="10.1585472426708" lon="-75.6823254552051">
        <ele>52.321895</ele>
        <time>2019-09-10T15:25:21.600Z</time>
      </trkpt>
      <trkpt lat="10.1585489482249" lon="-75.682327602657">
        <ele>52.321895</ele>
        <time>2019-09-10T15:25:21.700Z</time>
      </trkpt>
      <trkpt lat="10.1585506506719" lon="-75.6823297416142">
        <ele>52.321895</ele>
        <time>2019-09-10T15:25:21.800Z</time>
      </trkpt>
      <trkpt lat="10.1585523417687" lon="-75.6823318984658">
        <ele>52.421895</ele>
        <time>2019-09-10T15:25:21.900Z</time>
      </trkpt>
      <trkpt lat="10.1585540669357" lon="-75.682334061932">
        <ele>52.421895</ele>
        <time>2019-09-10T15:25:22.000Z</time>
      </trkpt>
      <trkpt lat="10.1585557897643" lon="-75.6823361547262">
        <ele>52.421895</ele>
        <time>2019-09-10T15:25:22.100Z</time>
      </trkpt>
      <trkpt lat="10.1585575276398" lon="-75.6823382227331">
        <ele>52.421895</ele>
        <time>2019-09-10T15:25:22.200Z</time>
      </trkpt>
      <trkpt lat="10.1585592698338" lon="-75.6823402713138">
        <ele>52.421895</ele>
        <time>2019-09-10T15:25:22.300Z</time>
      </trkpt>
      <trkpt lat="10.1585610338947" lon="-75.6823423368141">
        <ele>52.421895</ele>
        <time>2019-09-10T15:25:22.400Z</time>
      </trkpt>
      <trkpt lat="10.1585627797169" lon="-75.6823443870659">
        <ele>52.421895</ele>
        <time>2019-09-10T15:25:22.500Z</time>
      </trkpt>
      <trkpt lat="10.1585645292259" lon="-75.682346451104">
        <ele>52.421895</ele>
        <time>2019-09-10T15:25:22.600Z</time>
      </trkpt>
      <trkpt lat="10.1585662585227" lon="-75.6823484936968">
        <ele>52.421895</ele>
        <time>2019-09-10T15:25:22.700Z</time>
      </trkpt>
      <trkpt lat="10.1585679916171" lon="-75.6823505426953">
        <ele>52.421895</ele>
        <time>2019-09-10T15:25:22.800Z</time>
      </trkpt>
      <trkpt lat="10.1585697509945" lon="-75.6823525964982">
        <ele>52.421895</ele>
        <time>2019-09-10T15:25:22.900Z</time>
      </trkpt>
      <trkpt lat="10.1585715304994" lon="-75.6823546702145">
        <ele>52.421895</ele>
        <time>2019-09-10T15:25:23.000Z</time>
      </trkpt>
      <trkpt lat="10.1585733205698" lon="-75.6823567535394">
        <ele>52.421895</ele>
        <time>2019-09-10T15:25:23.100Z</time>
      </trkpt>
      <trkpt lat="10.1585768948741" lon="-75.6823609509646">
        <ele>52.421895</ele>
        <time>2019-09-10T15:25:23.300Z</time>
      </trkpt>
      <trkpt lat="10.1585786762289" lon="-75.6823630548296">
        <ele>52.421895</ele>
        <time>2019-09-10T15:25:23.400Z</time>
      </trkpt>
      <trkpt lat="10.1585804431623" lon="-75.6823651652396">
        <ele>52.421895</ele>
        <time>2019-09-10T15:25:23.500Z</time>
      </trkpt>
      <trkpt lat="10.1585821972375" lon="-75.682367272586">
        <ele>52.421895</ele>
        <time>2019-09-10T15:25:23.600Z</time>
      </trkpt>
      <trkpt lat="10.1585839616826" lon="-75.6823693823693">
        <ele>52.421895</ele>
        <time>2019-09-10T15:25:23.700Z</time>
      </trkpt>
      <trkpt lat="10.1585857291176" lon="-75.6823714895765">
        <ele>52.421895</ele>
        <time>2019-09-10T15:25:23.800Z</time>
      </trkpt>
      <trkpt lat="10.1585874874463" lon="-75.6823735724836">
        <ele>52.421895</ele>
        <time>2019-09-10T15:25:23.900Z</time>
      </trkpt>
      <trkpt lat="10.1585892335747" lon="-75.6823756482191">
        <ele>52.421895</ele>
        <time>2019-09-10T15:25:24.000Z</time>
      </trkpt>
      <trkpt lat="10.1585909673985" lon="-75.6823777243028">
        <ele>52.421895</ele>
        <time>2019-09-10T15:25:24.100Z</time>
      </trkpt>
      <trkpt lat="10.1585926994897" lon="-75.6823798091595">
        <ele>52.421895</ele>
        <time>2019-09-10T15:25:24.200Z</time>
      </trkpt>
      <trkpt lat="10.1585944281482" lon="-75.6823818943643">
        <ele>52.421895</ele>
        <time>2019-09-10T15:25:24.300Z</time>
      </trkpt>
      <trkpt lat="10.158596159119" lon="-75.6823839840253">
        <ele>52.421895</ele>
        <time>2019-09-10T15:25:24.400Z</time>
      </trkpt>
      <trkpt lat="10.1585978829573" lon="-75.6823861068986">
        <ele>52.421895</ele>
        <time>2019-09-10T15:25:24.500Z</time>
      </trkpt>
      <trkpt lat="10.1585996109904" lon="-75.6823882295631">
        <ele>52.421895</ele>
        <time>2019-09-10T15:25:24.600Z</time>
      </trkpt>
      <trkpt lat="10.1586013210911" lon="-75.6823902991714">
        <ele>52.421895</ele>
        <time>2019-09-10T15:25:24.700Z</time>
      </trkpt>
      <trkpt lat="10.1586030357188" lon="-75.682392347961">
        <ele>52.421895</ele>
        <time>2019-09-10T15:25:24.800Z</time>
      </trkpt>
      <trkpt lat="10.1586047557791" lon="-75.6823943741217">
        <ele>52.421895</ele>
        <time>2019-09-10T15:25:24.900Z</time>
      </trkpt>
      <trkpt lat="10.1586064925928" lon="-75.6823964122584">
        <ele>52.421895</ele>
        <time>2019-09-10T15:25:25.000Z</time>
      </trkpt>
      <trkpt lat="10.1586082070316" lon="-75.6823984384887">
        <ele>52.421895</ele>
        <time>2019-09-10T15:25:25.100Z</time>
      </trkpt>
      <trkpt lat="10.1586099217441" lon="-75.6824004794104">
        <ele>52.421895</ele>
        <time>2019-09-10T15:25:25.200Z</time>
      </trkpt>
      <trkpt lat="10.1586116298385" lon="-75.6824025383657">
        <ele>52.421895</ele>
        <time>2019-09-10T15:25:25.300Z</time>
      </trkpt>
      <trkpt lat="10.1586133449027" lon="-75.6824046186966">
        <ele>52.421895</ele>
        <time>2019-09-10T15:25:25.400Z</time>
      </trkpt>
      <trkpt lat="10.1586150637319" lon="-75.6824067203336">
        <ele>52.421895</ele>
        <time>2019-09-10T15:25:25.500Z</time>
      </trkpt>
      <trkpt lat="10.1586167910355" lon="-75.6824088280977">
        <ele>52.421895</ele>
        <time>2019-09-10T15:25:25.600Z</time>
      </trkpt>
      <trkpt lat="10.1586185254391" lon="-75.6824109248607">
        <ele>52.421895</ele>
        <time>2019-09-10T15:25:25.700Z</time>
      </trkpt>
      <trkpt lat="10.1586202677178" lon="-75.6824130128507">
        <ele>52.421895</ele>
        <time>2019-09-10T15:25:25.800Z</time>
      </trkpt>
      <trkpt lat="10.1586220153639" lon="-75.6824151018154">
        <ele>52.421895</ele>
        <time>2019-09-10T15:25:25.900Z</time>
      </trkpt>
      <trkpt lat="10.1586237619678" lon="-75.6824171940526">
        <ele>52.421895</ele>
        <time>2019-09-10T15:25:26.000Z</time>
      </trkpt>
      <trkpt lat="10.1586254802758" lon="-75.682419290189">
        <ele>52.421895</ele>
        <time>2019-09-10T15:25:26.100Z</time>
      </trkpt>
      <trkpt lat="10.1586271893734" lon="-75.6824213902941">
        <ele>52.421895</ele>
        <time>2019-09-10T15:25:26.200Z</time>
      </trkpt>
      <trkpt lat="10.158628895162" lon="-75.6824234889371">
        <ele>52.421895</ele>
        <time>2019-09-10T15:25:26.300Z</time>
      </trkpt>
      <trkpt lat="10.1586306117113" lon="-75.6824255835417">
        <ele>52.421895</ele>
        <time>2019-09-10T15:25:26.400Z</time>
      </trkpt>
      <trkpt lat="10.1586323357254" lon="-75.6824276560743">
        <ele>52.421895</ele>
        <time>2019-09-10T15:25:26.500Z</time>
      </trkpt>
      <trkpt lat="10.1586340686374" lon="-75.682429723733">
        <ele>52.421895</ele>
        <time>2019-09-10T15:25:26.600Z</time>
      </trkpt>
      <trkpt lat="10.1586357844181" lon="-75.6824317966138">
        <ele>52.421895</ele>
        <time>2019-09-10T15:25:26.700Z</time>
      </trkpt>
      <trkpt lat="10.1586375049017" lon="-75.6824338827238">
        <ele>52.421895</ele>
        <time>2019-09-10T15:25:26.800Z</time>
      </trkpt>
      <trkpt lat="10.1586392325114" lon="-75.6824359496166">
        <ele>52.421895</ele>
        <time>2019-09-10T15:25:26.900Z</time>
      </trkpt>
      <trkpt lat="10.1586409690711" lon="-75.6824380144902">
        <ele>52.421895</ele>
        <time>2019-09-10T15:25:27.000Z</time>
      </trkpt>
      <trkpt lat="10.1586427249636" lon="-75.6824401141776">
        <ele>52.421895</ele>
        <time>2019-09-10T15:25:27.100Z</time>
      </trkpt>
      <trkpt lat="10.1586444863668" lon="-75.6824422324555">
        <ele>52.421895</ele>
        <time>2019-09-10T15:25:27.200Z</time>
      </trkpt>
      <trkpt lat="10.1586462258707" lon="-75.6824443363205">
        <ele>52.421895</ele>
        <time>2019-09-10T15:25:27.300Z</time>
      </trkpt>
      <trkpt lat="10.1586479535325" lon="-75.6824464294629">
        <ele>52.421895</ele>
        <time>2019-09-10T15:25:27.400Z</time>
      </trkpt>
      <trkpt lat="10.1586496660173" lon="-75.6824485196809">
        <ele>52.421895</ele>
        <time>2019-09-10T15:25:27.500Z</time>
      </trkpt>
      <trkpt lat="10.1586530836783" lon="-75.6824526800642">
        <ele>52.421895</ele>
        <time>2019-09-10T15:25:27.700Z</time>
      </trkpt>
      <trkpt lat="10.1586548020645" lon="-75.6824547477926">
        <ele>52.321895</ele>
        <time>2019-09-10T15:25:27.800Z</time>
      </trkpt>
      <trkpt lat="10.158656506876" lon="-75.6824568217178">
        <ele>52.421895</ele>
        <time>2019-09-10T15:25:27.900Z</time>
      </trkpt>
      <trkpt lat="10.1586582138501" lon="-75.6824589113788">
        <ele>52.421895</ele>
        <time>2019-09-10T15:25:28.000Z</time>
      </trkpt>
      <trkpt lat="10.1586599069629" lon="-75.6824610371068">
        <ele>52.421895</ele>
        <time>2019-09-10T15:25:28.100Z</time>
      </trkpt>
      <trkpt lat="10.1586616044268" lon="-75.6824631757856">
        <ele>52.421895</ele>
        <time>2019-09-10T15:25:28.200Z</time>
      </trkpt>
      <trkpt lat="10.1586633103196" lon="-75.6824653193383">
        <ele>52.421895</ele>
        <time>2019-09-10T15:25:28.300Z</time>
      </trkpt>
      <trkpt lat="10.158665028315" lon="-75.6824674517506">
        <ele>52.421895</ele>
        <time>2019-09-10T15:25:28.400Z</time>
      </trkpt>
      <trkpt lat="10.1586684342773" lon="-75.6824716778623">
        <ele>52.321895</ele>
        <time>2019-09-10T15:25:28.600Z</time>
      </trkpt>
      <trkpt lat="10.1586701280284" lon="-75.6824737999697">
        <ele>52.321895</ele>
        <time>2019-09-10T15:25:28.700Z</time>
      </trkpt>
      <trkpt lat="10.158671825323" lon="-75.6824759202668">
        <ele>52.321895</ele>
        <time>2019-09-10T15:25:28.800Z</time>
      </trkpt>
      <trkpt lat="10.1586735039361" lon="-75.6824780361078">
        <ele>52.321895</ele>
        <time>2019-09-10T15:25:28.900Z</time>
      </trkpt>
      <trkpt lat="10.1586751877472" lon="-75.6824801476318">
        <ele>52.321895</ele>
        <time>2019-09-10T15:25:29.000Z</time>
      </trkpt>
      <trkpt lat="10.1586768713368" lon="-75.6824822535857">
        <ele>52.321895</ele>
        <time>2019-09-10T15:25:29.100Z</time>
      </trkpt>
      <trkpt lat="10.1586785683448" lon="-75.6824843525768">
        <ele>52.321895</ele>
        <time>2019-09-10T15:25:29.200Z</time>
      </trkpt>
      <trkpt lat="10.1586802754361" lon="-75.6824864705065">
        <ele>52.321895</ele>
        <time>2019-09-10T15:25:29.300Z</time>
      </trkpt>
      <trkpt lat="10.1586819942392" lon="-75.6824885976272">
        <ele>52.321895</ele>
        <time>2019-09-10T15:25:29.400Z</time>
      </trkpt>
      <trkpt lat="10.1586837107625" lon="-75.6824907573335">
        <ele>52.321895</ele>
        <time>2019-09-10T15:25:29.500Z</time>
      </trkpt>
      <trkpt lat="10.1586854011916" lon="-75.6824928850111">
        <ele>52.321895</ele>
        <time>2019-09-10T15:25:29.600Z</time>
      </trkpt>
      <trkpt lat="10.1586870661909" lon="-75.6824949029557">
        <ele>52.321895</ele>
        <time>2019-09-10T15:25:29.700Z</time>
      </trkpt>
      <trkpt lat="10.1586887210287" lon="-75.6824967379193">
        <ele>52.321895</ele>
        <time>2019-09-10T15:25:29.800Z</time>
      </trkpt>
      <trkpt lat="10.1586903299965" lon="-75.6824982894989">
        <ele>52.321895</ele>
        <time>2019-09-10T15:25:29.900Z</time>
      </trkpt>
      <trkpt lat="10.158691920374" lon="-75.6824995709237">
        <ele>52.321895</ele>
        <time>2019-09-10T15:25:30.000Z</time>
      </trkpt>
      <trkpt lat="10.1586935388259" lon="-75.6825004627129">
        <ele>52.321895</ele>
        <time>2019-09-10T15:25:30.100Z</time>
      </trkpt>
      <trkpt lat="10.1586951846096" lon="-75.6825010466092">
        <ele>52.321895</ele>
        <time>2019-09-10T15:25:30.200Z</time>
      </trkpt>
      <trkpt lat="10.1586969041943" lon="-75.6825012222098">
        <ele>52.321895</ele>
        <time>2019-09-10T15:25:30.300Z</time>
      </trkpt>
      <trkpt lat="10.1586986714729" lon="-75.682501137125">
        <ele>52.321895</ele>
        <time>2019-09-10T15:25:30.400Z</time>
      </trkpt>
      <trkpt lat="10.1587005586962" lon="-75.6825007071055">
        <ele>52.321895</ele>
        <time>2019-09-10T15:25:30.500Z</time>
      </trkpt>
      <trkpt lat="10.158702512803" lon="-75.682500045644">
        <ele>52.321895</ele>
        <time>2019-09-10T15:25:30.600Z</time>
      </trkpt>
      <trkpt lat="10.1587046112159" lon="-75.6824990242084">
        <ele>52.421895</ele>
        <time>2019-09-10T15:25:30.700Z</time>
      </trkpt>
      <trkpt lat="10.1587067034668" lon="-75.6824977466827">
        <ele>52.421895</ele>
        <time>2019-09-10T15:25:30.800Z</time>
      </trkpt>
      <trkpt lat="10.1587088652457" lon="-75.6824961474779">
        <ele>52.421895</ele>
        <time>2019-09-10T15:25:30.900Z</time>
      </trkpt>
      <trkpt lat="10.1587109528198" lon="-75.6824943491385">
        <ele>52.421895</ele>
        <time>2019-09-10T15:25:31.000Z</time>
      </trkpt>
      <trkpt lat="10.1587130784863" lon="-75.6824923568167">
        <ele>52.421895</ele>
        <time>2019-09-10T15:25:31.100Z</time>
      </trkpt>
      <trkpt lat="10.1587151437832" lon="-75.6824902503059">
        <ele>52.421895</ele>
        <time>2019-09-10T15:25:31.200Z</time>
      </trkpt>
      <trkpt lat="10.1587172538689" lon="-75.6824880695721">
        <ele>52.421895</ele>
        <time>2019-09-10T15:25:31.300Z</time>
      </trkpt>
      <trkpt lat="10.1587193097208" lon="-75.6824858285409">
        <ele>52.421895</ele>
        <time>2019-09-10T15:25:31.400Z</time>
      </trkpt>
      <trkpt lat="10.1587213859869" lon="-75.6824835737234">
        <ele>52.421895</ele>
        <time>2019-09-10T15:25:31.500Z</time>
      </trkpt>
      <trkpt lat="10.1587234080453" lon="-75.6824812739265">
        <ele>52.421895</ele>
        <time>2019-09-10T15:25:31.600Z</time>
      </trkpt>
      <trkpt lat="10.1587274857082" lon="-75.682476748138">
        <ele>52.421895</ele>
        <time>2019-09-10T15:25:31.800Z</time>
      </trkpt>
      <trkpt lat="10.1587294802524" lon="-75.68247452145">
        <ele>52.421895</ele>
        <time>2019-09-10T15:25:31.900Z</time>
      </trkpt>
      <trkpt lat="10.1587311880342" lon="-75.6824724912509">
        <ele>52.421895</ele>
        <time>2019-09-10T15:25:32.000Z</time>
      </trkpt>
      <trkpt lat="10.1587324487886" lon="-75.6824709247711">
        <ele>52.421895</ele>
        <time>2019-09-10T15:25:32.100Z</time>
      </trkpt>
      <trkpt lat="10.1587333227028" lon="-75.6824697019727">
        <ele>52.421895</ele>
        <time>2019-09-10T15:25:32.200Z</time>
      </trkpt>
      <trkpt lat="10.1587337902096" lon="-75.6824689211697">
        <ele>52.421895</ele>
        <time>2019-09-10T15:25:32.300Z</time>
      </trkpt>
      <trkpt lat="10.1587340708751" lon="-75.6824683544017">
        <ele>52.421895</ele>
        <time>2019-09-10T15:25:32.400Z</time>
      </trkpt>
      <trkpt lat="10.1587341484151" lon="-75.682468063498">
        <ele>52.421895</ele>
        <time>2019-09-10T15:25:32.500Z</time>
      </trkpt>
      <trkpt lat="10.1587341857" lon="-75.6824678347019">
        <ele>52.421895</ele>
        <time>2019-09-10T15:25:32.600Z</time>
      </trkpt>
      <trkpt lat="10.1587340907031" lon="-75.6824676384916">
        <ele>52.521895</ele>
        <time>2019-09-10T15:25:32.700Z</time>
      </trkpt>
      <trkpt lat="10.1587339779626" lon="-75.6824674276595">
        <ele>52.521895</ele>
        <time>2019-09-10T15:25:32.800Z</time>
      </trkpt>
      <trkpt lat="10.158733767698" lon="-75.6824671682274">
        <ele>52.521895</ele>
        <time>2019-09-10T15:25:32.900Z</time>
      </trkpt>
      <trkpt lat="10.1587335662138" lon="-75.6824669047568">
        <ele>52.521895</ele>
        <time>2019-09-10T15:25:33.000Z</time>
      </trkpt>
      <trkpt lat="10.1587332978984" lon="-75.6824666006239">
        <ele>52.521895</ele>
        <time>2019-09-10T15:25:33.100Z</time>
      </trkpt>
      <trkpt lat="10.1587330569147" lon="-75.6824663506611">
        <ele>52.521895</ele>
        <time>2019-09-10T15:25:33.200Z</time>
      </trkpt>
      <trkpt lat="10.1587328141593" lon="-75.6824660139424">
        <ele>52.521895</ele>
        <time>2019-09-10T15:25:33.300Z</time>
      </trkpt>
      <trkpt lat="10.1587326233838" lon="-75.6824657024289">
        <ele>52.521895</ele>
        <time>2019-09-10T15:25:33.400Z</time>
      </trkpt>
      <trkpt lat="10.1587324558495" lon="-75.6824653307572">
        <ele>52.521895</ele>
        <time>2019-09-10T15:25:33.500Z</time>
      </trkpt>
      <trkpt lat="10.1587323256782" lon="-75.6824650383216">
        <ele>52.521895</ele>
        <time>2019-09-10T15:25:33.600Z</time>
      </trkpt>
      <trkpt lat="10.1587322160123" lon="-75.6824647112116">
        <ele>52.521895</ele>
        <time>2019-09-10T15:25:33.700Z</time>
      </trkpt>
      <trkpt lat="10.1587321291967" lon="-75.6824644548431">
        <ele>52.521895</ele>
        <time>2019-09-10T15:25:33.800Z</time>
      </trkpt>
      <trkpt lat="10.1587320476442" lon="-75.6824642073869">
        <ele>52.521895</ele>
        <time>2019-09-10T15:25:33.900Z</time>
      </trkpt>
      <trkpt lat="10.1587319811255" lon="-75.6824640341536">
        <ele>52.521895</ele>
        <time>2019-09-10T15:25:34.000Z</time>
      </trkpt>
      <trkpt lat="10.1587319106725" lon="-75.6824638845937">
        <ele>52.521895</ele>
        <time>2019-09-10T15:25:34.100Z</time>
      </trkpt>
      <trkpt lat="10.1587318522049" lon="-75.6824637889255">
        <ele>52.521895</ele>
        <time>2019-09-10T15:25:34.200Z</time>
      </trkpt>
      <trkpt lat="10.1587318027783" lon="-75.6824637218046">
        <ele>52.421895</ele>
        <time>2019-09-10T15:25:34.300Z</time>
      </trkpt>
      <trkpt lat="10.1587317702616" lon="-75.6824636935358">
        <ele>52.421895</ele>
        <time>2019-09-10T15:25:34.400Z</time>
      </trkpt>
      <trkpt lat="10.1587317146339" lon="-75.6824637147026">
        <ele>52.421895</ele>
        <time>2019-09-10T15:25:34.500Z</time>
      </trkpt>
      <trkpt lat="10.1587316661714" lon="-75.6824637641381">
        <ele>52.421895</ele>
        <time>2019-09-10T15:25:34.600Z</time>
      </trkpt>
      <trkpt lat="10.1587315864689" lon="-75.6824638613381">
        <ele>52.421895</ele>
        <time>2019-09-10T15:25:34.700Z</time>
      </trkpt>
      <trkpt lat="10.1587315152603" lon="-75.6824639648046">
        <ele>52.421895</ele>
        <time>2019-09-10T15:25:34.800Z</time>
      </trkpt>
      <trkpt lat="10.1587313969962" lon="-75.6824640853995">
        <ele>52.421895</ele>
        <time>2019-09-10T15:25:34.900Z</time>
      </trkpt>
      <trkpt lat="10.1587312983776" lon="-75.6824641890052">
        <ele>52.521895</ele>
        <time>2019-09-10T15:25:35.000Z</time>
      </trkpt>
      <trkpt lat="10.1587311683105" lon="-75.6824643331342">
        <ele>52.521895</ele>
        <time>2019-09-10T15:25:35.100Z</time>
      </trkpt>
      <trkpt lat="10.1587310653668" lon="-75.682464487011">
        <ele>52.521895</ele>
        <time>2019-09-10T15:25:35.200Z</time>
      </trkpt>
      <trkpt lat="10.1587308885047" lon="-75.6824646286334">
        <ele>52.521895</ele>
        <time>2019-09-10T15:25:35.300Z</time>
      </trkpt>
      <trkpt lat="10.158730674905" lon="-75.6824646184677">
        <ele>52.521895</ele>
        <time>2019-09-10T15:25:35.400Z</time>
      </trkpt>
      <trkpt lat="10.1587304056255" lon="-75.6824644133451">
        <ele>52.521895</ele>
        <time>2019-09-10T15:25:35.500Z</time>
      </trkpt>
      <trkpt lat="10.158730130197" lon="-75.6824639920986">
        <ele>52.521895</ele>
        <time>2019-09-10T15:25:35.600Z</time>
      </trkpt>
      <trkpt lat="10.1587298211835" lon="-75.682463312534">
        <ele>52.521895</ele>
        <time>2019-09-10T15:25:35.700Z</time>
      </trkpt>
      <trkpt lat="10.1587295076363" lon="-75.6824624174027">
        <ele>52.621895</ele>
        <time>2019-09-10T15:25:35.800Z</time>
      </trkpt>
      <trkpt lat="10.1587291632139" lon="-75.6824612196702">
        <ele>52.621895</ele>
        <time>2019-09-10T15:25:35.900Z</time>
      </trkpt>
      <trkpt lat="10.1587287955504" lon="-75.6824598008006">
        <ele>52.621895</ele>
        <time>2019-09-10T15:25:36.000Z</time>
      </trkpt>
      <trkpt lat="10.1587284186633" lon="-75.6824581216635">
        <ele>52.621895</ele>
        <time>2019-09-10T15:25:36.100Z</time>
      </trkpt>
      <trkpt lat="10.1587280101714" lon="-75.6824562549498">
        <ele>52.521895</ele>
        <time>2019-09-10T15:25:36.200Z</time>
      </trkpt>
      <trkpt lat="10.1587275969895" lon="-75.6824541270633">
        <ele>52.521895</ele>
        <time>2019-09-10T15:25:36.300Z</time>
      </trkpt>
      <trkpt lat="10.1587271425103" lon="-75.6824518064478">
        <ele>52.521895</ele>
        <time>2019-09-10T15:25:36.400Z</time>
      </trkpt>
      <trkpt lat="10.1587267001468" lon="-75.6824492357303">
        <ele>52.521895</ele>
        <time>2019-09-10T15:25:36.500Z</time>
      </trkpt>
      <trkpt lat="10.1587262126818" lon="-75.6824464768096">
        <ele>52.521895</ele>
        <time>2019-09-10T15:25:36.600Z</time>
      </trkpt>
      <trkpt lat="10.1587257447713" lon="-75.6824435047591">
        <ele>52.521895</ele>
        <time>2019-09-10T15:25:36.700Z</time>
      </trkpt>
      <trkpt lat="10.1587247436039" lon="-75.6824370633087">
        <ele>52.521895</ele>
        <time>2019-09-10T15:25:36.900Z</time>
      </trkpt>
      <trkpt lat="10.1587242087447" lon="-75.6824335854143">
        <ele>52.521895</ele>
        <time>2019-09-10T15:25:37.000Z</time>
      </trkpt>
      <trkpt lat="10.1587236970746" lon="-75.6824299308052">
        <ele>52.521895</ele>
        <time>2019-09-10T15:25:37.100Z</time>
      </trkpt>
      <trkpt lat="10.1587231140265" lon="-75.6824261041466">
        <ele>52.521895</ele>
        <time>2019-09-10T15:25:37.200Z</time>
      </trkpt>
      <trkpt lat="10.158722550181" lon="-75.6824221527154">
        <ele>52.521895</ele>
        <time>2019-09-10T15:25:37.300Z</time>
      </trkpt>
      <trkpt lat="10.1587219109581" lon="-75.6824180377293">
        <ele>52.521895</ele>
        <time>2019-09-10T15:25:37.400Z</time>
      </trkpt>
      <trkpt lat="10.1587212745101" lon="-75.6824137309193">
        <ele>52.521895</ele>
        <time>2019-09-10T15:25:37.500Z</time>
      </trkpt>
      <trkpt lat="10.1587205581381" lon="-75.6824092530345">
        <ele>52.521895</ele>
        <time>2019-09-10T15:25:37.600Z</time>
      </trkpt>
      <trkpt lat="10.1587198517581" lon="-75.682404739013">
        <ele>52.521895</ele>
        <time>2019-09-10T15:25:37.700Z</time>
      </trkpt>
      <trkpt lat="10.1587190824291" lon="-75.6824001041181">
        <ele>52.521895</ele>
        <time>2019-09-10T15:25:37.800Z</time>
      </trkpt>
      <trkpt lat="10.158718299851" lon="-75.6823953651302">
        <ele>52.521895</ele>
        <time>2019-09-10T15:25:37.900Z</time>
      </trkpt>
      <trkpt lat="10.158717444957" lon="-75.6823904529785">
        <ele>52.521895</ele>
        <time>2019-09-10T15:25:38.000Z</time>
      </trkpt>
      <trkpt lat="10.1587165866628" lon="-75.6823854433484">
        <ele>52.521895</ele>
        <time>2019-09-10T15:25:38.100Z</time>
      </trkpt>
      <trkpt lat="10.1587156694059" lon="-75.6823802832532">
        <ele>52.521895</ele>
        <time>2019-09-10T15:25:38.200Z</time>
      </trkpt>
      <trkpt lat="10.1587147360599" lon="-75.682375042042">
        <ele>52.521895</ele>
        <time>2019-09-10T15:25:38.300Z</time>
      </trkpt>
      <trkpt lat="10.1587137476856" lon="-75.6823696562143">
        <ele>52.521895</ele>
        <time>2019-09-10T15:25:38.400Z</time>
      </trkpt>
      <trkpt lat="10.1587127371905" lon="-75.6823640865701">
        <ele>52.521895</ele>
        <time>2019-09-10T15:25:38.500Z</time>
      </trkpt>
      <trkpt lat="10.1587116821412" lon="-75.6823583653468">
        <ele>52.521895</ele>
        <time>2019-09-10T15:25:38.600Z</time>
      </trkpt>
      <trkpt lat="10.1587106334624" lon="-75.6823526169687">
        <ele>52.521895</ele>
        <time>2019-09-10T15:25:38.700Z</time>
      </trkpt>
      <trkpt lat="10.1587095541427" lon="-75.6823467816258">
        <ele>52.521895</ele>
        <time>2019-09-10T15:25:38.800Z</time>
      </trkpt>
      <trkpt lat="10.1587084677361" lon="-75.682340850197">
        <ele>52.521895</ele>
        <time>2019-09-10T15:25:38.900Z</time>
      </trkpt>
      <trkpt lat="10.1587073388596" lon="-75.6823347803487">
        <ele>52.521895</ele>
        <time>2019-09-10T15:25:39.000Z</time>
      </trkpt>
      <trkpt lat="10.1587062123541" lon="-75.682328515613">
        <ele>52.521895</ele>
        <time>2019-09-10T15:25:39.100Z</time>
      </trkpt>
      <trkpt lat="10.1587050449161" lon="-75.6823221168442">
        <ele>52.521895</ele>
        <time>2019-09-10T15:25:39.200Z</time>
      </trkpt>
      <trkpt lat="10.1587038544324" lon="-75.6823156984406">
        <ele>52.521895</ele>
        <time>2019-09-10T15:25:39.300Z</time>
      </trkpt>
      <trkpt lat="10.158702623472" lon="-75.6823092189736">
        <ele>52.521895</ele>
        <time>2019-09-10T15:25:39.400Z</time>
      </trkpt>
      <trkpt lat="10.1587013633821" lon="-75.6823025741412">
        <ele>52.521895</ele>
        <time>2019-09-10T15:25:39.500Z</time>
      </trkpt>
      <trkpt lat="10.1587000607571" lon="-75.682295811708">
        <ele>52.521895</ele>
        <time>2019-09-10T15:25:39.600Z</time>
      </trkpt>
      <trkpt lat="10.1586987427858" lon="-75.6822889811095">
        <ele>52.521895</ele>
        <time>2019-09-10T15:25:39.700Z</time>
      </trkpt>
      <trkpt lat="10.1586974001662" lon="-75.6822820840863">
        <ele>52.521895</ele>
        <time>2019-09-10T15:25:39.800Z</time>
      </trkpt>
      <trkpt lat="10.1586960446495" lon="-75.6822751005857">
        <ele>52.521895</ele>
        <time>2019-09-10T15:25:39.900Z</time>
      </trkpt>
      <trkpt lat="10.1586946652662" lon="-75.6822680342283">
        <ele>52.521895</ele>
        <time>2019-09-10T15:25:40.000Z</time>
      </trkpt>
      <trkpt lat="10.158693266537" lon="-75.6822608296604">
        <ele>52.521895</ele>
        <time>2019-09-10T15:25:40.100Z</time>
      </trkpt>
      <trkpt lat="10.1586918528522" lon="-75.6822535464133">
        <ele>52.521895</ele>
        <time>2019-09-10T15:25:40.200Z</time>
      </trkpt>
      <trkpt lat="10.1586904526509" lon="-75.6822463398958">
        <ele>52.521895</ele>
        <time>2019-09-10T15:25:40.300Z</time>
      </trkpt>
      <trkpt lat="10.158689045506" lon="-75.6822390979379">
        <ele>52.521895</ele>
        <time>2019-09-10T15:25:40.400Z</time>
      </trkpt>
      <trkpt lat="10.158687618025" lon="-75.6822318148301">
        <ele>52.521895</ele>
        <time>2019-09-10T15:25:40.500Z</time>
      </trkpt>
      <trkpt lat="10.1586861776207" lon="-75.6822244245656">
        <ele>52.521895</ele>
        <time>2019-09-10T15:25:40.600Z</time>
      </trkpt>
      <trkpt lat="10.158684746505" lon="-75.6822170952948">
        <ele>52.521895</ele>
        <time>2019-09-10T15:25:40.700Z</time>
      </trkpt>
      <trkpt lat="10.1586833119631" lon="-75.6822096951431">
        <ele>52.521895</ele>
        <time>2019-09-10T15:25:40.800Z</time>
      </trkpt>
      <trkpt lat="10.1586818644588" lon="-75.6822022731285">
        <ele>52.521895</ele>
        <time>2019-09-10T15:25:40.900Z</time>
      </trkpt>
      <trkpt lat="10.1586804002401" lon="-75.682194735741">
        <ele>52.521895</ele>
        <time>2019-09-10T15:25:41.000Z</time>
      </trkpt>
      <trkpt lat="10.1586789034135" lon="-75.6821871819214">
        <ele>52.521895</ele>
        <time>2019-09-10T15:25:41.100Z</time>
      </trkpt>
      <trkpt lat="10.158677389182" lon="-75.6821795460806">
        <ele>52.521895</ele>
        <time>2019-09-10T15:25:41.200Z</time>
      </trkpt>
      <trkpt lat="10.1586743135854" lon="-75.6821640980326">
        <ele>52.521895</ele>
        <time>2019-09-10T15:25:41.400Z</time>
      </trkpt>
      <trkpt lat="10.1586727011132" lon="-75.6821561939866">
        <ele>52.521895</ele>
        <time>2019-09-10T15:25:41.500Z</time>
      </trkpt>
      <trkpt lat="10.1586710863221" lon="-75.6821482228894">
        <ele>52.521895</ele>
        <time>2019-09-10T15:25:41.600Z</time>
      </trkpt>
      <trkpt lat="10.1586694788264" lon="-75.6821403143872">
        <ele>52.521895</ele>
        <time>2019-09-10T15:25:41.700Z</time>
      </trkpt>
      <trkpt lat="10.1586678978548" lon="-75.6821324095057">
        <ele>52.521895</ele>
        <time>2019-09-10T15:25:41.800Z</time>
      </trkpt>
      <trkpt lat="10.1586662995696" lon="-75.6821244688357">
        <ele>52.521895</ele>
        <time>2019-09-10T15:25:41.900Z</time>
      </trkpt>
      <trkpt lat="10.1586647003724" lon="-75.6821164570759">
        <ele>52.521895</ele>
        <time>2019-09-10T15:25:42.000Z</time>
      </trkpt>
      <trkpt lat="10.1586630768007" lon="-75.6821083969947">
        <ele>52.521895</ele>
        <time>2019-09-10T15:25:42.100Z</time>
      </trkpt>
      <trkpt lat="10.1586614505975" lon="-75.6821002927">
        <ele>52.521895</ele>
        <time>2019-09-10T15:25:42.200Z</time>
      </trkpt>
      <trkpt lat="10.1586597881516" lon="-75.6820920791597">
        <ele>52.521895</ele>
        <time>2019-09-10T15:25:42.300Z</time>
      </trkpt>
      <trkpt lat="10.1586581236213" lon="-75.6820838233555">
        <ele>52.521895</ele>
        <time>2019-09-10T15:25:42.400Z</time>
      </trkpt>
      <trkpt lat="10.1586564321239" lon="-75.6820756504081">
        <ele>52.521895</ele>
        <time>2019-09-10T15:25:42.500Z</time>
      </trkpt>
      <trkpt lat="10.1586547514785" lon="-75.6820674860945">
        <ele>52.521895</ele>
        <time>2019-09-10T15:25:42.600Z</time>
      </trkpt>
      <trkpt lat="10.1586530209767" lon="-75.6820592016038">
        <ele>52.521895</ele>
        <time>2019-09-10T15:25:42.700Z</time>
      </trkpt>
      <trkpt lat="10.158651305704" lon="-75.682050838991">
        <ele>52.521895</ele>
        <time>2019-09-10T15:25:42.800Z</time>
      </trkpt>
      <trkpt lat="10.1586495973621" lon="-75.6820425726034">
        <ele>52.521895</ele>
        <time>2019-09-10T15:25:42.900Z</time>
      </trkpt>
      <trkpt lat="10.1586479185275" lon="-75.6820343094883">
        <ele>52.521895</ele>
        <time>2019-09-10T15:25:43.000Z</time>
      </trkpt>
      <trkpt lat="10.1586462338827" lon="-75.6820260780538">
        <ele>52.521895</ele>
        <time>2019-09-10T15:25:43.100Z</time>
      </trkpt>
      <trkpt lat="10.1586445617312" lon="-75.682017807976">
        <ele>52.521895</ele>
        <time>2019-09-10T15:25:43.200Z</time>
      </trkpt>
      <trkpt lat="10.1586428847856" lon="-75.6820095756363">
        <ele>52.421895</ele>
        <time>2019-09-10T15:25:43.300Z</time>
      </trkpt>
      <trkpt lat="10.1586412333089" lon="-75.6820013254719">
        <ele>52.421895</ele>
        <time>2019-09-10T15:25:43.400Z</time>
      </trkpt>
      <trkpt lat="10.1586395736379" lon="-75.6819931254394">
        <ele>52.421895</ele>
        <time>2019-09-10T15:25:43.500Z</time>
      </trkpt>
      <trkpt lat="10.158637939566" lon="-75.6819849386361">
        <ele>52.421895</ele>
        <time>2019-09-10T15:25:43.600Z</time>
      </trkpt>
      <trkpt lat="10.1586363123205" lon="-75.6819768428359">
        <ele>52.421895</ele>
        <time>2019-09-10T15:25:43.700Z</time>
      </trkpt>
      <trkpt lat="10.1586347166278" lon="-75.6819687760704">
        <ele>52.421895</ele>
        <time>2019-09-10T15:25:43.800Z</time>
      </trkpt>
      <trkpt lat="10.158633093017" lon="-75.6819607748245">
        <ele>52.421895</ele>
        <time>2019-09-10T15:25:43.900Z</time>
      </trkpt>
      <trkpt lat="10.1586314916443" lon="-75.6819527856937">
        <ele>52.421895</ele>
        <time>2019-09-10T15:25:44.000Z</time>
      </trkpt>
      <trkpt lat="10.1586298970068" lon="-75.6819448461377">
        <ele>52.421895</ele>
        <time>2019-09-10T15:25:44.100Z</time>
      </trkpt>
      <trkpt lat="10.1586283403055" lon="-75.6819369311602">
        <ele>52.421895</ele>
        <time>2019-09-10T15:25:44.200Z</time>
      </trkpt>
      <trkpt lat="10.1586267791619" lon="-75.6819290686818">
        <ele>52.421895</ele>
        <time>2019-09-10T15:25:44.300Z</time>
      </trkpt>
      <trkpt lat="10.1586252547168" lon="-75.6819212371181">
        <ele>52.321895</ele>
        <time>2019-09-10T15:25:44.400Z</time>
      </trkpt>
      <trkpt lat="10.1586237162411" lon="-75.6819134943295">
        <ele>52.321895</ele>
        <time>2019-09-10T15:25:44.500Z</time>
      </trkpt>
      <trkpt lat="10.1586222092139" lon="-75.6819057942921">
        <ele>52.321895</ele>
        <time>2019-09-10T15:25:44.600Z</time>
      </trkpt>
      <trkpt lat="10.1586206766917" lon="-75.6818981576158">
        <ele>52.321895</ele>
        <time>2019-09-10T15:25:44.700Z</time>
      </trkpt>
      <trkpt lat="10.1586191856884" lon="-75.6818905423848">
        <ele>52.421895</ele>
        <time>2019-09-10T15:25:44.800Z</time>
      </trkpt>
      <trkpt lat="10.1586177023192" lon="-75.6818829840394">
        <ele>52.421895</ele>
        <time>2019-09-10T15:25:44.900Z</time>
      </trkpt>
      <trkpt lat="10.158616275659" lon="-75.6818754651729">
        <ele>52.421895</ele>
        <time>2019-09-10T15:25:45.000Z</time>
      </trkpt>
      <trkpt lat="10.1586148079554" lon="-75.6818680119302">
        <ele>52.421895</ele>
        <time>2019-09-10T15:25:45.100Z</time>
      </trkpt>
      <trkpt lat="10.1586133756347" lon="-75.6818605892541">
        <ele>52.421895</ele>
        <time>2019-09-10T15:25:45.200Z</time>
      </trkpt>
      <trkpt lat="10.1586119219944" lon="-75.6818531224341">
        <ele>52.421895</ele>
        <time>2019-09-10T15:25:45.300Z</time>
      </trkpt>
      <trkpt lat="10.1586105366706" lon="-75.6818456713847">
        <ele>52.321895</ele>
        <time>2019-09-10T15:25:45.400Z</time>
      </trkpt>
      <trkpt lat="10.1586091576065" lon="-75.6818382645141">
        <ele>52.321895</ele>
        <time>2019-09-10T15:25:45.500Z</time>
      </trkpt>
      <trkpt lat="10.1586064653066" lon="-75.681823728865">
        <ele>52.321895</ele>
        <time>2019-09-10T15:25:45.700Z</time>
      </trkpt>
      <trkpt lat="10.1586051380596" lon="-75.6818165840374">
        <ele>52.321895</ele>
        <time>2019-09-10T15:25:45.800Z</time>
      </trkpt>
      <trkpt lat="10.1586037950948" lon="-75.681809541075">
        <ele>52.321895</ele>
        <time>2019-09-10T15:25:45.900Z</time>
      </trkpt>
      <trkpt lat="10.1586024966257" lon="-75.6818025465732">
        <ele>52.321895</ele>
        <time>2019-09-10T15:25:46.000Z</time>
      </trkpt>
      <trkpt lat="10.1586012165971" lon="-75.6817957169495">
        <ele>52.321895</ele>
        <time>2019-09-10T15:25:46.100Z</time>
      </trkpt>
      <trkpt lat="10.1585999709026" lon="-75.6817889308081">
        <ele>52.321895</ele>
        <time>2019-09-10T15:25:46.200Z</time>
      </trkpt>
      <trkpt lat="10.1585987073994" lon="-75.6817822381764">
        <ele>52.321895</ele>
        <time>2019-09-10T15:25:46.300Z</time>
      </trkpt>
      <trkpt lat="10.1585974663752" lon="-75.6817755300875">
        <ele>52.321895</ele>
        <time>2019-09-10T15:25:46.400Z</time>
      </trkpt>
      <trkpt lat="10.1585961891605" lon="-75.6817687935905">
        <ele>52.321895</ele>
        <time>2019-09-10T15:25:46.500Z</time>
      </trkpt>
      <trkpt lat="10.1585949360599" lon="-75.6817620430288">
        <ele>52.321895</ele>
        <time>2019-09-10T15:25:46.600Z</time>
      </trkpt>
      <trkpt lat="10.1585936711302" lon="-75.6817553401271">
        <ele>52.321895</ele>
        <time>2019-09-10T15:25:46.700Z</time>
      </trkpt>
      <trkpt lat="10.1585924397073" lon="-75.6817486887497">
        <ele>52.321895</ele>
        <time>2019-09-10T15:25:46.800Z</time>
      </trkpt>
      <trkpt lat="10.1585912150653" lon="-75.6817421889167">
        <ele>52.321895</ele>
        <time>2019-09-10T15:25:46.900Z</time>
      </trkpt>
      <trkpt lat="10.1585900219696" lon="-75.6817357614963">
        <ele>52.321895</ele>
        <time>2019-09-10T15:25:47.000Z</time>
      </trkpt>
      <trkpt lat="10.1585888018155" lon="-75.6817294091343">
        <ele>52.321895</ele>
        <time>2019-09-10T15:25:47.100Z</time>
      </trkpt>
      <trkpt lat="10.1585875922464" lon="-75.6817230666595">
        <ele>52.321895</ele>
        <time>2019-09-10T15:25:47.200Z</time>
      </trkpt>
      <trkpt lat="10.1585863822279" lon="-75.6817167735505">
        <ele>52.321895</ele>
        <time>2019-09-10T15:25:47.300Z</time>
      </trkpt>
      <trkpt lat="10.1585852022899" lon="-75.6817104980225">
        <ele>52.321895</ele>
        <time>2019-09-10T15:25:47.400Z</time>
      </trkpt>
      <trkpt lat="10.1585839938281" lon="-75.681704281469">
        <ele>52.321895</ele>
        <time>2019-09-10T15:25:47.500Z</time>
      </trkpt>
      <trkpt lat="10.1585827981724" lon="-75.6816981080498">
        <ele>52.321895</ele>
        <time>2019-09-10T15:25:47.600Z</time>
      </trkpt>
      <trkpt lat="10.1585815718238" lon="-75.6816919678777">
        <ele>52.321895</ele>
        <time>2019-09-10T15:25:47.700Z</time>
      </trkpt>
      <trkpt lat="10.1585803879385" lon="-75.6816858386022">
        <ele>52.321895</ele>
        <time>2019-09-10T15:25:47.800Z</time>
      </trkpt>
      <trkpt lat="10.1585791407524" lon="-75.6816795544404">
        <ele>52.321895</ele>
        <time>2019-09-10T15:25:47.900Z</time>
      </trkpt>
      <trkpt lat="10.1585779390454" lon="-75.6816733012977">
        <ele>52.421895</ele>
        <time>2019-09-10T15:25:48.000Z</time>
      </trkpt>
      <trkpt lat="10.1585767727017" lon="-75.6816672496221">
        <ele>52.421895</ele>
        <time>2019-09-10T15:25:48.100Z</time>
      </trkpt>
      <trkpt lat="10.1585756558627" lon="-75.6816613228235">
        <ele>52.421895</ele>
        <time>2019-09-10T15:25:48.200Z</time>
      </trkpt>
      <trkpt lat="10.1585744925088" lon="-75.6816553871823">
        <ele>52.421895</ele>
        <time>2019-09-10T15:25:48.300Z</time>
      </trkpt>
      <trkpt lat="10.1585733457455" lon="-75.6816494709671">
        <ele>52.421895</ele>
        <time>2019-09-10T15:25:48.400Z</time>
      </trkpt>
      <trkpt lat="10.158572196774" lon="-75.6816437364797">
        <ele>52.421895</ele>
        <time>2019-09-10T15:25:48.500Z</time>
      </trkpt>
      <trkpt lat="10.1585710845663" lon="-75.6816380894096">
        <ele>52.321895</ele>
        <time>2019-09-10T15:25:48.600Z</time>
      </trkpt>
      <trkpt lat="10.1585699776152" lon="-75.6816324963705">
        <ele>52.321895</ele>
        <time>2019-09-10T15:25:48.700Z</time>
      </trkpt>
      <trkpt lat="10.1585689046986" lon="-75.6816269029485">
        <ele>52.321895</ele>
        <time>2019-09-10T15:25:48.800Z</time>
      </trkpt>
      <trkpt lat="10.1585678168655" lon="-75.6816212915974">
        <ele>52.321895</ele>
        <time>2019-09-10T15:25:48.900Z</time>
      </trkpt>
      <trkpt lat="10.1585667508469" lon="-75.6816156937192">
        <ele>52.321895</ele>
        <time>2019-09-10T15:25:49.000Z</time>
      </trkpt>
      <trkpt lat="10.1585657072228" lon="-75.681610292852">
        <ele>52.421895</ele>
        <time>2019-09-10T15:25:49.100Z</time>
      </trkpt>
      <trkpt lat="10.1585646920834" lon="-75.6816049995594">
        <ele>52.421895</ele>
        <time>2019-09-10T15:25:49.200Z</time>
      </trkpt>
      <trkpt lat="10.1585636510712" lon="-75.6815996792164">
        <ele>52.421895</ele>
        <time>2019-09-10T15:25:49.300Z</time>
      </trkpt>
      <trkpt lat="10.1585626320626" lon="-75.6815943162615">
        <ele>52.421895</ele>
        <time>2019-09-10T15:25:49.400Z</time>
      </trkpt>
      <trkpt lat="10.1585616070353" lon="-75.6815890006532">
        <ele>52.421895</ele>
        <time>2019-09-10T15:25:49.500Z</time>
      </trkpt>
      <trkpt lat="10.1585606111441" lon="-75.6815837371612">
        <ele>52.421895</ele>
        <time>2019-09-10T15:25:49.600Z</time>
      </trkpt>
      <trkpt lat="10.1585595962424" lon="-75.6815785085177">
        <ele>52.421895</ele>
        <time>2019-09-10T15:25:49.700Z</time>
      </trkpt>
      <trkpt lat="10.1585586171991" lon="-75.6815733262113">
        <ele>52.421895</ele>
        <time>2019-09-10T15:25:49.800Z</time>
      </trkpt>
      <trkpt lat="10.1585576396214" lon="-75.6815681891628">
        <ele>52.421895</ele>
        <time>2019-09-10T15:25:49.900Z</time>
      </trkpt>
      <trkpt lat="10.1585567048522" lon="-75.6815631029598">
        <ele>52.421895</ele>
        <time>2019-09-10T15:25:50.000Z</time>
      </trkpt>
      <trkpt lat="10.1585557712001" lon="-75.6815580688556">
        <ele>52.421895</ele>
        <time>2019-09-10T15:25:50.100Z</time>
      </trkpt>
      <trkpt lat="10.1585548624176" lon="-75.6815530918634">
        <ele>52.421895</ele>
        <time>2019-09-10T15:25:50.200Z</time>
      </trkpt>
      <trkpt lat="10.1585539611162" lon="-75.6815481683102">
        <ele>52.421895</ele>
        <time>2019-09-10T15:25:50.300Z</time>
      </trkpt>
      <trkpt lat="10.1585530893059" lon="-75.6815432933745">
        <ele>52.421895</ele>
        <time>2019-09-10T15:25:50.400Z</time>
      </trkpt>
      <trkpt lat="10.1585521842395" lon="-75.6815384285174">
        <ele>52.421895</ele>
        <time>2019-09-10T15:25:50.500Z</time>
      </trkpt>
      <trkpt lat="10.1585512864262" lon="-75.6815336098233">
        <ele>52.421895</ele>
        <time>2019-09-10T15:25:50.600Z</time>
      </trkpt>
      <trkpt lat="10.1585495069994" lon="-75.6815242722513">
        <ele>52.421895</ele>
        <time>2019-09-10T15:25:50.800Z</time>
      </trkpt>
      <trkpt lat="10.1585486243209" lon="-75.6815197145385">
        <ele>52.421895</ele>
        <time>2019-09-10T15:25:50.900Z</time>
      </trkpt>
      <trkpt lat="10.1585477526962" lon="-75.6815152217012">
        <ele>52.421895</ele>
        <time>2019-09-10T15:25:51.000Z</time>
      </trkpt>
      <trkpt lat="10.1585468636896" lon="-75.6815108328352">
        <ele>52.421895</ele>
        <time>2019-09-10T15:25:51.100Z</time>
      </trkpt>
      <trkpt lat="10.1585460098313" lon="-75.6815064616371">
        <ele>52.421895</ele>
        <time>2019-09-10T15:25:51.200Z</time>
      </trkpt>
      <trkpt lat="10.158545165711" lon="-75.6815021121629">
        <ele>52.421895</ele>
        <time>2019-09-10T15:25:51.300Z</time>
      </trkpt>
      <trkpt lat="10.1585443491343" lon="-75.6814977834899">
        <ele>52.421895</ele>
        <time>2019-09-10T15:25:51.400Z</time>
      </trkpt>
      <trkpt lat="10.1585435003242" lon="-75.6814934942608">
        <ele>52.421895</ele>
        <time>2019-09-10T15:25:51.500Z</time>
      </trkpt>
      <trkpt lat="10.1585426640823" lon="-75.6814892309158">
        <ele>52.421895</ele>
        <time>2019-09-10T15:25:51.600Z</time>
      </trkpt>
      <trkpt lat="10.1585418426463" lon="-75.6814849978065">
        <ele>52.421895</ele>
        <time>2019-09-10T15:25:51.700Z</time>
      </trkpt>
      <trkpt lat="10.1585410499263" lon="-75.681480803532">
        <ele>52.421895</ele>
        <time>2019-09-10T15:25:51.800Z</time>
      </trkpt>
      <trkpt lat="10.1585402358834" lon="-75.6814766571612">
        <ele>52.421895</ele>
        <time>2019-09-10T15:25:51.900Z</time>
      </trkpt>
      <trkpt lat="10.1585386356669" lon="-75.6814685260251">
        <ele>52.421895</ele>
        <time>2019-09-10T15:25:52.100Z</time>
      </trkpt>
      <trkpt lat="10.1585378579123" lon="-75.6814645381614">
        <ele>52.421895</ele>
        <time>2019-09-10T15:25:52.200Z</time>
      </trkpt>
      <trkpt lat="10.158537102666" lon="-75.6814606129798">
        <ele>52.421895</ele>
        <time>2019-09-10T15:25:52.300Z</time>
      </trkpt>
      <trkpt lat="10.1585363726639" lon="-75.6814567306888">
        <ele>52.421895</ele>
        <time>2019-09-10T15:25:52.400Z</time>
      </trkpt>
      <trkpt lat="10.1585356139816" lon="-75.6814528304686">
        <ele>52.421895</ele>
        <time>2019-09-10T15:25:52.500Z</time>
      </trkpt>
      <trkpt lat="10.1585348499922" lon="-75.6814489620335">
        <ele>52.421895</ele>
        <time>2019-09-10T15:25:52.600Z</time>
      </trkpt>
      <trkpt lat="10.1585340871965" lon="-75.6814451817468">
        <ele>52.421895</ele>
        <time>2019-09-10T15:25:52.700Z</time>
      </trkpt>
      <trkpt lat="10.1585333419423" lon="-75.6814414708091">
        <ele>52.421895</ele>
        <time>2019-09-10T15:25:52.800Z</time>
      </trkpt>
      <trkpt lat="10.1585325951412" lon="-75.6814377570862">
        <ele>52.421895</ele>
        <time>2019-09-10T15:25:52.900Z</time>
      </trkpt>
      <trkpt lat="10.1585318662871" lon="-75.6814340713711">
        <ele>52.421895</ele>
        <time>2019-09-10T15:25:53.000Z</time>
      </trkpt>
      <trkpt lat="10.1585311564288" lon="-75.6814303825314">
        <ele>52.421895</ele>
        <time>2019-09-10T15:25:53.100Z</time>
      </trkpt>
      <trkpt lat="10.1585304706878" lon="-75.6814267462518">
        <ele>52.421895</ele>
        <time>2019-09-10T15:25:53.200Z</time>
      </trkpt>
      <trkpt lat="10.158529817913" lon="-75.6814232306454">
        <ele>52.421895</ele>
        <time>2019-09-10T15:25:53.300Z</time>
      </trkpt>
      <trkpt lat="10.15852918487" lon="-75.6814197914291">
        <ele>52.421895</ele>
        <time>2019-09-10T15:25:53.400Z</time>
      </trkpt>
      <trkpt lat="10.1585285987149" lon="-75.6814164815372">
        <ele>52.421895</ele>
        <time>2019-09-10T15:25:53.500Z</time>
      </trkpt>
      <trkpt lat="10.1585280274665" lon="-75.6814132200277">
        <ele>52.421895</ele>
        <time>2019-09-10T15:25:53.600Z</time>
      </trkpt>
      <trkpt lat="10.1585274573075" lon="-75.681409971434">
        <ele>52.421895</ele>
        <time>2019-09-10T15:25:53.700Z</time>
      </trkpt>
      <trkpt lat="10.1585268778909" lon="-75.6814067234062">
        <ele>52.421895</ele>
        <time>2019-09-10T15:25:53.800Z</time>
      </trkpt>
      <trkpt lat="10.1585262860834" lon="-75.6814035840581">
        <ele>52.421895</ele>
        <time>2019-09-10T15:25:53.900Z</time>
      </trkpt>
      <trkpt lat="10.1585256987134" lon="-75.6814005100468">
        <ele>52.421895</ele>
        <time>2019-09-10T15:25:54.000Z</time>
      </trkpt>
      <trkpt lat="10.1585251307121" lon="-75.68139748474">
        <ele>52.421895</ele>
        <time>2019-09-10T15:25:54.100Z</time>
      </trkpt>
      <trkpt lat="10.158524571568" lon="-75.6813944829933">
        <ele>52.421895</ele>
        <time>2019-09-10T15:25:54.200Z</time>
      </trkpt>
      <trkpt lat="10.158524006918" lon="-75.6813915047982">
        <ele>52.421895</ele>
        <time>2019-09-10T15:25:54.300Z</time>
      </trkpt>
      <trkpt lat="10.1585234490799" lon="-75.6813885562644">
        <ele>52.421895</ele>
        <time>2019-09-10T15:25:54.400Z</time>
      </trkpt>
      <trkpt lat="10.1585228871397" lon="-75.6813856504209">
        <ele>52.421895</ele>
        <time>2019-09-10T15:25:54.500Z</time>
      </trkpt>
      <trkpt lat="10.1585223359814" lon="-75.681382792899">
        <ele>52.421895</ele>
        <time>2019-09-10T15:25:54.600Z</time>
      </trkpt>
      <trkpt lat="10.1585217678678" lon="-75.6813799564132">
        <ele>52.421895</ele>
        <time>2019-09-10T15:25:54.700Z</time>
      </trkpt>
      <trkpt lat="10.1585212092285" lon="-75.6813771550807">
        <ele>52.421895</ele>
        <time>2019-09-10T15:25:54.800Z</time>
      </trkpt>
      <trkpt lat="10.1585206749303" lon="-75.6813743876132">
        <ele>52.421895</ele>
        <time>2019-09-10T15:25:54.900Z</time>
      </trkpt>
      <trkpt lat="10.1585201666815" lon="-75.6813716682061">
        <ele>52.421895</ele>
        <time>2019-09-10T15:25:55.000Z</time>
      </trkpt>
      <trkpt lat="10.1585196586339" lon="-75.6813689999927">
        <ele>52.421895</ele>
        <time>2019-09-10T15:25:55.100Z</time>
      </trkpt>
      <trkpt lat="10.1585191649841" lon="-75.6813663828075">
        <ele>52.421895</ele>
        <time>2019-09-10T15:25:55.200Z</time>
      </trkpt>
      <trkpt lat="10.1585186967478" lon="-75.6813638054841">
        <ele>52.421895</ele>
        <time>2019-09-10T15:25:55.300Z</time>
      </trkpt>
      <trkpt lat="10.1585182478143" lon="-75.6813612647673">
        <ele>52.421895</ele>
        <time>2019-09-10T15:25:55.400Z</time>
      </trkpt>
      <trkpt lat="10.158517364346" lon="-75.68135625824">
        <ele>52.421895</ele>
        <time>2019-09-10T15:25:55.600Z</time>
      </trkpt>
      <trkpt lat="10.1585169402454" lon="-75.6813538171123">
        <ele>52.421895</ele>
        <time>2019-09-10T15:25:55.700Z</time>
      </trkpt>
      <trkpt lat="10.1585165329301" lon="-75.6813514344892">
        <ele>52.421895</ele>
        <time>2019-09-10T15:25:55.800Z</time>
      </trkpt>
      <trkpt lat="10.1585161237631" lon="-75.6813491545449">
        <ele>52.421895</ele>
        <time>2019-09-10T15:25:55.900Z</time>
      </trkpt>
      <trkpt lat="10.1585157228948" lon="-75.6813469444239">
        <ele>52.421895</ele>
        <time>2019-09-10T15:25:56.000Z</time>
      </trkpt>
      <trkpt lat="10.1585153546849" lon="-75.6813448063413">
        <ele>52.421895</ele>
        <time>2019-09-10T15:25:56.100Z</time>
      </trkpt>
      <trkpt lat="10.1585150020502" lon="-75.6813427063494">
        <ele>52.421895</ele>
        <time>2019-09-10T15:25:56.200Z</time>
      </trkpt>
      <trkpt lat="10.1585146577955" lon="-75.6813406653536">
        <ele>52.421895</ele>
        <time>2019-09-10T15:25:56.300Z</time>
      </trkpt>
      <trkpt lat="10.1585143147027" lon="-75.6813386519739">
        <ele>52.421895</ele>
        <time>2019-09-10T15:25:56.400Z</time>
      </trkpt>
      <trkpt lat="10.1585139850006" lon="-75.6813366901012">
        <ele>52.421895</ele>
        <time>2019-09-10T15:25:56.500Z</time>
      </trkpt>
      <trkpt lat="10.1585136558518" lon="-75.6813347633033">
        <ele>52.421895</ele>
        <time>2019-09-10T15:25:56.600Z</time>
      </trkpt>
      <trkpt lat="10.1585133272912" lon="-75.6813328963024">
        <ele>52.421895</ele>
        <time>2019-09-10T15:25:56.700Z</time>
      </trkpt>
      <trkpt lat="10.1585129988813" lon="-75.6813310714957">
        <ele>52.421895</ele>
        <time>2019-09-10T15:25:56.800Z</time>
      </trkpt>
      <trkpt lat="10.1585126477664" lon="-75.6813293096585">
        <ele>52.421895</ele>
        <time>2019-09-10T15:25:56.900Z</time>
      </trkpt>
      <trkpt lat="10.158512298299" lon="-75.6813275939451">
        <ele>52.421895</ele>
        <time>2019-09-10T15:25:57.000Z</time>
      </trkpt>
      <trkpt lat="10.158511971781" lon="-75.6813259435771">
        <ele>52.421895</ele>
        <time>2019-09-10T15:25:57.100Z</time>
      </trkpt>
      <trkpt lat="10.1585116675314" lon="-75.6813243382843">
        <ele>52.421895</ele>
        <time>2019-09-10T15:25:57.200Z</time>
      </trkpt>
      <trkpt lat="10.1585113567205" lon="-75.68132279011">
        <ele>52.421895</ele>
        <time>2019-09-10T15:25:57.300Z</time>
      </trkpt>
      <trkpt lat="10.1585110486718" lon="-75.6813212886361">
        <ele>52.421895</ele>
        <time>2019-09-10T15:25:57.400Z</time>
      </trkpt>
      <trkpt lat="10.1585107563083" lon="-75.6813198515786">
        <ele>52.421895</ele>
        <time>2019-09-10T15:25:57.500Z</time>
      </trkpt>
      <trkpt lat="10.1585104866427" lon="-75.6813184627685">
        <ele>52.421895</ele>
        <time>2019-09-10T15:25:57.600Z</time>
      </trkpt>
      <trkpt lat="10.1585102296905" lon="-75.681317123368">
        <ele>52.421895</ele>
        <time>2019-09-10T15:25:57.700Z</time>
      </trkpt>
      <trkpt lat="10.1585099883343" lon="-75.6813158332745">
        <ele>52.421895</ele>
        <time>2019-09-10T15:25:57.800Z</time>
      </trkpt>
      <trkpt lat="10.1585095156027" lon="-75.6813134516327">
        <ele>52.421895</ele>
        <time>2019-09-10T15:25:58.000Z</time>
      </trkpt>
      <trkpt lat="10.1585092934938" lon="-75.6813123175963">
        <ele>52.421895</ele>
        <time>2019-09-10T15:25:58.100Z</time>
      </trkpt>
      <trkpt lat="10.1585090883884" lon="-75.6813112155255">
        <ele>52.421895</ele>
        <time>2019-09-10T15:25:58.200Z</time>
      </trkpt>
      <trkpt lat="10.1585088889298" lon="-75.6813101525309">
        <ele>52.421895</ele>
        <time>2019-09-10T15:25:58.300Z</time>
      </trkpt>
      <trkpt lat="10.158508694927" lon="-75.6813091468789">
        <ele>52.421895</ele>
        <time>2019-09-10T15:25:58.400Z</time>
      </trkpt>
      <trkpt lat="10.1585085009732" lon="-75.6813082231154">
        <ele>52.421895</ele>
        <time>2019-09-10T15:25:58.500Z</time>
      </trkpt>
      <trkpt lat="10.1585083154918" lon="-75.6813073571928">
        <ele>52.421895</ele>
        <time>2019-09-10T15:25:58.600Z</time>
      </trkpt>
      <trkpt lat="10.1585081373424" lon="-75.6813065528014">
        <ele>52.421895</ele>
        <time>2019-09-10T15:25:58.700Z</time>
      </trkpt>
      <trkpt lat="10.158507974385" lon="-75.6813057888113">
        <ele>52.421895</ele>
        <time>2019-09-10T15:25:58.800Z</time>
      </trkpt>
      <trkpt lat="10.1585078376482" lon="-75.6813050712703">
        <ele>52.421895</ele>
        <time>2019-09-10T15:25:58.900Z</time>
      </trkpt>
      <trkpt lat="10.1585077202745" lon="-75.6813043850705">
        <ele>52.421895</ele>
        <time>2019-09-10T15:25:59.000Z</time>
      </trkpt>
      <trkpt lat="10.1585076272876" lon="-75.6813037753685">
        <ele>52.421895</ele>
        <time>2019-09-10T15:25:59.100Z</time>
      </trkpt>
      <trkpt lat="10.158507553703" lon="-75.6813032072602">
        <ele>52.421895</ele>
        <time>2019-09-10T15:25:59.200Z</time>
      </trkpt>
      <trkpt lat="10.1585075019509" lon="-75.6813026636368">
        <ele>52.521895</ele>
        <time>2019-09-10T15:25:59.300Z</time>
      </trkpt>
      <trkpt lat="10.1585074518874" lon="-75.6813021526067">
        <ele>52.621895</ele>
        <time>2019-09-10T15:25:59.400Z</time>
      </trkpt>
      <trkpt lat="10.1585073931323" lon="-75.6813016638934">
        <ele>52.621895</ele>
        <time>2019-09-10T15:25:59.500Z</time>
      </trkpt>
      <trkpt lat="10.1585073315761" lon="-75.6813012250518">
        <ele>52.721895</ele>
        <time>2019-09-10T15:25:59.600Z</time>
      </trkpt>
      <trkpt lat="10.1585072821678" lon="-75.6813008870777">
        <ele>52.721895</ele>
        <time>2019-09-10T15:25:59.700Z</time>
      </trkpt>
      <trkpt lat="10.1585072013575" lon="-75.6813003763033">
        <ele>52.721895</ele>
        <time>2019-09-10T15:25:59.900Z</time>
      </trkpt>
      <trkpt lat="10.1585071609033" lon="-75.6813001453597">
        <ele>52.721895</ele>
        <time>2019-09-10T15:26:00.000Z</time>
      </trkpt>
      <trkpt lat="10.1585071160148" lon="-75.6812999230162">
        <ele>52.721895</ele>
        <time>2019-09-10T15:26:00.100Z</time>
      </trkpt>
      <trkpt lat="10.158507060992" lon="-75.6812997184952">
        <ele>52.721895</ele>
        <time>2019-09-10T15:26:00.200Z</time>
      </trkpt>
      <trkpt lat="10.1585070019035" lon="-75.6812995180049">
        <ele>52.721895</ele>
        <time>2019-09-10T15:26:00.300Z</time>
      </trkpt>
      <trkpt lat="10.158506940994" lon="-75.6812993362597">
        <ele>52.721895</ele>
        <time>2019-09-10T15:26:00.400Z</time>
      </trkpt>
      <trkpt lat="10.1585068794294" lon="-75.6812991536996">
        <ele>52.721895</ele>
        <time>2019-09-10T15:26:00.500Z</time>
      </trkpt>
      <trkpt lat="10.1585068243345" lon="-75.6812989797211">
        <ele>52.721895</ele>
        <time>2019-09-10T15:26:00.600Z</time>
      </trkpt>
      <trkpt lat="10.1585067789476" lon="-75.6812987971904">
        <ele>52.721895</ele>
        <time>2019-09-10T15:26:00.700Z</time>
      </trkpt>
      <trkpt lat="10.1585067362783" lon="-75.6812986204714">
        <ele>52.721895</ele>
        <time>2019-09-10T15:26:00.800Z</time>
      </trkpt>
      <trkpt lat="10.1585067217107" lon="-75.6812984244612">
        <ele>52.621895</ele>
        <time>2019-09-10T15:26:00.900Z</time>
      </trkpt>
      <trkpt lat="10.1585067000717" lon="-75.681298245661">
        <ele>52.621895</ele>
        <time>2019-09-10T15:26:01.000Z</time>
      </trkpt>
      <trkpt lat="10.1585066751533" lon="-75.6812980778881">
        <ele>52.621895</ele>
        <time>2019-09-10T15:26:01.100Z</time>
      </trkpt>
      <trkpt lat="10.1585066434852" lon="-75.6812979228973">
        <ele>52.621895</ele>
        <time>2019-09-10T15:26:01.200Z</time>
      </trkpt>
      <trkpt lat="10.1585066432563" lon="-75.6812977476274">
        <ele>52.621895</ele>
        <time>2019-09-10T15:26:01.300Z</time>
      </trkpt>
      <trkpt lat="10.1585066531997" lon="-75.6812975674151">
        <ele>52.621895</ele>
        <time>2019-09-10T15:26:01.400Z</time>
      </trkpt>
      <trkpt lat="10.1585067072668" lon="-75.6812973814389">
        <ele>52.621895</ele>
        <time>2019-09-10T15:26:01.500Z</time>
      </trkpt>
      <trkpt lat="10.1585067535705" lon="-75.6812972018662">
        <ele>52.621895</ele>
        <time>2019-09-10T15:26:01.600Z</time>
      </trkpt>
      <trkpt lat="10.1585068042307" lon="-75.6812970239125">
        <ele>52.621895</ele>
        <time>2019-09-10T15:26:01.700Z</time>
      </trkpt>
      <trkpt lat="10.1585068361688" lon="-75.6812968517965">
        <ele>52.621895</ele>
        <time>2019-09-10T15:26:01.800Z</time>
      </trkpt>
      <trkpt lat="10.1585069021372" lon="-75.6812966879292">
        <ele>52.721895</ele>
        <time>2019-09-10T15:26:01.900Z</time>
      </trkpt>
      <trkpt lat="10.1585069564519" lon="-75.6812965307963">
        <ele>52.721895</ele>
        <time>2019-09-10T15:26:02.000Z</time>
      </trkpt>
      <trkpt lat="10.1585070214894" lon="-75.6812963862528">
        <ele>52.721895</ele>
        <time>2019-09-10T15:26:02.100Z</time>
      </trkpt>
      <trkpt lat="10.1585070610801" lon="-75.6812962449263">
        <ele>52.721895</ele>
        <time>2019-09-10T15:26:02.200Z</time>
      </trkpt>
      <trkpt lat="10.1585070852511" lon="-75.6812961426272">
        <ele>52.721895</ele>
        <time>2019-09-10T15:26:02.300Z</time>
      </trkpt>
      <trkpt lat="10.1585070821879" lon="-75.6812960458634">
        <ele>52.721895</ele>
        <time>2019-09-10T15:26:02.400Z</time>
      </trkpt>
      <trkpt lat="10.1585071024883" lon="-75.6812959532104">
        <ele>52.721895</ele>
        <time>2019-09-10T15:26:02.500Z</time>
      </trkpt>
      <trkpt lat="10.1585071296055" lon="-75.6812958432235">
        <ele>52.621895</ele>
        <time>2019-09-10T15:26:02.600Z</time>
      </trkpt>
      <trkpt lat="10.1585071526282" lon="-75.6812957331015">
        <ele>52.621895</ele>
        <time>2019-09-10T15:26:02.700Z</time>
      </trkpt>
      <trkpt lat="10.1585071339273" lon="-75.6812956219407">
        <ele>52.621895</ele>
        <time>2019-09-10T15:26:02.800Z</time>
      </trkpt>
      <trkpt lat="10.1585071032751" lon="-75.6812955206103">
        <ele>52.621895</ele>
        <time>2019-09-10T15:26:02.900Z</time>
      </trkpt>
      <trkpt lat="10.1585070641498" lon="-75.6812954199148">
        <ele>52.621895</ele>
        <time>2019-09-10T15:26:03.000Z</time>
      </trkpt>
      <trkpt lat="10.15850703438" lon="-75.6812953451376">
        <ele>52.621895</ele>
        <time>2019-09-10T15:26:03.100Z</time>
      </trkpt>
      <trkpt lat="10.1585070274398" lon="-75.6812952617673">
        <ele>52.621895</ele>
        <time>2019-09-10T15:26:03.200Z</time>
      </trkpt>
      <trkpt lat="10.1585070572885" lon="-75.6812951831404">
        <ele>52.621895</ele>
        <time>2019-09-10T15:26:03.300Z</time>
      </trkpt>
      <trkpt lat="10.1585070767082" lon="-75.6812951048296">
        <ele>52.621895</ele>
        <time>2019-09-10T15:26:03.400Z</time>
      </trkpt>
      <trkpt lat="10.1585070977296" lon="-75.6812950466368">
        <ele>52.621895</ele>
        <time>2019-09-10T15:26:03.500Z</time>
      </trkpt>
      <trkpt lat="10.1585070845299" lon="-75.6812949930775">
        <ele>52.621895</ele>
        <time>2019-09-10T15:26:03.600Z</time>
      </trkpt>
      <trkpt lat="10.1585070562133" lon="-75.6812949403248">
        <ele>52.621895</ele>
        <time>2019-09-10T15:26:03.700Z</time>
      </trkpt>
      <trkpt lat="10.1585070060556" lon="-75.6812948822343">
        <ele>52.621895</ele>
        <time>2019-09-10T15:26:03.800Z</time>
      </trkpt>
      <trkpt lat="10.1585069506661" lon="-75.6812948287984">
        <ele>52.621895</ele>
        <time>2019-09-10T15:26:03.900Z</time>
      </trkpt>
      <trkpt lat="10.1585068883776" lon="-75.6812947699022">
        <ele>52.621895</ele>
        <time>2019-09-10T15:26:04.000Z</time>
      </trkpt>
      <trkpt lat="10.158506862518" lon="-75.6812946823043">
        <ele>52.621895</ele>
        <time>2019-09-10T15:26:04.100Z</time>
      </trkpt>
      <trkpt lat="10.1585068426656" lon="-75.6812945069768">
        <ele>52.621895</ele>
        <time>2019-09-10T15:26:04.300Z</time>
      </trkpt>
      <trkpt lat="10.1585068280276" lon="-75.6812944340855">
        <ele>52.621895</ele>
        <time>2019-09-10T15:26:04.400Z</time>
      </trkpt>
      <trkpt lat="10.1585068340738" lon="-75.6812943520876">
        <ele>52.621895</ele>
        <time>2019-09-10T15:26:04.500Z</time>
      </trkpt>
      <trkpt lat="10.158506825687" lon="-75.681294268329">
        <ele>52.621895</ele>
        <time>2019-09-10T15:26:04.600Z</time>
      </trkpt>
      <trkpt lat="10.1585068332941" lon="-75.6812941651339">
        <ele>52.621895</ele>
        <time>2019-09-10T15:26:04.700Z</time>
      </trkpt>
      <trkpt lat="10.1585068247974" lon="-75.681294055772">
        <ele>52.621895</ele>
        <time>2019-09-10T15:26:04.800Z</time>
      </trkpt>
      <trkpt lat="10.1585068339036" lon="-75.6812939275409">
        <ele>52.621895</ele>
        <time>2019-09-10T15:26:04.900Z</time>
      </trkpt>
      <trkpt lat="10.1585068296862" lon="-75.6812937969491">
        <ele>52.621895</ele>
        <time>2019-09-10T15:26:05.000Z</time>
      </trkpt>
      <trkpt lat="10.1585068142665" lon="-75.681293669614">
        <ele>52.621895</ele>
        <time>2019-09-10T15:26:05.100Z</time>
      </trkpt>
      <trkpt lat="10.1585067872708" lon="-75.6812935715898">
        <ele>52.621895</ele>
        <time>2019-09-10T15:26:05.200Z</time>
      </trkpt>
      <trkpt lat="10.1585067875848" lon="-75.6812935022267">
        <ele>52.621895</ele>
        <time>2019-09-10T15:26:05.300Z</time>
      </trkpt>
      <trkpt lat="10.1585068370752" lon="-75.6812934663294">
        <ele>52.621895</ele>
        <time>2019-09-10T15:26:05.500Z</time>
      </trkpt>
      <trkpt lat="10.1585068570475" lon="-75.681293500381">
        <ele>52.621895</ele>
        <time>2019-09-10T15:26:05.600Z</time>
      </trkpt>
      <trkpt lat="10.1585068952258" lon="-75.6812935247017">
        <ele>52.621895</ele>
        <time>2019-09-10T15:26:05.700Z</time>
      </trkpt>
      <trkpt lat="10.1585068991809" lon="-75.6812935278279">
        <ele>52.621895</ele>
        <time>2019-09-10T15:26:05.800Z</time>
      </trkpt>
      <trkpt lat="10.1585068400633" lon="-75.681293518191">
        <ele>52.621895</ele>
        <time>2019-09-10T15:26:05.900Z</time>
      </trkpt>
      <trkpt lat="10.1585066745856" lon="-75.681293486028">
        <ele>52.521895</ele>
        <time>2019-09-10T15:26:06.100Z</time>
      </trkpt>
      <trkpt lat="10.1585066338431" lon="-75.6812934827544">
        <ele>52.421895</ele>
        <time>2019-09-10T15:26:06.200Z</time>
      </trkpt>
      <trkpt lat="10.1585066039111" lon="-75.6812934362399">
        <ele>52.321895</ele>
        <time>2019-09-10T15:26:06.300Z</time>
      </trkpt>
      <trkpt lat="10.1585065839105" lon="-75.6812933705257">
        <ele>52.321895</ele>
        <time>2019-09-10T15:26:06.400Z</time>
      </trkpt>
      <trkpt lat="10.1585066222137" lon="-75.6812933574743">
        <ele>52.221895</ele>
        <time>2019-09-10T15:26:06.500Z</time>
      </trkpt>
      <trkpt lat="10.1585066795254" lon="-75.6812933713759">
        <ele>52.121895</ele>
        <time>2019-09-10T15:26:06.600Z</time>
      </trkpt>
      <trkpt lat="10.1585067299181" lon="-75.6812933691196">
        <ele>52.021895</ele>
        <time>2019-09-10T15:26:06.700Z</time>
      </trkpt>
      <trkpt lat="10.158506695203" lon="-75.6812933328768">
        <ele>51.821895</ele>
        <time>2019-09-10T15:26:06.800Z</time>
      </trkpt>
      <trkpt lat="10.1585065869146" lon="-75.6812931975171">
        <ele>51.721895</ele>
        <time>2019-09-10T15:26:06.900Z</time>
      </trkpt>
      <trkpt lat="10.1585064786897" lon="-75.6812930266805">
        <ele>51.621895</ele>
        <time>2019-09-10T15:26:07.000Z</time>
      </trkpt>
      <trkpt lat="10.1585064181934" lon="-75.6812928250588">
        <ele>51.421895</ele>
        <time>2019-09-10T15:26:07.100Z</time>
      </trkpt>
      <trkpt lat="10.1585064052014" lon="-75.6812926632227">
        <ele>51.321895</ele>
        <time>2019-09-10T15:26:07.200Z</time>
      </trkpt>
      <trkpt lat="10.1585064527449" lon="-75.6812925194006">
        <ele>51.121895</ele>
        <time>2019-09-10T15:26:07.300Z</time>
      </trkpt>
      <trkpt lat="10.1585065517693" lon="-75.6812924129075">
        <ele>51.021895</ele>
        <time>2019-09-10T15:26:07.400Z</time>
      </trkpt>
      <trkpt lat="10.1585066283761" lon="-75.6812923661287">
        <ele>50.821895</ele>
        <time>2019-09-10T15:26:07.500Z</time>
      </trkpt>
      <trkpt lat="10.1585066076006" lon="-75.6812923629965">
        <ele>50.721895</ele>
        <time>2019-09-10T15:26:07.600Z</time>
      </trkpt>
      <trkpt lat="10.1585064241047" lon="-75.6812923255799">
        <ele>50.521895</ele>
        <time>2019-09-10T15:26:07.700Z</time>
      </trkpt>
      <trkpt lat="10.1585062084814" lon="-75.6812922996866">
        <ele>50.221895</ele>
        <time>2019-09-10T15:26:07.800Z</time>
      </trkpt>
      <trkpt lat="10.1585059766286" lon="-75.6812922866875">
        <ele>50.021895</ele>
        <time>2019-09-10T15:26:07.900Z</time>
      </trkpt>
      <trkpt lat="10.1585057833662" lon="-75.6812922897848">
        <ele>49.721895</ele>
        <time>2019-09-10T15:26:08.000Z</time>
      </trkpt>
      <trkpt lat="10.1585055741226" lon="-75.6812922434548">
        <ele>49.221895</ele>
        <time>2019-09-10T15:26:08.200Z</time>
      </trkpt>
      <trkpt lat="10.1585055804874" lon="-75.6812921335358">
        <ele>48.921895</ele>
        <time>2019-09-10T15:26:08.300Z</time>
      </trkpt>
      <trkpt lat="10.1585056103911" lon="-75.6812920635949">
        <ele>48.721895</ele>
        <time>2019-09-10T15:26:08.400Z</time>
      </trkpt>
      <trkpt lat="10.1585056070416" lon="-75.6812920758744">
        <ele>48.421895</ele>
        <time>2019-09-10T15:26:08.500Z</time>
      </trkpt>
      <trkpt lat="10.1585055338459" lon="-75.6812921415875">
        <ele>48.121895</ele>
        <time>2019-09-10T15:26:08.600Z</time>
      </trkpt>
      <trkpt lat="10.1585054746122" lon="-75.6812922767014">
        <ele>47.521895</ele>
        <time>2019-09-10T15:26:08.800Z</time>
      </trkpt>
      <trkpt lat="10.1585055318779" lon="-75.6812923373616">
        <ele>47.121895</ele>
        <time>2019-09-10T15:26:08.900Z</time>
      </trkpt>
      <trkpt lat="10.1585056152373" lon="-75.6812924092934">
        <ele>46.821895</ele>
        <time>2019-09-10T15:26:09.000Z</time>
      </trkpt>
      <trkpt lat="10.158505737004" lon="-75.6812924536265">
        <ele>46.621895</ele>
        <time>2019-09-10T15:26:09.100Z</time>
      </trkpt>
      <trkpt lat="10.1585059013787" lon="-75.6812924485943">
        <ele>46.321895</ele>
        <time>2019-09-10T15:26:09.200Z</time>
      </trkpt>
      <trkpt lat="10.1585060558826" lon="-75.6812923703591">
        <ele>46.021895</ele>
        <time>2019-09-10T15:26:09.300Z</time>
      </trkpt>
      <trkpt lat="10.1585060968246" lon="-75.6812923490634">
        <ele>45.821895</ele>
        <time>2019-09-10T15:26:09.400Z</time>
      </trkpt>
      <trkpt lat="10.1585060052503" lon="-75.6812923387846">
        <ele>45.521895</ele>
        <time>2019-09-10T15:26:09.500Z</time>
      </trkpt>
      <trkpt lat="10.1585058992641" lon="-75.6812923202354">
        <ele>45.221895</ele>
        <time>2019-09-10T15:26:09.600Z</time>
      </trkpt>
      <trkpt lat="10.1585057859958" lon="-75.6812923038425">
        <ele>44.921895</ele>
        <time>2019-09-10T15:26:09.700Z</time>
      </trkpt>
      <trkpt lat="10.1585056763946" lon="-75.6812923278912">
        <ele>44.621895</ele>
        <time>2019-09-10T15:26:09.800Z</time>
      </trkpt>
      <trkpt lat="10.1585055758593" lon="-75.6812923454449">
        <ele>44.321895</ele>
        <time>2019-09-10T15:26:09.900Z</time>
      </trkpt>
      <trkpt lat="10.1585055127294" lon="-75.6812924370171">
        <ele>43.721895</ele>
        <time>2019-09-10T15:26:10.100Z</time>
      </trkpt>
      <trkpt lat="10.1585056218095" lon="-75.6812926107328">
        <ele>43.121895</ele>
        <time>2019-09-10T15:26:10.300Z</time>
      </trkpt>
      <trkpt lat="10.1585056698228" lon="-75.6812927409298">
        <ele>42.821895</ele>
        <time>2019-09-10T15:26:10.400Z</time>
      </trkpt>
      <trkpt lat="10.1585057059392" lon="-75.6812929126307">
        <ele>42.521895</ele>
        <time>2019-09-10T15:26:10.500Z</time>
      </trkpt>
      <trkpt lat="10.1585057385769" lon="-75.6812931168504">
        <ele>42.121895</ele>
        <time>2019-09-10T15:26:10.600Z</time>
      </trkpt>
      <trkpt lat="10.1585057762383" lon="-75.6812933067757">
        <ele>41.821895</ele>
        <time>2019-09-10T15:26:10.700Z</time>
      </trkpt>
      <trkpt lat="10.1585058097249" lon="-75.6812934935689">
        <ele>41.521895</ele>
        <time>2019-09-10T15:26:10.800Z</time>
      </trkpt>
      <trkpt lat="10.1585058693436" lon="-75.6812936567068">
        <ele>41.221895</ele>
        <time>2019-09-10T15:26:10.900Z</time>
      </trkpt>
      <trkpt lat="10.1585059974" lon="-75.6812939174939">
        <ele>40.621895</ele>
        <time>2019-09-10T15:26:11.100Z</time>
      </trkpt>
      <trkpt lat="10.1585060522263" lon="-75.6812939922994">
        <ele>40.321895</ele>
        <time>2019-09-10T15:26:11.200Z</time>
      </trkpt>
      <trkpt lat="10.1585060921035" lon="-75.6812940159102">
        <ele>40.021895</ele>
        <time>2019-09-10T15:26:11.300Z</time>
      </trkpt>
      <trkpt lat="10.1585061053726" lon="-75.6812940203125">
        <ele>39.721895</ele>
        <time>2019-09-10T15:26:11.400Z</time>
      </trkpt>
      <trkpt lat="10.1585061403289" lon="-75.6812939495525">
        <ele>39.421895</ele>
        <time>2019-09-10T15:26:11.500Z</time>
      </trkpt>
      <trkpt lat="10.1585063535992" lon="-75.681293720219">
        <ele>38.921895</ele>
        <time>2019-09-10T15:26:11.700Z</time>
      </trkpt>
      <trkpt lat="10.1585064621707" lon="-75.6812935927571">
        <ele>38.621895</ele>
        <time>2019-09-10T15:26:11.800Z</time>
      </trkpt>
      <trkpt lat="10.1585066100239" lon="-75.6812934273793">
        <ele>38.321895</ele>
        <time>2019-09-10T15:26:11.900Z</time>
      </trkpt>
      <trkpt lat="10.158506746574" lon="-75.6812932575398">
        <ele>38.021895</ele>
        <time>2019-09-10T15:26:12.000Z</time>
      </trkpt>
      <trkpt lat="10.1585070536033" lon="-75.6812929453197">
        <ele>37.521895</ele>
        <time>2019-09-10T15:26:12.200Z</time>
      </trkpt>
      <trkpt lat="10.1585071790355" lon="-75.6812928183583">
        <ele>37.221895</ele>
        <time>2019-09-10T15:26:12.300Z</time>
      </trkpt>
      <trkpt lat="10.1585072532804" lon="-75.6812927115655">
        <ele>36.921895</ele>
        <time>2019-09-10T15:26:12.400Z</time>
      </trkpt>
      <trkpt lat="10.1585073081494" lon="-75.681292612931">
        <ele>36.621895</ele>
        <time>2019-09-10T15:26:12.500Z</time>
      </trkpt>
      <trkpt lat="10.1585073222828" lon="-75.6812925334545">
        <ele>36.421895</ele>
        <time>2019-09-10T15:26:12.600Z</time>
      </trkpt>
      <trkpt lat="10.1585073174144" lon="-75.6812924709986">
        <ele>36.121895</ele>
        <time>2019-09-10T15:26:12.700Z</time>
      </trkpt>
      <trkpt lat="10.1585072855957" lon="-75.6812924177281">
        <ele>35.921895</ele>
        <time>2019-09-10T15:26:12.800Z</time>
      </trkpt>
      <trkpt lat="10.1585072403067" lon="-75.6812923417906">
        <ele>35.621895</ele>
        <time>2019-09-10T15:26:12.900Z</time>
      </trkpt>
      <trkpt lat="10.1585071802626" lon="-75.68129232247">
        <ele>35.321895</ele>
        <time>2019-09-10T15:26:13.000Z</time>
      </trkpt>
      <trkpt lat="10.1585071344715" lon="-75.6812923938187">
        <ele>35.121895</ele>
        <time>2019-09-10T15:26:13.100Z</time>
      </trkpt>
      <trkpt lat="10.1585070838682" lon="-75.6812925668534">
        <ele>34.821895</ele>
        <time>2019-09-10T15:26:13.200Z</time>
      </trkpt>
      <trkpt lat="10.1585069822634" lon="-75.6812928565365">
        <ele>34.521895</ele>
        <time>2019-09-10T15:26:13.300Z</time>
      </trkpt>
      <trkpt lat="10.1585068341074" lon="-75.6812932712303">
        <ele>34.321895</ele>
        <time>2019-09-10T15:26:13.400Z</time>
      </trkpt>
      <trkpt lat="10.1585066278159" lon="-75.6812938489897">
        <ele>34.021895</ele>
        <time>2019-09-10T15:26:13.500Z</time>
      </trkpt>
      <trkpt lat="10.1585060283153" lon="-75.6812954611974">
        <ele>33.621895</ele>
        <time>2019-09-10T15:26:13.700Z</time>
      </trkpt>
      <trkpt lat="10.1585056211484" lon="-75.6812964845668">
        <ele>33.321895</ele>
        <time>2019-09-10T15:26:13.800Z</time>
      </trkpt>
      <trkpt lat="10.1585051210129" lon="-75.6812977093323">
        <ele>33.121895</ele>
        <time>2019-09-10T15:26:13.900Z</time>
      </trkpt>
      <trkpt lat="10.1585046065197" lon="-75.6812990808725">
        <ele>32.821895</ele>
        <time>2019-09-10T15:26:14.000Z</time>
      </trkpt>
      <trkpt lat="10.1585040746512" lon="-75.6813003996709">
        <ele>32.621895</ele>
        <time>2019-09-10T15:26:14.100Z</time>
      </trkpt>
      <trkpt lat="10.1585036007149" lon="-75.6813015850283">
        <ele>32.421895</ele>
        <time>2019-09-10T15:26:14.200Z</time>
      </trkpt>
      <trkpt lat="10.1585031298011" lon="-75.6813025575712">
        <ele>32.121895</ele>
        <time>2019-09-10T15:26:14.300Z</time>
      </trkpt>
      <trkpt lat="10.15850271719" lon="-75.6813033588708">
        <ele>31.921895</ele>
        <time>2019-09-10T15:26:14.400Z</time>
      </trkpt>
      <trkpt lat="10.158502373261" lon="-75.681303863048">
        <ele>31.721895</ele>
        <time>2019-09-10T15:26:14.500Z</time>
      </trkpt>
      <trkpt lat="10.1585021147952" lon="-75.681304208914">
        <ele>31.421895</ele>
        <time>2019-09-10T15:26:14.600Z</time>
      </trkpt>
      <trkpt lat="10.1585019461283" lon="-75.6813043173632">
        <ele>31.221895</ele>
        <time>2019-09-10T15:26:14.700Z</time>
      </trkpt>
      <trkpt lat="10.158501847493" lon="-75.6813043686613">
        <ele>31.021895</ele>
        <time>2019-09-10T15:26:14.800Z</time>
      </trkpt>
      <trkpt lat="10.1585018698793" lon="-75.6813042674327">
        <ele>30.721895</ele>
        <time>2019-09-10T15:26:14.900Z</time>
      </trkpt>
      <trkpt lat="10.1585019297115" lon="-75.6813041773357">
        <ele>30.521895</ele>
        <time>2019-09-10T15:26:15.000Z</time>
      </trkpt>
      <trkpt lat="10.1585020959215" lon="-75.6813040970911">
        <ele>30.321895</ele>
        <time>2019-09-10T15:26:15.100Z</time>
      </trkpt>
      <trkpt lat="10.1585022530415" lon="-75.6813040819471">
        <ele>30.021895</ele>
        <time>2019-09-10T15:26:15.200Z</time>
      </trkpt>
      <trkpt lat="10.1585024246315" lon="-75.6813041130739">
        <ele>29.821895</ele>
        <time>2019-09-10T15:26:15.300Z</time>
      </trkpt>
      <trkpt lat="10.1585025434949" lon="-75.6813041540693">
        <ele>29.621895</ele>
        <time>2019-09-10T15:26:15.400Z</time>
      </trkpt>
      <trkpt lat="10.1585026840357" lon="-75.6813042162923">
        <ele>29.421895</ele>
        <time>2019-09-10T15:26:15.500Z</time>
      </trkpt>
      <trkpt lat="10.1585027846052" lon="-75.6813042502727">
        <ele>29.221895</ele>
        <time>2019-09-10T15:26:15.600Z</time>
      </trkpt>
      <trkpt lat="10.1585028972601" lon="-75.681304317794">
        <ele>29.021895</ele>
        <time>2019-09-10T15:26:15.700Z</time>
      </trkpt>
      <trkpt lat="10.1585029858189" lon="-75.6813043528558">
        <ele>28.821895</ele>
        <time>2019-09-10T15:26:15.800Z</time>
      </trkpt>
      <trkpt lat="10.1585030706829" lon="-75.6813043832711">
        <ele>28.621895</ele>
        <time>2019-09-10T15:26:15.900Z</time>
      </trkpt>
      <trkpt lat="10.1585031319319" lon="-75.6813043685721">
        <ele>28.421895</ele>
        <time>2019-09-10T15:26:16.000Z</time>
      </trkpt>
      <trkpt lat="10.1585032415677" lon="-75.6813043562415">
        <ele>28.221895</ele>
        <time>2019-09-10T15:26:16.100Z</time>
      </trkpt>
      <trkpt lat="10.1585034701654" lon="-75.6813043133759">
        <ele>27.821895</ele>
        <time>2019-09-10T15:26:16.300Z</time>
      </trkpt>
      <trkpt lat="10.1585035478748" lon="-75.6813042947343">
        <ele>27.621895</ele>
        <time>2019-09-10T15:26:16.400Z</time>
      </trkpt>
      <trkpt lat="10.158503627298" lon="-75.6813043007516">
        <ele>27.521895</ele>
        <time>2019-09-10T15:26:16.500Z</time>
      </trkpt>
      <trkpt lat="10.1585037124868" lon="-75.681304317386">
        <ele>27.321895</ele>
        <time>2019-09-10T15:26:16.600Z</time>
      </trkpt>
      <trkpt lat="10.1585038171319" lon="-75.6813043364009">
        <ele>27.121895</ele>
        <time>2019-09-10T15:26:16.700Z</time>
      </trkpt>
      <trkpt lat="10.1585039297384" lon="-75.6813043296405">
        <ele>26.921895</ele>
        <time>2019-09-10T15:26:16.800Z</time>
      </trkpt>
      <trkpt lat="10.1585040531036" lon="-75.6813043127928">
        <ele>26.721895</ele>
        <time>2019-09-10T15:26:16.900Z</time>
      </trkpt>
      <trkpt lat="10.1585041471112" lon="-75.6813043062478">
        <ele>26.621895</ele>
        <time>2019-09-10T15:26:17.000Z</time>
      </trkpt>
      <trkpt lat="10.1585042214253" lon="-75.6813043301518">
        <ele>26.421895</ele>
        <time>2019-09-10T15:26:17.100Z</time>
      </trkpt>
      <trkpt lat="10.1585042923814" lon="-75.6813043834571">
        <ele>26.221895</ele>
        <time>2019-09-10T15:26:17.200Z</time>
      </trkpt>
      <trkpt lat="10.1585043227039" lon="-75.681304432823">
        <ele>26.121895</ele>
        <time>2019-09-10T15:26:17.300Z</time>
      </trkpt>
      <trkpt lat="10.1585042909018" lon="-75.6813044683972">
        <ele>25.921895</ele>
        <time>2019-09-10T15:26:17.400Z</time>
      </trkpt>
      <trkpt lat="10.1585042446188" lon="-75.6813045263643">
        <ele>25.721895</ele>
        <time>2019-09-10T15:26:17.500Z</time>
      </trkpt>
      <trkpt lat="10.1585041899865" lon="-75.6813045525454">
        <ele>25.521895</ele>
        <time>2019-09-10T15:26:17.600Z</time>
      </trkpt>
      <trkpt lat="10.1585041017672" lon="-75.6813045050344">
        <ele>25.421895</ele>
        <time>2019-09-10T15:26:17.700Z</time>
      </trkpt>
      <trkpt lat="10.1585040340492" lon="-75.6813044471706">
        <ele>25.221895</ele>
        <time>2019-09-10T15:26:17.800Z</time>
      </trkpt>
      <trkpt lat="10.1585039636141" lon="-75.6813043889131">
        <ele>25.021895</ele>
        <time>2019-09-10T15:26:17.900Z</time>
      </trkpt>
      <trkpt lat="10.1585038813276" lon="-75.6813043423301">
        <ele>24.921895</ele>
        <time>2019-09-10T15:26:18.000Z</time>
      </trkpt>
      <trkpt lat="10.1585037931689" lon="-75.681304292368">
        <ele>24.721895</ele>
        <time>2019-09-10T15:26:18.100Z</time>
      </trkpt>
      <trkpt lat="10.1585037486399" lon="-75.6813042578458">
        <ele>24.521895</ele>
        <time>2019-09-10T15:26:18.200Z</time>
      </trkpt>
      <trkpt lat="10.158503725928" lon="-75.6813042324938">
        <ele>24.321895</ele>
        <time>2019-09-10T15:26:18.300Z</time>
      </trkpt>
      <trkpt lat="10.1585037181616" lon="-75.6813042366518">
        <ele>24.221895</ele>
        <time>2019-09-10T15:26:18.400Z</time>
      </trkpt>
      <trkpt lat="10.1585037285539" lon="-75.6813042630374">
        <ele>24.021895</ele>
        <time>2019-09-10T15:26:18.500Z</time>
      </trkpt>
      <trkpt lat="10.1585037367083" lon="-75.6813043134989">
        <ele>23.921895</ele>
        <time>2019-09-10T15:26:18.600Z</time>
      </trkpt>
      <trkpt lat="10.1585037654854" lon="-75.681304382033">
        <ele>23.721895</ele>
        <time>2019-09-10T15:26:18.700Z</time>
      </trkpt>
      <trkpt lat="10.1585037909107" lon="-75.6813044482607">
        <ele>23.621895</ele>
        <time>2019-09-10T15:26:18.800Z</time>
      </trkpt>
      <trkpt lat="10.1585037964787" lon="-75.6813044984872">
        <ele>23.421895</ele>
        <time>2019-09-10T15:26:18.900Z</time>
      </trkpt>
      <trkpt lat="10.1585037469419" lon="-75.6813045358358">
        <ele>23.221895</ele>
        <time>2019-09-10T15:26:19.000Z</time>
      </trkpt>
      <trkpt lat="10.1585036212183" lon="-75.6813045752298">
        <ele>23.121895</ele>
        <time>2019-09-10T15:26:19.100Z</time>
      </trkpt>
      <trkpt lat="10.1585034554036" lon="-75.6813046073564">
        <ele>22.921895</ele>
        <time>2019-09-10T15:26:19.200Z</time>
      </trkpt>
      <trkpt lat="10.158503276631" lon="-75.6813045982591">
        <ele>22.821895</ele>
        <time>2019-09-10T15:26:19.300Z</time>
      </trkpt>
      <trkpt lat="10.1585031177201" lon="-75.6813045677568">
        <ele>22.621895</ele>
        <time>2019-09-10T15:26:19.400Z</time>
      </trkpt>
      <trkpt lat="10.1585030227993" lon="-75.681304503087">
        <ele>22.521895</ele>
        <time>2019-09-10T15:26:19.500Z</time>
      </trkpt>
      <trkpt lat="10.1585029594426" lon="-75.6813044254719">
        <ele>22.321895</ele>
        <time>2019-09-10T15:26:19.600Z</time>
      </trkpt>
      <trkpt lat="10.1585028055901" lon="-75.6813043010921">
        <ele>22.021895</ele>
        <time>2019-09-10T15:26:19.800Z</time>
      </trkpt>
      <trkpt lat="10.1585027172417" lon="-75.6813042826854">
        <ele>21.921895</ele>
        <time>2019-09-10T15:26:19.900Z</time>
      </trkpt>
      <trkpt lat="10.1585026603048" lon="-75.6813042969395">
        <ele>21.821895</ele>
        <time>2019-09-10T15:26:20.000Z</time>
      </trkpt>
      <trkpt lat="10.1585026100579" lon="-75.6813043374377">
        <ele>21.721895</ele>
        <time>2019-09-10T15:26:20.100Z</time>
      </trkpt>
      <trkpt lat="10.1585025297862" lon="-75.6813043811899">
        <ele>21.521895</ele>
        <time>2019-09-10T15:26:20.200Z</time>
      </trkpt>
      <trkpt lat="10.158502462032" lon="-75.6813044192087">
        <ele>21.421895</ele>
        <time>2019-09-10T15:26:20.300Z</time>
      </trkpt>
      <trkpt lat="10.1585024314518" lon="-75.6813044573036">
        <ele>21.321895</ele>
        <time>2019-09-10T15:26:20.400Z</time>
      </trkpt>
      <trkpt lat="10.1585024487101" lon="-75.6813044829951">
        <ele>21.121895</ele>
        <time>2019-09-10T15:26:20.500Z</time>
      </trkpt>
      <trkpt lat="10.158502531981" lon="-75.6813045226414">
        <ele>21.021895</ele>
        <time>2019-09-10T15:26:20.600Z</time>
      </trkpt>
      <trkpt lat="10.158502669751" lon="-75.6813046037303">
        <ele>20.821895</ele>
        <time>2019-09-10T15:26:20.700Z</time>
      </trkpt>
      <trkpt lat="10.1585027854967" lon="-75.6813047020324">
        <ele>20.721895</ele>
        <time>2019-09-10T15:26:20.800Z</time>
      </trkpt>
      <trkpt lat="10.1585028660237" lon="-75.6813048184626">
        <ele>20.521895</ele>
        <time>2019-09-10T15:26:20.900Z</time>
      </trkpt>
      <trkpt lat="10.1585029257408" lon="-75.6813049353672">
        <ele>20.421895</ele>
        <time>2019-09-10T15:26:21.000Z</time>
      </trkpt>
      <trkpt lat="10.1585029799708" lon="-75.6813050231588">
        <ele>20.321895</ele>
        <time>2019-09-10T15:26:21.100Z</time>
      </trkpt>
      <trkpt lat="10.1585030533574" lon="-75.6813050890852">
        <ele>20.221895</ele>
        <time>2019-09-10T15:26:21.200Z</time>
      </trkpt>
      <trkpt lat="10.1585030807365" lon="-75.681305111799">
        <ele>20.021895</ele>
        <time>2019-09-10T15:26:21.300Z</time>
      </trkpt>
      <trkpt lat="10.1585030660964" lon="-75.681305088786">
        <ele>19.921895</ele>
        <time>2019-09-10T15:26:21.400Z</time>
      </trkpt>
      <trkpt lat="10.1585030464374" lon="-75.681305051445">
        <ele>19.821895</ele>
        <time>2019-09-10T15:26:21.500Z</time>
      </trkpt>
      <trkpt lat="10.1585030603036" lon="-75.681305018583">
        <ele>19.621895</ele>
        <time>2019-09-10T15:26:21.600Z</time>
      </trkpt>
      <trkpt lat="10.1585030895476" lon="-75.6813050048588">
        <ele>19.521895</ele>
        <time>2019-09-10T15:26:21.700Z</time>
      </trkpt>
      <trkpt lat="10.1585031231298" lon="-75.6813050186015">
        <ele>19.321895</ele>
        <time>2019-09-10T15:26:21.800Z</time>
      </trkpt>
      <trkpt lat="10.1585031737255" lon="-75.6813050360867">
        <ele>19.221895</ele>
        <time>2019-09-10T15:26:21.900Z</time>
      </trkpt>
      <trkpt lat="10.1585032314241" lon="-75.6813050381461">
        <ele>19.121895</ele>
        <time>2019-09-10T15:26:22.000Z</time>
      </trkpt>
      <trkpt lat="10.1585032715071" lon="-75.6813050303239">
        <ele>18.921895</ele>
        <time>2019-09-10T15:26:22.100Z</time>
      </trkpt>
      <trkpt lat="10.1585032972442" lon="-75.6813050526254">
        <ele>18.821895</ele>
        <time>2019-09-10T15:26:22.200Z</time>
      </trkpt>
      <trkpt lat="10.1585032377274" lon="-75.6813050761193">
        <ele>18.721895</ele>
        <time>2019-09-10T15:26:22.300Z</time>
      </trkpt>
      <trkpt lat="10.1585031324359" lon="-75.6813050341589">
        <ele>18.521895</ele>
        <time>2019-09-10T15:26:22.400Z</time>
      </trkpt>
      <trkpt lat="10.1585030352553" lon="-75.6813049399975">
        <ele>18.421895</ele>
        <time>2019-09-10T15:26:22.500Z</time>
      </trkpt>
      <trkpt lat="10.1585029552469" lon="-75.6813048572821">
        <ele>18.321895</ele>
        <time>2019-09-10T15:26:22.600Z</time>
      </trkpt>
      <trkpt lat="10.1585029107709" lon="-75.6813048112856">
        <ele>18.121895</ele>
        <time>2019-09-10T15:26:22.700Z</time>
      </trkpt>
      <trkpt lat="10.1585029373731" lon="-75.6813047532032">
        <ele>17.921895</ele>
        <time>2019-09-10T15:26:22.900Z</time>
      </trkpt>
      <trkpt lat="10.1585029608801" lon="-75.6813047120816">
        <ele>17.821895</ele>
        <time>2019-09-10T15:26:23.000Z</time>
      </trkpt>
      <trkpt lat="10.1585030010347" lon="-75.6813046356034">
        <ele>17.621895</ele>
        <time>2019-09-10T15:26:23.100Z</time>
      </trkpt>
      <trkpt lat="10.1585030620835" lon="-75.6813045390518">
        <ele>17.521895</ele>
        <time>2019-09-10T15:26:23.200Z</time>
      </trkpt>
      <trkpt lat="10.1585031600177" lon="-75.6813043938762">
        <ele>17.421895</ele>
        <time>2019-09-10T15:26:23.300Z</time>
      </trkpt>
      <trkpt lat="10.158503242901" lon="-75.6813042472548">
        <ele>17.221895</ele>
        <time>2019-09-10T15:26:23.400Z</time>
      </trkpt>
      <trkpt lat="10.1585033444096" lon="-75.6813039842108">
        <ele>17.021895</ele>
        <time>2019-09-10T15:26:23.600Z</time>
      </trkpt>
      <trkpt lat="10.1585033665768" lon="-75.6813038994784">
        <ele>16.921895</ele>
        <time>2019-09-10T15:26:23.700Z</time>
      </trkpt>
      <trkpt lat="10.158503321657" lon="-75.6813037887087">
        <ele>16.721895</ele>
        <time>2019-09-10T15:26:23.900Z</time>
      </trkpt>
      <trkpt lat="10.1585032617018" lon="-75.6813037486957">
        <ele>16.521895</ele>
        <time>2019-09-10T15:26:24.000Z</time>
      </trkpt>
      <trkpt lat="10.1585032739969" lon="-75.681303720032">
        <ele>16.321895</ele>
        <time>2019-09-10T15:26:24.200Z</time>
      </trkpt>
      <trkpt lat="10.1585032735296" lon="-75.6813036967481">
        <ele>16.121895</ele>
        <time>2019-09-10T15:26:24.300Z</time>
      </trkpt>
      <trkpt lat="10.1585032764824" lon="-75.6813036525564">
        <ele>16.021895</ele>
        <time>2019-09-10T15:26:24.400Z</time>
      </trkpt>
      <trkpt lat="10.1585033858002" lon="-75.6813036507396">
        <ele>15.821895</ele>
        <time>2019-09-10T15:26:24.600Z</time>
      </trkpt>
      <trkpt lat="10.158503542761" lon="-75.6813036958604">
        <ele>15.621895</ele>
        <time>2019-09-10T15:26:24.800Z</time>
      </trkpt>
      <trkpt lat="10.1585035614336" lon="-75.6813037600852">
        <ele>15.421895</ele>
        <time>2019-09-10T15:26:24.900Z</time>
      </trkpt>
      <trkpt lat="10.1585035873401" lon="-75.6813038462145">
        <ele>15.321895</ele>
        <time>2019-09-10T15:26:25.000Z</time>
      </trkpt>
      <trkpt lat="10.1585036379501" lon="-75.6813039275546">
        <ele>15.221895</ele>
        <time>2019-09-10T15:26:25.100Z</time>
      </trkpt>
      <trkpt lat="10.1585036935773" lon="-75.6813039632931">
        <ele>15.121895</ele>
        <time>2019-09-10T15:26:25.200Z</time>
      </trkpt>
      <trkpt lat="10.1585037284301" lon="-75.681303930764">
        <ele>15.021895</ele>
        <time>2019-09-10T15:26:25.300Z</time>
      </trkpt>
      <trkpt lat="10.158503758457" lon="-75.681303889822">
        <ele>14.821895</ele>
        <time>2019-09-10T15:26:25.400Z</time>
      </trkpt>
      <trkpt lat="10.1585037154693" lon="-75.6813038568533">
        <ele>14.621895</ele>
        <time>2019-09-10T15:26:25.600Z</time>
      </trkpt>
      <trkpt lat="10.1585036218102" lon="-75.6813039102892">
        <ele>14.521895</ele>
        <time>2019-09-10T15:26:25.700Z</time>
      </trkpt>
      <trkpt lat="10.1585035367415" lon="-75.6813040078069">
        <ele>14.421895</ele>
        <time>2019-09-10T15:26:25.800Z</time>
      </trkpt>
      <trkpt lat="10.1585034431935" lon="-75.6813041278806">
        <ele>14.321895</ele>
        <time>2019-09-10T15:26:25.900Z</time>
      </trkpt>
      <trkpt lat="10.1585033809735" lon="-75.6813042514423">
        <ele>14.121895</ele>
        <time>2019-09-10T15:26:26.000Z</time>
      </trkpt>
      <trkpt lat="10.1585033582176" lon="-75.6813043556311">
        <ele>14.021895</ele>
        <time>2019-09-10T15:26:26.100Z</time>
      </trkpt>
      <trkpt lat="10.1585033543114" lon="-75.6813044373042">
        <ele>13.921895</ele>
        <time>2019-09-10T15:26:26.200Z</time>
      </trkpt>
      <trkpt lat="10.1585033393835" lon="-75.6813045071297">
        <ele>13.821895</ele>
        <time>2019-09-10T15:26:26.300Z</time>
      </trkpt>
      <trkpt lat="10.1585033418538" lon="-75.6813045880956">
        <ele>13.621895</ele>
        <time>2019-09-10T15:26:26.400Z</time>
      </trkpt>
      <trkpt lat="10.1585033725382" lon="-75.6813046624676">
        <ele>13.521895</ele>
        <time>2019-09-10T15:26:26.500Z</time>
      </trkpt>
      <trkpt lat="10.1585034087499" lon="-75.681304717815">
        <ele>13.421895</ele>
        <time>2019-09-10T15:26:26.600Z</time>
      </trkpt>
      <trkpt lat="10.1585034312065" lon="-75.681304758497">
        <ele>13.321895</ele>
        <time>2019-09-10T15:26:26.700Z</time>
      </trkpt>
      <trkpt lat="10.1585034341609" lon="-75.681304780965">
        <ele>13.221895</ele>
        <time>2019-09-10T15:26:26.800Z</time>
      </trkpt>
      <trkpt lat="10.1585033156094" lon="-75.6813048286261">
        <ele>13.021895</ele>
        <time>2019-09-10T15:26:27.000Z</time>
      </trkpt>
      <trkpt lat="10.1585032250769" lon="-75.68130487652">
        <ele>12.921895</ele>
        <time>2019-09-10T15:26:27.100Z</time>
      </trkpt>
      <trkpt lat="10.1585031311103" lon="-75.6813049266845">
        <ele>12.721895</ele>
        <time>2019-09-10T15:26:27.200Z</time>
      </trkpt>
      <trkpt lat="10.1585030545348" lon="-75.6813049834766">
        <ele>12.621895</ele>
        <time>2019-09-10T15:26:27.300Z</time>
      </trkpt>
      <trkpt lat="10.1585030081885" lon="-75.6813050301172">
        <ele>12.521895</ele>
        <time>2019-09-10T15:26:27.400Z</time>
      </trkpt>
      <trkpt lat="10.1585030628448" lon="-75.6813051101747">
        <ele>12.321895</ele>
        <time>2019-09-10T15:26:27.600Z</time>
      </trkpt>
      <trkpt lat="10.1585031493607" lon="-75.6813051267668">
        <ele>12.221895</ele>
        <time>2019-09-10T15:26:27.700Z</time>
      </trkpt>
      <trkpt lat="10.1585032346806" lon="-75.6813051269321">
        <ele>12.121895</ele>
        <time>2019-09-10T15:26:27.800Z</time>
      </trkpt>
      <trkpt lat="10.1585033064254" lon="-75.6813050824456">
        <ele>12.021895</ele>
        <time>2019-09-10T15:26:27.900Z</time>
      </trkpt>
      <trkpt lat="10.1585033753696" lon="-75.6813050133479">
        <ele>11.821895</ele>
        <time>2019-09-10T15:26:28.000Z</time>
      </trkpt>
      <trkpt lat="10.1585034619564" lon="-75.6813049492927">
        <ele>11.721895</ele>
        <time>2019-09-10T15:26:28.100Z</time>
      </trkpt>
      <trkpt lat="10.1585035810193" lon="-75.6813047792134">
        <ele>11.621895</ele>
        <time>2019-09-10T15:26:28.300Z</time>
      </trkpt>
      <trkpt lat="10.1585036011245" lon="-75.6813046682652">
        <ele>11.521895</ele>
        <time>2019-09-10T15:26:28.400Z</time>
      </trkpt>
      <trkpt lat="10.1585036814857" lon="-75.6813044679468">
        <ele>11.321895</ele>
        <time>2019-09-10T15:26:28.600Z</time>
      </trkpt>
      <trkpt lat="10.1585036879238" lon="-75.6813043595433">
        <ele>11.221895</ele>
        <time>2019-09-10T15:26:28.700Z</time>
      </trkpt>
      <trkpt lat="10.1585036734404" lon="-75.6813042518774">
        <ele>11.121895</ele>
        <time>2019-09-10T15:26:28.800Z</time>
      </trkpt>
      <trkpt lat="10.158503670221" lon="-75.6813041675487">
        <ele>11.021895</ele>
        <time>2019-09-10T15:26:28.900Z</time>
      </trkpt>
      <trkpt lat="10.1585036218965" lon="-75.6813040279782">
        <ele>10.821895</ele>
        <time>2019-09-10T15:26:29.100Z</time>
      </trkpt>
      <trkpt lat="10.1585035623195" lon="-75.6813039806728">
        <ele>10.721895</ele>
        <time>2019-09-10T15:26:29.200Z</time>
      </trkpt>
      <trkpt lat="10.1585034889886" lon="-75.6813039292344">
        <ele>10.621895</ele>
        <time>2019-09-10T15:26:29.300Z</time>
      </trkpt>
      <trkpt lat="10.158503415766" lon="-75.6813038892356">
        <ele>10.521895</ele>
        <time>2019-09-10T15:26:29.400Z</time>
      </trkpt>
      <trkpt lat="10.1585033315046" lon="-75.6813038700934">
        <ele>10.421895</ele>
        <time>2019-09-10T15:26:29.500Z</time>
      </trkpt>
      <trkpt lat="10.158503234964" lon="-75.6813038618176">
        <ele>10.321895</ele>
        <time>2019-09-10T15:26:29.600Z</time>
      </trkpt>
      <trkpt lat="10.1585031289661" lon="-75.6813038757061">
        <ele>10.221895</ele>
        <time>2019-09-10T15:26:29.700Z</time>
      </trkpt>
      <trkpt lat="10.1585029238314" lon="-75.6813040152374">
        <ele>10.021895</ele>
        <time>2019-09-10T15:26:29.900Z</time>
      </trkpt>
      <trkpt lat="10.1585028257641" lon="-75.6813041138648">
        <ele>9.921895</ele>
        <time>2019-09-10T15:26:30.000Z</time>
      </trkpt>
      <trkpt lat="10.1585027361015" lon="-75.6813041976746">
        <ele>9.821895</ele>
        <time>2019-09-10T15:26:30.100Z</time>
      </trkpt>
      <trkpt lat="10.1585026692421" lon="-75.6813042746957">
        <ele>9.821895</ele>
        <time>2019-09-10T15:26:30.200Z</time>
      </trkpt>
      <trkpt lat="10.1585025545801" lon="-75.6813044393593">
        <ele>9.621895</ele>
        <time>2019-09-10T15:26:30.400Z</time>
      </trkpt>
      <trkpt lat="10.1585024507749" lon="-75.6813045230102">
        <ele>9.421895</ele>
        <time>2019-09-10T15:26:30.600Z</time>
      </trkpt>
      <trkpt lat="10.1585024324863" lon="-75.6813045002018">
        <ele>9.321895</ele>
        <time>2019-09-10T15:26:30.700Z</time>
      </trkpt>
      <trkpt lat="10.1585024289896" lon="-75.6813044744581">
        <ele>9.221895</ele>
        <time>2019-09-10T15:26:30.800Z</time>
      </trkpt>
      <trkpt lat="10.1585024111028" lon="-75.6813044241457">
        <ele>9.121895</ele>
        <time>2019-09-10T15:26:31.000Z</time>
      </trkpt>
      <trkpt lat="10.158502407701" lon="-75.6813044107794">
        <ele>9.021895</ele>
        <time>2019-09-10T15:26:31.100Z</time>
      </trkpt>
      <trkpt lat="10.1585024131037" lon="-75.6813043960194">
        <ele>8.921895</ele>
        <time>2019-09-10T15:26:31.200Z</time>
      </trkpt>
      <trkpt lat="10.1585023883534" lon="-75.6813043851543">
        <ele>8.821895</ele>
        <time>2019-09-10T15:26:31.300Z</time>
      </trkpt>
      <trkpt lat="10.1585023550566" lon="-75.6813043695621">
        <ele>8.721895</ele>
        <time>2019-09-10T15:26:31.400Z</time>
      </trkpt>
      <trkpt lat="10.1585023188185" lon="-75.6813043421016">
        <ele>8.621895</ele>
        <time>2019-09-10T15:26:31.500Z</time>
      </trkpt>
      <trkpt lat="10.1585022118659" lon="-75.6813042822339">
        <ele>8.521895</ele>
        <time>2019-09-10T15:26:31.700Z</time>
      </trkpt>
      <trkpt lat="10.1585021329165" lon="-75.6813042674816">
        <ele>8.421895</ele>
        <time>2019-09-10T15:26:31.800Z</time>
      </trkpt>
      <trkpt lat="10.1585019268235" lon="-75.6813042073115">
        <ele>8.221895</ele>
        <time>2019-09-10T15:26:32.000Z</time>
      </trkpt>
      <trkpt lat="10.1585017885959" lon="-75.681304146989">
        <ele>8.221895</ele>
        <time>2019-09-10T15:26:32.100Z</time>
      </trkpt>
      <trkpt lat="10.1585016603518" lon="-75.6813040927785">
        <ele>8.121895</ele>
        <time>2019-09-10T15:26:32.200Z</time>
      </trkpt>
      <trkpt lat="10.1585014631428" lon="-75.6813040844483">
        <ele>7.921895</ele>
        <time>2019-09-10T15:26:32.400Z</time>
      </trkpt>
      <trkpt lat="10.1585014079267" lon="-75.6813040864294">
        <ele>7.921895</ele>
        <time>2019-09-10T15:26:32.500Z</time>
      </trkpt>
      <trkpt lat="10.1585013705189" lon="-75.6813040656663">
        <ele>7.821895</ele>
        <time>2019-09-10T15:26:32.600Z</time>
      </trkpt>
      <trkpt lat="10.1585013538616" lon="-75.6813040390881">
        <ele>7.721895</ele>
        <time>2019-09-10T15:26:32.700Z</time>
      </trkpt>
      <trkpt lat="10.158501350349" lon="-75.6813040145248">
        <ele>7.621895</ele>
        <time>2019-09-10T15:26:32.800Z</time>
      </trkpt>
      <trkpt lat="10.1585014147491" lon="-75.6813039911615">
        <ele>7.521895</ele>
        <time>2019-09-10T15:26:33.000Z</time>
      </trkpt>
      <trkpt lat="10.1585014453545" lon="-75.6813039406381">
        <ele>7.421895</ele>
        <time>2019-09-10T15:26:33.100Z</time>
      </trkpt>
      <trkpt lat="10.1585014298407" lon="-75.6813038101017">
        <ele>7.321895</ele>
        <time>2019-09-10T15:26:33.300Z</time>
      </trkpt>
      <trkpt lat="10.1585013998208" lon="-75.6813037586122">
        <ele>7.221895</ele>
        <time>2019-09-10T15:26:33.400Z</time>
      </trkpt>
      <trkpt lat="10.1585013736162" lon="-75.6813036969135">
        <ele>7.121895</ele>
        <time>2019-09-10T15:26:33.500Z</time>
      </trkpt>
      <trkpt lat="10.1585013517507" lon="-75.6813036274285">
        <ele>7.121895</ele>
        <time>2019-09-10T15:26:33.600Z</time>
      </trkpt>
      <trkpt lat="10.1585012417827" lon="-75.6813035738512">
        <ele>6.921895</ele>
        <time>2019-09-10T15:26:33.800Z</time>
      </trkpt>
      <trkpt lat="10.158501159287" lon="-75.6813035754069">
        <ele>6.921895</ele>
        <time>2019-09-10T15:26:33.900Z</time>
      </trkpt>
      <trkpt lat="10.1585010987039" lon="-75.6813035720115">
        <ele>6.821895</ele>
        <time>2019-09-10T15:26:34.000Z</time>
      </trkpt>
      <trkpt lat="10.158501118926" lon="-75.6813035926506">
        <ele>6.721895</ele>
        <time>2019-09-10T15:26:34.100Z</time>
      </trkpt>
      <trkpt lat="10.1585011700522" lon="-75.6813036194311">
        <ele>6.621895</ele>
        <time>2019-09-10T15:26:34.200Z</time>
      </trkpt>
      <trkpt lat="10.1585012955136" lon="-75.6813037199395">
        <ele>6.521895</ele>
        <time>2019-09-10T15:26:34.400Z</time>
      </trkpt>
      <trkpt lat="10.1585013375617" lon="-75.6813037461826">
        <ele>6.421895</ele>
        <time>2019-09-10T15:26:34.600Z</time>
      </trkpt>
      <trkpt lat="10.1585013739167" lon="-75.6813037056017">
        <ele>6.321895</ele>
        <time>2019-09-10T15:26:34.700Z</time>
      </trkpt>
      <trkpt lat="10.1585014233082" lon="-75.6813036368064">
        <ele>6.221895</ele>
        <time>2019-09-10T15:26:34.800Z</time>
      </trkpt>
      <trkpt lat="10.1585014576073" lon="-75.6813035321944">
        <ele>6.221895</ele>
        <time>2019-09-10T15:26:34.900Z</time>
      </trkpt>
      <trkpt lat="10.1585014739964" lon="-75.6813034275692">
        <ele>6.121895</ele>
        <time>2019-09-10T15:26:35.000Z</time>
      </trkpt>
      <trkpt lat="10.158501448681" lon="-75.6813033324047">
        <ele>6.021895</ele>
        <time>2019-09-10T15:26:35.100Z</time>
      </trkpt>
      <trkpt lat="10.15850141718" lon="-75.681303251268">
        <ele>6.021895</ele>
        <time>2019-09-10T15:26:35.200Z</time>
      </trkpt>
      <trkpt lat="10.1585014049683" lon="-75.6813031847193">
        <ele>5.921895</ele>
        <time>2019-09-10T15:26:35.300Z</time>
      </trkpt>
      <trkpt lat="10.1585014057186" lon="-75.6813031396714">
        <ele>5.821895</ele>
        <time>2019-09-10T15:26:35.400Z</time>
      </trkpt>
      <trkpt lat="10.1585014418476" lon="-75.6813031458248">
        <ele>5.821895</ele>
        <time>2019-09-10T15:26:35.500Z</time>
      </trkpt>
      <trkpt lat="10.1585015173036" lon="-75.681303206986">
        <ele>5.621895</ele>
        <time>2019-09-10T15:26:35.700Z</time>
      </trkpt>
      <trkpt lat="10.1585015387848" lon="-75.6813032527868">
        <ele>5.621895</ele>
        <time>2019-09-10T15:26:35.800Z</time>
      </trkpt>
      <trkpt lat="10.1585015452994" lon="-75.6813033174316">
        <ele>5.521895</ele>
        <time>2019-09-10T15:26:35.900Z</time>
      </trkpt>
      <trkpt lat="10.1585015403917" lon="-75.6813033792292">
        <ele>5.421895</ele>
        <time>2019-09-10T15:26:36.000Z</time>
      </trkpt>
      <trkpt lat="10.1585015303332" lon="-75.6813034259417">
        <ele>5.421895</ele>
        <time>2019-09-10T15:26:36.100Z</time>
      </trkpt>
      <trkpt lat="10.1585015197288" lon="-75.6813034666956">
        <ele>5.321895</ele>
        <time>2019-09-10T15:26:36.200Z</time>
      </trkpt>
      <trkpt lat="10.1585014943796" lon="-75.6813035158863">
        <ele>5.221895</ele>
        <time>2019-09-10T15:26:36.300Z</time>
      </trkpt>
      <trkpt lat="10.1585014661835" lon="-75.6813035756506">
        <ele>5.221895</ele>
        <time>2019-09-10T15:26:36.400Z</time>
      </trkpt>
      <trkpt lat="10.1585014249708" lon="-75.6813036618854">
        <ele>5.121895</ele>
        <time>2019-09-10T15:26:36.500Z</time>
      </trkpt>
      <trkpt lat="10.158501382554" lon="-75.6813037483171">
        <ele>5.121895</ele>
        <time>2019-09-10T15:26:36.600Z</time>
      </trkpt>
      <trkpt lat="10.1585013764371" lon="-75.6813038527671">
        <ele>5.021895</ele>
        <time>2019-09-10T15:26:36.700Z</time>
      </trkpt>
      <trkpt lat="10.1585013825157" lon="-75.6813039511584">
        <ele>5.021895</ele>
        <time>2019-09-10T15:26:36.800Z</time>
      </trkpt>
      <trkpt lat="10.1585013754201" lon="-75.6813040608054">
        <ele>4.921895</ele>
        <time>2019-09-10T15:26:36.900Z</time>
      </trkpt>
      <trkpt lat="10.1585013596934" lon="-75.681304162925">
        <ele>4.921895</ele>
        <time>2019-09-10T15:26:37.000Z</time>
      </trkpt>
      <trkpt lat="10.1585013484303" lon="-75.6813042309348">
        <ele>4.821895</ele>
        <time>2019-09-10T15:26:37.100Z</time>
      </trkpt>
      <trkpt lat="10.1585013240896" lon="-75.6813042960561">
        <ele>4.821895</ele>
        <time>2019-09-10T15:26:37.200Z</time>
      </trkpt>
      <trkpt lat="10.1585012928788" lon="-75.6813044090365">
        <ele>4.721895</ele>
        <time>2019-09-10T15:26:37.300Z</time>
      </trkpt>
      <trkpt lat="10.1585012625844" lon="-75.681304555906">
        <ele>4.721895</ele>
        <time>2019-09-10T15:26:37.400Z</time>
      </trkpt>
      <trkpt lat="10.1585012179785" lon="-75.6813047200964">
        <ele>4.721895</ele>
        <time>2019-09-10T15:26:37.500Z</time>
      </trkpt>
      <trkpt lat="10.158501175558" lon="-75.6813048756355">
        <ele>4.621895</ele>
        <time>2019-09-10T15:26:37.600Z</time>
      </trkpt>
      <trkpt lat="10.158501151435" lon="-75.6813050280556">
        <ele>4.621895</ele>
        <time>2019-09-10T15:26:37.700Z</time>
      </trkpt>
      <trkpt lat="10.158501132644" lon="-75.6813051603686">
        <ele>4.621895</ele>
        <time>2019-09-10T15:26:37.800Z</time>
      </trkpt>
      <trkpt lat="10.1585011009194" lon="-75.6813052565329">
        <ele>4.521895</ele>
        <time>2019-09-10T15:26:37.900Z</time>
      </trkpt>
      <trkpt lat="10.1585010616304" lon="-75.6813053226659">
        <ele>4.521895</ele>
        <time>2019-09-10T15:26:38.000Z</time>
      </trkpt>
      <trkpt lat="10.1585010241648" lon="-75.6813053703042">
        <ele>4.521895</ele>
        <time>2019-09-10T15:26:38.100Z</time>
      </trkpt>
      <trkpt lat="10.1585009579486" lon="-75.6813054983536">
        <ele>4.421895</ele>
        <time>2019-09-10T15:26:38.300Z</time>
      </trkpt>
      <trkpt lat="10.1585009318214" lon="-75.681305570925">
        <ele>4.421895</ele>
        <time>2019-09-10T15:26:38.400Z</time>
      </trkpt>
      <trkpt lat="10.1585008947593" lon="-75.6813056134957">
        <ele>4.421895</ele>
        <time>2019-09-10T15:26:38.500Z</time>
      </trkpt>
      <trkpt lat="10.1585008464368" lon="-75.6813056398563">
        <ele>4.321895</ele>
        <time>2019-09-10T15:26:38.600Z</time>
      </trkpt>
      <trkpt lat="10.1585007794752" lon="-75.6813056604486">
        <ele>4.321895</ele>
        <time>2019-09-10T15:26:38.700Z</time>
      </trkpt>
      <trkpt lat="10.1585007179908" lon="-75.6813056769547">
        <ele>4.321895</ele>
        <time>2019-09-10T15:26:38.800Z</time>
      </trkpt>
      <trkpt lat="10.1585006583759" lon="-75.6813057028518">
        <ele>4.221895</ele>
        <time>2019-09-10T15:26:38.900Z</time>
      </trkpt>
      <trkpt lat="10.1585006100209" lon="-75.6813057279829">
        <ele>4.221895</ele>
        <time>2019-09-10T15:26:39.000Z</time>
      </trkpt>
      <trkpt lat="10.1585005448954" lon="-75.6813057552356">
        <ele>4.121895</ele>
        <time>2019-09-10T15:26:39.200Z</time>
      </trkpt>
      <trkpt lat="10.1585005907467" lon="-75.6813058603535">
        <ele>4.021895</ele>
        <time>2019-09-10T15:26:39.400Z</time>
      </trkpt>
      <trkpt lat="10.1585006790409" lon="-75.6813059954571">
        <ele>3.921895</ele>
        <time>2019-09-10T15:26:39.600Z</time>
      </trkpt>
      <trkpt lat="10.15850070109" lon="-75.6813060647886">
        <ele>3.921895</ele>
        <time>2019-09-10T15:26:39.700Z</time>
      </trkpt>
      <trkpt lat="10.158500725362" lon="-75.6813060749521">
        <ele>3.921895</ele>
        <time>2019-09-10T15:26:39.800Z</time>
      </trkpt>
      <trkpt lat="10.1585007519667" lon="-75.6813060763098">
        <ele>3.821895</ele>
        <time>2019-09-10T15:26:39.900Z</time>
      </trkpt>
      <trkpt lat="10.1585007307546" lon="-75.6813060807116">
        <ele>3.821895</ele>
        <time>2019-09-10T15:26:40.000Z</time>
      </trkpt>
      <trkpt lat="10.1585007557097" lon="-75.6813060860794">
        <ele>3.821895</ele>
        <time>2019-09-10T15:26:40.100Z</time>
      </trkpt>
      <trkpt lat="10.1585007684449" lon="-75.6813060625562">
        <ele>3.821895</ele>
        <time>2019-09-10T15:26:40.200Z</time>
      </trkpt>
      <trkpt lat="10.1585007903027" lon="-75.6813060838252">
        <ele>3.821895</ele>
        <time>2019-09-10T15:26:40.300Z</time>
      </trkpt>
      <trkpt lat="10.1585008067011" lon="-75.6813061099551">
        <ele>3.821895</ele>
        <time>2019-09-10T15:26:40.400Z</time>
      </trkpt>
      <trkpt lat="10.1585008252532" lon="-75.6813061382174">
        <ele>3.821895</ele>
        <time>2019-09-10T15:26:40.500Z</time>
      </trkpt>
      <trkpt lat="10.1585008365424" lon="-75.6813061558136">
        <ele>3.821895</ele>
        <time>2019-09-10T15:26:40.600Z</time>
      </trkpt>
      <trkpt lat="10.1585008472038" lon="-75.6813061421883">
        <ele>3.821895</ele>
        <time>2019-09-10T15:26:40.700Z</time>
      </trkpt>
      <trkpt lat="10.1585008554698" lon="-75.6813061175989">
        <ele>3.821895</ele>
        <time>2019-09-10T15:26:40.800Z</time>
      </trkpt>
      <trkpt lat="10.1585008597852" lon="-75.6813060954269">
        <ele>3.821895</ele>
        <time>2019-09-10T15:26:40.900Z</time>
      </trkpt>
      <trkpt lat="10.1585221843524" lon="-75.6812871234352">
        <ele>2.3851891</ele>
        <time>2019-09-10T14:48:23.200Z</time>
      </trkpt>
      <trkpt lat="10.1585222175214" lon="-75.6812871179461">
        <ele>2.3851891</ele>
        <time>2019-09-10T14:48:23.300Z</time>
      </trkpt>
      <trkpt lat="10.1585222551702" lon="-75.6812871153283">
        <ele>2.3851891</ele>
        <time>2019-09-10T14:48:23.400Z</time>
      </trkpt>
      <trkpt lat="10.1585222758628" lon="-75.6812871103746">
        <ele>2.3851891</ele>
        <time>2019-09-10T14:48:23.500Z</time>
      </trkpt>
      <trkpt lat="10.1585222935876" lon="-75.6812871073125">
        <ele>2.3851891</ele>
        <time>2019-09-10T14:48:23.600Z</time>
      </trkpt>
      <trkpt lat="10.1585223205685" lon="-75.6812871027322">
        <ele>2.3851891</ele>
        <time>2019-09-10T14:48:23.700Z</time>
      </trkpt>
      <trkpt lat="10.1585223535062" lon="-75.6812870992257">
        <ele>2.3851891</ele>
        <time>2019-09-10T14:48:23.800Z</time>
      </trkpt>
      <trkpt lat="10.1585223975312" lon="-75.6812870952402">
        <ele>2.3851891</ele>
        <time>2019-09-10T14:48:23.900Z</time>
      </trkpt>
      <trkpt lat="10.1585224409504" lon="-75.6812870927439">
        <ele>2.3851891</ele>
        <time>2019-09-10T14:48:24.000Z</time>
      </trkpt>
      <trkpt lat="10.1585224679932" lon="-75.6812870899422">
        <ele>2.3851891</ele>
        <time>2019-09-10T14:48:24.100Z</time>
      </trkpt>
      <trkpt lat="10.1585224894178" lon="-75.6812870887139">
        <ele>2.3851891</ele>
        <time>2019-09-10T14:48:24.200Z</time>
      </trkpt>
      <trkpt lat="10.1585225216162" lon="-75.6812871156709">
        <ele>2.3851891</ele>
        <time>2019-09-10T14:48:24.300Z</time>
      </trkpt>
      <trkpt lat="10.1585225567816" lon="-75.6812871444313">
        <ele>2.3851891</ele>
        <time>2019-09-10T14:48:24.400Z</time>
      </trkpt>
      <trkpt lat="10.1585226011022" lon="-75.6812871729199">
        <ele>2.3851891</ele>
        <time>2019-09-10T14:48:24.500Z</time>
      </trkpt>
      <trkpt lat="10.1585226496306" lon="-75.681287189795">
        <ele>2.3851891</ele>
        <time>2019-09-10T14:48:24.600Z</time>
      </trkpt>
      <trkpt lat="10.1585226748593" lon="-75.6812872047859">
        <ele>2.3851891</ele>
        <time>2019-09-10T14:48:24.700Z</time>
      </trkpt>
      <trkpt lat="10.1585226971193" lon="-75.6812872150899">
        <ele>2.3851891</ele>
        <time>2019-09-10T14:48:24.800Z</time>
      </trkpt>
      <trkpt lat="10.1585227272504" lon="-75.681287221955">
        <ele>2.3851891</ele>
        <time>2019-09-10T14:48:24.900Z</time>
      </trkpt>
      <trkpt lat="10.1585227638562" lon="-75.6812872267303">
        <ele>2.3851891</ele>
        <time>2019-09-10T14:48:25.000Z</time>
      </trkpt>
      <trkpt lat="10.1585227804818" lon="-75.6812872546836">
        <ele>2.3851891</ele>
        <time>2019-09-10T14:48:25.100Z</time>
      </trkpt>
      <trkpt lat="10.1585227792971" lon="-75.6812872880933">
        <ele>2.3851891</ele>
        <time>2019-09-10T14:48:25.200Z</time>
      </trkpt>
      <trkpt lat="10.1585227717525" lon="-75.6812873008532">
        <ele>2.3851891</ele>
        <time>2019-09-10T14:48:25.300Z</time>
      </trkpt>
      <trkpt lat="10.1585227653755" lon="-75.6812872638166">
        <ele>2.3851891</ele>
        <time>2019-09-10T14:48:25.400Z</time>
      </trkpt>
      <trkpt lat="10.1585227460484" lon="-75.6812871947906">
        <ele>2.3851891</ele>
        <time>2019-09-10T14:48:25.500Z</time>
      </trkpt>
      <trkpt lat="10.1585227216225" lon="-75.6812871045292">
        <ele>2.4851891</ele>
        <time>2019-09-10T14:48:25.600Z</time>
      </trkpt>
      <trkpt lat="10.15852267941" lon="-75.6812869859527">
        <ele>2.5851891</ele>
        <time>2019-09-10T14:48:25.700Z</time>
      </trkpt>
      <trkpt lat="10.1585226529046" lon="-75.6812868701512">
        <ele>2.5851891</ele>
        <time>2019-09-10T14:48:25.800Z</time>
      </trkpt>
      <trkpt lat="10.1585226013741" lon="-75.6812867342533">
        <ele>2.6851891</ele>
        <time>2019-09-10T14:48:25.900Z</time>
      </trkpt>
      <trkpt lat="10.1585225466698" lon="-75.6812866003232">
        <ele>2.6851891</ele>
        <time>2019-09-10T14:48:26.000Z</time>
      </trkpt>
      <trkpt lat="10.1585224071146" lon="-75.6812864437897">
        <ele>2.6851891</ele>
        <time>2019-09-10T14:48:26.100Z</time>
      </trkpt>
      <trkpt lat="10.1585222820908" lon="-75.6812863001446">
        <ele>2.7851891</ele>
        <time>2019-09-10T14:48:26.200Z</time>
      </trkpt>
      <trkpt lat="10.1585221346246" lon="-75.6812861968156">
        <ele>2.7851891</ele>
        <time>2019-09-10T14:48:26.300Z</time>
      </trkpt>
      <trkpt lat="10.1585220162229" lon="-75.6812861106772">
        <ele>2.8851891</ele>
        <time>2019-09-10T14:48:26.400Z</time>
      </trkpt>
      <trkpt lat="10.1585219312189" lon="-75.6812860565773">
        <ele>2.8851891</ele>
        <time>2019-09-10T14:48:26.500Z</time>
      </trkpt>
      <trkpt lat="10.158521875645" lon="-75.6812859938933">
        <ele>2.9851891</ele>
        <time>2019-09-10T14:48:26.600Z</time>
      </trkpt>
      <trkpt lat="10.1585217937526" lon="-75.6812859245463">
        <ele>2.9851891</ele>
        <time>2019-09-10T14:48:26.700Z</time>
      </trkpt>
      <trkpt lat="10.1585217306138" lon="-75.6812858431049">
        <ele>3.0851891</ele>
        <time>2019-09-10T14:48:26.800Z</time>
      </trkpt>
      <trkpt lat="10.1585217230574" lon="-75.6812858002762">
        <ele>3.0851891</ele>
        <time>2019-09-10T14:48:26.900Z</time>
      </trkpt>
      <trkpt lat="10.1585217423671" lon="-75.6812857686911">
        <ele>3.1851891</ele>
        <time>2019-09-10T14:48:27.000Z</time>
      </trkpt>
      <trkpt lat="10.1585217639362" lon="-75.6812857440255">
        <ele>3.1851891</ele>
        <time>2019-09-10T14:48:27.100Z</time>
      </trkpt>
      <trkpt lat="10.1585217783239" lon="-75.6812857037279">
        <ele>3.2851891</ele>
        <time>2019-09-10T14:48:27.300Z</time>
      </trkpt>
      <trkpt lat="10.1585217689722" lon="-75.6812856944388">
        <ele>3.3851891</ele>
        <time>2019-09-10T14:48:27.400Z</time>
      </trkpt>
      <trkpt lat="10.1585217936492" lon="-75.6812856703899">
        <ele>3.3851891</ele>
        <time>2019-09-10T14:48:27.500Z</time>
      </trkpt>
      <trkpt lat="10.1585218225704" lon="-75.6812856304143">
        <ele>3.4851891</ele>
        <time>2019-09-10T14:48:27.600Z</time>
      </trkpt>
      <trkpt lat="10.1585218068938" lon="-75.6812855117924">
        <ele>3.4851891</ele>
        <time>2019-09-10T14:48:27.700Z</time>
      </trkpt>
      <trkpt lat="10.1585217662091" lon="-75.6812853646783">
        <ele>3.5851891</ele>
        <time>2019-09-10T14:48:27.800Z</time>
      </trkpt>
      <trkpt lat="10.1585217235968" lon="-75.681285218643">
        <ele>3.6851891</ele>
        <time>2019-09-10T14:48:27.900Z</time>
      </trkpt>
      <trkpt lat="10.1585216997503" lon="-75.6812851017254">
        <ele>3.7851891</ele>
        <time>2019-09-10T14:48:28.000Z</time>
      </trkpt>
      <trkpt lat="10.1585216653966" lon="-75.6812849940077">
        <ele>3.8851891</ele>
        <time>2019-09-10T14:48:28.100Z</time>
      </trkpt>
      <trkpt lat="10.1585216252441" lon="-75.6812849016056">
        <ele>4.0851891</ele>
        <time>2019-09-10T14:48:28.200Z</time>
      </trkpt>
      <trkpt lat="10.1585215702153" lon="-75.6812848467228">
        <ele>4.1851891</ele>
        <time>2019-09-10T14:48:28.300Z</time>
      </trkpt>
      <trkpt lat="10.1585215283496" lon="-75.6812848155519">
        <ele>4.3851891</ele>
        <time>2019-09-10T14:48:28.400Z</time>
      </trkpt>
      <trkpt lat="10.1585215086178" lon="-75.6812848195774">
        <ele>4.5851891</ele>
        <time>2019-09-10T14:48:28.500Z</time>
      </trkpt>
      <trkpt lat="10.1585214947219" lon="-75.681284826821">
        <ele>4.8851891</ele>
        <time>2019-09-10T14:48:28.600Z</time>
      </trkpt>
      <trkpt lat="10.1585214544838" lon="-75.6812848324725">
        <ele>5.0851891</ele>
        <time>2019-09-10T14:48:28.700Z</time>
      </trkpt>
      <trkpt lat="10.1585214046066" lon="-75.6812848219395">
        <ele>5.3851891</ele>
        <time>2019-09-10T14:48:28.800Z</time>
      </trkpt>
      <trkpt lat="10.1585213629604" lon="-75.6812848367658">
        <ele>5.6851891</ele>
        <time>2019-09-10T14:48:28.900Z</time>
      </trkpt>
      <trkpt lat="10.1585213361208" lon="-75.681284864576">
        <ele>5.9851891</ele>
        <time>2019-09-10T14:48:29.000Z</time>
      </trkpt>
      <trkpt lat="10.1585213243663" lon="-75.6812849095703">
        <ele>6.2851891</ele>
        <time>2019-09-10T14:48:29.100Z</time>
      </trkpt>
      <trkpt lat="10.1585213362486" lon="-75.6812849693276">
        <ele>6.5851891</ele>
        <time>2019-09-10T14:48:29.200Z</time>
      </trkpt>
      <trkpt lat="10.1585213434329" lon="-75.6812850448978">
        <ele>6.9851891</ele>
        <time>2019-09-10T14:48:29.300Z</time>
      </trkpt>
      <trkpt lat="10.1585213383114" lon="-75.6812851272533">
        <ele>7.2851891</ele>
        <time>2019-09-10T14:48:29.400Z</time>
      </trkpt>
      <trkpt lat="10.1585213403853" lon="-75.6812852271087">
        <ele>7.5851891</ele>
        <time>2019-09-10T14:48:29.500Z</time>
      </trkpt>
      <trkpt lat="10.1585213482295" lon="-75.6812853251146">
        <ele>7.8851891</ele>
        <time>2019-09-10T14:48:29.600Z</time>
      </trkpt>
      <trkpt lat="10.1585213616568" lon="-75.6812854273746">
        <ele>8.1851891</ele>
        <time>2019-09-10T14:48:29.700Z</time>
      </trkpt>
      <trkpt lat="10.1585213806461" lon="-75.6812855192999">
        <ele>8.4851891</ele>
        <time>2019-09-10T14:48:29.800Z</time>
      </trkpt>
      <trkpt lat="10.1585214014943" lon="-75.6812855468689">
        <ele>8.7851891</ele>
        <time>2019-09-10T14:48:29.900Z</time>
      </trkpt>
      <trkpt lat="10.1585214248869" lon="-75.6812855413463">
        <ele>9.0851891</ele>
        <time>2019-09-10T14:48:30.000Z</time>
      </trkpt>
      <trkpt lat="10.1585214516634" lon="-75.6812854820761">
        <ele>9.4851891</ele>
        <time>2019-09-10T14:48:30.100Z</time>
      </trkpt>
      <trkpt lat="10.1585214946437" lon="-75.6812854176233">
        <ele>9.7851891</ele>
        <time>2019-09-10T14:48:30.200Z</time>
      </trkpt>
      <trkpt lat="10.1585215424691" lon="-75.6812853669678">
        <ele>10.0851891</ele>
        <time>2019-09-10T14:48:30.300Z</time>
      </trkpt>
      <trkpt lat="10.1585216072364" lon="-75.6812853380562">
        <ele>10.3851891</ele>
        <time>2019-09-10T14:48:30.400Z</time>
      </trkpt>
      <trkpt lat="10.1585216929475" lon="-75.681285285007">
        <ele>10.6851891</ele>
        <time>2019-09-10T14:48:30.500Z</time>
      </trkpt>
      <trkpt lat="10.158521776899" lon="-75.6812852160767">
        <ele>10.9851891</ele>
        <time>2019-09-10T14:48:30.600Z</time>
      </trkpt>
      <trkpt lat="10.1585218337216" lon="-75.6812850847687">
        <ele>11.2851891</ele>
        <time>2019-09-10T14:48:30.700Z</time>
      </trkpt>
      <trkpt lat="10.1585218703925" lon="-75.6812849474665">
        <ele>11.5851891</ele>
        <time>2019-09-10T14:48:30.800Z</time>
      </trkpt>
      <trkpt lat="10.1585218802902" lon="-75.6812848239781">
        <ele>11.8851891</ele>
        <time>2019-09-10T14:48:30.900Z</time>
      </trkpt>
      <trkpt lat="10.1585218761621" lon="-75.6812847339155">
        <ele>12.1851891</ele>
        <time>2019-09-10T14:48:31.000Z</time>
      </trkpt>
      <trkpt lat="10.1585218408338" lon="-75.6812846823842">
        <ele>12.4851891</ele>
        <time>2019-09-10T14:48:31.100Z</time>
      </trkpt>
      <trkpt lat="10.158521799854" lon="-75.6812846573414">
        <ele>12.7851891</ele>
        <time>2019-09-10T14:48:31.200Z</time>
      </trkpt>
      <trkpt lat="10.1585217969489" lon="-75.6812845637886">
        <ele>13.3851891</ele>
        <time>2019-09-10T14:48:31.400Z</time>
      </trkpt>
      <trkpt lat="10.1585218100937" lon="-75.681284500269">
        <ele>13.6851891</ele>
        <time>2019-09-10T14:48:31.500Z</time>
      </trkpt>
      <trkpt lat="10.1585218233113" lon="-75.6812844467682">
        <ele>14.0851891</ele>
        <time>2019-09-10T14:48:31.600Z</time>
      </trkpt>
      <trkpt lat="10.1585218031976" lon="-75.6812844201305">
        <ele>14.3851891</ele>
        <time>2019-09-10T14:48:31.700Z</time>
      </trkpt>
      <trkpt lat="10.1585217533982" lon="-75.6812843932608">
        <ele>14.6851891</ele>
        <time>2019-09-10T14:48:31.800Z</time>
      </trkpt>
      <trkpt lat="10.1585216910552" lon="-75.6812843735681">
        <ele>14.9851891</ele>
        <time>2019-09-10T14:48:31.900Z</time>
      </trkpt>
      <trkpt lat="10.1585216345205" lon="-75.6812843533315">
        <ele>15.2851891</ele>
        <time>2019-09-10T14:48:32.000Z</time>
      </trkpt>
      <trkpt lat="10.1585215777123" lon="-75.6812843315572">
        <ele>15.6851891</ele>
        <time>2019-09-10T14:48:32.100Z</time>
      </trkpt>
      <trkpt lat="10.1585215285927" lon="-75.6812843103763">
        <ele>15.9851891</ele>
        <time>2019-09-10T14:48:32.200Z</time>
      </trkpt>
      <trkpt lat="10.1585214749521" lon="-75.68128430667">
        <ele>16.2851891</ele>
        <time>2019-09-10T14:48:32.300Z</time>
      </trkpt>
      <trkpt lat="10.1585214292812" lon="-75.6812842991064">
        <ele>16.5851891</ele>
        <time>2019-09-10T14:48:32.400Z</time>
      </trkpt>
      <trkpt lat="10.1585213836001" lon="-75.6812842943059">
        <ele>16.9851891</ele>
        <time>2019-09-10T14:48:32.500Z</time>
      </trkpt>
      <trkpt lat="10.1585213384824" lon="-75.6812842800964">
        <ele>17.2851891</ele>
        <time>2019-09-10T14:48:32.600Z</time>
      </trkpt>
      <trkpt lat="10.1585212921972" lon="-75.681284274727">
        <ele>17.5851891</ele>
        <time>2019-09-10T14:48:32.700Z</time>
      </trkpt>
      <trkpt lat="10.1585212473026" lon="-75.6812842613925">
        <ele>17.8851891</ele>
        <time>2019-09-10T14:48:32.800Z</time>
      </trkpt>
      <trkpt lat="10.1585211940069" lon="-75.681284264708">
        <ele>18.1851891</ele>
        <time>2019-09-10T14:48:32.900Z</time>
      </trkpt>
      <trkpt lat="10.1585211525329" lon="-75.6812842747947">
        <ele>18.4851891</ele>
        <time>2019-09-10T14:48:33.000Z</time>
      </trkpt>
      <trkpt lat="10.158521150008" lon="-75.6812843107796">
        <ele>18.8851891</ele>
        <time>2019-09-10T14:48:33.100Z</time>
      </trkpt>
      <trkpt lat="10.1585211775132" lon="-75.6812843538546">
        <ele>19.1851891</ele>
        <time>2019-09-10T14:48:33.200Z</time>
      </trkpt>
      <trkpt lat="10.1585212126664" lon="-75.6812843805779">
        <ele>19.4851891</ele>
        <time>2019-09-10T14:48:33.300Z</time>
      </trkpt>
      <trkpt lat="10.1585212631673" lon="-75.6812844006932">
        <ele>19.7851891</ele>
        <time>2019-09-10T14:48:33.400Z</time>
      </trkpt>
      <trkpt lat="10.1585213495677" lon="-75.6812844088383">
        <ele>20.0851891</ele>
        <time>2019-09-10T14:48:33.500Z</time>
      </trkpt>
      <trkpt lat="10.1585214423055" lon="-75.681284418504">
        <ele>20.3851891</ele>
        <time>2019-09-10T14:48:33.600Z</time>
      </trkpt>
      <trkpt lat="10.1585214910245" lon="-75.6812844370657">
        <ele>20.6851891</ele>
        <time>2019-09-10T14:48:33.700Z</time>
      </trkpt>
      <trkpt lat="10.1585215190919" lon="-75.6812844613328">
        <ele>20.9851891</ele>
        <time>2019-09-10T14:48:33.800Z</time>
      </trkpt>
      <trkpt lat="10.1585215294391" lon="-75.6812844662791">
        <ele>21.2851891</ele>
        <time>2019-09-10T14:48:33.900Z</time>
      </trkpt>
      <trkpt lat="10.1585215422179" lon="-75.6812844632514">
        <ele>21.4851891</ele>
        <time>2019-09-10T14:48:34.000Z</time>
      </trkpt>
      <trkpt lat="10.1585215600485" lon="-75.6812844779985">
        <ele>21.7851891</ele>
        <time>2019-09-10T14:48:34.100Z</time>
      </trkpt>
      <trkpt lat="10.1585215955808" lon="-75.6812845028042">
        <ele>22.0851891</ele>
        <time>2019-09-10T14:48:34.200Z</time>
      </trkpt>
      <trkpt lat="10.1585216414736" lon="-75.6812845131819">
        <ele>22.3851891</ele>
        <time>2019-09-10T14:48:34.300Z</time>
      </trkpt>
      <trkpt lat="10.158521678725" lon="-75.6812844992575">
        <ele>22.6851891</ele>
        <time>2019-09-10T14:48:34.400Z</time>
      </trkpt>
      <trkpt lat="10.1585217129794" lon="-75.681284501658">
        <ele>22.9851891</ele>
        <time>2019-09-10T14:48:34.500Z</time>
      </trkpt>
      <trkpt lat="10.1585217508529" lon="-75.6812845233114">
        <ele>23.2851891</ele>
        <time>2019-09-10T14:48:34.600Z</time>
      </trkpt>
      <trkpt lat="10.158521802363" lon="-75.6812845908824">
        <ele>23.5851891</ele>
        <time>2019-09-10T14:48:34.700Z</time>
      </trkpt>
      <trkpt lat="10.1585218522997" lon="-75.6812846610923">
        <ele>23.8851891</ele>
        <time>2019-09-10T14:48:34.800Z</time>
      </trkpt>
      <trkpt lat="10.1585219045336" lon="-75.6812847442572">
        <ele>24.1851891</ele>
        <time>2019-09-10T14:48:34.900Z</time>
      </trkpt>
      <trkpt lat="10.1585219498768" lon="-75.6812848047428">
        <ele>24.4851891</ele>
        <time>2019-09-10T14:48:35.000Z</time>
      </trkpt>
      <trkpt lat="10.1585219927375" lon="-75.6812848620612">
        <ele>24.7851891</ele>
        <time>2019-09-10T14:48:35.100Z</time>
      </trkpt>
      <trkpt lat="10.1585220132714" lon="-75.6812848914359">
        <ele>25.0851891</ele>
        <time>2019-09-10T14:48:35.200Z</time>
      </trkpt>
      <trkpt lat="10.1585220292448" lon="-75.6812849234031">
        <ele>25.3851891</ele>
        <time>2019-09-10T14:48:35.300Z</time>
      </trkpt>
      <trkpt lat="10.1585220322501" lon="-75.6812849394992">
        <ele>25.6851891</ele>
        <time>2019-09-10T14:48:35.400Z</time>
      </trkpt>
      <trkpt lat="10.1585220279249" lon="-75.6812849500364">
        <ele>25.9851891</ele>
        <time>2019-09-10T14:48:35.500Z</time>
      </trkpt>
      <trkpt lat="10.1585220194977" lon="-75.6812849510289">
        <ele>26.2851891</ele>
        <time>2019-09-10T14:48:35.600Z</time>
      </trkpt>
      <trkpt lat="10.1585220232822" lon="-75.6812849557988">
        <ele>26.5851891</ele>
        <time>2019-09-10T14:48:35.700Z</time>
      </trkpt>
      <trkpt lat="10.158522032373" lon="-75.6812849579923">
        <ele>26.8851891</ele>
        <time>2019-09-10T14:48:35.800Z</time>
      </trkpt>
      <trkpt lat="10.1585220474874" lon="-75.6812849625827">
        <ele>27.1851891</ele>
        <time>2019-09-10T14:48:35.900Z</time>
      </trkpt>
      <trkpt lat="10.1585220581309" lon="-75.6812849653246">
        <ele>27.4851891</ele>
        <time>2019-09-10T14:48:36.000Z</time>
      </trkpt>
      <trkpt lat="10.1585221140525" lon="-75.6812850102084">
        <ele>28.0851891</ele>
        <time>2019-09-10T14:48:36.200Z</time>
      </trkpt>
      <trkpt lat="10.1585221350415" lon="-75.6812850281728">
        <ele>28.2851891</ele>
        <time>2019-09-10T14:48:36.300Z</time>
      </trkpt>
      <trkpt lat="10.1585221398332" lon="-75.6812850316502">
        <ele>28.5851891</ele>
        <time>2019-09-10T14:48:36.400Z</time>
      </trkpt>
      <trkpt lat="10.1585221447112" lon="-75.6812850407546">
        <ele>28.8851891</ele>
        <time>2019-09-10T14:48:36.500Z</time>
      </trkpt>
      <trkpt lat="10.1585221546301" lon="-75.6812850499638">
        <ele>29.1851891</ele>
        <time>2019-09-10T14:48:36.600Z</time>
      </trkpt>
      <trkpt lat="10.1585221718256" lon="-75.6812850630645">
        <ele>29.4851891</ele>
        <time>2019-09-10T14:48:36.700Z</time>
      </trkpt>
      <trkpt lat="10.1585221931086" lon="-75.6812850723172">
        <ele>29.7851891</ele>
        <time>2019-09-10T14:48:36.800Z</time>
      </trkpt>
      <trkpt lat="10.158522235554" lon="-75.6812850857214">
        <ele>30.0851891</ele>
        <time>2019-09-10T14:48:36.900Z</time>
      </trkpt>
      <trkpt lat="10.1585222677467" lon="-75.6812850970408">
        <ele>30.3851891</ele>
        <time>2019-09-10T14:48:37.000Z</time>
      </trkpt>
      <trkpt lat="10.1585222789113" lon="-75.6812850991208">
        <ele>30.6851891</ele>
        <time>2019-09-10T14:48:37.100Z</time>
      </trkpt>
      <trkpt lat="10.1585222740943" lon="-75.6812850932608">
        <ele>30.9851891</ele>
        <time>2019-09-10T14:48:37.200Z</time>
      </trkpt>
      <trkpt lat="10.1585222600425" lon="-75.6812850864516">
        <ele>31.2851891</ele>
        <time>2019-09-10T14:48:37.300Z</time>
      </trkpt>
      <trkpt lat="10.1585222489715" lon="-75.6812850747189">
        <ele>31.5851891</ele>
        <time>2019-09-10T14:48:37.400Z</time>
      </trkpt>
      <trkpt lat="10.1585222514842" lon="-75.6812850561106">
        <ele>31.8851891</ele>
        <time>2019-09-10T14:48:37.500Z</time>
      </trkpt>
      <trkpt lat="10.1585222623695" lon="-75.6812850167616">
        <ele>32.1851891</ele>
        <time>2019-09-10T14:48:37.600Z</time>
      </trkpt>
      <trkpt lat="10.1585222829881" lon="-75.6812849881038">
        <ele>32.4851891</ele>
        <time>2019-09-10T14:48:37.700Z</time>
      </trkpt>
      <trkpt lat="10.158522303846" lon="-75.6812849487381">
        <ele>32.8851891</ele>
        <time>2019-09-10T14:48:37.800Z</time>
      </trkpt>
      <trkpt lat="10.1585223450823" lon="-75.6812848651605">
        <ele>33.1851891</ele>
        <time>2019-09-10T14:48:37.900Z</time>
      </trkpt>
      <trkpt lat="10.1585223816563" lon="-75.681284757082">
        <ele>33.4851891</ele>
        <time>2019-09-10T14:48:38.000Z</time>
      </trkpt>
      <trkpt lat="10.1585224032747" lon="-75.6812846619814">
        <ele>33.7851891</ele>
        <time>2019-09-10T14:48:38.100Z</time>
      </trkpt>
      <trkpt lat="10.1585224160255" lon="-75.6812845806828">
        <ele>33.9851891</ele>
        <time>2019-09-10T14:48:38.200Z</time>
      </trkpt>
      <trkpt lat="10.1585224190641" lon="-75.6812845034942">
        <ele>34.2851891</ele>
        <time>2019-09-10T14:48:38.300Z</time>
      </trkpt>
      <trkpt lat="10.1585224191537" lon="-75.6812844335218">
        <ele>34.5851891</ele>
        <time>2019-09-10T14:48:38.400Z</time>
      </trkpt>
      <trkpt lat="10.1585224066847" lon="-75.6812843643632">
        <ele>34.8851891</ele>
        <time>2019-09-10T14:48:38.500Z</time>
      </trkpt>
      <trkpt lat="10.158522388508" lon="-75.681284306853">
        <ele>35.1851891</ele>
        <time>2019-09-10T14:48:38.600Z</time>
      </trkpt>
      <trkpt lat="10.1585223621761" lon="-75.6812842650596">
        <ele>35.4851891</ele>
        <time>2019-09-10T14:48:38.700Z</time>
      </trkpt>
      <trkpt lat="10.1585223371208" lon="-75.6812842390823">
        <ele>35.7851891</ele>
        <time>2019-09-10T14:48:38.800Z</time>
      </trkpt>
      <trkpt lat="10.1585223234101" lon="-75.6812842238513">
        <ele>36.0851891</ele>
        <time>2019-09-10T14:48:38.900Z</time>
      </trkpt>
      <trkpt lat="10.1585223289143" lon="-75.681284214237">
        <ele>36.3851891</ele>
        <time>2019-09-10T14:48:39.000Z</time>
      </trkpt>
      <trkpt lat="10.1585223499253" lon="-75.6812841980129">
        <ele>36.6851891</ele>
        <time>2019-09-10T14:48:39.100Z</time>
      </trkpt>
      <trkpt lat="10.1585223708158" lon="-75.6812841842827">
        <ele>36.9851891</ele>
        <time>2019-09-10T14:48:39.200Z</time>
      </trkpt>
      <trkpt lat="10.1585223891333" lon="-75.6812841760572">
        <ele>37.2851891</ele>
        <time>2019-09-10T14:48:39.300Z</time>
      </trkpt>
      <trkpt lat="10.1585224009054" lon="-75.6812841789967">
        <ele>37.5851891</ele>
        <time>2019-09-10T14:48:39.400Z</time>
      </trkpt>
      <trkpt lat="10.1585223988014" lon="-75.6812841881677">
        <ele>37.8851891</ele>
        <time>2019-09-10T14:48:39.500Z</time>
      </trkpt>
      <trkpt lat="10.1585223975581" lon="-75.6812842043841">
        <ele>38.1851891</ele>
        <time>2019-09-10T14:48:39.600Z</time>
      </trkpt>
      <trkpt lat="10.1585223958629" lon="-75.681284248117">
        <ele>38.4851891</ele>
        <time>2019-09-10T14:48:39.700Z</time>
      </trkpt>
      <trkpt lat="10.1585224027748" lon="-75.6812842909371">
        <ele>38.7851891</ele>
        <time>2019-09-10T14:48:39.800Z</time>
      </trkpt>
      <trkpt lat="10.1585224102152" lon="-75.6812843085918">
        <ele>39.0851891</ele>
        <time>2019-09-10T14:48:39.900Z</time>
      </trkpt>
      <trkpt lat="10.158522425792" lon="-75.681284310648">
        <ele>39.3851891</ele>
        <time>2019-09-10T14:48:40.000Z</time>
      </trkpt>
      <trkpt lat="10.1585224435144" lon="-75.6812842790893">
        <ele>39.6851891</ele>
        <time>2019-09-10T14:48:40.100Z</time>
      </trkpt>
      <trkpt lat="10.15852246355" lon="-75.681284247414">
        <ele>39.9851891</ele>
        <time>2019-09-10T14:48:40.200Z</time>
      </trkpt>
      <trkpt lat="10.1585224946777" lon="-75.6812842004719">
        <ele>40.2851891</ele>
        <time>2019-09-10T14:48:40.300Z</time>
      </trkpt>
      <trkpt lat="10.1585225306248" lon="-75.6812841753467">
        <ele>40.4851891</ele>
        <time>2019-09-10T14:48:40.400Z</time>
      </trkpt>
      <trkpt lat="10.158522572983" lon="-75.6812841607862">
        <ele>40.7851891</ele>
        <time>2019-09-10T14:48:40.500Z</time>
      </trkpt>
      <trkpt lat="10.1585225971394" lon="-75.6812842028104">
        <ele>41.3851891</ele>
        <time>2019-09-10T14:48:40.700Z</time>
      </trkpt>
      <trkpt lat="10.1585225385691" lon="-75.6812842920019">
        <ele>41.9851891</ele>
        <time>2019-09-10T14:48:40.900Z</time>
      </trkpt>
      <trkpt lat="10.1585225091488" lon="-75.6812843416728">
        <ele>42.2851891</ele>
        <time>2019-09-10T14:48:41.000Z</time>
      </trkpt>
      <trkpt lat="10.1585224889439" lon="-75.6812844077542">
        <ele>42.5851891</ele>
        <time>2019-09-10T14:48:41.100Z</time>
      </trkpt>
      <trkpt lat="10.158522477947" lon="-75.681284480389">
        <ele>42.8851891</ele>
        <time>2019-09-10T14:48:41.200Z</time>
      </trkpt>
      <trkpt lat="10.1585224872235" lon="-75.6812845639477">
        <ele>43.1851891</ele>
        <time>2019-09-10T14:48:41.300Z</time>
      </trkpt>
      <trkpt lat="10.1585225038132" lon="-75.6812846408685">
        <ele>43.4851891</ele>
        <time>2019-09-10T14:48:41.400Z</time>
      </trkpt>
      <trkpt lat="10.1585224940874" lon="-75.6812846977161">
        <ele>43.7851891</ele>
        <time>2019-09-10T14:48:41.500Z</time>
      </trkpt>
      <trkpt lat="10.1585224630362" lon="-75.6812847343139">
        <ele>44.0851891</ele>
        <time>2019-09-10T14:48:41.600Z</time>
      </trkpt>
      <trkpt lat="10.158522455376" lon="-75.6812847636841">
        <ele>44.3851891</ele>
        <time>2019-09-10T14:48:41.700Z</time>
      </trkpt>
      <trkpt lat="10.1585224630166" lon="-75.6812847959447">
        <ele>44.6851891</ele>
        <time>2019-09-10T14:48:41.800Z</time>
      </trkpt>
      <trkpt lat="10.1585224580295" lon="-75.6812848353965">
        <ele>45.0851891</ele>
        <time>2019-09-10T14:48:41.900Z</time>
      </trkpt>
      <trkpt lat="10.1585224409936" lon="-75.6812848724973">
        <ele>45.3851891</ele>
        <time>2019-09-10T14:48:42.000Z</time>
      </trkpt>
      <trkpt lat="10.1585224296954" lon="-75.6812849430542">
        <ele>45.6851891</ele>
        <time>2019-09-10T14:48:42.100Z</time>
      </trkpt>
      <trkpt lat="10.1585224220328" lon="-75.6812850135283">
        <ele>45.9851891</ele>
        <time>2019-09-10T14:48:42.200Z</time>
      </trkpt>
      <trkpt lat="10.1585223928535" lon="-75.6812850643907">
        <ele>46.2851891</ele>
        <time>2019-09-10T14:48:42.300Z</time>
      </trkpt>
      <trkpt lat="10.1585223559139" lon="-75.6812850888075">
        <ele>46.5851891</ele>
        <time>2019-09-10T14:48:42.400Z</time>
      </trkpt>
      <trkpt lat="10.1585223177415" lon="-75.6812851049563">
        <ele>46.8851891</ele>
        <time>2019-09-10T14:48:42.500Z</time>
      </trkpt>
      <trkpt lat="10.1585222860235" lon="-75.6812851180476">
        <ele>47.1851891</ele>
        <time>2019-09-10T14:48:42.600Z</time>
      </trkpt>
      <trkpt lat="10.1585222429846" lon="-75.6812851495919">
        <ele>47.4851891</ele>
        <time>2019-09-10T14:48:42.700Z</time>
      </trkpt>
      <trkpt lat="10.1585221995719" lon="-75.6812851800935">
        <ele>47.7851891</ele>
        <time>2019-09-10T14:48:42.800Z</time>
      </trkpt>
      <trkpt lat="10.158522163269" lon="-75.6812852214524">
        <ele>48.0851891</ele>
        <time>2019-09-10T14:48:42.900Z</time>
      </trkpt>
      <trkpt lat="10.1585221214692" lon="-75.681285247709">
        <ele>48.3851891</ele>
        <time>2019-09-10T14:48:43.000Z</time>
      </trkpt>
      <trkpt lat="10.1585220605255" lon="-75.6812852684016">
        <ele>48.6851891</ele>
        <time>2019-09-10T14:48:43.100Z</time>
      </trkpt>
      <trkpt lat="10.1585219992651" lon="-75.6812852807687">
        <ele>48.9851891</ele>
        <time>2019-09-10T14:48:43.200Z</time>
      </trkpt>
      <trkpt lat="10.1585219461225" lon="-75.681285290569">
        <ele>49.2851891</ele>
        <time>2019-09-10T14:48:43.300Z</time>
      </trkpt>
      <trkpt lat="10.1585219103871" lon="-75.6812853008314">
        <ele>49.5851891</ele>
        <time>2019-09-10T14:48:43.400Z</time>
      </trkpt>
      <trkpt lat="10.1585218964435" lon="-75.6812853134426">
        <ele>49.8851891</ele>
        <time>2019-09-10T14:48:43.500Z</time>
      </trkpt>
      <trkpt lat="10.1585218875311" lon="-75.6812853188156">
        <ele>50.1851891</ele>
        <time>2019-09-10T14:48:43.600Z</time>
      </trkpt>
      <trkpt lat="10.1585218914141" lon="-75.6812853362479">
        <ele>50.4851891</ele>
        <time>2019-09-10T14:48:43.700Z</time>
      </trkpt>
      <trkpt lat="10.1585218958394" lon="-75.6812853482961">
        <ele>50.7851891</ele>
        <time>2019-09-10T14:48:43.800Z</time>
      </trkpt>
      <trkpt lat="10.1585218793221" lon="-75.6812853618802">
        <ele>51.0851891</ele>
        <time>2019-09-10T14:48:43.900Z</time>
      </trkpt>
      <trkpt lat="10.1585218516711" lon="-75.681285377506">
        <ele>51.2851891</ele>
        <time>2019-09-10T14:48:44.000Z</time>
      </trkpt>
      <trkpt lat="10.1585218262955" lon="-75.6812853922328">
        <ele>51.5851891</ele>
        <time>2019-09-10T14:48:44.100Z</time>
      </trkpt>
      <trkpt lat="10.1585218073339" lon="-75.6812854018742">
        <ele>51.7851891</ele>
        <time>2019-09-10T14:48:44.200Z</time>
      </trkpt>
      <trkpt lat="10.1585217726415" lon="-75.6812854283801">
        <ele>52.0851891</ele>
        <time>2019-09-10T14:48:44.300Z</time>
      </trkpt>
      <trkpt lat="10.1585217349279" lon="-75.6812854497445">
        <ele>52.2851891</ele>
        <time>2019-09-10T14:48:44.400Z</time>
      </trkpt>
      <trkpt lat="10.158521708903" lon="-75.6812854377001">
        <ele>52.4851891</ele>
        <time>2019-09-10T14:48:44.500Z</time>
      </trkpt>
      <trkpt lat="10.1585216779825" lon="-75.6812853746852">
        <ele>52.8851891</ele>
        <time>2019-09-10T14:48:44.700Z</time>
      </trkpt>
      <trkpt lat="10.1585216614745" lon="-75.6812853512038">
        <ele>53.1851891</ele>
        <time>2019-09-10T14:48:44.900Z</time>
      </trkpt>
      <trkpt lat="10.1585216699811" lon="-75.6812853636753">
        <ele>53.3851891</ele>
        <time>2019-09-10T14:48:45.000Z</time>
      </trkpt>
      <trkpt lat="10.1585216794008" lon="-75.6812853623512">
        <ele>53.5851891</ele>
        <time>2019-09-10T14:48:45.100Z</time>
      </trkpt>
      <trkpt lat="10.15852168991" lon="-75.681285349554">
        <ele>53.6851891</ele>
        <time>2019-09-10T14:48:45.200Z</time>
      </trkpt>
      <trkpt lat="10.1585217013409" lon="-75.6812852853588">
        <ele>53.9851891</ele>
        <time>2019-09-10T14:48:45.400Z</time>
      </trkpt>
      <trkpt lat="10.1585216980152" lon="-75.6812852345715">
        <ele>54.1851891</ele>
        <time>2019-09-10T14:48:45.500Z</time>
      </trkpt>
      <trkpt lat="10.1585216915629" lon="-75.6812851933899">
        <ele>54.2851891</ele>
        <time>2019-09-10T14:48:45.600Z</time>
      </trkpt>
      <trkpt lat="10.1585216524045" lon="-75.68128513942">
        <ele>54.3851891</ele>
        <time>2019-09-10T14:48:45.700Z</time>
      </trkpt>
      <trkpt lat="10.1585216076329" lon="-75.6812851015922">
        <ele>54.4851891</ele>
        <time>2019-09-10T14:48:45.800Z</time>
      </trkpt>
      <trkpt lat="10.1585215922461" lon="-75.6812851021142">
        <ele>54.5851891</ele>
        <time>2019-09-10T14:48:45.900Z</time>
      </trkpt>
      <trkpt lat="10.1585215924297" lon="-75.681285115502">
        <ele>54.6851891</ele>
        <time>2019-09-10T14:48:46.000Z</time>
      </trkpt>
      <trkpt lat="10.1585215655694" lon="-75.6812851124196">
        <ele>54.6851891</ele>
        <time>2019-09-10T14:48:46.100Z</time>
      </trkpt>
      <trkpt lat="10.1585215279702" lon="-75.6812850823635">
        <ele>54.6851891</ele>
        <time>2019-09-10T14:48:46.200Z</time>
      </trkpt>
      <trkpt lat="10.1585214936308" lon="-75.6812850384261">
        <ele>54.6851891</ele>
        <time>2019-09-10T14:48:46.300Z</time>
      </trkpt>
      <trkpt lat="10.1585214719851" lon="-75.6812849878591">
        <ele>54.6851891</ele>
        <time>2019-09-10T14:48:46.400Z</time>
      </trkpt>
      <trkpt lat="10.1585214100318" lon="-75.6812848841919">
        <ele>54.6851891</ele>
        <time>2019-09-10T14:48:46.500Z</time>
      </trkpt>
      <trkpt lat="10.158521258376" lon="-75.6812848063008">
        <ele>54.7851891</ele>
        <time>2019-09-10T14:48:46.600Z</time>
      </trkpt>
      <trkpt lat="10.1585209655342" lon="-75.6812848156278">
        <ele>54.7851891</ele>
        <time>2019-09-10T14:48:46.700Z</time>
      </trkpt>
      <trkpt lat="10.1585205853299" lon="-75.6812849643397">
        <ele>54.7851891</ele>
        <time>2019-09-10T14:48:46.800Z</time>
      </trkpt>
      <trkpt lat="10.1585200973883" lon="-75.6812853382762">
        <ele>54.8851891</ele>
        <time>2019-09-10T14:48:46.900Z</time>
      </trkpt>
      <trkpt lat="10.1585195337349" lon="-75.6812858814967">
        <ele>54.8851891</ele>
        <time>2019-09-10T14:48:47.000Z</time>
      </trkpt>
      <trkpt lat="10.1585180779197" lon="-75.6812875228957">
        <ele>54.9851891</ele>
        <time>2019-09-10T14:48:47.200Z</time>
      </trkpt>
      <trkpt lat="10.1585171597351" lon="-75.6812886234702">
        <ele>54.9851891</ele>
        <time>2019-09-10T14:48:47.300Z</time>
      </trkpt>
      <trkpt lat="10.1585161547673" lon="-75.6812898746576">
        <ele>55.0851891</ele>
        <time>2019-09-10T14:48:47.400Z</time>
      </trkpt>
      <trkpt lat="10.158515035684" lon="-75.6812913771945">
        <ele>55.0851891</ele>
        <time>2019-09-10T14:48:47.500Z</time>
      </trkpt>
      <trkpt lat="10.1585138487359" lon="-75.6812930306442">
        <ele>55.0851891</ele>
        <time>2019-09-10T14:48:47.600Z</time>
      </trkpt>
      <trkpt lat="10.158512579772" lon="-75.6812948893101">
        <ele>55.0851891</ele>
        <time>2019-09-10T14:48:47.700Z</time>
      </trkpt>
      <trkpt lat="10.1585112381094" lon="-75.6812968955712">
        <ele>55.1851891</ele>
        <time>2019-09-10T14:48:47.800Z</time>
      </trkpt>
      <trkpt lat="10.1585097851999" lon="-75.6812990932225">
        <ele>55.1851891</ele>
        <time>2019-09-10T14:48:47.900Z</time>
      </trkpt>
      <trkpt lat="10.1585082627135" lon="-75.6813014042492">
        <ele>55.1851891</ele>
        <time>2019-09-10T14:48:48.000Z</time>
      </trkpt>
      <trkpt lat="10.1585066487646" lon="-75.6813038798449">
        <ele>55.1851891</ele>
        <time>2019-09-10T14:48:48.100Z</time>
      </trkpt>
      <trkpt lat="10.1585049992746" lon="-75.6813064379318">
        <ele>55.1851891</ele>
        <time>2019-09-10T14:48:48.200Z</time>
      </trkpt>
      <trkpt lat="10.1585032561084" lon="-75.6813091486814">
        <ele>55.1851891</ele>
        <time>2019-09-10T14:48:48.300Z</time>
      </trkpt>
      <trkpt lat="10.1585014989571" lon="-75.6813118983898">
        <ele>55.1851891</ele>
        <time>2019-09-10T14:48:48.400Z</time>
      </trkpt>
      <trkpt lat="10.158499637556" lon="-75.6813148042879">
        <ele>55.1851891</ele>
        <time>2019-09-10T14:48:48.500Z</time>
      </trkpt>
      <trkpt lat="10.1584977867871" lon="-75.6813177104689">
        <ele>55.1851891</ele>
        <time>2019-09-10T14:48:48.600Z</time>
      </trkpt>
      <trkpt lat="10.158495830534" lon="-75.6813207957907">
        <ele>55.1851891</ele>
        <time>2019-09-10T14:48:48.700Z</time>
      </trkpt>
      <trkpt lat="10.1584939278682" lon="-75.6813238316268">
        <ele>55.1851891</ele>
        <time>2019-09-10T14:48:48.800Z</time>
      </trkpt>
      <trkpt lat="10.158489974511" lon="-75.6813301395279">
        <ele>55.1851891</ele>
        <time>2019-09-10T14:48:49.000Z</time>
      </trkpt>
      <trkpt lat="10.1584879548187" lon="-75.6813333291386">
        <ele>55.0851891</ele>
        <time>2019-09-10T14:48:49.100Z</time>
      </trkpt>
      <trkpt lat="10.1584860252721" lon="-75.6813364025192">
        <ele>55.0851891</ele>
        <time>2019-09-10T14:48:49.200Z</time>
      </trkpt>
      <trkpt lat="10.1584839706415" lon="-75.6813396246677">
        <ele>55.0851891</ele>
        <time>2019-09-10T14:48:49.300Z</time>
      </trkpt>
      <trkpt lat="10.1584820340536" lon="-75.6813427094629">
        <ele>54.9851891</ele>
        <time>2019-09-10T14:48:49.400Z</time>
      </trkpt>
      <trkpt lat="10.1584799970786" lon="-75.6813459219376">
        <ele>54.9851891</ele>
        <time>2019-09-10T14:48:49.500Z</time>
      </trkpt>
      <trkpt lat="10.1584781007132" lon="-75.6813489796564">
        <ele>54.9851891</ele>
        <time>2019-09-10T14:48:49.600Z</time>
      </trkpt>
      <trkpt lat="10.1584761525959" lon="-75.6813521521518">
        <ele>54.9851891</ele>
        <time>2019-09-10T14:48:49.700Z</time>
      </trkpt>
      <trkpt lat="10.1584743596237" lon="-75.6813551382021">
        <ele>54.9851891</ele>
        <time>2019-09-10T14:48:49.800Z</time>
      </trkpt>
      <trkpt lat="10.1584725286794" lon="-75.6813581428473">
        <ele>54.9851891</ele>
        <time>2019-09-10T14:48:49.900Z</time>
      </trkpt>
      <trkpt lat="10.1584708395531" lon="-75.6813609402505">
        <ele>54.9851891</ele>
        <time>2019-09-10T14:48:50.000Z</time>
      </trkpt>
      <trkpt lat="10.158469064953" lon="-75.6813638345013">
        <ele>54.9851891</ele>
        <time>2019-09-10T14:48:50.100Z</time>
      </trkpt>
      <trkpt lat="10.1584674493574" lon="-75.6813665185813">
        <ele>55.0851891</ele>
        <time>2019-09-10T14:48:50.200Z</time>
      </trkpt>
      <trkpt lat="10.1584658070586" lon="-75.6813692038538">
        <ele>55.0851891</ele>
        <time>2019-09-10T14:48:50.300Z</time>
      </trkpt>
      <trkpt lat="10.158464317941" lon="-75.6813716746561">
        <ele>55.0851891</ele>
        <time>2019-09-10T14:48:50.400Z</time>
      </trkpt>
      <trkpt lat="10.1584627794458" lon="-75.6813742648347">
        <ele>55.0851891</ele>
        <time>2019-09-10T14:48:50.500Z</time>
      </trkpt>
      <trkpt lat="10.158460024809" lon="-75.6813790166695">
        <ele>55.1851891</ele>
        <time>2019-09-10T14:48:50.700Z</time>
      </trkpt>
      <trkpt lat="10.1584587813682" lon="-75.6813811705969">
        <ele>55.1851891</ele>
        <time>2019-09-10T14:48:50.800Z</time>
      </trkpt>
      <trkpt lat="10.1584574991575" lon="-75.6813833676411">
        <ele>55.1851891</ele>
        <time>2019-09-10T14:48:50.900Z</time>
      </trkpt>
      <trkpt lat="10.1584563504075" lon="-75.6813853843327">
        <ele>55.1851891</ele>
        <time>2019-09-10T14:48:51.000Z</time>
      </trkpt>
      <trkpt lat="10.1584551184766" lon="-75.6813874684238">
        <ele>55.1851891</ele>
        <time>2019-09-10T14:48:51.100Z</time>
      </trkpt>
      <trkpt lat="10.1584540009211" lon="-75.6813893873844">
        <ele>55.1851891</ele>
        <time>2019-09-10T14:48:51.200Z</time>
      </trkpt>
      <trkpt lat="10.1584528172377" lon="-75.6813913993674">
        <ele>55.1851891</ele>
        <time>2019-09-10T14:48:51.300Z</time>
      </trkpt>
      <trkpt lat="10.1584517611266" lon="-75.6813932552977">
        <ele>55.1851891</ele>
        <time>2019-09-10T14:48:51.400Z</time>
      </trkpt>
      <trkpt lat="10.1584495520902" lon="-75.6813969666362">
        <ele>55.1851891</ele>
        <time>2019-09-10T14:48:51.600Z</time>
      </trkpt>
      <trkpt lat="10.1584484394787" lon="-75.6813988455175">
        <ele>55.1851891</ele>
        <time>2019-09-10T14:48:51.700Z</time>
      </trkpt>
      <trkpt lat="10.1584474424345" lon="-75.6814005878853">
        <ele>55.1851891</ele>
        <time>2019-09-10T14:48:51.800Z</time>
      </trkpt>
      <trkpt lat="10.1584463666779" lon="-75.6814024221093">
        <ele>55.1851891</ele>
        <time>2019-09-10T14:48:51.900Z</time>
      </trkpt>
      <trkpt lat="10.1584453816582" lon="-75.6814041225265">
        <ele>55.1851891</ele>
        <time>2019-09-10T14:48:52.000Z</time>
      </trkpt>
      <trkpt lat="10.1584443310773" lon="-75.6814059139817">
        <ele>55.1851891</ele>
        <time>2019-09-10T14:48:52.100Z</time>
      </trkpt>
      <trkpt lat="10.1584433655859" lon="-75.6814075842242">
        <ele>55.1851891</ele>
        <time>2019-09-10T14:48:52.200Z</time>
      </trkpt>
      <trkpt lat="10.1584423310419" lon="-75.6814093431895">
        <ele>55.1851891</ele>
        <time>2019-09-10T14:48:52.300Z</time>
      </trkpt>
      <trkpt lat="10.1584413762983" lon="-75.6814109953113">
        <ele>55.1851891</ele>
        <time>2019-09-10T14:48:52.400Z</time>
      </trkpt>
      <trkpt lat="10.1584403733852" lon="-75.6814127493679">
        <ele>55.1851891</ele>
        <time>2019-09-10T14:48:52.500Z</time>
      </trkpt>
      <trkpt lat="10.1584394462339" lon="-75.6814144131959">
        <ele>55.1851891</ele>
        <time>2019-09-10T14:48:52.600Z</time>
      </trkpt>
      <trkpt lat="10.1584384430472" lon="-75.6814162174539">
        <ele>55.1851891</ele>
        <time>2019-09-10T14:48:52.700Z</time>
      </trkpt>
      <trkpt lat="10.1584375051677" lon="-75.6814179251559">
        <ele>55.2851891</ele>
        <time>2019-09-10T14:48:52.800Z</time>
      </trkpt>
      <trkpt lat="10.1584365236133" lon="-75.6814197088129">
        <ele>55.2851891</ele>
        <time>2019-09-10T14:48:52.900Z</time>
      </trkpt>
      <trkpt lat="10.1584355931399" lon="-75.6814214096392">
        <ele>55.2851891</ele>
        <time>2019-09-10T14:48:53.000Z</time>
      </trkpt>
      <trkpt lat="10.1584346040752" lon="-75.6814231981962">
        <ele>55.2851891</ele>
        <time>2019-09-10T14:48:53.100Z</time>
      </trkpt>
      <trkpt lat="10.1584336628085" lon="-75.6814249092142">
        <ele>55.2851891</ele>
        <time>2019-09-10T14:48:53.200Z</time>
      </trkpt>
      <trkpt lat="10.1584326686304" lon="-75.6814267027235">
        <ele>55.2851891</ele>
        <time>2019-09-10T14:48:53.300Z</time>
      </trkpt>
      <trkpt lat="10.1584317168309" lon="-75.6814284285287">
        <ele>55.2851891</ele>
        <time>2019-09-10T14:48:53.400Z</time>
      </trkpt>
      <trkpt lat="10.1584306834855" lon="-75.6814302514381">
        <ele>55.2851891</ele>
        <time>2019-09-10T14:48:53.500Z</time>
      </trkpt>
      <trkpt lat="10.158429678449" lon="-75.6814320141285">
        <ele>55.2851891</ele>
        <time>2019-09-10T14:48:53.600Z</time>
      </trkpt>
      <trkpt lat="10.1584285994355" lon="-75.681433882792">
        <ele>55.2851891</ele>
        <time>2019-09-10T14:48:53.700Z</time>
      </trkpt>
      <trkpt lat="10.1584264467823" lon="-75.6814375997528">
        <ele>55.2851891</ele>
        <time>2019-09-10T14:48:53.900Z</time>
      </trkpt>
      <trkpt lat="10.1584253836233" lon="-75.6814394402868">
        <ele>55.2851891</ele>
        <time>2019-09-10T14:48:54.000Z</time>
      </trkpt>
      <trkpt lat="10.1584242700673" lon="-75.6814413561577">
        <ele>55.2851891</ele>
        <time>2019-09-10T14:48:54.100Z</time>
      </trkpt>
      <trkpt lat="10.1584231916595" lon="-75.6814432114179">
        <ele>55.2851891</ele>
        <time>2019-09-10T14:48:54.200Z</time>
      </trkpt>
      <trkpt lat="10.1584220557612" lon="-75.6814451484556">
        <ele>55.2851891</ele>
        <time>2019-09-10T14:48:54.300Z</time>
      </trkpt>
      <trkpt lat="10.1584209495332" lon="-75.6814470359881">
        <ele>55.1851891</ele>
        <time>2019-09-10T14:48:54.400Z</time>
      </trkpt>
      <trkpt lat="10.1584197942303" lon="-75.6814490120868">
        <ele>55.1851891</ele>
        <time>2019-09-10T14:48:54.500Z</time>
      </trkpt>
      <trkpt lat="10.1584186744536" lon="-75.6814509423532">
        <ele>55.1851891</ele>
        <time>2019-09-10T14:48:54.600Z</time>
      </trkpt>
      <trkpt lat="10.1584175311752" lon="-75.6814529511247">
        <ele>55.1851891</ele>
        <time>2019-09-10T14:48:54.700Z</time>
      </trkpt>
      <trkpt lat="10.158416435988" lon="-75.6814549003123">
        <ele>55.1851891</ele>
        <time>2019-09-10T14:48:54.800Z</time>
      </trkpt>
      <trkpt lat="10.1584153363714" lon="-75.6814568989182">
        <ele>55.1851891</ele>
        <time>2019-09-10T14:48:54.900Z</time>
      </trkpt>
      <trkpt lat="10.1584142671872" lon="-75.6814588573837">
        <ele>55.1851891</ele>
        <time>2019-09-10T14:48:55.000Z</time>
      </trkpt>
      <trkpt lat="10.1584131710294" lon="-75.6814608757289">
        <ele>55.1851891</ele>
        <time>2019-09-10T14:48:55.100Z</time>
      </trkpt>
      <trkpt lat="10.1584120824993" lon="-75.6814628601308">
        <ele>55.2851891</ele>
        <time>2019-09-10T14:48:55.200Z</time>
      </trkpt>
      <trkpt lat="10.1584109145141" lon="-75.6814649445699">
        <ele>55.2851891</ele>
        <time>2019-09-10T14:48:55.300Z</time>
      </trkpt>
      <trkpt lat="10.1584085217111" lon="-75.6814690655967">
        <ele>55.2851891</ele>
        <time>2019-09-10T14:48:55.500Z</time>
      </trkpt>
      <trkpt lat="10.1584073112365" lon="-75.6814710951171">
        <ele>55.2851891</ele>
        <time>2019-09-10T14:48:55.600Z</time>
      </trkpt>
      <trkpt lat="10.1584060746027" lon="-75.6814731865539">
        <ele>55.2851891</ele>
        <time>2019-09-10T14:48:55.700Z</time>
      </trkpt>
      <trkpt lat="10.1584048693196" lon="-75.6814752517236">
        <ele>55.2851891</ele>
        <time>2019-09-10T14:48:55.800Z</time>
      </trkpt>
      <trkpt lat="10.1584035732997" lon="-75.6814773975394">
        <ele>55.2851891</ele>
        <time>2019-09-10T14:48:55.900Z</time>
      </trkpt>
      <trkpt lat="10.158402288757" lon="-75.6814795122317">
        <ele>55.2851891</ele>
        <time>2019-09-10T14:48:56.000Z</time>
      </trkpt>
      <trkpt lat="10.15840097571" lon="-75.6814816583087">
        <ele>55.1851891</ele>
        <time>2019-09-10T14:48:56.100Z</time>
      </trkpt>
      <trkpt lat="10.1583996953101" lon="-75.6814837658989">
        <ele>55.1851891</ele>
        <time>2019-09-10T14:48:56.200Z</time>
      </trkpt>
      <trkpt lat="10.1583983921771" lon="-75.6814859150221">
        <ele>55.1851891</ele>
        <time>2019-09-10T14:48:56.300Z</time>
      </trkpt>
      <trkpt lat="10.1583971210007" lon="-75.6814880320121">
        <ele>55.1851891</ele>
        <time>2019-09-10T14:48:56.400Z</time>
      </trkpt>
      <trkpt lat="10.1583958265962" lon="-75.6814902101003">
        <ele>55.1851891</ele>
        <time>2019-09-10T14:48:56.500Z</time>
      </trkpt>
      <trkpt lat="10.1583932752283" lon="-75.6814945216628">
        <ele>55.0851891</ele>
        <time>2019-09-10T14:48:56.700Z</time>
      </trkpt>
      <trkpt lat="10.1583920101227" lon="-75.6814966534486">
        <ele>55.1851891</ele>
        <time>2019-09-10T14:48:56.800Z</time>
      </trkpt>
      <trkpt lat="10.1583907103248" lon="-75.6814988292217">
        <ele>55.1851891</ele>
        <time>2019-09-10T14:48:56.900Z</time>
      </trkpt>
      <trkpt lat="10.1583894257691" lon="-75.6815009896419">
        <ele>55.1851891</ele>
        <time>2019-09-10T14:48:57.000Z</time>
      </trkpt>
      <trkpt lat="10.1583880970499" lon="-75.6815032484284">
        <ele>55.1851891</ele>
        <time>2019-09-10T14:48:57.100Z</time>
      </trkpt>
      <trkpt lat="10.1583867890446" lon="-75.6815054825145">
        <ele>55.1851891</ele>
        <time>2019-09-10T14:48:57.200Z</time>
      </trkpt>
      <trkpt lat="10.1583854501771" lon="-75.6815077400476">
        <ele>55.1851891</ele>
        <time>2019-09-10T14:48:57.300Z</time>
      </trkpt>
      <trkpt lat="10.1583841385762" lon="-75.681509948946">
        <ele>55.1851891</ele>
        <time>2019-09-10T14:48:57.400Z</time>
      </trkpt>
      <trkpt lat="10.1583828102218" lon="-75.6815121904126">
        <ele>55.1851891</ele>
        <time>2019-09-10T14:48:57.500Z</time>
      </trkpt>
      <trkpt lat="10.1583815105021" lon="-75.6815144021483">
        <ele>55.1851891</ele>
        <time>2019-09-10T14:48:57.600Z</time>
      </trkpt>
      <trkpt lat="10.1583802280177" lon="-75.6815166405339">
        <ele>55.1851891</ele>
        <time>2019-09-10T14:48:57.700Z</time>
      </trkpt>
      <trkpt lat="10.1583789690872" lon="-75.6815188486315">
        <ele>55.1851891</ele>
        <time>2019-09-10T14:48:57.800Z</time>
      </trkpt>
      <trkpt lat="10.158377703669" lon="-75.6815211396381">
        <ele>55.1851891</ele>
        <time>2019-09-10T14:48:57.900Z</time>
      </trkpt>
      <trkpt lat="10.1583764441392" lon="-75.6815234074414">
        <ele>55.1851891</ele>
        <time>2019-09-10T14:48:58.000Z</time>
      </trkpt>
      <trkpt lat="10.1583751990309" lon="-75.6815256590736">
        <ele>55.1851891</ele>
        <time>2019-09-10T14:48:58.100Z</time>
      </trkpt>
      <trkpt lat="10.1583739624817" lon="-75.6815278702871">
        <ele>55.1851891</ele>
        <time>2019-09-10T14:48:58.200Z</time>
      </trkpt>
      <trkpt lat="10.1583727018316" lon="-75.6815300880629">
        <ele>55.1851891</ele>
        <time>2019-09-10T14:48:58.300Z</time>
      </trkpt>
      <trkpt lat="10.1583714367781" lon="-75.6815322837669">
        <ele>55.1851891</ele>
        <time>2019-09-10T14:48:58.400Z</time>
      </trkpt>
      <trkpt lat="10.1583701744083" lon="-75.6815345123176">
        <ele>55.1851891</ele>
        <time>2019-09-10T14:48:58.500Z</time>
      </trkpt>
      <trkpt lat="10.1583689225778" lon="-75.6815367344104">
        <ele>55.1851891</ele>
        <time>2019-09-10T14:48:58.600Z</time>
      </trkpt>
      <trkpt lat="10.1583676430247" lon="-75.6815389711249">
        <ele>55.1851891</ele>
        <time>2019-09-10T14:48:58.700Z</time>
      </trkpt>
      <trkpt lat="10.1583663579088" lon="-75.6815411926432">
        <ele>55.1851891</ele>
        <time>2019-09-10T14:48:58.800Z</time>
      </trkpt>
      <trkpt lat="10.1583650381918" lon="-75.6815433986695">
        <ele>55.1851891</ele>
        <time>2019-09-10T14:48:58.900Z</time>
      </trkpt>
      <trkpt lat="10.1583637167029" lon="-75.6815455948608">
        <ele>55.1851891</ele>
        <time>2019-09-10T14:48:59.000Z</time>
      </trkpt>
      <trkpt lat="10.1583623560794" lon="-75.6815478591478">
        <ele>55.1851891</ele>
        <time>2019-09-10T14:48:59.100Z</time>
      </trkpt>
      <trkpt lat="10.1583596377113" lon="-75.6815524480716">
        <ele>55.1851891</ele>
        <time>2019-09-10T14:48:59.300Z</time>
      </trkpt>
      <trkpt lat="10.1583582874316" lon="-75.6815547329161">
        <ele>55.1851891</ele>
        <time>2019-09-10T14:48:59.400Z</time>
      </trkpt>
      <trkpt lat="10.1583569199555" lon="-75.6815570247757">
        <ele>55.1851891</ele>
        <time>2019-09-10T14:48:59.500Z</time>
      </trkpt>
      <trkpt lat="10.1583555728415" lon="-75.6815592993328">
        <ele>55.1851891</ele>
        <time>2019-09-10T14:48:59.600Z</time>
      </trkpt>
      <trkpt lat="10.1583542127911" lon="-75.6815616087385">
        <ele>55.1851891</ele>
        <time>2019-09-10T14:48:59.700Z</time>
      </trkpt>
      <trkpt lat="10.1583528645698" lon="-75.6815639116688">
        <ele>55.1851891</ele>
        <time>2019-09-10T14:48:59.800Z</time>
      </trkpt>
      <trkpt lat="10.1583515228622" lon="-75.6815662134851">
        <ele>55.1851891</ele>
        <time>2019-09-10T14:48:59.900Z</time>
      </trkpt>
      <trkpt lat="10.1583501941822" lon="-75.68156849826">
        <ele>55.1851891</ele>
        <time>2019-09-10T14:49:00.000Z</time>
      </trkpt>
      <trkpt lat="10.1583488691629" lon="-75.6815707450532">
        <ele>55.1851891</ele>
        <time>2019-09-10T14:49:00.100Z</time>
      </trkpt>
      <trkpt lat="10.1583475477262" lon="-75.6815729716717">
        <ele>55.1851891</ele>
        <time>2019-09-10T14:49:00.200Z</time>
      </trkpt>
      <trkpt lat="10.1583448425289" lon="-75.6815774770946">
        <ele>55.1851891</ele>
        <time>2019-09-10T14:49:00.400Z</time>
      </trkpt>
      <trkpt lat="10.1583434303814" lon="-75.6815797684842">
        <ele>55.1851891</ele>
        <time>2019-09-10T14:49:00.500Z</time>
      </trkpt>
      <trkpt lat="10.1583420187028" lon="-75.6815820606223">
        <ele>55.1851891</ele>
        <time>2019-09-10T14:49:00.600Z</time>
      </trkpt>
      <trkpt lat="10.1583405987387" lon="-75.6815843196176">
        <ele>55.1851891</ele>
        <time>2019-09-10T14:49:00.700Z</time>
      </trkpt>
      <trkpt lat="10.1583377979063" lon="-75.681588793743">
        <ele>55.1851891</ele>
        <time>2019-09-10T14:49:00.900Z</time>
      </trkpt>
      <trkpt lat="10.1583364131166" lon="-75.6815910315019">
        <ele>55.1851891</ele>
        <time>2019-09-10T14:49:01.000Z</time>
      </trkpt>
      <trkpt lat="10.1583350417974" lon="-75.6815932664758">
        <ele>55.2851891</ele>
        <time>2019-09-10T14:49:01.100Z</time>
      </trkpt>
      <trkpt lat="10.1583336880393" lon="-75.6815955107797">
        <ele>55.2851891</ele>
        <time>2019-09-10T14:49:01.200Z</time>
      </trkpt>
      <trkpt lat="10.1583323446642" lon="-75.6815977869383">
        <ele>55.2851891</ele>
        <time>2019-09-10T14:49:01.300Z</time>
      </trkpt>
      <trkpt lat="10.1583310041552" lon="-75.6816000789023">
        <ele>55.2851891</ele>
        <time>2019-09-10T14:49:01.400Z</time>
      </trkpt>
      <trkpt lat="10.1583296694564" lon="-75.6816023726766">
        <ele>55.2851891</ele>
        <time>2019-09-10T14:49:01.500Z</time>
      </trkpt>
      <trkpt lat="10.158328337285" lon="-75.6816046588266">
        <ele>55.2851891</ele>
        <time>2019-09-10T14:49:01.600Z</time>
      </trkpt>
      <trkpt lat="10.158327010494" lon="-75.6816069318519">
        <ele>55.2851891</ele>
        <time>2019-09-10T14:49:01.700Z</time>
      </trkpt>
      <trkpt lat="10.1583256852923" lon="-75.6816091991678">
        <ele>55.2851891</ele>
        <time>2019-09-10T14:49:01.800Z</time>
      </trkpt>
      <trkpt lat="10.1583243598952" lon="-75.6816114506434">
        <ele>55.2851891</ele>
        <time>2019-09-10T14:49:01.900Z</time>
      </trkpt>
      <trkpt lat="10.1583230328306" lon="-75.6816137079329">
        <ele>55.2851891</ele>
        <time>2019-09-10T14:49:02.000Z</time>
      </trkpt>
      <trkpt lat="10.1583216757896" lon="-75.6816159546389">
        <ele>55.2851891</ele>
        <time>2019-09-10T14:49:02.100Z</time>
      </trkpt>
      <trkpt lat="10.1583203109321" lon="-75.6816182105359">
        <ele>55.2851891</ele>
        <time>2019-09-10T14:49:02.200Z</time>
      </trkpt>
      <trkpt lat="10.1583189391569" lon="-75.6816204580079">
        <ele>55.2851891</ele>
        <time>2019-09-10T14:49:02.300Z</time>
      </trkpt>
      <trkpt lat="10.1583175838225" lon="-75.6816227130345">
        <ele>55.2851891</ele>
        <time>2019-09-10T14:49:02.400Z</time>
      </trkpt>
      <trkpt lat="10.1583162273938" lon="-75.6816249589747">
        <ele>55.2851891</ele>
        <time>2019-09-10T14:49:02.500Z</time>
      </trkpt>
      <trkpt lat="10.1583135618133" lon="-75.6816294659294">
        <ele>55.2851891</ele>
        <time>2019-09-10T14:49:02.700Z</time>
      </trkpt>
      <trkpt lat="10.1583109379471" lon="-75.681633978698">
        <ele>55.2851891</ele>
        <time>2019-09-10T14:49:02.900Z</time>
      </trkpt>
      <trkpt lat="10.1583096135662" lon="-75.6816362374497">
        <ele>55.2851891</ele>
        <time>2019-09-10T14:49:03.000Z</time>
      </trkpt>
      <trkpt lat="10.1583082560301" lon="-75.6816385378038">
        <ele>55.3851891</ele>
        <time>2019-09-10T14:49:03.100Z</time>
      </trkpt>
      <trkpt lat="10.1583068737157" lon="-75.6816408636764">
        <ele>55.3851891</ele>
        <time>2019-09-10T14:49:03.200Z</time>
      </trkpt>
      <trkpt lat="10.1583054876493" lon="-75.6816431756583">
        <ele>55.3851891</ele>
        <time>2019-09-10T14:49:03.300Z</time>
      </trkpt>
      <trkpt lat="10.1583041023124" lon="-75.6816454763953">
        <ele>55.3851891</ele>
        <time>2019-09-10T14:49:03.400Z</time>
      </trkpt>
      <trkpt lat="10.158302728023" lon="-75.6816477813797">
        <ele>55.3851891</ele>
        <time>2019-09-10T14:49:03.500Z</time>
      </trkpt>
      <trkpt lat="10.1583013618105" lon="-75.6816500934312">
        <ele>55.3851891</ele>
        <time>2019-09-10T14:49:03.600Z</time>
      </trkpt>
      <trkpt lat="10.1582986781348" lon="-75.6816547070553">
        <ele>55.3851891</ele>
        <time>2019-09-10T14:49:03.800Z</time>
      </trkpt>
      <trkpt lat="10.1582973257186" lon="-75.6816570314309">
        <ele>55.3851891</ele>
        <time>2019-09-10T14:49:03.900Z</time>
      </trkpt>
      <trkpt lat="10.1582959582556" lon="-75.6816593632566">
        <ele>55.3851891</ele>
        <time>2019-09-10T14:49:04.000Z</time>
      </trkpt>
      <trkpt lat="10.1582946041718" lon="-75.6816616902085">
        <ele>55.3851891</ele>
        <time>2019-09-10T14:49:04.100Z</time>
      </trkpt>
      <trkpt lat="10.1582918781045" lon="-75.6816663510748">
        <ele>55.3851891</ele>
        <time>2019-09-10T14:49:04.300Z</time>
      </trkpt>
      <trkpt lat="10.1582904967931" lon="-75.6816686988105">
        <ele>55.3851891</ele>
        <time>2019-09-10T14:49:04.400Z</time>
      </trkpt>
      <trkpt lat="10.1582891013339" lon="-75.6816710384345">
        <ele>55.3851891</ele>
        <time>2019-09-10T14:49:04.500Z</time>
      </trkpt>
      <trkpt lat="10.1582863249541" lon="-75.6816757119035">
        <ele>55.3851891</ele>
        <time>2019-09-10T14:49:04.700Z</time>
      </trkpt>
      <trkpt lat="10.15828358341" lon="-75.68168036713">
        <ele>55.3851891</ele>
        <time>2019-09-10T14:49:04.900Z</time>
      </trkpt>
      <trkpt lat="10.1582821915985" lon="-75.681682689939">
        <ele>55.3851891</ele>
        <time>2019-09-10T14:49:05.000Z</time>
      </trkpt>
      <trkpt lat="10.1582807912669" lon="-75.6816849855584">
        <ele>55.3851891</ele>
        <time>2019-09-10T14:49:05.100Z</time>
      </trkpt>
      <trkpt lat="10.1582793859849" lon="-75.6816872908213">
        <ele>55.3851891</ele>
        <time>2019-09-10T14:49:05.200Z</time>
      </trkpt>
      <trkpt lat="10.1582779908383" lon="-75.6816895785728">
        <ele>55.3851891</ele>
        <time>2019-09-10T14:49:05.300Z</time>
      </trkpt>
      <trkpt lat="10.1582766075207" lon="-75.6816918841489">
        <ele>55.3851891</ele>
        <time>2019-09-10T14:49:05.400Z</time>
      </trkpt>
      <trkpt lat="10.1582752339738" lon="-75.6816941704731">
        <ele>55.3851891</ele>
        <time>2019-09-10T14:49:05.500Z</time>
      </trkpt>
      <trkpt lat="10.1582724407103" lon="-75.6816988212435">
        <ele>55.2851891</ele>
        <time>2019-09-10T14:49:05.700Z</time>
      </trkpt>
      <trkpt lat="10.158271017815" lon="-75.6817011891363">
        <ele>55.2851891</ele>
        <time>2019-09-10T14:49:05.800Z</time>
      </trkpt>
      <trkpt lat="10.1582696262901" lon="-75.6817035039033">
        <ele>55.2851891</ele>
        <time>2019-09-10T14:49:05.900Z</time>
      </trkpt>
      <trkpt lat="10.1582682676727" lon="-75.6817058027952">
        <ele>55.2851891</ele>
        <time>2019-09-10T14:49:06.000Z</time>
      </trkpt>
      <trkpt lat="10.1582669070752" lon="-75.6817081070485">
        <ele>55.2851891</ele>
        <time>2019-09-10T14:49:06.100Z</time>
      </trkpt>
      <trkpt lat="10.1582641997415" lon="-75.6817127550337">
        <ele>55.2851891</ele>
        <time>2019-09-10T14:49:06.300Z</time>
      </trkpt>
      <trkpt lat="10.1582628521715" lon="-75.6817150806278">
        <ele>55.2851891</ele>
        <time>2019-09-10T14:49:06.400Z</time>
      </trkpt>
      <trkpt lat="10.1582614966026" lon="-75.6817174051775">
        <ele>55.2851891</ele>
        <time>2019-09-10T14:49:06.500Z</time>
      </trkpt>
      <trkpt lat="10.158258751489" lon="-75.681722064338">
        <ele>55.2851891</ele>
        <time>2019-09-10T14:49:06.700Z</time>
      </trkpt>
      <trkpt lat="10.1582559894134" lon="-75.6817267098863">
        <ele>55.2851891</ele>
        <time>2019-09-10T14:49:06.900Z</time>
      </trkpt>
      <trkpt lat="10.1582546225887" lon="-75.6817290525044">
        <ele>55.2851891</ele>
        <time>2019-09-10T14:49:07.000Z</time>
      </trkpt>
      <trkpt lat="10.15825326616" lon="-75.6817314007622">
        <ele>55.2851891</ele>
        <time>2019-09-10T14:49:07.100Z</time>
      </trkpt>
      <trkpt lat="10.1582519049372" lon="-75.6817337623885">
        <ele>55.2851891</ele>
        <time>2019-09-10T14:49:07.200Z</time>
      </trkpt>
      <trkpt lat="10.1582505526512" lon="-75.6817361007244">
        <ele>55.2851891</ele>
        <time>2019-09-10T14:49:07.300Z</time>
      </trkpt>
      <trkpt lat="10.1582478419824" lon="-75.6817407818872">
        <ele>55.3851891</ele>
        <time>2019-09-10T14:49:07.500Z</time>
      </trkpt>
      <trkpt lat="10.1582451085415" lon="-75.6817454916321">
        <ele>55.3851891</ele>
        <time>2019-09-10T14:49:07.700Z</time>
      </trkpt>
      <trkpt lat="10.1582437113886" lon="-75.681747855208">
        <ele>55.3851891</ele>
        <time>2019-09-10T14:49:07.800Z</time>
      </trkpt>
      <trkpt lat="10.1582423300513" lon="-75.6817502074694">
        <ele>55.3851891</ele>
        <time>2019-09-10T14:49:07.900Z</time>
      </trkpt>
      <trkpt lat="10.158240945014" lon="-75.681752571289">
        <ele>55.3851891</ele>
        <time>2019-09-10T14:49:08.000Z</time>
      </trkpt>
      <trkpt lat="10.1582395667772" lon="-75.6817549250823">
        <ele>55.3851891</ele>
        <time>2019-09-10T14:49:08.100Z</time>
      </trkpt>
      <trkpt lat="10.1582367546238" lon="-75.6817596797717">
        <ele>55.3851891</ele>
        <time>2019-09-10T14:49:08.300Z</time>
      </trkpt>
      <trkpt lat="10.1582339042996" lon="-75.6817644223112">
        <ele>55.3851891</ele>
        <time>2019-09-10T14:49:08.500Z</time>
      </trkpt>
      <trkpt lat="10.1582310915209" lon="-75.6817690387204">
        <ele>55.3851891</ele>
        <time>2019-09-10T14:49:08.700Z</time>
      </trkpt>
      <trkpt lat="10.1582297044253" lon="-75.6817713737142">
        <ele>55.3851891</ele>
        <time>2019-09-10T14:49:08.800Z</time>
      </trkpt>
      <trkpt lat="10.1582283328846" lon="-75.6817737111101">
        <ele>55.2851891</ele>
        <time>2019-09-10T14:49:08.900Z</time>
      </trkpt>
      <trkpt lat="10.1582269542049" lon="-75.681776070578">
        <ele>55.2851891</ele>
        <time>2019-09-10T14:49:09.000Z</time>
      </trkpt>
      <trkpt lat="10.1582255811791" lon="-75.6817784227002">
        <ele>55.2851891</ele>
        <time>2019-09-10T14:49:09.100Z</time>
      </trkpt>
      <trkpt lat="10.1582241945004" lon="-75.6817807874249">
        <ele>55.2851891</ele>
        <time>2019-09-10T14:49:09.200Z</time>
      </trkpt>
      <trkpt lat="10.1582228070921" lon="-75.6817831399997">
        <ele>55.2851891</ele>
        <time>2019-09-10T14:49:09.300Z</time>
      </trkpt>
      <trkpt lat="10.1582214087408" lon="-75.6817855003379">
        <ele>55.2851891</ele>
        <time>2019-09-10T14:49:09.400Z</time>
      </trkpt>
      <trkpt lat="10.1582200106499" lon="-75.6817878414589">
        <ele>55.2851891</ele>
        <time>2019-09-10T14:49:09.500Z</time>
      </trkpt>
      <trkpt lat="10.158217219523" lon="-75.6817925626924">
        <ele>55.2851891</ele>
        <time>2019-09-10T14:49:09.700Z</time>
      </trkpt>
      <trkpt lat="10.1582145025228" lon="-75.6817973054059">
        <ele>55.2851891</ele>
        <time>2019-09-10T14:49:09.900Z</time>
      </trkpt>
      <trkpt lat="10.1582131643066" lon="-75.6817996616709">
        <ele>55.2851891</ele>
        <time>2019-09-10T14:49:10.000Z</time>
      </trkpt>
      <trkpt lat="10.158211823511" lon="-75.681801998475">
        <ele>55.2851891</ele>
        <time>2019-09-10T14:49:10.100Z</time>
      </trkpt>
      <trkpt lat="10.1582090958803" lon="-75.6818066702033">
        <ele>55.2851891</ele>
        <time>2019-09-10T14:49:10.300Z</time>
      </trkpt>
      <trkpt lat="10.1582077173569" lon="-75.6818090078777">
        <ele>55.2851891</ele>
        <time>2019-09-10T14:49:10.400Z</time>
      </trkpt>
      <trkpt lat="10.1582063529032" lon="-75.6818113330192">
        <ele>55.2851891</ele>
        <time>2019-09-10T14:49:10.500Z</time>
      </trkpt>
      <trkpt lat="10.1582049874594" lon="-75.6818136626169">
        <ele>55.2851891</ele>
        <time>2019-09-10T14:49:10.600Z</time>
      </trkpt>
      <trkpt lat="10.1582036096134" lon="-75.6818159665568">
        <ele>55.2851891</ele>
        <time>2019-09-10T14:49:10.700Z</time>
      </trkpt>
      <trkpt lat="10.1582008113213" lon="-75.6818206038543">
        <ele>55.2851891</ele>
        <time>2019-09-10T14:49:10.900Z</time>
      </trkpt>
      <trkpt lat="10.1581994031732" lon="-75.6818229541661">
        <ele>55.2851891</ele>
        <time>2019-09-10T14:49:11.000Z</time>
      </trkpt>
      <trkpt lat="10.1581980159994" lon="-75.6818252611348">
        <ele>55.2851891</ele>
        <time>2019-09-10T14:49:11.100Z</time>
      </trkpt>
      <trkpt lat="10.1581952433195" lon="-75.6818298589187">
        <ele>55.2851891</ele>
        <time>2019-09-10T14:49:11.300Z</time>
      </trkpt>
      <trkpt lat="10.1581924632139" lon="-75.6818344785308">
        <ele>55.3851891</ele>
        <time>2019-09-10T14:49:11.500Z</time>
      </trkpt>
      <trkpt lat="10.1581896955626" lon="-75.6818391077166">
        <ele>55.2851891</ele>
        <time>2019-09-10T14:49:11.700Z</time>
      </trkpt>
      <trkpt lat="10.1581869182187" lon="-75.6818436802257">
        <ele>55.3851891</ele>
        <time>2019-09-10T14:49:11.900Z</time>
      </trkpt>
      <trkpt lat="10.1581841495252" lon="-75.6818482000963">
        <ele>55.2851891</ele>
        <time>2019-09-10T14:49:12.100Z</time>
      </trkpt>
      <trkpt lat="10.1581814149379" lon="-75.6818527045097">
        <ele>55.2851891</ele>
        <time>2019-09-10T14:49:12.300Z</time>
      </trkpt>
      <trkpt lat="10.1581787006474" lon="-75.6818572442242">
        <ele>55.2851891</ele>
        <time>2019-09-10T14:49:12.500Z</time>
      </trkpt>
      <trkpt lat="10.1581759171546" lon="-75.681861815271">
        <ele>55.2851891</ele>
        <time>2019-09-10T14:49:12.700Z</time>
      </trkpt>
      <trkpt lat="10.1581730810044" lon="-75.6818664544484">
        <ele>55.2851891</ele>
        <time>2019-09-10T14:49:12.900Z</time>
      </trkpt>
      <trkpt lat="10.1581702556671" lon="-75.6818710825551">
        <ele>55.2851891</ele>
        <time>2019-09-10T14:49:13.100Z</time>
      </trkpt>
      <trkpt lat="10.1581688511928" lon="-75.6818733794278">
        <ele>55.2851891</ele>
        <time>2019-09-10T14:49:13.200Z</time>
      </trkpt>
      <trkpt lat="10.1581674566194" lon="-75.6818756797819">
        <ele>55.3851891</ele>
        <time>2019-09-10T14:49:13.300Z</time>
      </trkpt>
      <trkpt lat="10.1581660561315" lon="-75.6818780183615">
        <ele>55.3851891</ele>
        <time>2019-09-10T14:49:13.400Z</time>
      </trkpt>
      <trkpt lat="10.1581646568422" lon="-75.6818803647394">
        <ele>55.3851891</ele>
        <time>2019-09-10T14:49:13.500Z</time>
      </trkpt>
      <trkpt lat="10.1581618333026" lon="-75.6818850839537">
        <ele>55.3851891</ele>
        <time>2019-09-10T14:49:13.700Z</time>
      </trkpt>
      <trkpt lat="10.1581590182571" lon="-75.6818897560301">
        <ele>55.2851891</ele>
        <time>2019-09-10T14:49:13.900Z</time>
      </trkpt>
      <trkpt lat="10.1581562809861" lon="-75.6818943416291">
        <ele>55.3851891</ele>
        <time>2019-09-10T14:49:14.100Z</time>
      </trkpt>
      <trkpt lat="10.1581535387385" lon="-75.681898985019">
        <ele>55.2851891</ele>
        <time>2019-09-10T14:49:14.300Z</time>
      </trkpt>
      <trkpt lat="10.1581507844795" lon="-75.6819036514556">
        <ele>55.2851891</ele>
        <time>2019-09-10T14:49:14.500Z</time>
      </trkpt>
      <trkpt lat="10.1581480251919" lon="-75.6819082543919">
        <ele>55.3851891</ele>
        <time>2019-09-10T14:49:14.700Z</time>
      </trkpt>
      <trkpt lat="10.1581452612925" lon="-75.681912835117">
        <ele>55.2851891</ele>
        <time>2019-09-10T14:49:14.900Z</time>
      </trkpt>
      <trkpt lat="10.1581425162831" lon="-75.6819174365911">
        <ele>55.2851891</ele>
        <time>2019-09-10T14:49:15.100Z</time>
      </trkpt>
      <trkpt lat="10.1581397421701" lon="-75.6819220884755">
        <ele>55.2851891</ele>
        <time>2019-09-10T14:49:15.300Z</time>
      </trkpt>
      <trkpt lat="10.1581383494466" lon="-75.6819244198138">
        <ele>55.2851891</ele>
        <time>2019-09-10T14:49:15.400Z</time>
      </trkpt>
      <trkpt lat="10.1581369375727" lon="-75.6819267576276">
        <ele>55.2851891</ele>
        <time>2019-09-10T14:49:15.500Z</time>
      </trkpt>
      <trkpt lat="10.1581341178633" lon="-75.6819314506618">
        <ele>55.2851891</ele>
        <time>2019-09-10T14:49:15.700Z</time>
      </trkpt>
      <trkpt lat="10.1581313591228" lon="-75.6819361072113">
        <ele>55.2851891</ele>
        <time>2019-09-10T14:49:15.900Z</time>
      </trkpt>
      <trkpt lat="10.1581299751538" lon="-75.6819384544248">
        <ele>55.2851891</ele>
        <time>2019-09-10T14:49:16.000Z</time>
      </trkpt>
      <trkpt lat="10.1581285565055" lon="-75.6819408601253">
        <ele>55.2851891</ele>
        <time>2019-09-10T14:49:16.100Z</time>
      </trkpt>
      <trkpt lat="10.1581257093341" lon="-75.681945687123">
        <ele>55.2851891</ele>
        <time>2019-09-10T14:49:16.300Z</time>
      </trkpt>
      <trkpt lat="10.1581243158029" lon="-75.6819480573831">
        <ele>55.2851891</ele>
        <time>2019-09-10T14:49:16.400Z</time>
      </trkpt>
      <trkpt lat="10.1581229339444" lon="-75.6819504070335">
        <ele>55.2851891</ele>
        <time>2019-09-10T14:49:16.500Z</time>
      </trkpt>
      <trkpt lat="10.1581215391104" lon="-75.6819527701916">
        <ele>55.2851891</ele>
        <time>2019-09-10T14:49:16.600Z</time>
      </trkpt>
      <trkpt lat="10.158118736415" lon="-75.6819575269351">
        <ele>55.2851891</ele>
        <time>2019-09-10T14:49:16.800Z</time>
      </trkpt>
      <trkpt lat="10.1581173671411" lon="-75.6819598651666">
        <ele>55.2851891</ele>
        <time>2019-09-10T14:49:16.900Z</time>
      </trkpt>
      <trkpt lat="10.1581146301306" lon="-75.6819645279129">
        <ele>55.3851891</ele>
        <time>2019-09-10T14:49:17.100Z</time>
      </trkpt>
      <trkpt lat="10.158113224067" lon="-75.6819669016544">
        <ele>55.3851891</ele>
        <time>2019-09-10T14:49:17.200Z</time>
      </trkpt>
      <trkpt lat="10.1581118061743" lon="-75.6819693157799">
        <ele>55.3851891</ele>
        <time>2019-09-10T14:49:17.300Z</time>
      </trkpt>
      <trkpt lat="10.1581103690789" lon="-75.6819717516291">
        <ele>55.3851891</ele>
        <time>2019-09-10T14:49:17.400Z</time>
      </trkpt>
      <trkpt lat="10.1581089196596" lon="-75.6819741979225">
        <ele>55.3851891</ele>
        <time>2019-09-10T14:49:17.500Z</time>
      </trkpt>
      <trkpt lat="10.158107469693" lon="-75.6819766416397">
        <ele>55.2851891</ele>
        <time>2019-09-10T14:49:17.600Z</time>
      </trkpt>
      <trkpt lat="10.1581060184237" lon="-75.6819790802044">
        <ele>55.3851891</ele>
        <time>2019-09-10T14:49:17.700Z</time>
      </trkpt>
      <trkpt lat="10.15810456791" lon="-75.6819815123634">
        <ele>55.3851891</ele>
        <time>2019-09-10T14:49:17.800Z</time>
      </trkpt>
      <trkpt lat="10.1581031152859" lon="-75.6819839307362">
        <ele>55.3851891</ele>
        <time>2019-09-10T14:49:17.900Z</time>
      </trkpt>
      <trkpt lat="10.158100234816" lon="-75.6819887470112">
        <ele>55.2851891</ele>
        <time>2019-09-10T14:49:18.100Z</time>
      </trkpt>
      <trkpt lat="10.1580988106701" lon="-75.6819911497177">
        <ele>55.2851891</ele>
        <time>2019-09-10T14:49:18.200Z</time>
      </trkpt>
      <trkpt lat="10.1580973929858" lon="-75.6819935114833">
        <ele>55.2851891</ele>
        <time>2019-09-10T14:49:18.300Z</time>
      </trkpt>
      <trkpt lat="10.1580959672505" lon="-75.6819958758948">
        <ele>55.2851891</ele>
        <time>2019-09-10T14:49:18.400Z</time>
      </trkpt>
      <trkpt lat="10.1580945744749" lon="-75.6819982025681">
        <ele>55.2851891</ele>
        <time>2019-09-10T14:49:18.500Z</time>
      </trkpt>
      <trkpt lat="10.1580931751074" lon="-75.6820005403818">
        <ele>55.2851891</ele>
        <time>2019-09-10T14:49:18.600Z</time>
      </trkpt>
      <trkpt lat="10.1580917501017" lon="-75.6820028763852">
        <ele>55.2851891</ele>
        <time>2019-09-10T14:49:18.700Z</time>
      </trkpt>
      <trkpt lat="10.1580903024019" lon="-75.6820052390559">
        <ele>55.2851891</ele>
        <time>2019-09-10T14:49:18.800Z</time>
      </trkpt>
      <trkpt lat="10.158088895296" lon="-75.6820075271556">
        <ele>55.2851891</ele>
        <time>2019-09-10T14:49:18.900Z</time>
      </trkpt>
      <trkpt lat="10.1580861067485" lon="-75.6820120606036">
        <ele>55.1851891</ele>
        <time>2019-09-10T14:49:19.100Z</time>
      </trkpt>
      <trkpt lat="10.1580833094986" lon="-75.6820165958619">
        <ele>55.1851891</ele>
        <time>2019-09-10T14:49:19.300Z</time>
      </trkpt>
      <trkpt lat="10.1580819117205" lon="-75.6820188813157">
        <ele>55.1851891</ele>
        <time>2019-09-10T14:49:19.400Z</time>
      </trkpt>
      <trkpt lat="10.1580805329886" lon="-75.6820211199102">
        <ele>55.1851891</ele>
        <time>2019-09-10T14:49:19.500Z</time>
      </trkpt>
      <trkpt lat="10.1580791478993" lon="-75.6820233805766">
        <ele>55.1851891</ele>
        <time>2019-09-10T14:49:19.600Z</time>
      </trkpt>
      <trkpt lat="10.1580777808401" lon="-75.6820256556559">
        <ele>55.1851891</ele>
        <time>2019-09-10T14:49:19.700Z</time>
      </trkpt>
      <trkpt lat="10.1580764170638" lon="-75.6820279773161">
        <ele>55.1851891</ele>
        <time>2019-09-10T14:49:19.800Z</time>
      </trkpt>
      <trkpt lat="10.1580750728289" lon="-75.6820302916653">
        <ele>55.1851891</ele>
        <time>2019-09-10T14:49:19.900Z</time>
      </trkpt>
      <trkpt lat="10.1580723591898" lon="-75.6820349628366">
        <ele>55.1851891</ele>
        <time>2019-09-10T14:49:20.100Z</time>
      </trkpt>
      <trkpt lat="10.158070989473" lon="-75.6820373170823">
        <ele>55.1851891</ele>
        <time>2019-09-10T14:49:20.200Z</time>
      </trkpt>
      <trkpt lat="10.158069632888" lon="-75.6820396689608">
        <ele>55.1851891</ele>
        <time>2019-09-10T14:49:20.300Z</time>
      </trkpt>
      <trkpt lat="10.1580669557781" lon="-75.6820443798198">
        <ele>55.1851891</ele>
        <time>2019-09-10T14:49:20.500Z</time>
      </trkpt>
      <trkpt lat="10.1580656299902" lon="-75.682046738661">
        <ele>55.1851891</ele>
        <time>2019-09-10T14:49:20.600Z</time>
      </trkpt>
      <trkpt lat="10.1580643137906" lon="-75.6820490910269">
        <ele>55.1851891</ele>
        <time>2019-09-10T14:49:20.700Z</time>
      </trkpt>
      <trkpt lat="10.1580629725259" lon="-75.6820514509125">
        <ele>55.2851891</ele>
        <time>2019-09-10T14:49:20.800Z</time>
      </trkpt>
      <trkpt lat="10.1580616403285" lon="-75.6820538043924">
        <ele>55.2851891</ele>
        <time>2019-09-10T14:49:20.900Z</time>
      </trkpt>
      <trkpt lat="10.1580602902051" lon="-75.6820561661579">
        <ele>55.2851891</ele>
        <time>2019-09-10T14:49:21.000Z</time>
      </trkpt>
      <trkpt lat="10.1580575517095" lon="-75.6820608782006">
        <ele>55.2851891</ele>
        <time>2019-09-10T14:49:21.200Z</time>
      </trkpt>
      <trkpt lat="10.1580561696425" lon="-75.682063261481">
        <ele>55.2851891</ele>
        <time>2019-09-10T14:49:21.300Z</time>
      </trkpt>
      <trkpt lat="10.158054779238" lon="-75.6820656595226">
        <ele>55.2851891</ele>
        <time>2019-09-10T14:49:21.400Z</time>
      </trkpt>
      <trkpt lat="10.1580534041017" lon="-75.6820680403661">
        <ele>55.2851891</ele>
        <time>2019-09-10T14:49:21.500Z</time>
      </trkpt>
      <trkpt lat="10.1580520325089" lon="-75.6820704159179">
        <ele>55.2851891</ele>
        <time>2019-09-10T14:49:21.600Z</time>
      </trkpt>
      <trkpt lat="10.1580506618541" lon="-75.6820727735058">
        <ele>55.2851891</ele>
        <time>2019-09-10T14:49:21.700Z</time>
      </trkpt>
      <trkpt lat="10.1580492823927" lon="-75.6820751365943">
        <ele>55.2851891</ele>
        <time>2019-09-10T14:49:21.800Z</time>
      </trkpt>
      <trkpt lat="10.1580479203882" lon="-75.682077480396">
        <ele>55.2851891</ele>
        <time>2019-09-10T14:49:21.900Z</time>
      </trkpt>
      <trkpt lat="10.1580451881458" lon="-75.682082169183">
        <ele>55.3851891</ele>
        <time>2019-09-10T14:49:22.100Z</time>
      </trkpt>
      <trkpt lat="10.1580437997214" lon="-75.6820845202956">
        <ele>55.3851891</ele>
        <time>2019-09-10T14:49:22.200Z</time>
      </trkpt>
      <trkpt lat="10.1580424299525" lon="-75.682086860964">
        <ele>55.3851891</ele>
        <time>2019-09-10T14:49:22.300Z</time>
      </trkpt>
      <trkpt lat="10.1580410574738" lon="-75.6820892139566">
        <ele>55.3851891</ele>
        <time>2019-09-10T14:49:22.400Z</time>
      </trkpt>
      <trkpt lat="10.1580397103207" lon="-75.6820915313694">
        <ele>55.2851891</ele>
        <time>2019-09-10T14:49:22.500Z</time>
      </trkpt>
      <trkpt lat="10.1580383519639" lon="-75.6820938599923">
        <ele>55.2851891</ele>
        <time>2019-09-10T14:49:22.600Z</time>
      </trkpt>
      <trkpt lat="10.158037009605" lon="-75.6820961272733">
        <ele>55.2851891</ele>
        <time>2019-09-10T14:49:22.700Z</time>
      </trkpt>
      <trkpt lat="10.1580356481737" lon="-75.6820984046503">
        <ele>55.2851891</ele>
        <time>2019-09-10T14:49:22.800Z</time>
      </trkpt>
      <trkpt lat="10.1580342800723" lon="-75.6821006752735">
        <ele>55.2851891</ele>
        <time>2019-09-10T14:49:22.900Z</time>
      </trkpt>
      <trkpt lat="10.1580315161468" lon="-75.6821053017439">
        <ele>55.2851891</ele>
        <time>2019-09-10T14:49:23.100Z</time>
      </trkpt>
      <trkpt lat="10.1580301382487" lon="-75.6821076448493">
        <ele>55.2851891</ele>
        <time>2019-09-10T14:49:23.200Z</time>
      </trkpt>
      <trkpt lat="10.1580287521172" lon="-75.6821100197048">
        <ele>55.2851891</ele>
        <time>2019-09-10T14:49:23.300Z</time>
      </trkpt>
      <trkpt lat="10.1580273433177" lon="-75.6821124186515">
        <ele>55.2851891</ele>
        <time>2019-09-10T14:49:23.400Z</time>
      </trkpt>
      <trkpt lat="10.1580259181556" lon="-75.6821148128635">
        <ele>55.2851891</ele>
        <time>2019-09-10T14:49:23.500Z</time>
      </trkpt>
      <trkpt lat="10.1580244885642" lon="-75.6821172074236">
        <ele>55.2851891</ele>
        <time>2019-09-10T14:49:23.600Z</time>
      </trkpt>
      <trkpt lat="10.1580230721566" lon="-75.6821195849947">
        <ele>55.2851891</ele>
        <time>2019-09-10T14:49:23.700Z</time>
      </trkpt>
      <trkpt lat="10.1580202948389" lon="-75.6821243186218">
        <ele>55.2851891</ele>
        <time>2019-09-10T14:49:23.900Z</time>
      </trkpt>
      <trkpt lat="10.1580175717158" lon="-75.6821290176441">
        <ele>55.2851891</ele>
        <time>2019-09-10T14:49:24.100Z</time>
      </trkpt>
      <trkpt lat="10.1580161940261" lon="-75.6821313629079">
        <ele>55.2851891</ele>
        <time>2019-09-10T14:49:24.200Z</time>
      </trkpt>
      <trkpt lat="10.1580148143562" lon="-75.6821336628443">
        <ele>55.2851891</ele>
        <time>2019-09-10T14:49:24.300Z</time>
      </trkpt>
      <trkpt lat="10.1580134114452" lon="-75.6821359682812">
        <ele>55.2851891</ele>
        <time>2019-09-10T14:49:24.400Z</time>
      </trkpt>
      <trkpt lat="10.1580120492323" lon="-75.6821382339608">
        <ele>55.2851891</ele>
        <time>2019-09-10T14:49:24.500Z</time>
      </trkpt>
      <trkpt lat="10.1580106891558" lon="-75.6821405185094">
        <ele>55.2851891</ele>
        <time>2019-09-10T14:49:24.600Z</time>
      </trkpt>
      <trkpt lat="10.1580093026595" lon="-75.6821428276366">
        <ele>55.2851891</ele>
        <time>2019-09-10T14:49:24.700Z</time>
      </trkpt>
      <trkpt lat="10.1580078800508" lon="-75.6821451821609">
        <ele>55.2851891</ele>
        <time>2019-09-10T14:49:24.800Z</time>
      </trkpt>
      <trkpt lat="10.1580064806833" lon="-75.6821474924717">
        <ele>55.2851891</ele>
        <time>2019-09-10T14:49:24.900Z</time>
      </trkpt>
      <trkpt lat="10.158003665742" lon="-75.6821521062003">
        <ele>55.2851891</ele>
        <time>2019-09-10T14:49:25.100Z</time>
      </trkpt>
      <trkpt lat="10.1580007906134" lon="-75.682156793177">
        <ele>55.2851891</ele>
        <time>2019-09-10T14:49:25.300Z</time>
      </trkpt>
      <trkpt lat="10.1579993718609" lon="-75.6821591528537">
        <ele>55.1851891</ele>
        <time>2019-09-10T14:49:25.400Z</time>
      </trkpt>
      <trkpt lat="10.1579979509718" lon="-75.6821614823121">
        <ele>55.1851891</ele>
        <time>2019-09-10T14:49:25.500Z</time>
      </trkpt>
      <trkpt lat="10.1579965258619" lon="-75.6821638153912">
        <ele>55.1851891</ele>
        <time>2019-09-10T14:49:25.600Z</time>
      </trkpt>
      <trkpt lat="10.1579951177398" lon="-75.682166116163">
        <ele>55.1851891</ele>
        <time>2019-09-10T14:49:25.700Z</time>
      </trkpt>
      <trkpt lat="10.1579937143077" lon="-75.6821684335759">
        <ele>55.1851891</ele>
        <time>2019-09-10T14:49:25.800Z</time>
      </trkpt>
      <trkpt lat="10.1579923237468" lon="-75.6821707488999">
        <ele>55.1851891</ele>
        <time>2019-09-10T14:49:25.900Z</time>
      </trkpt>
      <trkpt lat="10.1579895354338" lon="-75.6821754228563">
        <ele>55.2851891</ele>
        <time>2019-09-10T14:49:26.100Z</time>
      </trkpt>
      <trkpt lat="10.1579867498305" lon="-75.6821801283539">
        <ele>55.2851891</ele>
        <time>2019-09-10T14:49:26.300Z</time>
      </trkpt>
      <trkpt lat="10.157985356143" lon="-75.6821824956897">
        <ele>55.2851891</ele>
        <time>2019-09-10T14:49:26.400Z</time>
      </trkpt>
      <trkpt lat="10.1579839766816" lon="-75.6821848557842">
        <ele>55.3851891</ele>
        <time>2019-09-10T14:49:26.500Z</time>
      </trkpt>
      <trkpt lat="10.1579825890389" lon="-75.6821872251392">
        <ele>55.3851891</ele>
        <time>2019-09-10T14:49:26.600Z</time>
      </trkpt>
      <trkpt lat="10.1579812135899" lon="-75.6821896054953">
        <ele>55.3851891</ele>
        <time>2019-09-10T14:49:26.700Z</time>
      </trkpt>
      <trkpt lat="10.1579798291259" lon="-75.6821919990806">
        <ele>55.3851891</ele>
        <time>2019-09-10T14:49:26.800Z</time>
      </trkpt>
      <trkpt lat="10.1579784701959" lon="-75.6821943483829">
        <ele>55.3851891</ele>
        <time>2019-09-10T14:49:26.900Z</time>
      </trkpt>
      <trkpt lat="10.1579757419139" lon="-75.6821990336885">
        <ele>55.3851891</ele>
        <time>2019-09-10T14:49:27.100Z</time>
      </trkpt>
      <trkpt lat="10.157972958864" lon="-75.6822037918246">
        <ele>55.3851891</ele>
        <time>2019-09-10T14:49:27.300Z</time>
      </trkpt>
      <trkpt lat="10.1579715633005" lon="-75.6822061869417">
        <ele>55.3851891</ele>
        <time>2019-09-10T14:49:27.400Z</time>
      </trkpt>
      <trkpt lat="10.1579701941569" lon="-75.6822085898572">
        <ele>55.3851891</ele>
        <time>2019-09-10T14:49:27.500Z</time>
      </trkpt>
      <trkpt lat="10.1579688266288" lon="-75.6822109947222">
        <ele>55.3851891</ele>
        <time>2019-09-10T14:49:27.600Z</time>
      </trkpt>
      <trkpt lat="10.1579674822896" lon="-75.6822133778634">
        <ele>55.3851891</ele>
        <time>2019-09-10T14:49:27.700Z</time>
      </trkpt>
      <trkpt lat="10.1579661224737" lon="-75.68221575439">
        <ele>55.3851891</ele>
        <time>2019-09-10T14:49:27.800Z</time>
      </trkpt>
      <trkpt lat="10.1579647560399" lon="-75.6822181358602">
        <ele>55.3851891</ele>
        <time>2019-09-10T14:49:27.900Z</time>
      </trkpt>
      <trkpt lat="10.1579619948763" lon="-75.6822228918378">
        <ele>55.3851891</ele>
        <time>2019-09-10T14:49:28.100Z</time>
      </trkpt>
      <trkpt lat="10.1579606176556" lon="-75.6822252603572">
        <ele>55.3851891</ele>
        <time>2019-09-10T14:49:28.200Z</time>
      </trkpt>
      <trkpt lat="10.157959248512" lon="-75.6822276088936">
        <ele>55.3851891</ele>
        <time>2019-09-10T14:49:28.300Z</time>
      </trkpt>
      <trkpt lat="10.1579578628495" lon="-75.6822299652978">
        <ele>55.3851891</ele>
        <time>2019-09-10T14:49:28.400Z</time>
      </trkpt>
      <trkpt lat="10.1579564842218" lon="-75.6822323259494">
        <ele>55.3851891</ele>
        <time>2019-09-10T14:49:28.500Z</time>
      </trkpt>
      <trkpt lat="10.1579537320212" lon="-75.6822370664">
        <ele>55.3851891</ele>
        <time>2019-09-10T14:49:28.700Z</time>
      </trkpt>
      <trkpt lat="10.1579523662647" lon="-75.6822394324129">
        <ele>55.3851891</ele>
        <time>2019-09-10T14:49:28.800Z</time>
      </trkpt>
      <trkpt lat="10.1579510029575" lon="-75.6822417844306">
        <ele>55.3851891</ele>
        <time>2019-09-10T14:49:28.900Z</time>
      </trkpt>
      <trkpt lat="10.1579496191709" lon="-75.6822441454999">
        <ele>55.3851891</ele>
        <time>2019-09-10T14:49:29.000Z</time>
      </trkpt>
      <trkpt lat="10.1579482500794" lon="-75.6822464940362">
        <ele>55.3851891</ele>
        <time>2019-09-10T14:49:29.100Z</time>
      </trkpt>
      <trkpt lat="10.1579468641563" lon="-75.6822488558714">
        <ele>55.3851891</ele>
        <time>2019-09-10T14:49:29.200Z</time>
      </trkpt>
      <trkpt lat="10.157945496107" lon="-75.682251149402">
        <ele>55.3851891</ele>
        <time>2019-09-10T14:49:29.300Z</time>
      </trkpt>
      <trkpt lat="10.1579441180526" lon="-75.682253442863">
        <ele>55.3851891</ele>
        <time>2019-09-10T14:49:29.400Z</time>
      </trkpt>
      <trkpt lat="10.1579427463035" lon="-75.6822557233733">
        <ele>55.3851891</ele>
        <time>2019-09-10T14:49:29.500Z</time>
      </trkpt>
      <trkpt lat="10.1579413579833" lon="-75.6822580430142">
        <ele>55.3851891</ele>
        <time>2019-09-10T14:49:29.600Z</time>
      </trkpt>
      <trkpt lat="10.1579399363126" lon="-75.6822603599396">
        <ele>55.3851891</ele>
        <time>2019-09-10T14:49:29.700Z</time>
      </trkpt>
      <trkpt lat="10.157937090991" lon="-75.6822650141218">
        <ele>55.2851891</ele>
        <time>2019-09-10T14:49:29.900Z</time>
      </trkpt>
      <trkpt lat="10.1579356950107" lon="-75.6822673332753">
        <ele>55.2851891</ele>
        <time>2019-09-10T14:49:30.000Z</time>
      </trkpt>
      <trkpt lat="10.1579343152887" lon="-75.6822696476246">
        <ele>55.2851891</ele>
        <time>2019-09-10T14:49:30.100Z</time>
      </trkpt>
      <trkpt lat="10.1579329316585" lon="-75.6822719866916">
        <ele>55.2851891</ele>
        <time>2019-09-10T14:49:30.200Z</time>
      </trkpt>
      <trkpt lat="10.1579315564701" lon="-75.6822742967239">
        <ele>55.2851891</ele>
        <time>2019-09-10T14:49:30.300Z</time>
      </trkpt>
      <trkpt lat="10.1579301657528" lon="-75.6822766185929">
        <ele>55.2851891</ele>
        <time>2019-09-10T14:49:30.400Z</time>
      </trkpt>
      <trkpt lat="10.1579287767553" lon="-75.6822789093384">
        <ele>55.2851891</ele>
        <time>2019-09-10T14:49:30.500Z</time>
      </trkpt>
      <trkpt lat="10.1579273791595" lon="-75.6822812171426">
        <ele>55.2851891</ele>
        <time>2019-09-10T14:49:30.600Z</time>
      </trkpt>
      <trkpt lat="10.1579259893802" lon="-75.6822834963996">
        <ele>55.2851891</ele>
        <time>2019-09-10T14:49:30.700Z</time>
      </trkpt>
      <trkpt lat="10.1579245887621" lon="-75.6822858007225">
        <ele>55.2851891</ele>
        <time>2019-09-10T14:49:30.800Z</time>
      </trkpt>
      <trkpt lat="10.1579232169087" lon="-75.6822880806061">
        <ele>55.2851891</ele>
        <time>2019-09-10T14:49:30.900Z</time>
      </trkpt>
      <trkpt lat="10.1579218423978" lon="-75.6822903875052">
        <ele>55.2851891</ele>
        <time>2019-09-10T14:49:31.000Z</time>
      </trkpt>
      <trkpt lat="10.1579204577774" lon="-75.6822926808965">
        <ele>55.2851891</ele>
        <time>2019-09-10T14:49:31.100Z</time>
      </trkpt>
      <trkpt lat="10.1579190556481" lon="-75.6822950005375">
        <ele>55.2851891</ele>
        <time>2019-09-10T14:49:31.200Z</time>
      </trkpt>
      <trkpt lat="10.1579176667026" lon="-75.6822973244257">
        <ele>55.2851891</ele>
        <time>2019-09-10T14:49:31.300Z</time>
      </trkpt>
      <trkpt lat="10.1579162820302" lon="-75.6822996732405">
        <ele>55.2851891</ele>
        <time>2019-09-10T14:49:31.400Z</time>
      </trkpt>
      <trkpt lat="10.1579149078319" lon="-75.6823019974072">
        <ele>55.2851891</ele>
        <time>2019-09-10T14:49:31.500Z</time>
      </trkpt>
      <trkpt lat="10.157913530507" lon="-75.682304329233">
        <ele>55.2851891</ele>
        <time>2019-09-10T14:49:31.600Z</time>
      </trkpt>
      <trkpt lat="10.1579121370279" lon="-75.6823066885616">
        <ele>55.2851891</ele>
        <time>2019-09-10T14:49:31.700Z</time>
      </trkpt>
      <trkpt lat="10.1579107348464" lon="-75.6823090758805">
        <ele>55.3851891</ele>
        <time>2019-09-10T14:49:31.800Z</time>
      </trkpt>
      <trkpt lat="10.1579093438165" lon="-75.6823114565151">
        <ele>55.3851891</ele>
        <time>2019-09-10T14:49:31.900Z</time>
      </trkpt>
      <trkpt lat="10.1579079597694" lon="-75.6823138421629">
        <ele>55.3851891</ele>
        <time>2019-09-10T14:49:32.000Z</time>
      </trkpt>
      <trkpt lat="10.1579065779109" lon="-75.6823162127016">
        <ele>55.3851891</ele>
        <time>2019-09-10T14:49:32.100Z</time>
      </trkpt>
      <trkpt lat="10.1579051865162" lon="-75.6823185908992">
        <ele>55.3851891</ele>
        <time>2019-09-10T14:49:32.200Z</time>
      </trkpt>
      <trkpt lat="10.1579037903796" lon="-75.6823209476516">
        <ele>55.3851891</ele>
        <time>2019-09-10T14:49:32.300Z</time>
      </trkpt>
      <trkpt lat="10.1579023850715" lon="-75.6823233116453">
        <ele>55.3851891</ele>
        <time>2019-09-10T14:49:32.400Z</time>
      </trkpt>
      <trkpt lat="10.1579010023271" lon="-75.6823256768226">
        <ele>55.3851891</ele>
        <time>2019-09-10T14:49:32.500Z</time>
      </trkpt>
      <trkpt lat="10.1578996158829" lon="-75.682328063306">
        <ele>55.3851891</ele>
        <time>2019-09-10T14:49:32.600Z</time>
      </trkpt>
      <trkpt lat="10.1578982540869" lon="-75.6823304310595">
        <ele>55.3851891</ele>
        <time>2019-09-10T14:49:32.700Z</time>
      </trkpt>
      <trkpt lat="10.1578968825983" lon="-75.682332800693">
        <ele>55.3851891</ele>
        <time>2019-09-10T14:49:32.800Z</time>
      </trkpt>
      <trkpt lat="10.1578954997497" lon="-75.6823351750612">
        <ele>55.3851891</ele>
        <time>2019-09-10T14:49:32.900Z</time>
      </trkpt>
      <trkpt lat="10.1578926786073" lon="-75.6823399502559">
        <ele>55.3851891</ele>
        <time>2019-09-10T14:49:33.100Z</time>
      </trkpt>
      <trkpt lat="10.1578912638151" lon="-75.6823423398725">
        <ele>55.3851891</ele>
        <time>2019-09-10T14:49:33.200Z</time>
      </trkpt>
      <trkpt lat="10.1578898630927" lon="-75.682344705398">
        <ele>55.3851891</ele>
        <time>2019-09-10T14:49:33.300Z</time>
      </trkpt>
      <trkpt lat="10.1578884598169" lon="-75.6823470674421">
        <ele>55.4851891</ele>
        <time>2019-09-10T14:49:33.400Z</time>
      </trkpt>
      <trkpt lat="10.1578870524766" lon="-75.6823494088764">
        <ele>55.4851891</ele>
        <time>2019-09-10T14:49:33.500Z</time>
      </trkpt>
      <trkpt lat="10.1578856326297" lon="-75.6823517579002">
        <ele>55.4851891</ele>
        <time>2019-09-10T14:49:33.600Z</time>
      </trkpt>
      <trkpt lat="10.157884224195" lon="-75.6823540894474">
        <ele>55.4851891</ele>
        <time>2019-09-10T14:49:33.700Z</time>
      </trkpt>
      <trkpt lat="10.1578828125816" lon="-75.6823564329009">
        <ele>55.3851891</ele>
        <time>2019-09-10T14:49:33.800Z</time>
      </trkpt>
      <trkpt lat="10.1578813903377" lon="-75.6823587410533">
        <ele>55.3851891</ele>
        <time>2019-09-10T14:49:33.900Z</time>
      </trkpt>
      <trkpt lat="10.1578799594956" lon="-75.6823610580484">
        <ele>55.3851891</ele>
        <time>2019-09-10T14:49:34.000Z</time>
      </trkpt>
      <trkpt lat="10.1578785457457" lon="-75.6823633685681">
        <ele>55.3851891</ele>
        <time>2019-09-10T14:49:34.100Z</time>
      </trkpt>
      <trkpt lat="10.1578771381447" lon="-75.6823657028308">
        <ele>55.3851891</ele>
        <time>2019-09-10T14:49:34.200Z</time>
      </trkpt>
      <trkpt lat="10.1578757094392" lon="-75.6823680655015">
        <ele>55.3851891</ele>
        <time>2019-09-10T14:49:34.300Z</time>
      </trkpt>
      <trkpt lat="10.157874270989" lon="-75.6823704558144">
        <ele>55.3851891</ele>
        <time>2019-09-10T14:49:34.400Z</time>
      </trkpt>
      <trkpt lat="10.1578728751128" lon="-75.6823728159089">
        <ele>55.3851891</ele>
        <time>2019-09-10T14:49:34.500Z</time>
      </trkpt>
      <trkpt lat="10.1578715030511" lon="-75.6823751752375">
        <ele>55.3851891</ele>
        <time>2019-09-10T14:49:34.600Z</time>
      </trkpt>
      <trkpt lat="10.1578701561064" lon="-75.6823775272553">
        <ele>55.3851891</ele>
        <time>2019-09-10T14:49:34.700Z</time>
      </trkpt>
      <trkpt lat="10.157868799365" lon="-75.6823798947303">
        <ele>55.3851891</ele>
        <time>2019-09-10T14:49:34.800Z</time>
      </trkpt>
      <trkpt lat="10.1578674422068" lon="-75.6823822384624">
        <ele>55.3851891</ele>
        <time>2019-09-10T14:49:34.900Z</time>
      </trkpt>
      <trkpt lat="10.1578660737406" lon="-75.6823845915941">
        <ele>55.3851891</ele>
        <time>2019-09-10T14:49:35.000Z</time>
      </trkpt>
      <trkpt lat="10.1578633685955" lon="-75.6823892718866">
        <ele>55.3851891</ele>
        <time>2019-09-10T14:49:35.200Z</time>
      </trkpt>
      <trkpt lat="10.1578620016405" lon="-75.6823916290567">
        <ele>55.3851891</ele>
        <time>2019-09-10T14:49:35.300Z</time>
      </trkpt>
      <trkpt lat="10.1578606120697" lon="-75.6823940041212">
        <ele>55.3851891</ele>
        <time>2019-09-10T14:49:35.400Z</time>
      </trkpt>
      <trkpt lat="10.1578592330252" lon="-75.6823963676274">
        <ele>55.3851891</ele>
        <time>2019-09-10T14:49:35.500Z</time>
      </trkpt>
      <trkpt lat="10.1578578477795" lon="-75.6823987347543">
        <ele>55.3851891</ele>
        <time>2019-09-10T14:49:35.600Z</time>
      </trkpt>
      <trkpt lat="10.1578564609185" lon="-75.6824010910889">
        <ele>55.3851891</ele>
        <time>2019-09-10T14:49:35.700Z</time>
      </trkpt>
      <trkpt lat="10.1578550666056" lon="-75.6824034575892">
        <ele>55.3851891</ele>
        <time>2019-09-10T14:49:35.800Z</time>
      </trkpt>
      <trkpt lat="10.1578536810994" lon="-75.6824058120439">
        <ele>55.3851891</ele>
        <time>2019-09-10T14:49:35.900Z</time>
      </trkpt>
      <trkpt lat="10.1578523001268" lon="-75.6824081830699">
        <ele>55.3851891</ele>
        <time>2019-09-10T14:49:36.000Z</time>
      </trkpt>
      <trkpt lat="10.1578509587579" lon="-75.6824105665593">
        <ele>55.3851891</ele>
        <time>2019-09-10T14:49:36.100Z</time>
      </trkpt>
      <trkpt lat="10.157849620672" lon="-75.6824129681518">
        <ele>55.3851891</ele>
        <time>2019-09-10T14:49:36.200Z</time>
      </trkpt>
      <trkpt lat="10.157848302857" lon="-75.682415371485">
        <ele>55.4851891</ele>
        <time>2019-09-10T14:49:36.300Z</time>
      </trkpt>
      <trkpt lat="10.1578469658654" lon="-75.6824177810847">
        <ele>55.3851891</ele>
        <time>2019-09-10T14:49:36.400Z</time>
      </trkpt>
      <trkpt lat="10.1578456354397" lon="-75.6824201649918">
        <ele>55.3851891</ele>
        <time>2019-09-10T14:49:36.500Z</time>
      </trkpt>
      <trkpt lat="10.1578442803137" lon="-75.682422546462">
        <ele>55.3851891</ele>
        <time>2019-09-10T14:49:36.600Z</time>
      </trkpt>
      <trkpt lat="10.1578429308678" lon="-75.682424924033">
        <ele>55.3851891</ele>
        <time>2019-09-10T14:49:36.700Z</time>
      </trkpt>
      <trkpt lat="10.1578415597961" lon="-75.6824273140674">
        <ele>55.3851891</ele>
        <time>2019-09-10T14:49:36.800Z</time>
      </trkpt>
      <trkpt lat="10.1578401571456" lon="-75.6824297334149">
        <ele>55.3851891</ele>
        <time>2019-09-10T14:49:36.900Z</time>
      </trkpt>
      <trkpt lat="10.1578387247402" lon="-75.6824321652954">
        <ele>55.3851891</ele>
        <time>2019-09-10T14:49:37.000Z</time>
      </trkpt>
      <trkpt lat="10.1578373032259" lon="-75.682434563685">
        <ele>55.3851891</ele>
        <time>2019-09-10T14:49:37.100Z</time>
      </trkpt>
      <trkpt lat="10.1578358823889" lon="-75.6824369478011">
        <ele>55.3851891</ele>
        <time>2019-09-10T14:49:37.200Z</time>
      </trkpt>
      <trkpt lat="10.1578344531622" lon="-75.682439299958">
        <ele>55.3851891</ele>
        <time>2019-09-10T14:49:37.300Z</time>
      </trkpt>
      <trkpt lat="10.1578330044985" lon="-75.6824416537165">
        <ele>55.3851891</ele>
        <time>2019-09-10T14:49:37.400Z</time>
      </trkpt>
      <trkpt lat="10.1578315737606" lon="-75.6824439757247">
        <ele>55.3851891</ele>
        <time>2019-09-10T14:49:37.500Z</time>
      </trkpt>
      <trkpt lat="10.1578301408862" lon="-75.6824463094304">
        <ele>55.3851891</ele>
        <time>2019-09-10T14:49:37.600Z</time>
      </trkpt>
      <trkpt lat="10.1578287074907" lon="-75.6824486228745">
        <ele>55.3851891</ele>
        <time>2019-09-10T14:49:37.700Z</time>
      </trkpt>
      <trkpt lat="10.1578272626831" lon="-75.6824509530988">
        <ele>55.3851891</ele>
        <time>2019-09-10T14:49:37.800Z</time>
      </trkpt>
      <trkpt lat="10.1578258287144" lon="-75.6824532479523">
        <ele>55.3851891</ele>
        <time>2019-09-10T14:49:37.900Z</time>
      </trkpt>
      <trkpt lat="10.1578243897431" lon="-75.6824555558262">
        <ele>55.3851891</ele>
        <time>2019-09-10T14:49:38.000Z</time>
      </trkpt>
      <trkpt lat="10.1578229623403" lon="-75.6824578624468">
        <ele>55.3851891</ele>
        <time>2019-09-10T14:49:38.100Z</time>
      </trkpt>
      <trkpt lat="10.1578215294659" lon="-75.6824601978931">
        <ele>55.3851891</ele>
        <time>2019-09-10T14:49:38.200Z</time>
      </trkpt>
      <trkpt lat="10.1578200999787" lon="-75.6824625114765">
        <ele>55.3851891</ele>
        <time>2019-09-10T14:49:38.300Z</time>
      </trkpt>
      <trkpt lat="10.1578186661663" lon="-75.6824648421882">
        <ele>55.3851891</ele>
        <time>2019-09-10T14:49:38.400Z</time>
      </trkpt>
      <trkpt lat="10.1578172379297" lon="-75.6824671717858">
        <ele>55.3851891</ele>
        <time>2019-09-10T14:49:38.500Z</time>
      </trkpt>
      <trkpt lat="10.1578158056807" lon="-75.6824695290953">
        <ele>55.3851891</ele>
        <time>2019-09-10T14:49:38.600Z</time>
      </trkpt>
      <trkpt lat="10.1578143804665" lon="-75.6824718880757">
        <ele>55.3851891</ele>
        <time>2019-09-10T14:49:38.700Z</time>
      </trkpt>
      <trkpt lat="10.1578129657265" lon="-75.6824742648809">
        <ele>55.3851891</ele>
        <time>2019-09-10T14:49:38.800Z</time>
      </trkpt>
      <trkpt lat="10.1578115664632" lon="-75.6824766858298">
        <ele>55.3851891</ele>
        <time>2019-09-10T14:49:38.900Z</time>
      </trkpt>
      <trkpt lat="10.1578101633958" lon="-75.6824791240464">
        <ele>55.3851891</ele>
        <time>2019-09-10T14:49:39.000Z</time>
      </trkpt>
      <trkpt lat="10.1578087850287" lon="-75.6824815072573">
        <ele>55.3851891</ele>
        <time>2019-09-10T14:49:39.100Z</time>
      </trkpt>
      <trkpt lat="10.1578074028054" lon="-75.6824838670733">
        <ele>55.3851891</ele>
        <time>2019-09-10T14:49:39.200Z</time>
      </trkpt>
      <trkpt lat="10.1578060192273" lon="-75.6824861970887">
        <ele>55.3851891</ele>
        <time>2019-09-10T14:49:39.300Z</time>
      </trkpt>
      <trkpt lat="10.15780461147" lon="-75.6824885371305">
        <ele>55.3851891</ele>
        <time>2019-09-10T14:49:39.400Z</time>
      </trkpt>
      <trkpt lat="10.1578032218471" lon="-75.6824908821855">
        <ele>55.3851891</ele>
        <time>2019-09-10T14:49:39.500Z</time>
      </trkpt>
      <trkpt lat="10.1578018244598" lon="-75.6824932524456">
        <ele>55.3851891</ele>
        <time>2019-09-10T14:49:39.600Z</time>
      </trkpt>
      <trkpt lat="10.157800465165" lon="-75.6824955787011">
        <ele>55.3851891</ele>
        <time>2019-09-10T14:49:39.700Z</time>
      </trkpt>
      <trkpt lat="10.1577990976368" lon="-75.682497900779">
        <ele>55.3851891</ele>
        <time>2019-09-10T14:49:39.800Z</time>
      </trkpt>
      <trkpt lat="10.1577977391758" lon="-75.6825002080959">
        <ele>55.3851891</ele>
        <time>2019-09-10T14:49:39.900Z</time>
      </trkpt>
      <trkpt lat="10.1577963537738" lon="-75.6825025404787">
        <ele>55.3851891</ele>
        <time>2019-09-10T14:49:40.000Z</time>
      </trkpt>
      <trkpt lat="10.1577935217404" lon="-75.6825072147135">
        <ele>55.2851891</ele>
        <time>2019-09-10T14:49:40.200Z</time>
      </trkpt>
      <trkpt lat="10.1577921132014" lon="-75.6825095626928">
        <ele>55.2851891</ele>
        <time>2019-09-10T14:49:40.300Z</time>
      </trkpt>
      <trkpt lat="10.1577907149803" lon="-75.6825119301679">
        <ele>55.2851891</ele>
        <time>2019-09-10T14:49:40.400Z</time>
      </trkpt>
      <trkpt lat="10.1577893403652" lon="-75.6825142919335">
        <ele>55.2851891</ele>
        <time>2019-09-10T14:49:40.500Z</time>
      </trkpt>
      <trkpt lat="10.1577879575687" lon="-75.6825166599655">
        <ele>55.2851891</ele>
        <time>2019-09-10T14:49:40.600Z</time>
      </trkpt>
      <trkpt lat="10.1577865788368" lon="-75.6825190119832">
        <ele>55.2851891</ele>
        <time>2019-09-10T14:49:40.700Z</time>
      </trkpt>
      <trkpt lat="10.1577851931743" lon="-75.6825213795975">
        <ele>55.2851891</ele>
        <time>2019-09-10T14:49:40.800Z</time>
      </trkpt>
      <trkpt lat="10.1577838318993" lon="-75.6825237086382">
        <ele>55.2851891</ele>
        <time>2019-09-10T14:49:40.900Z</time>
      </trkpt>
      <trkpt lat="10.1577824678625" lon="-75.6825260386536">
        <ele>55.2851891</ele>
        <time>2019-09-10T14:49:41.000Z</time>
      </trkpt>
      <trkpt lat="10.1577811150294" lon="-75.6825283786954">
        <ele>55.2851891</ele>
        <time>2019-09-10T14:49:41.100Z</time>
      </trkpt>
      <trkpt lat="10.1577797434887" lon="-75.6825307500695">
        <ele>55.2851891</ele>
        <time>2019-09-10T14:49:41.200Z</time>
      </trkpt>
      <trkpt lat="10.1577783663723" lon="-75.6825331112781">
        <ele>55.2851891</ele>
        <time>2019-09-10T14:49:41.300Z</time>
      </trkpt>
      <trkpt lat="10.1577769702877" lon="-75.6825354793102">
        <ele>55.2851891</ele>
        <time>2019-09-10T14:49:41.400Z</time>
      </trkpt>
      <trkpt lat="10.1577755707638" lon="-75.6825378321634">
        <ele>55.2851891</ele>
        <time>2019-09-10T14:49:41.500Z</time>
      </trkpt>
      <trkpt lat="10.1577741605053" lon="-75.6825401942075">
        <ele>55.2851891</ele>
        <time>2019-09-10T14:49:41.600Z</time>
      </trkpt>
      <trkpt lat="10.1577727555099" lon="-75.6825425375914">
        <ele>55.2851891</ele>
        <time>2019-09-10T14:49:41.700Z</time>
      </trkpt>
      <trkpt lat="10.1577713433232" lon="-75.6825448896091">
        <ele>55.2851891</ele>
        <time>2019-09-10T14:49:41.800Z</time>
      </trkpt>
      <trkpt lat="10.1577699353575" lon="-75.6825471920521">
        <ele>55.2851891</ele>
        <time>2019-09-10T14:49:41.900Z</time>
      </trkpt>
      <trkpt lat="10.1577685246821" lon="-75.682549493938">
        <ele>55.2851891</ele>
        <time>2019-09-10T14:49:42.000Z</time>
      </trkpt>
      <trkpt lat="10.1577670907655" lon="-75.682551806268">
        <ele>55.2851891</ele>
        <time>2019-09-10T14:49:42.100Z</time>
      </trkpt>
      <trkpt lat="10.1577656468958" lon="-75.6825541509052">
        <ele>55.2851891</ele>
        <time>2019-09-10T14:49:42.200Z</time>
      </trkpt>
      <trkpt lat="10.1577642222549" lon="-75.6825564954032">
        <ele>55.2851891</ele>
        <time>2019-09-10T14:49:42.300Z</time>
      </trkpt>
      <trkpt lat="10.1577628115794" lon="-75.6825588446358">
        <ele>55.2851891</ele>
        <time>2019-09-10T14:49:42.400Z</time>
      </trkpt>
      <trkpt lat="10.1577613907425" lon="-75.6825611672707">
        <ele>55.2851891</ele>
        <time>2019-09-10T14:49:42.500Z</time>
      </trkpt>
      <trkpt lat="10.1577599619848" lon="-75.6825634904626">
        <ele>55.2851891</ele>
        <time>2019-09-10T14:49:42.600Z</time>
      </trkpt>
      <trkpt lat="10.1577585621483" lon="-75.6825657650546">
        <ele>55.2851891</ele>
        <time>2019-09-10T14:49:42.700Z</time>
      </trkpt>
      <trkpt lat="10.1577558002031" lon="-75.6825703202264">
        <ele>55.2851891</ele>
        <time>2019-09-10T14:49:42.900Z</time>
      </trkpt>
      <trkpt lat="10.157754419022" lon="-75.6825726352022">
        <ele>55.2851891</ele>
        <time>2019-09-10T14:49:43.000Z</time>
      </trkpt>
      <trkpt lat="10.1577530491489" lon="-75.6825749370881">
        <ele>55.2851891</ele>
        <time>2019-09-10T14:49:43.100Z</time>
      </trkpt>
      <trkpt lat="10.1577516721887" lon="-75.6825772530388">
        <ele>55.2851891</ele>
        <time>2019-09-10T14:49:43.200Z</time>
      </trkpt>
      <trkpt lat="10.1577502893401" lon="-75.6825795836113">
        <ele>55.2851891</ele>
        <time>2019-09-10T14:49:43.300Z</time>
      </trkpt>
      <trkpt lat="10.1577489016453" lon="-75.6825819453768">
        <ele>55.3851891</ele>
        <time>2019-09-10T14:49:43.400Z</time>
      </trkpt>
      <trkpt lat="10.1577475453208" lon="-75.6825843178651">
        <ele>55.3851891</ele>
        <time>2019-09-10T14:49:43.500Z</time>
      </trkpt>
      <trkpt lat="10.1577461903512" lon="-75.6825867002404">
        <ele>55.3851891</ele>
        <time>2019-09-10T14:49:43.600Z</time>
      </trkpt>
      <trkpt lat="10.1577448281904" lon="-75.6825890759314">
        <ele>55.3851891</ele>
        <time>2019-09-10T14:49:43.700Z</time>
      </trkpt>
      <trkpt lat="10.1577434564412" lon="-75.6825914521796">
        <ele>55.3851891</ele>
        <time>2019-09-10T14:49:43.800Z</time>
      </trkpt>
      <trkpt lat="10.1577421107472" lon="-75.6825938121348">
        <ele>55.3851891</ele>
        <time>2019-09-10T14:49:43.900Z</time>
      </trkpt>
      <trkpt lat="10.1577407601028" lon="-75.6825961757107">
        <ele>55.2851891</ele>
        <time>2019-09-10T14:49:44.000Z</time>
      </trkpt>
      <trkpt lat="10.1577394182649" lon="-75.6825985481989">
        <ele>55.2851891</ele>
        <time>2019-09-10T14:49:44.100Z</time>
      </trkpt>
      <trkpt lat="10.157738060325" lon="-75.6826009295995">
        <ele>55.3851891</ele>
        <time>2019-09-10T14:49:44.200Z</time>
      </trkpt>
      <trkpt lat="10.1577366846676" lon="-75.6826033155954">
        <ele>55.3851891</ele>
        <time>2019-09-10T14:49:44.300Z</time>
      </trkpt>
      <trkpt lat="10.1577352886873" lon="-75.682605704098">
        <ele>55.3851891</ele>
        <time>2019-09-10T14:49:44.400Z</time>
      </trkpt>
      <trkpt lat="10.1577339226703" lon="-75.6826080446968">
        <ele>55.3851891</ele>
        <time>2019-09-10T14:49:44.500Z</time>
      </trkpt>
      <trkpt lat="10.1577325536309" lon="-75.6826103671924">
        <ele>55.3851891</ele>
        <time>2019-09-10T14:49:44.600Z</time>
      </trkpt>
      <trkpt lat="10.1577311556703" lon="-75.6826127245018">
        <ele>55.3851891</ele>
        <time>2019-09-10T14:49:44.700Z</time>
      </trkpt>
      <trkpt lat="10.1577297432753" lon="-75.6826151064594">
        <ele>55.3851891</ele>
        <time>2019-09-10T14:49:44.800Z</time>
      </trkpt>
      <trkpt lat="10.1577283899211" lon="-75.6826174050032">
        <ele>55.3851891</ele>
        <time>2019-09-10T14:49:44.900Z</time>
      </trkpt>
      <trkpt lat="10.1577270751805" lon="-75.6826196791773">
        <ele>55.3851891</ele>
        <time>2019-09-10T14:49:45.000Z</time>
      </trkpt>
      <trkpt lat="10.15772581625" lon="-75.6826219374764">
        <ele>55.3851891</ele>
        <time>2019-09-10T14:49:45.100Z</time>
      </trkpt>
      <trkpt lat="10.1577245693048" lon="-75.6826242456288">
        <ele>55.3851891</ele>
        <time>2019-09-10T14:49:45.200Z</time>
      </trkpt>
      <trkpt lat="10.1577233128756" lon="-75.6826265995961">
        <ele>55.3851891</ele>
        <time>2019-09-10T14:49:45.300Z</time>
      </trkpt>
      <trkpt lat="10.1577220286716" lon="-75.6826289875416">
        <ele>55.3851891</ele>
        <time>2019-09-10T14:49:45.400Z</time>
      </trkpt>
      <trkpt lat="10.1577194208684" lon="-75.6826337401771">
        <ele>55.3851891</ele>
        <time>2019-09-10T14:49:45.600Z</time>
      </trkpt>
      <trkpt lat="10.1577181056589" lon="-75.682636097208">
        <ele>55.3851891</ele>
        <time>2019-09-10T14:49:45.700Z</time>
      </trkpt>
      <trkpt lat="10.157716786489" lon="-75.6826384607839">
        <ele>55.3851891</ele>
        <time>2019-09-10T14:49:45.800Z</time>
      </trkpt>
      <trkpt lat="10.1577154891532" lon="-75.682640810295">
        <ele>55.3851891</ele>
        <time>2019-09-10T14:49:45.900Z</time>
      </trkpt>
      <trkpt lat="10.1577141917133" lon="-75.6826431741494">
        <ele>55.3851891</ele>
        <time>2019-09-10T14:49:46.000Z</time>
      </trkpt>
      <trkpt lat="10.1577128909904" lon="-75.6826455249139">
        <ele>55.3851891</ele>
        <time>2019-09-10T14:49:46.100Z</time>
      </trkpt>
      <trkpt lat="10.1577115716641" lon="-75.6826478852869">
        <ele>55.3851891</ele>
        <time>2019-09-10T14:49:46.200Z</time>
      </trkpt>
      <trkpt lat="10.1577102772987" lon="-75.6826502055545">
        <ele>55.3851891</ele>
        <time>2019-09-10T14:49:46.300Z</time>
      </trkpt>
      <trkpt lat="10.1577089860598" lon="-75.6826525295819">
        <ele>55.3851891</ele>
        <time>2019-09-10T14:49:46.400Z</time>
      </trkpt>
      <trkpt lat="10.1577076784584" lon="-75.6826548460896">
        <ele>55.3851891</ele>
        <time>2019-09-10T14:49:46.500Z</time>
      </trkpt>
      <trkpt lat="10.1577050080708" lon="-75.6826595850781">
        <ele>55.3851891</ele>
        <time>2019-09-10T14:49:46.700Z</time>
      </trkpt>
      <trkpt lat="10.1577036594586" lon="-75.6826620139646">
        <ele>55.3851891</ele>
        <time>2019-09-10T14:49:46.800Z</time>
      </trkpt>
      <trkpt lat="10.1577023173081" lon="-75.6826644317107">
        <ele>55.3851891</ele>
        <time>2019-09-10T14:49:46.900Z</time>
      </trkpt>
      <trkpt lat="10.1577009651003" lon="-75.6826668423548">
        <ele>55.3851891</ele>
        <time>2019-09-10T14:49:47.000Z</time>
      </trkpt>
      <trkpt lat="10.157699602262" lon="-75.6826692502138">
        <ele>55.3851891</ele>
        <time>2019-09-10T14:49:47.100Z</time>
      </trkpt>
      <trkpt lat="10.1576982176938" lon="-75.682671657098">
        <ele>55.3851891</ele>
        <time>2019-09-10T14:49:47.200Z</time>
      </trkpt>
      <trkpt lat="10.1576968085817" lon="-75.6826741079868">
        <ele>55.3851891</ele>
        <time>2019-09-10T14:49:47.300Z</time>
      </trkpt>
      <trkpt lat="10.1576953886306" lon="-75.682676576004">
        <ele>55.3851891</ele>
        <time>2019-09-10T14:49:47.400Z</time>
      </trkpt>
      <trkpt lat="10.1576940148492" lon="-75.6826790391472">
        <ele>55.3851891</ele>
        <time>2019-09-10T14:49:47.500Z</time>
      </trkpt>
      <trkpt lat="10.1576926500829" lon="-75.682681483491">
        <ele>55.3851891</ele>
        <time>2019-09-10T14:49:47.600Z</time>
      </trkpt>
      <trkpt lat="10.1576912856813" lon="-75.6826838857798">
        <ele>55.3851891</ele>
        <time>2019-09-10T14:49:47.700Z</time>
      </trkpt>
      <trkpt lat="10.1576898954852" lon="-75.6826862734468">
        <ele>55.3851891</ele>
        <time>2019-09-10T14:49:47.800Z</time>
      </trkpt>
      <trkpt lat="10.1576885307188" lon="-75.6826885991454">
        <ele>55.3851891</ele>
        <time>2019-09-10T14:49:47.900Z</time>
      </trkpt>
      <trkpt lat="10.1576871602725" lon="-75.6826909230336">
        <ele>55.3851891</ele>
        <time>2019-09-10T14:49:48.000Z</time>
      </trkpt>
      <trkpt lat="10.1576858043648" lon="-75.6826932160072">
        <ele>55.3851891</ele>
        <time>2019-09-10T14:49:48.100Z</time>
      </trkpt>
      <trkpt lat="10.1576844311045" lon="-75.6826955262484">
        <ele>55.3851891</ele>
        <time>2019-09-10T14:49:48.200Z</time>
      </trkpt>
      <trkpt lat="10.1576830596681" lon="-75.6826978176901">
        <ele>55.3851891</ele>
        <time>2019-09-10T14:49:48.300Z</time>
      </trkpt>
      <trkpt lat="10.157681671869" lon="-75.6827001286276">
        <ele>55.3851891</ele>
        <time>2019-09-10T14:49:48.400Z</time>
      </trkpt>
      <trkpt lat="10.1576802621316" lon="-75.6827024578075">
        <ele>55.3851891</ele>
        <time>2019-09-10T14:49:48.500Z</time>
      </trkpt>
      <trkpt lat="10.1576788353541" lon="-75.6827048057868">
        <ele>55.3851891</ele>
        <time>2019-09-10T14:49:48.600Z</time>
      </trkpt>
      <trkpt lat="10.1576773862213" lon="-75.6827071299536">
        <ele>55.3851891</ele>
        <time>2019-09-10T14:49:48.700Z</time>
      </trkpt>
      <trkpt lat="10.1576759352126" lon="-75.6827094541203">
        <ele>55.3851891</ele>
        <time>2019-09-10T14:49:48.800Z</time>
      </trkpt>
      <trkpt lat="10.1576744959807" lon="-75.6827117920732">
        <ele>55.3851891</ele>
        <time>2019-09-10T14:49:48.900Z</time>
      </trkpt>
      <trkpt lat="10.1576730696201" lon="-75.6827141443695">
        <ele>55.3851891</ele>
        <time>2019-09-10T14:49:49.000Z</time>
      </trkpt>
      <trkpt lat="10.1576716389344" lon="-75.6827164969442">
        <ele>55.3851891</ele>
        <time>2019-09-10T14:49:49.100Z</time>
      </trkpt>
      <trkpt lat="10.1576687538527" lon="-75.6827212078032">
        <ele>55.3851891</ele>
        <time>2019-09-10T14:49:49.300Z</time>
      </trkpt>
      <trkpt lat="10.157667301437" lon="-75.6827235674799">
        <ele>55.3851891</ele>
        <time>2019-09-10T14:49:49.400Z</time>
      </trkpt>
      <trkpt lat="10.1576658426638" lon="-75.6827259236753">
        <ele>55.3851891</ele>
        <time>2019-09-10T14:49:49.500Z</time>
      </trkpt>
      <trkpt lat="10.157664386861" lon="-75.6827282851624">
        <ele>55.3851891</ele>
        <time>2019-09-10T14:49:49.600Z</time>
      </trkpt>
      <trkpt lat="10.1576629671705" lon="-75.6827306203302">
        <ele>55.4851891</ele>
        <time>2019-09-10T14:49:49.700Z</time>
      </trkpt>
      <trkpt lat="10.1576615482616" lon="-75.6827329520167">
        <ele>55.3851891</ele>
        <time>2019-09-10T14:49:49.800Z</time>
      </trkpt>
      <trkpt lat="10.1576601159604" lon="-75.6827353073765">
        <ele>55.3851891</ele>
        <time>2019-09-10T14:49:49.900Z</time>
      </trkpt>
      <trkpt lat="10.1576586795425" lon="-75.682737679447">
        <ele>55.4851891</ele>
        <time>2019-09-10T14:49:50.000Z</time>
      </trkpt>
      <trkpt lat="10.157657257455" lon="-75.6827399824469">
        <ele>55.4851891</ele>
        <time>2019-09-10T14:49:50.100Z</time>
      </trkpt>
      <trkpt lat="10.1576558305733" lon="-75.6827422635838">
        <ele>55.4851891</ele>
        <time>2019-09-10T14:49:50.200Z</time>
      </trkpt>
      <trkpt lat="10.1576529674821" lon="-75.6827468475815">
        <ele>55.4851891</ele>
        <time>2019-09-10T14:49:50.400Z</time>
      </trkpt>
      <trkpt lat="10.1576515627472" lon="-75.6827491369344">
        <ele>55.4851891</ele>
        <time>2019-09-10T14:49:50.500Z</time>
      </trkpt>
      <trkpt lat="10.1576501590546" lon="-75.6827514386811">
        <ele>55.4851891</ele>
        <time>2019-09-10T14:49:50.600Z</time>
      </trkpt>
      <trkpt lat="10.157648739833" lon="-75.6827536964231">
        <ele>55.4851891</ele>
        <time>2019-09-10T14:49:50.700Z</time>
      </trkpt>
      <trkpt lat="10.1576472804346" lon="-75.6827559629382">
        <ele>55.4851891</ele>
        <time>2019-09-10T14:49:50.800Z</time>
      </trkpt>
      <trkpt lat="10.157645787894" lon="-75.6827582255542">
        <ele>55.4851891</ele>
        <time>2019-09-10T14:49:50.900Z</time>
      </trkpt>
      <trkpt lat="10.1576442736235" lon="-75.6827605153249">
        <ele>55.4851891</ele>
        <time>2019-09-10T14:49:51.000Z</time>
      </trkpt>
      <trkpt lat="10.1576427853038" lon="-75.6827628071845">
        <ele>55.4851891</ele>
        <time>2019-09-10T14:49:51.100Z</time>
      </trkpt>
      <trkpt lat="10.157641320538" lon="-75.6827651142228">
        <ele>55.4851891</ele>
        <time>2019-09-10T14:49:51.200Z</time>
      </trkpt>
      <trkpt lat="10.1576398976688" lon="-75.6827673847764">
        <ele>55.4851891</ele>
        <time>2019-09-10T14:49:51.300Z</time>
      </trkpt>
      <trkpt lat="10.1576384930902" lon="-75.6827696564439">
        <ele>55.4851891</ele>
        <time>2019-09-10T14:49:51.400Z</time>
      </trkpt>
      <trkpt lat="10.1576370937227" lon="-75.6827719466324">
        <ele>55.4851891</ele>
        <time>2019-09-10T14:49:51.500Z</time>
      </trkpt>
      <trkpt lat="10.1576356796601" lon="-75.682774273445">
        <ele>55.4851891</ele>
        <time>2019-09-10T14:49:51.600Z</time>
      </trkpt>
      <trkpt lat="10.1576342881091" lon="-75.6827765951051">
        <ele>55.4851891</ele>
        <time>2019-09-10T14:49:51.700Z</time>
      </trkpt>
      <trkpt lat="10.1576328980172" lon="-75.6827789198288">
        <ele>55.4851891</ele>
        <time>2019-09-10T14:49:51.800Z</time>
      </trkpt>
      <trkpt lat="10.157631524809" lon="-75.682781221854">
        <ele>55.4851891</ele>
        <time>2019-09-10T14:49:51.900Z</time>
      </trkpt>
      <trkpt lat="10.1576301425336" lon="-75.6827835295886">
        <ele>55.4851891</ele>
        <time>2019-09-10T14:49:52.000Z</time>
      </trkpt>
      <trkpt lat="10.1576287670326" lon="-75.6827858227014">
        <ele>55.4851891</ele>
        <time>2019-09-10T14:49:52.100Z</time>
      </trkpt>
      <trkpt lat="10.157627377566" lon="-75.6827881257014">
        <ele>55.3851891</ele>
        <time>2019-09-10T14:49:52.200Z</time>
      </trkpt>
      <trkpt lat="10.1576260028987" lon="-75.6827903926343">
        <ele>55.3851891</ele>
        <time>2019-09-10T14:49:52.300Z</time>
      </trkpt>
      <trkpt lat="10.157624625209" lon="-75.6827926651374">
        <ele>55.3851891</ele>
        <time>2019-09-10T14:49:52.400Z</time>
      </trkpt>
      <trkpt lat="10.1576232358467" lon="-75.6827949856835">
        <ele>55.3851891</ele>
        <time>2019-09-10T14:49:52.500Z</time>
      </trkpt>
      <trkpt lat="10.1576218290795" lon="-75.682797346335">
        <ele>55.3851891</ele>
        <time>2019-09-10T14:49:52.600Z</time>
      </trkpt>
      <trkpt lat="10.1576204612907" lon="-75.6827996487779">
        <ele>55.3851891</ele>
        <time>2019-09-10T14:49:52.700Z</time>
      </trkpt>
      <trkpt lat="10.1576191028818" lon="-75.6828019418908">
        <ele>55.3851891</ele>
        <time>2019-09-10T14:49:52.800Z</time>
      </trkpt>
      <trkpt lat="10.1576178025237" lon="-75.6828041968477">
        <ele>55.3851891</ele>
        <time>2019-09-10T14:49:52.900Z</time>
      </trkpt>
      <trkpt lat="10.1576164953913" lon="-75.6828064747818">
        <ele>55.3851891</ele>
        <time>2019-09-10T14:49:53.000Z</time>
      </trkpt>
      <trkpt lat="10.157615204413" lon="-75.6828087347519">
        <ele>55.3851891</ele>
        <time>2019-09-10T14:49:53.100Z</time>
      </trkpt>
      <trkpt lat="10.1576138958214" lon="-75.6828110360808">
        <ele>55.3851891</ele>
        <time>2019-09-10T14:49:53.200Z</time>
      </trkpt>
      <trkpt lat="10.1576126102626" lon="-75.6828133265478">
        <ele>55.4851891</ele>
        <time>2019-09-10T14:49:53.300Z</time>
      </trkpt>
      <trkpt lat="10.1576112890604" lon="-75.6828156424984">
        <ele>55.4851891</ele>
        <time>2019-09-10T14:49:53.400Z</time>
      </trkpt>
      <trkpt lat="10.1576099178324" lon="-75.6828179910348">
        <ele>55.4851891</ele>
        <time>2019-09-10T14:49:53.500Z</time>
      </trkpt>
      <trkpt lat="10.157608514296" lon="-75.682820376056">
        <ele>55.4851891</ele>
        <time>2019-09-10T14:49:53.600Z</time>
      </trkpt>
      <trkpt lat="10.1576071201395" lon="-75.6828227587098">
        <ele>55.4851891</ele>
        <time>2019-09-10T14:49:53.700Z</time>
      </trkpt>
      <trkpt lat="10.1576057268168" lon="-75.6828251338438">
        <ele>55.4851891</ele>
        <time>2019-09-10T14:49:53.800Z</time>
      </trkpt>
      <trkpt lat="10.157604292327" lon="-75.6828275185865">
        <ele>55.4851891</ele>
        <time>2019-09-10T14:49:53.900Z</time>
      </trkpt>
      <trkpt lat="10.1576028401197" lon="-75.6828299076461">
        <ele>55.4851891</ele>
        <time>2019-09-10T14:49:54.000Z</time>
      </trkpt>
      <trkpt lat="10.1576013850985" lon="-75.6828322926673">
        <ele>55.3851891</ele>
        <time>2019-09-10T14:49:54.100Z</time>
      </trkpt>
      <trkpt lat="10.1575999393529" lon="-75.6828346785239">
        <ele>55.3851891</ele>
        <time>2019-09-10T14:49:54.200Z</time>
      </trkpt>
      <trkpt lat="10.1575984978803" lon="-75.6828370688368">
        <ele>55.3851891</ele>
        <time>2019-09-10T14:49:54.300Z</time>
      </trkpt>
      <trkpt lat="10.1575970661002" lon="-75.6828394666694">
        <ele>55.3851891</ele>
        <time>2019-09-10T14:49:54.400Z</time>
      </trkpt>
      <trkpt lat="10.1575956358835" lon="-75.6828418450064">
        <ele>55.3851891</ele>
        <time>2019-09-10T14:49:54.500Z</time>
      </trkpt>
      <trkpt lat="10.1575942095229" lon="-75.682844221533">
        <ele>55.3851891</ele>
        <time>2019-09-10T14:49:54.600Z</time>
      </trkpt>
      <trkpt lat="10.1575928242251" lon="-75.6828465493203">
        <ele>55.3851891</ele>
        <time>2019-09-10T14:49:54.700Z</time>
      </trkpt>
      <trkpt lat="10.1575914454932" lon="-75.6828488719552">
        <ele>55.3851891</ele>
        <time>2019-09-10T14:49:54.800Z</time>
      </trkpt>
      <trkpt lat="10.1575901057398" lon="-75.6828511510033">
        <ele>55.3851891</ele>
        <time>2019-09-10T14:49:54.900Z</time>
      </trkpt>
      <trkpt lat="10.1575887590036" lon="-75.6828534514967">
        <ele>55.3851891</ele>
        <time>2019-09-10T14:49:55.000Z</time>
      </trkpt>
      <trkpt lat="10.1575873973638" lon="-75.6828557734353">
        <ele>55.3851891</ele>
        <time>2019-09-10T14:49:55.100Z</time>
      </trkpt>
      <trkpt lat="10.1575846103015" lon="-75.6828604787241">
        <ele>55.3851891</ele>
        <time>2019-09-10T14:49:55.300Z</time>
      </trkpt>
      <trkpt lat="10.1575817965587" lon="-75.6828651707836">
        <ele>55.3851891</ele>
        <time>2019-09-10T14:49:55.500Z</time>
      </trkpt>
      <trkpt lat="10.1575803667588" lon="-75.6828675534374">
        <ele>55.3851891</ele>
        <time>2019-09-10T14:49:55.600Z</time>
      </trkpt>
      <trkpt lat="10.1575789143431" lon="-75.6828699788425">
        <ele>55.3851891</ele>
        <time>2019-09-10T14:49:55.700Z</time>
      </trkpt>
      <trkpt lat="10.157577456091" lon="-75.6828724188694">
        <ele>55.3851891</ele>
        <time>2019-09-10T14:49:55.800Z</time>
      </trkpt>
      <trkpt lat="10.1575760099285" lon="-75.6828748439961">
        <ele>55.3851891</ele>
        <time>2019-09-10T14:49:55.900Z</time>
      </trkpt>
      <trkpt lat="10.1575745748134" lon="-75.6828772588178">
        <ele>55.3851891</ele>
        <time>2019-09-10T14:49:56.000Z</time>
      </trkpt>
      <trkpt lat="10.1575731640859" lon="-75.6828796417502">
        <ele>55.3851891</ele>
        <time>2019-09-10T14:49:56.100Z</time>
      </trkpt>
      <trkpt lat="10.1575717600284" lon="-75.6828820177198">
        <ele>55.3851891</ele>
        <time>2019-09-10T14:49:56.200Z</time>
      </trkpt>
      <trkpt lat="10.1575703311665" lon="-75.6828844140206">
        <ele>55.3851891</ele>
        <time>2019-09-10T14:49:56.300Z</time>
      </trkpt>
      <trkpt lat="10.1575688861505" lon="-75.6828868391472">
        <ele>55.3851891</ele>
        <time>2019-09-10T14:49:56.400Z</time>
      </trkpt>
      <trkpt lat="10.1575674769862" lon="-75.6828892116354">
        <ele>55.3851891</ele>
        <time>2019-09-10T14:49:56.500Z</time>
      </trkpt>
      <trkpt lat="10.1575660839761" lon="-75.6828915742365">
        <ele>55.3851891</ele>
        <time>2019-09-10T14:49:56.600Z</time>
      </trkpt>
      <trkpt lat="10.1575646933631" lon="-75.682893960511">
        <ele>55.3851891</ele>
        <time>2019-09-10T14:49:56.700Z</time>
      </trkpt>
      <trkpt lat="10.1575632887846" lon="-75.6828963842451">
        <ele>55.3851891</ele>
        <time>2019-09-10T14:49:56.800Z</time>
      </trkpt>
      <trkpt lat="10.1575618723249" lon="-75.6828987791533">
        <ele>55.3851891</ele>
        <time>2019-09-10T14:49:56.900Z</time>
      </trkpt>
      <trkpt lat="10.1575604432546" lon="-75.6829011746186">
        <ele>55.3851891</ele>
        <time>2019-09-10T14:49:57.000Z</time>
      </trkpt>
      <trkpt lat="10.1575590289835" lon="-75.6829035582473">
        <ele>55.3851891</ele>
        <time>2019-09-10T14:49:57.100Z</time>
      </trkpt>
      <trkpt lat="10.1575576255514" lon="-75.6829059492564">
        <ele>55.3851891</ele>
        <time>2019-09-10T14:49:57.200Z</time>
      </trkpt>
      <trkpt lat="10.157556239941" lon="-75.682908289716">
        <ele>55.3851891</ele>
        <time>2019-09-10T14:49:57.300Z</time>
      </trkpt>
      <trkpt lat="10.1575548653779" lon="-75.6829106392271">
        <ele>55.3851891</ele>
        <time>2019-09-10T14:49:57.400Z</time>
      </trkpt>
      <trkpt lat="10.1575535122843" lon="-75.6829129901308">
        <ele>55.3851891</ele>
        <time>2019-09-10T14:49:57.500Z</time>
      </trkpt>
      <trkpt lat="10.1575521493939" lon="-75.6829153654041">
        <ele>55.2851891</ele>
        <time>2019-09-10T14:49:57.600Z</time>
      </trkpt>
      <trkpt lat="10.1575507657636" lon="-75.6829178066843">
        <ele>55.2851891</ele>
        <time>2019-09-10T14:49:57.700Z</time>
      </trkpt>
      <trkpt lat="10.1575493733789" lon="-75.6829202713594">
        <ele>55.2851891</ele>
        <time>2019-09-10T14:49:57.800Z</time>
      </trkpt>
      <trkpt lat="10.1575466256076" lon="-75.6829250483644">
        <ele>55.2851891</ele>
        <time>2019-09-10T14:49:58.000Z</time>
      </trkpt>
      <trkpt lat="10.1575452966931" lon="-75.6829273849248">
        <ele>55.2851891</ele>
        <time>2019-09-10T14:49:58.100Z</time>
      </trkpt>
      <trkpt lat="10.1575439761162" lon="-75.6829297255237">
        <ele>55.2851891</ele>
        <time>2019-09-10T14:49:58.200Z</time>
      </trkpt>
      <trkpt lat="10.157542635529" lon="-75.68293207406">
        <ele>55.2851891</ele>
        <time>2019-09-10T14:49:58.300Z</time>
      </trkpt>
      <trkpt lat="10.1575412706584" lon="-75.6829344593597">
        <ele>55.2851891</ele>
        <time>2019-09-10T14:49:58.400Z</time>
      </trkpt>
      <trkpt lat="10.1575399093314" lon="-75.6829368265562">
        <ele>55.3851891</ele>
        <time>2019-09-10T14:49:58.500Z</time>
      </trkpt>
      <trkpt lat="10.1575385422722" lon="-75.6829391966771">
        <ele>55.3851891</ele>
        <time>2019-09-10T14:49:58.600Z</time>
      </trkpt>
      <trkpt lat="10.1575372019976" lon="-75.6829415644306">
        <ele>55.2851891</ele>
        <time>2019-09-10T14:49:58.700Z</time>
      </trkpt>
      <trkpt lat="10.157535859326" lon="-75.6829439511229">
        <ele>55.2851891</ele>
        <time>2019-09-10T14:49:58.800Z</time>
      </trkpt>
      <trkpt lat="10.1575345408335" lon="-75.6829462897721">
        <ele>55.2851891</ele>
        <time>2019-09-10T14:49:58.900Z</time>
      </trkpt>
      <trkpt lat="10.1575332116064" lon="-75.6829486243829">
        <ele>55.2851891</ele>
        <time>2019-09-10T14:49:59.000Z</time>
      </trkpt>
      <trkpt lat="10.1575318833172" lon="-75.6829509608041">
        <ele>55.2851891</ele>
        <time>2019-09-10T14:49:59.100Z</time>
      </trkpt>
      <trkpt lat="10.157530516258" lon="-75.6829533203416">
        <ele>55.2851891</ele>
        <time>2019-09-10T14:49:59.200Z</time>
      </trkpt>
      <trkpt lat="10.1575291188706" lon="-75.6829556775118">
        <ele>55.2851891</ele>
        <time>2019-09-10T14:49:59.300Z</time>
      </trkpt>
      <trkpt lat="10.1575277016814" lon="-75.6829580476326">
        <ele>55.3851891</ele>
        <time>2019-09-10T14:49:59.400Z</time>
      </trkpt>
      <trkpt lat="10.1575263095051" lon="-75.6829604006251">
        <ele>55.3851891</ele>
        <time>2019-09-10T14:49:59.500Z</time>
      </trkpt>
      <trkpt lat="10.1575249225398" lon="-75.6829627506933">
        <ele>55.3851891</ele>
        <time>2019-09-10T14:49:59.600Z</time>
      </trkpt>
      <trkpt lat="10.157523532031" lon="-75.6829650975586">
        <ele>55.3851891</ele>
        <time>2019-09-10T14:49:59.700Z</time>
      </trkpt>
      <trkpt lat="10.1575221348521" lon="-75.6829674635018">
        <ele>55.3851891</ele>
        <time>2019-09-10T14:49:59.800Z</time>
      </trkpt>
      <trkpt lat="10.1575207374648" lon="-75.6829698518651">
        <ele>55.3851891</ele>
        <time>2019-09-10T14:49:59.900Z</time>
      </trkpt>
      <trkpt lat="10.1575193363255" lon="-75.682972256939">
        <ele>55.3851891</ele>
        <time>2019-09-10T14:50:00.000Z</time>
      </trkpt>
      <trkpt lat="10.15751796343" lon="-75.6829746483659">
        <ele>55.3851891</ele>
        <time>2019-09-10T14:50:00.100Z</time>
      </trkpt>
      <trkpt lat="10.1575165894922" lon="-75.6829770363114">
        <ele>55.3851891</ele>
        <time>2019-09-10T14:50:00.200Z</time>
      </trkpt>
      <trkpt lat="10.1575152001299" lon="-75.6829794289916">
        <ele>55.3851891</ele>
        <time>2019-09-10T14:50:00.300Z</time>
      </trkpt>
      <trkpt lat="10.1575123945163" lon="-75.6829841686764">
        <ele>55.3851891</ele>
        <time>2019-09-10T14:50:00.500Z</time>
      </trkpt>
      <trkpt lat="10.15750963872" lon="-75.6829888592041">
        <ele>55.3851891</ele>
        <time>2019-09-10T14:50:00.700Z</time>
      </trkpt>
      <trkpt lat="10.1575082614473" lon="-75.6829912148424">
        <ele>55.3851891</ele>
        <time>2019-09-10T14:50:00.800Z</time>
      </trkpt>
      <trkpt lat="10.1575068933459" lon="-75.6829935373381">
        <ele>55.3851891</ele>
        <time>2019-09-10T14:50:00.900Z</time>
      </trkpt>
      <trkpt lat="10.1575055159688" lon="-75.6829958649862">
        <ele>55.3851891</ele>
        <time>2019-09-10T14:50:01.000Z</time>
      </trkpt>
      <trkpt lat="10.1575041432817" lon="-75.6829981916595">
        <ele>55.3851891</ele>
        <time>2019-09-10T14:50:01.100Z</time>
      </trkpt>
      <trkpt lat="10.1575027615275" lon="-75.6830005535643">
        <ele>55.3851891</ele>
        <time>2019-09-10T14:50:01.200Z</time>
      </trkpt>
      <trkpt lat="10.1575013755002" lon="-75.6830029098989">
        <ele>55.3851891</ele>
        <time>2019-09-10T14:50:01.300Z</time>
      </trkpt>
      <trkpt lat="10.1574999783213" lon="-75.683005285033">
        <ele>55.3851891</ele>
        <time>2019-09-10T14:50:01.400Z</time>
      </trkpt>
      <trkpt lat="10.1574985977134" lon="-75.6830075883115">
        <ele>55.3851891</ele>
        <time>2019-09-10T14:50:01.500Z</time>
      </trkpt>
      <trkpt lat="10.1574972183562" lon="-75.6830098885263">
        <ele>55.3851891</ele>
        <time>2019-09-10T14:50:01.600Z</time>
      </trkpt>
      <trkpt lat="10.1574958286812" lon="-75.683012190273">
        <ele>55.2851891</ele>
        <time>2019-09-10T14:50:01.700Z</time>
      </trkpt>
      <trkpt lat="10.1574944238942" lon="-75.6830145367205">
        <ele>55.2851891</ele>
        <time>2019-09-10T14:50:01.800Z</time>
      </trkpt>
      <trkpt lat="10.1574930224423" lon="-75.6830168892952">
        <ele>55.2851891</ele>
        <time>2019-09-10T14:50:01.900Z</time>
      </trkpt>
      <trkpt lat="10.1574916230747" lon="-75.6830192567703">
        <ele>55.2851891</ele>
        <time>2019-09-10T14:50:02.000Z</time>
      </trkpt>
      <trkpt lat="10.1574902240199" lon="-75.6830216094843">
        <ele>55.2851891</ele>
        <time>2019-09-10T14:50:02.100Z</time>
      </trkpt>
      <trkpt lat="10.1574888169401" lon="-75.6830239638693">
        <ele>55.2851891</ele>
        <time>2019-09-10T14:50:02.200Z</time>
      </trkpt>
      <trkpt lat="10.1574874105898" lon="-75.6830263132412">
        <ele>55.2851891</ele>
        <time>2019-09-10T14:50:02.300Z</time>
      </trkpt>
      <trkpt lat="10.1574859961103" lon="-75.6830286658159">
        <ele>55.2851891</ele>
        <time>2019-09-10T14:50:02.400Z</time>
      </trkpt>
      <trkpt lat="10.1574845889262" lon="-75.6830310111494">
        <ele>55.2851891</ele>
        <time>2019-09-10T14:50:02.500Z</time>
      </trkpt>
      <trkpt lat="10.1574831699653" lon="-75.6830333584325">
        <ele>55.2851891</ele>
        <time>2019-09-10T14:50:02.600Z</time>
      </trkpt>
      <trkpt lat="10.1574817603841" lon="-75.6830356670026">
        <ele>55.2851891</ele>
        <time>2019-09-10T14:50:02.700Z</time>
      </trkpt>
      <trkpt lat="10.1574803407979" lon="-75.6830379793327">
        <ele>55.2851891</ele>
        <time>2019-09-10T14:50:02.800Z</time>
      </trkpt>
      <trkpt lat="10.1574789256931" lon="-75.6830402639509">
        <ele>55.1851891</ele>
        <time>2019-09-10T14:50:02.900Z</time>
      </trkpt>
      <trkpt lat="10.1574774973523" lon="-75.6830425650013">
        <ele>55.1851891</ele>
        <time>2019-09-10T14:50:03.000Z</time>
      </trkpt>
      <trkpt lat="10.1574761016324" lon="-75.683044791968">
        <ele>55.1851891</ele>
        <time>2019-09-10T14:50:03.100Z</time>
      </trkpt>
      <trkpt lat="10.1574747122701" lon="-75.6830470165674">
        <ele>55.1851891</ele>
        <time>2019-09-10T14:50:03.200Z</time>
      </trkpt>
      <trkpt lat="10.157473304148" lon="-75.6830492752842">
        <ele>55.1851891</ele>
        <time>2019-09-10T14:50:03.300Z</time>
      </trkpt>
      <trkpt lat="10.1574718692414" lon="-75.6830515930452">
        <ele>55.1851891</ele>
        <time>2019-09-10T14:50:03.400Z</time>
      </trkpt>
      <trkpt lat="10.1574704331882" lon="-75.6830539119202">
        <ele>55.1851891</ele>
        <time>2019-09-10T14:50:03.500Z</time>
      </trkpt>
      <trkpt lat="10.1574690041179" lon="-75.6830562477844">
        <ele>55.1851891</ele>
        <time>2019-09-10T14:50:03.600Z</time>
      </trkpt>
      <trkpt lat="10.1574675991225" lon="-75.6830586057901">
        <ele>55.1851891</ele>
        <time>2019-09-10T14:50:03.700Z</time>
      </trkpt>
      <trkpt lat="10.1574661982959" lon="-75.6830609732651">
        <ele>55.1851891</ele>
        <time>2019-09-10T14:50:03.800Z</time>
      </trkpt>
      <trkpt lat="10.157464785067" lon="-75.6830633417149">
        <ele>55.1851891</ele>
        <time>2019-09-10T14:50:03.900Z</time>
      </trkpt>
      <trkpt lat="10.1574633607908" lon="-75.6830657082152">
        <ele>55.1851891</ele>
        <time>2019-09-10T14:50:04.000Z</time>
      </trkpt>
      <trkpt lat="10.1574605770635" lon="-75.6830703736769">
        <ele>55.1851891</ele>
        <time>2019-09-10T14:50:04.200Z</time>
      </trkpt>
      <trkpt lat="10.157459208441" lon="-75.6830727009073">
        <ele>55.1851891</ele>
        <time>2019-09-10T14:50:04.300Z</time>
      </trkpt>
      <trkpt lat="10.1574578303345" lon="-75.6830750486081">
        <ele>55.1851891</ele>
        <time>2019-09-10T14:50:04.400Z</time>
      </trkpt>
      <trkpt lat="10.1574564616077" lon="-75.6830773943593">
        <ele>55.1851891</ele>
        <time>2019-09-10T14:50:04.500Z</time>
      </trkpt>
      <trkpt lat="10.1574550829801" lon="-75.6830797525043">
        <ele>55.1851891</ele>
        <time>2019-09-10T14:50:04.600Z</time>
      </trkpt>
      <trkpt lat="10.1574536948684" lon="-75.6830821347404">
        <ele>55.1851891</ele>
        <time>2019-09-10T14:50:04.700Z</time>
      </trkpt>
      <trkpt lat="10.1574522877885" lon="-75.6830845335478">
        <ele>55.1851891</ele>
        <time>2019-09-10T14:50:04.800Z</time>
      </trkpt>
      <trkpt lat="10.1574508979051" lon="-75.6830868972629">
        <ele>55.2851891</ele>
        <time>2019-09-10T14:50:04.900Z</time>
      </trkpt>
      <trkpt lat="10.1574495093765" lon="-75.6830892449637">
        <ele>55.2851891</ele>
        <time>2019-09-10T14:50:05.000Z</time>
      </trkpt>
      <trkpt lat="10.1574467286716" lon="-75.6830939104255">
        <ele>55.2851891</ele>
        <time>2019-09-10T14:50:05.200Z</time>
      </trkpt>
      <trkpt lat="10.1574453353488" lon="-75.6830962352885">
        <ele>55.2851891</ele>
        <time>2019-09-10T14:50:05.300Z</time>
      </trkpt>
      <trkpt lat="10.1574439303534" lon="-75.6830985742163">
        <ele>55.2851891</ele>
        <time>2019-09-10T14:50:05.400Z</time>
      </trkpt>
      <trkpt lat="10.1574425160823" lon="-75.6831009325005">
        <ele>55.2851891</ele>
        <time>2019-09-10T14:50:05.500Z</time>
      </trkpt>
      <trkpt lat="10.1574410927441" lon="-75.6831033058242">
        <ele>55.2851891</ele>
        <time>2019-09-10T14:50:05.600Z</time>
      </trkpt>
      <trkpt lat="10.157439663778" lon="-75.683105673717">
        <ele>55.1851891</ele>
        <time>2019-09-10T14:50:05.700Z</time>
      </trkpt>
      <trkpt lat="10.1574382420031" lon="-75.683108038964">
        <ele>55.1851891</ele>
        <time>2019-09-10T14:50:05.800Z</time>
      </trkpt>
      <trkpt lat="10.1574368427398" lon="-75.6831104019828">
        <ele>55.2851891</ele>
        <time>2019-09-10T14:50:05.900Z</time>
      </trkpt>
      <trkpt lat="10.1574354573378" lon="-75.6831127764206">
        <ele>55.2851891</ele>
        <time>2019-09-10T14:50:06.000Z</time>
      </trkpt>
      <trkpt lat="10.1574341275895" lon="-75.6831150989163">
        <ele>55.2851891</ele>
        <time>2019-09-10T14:50:06.100Z</time>
      </trkpt>
      <trkpt lat="10.1574328041987" lon="-75.6831174108286">
        <ele>55.2851891</ele>
        <time>2019-09-10T14:50:06.200Z</time>
      </trkpt>
      <trkpt lat="10.1574314857062" lon="-75.6831197602004">
        <ele>55.2851891</ele>
        <time>2019-09-10T14:50:06.300Z</time>
      </trkpt>
      <trkpt lat="10.1574301336547" lon="-75.6831221516273">
        <ele>55.1851891</ele>
        <time>2019-09-10T14:50:06.400Z</time>
      </trkpt>
      <trkpt lat="10.1574287936929" lon="-75.6831245301035">
        <ele>55.1851891</ele>
        <time>2019-09-10T14:50:06.500Z</time>
      </trkpt>
      <trkpt lat="10.1574274339291" lon="-75.6831269030095">
        <ele>55.1851891</ele>
        <time>2019-09-10T14:50:06.600Z</time>
      </trkpt>
      <trkpt lat="10.1574260607209" lon="-75.6831292356708">
        <ele>55.1851891</ele>
        <time>2019-09-10T14:50:06.700Z</time>
      </trkpt>
      <trkpt lat="10.1574246612492" lon="-75.6831315633189">
        <ele>55.1851891</ele>
        <time>2019-09-10T14:50:06.800Z</time>
      </trkpt>
      <trkpt lat="10.1574219138948" lon="-75.6831361294918">
        <ele>55.1851891</ele>
        <time>2019-09-10T14:50:07.000Z</time>
      </trkpt>
      <trkpt lat="10.1574205288054" lon="-75.6831384394545">
        <ele>55.1851891</ele>
        <time>2019-09-10T14:50:07.100Z</time>
      </trkpt>
      <trkpt lat="10.1574191240185" lon="-75.6831407879909">
        <ele>55.1851891</ele>
        <time>2019-09-10T14:50:07.200Z</time>
      </trkpt>
      <trkpt lat="10.1574177358025" lon="-75.6831431193988">
        <ele>55.1851891</ele>
        <time>2019-09-10T14:50:07.300Z</time>
      </trkpt>
      <trkpt lat="10.1574163414376" lon="-75.6831454560985">
        <ele>55.1851891</ele>
        <time>2019-09-10T14:50:07.400Z</time>
      </trkpt>
      <trkpt lat="10.1574149504077" lon="-75.6831477650864">
        <ele>55.1851891</ele>
        <time>2019-09-10T14:50:07.500Z</time>
      </trkpt>
      <trkpt lat="10.1574135474967" lon="-75.6831500779735">
        <ele>55.1851891</ele>
        <time>2019-09-10T14:50:07.600Z</time>
      </trkpt>
      <trkpt lat="10.1574121274935" lon="-75.6831523884932">
        <ele>55.1851891</ele>
        <time>2019-09-10T14:50:07.700Z</time>
      </trkpt>
      <trkpt lat="10.1574106941501" lon="-75.6831547183694">
        <ele>55.1851891</ele>
        <time>2019-09-10T14:50:07.800Z</time>
      </trkpt>
      <trkpt lat="10.1574092716457" lon="-75.6831570522839">
        <ele>55.1851891</ele>
        <time>2019-09-10T14:50:07.900Z</time>
      </trkpt>
      <trkpt lat="10.1574078523721" lon="-75.6831594031876">
        <ele>55.1851891</ele>
        <time>2019-09-10T14:50:08.000Z</time>
      </trkpt>
      <trkpt lat="10.1574064078771" lon="-75.6831617941968">
        <ele>55.1851891</ele>
        <time>2019-09-10T14:50:08.100Z</time>
      </trkpt>
      <trkpt lat="10.1574049537939" lon="-75.6831641974603">
        <ele>55.1851891</ele>
        <time>2019-09-10T14:50:08.200Z</time>
      </trkpt>
      <trkpt lat="10.1574035103411" lon="-75.6831665693915">
        <ele>55.1851891</ele>
        <time>2019-09-10T14:50:08.300Z</time>
      </trkpt>
      <trkpt lat="10.1574020706403" lon="-75.6831689230803">
        <ele>55.1851891</ele>
        <time>2019-09-10T14:50:08.400Z</time>
      </trkpt>
      <trkpt lat="10.1574006527215" lon="-75.6831712604763">
        <ele>55.1851891</ele>
        <time>2019-09-10T14:50:08.500Z</time>
      </trkpt>
      <trkpt lat="10.1573978295989" lon="-75.6831759269129">
        <ele>55.1851891</ele>
        <time>2019-09-10T14:50:08.700Z</time>
      </trkpt>
      <trkpt lat="10.1573964126181" lon="-75.6831782644481">
        <ele>55.1851891</ele>
        <time>2019-09-10T14:50:08.800Z</time>
      </trkpt>
      <trkpt lat="10.1573950212756" lon="-75.6831806000337">
        <ele>55.1851891</ele>
        <time>2019-09-10T14:50:08.900Z</time>
      </trkpt>
      <trkpt lat="10.1573936287866" lon="-75.6831829499626">
        <ele>55.1851891</ele>
        <time>2019-09-10T14:50:09.000Z</time>
      </trkpt>
      <trkpt lat="10.1573922328583" lon="-75.6831852759396">
        <ele>55.1851891</ele>
        <time>2019-09-10T14:50:09.100Z</time>
      </trkpt>
      <trkpt lat="10.1573908224435" lon="-75.6831876090186">
        <ele>55.1851891</ele>
        <time>2019-09-10T14:50:09.200Z</time>
      </trkpt>
      <trkpt lat="10.1573894022318" lon="-75.6831899654925">
        <ele>55.0851891</ele>
        <time>2019-09-10T14:50:09.300Z</time>
      </trkpt>
      <trkpt lat="10.1573879752459" lon="-75.6831923443865">
        <ele>55.0851891</ele>
        <time>2019-09-10T14:50:09.400Z</time>
      </trkpt>
      <trkpt lat="10.1573865268948" lon="-75.683194691391">
        <ele>55.0851891</ele>
        <time>2019-09-10T14:50:09.500Z</time>
      </trkpt>
      <trkpt lat="10.1573850756255" lon="-75.6831970368638">
        <ele>55.1851891</ele>
        <time>2019-09-10T14:50:09.600Z</time>
      </trkpt>
      <trkpt lat="10.1573836456172" lon="-75.6831993674362">
        <ele>55.0851891</ele>
        <time>2019-09-10T14:50:09.700Z</time>
      </trkpt>
      <trkpt lat="10.1573822339516" lon="-75.6832017131875">
        <ele>55.0851891</ele>
        <time>2019-09-10T14:50:09.800Z</time>
      </trkpt>
      <trkpt lat="10.1573808498003" lon="-75.6832040512797">
        <ele>55.0851891</ele>
        <time>2019-09-10T14:50:09.900Z</time>
      </trkpt>
      <trkpt lat="10.1573794711726" lon="-75.6832064053862">
        <ele>55.0851891</ele>
        <time>2019-09-10T14:50:10.000Z</time>
      </trkpt>
      <trkpt lat="10.1573781117215" lon="-75.6832087503019">
        <ele>55.0851891</ele>
        <time>2019-09-10T14:50:10.100Z</time>
      </trkpt>
      <trkpt lat="10.1573753744765" lon="-75.6832134826061">
        <ele>55.1851891</ele>
        <time>2019-09-10T14:50:10.300Z</time>
      </trkpt>
      <trkpt lat="10.1573739894914" lon="-75.6832158683236">
        <ele>55.1851891</ele>
        <time>2019-09-10T14:50:10.400Z</time>
      </trkpt>
      <trkpt lat="10.1573725914788" lon="-75.68321821686">
        <ele>55.1851891</ele>
        <time>2019-09-10T14:50:10.500Z</time>
      </trkpt>
      <trkpt lat="10.1573711768951" lon="-75.6832205578765">
        <ele>55.1851891</ele>
        <time>2019-09-10T14:50:10.600Z</time>
      </trkpt>
      <trkpt lat="10.1573697308368" lon="-75.6832229122616">
        <ele>55.1851891</ele>
        <time>2019-09-10T14:50:10.700Z</time>
      </trkpt>
      <trkpt lat="10.1573682583065" lon="-75.6832252789011">
        <ele>55.1851891</ele>
        <time>2019-09-10T14:50:10.800Z</time>
      </trkpt>
      <trkpt lat="10.1573667760838" lon="-75.6832275980546">
        <ele>55.1851891</ele>
        <time>2019-09-10T14:50:10.900Z</time>
      </trkpt>
      <trkpt lat="10.1573652887542" lon="-75.6832299055107">
        <ele>55.1851891</ele>
        <time>2019-09-10T14:50:11.000Z</time>
      </trkpt>
      <trkpt lat="10.157363809137" lon="-75.6832322068396">
        <ele>55.1851891</ele>
        <time>2019-09-10T14:50:11.100Z</time>
      </trkpt>
      <trkpt lat="10.1573623317084" lon="-75.6832345269679">
        <ele>55.1851891</ele>
        <time>2019-09-10T14:50:11.200Z</time>
      </trkpt>
      <trkpt lat="10.1573608679326" lon="-75.6832368266258">
        <ele>55.1851891</ele>
        <time>2019-09-10T14:50:11.300Z</time>
      </trkpt>
      <trkpt lat="10.1573594096806" lon="-75.68323913631">
        <ele>55.1851891</ele>
        <time>2019-09-10T14:50:11.400Z</time>
      </trkpt>
      <trkpt lat="10.1573579869677" lon="-75.6832414305368">
        <ele>55.1851891</ele>
        <time>2019-09-10T14:50:11.500Z</time>
      </trkpt>
      <trkpt lat="10.1573565758233" lon="-75.683243740221">
        <ele>55.2851891</ele>
        <time>2019-09-10T14:50:11.600Z</time>
      </trkpt>
      <trkpt lat="10.1573551544652" lon="-75.6832460565895">
        <ele>55.2851891</ele>
        <time>2019-09-10T14:50:11.700Z</time>
      </trkpt>
      <trkpt lat="10.157353717891" lon="-75.6832483925928">
        <ele>55.2851891</ele>
        <time>2019-09-10T14:50:11.800Z</time>
      </trkpt>
      <trkpt lat="10.1573522795451" lon="-75.6832507380656">
        <ele>55.1851891</ele>
        <time>2019-09-10T14:50:11.900Z</time>
      </trkpt>
      <trkpt lat="10.1573508395316" lon="-75.6832530923114">
        <ele>55.2851891</ele>
        <time>2019-09-10T14:50:12.000Z</time>
      </trkpt>
      <trkpt lat="10.1573493963915" lon="-75.6832554248334">
        <ele>55.2851891</ele>
        <time>2019-09-10T14:50:12.100Z</time>
      </trkpt>
      <trkpt lat="10.1573479526261" lon="-75.6832577562414">
        <ele>55.2851891</ele>
        <time>2019-09-10T14:50:12.200Z</time>
      </trkpt>
      <trkpt lat="10.1573465075058" lon="-75.6832600909915">
        <ele>55.2851891</ele>
        <time>2019-09-10T14:50:12.300Z</time>
      </trkpt>
      <trkpt lat="10.1573450661374" lon="-75.6832624438447">
        <ele>55.2851891</ele>
        <time>2019-09-10T14:50:12.400Z</time>
      </trkpt>
      <trkpt lat="10.1573436300843" lon="-75.6832647738602">
        <ele>55.2851891</ele>
        <time>2019-09-10T14:50:12.500Z</time>
      </trkpt>
      <trkpt lat="10.1573422028899" lon="-75.683267107914">
        <ele>55.2851891</ele>
        <time>2019-09-10T14:50:12.600Z</time>
      </trkpt>
      <trkpt lat="10.157340798103" lon="-75.6832694602102">
        <ele>55.2851891</ele>
        <time>2019-09-10T14:50:12.700Z</time>
      </trkpt>
      <trkpt lat="10.1573393925864" lon="-75.6832718310274">
        <ele>55.2851891</ele>
        <time>2019-09-10T14:50:12.800Z</time>
      </trkpt>
      <trkpt lat="10.1573379954075" lon="-75.6832741670308">
        <ele>55.2851891</ele>
        <time>2019-09-10T14:50:12.900Z</time>
      </trkpt>
      <trkpt lat="10.1573365890572" lon="-75.6832764981602">
        <ele>55.2851891</ele>
        <time>2019-09-10T14:50:13.000Z</time>
      </trkpt>
      <trkpt lat="10.1573351875011" lon="-75.6832787957292">
        <ele>55.2851891</ele>
        <time>2019-09-10T14:50:13.100Z</time>
      </trkpt>
      <trkpt lat="10.1573337745849" lon="-75.6832810995647">
        <ele>55.2851891</ele>
        <time>2019-09-10T14:50:13.200Z</time>
      </trkpt>
      <trkpt lat="10.1573323600012" lon="-75.6832834323652">
        <ele>55.2851891</ele>
        <time>2019-09-10T14:50:13.300Z</time>
      </trkpt>
      <trkpt lat="10.1573309310351" lon="-75.6832857984477">
        <ele>55.2851891</ele>
        <time>2019-09-10T14:50:13.400Z</time>
      </trkpt>
      <trkpt lat="10.1573295155134" lon="-75.6832881167657">
        <ele>55.3851891</ele>
        <time>2019-09-10T14:50:13.500Z</time>
      </trkpt>
      <trkpt lat="10.1573281014508" lon="-75.6832904242218">
        <ele>55.3851891</ele>
        <time>2019-09-10T14:50:13.600Z</time>
      </trkpt>
      <trkpt lat="10.1573266957258" lon="-75.6832927584149">
        <ele>55.3851891</ele>
        <time>2019-09-10T14:50:13.700Z</time>
      </trkpt>
      <trkpt lat="10.1573252844772" lon="-75.683295127561">
        <ele>55.3851891</ele>
        <time>2019-09-10T14:50:13.800Z</time>
      </trkpt>
      <trkpt lat="10.1573238953233" lon="-75.6832974969856">
        <ele>55.3851891</ele>
        <time>2019-09-10T14:50:13.900Z</time>
      </trkpt>
      <trkpt lat="10.1573225066904" lon="-75.6832998703094">
        <ele>55.3851891</ele>
        <time>2019-09-10T14:50:14.000Z</time>
      </trkpt>
      <trkpt lat="10.157321134316" lon="-75.6833022131362">
        <ele>55.3851891</ele>
        <time>2019-09-10T14:50:14.100Z</time>
      </trkpt>
      <trkpt lat="10.1573197522491" lon="-75.6833045519247">
        <ele>55.3851891</ele>
        <time>2019-09-10T14:50:14.200Z</time>
      </trkpt>
      <trkpt lat="10.1573169915545" lon="-75.6833092218427">
        <ele>55.3851891</ele>
        <time>2019-09-10T14:50:14.400Z</time>
      </trkpt>
      <trkpt lat="10.1573156138648" lon="-75.6833115599349">
        <ele>55.3851891</ele>
        <time>2019-09-10T14:50:14.500Z</time>
      </trkpt>
      <trkpt lat="10.1573142306514" lon="-75.6833139111171">
        <ele>55.3851891</ele>
        <time>2019-09-10T14:50:14.600Z</time>
      </trkpt>
      <trkpt lat="10.1573128528575" lon="-75.6833162305492">
        <ele>55.3851891</ele>
        <time>2019-09-10T14:50:14.700Z</time>
      </trkpt>
      <trkpt lat="10.1573114675598" lon="-75.6833185556906">
        <ele>55.3851891</ele>
        <time>2019-09-10T14:50:14.800Z</time>
      </trkpt>
      <trkpt lat="10.1573101006048" lon="-75.6833208478287">
        <ele>55.3851891</ele>
        <time>2019-09-10T14:50:14.900Z</time>
      </trkpt>
      <trkpt lat="10.1573087291683" lon="-75.6833231572344">
        <ele>55.3851891</ele>
        <time>2019-09-10T14:50:15.000Z</time>
      </trkpt>
      <trkpt lat="10.1573059900474" lon="-75.6833278729673">
        <ele>55.3851891</ele>
        <time>2019-09-10T14:50:15.200Z</time>
      </trkpt>
      <trkpt lat="10.1573046384128" lon="-75.6833302734457">
        <ele>55.3851891</ele>
        <time>2019-09-10T14:50:15.300Z</time>
      </trkpt>
      <trkpt lat="10.1573032791701" lon="-75.6833326822795">
        <ele>55.3851891</ele>
        <time>2019-09-10T14:50:15.400Z</time>
      </trkpt>
      <trkpt lat="10.1573019218034" lon="-75.6833350987723">
        <ele>55.3851891</ele>
        <time>2019-09-10T14:50:15.500Z</time>
      </trkpt>
      <trkpt lat="10.1573005472404" lon="-75.6833375127586">
        <ele>55.3851891</ele>
        <time>2019-09-10T14:50:15.600Z</time>
      </trkpt>
      <trkpt lat="10.1572991704887" lon="-75.6833399073883">
        <ele>55.3851891</ele>
        <time>2019-09-10T14:50:15.700Z</time>
      </trkpt>
      <trkpt lat="10.1572977851909" lon="-75.6833422911562">
        <ele>55.3851891</ele>
        <time>2019-09-10T14:50:15.800Z</time>
      </trkpt>
      <trkpt lat="10.1572964096899" lon="-75.683344680355">
        <ele>55.3851891</ele>
        <time>2019-09-10T14:50:15.900Z</time>
      </trkpt>
      <trkpt lat="10.1572950303327" lon="-75.6833470758203">
        <ele>55.3851891</ele>
        <time>2019-09-10T14:50:16.000Z</time>
      </trkpt>
      <trkpt lat="10.1572936708816" lon="-75.6833494430168">
        <ele>55.3851891</ele>
        <time>2019-09-10T14:50:16.100Z</time>
      </trkpt>
      <trkpt lat="10.1572923099714" lon="-75.6833518060357">
        <ele>55.4851891</ele>
        <time>2019-09-10T14:50:16.200Z</time>
      </trkpt>
      <trkpt lat="10.157290973553" lon="-75.6833541494196">
        <ele>55.4851891</ele>
        <time>2019-09-10T14:50:16.300Z</time>
      </trkpt>
      <trkpt lat="10.1572896290054" lon="-75.6833565008803">
        <ele>55.4851891</ele>
        <time>2019-09-10T14:50:16.400Z</time>
      </trkpt>
      <trkpt lat="10.1572882730978" lon="-75.6833588313135">
        <ele>55.4851891</ele>
        <time>2019-09-10T14:50:16.500Z</time>
      </trkpt>
      <trkpt lat="10.1572868975967" lon="-75.6833611749759">
        <ele>55.4851891</ele>
        <time>2019-09-10T14:50:16.600Z</time>
      </trkpt>
      <trkpt lat="10.1572855371034" lon="-75.6833635054091">
        <ele>55.4851891</ele>
        <time>2019-09-10T14:50:16.700Z</time>
      </trkpt>
      <trkpt lat="10.1572841741088" lon="-75.6833658500463">
        <ele>55.4851891</ele>
        <time>2019-09-10T14:50:16.800Z</time>
      </trkpt>
      <trkpt lat="10.1572828195561" lon="-75.6833681309047">
        <ele>55.4851891</ele>
        <time>2019-09-10T14:50:16.900Z</time>
      </trkpt>
      <trkpt lat="10.1572814567699" lon="-75.6833704085603">
        <ele>55.4851891</ele>
        <time>2019-09-10T14:50:17.000Z</time>
      </trkpt>
      <trkpt lat="10.1572800930458" lon="-75.6833727055722">
        <ele>55.4851891</ele>
        <time>2019-09-10T14:50:17.100Z</time>
      </trkpt>
      <trkpt lat="10.157278717649" lon="-75.683375050488">
        <ele>55.4851891</ele>
        <time>2019-09-10T14:50:17.200Z</time>
      </trkpt>
      <trkpt lat="10.1572759522645" lon="-75.68337975703">
        <ele>55.4851891</ele>
        <time>2019-09-10T14:50:17.400Z</time>
      </trkpt>
      <trkpt lat="10.1572745631105" lon="-75.6833821179601">
        <ele>55.4851891</ele>
        <time>2019-09-10T14:50:17.500Z</time>
      </trkpt>
      <trkpt lat="10.1572731710384" lon="-75.6833844854351">
        <ele>55.4851891</ele>
        <time>2019-09-10T14:50:17.600Z</time>
      </trkpt>
      <trkpt lat="10.157271802937" lon="-75.6833868492895">
        <ele>55.4851891</ele>
        <time>2019-09-10T14:50:17.700Z</time>
      </trkpt>
      <trkpt lat="10.1572704372327" lon="-75.6833892189926">
        <ele>55.4851891</ele>
        <time>2019-09-10T14:50:17.800Z</time>
      </trkpt>
      <trkpt lat="10.1572690938316" lon="-75.6833915797834">
        <ele>55.4851891</ele>
        <time>2019-09-10T14:50:17.900Z</time>
      </trkpt>
      <trkpt lat="10.1572677409463" lon="-75.6833939462836">
        <ele>55.4851891</ele>
        <time>2019-09-10T14:50:18.000Z</time>
      </trkpt>
      <trkpt lat="10.1572650561242" lon="-75.6833986571426">
        <ele>55.4851891</ele>
        <time>2019-09-10T14:50:18.200Z</time>
      </trkpt>
      <trkpt lat="10.1572636974026" lon="-75.6834009969059">
        <ele>55.4851891</ele>
        <time>2019-09-10T14:50:18.300Z</time>
      </trkpt>
      <trkpt lat="10.1572623191919" lon="-75.6834033459992">
        <ele>55.4851891</ele>
        <time>2019-09-10T14:50:18.400Z</time>
      </trkpt>
      <trkpt lat="10.1572609166977" lon="-75.6834057084611">
        <ele>55.4851891</ele>
        <time>2019-09-10T14:50:18.500Z</time>
      </trkpt>
      <trkpt lat="10.1572595051364" lon="-75.6834080835951">
        <ele>55.4851891</ele>
        <time>2019-09-10T14:50:18.600Z</time>
      </trkpt>
      <trkpt lat="10.1572581101462" lon="-75.6834104446644">
        <ele>55.4851891</ele>
        <time>2019-09-10T14:50:18.700Z</time>
      </trkpt>
      <trkpt lat="10.1572567212007" lon="-75.6834128003028">
        <ele>55.4851891</ele>
        <time>2019-09-10T14:50:18.800Z</time>
      </trkpt>
      <trkpt lat="10.1572553507022" lon="-75.6834151205704">
        <ele>55.4851891</ele>
        <time>2019-09-10T14:50:18.900Z</time>
      </trkpt>
      <trkpt lat="10.1572539795784" lon="-75.6834174347107">
        <ele>55.4851891</ele>
        <time>2019-09-10T14:50:19.000Z</time>
      </trkpt>
      <trkpt lat="10.1572526159585" lon="-75.6834197920201">
        <ele>55.4851891</ele>
        <time>2019-09-10T14:50:19.100Z</time>
      </trkpt>
      <trkpt lat="10.1572512403532" lon="-75.6834221827508">
        <ele>55.4851891</ele>
        <time>2019-09-10T14:50:19.200Z</time>
      </trkpt>
      <trkpt lat="10.1572498368169" lon="-75.6834245727851">
        <ele>55.4851891</ele>
        <time>2019-09-10T14:50:19.300Z</time>
      </trkpt>
      <trkpt lat="10.1572484145209" lon="-75.683426949451">
        <ele>55.4851891</ele>
        <time>2019-09-10T14:50:19.400Z</time>
      </trkpt>
      <trkpt lat="10.1572469924333" lon="-75.6834293135839">
        <ele>55.4851891</ele>
        <time>2019-09-10T14:50:19.500Z</time>
      </trkpt>
      <trkpt lat="10.1572455764947" lon="-75.6834316738177">
        <ele>55.4851891</ele>
        <time>2019-09-10T14:50:19.600Z</time>
      </trkpt>
      <trkpt lat="10.1572441717077" lon="-75.6834340276457">
        <ele>55.3851891</ele>
        <time>2019-09-10T14:50:19.700Z</time>
      </trkpt>
      <trkpt lat="10.1572427687967" lon="-75.6834363823093">
        <ele>55.3851891</ele>
        <time>2019-09-10T14:50:19.800Z</time>
      </trkpt>
      <trkpt lat="10.1572413782879" lon="-75.683438728339">
        <ele>55.3851891</ele>
        <time>2019-09-10T14:50:19.900Z</time>
      </trkpt>
      <trkpt lat="10.1572399884045" lon="-75.6834410845344">
        <ele>55.3851891</ele>
        <time>2019-09-10T14:50:20.000Z</time>
      </trkpt>
      <trkpt lat="10.1572385858061" lon="-75.6834434158031">
        <ele>55.3851891</ele>
        <time>2019-09-10T14:50:20.100Z</time>
      </trkpt>
      <trkpt lat="10.1572371697633" lon="-75.6834457508317">
        <ele>55.3851891</ele>
        <time>2019-09-10T14:50:20.200Z</time>
      </trkpt>
      <trkpt lat="10.1572357848824" lon="-75.6834480541102">
        <ele>55.3851891</ele>
        <time>2019-09-10T14:50:20.300Z</time>
      </trkpt>
      <trkpt lat="10.157234406359" lon="-75.6834503695038">
        <ele>55.3851891</ele>
        <time>2019-09-10T14:50:20.400Z</time>
      </trkpt>
      <trkpt lat="10.1572330585806" lon="-75.6834526495267">
        <ele>55.3851891</ele>
        <time>2019-09-10T14:50:20.500Z</time>
      </trkpt>
      <trkpt lat="10.1572316997548" lon="-75.683454947235">
        <ele>55.3851891</ele>
        <time>2019-09-10T14:50:20.600Z</time>
      </trkpt>
      <trkpt lat="10.1572303447852" lon="-75.6834572173707">
        <ele>55.3851891</ele>
        <time>2019-09-10T14:50:20.700Z</time>
      </trkpt>
      <trkpt lat="10.1572289719939" lon="-75.6834595086733">
        <ele>55.3851891</ele>
        <time>2019-09-10T14:50:20.800Z</time>
      </trkpt>
      <trkpt lat="10.1572275782542" lon="-75.6834618065208">
        <ele>55.3851891</ele>
        <time>2019-09-10T14:50:20.900Z</time>
      </trkpt>
      <trkpt lat="10.1572261676309" lon="-75.6834641327763">
        <ele>55.3851891</ele>
        <time>2019-09-10T14:50:21.000Z</time>
      </trkpt>
      <trkpt lat="10.1572247382479" lon="-75.6834665009476">
        <ele>55.3851891</ele>
        <time>2019-09-10T14:50:21.100Z</time>
      </trkpt>
      <trkpt lat="10.1572233100113" lon="-75.6834688875006">
        <ele>55.3851891</ele>
        <time>2019-09-10T14:50:21.200Z</time>
      </trkpt>
      <trkpt lat="10.1572219015766" lon="-75.6834712450885">
        <ele>55.3851891</ele>
        <time>2019-09-10T14:50:21.300Z</time>
      </trkpt>
      <trkpt lat="10.157220503564" lon="-75.6834735890294">
        <ele>55.3851891</ele>
        <time>2019-09-10T14:50:21.400Z</time>
      </trkpt>
      <trkpt lat="10.1572191132636" lon="-75.683475929489">
        <ele>55.3851891</ele>
        <time>2019-09-10T14:50:21.500Z</time>
      </trkpt>
      <trkpt lat="10.1572177168143" lon="-75.683478276215">
        <ele>55.3851891</ele>
        <time>2019-09-10T14:50:21.600Z</time>
      </trkpt>
      <trkpt lat="10.157216302439" lon="-75.6834806165353">
        <ele>55.3851891</ele>
        <time>2019-09-10T14:50:21.700Z</time>
      </trkpt>
      <trkpt lat="10.157214879205" lon="-75.6834829640969">
        <ele>55.3851891</ele>
        <time>2019-09-10T14:50:21.800Z</time>
      </trkpt>
      <trkpt lat="10.1572134696239" lon="-75.6834853123547">
        <ele>55.3851891</ele>
        <time>2019-09-10T14:50:21.900Z</time>
      </trkpt>
      <trkpt lat="10.1572120664002" lon="-75.6834876700819">
        <ele>55.3851891</ele>
        <time>2019-09-10T14:50:22.000Z</time>
      </trkpt>
      <trkpt lat="10.1572107026761" lon="-75.6834900530142">
        <ele>55.3851891</ele>
        <time>2019-09-10T14:50:22.100Z</time>
      </trkpt>
      <trkpt lat="10.1572093447883" lon="-75.6834924458337">
        <ele>55.3851891</ele>
        <time>2019-09-10T14:50:22.200Z</time>
      </trkpt>
      <trkpt lat="10.1572079976352" lon="-75.6834948343362">
        <ele>55.3851891</ele>
        <time>2019-09-10T14:50:22.300Z</time>
      </trkpt>
      <trkpt lat="10.1572066327646" lon="-75.6834972143442">
        <ele>55.3851891</ele>
        <time>2019-09-10T14:50:22.400Z</time>
      </trkpt>
      <trkpt lat="10.1572052666434" lon="-75.6834996052141">
        <ele>55.3851891</ele>
        <time>2019-09-10T14:50:22.500Z</time>
      </trkpt>
      <trkpt lat="10.1572038882242" lon="-75.6835019977551">
        <ele>55.3851891</ele>
        <time>2019-09-10T14:50:22.600Z</time>
      </trkpt>
      <trkpt lat="10.1572025303364" lon="-75.6835044006009">
        <ele>55.3851891</ele>
        <time>2019-09-10T14:50:22.700Z</time>
      </trkpt>
      <trkpt lat="10.1572011644236" lon="-75.6835068024719">
        <ele>55.3851891</ele>
        <time>2019-09-10T14:50:22.800Z</time>
      </trkpt>
      <trkpt lat="10.1571997955927" lon="-75.683509186936">
        <ele>55.3851891</ele>
        <time>2019-09-10T14:50:22.900Z</time>
      </trkpt>
      <trkpt lat="10.1571984122751" lon="-75.6835115645767">
        <ele>55.3851891</ele>
        <time>2019-09-10T14:50:23.000Z</time>
      </trkpt>
      <trkpt lat="10.1571970273942" lon="-75.6835139228609">
        <ele>55.3851891</ele>
        <time>2019-09-10T14:50:23.100Z</time>
      </trkpt>
      <trkpt lat="10.1571956336546" lon="-75.6835162822591">
        <ele>55.3851891</ele>
        <time>2019-09-10T14:50:23.200Z</time>
      </trkpt>
      <trkpt lat="10.1571942552354" lon="-75.6835185982098">
        <ele>55.4851891</ele>
        <time>2019-09-10T14:50:23.300Z</time>
      </trkpt>
      <trkpt lat="10.1571928767119" lon="-75.6835209117932">
        <ele>55.3851891</ele>
        <time>2019-09-10T14:50:23.400Z</time>
      </trkpt>
      <trkpt lat="10.1571915226803" lon="-75.6835232090836">
        <ele>55.3851891</ele>
        <time>2019-09-10T14:50:23.500Z</time>
      </trkpt>
      <trkpt lat="10.1571888081553" lon="-75.6835278756595">
        <ele>55.3851891</ele>
        <time>2019-09-10T14:50:23.700Z</time>
      </trkpt>
      <trkpt lat="10.1571874321332" lon="-75.6835302410457">
        <ele>55.3851891</ele>
        <time>2019-09-10T14:50:23.800Z</time>
      </trkpt>
      <trkpt lat="10.157186104782" lon="-75.6835325770491">
        <ele>55.3851891</ele>
        <time>2019-09-10T14:50:23.900Z</time>
      </trkpt>
      <trkpt lat="10.1571847719071" lon="-75.6835349069252">
        <ele>55.3851891</ele>
        <time>2019-09-10T14:50:24.000Z</time>
      </trkpt>
      <trkpt lat="10.1571834403871" lon="-75.6835372109">
        <ele>55.3851891</ele>
        <time>2019-09-10T14:50:24.100Z</time>
      </trkpt>
      <trkpt lat="10.1571820792684" lon="-75.6835395272684">
        <ele>55.3851891</ele>
        <time>2019-09-10T14:50:24.200Z</time>
      </trkpt>
      <trkpt lat="10.157180740453" lon="-75.6835418461434">
        <ele>55.3851891</ele>
        <time>2019-09-10T14:50:24.300Z</time>
      </trkpt>
      <trkpt lat="10.1571793889226" lon="-75.6835441861852">
        <ele>55.3851891</ele>
        <time>2019-09-10T14:50:24.400Z</time>
      </trkpt>
      <trkpt lat="10.1571780477101" lon="-75.6835465001863">
        <ele>55.3851891</ele>
        <time>2019-09-10T14:50:24.500Z</time>
      </trkpt>
      <trkpt lat="10.1571766922193" lon="-75.6835488192006">
        <ele>55.3851891</ele>
        <time>2019-09-10T14:50:24.600Z</time>
      </trkpt>
      <trkpt lat="10.157175315155" lon="-75.6835511671799">
        <ele>55.3851891</ele>
        <time>2019-09-10T14:50:24.700Z</time>
      </trkpt>
      <trkpt lat="10.1571739192267" lon="-75.6835535403644">
        <ele>55.3851891</ele>
        <time>2019-09-10T14:50:24.800Z</time>
      </trkpt>
      <trkpt lat="10.1571725234027" lon="-75.6835559139667">
        <ele>55.3851891</ele>
        <time>2019-09-10T14:50:24.900Z</time>
      </trkpt>
      <trkpt lat="10.1571711307053" lon="-75.6835582893792">
        <ele>55.3851891</ele>
        <time>2019-09-10T14:50:25.000Z</time>
      </trkpt>
      <trkpt lat="10.1571697603111" lon="-75.6835606595001">
        <ele>55.3851891</ele>
        <time>2019-09-10T14:50:25.100Z</time>
      </trkpt>
      <trkpt lat="10.1571683891873" lon="-75.6835630269752">
        <ele>55.3851891</ele>
        <time>2019-09-10T14:50:25.200Z</time>
      </trkpt>
      <trkpt lat="10.1571670376569" lon="-75.68356535337">
        <ele>55.3851891</ele>
        <time>2019-09-10T14:50:25.300Z</time>
      </trkpt>
      <trkpt lat="10.1571656790396" lon="-75.6835676768404">
        <ele>55.3851891</ele>
        <time>2019-09-10T14:50:25.400Z</time>
      </trkpt>
      <trkpt lat="10.1571643446014" lon="-75.6835699877779">
        <ele>55.3851891</ele>
        <time>2019-09-10T14:50:25.500Z</time>
      </trkpt>
      <trkpt lat="10.1571629980736" lon="-75.6835723173755">
        <ele>55.3851891</ele>
        <time>2019-09-10T14:50:25.600Z</time>
      </trkpt>
      <trkpt lat="10.1571616715561" lon="-75.6835746160586">
        <ele>55.2851891</ele>
        <time>2019-09-10T14:50:25.700Z</time>
      </trkpt>
      <trkpt lat="10.1571603302394" lon="-75.6835769236539">
        <ele>55.3851891</ele>
        <time>2019-09-10T14:50:25.800Z</time>
      </trkpt>
      <trkpt lat="10.1571589836074" lon="-75.6835792047908">
        <ele>55.3851891</ele>
        <time>2019-09-10T14:50:25.900Z</time>
      </trkpt>
      <trkpt lat="10.157157610295" lon="-75.683581500828">
        <ele>55.3851891</ele>
        <time>2019-09-10T14:50:26.000Z</time>
      </trkpt>
      <trkpt lat="10.1571562457371" lon="-75.6835838034102">
        <ele>55.2851891</ele>
        <time>2019-09-10T14:50:26.100Z</time>
      </trkpt>
      <trkpt lat="10.15715487305" lon="-75.6835861284125">
        <ele>55.2851891</ele>
        <time>2019-09-10T14:50:26.200Z</time>
      </trkpt>
      <trkpt lat="10.1571534806652" lon="-75.683588490178">
        <ele>55.3851891</ele>
        <time>2019-09-10T14:50:26.300Z</time>
      </trkpt>
      <trkpt lat="10.15715207765" lon="-75.6835908658691">
        <ele>55.3851891</ele>
        <time>2019-09-10T14:50:26.400Z</time>
      </trkpt>
      <trkpt lat="10.1571506977717" lon="-75.683593220672">
        <ele>55.2851891</ele>
        <time>2019-09-10T14:50:26.500Z</time>
      </trkpt>
      <trkpt lat="10.1571493253972" lon="-75.683595566284">
        <ele>55.2851891</ele>
        <time>2019-09-10T14:50:26.600Z</time>
      </trkpt>
      <trkpt lat="10.1571479556283" lon="-75.6835978911469">
        <ele>55.2851891</ele>
        <time>2019-09-10T14:50:26.700Z</time>
      </trkpt>
      <trkpt lat="10.1571465787724" lon="-75.6836002238082">
        <ele>55.2851891</ele>
        <time>2019-09-10T14:50:26.800Z</time>
      </trkpt>
      <trkpt lat="10.1571451968097" lon="-75.6836025612042">
        <ele>55.2851891</ele>
        <time>2019-09-10T14:50:26.900Z</time>
      </trkpt>
      <trkpt lat="10.1571438056756" lon="-75.6836049168425">
        <ele>55.2851891</ele>
        <time>2019-09-10T14:50:27.000Z</time>
      </trkpt>
      <trkpt lat="10.1571424047448" lon="-75.6836072446299">
        <ele>55.2851891</ele>
        <time>2019-09-10T14:50:27.100Z</time>
      </trkpt>
      <trkpt lat="10.1571409953721" lon="-75.6836095767341">
        <ele>55.2851891</ele>
        <time>2019-09-10T14:50:27.200Z</time>
      </trkpt>
      <trkpt lat="10.1571395817263" lon="-75.6836119006223">
        <ele>55.2851891</ele>
        <time>2019-09-10T14:50:27.300Z</time>
      </trkpt>
      <trkpt lat="10.1571381667258" lon="-75.6836142412211">
        <ele>55.2851891</ele>
        <time>2019-09-10T14:50:27.400Z</time>
      </trkpt>
      <trkpt lat="10.1571367591248" lon="-75.6836165513231">
        <ele>55.2851891</ele>
        <time>2019-09-10T14:50:27.500Z</time>
      </trkpt>
      <trkpt lat="10.1571353514197" lon="-75.6836188669952">
        <ele>55.2851891</ele>
        <time>2019-09-10T14:50:27.600Z</time>
      </trkpt>
      <trkpt lat="10.1571339276646" lon="-75.6836211546771">
        <ele>55.2851891</ele>
        <time>2019-09-10T14:50:27.700Z</time>
      </trkpt>
      <trkpt lat="10.1571324964056" lon="-75.6836234612977">
        <ele>55.2851891</ele>
        <time>2019-09-10T14:50:27.800Z</time>
      </trkpt>
      <trkpt lat="10.1571310798417" lon="-75.683625745359">
        <ele>55.2851891</ele>
        <time>2019-09-10T14:50:27.900Z</time>
      </trkpt>
      <trkpt lat="10.1571296739083" lon="-75.6836280558787">
        <ele>55.2851891</ele>
        <time>2019-09-10T14:50:28.000Z</time>
      </trkpt>
      <trkpt lat="10.1571282627639" lon="-75.6836303711331">
        <ele>55.2851891</ele>
        <time>2019-09-10T14:50:28.100Z</time>
      </trkpt>
      <trkpt lat="10.1571268470337" lon="-75.6836327131244">
        <ele>55.2851891</ele>
        <time>2019-09-10T14:50:28.200Z</time>
      </trkpt>
      <trkpt lat="10.1571254208816" lon="-75.6836350567869">
        <ele>55.2851891</ele>
        <time>2019-09-10T14:50:28.300Z</time>
      </trkpt>
      <trkpt lat="10.1571239968138" lon="-75.6836374149318">
        <ele>55.2851891</ele>
        <time>2019-09-10T14:50:28.400Z</time>
      </trkpt>
      <trkpt lat="10.1571225841061" lon="-75.6836397716842">
        <ele>55.2851891</ele>
        <time>2019-09-10T14:50:28.500Z</time>
      </trkpt>
      <trkpt lat="10.1571211791106" lon="-75.683642139577">
        <ele>55.2851891</ele>
        <time>2019-09-10T14:50:28.600Z</time>
      </trkpt>
      <trkpt lat="10.1571197591075" lon="-75.6836445264085">
        <ele>55.2851891</ele>
        <time>2019-09-10T14:50:28.700Z</time>
      </trkpt>
      <trkpt lat="10.1571169052398" lon="-75.6836493412909">
        <ele>55.2851891</ele>
        <time>2019-09-10T14:50:28.900Z</time>
      </trkpt>
      <trkpt lat="10.1571154923237" lon="-75.6836517612651">
        <ele>55.2851891</ele>
        <time>2019-09-10T14:50:29.000Z</time>
      </trkpt>
      <trkpt lat="10.1571141178648" lon="-75.6836541831889">
        <ele>55.2851891</ele>
        <time>2019-09-10T14:50:29.100Z</time>
      </trkpt>
      <trkpt lat="10.1571127606023" lon="-75.683656601492">
        <ele>55.3851891</ele>
        <time>2019-09-10T14:50:29.200Z</time>
      </trkpt>
      <trkpt lat="10.1571114035483" lon="-75.6836589947292">
        <ele>55.3851891</ele>
        <time>2019-09-10T14:50:29.300Z</time>
      </trkpt>
      <trkpt lat="10.1571100315908" lon="-75.6836613829533">
        <ele>55.3851891</ele>
        <time>2019-09-10T14:50:29.400Z</time>
      </trkpt>
      <trkpt lat="10.1571086446255" lon="-75.6836637658856">
        <ele>55.3851891</ele>
        <time>2019-09-10T14:50:29.500Z</time>
      </trkpt>
      <trkpt lat="10.1571072453622" lon="-75.6836661577303">
        <ele>55.2851891</ele>
        <time>2019-09-10T14:50:29.600Z</time>
      </trkpt>
      <trkpt lat="10.1571058637121" lon="-75.6836685392701">
        <ele>55.2851891</ele>
        <time>2019-09-10T14:50:29.700Z</time>
      </trkpt>
      <trkpt lat="10.157104484876" lon="-75.6836709294437">
        <ele>55.3851891</ele>
        <time>2019-09-10T14:50:29.800Z</time>
      </trkpt>
      <trkpt lat="10.157103081965" lon="-75.6836733140471">
        <ele>55.2851891</ele>
        <time>2019-09-10T14:50:29.900Z</time>
      </trkpt>
      <trkpt lat="10.1571016617534" lon="-75.6836757033852">
        <ele>55.2851891</ele>
        <time>2019-09-10T14:50:30.000Z</time>
      </trkpt>
      <trkpt lat="10.1571002401869" lon="-75.683678072392">
        <ele>55.2851891</ele>
        <time>2019-09-10T14:50:30.100Z</time>
      </trkpt>
      <trkpt lat="10.1570988199753" lon="-75.6836804372212">
        <ele>55.2851891</ele>
        <time>2019-09-10T14:50:30.200Z</time>
      </trkpt>
      <trkpt lat="10.1570974079971" lon="-75.6836828059495">
        <ele>55.2851891</ele>
        <time>2019-09-10T14:50:30.300Z</time>
      </trkpt>
      <trkpt lat="10.1570959991455" lon="-75.6836851911099">
        <ele>55.2851891</ele>
        <time>2019-09-10T14:50:30.400Z</time>
      </trkpt>
      <trkpt lat="10.1570946071777" lon="-75.6836875581672">
        <ele>55.2851891</ele>
        <time>2019-09-10T14:50:30.500Z</time>
      </trkpt>
      <trkpt lat="10.157093214376" lon="-75.6836899257815">
        <ele>55.2851891</ele>
        <time>2019-09-10T14:50:30.600Z</time>
      </trkpt>
      <trkpt lat="10.1570918306416" lon="-75.6836922986875">
        <ele>55.2851891</ele>
        <time>2019-09-10T14:50:30.700Z</time>
      </trkpt>
      <trkpt lat="10.1570904381526" lon="-75.6836946832909">
        <ele>55.2851891</ele>
        <time>2019-09-10T14:50:30.800Z</time>
      </trkpt>
      <trkpt lat="10.1570890583785" lon="-75.683697047006">
        <ele>55.2851891</ele>
        <time>2019-09-10T14:50:30.900Z</time>
      </trkpt>
      <trkpt lat="10.1570876725596" lon="-75.6836994101642">
        <ele>55.2851891</ele>
        <time>2019-09-10T14:50:31.000Z</time>
      </trkpt>
      <trkpt lat="10.1570863262403" lon="-75.6837017426862">
        <ele>55.2851891</ele>
        <time>2019-09-10T14:50:31.100Z</time>
      </trkpt>
      <trkpt lat="10.1570849734593" lon="-75.6837040740942">
        <ele>55.2851891</ele>
        <time>2019-09-10T14:50:31.200Z</time>
      </trkpt>
      <trkpt lat="10.1570836054621" lon="-75.6837064135789">
        <ele>55.2851891</ele>
        <time>2019-09-10T14:50:31.300Z</time>
      </trkpt>
      <trkpt lat="10.1570822087001" lon="-75.6837087692173">
        <ele>55.2851891</ele>
        <time>2019-09-10T14:50:31.400Z</time>
      </trkpt>
      <trkpt lat="10.1570808329906" lon="-75.683711147415">
        <ele>55.2851891</ele>
        <time>2019-09-10T14:50:31.500Z</time>
      </trkpt>
      <trkpt lat="10.1570794578022" lon="-75.6837135258911">
        <ele>55.2851891</ele>
        <time>2019-09-10T14:50:31.600Z</time>
      </trkpt>
      <trkpt lat="10.1570781165897" lon="-75.6837158472727">
        <ele>55.2851891</ele>
        <time>2019-09-10T14:50:31.700Z</time>
      </trkpt>
      <trkpt lat="10.1570767845486" lon="-75.6837181577925">
        <ele>55.2851891</ele>
        <time>2019-09-10T14:50:31.800Z</time>
      </trkpt>
      <trkpt lat="10.1570754774161" lon="-75.6837204443603">
        <ele>55.2851891</ele>
        <time>2019-09-10T14:50:31.900Z</time>
      </trkpt>
      <trkpt lat="10.1570741460003" lon="-75.6837227498669">
        <ele>55.2851891</ele>
        <time>2019-09-10T14:50:32.000Z</time>
      </trkpt>
      <trkpt lat="10.1570728477266" lon="-75.6837250383843">
        <ele>55.2851891</ele>
        <time>2019-09-10T14:50:32.100Z</time>
      </trkpt>
      <trkpt lat="10.1570715406984" lon="-75.6837273491825">
        <ele>55.3851891</ele>
        <time>2019-09-10T14:50:32.200Z</time>
      </trkpt>
      <trkpt lat="10.157070246385" lon="-75.6837296663865">
        <ele>55.3851891</ele>
        <time>2019-09-10T14:50:32.300Z</time>
      </trkpt>
      <trkpt lat="10.1570689249744" lon="-75.6837320080993">
        <ele>55.3851891</ele>
        <time>2019-09-10T14:50:32.400Z</time>
      </trkpt>
      <trkpt lat="10.1570676000202" lon="-75.6837343275314">
        <ele>55.3851891</ele>
        <time>2019-09-10T14:50:32.500Z</time>
      </trkpt>
      <trkpt lat="10.1570662459886" lon="-75.6837366525336">
        <ele>55.3851891</ele>
        <time>2019-09-10T14:50:32.600Z</time>
      </trkpt>
      <trkpt lat="10.1570648638174" lon="-75.6837389758648">
        <ele>55.3851891</ele>
        <time>2019-09-10T14:50:32.700Z</time>
      </trkpt>
      <trkpt lat="10.1570634541321" lon="-75.6837413136785">
        <ele>55.3851891</ele>
        <time>2019-09-10T14:50:32.800Z</time>
      </trkpt>
      <trkpt lat="10.1570620198507" lon="-75.6837436498212">
        <ele>55.3851891</ele>
        <time>2019-09-10T14:50:32.900Z</time>
      </trkpt>
      <trkpt lat="10.1570605828596" lon="-75.6837459959902">
        <ele>55.3851891</ele>
        <time>2019-09-10T14:50:33.000Z</time>
      </trkpt>
      <trkpt lat="10.1570591336747" lon="-75.6837483407666">
        <ele>55.3851891</ele>
        <time>2019-09-10T14:50:33.100Z</time>
      </trkpt>
      <trkpt lat="10.1570576919937" lon="-75.6837506950124">
        <ele>55.3851891</ele>
        <time>2019-09-10T14:50:33.200Z</time>
      </trkpt>
      <trkpt lat="10.157056287311" lon="-75.6837530244708">
        <ele>55.3851891</ele>
        <time>2019-09-10T14:50:33.300Z</time>
      </trkpt>
      <trkpt lat="10.1570549003457" lon="-75.6837553594994">
        <ele>55.3851891</ele>
        <time>2019-09-10T14:50:33.400Z</time>
      </trkpt>
      <trkpt lat="10.1570535009781" lon="-75.683757691743">
        <ele>55.3851891</ele>
        <time>2019-09-10T14:50:33.500Z</time>
      </trkpt>
      <trkpt lat="10.1570520891042" lon="-75.6837600440392">
        <ele>55.3851891</ele>
        <time>2019-09-10T14:50:33.600Z</time>
      </trkpt>
      <trkpt lat="10.157050689424" lon="-75.6837623865876">
        <ele>55.3851891</ele>
        <time>2019-09-10T14:50:33.700Z</time>
      </trkpt>
      <trkpt lat="10.1570492970392" lon="-75.6837647422259">
        <ele>55.3851891</ele>
        <time>2019-09-10T14:50:33.800Z</time>
      </trkpt>
      <trkpt lat="10.1570478801627" lon="-75.683767119031">
        <ele>55.3851891</ele>
        <time>2019-09-10T14:50:33.900Z</time>
      </trkpt>
      <trkpt lat="10.1570464581793" lon="-75.6837695072551">
        <ele>55.3851891</ele>
        <time>2019-09-10T14:50:34.000Z</time>
      </trkpt>
      <trkpt lat="10.157045042345" lon="-75.6837718840602">
        <ele>55.3851891</ele>
        <time>2019-09-10T14:50:34.100Z</time>
      </trkpt>
      <trkpt lat="10.1570436417268" lon="-75.6837742547381">
        <ele>55.3851891</ele>
        <time>2019-09-10T14:50:34.200Z</time>
      </trkpt>
      <trkpt lat="10.1570408995834" lon="-75.6837788991724">
        <ele>55.3851891</ele>
        <time>2019-09-10T14:50:34.400Z</time>
      </trkpt>
      <trkpt lat="10.1570395184545" lon="-75.6837812339225">
        <ele>55.3851891</ele>
        <time>2019-09-10T14:50:34.500Z</time>
      </trkpt>
      <trkpt lat="10.1570367731845" lon="-75.6837859257035">
        <ele>55.3851891</ele>
        <time>2019-09-10T14:50:34.700Z</time>
      </trkpt>
      <trkpt lat="10.1570340939903" lon="-75.683790548414">
        <ele>55.3851891</ele>
        <time>2019-09-10T14:50:34.900Z</time>
      </trkpt>
      <trkpt lat="10.1570327318295" lon="-75.6837928606048">
        <ele>55.3851891</ele>
        <time>2019-09-10T14:50:35.000Z</time>
      </trkpt>
      <trkpt lat="10.1570313614352" lon="-75.6837952000895">
        <ele>55.3851891</ele>
        <time>2019-09-10T14:50:35.100Z</time>
      </trkpt>
      <trkpt lat="10.1570299833287" lon="-75.6837975746666">
        <ele>55.3851891</ele>
        <time>2019-09-10T14:50:35.200Z</time>
      </trkpt>
      <trkpt lat="10.1570286152273" lon="-75.6837999286339">
        <ele>55.3851891</ele>
        <time>2019-09-10T14:50:35.300Z</time>
      </trkpt>
      <trkpt lat="10.1570272461879" lon="-75.683802278145">
        <ele>55.3851891</ele>
        <time>2019-09-10T14:50:35.400Z</time>
      </trkpt>
      <trkpt lat="10.1570258870494" lon="-75.6838046181868">
        <ele>55.3851891</ele>
        <time>2019-09-10T14:50:35.500Z</time>
      </trkpt>
      <trkpt lat="10.1570245144666" lon="-75.6838069629633">
        <ele>55.3851891</ele>
        <time>2019-09-10T14:50:35.600Z</time>
      </trkpt>
      <trkpt lat="10.157023106553" lon="-75.6838093205512">
        <ele>55.3851891</ele>
        <time>2019-09-10T14:50:35.700Z</time>
      </trkpt>
      <trkpt lat="10.1570216733138" lon="-75.6838116851019">
        <ele>55.3851891</ele>
        <time>2019-09-10T14:50:35.800Z</time>
      </trkpt>
      <trkpt lat="10.1570202515389" lon="-75.6838140112181">
        <ele>55.3851891</ele>
        <time>2019-09-10T14:50:35.900Z</time>
      </trkpt>
      <trkpt lat="10.1570188408113" lon="-75.683816323966">
        <ele>55.3851891</ele>
        <time>2019-09-10T14:50:36.000Z</time>
      </trkpt>
      <trkpt lat="10.1570174498857" lon="-75.6838186342072">
        <ele>55.3851891</ele>
        <time>2019-09-10T14:50:36.100Z</time>
      </trkpt>
      <trkpt lat="10.157016056146" lon="-75.6838209667292">
        <ele>55.3851891</ele>
        <time>2019-09-10T14:50:36.200Z</time>
      </trkpt>
      <trkpt lat="10.1570146624064" lon="-75.6838233117842">
        <ele>55.3851891</ele>
        <time>2019-09-10T14:50:36.300Z</time>
      </trkpt>
      <trkpt lat="10.1570132566815" lon="-75.683825667144">
        <ele>55.3851891</ele>
        <time>2019-09-10T14:50:36.400Z</time>
      </trkpt>
      <trkpt lat="10.1570118532493" lon="-75.6838279988305">
        <ele>55.3851891</ele>
        <time>2019-09-10T14:50:36.500Z</time>
      </trkpt>
      <trkpt lat="10.1570104494003" lon="-75.6838303294029">
        <ele>55.3851891</ele>
        <time>2019-09-10T14:50:36.600Z</time>
      </trkpt>
      <trkpt lat="10.1570090153274" lon="-75.6838327223616">
        <ele>55.3851891</ele>
        <time>2019-09-10T14:50:36.700Z</time>
      </trkpt>
      <trkpt lat="10.157007571562" lon="-75.6838351398292">
        <ele>55.3851891</ele>
        <time>2019-09-10T14:50:36.800Z</time>
      </trkpt>
      <trkpt lat="10.157006154477" lon="-75.6838375483845">
        <ele>55.3851891</ele>
        <time>2019-09-10T14:50:36.900Z</time>
      </trkpt>
      <trkpt lat="10.1570047509407" lon="-75.6838399396722">
        <ele>55.3851891</ele>
        <time>2019-09-10T14:50:37.000Z</time>
      </trkpt>
      <trkpt lat="10.1570033788789" lon="-75.6838422925254">
        <ele>55.3851891</ele>
        <time>2019-09-10T14:50:37.100Z</time>
      </trkpt>
      <trkpt lat="10.1570020082762" lon="-75.6838446325672">
        <ele>55.3851891</ele>
        <time>2019-09-10T14:50:37.200Z</time>
      </trkpt>
      <trkpt lat="10.1570006557036" lon="-75.6838469547843">
        <ele>55.3851891</ele>
        <time>2019-09-10T14:50:37.300Z</time>
      </trkpt>
      <trkpt lat="10.1569992843714" lon="-75.6838492964972">
        <ele>55.3851891</ele>
        <time>2019-09-10T14:50:37.400Z</time>
      </trkpt>
      <trkpt lat="10.1569978809393" lon="-75.6838516585413">
        <ele>55.3851891</ele>
        <time>2019-09-10T14:50:37.500Z</time>
      </trkpt>
      <trkpt lat="10.1569964566631" lon="-75.6838540448157">
        <ele>55.3851891</ele>
        <time>2019-09-10T14:50:37.600Z</time>
      </trkpt>
      <trkpt lat="10.1569950418709" lon="-75.6838564191143">
        <ele>55.2851891</ele>
        <time>2019-09-10T14:50:37.700Z</time>
      </trkpt>
      <trkpt lat="10.1569936355207" lon="-75.6838587922988">
        <ele>55.2851891</ele>
        <time>2019-09-10T14:50:37.800Z</time>
      </trkpt>
      <trkpt lat="10.1569922092643" lon="-75.6838611496082">
        <ele>55.2851891</ele>
        <time>2019-09-10T14:50:37.900Z</time>
      </trkpt>
      <trkpt lat="10.1569907739407" lon="-75.683863504968">
        <ele>55.2851891</ele>
        <time>2019-09-10T14:50:38.000Z</time>
      </trkpt>
      <trkpt lat="10.1569893259022" lon="-75.6838658324769">
        <ele>55.2851891</ele>
        <time>2019-09-10T14:50:38.100Z</time>
      </trkpt>
      <trkpt lat="10.1569878741119" lon="-75.6838681594287">
        <ele>55.2851891</ele>
        <time>2019-09-10T14:50:38.200Z</time>
      </trkpt>
      <trkpt lat="10.1569864321182" lon="-75.6838704512882">
        <ele>55.2851891</ele>
        <time>2019-09-10T14:50:38.300Z</time>
      </trkpt>
      <trkpt lat="10.1569849905414" lon="-75.6838727489965">
        <ele>55.2851891</ele>
        <time>2019-09-10T14:50:38.400Z</time>
      </trkpt>
      <trkpt lat="10.1569835541756" lon="-75.6838750199678">
        <ele>55.2851891</ele>
        <time>2019-09-10T14:50:38.500Z</time>
      </trkpt>
      <trkpt lat="10.1569821146832" lon="-75.6838773076497">
        <ele>55.2851891</ele>
        <time>2019-09-10T14:50:38.600Z</time>
      </trkpt>
      <trkpt lat="10.156980684258" lon="-75.6838796053579">
        <ele>55.2851891</ele>
        <time>2019-09-10T14:50:38.700Z</time>
      </trkpt>
      <trkpt lat="10.1569792531033" lon="-75.6838819281321">
        <ele>55.2851891</ele>
        <time>2019-09-10T14:50:38.800Z</time>
      </trkpt>
      <trkpt lat="10.1569778272638" lon="-75.6838842684524">
        <ele>55.2851891</ele>
        <time>2019-09-10T14:50:38.900Z</time>
      </trkpt>
      <trkpt lat="10.156976405072" lon="-75.6838866246477">
        <ele>55.2851891</ele>
        <time>2019-09-10T14:50:39.000Z</time>
      </trkpt>
      <trkpt lat="10.156975015397" lon="-75.6838889658036">
        <ele>55.2851891</ele>
        <time>2019-09-10T14:50:39.100Z</time>
      </trkpt>
      <trkpt lat="10.1569722363596" lon="-75.6838936820935">
        <ele>55.2851891</ele>
        <time>2019-09-10T14:50:39.300Z</time>
      </trkpt>
      <trkpt lat="10.1569708346992" lon="-75.6838960697605">
        <ele>55.2851891</ele>
        <time>2019-09-10T14:50:39.400Z</time>
      </trkpt>
      <trkpt lat="10.1569694652429" lon="-75.6838984245633">
        <ele>55.2851891</ele>
        <time>2019-09-10T14:50:39.500Z</time>
      </trkpt>
      <trkpt lat="10.1569680933896" lon="-75.6839007640481">
        <ele>55.2851891</ele>
        <time>2019-09-10T14:50:39.600Z</time>
      </trkpt>
      <trkpt lat="10.1569667290401" lon="-75.6839030715042">
        <ele>55.2851891</ele>
        <time>2019-09-10T14:50:39.700Z</time>
      </trkpt>
      <trkpt lat="10.1569653498914" lon="-75.6839053820239">
        <ele>55.2851891</ele>
        <time>2019-09-10T14:50:39.800Z</time>
      </trkpt>
      <trkpt lat="10.1569640031552" lon="-75.683907688923">
        <ele>55.2851891</ele>
        <time>2019-09-10T14:50:39.900Z</time>
      </trkpt>
      <trkpt lat="10.1569626523543" lon="-75.6839100119757">
        <ele>55.2851891</ele>
        <time>2019-09-10T14:50:40.000Z</time>
      </trkpt>
      <trkpt lat="10.1569613057224" lon="-75.6839123066203">
        <ele>55.1851891</ele>
        <time>2019-09-10T14:50:40.100Z</time>
      </trkpt>
      <trkpt lat="10.1569599431446" lon="-75.6839146110128">
        <ele>55.2851891</ele>
        <time>2019-09-10T14:50:40.200Z</time>
      </trkpt>
      <trkpt lat="10.1569585800458" lon="-75.6839169240391">
        <ele>55.2851891</ele>
        <time>2019-09-10T14:50:40.300Z</time>
      </trkpt>
      <trkpt lat="10.1569572092347" lon="-75.6839192621313">
        <ele>55.2851891</ele>
        <time>2019-09-10T14:50:40.400Z</time>
      </trkpt>
      <trkpt lat="10.1569558560368" lon="-75.6839215899187">
        <ele>55.2851891</ele>
        <time>2019-09-10T14:50:40.500Z</time>
      </trkpt>
      <trkpt lat="10.1569544975237" lon="-75.6839239241118">
        <ele>55.2851891</ele>
        <time>2019-09-10T14:50:40.600Z</time>
      </trkpt>
      <trkpt lat="10.1569531556858" lon="-75.6839262619255">
        <ele>55.2851891</ele>
        <time>2019-09-10T14:50:40.700Z</time>
      </trkpt>
      <trkpt lat="10.1569518054061" lon="-75.6839286181208">
        <ele>55.2851891</ele>
        <time>2019-09-10T14:50:40.800Z</time>
      </trkpt>
      <trkpt lat="10.1569504465803" lon="-75.6839309765443">
        <ele>55.2851891</ele>
        <time>2019-09-10T14:50:40.900Z</time>
      </trkpt>
      <trkpt lat="10.1569490696202" lon="-75.6839333441586">
        <ele>55.2851891</ele>
        <time>2019-09-10T14:50:41.000Z</time>
      </trkpt>
      <trkpt lat="10.1569476803621" lon="-75.6839357103803">
        <ele>55.2851891</ele>
        <time>2019-09-10T14:50:41.100Z</time>
      </trkpt>
      <trkpt lat="10.1569462823494" lon="-75.6839380777161">
        <ele>55.2851891</ele>
        <time>2019-09-10T14:50:41.200Z</time>
      </trkpt>
      <trkpt lat="10.1569449227941" lon="-75.6839404213785">
        <ele>55.2851891</ele>
        <time>2019-09-10T14:50:41.300Z</time>
      </trkpt>
      <trkpt lat="10.1569435712637" lon="-75.6839427728392">
        <ele>55.2851891</ele>
        <time>2019-09-10T14:50:41.400Z</time>
      </trkpt>
      <trkpt lat="10.1569422027455" lon="-75.6839451482518">
        <ele>55.2851891</ele>
        <time>2019-09-10T14:50:41.500Z</time>
      </trkpt>
      <trkpt lat="10.1569408104649" lon="-75.683947539818">
        <ele>55.2851891</ele>
        <time>2019-09-10T14:50:41.600Z</time>
      </trkpt>
      <trkpt lat="10.1569394150578" lon="-75.6839499169016">
        <ele>55.2851891</ele>
        <time>2019-09-10T14:50:41.700Z</time>
      </trkpt>
      <trkpt lat="10.1569366005854" lon="-75.6839546774746">
        <ele>55.2851891</ele>
        <time>2019-09-10T14:50:41.900Z</time>
      </trkpt>
      <trkpt lat="10.1569351839173" lon="-75.683957075725">
        <ele>55.2851891</ele>
        <time>2019-09-10T14:50:42.000Z</time>
      </trkpt>
      <trkpt lat="10.1569337868427" lon="-75.6839594330344">
        <ele>55.2851891</ele>
        <time>2019-09-10T14:50:42.100Z</time>
      </trkpt>
      <trkpt lat="10.1569323960212" lon="-75.6839617789249">
        <ele>55.2851891</ele>
        <time>2019-09-10T14:50:42.200Z</time>
      </trkpt>
      <trkpt lat="10.1569310036365" lon="-75.6839641028131">
        <ele>55.2851891</ele>
        <time>2019-09-10T14:50:42.300Z</time>
      </trkpt>
      <trkpt lat="10.1569296020803" lon="-75.6839664400698">
        <ele>55.2851891</ele>
        <time>2019-09-10T14:50:42.400Z</time>
      </trkpt>
      <trkpt lat="10.1569282041719" lon="-75.6839687589448">
        <ele>55.2851891</ele>
        <time>2019-09-10T14:50:42.500Z</time>
      </trkpt>
      <trkpt lat="10.1569268058466" lon="-75.6839710920239">
        <ele>55.2851891</ele>
        <time>2019-09-10T14:50:42.600Z</time>
      </trkpt>
      <trkpt lat="10.1569254186728" lon="-75.6839733883396">
        <ele>55.2851891</ele>
        <time>2019-09-10T14:50:42.700Z</time>
      </trkpt>
      <trkpt lat="10.1569240249332" lon="-75.6839756949602">
        <ele>55.2851891</ele>
        <time>2019-09-10T14:50:42.800Z</time>
      </trkpt>
      <trkpt lat="10.1569226388017" lon="-75.6839779996312">
        <ele>55.2851891</ele>
        <time>2019-09-10T14:50:42.900Z</time>
      </trkpt>
      <trkpt lat="10.1569212440198" lon="-75.6839803293681">
        <ele>55.2851891</ele>
        <time>2019-09-10T14:50:43.000Z</time>
      </trkpt>
      <trkpt lat="10.1569198556997" lon="-75.683982659105">
        <ele>55.2851891</ele>
        <time>2019-09-10T14:50:43.100Z</time>
      </trkpt>
      <trkpt lat="10.1569184596672" lon="-75.6839850055525">
        <ele>55.2851891</ele>
        <time>2019-09-10T14:50:43.200Z</time>
      </trkpt>
      <trkpt lat="10.1569170688458" lon="-75.6839873575702">
        <ele>55.2851891</ele>
        <time>2019-09-10T14:50:43.300Z</time>
      </trkpt>
      <trkpt lat="10.156915675523" lon="-75.6839897146011">
        <ele>55.2851891</ele>
        <time>2019-09-10T14:50:43.400Z</time>
      </trkpt>
      <trkpt lat="10.1569143107567" lon="-75.6839920418315">
        <ele>55.2851891</ele>
        <time>2019-09-10T14:50:43.500Z</time>
      </trkpt>
      <trkpt lat="10.1569129435933" lon="-75.6839943676692">
        <ele>55.2851891</ele>
        <time>2019-09-10T14:50:43.600Z</time>
      </trkpt>
      <trkpt lat="10.1569115615263" lon="-75.6839967391827">
        <ele>55.2851891</ele>
        <time>2019-09-10T14:50:43.700Z</time>
      </trkpt>
      <trkpt lat="10.1569087502848" lon="-75.6840015259356">
        <ele>55.3851891</ele>
        <time>2019-09-10T14:50:43.900Z</time>
      </trkpt>
      <trkpt lat="10.1569073448725" lon="-75.6840039027407">
        <ele>55.3851891</ele>
        <time>2019-09-10T14:50:44.000Z</time>
      </trkpt>
      <trkpt lat="10.1569059707263" lon="-75.6840062775963">
        <ele>55.3851891</ele>
        <time>2019-09-10T14:50:44.100Z</time>
      </trkpt>
      <trkpt lat="10.1569046027292" lon="-75.6840086499453">
        <ele>55.3851891</ele>
        <time>2019-09-10T14:50:44.200Z</time>
      </trkpt>
      <trkpt lat="10.1569032206622" lon="-75.68401098943">
        <ele>55.3851891</ele>
        <time>2019-09-10T14:50:44.300Z</time>
      </trkpt>
      <trkpt lat="10.1569018149373" lon="-75.6840133261297">
        <ele>55.3851891</ele>
        <time>2019-09-10T14:50:44.400Z</time>
      </trkpt>
      <trkpt lat="10.1569004153613" lon="-75.6840156845531">
        <ele>55.3851891</ele>
        <time>2019-09-10T14:50:44.500Z</time>
      </trkpt>
      <trkpt lat="10.1568990114081" lon="-75.6840180680425">
        <ele>55.3851891</ele>
        <time>2019-09-10T14:50:44.600Z</time>
      </trkpt>
      <trkpt lat="10.1568976302791" lon="-75.6840204158826">
        <ele>55.3851891</ele>
        <time>2019-09-10T14:50:44.700Z</time>
      </trkpt>
      <trkpt lat="10.1568962478995" lon="-75.6840227581525">
        <ele>55.3851891</ele>
        <time>2019-09-10T14:50:44.800Z</time>
      </trkpt>
      <trkpt lat="10.1568948770884" lon="-75.6840250834332">
        <ele>55.3851891</ele>
        <time>2019-09-10T14:50:44.900Z</time>
      </trkpt>
      <trkpt lat="10.1568934899147" lon="-75.6840274268171">
        <ele>55.3851891</ele>
        <time>2019-09-10T14:50:45.000Z</time>
      </trkpt>
      <trkpt lat="10.1568921105575" lon="-75.6840297624027">
        <ele>55.3851891</ele>
        <time>2019-09-10T14:50:45.100Z</time>
      </trkpt>
      <trkpt lat="10.1568907207782" lon="-75.6840321144205">
        <ele>55.3851891</ele>
        <time>2019-09-10T14:50:45.200Z</time>
      </trkpt>
      <trkpt lat="10.1568893344383" lon="-75.6840344572474">
        <ele>55.3851891</ele>
        <time>2019-09-10T14:50:45.300Z</time>
      </trkpt>
      <trkpt lat="10.1568879347581" lon="-75.6840368087081">
        <ele>55.3851891</ele>
        <time>2019-09-10T14:50:45.400Z</time>
      </trkpt>
      <trkpt lat="10.1568865434155" lon="-75.6840391484714">
        <ele>55.3851891</ele>
        <time>2019-09-10T14:50:45.500Z</time>
      </trkpt>
      <trkpt lat="10.1568851429016" lon="-75.6840414971469">
        <ele>55.3851891</ele>
        <time>2019-09-10T14:50:45.600Z</time>
      </trkpt>
      <trkpt lat="10.1568837273799" lon="-75.6840438391383">
        <ele>55.3851891</ele>
        <time>2019-09-10T14:50:45.700Z</time>
      </trkpt>
      <trkpt lat="10.1568822992475" lon="-75.6840461939411">
        <ele>55.3851891</ele>
        <time>2019-09-10T14:50:45.800Z</time>
      </trkpt>
      <trkpt lat="10.1568808817456" lon="-75.6840485423382">
        <ele>55.3851891</ele>
        <time>2019-09-10T14:50:45.900Z</time>
      </trkpt>
      <trkpt lat="10.1568794618467" lon="-75.6840508990906">
        <ele>55.3851891</ele>
        <time>2019-09-10T14:50:46.000Z</time>
      </trkpt>
      <trkpt lat="10.1568780291286" lon="-75.6840532477662">
        <ele>55.3851891</ele>
        <time>2019-09-10T14:50:46.100Z</time>
      </trkpt>
      <trkpt lat="10.1568765913038" lon="-75.6840556039616">
        <ele>55.2851891</ele>
        <time>2019-09-10T14:50:46.200Z</time>
      </trkpt>
      <trkpt lat="10.1568751778665" lon="-75.6840579259002">
        <ele>55.3851891</ele>
        <time>2019-09-10T14:50:46.300Z</time>
      </trkpt>
      <trkpt lat="10.1568737750597" lon="-75.6840602509025">
        <ele>55.2851891</ele>
        <time>2019-09-10T14:50:46.400Z</time>
      </trkpt>
      <trkpt lat="10.1568723721487" lon="-75.6840625655998">
        <ele>55.2851891</ele>
        <time>2019-09-10T14:50:46.500Z</time>
      </trkpt>
      <trkpt lat="10.1568709621507" lon="-75.684064901464">
        <ele>55.2851891</ele>
        <time>2019-09-10T14:50:46.600Z</time>
      </trkpt>
      <trkpt lat="10.156869566014" lon="-75.6840672298084">
        <ele>55.2851891</ele>
        <time>2019-09-10T14:50:46.700Z</time>
      </trkpt>
      <trkpt lat="10.1568681747757" lon="-75.6840695715212">
        <ele>55.2851891</ele>
        <time>2019-09-10T14:50:46.800Z</time>
      </trkpt>
      <trkpt lat="10.1568667703014" lon="-75.6840719118415">
        <ele>55.2851891</ele>
        <time>2019-09-10T14:50:46.900Z</time>
      </trkpt>
      <trkpt lat="10.1568653531121" lon="-75.6840742658088">
        <ele>55.2851891</ele>
        <time>2019-09-10T14:50:47.000Z</time>
      </trkpt>
      <trkpt lat="10.1568639220616" lon="-75.6840766197761">
        <ele>55.2851891</ele>
        <time>2019-09-10T14:50:47.100Z</time>
      </trkpt>
      <trkpt lat="10.1568624933039" lon="-75.6840789871119">
        <ele>55.2851891</ele>
        <time>2019-09-10T14:50:47.200Z</time>
      </trkpt>
      <trkpt lat="10.1568610709037" lon="-75.6840813204694">
        <ele>55.2851891</ele>
        <time>2019-09-10T14:50:47.300Z</time>
      </trkpt>
      <trkpt lat="10.1568596516301" lon="-75.6840836546625">
        <ele>55.2851891</ele>
        <time>2019-09-10T14:50:47.400Z</time>
      </trkpt>
      <trkpt lat="10.1568582426743" lon="-75.6840859782722">
        <ele>55.2851891</ele>
        <time>2019-09-10T14:50:47.500Z</time>
      </trkpt>
      <trkpt lat="10.1568568355944" lon="-75.6840883185925">
        <ele>55.2851891</ele>
        <time>2019-09-10T14:50:47.600Z</time>
      </trkpt>
      <trkpt lat="10.1568554145491" lon="-75.68409065195">
        <ele>55.2851891</ele>
        <time>2019-09-10T14:50:47.700Z</time>
      </trkpt>
      <trkpt lat="10.1568539851661" lon="-75.684092995334">
        <ele>55.2851891</ele>
        <time>2019-09-10T14:50:47.800Z</time>
      </trkpt>
      <trkpt lat="10.1568525690191" lon="-75.684095329527">
        <ele>55.2851891</ele>
        <time>2019-09-10T14:50:47.900Z</time>
      </trkpt>
      <trkpt lat="10.1568511563113" lon="-75.6840976731895">
        <ele>55.2851891</ele>
        <time>2019-09-10T14:50:48.000Z</time>
      </trkpt>
      <trkpt lat="10.1568497573607" lon="-75.6841000098891">
        <ele>55.2851891</ele>
        <time>2019-09-10T14:50:48.100Z</time>
      </trkpt>
      <trkpt lat="10.1568483530948" lon="-75.6841023571722">
        <ele>55.2851891</ele>
        <time>2019-09-10T14:50:48.200Z</time>
      </trkpt>
      <trkpt lat="10.1568469663379" lon="-75.6841046980495">
        <ele>55.2851891</ele>
        <time>2019-09-10T14:50:48.300Z</time>
      </trkpt>
      <trkpt lat="10.1568455759334" lon="-75.6841070514598">
        <ele>55.2851891</ele>
        <time>2019-09-10T14:50:48.400Z</time>
      </trkpt>
      <trkpt lat="10.1568442229439" lon="-75.684109402642">
        <ele>55.2851891</ele>
        <time>2019-09-10T14:50:48.500Z</time>
      </trkpt>
      <trkpt lat="10.1568428620337" lon="-75.684111763015">
        <ele>55.2851891</ele>
        <time>2019-09-10T14:50:48.600Z</time>
      </trkpt>
      <trkpt lat="10.1568415085232" lon="-75.6841141175393">
        <ele>55.2851891</ele>
        <time>2019-09-10T14:50:48.700Z</time>
      </trkpt>
      <trkpt lat="10.1568401326053" lon="-75.6841164804189">
        <ele>55.2851891</ele>
        <time>2019-09-10T14:50:48.800Z</time>
      </trkpt>
      <trkpt lat="10.1568387617941" lon="-75.6841188627943">
        <ele>55.3851891</ele>
        <time>2019-09-10T14:50:48.900Z</time>
      </trkpt>
      <trkpt lat="10.1568373735782" lon="-75.6841212565885">
        <ele>55.3851891</ele>
        <time>2019-09-10T14:50:49.000Z</time>
      </trkpt>
      <trkpt lat="10.1568346041291" lon="-75.6841260224532">
        <ele>55.3851891</ele>
        <time>2019-09-10T14:50:49.200Z</time>
      </trkpt>
      <trkpt lat="10.1568332269605" lon="-75.6841283822692">
        <ele>55.2851891</ele>
        <time>2019-09-10T14:50:49.300Z</time>
      </trkpt>
      <trkpt lat="10.1568318446851" lon="-75.6841307373505">
        <ele>55.2851891</ele>
        <time>2019-09-10T14:50:49.400Z</time>
      </trkpt>
      <trkpt lat="10.1568304620971" lon="-75.6841330693155">
        <ele>55.2851891</ele>
        <time>2019-09-10T14:50:49.500Z</time>
      </trkpt>
      <trkpt lat="10.1568290659604" lon="-75.6841353976599">
        <ele>55.2851891</ele>
        <time>2019-09-10T14:50:49.600Z</time>
      </trkpt>
      <trkpt lat="10.1568276498134" lon="-75.6841377727939">
        <ele>55.2851891</ele>
        <time>2019-09-10T14:50:49.700Z</time>
      </trkpt>
      <trkpt lat="10.1568262294976" lon="-75.6841401679807">
        <ele>55.2851891</ele>
        <time>2019-09-10T14:50:49.800Z</time>
      </trkpt>
      <trkpt lat="10.156824836696" lon="-75.6841425063514">
        <ele>55.2851891</ele>
        <time>2019-09-10T14:50:49.900Z</time>
      </trkpt>
      <trkpt lat="10.15682344848" lon="-75.6841448221629">
        <ele>55.2851891</ele>
        <time>2019-09-10T14:50:50.000Z</time>
      </trkpt>
      <trkpt lat="10.1568220617232" lon="-75.6841471382528">
        <ele>55.2851891</ele>
        <time>2019-09-10T14:50:50.100Z</time>
      </trkpt>
      <trkpt lat="10.1568206900783" lon="-75.6841494281628">
        <ele>55.2851891</ele>
        <time>2019-09-10T14:50:50.200Z</time>
      </trkpt>
      <trkpt lat="10.1568193819036" lon="-75.6841516122389">
        <ele>55.2851891</ele>
        <time>2019-09-10T14:50:50.300Z</time>
      </trkpt>
      <trkpt lat="10.1568181448073" lon="-75.6841536592881">
        <ele>55.2851891</ele>
        <time>2019-09-10T14:50:50.400Z</time>
      </trkpt>
      <trkpt lat="10.156817028294" lon="-75.6841554723888">
        <ele>55.2851891</ele>
        <time>2019-09-10T14:50:50.500Z</time>
      </trkpt>
      <trkpt lat="10.1568159996385" lon="-75.6841571245106">
        <ele>55.1851891</ele>
        <time>2019-09-10T14:50:50.600Z</time>
      </trkpt>
      <trkpt lat="10.1568150754118" lon="-75.6841585666359">
        <ele>55.0851891</ele>
        <time>2019-09-10T14:50:50.700Z</time>
      </trkpt>
      <trkpt lat="10.1568142406063" lon="-75.6841598600368">
        <ele>54.9851891</ele>
        <time>2019-09-10T14:50:50.800Z</time>
      </trkpt>
      <trkpt lat="10.15681353691" lon="-75.6841609158685">
        <ele>54.8851891</ele>
        <time>2019-09-10T14:50:50.900Z</time>
      </trkpt>
      <trkpt lat="10.1568129384764" lon="-75.6841618109999">
        <ele>54.7851891</ele>
        <time>2019-09-10T14:50:51.000Z</time>
      </trkpt>
      <trkpt lat="10.1568124714647" lon="-75.6841624721829">
        <ele>54.6851891</ele>
        <time>2019-09-10T14:50:51.100Z</time>
      </trkpt>
      <trkpt lat="10.1568121059637" lon="-75.6841629762862">
        <ele>54.4851891</ele>
        <time>2019-09-10T14:50:51.200Z</time>
      </trkpt>
      <trkpt lat="10.1568118737606" lon="-75.6841632595309">
        <ele>54.2851891</ele>
        <time>2019-09-10T14:50:51.300Z</time>
      </trkpt>
      <trkpt lat="10.1568117652672" lon="-75.68416338681">
        <ele>54.0851891</ele>
        <time>2019-09-10T14:50:51.400Z</time>
      </trkpt>
      <trkpt lat="10.1568117370234" lon="-75.6841633274874">
        <ele>53.8851891</ele>
        <time>2019-09-10T14:50:51.500Z</time>
      </trkpt>
      <trkpt lat="10.1568117478624" lon="-75.6841631534186">
        <ele>53.5851891</ele>
        <time>2019-09-10T14:50:51.600Z</time>
      </trkpt>
      <trkpt lat="10.1568117545325" lon="-75.6841628061165">
        <ele>53.2851891</ele>
        <time>2019-09-10T14:50:51.700Z</time>
      </trkpt>
      <trkpt lat="10.1568118415565" lon="-75.6841623151032">
        <ele>53.0851891</ele>
        <time>2019-09-10T14:50:51.800Z</time>
      </trkpt>
      <trkpt lat="10.156811966621" lon="-75.6841617257759">
        <ele>52.8851891</ele>
        <time>2019-09-10T14:50:51.900Z</time>
      </trkpt>
      <trkpt lat="10.1568120787622" lon="-75.6841610306147">
        <ele>52.6851891</ele>
        <time>2019-09-10T14:50:52.000Z</time>
      </trkpt>
      <trkpt lat="10.1568120815761" lon="-75.6841601825514">
        <ele>52.5851891</ele>
        <time>2019-09-10T14:50:52.100Z</time>
      </trkpt>
      <trkpt lat="10.1568119979914" lon="-75.6841592264263">
        <ele>52.4851891</ele>
        <time>2019-09-10T14:50:52.200Z</time>
      </trkpt>
      <trkpt lat="10.1568117362939" lon="-75.6841581945464">
        <ele>52.3851891</ele>
        <time>2019-09-10T14:50:52.300Z</time>
      </trkpt>
      <trkpt lat="10.156811337755" lon="-75.6841570610103">
        <ele>52.2851891</ele>
        <time>2019-09-10T14:50:52.400Z</time>
      </trkpt>
      <trkpt lat="10.1568107818433" lon="-75.6841558497699">
        <ele>52.2851891</ele>
        <time>2019-09-10T14:50:52.500Z</time>
      </trkpt>
      <trkpt lat="10.1568101211901" lon="-75.6841545079083">
        <ele>52.1851891</ele>
        <time>2019-09-10T14:50:52.600Z</time>
      </trkpt>
      <trkpt lat="10.1568092765879" lon="-75.6841530242851">
        <ele>52.1851891</ele>
        <time>2019-09-10T14:50:52.700Z</time>
      </trkpt>
      <trkpt lat="10.1568083253681" lon="-75.6841513869242">
        <ele>52.2851891</ele>
        <time>2019-09-10T14:50:52.800Z</time>
      </trkpt>
      <trkpt lat="10.1568072798289" lon="-75.6841496601617">
        <ele>52.2851891</ele>
        <time>2019-09-10T14:50:52.900Z</time>
      </trkpt>
      <trkpt lat="10.1568061563328" lon="-75.6841478200455">
        <ele>52.2851891</ele>
        <time>2019-09-10T14:50:53.000Z</time>
      </trkpt>
      <trkpt lat="10.1568049223631" lon="-75.6841458437379">
        <ele>52.2851891</ele>
        <time>2019-09-10T14:50:53.100Z</time>
      </trkpt>
      <trkpt lat="10.1568035843814" lon="-75.6841437223265">
        <ele>52.2851891</ele>
        <time>2019-09-10T14:50:53.200Z</time>
      </trkpt>
      <trkpt lat="10.1568021715695" lon="-75.6841415087283">
        <ele>52.2851891</ele>
        <time>2019-09-10T14:50:53.300Z</time>
      </trkpt>
      <trkpt lat="10.156799139068" lon="-75.6841368868533">
        <ele>52.3851891</ele>
        <time>2019-09-10T14:50:53.500Z</time>
      </trkpt>
      <trkpt lat="10.1567975299048" lon="-75.6841344969582">
        <ele>52.3851891</ele>
        <time>2019-09-10T14:50:53.600Z</time>
      </trkpt>
      <trkpt lat="10.1567958856193" lon="-75.6841320677932">
        <ele>52.3851891</ele>
        <time>2019-09-10T14:50:53.700Z</time>
      </trkpt>
      <trkpt lat="10.1567941925587" lon="-75.6841296077136">
        <ele>52.3851891</ele>
        <time>2019-09-10T14:50:53.800Z</time>
      </trkpt>
      <trkpt lat="10.1567924593731" lon="-75.6841271437348">
        <ele>52.3851891</ele>
        <time>2019-09-10T14:50:53.900Z</time>
      </trkpt>
      <trkpt lat="10.156790689502" lon="-75.6841246819841">
        <ele>52.3851891</ele>
        <time>2019-09-10T14:50:54.000Z</time>
      </trkpt>
      <trkpt lat="10.1567889445396" lon="-75.6841222533761">
        <ele>52.3851891</ele>
        <time>2019-09-10T14:50:54.100Z</time>
      </trkpt>
      <trkpt lat="10.1567854549274" lon="-75.68411746161">
        <ele>52.3851891</ele>
        <time>2019-09-10T14:50:54.300Z</time>
      </trkpt>
      <trkpt lat="10.1567836888083" lon="-75.6841150970593">
        <ele>52.3851891</ele>
        <time>2019-09-10T14:50:54.400Z</time>
      </trkpt>
      <trkpt lat="10.1567819385306" lon="-75.6841127673224">
        <ele>52.3851891</ele>
        <time>2019-09-10T14:50:54.500Z</time>
      </trkpt>
      <trkpt lat="10.156780171265" lon="-75.684110438421">
        <ele>52.3851891</ele>
        <time>2019-09-10T14:50:54.600Z</time>
      </trkpt>
      <trkpt lat="10.1567784272406" lon="-75.6841081209385">
        <ele>52.3851891</ele>
        <time>2019-09-10T14:50:54.700Z</time>
      </trkpt>
      <trkpt lat="10.1567766685211" lon="-75.6841058045701">
        <ele>52.3851891</ele>
        <time>2019-09-10T14:50:54.800Z</time>
      </trkpt>
      <trkpt lat="10.1567748905208" lon="-75.6841034731621">
        <ele>52.3851891</ele>
        <time>2019-09-10T14:50:54.900Z</time>
      </trkpt>
      <trkpt lat="10.1567730869865" lon="-75.6841011445392">
        <ele>52.3851891</ele>
        <time>2019-09-10T14:50:55.000Z</time>
      </trkpt>
      <trkpt lat="10.15677133254" lon="-75.6840988679977">
        <ele>52.3851891</ele>
        <time>2019-09-10T14:50:55.100Z</time>
      </trkpt>
      <trkpt lat="10.1567695827834" lon="-75.684096625713">
        <ele>52.3851891</ele>
        <time>2019-09-10T14:50:55.200Z</time>
      </trkpt>
      <trkpt lat="10.156767839697" lon="-75.6840944020884">
        <ele>52.4851891</ele>
        <time>2019-09-10T14:50:55.300Z</time>
      </trkpt>
      <trkpt lat="10.1567660704512" lon="-75.6840921798564">
        <ele>52.4851891</ele>
        <time>2019-09-10T14:50:55.400Z</time>
      </trkpt>
      <trkpt lat="10.1567643014139" lon="-75.6840899773986">
        <ele>52.4851891</ele>
        <time>2019-09-10T14:50:55.500Z</time>
      </trkpt>
      <trkpt lat="10.1567607289464" lon="-75.6840855758251">
        <ele>52.4851891</ele>
        <time>2019-09-10T14:50:55.700Z</time>
      </trkpt>
      <trkpt lat="10.1567589348962" lon="-75.6840833806086">
        <ele>52.4851891</ele>
        <time>2019-09-10T14:50:55.800Z</time>
      </trkpt>
      <trkpt lat="10.1567571516849" lon="-75.6840811764797">
        <ele>52.4851891</ele>
        <time>2019-09-10T14:50:55.900Z</time>
      </trkpt>
      <trkpt lat="10.1567535500358" lon="-75.6840767754632">
        <ele>52.4851891</ele>
        <time>2019-09-10T14:50:56.100Z</time>
      </trkpt>
      <trkpt lat="10.1567517236772" lon="-75.6840745841458">
        <ele>52.4851891</ele>
        <time>2019-09-10T14:50:56.200Z</time>
      </trkpt>
      <trkpt lat="10.1567499069069" lon="-75.6840723839161">
        <ele>52.4851891</ele>
        <time>2019-09-10T14:50:56.300Z</time>
      </trkpt>
      <trkpt lat="10.1567481016009" lon="-75.6840701937128">
        <ele>52.4851891</ele>
        <time>2019-09-10T14:50:56.400Z</time>
      </trkpt>
      <trkpt lat="10.1567462881656" lon="-75.6840680001673">
        <ele>52.4851891</ele>
        <time>2019-09-10T14:50:56.500Z</time>
      </trkpt>
      <trkpt lat="10.1567444774401" lon="-75.6840658233324">
        <ele>52.4851891</ele>
        <time>2019-09-10T14:50:56.600Z</time>
      </trkpt>
      <trkpt lat="10.1567426592108" lon="-75.6840636682213">
        <ele>52.4851891</ele>
        <time>2019-09-10T14:50:56.700Z</time>
      </trkpt>
      <trkpt lat="10.1567408470262" lon="-75.6840615331629">
        <ele>52.4851891</ele>
        <time>2019-09-10T14:50:56.800Z</time>
      </trkpt>
      <trkpt lat="10.1567390642317" lon="-75.6840594123086">
        <ele>52.4851891</ele>
        <time>2019-09-10T14:50:56.900Z</time>
      </trkpt>
      <trkpt lat="10.1567372962366" lon="-75.6840573000881">
        <ele>52.4851891</ele>
        <time>2019-09-10T14:50:57.000Z</time>
      </trkpt>
      <trkpt lat="10.1567354880124" lon="-75.6840551861965">
        <ele>52.4851891</ele>
        <time>2019-09-10T14:50:57.100Z</time>
      </trkpt>
      <trkpt lat="10.1567336641551" lon="-75.6840530706338">
        <ele>52.4851891</ele>
        <time>2019-09-10T14:50:57.200Z</time>
      </trkpt>
      <trkpt lat="10.1567318680205" lon="-75.6840509670471">
        <ele>52.4851891</ele>
        <time>2019-09-10T14:50:57.300Z</time>
      </trkpt>
      <trkpt lat="10.1567300973156" lon="-75.6840488734867">
        <ele>52.4851891</ele>
        <time>2019-09-10T14:50:57.400Z</time>
      </trkpt>
      <trkpt lat="10.1567282567831" lon="-75.6840467387069">
        <ele>52.4851891</ele>
        <time>2019-09-10T14:50:57.500Z</time>
      </trkpt>
      <trkpt lat="10.1567245680057" lon="-75.6840424992263">
        <ele>52.4851891</ele>
        <time>2019-09-10T14:50:57.700Z</time>
      </trkpt>
      <trkpt lat="10.1567227554042" lon="-75.684040422098">
        <ele>52.4851891</ele>
        <time>2019-09-10T14:50:57.800Z</time>
      </trkpt>
      <trkpt lat="10.1567209455124" lon="-75.6840383705927">
        <ele>52.4851891</ele>
        <time>2019-09-10T14:50:57.900Z</time>
      </trkpt>
      <trkpt lat="10.1567191550057" lon="-75.6840363218724">
        <ele>52.4851891</ele>
        <time>2019-09-10T14:50:58.000Z</time>
      </trkpt>
      <trkpt lat="10.1567173619977" lon="-75.6840342659109">
        <ele>52.4851891</ele>
        <time>2019-09-10T14:50:58.100Z</time>
      </trkpt>
      <trkpt lat="10.1567155739922" lon="-75.6840321985305">
        <ele>52.4851891</ele>
        <time>2019-09-10T14:50:58.200Z</time>
      </trkpt>
      <trkpt lat="10.156713774731" lon="-75.6840301400624">
        <ele>52.4851891</ele>
        <time>2019-09-10T14:50:58.300Z</time>
      </trkpt>
      <trkpt lat="10.156710205807" lon="-75.6840260236833">
        <ele>52.4851891</ele>
        <time>2019-09-10T14:50:58.500Z</time>
      </trkpt>
      <trkpt lat="10.156708442606" lon="-75.6840239624301">
        <ele>52.4851891</ele>
        <time>2019-09-10T14:50:58.600Z</time>
      </trkpt>
      <trkpt lat="10.1567066754447" lon="-75.6840218822382">
        <ele>52.4851891</ele>
        <time>2019-09-10T14:50:58.700Z</time>
      </trkpt>
      <trkpt lat="10.1567049018216" lon="-75.6840197950836">
        <ele>52.4851891</ele>
        <time>2019-09-10T14:50:58.800Z</time>
      </trkpt>
      <trkpt lat="10.1567031423726" lon="-75.6840177427427">
        <ele>52.4851891</ele>
        <time>2019-09-10T14:50:58.900Z</time>
      </trkpt>
      <trkpt lat="10.1567013866754" lon="-75.6840157051629">
        <ele>52.4851891</ele>
        <time>2019-09-10T14:50:59.000Z</time>
      </trkpt>
      <trkpt lat="10.156699628477" lon="-75.6840136589493">
        <ele>52.4851891</ele>
        <time>2019-09-10T14:50:59.100Z</time>
      </trkpt>
      <trkpt lat="10.1566978625663" lon="-75.6840115937969">
        <ele>52.4851891</ele>
        <time>2019-09-10T14:50:59.200Z</time>
      </trkpt>
      <trkpt lat="10.1566960868589" lon="-75.6840095328222">
        <ele>52.4851891</ele>
        <time>2019-09-10T14:50:59.300Z</time>
      </trkpt>
      <trkpt lat="10.1566943111514" lon="-75.6840074776963">
        <ele>52.4851891</ele>
        <time>2019-09-10T14:50:59.400Z</time>
      </trkpt>
      <trkpt lat="10.1566925537868" lon="-75.6840054303686">
        <ele>52.4851891</ele>
        <time>2019-09-10T14:50:59.500Z</time>
      </trkpt>
      <trkpt lat="10.1566908045513" lon="-75.6840033813698">
        <ele>52.4851891</ele>
        <time>2019-09-10T14:50:59.600Z</time>
      </trkpt>
      <trkpt lat="10.1566890920014" lon="-75.6840013365488">
        <ele>52.5851891</ele>
        <time>2019-09-10T14:50:59.700Z</time>
      </trkpt>
      <trkpt lat="10.1566856618991" lon="-75.6839972552619">
        <ele>52.5851891</ele>
        <time>2019-09-10T14:50:59.900Z</time>
      </trkpt>
      <trkpt lat="10.1566839176662" lon="-75.6839952229737">
        <ele>52.5851891</ele>
        <time>2019-09-10T14:51:00.000Z</time>
      </trkpt>
      <trkpt lat="10.1566821548821" lon="-75.6839931670122">
        <ele>52.5851891</ele>
        <time>2019-09-10T14:51:00.100Z</time>
      </trkpt>
      <trkpt lat="10.1566803889714" lon="-75.6839910876559">
        <ele>52.5851891</ele>
        <time>2019-09-10T14:51:00.200Z</time>
      </trkpt>
      <trkpt lat="10.1566786543268" lon="-75.6839890431133">
        <ele>52.5851891</ele>
        <time>2019-09-10T14:51:00.300Z</time>
      </trkpt>
      <trkpt lat="10.1566752067154" lon="-75.683984976866">
        <ele>52.5851891</ele>
        <time>2019-09-10T14:51:00.500Z</time>
      </trkpt>
      <trkpt lat="10.1566734737384" lon="-75.6839829314879">
        <ele>52.5851891</ele>
        <time>2019-09-10T14:51:00.600Z</time>
      </trkpt>
      <trkpt lat="10.156671764732" lon="-75.6839808911229">
        <ele>52.5851891</ele>
        <time>2019-09-10T14:51:00.700Z</time>
      </trkpt>
      <trkpt lat="10.1566700521821" lon="-75.6839788348829">
        <ele>52.5851891</ele>
        <time>2019-09-10T14:51:00.800Z</time>
      </trkpt>
      <trkpt lat="10.1566683390069" lon="-75.683976781428">
        <ele>52.5851891</ele>
        <time>2019-09-10T14:51:00.900Z</time>
      </trkpt>
      <trkpt lat="10.1566666112409" lon="-75.683974710427">
        <ele>52.5851891</ele>
        <time>2019-09-10T14:51:01.000Z</time>
      </trkpt>
      <trkpt lat="10.1566648847255" lon="-75.6839726174236">
        <ele>52.5851891</ele>
        <time>2019-09-10T14:51:01.100Z</time>
      </trkpt>
      <trkpt lat="10.1566631527906" lon="-75.6839705043676">
        <ele>52.5851891</ele>
        <time>2019-09-10T14:51:01.200Z</time>
      </trkpt>
      <trkpt lat="10.1566614248161" lon="-75.6839684016164">
        <ele>52.5851891</ele>
        <time>2019-09-10T14:51:01.300Z</time>
      </trkpt>
      <trkpt lat="10.1566596943403" lon="-75.6839662969156">
        <ele>52.5851891</ele>
        <time>2019-09-10T14:51:01.400Z</time>
      </trkpt>
      <trkpt lat="10.1566580153494" lon="-75.6839641963925">
        <ele>52.5851891</ele>
        <time>2019-09-10T14:51:01.500Z</time>
      </trkpt>
      <trkpt lat="10.1566563438624" lon="-75.6839620869571">
        <ele>52.5851891</ele>
        <time>2019-09-10T14:51:01.600Z</time>
      </trkpt>
      <trkpt lat="10.1566546442358" lon="-75.6839599680523">
        <ele>52.4851891</ele>
        <time>2019-09-10T14:51:01.700Z</time>
      </trkpt>
      <trkpt lat="10.1566511638993" lon="-75.6839556915298">
        <ele>52.4851891</ele>
        <time>2019-09-10T14:51:01.900Z</time>
      </trkpt>
      <trkpt lat="10.1566494161229" lon="-75.6839535517368">
        <ele>52.4851891</ele>
        <time>2019-09-10T14:51:02.000Z</time>
      </trkpt>
      <trkpt lat="10.1566476652199" lon="-75.6839514222486">
        <ele>52.4851891</ele>
        <time>2019-09-10T14:51:02.100Z</time>
      </trkpt>
      <trkpt lat="10.1566459199448" lon="-75.6839493089141">
        <ele>52.4851891</ele>
        <time>2019-09-10T14:51:02.200Z</time>
      </trkpt>
      <trkpt lat="10.1566424860906" lon="-75.6839451053613">
        <ele>52.4851891</ele>
        <time>2019-09-10T14:51:02.400Z</time>
      </trkpt>
      <trkpt lat="10.1566407731238" lon="-75.6839430106869">
        <ele>52.4851891</ele>
        <time>2019-09-10T14:51:02.500Z</time>
      </trkpt>
      <trkpt lat="10.1566390503603" lon="-75.6839409123918">
        <ele>52.4851891</ele>
        <time>2019-09-10T14:51:02.600Z</time>
      </trkpt>
      <trkpt lat="10.1566373023755" lon="-75.6839388269083">
        <ele>52.4851891</ele>
        <time>2019-09-10T14:51:02.700Z</time>
      </trkpt>
      <trkpt lat="10.1566355439687" lon="-75.6839367436528">
        <ele>52.4851891</ele>
        <time>2019-09-10T14:51:02.800Z</time>
      </trkpt>
      <trkpt lat="10.1566338049468" lon="-75.683934694654">
        <ele>52.3851891</ele>
        <time>2019-09-10T14:51:02.900Z</time>
      </trkpt>
      <trkpt lat="10.1566320788483" lon="-75.6839326487189">
        <ele>52.3851891</ele>
        <time>2019-09-10T14:51:03.000Z</time>
      </trkpt>
      <trkpt lat="10.1566303758867" lon="-75.6839306036193">
        <ele>52.3851891</ele>
        <time>2019-09-10T14:51:03.100Z</time>
      </trkpt>
      <trkpt lat="10.1566286762602" lon="-75.683928540138">
        <ele>52.3851891</ele>
        <time>2019-09-10T14:51:03.200Z</time>
      </trkpt>
      <trkpt lat="10.1566269739239" lon="-75.6839265095209">
        <ele>52.3851891</ele>
        <time>2019-09-10T14:51:03.300Z</time>
      </trkpt>
      <trkpt lat="10.1566252586643" lon="-75.683924482803">
        <ele>52.3851891</ele>
        <time>2019-09-10T14:51:03.400Z</time>
      </trkpt>
      <trkpt lat="10.156623535067" lon="-75.6839224168152">
        <ele>52.3851891</ele>
        <time>2019-09-10T14:51:03.500Z</time>
      </trkpt>
      <trkpt lat="10.1566218112614" lon="-75.6839203196342">
        <ele>52.3851891</ele>
        <time>2019-09-10T14:51:03.600Z</time>
      </trkpt>
      <trkpt lat="10.15662010559" lon="-75.6839182252383">
        <ele>52.3851891</ele>
        <time>2019-09-10T14:51:03.700Z</time>
      </trkpt>
      <trkpt lat="10.1566184038791" lon="-75.6839161417043">
        <ele>52.3851891</ele>
        <time>2019-09-10T14:51:03.800Z</time>
      </trkpt>
      <trkpt lat="10.1566166907039" lon="-75.6839140400671">
        <ele>52.3851891</ele>
        <time>2019-09-10T14:51:03.900Z</time>
      </trkpt>
      <trkpt lat="10.1566149685658" lon="-75.6839119345308">
        <ele>52.3851891</ele>
        <time>2019-09-10T14:51:04.000Z</time>
      </trkpt>
      <trkpt lat="10.1566132587256" lon="-75.6839098409705">
        <ele>52.3851891</ele>
        <time>2019-09-10T14:51:04.100Z</time>
      </trkpt>
      <trkpt lat="10.1566115493023" lon="-75.6839077507522">
        <ele>52.3851891</ele>
        <time>2019-09-10T14:51:04.200Z</time>
      </trkpt>
      <trkpt lat="10.1566098515518" lon="-75.6839056850429">
        <ele>52.3851891</ele>
        <time>2019-09-10T14:51:04.300Z</time>
      </trkpt>
      <trkpt lat="10.1566081467142" lon="-75.683903617941">
        <ele>52.3851891</ele>
        <time>2019-09-10T14:51:04.400Z</time>
      </trkpt>
      <trkpt lat="10.1566064543831" lon="-75.6839015497251">
        <ele>52.3851891</ele>
        <time>2019-09-10T14:51:04.500Z</time>
      </trkpt>
      <trkpt lat="10.1566030392885" lon="-75.6838974141287">
        <ele>52.3851891</ele>
        <time>2019-09-10T14:51:04.700Z</time>
      </trkpt>
      <trkpt lat="10.1566013119393" lon="-75.6838953545466">
        <ele>52.3851891</ele>
        <time>2019-09-10T14:51:04.800Z</time>
      </trkpt>
      <trkpt lat="10.1565995737513" lon="-75.6838932846596">
        <ele>52.2851891</ele>
        <time>2019-09-10T14:51:04.900Z</time>
      </trkpt>
      <trkpt lat="10.156597828893" lon="-75.6838912019611">
        <ele>52.2851891</ele>
        <time>2019-09-10T14:51:05.000Z</time>
      </trkpt>
      <trkpt lat="10.1565960577713" lon="-75.6838891058942">
        <ele>52.2851891</ele>
        <time>2019-09-10T14:51:05.100Z</time>
      </trkpt>
      <trkpt lat="10.1565942860242" lon="-75.683887003143">
        <ele>52.2851891</ele>
        <time>2019-09-10T14:51:05.200Z</time>
      </trkpt>
      <trkpt lat="10.156592463626" lon="-75.6838848861878">
        <ele>52.2851891</ele>
        <time>2019-09-10T14:51:05.300Z</time>
      </trkpt>
      <trkpt lat="10.156590649357" lon="-75.6838827681185">
        <ele>52.2851891</ele>
        <time>2019-09-10T14:51:05.400Z</time>
      </trkpt>
      <trkpt lat="10.1565888657289" lon="-75.683880684306">
        <ele>52.2851891</ele>
        <time>2019-09-10T14:51:05.500Z</time>
      </trkpt>
      <trkpt lat="10.1565871062798" lon="-75.6838786110769">
        <ele>52.2851891</ele>
        <time>2019-09-10T14:51:05.600Z</time>
      </trkpt>
      <trkpt lat="10.1565853649651" lon="-75.683876544532">
        <ele>52.2851891</ele>
        <time>2019-09-10T14:51:05.700Z</time>
      </trkpt>
      <trkpt lat="10.1565836299036" lon="-75.6838744676822">
        <ele>52.2851891</ele>
        <time>2019-09-10T14:51:05.800Z</time>
      </trkpt>
      <trkpt lat="10.1565819079739" lon="-75.6838723860978">
        <ele>52.2851891</ele>
        <time>2019-09-10T14:51:05.900Z</time>
      </trkpt>
      <trkpt lat="10.1565801862526" lon="-75.6838702995002">
        <ele>52.2851891</ele>
        <time>2019-09-10T14:51:06.000Z</time>
      </trkpt>
      <trkpt lat="10.1565784951722" lon="-75.6838682546791">
        <ele>52.2851891</ele>
        <time>2019-09-10T14:51:06.100Z</time>
      </trkpt>
      <trkpt lat="10.1565768088858" lon="-75.6838662145927">
        <ele>52.2851891</ele>
        <time>2019-09-10T14:51:06.200Z</time>
      </trkpt>
      <trkpt lat="10.1565751238501" lon="-75.6838641689361">
        <ele>52.2851891</ele>
        <time>2019-09-10T14:51:06.300Z</time>
      </trkpt>
      <trkpt lat="10.1565734258911" lon="-75.683862096821">
        <ele>52.2851891</ele>
        <time>2019-09-10T14:51:06.400Z</time>
      </trkpt>
      <trkpt lat="10.1565717396048" lon="-75.6838600436446">
        <ele>52.2851891</ele>
        <time>2019-09-10T14:51:06.500Z</time>
      </trkpt>
      <trkpt lat="10.1565700506087" lon="-75.6838579887971">
        <ele>52.2851891</ele>
        <time>2019-09-10T14:51:06.600Z</time>
      </trkpt>
      <trkpt lat="10.1565683426446" lon="-75.6838559289365">
        <ele>52.2851891</ele>
        <time>2019-09-10T14:51:06.700Z</time>
      </trkpt>
      <trkpt lat="10.1565666188389" lon="-75.6838538596065">
        <ele>52.2851891</ele>
        <time>2019-09-10T14:51:06.800Z</time>
      </trkpt>
      <trkpt lat="10.1565648989936" lon="-75.6838517710594">
        <ele>52.3851891</ele>
        <time>2019-09-10T14:51:06.900Z</time>
      </trkpt>
      <trkpt lat="10.1565614718094" lon="-75.6838475847742">
        <ele>52.3851891</ele>
        <time>2019-09-10T14:51:07.100Z</time>
      </trkpt>
      <trkpt lat="10.1565597628031" lon="-75.68384549567">
        <ele>52.3851891</ele>
        <time>2019-09-10T14:51:07.200Z</time>
      </trkpt>
      <trkpt lat="10.1565580673453" lon="-75.6838433934758">
        <ele>52.3851891</ele>
        <time>2019-09-10T14:51:07.300Z</time>
      </trkpt>
      <trkpt lat="10.156556368761" lon="-75.6838412868255">
        <ele>52.2851891</ele>
        <time>2019-09-10T14:51:07.400Z</time>
      </trkpt>
      <trkpt lat="10.1565546582955" lon="-75.6838392010634">
        <ele>52.2851891</ele>
        <time>2019-09-10T14:51:07.500Z</time>
      </trkpt>
      <trkpt lat="10.1565529349067" lon="-75.6838371164154">
        <ele>52.2851891</ele>
        <time>2019-09-10T14:51:07.600Z</time>
      </trkpt>
      <trkpt lat="10.1565512073491" lon="-75.6838350267541">
        <ele>52.3851891</ele>
        <time>2019-09-10T14:51:07.700Z</time>
      </trkpt>
      <trkpt lat="10.1565494716623" lon="-75.6838329206608">
        <ele>52.3851891</ele>
        <time>2019-09-10T14:51:07.800Z</time>
      </trkpt>
      <trkpt lat="10.1565477009575" lon="-75.6838307830959">
        <ele>52.3851891</ele>
        <time>2019-09-10T14:51:07.900Z</time>
      </trkpt>
      <trkpt lat="10.1565459265007" lon="-75.6838286380111">
        <ele>52.3851891</ele>
        <time>2019-09-10T14:51:08.000Z</time>
      </trkpt>
      <trkpt lat="10.1565441726795" lon="-75.6838265046238">
        <ele>52.3851891</ele>
        <time>2019-09-10T14:51:08.100Z</time>
      </trkpt>
      <trkpt lat="10.1565424338661" lon="-75.6838243865546">
        <ele>52.3851891</ele>
        <time>2019-09-10T14:51:08.200Z</time>
      </trkpt>
      <trkpt lat="10.1565407475798" lon="-75.6838223094263">
        <ele>52.3851891</ele>
        <time>2019-09-10T14:51:08.300Z</time>
      </trkpt>
      <trkpt lat="10.156539068172" lon="-75.6838202406534">
        <ele>52.3851891</ele>
        <time>2019-09-10T14:51:08.400Z</time>
      </trkpt>
      <trkpt lat="10.1565373935583" lon="-75.6838181785646">
        <ele>52.3851891</ele>
        <time>2019-09-10T14:51:08.500Z</time>
      </trkpt>
      <trkpt lat="10.1565356918474" lon="-75.6838161072851">
        <ele>52.3851891</ele>
        <time>2019-09-10T14:51:08.600Z</time>
      </trkpt>
      <trkpt lat="10.156533982841" lon="-75.6838140087116">
        <ele>52.3851891</ele>
        <time>2019-09-10T14:51:08.700Z</time>
      </trkpt>
      <trkpt lat="10.156532256534" lon="-75.6838119034538">
        <ele>52.3851891</ele>
        <time>2019-09-10T14:51:08.800Z</time>
      </trkpt>
      <trkpt lat="10.1565305375225" lon="-75.6838098499989">
        <ele>52.3851891</ele>
        <time>2019-09-10T14:51:08.900Z</time>
      </trkpt>
      <trkpt lat="10.1565288112155" lon="-75.6838078051778">
        <ele>52.3851891</ele>
        <time>2019-09-10T14:51:09.000Z</time>
      </trkpt>
      <trkpt lat="10.1565270801144" lon="-75.6838057497733">
        <ele>52.3851891</ele>
        <time>2019-09-10T14:51:09.100Z</time>
      </trkpt>
      <trkpt lat="10.156525334214" lon="-75.6838036698599">
        <ele>52.3851891</ele>
        <time>2019-09-10T14:51:09.200Z</time>
      </trkpt>
      <trkpt lat="10.1565235874799" lon="-75.6838015776921">
        <ele>52.3851891</ele>
        <time>2019-09-10T14:51:09.300Z</time>
      </trkpt>
      <trkpt lat="10.1565218305321" lon="-75.6837994749409">
        <ele>52.3851891</ele>
        <time>2019-09-10T14:51:09.400Z</time>
      </trkpt>
      <trkpt lat="10.156520051698" lon="-75.6837973897359">
        <ele>52.3851891</ele>
        <time>2019-09-10T14:51:09.500Z</time>
      </trkpt>
      <trkpt lat="10.1565165184175" lon="-75.683793238543">
        <ele>52.3851891</ele>
        <time>2019-09-10T14:51:09.700Z</time>
      </trkpt>
      <trkpt lat="10.1565147848151" lon="-75.6837911667064">
        <ele>52.3851891</ele>
        <time>2019-09-10T14:51:09.800Z</time>
      </trkpt>
      <trkpt lat="10.1565130464186" lon="-75.6837890901351">
        <ele>52.3851891</ele>
        <time>2019-09-10T14:51:09.900Z</time>
      </trkpt>
      <trkpt lat="10.1565112928058" lon="-75.6837869912831">
        <ele>52.3851891</ele>
        <time>2019-09-10T14:51:10.000Z</time>
      </trkpt>
      <trkpt lat="10.1565095496152" lon="-75.6837848996723">
        <ele>52.3851891</ele>
        <time>2019-09-10T14:51:10.100Z</time>
      </trkpt>
      <trkpt lat="10.1565078089258" lon="-75.6837827994277">
        <ele>52.3851891</ele>
        <time>2019-09-10T14:51:10.200Z</time>
      </trkpt>
      <trkpt lat="10.156506060941" lon="-75.6837806799659">
        <ele>52.4851891</ele>
        <time>2019-09-10T14:51:10.300Z</time>
      </trkpt>
      <trkpt lat="10.1565043106633" lon="-75.6837785532629">
        <ele>52.4851891</ele>
        <time>2019-09-10T14:51:10.400Z</time>
      </trkpt>
      <trkpt lat="10.1565025676811" lon="-75.6837764290664">
        <ele>52.4851891</ele>
        <time>2019-09-10T14:51:10.500Z</time>
      </trkpt>
      <trkpt lat="10.1565008259495" lon="-75.6837743020848">
        <ele>52.4851891</ele>
        <time>2019-09-10T14:51:10.600Z</time>
      </trkpt>
      <trkpt lat="10.1564973562434" lon="-75.6837700336392">
        <ele>52.4851891</ele>
        <time>2019-09-10T14:51:10.800Z</time>
      </trkpt>
      <trkpt lat="10.1564956647461" lon="-75.6837678977453">
        <ele>52.4851891</ele>
        <time>2019-09-10T14:51:10.900Z</time>
      </trkpt>
      <trkpt lat="10.1564939799188" lon="-75.683765766586">
        <ele>52.4851891</ele>
        <time>2019-09-10T14:51:11.000Z</time>
      </trkpt>
      <trkpt lat="10.1564922927987" lon="-75.6837636471242">
        <ele>52.4851891</ele>
        <time>2019-09-10T14:51:11.100Z</time>
      </trkpt>
      <trkpt lat="10.1564905998423" lon="-75.6837615276624">
        <ele>52.4851891</ele>
        <time>2019-09-10T14:51:11.200Z</time>
      </trkpt>
      <trkpt lat="10.1564889191839" lon="-75.6837594185055">
        <ele>52.4851891</ele>
        <time>2019-09-10T14:51:11.300Z</time>
      </trkpt>
      <trkpt lat="10.1564855851728" lon="-75.6837551567441">
        <ele>52.4851891</ele>
        <time>2019-09-10T14:51:11.500Z</time>
      </trkpt>
      <trkpt lat="10.1564823007706" lon="-75.6837508707523">
        <ele>52.4851891</ele>
        <time>2019-09-10T14:51:11.700Z</time>
      </trkpt>
      <trkpt lat="10.1564806693042" lon="-75.6837487404286">
        <ele>52.4851891</ele>
        <time>2019-09-10T14:51:11.800Z</time>
      </trkpt>
      <trkpt lat="10.1564790249145" lon="-75.6837466101049">
        <ele>52.4851891</ele>
        <time>2019-09-10T14:51:11.900Z</time>
      </trkpt>
      <trkpt lat="10.1564773630157" lon="-75.6837444786672">
        <ele>52.4851891</ele>
        <time>2019-09-10T14:51:12.000Z</time>
      </trkpt>
      <trkpt lat="10.1564740479727" lon="-75.6837402233115">
        <ele>52.4851891</ele>
        <time>2019-09-10T14:51:12.200Z</time>
      </trkpt>
      <trkpt lat="10.1564723977467" lon="-75.6837380851895">
        <ele>52.4851891</ele>
        <time>2019-09-10T14:51:12.300Z</time>
      </trkpt>
      <trkpt lat="10.1564690968777" lon="-75.6837338320619">
        <ele>52.4851891</ele>
        <time>2019-09-10T14:51:12.500Z</time>
      </trkpt>
      <trkpt lat="10.1564658043463" lon="-75.6837295998226">
        <ele>52.4851891</ele>
        <time>2019-09-10T14:51:12.700Z</time>
      </trkpt>
      <trkpt lat="10.1564624880526" lon="-75.6837253380611">
        <ele>52.4851891</ele>
        <time>2019-09-10T14:51:12.900Z</time>
      </trkpt>
      <trkpt lat="10.1564608107293" lon="-75.6837232155357">
        <ele>52.4851891</ele>
        <time>2019-09-10T14:51:13.000Z</time>
      </trkpt>
      <trkpt lat="10.1564591461208" lon="-75.6837210885542">
        <ele>52.4851891</ele>
        <time>2019-09-10T14:51:13.100Z</time>
      </trkpt>
      <trkpt lat="10.1564574640033" lon="-75.6837189651932">
        <ele>52.4851891</ele>
        <time>2019-09-10T14:51:13.200Z</time>
      </trkpt>
      <trkpt lat="10.1564557762579" lon="-75.6837169131309">
        <ele>52.4851891</ele>
        <time>2019-09-10T14:51:13.300Z</time>
      </trkpt>
      <trkpt lat="10.1564540695443" lon="-75.6837148783361">
        <ele>52.4851891</ele>
        <time>2019-09-10T14:51:13.400Z</time>
      </trkpt>
      <trkpt lat="10.15645237096" lon="-75.6837128530108">
        <ele>52.4851891</ele>
        <time>2019-09-10T14:51:13.500Z</time>
      </trkpt>
      <trkpt lat="10.1564506632043" lon="-75.6837107937071">
        <ele>52.4851891</ele>
        <time>2019-09-10T14:51:13.600Z</time>
      </trkpt>
      <trkpt lat="10.1564489181376" lon="-75.6837087355176">
        <ele>52.3851891</ele>
        <time>2019-09-10T14:51:13.700Z</time>
      </trkpt>
      <trkpt lat="10.156445392361" lon="-75.6837046350135">
        <ele>52.3851891</ele>
        <time>2019-09-10T14:51:13.900Z</time>
      </trkpt>
      <trkpt lat="10.1564436320781" lon="-75.683702605789">
        <ele>52.3851891</ele>
        <time>2019-09-10T14:51:14.000Z</time>
      </trkpt>
      <trkpt lat="10.1564418421967" lon="-75.6837005810206">
        <ele>52.3851891</ele>
        <time>2019-09-10T14:51:14.100Z</time>
      </trkpt>
      <trkpt lat="10.1564382030282" lon="-75.6836964910999">
        <ele>52.3851891</ele>
        <time>2019-09-10T14:51:14.300Z</time>
      </trkpt>
      <trkpt lat="10.1564363672898" lon="-75.6836944635464">
        <ele>52.3851891</ele>
        <time>2019-09-10T14:51:14.400Z</time>
      </trkpt>
      <trkpt lat="10.1564344819425" lon="-75.68369241037">
        <ele>52.4851891</ele>
        <time>2019-09-10T14:51:14.500Z</time>
      </trkpt>
      <trkpt lat="10.156430735427" lon="-75.6836882917628">
        <ele>52.4851891</ele>
        <time>2019-09-10T14:51:14.700Z</time>
      </trkpt>
      <trkpt lat="10.1564271327357" lon="-75.6836841517103">
        <ele>52.4851891</ele>
        <time>2019-09-10T14:51:14.900Z</time>
      </trkpt>
      <trkpt lat="10.1564253912125" lon="-75.6836820631631">
        <ele>52.4851891</ele>
        <time>2019-09-10T14:51:15.000Z</time>
      </trkpt>
      <trkpt lat="10.1564236980477" lon="-75.6836799829712">
        <ele>52.4851891</ele>
        <time>2019-09-10T14:51:15.100Z</time>
      </trkpt>
      <trkpt lat="10.1564203002537" lon="-75.6836757905588">
        <ele>52.4851891</ele>
        <time>2019-09-10T14:51:15.300Z</time>
      </trkpt>
      <trkpt lat="10.1564168764046" lon="-75.6836715761441">
        <ele>52.4851891</ele>
        <time>2019-09-10T14:51:15.500Z</time>
      </trkpt>
      <trkpt lat="10.1564134538061" lon="-75.6836673854028">
        <ele>52.4851891</ele>
        <time>2019-09-10T14:51:15.700Z</time>
      </trkpt>
      <trkpt lat="10.1564099507495" lon="-75.6836632066373">
        <ele>52.4851891</ele>
        <time>2019-09-10T14:51:15.900Z</time>
      </trkpt>
      <trkpt lat="10.1564063934983" lon="-75.6836590805103">
        <ele>52.4851891</ele>
        <time>2019-09-10T14:51:16.100Z</time>
      </trkpt>
      <trkpt lat="10.1564046357167" lon="-75.683657015358">
        <ele>52.5851891</ele>
        <time>2019-09-10T14:51:16.200Z</time>
      </trkpt>
      <trkpt lat="10.1564028658456" lon="-75.6836549365587">
        <ele>52.5851891</ele>
        <time>2019-09-10T14:51:16.300Z</time>
      </trkpt>
      <trkpt lat="10.1563993190164" lon="-75.6836507171308">
        <ele>52.5851891</ele>
        <time>2019-09-10T14:51:16.500Z</time>
      </trkpt>
      <trkpt lat="10.1563957790658" lon="-75.6836464659528">
        <ele>52.5851891</ele>
        <time>2019-09-10T14:51:16.700Z</time>
      </trkpt>
      <trkpt lat="10.1563939802214" lon="-75.6836443308944">
        <ele>52.5851891</ele>
        <time>2019-09-10T14:51:16.800Z</time>
      </trkpt>
      <trkpt lat="10.1563922366139" lon="-75.6836422593363">
        <ele>52.5851891</ele>
        <time>2019-09-10T14:51:16.900Z</time>
      </trkpt>
      <trkpt lat="10.1563887723272" lon="-75.683638137944">
        <ele>52.5851891</ele>
        <time>2019-09-10T14:51:17.100Z</time>
      </trkpt>
      <trkpt lat="10.1563851871449" lon="-75.6836339304921">
        <ele>52.5851891</ele>
        <time>2019-09-10T14:51:17.300Z</time>
      </trkpt>
      <trkpt lat="10.1563833818389" lon="-75.6836318182715">
        <ele>52.5851891</ele>
        <time>2019-09-10T14:51:17.400Z</time>
      </trkpt>
      <trkpt lat="10.1563816119678" lon="-75.6836297380796">
        <ele>52.5851891</ele>
        <time>2019-09-10T14:51:17.500Z</time>
      </trkpt>
      <trkpt lat="10.156379860231" lon="-75.6836276631795">
        <ele>52.5851891</ele>
        <time>2019-09-10T14:51:17.600Z</time>
      </trkpt>
      <trkpt lat="10.1563780745184" lon="-75.6836255707331">
        <ele>52.5851891</ele>
        <time>2019-09-10T14:51:17.700Z</time>
      </trkpt>
      <trkpt lat="10.1563762717137" lon="-75.683623469096">
        <ele>52.5851891</ele>
        <time>2019-09-10T14:51:17.800Z</time>
      </trkpt>
      <trkpt lat="10.1563745147659" lon="-75.6836213687121">
        <ele>52.5851891</ele>
        <time>2019-09-10T14:51:17.900Z</time>
      </trkpt>
      <trkpt lat="10.1563727751187" lon="-75.6836192712526">
        <ele>52.5851891</ele>
        <time>2019-09-10T14:51:18.000Z</time>
      </trkpt>
      <trkpt lat="10.1563710333871" lon="-75.683617196631">
        <ele>52.5851891</ele>
        <time>2019-09-10T14:51:18.100Z</time>
      </trkpt>
      <trkpt lat="10.1563692726874" lon="-75.6836151321749">
        <ele>52.5851891</ele>
        <time>2019-09-10T14:51:18.200Z</time>
      </trkpt>
      <trkpt lat="10.1563674748853" lon="-75.683613072175">
        <ele>52.5851891</ele>
        <time>2019-09-10T14:51:18.300Z</time>
      </trkpt>
      <trkpt lat="10.156365666661" lon="-75.6836110066049">
        <ele>52.4851891</ele>
        <time>2019-09-10T14:51:18.400Z</time>
      </trkpt>
      <trkpt lat="10.1563638488486" lon="-75.683608952036">
        <ele>52.5851891</ele>
        <time>2019-09-10T14:51:18.500Z</time>
      </trkpt>
      <trkpt lat="10.1563620454185" lon="-75.6836068885547">
        <ele>52.4851891</ele>
        <time>2019-09-10T14:51:18.600Z</time>
      </trkpt>
      <trkpt lat="10.1563602695026" lon="-75.6836047959691">
        <ele>52.4851891</ele>
        <time>2019-09-10T14:51:18.700Z</time>
      </trkpt>
      <trkpt lat="10.1563585048425" lon="-75.6836026833308">
        <ele>52.5851891</ele>
        <time>2019-09-10T14:51:18.800Z</time>
      </trkpt>
      <trkpt lat="10.1563567614434" lon="-75.6836005569063">
        <ele>52.5851891</ele>
        <time>2019-09-10T14:51:18.900Z</time>
      </trkpt>
      <trkpt lat="10.1563550122079" lon="-75.6835984226834">
        <ele>52.5851891</ele>
        <time>2019-09-10T14:51:19.000Z</time>
      </trkpt>
      <trkpt lat="10.1563532573446" lon="-75.6835962608881">
        <ele>52.5851891</ele>
        <time>2019-09-10T14:51:19.100Z</time>
      </trkpt>
      <trkpt lat="10.1563514870566" lon="-75.6835941121828">
        <ele>52.4851891</ele>
        <time>2019-09-10T14:51:19.200Z</time>
      </trkpt>
      <trkpt lat="10.1563497336523" lon="-75.6835919916069">
        <ele>52.4851891</ele>
        <time>2019-09-10T14:51:19.300Z</time>
      </trkpt>
      <trkpt lat="10.1563462478963" lon="-75.6835877868008">
        <ele>52.4851891</ele>
        <time>2019-09-10T14:51:19.500Z</time>
      </trkpt>
      <trkpt lat="10.1563445113757" lon="-75.6835856712381">
        <ele>52.4851891</ele>
        <time>2019-09-10T14:51:19.600Z</time>
      </trkpt>
      <trkpt lat="10.1563427844434" lon="-75.6835835399397">
        <ele>52.4851891</ele>
        <time>2019-09-10T14:51:19.700Z</time>
      </trkpt>
      <trkpt lat="10.1563410458385" lon="-75.6835813995896">
        <ele>52.4851891</ele>
        <time>2019-09-10T14:51:19.800Z</time>
      </trkpt>
      <trkpt lat="10.1563393189062" lon="-75.6835792547834">
        <ele>52.4851891</ele>
        <time>2019-09-10T14:51:19.900Z</time>
      </trkpt>
      <trkpt lat="10.1563375757155" lon="-75.6835771130408">
        <ele>52.4851891</ele>
        <time>2019-09-10T14:51:20.000Z</time>
      </trkpt>
      <trkpt lat="10.1563358371105" lon="-75.6835749650317">
        <ele>52.4851891</ele>
        <time>2019-09-10T14:51:20.100Z</time>
      </trkpt>
      <trkpt lat="10.1563323661538" lon="-75.6835706918514">
        <ele>52.4851891</ele>
        <time>2019-09-10T14:51:20.300Z</time>
      </trkpt>
      <trkpt lat="10.1563306413059" lon="-75.6835685658446">
        <ele>52.5851891</ele>
        <time>2019-09-10T14:51:20.400Z</time>
      </trkpt>
      <trkpt lat="10.1563288841497" lon="-75.6835664270263">
        <ele>52.5851891</ele>
        <time>2019-09-10T14:51:20.500Z</time>
      </trkpt>
      <trkpt lat="10.1563270998962" lon="-75.6835642767892">
        <ele>52.5851891</ele>
        <time>2019-09-10T14:51:20.600Z</time>
      </trkpt>
      <trkpt lat="10.1563253258563" lon="-75.6835621261343">
        <ele>52.5851891</ele>
        <time>2019-09-10T14:51:20.700Z</time>
      </trkpt>
      <trkpt lat="10.1563235593202" lon="-75.6835599771504">
        <ele>52.5851891</ele>
        <time>2019-09-10T14:51:20.800Z</time>
      </trkpt>
      <trkpt lat="10.1563217850719" lon="-75.6835578330405">
        <ele>52.4851891</ele>
        <time>2019-09-10T14:51:20.900Z</time>
      </trkpt>
      <trkpt lat="10.1563200070716" lon="-75.6835556933867">
        <ele>52.4851891</ele>
        <time>2019-09-10T14:51:21.000Z</time>
      </trkpt>
      <trkpt lat="10.156318222818" lon="-75.6835535854831">
        <ele>52.4851891</ele>
        <time>2019-09-10T14:51:21.100Z</time>
      </trkpt>
      <trkpt lat="10.1563164352295" lon="-75.6835514891376">
        <ele>52.4851891</ele>
        <time>2019-09-10T14:51:21.200Z</time>
      </trkpt>
      <trkpt lat="10.1563146353429" lon="-75.683549417301">
        <ele>52.4851891</ele>
        <time>2019-09-10T14:51:21.300Z</time>
      </trkpt>
      <trkpt lat="10.1563128387914" lon="-75.6835473535412">
        <ele>52.4851891</ele>
        <time>2019-09-10T14:51:21.400Z</time>
      </trkpt>
      <trkpt lat="10.1563110464087" lon="-75.6835452950732">
        <ele>52.4851891</ele>
        <time>2019-09-10T14:51:21.500Z</time>
      </trkpt>
      <trkpt lat="10.156309264448" lon="-75.6835432250469">
        <ele>52.4851891</ele>
        <time>2019-09-10T14:51:21.600Z</time>
      </trkpt>
      <trkpt lat="10.1563075245924" lon="-75.6835411820361">
        <ele>52.4851891</ele>
        <time>2019-09-10T14:51:21.700Z</time>
      </trkpt>
      <trkpt lat="10.1563058020373" lon="-75.6835391271887">
        <ele>52.4851891</ele>
        <time>2019-09-10T14:51:21.800Z</time>
      </trkpt>
      <trkpt lat="10.1563040332084" lon="-75.6835370354386">
        <ele>52.4851891</ele>
        <time>2019-09-10T14:51:21.900Z</time>
      </trkpt>
      <trkpt lat="10.1563022554166" lon="-75.6835349021906">
        <ele>52.4851891</ele>
        <time>2019-09-10T14:51:22.000Z</time>
      </trkpt>
      <trkpt lat="10.1563005068064" lon="-75.6835327792474">
        <ele>52.4851891</ele>
        <time>2019-09-10T14:51:22.100Z</time>
      </trkpt>
      <trkpt lat="10.1562987867527" lon="-75.6835306608996">
        <ele>52.4851891</ele>
        <time>2019-09-10T14:51:22.200Z</time>
      </trkpt>
      <trkpt lat="10.156297066699" lon="-75.6835285534138">
        <ele>52.4851891</ele>
        <time>2019-09-10T14:51:22.300Z</time>
      </trkpt>
      <trkpt lat="10.1562953493549" lon="-75.6835264570683">
        <ele>52.4851891</ele>
        <time>2019-09-10T14:51:22.400Z</time>
      </trkpt>
      <trkpt lat="10.1562936478524" lon="-75.6835244251979">
        <ele>52.4851891</ele>
        <time>2019-09-10T14:51:22.500Z</time>
      </trkpt>
      <trkpt lat="10.1562919453077" lon="-75.6835224114307">
        <ele>52.4851891</ele>
        <time>2019-09-10T14:51:22.600Z</time>
      </trkpt>
      <trkpt lat="10.1562902433883" lon="-75.6835204227294">
        <ele>52.4851891</ele>
        <time>2019-09-10T14:51:22.700Z</time>
      </trkpt>
      <trkpt lat="10.1562885347988" lon="-75.6835184146717">
        <ele>52.4851891</ele>
        <time>2019-09-10T14:51:22.800Z</time>
      </trkpt>
      <trkpt lat="10.1562868178717" lon="-75.6835163857256">
        <ele>52.4851891</ele>
        <time>2019-09-10T14:51:22.900Z</time>
      </trkpt>
      <trkpt lat="10.1562850938576" lon="-75.6835143243332">
        <ele>52.4851891</ele>
        <time>2019-09-10T14:51:23.000Z</time>
      </trkpt>
      <trkpt lat="10.1562833756798" lon="-75.6835122527751">
        <ele>52.4851891</ele>
        <time>2019-09-10T14:51:23.100Z</time>
      </trkpt>
      <trkpt lat="10.1562816583358" lon="-75.6835101650635">
        <ele>52.4851891</ele>
        <time>2019-09-10T14:51:23.200Z</time>
      </trkpt>
      <trkpt lat="10.1562799324457" lon="-75.6835080579954">
        <ele>52.4851891</ele>
        <time>2019-09-10T14:51:23.300Z</time>
      </trkpt>
      <trkpt lat="10.1562764591961" lon="-75.68350381754">
        <ele>52.4851891</ele>
        <time>2019-09-10T14:51:23.500Z</time>
      </trkpt>
      <trkpt lat="10.1562747237178" lon="-75.683501698496">
        <ele>52.4851891</ele>
        <time>2019-09-10T14:51:23.600Z</time>
      </trkpt>
      <trkpt lat="10.1562712658928" lon="-75.6834974686239">
        <ele>52.4851891</ele>
        <time>2019-09-10T14:51:23.800Z</time>
      </trkpt>
      <trkpt lat="10.1562695287469" lon="-75.6834953603025">
        <ele>52.4851891</ele>
        <time>2019-09-10T14:51:23.900Z</time>
      </trkpt>
      <trkpt lat="10.1562677903504" lon="-75.6834932542092">
        <ele>52.4851891</ele>
        <time>2019-09-10T14:51:24.000Z</time>
      </trkpt>
      <trkpt lat="10.1562660429909" lon="-75.683491163991">
        <ele>52.4851891</ele>
        <time>2019-09-10T14:51:24.100Z</time>
      </trkpt>
      <trkpt lat="10.1562642998002" lon="-75.6834890790645">
        <ele>52.5851891</ele>
        <time>2019-09-10T14:51:24.200Z</time>
      </trkpt>
      <trkpt lat="10.1562625834984" lon="-75.6834870062531">
        <ele>52.5851891</ele>
        <time>2019-09-10T14:51:24.300Z</time>
      </trkpt>
      <trkpt lat="10.1562608749089" lon="-75.6834849323277">
        <ele>52.5851891</ele>
        <time>2019-09-10T14:51:24.400Z</time>
      </trkpt>
      <trkpt lat="10.1562591565227" lon="-75.6834828816579">
        <ele>52.5851891</ele>
        <time>2019-09-10T14:51:24.500Z</time>
      </trkpt>
      <trkpt lat="10.1562574277145" lon="-75.6834808336339">
        <ele>52.5851891</ele>
        <time>2019-09-10T14:51:24.600Z</time>
      </trkpt>
      <trkpt lat="10.1562556884842" lon="-75.6834787764192">
        <ele>52.5851891</ele>
        <time>2019-09-10T14:51:24.700Z</time>
      </trkpt>
      <trkpt lat="10.1562539467526" lon="-75.6834767079247">
        <ele>52.5851891</ele>
        <time>2019-09-10T14:51:24.800Z</time>
      </trkpt>
      <trkpt lat="10.1562521966833" lon="-75.6834746479248">
        <ele>52.5851891</ele>
        <time>2019-09-10T14:51:24.900Z</time>
      </trkpt>
      <trkpt lat="10.1562504436959" lon="-75.683472583051">
        <ele>52.4851891</ele>
        <time>2019-09-10T14:51:25.000Z</time>
      </trkpt>
      <trkpt lat="10.1562486925845" lon="-75.6834705277858">
        <ele>52.4851891</ele>
        <time>2019-09-10T14:51:25.100Z</time>
      </trkpt>
      <trkpt lat="10.1562469448081" lon="-75.6834684679251">
        <ele>52.4851891</ele>
        <time>2019-09-10T14:51:25.200Z</time>
      </trkpt>
      <trkpt lat="10.1562452080791" lon="-75.6834664189264">
        <ele>52.4851891</ele>
        <time>2019-09-10T14:51:25.300Z</time>
      </trkpt>
      <trkpt lat="10.1562434763527" lon="-75.6834643638004">
        <ele>52.4851891</ele>
        <time>2019-09-10T14:51:25.400Z</time>
      </trkpt>
      <trkpt lat="10.1562417196134" lon="-75.6834622900143">
        <ele>52.4851891</ele>
        <time>2019-09-10T14:51:25.500Z</time>
      </trkpt>
      <trkpt lat="10.1562399584968" lon="-75.6834601967324">
        <ele>52.4851891</ele>
        <time>2019-09-10T14:51:25.600Z</time>
      </trkpt>
      <trkpt lat="10.1562382259366" lon="-75.6834581084638">
        <ele>52.4851891</ele>
        <time>2019-09-10T14:51:25.700Z</time>
      </trkpt>
      <trkpt lat="10.1562365069251" lon="-75.6834560132323">
        <ele>52.4851891</ele>
        <time>2019-09-10T14:51:25.800Z</time>
      </trkpt>
      <trkpt lat="10.156234791457" lon="-75.6834539245459">
        <ele>52.4851891</ele>
        <time>2019-09-10T14:51:25.900Z</time>
      </trkpt>
      <trkpt lat="10.1562330693189" lon="-75.6834518247191">
        <ele>52.4851891</ele>
        <time>2019-09-10T14:51:26.000Z</time>
      </trkpt>
      <trkpt lat="10.1562313169568" lon="-75.6834496711398">
        <ele>52.4851891</ele>
        <time>2019-09-10T14:51:26.100Z</time>
      </trkpt>
      <trkpt lat="10.1562295533389" lon="-75.6834475004321">
        <ele>52.4851891</ele>
        <time>2019-09-10T14:51:26.200Z</time>
      </trkpt>
      <trkpt lat="10.1562278403722" lon="-75.68344536607">
        <ele>52.4851891</ele>
        <time>2019-09-10T14:51:26.300Z</time>
      </trkpt>
      <trkpt lat="10.1562261367853" lon="-75.6834432549635">
        <ele>52.4851891</ele>
        <time>2019-09-10T14:51:26.400Z</time>
      </trkpt>
      <trkpt lat="10.1562244575859" lon="-75.6834411698977">
        <ele>52.4851891</ele>
        <time>2019-09-10T14:51:26.500Z</time>
      </trkpt>
      <trkpt lat="10.1562227602522" lon="-75.6834390761981">
        <ele>52.3851891</ele>
        <time>2019-09-10T14:51:26.600Z</time>
      </trkpt>
      <trkpt lat="10.1562210481192" lon="-75.6834370015765">
        <ele>52.3851891</ele>
        <time>2019-09-10T14:51:26.700Z</time>
      </trkpt>
      <trkpt lat="10.1562193199363" lon="-75.6834349169284">
        <ele>52.3851891</ele>
        <time>2019-09-10T14:51:26.800Z</time>
      </trkpt>
      <trkpt lat="10.1562175940462" lon="-75.6834328360403">
        <ele>52.3851891</ele>
        <time>2019-09-10T14:51:26.900Z</time>
      </trkpt>
      <trkpt lat="10.156215858151" lon="-75.6834307511137">
        <ele>52.3851891</ele>
        <time>2019-09-10T14:51:27.000Z</time>
      </trkpt>
      <trkpt lat="10.1562141197544" lon="-75.6834286847081">
        <ele>52.3851891</ele>
        <time>2019-09-10T14:51:27.100Z</time>
      </trkpt>
      <trkpt lat="10.15621237573" lon="-75.6834266219231">
        <ele>52.3851891</ele>
        <time>2019-09-10T14:51:27.200Z</time>
      </trkpt>
      <trkpt lat="10.1562106629717" lon="-75.6834245631765">
        <ele>52.4851891</ele>
        <time>2019-09-10T14:51:27.300Z</time>
      </trkpt>
      <trkpt lat="10.1562089522978" lon="-75.6834225065188">
        <ele>52.4851891</ele>
        <time>2019-09-10T14:51:27.400Z</time>
      </trkpt>
      <trkpt lat="10.1562072635102" lon="-75.6834204906627">
        <ele>52.4851891</ele>
        <time>2019-09-10T14:51:27.500Z</time>
      </trkpt>
      <trkpt lat="10.1562055676355" lon="-75.6834184870611">
        <ele>52.4851891</ele>
        <time>2019-09-10T14:51:27.600Z</time>
      </trkpt>
      <trkpt lat="10.1562038673837" lon="-75.6834164961317">
        <ele>52.4851891</ele>
        <time>2019-09-10T14:51:27.700Z</time>
      </trkpt>
      <trkpt lat="10.1562021583773" lon="-75.6834144915553">
        <ele>52.4851891</ele>
        <time>2019-09-10T14:51:27.800Z</time>
      </trkpt>
      <trkpt lat="10.1562004691728" lon="-75.6834124836368">
        <ele>52.4851891</ele>
        <time>2019-09-10T14:51:27.900Z</time>
      </trkpt>
      <trkpt lat="10.1561987810105" lon="-75.6834104693126">
        <ele>52.4851891</ele>
        <time>2019-09-10T14:51:28.000Z</time>
      </trkpt>
      <trkpt lat="10.1561953713354" lon="-75.6834063966595">
        <ele>52.4851891</ele>
        <time>2019-09-10T14:51:28.200Z</time>
      </trkpt>
      <trkpt lat="10.1561936441947" lon="-75.6834043607508">
        <ele>52.4851891</ele>
        <time>2019-09-10T14:51:28.300Z</time>
      </trkpt>
      <trkpt lat="10.1561919007955" lon="-75.6834023302729">
        <ele>52.4851891</ele>
        <time>2019-09-10T14:51:28.400Z</time>
      </trkpt>
      <trkpt lat="10.1561901467659" lon="-75.6834003114925">
        <ele>52.4851891</ele>
        <time>2019-09-10T14:51:28.500Z</time>
      </trkpt>
      <trkpt lat="10.156188395863" lon="-75.683398289927">
        <ele>52.4851891</ele>
        <time>2019-09-10T14:51:28.600Z</time>
      </trkpt>
      <trkpt lat="10.1561866195302" lon="-75.6833962263065">
        <ele>52.4851891</ele>
        <time>2019-09-10T14:51:28.700Z</time>
      </trkpt>
      <trkpt lat="10.1561848400708" lon="-75.6833941469502">
        <ele>52.4851891</ele>
        <time>2019-09-10T14:51:28.800Z</time>
      </trkpt>
      <trkpt lat="10.1561830987561" lon="-75.6833921033824">
        <ele>52.4851891</ele>
        <time>2019-09-10T14:51:28.900Z</time>
      </trkpt>
      <trkpt lat="10.1561813772433" lon="-75.6833900642707">
        <ele>52.4851891</ele>
        <time>2019-09-10T14:51:29.000Z</time>
      </trkpt>
      <trkpt lat="10.1561796405143" lon="-75.6833879679253">
        <ele>52.4851891</ele>
        <time>2019-09-10T14:51:29.100Z</time>
      </trkpt>
      <trkpt lat="10.1561778835665" lon="-75.6833858410829">
        <ele>52.4851891</ele>
        <time>2019-09-10T14:51:29.200Z</time>
      </trkpt>
      <trkpt lat="10.156176160803" lon="-75.6833837475226">
        <ele>52.4851891</ele>
        <time>2019-09-10T14:51:29.300Z</time>
      </trkpt>
      <trkpt lat="10.1561744545064" lon="-75.6833816726224">
        <ele>52.4851891</ele>
        <time>2019-09-10T14:51:29.400Z</time>
      </trkpt>
      <trkpt lat="10.1561727586318" lon="-75.683379599254">
        <ele>52.4851891</ele>
        <time>2019-09-10T14:51:29.500Z</time>
      </trkpt>
      <trkpt lat="10.1561710515014" lon="-75.6833775101498">
        <ele>52.4851891</ele>
        <time>2019-09-10T14:51:29.600Z</time>
      </trkpt>
      <trkpt lat="10.1561693147724" lon="-75.6833753631155">
        <ele>52.4851891</ele>
        <time>2019-09-10T14:51:29.700Z</time>
      </trkpt>
      <trkpt lat="10.1561675701226" lon="-75.6833731979781">
        <ele>52.4851891</ele>
        <time>2019-09-10T14:51:29.800Z</time>
      </trkpt>
      <trkpt lat="10.156165837354" lon="-75.683371085479">
        <ele>52.4851891</ele>
        <time>2019-09-10T14:51:29.900Z</time>
      </trkpt>
      <trkpt lat="10.1561641160496" lon="-75.6833689976281">
        <ele>52.3851891</ele>
        <time>2019-09-10T14:51:30.000Z</time>
      </trkpt>
      <trkpt lat="10.1561623657719" lon="-75.6833668911171">
        <ele>52.3851891</ele>
        <time>2019-09-10T14:51:30.100Z</time>
      </trkpt>
      <trkpt lat="10.1561606171618" lon="-75.6833647761114">
        <ele>52.3851891</ele>
        <time>2019-09-10T14:51:30.200Z</time>
      </trkpt>
      <trkpt lat="10.1561588572958" lon="-75.6833626381287">
        <ele>52.3851891</ele>
        <time>2019-09-10T14:51:30.300Z</time>
      </trkpt>
      <trkpt lat="10.156157098889" lon="-75.6833604952721">
        <ele>52.3851891</ele>
        <time>2019-09-10T14:51:30.400Z</time>
      </trkpt>
      <trkpt lat="10.156155330477" lon="-75.6833583501873">
        <ele>52.3851891</ele>
        <time>2019-09-10T14:51:30.500Z</time>
      </trkpt>
      <trkpt lat="10.1561535587299" lon="-75.6833562041278">
        <ele>52.3851891</ele>
        <time>2019-09-10T14:51:30.600Z</time>
      </trkpt>
      <trkpt lat="10.1561517876081" lon="-75.6833540657273">
        <ele>52.3851891</ele>
        <time>2019-09-10T14:51:30.700Z</time>
      </trkpt>
      <trkpt lat="10.1561500262831" lon="-75.6833519209211">
        <ele>52.3851891</ele>
        <time>2019-09-10T14:51:30.800Z</time>
      </trkpt>
      <trkpt lat="10.156148302269" lon="-75.6833497908759">
        <ele>52.3851891</ele>
        <time>2019-09-10T14:51:30.900Z</time>
      </trkpt>
      <trkpt lat="10.1561465817984" lon="-75.6833476474623">
        <ele>52.3851891</ele>
        <time>2019-09-10T14:51:31.000Z</time>
      </trkpt>
      <trkpt lat="10.1561448419428" lon="-75.6833455022383">
        <ele>52.3851891</ele>
        <time>2019-09-10T14:51:31.100Z</time>
      </trkpt>
      <trkpt lat="10.156143077908" lon="-75.6833433433673">
        <ele>52.3851891</ele>
        <time>2019-09-10T14:51:31.200Z</time>
      </trkpt>
      <trkpt lat="10.1561412640559" lon="-75.683341132972">
        <ele>52.3851891</ele>
        <time>2019-09-10T14:51:31.300Z</time>
      </trkpt>
      <trkpt lat="10.15613944937" lon="-75.6833389138036">
        <ele>52.3851891</ele>
        <time>2019-09-10T14:51:31.400Z</time>
      </trkpt>
      <trkpt lat="10.1561376995092" lon="-75.6833367475521">
        <ele>52.3851891</ele>
        <time>2019-09-10T14:51:31.500Z</time>
      </trkpt>
      <trkpt lat="10.1561359700756" lon="-75.6833346095694">
        <ele>52.3851891</ele>
        <time>2019-09-10T14:51:31.600Z</time>
      </trkpt>
      <trkpt lat="10.1561342410589" lon="-75.6833324991591">
        <ele>52.3851891</ele>
        <time>2019-09-10T14:51:31.700Z</time>
      </trkpt>
      <trkpt lat="10.1561325051637" lon="-75.6833303766337">
        <ele>52.3851891</ele>
        <time>2019-09-10T14:51:31.800Z</time>
      </trkpt>
      <trkpt lat="10.1561308040781" lon="-75.6833282786172">
        <ele>52.3851891</ele>
        <time>2019-09-10T14:51:31.900Z</time>
      </trkpt>
      <trkpt lat="10.1561291023671" lon="-75.6833261709921">
        <ele>52.3851891</ele>
        <time>2019-09-10T14:51:32.000Z</time>
      </trkpt>
      <trkpt lat="10.1561273812712" lon="-75.6833240320346">
        <ele>52.3851891</ele>
        <time>2019-09-10T14:51:32.100Z</time>
      </trkpt>
      <trkpt lat="10.1561256393311" lon="-75.6833218705178">
        <ele>52.3851891</ele>
        <time>2019-09-10T14:51:32.200Z</time>
      </trkpt>
      <trkpt lat="10.1561239015599" lon="-75.6833197062159">
        <ele>52.3851891</ele>
        <time>2019-09-10T14:51:32.300Z</time>
      </trkpt>
      <trkpt lat="10.1561221648309" lon="-75.6833175421924">
        <ele>52.3851891</ele>
        <time>2019-09-10T14:51:32.400Z</time>
      </trkpt>
      <trkpt lat="10.1561187336864" lon="-75.6833132149811">
        <ele>52.3851891</ele>
        <time>2019-09-10T14:51:32.600Z</time>
      </trkpt>
      <trkpt lat="10.1561169954983" lon="-75.6833110288162">
        <ele>52.3851891</ele>
        <time>2019-09-10T14:51:32.700Z</time>
      </trkpt>
      <trkpt lat="10.1561152448038" lon="-75.6833088412587">
        <ele>52.3851891</ele>
        <time>2019-09-10T14:51:32.800Z</time>
      </trkpt>
      <trkpt lat="10.1561134843125" lon="-75.6833066713865">
        <ele>52.3851891</ele>
        <time>2019-09-10T14:51:32.900Z</time>
      </trkpt>
      <trkpt lat="10.1561117221537" lon="-75.6833045226812">
        <ele>52.3851891</ele>
        <time>2019-09-10T14:51:33.000Z</time>
      </trkpt>
      <trkpt lat="10.1561099374833" lon="-75.6833023760647">
        <ele>52.3851891</ele>
        <time>2019-09-10T14:51:33.100Z</time>
      </trkpt>
      <trkpt lat="10.1561081548973" lon="-75.6833002287518">
        <ele>52.3851891</ele>
        <time>2019-09-10T14:51:33.200Z</time>
      </trkpt>
      <trkpt lat="10.1561063581373" lon="-75.683298087427">
        <ele>52.3851891</ele>
        <time>2019-09-10T14:51:33.300Z</time>
      </trkpt>
      <trkpt lat="10.1561045717994" lon="-75.6832959520901">
        <ele>52.3851891</ele>
        <time>2019-09-10T14:51:33.400Z</time>
      </trkpt>
      <trkpt lat="10.1561028306931" lon="-75.6832938471109">
        <ele>52.3851891</ele>
        <time>2019-09-10T14:51:33.500Z</time>
      </trkpt>
      <trkpt lat="10.1561011129323" lon="-75.6832917522972">
        <ele>52.3851891</ele>
        <time>2019-09-10T14:51:33.600Z</time>
      </trkpt>
      <trkpt lat="10.1560993847493" lon="-75.6832896861701">
        <ele>52.2851891</ele>
        <time>2019-09-10T14:51:33.700Z</time>
      </trkpt>
      <trkpt lat="10.1560976459359" lon="-75.6832876420453">
        <ele>52.2851891</ele>
        <time>2019-09-10T14:51:33.800Z</time>
      </trkpt>
      <trkpt lat="10.1560958516772" lon="-75.6832855806528">
        <ele>52.2851891</ele>
        <time>2019-09-10T14:51:33.900Z</time>
      </trkpt>
      <trkpt lat="10.156094077012" lon="-75.683283514108">
        <ele>52.2851891</ele>
        <time>2019-09-10T14:51:34.000Z</time>
      </trkpt>
      <trkpt lat="10.1560923400745" lon="-75.6832814766674">
        <ele>52.2851891</ele>
        <time>2019-09-10T14:51:34.100Z</time>
      </trkpt>
      <trkpt lat="10.1560906241896" lon="-75.683279430036">
        <ele>52.2851891</ele>
        <time>2019-09-10T14:51:34.200Z</time>
      </trkpt>
      <trkpt lat="10.1560889239377" lon="-75.6832773832653">
        <ele>52.2851891</ele>
        <time>2019-09-10T14:51:34.300Z</time>
      </trkpt>
      <trkpt lat="10.1560872288969" lon="-75.6832753150494">
        <ele>52.3851891</ele>
        <time>2019-09-10T14:51:34.400Z</time>
      </trkpt>
      <trkpt lat="10.1560855455287" lon="-75.6832732511503">
        <ele>52.3851891</ele>
        <time>2019-09-10T14:51:34.500Z</time>
      </trkpt>
      <trkpt lat="10.1560838477782" lon="-75.6832711754146">
        <ele>52.3851891</ele>
        <time>2019-09-10T14:51:34.600Z</time>
      </trkpt>
      <trkpt lat="10.1560821550302" lon="-75.6832690913236">
        <ele>52.3851891</ele>
        <time>2019-09-10T14:51:34.700Z</time>
      </trkpt>
      <trkpt lat="10.1560804485251" lon="-75.6832669956744">
        <ele>52.3851891</ele>
        <time>2019-09-10T14:51:34.800Z</time>
      </trkpt>
      <trkpt lat="10.1560787539011" lon="-75.6832648983542">
        <ele>52.2851891</ele>
        <time>2019-09-10T14:51:34.900Z</time>
      </trkpt>
      <trkpt lat="10.1560770476045" lon="-75.6832628024265">
        <ele>52.2851891</ele>
        <time>2019-09-10T14:51:35.000Z</time>
      </trkpt>
      <trkpt lat="10.156075322965" lon="-75.6832607117905">
        <ele>52.2851891</ele>
        <time>2019-09-10T14:51:35.100Z</time>
      </trkpt>
      <trkpt lat="10.1560735793575" lon="-75.6832586257499">
        <ele>52.2851891</ele>
        <time>2019-09-10T14:51:35.200Z</time>
      </trkpt>
      <trkpt lat="10.1560718280376" lon="-75.6832565484824">
        <ele>52.2851891</ele>
        <time>2019-09-10T14:51:35.300Z</time>
      </trkpt>
      <trkpt lat="10.1560700658788" lon="-75.6832544817982">
        <ele>52.2851891</ele>
        <time>2019-09-10T14:51:35.400Z</time>
      </trkpt>
      <trkpt lat="10.1560683010103" lon="-75.6832524438006">
        <ele>52.2851891</ele>
        <time>2019-09-10T14:51:35.500Z</time>
      </trkpt>
      <trkpt lat="10.1560665376009" lon="-75.6832504159687">
        <ele>52.2851891</ele>
        <time>2019-09-10T14:51:35.600Z</time>
      </trkpt>
      <trkpt lat="10.156064756474" lon="-75.6832483994163">
        <ele>52.2851891</ele>
        <time>2019-09-10T14:51:35.700Z</time>
      </trkpt>
      <trkpt lat="10.1560629734711" lon="-75.6832463802182">
        <ele>52.2851891</ele>
        <time>2019-09-10T14:51:35.800Z</time>
      </trkpt>
      <trkpt lat="10.1560612000565" lon="-75.6832443557283">
        <ele>52.2851891</ele>
        <time>2019-09-10T14:51:35.900Z</time>
      </trkpt>
      <trkpt lat="10.1560594372724" lon="-75.6832423191233">
        <ele>52.2851891</ele>
        <time>2019-09-10T14:51:36.000Z</time>
      </trkpt>
      <trkpt lat="10.1560576665675" lon="-75.683240263301">
        <ele>52.2851891</ele>
        <time>2019-09-10T14:51:36.100Z</time>
      </trkpt>
      <trkpt lat="10.1560558966964" lon="-75.6832381935533">
        <ele>52.2851891</ele>
        <time>2019-09-10T14:51:36.200Z</time>
      </trkpt>
      <trkpt lat="10.1560541257831" lon="-75.6832361100193">
        <ele>52.2851891</ele>
        <time>2019-09-10T14:51:36.300Z</time>
      </trkpt>
      <trkpt lat="10.156052355912" lon="-75.6832340209151">
        <ele>52.2851891</ele>
        <time>2019-09-10T14:51:36.400Z</time>
      </trkpt>
      <trkpt lat="10.1560505712416" lon="-75.6832319047954">
        <ele>52.2851891</ele>
        <time>2019-09-10T14:51:36.500Z</time>
      </trkpt>
      <trkpt lat="10.156048787405" lon="-75.6832297819915">
        <ele>52.2851891</ele>
        <time>2019-09-10T14:51:36.600Z</time>
      </trkpt>
      <trkpt lat="10.156047015241" lon="-75.6832276654541">
        <ele>52.2851891</ele>
        <time>2019-09-10T14:51:36.700Z</time>
      </trkpt>
      <trkpt lat="10.1560452537076" lon="-75.6832255444605">
        <ele>52.2851891</ele>
        <time>2019-09-10T14:51:36.800Z</time>
      </trkpt>
      <trkpt lat="10.1560435301103" lon="-75.6832234141368">
        <ele>52.2851891</ele>
        <time>2019-09-10T14:51:36.900Z</time>
      </trkpt>
      <trkpt lat="10.1560418098481" lon="-75.6832212669632">
        <ele>52.2851891</ele>
        <time>2019-09-10T14:51:37.000Z</time>
      </trkpt>
      <trkpt lat="10.1560400931294" lon="-75.6832190955593">
        <ele>52.2851891</ele>
        <time>2019-09-10T14:51:37.100Z</time>
      </trkpt>
      <trkpt lat="10.1560366340538" lon="-75.6832147808809">
        <ele>52.2851891</ele>
        <time>2019-09-10T14:51:37.300Z</time>
      </trkpt>
      <trkpt lat="10.1560331795639" lon="-75.6832105175877">
        <ele>52.2851891</ele>
        <time>2019-09-10T14:51:37.500Z</time>
      </trkpt>
      <trkpt lat="10.1560314470038" lon="-75.6832083557924">
        <ele>52.2851891</ele>
        <time>2019-09-10T14:51:37.600Z</time>
      </trkpt>
      <trkpt lat="10.1560297104832" lon="-75.6832061842492">
        <ele>52.2851891</ele>
        <time>2019-09-10T14:51:37.700Z</time>
      </trkpt>
      <trkpt lat="10.1560279710444" lon="-75.6832039994768">
        <ele>52.2851891</ele>
        <time>2019-09-10T14:51:37.800Z</time>
      </trkpt>
      <trkpt lat="10.1560262697504" lon="-75.6832017933984">
        <ele>52.2851891</ele>
        <time>2019-09-10T14:51:37.900Z</time>
      </trkpt>
      <trkpt lat="10.1560245770024" lon="-75.6831995827245">
        <ele>52.2851891</ele>
        <time>2019-09-10T14:51:38.000Z</time>
      </trkpt>
      <trkpt lat="10.1560228882148" lon="-75.6831974029653">
        <ele>52.2851891</ele>
        <time>2019-09-10T14:51:38.100Z</time>
      </trkpt>
      <trkpt lat="10.1560211908811" lon="-75.6831952390811">
        <ele>52.2851891</ele>
        <time>2019-09-10T14:51:38.200Z</time>
      </trkpt>
      <trkpt lat="10.1560195075129" lon="-75.6831930884262">
        <ele>52.2851891</ele>
        <time>2019-09-10T14:51:38.300Z</time>
      </trkpt>
      <trkpt lat="10.1560178228941" lon="-75.6831909416704">
        <ele>52.2851891</ele>
        <time>2019-09-10T14:51:38.400Z</time>
      </trkpt>
      <trkpt lat="10.1560161689161" lon="-75.6831888223479">
        <ele>52.2851891</ele>
        <time>2019-09-10T14:51:38.500Z</time>
      </trkpt>
      <trkpt lat="10.1560145080596" lon="-75.6831867109628">
        <ele>52.2851891</ele>
        <time>2019-09-10T14:51:38.600Z</time>
      </trkpt>
      <trkpt lat="10.1560128482452" lon="-75.6831846076546">
        <ele>52.1851891</ele>
        <time>2019-09-10T14:51:38.700Z</time>
      </trkpt>
      <trkpt lat="10.1560111655024" lon="-75.6831825004473">
        <ele>52.1851891</ele>
        <time>2019-09-10T14:51:38.800Z</time>
      </trkpt>
      <trkpt lat="10.1560094800498" lon="-75.6831803775041">
        <ele>52.1851891</ele>
        <time>2019-09-10T14:51:38.900Z</time>
      </trkpt>
      <trkpt lat="10.1560077808402" lon="-75.6831782430028">
        <ele>52.1851891</ele>
        <time>2019-09-10T14:51:39.000Z</time>
      </trkpt>
      <trkpt lat="10.1560060612033" lon="-75.6831760579518">
        <ele>52.1851891</ele>
        <time>2019-09-10T14:51:39.100Z</time>
      </trkpt>
      <trkpt lat="10.1560043280178" lon="-75.6831738774963">
        <ele>52.1851891</ele>
        <time>2019-09-10T14:51:39.200Z</time>
      </trkpt>
      <trkpt lat="10.1560025998349" lon="-75.6831717133337">
        <ele>52.1851891</ele>
        <time>2019-09-10T14:51:39.300Z</time>
      </trkpt>
      <trkpt lat="10.1560008722772" lon="-75.683169568806">
        <ele>52.1851891</ele>
        <time>2019-09-10T14:51:39.400Z</time>
      </trkpt>
      <trkpt lat="10.1559991636878" lon="-75.6831674202399">
        <ele>52.1851891</ele>
        <time>2019-09-10T14:51:39.500Z</time>
      </trkpt>
      <trkpt lat="10.1559974530138" lon="-75.6831652730663">
        <ele>52.1851891</ele>
        <time>2019-09-10T14:51:39.600Z</time>
      </trkpt>
      <trkpt lat="10.1559957342107" lon="-75.6831631207403">
        <ele>52.1851891</ele>
        <time>2019-09-10T14:51:39.700Z</time>
      </trkpt>
      <trkpt lat="10.1559940043603" lon="-75.6831609667433">
        <ele>52.1851891</ele>
        <time>2019-09-10T14:51:39.800Z</time>
      </trkpt>
      <trkpt lat="10.1559922413677" lon="-75.6831587819709">
        <ele>52.1851891</ele>
        <time>2019-09-10T14:51:39.900Z</time>
      </trkpt>
      <trkpt lat="10.1559904760823" lon="-75.683156604579">
        <ele>52.1851891</ele>
        <time>2019-09-10T14:51:40.000Z</time>
      </trkpt>
      <trkpt lat="10.1559887451897" lon="-75.6831544650644">
        <ele>52.1851891</ele>
        <time>2019-09-10T14:51:40.100Z</time>
      </trkpt>
      <trkpt lat="10.1559870378508" lon="-75.6831523603637">
        <ele>52.1851891</ele>
        <time>2019-09-10T14:51:40.200Z</time>
      </trkpt>
      <trkpt lat="10.155985340934" lon="-75.6831502684744">
        <ele>52.1851891</ele>
        <time>2019-09-10T14:51:40.300Z</time>
      </trkpt>
      <trkpt lat="10.1559836461016" lon="-75.6831481838263">
        <ele>52.1851891</ele>
        <time>2019-09-10T14:51:40.400Z</time>
      </trkpt>
      <trkpt lat="10.1559819485595" lon="-75.6831461026597">
        <ele>52.1851891</ele>
        <time>2019-09-10T14:51:40.500Z</time>
      </trkpt>
      <trkpt lat="10.1559802508089" lon="-75.6831440095171">
        <ele>52.1851891</ele>
        <time>2019-09-10T14:51:40.600Z</time>
      </trkpt>
      <trkpt lat="10.1559785584778" lon="-75.6831418972966">
        <ele>52.1851891</ele>
        <time>2019-09-10T14:51:40.700Z</time>
      </trkpt>
      <trkpt lat="10.155975191533" lon="-75.6831376344211">
        <ele>52.1851891</ele>
        <time>2019-09-10T14:51:40.900Z</time>
      </trkpt>
      <trkpt lat="10.1559735054551" lon="-75.6831355043759">
        <ele>52.2851891</ele>
        <time>2019-09-10T14:51:41.000Z</time>
      </trkpt>
      <trkpt lat="10.1559718112481" lon="-75.6831333868637">
        <ele>52.2851891</ele>
        <time>2019-09-10T14:51:41.100Z</time>
      </trkpt>
      <trkpt lat="10.1559701145397" lon="-75.6831312810489">
        <ele>52.2851891</ele>
        <time>2019-09-10T14:51:41.200Z</time>
      </trkpt>
      <trkpt lat="10.1559684653558" lon="-75.6831292589264">
        <ele>52.2851891</ele>
        <time>2019-09-10T14:51:41.300Z</time>
      </trkpt>
      <trkpt lat="10.1559668326388" lon="-75.6831272585276">
        <ele>52.2851891</ele>
        <time>2019-09-10T14:51:41.400Z</time>
      </trkpt>
      <trkpt lat="10.1559635471944" lon="-75.6831232561984">
        <ele>52.2851891</ele>
        <time>2019-09-10T14:51:41.600Z</time>
      </trkpt>
      <trkpt lat="10.1559618590321" lon="-75.6831212021864">
        <ele>52.2851891</ele>
        <time>2019-09-10T14:51:41.700Z</time>
      </trkpt>
      <trkpt lat="10.1559601533608" lon="-75.6831191274255">
        <ele>52.2851891</ele>
        <time>2019-09-10T14:51:41.800Z</time>
      </trkpt>
      <trkpt lat="10.1559584833328" lon="-75.6831170792623">
        <ele>52.2851891</ele>
        <time>2019-09-10T14:51:41.900Z</time>
      </trkpt>
      <trkpt lat="10.1559568231016" lon="-75.6831150528229">
        <ele>52.2851891</ele>
        <time>2019-09-10T14:51:42.000Z</time>
      </trkpt>
      <trkpt lat="10.1559551559919" lon="-75.6831130493605">
        <ele>52.2851891</ele>
        <time>2019-09-10T14:51:42.100Z</time>
      </trkpt>
      <trkpt lat="10.1559534690802" lon="-75.6831110362896">
        <ele>52.2851891</ele>
        <time>2019-09-10T14:51:42.200Z</time>
      </trkpt>
      <trkpt lat="10.1559517408973" lon="-75.6831089527556">
        <ele>52.2851891</ele>
        <time>2019-09-10T14:51:42.300Z</time>
      </trkpt>
      <trkpt lat="10.1559500072949" lon="-75.6831068473585">
        <ele>52.2851891</ele>
        <time>2019-09-10T14:51:42.400Z</time>
      </trkpt>
      <trkpt lat="10.1559482776529" lon="-75.6831047443288">
        <ele>52.2851891</ele>
        <time>2019-09-10T14:51:42.500Z</time>
      </trkpt>
      <trkpt lat="10.155946561351" lon="-75.6831026662258">
        <ele>52.2851891</ele>
        <time>2019-09-10T14:51:42.600Z</time>
      </trkpt>
      <trkpt lat="10.1559448421311" lon="-75.6831005909079">
        <ele>52.2851891</ele>
        <time>2019-09-10T14:51:42.700Z</time>
      </trkpt>
      <trkpt lat="10.1559431239533" lon="-75.6830985026392">
        <ele>52.2851891</ele>
        <time>2019-09-10T14:51:42.800Z</time>
      </trkpt>
      <trkpt lat="10.1559414084852" lon="-75.6830963652135">
        <ele>52.3851891</ele>
        <time>2019-09-10T14:51:42.900Z</time>
      </trkpt>
      <trkpt lat="10.1559396978113" lon="-75.6830942105202">
        <ele>52.3851891</ele>
        <time>2019-09-10T14:51:43.000Z</time>
      </trkpt>
      <trkpt lat="10.155937995892" lon="-75.6830920412051">
        <ele>52.3851891</ele>
        <time>2019-09-10T14:51:43.100Z</time>
      </trkpt>
      <trkpt lat="10.155936287094" lon="-75.6830898716114">
        <ele>52.3851891</ele>
        <time>2019-09-10T14:51:43.200Z</time>
      </trkpt>
      <trkpt lat="10.1559345616208" lon="-75.6830877180322">
        <ele>52.3851891</ele>
        <time>2019-09-10T14:51:43.300Z</time>
      </trkpt>
      <trkpt lat="10.155932822599" lon="-75.6830855686305">
        <ele>52.3851891</ele>
        <time>2019-09-10T14:51:43.400Z</time>
      </trkpt>
      <trkpt lat="10.1559311244315" lon="-75.6830834484725">
        <ele>52.3851891</ele>
        <time>2019-09-10T14:51:43.500Z</time>
      </trkpt>
      <trkpt lat="10.1559294327257" lon="-75.6830813333276">
        <ele>52.2851891</ele>
        <time>2019-09-10T14:51:43.600Z</time>
      </trkpt>
      <trkpt lat="10.155927710796" lon="-75.683079227652">
        <ele>52.2851891</ele>
        <time>2019-09-10T14:51:43.700Z</time>
      </trkpt>
      <trkpt lat="10.1559259634365" lon="-75.6830771122286">
        <ele>52.2851891</ele>
        <time>2019-09-10T14:51:43.800Z</time>
      </trkpt>
      <trkpt lat="10.1559242310848" lon="-75.6830750540391">
        <ele>52.2851891</ele>
        <time>2019-09-10T14:51:43.900Z</time>
      </trkpt>
      <trkpt lat="10.1559224991499" lon="-75.6830729952924">
        <ele>52.3851891</ele>
        <time>2019-09-10T14:51:44.000Z</time>
      </trkpt>
      <trkpt lat="10.1559207734682" lon="-75.6830709514461">
        <ele>52.3851891</ele>
        <time>2019-09-10T14:51:44.100Z</time>
      </trkpt>
      <trkpt lat="10.1559190436178" lon="-75.6830688846227">
        <ele>52.2851891</ele>
        <time>2019-09-10T14:51:44.200Z</time>
      </trkpt>
      <trkpt lat="10.1559173264822" lon="-75.683066821977">
        <ele>52.2851891</ele>
        <time>2019-09-10T14:51:44.300Z</time>
      </trkpt>
      <trkpt lat="10.1559156076791" lon="-75.6830647465198">
        <ele>52.2851891</ele>
        <time>2019-09-10T14:51:44.400Z</time>
      </trkpt>
      <trkpt lat="10.1559139093032" lon="-75.6830627021165">
        <ele>52.2851891</ele>
        <time>2019-09-10T14:51:44.500Z</time>
      </trkpt>
      <trkpt lat="10.1559122055079" lon="-75.6830606639796">
        <ele>52.2851891</ele>
        <time>2019-09-10T14:51:44.600Z</time>
      </trkpt>
      <trkpt lat="10.1559104927495" lon="-75.6830586489591">
        <ele>52.2851891</ele>
        <time>2019-09-10T14:51:44.700Z</time>
      </trkpt>
      <trkpt lat="10.1559087672763" lon="-75.6830566233552">
        <ele>52.2851891</ele>
        <time>2019-09-10T14:51:44.800Z</time>
      </trkpt>
      <trkpt lat="10.1559070313811" lon="-75.6830545767238">
        <ele>52.2851891</ele>
        <time>2019-09-10T14:51:44.900Z</time>
      </trkpt>
      <trkpt lat="10.1559052865229" lon="-75.683052512407">
        <ele>52.2851891</ele>
        <time>2019-09-10T14:51:45.000Z</time>
      </trkpt>
      <trkpt lat="10.1559035520867" lon="-75.6830504487865">
        <ele>52.2851891</ele>
        <time>2019-09-10T14:51:45.100Z</time>
      </trkpt>
      <trkpt lat="10.1559018099383" lon="-75.683048379178">
        <ele>52.2851891</ele>
        <time>2019-09-10T14:51:45.200Z</time>
      </trkpt>
      <trkpt lat="10.1559000667476" lon="-75.6830462783764">
        <ele>52.2851891</ele>
        <time>2019-09-10T14:51:45.300Z</time>
      </trkpt>
      <trkpt lat="10.1558983177206" lon="-75.6830441587753">
        <ele>52.2851891</ele>
        <time>2019-09-10T14:51:45.400Z</time>
      </trkpt>
      <trkpt lat="10.1558965757805" lon="-75.6830420482259">
        <ele>52.2851891</ele>
        <time>2019-09-10T14:51:45.500Z</time>
      </trkpt>
      <trkpt lat="10.1558930648032" lon="-75.6830378081882">
        <ele>52.2851891</ele>
        <time>2019-09-10T14:51:45.700Z</time>
      </trkpt>
      <trkpt lat="10.1558912974334" lon="-75.683035669927">
        <ele>52.2851891</ele>
        <time>2019-09-10T14:51:45.800Z</time>
      </trkpt>
      <trkpt lat="10.1558895450713" lon="-75.6830335455913">
        <ele>52.2851891</ele>
        <time>2019-09-10T14:51:45.900Z</time>
      </trkpt>
      <trkpt lat="10.1558878022975" lon="-75.6830314360166">
        <ele>52.2851891</ele>
        <time>2019-09-10T14:51:46.000Z</time>
      </trkpt>
      <trkpt lat="10.1558860357614" lon="-75.683029335772">
        <ele>52.2851891</ele>
        <time>2019-09-10T14:51:46.100Z</time>
      </trkpt>
      <trkpt lat="10.1558824922673" lon="-75.6830251287378">
        <ele>52.2851891</ele>
        <time>2019-09-10T14:51:46.300Z</time>
      </trkpt>
      <trkpt lat="10.1558807138501" lon="-75.6830230265436">
        <ele>52.3851891</ele>
        <time>2019-09-10T14:51:46.400Z</time>
      </trkpt>
      <trkpt lat="10.1558771201218" lon="-75.6830188339919">
        <ele>52.3851891</ele>
        <time>2019-09-10T14:51:46.600Z</time>
      </trkpt>
      <trkpt lat="10.1558753575461" lon="-75.6830167705107">
        <ele>52.3851891</ele>
        <time>2019-09-10T14:51:46.700Z</time>
      </trkpt>
      <trkpt lat="10.1558736041418" lon="-75.6830147145492">
        <ele>52.3851891</ele>
        <time>2019-09-10T14:51:46.800Z</time>
      </trkpt>
      <trkpt lat="10.15587184907" lon="-75.6830126379779">
        <ele>52.2851891</ele>
        <time>2019-09-10T14:51:46.900Z</time>
      </trkpt>
      <trkpt lat="10.1558700817002" lon="-75.6830105412147">
        <ele>52.2851891</ele>
        <time>2019-09-10T14:51:47.000Z</time>
      </trkpt>
      <trkpt lat="10.1558683101616" lon="-75.6830084590733">
        <ele>52.2851891</ele>
        <time>2019-09-10T14:51:47.100Z</time>
      </trkpt>
      <trkpt lat="10.1558647649999" lon="-75.6830043183245">
        <ele>52.3851891</ele>
        <time>2019-09-10T14:51:47.300Z</time>
      </trkpt>
      <trkpt lat="10.1558629895009" lon="-75.6830022503871">
        <ele>52.3851891</ele>
        <time>2019-09-10T14:51:47.400Z</time>
      </trkpt>
      <trkpt lat="10.1558612517297" lon="-75.6830001983247">
        <ele>52.3851891</ele>
        <time>2019-09-10T14:51:47.500Z</time>
      </trkpt>
      <trkpt lat="10.1558578057859" lon="-75.6829960642601">
        <ele>52.3851891</ele>
        <time>2019-09-10T14:51:47.700Z</time>
      </trkpt>
      <trkpt lat="10.1558560836477" lon="-75.6829939743204">
        <ele>52.3851891</ele>
        <time>2019-09-10T14:51:47.800Z</time>
      </trkpt>
      <trkpt lat="10.1558543408739" lon="-75.6829919033194">
        <ele>52.3851891</ele>
        <time>2019-09-10T14:51:47.900Z</time>
      </trkpt>
      <trkpt lat="10.1558525849684" lon="-75.6829898323183">
        <ele>52.3851891</ele>
        <time>2019-09-10T14:51:48.000Z</time>
      </trkpt>
      <trkpt lat="10.1558508351076" lon="-75.6829877317952">
        <ele>52.3851891</ele>
        <time>2019-09-10T14:51:48.100Z</time>
      </trkpt>
      <trkpt lat="10.1558490912916" lon="-75.6829856099661">
        <ele>52.3851891</ele>
        <time>2019-09-10T14:51:48.200Z</time>
      </trkpt>
      <trkpt lat="10.1558473503937" lon="-75.6829834829845">
        <ele>52.3851891</ele>
        <time>2019-09-10T14:51:48.300Z</time>
      </trkpt>
      <trkpt lat="10.1558456144985" lon="-75.6829813568385">
        <ele>52.3851891</ele>
        <time>2019-09-10T14:51:48.400Z</time>
      </trkpt>
      <trkpt lat="10.1558438838143" lon="-75.6829792032592">
        <ele>52.2851891</ele>
        <time>2019-09-10T14:51:48.500Z</time>
      </trkpt>
      <trkpt lat="10.1558404157757" lon="-75.6829748761872">
        <ele>52.2851891</ele>
        <time>2019-09-10T14:51:48.700Z</time>
      </trkpt>
      <trkpt lat="10.1558386798805" lon="-75.6829727118852">
        <ele>52.2851891</ele>
        <time>2019-09-10T14:51:48.800Z</time>
      </trkpt>
      <trkpt lat="10.1558369212652" lon="-75.6829705425701">
        <ele>52.2851891</ele>
        <time>2019-09-10T14:51:48.900Z</time>
      </trkpt>
      <trkpt lat="10.1558351516025" lon="-75.6829683828636">
        <ele>52.2851891</ele>
        <time>2019-09-10T14:51:49.000Z</time>
      </trkpt>
      <trkpt lat="10.1558333765204" lon="-75.6829662206505">
        <ele>52.2851891</ele>
        <time>2019-09-10T14:51:49.100Z</time>
      </trkpt>
      <trkpt lat="10.1558298561632" lon="-75.68296190639">
        <ele>52.2851891</ele>
        <time>2019-09-10T14:51:49.300Z</time>
      </trkpt>
      <trkpt lat="10.1558281079699" lon="-75.6829597555958">
        <ele>52.2851891</ele>
        <time>2019-09-10T14:51:49.400Z</time>
      </trkpt>
      <trkpt lat="10.1558263199645" lon="-75.6829575741655">
        <ele>52.2851891</ele>
        <time>2019-09-10T14:51:49.500Z</time>
      </trkpt>
      <trkpt lat="10.1558245375869" lon="-75.6829554042934">
        <ele>52.2851891</ele>
        <time>2019-09-10T14:51:49.600Z</time>
      </trkpt>
      <trkpt lat="10.1558227889768" lon="-75.682953316721">
        <ele>52.2851891</ele>
        <time>2019-09-10T14:51:49.700Z</time>
      </trkpt>
      <trkpt lat="10.1558210553744" lon="-75.6829512536575">
        <ele>52.2851891</ele>
        <time>2019-09-10T14:51:49.800Z</time>
      </trkpt>
      <trkpt lat="10.1558193211467" lon="-75.6829492152421">
        <ele>52.2851891</ele>
        <time>2019-09-10T14:51:49.900Z</time>
      </trkpt>
      <trkpt lat="10.1558175767054" lon="-75.6829471647116">
        <ele>52.2851891</ele>
        <time>2019-09-10T14:51:50.000Z</time>
      </trkpt>
      <trkpt lat="10.1558158645724" lon="-75.682945121283">
        <ele>52.2851891</ele>
        <time>2019-09-10T14:51:50.100Z</time>
      </trkpt>
      <trkpt lat="10.1558124463512" lon="-75.6829409826231">
        <ele>52.2851891</ele>
        <time>2019-09-10T14:51:50.300Z</time>
      </trkpt>
      <trkpt lat="10.1558107281734" lon="-75.6829388907338">
        <ele>52.2851891</ele>
        <time>2019-09-10T14:51:50.400Z</time>
      </trkpt>
      <trkpt lat="10.1558090027002" lon="-75.6829368099849">
        <ele>52.2851891</ele>
        <time>2019-09-10T14:51:50.500Z</time>
      </trkpt>
      <trkpt lat="10.1558055417486" lon="-75.682932618965">
        <ele>52.2851891</ele>
        <time>2019-09-10T14:51:50.700Z</time>
      </trkpt>
      <trkpt lat="10.1558038008508" lon="-75.6829305092511">
        <ele>52.2851891</ele>
        <time>2019-09-10T14:51:50.800Z</time>
      </trkpt>
      <trkpt lat="10.1558020553673" lon="-75.6829283734964">
        <ele>52.2851891</ele>
        <time>2019-09-10T14:51:50.900Z</time>
      </trkpt>
      <trkpt lat="10.1558003032136" lon="-75.6829262334249">
        <ele>52.1851891</ele>
        <time>2019-09-10T14:51:51.000Z</time>
      </trkpt>
      <trkpt lat="10.1557985287568" lon="-75.6829241043545">
        <ele>52.1851891</ele>
        <time>2019-09-10T14:51:51.100Z</time>
      </trkpt>
      <trkpt lat="10.1557967459624" lon="-75.6829219868422">
        <ele>52.1851891</ele>
        <time>2019-09-10T14:51:51.200Z</time>
      </trkpt>
      <trkpt lat="10.1557914161304" lon="-75.6829156781709">
        <ele>52.1851891</ele>
        <time>2019-09-10T14:51:51.500Z</time>
      </trkpt>
      <trkpt lat="10.1557896291671" lon="-75.6829135685962">
        <ele>52.1851891</ele>
        <time>2019-09-10T14:51:51.600Z</time>
      </trkpt>
      <trkpt lat="10.1557878630479" lon="-75.6829114697442">
        <ele>52.1851891</ele>
        <time>2019-09-10T14:51:51.700Z</time>
      </trkpt>
      <trkpt lat="10.1557861069339" lon="-75.682909381197">
        <ele>52.2851891</ele>
        <time>2019-09-10T14:51:51.800Z</time>
      </trkpt>
      <trkpt lat="10.1557843433161" lon="-75.6829073230074">
        <ele>52.2851891</ele>
        <time>2019-09-10T14:51:51.900Z</time>
      </trkpt>
      <trkpt lat="10.1557825746956" lon="-75.6829052760975">
        <ele>52.2851891</ele>
        <time>2019-09-10T14:51:52.000Z</time>
      </trkpt>
      <trkpt lat="10.1557807652207" lon="-75.6829031910317">
        <ele>52.2851891</ele>
        <time>2019-09-10T14:51:52.100Z</time>
      </trkpt>
      <trkpt lat="10.1557789569965" lon="-75.6829010964966">
        <ele>52.2851891</ele>
        <time>2019-09-10T14:51:52.200Z</time>
      </trkpt>
      <trkpt lat="10.1557771679489" lon="-75.6828990424846">
        <ele>52.2851891</ele>
        <time>2019-09-10T14:51:52.300Z</time>
      </trkpt>
      <trkpt lat="10.1557736580137" lon="-75.6828949418413">
        <ele>52.2851891</ele>
        <time>2019-09-10T14:51:52.500Z</time>
      </trkpt>
      <trkpt lat="10.1557719254535" lon="-75.6828928694477">
        <ele>52.2851891</ele>
        <time>2019-09-10T14:51:52.600Z</time>
      </trkpt>
      <trkpt lat="10.1557702304127" lon="-75.6828907999785">
        <ele>52.2851891</ele>
        <time>2019-09-10T14:51:52.700Z</time>
      </trkpt>
      <trkpt lat="10.1557685357887" lon="-75.6828887266101">
        <ele>52.2851891</ele>
        <time>2019-09-10T14:51:52.800Z</time>
      </trkpt>
      <trkpt lat="10.1557668230304" lon="-75.6828866057557">
        <ele>52.1851891</ele>
        <time>2019-09-10T14:51:52.900Z</time>
      </trkpt>
      <trkpt lat="10.155765089428" lon="-75.6828844751535">
        <ele>52.1851891</ele>
        <time>2019-09-10T14:51:53.000Z</time>
      </trkpt>
      <trkpt lat="10.1557633543665" lon="-75.6828823348035">
        <ele>52.1851891</ele>
        <time>2019-09-10T14:51:53.100Z</time>
      </trkpt>
      <trkpt lat="10.1557616182628" lon="-75.6828802083789">
        <ele>52.1851891</ele>
        <time>2019-09-10T14:51:53.200Z</time>
      </trkpt>
      <trkpt lat="10.1557598738215" lon="-75.6828780568885">
        <ele>52.1851891</ele>
        <time>2019-09-10T14:51:53.300Z</time>
      </trkpt>
      <trkpt lat="10.1557581322984" lon="-75.6828759208553">
        <ele>52.1851891</ele>
        <time>2019-09-10T14:51:53.400Z</time>
      </trkpt>
      <trkpt lat="10.1557564095349" lon="-75.6828738238136">
        <ele>52.1851891</ele>
        <time>2019-09-10T14:51:53.500Z</time>
      </trkpt>
      <trkpt lat="10.1557546930246" lon="-75.6828717491919">
        <ele>52.1851891</ele>
        <time>2019-09-10T14:51:53.600Z</time>
      </trkpt>
      <trkpt lat="10.155752970678" lon="-75.6828696723422">
        <ele>52.1851891</ele>
        <time>2019-09-10T14:51:53.700Z</time>
      </trkpt>
      <trkpt lat="10.1557512351997" lon="-75.6828675872764">
        <ele>52.1851891</ele>
        <time>2019-09-10T14:51:53.800Z</time>
      </trkpt>
      <trkpt lat="10.1557494911752" lon="-75.6828655230988">
        <ele>52.1851891</ele>
        <time>2019-09-10T14:51:53.900Z</time>
      </trkpt>
      <trkpt lat="10.1557477386047" lon="-75.6828634610101">
        <ele>52.1851891</ele>
        <time>2019-09-10T14:51:54.000Z</time>
      </trkpt>
      <trkpt lat="10.1557459637311" lon="-75.6828613636899">
        <ele>52.1851891</ele>
        <time>2019-09-10T14:51:54.100Z</time>
      </trkpt>
      <trkpt lat="10.1557441859392" lon="-75.6828592504946">
        <ele>52.1851891</ele>
        <time>2019-09-10T14:51:54.200Z</time>
      </trkpt>
      <trkpt lat="10.1557424169019" lon="-75.6828571790757">
        <ele>52.1851891</ele>
        <time>2019-09-10T14:51:54.300Z</time>
      </trkpt>
      <trkpt lat="10.1557406616216" lon="-75.6828551238105">
        <ele>52.1851891</ele>
        <time>2019-09-10T14:51:54.400Z</time>
      </trkpt>
      <trkpt lat="10.1557388909168" lon="-75.6828530599115">
        <ele>52.1851891</ele>
        <time>2019-09-10T14:51:54.500Z</time>
      </trkpt>
      <trkpt lat="10.1557371245891" lon="-75.6828509809729">
        <ele>52.1851891</ele>
        <time>2019-09-10T14:51:54.600Z</time>
      </trkpt>
      <trkpt lat="10.1557335773431" lon="-75.6828467360614">
        <ele>52.1851891</ele>
        <time>2019-09-10T14:51:54.800Z</time>
      </trkpt>
      <trkpt lat="10.15573181977" lon="-75.6828446366523">
        <ele>52.1851891</ele>
        <time>2019-09-10T14:51:54.900Z</time>
      </trkpt>
      <trkpt lat="10.1557300749118" lon="-75.6828425533968">
        <ele>52.1851891</ele>
        <time>2019-09-10T14:51:55.000Z</time>
      </trkpt>
      <trkpt lat="10.155728337349" lon="-75.6828404715339">
        <ele>52.1851891</ele>
        <time>2019-09-10T14:51:55.100Z</time>
      </trkpt>
      <trkpt lat="10.1557266047888" lon="-75.6828383861895">
        <ele>52.1851891</ele>
        <time>2019-09-10T14:51:55.200Z</time>
      </trkpt>
      <trkpt lat="10.1557230867245" lon="-75.6828342033857">
        <ele>52.1851891</ele>
        <time>2019-09-10T14:51:55.400Z</time>
      </trkpt>
      <trkpt lat="10.1557213466604" lon="-75.6828321321062">
        <ele>52.2851891</ele>
        <time>2019-09-10T14:51:55.500Z</time>
      </trkpt>
      <trkpt lat="10.1557179109302" lon="-75.6828279685196">
        <ele>52.2851891</ele>
        <time>2019-09-10T14:51:55.700Z</time>
      </trkpt>
      <trkpt lat="10.1557161904595" lon="-75.6828258707816">
        <ele>52.1851891</ele>
        <time>2019-09-10T14:51:55.800Z</time>
      </trkpt>
      <trkpt lat="10.155714466237" lon="-75.6828237942103">
        <ele>52.1851891</ele>
        <time>2019-09-10T14:51:55.900Z</time>
      </trkpt>
      <trkpt lat="10.1557110480158" lon="-75.6828196565251">
        <ele>52.1851891</ele>
        <time>2019-09-10T14:51:56.100Z</time>
      </trkpt>
      <trkpt lat="10.1557093638139" lon="-75.6828175901195">
        <ele>52.1851891</ele>
        <time>2019-09-10T14:51:56.200Z</time>
      </trkpt>
      <trkpt lat="10.1557076581425" lon="-75.6828154960021">
        <ele>52.1851891</ele>
        <time>2019-09-10T14:51:56.300Z</time>
      </trkpt>
      <trkpt lat="10.1557059270414" lon="-75.6828133839209">
        <ele>52.1851891</ele>
        <time>2019-09-10T14:51:56.400Z</time>
      </trkpt>
      <trkpt lat="10.1557042174097" lon="-75.6828112985765">
        <ele>52.1851891</ele>
        <time>2019-09-10T14:51:56.500Z</time>
      </trkpt>
      <trkpt lat="10.1557025111131" lon="-75.6828092330064">
        <ele>52.1851891</ele>
        <time>2019-09-10T14:51:56.600Z</time>
      </trkpt>
      <trkpt lat="10.1557008246183" lon="-75.6828072058707">
        <ele>52.1851891</ele>
        <time>2019-09-10T14:51:56.700Z</time>
      </trkpt>
      <trkpt lat="10.1556991347885" lon="-75.6828051900147">
        <ele>52.1851891</ele>
        <time>2019-09-10T14:51:56.800Z</time>
      </trkpt>
      <trkpt lat="10.1556974553807" lon="-75.6828031999208">
        <ele>52.1851891</ele>
        <time>2019-09-10T14:51:56.900Z</time>
      </trkpt>
      <trkpt lat="10.1556957745139" lon="-75.6828011940912">
        <ele>52.1851891</ele>
        <time>2019-09-10T14:51:57.000Z</time>
      </trkpt>
      <trkpt lat="10.1556940778055" lon="-75.6827991705761">
        <ele>52.1851891</ele>
        <time>2019-09-10T14:51:57.100Z</time>
      </trkpt>
      <trkpt lat="10.1556923650472" lon="-75.6827971245017">
        <ele>52.1851891</ele>
        <time>2019-09-10T14:51:57.200Z</time>
      </trkpt>
      <trkpt lat="10.1556906510382" lon="-75.6827950654766">
        <ele>52.2851891</ele>
        <time>2019-09-10T14:51:57.300Z</time>
      </trkpt>
      <trkpt lat="10.1556889299423" lon="-75.6827930025523">
        <ele>52.2851891</ele>
        <time>2019-09-10T14:51:57.400Z</time>
      </trkpt>
      <trkpt lat="10.1556871790393" lon="-75.6827909148407">
        <ele>52.2851891</ele>
        <time>2019-09-10T14:51:57.500Z</time>
      </trkpt>
      <trkpt lat="10.1556854229253" lon="-75.6827888214196">
        <ele>52.2851891</ele>
        <time>2019-09-10T14:51:57.600Z</time>
      </trkpt>
      <trkpt lat="10.155683659099" lon="-75.6827866975016">
        <ele>52.2851891</ele>
        <time>2019-09-10T14:51:57.700Z</time>
      </trkpt>
      <trkpt lat="10.1556819075707" lon="-75.6827845752547">
        <ele>52.2851891</ele>
        <time>2019-09-10T14:51:57.800Z</time>
      </trkpt>
      <trkpt lat="10.1556801654222" lon="-75.6827824642875">
        <ele>52.2851891</ele>
        <time>2019-09-10T14:51:57.900Z</time>
      </trkpt>
      <trkpt lat="10.1556784357802" lon="-75.6827803696131">
        <ele>52.2851891</ele>
        <time>2019-09-10T14:51:58.000Z</time>
      </trkpt>
      <trkpt lat="10.1556767232303" lon="-75.6827783066889">
        <ele>52.2851891</ele>
        <time>2019-09-10T14:51:58.100Z</time>
      </trkpt>
      <trkpt lat="10.1556750102635" lon="-75.6827762597789">
        <ele>52.2851891</ele>
        <time>2019-09-10T14:51:58.200Z</time>
      </trkpt>
      <trkpt lat="10.1556732729092" lon="-75.6827741872461">
        <ele>52.2851891</ele>
        <time>2019-09-10T14:51:58.300Z</time>
      </trkpt>
      <trkpt lat="10.1556698023694" lon="-75.6827700640434">
        <ele>52.2851891</ele>
        <time>2019-09-10T14:51:58.500Z</time>
      </trkpt>
      <trkpt lat="10.1556680898195" lon="-75.6827680359329">
        <ele>52.2851891</ele>
        <time>2019-09-10T14:51:58.600Z</time>
      </trkpt>
      <trkpt lat="10.1556663787287" lon="-75.6827660129749">
        <ele>52.2851891</ele>
        <time>2019-09-10T14:51:58.700Z</time>
      </trkpt>
      <trkpt lat="10.155664663886" lon="-75.6827639811045">
        <ele>52.2851891</ele>
        <time>2019-09-10T14:51:58.800Z</time>
      </trkpt>
      <trkpt lat="10.155662988647" lon="-75.6827619745786">
        <ele>52.2851891</ele>
        <time>2019-09-10T14:51:58.900Z</time>
      </trkpt>
      <trkpt lat="10.1556613161178" lon="-75.6827599617861">
        <ele>52.2851891</ele>
        <time>2019-09-10T14:51:59.000Z</time>
      </trkpt>
      <trkpt lat="10.1556596246204" lon="-75.6827579393851">
        <ele>52.2851891</ele>
        <time>2019-09-10T14:51:59.100Z</time>
      </trkpt>
      <trkpt lat="10.1556579176985" lon="-75.6827558913612">
        <ele>52.2851891</ele>
        <time>2019-09-10T14:51:59.200Z</time>
      </trkpt>
      <trkpt lat="10.155656170339" lon="-75.6827538023962">
        <ele>52.2851891</ele>
        <time>2019-09-10T14:51:59.300Z</time>
      </trkpt>
      <trkpt lat="10.1556544131828" lon="-75.68275170619">
        <ele>52.2851891</ele>
        <time>2019-09-10T14:51:59.400Z</time>
      </trkpt>
      <trkpt lat="10.1556526664486" lon="-75.6827495916021">
        <ele>52.2851891</ele>
        <time>2019-09-10T14:51:59.500Z</time>
      </trkpt>
      <trkpt lat="10.1556509320124" lon="-75.6827474874584">
        <ele>52.2851891</ele>
        <time>2019-09-10T14:51:59.600Z</time>
      </trkpt>
      <trkpt lat="10.1556491571387" lon="-75.6827453964046">
        <ele>52.2851891</ele>
        <time>2019-09-10T14:51:59.700Z</time>
      </trkpt>
      <trkpt lat="10.155645610518" lon="-75.6827412193103">
        <ele>52.2851891</ele>
        <time>2019-09-10T14:51:59.900Z</time>
      </trkpt>
      <trkpt lat="10.1556438541956" lon="-75.6827391165591">
        <ele>52.2851891</ele>
        <time>2019-09-10T14:52:00.000Z</time>
      </trkpt>
      <trkpt lat="10.1556421028757" lon="-75.6827369968188">
        <ele>52.2851891</ele>
        <time>2019-09-10T14:52:00.100Z</time>
      </trkpt>
      <trkpt lat="10.155640361561" lon="-75.6827348776355">
        <ele>52.3851891</ele>
        <time>2019-09-10T14:52:00.200Z</time>
      </trkpt>
      <trkpt lat="10.1556386279586" lon="-75.6827327577559">
        <ele>52.3851891</ele>
        <time>2019-09-10T14:52:00.300Z</time>
      </trkpt>
      <trkpt lat="10.155635195355" lon="-75.6827285507217">
        <ele>52.2851891</ele>
        <time>2019-09-10T14:52:00.500Z</time>
      </trkpt>
      <trkpt lat="10.1556317829701" lon="-75.6827243637403">
        <ele>52.2851891</ele>
        <time>2019-09-10T14:52:00.700Z</time>
      </trkpt>
      <trkpt lat="10.1556300612488" lon="-75.6827222728258">
        <ele>52.2851891</ele>
        <time>2019-09-10T14:52:00.800Z</time>
      </trkpt>
      <trkpt lat="10.1556283568282" lon="-75.6827201762018">
        <ele>52.2851891</ele>
        <time>2019-09-10T14:52:00.900Z</time>
      </trkpt>
      <trkpt lat="10.155626648864" lon="-75.6827180781853">
        <ele>52.2851891</ele>
        <time>2019-09-10T14:52:01.000Z</time>
      </trkpt>
      <trkpt lat="10.1556249288102" lon="-75.6827159733453">
        <ele>52.2851891</ele>
        <time>2019-09-10T14:52:01.100Z</time>
      </trkpt>
      <trkpt lat="10.1556231962501" lon="-75.6827138701763">
        <ele>52.2851891</ele>
        <time>2019-09-10T14:52:01.200Z</time>
      </trkpt>
      <trkpt lat="10.1556214528509" lon="-75.6827117653363">
        <ele>52.2851891</ele>
        <time>2019-09-10T14:52:01.300Z</time>
      </trkpt>
      <trkpt lat="10.1556197056999" lon="-75.682709659243">
        <ele>52.2851891</ele>
        <time>2019-09-10T14:52:01.400Z</time>
      </trkpt>
      <trkpt lat="10.1556179589657" lon="-75.6827075461869">
        <ele>52.2851891</ele>
        <time>2019-09-10T14:52:01.500Z</time>
      </trkpt>
      <trkpt lat="10.1556162128569" lon="-75.6827054339664">
        <ele>52.2851891</ele>
        <time>2019-09-10T14:52:01.600Z</time>
      </trkpt>
      <trkpt lat="10.1556144727928" lon="-75.6827033235561">
        <ele>52.2851891</ele>
        <time>2019-09-10T14:52:01.700Z</time>
      </trkpt>
      <trkpt lat="10.1556127354385" lon="-75.6827012155133">
        <ele>52.2851891</ele>
        <time>2019-09-10T14:52:01.800Z</time>
      </trkpt>
      <trkpt lat="10.1556109976673" lon="-75.6826991120658">
        <ele>52.2851891</ele>
        <time>2019-09-10T14:52:01.900Z</time>
      </trkpt>
      <trkpt lat="10.1556092561441" lon="-75.6826970059725">
        <ele>52.2851891</ele>
        <time>2019-09-10T14:52:02.000Z</time>
      </trkpt>
      <trkpt lat="10.1556075142041" lon="-75.6826948763451">
        <ele>52.2851891</ele>
        <time>2019-09-10T14:52:02.100Z</time>
      </trkpt>
      <trkpt lat="10.1556057714303" lon="-75.6826927432363">
        <ele>52.2851891</ele>
        <time>2019-09-10T14:52:02.200Z</time>
      </trkpt>
      <trkpt lat="10.1556040292818" lon="-75.6826906106845">
        <ele>52.3851891</ele>
        <time>2019-09-10T14:52:02.300Z</time>
      </trkpt>
      <trkpt lat="10.1556022846321" lon="-75.6826884898301">
        <ele>52.3851891</ele>
        <time>2019-09-10T14:52:02.400Z</time>
      </trkpt>
      <trkpt lat="10.1556004878721" lon="-75.6826863237179">
        <ele>52.3851891</ele>
        <time>2019-09-10T14:52:02.500Z</time>
      </trkpt>
      <trkpt lat="10.1555986917375" lon="-75.6826841544028">
        <ele>52.3851891</ele>
        <time>2019-09-10T14:52:02.600Z</time>
      </trkpt>
      <trkpt lat="10.1555969322884" lon="-75.6826820235221">
        <ele>52.2851891</ele>
        <time>2019-09-10T14:52:02.700Z</time>
      </trkpt>
      <trkpt lat="10.1555951947256" lon="-75.6826799076809">
        <ele>52.2851891</ele>
        <time>2019-09-10T14:52:02.800Z</time>
      </trkpt>
      <trkpt lat="10.155593463833" lon="-75.6826778021446">
        <ele>52.2851891</ele>
        <time>2019-09-10T14:52:02.900Z</time>
      </trkpt>
      <trkpt lat="10.1555917308559" lon="-75.6826756907596">
        <ele>52.2851891</ele>
        <time>2019-09-10T14:52:03.000Z</time>
      </trkpt>
      <trkpt lat="10.1555882649017" lon="-75.6826714302515">
        <ele>52.2851891</ele>
        <time>2019-09-10T14:52:03.200Z</time>
      </trkpt>
      <trkpt lat="10.1555865212942" lon="-75.6826692854453">
        <ele>52.2851891</ele>
        <time>2019-09-10T14:52:03.300Z</time>
      </trkpt>
      <trkpt lat="10.1555847716418" lon="-75.6826671452345">
        <ele>52.2851891</ele>
        <time>2019-09-10T14:52:03.400Z</time>
      </trkpt>
      <trkpt lat="10.1555830451264" lon="-75.6826650235446">
        <ele>52.2851891</ele>
        <time>2019-09-10T14:52:03.500Z</time>
      </trkpt>
      <trkpt lat="10.1555813265318" lon="-75.6826629120204">
        <ele>52.2851891</ele>
        <time>2019-09-10T14:52:03.600Z</time>
      </trkpt>
      <trkpt lat="10.1555795964729" lon="-75.6826607655431">
        <ele>52.2851891</ele>
        <time>2019-09-10T14:52:03.700Z</time>
      </trkpt>
      <trkpt lat="10.1555778464036" lon="-75.6826586107105">
        <ele>52.2851891</ele>
        <time>2019-09-10T14:52:03.800Z</time>
      </trkpt>
      <trkpt lat="10.1555760986273" lon="-75.6826564792728">
        <ele>52.2851891</ele>
        <time>2019-09-10T14:52:03.900Z</time>
      </trkpt>
      <trkpt lat="10.1555743510593" lon="-75.6826543699766">
        <ele>52.2851891</ele>
        <time>2019-09-10T14:52:04.000Z</time>
      </trkpt>
      <trkpt lat="10.1555726030745" lon="-75.6826522546924">
        <ele>52.2851891</ele>
        <time>2019-09-10T14:52:04.100Z</time>
      </trkpt>
      <trkpt lat="10.1555708536306" lon="-75.6826501455355">
        <ele>52.2851891</ele>
        <time>2019-09-10T14:52:04.200Z</time>
      </trkpt>
      <trkpt lat="10.1555690841764" lon="-75.6826480482153">
        <ele>52.2851891</ele>
        <time>2019-09-10T14:52:04.300Z</time>
      </trkpt>
      <trkpt lat="10.1555673128462" lon="-75.682645957997">
        <ele>52.2851891</ele>
        <time>2019-09-10T14:52:04.400Z</time>
      </trkpt>
      <trkpt lat="10.1555655227564" lon="-75.682643894098">
        <ele>52.2851891</ele>
        <time>2019-09-10T14:52:04.500Z</time>
      </trkpt>
      <trkpt lat="10.1555619717584" lon="-75.6826398011137">
        <ele>52.2851891</ele>
        <time>2019-09-10T14:52:04.700Z</time>
      </trkpt>
      <trkpt lat="10.155560216895" lon="-75.6826377781557">
        <ele>52.2851891</ele>
        <time>2019-09-10T14:52:04.800Z</time>
      </trkpt>
      <trkpt lat="10.1555584703693" lon="-75.6826357893151">
        <ele>52.2851891</ele>
        <time>2019-09-10T14:52:04.900Z</time>
      </trkpt>
      <trkpt lat="10.1555567398935" lon="-75.6826338082728">
        <ele>52.2851891</ele>
        <time>2019-09-10T14:52:05.000Z</time>
      </trkpt>
      <trkpt lat="10.1555549766925" lon="-75.6826317688827">
        <ele>52.2851891</ele>
        <time>2019-09-10T14:52:05.100Z</time>
      </trkpt>
      <trkpt lat="10.1555532201616" lon="-75.6826297010845">
        <ele>52.2851891</ele>
        <time>2019-09-10T14:52:05.200Z</time>
      </trkpt>
      <trkpt lat="10.1555481746428" lon="-75.6826235049312">
        <ele>52.2851891</ele>
        <time>2019-09-10T14:52:05.500Z</time>
      </trkpt>
      <trkpt lat="10.1555464808526" lon="-75.6826214037118">
        <ele>52.2851891</ele>
        <time>2019-09-10T14:52:05.600Z</time>
      </trkpt>
      <trkpt lat="10.1555447993604" lon="-75.682619277705">
        <ele>52.2851891</ele>
        <time>2019-09-10T14:52:05.700Z</time>
      </trkpt>
      <trkpt lat="10.1555414465897" lon="-75.6826150116267">
        <ele>52.2851891</ele>
        <time>2019-09-10T14:52:05.900Z</time>
      </trkpt>
      <trkpt lat="10.1555397748942" lon="-75.6826128852022">
        <ele>52.2851891</ele>
        <time>2019-09-10T14:52:06.000Z</time>
      </trkpt>
      <trkpt lat="10.1555380965286" lon="-75.6826107656011">
        <ele>52.2851891</ele>
        <time>2019-09-10T14:52:06.100Z</time>
      </trkpt>
      <trkpt lat="10.1555347135339" lon="-75.682606559681">
        <ele>52.2851891</ele>
        <time>2019-09-10T14:52:06.300Z</time>
      </trkpt>
      <trkpt lat="10.1555330084879" lon="-75.6826044665384">
        <ele>52.2851891</ele>
        <time>2019-09-10T14:52:06.400Z</time>
      </trkpt>
      <trkpt lat="10.1555313257451" lon="-75.6826023824474">
        <ele>52.2851891</ele>
        <time>2019-09-10T14:52:06.500Z</time>
      </trkpt>
      <trkpt lat="10.1555279154446" lon="-75.6825981936556">
        <ele>52.2851891</ele>
        <time>2019-09-10T14:52:06.700Z</time>
      </trkpt>
      <trkpt lat="10.1555244280211" lon="-75.6825939799372">
        <ele>52.2851891</ele>
        <time>2019-09-10T14:52:06.900Z</time>
      </trkpt>
      <trkpt lat="10.1555226819122" lon="-75.6825918617287">
        <ele>52.2851891</ele>
        <time>2019-09-10T14:52:07.000Z</time>
      </trkpt>
      <trkpt lat="10.1555209301755" lon="-75.6825897394817">
        <ele>52.2851891</ele>
        <time>2019-09-10T14:52:07.100Z</time>
      </trkpt>
      <trkpt lat="10.1555191692673" lon="-75.6825876087403">
        <ele>52.2851891</ele>
        <time>2019-09-10T14:52:07.200Z</time>
      </trkpt>
      <trkpt lat="10.155517387932" lon="-75.6825854591994">
        <ele>52.2851891</ele>
        <time>2019-09-10T14:52:07.300Z</time>
      </trkpt>
      <trkpt lat="10.1555138196334" lon="-75.6825811248861">
        <ele>52.2851891</ele>
        <time>2019-09-10T14:52:07.500Z</time>
      </trkpt>
      <trkpt lat="10.1555102438309" lon="-75.6825767354278">
        <ele>52.2851891</ele>
        <time>2019-09-10T14:52:07.700Z</time>
      </trkpt>
      <trkpt lat="10.1555084289366" lon="-75.6825745280961">
        <ele>52.2851891</ele>
        <time>2019-09-10T14:52:07.800Z</time>
      </trkpt>
      <trkpt lat="10.1555066671947" lon="-75.6825723442984">
        <ele>52.2851891</ele>
        <time>2019-09-10T14:52:07.900Z</time>
      </trkpt>
      <trkpt lat="10.1555049198352" lon="-75.682570185149">
        <ele>52.2851891</ele>
        <time>2019-09-10T14:52:08.000Z</time>
      </trkpt>
      <trkpt lat="10.1555031993646" lon="-75.6825680477233">
        <ele>52.2851891</ele>
        <time>2019-09-10T14:52:08.100Z</time>
      </trkpt>
      <trkpt lat="10.1554997398721" lon="-75.6825637983555">
        <ele>52.2851891</ele>
        <time>2019-09-10T14:52:08.300Z</time>
      </trkpt>
      <trkpt lat="10.1554962651634" lon="-75.6825595546973">
        <ele>52.2851891</ele>
        <time>2019-09-10T14:52:08.500Z</time>
      </trkpt>
      <trkpt lat="10.1554928217209" lon="-75.6825553352694">
        <ele>52.2851891</ele>
        <time>2019-09-10T14:52:08.700Z</time>
      </trkpt>
      <trkpt lat="10.1554893916186" lon="-75.6825511403504">
        <ele>52.2851891</ele>
        <time>2019-09-10T14:52:08.900Z</time>
      </trkpt>
      <trkpt lat="10.1554876748999" lon="-75.6825490321683">
        <ele>52.2851891</ele>
        <time>2019-09-10T14:52:09.000Z</time>
      </trkpt>
      <trkpt lat="10.1554843258811" lon="-75.6825448994962">
        <ele>52.2851891</ele>
        <time>2019-09-10T14:52:09.200Z</time>
      </trkpt>
      <trkpt lat="10.1554826498083" lon="-75.6825428445095">
        <ele>52.2851891</ele>
        <time>2019-09-10T14:52:09.300Z</time>
      </trkpt>
      <trkpt lat="10.1554792363813" lon="-75.6825387194966">
        <ele>52.2851891</ele>
        <time>2019-09-10T14:52:09.500Z</time>
      </trkpt>
      <trkpt lat="10.1554775152853" lon="-75.6825366503058">
        <ele>52.2851891</ele>
        <time>2019-09-10T14:52:09.600Z</time>
      </trkpt>
      <trkpt lat="10.1554757818914" lon="-75.6825345655186">
        <ele>52.2851891</ele>
        <time>2019-09-10T14:52:09.700Z</time>
      </trkpt>
      <trkpt lat="10.1554723305281" lon="-75.682530403603">
        <ele>52.2851891</ele>
        <time>2019-09-10T14:52:09.900Z</time>
      </trkpt>
      <trkpt lat="10.1554688729116" lon="-75.6825262226095">
        <ele>52.2851891</ele>
        <time>2019-09-10T14:52:10.100Z</time>
      </trkpt>
      <trkpt lat="10.155465313159" lon="-75.682521966279">
        <ele>52.2851891</ele>
        <time>2019-09-10T14:52:10.300Z</time>
      </trkpt>
      <trkpt lat="10.1554635197341" lon="-75.6825198457032">
        <ele>52.2851891</ele>
        <time>2019-09-10T14:52:10.400Z</time>
      </trkpt>
      <trkpt lat="10.1554618115615" lon="-75.6825178166179">
        <ele>52.2851891</ele>
        <time>2019-09-10T14:52:10.500Z</time>
      </trkpt>
      <trkpt lat="10.1554602401261" lon="-75.6825158436524">
        <ele>52.2851891</ele>
        <time>2019-09-10T14:52:10.600Z</time>
      </trkpt>
      <trkpt lat="10.1554588496173" lon="-75.6825139052222">
        <ele>52.2851891</ele>
        <time>2019-09-10T14:52:10.700Z</time>
      </trkpt>
      <trkpt lat="10.1554567873037" lon="-75.6825101419938">
        <ele>52.2851891</ele>
        <time>2019-09-10T14:52:10.900Z</time>
      </trkpt>
      <trkpt lat="10.1554559410339" lon="-75.6825065430864">
        <ele>52.1851891</ele>
        <time>2019-09-10T14:52:11.100Z</time>
      </trkpt>
      <trkpt lat="10.1554559568754" lon="-75.6825047480889">
        <ele>52.1851891</ele>
        <time>2019-09-10T14:52:11.200Z</time>
      </trkpt>
      <trkpt lat="10.1554563226891" lon="-75.6825030423538">
        <ele>52.1851891</ele>
        <time>2019-09-10T14:52:11.300Z</time>
      </trkpt>
      <trkpt lat="10.1554569517635" lon="-75.6825013417712">
        <ele>52.1851891</ele>
        <time>2019-09-10T14:52:11.400Z</time>
      </trkpt>
      <trkpt lat="10.1554579395646" lon="-75.6824997545422">
        <ele>52.1851891</ele>
        <time>2019-09-10T14:52:11.500Z</time>
      </trkpt>
      <trkpt lat="10.1554592048005" lon="-75.6824981579831">
        <ele>52.1851891</ele>
        <time>2019-09-10T14:52:11.600Z</time>
      </trkpt>
      <trkpt lat="10.1554608185494" lon="-75.6824966615484">
        <ele>52.1851891</ele>
        <time>2019-09-10T14:52:11.700Z</time>
      </trkpt>
      <trkpt lat="10.1554647772577" lon="-75.6824937891346">
        <ele>52.1851891</ele>
        <time>2019-09-10T14:52:11.900Z</time>
      </trkpt>
      <trkpt lat="10.1554692664479" lon="-75.6824911212864">
        <ele>52.2851891</ele>
        <time>2019-09-10T14:52:12.100Z</time>
      </trkpt>
      <trkpt lat="10.1554739225991" lon="-75.6824885148497">
        <ele>52.2851891</ele>
        <time>2019-09-10T14:52:12.300Z</time>
      </trkpt>
      <trkpt lat="10.1554762733948" lon="-75.6824871490362">
        <ele>52.2851891</ele>
        <time>2019-09-10T14:52:12.400Z</time>
      </trkpt>
      <trkpt lat="10.1554785324766" lon="-75.6824858357219">
        <ele>52.2851891</ele>
        <time>2019-09-10T14:52:12.500Z</time>
      </trkpt>
      <trkpt lat="10.1554808209485" lon="-75.6824844473491">
        <ele>52.2851891</ele>
        <time>2019-09-10T14:52:12.600Z</time>
      </trkpt>
      <trkpt lat="10.1554830698166" lon="-75.6824830323785">
        <ele>52.2851891</ele>
        <time>2019-09-10T14:52:12.700Z</time>
      </trkpt>
      <trkpt lat="10.1554853910137" lon="-75.6824815108779">
        <ele>52.2851891</ele>
        <time>2019-09-10T14:52:12.800Z</time>
      </trkpt>
      <trkpt lat="10.1554876922005" lon="-75.6824799276873">
        <ele>52.2851891</ele>
        <time>2019-09-10T14:52:12.900Z</time>
      </trkpt>
      <trkpt lat="10.1554923037454" lon="-75.6824765948963">
        <ele>52.2851891</ele>
        <time>2019-09-10T14:52:13.100Z</time>
      </trkpt>
      <trkpt lat="10.1554968210751" lon="-75.6824731541826">
        <ele>52.2851891</ele>
        <time>2019-09-10T14:52:13.300Z</time>
      </trkpt>
      <trkpt lat="10.1554990943309" lon="-75.682471413216">
        <ele>52.2851891</ele>
        <time>2019-09-10T14:52:13.400Z</time>
      </trkpt>
      <trkpt lat="10.1555013171439" lon="-75.6824696346506">
        <ele>52.2851891</ele>
        <time>2019-09-10T14:52:13.500Z</time>
      </trkpt>
      <trkpt lat="10.1555035541309" lon="-75.6824678346399">
        <ele>52.2851891</ele>
        <time>2019-09-10T14:52:13.600Z</time>
      </trkpt>
      <trkpt lat="10.1555057850731" lon="-75.6824660172223">
        <ele>52.2851891</ele>
        <time>2019-09-10T14:52:13.700Z</time>
      </trkpt>
      <trkpt lat="10.1555103728558" lon="-75.6824622968845">
        <ele>52.2851891</ele>
        <time>2019-09-10T14:52:13.900Z</time>
      </trkpt>
      <trkpt lat="10.1555150907056" lon="-75.6824584159856">
        <ele>52.2851891</ele>
        <time>2019-09-10T14:52:14.100Z</time>
      </trkpt>
      <trkpt lat="10.1555174346227" lon="-75.6824564586167">
        <ele>52.2851891</ele>
        <time>2019-09-10T14:52:14.200Z</time>
      </trkpt>
      <trkpt lat="10.1555197854184" lon="-75.6824544777833">
        <ele>52.2851891</ele>
        <time>2019-09-10T14:52:14.300Z</time>
      </trkpt>
      <trkpt lat="10.1555243775784" lon="-75.6824505306686">
        <ele>52.2851891</ele>
        <time>2019-09-10T14:52:14.500Z</time>
      </trkpt>
      <trkpt lat="10.1555288678108" lon="-75.6824465733883">
        <ele>52.1851891</ele>
        <time>2019-09-10T14:52:14.700Z</time>
      </trkpt>
      <trkpt lat="10.1555310841622" lon="-75.6824446027902">
        <ele>52.1851891</ele>
        <time>2019-09-10T14:52:14.800Z</time>
      </trkpt>
      <trkpt lat="10.1555332607013" lon="-75.6824426243938">
        <ele>52.1851891</ele>
        <time>2019-09-10T14:52:14.900Z</time>
      </trkpt>
      <trkpt lat="10.1555354047237" lon="-75.6824406557452">
        <ele>52.1851891</ele>
        <time>2019-09-10T14:52:15.000Z</time>
      </trkpt>
      <trkpt lat="10.155539706734" lon="-75.682436552456">
        <ele>52.1851891</ele>
        <time>2019-09-10T14:52:15.200Z</time>
      </trkpt>
      <trkpt lat="10.1555418599278" lon="-75.6824344776254">
        <ele>52.1851891</ele>
        <time>2019-09-10T14:52:15.300Z</time>
      </trkpt>
      <trkpt lat="10.1555439935282" lon="-75.6824324365642">
        <ele>52.1851891</ele>
        <time>2019-09-10T14:52:15.400Z</time>
      </trkpt>
      <trkpt lat="10.1555460973215" lon="-75.6824303737792">
        <ele>52.2851891</ele>
        <time>2019-09-10T14:52:15.500Z</time>
      </trkpt>
      <trkpt lat="10.1555481285774" lon="-75.6824284193347">
        <ele>52.2851891</ele>
        <time>2019-09-10T14:52:15.600Z</time>
      </trkpt>
      <trkpt lat="10.1555501162692" lon="-75.6824266293503">
        <ele>52.2851891</ele>
        <time>2019-09-10T14:52:15.700Z</time>
      </trkpt>
      <trkpt lat="10.1555539476201" lon="-75.6824237505308">
        <ele>52.2851891</ele>
        <time>2019-09-10T14:52:15.900Z</time>
      </trkpt>
      <trkpt lat="10.1555575661529" lon="-75.6824220304524">
        <ele>52.2851891</ele>
        <time>2019-09-10T14:52:16.100Z</time>
      </trkpt>
      <trkpt lat="10.1555592895417" lon="-75.6824216645598">
        <ele>52.2851891</ele>
        <time>2019-09-10T14:52:16.200Z</time>
      </trkpt>
      <trkpt lat="10.155560916214" lon="-75.6824216435323">
        <ele>52.2851891</ele>
        <time>2019-09-10T14:52:16.300Z</time>
      </trkpt>
      <trkpt lat="10.1555639750832" lon="-75.6824225314921">
        <ele>52.2851891</ele>
        <time>2019-09-10T14:52:16.500Z</time>
      </trkpt>
      <trkpt lat="10.1555667298372" lon="-75.68242467038">
        <ele>52.2851891</ele>
        <time>2019-09-10T14:52:16.700Z</time>
      </trkpt>
      <trkpt lat="10.1555692711478" lon="-75.6824279625781">
        <ele>52.2851891</ele>
        <time>2019-09-10T14:52:16.900Z</time>
      </trkpt>
      <trkpt lat="10.1555704899014" lon="-75.6824299110347">
        <ele>52.2851891</ele>
        <time>2019-09-10T14:52:17.000Z</time>
      </trkpt>
      <trkpt lat="10.1555716094371" lon="-75.6824319846816">
        <ele>52.3851891</ele>
        <time>2019-09-10T14:52:17.100Z</time>
      </trkpt>
      <trkpt lat="10.1555728154757" lon="-75.6824342118572">
        <ele>52.3851891</ele>
        <time>2019-09-10T14:52:17.200Z</time>
      </trkpt>
      <trkpt lat="10.1555752177563" lon="-75.6824388173001">
        <ele>52.3851891</ele>
        <time>2019-09-10T14:52:17.400Z</time>
      </trkpt>
      <trkpt lat="10.1555764240034" lon="-75.6824410964874">
        <ele>52.3851891</ele>
        <time>2019-09-10T14:52:17.500Z</time>
      </trkpt>
      <trkpt lat="10.1555777029964" lon="-75.6824434356937">
        <ele>52.3851891</ele>
        <time>2019-09-10T14:52:17.600Z</time>
      </trkpt>
      <trkpt lat="10.1555789953295" lon="-75.6824456997718">
        <ele>52.3851891</ele>
        <time>2019-09-10T14:52:17.700Z</time>
      </trkpt>
      <trkpt lat="10.1555818355443" lon="-75.6824503273562">
        <ele>52.3851891</ele>
        <time>2019-09-10T14:52:17.900Z</time>
      </trkpt>
      <trkpt lat="10.1555849242205" lon="-75.6824549805636">
        <ele>52.3851891</ele>
        <time>2019-09-10T14:52:18.100Z</time>
      </trkpt>
      <trkpt lat="10.155588228633" lon="-75.6824597642529">
        <ele>52.2851891</ele>
        <time>2019-09-10T14:52:18.300Z</time>
      </trkpt>
      <trkpt lat="10.1555916643633" lon="-75.6824645980741">
        <ele>52.2851891</ele>
        <time>2019-09-10T14:52:18.500Z</time>
      </trkpt>
      <trkpt lat="10.1555952088996" lon="-75.6824694793812">
        <ele>52.2851891</ele>
        <time>2019-09-10T14:52:18.700Z</time>
      </trkpt>
      <trkpt lat="10.1555970319231" lon="-75.6824719007479">
        <ele>52.2851891</ele>
        <time>2019-09-10T14:52:18.800Z</time>
      </trkpt>
      <trkpt lat="10.1555988966348" lon="-75.6824743251783">
        <ele>52.2851891</ele>
        <time>2019-09-10T14:52:18.900Z</time>
      </trkpt>
      <trkpt lat="10.1556026871313" lon="-75.6824792560602">
        <ele>52.2851891</ele>
        <time>2019-09-10T14:52:19.100Z</time>
      </trkpt>
      <trkpt lat="10.1556065870593" lon="-75.682484191816">
        <ele>52.2851891</ele>
        <time>2019-09-10T14:52:19.300Z</time>
      </trkpt>
      <trkpt lat="10.1556104905307" lon="-75.6824890232699">
        <ele>52.2851891</ele>
        <time>2019-09-10T14:52:19.500Z</time>
      </trkpt>
      <trkpt lat="10.1556143043726" lon="-75.6824937781334">
        <ele>52.2851891</ele>
        <time>2019-09-10T14:52:19.700Z</time>
      </trkpt>
      <trkpt lat="10.1556180850724" lon="-75.6824984690789">
        <ele>52.2851891</ele>
        <time>2019-09-10T14:52:19.900Z</time>
      </trkpt>
      <trkpt lat="10.155621857643" lon="-75.6825031072467">
        <ele>52.2851891</ele>
        <time>2019-09-10T14:52:20.100Z</time>
      </trkpt>
      <trkpt lat="10.1556237240222" lon="-75.6825054023091">
        <ele>52.2851891</ele>
        <time>2019-09-10T14:52:20.200Z</time>
      </trkpt>
      <trkpt lat="10.1556256635642" lon="-75.6825077025239">
        <ele>52.2851891</ele>
        <time>2019-09-10T14:52:20.300Z</time>
      </trkpt>
      <trkpt lat="10.1556275760088" lon="-75.6825099931302">
        <ele>52.2851891</ele>
        <time>2019-09-10T14:52:20.400Z</time>
      </trkpt>
      <trkpt lat="10.1556313881832" lon="-75.6825145389719">
        <ele>52.2851891</ele>
        <time>2019-09-10T14:52:20.600Z</time>
      </trkpt>
      <trkpt lat="10.1556333160524" lon="-75.682516812589">
        <ele>52.2851891</ele>
        <time>2019-09-10T14:52:20.700Z</time>
      </trkpt>
      <trkpt lat="10.1556370417239" lon="-75.6825212860181">
        <ele>52.2851891</ele>
        <time>2019-09-10T14:52:20.900Z</time>
      </trkpt>
      <trkpt lat="10.155640646708" lon="-75.6825256380168">
        <ele>52.2851891</ele>
        <time>2019-09-10T14:52:21.100Z</time>
      </trkpt>
      <trkpt lat="10.1556442254287" lon="-75.6825299439221">
        <ele>52.2851891</ele>
        <time>2019-09-10T14:52:21.300Z</time>
      </trkpt>
      <trkpt lat="10.1556460005108" lon="-75.6825320937415">
        <ele>52.2851891</ele>
        <time>2019-09-10T14:52:21.400Z</time>
      </trkpt>
      <trkpt lat="10.1556477845559" lon="-75.6825342200268">
        <ele>52.2851891</ele>
        <time>2019-09-10T14:52:21.500Z</time>
      </trkpt>
      <trkpt lat="10.1556513190871" lon="-75.6825384324919">
        <ele>52.2851891</ele>
        <time>2019-09-10T14:52:21.700Z</time>
      </trkpt>
      <trkpt lat="10.1556530739504" lon="-75.6825405252168">
        <ele>52.2851891</ele>
        <time>2019-09-10T14:52:21.800Z</time>
      </trkpt>
      <trkpt lat="10.1556548598715" lon="-75.6825426228155">
        <ele>52.2851891</ele>
        <time>2019-09-10T14:52:21.900Z</time>
      </trkpt>
      <trkpt lat="10.1556584256688" lon="-75.682546831103">
        <ele>52.2851891</ele>
        <time>2019-09-10T14:52:22.100Z</time>
      </trkpt>
      <trkpt lat="10.1556619791681" lon="-75.6825510354913">
        <ele>52.2851891</ele>
        <time>2019-09-10T14:52:22.300Z</time>
      </trkpt>
      <trkpt lat="10.155665442204" lon="-75.6825552765038">
        <ele>52.2851891</ele>
        <time>2019-09-10T14:52:22.500Z</time>
      </trkpt>
      <trkpt lat="10.1556688287422" lon="-75.6825594889689">
        <ele>52.2851891</ele>
        <time>2019-09-10T14:52:22.700Z</time>
      </trkpt>
      <trkpt lat="10.1556722459212" lon="-75.6825636887618">
        <ele>52.2851891</ele>
        <time>2019-09-10T14:52:22.900Z</time>
      </trkpt>
      <trkpt lat="10.1556756716463" lon="-75.6825678893903">
        <ele>52.2851891</ele>
        <time>2019-09-10T14:52:23.100Z</time>
      </trkpt>
      <trkpt lat="10.1556773750248" lon="-75.6825699952051">
        <ele>52.2851891</ele>
        <time>2019-09-10T14:52:23.200Z</time>
      </trkpt>
      <trkpt lat="10.1556791048752" lon="-75.6825721001843">
        <ele>52.2851891</ele>
        <time>2019-09-10T14:52:23.300Z</time>
      </trkpt>
      <trkpt lat="10.1556825126744" lon="-75.6825763106999">
        <ele>52.2851891</ele>
        <time>2019-09-10T14:52:23.500Z</time>
      </trkpt>
      <trkpt lat="10.1556841835361" lon="-75.6825784067669">
        <ele>52.2851891</ele>
        <time>2019-09-10T14:52:23.600Z</time>
      </trkpt>
      <trkpt lat="10.155685848353" lon="-75.6825804916934">
        <ele>52.2851891</ele>
        <time>2019-09-10T14:52:23.700Z</time>
      </trkpt>
      <trkpt lat="10.1556875131699" lon="-75.6825825795443">
        <ele>52.2851891</ele>
        <time>2019-09-10T14:52:23.800Z</time>
      </trkpt>
      <trkpt lat="10.1556892421866" lon="-75.6825846853591">
        <ele>52.2851891</ele>
        <time>2019-09-10T14:52:23.900Z</time>
      </trkpt>
      <trkpt lat="10.1556909768312" lon="-75.6825867940983">
        <ele>52.2851891</ele>
        <time>2019-09-10T14:52:24.000Z</time>
      </trkpt>
      <trkpt lat="10.1556927189797" lon="-75.6825889004701">
        <ele>52.2851891</ele>
        <time>2019-09-10T14:52:24.100Z</time>
      </trkpt>
      <trkpt lat="10.1556961753456" lon="-75.6825930902367">
        <ele>52.2851891</ele>
        <time>2019-09-10T14:52:24.300Z</time>
      </trkpt>
      <trkpt lat="10.1556979008188" lon="-75.6825951750239">
        <ele>52.2851891</ele>
        <time>2019-09-10T14:52:24.400Z</time>
      </trkpt>
      <trkpt lat="10.1556996260835" lon="-75.6825972606468">
        <ele>52.2851891</ele>
        <time>2019-09-10T14:52:24.500Z</time>
      </trkpt>
      <trkpt lat="10.155701329462" lon="-75.6825993490547">
        <ele>52.2851891</ele>
        <time>2019-09-10T14:52:24.600Z</time>
      </trkpt>
      <trkpt lat="10.1557030257535" lon="-75.6826014314747">
        <ele>52.2851891</ele>
        <time>2019-09-10T14:52:24.700Z</time>
      </trkpt>
      <trkpt lat="10.1557064014528" lon="-75.6826056127467">
        <ele>52.2851891</ele>
        <time>2019-09-10T14:52:24.900Z</time>
      </trkpt>
      <trkpt lat="10.1557098211331" lon="-75.6826098292502">
        <ele>52.2851891</ele>
        <time>2019-09-10T14:52:25.100Z</time>
      </trkpt>
      <trkpt lat="10.1557132731217" lon="-75.6826140353096">
        <ele>52.2851891</ele>
        <time>2019-09-10T14:52:25.300Z</time>
      </trkpt>
      <trkpt lat="10.1557166844643" lon="-75.6826182309249">
        <ele>52.2851891</ele>
        <time>2019-09-10T14:52:25.500Z</time>
      </trkpt>
      <trkpt lat="10.1557183711675" lon="-75.6826203324228">
        <ele>52.3851891</ele>
        <time>2019-09-10T14:52:25.600Z</time>
      </trkpt>
      <trkpt lat="10.155720055161" lon="-75.682622435731">
        <ele>52.3851891</ele>
        <time>2019-09-10T14:52:25.700Z</time>
      </trkpt>
      <trkpt lat="10.1557217379038" lon="-75.6826245358363">
        <ele>52.3851891</ele>
        <time>2019-09-10T14:52:25.800Z</time>
      </trkpt>
      <trkpt lat="10.1557234771341" lon="-75.6826266628179">
        <ele>52.3851891</ele>
        <time>2019-09-10T14:52:25.900Z</time>
      </trkpt>
      <trkpt lat="10.1557252203248" lon="-75.6826287927238">
        <ele>52.3851891</ele>
        <time>2019-09-10T14:52:26.000Z</time>
      </trkpt>
      <trkpt lat="10.1557269397532" lon="-75.6826308613575">
        <ele>52.3851891</ele>
        <time>2019-09-10T14:52:26.100Z</time>
      </trkpt>
      <trkpt lat="10.1557303377557" lon="-75.6826349062988">
        <ele>52.3851891</ele>
        <time>2019-09-10T14:52:26.300Z</time>
      </trkpt>
      <trkpt lat="10.1557320290446" lon="-75.6826369228511">
        <ele>52.3851891</ele>
        <time>2019-09-10T14:52:26.400Z</time>
      </trkpt>
      <trkpt lat="10.1557337065764" lon="-75.6826389275668">
        <ele>52.2851891</ele>
        <time>2019-09-10T14:52:26.500Z</time>
      </trkpt>
      <trkpt lat="10.1557370841516" lon="-75.6826429608107">
        <ele>52.2851891</ele>
        <time>2019-09-10T14:52:26.700Z</time>
      </trkpt>
      <trkpt lat="10.1557404863229" lon="-75.682646992105">
        <ele>52.2851891</ele>
        <time>2019-09-10T14:52:26.900Z</time>
      </trkpt>
      <trkpt lat="10.1557421901182" lon="-75.6826490069863">
        <ele>52.2851891</ele>
        <time>2019-09-10T14:52:27.000Z</time>
      </trkpt>
      <trkpt lat="10.1557438866182" lon="-75.6826510307798">
        <ele>52.2851891</ele>
        <time>2019-09-10T14:52:27.100Z</time>
      </trkpt>
      <trkpt lat="10.1557455747805" lon="-75.6826530733729">
        <ele>52.2851891</ele>
        <time>2019-09-10T14:52:27.200Z</time>
      </trkpt>
      <trkpt lat="10.1557472683622" lon="-75.6826551254352">
        <ele>52.3851891</ele>
        <time>2019-09-10T14:52:27.300Z</time>
      </trkpt>
      <trkpt lat="10.1557506590692" lon="-75.6826592209261">
        <ele>52.2851891</ele>
        <time>2019-09-10T14:52:27.500Z</time>
      </trkpt>
      <trkpt lat="10.1557540291406" lon="-75.6826632807677">
        <ele>52.2851891</ele>
        <time>2019-09-10T14:52:27.700Z</time>
      </trkpt>
      <trkpt lat="10.1557573418907" lon="-75.6826673342036">
        <ele>52.3851891</ele>
        <time>2019-09-10T14:52:27.900Z</time>
      </trkpt>
      <trkpt lat="10.1557606540155" lon="-75.682671380259">
        <ele>52.3851891</ele>
        <time>2019-09-10T14:52:28.100Z</time>
      </trkpt>
      <trkpt lat="10.1557640422213" lon="-75.6826755088925">
        <ele>52.3851891</ele>
        <time>2019-09-10T14:52:28.300Z</time>
      </trkpt>
      <trkpt lat="10.1557657662354" lon="-75.6826776049595">
        <ele>52.3851891</ele>
        <time>2019-09-10T14:52:28.400Z</time>
      </trkpt>
      <trkpt lat="10.1557675125527" lon="-75.6826797238643">
        <ele>52.3851891</ele>
        <time>2019-09-10T14:52:28.500Z</time>
      </trkpt>
      <trkpt lat="10.1557692555349" lon="-75.6826818399839">
        <ele>52.2851891</ele>
        <time>2019-09-10T14:52:28.600Z</time>
      </trkpt>
      <trkpt lat="10.1557709930977" lon="-75.682683938836">
        <ele>52.2851891</ele>
        <time>2019-09-10T14:52:28.700Z</time>
      </trkpt>
      <trkpt lat="10.155774410902" lon="-75.6826881192725">
        <ele>52.2851891</ele>
        <time>2019-09-10T14:52:28.900Z</time>
      </trkpt>
      <trkpt lat="10.1557778505926" lon="-75.6826923452454">
        <ele>52.2851891</ele>
        <time>2019-09-10T14:52:29.100Z</time>
      </trkpt>
      <trkpt lat="10.1557796037884" lon="-75.6826944784934">
        <ele>52.2851891</ele>
        <time>2019-09-10T14:52:29.200Z</time>
      </trkpt>
      <trkpt lat="10.1557813749102" lon="-75.6826966127162">
        <ele>52.2851891</ele>
        <time>2019-09-10T14:52:29.300Z</time>
      </trkpt>
      <trkpt lat="10.1557848821356" lon="-75.6827008178008">
        <ele>52.2851891</ele>
        <time>2019-09-10T14:52:29.500Z</time>
      </trkpt>
      <trkpt lat="10.1557866051075" lon="-75.6827028893589">
        <ele>52.2851891</ele>
        <time>2019-09-10T14:52:29.600Z</time>
      </trkpt>
      <trkpt lat="10.1557899741367" lon="-75.6827070317788">
        <ele>52.2851891</ele>
        <time>2019-09-10T14:52:29.800Z</time>
      </trkpt>
      <trkpt lat="10.155791679808" lon="-75.6827091394039">
        <ele>52.2851891</ele>
        <time>2019-09-10T14:52:29.900Z</time>
      </trkpt>
      <trkpt lat="10.1557951046993" lon="-75.6827133827836">
        <ele>52.2851891</ele>
        <time>2019-09-10T14:52:30.100Z</time>
      </trkpt>
      <trkpt lat="10.1557985185432" lon="-75.6827176449628">
        <ele>52.2851891</ele>
        <time>2019-09-10T14:52:30.300Z</time>
      </trkpt>
      <trkpt lat="10.1558002465177" lon="-75.6827197854521">
        <ele>52.2851891</ele>
        <time>2019-09-10T14:52:30.400Z</time>
      </trkpt>
      <trkpt lat="10.1558019747007" lon="-75.6827219212068">
        <ele>52.2851891</ele>
        <time>2019-09-10T14:52:30.500Z</time>
      </trkpt>
      <trkpt lat="10.1558036947544" lon="-75.6827240422004">
        <ele>52.2851891</ele>
        <time>2019-09-10T14:52:30.600Z</time>
      </trkpt>
      <trkpt lat="10.1558054093887" lon="-75.682726183386">
        <ele>52.2851891</ele>
        <time>2019-09-10T14:52:30.700Z</time>
      </trkpt>
      <trkpt lat="10.1558088334462" lon="-75.6827304178534">
        <ele>52.2851891</ele>
        <time>2019-09-10T14:52:30.900Z</time>
      </trkpt>
      <trkpt lat="10.1558122852264" lon="-75.6827346247483">
        <ele>52.2851891</ele>
        <time>2019-09-10T14:52:31.100Z</time>
      </trkpt>
      <trkpt lat="10.1558140413404" lon="-75.6827367667694">
        <ele>52.2851891</ele>
        <time>2019-09-10T14:52:31.200Z</time>
      </trkpt>
      <trkpt lat="10.1558157784863" lon="-75.6827388565699">
        <ele>52.2851891</ele>
        <time>2019-09-10T14:52:31.300Z</time>
      </trkpt>
      <trkpt lat="10.1558175104212" lon="-75.6827409185194">
        <ele>52.2851891</ele>
        <time>2019-09-10T14:52:31.400Z</time>
      </trkpt>
      <trkpt lat="10.1558192454827" lon="-75.6827429740631">
        <ele>52.2851891</ele>
        <time>2019-09-10T14:52:31.500Z</time>
      </trkpt>
      <trkpt lat="10.1558226885083" lon="-75.6827470926703">
        <ele>52.2851891</ele>
        <time>2019-09-10T14:52:31.700Z</time>
      </trkpt>
      <trkpt lat="10.1558260773394" lon="-75.6827512103028">
        <ele>52.2851891</ele>
        <time>2019-09-10T14:52:31.900Z</time>
      </trkpt>
      <trkpt lat="10.1558295157793" lon="-75.6827553489627">
        <ele>52.2851891</ele>
        <time>2019-09-10T14:52:32.100Z</time>
      </trkpt>
      <trkpt lat="10.155832993823" lon="-75.6827594884582">
        <ele>52.2851891</ele>
        <time>2019-09-10T14:52:32.300Z</time>
      </trkpt>
      <trkpt lat="10.1558347299267" lon="-75.6827615768662">
        <ele>52.2851891</ele>
        <time>2019-09-10T14:52:32.400Z</time>
      </trkpt>
      <trkpt lat="10.155836451648" lon="-75.6827636521841">
        <ele>52.2851891</ele>
        <time>2019-09-10T14:52:32.500Z</time>
      </trkpt>
      <trkpt lat="10.1558398665341" lon="-75.6827677875019">
        <ele>52.2851891</ele>
        <time>2019-09-10T14:52:32.700Z</time>
      </trkpt>
      <trkpt lat="10.1558415672029" lon="-75.6827698529328">
        <ele>52.2851891</ele>
        <time>2019-09-10T14:52:32.800Z</time>
      </trkpt>
      <trkpt lat="10.155843271832" lon="-75.6827719548484">
        <ele>52.2851891</ele>
        <time>2019-09-10T14:52:32.900Z</time>
      </trkpt>
      <trkpt lat="10.1558449864663" lon="-75.6827740716644">
        <ele>52.2851891</ele>
        <time>2019-09-10T14:52:33.000Z</time>
      </trkpt>
      <trkpt lat="10.1558467092298" lon="-75.6827761966964">
        <ele>52.3851891</ele>
        <time>2019-09-10T14:52:33.100Z</time>
      </trkpt>
      <trkpt lat="10.1558501603846" lon="-75.6827804276825">
        <ele>52.3851891</ele>
        <time>2019-09-10T14:52:33.300Z</time>
      </trkpt>
      <trkpt lat="10.1558518743936" lon="-75.6827825348898">
        <ele>52.3851891</ele>
        <time>2019-09-10T14:52:33.400Z</time>
      </trkpt>
      <trkpt lat="10.1558535763129" lon="-75.6827846117396">
        <ele>52.3851891</ele>
        <time>2019-09-10T14:52:33.500Z</time>
      </trkpt>
      <trkpt lat="10.1558552838602" lon="-75.6827866768919">
        <ele>52.3851891</ele>
        <time>2019-09-10T14:52:33.600Z</time>
      </trkpt>
      <trkpt lat="10.1558570489372" lon="-75.6827887998351">
        <ele>52.2851891</ele>
        <time>2019-09-10T14:52:33.700Z</time>
      </trkpt>
      <trkpt lat="10.1558605959748" lon="-75.6827930510131">
        <ele>52.2851891</ele>
        <time>2019-09-10T14:52:33.900Z</time>
      </trkpt>
      <trkpt lat="10.1558623439596" lon="-75.6827951452697">
        <ele>52.2851891</ele>
        <time>2019-09-10T14:52:34.000Z</time>
      </trkpt>
      <trkpt lat="10.1558640938204" lon="-75.6827972411974">
        <ele>52.2851891</ele>
        <time>2019-09-10T14:52:34.100Z</time>
      </trkpt>
      <trkpt lat="10.1558658438897" lon="-75.6827993390747">
        <ele>52.3851891</ele>
        <time>2019-09-10T14:52:34.200Z</time>
      </trkpt>
      <trkpt lat="10.1558675908323" lon="-75.6828014404333">
        <ele>52.3851891</ele>
        <time>2019-09-10T14:52:34.300Z</time>
      </trkpt>
      <trkpt lat="10.1558693375664" lon="-75.6828035449948">
        <ele>52.3851891</ele>
        <time>2019-09-10T14:52:34.400Z</time>
      </trkpt>
      <trkpt lat="10.1558710747123" lon="-75.6828056516452">
        <ele>52.3851891</ele>
        <time>2019-09-10T14:52:34.500Z</time>
      </trkpt>
      <trkpt lat="10.1558728116498" lon="-75.6828077582955">
        <ele>52.3851891</ele>
        <time>2019-09-10T14:52:34.600Z</time>
      </trkpt>
      <trkpt lat="10.1558745348301" lon="-75.682809862857">
        <ele>52.3851891</ele>
        <time>2019-09-10T14:52:34.700Z</time>
      </trkpt>
      <trkpt lat="10.1558762646806" lon="-75.6828119628231">
        <ele>52.3851891</ele>
        <time>2019-09-10T14:52:34.800Z</time>
      </trkpt>
      <trkpt lat="10.1558779961986" lon="-75.6828140619537">
        <ele>52.3851891</ele>
        <time>2019-09-10T14:52:34.900Z</time>
      </trkpt>
      <trkpt lat="10.1558814734085" lon="-75.6828182528343">
        <ele>52.3851891</ele>
        <time>2019-09-10T14:52:35.100Z</time>
      </trkpt>
      <trkpt lat="10.1558832176414" lon="-75.6828203476479">
        <ele>52.3851891</ele>
        <time>2019-09-10T14:52:35.200Z</time>
      </trkpt>
      <trkpt lat="10.1558849581224" lon="-75.6828224438541">
        <ele>52.3851891</ele>
        <time>2019-09-10T14:52:35.300Z</time>
      </trkpt>
      <trkpt lat="10.1558867002708" lon="-75.6828245396426">
        <ele>52.2851891</ele>
        <time>2019-09-10T14:52:35.400Z</time>
      </trkpt>
      <trkpt lat="10.1558884324141" lon="-75.682826636545">
        <ele>52.2851891</ele>
        <time>2019-09-10T14:52:35.500Z</time>
      </trkpt>
      <trkpt lat="10.1558901693516" lon="-75.6828287310802">
        <ele>52.2851891</ele>
        <time>2019-09-10T14:52:35.600Z</time>
      </trkpt>
      <trkpt lat="10.1558918950332" lon="-75.6828308306285">
        <ele>52.2851891</ele>
        <time>2019-09-10T14:52:35.700Z</time>
      </trkpt>
      <trkpt lat="10.1558953405602" lon="-75.6828349712381">
        <ele>52.3851891</ele>
        <time>2019-09-10T14:52:35.900Z</time>
      </trkpt>
      <trkpt lat="10.1558987965092" lon="-75.6828390927696">
        <ele>52.3851891</ele>
        <time>2019-09-10T14:52:36.100Z</time>
      </trkpt>
      <trkpt lat="10.1559023350007" lon="-75.6828433802932">
        <ele>52.3851891</ele>
        <time>2019-09-10T14:52:36.300Z</time>
      </trkpt>
      <trkpt lat="10.1559058566086" lon="-75.6828476636392">
        <ele>52.3851891</ele>
        <time>2019-09-10T14:52:36.500Z</time>
      </trkpt>
      <trkpt lat="10.1559093098478" lon="-75.6828518652424">
        <ele>52.2851891</ele>
        <time>2019-09-10T14:52:36.700Z</time>
      </trkpt>
      <trkpt lat="10.1559127368235" lon="-75.6828560516669">
        <ele>52.2851891</ele>
        <time>2019-09-10T14:52:36.900Z</time>
      </trkpt>
      <trkpt lat="10.1559161660921" lon="-75.682860269563">
        <ele>52.3851891</ele>
        <time>2019-09-10T14:52:37.100Z</time>
      </trkpt>
      <trkpt lat="10.1559196622702" lon="-75.6828645296533">
        <ele>52.3851891</ele>
        <time>2019-09-10T14:52:37.300Z</time>
      </trkpt>
      <trkpt lat="10.1559231578229" lon="-75.6828687592468">
        <ele>52.3851891</ele>
        <time>2019-09-10T14:52:37.500Z</time>
      </trkpt>
      <trkpt lat="10.1559266446211" lon="-75.68287300012">
        <ele>52.3851891</ele>
        <time>2019-09-10T14:52:37.700Z</time>
      </trkpt>
      <trkpt lat="10.1559301241239" lon="-75.6828772847193">
        <ele>52.2851891</ele>
        <time>2019-09-10T14:52:37.900Z</time>
      </trkpt>
      <trkpt lat="10.1559336232202" lon="-75.6828815911815">
        <ele>52.2851891</ele>
        <time>2019-09-10T14:52:38.100Z</time>
      </trkpt>
      <trkpt lat="10.1559353849621" lon="-75.6828837451786">
        <ele>52.2851891</ele>
        <time>2019-09-10T14:52:38.200Z</time>
      </trkpt>
      <trkpt lat="10.15593714858" lon="-75.6828859143544">
        <ele>52.2851891</ele>
        <time>2019-09-10T14:52:38.300Z</time>
      </trkpt>
      <trkpt lat="10.1559388917706" lon="-75.6828880719721">
        <ele>52.2851891</ele>
        <time>2019-09-10T14:52:38.400Z</time>
      </trkpt>
      <trkpt lat="10.1559406337107" lon="-75.6828902119044">
        <ele>52.2851891</ele>
        <time>2019-09-10T14:52:38.500Z</time>
      </trkpt>
      <trkpt lat="10.1559440900765" lon="-75.682894414761">
        <ele>52.2851891</ele>
        <time>2019-09-10T14:52:38.700Z</time>
      </trkpt>
      <trkpt lat="10.1559475285165" lon="-75.682898549661">
        <ele>52.2851891</ele>
        <time>2019-09-10T14:52:38.900Z</time>
      </trkpt>
      <trkpt lat="10.1559492552404" lon="-75.6829006291566">
        <ele>52.2851891</ele>
        <time>2019-09-10T14:52:39.000Z</time>
      </trkpt>
      <trkpt lat="10.1559509313131" lon="-75.6829026613055">
        <ele>52.2851891</ele>
        <time>2019-09-10T14:52:39.100Z</time>
      </trkpt>
      <trkpt lat="10.155952598006" lon="-75.6829046910871">
        <ele>52.2851891</ele>
        <time>2019-09-10T14:52:39.200Z</time>
      </trkpt>
      <trkpt lat="10.15595426053" lon="-75.6829066895362">
        <ele>52.2851891</ele>
        <time>2019-09-10T14:52:39.300Z</time>
      </trkpt>
      <trkpt lat="10.1559559403547" lon="-75.6829087104054">
        <ele>52.2851891</ele>
        <time>2019-09-10T14:52:39.400Z</time>
      </trkpt>
      <trkpt lat="10.1559576133008" lon="-75.6829107387944">
        <ele>52.2851891</ele>
        <time>2019-09-10T14:52:39.500Z</time>
      </trkpt>
      <trkpt lat="10.1559592968774" lon="-75.6829127961485">
        <ele>52.3851891</ele>
        <time>2019-09-10T14:52:39.600Z</time>
      </trkpt>
      <trkpt lat="10.1559609869157" lon="-75.6829148550343">
        <ele>52.2851891</ele>
        <time>2019-09-10T14:52:39.700Z</time>
      </trkpt>
      <trkpt lat="10.1559626959221" lon="-75.6829169218577">
        <ele>52.3851891</ele>
        <time>2019-09-10T14:52:39.800Z</time>
      </trkpt>
      <trkpt lat="10.1559644316089" lon="-75.6829189761482">
        <ele>52.3851891</ele>
        <time>2019-09-10T14:52:39.900Z</time>
      </trkpt>
      <trkpt lat="10.1559679181987" lon="-75.6829231163399">
        <ele>52.3851891</ele>
        <time>2019-09-10T14:52:40.100Z</time>
      </trkpt>
      <trkpt lat="10.1559696513842" lon="-75.6829252048871">
        <ele>52.3851891</ele>
        <time>2019-09-10T14:52:40.200Z</time>
      </trkpt>
      <trkpt lat="10.1559713860288" lon="-75.6829273056887">
        <ele>52.3851891</ele>
        <time>2019-09-10T14:52:40.300Z</time>
      </trkpt>
      <trkpt lat="10.1559731258844" lon="-75.6829294071866">
        <ele>52.3851891</ele>
        <time>2019-09-10T14:52:40.400Z</time>
      </trkpt>
      <trkpt lat="10.1559748655316" lon="-75.6829315167613">
        <ele>52.3851891</ele>
        <time>2019-09-10T14:52:40.500Z</time>
      </trkpt>
      <trkpt lat="10.1559766055956" lon="-75.6829336204873">
        <ele>52.3851891</ele>
        <time>2019-09-10T14:52:40.600Z</time>
      </trkpt>
      <trkpt lat="10.1559783402402" lon="-75.6829357282517">
        <ele>52.3851891</ele>
        <time>2019-09-10T14:52:40.700Z</time>
      </trkpt>
      <trkpt lat="10.1559818199515" lon="-75.68293998124">
        <ele>52.3851891</ele>
        <time>2019-09-10T14:52:40.900Z</time>
      </trkpt>
      <trkpt lat="10.155985291742" lon="-75.6829442877023">
        <ele>52.3851891</ele>
        <time>2019-09-10T14:52:41.100Z</time>
      </trkpt>
      <trkpt lat="10.1559887337254" lon="-75.6829485443113">
        <ele>52.3851891</ele>
        <time>2019-09-10T14:52:41.300Z</time>
      </trkpt>
      <trkpt lat="10.1559904577395" lon="-75.6829506580636">
        <ele>52.3851891</ele>
        <time>2019-09-10T14:52:41.400Z</time>
      </trkpt>
      <trkpt lat="10.1559939132716" lon="-75.6829549437769">
        <ele>52.3851891</ele>
        <time>2019-09-10T14:52:41.600Z</time>
      </trkpt>
      <trkpt lat="10.1559956010171" lon="-75.6829570249436">
        <ele>52.3851891</ele>
        <time>2019-09-10T14:52:41.700Z</time>
      </trkpt>
      <trkpt lat="10.155998990265" lon="-75.6829611400694">
        <ele>52.3851891</ele>
        <time>2019-09-10T14:52:41.900Z</time>
      </trkpt>
      <trkpt lat="10.1560024059849" lon="-75.6829652518532">
        <ele>52.3851891</ele>
        <time>2019-09-10T14:52:42.100Z</time>
      </trkpt>
      <trkpt lat="10.1560041018595" lon="-75.6829672984846">
        <ele>52.3851891</ele>
        <time>2019-09-10T14:52:42.200Z</time>
      </trkpt>
      <trkpt lat="10.156005805238" lon="-75.6829693242277">
        <ele>52.3851891</ele>
        <time>2019-09-10T14:52:42.300Z</time>
      </trkpt>
      <trkpt lat="10.1560075182047" lon="-75.6829713602758">
        <ele>52.3851891</ele>
        <time>2019-09-10T14:52:42.400Z</time>
      </trkpt>
      <trkpt lat="10.1560092169975" lon="-75.6829733840693">
        <ele>52.3851891</ele>
        <time>2019-09-10T14:52:42.500Z</time>
      </trkpt>
      <trkpt lat="10.1560126102058" lon="-75.6829774617356">
        <ele>52.3851891</ele>
        <time>2019-09-10T14:52:42.700Z</time>
      </trkpt>
      <trkpt lat="10.1560143112914" lon="-75.6829795093418">
        <ele>52.3851891</ele>
        <time>2019-09-10T14:52:42.800Z</time>
      </trkpt>
      <trkpt lat="10.1560159888232" lon="-75.682981501246">
        <ele>52.3851891</ele>
        <time>2019-09-10T14:52:42.900Z</time>
      </trkpt>
      <trkpt lat="10.1560176709407" lon="-75.682983488137">
        <ele>52.3851891</ele>
        <time>2019-09-10T14:52:43.000Z</time>
      </trkpt>
      <trkpt lat="10.1560193851581" lon="-75.6829854964732">
        <ele>52.3851891</ele>
        <time>2019-09-10T14:52:43.100Z</time>
      </trkpt>
      <trkpt lat="10.156021126056" lon="-75.6829875463075">
        <ele>52.3851891</ele>
        <time>2019-09-10T14:52:43.200Z</time>
      </trkpt>
      <trkpt lat="10.1560228554896" lon="-75.6829896010157">
        <ele>52.3851891</ele>
        <time>2019-09-10T14:52:43.300Z</time>
      </trkpt>
      <trkpt lat="10.1560245732504" lon="-75.6829916633829">
        <ele>52.3851891</ele>
        <time>2019-09-10T14:52:43.400Z</time>
      </trkpt>
      <trkpt lat="10.1560262958055" lon="-75.6829937221295">
        <ele>52.3851891</ele>
        <time>2019-09-10T14:52:43.500Z</time>
      </trkpt>
      <trkpt lat="10.1560280254475" lon="-75.6829957849145">
        <ele>52.3851891</ele>
        <time>2019-09-10T14:52:43.600Z</time>
      </trkpt>
      <trkpt lat="10.1560297873978" lon="-75.6829978697018">
        <ele>52.3851891</ele>
        <time>2019-09-10T14:52:43.700Z</time>
      </trkpt>
      <trkpt lat="10.1560315505988" lon="-75.6829999649332">
        <ele>52.3851891</ele>
        <time>2019-09-10T14:52:43.800Z</time>
      </trkpt>
      <trkpt lat="10.1560333202615" lon="-75.6830020759005">
        <ele>52.3851891</ele>
        <time>2019-09-10T14:52:43.900Z</time>
      </trkpt>
      <trkpt lat="10.1560368274869" lon="-75.6830063269392">
        <ele>52.3851891</ele>
        <time>2019-09-10T14:52:44.100Z</time>
      </trkpt>
      <trkpt lat="10.1560385683848" lon="-75.6830084622761">
        <ele>52.3851891</ele>
        <time>2019-09-10T14:52:44.200Z</time>
      </trkpt>
      <trkpt lat="10.1560402876047" lon="-75.6830105433035">
        <ele>52.3851891</ele>
        <time>2019-09-10T14:52:44.300Z</time>
      </trkpt>
      <trkpt lat="10.1560420061994" lon="-75.6830126003791">
        <ele>52.3851891</ele>
        <time>2019-09-10T14:52:44.400Z</time>
      </trkpt>
      <trkpt lat="10.156043702074" lon="-75.6830146337813">
        <ele>52.3851891</ele>
        <time>2019-09-10T14:52:44.500Z</time>
      </trkpt>
      <trkpt lat="10.1560454031596" lon="-75.6830166769313">
        <ele>52.2851891</ele>
        <time>2019-09-10T14:52:44.600Z</time>
      </trkpt>
      <trkpt lat="10.1560471073719" lon="-75.6830187079661">
        <ele>52.2851891</ele>
        <time>2019-09-10T14:52:44.700Z</time>
      </trkpt>
      <trkpt lat="10.1560488268003" lon="-75.683020753762">
        <ele>52.2851891</ele>
        <time>2019-09-10T14:52:44.800Z</time>
      </trkpt>
      <trkpt lat="10.1560505278859" lon="-75.6830228164077">
        <ele>52.2851891</ele>
        <time>2019-09-10T14:52:44.900Z</time>
      </trkpt>
      <trkpt lat="10.1560539421467" lon="-75.6830269706643">
        <ele>52.2851891</ele>
        <time>2019-09-10T14:52:45.100Z</time>
      </trkpt>
      <trkpt lat="10.1560556661609" lon="-75.683029045843">
        <ele>52.2851891</ele>
        <time>2019-09-10T14:52:45.200Z</time>
      </trkpt>
      <trkpt lat="10.1560573739166" lon="-75.6830311341116">
        <ele>52.3851891</ele>
        <time>2019-09-10T14:52:45.300Z</time>
      </trkpt>
      <trkpt lat="10.1560607723359" lon="-75.6830353085601">
        <ele>52.3851891</ele>
        <time>2019-09-10T14:52:45.500Z</time>
      </trkpt>
      <trkpt lat="10.1560624696696" lon="-75.6830373848529">
        <ele>52.3851891</ele>
        <time>2019-09-10T14:52:45.600Z</time>
      </trkpt>
      <trkpt lat="10.1560641761747" lon="-75.6830394654625">
        <ele>52.3851891</ele>
        <time>2019-09-10T14:52:45.700Z</time>
      </trkpt>
      <trkpt lat="10.1560659008141" lon="-75.6830415555415">
        <ele>52.3851891</ele>
        <time>2019-09-10T14:52:45.800Z</time>
      </trkpt>
      <trkpt lat="10.1560676337912" lon="-75.6830436768136">
        <ele>52.3851891</ele>
        <time>2019-09-10T14:52:45.900Z</time>
      </trkpt>
      <trkpt lat="10.1560693734384" lon="-75.6830458012886">
        <ele>52.3851891</ele>
        <time>2019-09-10T14:52:46.000Z</time>
      </trkpt>
      <trkpt lat="10.1560728116699" lon="-75.683050055948">
        <ele>52.3851891</ele>
        <time>2019-09-10T14:52:46.200Z</time>
      </trkpt>
      <trkpt lat="10.156074528597" lon="-75.6830521780556">
        <ele>52.3851891</ele>
        <time>2019-09-10T14:52:46.300Z</time>
      </trkpt>
      <trkpt lat="10.1560762513605" lon="-75.6830542925043">
        <ele>52.3851891</ele>
        <time>2019-09-10T14:52:46.400Z</time>
      </trkpt>
      <trkpt lat="10.1560779680792" lon="-75.6830564012434">
        <ele>52.3851891</ele>
        <time>2019-09-10T14:52:46.500Z</time>
      </trkpt>
      <trkpt lat="10.1560796995972" lon="-75.6830585063619">
        <ele>52.3851891</ele>
        <time>2019-09-10T14:52:46.600Z</time>
      </trkpt>
      <trkpt lat="10.1560814694683" lon="-75.6830606333435">
        <ele>52.3851891</ele>
        <time>2019-09-10T14:52:46.700Z</time>
      </trkpt>
      <trkpt lat="10.1560832464264" lon="-75.6830627625532">
        <ele>52.3851891</ele>
        <time>2019-09-10T14:52:46.800Z</time>
      </trkpt>
      <trkpt lat="10.1560849942027" lon="-75.6830648594556">
        <ele>52.3851891</ele>
        <time>2019-09-10T14:52:46.900Z</time>
      </trkpt>
      <trkpt lat="10.1560884272232" lon="-75.6830690258274">
        <ele>52.3851891</ele>
        <time>2019-09-10T14:52:47.100Z</time>
      </trkpt>
      <trkpt lat="10.1560901212219" lon="-75.6830711103361">
        <ele>52.3851891</ele>
        <time>2019-09-10T14:52:47.200Z</time>
      </trkpt>
      <trkpt lat="10.156091813553" lon="-75.6830732174042">
        <ele>52.3851891</ele>
        <time>2019-09-10T14:52:47.300Z</time>
      </trkpt>
      <trkpt lat="10.1560935194328" lon="-75.6830753301818">
        <ele>52.3851891</ele>
        <time>2019-09-10T14:52:47.400Z</time>
      </trkpt>
      <trkpt lat="10.156095232608" lon="-75.6830774447697">
        <ele>52.3851891</ele>
        <time>2019-09-10T14:52:47.500Z</time>
      </trkpt>
      <trkpt lat="10.1560986670875" lon="-75.683081642056">
        <ele>52.3851891</ele>
        <time>2019-09-10T14:52:47.700Z</time>
      </trkpt>
      <trkpt lat="10.1561003785952" lon="-75.6830837280966">
        <ele>52.3851891</ele>
        <time>2019-09-10T14:52:47.800Z</time>
      </trkpt>
      <trkpt lat="10.1561020928126" lon="-75.6830858117698">
        <ele>52.3851891</ele>
        <time>2019-09-10T14:52:47.900Z</time>
      </trkpt>
      <trkpt lat="10.1561055310441" lon="-75.6830900001438">
        <ele>52.3851891</ele>
        <time>2019-09-10T14:52:48.100Z</time>
      </trkpt>
      <trkpt lat="10.1561072531823" lon="-75.6830920973248">
        <ele>52.3851891</ele>
        <time>2019-09-10T14:52:48.200Z</time>
      </trkpt>
      <trkpt lat="10.1561089682334" lon="-75.6830941684651">
        <ele>52.3851891</ele>
        <time>2019-09-10T14:52:48.300Z</time>
      </trkpt>
      <trkpt lat="10.1561106824508" lon="-75.6830962313894">
        <ele>52.3851891</ele>
        <time>2019-09-10T14:52:48.400Z</time>
      </trkpt>
      <trkpt lat="10.1561124162617" lon="-75.6830982962632">
        <ele>52.3851891</ele>
        <time>2019-09-10T14:52:48.500Z</time>
      </trkpt>
      <trkpt lat="10.1561141590355" lon="-75.6831003752018">
        <ele>52.3851891</ele>
        <time>2019-09-10T14:52:48.600Z</time>
      </trkpt>
      <trkpt lat="10.1561159105638" lon="-75.6831024300492">
        <ele>52.3851891</ele>
        <time>2019-09-10T14:52:48.700Z</time>
      </trkpt>
      <trkpt lat="10.1561176708466" lon="-75.6831044847575">
        <ele>52.3851891</ele>
        <time>2019-09-10T14:52:48.800Z</time>
      </trkpt>
      <trkpt lat="10.1561194117444" lon="-75.6831065260972">
        <ele>52.3851891</ele>
        <time>2019-09-10T14:52:48.900Z</time>
      </trkpt>
      <trkpt lat="10.1561211518085" lon="-75.683108578438">
        <ele>52.3851891</ele>
        <time>2019-09-10T14:52:49.000Z</time>
      </trkpt>
      <trkpt lat="10.1561229110491" lon="-75.6831106494391">
        <ele>52.3851891</ele>
        <time>2019-09-10T14:52:49.100Z</time>
      </trkpt>
      <trkpt lat="10.1561246738332" lon="-75.6831127375685">
        <ele>52.3851891</ele>
        <time>2019-09-10T14:52:49.200Z</time>
      </trkpt>
      <trkpt lat="10.1561264512082" lon="-75.6831148627397">
        <ele>52.3851891</ele>
        <time>2019-09-10T14:52:49.300Z</time>
      </trkpt>
      <trkpt lat="10.1561282267072" lon="-75.6831169904176">
        <ele>52.3851891</ele>
        <time>2019-09-10T14:52:49.400Z</time>
      </trkpt>
      <trkpt lat="10.1561299682303" lon="-75.6831190926117">
        <ele>52.3851891</ele>
        <time>2019-09-10T14:52:49.500Z</time>
      </trkpt>
      <trkpt lat="10.1561316997483" lon="-75.6831211780953">
        <ele>52.3851891</ele>
        <time>2019-09-10T14:52:49.600Z</time>
      </trkpt>
      <trkpt lat="10.1561333983327" lon="-75.6831232419943">
        <ele>52.3851891</ele>
        <time>2019-09-10T14:52:49.700Z</time>
      </trkpt>
      <trkpt lat="10.1561350904553" lon="-75.6831253017157">
        <ele>52.2851891</ele>
        <time>2019-09-10T14:52:49.800Z</time>
      </trkpt>
      <trkpt lat="10.1561367706969" lon="-75.6831273628297">
        <ele>52.2851891</ele>
        <time>2019-09-10T14:52:49.900Z</time>
      </trkpt>
      <trkpt lat="10.1561384694897" lon="-75.6831294331344">
        <ele>52.2851891</ele>
        <time>2019-09-10T14:52:50.000Z</time>
      </trkpt>
      <trkpt lat="10.1561401974641" lon="-75.6831315407595">
        <ele>52.2851891</ele>
        <time>2019-09-10T14:52:50.100Z</time>
      </trkpt>
      <trkpt lat="10.1561419441983" lon="-75.6831336620317">
        <ele>52.3851891</ele>
        <time>2019-09-10T14:52:50.200Z</time>
      </trkpt>
      <trkpt lat="10.1561454068174" lon="-75.6831379235146">
        <ele>52.3851891</ele>
        <time>2019-09-10T14:52:50.400Z</time>
      </trkpt>
      <trkpt lat="10.1561471662665" lon="-75.6831400819678">
        <ele>52.3851891</ele>
        <time>2019-09-10T14:52:50.500Z</time>
      </trkpt>
      <trkpt lat="10.1561489373882" lon="-75.6831422341545">
        <ele>52.3851891</ele>
        <time>2019-09-10T14:52:50.600Z</time>
      </trkpt>
      <trkpt lat="10.1561507112197" lon="-75.6831444012415">
        <ele>52.3851891</ele>
        <time>2019-09-10T14:52:50.700Z</time>
      </trkpt>
      <trkpt lat="10.1561524746291" lon="-75.6831465525927">
        <ele>52.3851891</ele>
        <time>2019-09-10T14:52:50.800Z</time>
      </trkpt>
      <trkpt lat="10.1561542326191" lon="-75.6831487026906">
        <ele>52.3851891</ele>
        <time>2019-09-10T14:52:50.900Z</time>
      </trkpt>
      <trkpt lat="10.1561559851896" lon="-75.6831508363565">
        <ele>52.3851891</ele>
        <time>2019-09-10T14:52:51.000Z</time>
      </trkpt>
      <trkpt lat="10.1561577342166" lon="-75.6831529856188">
        <ele>52.3851891</ele>
        <time>2019-09-10T14:52:51.100Z</time>
      </trkpt>
      <trkpt lat="10.1561594857449" lon="-75.6831551333494">
        <ele>52.3851891</ele>
        <time>2019-09-10T14:52:51.200Z</time>
      </trkpt>
      <trkpt lat="10.1561612247668" lon="-75.6831572425063">
        <ele>52.3851891</ele>
        <time>2019-09-10T14:52:51.300Z</time>
      </trkpt>
      <trkpt lat="10.1561629646224" lon="-75.683159338991">
        <ele>52.3851891</ele>
        <time>2019-09-10T14:52:51.400Z</time>
      </trkpt>
      <trkpt lat="10.1561646932222" lon="-75.6831614226643">
        <ele>52.3851891</ele>
        <time>2019-09-10T14:52:51.500Z</time>
      </trkpt>
      <trkpt lat="10.15616642745" lon="-75.683163512604">
        <ele>52.3851891</ele>
        <time>2019-09-10T14:52:51.600Z</time>
      </trkpt>
      <trkpt lat="10.1561681846062" lon="-75.6831656405604">
        <ele>52.3851891</ele>
        <time>2019-09-10T14:52:51.700Z</time>
      </trkpt>
      <trkpt lat="10.1561699450974" lon="-75.683167790519">
        <ele>52.3851891</ele>
        <time>2019-09-10T14:52:51.800Z</time>
      </trkpt>
      <trkpt lat="10.1561716999608" lon="-75.6831699356038">
        <ele>52.3851891</ele>
        <time>2019-09-10T14:52:51.900Z</time>
      </trkpt>
      <trkpt lat="10.15617345003" lon="-75.6831720680163">
        <ele>52.3851891</ele>
        <time>2019-09-10T14:52:52.000Z</time>
      </trkpt>
      <trkpt lat="10.1561751738357" lon="-75.6831741874781">
        <ele>52.3851891</ele>
        <time>2019-09-10T14:52:52.100Z</time>
      </trkpt>
      <trkpt lat="10.156176886594" lon="-75.6831763022052">
        <ele>52.3851891</ele>
        <time>2019-09-10T14:52:52.200Z</time>
      </trkpt>
      <trkpt lat="10.1561786154023" lon="-75.6831784568985">
        <ele>52.3851891</ele>
        <time>2019-09-10T14:52:52.300Z</time>
      </trkpt>
      <trkpt lat="10.1561803617195" lon="-75.683180622593">
        <ele>52.3851891</ele>
        <time>2019-09-10T14:52:52.400Z</time>
      </trkpt>
      <trkpt lat="10.1561821138732" lon="-75.6831827725516">
        <ele>52.3851891</ele>
        <time>2019-09-10T14:52:52.500Z</time>
      </trkpt>
      <trkpt lat="10.156183865193" lon="-75.6831849019005">
        <ele>52.3851891</ele>
        <time>2019-09-10T14:52:52.600Z</time>
      </trkpt>
      <trkpt lat="10.1561855912916" lon="-75.6831870088294">
        <ele>52.3851891</ele>
        <time>2019-09-10T14:52:52.700Z</time>
      </trkpt>
      <trkpt lat="10.1561873121791" lon="-75.6831891060104">
        <ele>52.3851891</ele>
        <time>2019-09-10T14:52:52.800Z</time>
      </trkpt>
      <trkpt lat="10.1561890103465" lon="-75.6831911568194">
        <ele>52.2851891</ele>
        <time>2019-09-10T14:52:52.900Z</time>
      </trkpt>
      <trkpt lat="10.1561907135166" lon="-75.6831932035901">
        <ele>52.2851891</ele>
        <time>2019-09-10T14:52:53.000Z</time>
      </trkpt>
      <trkpt lat="10.1561924385729" lon="-75.6831952734771">
        <ele>52.2851891</ele>
        <time>2019-09-10T14:52:53.100Z</time>
      </trkpt>
      <trkpt lat="10.1561941882252" lon="-75.6831973695441">
        <ele>52.2851891</ele>
        <time>2019-09-10T14:52:53.200Z</time>
      </trkpt>
      <trkpt lat="10.1561959693521" lon="-75.6831994668643">
        <ele>52.2851891</ele>
        <time>2019-09-10T14:52:53.300Z</time>
      </trkpt>
      <trkpt lat="10.1561977529803" lon="-75.6832015675267">
        <ele>52.3851891</ele>
        <time>2019-09-10T14:52:53.400Z</time>
      </trkpt>
      <trkpt lat="10.1562012906381" lon="-75.6832057872331">
        <ele>52.3851891</ele>
        <time>2019-09-10T14:52:53.600Z</time>
      </trkpt>
      <trkpt lat="10.1562030444593" lon="-75.6832079022387">
        <ele>52.3851891</ele>
        <time>2019-09-10T14:52:53.700Z</time>
      </trkpt>
      <trkpt lat="10.1562047989058" lon="-75.6832100171051">
        <ele>52.3851891</ele>
        <time>2019-09-10T14:52:53.800Z</time>
      </trkpt>
      <trkpt lat="10.1562065662756" lon="-75.6832121568981">
        <ele>52.3851891</ele>
        <time>2019-09-10T14:52:53.900Z</time>
      </trkpt>
      <trkpt lat="10.1562083301019" lon="-75.6832143037932">
        <ele>52.2851891</ele>
        <time>2019-09-10T14:52:54.000Z</time>
      </trkpt>
      <trkpt lat="10.1562100674562" lon="-75.6832164426114">
        <ele>52.2851891</ele>
        <time>2019-09-10T14:52:54.100Z</time>
      </trkpt>
      <trkpt lat="10.1562117956392" lon="-75.6832185620732">
        <ele>52.2851891</ele>
        <time>2019-09-10T14:52:54.200Z</time>
      </trkpt>
      <trkpt lat="10.1562135238221" lon="-75.683220688637">
        <ele>52.2851891</ele>
        <time>2019-09-10T14:52:54.300Z</time>
      </trkpt>
      <trkpt lat="10.1562152561738" lon="-75.6832228140868">
        <ele>52.2851891</ele>
        <time>2019-09-10T14:52:54.400Z</time>
      </trkpt>
      <trkpt lat="10.1562170122878" lon="-75.6832249640454">
        <ele>52.2851891</ele>
        <time>2019-09-10T14:52:54.500Z</time>
      </trkpt>
      <trkpt lat="10.1562187692356" lon="-75.6832271119153">
        <ele>52.2851891</ele>
        <time>2019-09-10T14:52:54.600Z</time>
      </trkpt>
      <trkpt lat="10.1562205007536" lon="-75.6832292120206">
        <ele>52.2851891</ele>
        <time>2019-09-10T14:52:54.700Z</time>
      </trkpt>
      <trkpt lat="10.1562239389851" lon="-75.6832333682267">
        <ele>52.2851891</ele>
        <time>2019-09-10T14:52:54.900Z</time>
      </trkpt>
      <trkpt lat="10.1562256615402" lon="-75.6832354557991">
        <ele>52.2851891</ele>
        <time>2019-09-10T14:52:55.000Z</time>
      </trkpt>
      <trkpt lat="10.1562273893062" lon="-75.6832375488024">
        <ele>52.2851891</ele>
        <time>2019-09-10T14:52:55.100Z</time>
      </trkpt>
      <trkpt lat="10.1562291335391" lon="-75.6832396512751">
        <ele>52.2851891</ele>
        <time>2019-09-10T14:52:55.200Z</time>
      </trkpt>
      <trkpt lat="10.1562326357619" lon="-75.6832438645758">
        <ele>52.2851891</ele>
        <time>2019-09-10T14:52:55.400Z</time>
      </trkpt>
      <trkpt lat="10.1562361308978" lon="-75.6832480806615">
        <ele>52.2851891</ele>
        <time>2019-09-10T14:52:55.600Z</time>
      </trkpt>
      <trkpt lat="10.1562378884709" lon="-75.6832502100104">
        <ele>52.2851891</ele>
        <time>2019-09-10T14:52:55.700Z</time>
      </trkpt>
      <trkpt lat="10.1562396508381" lon="-75.6832523427015">
        <ele>52.2851891</ele>
        <time>2019-09-10T14:52:55.800Z</time>
      </trkpt>
      <trkpt lat="10.1562414280047" lon="-75.6832544670372">
        <ele>52.2851891</ele>
        <time>2019-09-10T14:52:55.900Z</time>
      </trkpt>
      <trkpt lat="10.1562432001686" lon="-75.683256585942">
        <ele>52.1851891</ele>
        <time>2019-09-10T14:52:56.000Z</time>
      </trkpt>
      <trkpt lat="10.1562449594092" lon="-75.6832586960737">
        <ele>52.1851891</ele>
        <time>2019-09-10T14:52:56.100Z</time>
      </trkpt>
      <trkpt lat="10.1562467053096" lon="-75.6832608119148">
        <ele>52.1851891</ele>
        <time>2019-09-10T14:52:56.200Z</time>
      </trkpt>
      <trkpt lat="10.156248440788" lon="-75.683262920097">
        <ele>52.1851891</ele>
        <time>2019-09-10T14:52:56.300Z</time>
      </trkpt>
      <trkpt lat="10.1562501800183" lon="-75.683265030368">
        <ele>52.1851891</ele>
        <time>2019-09-10T14:52:56.400Z</time>
      </trkpt>
      <trkpt lat="10.1562519100772" lon="-75.6832671265742">
        <ele>52.1851891</ele>
        <time>2019-09-10T14:52:56.500Z</time>
      </trkpt>
      <trkpt lat="10.1562536409699" lon="-75.6832692296039">
        <ele>52.1851891</ele>
        <time>2019-09-10T14:52:56.600Z</time>
      </trkpt>
      <trkpt lat="10.1562553741554" lon="-75.6832713180118">
        <ele>52.1851891</ele>
        <time>2019-09-10T14:52:56.700Z</time>
      </trkpt>
      <trkpt lat="10.1562571160954" lon="-75.6832734075337">
        <ele>52.1851891</ele>
        <time>2019-09-10T14:52:56.800Z</time>
      </trkpt>
      <trkpt lat="10.1562588638718" lon="-75.6832754814591">
        <ele>52.1851891</ele>
        <time>2019-09-10T14:52:56.900Z</time>
      </trkpt>
      <trkpt lat="10.1562606249884" lon="-75.6832775581696">
        <ele>52.1851891</ele>
        <time>2019-09-10T14:52:57.000Z</time>
      </trkpt>
      <trkpt lat="10.156262384229" lon="-75.6832796018767">
        <ele>52.1851891</ele>
        <time>2019-09-10T14:52:57.100Z</time>
      </trkpt>
      <trkpt lat="10.156264140343" lon="-75.6832816536605">
        <ele>52.1851891</ele>
        <time>2019-09-10T14:52:57.200Z</time>
      </trkpt>
      <trkpt lat="10.1562658804071" lon="-75.6832837160278">
        <ele>52.1851891</ele>
        <time>2019-09-10T14:52:57.300Z</time>
      </trkpt>
      <trkpt lat="10.1562676198458" lon="-75.6832858010936">
        <ele>52.1851891</ele>
        <time>2019-09-10T14:52:57.400Z</time>
      </trkpt>
      <trkpt lat="10.1562693371898" lon="-75.6832878975783">
        <ele>52.1851891</ele>
        <time>2019-09-10T14:52:57.500Z</time>
      </trkpt>
      <trkpt lat="10.1562710476553" lon="-75.6832899969873">
        <ele>52.2851891</ele>
        <time>2019-09-10T14:52:57.600Z</time>
      </trkpt>
      <trkpt lat="10.1562727502" lon="-75.6832920984853">
        <ele>52.2851891</ele>
        <time>2019-09-10T14:52:57.700Z</time>
      </trkpt>
      <trkpt lat="10.1562744606654" lon="-75.6832941998439">
        <ele>52.1851891</ele>
        <time>2019-09-10T14:52:57.800Z</time>
      </trkpt>
      <trkpt lat="10.1562761821783" lon="-75.6832962754404">
        <ele>52.1851891</ele>
        <time>2019-09-10T14:52:57.900Z</time>
      </trkpt>
      <trkpt lat="10.1562779107781" lon="-75.6832983430993">
        <ele>52.1851891</ele>
        <time>2019-09-10T14:52:58.000Z</time>
      </trkpt>
      <trkpt lat="10.1562813219123" lon="-75.6833024973558">
        <ele>52.1851891</ele>
        <time>2019-09-10T14:52:58.200Z</time>
      </trkpt>
      <trkpt lat="10.1562830292512" lon="-75.6833045654325">
        <ele>52.1851891</ele>
        <time>2019-09-10T14:52:58.300Z</time>
      </trkpt>
      <trkpt lat="10.1562847486796" lon="-75.6833066364335">
        <ele>52.1851891</ele>
        <time>2019-09-10T14:52:58.400Z</time>
      </trkpt>
      <trkpt lat="10.1562864810313" lon="-75.6833087235882">
        <ele>52.1851891</ele>
        <time>2019-09-10T14:52:58.500Z</time>
      </trkpt>
      <trkpt lat="10.1562882150506" lon="-75.6833108289852">
        <ele>52.1851891</ele>
        <time>2019-09-10T14:52:58.600Z</time>
      </trkpt>
      <trkpt lat="10.1562899353128" lon="-75.6833129431553">
        <ele>52.1851891</ele>
        <time>2019-09-10T14:52:58.700Z</time>
      </trkpt>
      <trkpt lat="10.1562916509893" lon="-75.6833150627563">
        <ele>52.1851891</ele>
        <time>2019-09-10T14:52:58.800Z</time>
      </trkpt>
      <trkpt lat="10.1562933320646" lon="-75.6833171451763">
        <ele>52.1851891</ele>
        <time>2019-09-10T14:52:58.900Z</time>
      </trkpt>
      <trkpt lat="10.1562950152243" lon="-75.6833192264822">
        <ele>52.1851891</ele>
        <time>2019-09-10T14:52:59.000Z</time>
      </trkpt>
      <trkpt lat="10.1562967265235" lon="-75.6833213231062">
        <ele>52.2851891</ele>
        <time>2019-09-10T14:52:59.100Z</time>
      </trkpt>
      <trkpt lat="10.1562984676298" lon="-75.683323434909">
        <ele>52.2851891</ele>
        <time>2019-09-10T14:52:59.200Z</time>
      </trkpt>
      <trkpt lat="10.1563002227016" lon="-75.6833255443444">
        <ele>52.2851891</ele>
        <time>2019-09-10T14:52:59.300Z</time>
      </trkpt>
      <trkpt lat="10.1563019779818" lon="-75.6833276507162">
        <ele>52.2851891</ele>
        <time>2019-09-10T14:52:59.400Z</time>
      </trkpt>
      <trkpt lat="10.1563037399322" lon="-75.6833297243631">
        <ele>52.2851891</ele>
        <time>2019-09-10T14:52:59.500Z</time>
      </trkpt>
      <trkpt lat="10.1563054977137" lon="-75.6833317923005">
        <ele>52.2851891</ele>
        <time>2019-09-10T14:52:59.600Z</time>
      </trkpt>
      <trkpt lat="10.15630898076" lon="-75.6833360054619">
        <ele>52.2851891</ele>
        <time>2019-09-10T14:52:59.800Z</time>
      </trkpt>
      <trkpt lat="10.1563106916424" lon="-75.6833381040355">
        <ele>52.2851891</ele>
        <time>2019-09-10T14:52:59.900Z</time>
      </trkpt>
      <trkpt lat="10.1563124018994" lon="-75.6833402013557">
        <ele>52.2851891</ele>
        <time>2019-09-10T14:53:00.000Z</time>
      </trkpt>
      <trkpt lat="10.1563141182012" lon="-75.6833422900422">
        <ele>52.2851891</ele>
        <time>2019-09-10T14:53:00.100Z</time>
      </trkpt>
      <trkpt lat="10.1563158426322" lon="-75.6833443806782">
        <ele>52.2851891</ele>
        <time>2019-09-10T14:53:00.200Z</time>
      </trkpt>
      <trkpt lat="10.1563175678969" lon="-75.6833464706179">
        <ele>52.2851891</ele>
        <time>2019-09-10T14:53:00.300Z</time>
      </trkpt>
      <trkpt lat="10.1563192889929" lon="-75.6833485683559">
        <ele>52.2851891</ele>
        <time>2019-09-10T14:53:00.400Z</time>
      </trkpt>
      <trkpt lat="10.1563210069622" lon="-75.683350662891">
        <ele>52.2851891</ele>
        <time>2019-09-10T14:53:00.500Z</time>
      </trkpt>
      <trkpt lat="10.1563227257653" lon="-75.6833527617431">
        <ele>52.2851891</ele>
        <time>2019-09-10T14:53:00.600Z</time>
      </trkpt>
      <trkpt lat="10.156324426851" lon="-75.6833548568353">
        <ele>52.2851891</ele>
        <time>2019-09-10T14:53:00.700Z</time>
      </trkpt>
      <trkpt lat="10.156326131897" lon="-75.6833569559658">
        <ele>52.2851891</ele>
        <time>2019-09-10T14:53:00.800Z</time>
      </trkpt>
      <trkpt lat="10.1563278532013" lon="-75.6833590848969">
        <ele>52.2851891</ele>
        <time>2019-09-10T14:53:00.900Z</time>
      </trkpt>
      <trkpt lat="10.1563295882628" lon="-75.6833612224619">
        <ele>52.2851891</ele>
        <time>2019-09-10T14:53:01.000Z</time>
      </trkpt>
      <trkpt lat="10.1563313324957" lon="-75.6833633515323">
        <ele>52.2851891</ele>
        <time>2019-09-10T14:53:01.100Z</time>
      </trkpt>
      <trkpt lat="10.1563330802721" lon="-75.6833654657024">
        <ele>52.2851891</ele>
        <time>2019-09-10T14:53:01.200Z</time>
      </trkpt>
      <trkpt lat="10.1563348322173" lon="-75.6833675968616">
        <ele>52.2851891</ele>
        <time>2019-09-10T14:53:01.300Z</time>
      </trkpt>
      <trkpt lat="10.1563365762417" lon="-75.6833697301097">
        <ele>52.2851891</ele>
        <time>2019-09-10T14:53:01.400Z</time>
      </trkpt>
      <trkpt lat="10.1563383144298" lon="-75.6833718558379">
        <ele>52.2851891</ele>
        <time>2019-09-10T14:53:01.500Z</time>
      </trkpt>
      <trkpt lat="10.1563400461562" lon="-75.6833739758568">
        <ele>52.2851891</ele>
        <time>2019-09-10T14:53:01.600Z</time>
      </trkpt>
      <trkpt lat="10.1563417464081" lon="-75.6833761159283">
        <ele>52.2851891</ele>
        <time>2019-09-10T14:53:01.700Z</time>
      </trkpt>
      <trkpt lat="10.1563434414489" lon="-75.683378258785">
        <ele>52.2851891</ele>
        <time>2019-09-10T14:53:01.800Z</time>
      </trkpt>
      <trkpt lat="10.1563451398248" lon="-75.6833804130605">
        <ele>52.2851891</ele>
        <time>2019-09-10T14:53:01.900Z</time>
      </trkpt>
      <trkpt lat="10.1563468442455" lon="-75.6833825553601">
        <ele>52.2851891</ele>
        <time>2019-09-10T14:53:02.000Z</time>
      </trkpt>
      <trkpt lat="10.1563485296981" lon="-75.6833847036477">
        <ele>52.2851891</ele>
        <time>2019-09-10T14:53:02.100Z</time>
      </trkpt>
      <trkpt lat="10.1563502230714" lon="-75.6833868426052">
        <ele>52.2851891</ele>
        <time>2019-09-10T14:53:02.200Z</time>
      </trkpt>
      <trkpt lat="10.1563519329115" lon="-75.6833890165158">
        <ele>52.2851891</ele>
        <time>2019-09-10T14:53:02.300Z</time>
      </trkpt>
      <trkpt lat="10.1563536506724" lon="-75.6833911752475">
        <ele>52.2851891</ele>
        <time>2019-09-10T14:53:02.400Z</time>
      </trkpt>
      <trkpt lat="10.1563553388347" lon="-75.6833932923419">
        <ele>52.2851891</ele>
        <time>2019-09-10T14:53:02.500Z</time>
      </trkpt>
      <trkpt lat="10.1563570365853" lon="-75.6833953874341">
        <ele>52.2851891</ele>
        <time>2019-09-10T14:53:02.600Z</time>
      </trkpt>
      <trkpt lat="10.1563587614332" lon="-75.6833974754243">
        <ele>52.2851891</ele>
        <time>2019-09-10T14:53:02.700Z</time>
      </trkpt>
      <trkpt lat="10.1563605154628" lon="-75.683399567035">
        <ele>52.2851891</ele>
        <time>2019-09-10T14:53:02.800Z</time>
      </trkpt>
      <trkpt lat="10.1563622890858" lon="-75.6834016521008">
        <ele>52.2851891</ele>
        <time>2019-09-10T14:53:02.900Z</time>
      </trkpt>
      <trkpt lat="10.1563640666692" lon="-75.6834037352171">
        <ele>52.2851891</ele>
        <time>2019-09-10T14:53:03.000Z</time>
      </trkpt>
      <trkpt lat="10.1563658648883" lon="-75.6834058149912">
        <ele>52.2851891</ele>
        <time>2019-09-10T14:53:03.100Z</time>
      </trkpt>
      <trkpt lat="10.1563676620651" lon="-75.6834078969934">
        <ele>52.1851891</ele>
        <time>2019-09-10T14:53:03.200Z</time>
      </trkpt>
      <trkpt lat="10.156369422348" lon="-75.6834099821984">
        <ele>52.1851891</ele>
        <time>2019-09-10T14:53:03.300Z</time>
      </trkpt>
      <trkpt lat="10.1563711467789" lon="-75.6834120626688">
        <ele>52.1851891</ele>
        <time>2019-09-10T14:53:03.400Z</time>
      </trkpt>
      <trkpt lat="10.1563728297302" lon="-75.6834141319988">
        <ele>52.2851891</ele>
        <time>2019-09-10T14:53:03.500Z</time>
      </trkpt>
      <trkpt lat="10.1563745247711" lon="-75.6834162220778">
        <ele>52.2851891</ele>
        <time>2019-09-10T14:53:03.600Z</time>
      </trkpt>
      <trkpt lat="10.1563778850457" lon="-75.6834204647613">
        <ele>52.2851891</ele>
        <time>2019-09-10T14:53:03.800Z</time>
      </trkpt>
      <trkpt lat="10.156379567997" lon="-75.683422576007">
        <ele>52.2851891</ele>
        <time>2019-09-10T14:53:03.900Z</time>
      </trkpt>
      <trkpt lat="10.15638126408" lon="-75.6834246759731">
        <ele>52.2851891</ele>
        <time>2019-09-10T14:53:04.000Z</time>
      </trkpt>
      <trkpt lat="10.1563829757961" lon="-75.6834267805346">
        <ele>52.2851891</ele>
        <time>2019-09-10T14:53:04.100Z</time>
      </trkpt>
      <trkpt lat="10.1563847191953" lon="-75.6834288869064">
        <ele>52.2851891</ele>
        <time>2019-09-10T14:53:04.200Z</time>
      </trkpt>
      <trkpt lat="10.1563864828131" lon="-75.683431021547">
        <ele>52.2851891</ele>
        <time>2019-09-10T14:53:04.300Z</time>
      </trkpt>
      <trkpt lat="10.1563882522674" lon="-75.6834331534025">
        <ele>52.2851891</ele>
        <time>2019-09-10T14:53:04.400Z</time>
      </trkpt>
      <trkpt lat="10.1563900135924" lon="-75.6834352897142">
        <ele>52.2851891</ele>
        <time>2019-09-10T14:53:04.500Z</time>
      </trkpt>
      <trkpt lat="10.1563917655376" lon="-75.6834374175313">
        <ele>52.3851891</ele>
        <time>2019-09-10T14:53:04.600Z</time>
      </trkpt>
      <trkpt lat="10.1563935010159" lon="-75.6834395385249">
        <ele>52.3851891</ele>
        <time>2019-09-10T14:53:04.700Z</time>
      </trkpt>
      <trkpt lat="10.1563952298242" lon="-75.6834416487958">
        <ele>52.3851891</ele>
        <time>2019-09-10T14:53:04.800Z</time>
      </trkpt>
      <trkpt lat="10.1563969632181" lon="-75.6834437514078">
        <ele>52.3851891</ele>
        <time>2019-09-10T14:53:04.900Z</time>
      </trkpt>
      <trkpt lat="10.1563987124536" lon="-75.683445848171">
        <ele>52.3851891</ele>
        <time>2019-09-10T14:53:05.000Z</time>
      </trkpt>
      <trkpt lat="10.1564004452222" lon="-75.6834479220964">
        <ele>52.3851891</ele>
        <time>2019-09-10T14:53:05.100Z</time>
      </trkpt>
      <trkpt lat="10.1564021769487" lon="-75.6834499921227">
        <ele>52.3851891</ele>
        <time>2019-09-10T14:53:05.200Z</time>
      </trkpt>
      <trkpt lat="10.1564038986699" lon="-75.6834520628452">
        <ele>52.3851891</ele>
        <time>2019-09-10T14:53:05.300Z</time>
      </trkpt>
      <trkpt lat="10.1564056418606" lon="-75.6834541501391">
        <ele>52.3851891</ele>
        <time>2019-09-10T14:53:05.400Z</time>
      </trkpt>
      <trkpt lat="10.1564073829669" lon="-75.6834562427247">
        <ele>52.3851891</ele>
        <time>2019-09-10T14:53:05.500Z</time>
      </trkpt>
      <trkpt lat="10.1564091280335" lon="-75.6834583555022">
        <ele>52.3851891</ele>
        <time>2019-09-10T14:53:05.600Z</time>
      </trkpt>
      <trkpt lat="10.1564108718495" lon="-75.6834605118666">
        <ele>52.3851891</ele>
        <time>2019-09-10T14:53:05.700Z</time>
      </trkpt>
      <trkpt lat="10.1564126240031" lon="-75.6834626726871">
        <ele>52.3851891</ele>
        <time>2019-09-10T14:53:05.800Z</time>
      </trkpt>
      <trkpt lat="10.1564143628166" lon="-75.6834648117839">
        <ele>52.3851891</ele>
        <time>2019-09-10T14:53:05.900Z</time>
      </trkpt>
      <trkpt lat="10.156416103506" lon="-75.6834669220549">
        <ele>52.3851891</ele>
        <time>2019-09-10T14:53:06.000Z</time>
      </trkpt>
      <trkpt lat="10.1564178302298" lon="-75.6834689972336">
        <ele>52.2851891</ele>
        <time>2019-09-10T14:53:06.100Z</time>
      </trkpt>
      <trkpt lat="10.15641954674" lon="-75.6834710570942">
        <ele>52.2851891</ele>
        <time>2019-09-10T14:53:06.200Z</time>
      </trkpt>
      <trkpt lat="10.1564212353192" lon="-75.6834731045611">
        <ele>52.2851891</ele>
        <time>2019-09-10T14:53:06.300Z</time>
      </trkpt>
      <trkpt lat="10.1564229491197" lon="-75.6834751672069">
        <ele>52.2851891</ele>
        <time>2019-09-10T14:53:06.400Z</time>
      </trkpt>
      <trkpt lat="10.1564246968961" lon="-75.6834772499053">
        <ele>52.3851891</ele>
        <time>2019-09-10T14:53:06.500Z</time>
      </trkpt>
      <trkpt lat="10.1564264703107" lon="-75.6834793348319">
        <ele>52.3851891</ele>
        <time>2019-09-10T14:53:06.600Z</time>
      </trkpt>
      <trkpt lat="10.1564282414325" lon="-75.6834814010982">
        <ele>52.3851891</ele>
        <time>2019-09-10T14:53:06.700Z</time>
      </trkpt>
      <trkpt lat="10.1564300113036" lon="-75.6834834535784">
        <ele>52.3851891</ele>
        <time>2019-09-10T14:53:06.800Z</time>
      </trkpt>
      <trkpt lat="10.1564317565786" lon="-75.6834855080081">
        <ele>52.3851891</ele>
        <time>2019-09-10T14:53:06.900Z</time>
      </trkpt>
      <trkpt lat="10.1564334958089" lon="-75.6834875578423">
        <ele>52.3851891</ele>
        <time>2019-09-10T14:53:07.000Z</time>
      </trkpt>
      <trkpt lat="10.1564352367068" lon="-75.6834895984858">
        <ele>52.3851891</ele>
        <time>2019-09-10T14:53:07.100Z</time>
      </trkpt>
      <trkpt lat="10.1564369874013" lon="-75.6834916310524">
        <ele>52.3851891</ele>
        <time>2019-09-10T14:53:07.200Z</time>
      </trkpt>
      <trkpt lat="10.1564387264232" lon="-75.6834936736454">
        <ele>52.3851891</ele>
        <time>2019-09-10T14:53:07.300Z</time>
      </trkpt>
      <trkpt lat="10.1564404541892" lon="-75.683495724733">
        <ele>52.3851891</ele>
        <time>2019-09-10T14:53:07.400Z</time>
      </trkpt>
      <trkpt lat="10.1564421940448" lon="-75.6834978234458">
        <ele>52.3851891</ele>
        <time>2019-09-10T14:53:07.500Z</time>
      </trkpt>
      <trkpt lat="10.1564439322329" lon="-75.6834999302354">
        <ele>52.3851891</ele>
        <time>2019-09-10T14:53:07.600Z</time>
      </trkpt>
      <trkpt lat="10.1564456654185" lon="-75.6835020075029">
        <ele>52.3851891</ele>
        <time>2019-09-10T14:53:07.700Z</time>
      </trkpt>
      <trkpt lat="10.1564473923507" lon="-75.6835040629074">
        <ele>52.3851891</ele>
        <time>2019-09-10T14:53:07.800Z</time>
      </trkpt>
      <trkpt lat="10.1564491023993" lon="-75.6835061038293">
        <ele>52.3851891</ele>
        <time>2019-09-10T14:53:07.900Z</time>
      </trkpt>
      <trkpt lat="10.1564508072369" lon="-75.6835081439157">
        <ele>52.3851891</ele>
        <time>2019-09-10T14:53:08.000Z</time>
      </trkpt>
      <trkpt lat="10.1564525193699" lon="-75.6835102094858">
        <ele>52.3851891</ele>
        <time>2019-09-10T14:53:08.100Z</time>
      </trkpt>
      <trkpt lat="10.1564542477613" lon="-75.6835122927413">
        <ele>52.3851891</ele>
        <time>2019-09-10T14:53:08.200Z</time>
      </trkpt>
      <trkpt lat="10.1564559692741" lon="-75.6835143807315">
        <ele>52.3851891</ele>
        <time>2019-09-10T14:53:08.300Z</time>
      </trkpt>
      <trkpt lat="10.1564593964582" lon="-75.6835185802459">
        <ele>52.4851891</ele>
        <time>2019-09-10T14:53:08.500Z</time>
      </trkpt>
      <trkpt lat="10.156461102338" lon="-75.6835206894028">
        <ele>52.4851891</ele>
        <time>2019-09-10T14:53:08.600Z</time>
      </trkpt>
      <trkpt lat="10.156462812595" lon="-75.6835228012056">
        <ele>52.4851891</ele>
        <time>2019-09-10T14:53:08.700Z</time>
      </trkpt>
      <trkpt lat="10.1564645324403" lon="-75.6835249038175">
        <ele>52.4851891</ele>
        <time>2019-09-10T14:53:08.800Z</time>
      </trkpt>
      <trkpt lat="10.1564662568713" lon="-75.6835269742616">
        <ele>52.3851891</ele>
        <time>2019-09-10T14:53:08.900Z</time>
      </trkpt>
      <trkpt lat="10.1564679823445" lon="-75.6835290335652">
        <ele>52.3851891</ele>
        <time>2019-09-10T14:53:09.000Z</time>
      </trkpt>
      <trkpt lat="10.1564697038574" lon="-75.6835310956539">
        <ele>52.3851891</ele>
        <time>2019-09-10T14:53:09.100Z</time>
      </trkpt>
      <trkpt lat="10.1564714232858" lon="-75.6835331693008">
        <ele>52.3851891</ele>
        <time>2019-09-10T14:53:09.200Z</time>
      </trkpt>
      <trkpt lat="10.1564731262474" lon="-75.6835352337568">
        <ele>52.3851891</ele>
        <time>2019-09-10T14:53:09.300Z</time>
      </trkpt>
      <trkpt lat="10.1564748310849" lon="-75.6835373110244">
        <ele>52.3851891</ele>
        <time>2019-09-10T14:53:09.400Z</time>
      </trkpt>
      <trkpt lat="10.1564765657295" lon="-75.6835394420443">
        <ele>52.3851891</ele>
        <time>2019-09-10T14:53:09.500Z</time>
      </trkpt>
      <trkpt lat="10.1564783226773" lon="-75.6835415965984">
        <ele>52.4851891</ele>
        <time>2019-09-10T14:53:09.600Z</time>
      </trkpt>
      <trkpt lat="10.1564800650342" lon="-75.6835437657742">
        <ele>52.4851891</ele>
        <time>2019-09-10T14:53:09.700Z</time>
      </trkpt>
      <trkpt lat="10.1564818069742" lon="-75.6835459296584">
        <ele>52.4851891</ele>
        <time>2019-09-10T14:53:09.800Z</time>
      </trkpt>
      <trkpt lat="10.1564835526662" lon="-75.6835480794778">
        <ele>52.4851891</ele>
        <time>2019-09-10T14:53:09.900Z</time>
      </trkpt>
      <trkpt lat="10.1564853119068" lon="-75.6835502216382">
        <ele>52.4851891</ele>
        <time>2019-09-10T14:53:10.000Z</time>
      </trkpt>
      <trkpt lat="10.1564870846961" lon="-75.6835523937384">
        <ele>52.4851891</ele>
        <time>2019-09-10T14:53:10.100Z</time>
      </trkpt>
      <trkpt lat="10.1564888579023" lon="-75.6835545672311">
        <ele>52.4851891</ele>
        <time>2019-09-10T14:53:10.200Z</time>
      </trkpt>
      <trkpt lat="10.1564906094306" lon="-75.6835566797302">
        <ele>52.4851891</ele>
        <time>2019-09-10T14:53:10.300Z</time>
      </trkpt>
      <trkpt lat="10.1564923532466" lon="-75.6835587760756">
        <ele>52.4851891</ele>
        <time>2019-09-10T14:53:10.400Z</time>
      </trkpt>
      <trkpt lat="10.1564940755932" lon="-75.6835608495833">
        <ele>52.4851891</ele>
        <time>2019-09-10T14:53:10.500Z</time>
      </trkpt>
      <trkpt lat="10.1564957983566" lon="-75.683562938966">
        <ele>52.4851891</ele>
        <time>2019-09-10T14:53:10.600Z</time>
      </trkpt>
      <trkpt lat="10.1564974902709" lon="-75.6835650412994">
        <ele>52.4851891</ele>
        <time>2019-09-10T14:53:10.700Z</time>
      </trkpt>
      <trkpt lat="10.1564991819766" lon="-75.683567163407">
        <ele>52.4851891</ele>
        <time>2019-09-10T14:53:10.800Z</time>
      </trkpt>
      <trkpt lat="10.1565008803525" lon="-75.683569294427">
        <ele>52.4851891</ele>
        <time>2019-09-10T14:53:10.900Z</time>
      </trkpt>
      <trkpt lat="10.1565025981134" lon="-75.6835714314349">
        <ele>52.4851891</ele>
        <time>2019-09-10T14:53:11.000Z</time>
      </trkpt>
      <trkpt lat="10.1565043300483" lon="-75.683573557581">
        <ele>52.4851891</ele>
        <time>2019-09-10T14:53:11.100Z</time>
      </trkpt>
      <trkpt lat="10.1565060738643" lon="-75.6835756799671">
        <ele>52.4851891</ele>
        <time>2019-09-10T14:53:11.200Z</time>
      </trkpt>
      <trkpt lat="10.1565078341471" lon="-75.6835778095945">
        <ele>52.4851891</ele>
        <time>2019-09-10T14:53:11.300Z</time>
      </trkpt>
      <trkpt lat="10.1565096006832" lon="-75.6835799489698">
        <ele>52.4851891</ele>
        <time>2019-09-10T14:53:11.400Z</time>
      </trkpt>
      <trkpt lat="10.1565131266683" lon="-75.6835842465198">
        <ele>52.4851891</ele>
        <time>2019-09-10T14:53:11.600Z</time>
      </trkpt>
      <trkpt lat="10.1565148811148" lon="-75.6835863931363">
        <ele>52.4851891</ele>
        <time>2019-09-10T14:53:11.700Z</time>
      </trkpt>
      <trkpt lat="10.1565166334768" lon="-75.6835885340434">
        <ele>52.4851891</ele>
        <time>2019-09-10T14:53:11.800Z</time>
      </trkpt>
      <trkpt lat="10.1565183645779" lon="-75.6835906497453">
        <ele>52.4851891</ele>
        <time>2019-09-10T14:53:11.900Z</time>
      </trkpt>
      <trkpt lat="10.1565201004732" lon="-75.6835927483188">
        <ele>52.4851891</ele>
        <time>2019-09-10T14:53:12.000Z</time>
      </trkpt>
      <trkpt lat="10.1565218570041" lon="-75.6835948523233">
        <ele>52.4851891</ele>
        <time>2019-09-10T14:53:12.100Z</time>
      </trkpt>
      <trkpt lat="10.1565236322946" lon="-75.6835969664934">
        <ele>52.4851891</ele>
        <time>2019-09-10T14:53:12.200Z</time>
      </trkpt>
      <trkpt lat="10.1565253986222" lon="-75.6835990782962">
        <ele>52.4851891</ele>
        <time>2019-09-10T14:53:12.300Z</time>
      </trkpt>
      <trkpt lat="10.1565271349344" lon="-75.6836011875924">
        <ele>52.4851891</ele>
        <time>2019-09-10T14:53:12.400Z</time>
      </trkpt>
      <trkpt lat="10.1565288368538" lon="-75.6836032631888">
        <ele>52.4851891</ele>
        <time>2019-09-10T14:53:12.500Z</time>
      </trkpt>
      <trkpt lat="10.1565305300186" lon="-75.6836053393423">
        <ele>52.4851891</ele>
        <time>2019-09-10T14:53:12.600Z</time>
      </trkpt>
      <trkpt lat="10.1565340487083" lon="-75.6836096641863">
        <ele>52.4851891</ele>
        <time>2019-09-10T14:53:12.800Z</time>
      </trkpt>
      <trkpt lat="10.1565357802263" lon="-75.6836118113598">
        <ele>52.4851891</ele>
        <time>2019-09-10T14:53:12.900Z</time>
      </trkpt>
      <trkpt lat="10.1565374934015" lon="-75.6836139368096">
        <ele>52.4851891</ele>
        <time>2019-09-10T14:53:13.000Z</time>
      </trkpt>
      <trkpt lat="10.1565391646801" lon="-75.6836160062788">
        <ele>52.4851891</ele>
        <time>2019-09-10T14:53:13.100Z</time>
      </trkpt>
      <trkpt lat="10.1565408188665" lon="-75.6836180607085">
        <ele>52.4851891</ele>
        <time>2019-09-10T14:53:13.200Z</time>
      </trkpt>
      <trkpt lat="10.1565424813906" lon="-75.6836201676374">
        <ele>52.4851891</ele>
        <time>2019-09-10T14:53:13.300Z</time>
      </trkpt>
      <trkpt lat="10.1565441605899" lon="-75.6836223079874">
        <ele>52.4851891</ele>
        <time>2019-09-10T14:53:13.400Z</time>
      </trkpt>
      <trkpt lat="10.1565458327023" lon="-75.6836244441598">
        <ele>52.4851891</ele>
        <time>2019-09-10T14:53:13.500Z</time>
      </trkpt>
      <trkpt lat="10.156547501688" lon="-75.6836265652927">
        <ele>52.4851891</ele>
        <time>2019-09-10T14:53:13.600Z</time>
      </trkpt>
      <trkpt lat="10.1565491285687" lon="-75.6836286479911">
        <ele>52.3851891</ele>
        <time>2019-09-10T14:53:13.700Z</time>
      </trkpt>
      <trkpt lat="10.1565507454442" lon="-75.6836307025601">
        <ele>52.3851891</ele>
        <time>2019-09-10T14:53:13.800Z</time>
      </trkpt>
      <trkpt lat="10.1565523927521" lon="-75.6836327682694">
        <ele>52.3851891</ele>
        <time>2019-09-10T14:53:13.900Z</time>
      </trkpt>
      <trkpt lat="10.1565540638223" lon="-75.6836348298011">
        <ele>52.3851891</ele>
        <time>2019-09-10T14:53:14.000Z</time>
      </trkpt>
      <trkpt lat="10.1565557386444" lon="-75.6836369021947">
        <ele>52.3851891</ele>
        <time>2019-09-10T14:53:14.100Z</time>
      </trkpt>
      <trkpt lat="10.1565574443157" lon="-75.6836390055029">
        <ele>52.3851891</ele>
        <time>2019-09-10T14:53:14.200Z</time>
      </trkpt>
      <trkpt lat="10.1565592156459" lon="-75.6836411244077">
        <ele>52.3851891</ele>
        <time>2019-09-10T14:53:14.300Z</time>
      </trkpt>
      <trkpt lat="10.1565610326246" lon="-75.6836432266019">
        <ele>52.3851891</ele>
        <time>2019-09-10T14:53:14.400Z</time>
      </trkpt>
      <trkpt lat="10.1565628960856" lon="-75.6836453332522">
        <ele>52.3851891</ele>
        <time>2019-09-10T14:53:14.500Z</time>
      </trkpt>
      <trkpt lat="10.1565647464149" lon="-75.6836474307117">
        <ele>52.4851891</ele>
        <time>2019-09-10T14:53:14.600Z</time>
      </trkpt>
      <trkpt lat="10.156566604248" lon="-75.683649522044">
        <ele>52.4851891</ele>
        <time>2019-09-10T14:53:14.700Z</time>
      </trkpt>
      <trkpt lat="10.1565684685428" lon="-75.6836516011218">
        <ele>52.4851891</ele>
        <time>2019-09-10T14:53:14.800Z</time>
      </trkpt>
      <trkpt lat="10.1565703194974" lon="-75.6836536554123">
        <ele>52.4851891</ele>
        <time>2019-09-10T14:53:14.900Z</time>
      </trkpt>
      <trkpt lat="10.1565721541936" lon="-75.6836557002334">
        <ele>52.4851891</ele>
        <time>2019-09-10T14:53:15.000Z</time>
      </trkpt>
      <trkpt lat="10.1565739943093" lon="-75.683657787945">
        <ele>52.4851891</ele>
        <time>2019-09-10T14:53:15.100Z</time>
      </trkpt>
      <trkpt lat="10.1565758321321" lon="-75.6836598934813">
        <ele>52.4851891</ele>
        <time>2019-09-10T14:53:15.200Z</time>
      </trkpt>
      <trkpt lat="10.1565776618257" lon="-75.6836620458073">
        <ele>52.4851891</ele>
        <time>2019-09-10T14:53:15.300Z</time>
      </trkpt>
      <trkpt lat="10.156579480472" lon="-75.6836641850433">
        <ele>52.4851891</ele>
        <time>2019-09-10T14:53:15.400Z</time>
      </trkpt>
      <trkpt lat="10.1565812384619" lon="-75.6836662983779">
        <ele>52.4851891</ele>
        <time>2019-09-10T14:53:15.500Z</time>
      </trkpt>
      <trkpt lat="10.1565829678955" lon="-75.6836683805193">
        <ele>52.4851891</ele>
        <time>2019-09-10T14:53:15.600Z</time>
      </trkpt>
      <trkpt lat="10.1565846602266" lon="-75.6836704648888">
        <ele>52.4851891</ele>
        <time>2019-09-10T14:53:15.700Z</time>
      </trkpt>
      <trkpt lat="10.1565863561012" lon="-75.6836725492584">
        <ele>52.4851891</ele>
        <time>2019-09-10T14:53:15.800Z</time>
      </trkpt>
      <trkpt lat="10.1565880190422" lon="-75.6836746308428">
        <ele>52.4851891</ele>
        <time>2019-09-10T14:53:15.900Z</time>
      </trkpt>
      <trkpt lat="10.1565897057454" lon="-75.6836767252387">
        <ele>52.4851891</ele>
        <time>2019-09-10T14:53:16.000Z</time>
      </trkpt>
      <trkpt lat="10.1565914101661" lon="-75.6836788349526">
        <ele>52.4851891</ele>
        <time>2019-09-10T14:53:16.100Z</time>
      </trkpt>
      <trkpt lat="10.1565931529399" lon="-75.6836809360328">
        <ele>52.4851891</ele>
        <time>2019-09-10T14:53:16.200Z</time>
      </trkpt>
      <trkpt lat="10.156594913848" lon="-75.6836830231874">
        <ele>52.4851891</ele>
        <time>2019-09-10T14:53:16.300Z</time>
      </trkpt>
      <trkpt lat="10.1565966755899" lon="-75.6836850983661">
        <ele>52.4851891</ele>
        <time>2019-09-10T14:53:16.400Z</time>
      </trkpt>
      <trkpt lat="10.1565984281604" lon="-75.6836871754943">
        <ele>52.4851891</ele>
        <time>2019-09-10T14:53:16.500Z</time>
      </trkpt>
      <trkpt lat="10.1566001776043" lon="-75.6836892431533">
        <ele>52.4851891</ele>
        <time>2019-09-10T14:53:16.600Z</time>
      </trkpt>
      <trkpt lat="10.1566019043282" lon="-75.6836912601233">
        <ele>52.4851891</ele>
        <time>2019-09-10T14:53:16.700Z</time>
      </trkpt>
      <trkpt lat="10.1566036395981" lon="-75.6836932592688">
        <ele>52.4851891</ele>
        <time>2019-09-10T14:53:16.800Z</time>
      </trkpt>
      <trkpt lat="10.1566053494383" lon="-75.6836952197013">
        <ele>52.4851891</ele>
        <time>2019-09-10T14:53:16.900Z</time>
      </trkpt>
      <trkpt lat="10.1566070540674" lon="-75.683697185704">
        <ele>52.4851891</ele>
        <time>2019-09-10T14:53:17.000Z</time>
      </trkpt>
      <trkpt lat="10.1566087978834" lon="-75.6836991937618">
        <ele>52.4851891</ele>
        <time>2019-09-10T14:53:17.100Z</time>
      </trkpt>
      <trkpt lat="10.15661232366" lon="-75.683703256667">
        <ele>52.4851891</ele>
        <time>2019-09-10T14:53:17.300Z</time>
      </trkpt>
      <trkpt lat="10.1566140726871" lon="-75.6837052819924">
        <ele>52.4851891</ele>
        <time>2019-09-10T14:53:17.400Z</time>
      </trkpt>
      <trkpt lat="10.1566158144186" lon="-75.6837073268135">
        <ele>52.4851891</ele>
        <time>2019-09-10T14:53:17.500Z</time>
      </trkpt>
      <trkpt lat="10.1566175398919" lon="-75.6837093760908">
        <ele>52.4851891</ele>
        <time>2019-09-10T14:53:17.600Z</time>
      </trkpt>
      <trkpt lat="10.1566192536924" lon="-75.6837114214689">
        <ele>52.4851891</ele>
        <time>2019-09-10T14:53:17.700Z</time>
      </trkpt>
      <trkpt lat="10.1566209606143" lon="-75.6837134573776">
        <ele>52.4851891</ele>
        <time>2019-09-10T14:53:17.800Z</time>
      </trkpt>
      <trkpt lat="10.1566226496104" lon="-75.6837154743477">
        <ele>52.4851891</ele>
        <time>2019-09-10T14:53:17.900Z</time>
      </trkpt>
      <trkpt lat="10.1566243354798" lon="-75.683717495774">
        <ele>52.4851891</ele>
        <time>2019-09-10T14:53:18.000Z</time>
      </trkpt>
      <trkpt lat="10.1566260090513" lon="-75.6837195263911">
        <ele>52.4851891</ele>
        <time>2019-09-10T14:53:18.100Z</time>
      </trkpt>
      <trkpt lat="10.1566276792877" lon="-75.6837215751113">
        <ele>52.4851891</ele>
        <time>2019-09-10T14:53:18.200Z</time>
      </trkpt>
      <trkpt lat="10.1566293441046" lon="-75.6837236436057">
        <ele>52.4851891</ele>
        <time>2019-09-10T14:53:18.300Z</time>
      </trkpt>
      <trkpt lat="10.1566310218448" lon="-75.6837257151638">
        <ele>52.4851891</ele>
        <time>2019-09-10T14:53:18.400Z</time>
      </trkpt>
      <trkpt lat="10.1566327112578" lon="-75.6837278466015">
        <ele>52.4851891</ele>
        <time>2019-09-10T14:53:18.500Z</time>
      </trkpt>
      <trkpt lat="10.1566344092168" lon="-75.6837299905722">
        <ele>52.4851891</ele>
        <time>2019-09-10T14:53:18.600Z</time>
      </trkpt>
      <trkpt lat="10.1566360792447" lon="-75.6837321275802">
        <ele>52.4851891</ele>
        <time>2019-09-10T14:53:18.700Z</time>
      </trkpt>
      <trkpt lat="10.1566377486474" lon="-75.683734247599">
        <ele>52.4851891</ele>
        <time>2019-09-10T14:53:18.800Z</time>
      </trkpt>
      <trkpt lat="10.1566394005409" lon="-75.6837363676178">
        <ele>52.4851891</ele>
        <time>2019-09-10T14:53:18.900Z</time>
      </trkpt>
      <trkpt lat="10.1566410709858" lon="-75.6837384820664">
        <ele>52.4851891</ele>
        <time>2019-09-10T14:53:19.000Z</time>
      </trkpt>
      <trkpt lat="10.1566428002109" lon="-75.6837406179603">
        <ele>52.4851891</ele>
        <time>2019-09-10T14:53:19.100Z</time>
      </trkpt>
      <trkpt lat="10.1566445594515" lon="-75.6837427555252">
        <ele>52.4851891</ele>
        <time>2019-09-10T14:53:19.200Z</time>
      </trkpt>
      <trkpt lat="10.1566463163993" lon="-75.6837449075727">
        <ele>52.4851891</ele>
        <time>2019-09-10T14:53:19.300Z</time>
      </trkpt>
      <trkpt lat="10.1566480625081" lon="-75.68374705405">
        <ele>52.4851891</ele>
        <time>2019-09-10T14:53:19.400Z</time>
      </trkpt>
      <trkpt lat="10.1566497950683" lon="-75.683749206376">
        <ele>52.4851891</ele>
        <time>2019-09-10T14:53:19.500Z</time>
      </trkpt>
      <trkpt lat="10.1566515086604" lon="-75.6837513520177">
        <ele>52.4851891</ele>
        <time>2019-09-10T14:53:19.600Z</time>
      </trkpt>
      <trkpt lat="10.1566532195428" lon="-75.6837534809489">
        <ele>52.4851891</ele>
        <time>2019-09-10T14:53:19.700Z</time>
      </trkpt>
      <trkpt lat="10.1566549325095" lon="-75.6837556015247">
        <ele>52.4851891</ele>
        <time>2019-09-10T14:53:19.800Z</time>
      </trkpt>
      <trkpt lat="10.1566566398484" lon="-75.6837577223791">
        <ele>52.4851891</ele>
        <time>2019-09-10T14:53:19.900Z</time>
      </trkpt>
      <trkpt lat="10.156658355108" lon="-75.68375984574">
        <ele>52.4851891</ele>
        <time>2019-09-10T14:53:20.000Z</time>
      </trkpt>
      <trkpt lat="10.1566600661988" lon="-75.6837619507193">
        <ele>52.4851891</ele>
        <time>2019-09-10T14:53:20.100Z</time>
      </trkpt>
      <trkpt lat="10.1566617893791" lon="-75.6837640551415">
        <ele>52.4851891</ele>
        <time>2019-09-10T14:53:20.200Z</time>
      </trkpt>
      <trkpt lat="10.1566634963011" lon="-75.6837661698686">
        <ele>52.4851891</ele>
        <time>2019-09-10T14:53:20.300Z</time>
      </trkpt>
      <trkpt lat="10.1566652030146" lon="-75.6837682962932">
        <ele>52.4851891</ele>
        <time>2019-09-10T14:53:20.400Z</time>
      </trkpt>
      <trkpt lat="10.1566668801295" lon="-75.6837704461126">
        <ele>52.4851891</ele>
        <time>2019-09-10T14:53:20.500Z</time>
      </trkpt>
      <trkpt lat="10.1566685630808" lon="-75.6837725939824">
        <ele>52.4851891</ele>
        <time>2019-09-10T14:53:20.600Z</time>
      </trkpt>
      <trkpt lat="10.156670256871" lon="-75.6837747312689">
        <ele>52.4851891</ele>
        <time>2019-09-10T14:53:20.700Z</time>
      </trkpt>
      <trkpt lat="10.1566719719222" lon="-75.683776858529">
        <ele>52.4851891</ele>
        <time>2019-09-10T14:53:20.800Z</time>
      </trkpt>
      <trkpt lat="10.1566736834298" lon="-75.6837789908022">
        <ele>52.4851891</ele>
        <time>2019-09-10T14:53:20.900Z</time>
      </trkpt>
      <trkpt lat="10.156675410779" lon="-75.6837811225185">
        <ele>52.4851891</ele>
        <time>2019-09-10T14:53:21.000Z</time>
      </trkpt>
      <trkpt lat="10.1566771104056" lon="-75.6837832280548">
        <ele>52.4851891</ele>
        <time>2019-09-10T14:53:21.100Z</time>
      </trkpt>
      <trkpt lat="10.1566788210795" lon="-75.6837853185515">
        <ele>52.4851891</ele>
        <time>2019-09-10T14:53:21.200Z</time>
      </trkpt>
      <trkpt lat="10.1566822751525" lon="-75.6837894647312">
        <ele>52.4851891</ele>
        <time>2019-09-10T14:53:21.400Z</time>
      </trkpt>
      <trkpt lat="10.1566840333509" lon="-75.6837915655328">
        <ele>52.4851891</ele>
        <time>2019-09-10T14:53:21.500Z</time>
      </trkpt>
      <trkpt lat="10.1566858123934" lon="-75.6837936699551">
        <ele>52.4851891</ele>
        <time>2019-09-10T14:53:21.600Z</time>
      </trkpt>
      <trkpt lat="10.1566876074858" lon="-75.6837957782765">
        <ele>52.4851891</ele>
        <time>2019-09-10T14:53:21.700Z</time>
      </trkpt>
      <trkpt lat="10.156689401953" lon="-75.6837978776856">
        <ele>52.4851891</ele>
        <time>2019-09-10T14:53:21.800Z</time>
      </trkpt>
      <trkpt lat="10.1566912014227" lon="-75.6837999801583">
        <ele>52.4851891</ele>
        <time>2019-09-10T14:53:21.900Z</time>
      </trkpt>
      <trkpt lat="10.1566929948476" lon="-75.6838020781748">
        <ele>52.4851891</ele>
        <time>2019-09-10T14:53:22.000Z</time>
      </trkpt>
      <trkpt lat="10.1566948218315" lon="-75.6838041544675">
        <ele>52.4851891</ele>
        <time>2019-09-10T14:53:22.100Z</time>
      </trkpt>
      <trkpt lat="10.1566966483985" lon="-75.6838062237975">
        <ele>52.4851891</ele>
        <time>2019-09-10T14:53:22.200Z</time>
      </trkpt>
      <trkpt lat="10.1566984743401" lon="-75.6838083000902">
        <ele>52.4851891</ele>
        <time>2019-09-10T14:53:22.300Z</time>
      </trkpt>
      <trkpt lat="10.1567002794378" lon="-75.6838103777755">
        <ele>52.4851891</ele>
        <time>2019-09-10T14:53:22.400Z</time>
      </trkpt>
      <trkpt lat="10.1567020465991" lon="-75.6838124699433">
        <ele>52.4851891</ele>
        <time>2019-09-10T14:53:22.500Z</time>
      </trkpt>
      <trkpt lat="10.1567037970852" lon="-75.6838145607186">
        <ele>52.4851891</ele>
        <time>2019-09-10T14:53:22.600Z</time>
      </trkpt>
      <trkpt lat="10.156705546946" lon="-75.6838166698755">
        <ele>52.4851891</ele>
        <time>2019-09-10T14:53:22.700Z</time>
      </trkpt>
      <trkpt lat="10.1567073063951" lon="-75.6838187703986">
        <ele>52.4851891</ele>
        <time>2019-09-10T14:53:22.800Z</time>
      </trkpt>
      <trkpt lat="10.156709075224" lon="-75.6838208870753">
        <ele>52.4851891</ele>
        <time>2019-09-10T14:53:22.900Z</time>
      </trkpt>
      <trkpt lat="10.1567108377996" lon="-75.683823002638">
        <ele>52.4851891</ele>
        <time>2019-09-10T14:53:23.000Z</time>
      </trkpt>
      <trkpt lat="10.1567126035019" lon="-75.683825156078">
        <ele>52.4851891</ele>
        <time>2019-09-10T14:53:23.100Z</time>
      </trkpt>
      <trkpt lat="10.1567143652438" lon="-75.6838273033908">
        <ele>52.4851891</ele>
        <time>2019-09-10T14:53:23.200Z</time>
      </trkpt>
      <trkpt lat="10.1567160909255" lon="-75.683829420903">
        <ele>52.3851891</ele>
        <time>2019-09-10T14:53:23.300Z</time>
      </trkpt>
      <trkpt lat="10.1567178107708" lon="-75.6838315228187">
        <ele>52.3851891</ele>
        <time>2019-09-10T14:53:23.400Z</time>
      </trkpt>
      <trkpt lat="10.156719529157" lon="-75.6838336094163">
        <ele>52.3851891</ele>
        <time>2019-09-10T14:53:23.500Z</time>
      </trkpt>
      <trkpt lat="10.156721258799" lon="-75.6838357026981">
        <ele>52.3851891</ele>
        <time>2019-09-10T14:53:23.600Z</time>
      </trkpt>
      <trkpt lat="10.156722965721" lon="-75.6838377736992">
        <ele>52.4851891</ele>
        <time>2019-09-10T14:53:23.700Z</time>
      </trkpt>
      <trkpt lat="10.1567246728514" lon="-75.6838398435862">
        <ele>52.4851891</ele>
        <time>2019-09-10T14:53:23.800Z</time>
      </trkpt>
      <trkpt lat="10.1567263964486" lon="-75.6838419680611">
        <ele>52.4851891</ele>
        <time>2019-09-10T14:53:23.900Z</time>
      </trkpt>
      <trkpt lat="10.156728137138" lon="-75.6838441123103">
        <ele>52.4851891</ele>
        <time>2019-09-10T14:53:24.000Z</time>
      </trkpt>
      <trkpt lat="10.1567298553158" lon="-75.6838462537744">
        <ele>52.4851891</ele>
        <time>2019-09-10T14:53:24.100Z</time>
      </trkpt>
      <trkpt lat="10.1567315655728" lon="-75.6838483790849">
        <ele>52.4851891</ele>
        <time>2019-09-10T14:53:24.200Z</time>
      </trkpt>
      <trkpt lat="10.1567332779142" lon="-75.683850518321">
        <ele>52.4851891</ele>
        <time>2019-09-10T14:53:24.300Z</time>
      </trkpt>
      <trkpt lat="10.1567350000524" lon="-75.6838526475306">
        <ele>52.4851891</ele>
        <time>2019-09-10T14:53:24.400Z</time>
      </trkpt>
      <trkpt lat="10.1567367321957" lon="-75.6838547942864">
        <ele>52.4851891</ele>
        <time>2019-09-10T14:53:24.500Z</time>
      </trkpt>
      <trkpt lat="10.1567384739273" lon="-75.6838569335224">
        <ele>52.4851891</ele>
        <time>2019-09-10T14:53:24.600Z</time>
      </trkpt>
      <trkpt lat="10.1567402131576" lon="-75.6838590680238">
        <ele>52.4851891</ele>
        <time>2019-09-10T14:53:24.700Z</time>
      </trkpt>
      <trkpt lat="10.1567419461347" lon="-75.6838611833079">
        <ele>52.4851891</ele>
        <time>2019-09-10T14:53:24.800Z</time>
      </trkpt>
      <trkpt lat="10.1567436828637" lon="-75.6838632841095">
        <ele>52.4851891</ele>
        <time>2019-09-10T14:53:24.900Z</time>
      </trkpt>
      <trkpt lat="10.1567454235531" lon="-75.6838653690361">
        <ele>52.3851891</ele>
        <time>2019-09-10T14:53:25.000Z</time>
      </trkpt>
      <trkpt lat="10.1567471677859" lon="-75.683867450899">
        <ele>52.3851891</ele>
        <time>2019-09-10T14:53:25.100Z</time>
      </trkpt>
      <trkpt lat="10.1567489188974" lon="-75.6838695313694">
        <ele>52.3851891</ele>
        <time>2019-09-10T14:53:25.200Z</time>
      </trkpt>
      <trkpt lat="10.1567506779295" lon="-75.683871618524">
        <ele>52.4851891</ele>
        <time>2019-09-10T14:53:25.300Z</time>
      </trkpt>
      <trkpt lat="10.1567524400883" lon="-75.6838737126414">
        <ele>52.4851891</ele>
        <time>2019-09-10T14:53:25.400Z</time>
      </trkpt>
      <trkpt lat="10.1567541720232" lon="-75.6838757883771">
        <ele>52.4851891</ele>
        <time>2019-09-10T14:53:25.500Z</time>
      </trkpt>
      <trkpt lat="10.1567558904094" lon="-75.6838778719111">
        <ele>52.4851891</ele>
        <time>2019-09-10T14:53:25.600Z</time>
      </trkpt>
      <trkpt lat="10.1567576054606" lon="-75.6838799972216">
        <ele>52.4851891</ele>
        <time>2019-09-10T14:53:25.700Z</time>
      </trkpt>
      <trkpt lat="10.1567593157176" lon="-75.6838821378502">
        <ele>52.4851891</ele>
        <time>2019-09-10T14:53:25.800Z</time>
      </trkpt>
      <trkpt lat="10.156762712261" lon="-75.6838864023967">
        <ele>52.4851891</ele>
        <time>2019-09-10T14:53:26.000Z</time>
      </trkpt>
      <trkpt lat="10.156766072744" lon="-75.6838906454979">
        <ele>52.3851891</ele>
        <time>2019-09-10T14:53:26.200Z</time>
      </trkpt>
      <trkpt lat="10.1567677557995" lon="-75.6838927435145">
        <ele>52.3851891</ele>
        <time>2019-09-10T14:53:26.300Z</time>
      </trkpt>
      <trkpt lat="10.1567694494855" lon="-75.6838948340112">
        <ele>52.3851891</ele>
        <time>2019-09-10T14:53:26.400Z</time>
      </trkpt>
      <trkpt lat="10.1567711399407" lon="-75.6838968877446">
        <ele>52.4851891</ele>
        <time>2019-09-10T14:53:26.500Z</time>
      </trkpt>
      <trkpt lat="10.1567728483217" lon="-75.6838989375789">
        <ele>52.4851891</ele>
        <time>2019-09-10T14:53:26.600Z</time>
      </trkpt>
      <trkpt lat="10.1567745527424" lon="-75.68390099549">
        <ele>52.4851891</ele>
        <time>2019-09-10T14:53:26.700Z</time>
      </trkpt>
      <trkpt lat="10.1567762468453" lon="-75.683903067048">
        <ele>52.4851891</ele>
        <time>2019-09-10T14:53:26.800Z</time>
      </trkpt>
      <trkpt lat="10.1567779592909" lon="-75.6839051792686">
        <ele>52.4851891</ele>
        <time>2019-09-10T14:53:26.900Z</time>
      </trkpt>
      <trkpt lat="10.1567796754885" lon="-75.683907303465">
        <ele>52.4851891</ele>
        <time>2019-09-10T14:53:27.000Z</time>
      </trkpt>
      <trkpt lat="10.1567813442658" lon="-75.6839094017601">
        <ele>52.3851891</ele>
        <time>2019-09-10T14:53:27.100Z</time>
      </trkpt>
      <trkpt lat="10.1567830056434" lon="-75.6839114939279">
        <ele>52.3851891</ele>
        <time>2019-09-10T14:53:27.200Z</time>
      </trkpt>
      <trkpt lat="10.1567846826542" lon="-75.683913622302">
        <ele>52.3851891</ele>
        <time>2019-09-10T14:53:27.300Z</time>
      </trkpt>
      <trkpt lat="10.1567863853031" lon="-75.6839157607025">
        <ele>52.3851891</ele>
        <time>2019-09-10T14:53:27.400Z</time>
      </trkpt>
      <trkpt lat="10.1567880997289" lon="-75.6839178787717">
        <ele>52.3851891</ele>
        <time>2019-09-10T14:53:27.500Z</time>
      </trkpt>
      <trkpt lat="10.1567898241599" lon="-75.6839199840295">
        <ele>52.3851891</ele>
        <time>2019-09-10T14:53:27.600Z</time>
      </trkpt>
      <trkpt lat="10.1567915745418" lon="-75.6839221068334">
        <ele>52.3851891</ele>
        <time>2019-09-10T14:53:27.700Z</time>
      </trkpt>
      <trkpt lat="10.1567933530632" lon="-75.6839242413348">
        <ele>52.2851891</ele>
        <time>2019-09-10T14:53:27.800Z</time>
      </trkpt>
      <trkpt lat="10.1567951451333" lon="-75.6839263566189">
        <ele>52.2851891</ele>
        <time>2019-09-10T14:53:27.900Z</time>
      </trkpt>
      <trkpt lat="10.1567969360569" lon="-75.6839284666114">
        <ele>52.2851891</ele>
        <time>2019-09-10T14:53:28.000Z</time>
      </trkpt>
      <trkpt lat="10.1567987302113" lon="-75.6839305922004">
        <ele>52.2851891</ele>
        <time>2019-09-10T14:53:28.100Z</time>
      </trkpt>
      <trkpt lat="10.15680052447" lon="-75.68393272141">
        <ele>52.2851891</ele>
        <time>2019-09-10T14:53:28.200Z</time>
      </trkpt>
      <trkpt lat="10.1568023452007" lon="-75.683934831681">
        <ele>52.2851891</ele>
        <time>2019-09-10T14:53:28.300Z</time>
      </trkpt>
      <trkpt lat="10.1568041840657" lon="-75.6839369333182">
        <ele>52.2851891</ele>
        <time>2019-09-10T14:53:28.400Z</time>
      </trkpt>
      <trkpt lat="10.1568060284544" lon="-75.683939054451">
        <ele>52.2851891</ele>
        <time>2019-09-10T14:53:28.500Z</time>
      </trkpt>
      <trkpt lat="10.1568078622126" lon="-75.6839411817111">
        <ele>52.2851891</ele>
        <time>2019-09-10T14:53:28.600Z</time>
      </trkpt>
      <trkpt lat="10.1568096581388" lon="-75.683943303958">
        <ele>52.2851891</ele>
        <time>2019-09-10T14:53:28.700Z</time>
      </trkpt>
      <trkpt lat="10.1568114467696" lon="-75.6839454184066">
        <ele>52.2851891</ele>
        <time>2019-09-10T14:53:28.800Z</time>
      </trkpt>
      <trkpt lat="10.1568131817269" lon="-75.6839475203223">
        <ele>52.2851891</ele>
        <time>2019-09-10T14:53:28.900Z</time>
      </trkpt>
      <trkpt lat="10.1568148992793" lon="-75.6839496169462">
        <ele>52.2851891</ele>
        <time>2019-09-10T14:53:29.000Z</time>
      </trkpt>
      <trkpt lat="10.1568166139136" lon="-75.6839517428138">
        <ele>52.2851891</ele>
        <time>2019-09-10T14:53:29.100Z</time>
      </trkpt>
      <trkpt lat="10.1568183467864" lon="-75.6839538770366">
        <ele>52.2851891</ele>
        <time>2019-09-10T14:53:29.200Z</time>
      </trkpt>
      <trkpt lat="10.156820084245" lon="-75.6839560090313">
        <ele>52.2851891</ele>
        <time>2019-09-10T14:53:29.300Z</time>
      </trkpt>
      <trkpt lat="10.1568218297285" lon="-75.6839581312782">
        <ele>52.2851891</ele>
        <time>2019-09-10T14:53:29.400Z</time>
      </trkpt>
      <trkpt lat="10.1568235826117" lon="-75.6839602471194">
        <ele>52.2851891</ele>
        <time>2019-09-10T14:53:29.500Z</time>
      </trkpt>
      <trkpt lat="10.1568253314303" lon="-75.6839623612895">
        <ele>52.2851891</ele>
        <time>2019-09-10T14:53:29.600Z</time>
      </trkpt>
      <trkpt lat="10.1568270724323" lon="-75.6839645024751">
        <ele>52.2851891</ele>
        <time>2019-09-10T14:53:29.700Z</time>
      </trkpt>
      <trkpt lat="10.1568288130175" lon="-75.6839666486739">
        <ele>52.2851891</ele>
        <time>2019-09-10T14:53:29.800Z</time>
      </trkpt>
      <trkpt lat="10.1568305850772" lon="-75.6839688076841">
        <ele>52.2851891</ele>
        <time>2019-09-10T14:53:29.900Z</time>
      </trkpt>
      <trkpt lat="10.1568323679759" lon="-75.6839709558324">
        <ele>52.2851891</ele>
        <time>2019-09-10T14:53:30.000Z</time>
      </trkpt>
      <trkpt lat="10.1568341577531" lon="-75.6839730783578">
        <ele>52.2851891</ele>
        <time>2019-09-10T14:53:30.100Z</time>
      </trkpt>
      <trkpt lat="10.1568359456543" lon="-75.6839751955916">
        <ele>52.2851891</ele>
        <time>2019-09-10T14:53:30.200Z</time>
      </trkpt>
      <trkpt lat="10.1568377240715" lon="-75.6839773284218">
        <ele>52.3851891</ele>
        <time>2019-09-10T14:53:30.300Z</time>
      </trkpt>
      <trkpt lat="10.1568394992578" lon="-75.6839794632017">
        <ele>52.3851891</ele>
        <time>2019-09-10T14:53:30.400Z</time>
      </trkpt>
      <trkpt lat="10.1568412725682" lon="-75.683981583499">
        <ele>52.3851891</ele>
        <time>2019-09-10T14:53:30.500Z</time>
      </trkpt>
      <trkpt lat="10.1568430419182" lon="-75.6839836890353">
        <ele>52.3851891</ele>
        <time>2019-09-10T14:53:30.600Z</time>
      </trkpt>
      <trkpt lat="10.1568465106863" lon="-75.683987862509">
        <ele>52.3851891</ele>
        <time>2019-09-10T14:53:30.800Z</time>
      </trkpt>
      <trkpt lat="10.1568482407452" lon="-75.6839899752866">
        <ele>52.3851891</ele>
        <time>2019-09-10T14:53:30.900Z</time>
      </trkpt>
      <trkpt lat="10.1568499771615" lon="-75.6839920922418">
        <ele>52.3851891</ele>
        <time>2019-09-10T14:53:31.000Z</time>
      </trkpt>
      <trkpt lat="10.1568516898156" lon="-75.6839941757758">
        <ele>52.3851891</ele>
        <time>2019-09-10T14:53:31.100Z</time>
      </trkpt>
      <trkpt lat="10.156853404033" lon="-75.6839962437132">
        <ele>52.3851891</ele>
        <time>2019-09-10T14:53:31.200Z</time>
      </trkpt>
      <trkpt lat="10.1568550955304" lon="-75.6839982918764">
        <ele>52.3851891</ele>
        <time>2019-09-10T14:53:31.300Z</time>
      </trkpt>
      <trkpt lat="10.156856795678" lon="-75.6840003456098">
        <ele>52.3851891</ele>
        <time>2019-09-10T14:53:31.400Z</time>
      </trkpt>
      <trkpt lat="10.1568584996818" lon="-75.6840023971152">
        <ele>52.3851891</ele>
        <time>2019-09-10T14:53:31.500Z</time>
      </trkpt>
      <trkpt lat="10.1568602129612" lon="-75.6840044653311">
        <ele>52.3851891</ele>
        <time>2019-09-10T14:53:31.600Z</time>
      </trkpt>
      <trkpt lat="10.1568618959125" lon="-75.6840065502577">
        <ele>52.3851891</ele>
        <time>2019-09-10T14:53:31.700Z</time>
      </trkpt>
      <trkpt lat="10.1568635793849" lon="-75.6840086466031">
        <ele>52.3851891</ele>
        <time>2019-09-10T14:53:31.800Z</time>
      </trkpt>
      <trkpt lat="10.1568652718202" lon="-75.6840107462907">
        <ele>52.3851891</ele>
        <time>2019-09-10T14:53:31.900Z</time>
      </trkpt>
      <trkpt lat="10.1568669811393" lon="-75.6840128390155">
        <ele>52.3851891</ele>
        <time>2019-09-10T14:53:32.000Z</time>
      </trkpt>
      <trkpt lat="10.156868686081" lon="-75.6840149239421">
        <ele>52.3851891</ele>
        <time>2019-09-10T14:53:32.100Z</time>
      </trkpt>
      <trkpt lat="10.1568703931072" lon="-75.6840170002348">
        <ele>52.3851891</ele>
        <time>2019-09-10T14:53:32.200Z</time>
      </trkpt>
      <trkpt lat="10.1568720890861" lon="-75.6840190556393">
        <ele>52.3851891</ele>
        <time>2019-09-10T14:53:32.300Z</time>
      </trkpt>
      <trkpt lat="10.1568737957996" lon="-75.6840210993464">
        <ele>52.3851891</ele>
        <time>2019-09-10T14:53:32.400Z</time>
      </trkpt>
      <trkpt lat="10.1568754860463" lon="-75.6840231399898">
        <ele>52.3851891</ele>
        <time>2019-09-10T14:53:32.500Z</time>
      </trkpt>
      <trkpt lat="10.1568771750423" lon="-75.6840251948372">
        <ele>52.3851891</ele>
        <time>2019-09-10T14:53:32.600Z</time>
      </trkpt>
      <trkpt lat="10.1568788758153" lon="-75.6840272828274">
        <ele>52.3851891</ele>
        <time>2019-09-10T14:53:32.700Z</time>
      </trkpt>
      <trkpt lat="10.1568805895116" lon="-75.6840293752737">
        <ele>52.3851891</ele>
        <time>2019-09-10T14:53:32.800Z</time>
      </trkpt>
      <trkpt lat="10.1568840524434" lon="-75.684033535936">
        <ele>52.3851891</ele>
        <time>2019-09-10T14:53:33.000Z</time>
      </trkpt>
      <trkpt lat="10.1568857746857" lon="-75.6840356186344">
        <ele>52.3851891</ele>
        <time>2019-09-10T14:53:33.100Z</time>
      </trkpt>
      <trkpt lat="10.1568874927593" lon="-75.6840376999404">
        <ele>52.3851891</ele>
        <time>2019-09-10T14:53:33.200Z</time>
      </trkpt>
      <trkpt lat="10.1568891975968" lon="-75.6840397960073">
        <ele>52.3851891</ele>
        <time>2019-09-10T14:53:33.300Z</time>
      </trkpt>
      <trkpt lat="10.156890901288" lon="-75.6840418895677">
        <ele>52.3851891</ele>
        <time>2019-09-10T14:53:33.400Z</time>
      </trkpt>
      <trkpt lat="10.1568926066466" lon="-75.6840439708736">
        <ele>52.3851891</ele>
        <time>2019-09-10T14:53:33.500Z</time>
      </trkpt>
      <trkpt lat="10.1568943150277" lon="-75.6840460482804">
        <ele>52.3851891</ele>
        <time>2019-09-10T14:53:33.600Z</time>
      </trkpt>
      <trkpt lat="10.1568960098601" lon="-75.6840481462969">
        <ele>52.4851891</ele>
        <time>2019-09-10T14:53:33.700Z</time>
      </trkpt>
      <trkpt lat="10.1568977079233" lon="-75.6840502482125">
        <ele>52.4851891</ele>
        <time>2019-09-10T14:53:33.800Z</time>
      </trkpt>
      <trkpt lat="10.1568993961899" lon="-75.684052330354">
        <ele>52.4851891</ele>
        <time>2019-09-10T14:53:33.900Z</time>
      </trkpt>
      <trkpt lat="10.1569010898758" lon="-75.6840543974559">
        <ele>52.4851891</ele>
        <time>2019-09-10T14:53:34.000Z</time>
      </trkpt>
      <trkpt lat="10.1569027872095" lon="-75.6840564542529">
        <ele>52.4851891</ele>
        <time>2019-09-10T14:53:34.100Z</time>
      </trkpt>
      <trkpt lat="10.1569044983003" lon="-75.6840585129995">
        <ele>52.4851891</ele>
        <time>2019-09-10T14:53:34.200Z</time>
      </trkpt>
      <trkpt lat="10.1569062007408" lon="-75.6840605592132">
        <ele>52.4851891</ele>
        <time>2019-09-10T14:53:34.300Z</time>
      </trkpt>
      <trkpt lat="10.1569078748333" lon="-75.6840625619792">
        <ele>52.4851891</ele>
        <time>2019-09-10T14:53:34.400Z</time>
      </trkpt>
      <trkpt lat="10.156909539546" lon="-75.6840644566834">
        <ele>52.4851891</ele>
        <time>2019-09-10T14:53:34.500Z</time>
      </trkpt>
      <trkpt lat="10.1569112169736" lon="-75.6840661945864">
        <ele>52.4851891</ele>
        <time>2019-09-10T14:53:34.600Z</time>
      </trkpt>
      <trkpt lat="10.1569129290024" lon="-75.6840676589924">
        <ele>52.4851891</ele>
        <time>2019-09-10T14:53:34.700Z</time>
      </trkpt>
      <trkpt lat="10.1569146453042" lon="-75.6840688732964">
        <ele>52.4851891</ele>
        <time>2019-09-10T14:53:34.800Z</time>
      </trkpt>
      <trkpt lat="10.1569163842219" lon="-75.6840697503247">
        <ele>52.4851891</ele>
        <time>2019-09-10T14:53:34.900Z</time>
      </trkpt>
      <trkpt lat="10.156918095938" lon="-75.6840703519065">
        <ele>52.3851891</ele>
        <time>2019-09-10T14:53:35.000Z</time>
      </trkpt>
      <trkpt lat="10.1569198422552" lon="-75.6840705708154">
        <ele>52.3851891</ele>
        <time>2019-09-10T14:53:35.100Z</time>
      </trkpt>
      <trkpt lat="10.1569216046225" lon="-75.6840705095432">
        <ele>52.4851891</ele>
        <time>2019-09-10T14:53:35.200Z</time>
      </trkpt>
      <trkpt lat="10.1569234428622" lon="-75.6840701146159">
        <ele>52.4851891</ele>
        <time>2019-09-10T14:53:35.300Z</time>
      </trkpt>
      <trkpt lat="10.1569272477411" lon="-75.6840685193101">
        <ele>52.4851891</ele>
        <time>2019-09-10T14:53:35.500Z</time>
      </trkpt>
      <trkpt lat="10.1569292098989" lon="-75.6840672969293">
        <ele>52.4851891</ele>
        <time>2019-09-10T14:53:35.600Z</time>
      </trkpt>
      <trkpt lat="10.1569312928481" lon="-75.6840657606676">
        <ele>52.4851891</ele>
        <time>2019-09-10T14:53:35.700Z</time>
      </trkpt>
      <trkpt lat="10.1569333422384" lon="-75.6840639971417">
        <ele>52.4851891</ele>
        <time>2019-09-10T14:53:35.800Z</time>
      </trkpt>
      <trkpt lat="10.1569354364434" lon="-75.6840620762576">
        <ele>52.4851891</ele>
        <time>2019-09-10T14:53:35.900Z</time>
      </trkpt>
      <trkpt lat="10.1569374764538" lon="-75.6840600375638">
        <ele>52.4851891</ele>
        <time>2019-09-10T14:53:36.000Z</time>
      </trkpt>
      <trkpt lat="10.1569396077613" lon="-75.6840579687908">
        <ele>52.4851891</ele>
        <time>2019-09-10T14:53:36.100Z</time>
      </trkpt>
      <trkpt lat="10.1569416728889" lon="-75.684055823149">
        <ele>52.4851891</ele>
        <time>2019-09-10T14:53:36.200Z</time>
      </trkpt>
      <trkpt lat="10.1569437687614" lon="-75.6840536992311">
        <ele>52.4851891</ele>
        <time>2019-09-10T14:53:36.300Z</time>
      </trkpt>
      <trkpt lat="10.1569457804239" lon="-75.6840515067996">
        <ele>52.4851891</ele>
        <time>2019-09-10T14:53:36.400Z</time>
      </trkpt>
      <trkpt lat="10.156947799486" lon="-75.6840493672851">
        <ele>52.4851891</ele>
        <time>2019-09-10T14:53:36.500Z</time>
      </trkpt>
      <trkpt lat="10.1569497534104" lon="-75.6840471687265">
        <ele>52.4851891</ele>
        <time>2019-09-10T14:53:36.600Z</time>
      </trkpt>
      <trkpt lat="10.1569517056672" lon="-75.6840450063741">
        <ele>52.4851891</ele>
        <time>2019-09-10T14:53:36.700Z</time>
      </trkpt>
      <trkpt lat="10.1569536098784" lon="-75.6840427933329">
        <ele>52.4851891</ele>
        <time>2019-09-10T14:53:36.800Z</time>
      </trkpt>
      <trkpt lat="10.1569555120052" lon="-75.6840406471342">
        <ele>52.4851891</ele>
        <time>2019-09-10T14:53:36.900Z</time>
      </trkpt>
      <trkpt lat="10.1569573903698" lon="-75.6840384775405">
        <ele>52.4851891</ele>
        <time>2019-09-10T14:53:37.000Z</time>
      </trkpt>
      <trkpt lat="10.1569592553941" lon="-75.6840363394186">
        <ele>52.4851891</ele>
        <time>2019-09-10T14:53:37.100Z</time>
      </trkpt>
      <trkpt lat="10.1569611157285" lon="-75.6840341706605">
        <ele>52.4851891</ele>
        <time>2019-09-10T14:53:37.200Z</time>
      </trkpt>
      <trkpt lat="10.1569629802318" lon="-75.6840320163849">
        <ele>52.4851891</ele>
        <time>2019-09-10T14:53:37.300Z</time>
      </trkpt>
      <trkpt lat="10.1569648553655" lon="-75.6840298473483">
        <ele>52.4851891</ele>
        <time>2019-09-10T14:53:37.400Z</time>
      </trkpt>
      <trkpt lat="10.1569667287275" lon="-75.6840277100619">
        <ele>52.4851891</ele>
        <time>2019-09-10T14:53:37.500Z</time>
      </trkpt>
      <trkpt lat="10.156968614179" lon="-75.6840255805737">
        <ele>52.4851891</ele>
        <time>2019-09-10T14:53:37.600Z</time>
      </trkpt>
      <trkpt lat="10.1569704890001" lon="-75.6840234950902">
        <ele>52.4851891</ele>
        <time>2019-09-10T14:53:37.700Z</time>
      </trkpt>
      <trkpt lat="10.156972383623" lon="-75.6840214285453">
        <ele>52.4851891</ele>
        <time>2019-09-10T14:53:37.800Z</time>
      </trkpt>
      <trkpt lat="10.1569742651142" lon="-75.6840193898514">
        <ele>52.4851891</ele>
        <time>2019-09-10T14:53:37.900Z</time>
      </trkpt>
      <trkpt lat="10.1569761685959" lon="-75.6840173653615">
        <ele>52.4851891</ele>
        <time>2019-09-10T14:53:38.000Z</time>
      </trkpt>
      <trkpt lat="10.1569780680129" lon="-75.6840153851548">
        <ele>52.4851891</ele>
        <time>2019-09-10T14:53:38.100Z</time>
      </trkpt>
      <trkpt lat="10.1569799932767" lon="-75.6840134222157">
        <ele>52.4851891</ele>
        <time>2019-09-10T14:53:38.200Z</time>
      </trkpt>
      <trkpt lat="10.1569818728919" lon="-75.6840114893556">
        <ele>52.4851891</ele>
        <time>2019-09-10T14:53:38.300Z</time>
      </trkpt>
      <trkpt lat="10.1569837722047" lon="-75.6840095595592">
        <ele>52.4851891</ele>
        <time>2019-09-10T14:53:38.400Z</time>
      </trkpt>
      <trkpt lat="10.1569856501524" lon="-75.6840076250281">
        <ele>52.4851891</ele>
        <time>2019-09-10T14:53:38.500Z</time>
      </trkpt>
      <trkpt lat="10.1569875699967" lon="-75.6840056807492">
        <ele>52.4851891</ele>
        <time>2019-09-10T14:53:38.600Z</time>
      </trkpt>
      <trkpt lat="10.1569894925507" lon="-75.6840037336851">
        <ele>52.4851891</ele>
        <time>2019-09-10T14:53:38.700Z</time>
      </trkpt>
      <trkpt lat="10.156991460649" lon="-75.6840017813294">
        <ele>52.4851891</ele>
        <time>2019-09-10T14:53:38.800Z</time>
      </trkpt>
      <trkpt lat="10.1569933742401" lon="-75.6839998428991">
        <ele>52.4851891</ele>
        <time>2019-09-10T14:53:38.900Z</time>
      </trkpt>
      <trkpt lat="10.1569953154495" lon="-75.6839978991772">
        <ele>52.4851891</ele>
        <time>2019-09-10T14:53:39.000Z</time>
      </trkpt>
      <trkpt lat="10.1569972352938" lon="-75.6839959225911">
        <ele>52.3851891</ele>
        <time>2019-09-10T14:53:39.100Z</time>
      </trkpt>
      <trkpt lat="10.1569991999529" lon="-75.6839939284588">
        <ele>52.3851891</ele>
        <time>2019-09-10T14:53:39.200Z</time>
      </trkpt>
      <trkpt lat="10.1570011288643" lon="-75.6839919075896">
        <ele>52.3851891</ele>
        <time>2019-09-10T14:53:39.300Z</time>
      </trkpt>
      <trkpt lat="10.1570030921685" lon="-75.6839898922906">
        <ele>52.3851891</ele>
        <time>2019-09-10T14:53:39.400Z</time>
      </trkpt>
      <trkpt lat="10.1570049563591" lon="-75.683987904007">
        <ele>52.3851891</ele>
        <time>2019-09-10T14:53:39.500Z</time>
      </trkpt>
      <trkpt lat="10.1570067246669" lon="-75.6839859430175">
        <ele>52.3851891</ele>
        <time>2019-09-10T14:53:39.600Z</time>
      </trkpt>
      <trkpt lat="10.1570082749456" lon="-75.683983983699">
        <ele>52.3851891</ele>
        <time>2019-09-10T14:53:39.700Z</time>
      </trkpt>
      <trkpt lat="10.157009651072" lon="-75.6839820385845">
        <ele>52.3851891</ele>
        <time>2019-09-10T14:53:39.800Z</time>
      </trkpt>
      <trkpt lat="10.1570107014053" lon="-75.6839800619984">
        <ele>52.3851891</ele>
        <time>2019-09-10T14:53:39.900Z</time>
      </trkpt>
      <trkpt lat="10.1570115215158" lon="-75.6839780909825">
        <ele>52.3851891</ele>
        <time>2019-09-10T14:53:40.000Z</time>
      </trkpt>
      <trkpt lat="10.1570121685161" lon="-75.6839740977048">
        <ele>52.2851891</ele>
        <time>2019-09-10T14:53:40.200Z</time>
      </trkpt>
      <trkpt lat="10.1570119933216" lon="-75.6839720294888">
        <ele>52.2851891</ele>
        <time>2019-09-10T14:53:40.300Z</time>
      </trkpt>
      <trkpt lat="10.1570115614322" lon="-75.6839699749199">
        <ele>52.2851891</ele>
        <time>2019-09-10T14:53:40.400Z</time>
      </trkpt>
      <trkpt lat="10.1570107555999" lon="-75.6839678429251">
        <ele>52.2851891</ele>
        <time>2019-09-10T14:53:40.500Z</time>
      </trkpt>
      <trkpt lat="10.1570096954699" lon="-75.6839657493648">
        <ele>52.2851891</ele>
        <time>2019-09-10T14:53:40.600Z</time>
      </trkpt>
      <trkpt lat="10.1570082901618" lon="-75.6839635934182">
        <ele>52.2851891</ele>
        <time>2019-09-10T14:53:40.700Z</time>
      </trkpt>
      <trkpt lat="10.157006641499" lon="-75.6839615006933">
        <ele>52.2851891</ele>
        <time>2019-09-10T14:53:40.800Z</time>
      </trkpt>
      <trkpt lat="10.1570047759536" lon="-75.6839593954356">
        <ele>52.3851891</ele>
        <time>2019-09-10T14:53:40.900Z</time>
      </trkpt>
      <trkpt lat="10.1570028060835" lon="-75.6839573715027">
        <ele>52.3851891</ele>
        <time>2019-09-10T14:53:41.000Z</time>
      </trkpt>
      <trkpt lat="10.1570007576312" lon="-75.683955253712">
        <ele>52.3851891</ele>
        <time>2019-09-10T14:53:41.100Z</time>
      </trkpt>
      <trkpt lat="10.1569986724934" lon="-75.6839531921803">
        <ele>52.3851891</ele>
        <time>2019-09-10T14:53:41.200Z</time>
      </trkpt>
      <trkpt lat="10.1569966002788" lon="-75.6839510103322">
        <ele>52.3851891</ele>
        <time>2019-09-10T14:53:41.300Z</time>
      </trkpt>
      <trkpt lat="10.1569945054485" lon="-75.6839488967191">
        <ele>52.4851891</ele>
        <time>2019-09-10T14:53:41.400Z</time>
      </trkpt>
      <trkpt lat="10.1569925001434" lon="-75.6839467221123">
        <ele>52.4851891</ele>
        <time>2019-09-10T14:53:41.500Z</time>
      </trkpt>
      <trkpt lat="10.1569904836868" lon="-75.6839446168546">
        <ele>52.4851891</ele>
        <time>2019-09-10T14:53:41.600Z</time>
      </trkpt>
      <trkpt lat="10.1569885476884" lon="-75.6839424873664">
        <ele>52.4851891</ele>
        <time>2019-09-10T14:53:41.700Z</time>
      </trkpt>
      <trkpt lat="10.1569865738579" lon="-75.6839404222141">
        <ele>52.4851891</ele>
        <time>2019-09-10T14:53:41.800Z</time>
      </trkpt>
      <trkpt lat="10.1569846496364" lon="-75.6839383492635">
        <ele>52.4851891</ele>
        <time>2019-09-10T14:53:41.900Z</time>
      </trkpt>
      <trkpt lat="10.1569826931065" lon="-75.6839363336859">
        <ele>52.4851891</ele>
        <time>2019-09-10T14:53:42.000Z</time>
      </trkpt>
      <trkpt lat="10.1569807742002" lon="-75.6839343459594">
        <ele>52.4851891</ele>
        <time>2019-09-10T14:53:42.100Z</time>
      </trkpt>
      <trkpt lat="10.1569788298642" lon="-75.6839323846913">
        <ele>52.4851891</ele>
        <time>2019-09-10T14:53:42.200Z</time>
      </trkpt>
      <trkpt lat="10.1569769130423" lon="-75.6839304200811">
        <ele>52.4851891</ele>
        <time>2019-09-10T14:53:42.300Z</time>
      </trkpt>
      <trkpt lat="10.1569749744383" lon="-75.6839284468371">
        <ele>52.4851891</ele>
        <time>2019-09-10T14:53:42.400Z</time>
      </trkpt>
      <trkpt lat="10.156973005402" lon="-75.6839264852906">
        <ele>52.4851891</ele>
        <time>2019-09-10T14:53:42.500Z</time>
      </trkpt>
      <trkpt lat="10.1569709909256" lon="-75.6839245059194">
        <ele>52.4851891</ele>
        <time>2019-09-10T14:53:42.600Z</time>
      </trkpt>
      <trkpt lat="10.1569689742605" lon="-75.6839225028748">
        <ele>52.4851891</ele>
        <time>2019-09-10T14:53:42.700Z</time>
      </trkpt>
      <trkpt lat="10.1569669587419" lon="-75.6839204689156">
        <ele>52.4851891</ele>
        <time>2019-09-10T14:53:42.800Z</time>
      </trkpt>
      <trkpt lat="10.1569649655265" lon="-75.683918506812">
        <ele>52.4851891</ele>
        <time>2019-09-10T14:53:42.900Z</time>
      </trkpt>
      <trkpt lat="10.1569629774178" lon="-75.6839165513926">
        <ele>52.4851891</ele>
        <time>2019-09-10T14:53:43.000Z</time>
      </trkpt>
      <trkpt lat="10.1569609630456" lon="-75.6839145993154">
        <ele>52.4851891</ele>
        <time>2019-09-10T14:53:43.100Z</time>
      </trkpt>
      <trkpt lat="10.1569589538845" lon="-75.6839125984989">
        <ele>52.4851891</ele>
        <time>2019-09-10T14:53:43.200Z</time>
      </trkpt>
      <trkpt lat="10.1569569857861" lon="-75.6839106372308">
        <ele>52.4851891</ele>
        <time>2019-09-10T14:53:43.300Z</time>
      </trkpt>
      <trkpt lat="10.1569550440556" lon="-75.6839086742917">
        <ele>52.3851891</ele>
        <time>2019-09-10T14:53:43.400Z</time>
      </trkpt>
      <trkpt lat="10.1569530648056" lon="-75.683906736697">
        <ele>52.3851891</ele>
        <time>2019-09-10T14:53:43.500Z</time>
      </trkpt>
      <trkpt lat="10.1569511017099" lon="-75.6839047679092">
        <ele>52.3851891</ele>
        <time>2019-09-10T14:53:43.600Z</time>
      </trkpt>
      <trkpt lat="10.1569472379464" lon="-75.6839008623621">
        <ele>52.4851891</ele>
        <time>2019-09-10T14:53:43.800Z</time>
      </trkpt>
      <trkpt lat="10.1569453387378" lon="-75.6838989334012">
        <ele>52.3851891</ele>
        <time>2019-09-10T14:53:43.900Z</time>
      </trkpt>
      <trkpt lat="10.1569434774654" lon="-75.6838969760323">
        <ele>52.3851891</ele>
        <time>2019-09-10T14:53:44.000Z</time>
      </trkpt>
      <trkpt lat="10.1569416180689" lon="-75.6838950467929">
        <ele>52.3851891</ele>
        <time>2019-09-10T14:53:44.100Z</time>
      </trkpt>
      <trkpt lat="10.1569397881669" lon="-75.6838930846893">
        <ele>52.3851891</ele>
        <time>2019-09-10T14:53:44.200Z</time>
      </trkpt>
      <trkpt lat="10.1569379908858" lon="-75.6838911459806">
        <ele>52.4851891</ele>
        <time>2019-09-10T14:53:44.300Z</time>
      </trkpt>
      <trkpt lat="10.1569362304988" lon="-75.6838891835985">
        <ele>52.4851891</ele>
        <time>2019-09-10T14:53:44.400Z</time>
      </trkpt>
      <trkpt lat="10.1569344944993" lon="-75.6838872462823">
        <ele>52.4851891</ele>
        <time>2019-09-10T14:53:44.500Z</time>
      </trkpt>
      <trkpt lat="10.1569327673586" lon="-75.6838852825076">
        <ele>52.4851891</ele>
        <time>2019-09-10T14:53:44.600Z</time>
      </trkpt>
      <trkpt lat="10.1569310257312" lon="-75.6838833454699">
        <ele>52.3851891</ele>
        <time>2019-09-10T14:53:44.700Z</time>
      </trkpt>
      <trkpt lat="10.1569292916077" lon="-75.6838813878225">
        <ele>52.3851891</ele>
        <time>2019-09-10T14:53:44.800Z</time>
      </trkpt>
      <trkpt lat="10.1569275577969" lon="-75.6838794482782">
        <ele>52.3851891</ele>
        <time>2019-09-10T14:53:44.900Z</time>
      </trkpt>
      <trkpt lat="10.156925830135" lon="-75.6838774764268">
        <ele>52.3851891</ele>
        <time>2019-09-10T14:53:45.000Z</time>
      </trkpt>
      <trkpt lat="10.1569240691227" lon="-75.6838755179438">
        <ele>52.3851891</ele>
        <time>2019-09-10T14:53:45.100Z</time>
      </trkpt>
      <trkpt lat="10.1569223042541" lon="-75.6838735377371">
        <ele>52.3851891</ele>
        <time>2019-09-10T14:53:45.200Z</time>
      </trkpt>
      <trkpt lat="10.1569205059309" lon="-75.683871590673">
        <ele>52.3851891</ele>
        <time>2019-09-10T14:53:45.300Z</time>
      </trkpt>
      <trkpt lat="10.1569187206351" lon="-75.6838696065671">
        <ele>52.3851891</ele>
        <time>2019-09-10T14:53:45.400Z</time>
      </trkpt>
      <trkpt lat="10.1569169325255" lon="-75.6838676227397">
        <ele>52.3851891</ele>
        <time>2019-09-10T14:53:45.500Z</time>
      </trkpt>
      <trkpt lat="10.1569151562969" lon="-75.6838656130109">
        <ele>52.3851891</ele>
        <time>2019-09-10T14:53:45.600Z</time>
      </trkpt>
      <trkpt lat="10.1569133727729" lon="-75.6838636032821">
        <ele>52.3851891</ele>
        <time>2019-09-10T14:53:45.700Z</time>
      </trkpt>
      <trkpt lat="10.1569116064453" lon="-75.6838615626386">
        <ele>52.3851891</ele>
        <time>2019-09-10T14:53:45.800Z</time>
      </trkpt>
      <trkpt lat="10.1569098686741" lon="-75.6838595091837">
        <ele>52.3851891</ele>
        <time>2019-09-10T14:53:45.900Z</time>
      </trkpt>
      <trkpt lat="10.1569081484119" lon="-75.6838574106102">
        <ele>52.3851891</ele>
        <time>2019-09-10T14:53:46.000Z</time>
      </trkpt>
      <trkpt lat="10.1569064057424" lon="-75.6838552989467">
        <ele>52.3851891</ele>
        <time>2019-09-10T14:53:46.100Z</time>
      </trkpt>
      <trkpt lat="10.1569029402051" lon="-75.6838510410844">
        <ele>52.3851891</ele>
        <time>2019-09-10T14:53:46.300Z</time>
      </trkpt>
      <trkpt lat="10.1569012325536" lon="-75.6838489074186">
        <ele>52.3851891</ele>
        <time>2019-09-10T14:53:46.400Z</time>
      </trkpt>
      <trkpt lat="10.156899515418" lon="-75.6838467422811">
        <ele>52.3851891</ele>
        <time>2019-09-10T14:53:46.500Z</time>
      </trkpt>
      <trkpt lat="10.1568978072454" lon="-75.6838445515208">
        <ele>52.3851891</ele>
        <time>2019-09-10T14:53:46.600Z</time>
      </trkpt>
      <trkpt lat="10.1568961220013" lon="-75.6838424142343">
        <ele>52.3851891</ele>
        <time>2019-09-10T14:53:46.700Z</time>
      </trkpt>
      <trkpt lat="10.1568944447821" lon="-75.6838402733272">
        <ele>52.3851891</ele>
        <time>2019-09-10T14:53:46.800Z</time>
      </trkpt>
      <trkpt lat="10.1568927668334" lon="-75.6838381385474">
        <ele>52.3851891</ele>
        <time>2019-09-10T14:53:46.900Z</time>
      </trkpt>
      <trkpt lat="10.1568910782543" lon="-75.6838359773091">
        <ele>52.3851891</ele>
        <time>2019-09-10T14:53:47.000Z</time>
      </trkpt>
      <trkpt lat="10.1568893881118" lon="-75.6838338077155">
        <ele>52.3851891</ele>
        <time>2019-09-10T14:53:47.100Z</time>
      </trkpt>
      <trkpt lat="10.1568876895274" lon="-75.6838316303236">
        <ele>52.3851891</ele>
        <time>2019-09-10T14:53:47.200Z</time>
      </trkpt>
      <trkpt lat="10.1568859711412" lon="-75.6838294947082">
        <ele>52.3851891</ele>
        <time>2019-09-10T14:53:47.300Z</time>
      </trkpt>
      <trkpt lat="10.1568842445216" lon="-75.6838273735753">
        <ele>52.3851891</ele>
        <time>2019-09-10T14:53:47.400Z</time>
      </trkpt>
      <trkpt lat="10.1568825206117" lon="-75.6838252794579">
        <ele>52.3851891</ele>
        <time>2019-09-10T14:53:47.500Z</time>
      </trkpt>
      <trkpt lat="10.1568807960765" lon="-75.683823182277">
        <ele>52.3851891</ele>
        <time>2019-09-10T14:53:47.600Z</time>
      </trkpt>
      <trkpt lat="10.1568790570546" lon="-75.6838210736771">
        <ele>52.3851891</ele>
        <time>2019-09-10T14:53:47.700Z</time>
      </trkpt>
      <trkpt lat="10.1568773350207" lon="-75.6838189661912">
        <ele>52.3851891</ele>
        <time>2019-09-10T14:53:47.800Z</time>
      </trkpt>
      <trkpt lat="10.1568756398756" lon="-75.6838168823787">
        <ele>52.3851891</ele>
        <time>2019-09-10T14:53:47.900Z</time>
      </trkpt>
      <trkpt lat="10.1568739678675" lon="-75.6838147879828">
        <ele>52.3851891</ele>
        <time>2019-09-10T14:53:48.000Z</time>
      </trkpt>
      <trkpt lat="10.1568723056561" lon="-75.6838126877382">
        <ele>52.3851891</ele>
        <time>2019-09-10T14:53:48.100Z</time>
      </trkpt>
      <trkpt lat="10.1568706358366" lon="-75.6838105735681">
        <ele>52.3851891</ele>
        <time>2019-09-10T14:53:48.200Z</time>
      </trkpt>
      <trkpt lat="10.156867254301" lon="-75.6838063226686">
        <ele>52.3851891</ele>
        <time>2019-09-10T14:53:48.400Z</time>
      </trkpt>
      <trkpt lat="10.1568655438355" lon="-75.6838042059919">
        <ele>52.3851891</ele>
        <time>2019-09-10T14:53:48.500Z</time>
      </trkpt>
      <trkpt lat="10.1568638296181" lon="-75.6838020862516">
        <ele>52.3851891</ele>
        <time>2019-09-10T14:53:48.600Z</time>
      </trkpt>
      <trkpt lat="10.1568620943482" lon="-75.6837999935267">
        <ele>52.3851891</ele>
        <time>2019-09-10T14:53:48.700Z</time>
      </trkpt>
      <trkpt lat="10.1568603464676" lon="-75.683797902473">
        <ele>52.3851891</ele>
        <time>2019-09-10T14:53:48.800Z</time>
      </trkpt>
      <trkpt lat="10.1568586107808" lon="-75.6837958420553">
        <ele>52.3851891</ele>
        <time>2019-09-10T14:53:48.900Z</time>
      </trkpt>
      <trkpt lat="10.1568568958338" lon="-75.6837937782955">
        <ele>52.3851891</ele>
        <time>2019-09-10T14:53:49.000Z</time>
      </trkpt>
      <trkpt lat="10.1568551826586" lon="-75.6837917148143">
        <ele>52.3851891</ele>
        <time>2019-09-10T14:53:49.100Z</time>
      </trkpt>
      <trkpt lat="10.1568534663568" lon="-75.6837896374075">
        <ele>52.3851891</ele>
        <time>2019-09-10T14:53:49.200Z</time>
      </trkpt>
      <trkpt lat="10.1568517346304" lon="-75.683787580332">
        <ele>52.3851891</ele>
        <time>2019-09-10T14:53:49.300Z</time>
      </trkpt>
      <trkpt lat="10.1568499840401" lon="-75.6837855188002">
        <ele>52.3851891</ele>
        <time>2019-09-10T14:53:49.400Z</time>
      </trkpt>
      <trkpt lat="10.1568481839451" lon="-75.6837834477992">
        <ele>52.3851891</ele>
        <time>2019-09-10T14:53:49.500Z</time>
      </trkpt>
      <trkpt lat="10.1568463834332" lon="-75.683781358138">
        <ele>52.3851891</ele>
        <time>2019-09-10T14:53:49.600Z</time>
      </trkpt>
      <trkpt lat="10.1568445859436" lon="-75.683779261514">
        <ele>52.2851891</ele>
        <time>2019-09-10T14:53:49.700Z</time>
      </trkpt>
      <trkpt lat="10.1568428109657" lon="-75.6837771609909">
        <ele>52.2851891</ele>
        <time>2019-09-10T14:53:49.800Z</time>
      </trkpt>
      <trkpt lat="10.156841056415" lon="-75.6837750833056">
        <ele>52.2851891</ele>
        <time>2019-09-10T14:53:49.900Z</time>
      </trkpt>
      <trkpt lat="10.1568393195818" lon="-75.6837730120261">
        <ele>52.2851891</ele>
        <time>2019-09-10T14:53:50.000Z</time>
      </trkpt>
      <trkpt lat="10.156837569721" lon="-75.6837709109459">
        <ele>52.2851891</ele>
        <time>2019-09-10T14:53:50.100Z</time>
      </trkpt>
      <trkpt lat="10.1568358193391" lon="-75.6837688020675">
        <ele>52.2851891</ele>
        <time>2019-09-10T14:53:50.200Z</time>
      </trkpt>
      <trkpt lat="10.1568340741683" lon="-75.683766662553">
        <ele>52.2851891</ele>
        <time>2019-09-10T14:53:50.300Z</time>
      </trkpt>
      <trkpt lat="10.1568323412954" lon="-75.6837645336219">
        <ele>52.2851891</ele>
        <time>2019-09-10T14:53:50.400Z</time>
      </trkpt>
      <trkpt lat="10.1568306182193" lon="-75.6837624066403">
        <ele>52.2851891</ele>
        <time>2019-09-10T14:53:50.500Z</time>
      </trkpt>
      <trkpt lat="10.1568288985824" lon="-75.6837602899636">
        <ele>52.2851891</ele>
        <time>2019-09-10T14:53:50.600Z</time>
      </trkpt>
      <trkpt lat="10.1568271643547" lon="-75.6837581721729">
        <ele>52.2851891</ele>
        <time>2019-09-10T14:53:50.700Z</time>
      </trkpt>
      <trkpt lat="10.1568254227273" lon="-75.683756065244">
        <ele>52.2851891</ele>
        <time>2019-09-10T14:53:50.800Z</time>
      </trkpt>
      <trkpt lat="10.1568236896461" lon="-75.6837539602647">
        <ele>52.2851891</ele>
        <time>2019-09-10T14:53:50.900Z</time>
      </trkpt>
      <trkpt lat="10.1568219583365" lon="-75.6837518558425">
        <ele>52.2851891</ele>
        <time>2019-09-10T14:53:51.000Z</time>
      </trkpt>
      <trkpt lat="10.1568202325506" lon="-75.6837497422294">
        <ele>52.2851891</ele>
        <time>2019-09-10T14:53:51.100Z</time>
      </trkpt>
      <trkpt lat="10.1568185048888" lon="-75.6837476188685">
        <ele>52.2851891</ele>
        <time>2019-09-10T14:53:51.200Z</time>
      </trkpt>
      <trkpt lat="10.1568167686809" lon="-75.6837455208519">
        <ele>52.2851891</ele>
        <time>2019-09-10T14:53:51.300Z</time>
      </trkpt>
      <trkpt lat="10.1568150164231" lon="-75.6837434239495">
        <ele>52.2851891</ele>
        <time>2019-09-10T14:53:51.400Z</time>
      </trkpt>
      <trkpt lat="10.1568132564529" lon="-75.6837413167421">
        <ele>52.2851891</ele>
        <time>2019-09-10T14:53:51.500Z</time>
      </trkpt>
      <trkpt lat="10.1568114879367" lon="-75.6837392006224">
        <ele>52.2851891</ele>
        <time>2019-09-10T14:53:51.600Z</time>
      </trkpt>
      <trkpt lat="10.1568096727297" lon="-75.6837370669566">
        <ele>52.2851891</ele>
        <time>2019-09-10T14:53:51.700Z</time>
      </trkpt>
      <trkpt lat="10.1568078587733" lon="-75.6837349332908">
        <ele>52.2851891</ele>
        <time>2019-09-10T14:53:51.800Z</time>
      </trkpt>
      <trkpt lat="10.1568060879642" lon="-75.6837328355528">
        <ele>52.2851891</ele>
        <time>2019-09-10T14:53:51.900Z</time>
      </trkpt>
      <trkpt lat="10.1568043445651" lon="-75.6837307542469">
        <ele>52.2851891</ele>
        <time>2019-09-10T14:53:52.000Z</time>
      </trkpt>
      <trkpt lat="10.1568026042926" lon="-75.6837286896516">
        <ele>52.2851891</ele>
        <time>2019-09-10T14:53:52.100Z</time>
      </trkpt>
      <trkpt lat="10.156800860164" lon="-75.6837266192076">
        <ele>52.2851891</ele>
        <time>2019-09-10T14:53:52.200Z</time>
      </trkpt>
      <trkpt lat="10.1567991285418" lon="-75.6837245793997">
        <ele>52.2851891</ele>
        <time>2019-09-10T14:53:52.300Z</time>
      </trkpt>
      <trkpt lat="10.1567956775954" lon="-75.683720532648">
        <ele>52.2851891</ele>
        <time>2019-09-10T14:53:52.500Z</time>
      </trkpt>
      <trkpt lat="10.1567939628569" lon="-75.6837185268183">
        <ele>52.2851891</ele>
        <time>2019-09-10T14:53:52.600Z</time>
      </trkpt>
      <trkpt lat="10.1567922477015" lon="-75.6837165438265">
        <ele>52.2851891</ele>
        <time>2019-09-10T14:53:52.700Z</time>
      </trkpt>
      <trkpt lat="10.156790530149" lon="-75.6837145496942">
        <ele>52.2851891</ele>
        <time>2019-09-10T14:53:52.800Z</time>
      </trkpt>
      <trkpt lat="10.156788813743" lon="-75.6837125291035">
        <ele>52.2851891</ele>
        <time>2019-09-10T14:53:52.900Z</time>
      </trkpt>
      <trkpt lat="10.1567870880613" lon="-75.6837104781552">
        <ele>52.2851891</ele>
        <time>2019-09-10T14:53:53.000Z</time>
      </trkpt>
      <trkpt lat="10.1567853418483" lon="-75.6837084350052">
        <ele>52.2851891</ele>
        <time>2019-09-10T14:53:53.100Z</time>
      </trkpt>
      <trkpt lat="10.1567835993871" lon="-75.6837063921336">
        <ele>52.2851891</ele>
        <time>2019-09-10T14:53:53.200Z</time>
      </trkpt>
      <trkpt lat="10.1567818516108" lon="-75.6837043434134">
        <ele>52.2851891</ele>
        <time>2019-09-10T14:53:53.300Z</time>
      </trkpt>
      <trkpt lat="10.1567801116509" lon="-75.683702290794">
        <ele>52.2851891</ele>
        <time>2019-09-10T14:53:53.400Z</time>
      </trkpt>
      <trkpt lat="10.1567783737755" lon="-75.6837002331615">
        <ele>52.2851891</ele>
        <time>2019-09-10T14:53:53.500Z</time>
      </trkpt>
      <trkpt lat="10.1567766455926" lon="-75.6836981719083">
        <ele>52.2851891</ele>
        <time>2019-09-10T14:53:53.600Z</time>
      </trkpt>
      <trkpt lat="10.1567749368988" lon="-75.6836961343285">
        <ele>52.3851891</ele>
        <time>2019-09-10T14:53:53.700Z</time>
      </trkpt>
      <trkpt lat="10.1567732358132" lon="-75.6836940967486">
        <ele>52.3851891</ele>
        <time>2019-09-10T14:53:53.800Z</time>
      </trkpt>
      <trkpt lat="10.1567715303503" lon="-75.6836920435722">
        <ele>52.3851891</ele>
        <time>2019-09-10T14:53:53.900Z</time>
      </trkpt>
      <trkpt lat="10.1567698197807" lon="-75.6836899722927">
        <ele>52.3851891</ele>
        <time>2019-09-10T14:53:54.000Z</time>
      </trkpt>
      <trkpt lat="10.1567680914935" lon="-75.6836878817959">
        <ele>52.3851891</ele>
        <time>2019-09-10T14:53:54.100Z</time>
      </trkpt>
      <trkpt lat="10.1567663580995" lon="-75.6836857912992">
        <ele>52.3851891</ele>
        <time>2019-09-10T14:53:54.200Z</time>
      </trkpt>
      <trkpt lat="10.1567645823921" lon="-75.6836836807497">
        <ele>52.3851891</ele>
        <time>2019-09-10T14:53:54.300Z</time>
      </trkpt>
      <trkpt lat="10.1567628160645" lon="-75.6836815718713">
        <ele>52.3851891</ele>
        <time>2019-09-10T14:53:54.400Z</time>
      </trkpt>
      <trkpt lat="10.1567610945517" lon="-75.683679466892">
        <ele>52.3851891</ele>
        <time>2019-09-10T14:53:54.500Z</time>
      </trkpt>
      <trkpt lat="10.1567593990939" lon="-75.6836773557855">
        <ele>52.3851891</ele>
        <time>2019-09-10T14:53:54.600Z</time>
      </trkpt>
      <trkpt lat="10.1567576986336" lon="-75.683675230475">
        <ele>52.3851891</ele>
        <time>2019-09-10T14:53:54.700Z</time>
      </trkpt>
      <trkpt lat="10.1567559915032" lon="-75.6836731007083">
        <ele>52.3851891</ele>
        <time>2019-09-10T14:53:54.800Z</time>
      </trkpt>
      <trkpt lat="10.1567542674891" lon="-75.6836709684351">
        <ele>52.3851891</ele>
        <time>2019-09-10T14:53:54.900Z</time>
      </trkpt>
      <trkpt lat="10.1567525395146" lon="-75.6836688436816">
        <ele>52.3851891</ele>
        <time>2019-09-10T14:53:55.000Z</time>
      </trkpt>
      <trkpt lat="10.1567508280069" lon="-75.6836667309041">
        <ele>52.3851891</ele>
        <time>2019-09-10T14:53:55.100Z</time>
      </trkpt>
      <trkpt lat="10.1567491294226" lon="-75.6836646083786">
        <ele>52.3851891</ele>
        <time>2019-09-10T14:53:55.200Z</time>
      </trkpt>
      <trkpt lat="10.1567474518908" lon="-75.6836624674716">
        <ele>52.3851891</ele>
        <time>2019-09-10T14:53:55.300Z</time>
      </trkpt>
      <trkpt lat="10.1567457797784" lon="-75.6836603285141">
        <ele>52.3851891</ele>
        <time>2019-09-10T14:53:55.400Z</time>
      </trkpt>
      <trkpt lat="10.1567441199641" lon="-75.6836581884425">
        <ele>52.3851891</ele>
        <time>2019-09-10T14:53:55.500Z</time>
      </trkpt>
      <trkpt lat="10.1567424605666" lon="-75.6836560480925">
        <ele>52.3851891</ele>
        <time>2019-09-10T14:53:55.600Z</time>
      </trkpt>
      <trkpt lat="10.1567408320184" lon="-75.6836539283522">
        <ele>52.3851891</ele>
        <time>2019-09-10T14:53:55.700Z</time>
      </trkpt>
      <trkpt lat="10.1567392011774" lon="-75.6836518080548">
        <ele>52.3851891</ele>
        <time>2019-09-10T14:53:55.800Z</time>
      </trkpt>
      <trkpt lat="10.1567375790908" lon="-75.6836496799592">
        <ele>52.3851891</ele>
        <time>2019-09-10T14:53:55.900Z</time>
      </trkpt>
      <trkpt lat="10.156735940329" lon="-75.6836475435083">
        <ele>52.3851891</ele>
        <time>2019-09-10T14:53:56.000Z</time>
      </trkpt>
      <trkpt lat="10.1567342765543" lon="-75.683645424882">
        <ele>52.3851891</ele>
        <time>2019-09-10T14:53:56.100Z</time>
      </trkpt>
      <trkpt lat="10.1567325996478" lon="-75.6836433182317">
        <ele>52.4851891</ele>
        <time>2019-09-10T14:53:56.200Z</time>
      </trkpt>
      <trkpt lat="10.1567309050238" lon="-75.6836412082393">
        <ele>52.4851891</ele>
        <time>2019-09-10T14:53:56.300Z</time>
      </trkpt>
      <trkpt lat="10.1567292041466" lon="-75.6836390996394">
        <ele>52.4851891</ele>
        <time>2019-09-10T14:53:56.400Z</time>
      </trkpt>
      <trkpt lat="10.1567274913883" lon="-75.6836370141558">
        <ele>52.4851891</ele>
        <time>2019-09-10T14:53:56.500Z</time>
      </trkpt>
      <trkpt lat="10.1567240404419" lon="-75.6836328451382">
        <ele>52.4851891</ele>
        <time>2019-09-10T14:53:56.700Z</time>
      </trkpt>
      <trkpt lat="10.1567223041298" lon="-75.6836307451721">
        <ele>52.4851891</ele>
        <time>2019-09-10T14:53:56.800Z</time>
      </trkpt>
      <trkpt lat="10.1567205440554" lon="-75.6836286699934">
        <ele>52.4851891</ele>
        <time>2019-09-10T14:53:56.900Z</time>
      </trkpt>
      <trkpt lat="10.1567187956537" lon="-75.683626614589">
        <ele>52.4851891</ele>
        <time>2019-09-10T14:53:57.000Z</time>
      </trkpt>
      <trkpt lat="10.1567170593416" lon="-75.683624518522">
        <ele>52.4851891</ele>
        <time>2019-09-10T14:53:57.100Z</time>
      </trkpt>
      <trkpt lat="10.1567153361612" lon="-75.6836224178596">
        <ele>52.4851891</ele>
        <time>2019-09-10T14:53:57.200Z</time>
      </trkpt>
      <trkpt lat="10.1567136038095" lon="-75.6836203213749">
        <ele>52.4851891</ele>
        <time>2019-09-10T14:53:57.300Z</time>
      </trkpt>
      <trkpt lat="10.1567118697902" lon="-75.683618238398">
        <ele>52.4851891</ele>
        <time>2019-09-10T14:53:57.400Z</time>
      </trkpt>
      <trkpt lat="10.1567101255573" lon="-75.6836161462302">
        <ele>52.4851891</ele>
        <time>2019-09-10T14:53:57.500Z</time>
      </trkpt>
      <trkpt lat="10.1567083788231" lon="-75.6836140557334">
        <ele>52.4851891</ele>
        <time>2019-09-10T14:53:57.600Z</time>
      </trkpt>
      <trkpt lat="10.1567066193741" lon="-75.6836119916951">
        <ele>52.4851891</ele>
        <time>2019-09-10T14:53:57.700Z</time>
      </trkpt>
      <trkpt lat="10.1567048663867" lon="-75.6836099475703">
        <ele>52.4851891</ele>
        <time>2019-09-10T14:53:57.800Z</time>
      </trkpt>
      <trkpt lat="10.156703116109" lon="-75.6836079232197">
        <ele>52.4851891</ele>
        <time>2019-09-10T14:53:57.900Z</time>
      </trkpt>
      <trkpt lat="10.1567013739606" lon="-75.6836059061104">
        <ele>52.4851891</ele>
        <time>2019-09-10T14:53:58.000Z</time>
      </trkpt>
      <trkpt lat="10.1566996399413" lon="-75.6836039101678">
        <ele>52.4851891</ele>
        <time>2019-09-10T14:53:58.100Z</time>
      </trkpt>
      <trkpt lat="10.1566979102993" lon="-75.6836019053129">
        <ele>52.4851891</ele>
        <time>2019-09-10T14:53:58.200Z</time>
      </trkpt>
      <trkpt lat="10.1566962052533" lon="-75.6835998877858">
        <ele>52.4851891</ele>
        <time>2019-09-10T14:53:58.300Z</time>
      </trkpt>
      <trkpt lat="10.1566945164656" lon="-75.6835978550799">
        <ele>52.4851891</ele>
        <time>2019-09-10T14:53:58.400Z</time>
      </trkpt>
      <trkpt lat="10.156692850815" lon="-75.6835958576055">
        <ele>52.4851891</ele>
        <time>2019-09-10T14:53:58.500Z</time>
      </trkpt>
      <trkpt lat="10.1566911932935" lon="-75.6835938545609">
        <ele>52.4851891</ele>
        <time>2019-09-10T14:53:58.600Z</time>
      </trkpt>
      <trkpt lat="10.1566895307694" lon="-75.683591807094">
        <ele>52.4851891</ele>
        <time>2019-09-10T14:53:58.700Z</time>
      </trkpt>
      <trkpt lat="10.1566878582402" lon="-75.6835897341434">
        <ele>52.4851891</ele>
        <time>2019-09-10T14:53:58.800Z</time>
      </trkpt>
      <trkpt lat="10.1566862111407" lon="-75.6835876799922">
        <ele>52.4851891</ele>
        <time>2019-09-10T14:53:58.900Z</time>
      </trkpt>
      <trkpt lat="10.1566845730042" lon="-75.6835856291831">
        <ele>52.4851891</ele>
        <time>2019-09-10T14:53:59.000Z</time>
      </trkpt>
      <trkpt lat="10.1566829256963" lon="-75.6835835301918">
        <ele>52.4851891</ele>
        <time>2019-09-10T14:53:59.100Z</time>
      </trkpt>
      <trkpt lat="10.1566812615047" lon="-75.683581417275">
        <ele>52.4851891</ele>
        <time>2019-09-10T14:53:59.200Z</time>
      </trkpt>
      <trkpt lat="10.1566795729255" lon="-75.6835792815204">
        <ele>52.3851891</ele>
        <time>2019-09-10T14:53:59.300Z</time>
      </trkpt>
      <trkpt lat="10.1566778758003" lon="-75.6835771580202">
        <ele>52.3851891</ele>
        <time>2019-09-10T14:53:59.400Z</time>
      </trkpt>
      <trkpt lat="10.1566761836776" lon="-75.6835750508128">
        <ele>52.3851891</ele>
        <time>2019-09-10T14:53:59.500Z</time>
      </trkpt>
      <trkpt lat="10.156674493014" lon="-75.683572956974">
        <ele>52.3851891</ele>
        <time>2019-09-10T14:53:59.600Z</time>
      </trkpt>
      <trkpt lat="10.156672816316" lon="-75.6835708804027">
        <ele>52.3851891</ele>
        <time>2019-09-10T14:53:59.700Z</time>
      </trkpt>
      <trkpt lat="10.1566711341985" lon="-75.6835688010464">
        <ele>52.3851891</ele>
        <time>2019-09-10T14:53:59.800Z</time>
      </trkpt>
      <trkpt lat="10.1566694270681" lon="-75.6835666893829">
        <ele>52.3851891</ele>
        <time>2019-09-10T14:53:59.900Z</time>
      </trkpt>
      <trkpt lat="10.1566677032624" lon="-75.6835645632368">
        <ele>52.3851891</ele>
        <time>2019-09-10T14:54:00.000Z</time>
      </trkpt>
      <trkpt lat="10.1566660053034" lon="-75.6835624681447">
        <ele>52.3851891</ele>
        <time>2019-09-10T14:54:00.100Z</time>
      </trkpt>
      <trkpt lat="10.1566643142229" lon="-75.6835603855854">
        <ele>52.3851891</ele>
        <time>2019-09-10T14:54:00.200Z</time>
      </trkpt>
      <trkpt lat="10.1566626339814" lon="-75.6835582751752">
        <ele>52.3851891</ele>
        <time>2019-09-10T14:54:00.300Z</time>
      </trkpt>
      <trkpt lat="10.1566609314366" lon="-75.6835561442945">
        <ele>52.3851891</ele>
        <time>2019-09-10T14:54:00.400Z</time>
      </trkpt>
      <trkpt lat="10.1566592182615" lon="-75.6835540077044">
        <ele>52.3851891</ele>
        <time>2019-09-10T14:54:00.500Z</time>
      </trkpt>
      <trkpt lat="10.1566574873688" lon="-75.6835518740385">
        <ele>52.3851891</ele>
        <time>2019-09-10T14:54:00.600Z</time>
      </trkpt>
      <trkpt lat="10.1566557693995" lon="-75.6835497283968">
        <ele>52.3851891</ele>
        <time>2019-09-10T14:54:00.700Z</time>
      </trkpt>
      <trkpt lat="10.1566540543483" lon="-75.6835475845654">
        <ele>52.3851891</ele>
        <time>2019-09-10T14:54:00.800Z</time>
      </trkpt>
      <trkpt lat="10.156650559004" lon="-75.6835432244899">
        <ele>52.3851891</ele>
        <time>2019-09-10T14:54:01.000Z</time>
      </trkpt>
      <trkpt lat="10.1566488304042" lon="-75.6835410603272">
        <ele>52.3851891</ele>
        <time>2019-09-10T14:54:01.100Z</time>
      </trkpt>
      <trkpt lat="10.1566471138939" lon="-75.683538916078">
        <ele>52.3851891</ele>
        <time>2019-09-10T14:54:01.200Z</time>
      </trkpt>
      <trkpt lat="10.1566453950908" lon="-75.6835367682082">
        <ele>52.3851891</ele>
        <time>2019-09-10T14:54:01.300Z</time>
      </trkpt>
      <trkpt lat="10.1566436685754" lon="-75.683534623959">
        <ele>52.3851891</ele>
        <time>2019-09-10T14:54:01.400Z</time>
      </trkpt>
      <trkpt lat="10.1566419326802" lon="-75.6835324745574">
        <ele>52.3851891</ele>
        <time>2019-09-10T14:54:01.500Z</time>
      </trkpt>
      <trkpt lat="10.1566401967849" lon="-75.6835303293334">
        <ele>52.3851891</ele>
        <time>2019-09-10T14:54:01.600Z</time>
      </trkpt>
      <trkpt lat="10.1566384521352" lon="-75.6835282120997">
        <ele>52.3851891</ele>
        <time>2019-09-10T14:54:01.700Z</time>
      </trkpt>
      <trkpt lat="10.1566367045672" lon="-75.6835261171468">
        <ele>52.3851891</ele>
        <time>2019-09-10T14:54:01.800Z</time>
      </trkpt>
      <trkpt lat="10.1566349811784" lon="-75.6835240231686">
        <ele>52.3851891</ele>
        <time>2019-09-10T14:54:01.900Z</time>
      </trkpt>
      <trkpt lat="10.1566332609163" lon="-75.6835219265447">
        <ele>52.3851891</ele>
        <time>2019-09-10T14:54:02.000Z</time>
      </trkpt>
      <trkpt lat="10.1566315168918" lon="-75.683519804437">
        <ele>52.3851891</ele>
        <time>2019-09-10T14:54:02.100Z</time>
      </trkpt>
      <trkpt lat="10.1566297607778" lon="-75.6835176801013">
        <ele>52.3851891</ele>
        <time>2019-09-10T14:54:02.200Z</time>
      </trkpt>
      <trkpt lat="10.1566280278007" lon="-75.6835155884905">
        <ele>52.3851891</ele>
        <time>2019-09-10T14:54:02.300Z</time>
      </trkpt>
      <trkpt lat="10.1566263014938" lon="-75.6835135121978">
        <ele>52.3851891</ele>
        <time>2019-09-10T14:54:02.400Z</time>
      </trkpt>
      <trkpt lat="10.1566245739362" lon="-75.6835114391079">
        <ele>52.3851891</ele>
        <time>2019-09-10T14:54:02.500Z</time>
      </trkpt>
      <trkpt lat="10.1566228365818" lon="-75.6835093626759">
        <ele>52.3851891</ele>
        <time>2019-09-10T14:54:02.600Z</time>
      </trkpt>
      <trkpt lat="10.15662109756" lon="-75.6835072849906">
        <ele>52.3851891</ele>
        <time>2019-09-10T14:54:02.700Z</time>
      </trkpt>
      <trkpt lat="10.1566193474907" lon="-75.6835052066091">
        <ele>52.3851891</ele>
        <time>2019-09-10T14:54:02.800Z</time>
      </trkpt>
      <trkpt lat="10.1566175932527" lon="-75.6835031151375">
        <ele>52.3851891</ele>
        <time>2019-09-10T14:54:02.900Z</time>
      </trkpt>
      <trkpt lat="10.1566158315108" lon="-75.6835010187921">
        <ele>52.3851891</ele>
        <time>2019-09-10T14:54:03.000Z</time>
      </trkpt>
      <trkpt lat="10.1566140501754" lon="-75.6834989341441">
        <ele>52.3851891</ele>
        <time>2019-09-10T14:54:03.100Z</time>
      </trkpt>
      <trkpt lat="10.1566122617531" lon="-75.6834968528381">
        <ele>52.2851891</ele>
        <time>2019-09-10T14:54:03.200Z</time>
      </trkpt>
      <trkpt lat="10.1566104852119" lon="-75.6834947623414">
        <ele>52.2851891</ele>
        <time>2019-09-10T14:54:03.300Z</time>
      </trkpt>
      <trkpt lat="10.1566087115889" lon="-75.6834926672492">
        <ele>52.2851891</ele>
        <time>2019-09-10T14:54:03.400Z</time>
      </trkpt>
      <trkpt lat="10.1566069281691" lon="-75.6834905682579">
        <ele>52.2851891</ele>
        <time>2019-09-10T14:54:03.500Z</time>
      </trkpt>
      <trkpt lat="10.1566051437072" lon="-75.6834884707984">
        <ele>52.2851891</ele>
        <time>2019-09-10T14:54:03.600Z</time>
      </trkpt>
      <trkpt lat="10.1566033811315" lon="-75.6834864010507">
        <ele>52.2851891</ele>
        <time>2019-09-10T14:54:03.700Z</time>
      </trkpt>
      <trkpt lat="10.1566016279356" lon="-75.6834843423041">
        <ele>52.2851891</ele>
        <time>2019-09-10T14:54:03.800Z</time>
      </trkpt>
      <trkpt lat="10.1565998814099" lon="-75.6834822764555">
        <ele>52.2851891</ele>
        <time>2019-09-10T14:54:03.900Z</time>
      </trkpt>
      <trkpt lat="10.1565981340504" lon="-75.6834801980739">
        <ele>52.2851891</ele>
        <time>2019-09-10T14:54:04.000Z</time>
      </trkpt>
      <trkpt lat="10.1565963783533" lon="-75.6834781018677">
        <ele>52.2851891</ele>
        <time>2019-09-10T14:54:04.100Z</time>
      </trkpt>
      <trkpt lat="10.1565946151523" lon="-75.6834760009268">
        <ele>52.2851891</ele>
        <time>2019-09-10T14:54:04.200Z</time>
      </trkpt>
      <trkpt lat="10.1565928286059" lon="-75.6834738891241">
        <ele>52.2851891</ele>
        <time>2019-09-10T14:54:04.300Z</time>
      </trkpt>
      <trkpt lat="10.1565910456031" lon="-75.6834717782961">
        <ele>52.2851891</ele>
        <time>2019-09-10T14:54:04.400Z</time>
      </trkpt>
      <trkpt lat="10.1565892769826" lon="-75.6834696599483">
        <ele>52.2851891</ele>
        <time>2019-09-10T14:54:04.500Z</time>
      </trkpt>
      <trkpt lat="10.1565875206602" lon="-75.6834675493988">
        <ele>52.2851891</ele>
        <time>2019-09-10T14:54:04.600Z</time>
      </trkpt>
      <trkpt lat="10.1565857585014" lon="-75.6834654129479">
        <ele>52.2851891</ele>
        <time>2019-09-10T14:54:04.700Z</time>
      </trkpt>
      <trkpt lat="10.1565840048887" lon="-75.6834632861056">
        <ele>52.2851891</ele>
        <time>2019-09-10T14:54:04.800Z</time>
      </trkpt>
      <trkpt lat="10.1565822602389" lon="-75.6834611965837">
        <ele>52.2851891</ele>
        <time>2019-09-10T14:54:04.900Z</time>
      </trkpt>
      <trkpt lat="10.1565805216339" lon="-75.6834591234938">
        <ele>52.3851891</ele>
        <time>2019-09-10T14:54:05.000Z</time>
      </trkpt>
      <trkpt lat="10.1565788115853" lon="-75.6834570666968">
        <ele>52.3851891</ele>
        <time>2019-09-10T14:54:05.100Z</time>
      </trkpt>
      <trkpt lat="10.1565771036212" lon="-75.68345500238">
        <ele>52.3851891</ele>
        <time>2019-09-10T14:54:05.200Z</time>
      </trkpt>
      <trkpt lat="10.1565754010765" lon="-75.6834528964259">
        <ele>52.3851891</ele>
        <time>2019-09-10T14:54:05.300Z</time>
      </trkpt>
      <trkpt lat="10.1565736914448" lon="-75.6834507733435">
        <ele>52.3851891</ele>
        <time>2019-09-10T14:54:05.400Z</time>
      </trkpt>
      <trkpt lat="10.1565720001558" lon="-75.6834486430198">
        <ele>52.3851891</ele>
        <time>2019-09-10T14:54:05.500Z</time>
      </trkpt>
      <trkpt lat="10.1565703071994" lon="-75.6834465167345">
        <ele>52.3851891</ele>
        <time>2019-09-10T14:54:05.600Z</time>
      </trkpt>
      <trkpt lat="10.1565686065307" lon="-75.6834443692824">
        <ele>52.3851891</ele>
        <time>2019-09-10T14:54:05.700Z</time>
      </trkpt>
      <trkpt lat="10.1565651645472" lon="-75.6834400582247">
        <ele>52.3851891</ele>
        <time>2019-09-10T14:54:05.900Z</time>
      </trkpt>
      <trkpt lat="10.1565634213565" lon="-75.6834379050632">
        <ele>52.3851891</ele>
        <time>2019-09-10T14:54:06.000Z</time>
      </trkpt>
      <trkpt lat="10.1565616775405" lon="-75.6834358010587">
        <ele>52.3851891</ele>
        <time>2019-09-10T14:54:06.100Z</time>
      </trkpt>
      <trkpt lat="10.1565599345583" lon="-75.6834337296399">
        <ele>52.3851891</ele>
        <time>2019-09-10T14:54:06.200Z</time>
      </trkpt>
      <trkpt lat="10.1565581721911" lon="-75.6834316502836">
        <ele>52.3851891</ele>
        <time>2019-09-10T14:54:06.300Z</time>
      </trkpt>
      <trkpt lat="10.1565564083648" lon="-75.6834295592298">
        <ele>52.3851891</ele>
        <time>2019-09-10T14:54:06.400Z</time>
      </trkpt>
      <trkpt lat="10.1565546209846" lon="-75.6834274623273">
        <ele>52.3851891</ele>
        <time>2019-09-10T14:54:06.500Z</time>
      </trkpt>
      <trkpt lat="10.1565528392324" lon="-75.683425363893">
        <ele>52.3851891</ele>
        <time>2019-09-10T14:54:06.600Z</time>
      </trkpt>
      <trkpt lat="10.1565493147064" lon="-75.6834211528204">
        <ele>52.3851891</ele>
        <time>2019-09-10T14:54:06.800Z</time>
      </trkpt>
      <trkpt lat="10.156547595278" lon="-75.6834190468664">
        <ele>52.3851891</ele>
        <time>2019-09-10T14:54:06.900Z</time>
      </trkpt>
      <trkpt lat="10.1565458837703" lon="-75.6834169485714">
        <ele>52.3851891</ele>
        <time>2019-09-10T14:54:07.000Z</time>
      </trkpt>
      <trkpt lat="10.1565441774736" lon="-75.6834148497193">
        <ele>52.3851891</ele>
        <time>2019-09-10T14:54:07.100Z</time>
      </trkpt>
      <trkpt lat="10.1565424613803" lon="-75.6834127544879">
        <ele>52.3851891</ele>
        <time>2019-09-10T14:54:07.200Z</time>
      </trkpt>
      <trkpt lat="10.1565407156883" lon="-75.6834106294559">
        <ele>52.3851891</ele>
        <time>2019-09-10T14:54:07.300Z</time>
      </trkpt>
      <trkpt lat="10.1565389620756" lon="-75.6834085097156">
        <ele>52.3851891</ele>
        <time>2019-09-10T14:54:07.400Z</time>
      </trkpt>
      <trkpt lat="10.1565372284732" lon="-75.683406418244">
        <ele>52.3851891</ele>
        <time>2019-09-10T14:54:07.500Z</time>
      </trkpt>
      <trkpt lat="10.1565355057097" lon="-75.6834043448757">
        <ele>52.3851891</ele>
        <time>2019-09-10T14:54:07.600Z</time>
      </trkpt>
      <trkpt lat="10.1565337846138" lon="-75.6834022939274">
        <ele>52.4851891</ele>
        <time>2019-09-10T14:54:07.700Z</time>
      </trkpt>
      <trkpt lat="10.1565320568477" lon="-75.6834002447894">
        <ele>52.4851891</ele>
        <time>2019-09-10T14:54:07.800Z</time>
      </trkpt>
      <trkpt lat="10.1565303232453" lon="-75.6833982104124">
        <ele>52.4851891</ele>
        <time>2019-09-10T14:54:07.900Z</time>
      </trkpt>
      <trkpt lat="10.1565285867248" lon="-75.6833961661483">
        <ele>52.4851891</ele>
        <time>2019-09-10T14:54:08.000Z</time>
      </trkpt>
      <trkpt lat="10.1565268512464" lon="-75.6833941046166">
        <ele>52.4851891</ele>
        <time>2019-09-10T14:54:08.100Z</time>
      </trkpt>
      <trkpt lat="10.1565251155596" lon="-75.683392030552">
        <ele>52.4851891</ele>
        <time>2019-09-10T14:54:08.200Z</time>
      </trkpt>
      <trkpt lat="10.156523379039" lon="-75.6833899381056">
        <ele>52.4851891</ele>
        <time>2019-09-10T14:54:08.300Z</time>
      </trkpt>
      <trkpt lat="10.1565216450197" lon="-75.6833878431527">
        <ele>52.4851891</ele>
        <time>2019-09-10T14:54:08.400Z</time>
      </trkpt>
      <trkpt lat="10.1565199558152" lon="-75.6833857573907">
        <ele>52.4851891</ele>
        <time>2019-09-10T14:54:08.500Z</time>
      </trkpt>
      <trkpt lat="10.1565182751568" lon="-75.6833836765025">
        <ele>52.4851891</ele>
        <time>2019-09-10T14:54:08.600Z</time>
      </trkpt>
      <trkpt lat="10.1565165851186" lon="-75.6833816061978">
        <ele>52.4851891</ele>
        <time>2019-09-10T14:54:08.700Z</time>
      </trkpt>
      <trkpt lat="10.1565148719434" lon="-75.6833795345004">
        <ele>52.4851891</ele>
        <time>2019-09-10T14:54:08.800Z</time>
      </trkpt>
      <trkpt lat="10.1565131452195" lon="-75.6833774569544">
        <ele>52.4851891</ele>
        <time>2019-09-10T14:54:08.900Z</time>
      </trkpt>
      <trkpt lat="10.1565114103665" lon="-75.6833753730026">
        <ele>52.4851891</ele>
        <time>2019-09-10T14:54:09.000Z</time>
      </trkpt>
      <trkpt lat="10.1565096648829" lon="-75.6833732825059">
        <ele>52.4851891</ele>
        <time>2019-09-10T14:54:09.100Z</time>
      </trkpt>
      <trkpt lat="10.1565079183572" lon="-75.6833711938195">
        <ele>52.4851891</ele>
        <time>2019-09-10T14:54:09.200Z</time>
      </trkpt>
      <trkpt lat="10.1565061455679" lon="-75.6833690725474">
        <ele>52.4851891</ele>
        <time>2019-09-10T14:54:09.300Z</time>
      </trkpt>
      <trkpt lat="10.1565043727787" lon="-75.6833669547566">
        <ele>52.4851891</ele>
        <time>2019-09-10T14:54:09.400Z</time>
      </trkpt>
      <trkpt lat="10.1565025991556" lon="-75.6833648286106">
        <ele>52.4851891</ele>
        <time>2019-09-10T14:54:09.500Z</time>
      </trkpt>
      <trkpt lat="10.1565008392897" lon="-75.6833627187574">
        <ele>52.4851891</ele>
        <time>2019-09-10T14:54:09.600Z</time>
      </trkpt>
      <trkpt lat="10.156499083801" lon="-75.6833606258933">
        <ele>52.4851891</ele>
        <time>2019-09-10T14:54:09.700Z</time>
      </trkpt>
      <trkpt lat="10.156497334774" lon="-75.6833585493221">
        <ele>52.4851891</ele>
        <time>2019-09-10T14:54:09.800Z</time>
      </trkpt>
      <trkpt lat="10.156495592834" lon="-75.6833564650918">
        <ele>52.4851891</ele>
        <time>2019-09-10T14:54:09.900Z</time>
      </trkpt>
      <trkpt lat="10.1564938531868" lon="-75.6833543779371">
        <ele>52.3851891</ele>
        <time>2019-09-10T14:54:10.000Z</time>
      </trkpt>
      <trkpt lat="10.156492142096" lon="-75.6833523326983">
        <ele>52.3851891</ele>
        <time>2019-09-10T14:54:10.100Z</time>
      </trkpt>
      <trkpt lat="10.1564887378403" lon="-75.6833482295484">
        <ele>52.3851891</ele>
        <time>2019-09-10T14:54:10.300Z</time>
      </trkpt>
      <trkpt lat="10.1564870338365" lon="-75.6833461403049">
        <ele>52.3851891</ele>
        <time>2019-09-10T14:54:10.400Z</time>
      </trkpt>
      <trkpt lat="10.1564853273314" lon="-75.6833440324013">
        <ele>52.3851891</ele>
        <time>2019-09-10T14:54:10.500Z</time>
      </trkpt>
      <trkpt lat="10.1564836101959" lon="-75.6833419290931">
        <ele>52.3851891</ele>
        <time>2019-09-10T14:54:10.600Z</time>
      </trkpt>
      <trkpt lat="10.1564819059836" lon="-75.6833398157585">
        <ele>52.3851891</ele>
        <time>2019-09-10T14:54:10.700Z</time>
      </trkpt>
      <trkpt lat="10.1564802005208" lon="-75.6833377138428">
        <ele>52.3851891</ele>
        <time>2019-09-10T14:54:10.800Z</time>
      </trkpt>
      <trkpt lat="10.1564785063137" lon="-75.6833356329547">
        <ele>52.3851891</ele>
        <time>2019-09-10T14:54:10.900Z</time>
      </trkpt>
      <trkpt lat="10.156476807104" lon="-75.6833335669668">
        <ele>52.3851891</ele>
        <time>2019-09-10T14:54:11.000Z</time>
      </trkpt>
      <trkpt lat="10.1564750991398" lon="-75.6833314650512">
        <ele>52.3851891</ele>
        <time>2019-09-10T14:54:11.100Z</time>
      </trkpt>
      <trkpt lat="10.1564733792945" lon="-75.6833293550587">
        <ele>52.3851891</ele>
        <time>2019-09-10T14:54:11.200Z</time>
      </trkpt>
      <trkpt lat="10.1564716473597" lon="-75.683327259131">
        <ele>52.3851891</ele>
        <time>2019-09-10T14:54:11.300Z</time>
      </trkpt>
      <trkpt lat="10.1564699104222" lon="-75.6833251771288">
        <ele>52.3851891</ele>
        <time>2019-09-10T14:54:11.400Z</time>
      </trkpt>
      <trkpt lat="10.1564681613952" lon="-75.6833230862143">
        <ele>52.3851891</ele>
        <time>2019-09-10T14:54:11.500Z</time>
      </trkpt>
      <trkpt lat="10.1564664123682" lon="-75.6833209976671">
        <ele>52.3851891</ele>
        <time>2019-09-10T14:54:11.600Z</time>
      </trkpt>
      <trkpt lat="10.1564646589639" lon="-75.6833189261091">
        <ele>52.3851891</ele>
        <time>2019-09-10T14:54:11.700Z</time>
      </trkpt>
      <trkpt lat="10.1564629126466" lon="-75.6833168631848">
        <ele>52.3851891</ele>
        <time>2019-09-10T14:54:11.800Z</time>
      </trkpt>
      <trkpt lat="10.15646116758" lon="-75.6833147874491">
        <ele>52.3851891</ele>
        <time>2019-09-10T14:54:11.900Z</time>
      </trkpt>
      <trkpt lat="10.1564594281412" lon="-75.6833127067002">
        <ele>52.3851891</ele>
        <time>2019-09-10T14:54:12.000Z</time>
      </trkpt>
      <trkpt lat="10.1564576893278" lon="-75.6833106091015">
        <ele>52.3851891</ele>
        <time>2019-09-10T14:54:12.100Z</time>
      </trkpt>
      <trkpt lat="10.1564559565592" lon="-75.68330851387">
        <ele>52.3851891</ele>
        <time>2019-09-10T14:54:12.200Z</time>
      </trkpt>
      <trkpt lat="10.156454250471" lon="-75.6833064037383">
        <ele>52.3851891</ele>
        <time>2019-09-10T14:54:12.300Z</time>
      </trkpt>
      <trkpt lat="10.1564525508444" lon="-75.6833042986198">
        <ele>52.3851891</ele>
        <time>2019-09-10T14:54:12.400Z</time>
      </trkpt>
      <trkpt lat="10.1564508228699" lon="-75.6833021556239">
        <ele>52.3851891</ele>
        <time>2019-09-10T14:54:12.500Z</time>
      </trkpt>
      <trkpt lat="10.1564490853072" lon="-75.6833000195908">
        <ele>52.3851891</ele>
        <time>2019-09-10T14:54:12.600Z</time>
      </trkpt>
      <trkpt lat="10.1564473879735" lon="-75.6832979114086">
        <ele>52.3851891</ele>
        <time>2019-09-10T14:54:12.700Z</time>
      </trkpt>
      <trkpt lat="10.1564457033547" lon="-75.6832958245325">
        <ele>52.3851891</ele>
        <time>2019-09-10T14:54:12.800Z</time>
      </trkpt>
      <trkpt lat="10.1564440087307" lon="-75.6832937383527">
        <ele>52.3851891</ele>
        <time>2019-09-10T14:54:12.900Z</time>
      </trkpt>
      <trkpt lat="10.1564423001412" lon="-75.6832916525906">
        <ele>52.3851891</ele>
        <time>2019-09-10T14:54:13.000Z</time>
      </trkpt>
      <trkpt lat="10.1564405777946" lon="-75.6832895618153">
        <ele>52.3851891</ele>
        <time>2019-09-10T14:54:13.100Z</time>
      </trkpt>
      <trkpt lat="10.1564388485695" lon="-75.6832874745214">
        <ele>52.3851891</ele>
        <time>2019-09-10T14:54:13.200Z</time>
      </trkpt>
      <trkpt lat="10.1564371303917" lon="-75.6832853795685">
        <ele>52.3851891</ele>
        <time>2019-09-10T14:54:13.300Z</time>
      </trkpt>
      <trkpt lat="10.1564354186756" lon="-75.6832832862867">
        <ele>52.2851891</ele>
        <time>2019-09-10T14:54:13.400Z</time>
      </trkpt>
      <trkpt lat="10.1564336977881" lon="-75.6832811857636">
        <ele>52.2851891</ele>
        <time>2019-09-10T14:54:13.500Z</time>
      </trkpt>
      <trkpt lat="10.1564319746078" lon="-75.683279085519">
        <ele>52.2851891</ele>
        <time>2019-09-10T14:54:13.600Z</time>
      </trkpt>
      <trkpt lat="10.1564302656014" lon="-75.6832770047701">
        <ele>52.2851891</ele>
        <time>2019-09-10T14:54:13.700Z</time>
      </trkpt>
      <trkpt lat="10.1564285613891" lon="-75.6832749353008">
        <ele>52.2851891</ele>
        <time>2019-09-10T14:54:13.800Z</time>
      </trkpt>
      <trkpt lat="10.1564268219504" lon="-75.6832728062305">
        <ele>52.2851891</ele>
        <time>2019-09-10T14:54:13.900Z</time>
      </trkpt>
      <trkpt lat="10.156425070839" lon="-75.6832706660197">
        <ele>52.2851891</ele>
        <time>2019-09-10T14:54:14.000Z</time>
      </trkpt>
      <trkpt lat="10.1564233007594" lon="-75.6832684937802">
        <ele>52.2851891</ele>
        <time>2019-09-10T14:54:14.100Z</time>
      </trkpt>
      <trkpt lat="10.15642153735" lon="-75.6832663382513">
        <ele>52.2851891</ele>
        <time>2019-09-10T14:54:14.200Z</time>
      </trkpt>
      <trkpt lat="10.1564197656029" lon="-75.6832641795196">
        <ele>52.2851891</ele>
        <time>2019-09-10T14:54:14.300Z</time>
      </trkpt>
      <trkpt lat="10.1564180030272" lon="-75.6832620413977">
        <ele>52.2851891</ele>
        <time>2019-09-10T14:54:14.400Z</time>
      </trkpt>
      <trkpt lat="10.1564162394094" lon="-75.6832599067571">
        <ele>52.2851891</ele>
        <time>2019-09-10T14:54:14.500Z</time>
      </trkpt>
      <trkpt lat="10.1564144839207" lon="-75.6832577839531">
        <ele>52.2851891</ele>
        <time>2019-09-10T14:54:14.600Z</time>
      </trkpt>
      <trkpt lat="10.1564127042529" lon="-75.6832556981911">
        <ele>52.2851891</ele>
        <time>2019-09-10T14:54:14.700Z</time>
      </trkpt>
      <trkpt lat="10.1564109250019" lon="-75.6832536246834">
        <ele>52.2851891</ele>
        <time>2019-09-10T14:54:14.800Z</time>
      </trkpt>
      <trkpt lat="10.156407445916" lon="-75.6832495446498">
        <ele>52.2851891</ele>
        <time>2019-09-10T14:54:15.000Z</time>
      </trkpt>
      <trkpt lat="10.1564057064773" lon="-75.683247472117">
        <ele>52.2851891</ele>
        <time>2019-09-10T14:54:15.100Z</time>
      </trkpt>
      <trkpt lat="10.1564039599515" lon="-75.6832453766071">
        <ele>52.3851891</ele>
        <time>2019-09-10T14:54:15.200Z</time>
      </trkpt>
      <trkpt lat="10.1564022184284" lon="-75.6832432443338">
        <ele>52.3851891</ele>
        <time>2019-09-10T14:54:15.300Z</time>
      </trkpt>
      <trkpt lat="10.1564004827416" lon="-75.6832411120605">
        <ele>52.3851891</ele>
        <time>2019-09-10T14:54:15.400Z</time>
      </trkpt>
      <trkpt lat="10.1563987724846" lon="-75.6832390030429">
        <ele>52.3851891</ele>
        <time>2019-09-10T14:54:15.500Z</time>
      </trkpt>
      <trkpt lat="10.1563970699399" lon="-75.6832369131031">
        <ele>52.3851891</ele>
        <time>2019-09-10T14:54:15.600Z</time>
      </trkpt>
      <trkpt lat="10.1563936050279" lon="-75.6832326768254">
        <ele>52.3851891</ele>
        <time>2019-09-10T14:54:15.800Z</time>
      </trkpt>
      <trkpt lat="10.1563918789294" lon="-75.6832305829865">
        <ele>52.3851891</ele>
        <time>2019-09-10T14:54:15.900Z</time>
      </trkpt>
      <trkpt lat="10.1563901613769" lon="-75.6832285061368">
        <ele>52.3851891</ele>
        <time>2019-09-10T14:54:16.000Z</time>
      </trkpt>
      <trkpt lat="10.1563884161018" lon="-75.6832264000435">
        <ele>52.3851891</ele>
        <time>2019-09-10T14:54:16.100Z</time>
      </trkpt>
      <trkpt lat="10.1563866631145" lon="-75.6832242881014">
        <ele>52.3851891</ele>
        <time>2019-09-10T14:54:16.200Z</time>
      </trkpt>
      <trkpt lat="10.1563849307627" lon="-75.6832221694752">
        <ele>52.3851891</ele>
        <time>2019-09-10T14:54:16.300Z</time>
      </trkpt>
      <trkpt lat="10.1563832125849" lon="-75.6832200603182">
        <ele>52.3851891</ele>
        <time>2019-09-10T14:54:16.400Z</time>
      </trkpt>
      <trkpt lat="10.1563815140006" lon="-75.6832179726066">
        <ele>52.3851891</ele>
        <time>2019-09-10T14:54:16.500Z</time>
      </trkpt>
      <trkpt lat="10.1563798170838" lon="-75.6832158985419">
        <ele>52.3851891</ele>
        <time>2019-09-10T14:54:16.600Z</time>
      </trkpt>
      <trkpt lat="10.1563781174572" lon="-75.6832137931449">
        <ele>52.3851891</ele>
        <time>2019-09-10T14:54:16.700Z</time>
      </trkpt>
      <trkpt lat="10.1563764084509" lon="-75.6832116770252">
        <ele>52.3851891</ele>
        <time>2019-09-10T14:54:16.800Z</time>
      </trkpt>
      <trkpt lat="10.1563747302937" lon="-75.6832096047709">
        <ele>52.3851891</ele>
        <time>2019-09-10T14:54:16.900Z</time>
      </trkpt>
      <trkpt lat="10.1563730567223" lon="-75.6832075542404">
        <ele>52.4851891</ele>
        <time>2019-09-10T14:54:17.000Z</time>
      </trkpt>
      <trkpt lat="10.1563713241621" lon="-75.6832054495396">
        <ele>52.4851891</ele>
        <time>2019-09-10T14:54:17.100Z</time>
      </trkpt>
      <trkpt lat="10.1563695640877" lon="-75.6832033210262">
        <ele>52.4851891</ele>
        <time>2019-09-10T14:54:17.200Z</time>
      </trkpt>
      <trkpt lat="10.1563677829608" lon="-75.6832011861071">
        <ele>52.4851891</ele>
        <time>2019-09-10T14:54:17.300Z</time>
      </trkpt>
      <trkpt lat="10.1563660145488" lon="-75.6831990694304">
        <ele>52.4851891</ele>
        <time>2019-09-10T14:54:17.400Z</time>
      </trkpt>
      <trkpt lat="10.1563642403004" lon="-75.6831969481583">
        <ele>52.4851891</ele>
        <time>2019-09-10T14:54:17.500Z</time>
      </trkpt>
      <trkpt lat="10.1563624791838" lon="-75.6831948383051">
        <ele>52.4851891</ele>
        <time>2019-09-10T14:54:17.600Z</time>
      </trkpt>
      <trkpt lat="10.1563606951388" lon="-75.6831926975373">
        <ele>52.4851891</ele>
        <time>2019-09-10T14:54:17.700Z</time>
      </trkpt>
      <trkpt lat="10.1563589204735" lon="-75.6831905637322">
        <ele>52.4851891</ele>
        <time>2019-09-10T14:54:17.800Z</time>
      </trkpt>
      <trkpt lat="10.1563571754069" lon="-75.6831884341048">
        <ele>52.4851891</ele>
        <time>2019-09-10T14:54:17.900Z</time>
      </trkpt>
      <trkpt lat="10.1563554482662" lon="-75.6831863182636">
        <ele>52.4851891</ele>
        <time>2019-09-10T14:54:18.000Z</time>
      </trkpt>
      <trkpt lat="10.1563537292546" lon="-75.6831842325015">
        <ele>52.4851891</ele>
        <time>2019-09-10T14:54:18.100Z</time>
      </trkpt>
      <trkpt lat="10.1563520083671" lon="-75.6831821570443">
        <ele>52.4851891</ele>
        <time>2019-09-10T14:54:18.200Z</time>
      </trkpt>
      <trkpt lat="10.1563502872712" lon="-75.6831800849293">
        <ele>52.4851891</ele>
        <time>2019-09-10T14:54:18.300Z</time>
      </trkpt>
      <trkpt lat="10.1563485642993" lon="-75.683178006687">
        <ele>52.4851891</ele>
        <time>2019-09-10T14:54:18.400Z</time>
      </trkpt>
      <trkpt lat="10.1563468363248" lon="-75.683175951004">
        <ele>52.4851891</ele>
        <time>2019-09-10T14:54:18.500Z</time>
      </trkpt>
      <trkpt lat="10.1563451054321" lon="-75.6831738926751">
        <ele>52.4851891</ele>
        <time>2019-09-10T14:54:18.600Z</time>
      </trkpt>
      <trkpt lat="10.1563433645343" lon="-75.6831718530065">
        <ele>52.4851891</ele>
        <time>2019-09-10T14:54:18.700Z</time>
      </trkpt>
      <trkpt lat="10.1563416248871" lon="-75.6831698028937">
        <ele>52.4851891</ele>
        <time>2019-09-10T14:54:18.800Z</time>
      </trkpt>
      <trkpt lat="10.1563399090022" lon="-75.6831677949752">
        <ele>52.4851891</ele>
        <time>2019-09-10T14:54:18.900Z</time>
      </trkpt>
      <trkpt lat="10.1563381974945" lon="-75.6831657793977">
        <ele>52.4851891</ele>
        <time>2019-09-10T14:54:19.000Z</time>
      </trkpt>
      <trkpt lat="10.1563348069959" lon="-75.6831617478248">
        <ele>52.3851891</ele>
        <time>2019-09-10T14:54:19.200Z</time>
      </trkpt>
      <trkpt lat="10.1563330988233" lon="-75.6831596974335">
        <ele>52.3851891</ele>
        <time>2019-09-10T14:54:19.300Z</time>
      </trkpt>
      <trkpt lat="10.1563313804371" lon="-75.6831576246222">
        <ele>52.3851891</ele>
        <time>2019-09-10T14:54:19.400Z</time>
      </trkpt>
      <trkpt lat="10.1563296503782" lon="-75.6831555257701">
        <ele>52.3851891</ele>
        <time>2019-09-10T14:54:19.500Z</time>
      </trkpt>
      <trkpt lat="10.1563279165674" lon="-75.6831534238545">
        <ele>52.3851891</ele>
        <time>2019-09-10T14:54:19.600Z</time>
      </trkpt>
      <trkpt lat="10.1563261990149" lon="-75.6831513042534">
        <ele>52.3851891</ele>
        <time>2019-09-10T14:54:19.700Z</time>
      </trkpt>
      <trkpt lat="10.1563244872988" lon="-75.683149189387">
        <ele>52.3851891</ele>
        <time>2019-09-10T14:54:19.800Z</time>
      </trkpt>
      <trkpt lat="10.156322770997" lon="-75.6831470631017">
        <ele>52.3851891</ele>
        <time>2019-09-10T14:54:19.900Z</time>
      </trkpt>
      <trkpt lat="10.1563210478166" lon="-75.6831449436399">
        <ele>52.3851891</ele>
        <time>2019-09-10T14:54:20.000Z</time>
      </trkpt>
      <trkpt lat="10.156319295663" lon="-75.6831428211145">
        <ele>52.3851891</ele>
        <time>2019-09-10T14:54:20.100Z</time>
      </trkpt>
      <trkpt lat="10.1563175441347" lon="-75.6831407075015">
        <ele>52.4851891</ele>
        <time>2019-09-10T14:54:20.200Z</time>
      </trkpt>
      <trkpt lat="10.1563157611318" lon="-75.6831385369331">
        <ele>52.4851891</ele>
        <time>2019-09-10T14:54:20.300Z</time>
      </trkpt>
      <trkpt lat="10.1563139943873" lon="-75.6831363659469">
        <ele>52.4851891</ele>
        <time>2019-09-10T14:54:20.400Z</time>
      </trkpt>
      <trkpt lat="10.1563122457772" lon="-75.683134231167">
        <ele>52.4851891</ele>
        <time>2019-09-10T14:54:20.500Z</time>
      </trkpt>
      <trkpt lat="10.1563105130086" lon="-75.68313212577">
        <ele>52.4851891</ele>
        <time>2019-09-10T14:54:20.600Z</time>
      </trkpt>
      <trkpt lat="10.1563088004587" lon="-75.6831300330452">
        <ele>52.4851891</ele>
        <time>2019-09-10T14:54:20.700Z</time>
      </trkpt>
      <trkpt lat="10.1563070916608" lon="-75.6831279403203">
        <ele>52.3851891</ele>
        <time>2019-09-10T14:54:20.800Z</time>
      </trkpt>
      <trkpt lat="10.1563053795278" lon="-75.6831258530265">
        <ele>52.3851891</ele>
        <time>2019-09-10T14:54:20.900Z</time>
      </trkpt>
      <trkpt lat="10.156303659474" lon="-75.6831237619727">
        <ele>52.3851891</ele>
        <time>2019-09-10T14:54:21.000Z</time>
      </trkpt>
      <trkpt lat="10.1563019312911" lon="-75.6831216685516">
        <ele>52.3851891</ele>
        <time>2019-09-10T14:54:21.100Z</time>
      </trkpt>
      <trkpt lat="10.1563002024828" lon="-75.6831195662182">
        <ele>52.3851891</ele>
        <time>2019-09-10T14:54:21.200Z</time>
      </trkpt>
      <trkpt lat="10.1562984642947" lon="-75.6831174592893">
        <ele>52.3851891</ele>
        <time>2019-09-10T14:54:21.300Z</time>
      </trkpt>
      <trkpt lat="10.1562967294417" lon="-75.6831153483221">
        <ele>52.3851891</ele>
        <time>2019-09-10T14:54:21.400Z</time>
      </trkpt>
      <trkpt lat="10.1562950114724" lon="-75.6831132408362">
        <ele>52.3851891</ele>
        <time>2019-09-10T14:54:21.500Z</time>
      </trkpt>
      <trkpt lat="10.156293298714" lon="-75.6831111350214">
        <ele>52.3851891</ele>
        <time>2019-09-10T14:54:21.600Z</time>
      </trkpt>
      <trkpt lat="10.1562915774097" lon="-75.6831090381189">
        <ele>52.3851891</ele>
        <time>2019-09-10T14:54:21.700Z</time>
      </trkpt>
      <trkpt lat="10.1562898461001" lon="-75.6831069405202">
        <ele>52.3851891</ele>
        <time>2019-09-10T14:54:21.800Z</time>
      </trkpt>
      <trkpt lat="10.1562881016588" lon="-75.6831048211976">
        <ele>52.3851891</ele>
        <time>2019-09-10T14:54:21.900Z</time>
      </trkpt>
      <trkpt lat="10.1562863513811" lon="-75.6831026978367">
        <ele>52.3851891</ele>
        <time>2019-09-10T14:54:22.000Z</time>
      </trkpt>
      <trkpt lat="10.1562845967262" lon="-75.6831005792104">
        <ele>52.3851891</ele>
        <time>2019-09-10T14:54:22.100Z</time>
      </trkpt>
      <trkpt lat="10.1562828435304" lon="-75.683098470332">
        <ele>52.3851891</ele>
        <time>2019-09-10T14:54:22.200Z</time>
      </trkpt>
      <trkpt lat="10.156281090543" lon="-75.6830963685556">
        <ele>52.3851891</ele>
        <time>2019-09-10T14:54:22.300Z</time>
      </trkpt>
      <trkpt lat="10.1562793375556" lon="-75.6830942690073">
        <ele>52.3851891</ele>
        <time>2019-09-10T14:54:22.400Z</time>
      </trkpt>
      <trkpt lat="10.1562775668507" lon="-75.683092136177">
        <ele>52.3851891</ele>
        <time>2019-09-10T14:54:22.500Z</time>
      </trkpt>
      <trkpt lat="10.1562757969796" lon="-75.6830899923456">
        <ele>52.3851891</ele>
        <time>2019-09-10T14:54:22.600Z</time>
      </trkpt>
      <trkpt lat="10.1562740323195" lon="-75.6830878242838">
        <ele>52.3851891</ele>
        <time>2019-09-10T14:54:22.700Z</time>
      </trkpt>
      <trkpt lat="10.1562722772477" lon="-75.6830856666661">
        <ele>52.3851891</ele>
        <time>2019-09-10T14:54:22.800Z</time>
      </trkpt>
      <trkpt lat="10.1562704798624" lon="-75.6830834710318">
        <ele>52.3851891</ele>
        <time>2019-09-10T14:54:22.900Z</time>
      </trkpt>
      <trkpt lat="10.15626868477" lon="-75.6830812933614">
        <ele>52.3851891</ele>
        <time>2019-09-10T14:54:23.000Z</time>
      </trkpt>
      <trkpt lat="10.1562668998912" lon="-75.6830791720893">
        <ele>52.3851891</ele>
        <time>2019-09-10T14:54:23.100Z</time>
      </trkpt>
      <trkpt lat="10.1562651373155" lon="-75.6830770846561">
        <ele>52.3851891</ele>
        <time>2019-09-10T14:54:23.200Z</time>
      </trkpt>
      <trkpt lat="10.1562633851619" lon="-75.683074989564">
        <ele>52.3851891</ele>
        <time>2019-09-10T14:54:23.300Z</time>
      </trkpt>
      <trkpt lat="10.1562599296298" lon="-75.6830708160902">
        <ele>52.3851891</ele>
        <time>2019-09-10T14:54:23.500Z</time>
      </trkpt>
      <trkpt lat="10.1562582212487" lon="-75.6830687514949">
        <ele>52.3851891</ele>
        <time>2019-09-10T14:54:23.600Z</time>
      </trkpt>
      <trkpt lat="10.1562565330864" lon="-75.6830667101552">
        <ele>52.3851891</ele>
        <time>2019-09-10T14:54:23.700Z</time>
      </trkpt>
      <trkpt lat="10.1562548395046" lon="-75.6830646603209">
        <ele>52.3851891</ele>
        <time>2019-09-10T14:54:23.800Z</time>
      </trkpt>
      <trkpt lat="10.1562531207015" lon="-75.6830625812431">
        <ele>52.3851891</ele>
        <time>2019-09-10T14:54:23.900Z</time>
      </trkpt>
      <trkpt lat="10.1562513766771" lon="-75.6830604854546">
        <ele>52.3851891</ele>
        <time>2019-09-10T14:54:24.000Z</time>
      </trkpt>
      <trkpt lat="10.1562496247319" lon="-75.6830583845138">
        <ele>52.3851891</ele>
        <time>2019-09-10T14:54:24.100Z</time>
      </trkpt>
      <trkpt lat="10.1562478759133" lon="-75.6830562884468">
        <ele>52.3851891</ele>
        <time>2019-09-10T14:54:24.200Z</time>
      </trkpt>
      <trkpt lat="10.1562460754014" lon="-75.6830541233094">
        <ele>52.3851891</ele>
        <time>2019-09-10T14:54:24.300Z</time>
      </trkpt>
      <trkpt lat="10.1562442792668" lon="-75.6830519537158">
        <ele>52.3851891</ele>
        <time>2019-09-10T14:54:24.400Z</time>
      </trkpt>
      <trkpt lat="10.1562424900107" lon="-75.6830497980476">
        <ele>52.3851891</ele>
        <time>2019-09-10T14:54:24.500Z</time>
      </trkpt>
      <trkpt lat="10.1562407263928" lon="-75.6830476742689">
        <ele>52.3851891</ele>
        <time>2019-09-10T14:54:24.600Z</time>
      </trkpt>
      <trkpt lat="10.1562389700704" lon="-75.683045529602">
        <ele>52.3851891</ele>
        <time>2019-09-10T14:54:24.700Z</time>
      </trkpt>
      <trkpt lat="10.1562372250037" lon="-75.6830433917585">
        <ele>52.3851891</ele>
        <time>2019-09-10T14:54:24.800Z</time>
      </trkpt>
      <trkpt lat="10.156235515372" lon="-75.6830412683976">
        <ele>52.3851891</ele>
        <time>2019-09-10T14:54:24.900Z</time>
      </trkpt>
      <trkpt lat="10.1562338132442" lon="-75.6830391620258">
        <ele>52.3851891</ele>
        <time>2019-09-10T14:54:25.000Z</time>
      </trkpt>
      <trkpt lat="10.1562321094488" lon="-75.6830370655411">
        <ele>52.3851891</ele>
        <time>2019-09-10T14:54:25.100Z</time>
      </trkpt>
      <trkpt lat="10.1562303927302" lon="-75.6830349712844">
        <ele>52.3851891</ele>
        <time>2019-09-10T14:54:25.200Z</time>
      </trkpt>
      <trkpt lat="10.1562286735102" lon="-75.6830328745212">
        <ele>52.2851891</ele>
        <time>2019-09-10T14:54:25.300Z</time>
      </trkpt>
      <trkpt lat="10.1562252334027" lon="-75.6830286492446">
        <ele>52.2851891</ele>
        <time>2019-09-10T14:54:25.500Z</time>
      </trkpt>
      <trkpt lat="10.1562235120983" lon="-75.6830265200349">
        <ele>52.2851891</ele>
        <time>2019-09-10T14:54:25.600Z</time>
      </trkpt>
      <trkpt lat="10.1562218231022" lon="-75.6830244135239">
        <ele>52.2851891</ele>
        <time>2019-09-10T14:54:25.700Z</time>
      </trkpt>
      <trkpt lat="10.1562201386919" lon="-75.6830223242804">
        <ele>52.2851891</ele>
        <time>2019-09-10T14:54:25.800Z</time>
      </trkpt>
      <trkpt lat="10.1562184173875" lon="-75.6830202166553">
        <ele>52.2851891</ele>
        <time>2019-09-10T14:54:25.900Z</time>
      </trkpt>
      <trkpt lat="10.1562166773234" lon="-75.6830181006749">
        <ele>52.2851891</ele>
        <time>2019-09-10T14:54:26.000Z</time>
      </trkpt>
      <trkpt lat="10.1562149251698" lon="-75.6830159873403">
        <ele>52.2851891</ele>
        <time>2019-09-10T14:54:26.100Z</time>
      </trkpt>
      <trkpt lat="10.1562131853142" lon="-75.6830138816647">
        <ele>52.2851891</ele>
        <time>2019-09-10T14:54:26.200Z</time>
      </trkpt>
      <trkpt lat="10.1562114644267" lon="-75.683011778635">
        <ele>52.2851891</ele>
        <time>2019-09-10T14:54:26.300Z</time>
      </trkpt>
      <trkpt lat="10.1562097560456" lon="-75.6830096821503">
        <ele>52.2851891</ele>
        <time>2019-09-10T14:54:26.400Z</time>
      </trkpt>
      <trkpt lat="10.1562080289049" lon="-75.68300758859">
        <ele>52.2851891</ele>
        <time>2019-09-10T14:54:26.500Z</time>
      </trkpt>
      <trkpt lat="10.1562063028064" lon="-75.6830055022709">
        <ele>52.2851891</ele>
        <time>2019-09-10T14:54:26.600Z</time>
      </trkpt>
      <trkpt lat="10.1562045598241" lon="-75.6830033918607">
        <ele>52.2851891</ele>
        <time>2019-09-10T14:54:26.700Z</time>
      </trkpt>
      <trkpt lat="10.1562010730259" lon="-75.682999156697">
        <ele>52.2851891</ele>
        <time>2019-09-10T14:54:26.900Z</time>
      </trkpt>
      <trkpt lat="10.1561993239989" lon="-75.6829970474008">
        <ele>52.2851891</ele>
        <time>2019-09-10T14:54:27.000Z</time>
      </trkpt>
      <trkpt lat="10.1561975695524" lon="-75.6829949307241">
        <ele>52.2851891</ele>
        <time>2019-09-10T14:54:27.100Z</time>
      </trkpt>
      <trkpt lat="10.1561958123962" lon="-75.6829928233775">
        <ele>52.2851891</ele>
        <time>2019-09-10T14:54:27.200Z</time>
      </trkpt>
      <trkpt lat="10.1561940754587" lon="-75.6829907170057">
        <ele>52.2851891</ele>
        <time>2019-09-10T14:54:27.300Z</time>
      </trkpt>
      <trkpt lat="10.1561923395635" lon="-75.6829886169003">
        <ele>52.2851891</ele>
        <time>2019-09-10T14:54:27.400Z</time>
      </trkpt>
      <trkpt lat="10.1561906128396" lon="-75.6829864885262">
        <ele>52.2851891</ele>
        <time>2019-09-10T14:54:27.500Z</time>
      </trkpt>
      <trkpt lat="10.156188881947" lon="-75.6829843614053">
        <ele>52.2851891</ele>
        <time>2019-09-10T14:54:27.600Z</time>
      </trkpt>
      <trkpt lat="10.156187162727" lon="-75.6829822296891">
        <ele>52.2851891</ele>
        <time>2019-09-10T14:54:27.700Z</time>
      </trkpt>
      <trkpt lat="10.1561854443408" lon="-75.6829801057712">
        <ele>52.2851891</ele>
        <time>2019-09-10T14:54:27.800Z</time>
      </trkpt>
      <trkpt lat="10.156182059887" lon="-75.6829758612774">
        <ele>52.2851891</ele>
        <time>2019-09-10T14:54:28.000Z</time>
      </trkpt>
      <trkpt lat="10.1561803400417" lon="-75.6829736926585">
        <ele>52.2851891</ele>
        <time>2019-09-10T14:54:28.100Z</time>
      </trkpt>
      <trkpt lat="10.1561785989354" lon="-75.6829715280781">
        <ele>52.2851891</ele>
        <time>2019-09-10T14:54:28.200Z</time>
      </trkpt>
      <trkpt lat="10.1561768976414" lon="-75.6829694012358">
        <ele>52.2851891</ele>
        <time>2019-09-10T14:54:28.300Z</time>
      </trkpt>
      <trkpt lat="10.1561752057271" lon="-75.6829672994594">
        <ele>52.2851891</ele>
        <time>2019-09-10T14:54:28.400Z</time>
      </trkpt>
      <trkpt lat="10.1561735119369" lon="-75.6829652088234">
        <ele>52.2851891</ele>
        <time>2019-09-10T14:54:28.500Z</time>
      </trkpt>
      <trkpt lat="10.1561718070994" lon="-75.6829631149845">
        <ele>52.2851891</ele>
        <time>2019-09-10T14:54:28.600Z</time>
      </trkpt>
      <trkpt lat="10.1561701185202" lon="-75.6829610258803">
        <ele>52.2851891</ele>
        <time>2019-09-10T14:54:28.700Z</time>
      </trkpt>
      <trkpt lat="10.156166772628" lon="-75.6829568643825">
        <ele>52.2851891</ele>
        <time>2019-09-10T14:54:28.900Z</time>
      </trkpt>
      <trkpt lat="10.1561651105208" lon="-75.682954800762">
        <ele>52.2851891</ele>
        <time>2019-09-10T14:54:29.000Z</time>
      </trkpt>
      <trkpt lat="10.1561634083929" lon="-75.6829527143036">
        <ele>52.2851891</ele>
        <time>2019-09-10T14:54:29.100Z</time>
      </trkpt>
      <trkpt lat="10.1561616770834" lon="-75.6829506115524">
        <ele>52.2851891</ele>
        <time>2019-09-10T14:54:29.200Z</time>
      </trkpt>
      <trkpt lat="10.156159948692" lon="-75.6829485090798">
        <ele>52.2851891</ele>
        <time>2019-09-10T14:54:29.300Z</time>
      </trkpt>
      <trkpt lat="10.1561582284298" lon="-75.682946410367">
        <ele>52.2851891</ele>
        <time>2019-09-10T14:54:29.400Z</time>
      </trkpt>
      <trkpt lat="10.1561564879489" lon="-75.6829443094261">
        <ele>52.2851891</ele>
        <time>2019-09-10T14:54:29.500Z</time>
      </trkpt>
      <trkpt lat="10.1561529963565" lon="-75.6829401094939">
        <ele>52.2851891</ele>
        <time>2019-09-10T14:54:29.700Z</time>
      </trkpt>
      <trkpt lat="10.1561512487886" lon="-75.6829380120344">
        <ele>52.2851891</ele>
        <time>2019-09-10T14:54:29.800Z</time>
      </trkpt>
      <trkpt lat="10.1561495176875" lon="-75.6829359106758">
        <ele>52.2851891</ele>
        <time>2019-09-10T14:54:29.900Z</time>
      </trkpt>
      <trkpt lat="10.1561477972169" lon="-75.6829338115452">
        <ele>52.2851891</ele>
        <time>2019-09-10T14:54:30.000Z</time>
      </trkpt>
      <trkpt lat="10.1561460717437" lon="-75.6829316831711">
        <ele>52.2851891</ele>
        <time>2019-09-10T14:54:30.100Z</time>
      </trkpt>
      <trkpt lat="10.1561443423101" lon="-75.6829295549362">
        <ele>52.2851891</ele>
        <time>2019-09-10T14:54:30.200Z</time>
      </trkpt>
      <trkpt lat="10.1561426103752" lon="-75.6829274182068">
        <ele>52.2851891</ele>
        <time>2019-09-10T14:54:30.300Z</time>
      </trkpt>
      <trkpt lat="10.1561408767728" lon="-75.6829252908075">
        <ele>52.2851891</ele>
        <time>2019-09-10T14:54:30.400Z</time>
      </trkpt>
      <trkpt lat="10.1561391415029" lon="-75.6829231663325">
        <ele>52.2851891</ele>
        <time>2019-09-10T14:54:30.500Z</time>
      </trkpt>
      <trkpt lat="10.1561374051908" lon="-75.6829210570363">
        <ele>52.2851891</ele>
        <time>2019-09-10T14:54:30.600Z</time>
      </trkpt>
      <trkpt lat="10.1561356357365" lon="-75.6829189338146">
        <ele>52.2851891</ele>
        <time>2019-09-10T14:54:30.700Z</time>
      </trkpt>
      <trkpt lat="10.1561338641979" lon="-75.6829168200623">
        <ele>52.2851891</ele>
        <time>2019-09-10T14:54:30.800Z</time>
      </trkpt>
      <trkpt lat="10.1561321160047" lon="-75.6829147405667">
        <ele>52.2851891</ele>
        <time>2019-09-10T14:54:30.900Z</time>
      </trkpt>
      <trkpt lat="10.1561303803179" lon="-75.682912678478">
        <ele>52.2851891</ele>
        <time>2019-09-10T14:54:31.000Z</time>
      </trkpt>
      <trkpt lat="10.1561286686017" lon="-75.6829106425692">
        <ele>52.2851891</ele>
        <time>2019-09-10T14:54:31.100Z</time>
      </trkpt>
      <trkpt lat="10.1561269700174" lon="-75.6829086037361">
        <ele>52.2851891</ele>
        <time>2019-09-10T14:54:31.200Z</time>
      </trkpt>
      <trkpt lat="10.1561252793538" lon="-75.6829066036159">
        <ele>52.2851891</ele>
        <time>2019-09-10T14:54:31.300Z</time>
      </trkpt>
      <trkpt lat="10.1561235774344" lon="-75.682904600989">
        <ele>52.2851891</ele>
        <time>2019-09-10T14:54:31.400Z</time>
      </trkpt>
      <trkpt lat="10.1561218665521" lon="-75.6829026039324">
        <ele>52.2851891</ele>
        <time>2019-09-10T14:54:31.500Z</time>
      </trkpt>
      <trkpt lat="10.1561201531685" lon="-75.6829005816707">
        <ele>52.2851891</ele>
        <time>2019-09-10T14:54:31.600Z</time>
      </trkpt>
      <trkpt lat="10.1561184078934" lon="-75.682898528912">
        <ele>52.2851891</ele>
        <time>2019-09-10T14:54:31.700Z</time>
      </trkpt>
      <trkpt lat="10.1561166611592" lon="-75.6828964558222">
        <ele>52.2851891</ele>
        <time>2019-09-10T14:54:31.800Z</time>
      </trkpt>
      <trkpt lat="10.1561132077115" lon="-75.6828924138052">
        <ele>52.2851891</ele>
        <time>2019-09-10T14:54:32.000Z</time>
      </trkpt>
      <trkpt lat="10.1561097000692" lon="-75.6828882589917">
        <ele>52.2851891</ele>
        <time>2019-09-10T14:54:32.200Z</time>
      </trkpt>
      <trkpt lat="10.1561079370766" lon="-75.6828861407831">
        <ele>52.2851891</ele>
        <time>2019-09-10T14:54:32.300Z</time>
      </trkpt>
      <trkpt lat="10.1561044238064" lon="-75.6828818989352">
        <ele>52.2851891</ele>
        <time>2019-09-10T14:54:32.500Z</time>
      </trkpt>
      <trkpt lat="10.1561026722781" lon="-75.682879780866">
        <ele>52.2851891</ele>
        <time>2019-09-10T14:54:32.600Z</time>
      </trkpt>
      <trkpt lat="10.1561009197076" lon="-75.6828776516563">
        <ele>52.2851891</ele>
        <time>2019-09-10T14:54:32.700Z</time>
      </trkpt>
      <trkpt lat="10.1560991740156" lon="-75.6828755367899">
        <ele>52.2851891</ele>
        <time>2019-09-10T14:54:32.800Z</time>
      </trkpt>
      <trkpt lat="10.1560974304081" lon="-75.6828734174674">
        <ele>52.2851891</ele>
        <time>2019-09-10T14:54:32.900Z</time>
      </trkpt>
      <trkpt lat="10.156095688468" lon="-75.6828713067787">
        <ele>52.2851891</ele>
        <time>2019-09-10T14:54:33.000Z</time>
      </trkpt>
      <trkpt lat="10.1560939396495" lon="-75.682869164479">
        <ele>52.2851891</ele>
        <time>2019-09-10T14:54:33.100Z</time>
      </trkpt>
      <trkpt lat="10.1560921939575" lon="-75.6828670245467">
        <ele>52.2851891</ele>
        <time>2019-09-10T14:54:33.200Z</time>
      </trkpt>
      <trkpt lat="10.1560904257539" lon="-75.6828648550924">
        <ele>52.2851891</ele>
        <time>2019-09-10T14:54:33.300Z</time>
      </trkpt>
      <trkpt lat="10.156088656925" lon="-75.6828627009561">
        <ele>52.2851891</ele>
        <time>2019-09-10T14:54:33.400Z</time>
      </trkpt>
      <trkpt lat="10.1560869339531" lon="-75.6828606119911">
        <ele>52.2851891</ele>
        <time>2019-09-10T14:54:33.500Z</time>
      </trkpt>
      <trkpt lat="10.1560852301578" lon="-75.6828585505987">
        <ele>52.2851891</ele>
        <time>2019-09-10T14:54:33.600Z</time>
      </trkpt>
      <trkpt lat="10.156083526154" lon="-75.6828564974223">
        <ele>52.2851891</ele>
        <time>2019-09-10T14:54:33.700Z</time>
      </trkpt>
      <trkpt lat="10.1560801206477" lon="-75.6828523728271">
        <ele>52.2851891</ele>
        <time>2019-09-10T14:54:33.900Z</time>
      </trkpt>
      <trkpt lat="10.1560784220633" lon="-75.6828503117132">
        <ele>52.2851891</ele>
        <time>2019-09-10T14:54:34.000Z</time>
      </trkpt>
      <trkpt lat="10.1560766667831" lon="-75.6828481862634">
        <ele>52.2851891</ele>
        <time>2019-09-10T14:54:34.100Z</time>
      </trkpt>
      <trkpt lat="10.1560748946191" lon="-75.6828460321271">
        <ele>52.2851891</ele>
        <time>2019-09-10T14:54:34.200Z</time>
      </trkpt>
      <trkpt lat="10.1560731174526" lon="-75.6828438733954">
        <ele>52.2851891</ele>
        <time>2019-09-10T14:54:34.300Z</time>
      </trkpt>
      <trkpt lat="10.1560713619639" lon="-75.6828417348556">
        <ele>52.2851891</ele>
        <time>2019-09-10T14:54:34.400Z</time>
      </trkpt>
      <trkpt lat="10.1560696089765" lon="-75.6828395826689">
        <ele>52.3851891</ele>
        <time>2019-09-10T14:54:34.500Z</time>
      </trkpt>
      <trkpt lat="10.1560678655774" lon="-75.6828374398122">
        <ele>52.3851891</ele>
        <time>2019-09-10T14:54:34.600Z</time>
      </trkpt>
      <trkpt lat="10.1560661207192" lon="-75.6828353100456">
        <ele>52.3851891</ele>
        <time>2019-09-10T14:54:34.700Z</time>
      </trkpt>
      <trkpt lat="10.1560643806551" lon="-75.682833196154">
        <ele>52.2851891</ele>
        <time>2019-09-10T14:54:34.800Z</time>
      </trkpt>
      <trkpt lat="10.1560626651871" lon="-75.6828310723753">
        <ele>52.2851891</ele>
        <time>2019-09-10T14:54:34.900Z</time>
      </trkpt>
      <trkpt lat="10.1560609547216" lon="-75.6828289575089">
        <ele>52.2851891</ele>
        <time>2019-09-10T14:54:35.000Z</time>
      </trkpt>
      <trkpt lat="10.1560592380029" lon="-75.6828268564288">
        <ele>52.2851891</ele>
        <time>2019-09-10T14:54:35.100Z</time>
      </trkpt>
      <trkpt lat="10.1560575144057" lon="-75.6828247662105">
        <ele>52.2851891</ele>
        <time>2019-09-10T14:54:35.200Z</time>
      </trkpt>
      <trkpt lat="10.1560557876819" lon="-75.6828226768278">
        <ele>52.2851891</ele>
        <time>2019-09-10T14:54:35.300Z</time>
      </trkpt>
      <trkpt lat="10.1560540553301" lon="-75.6828205874451">
        <ele>52.2851891</ele>
        <time>2019-09-10T14:54:35.400Z</time>
      </trkpt>
      <trkpt lat="10.1560523125563" lon="-75.6828184947203">
        <ele>52.2851891</ele>
        <time>2019-09-10T14:54:35.500Z</time>
      </trkpt>
      <trkpt lat="10.1560505720754" lon="-75.6828164019955">
        <ele>52.2851891</ele>
        <time>2019-09-10T14:54:35.600Z</time>
      </trkpt>
      <trkpt lat="10.1560488213808" lon="-75.6828143039789">
        <ele>52.2851891</ele>
        <time>2019-09-10T14:54:35.700Z</time>
      </trkpt>
      <trkpt lat="10.1560470761057" lon="-75.6828122065194">
        <ele>52.2851891</ele>
        <time>2019-09-10T14:54:35.800Z</time>
      </trkpt>
      <trkpt lat="10.1560453343742" lon="-75.6828100742462">
        <ele>52.2851891</ele>
        <time>2019-09-10T14:54:35.900Z</time>
      </trkpt>
      <trkpt lat="10.1560418777998" lon="-75.6828058414498">
        <ele>52.2851891</ele>
        <time>2019-09-10T14:54:36.100Z</time>
      </trkpt>
      <trkpt lat="10.1560401658753" lon="-75.68280375527">
        <ele>52.2851891</ele>
        <time>2019-09-10T14:54:36.200Z</time>
      </trkpt>
      <trkpt lat="10.1560384579111" lon="-75.6828016696471">
        <ele>52.2851891</ele>
        <time>2019-09-10T14:54:36.300Z</time>
      </trkpt>
      <trkpt lat="10.1560367436937" lon="-75.6827995812392">
        <ele>52.2851891</ele>
        <time>2019-09-10T14:54:36.400Z</time>
      </trkpt>
      <trkpt lat="10.1560350244737" lon="-75.6827974892107">
        <ele>52.2851891</ele>
        <time>2019-09-10T14:54:36.500Z</time>
      </trkpt>
      <trkpt lat="10.1560333015018" lon="-75.6827953962073">
        <ele>52.2851891</ele>
        <time>2019-09-10T14:54:36.600Z</time>
      </trkpt>
      <trkpt lat="10.1560315628969" lon="-75.6827932958235">
        <ele>52.2851891</ele>
        <time>2019-09-10T14:54:36.700Z</time>
      </trkpt>
      <trkpt lat="10.1560298274185" lon="-75.6827911971107">
        <ele>52.2851891</ele>
        <time>2019-09-10T14:54:36.800Z</time>
      </trkpt>
      <trkpt lat="10.1560280813096" lon="-75.6827890932454">
        <ele>52.2851891</ele>
        <time>2019-09-10T14:54:36.900Z</time>
      </trkpt>
      <trkpt lat="10.1560263385358" lon="-75.6827869959252">
        <ele>52.2851891</ele>
        <time>2019-09-10T14:54:37.000Z</time>
      </trkpt>
      <trkpt lat="10.1560245965958" lon="-75.6827848949843">
        <ele>52.2851891</ele>
        <time>2019-09-10T14:54:37.100Z</time>
      </trkpt>
      <trkpt lat="10.1560228552811" lon="-75.6827827944612">
        <ele>52.2851891</ele>
        <time>2019-09-10T14:54:37.200Z</time>
      </trkpt>
      <trkpt lat="10.1560211106314" lon="-75.682780684051">
        <ele>52.2851891</ele>
        <time>2019-09-10T14:54:37.300Z</time>
      </trkpt>
      <trkpt lat="10.1560176186221" lon="-75.6827764692185">
        <ele>52.2851891</ele>
        <time>2019-09-10T14:54:37.500Z</time>
      </trkpt>
      <trkpt lat="10.156015878558" lon="-75.6827743670244">
        <ele>52.2851891</ele>
        <time>2019-09-10T14:54:37.600Z</time>
      </trkpt>
      <trkpt lat="10.156014136618" lon="-75.6827722687293">
        <ele>52.2851891</ele>
        <time>2019-09-10T14:54:37.700Z</time>
      </trkpt>
      <trkpt lat="10.1560124005143" lon="-75.6827701765615">
        <ele>52.2851891</ele>
        <time>2019-09-10T14:54:37.800Z</time>
      </trkpt>
      <trkpt lat="10.1560106644106" lon="-75.6827681126625">
        <ele>52.2851891</ele>
        <time>2019-09-10T14:54:37.900Z</time>
      </trkpt>
      <trkpt lat="10.1560089285154" lon="-75.6827660564225">
        <ele>52.2851891</ele>
        <time>2019-09-10T14:54:38.000Z</time>
      </trkpt>
      <trkpt lat="10.1560071919948" lon="-75.6827639925234">
        <ele>52.2851891</ele>
        <time>2019-09-10T14:54:38.100Z</time>
      </trkpt>
      <trkpt lat="10.1560054573502" lon="-75.6827619167877">
        <ele>52.2851891</ele>
        <time>2019-09-10T14:54:38.200Z</time>
      </trkpt>
      <trkpt lat="10.1560037416737" lon="-75.6827598545598">
        <ele>52.2851891</ele>
        <time>2019-09-10T14:54:38.300Z</time>
      </trkpt>
      <trkpt lat="10.1560020362109" lon="-75.6827577909392">
        <ele>52.2851891</ele>
        <time>2019-09-10T14:54:38.400Z</time>
      </trkpt>
      <trkpt lat="10.1560003080279" lon="-75.6827557104689">
        <ele>52.2851891</ele>
        <time>2019-09-10T14:54:38.500Z</time>
      </trkpt>
      <trkpt lat="10.1559985704651" lon="-75.6827536220609">
        <ele>52.2851891</ele>
        <time>2019-09-10T14:54:38.600Z</time>
      </trkpt>
      <trkpt lat="10.1559968414484" lon="-75.6827515713911">
        <ele>52.2851891</ele>
        <time>2019-09-10T14:54:38.700Z</time>
      </trkpt>
      <trkpt lat="10.15599341885" lon="-75.6827474657346">
        <ele>52.2851891</ele>
        <time>2019-09-10T14:54:38.900Z</time>
      </trkpt>
      <trkpt lat="10.1559900125099" lon="-75.6827432975526">
        <ele>52.2851891</ele>
        <time>2019-09-10T14:54:39.100Z</time>
      </trkpt>
      <trkpt lat="10.1559882980841" lon="-75.6827411998146">
        <ele>52.2851891</ele>
        <time>2019-09-10T14:54:39.200Z</time>
      </trkpt>
      <trkpt lat="10.1559865972069" lon="-75.6827390912147">
        <ele>52.2851891</ele>
        <time>2019-09-10T14:54:39.300Z</time>
      </trkpt>
      <trkpt lat="10.1559831906584" lon="-75.6827348727616">
        <ele>52.2851891</ele>
        <time>2019-09-10T14:54:39.500Z</time>
      </trkpt>
      <trkpt lat="10.1559814701878" lon="-75.6827327673645">
        <ele>52.2851891</ele>
        <time>2019-09-10T14:54:39.600Z</time>
      </trkpt>
      <trkpt lat="10.1559797576379" lon="-75.6827306589039">
        <ele>52.2851891</ele>
        <time>2019-09-10T14:54:39.700Z</time>
      </trkpt>
      <trkpt lat="10.1559780471724" lon="-75.682728556849">
        <ele>52.2851891</ele>
        <time>2019-09-10T14:54:39.800Z</time>
      </trkpt>
      <trkpt lat="10.1559763498387" lon="-75.6827264574399">
        <ele>52.2851891</ele>
        <time>2019-09-10T14:54:39.900Z</time>
      </trkpt>
      <trkpt lat="10.1559746500037" lon="-75.6827243645758">
        <ele>52.2851891</ele>
        <time>2019-09-10T14:54:40.000Z</time>
      </trkpt>
      <trkpt lat="10.1559729301584" lon="-75.6827222714332">
        <ele>52.2851891</ele>
        <time>2019-09-10T14:54:40.100Z</time>
      </trkpt>
      <trkpt lat="10.1559712059359" lon="-75.6827201787084">
        <ele>52.2851891</ele>
        <time>2019-09-10T14:54:40.200Z</time>
      </trkpt>
      <trkpt lat="10.1559695019321" lon="-75.6827180798563">
        <ele>52.2851891</ele>
        <time>2019-09-10T14:54:40.300Z</time>
      </trkpt>
      <trkpt lat="10.1559677991789" lon="-75.6827159828146">
        <ele>52.2851891</ele>
        <time>2019-09-10T14:54:40.400Z</time>
      </trkpt>
      <trkpt lat="10.1559661091407" lon="-75.6827139086107">
        <ele>52.2851891</ele>
        <time>2019-09-10T14:54:40.500Z</time>
      </trkpt>
      <trkpt lat="10.1559627007162" lon="-75.6827097678619">
        <ele>52.2851891</ele>
        <time>2019-09-10T14:54:40.700Z</time>
      </trkpt>
      <trkpt lat="10.1559609746177" lon="-75.6827076862775">
        <ele>52.2851891</ele>
        <time>2019-09-10T14:54:40.800Z</time>
      </trkpt>
      <trkpt lat="10.15595926311" lon="-75.6827055925778">
        <ele>52.2851891</ele>
        <time>2019-09-10T14:54:40.900Z</time>
      </trkpt>
      <trkpt lat="10.155957552853" lon="-75.6827034973464">
        <ele>52.2851891</ele>
        <time>2019-09-10T14:54:41.000Z</time>
      </trkpt>
      <trkpt lat="10.1559558065357" lon="-75.6827013640984">
        <ele>52.2851891</ele>
        <time>2019-09-10T14:54:41.100Z</time>
      </trkpt>
      <trkpt lat="10.1559540522977" lon="-75.6826992308503">
        <ele>52.2851891</ele>
        <time>2019-09-10T14:54:41.200Z</time>
      </trkpt>
      <trkpt lat="10.1559523424575" lon="-75.6826970960705">
        <ele>52.2851891</ele>
        <time>2019-09-10T14:54:41.300Z</time>
      </trkpt>
      <trkpt lat="10.155950648042" lon="-75.6826949756339">
        <ele>52.2851891</ele>
        <time>2019-09-10T14:54:41.400Z</time>
      </trkpt>
      <trkpt lat="10.155948946331" lon="-75.6826928577039">
        <ele>52.2851891</ele>
        <time>2019-09-10T14:54:41.500Z</time>
      </trkpt>
      <trkpt lat="10.1559455101839" lon="-75.6826886489987">
        <ele>52.2851891</ele>
        <time>2019-09-10T14:54:41.700Z</time>
      </trkpt>
      <trkpt lat="10.1559437792913" lon="-75.682686553628">
        <ele>52.2851891</ele>
        <time>2019-09-10T14:54:41.800Z</time>
      </trkpt>
      <trkpt lat="10.1559420440213" lon="-75.6826844596499">
        <ele>52.2851891</ele>
        <time>2019-09-10T14:54:41.900Z</time>
      </trkpt>
      <trkpt lat="10.1559403068755" lon="-75.6826823662288">
        <ele>52.2851891</ele>
        <time>2019-09-10T14:54:42.000Z</time>
      </trkpt>
      <trkpt lat="10.1559385678536" lon="-75.6826802703011">
        <ele>52.2851891</ele>
        <time>2019-09-10T14:54:42.100Z</time>
      </trkpt>
      <trkpt lat="10.1559368244545" lon="-75.6826781746519">
        <ele>52.2851891</ele>
        <time>2019-09-10T14:54:42.200Z</time>
      </trkpt>
      <trkpt lat="10.1559351037754" lon="-75.6826760769139">
        <ele>52.2851891</ele>
        <time>2019-09-10T14:54:42.300Z</time>
      </trkpt>
      <trkpt lat="10.155931661792" lon="-75.6826718775387">
        <ele>52.2851891</ele>
        <time>2019-09-10T14:54:42.500Z</time>
      </trkpt>
      <trkpt lat="10.1559299300655" lon="-75.682669780497">
        <ele>52.2851891</ele>
        <time>2019-09-10T14:54:42.600Z</time>
      </trkpt>
      <trkpt lat="10.1559264599426" lon="-75.6826655820966">
        <ele>52.2851891</ele>
        <time>2019-09-10T14:54:42.800Z</time>
      </trkpt>
      <trkpt lat="10.1559247465589" lon="-75.6826634838016">
        <ele>52.2851891</ele>
        <time>2019-09-10T14:54:42.900Z</time>
      </trkpt>
      <trkpt lat="10.1559230375526" lon="-75.6826613874561">
        <ele>52.2851891</ele>
        <time>2019-09-10T14:54:43.000Z</time>
      </trkpt>
      <trkpt lat="10.1559213216676" lon="-75.6826592847049">
        <ele>52.2851891</ele>
        <time>2019-09-10T14:54:43.100Z</time>
      </trkpt>
      <trkpt lat="10.1559195986957" lon="-75.6826571834855">
        <ele>52.2851891</ele>
        <time>2019-09-10T14:54:43.200Z</time>
      </trkpt>
      <trkpt lat="10.1559178976101" lon="-75.6826550758604">
        <ele>52.2851891</ele>
        <time>2019-09-10T14:54:43.300Z</time>
      </trkpt>
      <trkpt lat="10.1559161906881" lon="-75.6826529721344">
        <ele>52.2851891</ele>
        <time>2019-09-10T14:54:43.400Z</time>
      </trkpt>
      <trkpt lat="10.1559144987739" lon="-75.6826509207684">
        <ele>52.2851891</ele>
        <time>2019-09-10T14:54:43.500Z</time>
      </trkpt>
      <trkpt lat="10.1559110457431" lon="-75.6826467912992">
        <ele>52.2851891</ele>
        <time>2019-09-10T14:54:43.700Z</time>
      </trkpt>
      <trkpt lat="10.1559092769142" lon="-75.6826446754581">
        <ele>52.2851891</ele>
        <time>2019-09-10T14:54:43.800Z</time>
      </trkpt>
      <trkpt lat="10.1559075264281" lon="-75.6826425796696">
        <ele>52.2851891</ele>
        <time>2019-09-10T14:54:43.900Z</time>
      </trkpt>
      <trkpt lat="10.1559057905328" lon="-75.6826405025414">
        <ele>52.2851891</ele>
        <time>2019-09-10T14:54:44.000Z</time>
      </trkpt>
      <trkpt lat="10.1559040786083" lon="-75.6826384418452">
        <ele>52.2851891</ele>
        <time>2019-09-10T14:54:44.100Z</time>
      </trkpt>
      <trkpt lat="10.1559006385008" lon="-75.6826342795119">
        <ele>52.2851891</ele>
        <time>2019-09-10T14:54:44.300Z</time>
      </trkpt>
      <trkpt lat="10.1558971504519" lon="-75.6826300344611">
        <ele>52.2851891</ele>
        <time>2019-09-10T14:54:44.500Z</time>
      </trkpt>
      <trkpt lat="10.1558954087203" lon="-75.6826279105431">
        <ele>52.2851891</ele>
        <time>2019-09-10T14:54:44.600Z</time>
      </trkpt>
      <trkpt lat="10.1558919202546" lon="-75.6826236590866">
        <ele>52.3851891</ele>
        <time>2019-09-10T14:54:44.800Z</time>
      </trkpt>
      <trkpt lat="10.1558901489244" lon="-75.6826215428276">
        <ele>52.3851891</ele>
        <time>2019-09-10T14:54:44.900Z</time>
      </trkpt>
      <trkpt lat="10.1558883846812" lon="-75.6826194290753">
        <ele>52.3851891</ele>
        <time>2019-09-10T14:54:45.000Z</time>
      </trkpt>
      <trkpt lat="10.1558866187705" lon="-75.6826173101705">
        <ele>52.3851891</ele>
        <time>2019-09-10T14:54:45.100Z</time>
      </trkpt>
      <trkpt lat="10.1558848722447" lon="-75.6826151902909">
        <ele>52.3851891</ele>
        <time>2019-09-10T14:54:45.200Z</time>
      </trkpt>
      <trkpt lat="10.155883118632" lon="-75.6826130484091">
        <ele>52.3851891</ele>
        <time>2019-09-10T14:54:45.300Z</time>
      </trkpt>
      <trkpt lat="10.1558813739823" lon="-75.6826109066665">
        <ele>52.3851891</ele>
        <time>2019-09-10T14:54:45.400Z</time>
      </trkpt>
      <trkpt lat="10.1558796280818" lon="-75.6826087781531">
        <ele>52.3851891</ele>
        <time>2019-09-10T14:54:45.500Z</time>
      </trkpt>
      <trkpt lat="10.1558761377401" lon="-75.6826045337986">
        <ele>52.3851891</ele>
        <time>2019-09-10T14:54:45.700Z</time>
      </trkpt>
      <trkpt lat="10.155872652401" lon="-75.6826002927861">
        <ele>52.3851891</ele>
        <time>2019-09-10T14:54:45.900Z</time>
      </trkpt>
      <trkpt lat="10.1558709090019" lon="-75.6825981886424">
        <ele>52.3851891</ele>
        <time>2019-09-10T14:54:46.000Z</time>
      </trkpt>
      <trkpt lat="10.1558691666449" lon="-75.6825961183376">
        <ele>52.3851891</ele>
        <time>2019-09-10T14:54:46.100Z</time>
      </trkpt>
      <trkpt lat="10.1558674240796" lon="-75.6825940542993">
        <ele>52.3851891</ele>
        <time>2019-09-10T14:54:46.200Z</time>
      </trkpt>
      <trkpt lat="10.155865684224" lon="-75.6825919675625">
        <ele>52.3851891</ele>
        <time>2019-09-10T14:54:46.300Z</time>
      </trkpt>
      <trkpt lat="10.1558639462443" lon="-75.6825898653683">
        <ele>52.3851891</ele>
        <time>2019-09-10T14:54:46.400Z</time>
      </trkpt>
      <trkpt lat="10.155862235362" lon="-75.6825877853157">
        <ele>52.3851891</ele>
        <time>2019-09-10T14:54:46.500Z</time>
      </trkpt>
      <trkpt lat="10.1558605282316" lon="-75.6825857094407">
        <ele>52.2851891</ele>
        <time>2019-09-10T14:54:46.600Z</time>
      </trkpt>
      <trkpt lat="10.1558588217265" lon="-75.6825836299451">
        <ele>52.2851891</ele>
        <time>2019-09-10T14:54:46.700Z</time>
      </trkpt>
      <trkpt lat="10.1558571066753" lon="-75.682581541955">
        <ele>52.2851891</ele>
        <time>2019-09-10T14:54:46.800Z</time>
      </trkpt>
      <trkpt lat="10.1558553828696" lon="-75.6825794499264">
        <ele>52.2851891</ele>
        <time>2019-09-10T14:54:46.900Z</time>
      </trkpt>
      <trkpt lat="10.1558536544783" lon="-75.6825773559483">
        <ele>52.3851891</ele>
        <time>2019-09-10T14:54:47.000Z</time>
      </trkpt>
      <trkpt lat="10.1558519231687" lon="-75.6825752559822">
        <ele>52.3851891</ele>
        <time>2019-09-10T14:54:47.100Z</time>
      </trkpt>
      <trkpt lat="10.1558501926929" lon="-75.6825731510029">
        <ele>52.3851891</ele>
        <time>2019-09-10T14:54:47.200Z</time>
      </trkpt>
      <trkpt lat="10.1558484492938" lon="-75.6825710098173">
        <ele>52.3851891</ele>
        <time>2019-09-10T14:54:47.300Z</time>
      </trkpt>
      <trkpt lat="10.1558467179843" lon="-75.6825688594409">
        <ele>52.3851891</ele>
        <time>2019-09-10T14:54:47.400Z</time>
      </trkpt>
      <trkpt lat="10.1558449852156" lon="-75.6825666887333">
        <ele>52.3851891</ele>
        <time>2019-09-10T14:54:47.500Z</time>
      </trkpt>
      <trkpt lat="10.1558432605762" lon="-75.6825645373821">
        <ele>52.3851891</ele>
        <time>2019-09-10T14:54:47.600Z</time>
      </trkpt>
      <trkpt lat="10.1558415248894" lon="-75.6825623750297">
        <ele>52.2851891</ele>
        <time>2019-09-10T14:54:47.700Z</time>
      </trkpt>
      <trkpt lat="10.1558397898279" lon="-75.682560229388">
        <ele>52.2851891</ele>
        <time>2019-09-10T14:54:47.800Z</time>
      </trkpt>
      <trkpt lat="10.155838037049" lon="-75.6825580717703">
        <ele>52.2851891</ele>
        <time>2019-09-10T14:54:47.900Z</time>
      </trkpt>
      <trkpt lat="10.1558362880219" lon="-75.6825559304454">
        <ele>52.2851891</ele>
        <time>2019-09-10T14:54:48.000Z</time>
      </trkpt>
      <trkpt lat="10.1558345529605" lon="-75.6825537750559">
        <ele>52.2851891</ele>
        <time>2019-09-10T14:54:48.100Z</time>
      </trkpt>
      <trkpt lat="10.1558328274872" lon="-75.6825516288571">
        <ele>52.2851891</ele>
        <time>2019-09-10T14:54:48.200Z</time>
      </trkpt>
      <trkpt lat="10.1558310947186" lon="-75.6825494926847">
        <ele>52.2851891</ele>
        <time>2019-09-10T14:54:48.300Z</time>
      </trkpt>
      <trkpt lat="10.155829356739" lon="-75.6825473757295">
        <ele>52.2851891</ele>
        <time>2019-09-10T14:54:48.400Z</time>
      </trkpt>
      <trkpt lat="10.1558276135483" lon="-75.6825452761811">
        <ele>52.2851891</ele>
        <time>2019-09-10T14:54:48.500Z</time>
      </trkpt>
      <trkpt lat="10.155824118204" lon="-75.6825411004793">
        <ele>52.2851891</ele>
        <time>2019-09-10T14:54:48.700Z</time>
      </trkpt>
      <trkpt lat="10.1558223695938" lon="-75.6825390187557">
        <ele>52.2851891</ele>
        <time>2019-09-10T14:54:48.800Z</time>
      </trkpt>
      <trkpt lat="10.1558206084773" lon="-75.6825369331329">
        <ele>52.2851891</ele>
        <time>2019-09-10T14:54:48.900Z</time>
      </trkpt>
      <trkpt lat="10.1558188434003" lon="-75.6825348456997">
        <ele>52.2851891</ele>
        <time>2019-09-10T14:54:49.000Z</time>
      </trkpt>
      <trkpt lat="10.1558171070882" lon="-75.6825327865353">
        <ele>52.2851891</ele>
        <time>2019-09-10T14:54:49.100Z</time>
      </trkpt>
      <trkpt lat="10.1558136490548" lon="-75.6825286916015">
        <ele>52.2851891</ele>
        <time>2019-09-10T14:54:49.300Z</time>
      </trkpt>
      <trkpt lat="10.1558119110751" lon="-75.6825266325764">
        <ele>52.2851891</ele>
        <time>2019-09-10T14:54:49.400Z</time>
      </trkpt>
      <trkpt lat="10.1558101484994" lon="-75.6825245568406">
        <ele>52.2851891</ele>
        <time>2019-09-10T14:54:49.500Z</time>
      </trkpt>
      <trkpt lat="10.155808379879" lon="-75.6825224758132">
        <ele>52.2851891</ele>
        <time>2019-09-10T14:54:49.600Z</time>
      </trkpt>
      <trkpt lat="10.1558066227228" lon="-75.6825203417297">
        <ele>52.2851891</ele>
        <time>2019-09-10T14:54:49.700Z</time>
      </trkpt>
      <trkpt lat="10.1558048689016" lon="-75.6825182015189">
        <ele>52.2851891</ele>
        <time>2019-09-10T14:54:49.800Z</time>
      </trkpt>
      <trkpt lat="10.1558030984052" lon="-75.6825160387487">
        <ele>52.2851891</ele>
        <time>2019-09-10T14:54:49.900Z</time>
      </trkpt>
      <trkpt lat="10.1558013268666" lon="-75.6825138894864">
        <ele>52.2851891</ele>
        <time>2019-09-10T14:54:50.000Z</time>
      </trkpt>
      <trkpt lat="10.1557995632487" lon="-75.6825117368819">
        <ele>52.2851891</ele>
        <time>2019-09-10T14:54:50.100Z</time>
      </trkpt>
      <trkpt lat="10.1557978115119" lon="-75.6825096008487">
        <ele>52.2851891</ele>
        <time>2019-09-10T14:54:50.200Z</time>
      </trkpt>
      <trkpt lat="10.1557960720732" lon="-75.682507448662">
        <ele>52.2851891</ele>
        <time>2019-09-10T14:54:50.300Z</time>
      </trkpt>
      <trkpt lat="10.1557943351358" lon="-75.6825053076157">
        <ele>52.2851891</ele>
        <time>2019-09-10T14:54:50.400Z</time>
      </trkpt>
      <trkpt lat="10.1557925792302" lon="-75.6825031806341">
        <ele>52.2851891</ele>
        <time>2019-09-10T14:54:50.500Z</time>
      </trkpt>
      <trkpt lat="10.1557890709626" lon="-75.6824989669157">
        <ele>52.2851891</ele>
        <time>2019-09-10T14:54:50.700Z</time>
      </trkpt>
      <trkpt lat="10.1557873286056" lon="-75.6824968686206">
        <ele>52.2851891</ele>
        <time>2019-09-10T14:54:50.800Z</time>
      </trkpt>
      <trkpt lat="10.1557855874994" lon="-75.6824947793772">
        <ele>52.2851891</ele>
        <time>2019-09-10T14:54:50.900Z</time>
      </trkpt>
      <trkpt lat="10.1557838484775" lon="-75.6824926853991">
        <ele>52.2851891</ele>
        <time>2019-09-10T14:54:51.000Z</time>
      </trkpt>
      <trkpt lat="10.1557821121654" lon="-75.6824906189934">
        <ele>52.2851891</ele>
        <time>2019-09-10T14:54:51.100Z</time>
      </trkpt>
      <trkpt lat="10.1557786518391" lon="-75.682486481169">
        <ele>52.2851891</ele>
        <time>2019-09-10T14:54:51.300Z</time>
      </trkpt>
      <trkpt lat="10.1557769199043" lon="-75.6824843961032">
        <ele>52.2851891</ele>
        <time>2019-09-10T14:54:51.400Z</time>
      </trkpt>
      <trkpt lat="10.1557751521176" lon="-75.682482306442">
        <ele>52.2851891</ele>
        <time>2019-09-10T14:54:51.500Z</time>
      </trkpt>
      <trkpt lat="10.1557733830802" lon="-75.682480208147">
        <ele>52.2851891</ele>
        <time>2019-09-10T14:54:51.600Z</time>
      </trkpt>
      <trkpt lat="10.1557716398896" lon="-75.6824781300439">
        <ele>52.2851891</ele>
        <time>2019-09-10T14:54:51.700Z</time>
      </trkpt>
      <trkpt lat="10.1557699094138" lon="-75.6824760509661">
        <ele>52.2851891</ele>
        <time>2019-09-10T14:54:51.800Z</time>
      </trkpt>
      <trkpt lat="10.1557681864419" lon="-75.6824739684069">
        <ele>52.2851891</ele>
        <time>2019-09-10T14:54:51.900Z</time>
      </trkpt>
      <trkpt lat="10.1557664645122" lon="-75.6824718730362">
        <ele>52.2851891</ele>
        <time>2019-09-10T14:54:52.000Z</time>
      </trkpt>
      <trkpt lat="10.1557647678038" lon="-75.6824697803114">
        <ele>52.2851891</ele>
        <time>2019-09-10T14:54:52.100Z</time>
      </trkpt>
      <trkpt lat="10.1557630698448" lon="-75.6824676859155">
        <ele>52.2851891</ele>
        <time>2019-09-10T14:54:52.200Z</time>
      </trkpt>
      <trkpt lat="10.1557613608384" lon="-75.682465595001">
        <ele>52.2851891</ele>
        <time>2019-09-10T14:54:52.300Z</time>
      </trkpt>
      <trkpt lat="10.1557596378665" lon="-75.682463506036">
        <ele>52.2851891</ele>
        <time>2019-09-10T14:54:52.400Z</time>
      </trkpt>
      <trkpt lat="10.1557579336542" lon="-75.6824614205525">
        <ele>52.2851891</ele>
        <time>2019-09-10T14:54:52.500Z</time>
      </trkpt>
      <trkpt lat="10.1557562290251" lon="-75.6824593363222">
        <ele>52.2851891</ele>
        <time>2019-09-10T14:54:52.600Z</time>
      </trkpt>
      <trkpt lat="10.1557545168921" lon="-75.6824572552948">
        <ele>52.2851891</ele>
        <time>2019-09-10T14:54:52.700Z</time>
      </trkpt>
      <trkpt lat="10.15575279663" lon="-75.6824551764955">
        <ele>52.2851891</ele>
        <time>2019-09-10T14:54:52.800Z</time>
      </trkpt>
      <trkpt lat="10.1557510573997" lon="-75.6824530848847">
        <ele>52.1851891</ele>
        <time>2019-09-10T14:54:52.900Z</time>
      </trkpt>
      <trkpt lat="10.1557493200453" lon="-75.6824509863807">
        <ele>52.1851891</ele>
        <time>2019-09-10T14:54:53.000Z</time>
      </trkpt>
      <trkpt lat="10.1557475789391" lon="-75.6824488963714">
        <ele>52.1851891</ele>
        <time>2019-09-10T14:54:53.100Z</time>
      </trkpt>
      <trkpt lat="10.1557441031882" lon="-75.6824447337596">
        <ele>52.1851891</ele>
        <time>2019-09-10T14:54:53.300Z</time>
      </trkpt>
      <trkpt lat="10.1557423683351" lon="-75.6824426555869">
        <ele>52.1851891</ele>
        <time>2019-09-10T14:54:53.400Z</time>
      </trkpt>
      <trkpt lat="10.1557406503658" lon="-75.6824406031764">
        <ele>52.1851891</ele>
        <time>2019-09-10T14:54:53.500Z</time>
      </trkpt>
      <trkpt lat="10.1557389355231" lon="-75.6824385525066">
        <ele>52.1851891</ele>
        <time>2019-09-10T14:54:53.600Z</time>
      </trkpt>
      <trkpt lat="10.1557372146356" lon="-75.6824364884683">
        <ele>52.1851891</ele>
        <time>2019-09-10T14:54:53.700Z</time>
      </trkpt>
      <trkpt lat="10.1557354885371" lon="-75.6824344118971">
        <ele>52.1851891</ele>
        <time>2019-09-10T14:54:53.800Z</time>
      </trkpt>
      <trkpt lat="10.1557337545178" lon="-75.6824323413138">
        <ele>52.1851891</ele>
        <time>2019-09-10T14:54:53.900Z</time>
      </trkpt>
      <trkpt lat="10.155730266052" lon="-75.6824281829492">
        <ele>52.1851891</ele>
        <time>2019-09-10T14:54:54.100Z</time>
      </trkpt>
      <trkpt lat="10.1557267905096" lon="-75.6824240024431">
        <ele>52.1851891</ele>
        <time>2019-09-10T14:54:54.300Z</time>
      </trkpt>
      <trkpt lat="10.1557250710812" lon="-75.6824219264289">
        <ele>52.1851891</ele>
        <time>2019-09-10T14:54:54.400Z</time>
      </trkpt>
      <trkpt lat="10.1557233501937" lon="-75.6824198420594">
        <ele>52.1851891</ele>
        <time>2019-09-10T14:54:54.500Z</time>
      </trkpt>
      <trkpt lat="10.1557198871577" lon="-75.6824156646865">
        <ele>52.1851891</ele>
        <time>2019-09-10T14:54:54.700Z</time>
      </trkpt>
      <trkpt lat="10.1557164230795" lon="-75.6824114947638">
        <ele>52.1851891</ele>
        <time>2019-09-10T14:54:54.900Z</time>
      </trkpt>
      <trkpt lat="10.1557146934375" lon="-75.6824094209776">
        <ele>52.1851891</ele>
        <time>2019-09-10T14:54:55.000Z</time>
      </trkpt>
      <trkpt lat="10.1557129679643" lon="-75.6824073373044">
        <ele>52.1851891</ele>
        <time>2019-09-10T14:54:55.100Z</time>
      </trkpt>
      <trkpt lat="10.155711241032" lon="-75.6824052459025">
        <ele>52.1851891</ele>
        <time>2019-09-10T14:54:55.200Z</time>
      </trkpt>
      <trkpt lat="10.1557095320256" lon="-75.6824031712808">
        <ele>52.1851891</ele>
        <time>2019-09-10T14:54:55.300Z</time>
      </trkpt>
      <trkpt lat="10.1557078196842" lon="-75.6824010977036">
        <ele>52.1851891</ele>
        <time>2019-09-10T14:54:55.400Z</time>
      </trkpt>
      <trkpt lat="10.1557061002558" lon="-75.6823990135429">
        <ele>52.1851891</ele>
        <time>2019-09-10T14:54:55.500Z</time>
      </trkpt>
      <trkpt lat="10.1557026318003" lon="-75.6823948254474">
        <ele>52.1851891</ele>
        <time>2019-09-10T14:54:55.700Z</time>
      </trkpt>
      <trkpt lat="10.1556991547988" lon="-75.6823905861061">
        <ele>52.1851891</ele>
        <time>2019-09-10T14:54:55.900Z</time>
      </trkpt>
      <trkpt lat="10.155697419112" lon="-75.6823884472878">
        <ele>52.1851891</ele>
        <time>2019-09-10T14:54:56.000Z</time>
      </trkpt>
      <trkpt lat="10.1556956592461" lon="-75.6823863097925">
        <ele>52.2851891</ele>
        <time>2019-09-10T14:54:56.100Z</time>
      </trkpt>
      <trkpt lat="10.155692117211" lon="-75.6823820850033">
        <ele>52.2851891</ele>
        <time>2019-09-10T14:54:56.300Z</time>
      </trkpt>
      <trkpt lat="10.1556885924766" lon="-75.6823779088837">
        <ele>52.2851891</ele>
        <time>2019-09-10T14:54:56.500Z</time>
      </trkpt>
      <trkpt lat="10.1556850619058" lon="-75.6823737494747">
        <ele>52.2851891</ele>
        <time>2019-09-10T14:54:56.700Z</time>
      </trkpt>
      <trkpt lat="10.1556815661446" lon="-75.6823696279432">
        <ele>52.2851891</ele>
        <time>2019-09-10T14:54:56.900Z</time>
      </trkpt>
      <trkpt lat="10.1556798552622" lon="-75.6823676080487">
        <ele>52.2851891</ele>
        <time>2019-09-10T14:54:57.000Z</time>
      </trkpt>
      <trkpt lat="10.1556764457955" lon="-75.6823635732034">
        <ele>52.2851891</ele>
        <time>2019-09-10T14:54:57.200Z</time>
      </trkpt>
      <trkpt lat="10.1556747365807" lon="-75.6823615422382">
        <ele>52.2851891</ele>
        <time>2019-09-10T14:54:57.300Z</time>
      </trkpt>
      <trkpt lat="10.1556730209042" lon="-75.6823595010377">
        <ele>52.2851891</ele>
        <time>2019-09-10T14:54:57.400Z</time>
      </trkpt>
      <trkpt lat="10.1556712893862" lon="-75.6823574502983">
        <ele>52.2851891</ele>
        <time>2019-09-10T14:54:57.500Z</time>
      </trkpt>
      <trkpt lat="10.1556695536994" lon="-75.6823553951027">
        <ele>52.2851891</ele>
        <time>2019-09-10T14:54:57.600Z</time>
      </trkpt>
      <trkpt lat="10.1556678105088" lon="-75.6823533610042">
        <ele>52.2851891</ele>
        <time>2019-09-10T14:54:57.700Z</time>
      </trkpt>
      <trkpt lat="10.1556643426787" lon="-75.6823493033907">
        <ele>52.2851891</ele>
        <time>2019-09-10T14:54:57.900Z</time>
      </trkpt>
      <trkpt lat="10.1556626272106" lon="-75.6823472612851">
        <ele>52.2851891</ele>
        <time>2019-09-10T14:54:58.000Z</time>
      </trkpt>
      <trkpt lat="10.1556609065315" lon="-75.682345214027">
        <ele>52.2851891</ele>
        <time>2019-09-10T14:54:58.100Z</time>
      </trkpt>
      <trkpt lat="10.1556574505826" lon="-75.6823411183969">
        <ele>52.2851891</ele>
        <time>2019-09-10T14:54:58.300Z</time>
      </trkpt>
      <trkpt lat="10.1556543231363" lon="-75.6823371269991">
        <ele>52.2851891</ele>
        <time>2019-09-10T14:54:58.500Z</time>
      </trkpt>
      <trkpt lat="10.1556530255921" lon="-75.6823351583506">
        <ele>52.2851891</ele>
        <time>2019-09-10T14:54:58.600Z</time>
      </trkpt>
      <trkpt lat="10.1556520250762" lon="-75.6823332350295">
        <ele>52.2851891</ele>
        <time>2019-09-10T14:54:58.700Z</time>
      </trkpt>
      <trkpt lat="10.1556508601003" lon="-75.6823295060579">
        <ele>52.1851891</ele>
        <time>2019-09-10T14:54:58.900Z</time>
      </trkpt>
      <trkpt lat="10.1556507169015" lon="-75.6823276962297">
        <ele>52.1851891</ele>
        <time>2019-09-10T14:54:59.000Z</time>
      </trkpt>
      <trkpt lat="10.1556509042898" lon="-75.6823259751069">
        <ele>52.1851891</ele>
        <time>2019-09-10T14:54:59.100Z</time>
      </trkpt>
      <trkpt lat="10.1556521811983" lon="-75.6823225861961">
        <ele>52.1851891</ele>
        <time>2019-09-10T14:54:59.300Z</time>
      </trkpt>
      <trkpt lat="10.155653307821" lon="-75.6823208964058">
        <ele>52.1851891</ele>
        <time>2019-09-10T14:54:59.400Z</time>
      </trkpt>
      <trkpt lat="10.1556565109313" lon="-75.6823178719254">
        <ele>52.1851891</ele>
        <time>2019-09-10T14:54:59.600Z</time>
      </trkpt>
      <trkpt lat="10.1556585255119" lon="-75.6823165369569">
        <ele>52.1851891</ele>
        <time>2019-09-10T14:54:59.700Z</time>
      </trkpt>
      <trkpt lat="10.1556606920459" lon="-75.682315171422">
        <ele>52.1851891</ele>
        <time>2019-09-10T14:54:59.800Z</time>
      </trkpt>
      <trkpt lat="10.1556629402887" lon="-75.6823139382489">
        <ele>52.1851891</ele>
        <time>2019-09-10T14:54:59.900Z</time>
      </trkpt>
      <trkpt lat="10.155665262528" lon="-75.6823126355876">
        <ele>52.1851891</ele>
        <time>2019-09-10T14:55:00.000Z</time>
      </trkpt>
      <trkpt lat="10.1556675620473" lon="-75.6823114123713">
        <ele>52.2851891</ele>
        <time>2019-09-10T14:55:00.100Z</time>
      </trkpt>
      <trkpt lat="10.1556722006896" lon="-75.6823088186764">
        <ele>52.2851891</ele>
        <time>2019-09-10T14:55:00.300Z</time>
      </trkpt>
      <trkpt lat="10.1556767874301" lon="-75.6823060789726">
        <ele>52.2851891</ele>
        <time>2019-09-10T14:55:00.500Z</time>
      </trkpt>
      <trkpt lat="10.1556812691164" lon="-75.6823031353298">
        <ele>52.2851891</ele>
        <time>2019-09-10T14:55:00.700Z</time>
      </trkpt>
      <trkpt lat="10.1556835190267" lon="-75.6823015760215">
        <ele>52.3851891</ele>
        <time>2019-09-10T14:55:00.800Z</time>
      </trkpt>
      <trkpt lat="10.1556857205788" lon="-75.6822999874695">
        <ele>52.2851891</ele>
        <time>2019-09-10T14:55:00.900Z</time>
      </trkpt>
      <trkpt lat="10.1556879740326" lon="-75.6822983487162">
        <ele>52.2851891</ele>
        <time>2019-09-10T14:55:01.000Z</time>
      </trkpt>
      <trkpt lat="10.1556901749594" lon="-75.6822966328155">
        <ele>52.2851891</ele>
        <time>2019-09-10T14:55:01.100Z</time>
      </trkpt>
      <trkpt lat="10.1556946351763" lon="-75.6822930863376">
        <ele>52.2851891</ele>
        <time>2019-09-10T14:55:01.300Z</time>
      </trkpt>
      <trkpt lat="10.1556968934242" lon="-75.6822912905742">
        <ele>52.2851891</ele>
        <time>2019-09-10T14:55:01.400Z</time>
      </trkpt>
      <trkpt lat="10.1557014488986" lon="-75.682287587504">
        <ele>52.2851891</ele>
        <time>2019-09-10T14:55:01.600Z</time>
      </trkpt>
      <trkpt lat="10.1557037502938" lon="-75.682285681172">
        <ele>52.2851891</ele>
        <time>2019-09-10T14:55:01.700Z</time>
      </trkpt>
      <trkpt lat="10.1557084079042" lon="-75.6822818179586">
        <ele>52.2851891</ele>
        <time>2019-09-10T14:55:01.900Z</time>
      </trkpt>
      <trkpt lat="10.1557130673906" lon="-75.6822778783637">
        <ele>52.2851891</ele>
        <time>2019-09-10T14:55:02.100Z</time>
      </trkpt>
      <trkpt lat="10.1557176499623" lon="-75.6822739030499">
        <ele>52.2851891</ele>
        <time>2019-09-10T14:55:02.300Z</time>
      </trkpt>
      <trkpt lat="10.155722184801" lon="-75.6822699200074">
        <ele>52.2851891</ele>
        <time>2019-09-10T14:55:02.500Z</time>
      </trkpt>
      <trkpt lat="10.1557266220894" lon="-75.6822659358509">
        <ele>52.1851891</ele>
        <time>2019-09-10T14:55:02.700Z</time>
      </trkpt>
      <trkpt lat="10.1557309689145" lon="-75.6822619013538">
        <ele>52.2851891</ele>
        <time>2019-09-10T14:55:02.900Z</time>
      </trkpt>
      <trkpt lat="10.1557352400756" lon="-75.6822578095531">
        <ele>52.2851891</ele>
        <time>2019-09-10T14:55:03.100Z</time>
      </trkpt>
      <trkpt lat="10.1557394236915" lon="-75.6822537233227">
        <ele>52.2851891</ele>
        <time>2019-09-10T14:55:03.300Z</time>
      </trkpt>
      <trkpt lat="10.1557434376366" lon="-75.6822499009109">
        <ele>52.2851891</ele>
        <time>2019-09-10T14:55:03.500Z</time>
      </trkpt>
      <trkpt lat="10.1557472185449" lon="-75.6822467979604">
        <ele>52.2851891</ele>
        <time>2019-09-10T14:55:03.700Z</time>
      </trkpt>
      <trkpt lat="10.1557507966402" lon="-75.682244741233">
        <ele>52.2851891</ele>
        <time>2019-09-10T14:55:03.900Z</time>
      </trkpt>
      <trkpt lat="10.1557525066888" lon="-75.6822441695214">
        <ele>52.2851891</ele>
        <time>2019-09-10T14:55:04.000Z</time>
      </trkpt>
      <trkpt lat="10.1557541400311" lon="-75.6822439446941">
        <ele>52.2851891</ele>
        <time>2019-09-10T14:55:04.100Z</time>
      </trkpt>
      <trkpt lat="10.1557557581573" lon="-75.6822440233732">
        <ele>52.1851891</ele>
        <time>2019-09-10T14:55:04.200Z</time>
      </trkpt>
      <trkpt lat="10.1557602475559" lon="-75.6822461869789">
        <ele>52.2851891</ele>
        <time>2019-09-10T14:55:04.500Z</time>
      </trkpt>
      <trkpt lat="10.1557629606218" lon="-75.6822491094549">
        <ele>52.2851891</ele>
        <time>2019-09-10T14:55:04.700Z</time>
      </trkpt>
      <trkpt lat="10.1557654512813" lon="-75.6822529882649">
        <ele>52.2851891</ele>
        <time>2019-09-10T14:55:04.900Z</time>
      </trkpt>
      <trkpt lat="10.155767826673" lon="-75.6822573714567">
        <ele>52.3851891</ele>
        <time>2019-09-10T14:55:05.100Z</time>
      </trkpt>
      <trkpt lat="10.1557690506376" lon="-75.682259689914">
        <ele>52.3851891</ele>
        <time>2019-09-10T14:55:05.200Z</time>
      </trkpt>
      <trkpt lat="10.1557702118614" lon="-75.6822619497449">
        <ele>52.3851891</ele>
        <time>2019-09-10T14:55:05.300Z</time>
      </trkpt>
      <trkpt lat="10.15577268126" lon="-75.68226656598">
        <ele>52.2851891</ele>
        <time>2019-09-10T14:55:05.500Z</time>
      </trkpt>
      <trkpt lat="10.1557753649357" lon="-75.6822712510768">
        <ele>52.2851891</ele>
        <time>2019-09-10T14:55:05.700Z</time>
      </trkpt>
      <trkpt lat="10.1557782574691" lon="-75.6822758792182">
        <ele>52.2851891</ele>
        <time>2019-09-10T14:55:05.900Z</time>
      </trkpt>
      <trkpt lat="10.1557797986806" lon="-75.6822782524724">
        <ele>52.2851891</ele>
        <time>2019-09-10T14:55:06.000Z</time>
      </trkpt>
      <trkpt lat="10.1557831556202" lon="-75.6822830988961">
        <ele>52.2851891</ele>
        <time>2019-09-10T14:55:06.200Z</time>
      </trkpt>
      <trkpt lat="10.1557849302854" lon="-75.6822855417777">
        <ele>52.2851891</ele>
        <time>2019-09-10T14:55:06.300Z</time>
      </trkpt>
      <trkpt lat="10.1557885844617" lon="-75.6822904901362">
        <ele>52.2851891</ele>
        <time>2019-09-10T14:55:06.500Z</time>
      </trkpt>
      <trkpt lat="10.1557904548012" lon="-75.682292989625">
        <ele>52.2851891</ele>
        <time>2019-09-10T14:55:06.600Z</time>
      </trkpt>
      <trkpt lat="10.1557923489031" lon="-75.6822955114642">
        <ele>52.2851891</ele>
        <time>2019-09-10T14:55:06.700Z</time>
      </trkpt>
      <trkpt lat="10.1557961375236" lon="-75.682300562384">
        <ele>52.2851891</ele>
        <time>2019-09-10T14:55:06.900Z</time>
      </trkpt>
      <trkpt lat="10.1557980305833" lon="-75.6823030636831">
        <ele>52.2851891</ele>
        <time>2019-09-10T14:55:07.000Z</time>
      </trkpt>
      <trkpt lat="10.1557999703336" lon="-75.6823055688814">
        <ele>52.2851891</ele>
        <time>2019-09-10T14:55:07.100Z</time>
      </trkpt>
      <trkpt lat="10.1558038448318" lon="-75.6823105677198">
        <ele>52.2851891</ele>
        <time>2019-09-10T14:55:07.300Z</time>
      </trkpt>
      <trkpt lat="10.1558077428838" lon="-75.682315486208">
        <ele>52.2851891</ele>
        <time>2019-09-10T14:55:07.500Z</time>
      </trkpt>
      <trkpt lat="10.1558116553182" lon="-75.6823202738661">
        <ele>52.2851891</ele>
        <time>2019-09-10T14:55:07.700Z</time>
      </trkpt>
      <trkpt lat="10.1558155141833" lon="-75.6823249855606">
        <ele>52.2851891</ele>
        <time>2019-09-10T14:55:07.900Z</time>
      </trkpt>
      <trkpt lat="10.1558174126624" lon="-75.6823273101451">
        <ele>52.2851891</ele>
        <time>2019-09-10T14:55:08.000Z</time>
      </trkpt>
      <trkpt lat="10.1558193105162" lon="-75.6823295527083">
        <ele>52.2851891</ele>
        <time>2019-09-10T14:55:08.100Z</time>
      </trkpt>
      <trkpt lat="10.1558230820446" lon="-75.682333968834">
        <ele>52.1851891</ele>
        <time>2019-09-10T14:55:08.300Z</time>
      </trkpt>
      <trkpt lat="10.1558249640569" lon="-75.6823361983769">
        <ele>52.1851891</ele>
        <time>2019-09-10T14:55:08.400Z</time>
      </trkpt>
      <trkpt lat="10.1558268796281" lon="-75.682338403759">
        <ele>52.1851891</ele>
        <time>2019-09-10T14:55:08.500Z</time>
      </trkpt>
      <trkpt lat="10.1558307230686" lon="-75.682342743364">
        <ele>52.2851891</ele>
        <time>2019-09-10T14:55:08.700Z</time>
      </trkpt>
      <trkpt lat="10.1558345869363" lon="-75.6823470286595">
        <ele>52.2851891</ele>
        <time>2019-09-10T14:55:08.900Z</time>
      </trkpt>
      <trkpt lat="10.1558383818101" lon="-75.6823512811605">
        <ele>52.2851891</ele>
        <time>2019-09-10T14:55:09.100Z</time>
      </trkpt>
      <trkpt lat="10.1558420847615" lon="-75.6823554858273">
        <ele>52.2851891</ele>
        <time>2019-09-10T14:55:09.300Z</time>
      </trkpt>
      <trkpt lat="10.155845734352" lon="-75.6823596862469">
        <ele>52.2851891</ele>
        <time>2019-09-10T14:55:09.500Z</time>
      </trkpt>
      <trkpt lat="10.1558475186055" lon="-75.6823617748637">
        <ele>52.2851891</ele>
        <time>2019-09-10T14:55:09.600Z</time>
      </trkpt>
      <trkpt lat="10.1558493232862" lon="-75.6823638832548">
        <ele>52.2851891</ele>
        <time>2019-09-10T14:55:09.700Z</time>
      </trkpt>
      <trkpt lat="10.1558528373902" lon="-75.6823680809589">
        <ele>52.2851891</ele>
        <time>2019-09-10T14:55:09.900Z</time>
      </trkpt>
      <trkpt lat="10.1558562626984" lon="-75.6823722005409">
        <ele>52.2851891</ele>
        <time>2019-09-10T14:55:10.100Z</time>
      </trkpt>
      <trkpt lat="10.1558596363132" lon="-75.6823762807137">
        <ele>52.2851891</ele>
        <time>2019-09-10T14:55:10.300Z</time>
      </trkpt>
      <trkpt lat="10.1558630090943" lon="-75.682380346404">
        <ele>52.2851891</ele>
        <time>2019-09-10T14:55:10.500Z</time>
      </trkpt>
      <trkpt lat="10.1558646868346" lon="-75.6823823934532">
        <ele>52.2851891</ele>
        <time>2019-09-10T14:55:10.600Z</time>
      </trkpt>
      <trkpt lat="10.1558663914637" lon="-75.6823844372995">
        <ele>52.2851891</ele>
        <time>2019-09-10T14:55:10.700Z</time>
      </trkpt>
      <trkpt lat="10.1558680754572" lon="-75.6823865038444">
        <ele>52.2851891</ele>
        <time>2019-09-10T14:55:10.800Z</time>
      </trkpt>
      <trkpt lat="10.1558697659123" lon="-75.6823885649583">
        <ele>52.2851891</ele>
        <time>2019-09-10T14:55:10.900Z</time>
      </trkpt>
      <trkpt lat="10.1558714217663" lon="-75.6823906429221">
        <ele>52.2851891</ele>
        <time>2019-09-10T14:55:11.000Z</time>
      </trkpt>
      <trkpt lat="10.1558730649054" lon="-75.6823927107203">
        <ele>52.2851891</ele>
        <time>2019-09-10T14:55:11.100Z</time>
      </trkpt>
      <trkpt lat="10.1558763080363" lon="-75.682396867553">
        <ele>52.2851891</ele>
        <time>2019-09-10T14:55:11.300Z</time>
      </trkpt>
      <trkpt lat="10.1558795636736" lon="-75.6824010369187">
        <ele>52.2851891</ele>
        <time>2019-09-10T14:55:11.500Z</time>
      </trkpt>
      <trkpt lat="10.1558828920568" lon="-75.6824051864406">
        <ele>52.2851891</ele>
        <time>2019-09-10T14:55:11.700Z</time>
      </trkpt>
      <trkpt lat="10.1558862704658" lon="-75.6824093081114">
        <ele>52.2851891</ele>
        <time>2019-09-10T14:55:11.900Z</time>
      </trkpt>
      <trkpt lat="10.1558896870195" lon="-75.6824134398783">
        <ele>52.2851891</ele>
        <time>2019-09-10T14:55:12.100Z</time>
      </trkpt>
      <trkpt lat="10.155893169232" lon="-75.6824176008887">
        <ele>52.2851891</ele>
        <time>2019-09-10T14:55:12.300Z</time>
      </trkpt>
      <trkpt lat="10.1558966062129" lon="-75.6824218127968">
        <ele>52.2851891</ele>
        <time>2019-09-10T14:55:12.500Z</time>
      </trkpt>
      <trkpt lat="10.1558982795759" lon="-75.682423900787">
        <ele>52.2851891</ele>
        <time>2019-09-10T14:55:12.600Z</time>
      </trkpt>
      <trkpt lat="10.1558999441844" lon="-75.6824259986642">
        <ele>52.2851891</ele>
        <time>2019-09-10T14:55:12.700Z</time>
      </trkpt>
      <trkpt lat="10.155903279863" lon="-75.6824301834176">
        <ele>52.2851891</ele>
        <time>2019-09-10T14:55:12.900Z</time>
      </trkpt>
      <trkpt lat="10.1559049753207" lon="-75.6824322548364">
        <ele>52.2851891</ele>
        <time>2019-09-10T14:55:13.000Z</time>
      </trkpt>
      <trkpt lat="10.1559066920394" lon="-75.6824343275781">
        <ele>52.2851891</ele>
        <time>2019-09-10T14:55:13.100Z</time>
      </trkpt>
      <trkpt lat="10.1559101023399" lon="-75.6824384612945">
        <ele>52.2851891</ele>
        <time>2019-09-10T14:55:13.300Z</time>
      </trkpt>
      <trkpt lat="10.1559117817476" lon="-75.6824405207374">
        <ele>52.2851891</ele>
        <time>2019-09-10T14:55:13.400Z</time>
      </trkpt>
      <trkpt lat="10.1559134440633" lon="-75.6824425912511">
        <ele>52.2851891</ele>
        <time>2019-09-10T14:55:13.500Z</time>
      </trkpt>
      <trkpt lat="10.1559167290908" lon="-75.6824467391018">
        <ele>52.2851891</ele>
        <time>2019-09-10T14:55:13.700Z</time>
      </trkpt>
      <trkpt lat="10.155920053722" lon="-75.6824508708687">
        <ele>52.2851891</ele>
        <time>2019-09-10T14:55:13.900Z</time>
      </trkpt>
      <trkpt lat="10.1559217435519" lon="-75.6824529527316">
        <ele>52.3851891</ele>
        <time>2019-09-10T14:55:14.000Z</time>
      </trkpt>
      <trkpt lat="10.1559234240019" lon="-75.6824550462224">
        <ele>52.2851891</ele>
        <time>2019-09-10T14:55:14.100Z</time>
      </trkpt>
      <trkpt lat="10.1559267751051" lon="-75.6824592529084">
        <ele>52.2851891</ele>
        <time>2019-09-10T14:55:14.300Z</time>
      </trkpt>
      <trkpt lat="10.1559301651868" lon="-75.6824634575753">
        <ele>52.2851891</ele>
        <time>2019-09-10T14:55:14.500Z</time>
      </trkpt>
      <trkpt lat="10.1559335800729" lon="-75.6824676577859">
        <ele>52.2851891</ele>
        <time>2019-09-10T14:55:14.700Z</time>
      </trkpt>
      <trkpt lat="10.1559369966266" lon="-75.6824718316774">
        <ele>52.2851891</ele>
        <time>2019-09-10T14:55:14.900Z</time>
      </trkpt>
      <trkpt lat="10.1559387018811" lon="-75.6824739017037">
        <ele>52.2851891</ele>
        <time>2019-09-10T14:55:15.000Z</time>
      </trkpt>
      <trkpt lat="10.1559421244795" lon="-75.682478007221">
        <ele>52.2851891</ele>
        <time>2019-09-10T14:55:15.200Z</time>
      </trkpt>
      <trkpt lat="10.155943840156" lon="-75.6824800729303">
        <ele>52.2851891</ele>
        <time>2019-09-10T14:55:15.300Z</time>
      </trkpt>
      <trkpt lat="10.155947303192" lon="-75.6824842079696">
        <ele>52.2851891</ele>
        <time>2019-09-10T14:55:15.500Z</time>
      </trkpt>
      <trkpt lat="10.1559490495093" lon="-75.6824862681088">
        <ele>52.3851891</ele>
        <time>2019-09-10T14:55:15.600Z</time>
      </trkpt>
      <trkpt lat="10.1559507787344" lon="-75.6824883196141">
        <ele>52.3851891</ele>
        <time>2019-09-10T14:55:15.700Z</time>
      </trkpt>
      <trkpt lat="10.1559542186334" lon="-75.6824924332082">
        <ele>52.2851891</ele>
        <time>2019-09-10T14:55:15.900Z</time>
      </trkpt>
      <trkpt lat="10.1559576718727" lon="-75.6824965598922">
        <ele>52.2851891</ele>
        <time>2019-09-10T14:55:16.100Z</time>
      </trkpt>
      <trkpt lat="10.15596112136" lon="-75.6825007188834">
        <ele>52.2851891</ele>
        <time>2019-09-10T14:55:16.300Z</time>
      </trkpt>
      <trkpt lat="10.1559628397462" lon="-75.6825027911377">
        <ele>52.2851891</ele>
        <time>2019-09-10T14:55:16.400Z</time>
      </trkpt>
      <trkpt lat="10.1559645464598" lon="-75.6825048716081">
        <ele>52.2851891</ele>
        <time>2019-09-10T14:55:16.500Z</time>
      </trkpt>
      <trkpt lat="10.1559662415006" lon="-75.6825069584842">
        <ele>52.2851891</ele>
        <time>2019-09-10T14:55:16.600Z</time>
      </trkpt>
      <trkpt lat="10.1559679336233" lon="-75.6825090546904">
        <ele>52.2851891</ele>
        <time>2019-09-10T14:55:16.700Z</time>
      </trkpt>
      <trkpt lat="10.1559696230362" lon="-75.6825111502004">
        <ele>52.2851891</ele>
        <time>2019-09-10T14:55:16.800Z</time>
      </trkpt>
      <trkpt lat="10.1559713143251" lon="-75.6825132042123">
        <ele>52.2851891</ele>
        <time>2019-09-10T14:55:16.900Z</time>
      </trkpt>
      <trkpt lat="10.1559747477625" lon="-75.6825173247691">
        <ele>52.2851891</ele>
        <time>2019-09-10T14:55:17.100Z</time>
      </trkpt>
      <trkpt lat="10.155978275832" lon="-75.682521536538">
        <ele>52.2851891</ele>
        <time>2019-09-10T14:55:17.300Z</time>
      </trkpt>
      <trkpt lat="10.1559800331967" lon="-75.6825236461127">
        <ele>52.2851891</ele>
        <time>2019-09-10T14:55:17.400Z</time>
      </trkpt>
      <trkpt lat="10.1559817938964" lon="-75.6825257962106">
        <ele>52.2851891</ele>
        <time>2019-09-10T14:55:17.500Z</time>
      </trkpt>
      <trkpt lat="10.155983544174" lon="-75.6825279412953">
        <ele>52.2851891</ele>
        <time>2019-09-10T14:55:17.600Z</time>
      </trkpt>
      <trkpt lat="10.1559887660337" lon="-75.6825341445506">
        <ele>52.2851891</ele>
        <time>2019-09-10T14:55:17.900Z</time>
      </trkpt>
      <trkpt lat="10.1559923055675" lon="-75.6825382997819">
        <ele>52.2851891</ele>
        <time>2019-09-10T14:55:18.100Z</time>
      </trkpt>
      <trkpt lat="10.1559940660588" lon="-75.6825403919497">
        <ele>52.2851891</ele>
        <time>2019-09-10T14:55:18.200Z</time>
      </trkpt>
      <trkpt lat="10.1559958211306" lon="-75.6825424942831">
        <ele>52.2851891</ele>
        <time>2019-09-10T14:55:18.300Z</time>
      </trkpt>
      <trkpt lat="10.1559993193931" lon="-75.6825467059127">
        <ele>52.2851891</ele>
        <time>2019-09-10T14:55:18.500Z</time>
      </trkpt>
      <trkpt lat="10.1560027826375" lon="-75.682550928265">
        <ele>52.2851891</ele>
        <time>2019-09-10T14:55:18.700Z</time>
      </trkpt>
      <trkpt lat="10.1560062210774" lon="-75.6825551660745">
        <ele>52.2851891</ele>
        <time>2019-09-10T14:55:18.900Z</time>
      </trkpt>
      <trkpt lat="10.1560079394636" lon="-75.682557304475">
        <ele>52.2851891</ele>
        <time>2019-09-10T14:55:19.000Z</time>
      </trkpt>
      <trkpt lat="10.1560096616018" lon="-75.6825594393941">
        <ele>52.2851891</ele>
        <time>2019-09-10T14:55:19.100Z</time>
      </trkpt>
      <trkpt lat="10.1560131169255" lon="-75.6825637124352">
        <ele>52.2851891</ele>
        <time>2019-09-10T14:55:19.300Z</time>
      </trkpt>
      <trkpt lat="10.1560148486519" lon="-75.6825658689388">
        <ele>52.2851891</ele>
        <time>2019-09-10T14:55:19.400Z</time>
      </trkpt>
      <trkpt lat="10.1560165639115" lon="-75.6825680447989">
        <ele>52.2851891</ele>
        <time>2019-09-10T14:55:19.500Z</time>
      </trkpt>
      <trkpt lat="10.1560182685406" lon="-75.6825702166206">
        <ele>52.2851891</ele>
        <time>2019-09-10T14:55:19.600Z</time>
      </trkpt>
      <trkpt lat="10.1560199838002" lon="-75.6825723644904">
        <ele>52.2851891</ele>
        <time>2019-09-10T14:55:19.700Z</time>
      </trkpt>
      <trkpt lat="10.1560217040624" lon="-75.6825744942571">
        <ele>52.2851891</ele>
        <time>2019-09-10T14:55:19.800Z</time>
      </trkpt>
      <trkpt lat="10.156023440583" lon="-75.6825766219349">
        <ele>52.2851891</ele>
        <time>2019-09-10T14:55:19.900Z</time>
      </trkpt>
      <trkpt lat="10.1560269440565" lon="-75.6825809474752">
        <ele>52.2851891</ele>
        <time>2019-09-10T14:55:20.100Z</time>
      </trkpt>
      <trkpt lat="10.1560287030886" lon="-75.68258315049">
        <ele>52.2851891</ele>
        <time>2019-09-10T14:55:20.200Z</time>
      </trkpt>
      <trkpt lat="10.1560304058418" lon="-75.6825853021197">
        <ele>52.2851891</ele>
        <time>2019-09-10T14:55:20.300Z</time>
      </trkpt>
      <trkpt lat="10.1560337240114" lon="-75.6825895296244">
        <ele>52.2851891</ele>
        <time>2019-09-10T14:55:20.500Z</time>
      </trkpt>
      <trkpt lat="10.1560370098727" lon="-75.6825937348483">
        <ele>52.2851891</ele>
        <time>2019-09-10T14:55:20.700Z</time>
      </trkpt>
      <trkpt lat="10.156040344926" lon="-75.6825978565191">
        <ele>52.2851891</ele>
        <time>2019-09-10T14:55:20.900Z</time>
      </trkpt>
      <trkpt lat="10.1560437327148" lon="-75.6826019187281">
        <ele>52.2851891</ele>
        <time>2019-09-10T14:55:21.100Z</time>
      </trkpt>
      <trkpt lat="10.156045438803" lon="-75.6826039627136">
        <ele>52.2851891</ele>
        <time>2019-09-10T14:55:21.200Z</time>
      </trkpt>
      <trkpt lat="10.1560471567723" lon="-75.6826059952803">
        <ele>52.2851891</ele>
        <time>2019-09-10T14:55:21.300Z</time>
      </trkpt>
      <trkpt lat="10.1560488801611" lon="-75.682608030075">
        <ele>52.2851891</ele>
        <time>2019-09-10T14:55:21.400Z</time>
      </trkpt>
      <trkpt lat="10.1560506356498" lon="-75.6826100602743">
        <ele>52.2851891</ele>
        <time>2019-09-10T14:55:21.500Z</time>
      </trkpt>
      <trkpt lat="10.1560541553817" lon="-75.6826141506128">
        <ele>52.2851891</ele>
        <time>2019-09-10T14:55:21.700Z</time>
      </trkpt>
      <trkpt lat="10.1560559077438" lon="-75.6826162094986">
        <ele>52.2851891</ele>
        <time>2019-09-10T14:55:21.800Z</time>
      </trkpt>
      <trkpt lat="10.1560576730292" lon="-75.6826182608647">
        <ele>52.2851891</ele>
        <time>2019-09-10T14:55:21.900Z</time>
      </trkpt>
      <trkpt lat="10.1560594406074" lon="-75.68262031237">
        <ele>52.2851891</ele>
        <time>2019-09-10T14:55:22.000Z</time>
      </trkpt>
      <trkpt lat="10.1560612148558" lon="-75.6826223844851">
        <ele>52.2851891</ele>
        <time>2019-09-10T14:55:22.100Z</time>
      </trkpt>
      <trkpt lat="10.156064749387" lon="-75.6826265367921">
        <ele>52.2851891</ele>
        <time>2019-09-10T14:55:22.300Z</time>
      </trkpt>
      <trkpt lat="10.156066510712" lon="-75.6826286091857">
        <ele>52.2851891</ele>
        <time>2019-09-10T14:55:22.400Z</time>
      </trkpt>
      <trkpt lat="10.1560682463988" lon="-75.682630673781">
        <ele>52.2851891</ele>
        <time>2019-09-10T14:55:22.500Z</time>
      </trkpt>
      <trkpt lat="10.1560699787506" lon="-75.6826327400473">
        <ele>52.2851891</ele>
        <time>2019-09-10T14:55:22.600Z</time>
      </trkpt>
      <trkpt lat="10.156071771967" lon="-75.6826348866639">
        <ele>52.2851891</ele>
        <time>2019-09-10T14:55:22.700Z</time>
      </trkpt>
      <trkpt lat="10.1560735708114" lon="-75.6826370381543">
        <ele>52.2851891</ele>
        <time>2019-09-10T14:55:22.800Z</time>
      </trkpt>
      <trkpt lat="10.1560753129599" lon="-75.6826391161181">
        <ele>52.2851891</ele>
        <time>2019-09-10T14:55:22.900Z</time>
      </trkpt>
      <trkpt lat="10.1560770250929" lon="-75.682641161914">
        <ele>52.2851891</ele>
        <time>2019-09-10T14:55:23.000Z</time>
      </trkpt>
      <trkpt lat="10.1560787290967" lon="-75.6826432145334">
        <ele>52.3851891</ele>
        <time>2019-09-10T14:55:23.100Z</time>
      </trkpt>
      <trkpt lat="10.1560804368524" lon="-75.682645286927">
        <ele>52.3851891</ele>
        <time>2019-09-10T14:55:23.200Z</time>
      </trkpt>
      <trkpt lat="10.1560821077141" lon="-75.6826473547251">
        <ele>52.3851891</ele>
        <time>2019-09-10T14:55:23.300Z</time>
      </trkpt>
      <trkpt lat="10.1560854617355" lon="-75.6826514784848">
        <ele>52.3851891</ele>
        <time>2019-09-10T14:55:23.500Z</time>
      </trkpt>
      <trkpt lat="10.1560888405614" lon="-75.6826555940284">
        <ele>52.3851891</ele>
        <time>2019-09-10T14:55:23.700Z</time>
      </trkpt>
      <trkpt lat="10.1560922050049" lon="-75.6826597264219">
        <ele>52.2851891</ele>
        <time>2019-09-10T14:55:23.900Z</time>
      </trkpt>
      <trkpt lat="10.1560938885815" lon="-75.6826618138551">
        <ele>52.2851891</ele>
        <time>2019-09-10T14:55:24.000Z</time>
      </trkpt>
      <trkpt lat="10.1560956063424" lon="-75.6826639330384">
        <ele>52.2851891</ele>
        <time>2019-09-10T14:55:24.100Z</time>
      </trkpt>
      <trkpt lat="10.156097340987" lon="-75.6826660597414">
        <ele>52.2851891</ele>
        <time>2019-09-10T14:55:24.200Z</time>
      </trkpt>
      <trkpt lat="10.1560990941828" lon="-75.68266818728">
        <ele>52.2851891</ele>
        <time>2019-09-10T14:55:24.300Z</time>
      </trkpt>
      <trkpt lat="10.1561008450858" lon="-75.6826703070203">
        <ele>52.2851891</ele>
        <time>2019-09-10T14:55:24.400Z</time>
      </trkpt>
      <trkpt lat="10.1561025866089" lon="-75.6826724278747">
        <ele>52.2851891</ele>
        <time>2019-09-10T14:55:24.500Z</time>
      </trkpt>
      <trkpt lat="10.1561060577741" lon="-75.6826766482773">
        <ele>52.2851891</ele>
        <time>2019-09-10T14:55:24.700Z</time>
      </trkpt>
      <trkpt lat="10.156107800131" lon="-75.6826787521426">
        <ele>52.2851891</ele>
        <time>2019-09-10T14:55:24.800Z</time>
      </trkpt>
      <trkpt lat="10.1561095531184" lon="-75.6826808558685">
        <ele>52.2851891</ele>
        <time>2019-09-10T14:55:24.900Z</time>
      </trkpt>
      <trkpt lat="10.1561130711828" lon="-75.6826850627635">
        <ele>52.2851891</ele>
        <time>2019-09-10T14:55:25.100Z</time>
      </trkpt>
      <trkpt lat="10.1561148366766" lon="-75.682687161894">
        <ele>52.2851891</ele>
        <time>2019-09-10T14:55:25.200Z</time>
      </trkpt>
      <trkpt lat="10.156116623223" lon="-75.6826893156126">
        <ele>52.2851891</ele>
        <time>2019-09-10T14:55:25.300Z</time>
      </trkpt>
      <trkpt lat="10.1561184051836" lon="-75.6826914783827">
        <ele>52.2851891</ele>
        <time>2019-09-10T14:55:25.400Z</time>
      </trkpt>
      <trkpt lat="10.1561201475406" lon="-75.6826935846153">
        <ele>52.2851891</ele>
        <time>2019-09-10T14:55:25.500Z</time>
      </trkpt>
      <trkpt lat="10.1561218746813" lon="-75.6826956625791">
        <ele>52.2851891</ele>
        <time>2019-09-10T14:55:25.600Z</time>
      </trkpt>
      <trkpt lat="10.156123608909" lon="-75.6826977550254">
        <ele>52.2851891</ele>
        <time>2019-09-10T14:55:25.700Z</time>
      </trkpt>
      <trkpt lat="10.1561253531419" lon="-75.6826998622327">
        <ele>52.2851891</ele>
        <time>2019-09-10T14:55:25.800Z</time>
      </trkpt>
      <trkpt lat="10.1561270925806" lon="-75.6827019613633">
        <ele>52.2851891</ele>
        <time>2019-09-10T14:55:25.900Z</time>
      </trkpt>
      <trkpt lat="10.156130569999" lon="-75.6827061502943">
        <ele>52.2851891</ele>
        <time>2019-09-10T14:55:26.100Z</time>
      </trkpt>
      <trkpt lat="10.1561323102715" lon="-75.6827082505389">
        <ele>52.2851891</ele>
        <time>2019-09-10T14:55:26.200Z</time>
      </trkpt>
      <trkpt lat="10.1561340501271" lon="-75.6827103484162">
        <ele>52.2851891</ele>
        <time>2019-09-10T14:55:26.300Z</time>
      </trkpt>
      <trkpt lat="10.1561357941516" lon="-75.6827124415588">
        <ele>52.2851891</ele>
        <time>2019-09-10T14:55:26.400Z</time>
      </trkpt>
      <trkpt lat="10.1561375292131" lon="-75.6827145341443">
        <ele>52.2851891</ele>
        <time>2019-09-10T14:55:26.500Z</time>
      </trkpt>
      <trkpt lat="10.156139262607" lon="-75.6827166285402">
        <ele>52.2851891</ele>
        <time>2019-09-10T14:55:26.600Z</time>
      </trkpt>
      <trkpt lat="10.15614101351" lon="-75.6827187268353">
        <ele>52.2851891</ele>
        <time>2019-09-10T14:55:26.700Z</time>
      </trkpt>
      <trkpt lat="10.1561427598273" lon="-75.6827208240163">
        <ele>52.2851891</ele>
        <time>2019-09-10T14:55:26.800Z</time>
      </trkpt>
      <trkpt lat="10.1561444967647" lon="-75.6827229514156">
        <ele>52.2851891</ele>
        <time>2019-09-10T14:55:26.900Z</time>
      </trkpt>
      <trkpt lat="10.1561462191113" lon="-75.6827250783972">
        <ele>52.2851891</ele>
        <time>2019-09-10T14:55:27.000Z</time>
      </trkpt>
      <trkpt lat="10.1561479468774" lon="-75.6827272042647">
        <ele>52.2851891</ele>
        <time>2019-09-10T14:55:27.100Z</time>
      </trkpt>
      <trkpt lat="10.1561496719337" lon="-75.6827293107758">
        <ele>52.2851891</ele>
        <time>2019-09-10T14:55:27.200Z</time>
      </trkpt>
      <trkpt lat="10.1561530882789" lon="-75.682733511265">
        <ele>52.2851891</ele>
        <time>2019-09-10T14:55:27.400Z</time>
      </trkpt>
      <trkpt lat="10.1561548133353" lon="-75.6827356112311">
        <ele>52.2851891</ele>
        <time>2019-09-10T14:55:27.500Z</time>
      </trkpt>
      <trkpt lat="10.1561565465208" lon="-75.6827377086906">
        <ele>52.2851891</ele>
        <time>2019-09-10T14:55:27.600Z</time>
      </trkpt>
      <trkpt lat="10.1561582951309" lon="-75.6827397827552">
        <ele>52.2851891</ele>
        <time>2019-09-10T14:55:27.700Z</time>
      </trkpt>
      <trkpt lat="10.1561600460339" lon="-75.6827418550095">
        <ele>52.2851891</ele>
        <time>2019-09-10T14:55:27.800Z</time>
      </trkpt>
      <trkpt lat="10.1561618298705" lon="-75.6827439634702">
        <ele>52.2851891</ele>
        <time>2019-09-10T14:55:27.900Z</time>
      </trkpt>
      <trkpt lat="10.1561636147494" lon="-75.6827460822357">
        <ele>52.2851891</ele>
        <time>2019-09-10T14:55:28.000Z</time>
      </trkpt>
      <trkpt lat="10.1561653727393" lon="-75.6827481826196">
        <ele>52.2851891</ele>
        <time>2019-09-10T14:55:28.100Z</time>
      </trkpt>
      <trkpt lat="10.1561671092599" lon="-75.6827502750659">
        <ele>52.2851891</ele>
        <time>2019-09-10T14:55:28.200Z</time>
      </trkpt>
      <trkpt lat="10.156168840361" lon="-75.6827523687655">
        <ele>52.2851891</ele>
        <time>2019-09-10T14:55:28.300Z</time>
      </trkpt>
      <trkpt lat="10.1561705689608" lon="-75.682754466225">
        <ele>52.2851891</ele>
        <time>2019-09-10T14:55:28.400Z</time>
      </trkpt>
      <trkpt lat="10.1561722971438" lon="-75.6827565602031">
        <ele>52.2851891</ele>
        <time>2019-09-10T14:55:28.500Z</time>
      </trkpt>
      <trkpt lat="10.156174020741" lon="-75.6827586604477">
        <ele>52.2851891</ele>
        <time>2019-09-10T14:55:28.600Z</time>
      </trkpt>
      <trkpt lat="10.1561757424623" lon="-75.682760786733">
        <ele>52.2851891</ele>
        <time>2019-09-10T14:55:28.700Z</time>
      </trkpt>
      <trkpt lat="10.1561774666848" lon="-75.682762912322">
        <ele>52.2851891</ele>
        <time>2019-09-10T14:55:28.800Z</time>
      </trkpt>
      <trkpt lat="10.1561791944509" lon="-75.6827650312268">
        <ele>52.2851891</ele>
        <time>2019-09-10T14:55:28.900Z</time>
      </trkpt>
      <trkpt lat="10.1561809245098" lon="-75.6827671332817">
        <ele>52.2851891</ele>
        <time>2019-09-10T14:55:29.000Z</time>
      </trkpt>
      <trkpt lat="10.1561826762465" lon="-75.6827692222467">
        <ele>52.2851891</ele>
        <time>2019-09-10T14:55:29.100Z</time>
      </trkpt>
      <trkpt lat="10.1561844240229" lon="-75.6827713100976">
        <ele>52.2851891</ele>
        <time>2019-09-10T14:55:29.200Z</time>
      </trkpt>
      <trkpt lat="10.1561861507468" lon="-75.6827734100637">
        <ele>52.2851891</ele>
        <time>2019-09-10T14:55:29.300Z</time>
      </trkpt>
      <trkpt lat="10.1561878582941" lon="-75.6827755139289">
        <ele>52.2851891</ele>
        <time>2019-09-10T14:55:29.400Z</time>
      </trkpt>
      <trkpt lat="10.1561895737621" lon="-75.6827776276812">
        <ele>52.2851891</ele>
        <time>2019-09-10T14:55:29.500Z</time>
      </trkpt>
      <trkpt lat="10.1561912940243" lon="-75.6827797362811">
        <ele>52.2851891</ele>
        <time>2019-09-10T14:55:29.600Z</time>
      </trkpt>
      <trkpt lat="10.1561929974028" lon="-75.6827818471091">
        <ele>52.2851891</ele>
        <time>2019-09-10T14:55:29.700Z</time>
      </trkpt>
      <trkpt lat="10.1561946961955" lon="-75.6827839538987">
        <ele>52.2851891</ele>
        <time>2019-09-10T14:55:29.800Z</time>
      </trkpt>
      <trkpt lat="10.1561963810228" lon="-75.6827860641697">
        <ele>52.2851891</ele>
        <time>2019-09-10T14:55:29.900Z</time>
      </trkpt>
      <trkpt lat="10.1561997892388" lon="-75.6827902861042">
        <ele>52.2851891</ele>
        <time>2019-09-10T14:55:30.100Z</time>
      </trkpt>
      <trkpt lat="10.1562015224243" lon="-75.6827923942863">
        <ele>52.2851891</ele>
        <time>2019-09-10T14:55:30.200Z</time>
      </trkpt>
      <trkpt lat="10.1562032508157" lon="-75.6827944921636">
        <ele>52.2851891</ele>
        <time>2019-09-10T14:55:30.300Z</time>
      </trkpt>
      <trkpt lat="10.1562049746214" lon="-75.6827965844706">
        <ele>52.2851891</ele>
        <time>2019-09-10T14:55:30.400Z</time>
      </trkpt>
      <trkpt lat="10.1562067597087" lon="-75.6827987356826">
        <ele>52.2851891</ele>
        <time>2019-09-10T14:55:30.500Z</time>
      </trkpt>
      <trkpt lat="10.1562085427115" lon="-75.6828008939965">
        <ele>52.2851891</ele>
        <time>2019-09-10T14:55:30.600Z</time>
      </trkpt>
      <trkpt lat="10.1562102761055" lon="-75.6828029928486">
        <ele>52.2851891</ele>
        <time>2019-09-10T14:55:30.700Z</time>
      </trkpt>
      <trkpt lat="10.1562119851119" lon="-75.6828050685843">
        <ele>52.2851891</ele>
        <time>2019-09-10T14:55:30.800Z</time>
      </trkpt>
      <trkpt lat="10.1562136626437" lon="-75.6828071327618">
        <ele>52.2851891</ele>
        <time>2019-09-10T14:55:30.900Z</time>
      </trkpt>
      <trkpt lat="10.1562153393417" lon="-75.682809208219">
        <ele>52.2851891</ele>
        <time>2019-09-10T14:55:31.000Z</time>
      </trkpt>
      <trkpt lat="10.1562186739782" lon="-75.6828133541203">
        <ele>52.2851891</ele>
        <time>2019-09-10T14:55:31.200Z</time>
      </trkpt>
      <trkpt lat="10.1562203383782" lon="-75.6828154634164">
        <ele>52.2851891</ele>
        <time>2019-09-10T14:55:31.300Z</time>
      </trkpt>
      <trkpt lat="10.1562220111159" lon="-75.6828175828783">
        <ele>52.2851891</ele>
        <time>2019-09-10T14:55:31.400Z</time>
      </trkpt>
      <trkpt lat="10.1562236713471" lon="-75.6828197102776">
        <ele>52.2851891</ele>
        <time>2019-09-10T14:55:31.500Z</time>
      </trkpt>
      <trkpt lat="10.1562253359556" lon="-75.6828218298786">
        <ele>52.3851891</ele>
        <time>2019-09-10T14:55:31.600Z</time>
      </trkpt>
      <trkpt lat="10.1562269997303" lon="-75.6828239455806">
        <ele>52.3851891</ele>
        <time>2019-09-10T14:55:31.700Z</time>
      </trkpt>
      <trkpt lat="10.1562286743439" lon="-75.6828260518131">
        <ele>52.3851891</ele>
        <time>2019-09-10T14:55:31.800Z</time>
      </trkpt>
      <trkpt lat="10.1562303564614" lon="-75.6828280952417">
        <ele>52.3851891</ele>
        <time>2019-09-10T14:55:31.900Z</time>
      </trkpt>
      <trkpt lat="10.1562320473335" lon="-75.6828301211241">
        <ele>52.3851891</ele>
        <time>2019-09-10T14:55:32.000Z</time>
      </trkpt>
      <trkpt lat="10.1562337605087" lon="-75.6828321098254">
        <ele>52.3851891</ele>
        <time>2019-09-10T14:55:32.100Z</time>
      </trkpt>
      <trkpt lat="10.1562372208349" lon="-75.6828360994824">
        <ele>52.3851891</ele>
        <time>2019-09-10T14:55:32.300Z</time>
      </trkpt>
      <trkpt lat="10.15623896611" lon="-75.6828381062869">
        <ele>52.2851891</ele>
        <time>2019-09-10T14:55:32.400Z</time>
      </trkpt>
      <trkpt lat="10.1562407301448" lon="-75.6828401032043">
        <ele>52.2851891</ele>
        <time>2019-09-10T14:55:32.500Z</time>
      </trkpt>
      <trkpt lat="10.1562424954302" lon="-75.6828421168322">
        <ele>52.2851891</ele>
        <time>2019-09-10T14:55:32.600Z</time>
      </trkpt>
      <trkpt lat="10.1562442719714" lon="-75.6828441549691">
        <ele>52.2851891</ele>
        <time>2019-09-10T14:55:32.700Z</time>
      </trkpt>
      <trkpt lat="10.1562460439269" lon="-75.6828462190074">
        <ele>52.2851891</ele>
        <time>2019-09-10T14:55:32.800Z</time>
      </trkpt>
      <trkpt lat="10.1562478029591" lon="-75.6828483217586">
        <ele>52.2851891</ele>
        <time>2019-09-10T14:55:32.900Z</time>
      </trkpt>
      <trkpt lat="10.156251304765" lon="-75.6828526083074">
        <ele>52.3851891</ele>
        <time>2019-09-10T14:55:33.100Z</time>
      </trkpt>
      <trkpt lat="10.1562530550427" lon="-75.6828547776225">
        <ele>52.3851891</ele>
        <time>2019-09-10T14:55:33.200Z</time>
      </trkpt>
      <trkpt lat="10.156254774888" lon="-75.6828569234035">
        <ele>52.3851891</ele>
        <time>2019-09-10T14:55:33.300Z</time>
      </trkpt>
      <trkpt lat="10.1562564824353" lon="-75.6828590488532">
        <ele>52.2851891</ele>
        <time>2019-09-10T14:55:33.400Z</time>
      </trkpt>
      <trkpt lat="10.1562581945683" lon="-75.682861187393">
        <ele>52.2851891</ele>
        <time>2019-09-10T14:55:33.500Z</time>
      </trkpt>
      <trkpt lat="10.156259916498" lon="-75.6828633316422">
        <ele>52.2851891</ele>
        <time>2019-09-10T14:55:33.600Z</time>
      </trkpt>
      <trkpt lat="10.156261596948" lon="-75.6828654590415">
        <ele>52.2851891</ele>
        <time>2019-09-10T14:55:33.700Z</time>
      </trkpt>
      <trkpt lat="10.1562632742713" lon="-75.6828675716798">
        <ele>52.2851891</ele>
        <time>2019-09-10T14:55:33.800Z</time>
      </trkpt>
      <trkpt lat="10.1562649889056" lon="-75.6828697177393">
        <ele>52.2851891</ele>
        <time>2019-09-10T14:55:33.900Z</time>
      </trkpt>
      <trkpt lat="10.1562667325132" lon="-75.6828718642166">
        <ele>52.2851891</ele>
        <time>2019-09-10T14:55:34.000Z</time>
      </trkpt>
      <trkpt lat="10.1562684944635" lon="-75.6828740207202">
        <ele>52.2851891</ele>
        <time>2019-09-10T14:55:34.100Z</time>
      </trkpt>
      <trkpt lat="10.1562702601658" lon="-75.682876166919">
        <ele>52.2851891</ele>
        <time>2019-09-10T14:55:34.200Z</time>
      </trkpt>
      <trkpt lat="10.1562720133616" lon="-75.6828783040662">
        <ele>52.2851891</ele>
        <time>2019-09-10T14:55:34.300Z</time>
      </trkpt>
      <trkpt lat="10.1562737557186" lon="-75.6828804380105">
        <ele>52.2851891</ele>
        <time>2019-09-10T14:55:34.400Z</time>
      </trkpt>
      <trkpt lat="10.1562755066215" lon="-75.6828825862981">
        <ele>52.2851891</ele>
        <time>2019-09-10T14:55:34.500Z</time>
      </trkpt>
      <trkpt lat="10.1562772616933" lon="-75.6828847290155">
        <ele>52.2851891</ele>
        <time>2019-09-10T14:55:34.600Z</time>
      </trkpt>
      <trkpt lat="10.1562790096782" lon="-75.6828868728469">
        <ele>52.2851891</ele>
        <time>2019-09-10T14:55:34.700Z</time>
      </trkpt>
      <trkpt lat="10.1562807530773" lon="-75.6828890040061">
        <ele>52.2851891</ele>
        <time>2019-09-10T14:55:34.800Z</time>
      </trkpt>
      <trkpt lat="10.1562825221146" lon="-75.6828911365579">
        <ele>52.2851891</ele>
        <time>2019-09-10T14:55:34.900Z</time>
      </trkpt>
      <trkpt lat="10.156284296363" lon="-75.6828932547664">
        <ele>52.2851891</ele>
        <time>2019-09-10T14:55:35.000Z</time>
      </trkpt>
      <trkpt lat="10.1562877912904" lon="-75.6828974524705">
        <ele>52.2851891</ele>
        <time>2019-09-10T14:55:35.200Z</time>
      </trkpt>
      <trkpt lat="10.1562895461538" lon="-75.6828995347512">
        <ele>52.2851891</ele>
        <time>2019-09-10T14:55:35.300Z</time>
      </trkpt>
      <trkpt lat="10.156291322695" lon="-75.6829016110439">
        <ele>52.2851891</ele>
        <time>2019-09-10T14:55:35.400Z</time>
      </trkpt>
      <trkpt lat="10.1562930908985" lon="-75.6829036979201">
        <ele>52.2851891</ele>
        <time>2019-09-10T14:55:35.500Z</time>
      </trkpt>
      <trkpt lat="10.1562948607696" lon="-75.6829057877205">
        <ele>52.2851891</ele>
        <time>2019-09-10T14:55:35.600Z</time>
      </trkpt>
      <trkpt lat="10.1562966760808" lon="-75.6829078943709">
        <ele>52.3851891</ele>
        <time>2019-09-10T14:55:35.700Z</time>
      </trkpt>
      <trkpt lat="10.1562984995212" lon="-75.6829099968436">
        <ele>52.2851891</ele>
        <time>2019-09-10T14:55:35.800Z</time>
      </trkpt>
      <trkpt lat="10.1563002941968" lon="-75.6829120750859">
        <ele>52.2851891</ele>
        <time>2019-09-10T14:55:35.900Z</time>
      </trkpt>
      <trkpt lat="10.1563037980872" lon="-75.6829161803246">
        <ele>52.2851891</ele>
        <time>2019-09-10T14:55:36.100Z</time>
      </trkpt>
      <trkpt lat="10.1563055246026" lon="-75.6829182181829">
        <ele>52.2851891</ele>
        <time>2019-09-10T14:55:36.200Z</time>
      </trkpt>
      <trkpt lat="10.1563072590387" lon="-75.6829202414195">
        <ele>52.2851891</ele>
        <time>2019-09-10T14:55:36.300Z</time>
      </trkpt>
      <trkpt lat="10.1563090103586" lon="-75.6829222822022">
        <ele>52.2851891</ele>
        <time>2019-09-10T14:55:36.400Z</time>
      </trkpt>
      <trkpt lat="10.1563107800213" lon="-75.6829243299477">
        <ele>52.2851891</ele>
        <time>2019-09-10T14:55:36.500Z</time>
      </trkpt>
      <trkpt lat="10.1563125496839" lon="-75.6829263878587">
        <ele>52.2851891</ele>
        <time>2019-09-10T14:55:36.600Z</time>
      </trkpt>
      <trkpt lat="10.1563143087161" lon="-75.6829284700002">
        <ele>52.2851891</ele>
        <time>2019-09-10T14:55:36.700Z</time>
      </trkpt>
      <trkpt lat="10.1563160577431" lon="-75.6829305659279">
        <ele>52.2851891</ele>
        <time>2019-09-10T14:55:36.800Z</time>
      </trkpt>
      <trkpt lat="10.1563178224032" lon="-75.6829326841364">
        <ele>52.2851891</ele>
        <time>2019-09-10T14:55:36.900Z</time>
      </trkpt>
      <trkpt lat="10.1563195856042" lon="-75.6829347990028">
        <ele>52.2851891</ele>
        <time>2019-09-10T14:55:37.000Z</time>
      </trkpt>
      <trkpt lat="10.156321342552" lon="-75.6829369135906">
        <ele>52.2851891</ele>
        <time>2019-09-10T14:55:37.100Z</time>
      </trkpt>
      <trkpt lat="10.1563231017926" lon="-75.6829390102146">
        <ele>52.2851891</ele>
        <time>2019-09-10T14:55:37.200Z</time>
      </trkpt>
      <trkpt lat="10.1563248631176" lon="-75.6829410798231">
        <ele>52.2851891</ele>
        <time>2019-09-10T14:55:37.300Z</time>
      </trkpt>
      <trkpt lat="10.1563266225667" lon="-75.6829431438614">
        <ele>52.2851891</ele>
        <time>2019-09-10T14:55:37.400Z</time>
      </trkpt>
      <trkpt lat="10.1563283672164" lon="-75.6829451985696">
        <ele>52.3851891</ele>
        <time>2019-09-10T14:55:37.500Z</time>
      </trkpt>
      <trkpt lat="10.1563301079058" lon="-75.6829472619116">
        <ele>52.3851891</ele>
        <time>2019-09-10T14:55:37.600Z</time>
      </trkpt>
      <trkpt lat="10.1563318350466" lon="-75.6829493451671">
        <ele>52.3851891</ele>
        <time>2019-09-10T14:55:37.700Z</time>
      </trkpt>
      <trkpt lat="10.1563335632295" lon="-75.6829514463865">
        <ele>52.3851891</ele>
        <time>2019-09-10T14:55:37.800Z</time>
      </trkpt>
      <trkpt lat="10.1563352814073" lon="-75.6829535489984">
        <ele>52.3851891</ele>
        <time>2019-09-10T14:55:37.900Z</time>
      </trkpt>
      <trkpt lat="10.1563370177194" lon="-75.6829556433943">
        <ele>52.3851891</ele>
        <time>2019-09-10T14:55:38.000Z</time>
      </trkpt>
      <trkpt lat="10.15633873819" lon="-75.6829577389042">
        <ele>52.3851891</ele>
        <time>2019-09-10T14:55:38.100Z</time>
      </trkpt>
      <trkpt lat="10.1563404565762" lon="-75.6829598342749">
        <ele>52.3851891</ele>
        <time>2019-09-10T14:55:38.200Z</time>
      </trkpt>
      <trkpt lat="10.1563422320752" lon="-75.6829619623705">
        <ele>52.2851891</ele>
        <time>2019-09-10T14:55:38.300Z</time>
      </trkpt>
      <trkpt lat="10.1563440125768" lon="-75.6829640900483">
        <ele>52.2851891</ele>
        <time>2019-09-10T14:55:38.400Z</time>
      </trkpt>
      <trkpt lat="10.1563457651473" lon="-75.6829661958631">
        <ele>52.2851891</ele>
        <time>2019-09-10T14:55:38.500Z</time>
      </trkpt>
      <trkpt lat="10.1563474916627" lon="-75.682968290259">
        <ele>52.2851891</ele>
        <time>2019-09-10T14:55:38.600Z</time>
      </trkpt>
      <trkpt lat="10.1563492046295" lon="-75.6829703966309">
        <ele>52.2851891</ele>
        <time>2019-09-10T14:55:38.700Z</time>
      </trkpt>
      <trkpt lat="10.1563509125937" lon="-75.682972520131">
        <ele>52.2851891</ele>
        <time>2019-09-10T14:55:38.800Z</time>
      </trkpt>
      <trkpt lat="10.1563543005909" lon="-75.6829767856523">
        <ele>52.2851891</ele>
        <time>2019-09-10T14:55:39.000Z</time>
      </trkpt>
      <trkpt lat="10.1563559972993" lon="-75.6829789351932">
        <ele>52.3851891</ele>
        <time>2019-09-10T14:55:39.100Z</time>
      </trkpt>
      <trkpt lat="10.1563577052635" lon="-75.6829810883548">
        <ele>52.3851891</ele>
        <time>2019-09-10T14:55:39.200Z</time>
      </trkpt>
      <trkpt lat="10.1563594276101" lon="-75.682983247922">
        <ele>52.3851891</ele>
        <time>2019-09-10T14:55:39.300Z</time>
      </trkpt>
      <trkpt lat="10.1563611430781" lon="-75.6829854051219">
        <ele>52.3851891</ele>
        <time>2019-09-10T14:55:39.400Z</time>
      </trkpt>
      <trkpt lat="10.1563628320742" lon="-75.6829875589797">
        <ele>52.3851891</ele>
        <time>2019-09-10T14:55:39.500Z</time>
      </trkpt>
      <trkpt lat="10.1563645183605" lon="-75.6829896976587">
        <ele>52.3851891</ele>
        <time>2019-09-10T14:55:39.600Z</time>
      </trkpt>
      <trkpt lat="10.1563661919319" lon="-75.6829918282609">
        <ele>52.3851891</ele>
        <time>2019-09-10T14:55:39.700Z</time>
      </trkpt>
      <trkpt lat="10.156367873841" lon="-75.6829939524574">
        <ele>52.3851891</ele>
        <time>2019-09-10T14:55:39.800Z</time>
      </trkpt>
      <trkpt lat="10.1563695511644" lon="-75.6829960552086">
        <ele>52.3851891</ele>
        <time>2019-09-10T14:55:39.900Z</time>
      </trkpt>
      <trkpt lat="10.1563712345325" lon="-75.6829981482119">
        <ele>52.3851891</ele>
        <time>2019-09-10T14:55:40.000Z</time>
      </trkpt>
      <trkpt lat="10.1563729385363" lon="-75.6830002548622">
        <ele>52.3851891</ele>
        <time>2019-09-10T14:55:40.100Z</time>
      </trkpt>
      <trkpt lat="10.1563746527537" lon="-75.683002366665">
        <ele>52.3851891</ele>
        <time>2019-09-10T14:55:40.200Z</time>
      </trkpt>
      <trkpt lat="10.1563763665543" lon="-75.6830044488065">
        <ele>52.2851891</ele>
        <time>2019-09-10T14:55:40.300Z</time>
      </trkpt>
      <trkpt lat="10.1563780755606" lon="-75.6830065220356">
        <ele>52.2851891</ele>
        <time>2019-09-10T14:55:40.400Z</time>
      </trkpt>
      <trkpt lat="10.1563797810235" lon="-75.6830085958217">
        <ele>52.2851891</ele>
        <time>2019-09-10T14:55:40.500Z</time>
      </trkpt>
      <trkpt lat="10.1563814860695" lon="-75.683010680609">
        <ele>52.2851891</ele>
        <time>2019-09-10T14:55:40.600Z</time>
      </trkpt>
      <trkpt lat="10.1563831819441" lon="-75.6830127724983">
        <ele>52.2851891</ele>
        <time>2019-09-10T14:55:40.700Z</time>
      </trkpt>
      <trkpt lat="10.1563848788609" lon="-75.6830148717681">
        <ele>52.2851891</ele>
        <time>2019-09-10T14:55:40.800Z</time>
      </trkpt>
      <trkpt lat="10.1563865895348" lon="-75.6830169497319">
        <ele>52.2851891</ele>
        <time>2019-09-10T14:55:40.900Z</time>
      </trkpt>
      <trkpt lat="10.1563883091717" lon="-75.6830190115421">
        <ele>52.2851891</ele>
        <time>2019-09-10T14:55:41.000Z</time>
      </trkpt>
      <trkpt lat="10.1563900196372" lon="-75.683021057338">
        <ele>52.2851891</ele>
        <time>2019-09-10T14:55:41.100Z</time>
      </trkpt>
      <trkpt lat="10.156391712802" lon="-75.6830231183127">
        <ele>52.2851891</ele>
        <time>2019-09-10T14:55:41.200Z</time>
      </trkpt>
      <trkpt lat="10.156393393252" lon="-75.6830251771985">
        <ele>52.2851891</ele>
        <time>2019-09-10T14:55:41.300Z</time>
      </trkpt>
      <trkpt lat="10.1563950743273" lon="-75.683027245136">
        <ele>52.2851891</ele>
        <time>2019-09-10T14:55:41.400Z</time>
      </trkpt>
      <trkpt lat="10.1563967516507" lon="-75.6830293339617">
        <ele>52.2851891</ele>
        <time>2019-09-10T14:55:41.500Z</time>
      </trkpt>
      <trkpt lat="10.1563984358526" lon="-75.6830314311427">
        <ele>52.2851891</ele>
        <time>2019-09-10T14:55:41.600Z</time>
      </trkpt>
      <trkpt lat="10.1564001194292" lon="-75.6830335298555">
        <ele>52.2851891</ele>
        <time>2019-09-10T14:55:41.700Z</time>
      </trkpt>
      <trkpt lat="10.1564018090506" lon="-75.6830356188204">
        <ele>52.2851891</ele>
        <time>2019-09-10T14:55:41.800Z</time>
      </trkpt>
      <trkpt lat="10.1564035065927" lon="-75.6830377105704">
        <ele>52.2851891</ele>
        <time>2019-09-10T14:55:41.900Z</time>
      </trkpt>
      <trkpt lat="10.1564052072615" lon="-75.6830397957755">
        <ele>52.2851891</ele>
        <time>2019-09-10T14:55:42.000Z</time>
      </trkpt>
      <trkpt lat="10.1564069214789" lon="-75.6830418933742">
        <ele>52.2851891</ele>
        <time>2019-09-10T14:55:42.100Z</time>
      </trkpt>
      <trkpt lat="10.1564086284008" lon="-75.6830439891627">
        <ele>52.2851891</ele>
        <time>2019-09-10T14:55:42.200Z</time>
      </trkpt>
      <trkpt lat="10.156410313645" lon="-75.6830460799379">
        <ele>52.2851891</ele>
        <time>2019-09-10T14:55:42.300Z</time>
      </trkpt>
      <trkpt lat="10.1564119659554" lon="-75.6830481748908">
        <ele>52.2851891</ele>
        <time>2019-09-10T14:55:42.400Z</time>
      </trkpt>
      <trkpt lat="10.1564136157646" lon="-75.6830502741607">
        <ele>52.2851891</ele>
        <time>2019-09-10T14:55:42.500Z</time>
      </trkpt>
      <trkpt lat="10.156416985836" lon="-75.6830544832837">
        <ele>52.2851891</ele>
        <time>2019-09-10T14:55:42.700Z</time>
      </trkpt>
      <trkpt lat="10.1564186727476" lon="-75.683056589934">
        <ele>52.2851891</ele>
        <time>2019-09-10T14:55:42.800Z</time>
      </trkpt>
      <trkpt lat="10.156420374667" lon="-75.683058722068">
        <ele>52.2851891</ele>
        <time>2019-09-10T14:55:42.900Z</time>
      </trkpt>
      <trkpt lat="10.1564220811721" lon="-75.6830608603292">
        <ele>52.2851891</ele>
        <time>2019-09-10T14:55:43.000Z</time>
      </trkpt>
      <trkpt lat="10.1564254308163" lon="-75.6830650736299">
        <ele>52.2851891</ele>
        <time>2019-09-10T14:55:43.200Z</time>
      </trkpt>
      <trkpt lat="10.1564271166857" lon="-75.6830671869645">
        <ele>52.2851891</ele>
        <time>2019-09-10T14:55:43.300Z</time>
      </trkpt>
      <trkpt lat="10.1564305722178" lon="-75.6830714420417">
        <ele>52.2851891</ele>
        <time>2019-09-10T14:55:43.500Z</time>
      </trkpt>
      <trkpt lat="10.1564323352104" lon="-75.6830735698588">
        <ele>52.2851891</ele>
        <time>2019-09-10T14:55:43.600Z</time>
      </trkpt>
      <trkpt lat="10.1564340588076" lon="-75.6830756361251">
        <ele>52.2851891</ele>
        <time>2019-09-10T14:55:43.700Z</time>
      </trkpt>
      <trkpt lat="10.1564357532231" lon="-75.6830776912511">
        <ele>52.2851891</ele>
        <time>2019-09-10T14:55:43.800Z</time>
      </trkpt>
      <trkpt lat="10.1564374524328" lon="-75.683079744706">
        <ele>52.2851891</ele>
        <time>2019-09-10T14:55:43.900Z</time>
      </trkpt>
      <trkpt lat="10.1564391526847" lon="-75.6830818208595">
        <ele>52.1851891</ele>
        <time>2019-09-10T14:55:44.000Z</time>
      </trkpt>
      <trkpt lat="10.1564408604404" lon="-75.6830839000766">
        <ele>52.1851891</ele>
        <time>2019-09-10T14:55:44.100Z</time>
      </trkpt>
      <trkpt lat="10.1564425884149" lon="-75.6830860000427">
        <ele>52.1851891</ele>
        <time>2019-09-10T14:55:44.200Z</time>
      </trkpt>
      <trkpt lat="10.1564443274368" lon="-75.683088085387">
        <ele>52.1851891</ele>
        <time>2019-09-10T14:55:44.300Z</time>
      </trkpt>
      <trkpt lat="10.1564460939728" lon="-75.6830901793651">
        <ele>52.1851891</ele>
        <time>2019-09-10T14:55:44.400Z</time>
      </trkpt>
      <trkpt lat="10.156447870514" lon="-75.6830922968773">
        <ele>52.2851891</ele>
        <time>2019-09-10T14:55:44.500Z</time>
      </trkpt>
      <trkpt lat="10.1564496593532" lon="-75.6830944313787">
        <ele>52.2851891</ele>
        <time>2019-09-10T14:55:44.600Z</time>
      </trkpt>
      <trkpt lat="10.1564514546541" lon="-75.6830965623986">
        <ele>52.2851891</ele>
        <time>2019-09-10T14:55:44.700Z</time>
      </trkpt>
      <trkpt lat="10.1564532691315" lon="-75.683098689798">
        <ele>52.2851891</ele>
        <time>2019-09-10T14:55:44.800Z</time>
      </trkpt>
      <trkpt lat="10.1564550671422" lon="-75.6831008029933">
        <ele>52.1851891</ele>
        <time>2019-09-10T14:55:44.900Z</time>
      </trkpt>
      <trkpt lat="10.1564568343035" lon="-75.6831029075548">
        <ele>52.1851891</ele>
        <time>2019-09-10T14:55:45.000Z</time>
      </trkpt>
      <trkpt lat="10.1564585781195" lon="-75.6831050161547">
        <ele>52.2851891</ele>
        <time>2019-09-10T14:55:45.100Z</time>
      </trkpt>
      <trkpt lat="10.1564603088038" lon="-75.6831071294893">
        <ele>52.2851891</ele>
        <time>2019-09-10T14:55:45.200Z</time>
      </trkpt>
      <trkpt lat="10.1564620096809" lon="-75.6831092602307">
        <ele>52.2851891</ele>
        <time>2019-09-10T14:55:45.300Z</time>
      </trkpt>
      <trkpt lat="10.1564636988854" lon="-75.6831114040622">
        <ele>52.2851891</ele>
        <time>2019-09-10T14:55:45.400Z</time>
      </trkpt>
      <trkpt lat="10.1564653747497" lon="-75.6831135852139">
        <ele>52.2851891</ele>
        <time>2019-09-10T14:55:45.500Z</time>
      </trkpt>
      <trkpt lat="10.156467066664" lon="-75.6831157723537">
        <ele>52.2851891</ele>
        <time>2019-09-10T14:55:45.600Z</time>
      </trkpt>
      <trkpt lat="10.156468787343" lon="-75.6831179763433">
        <ele>52.2851891</ele>
        <time>2019-09-10T14:55:45.700Z</time>
      </trkpt>
      <trkpt lat="10.1564705249058" lon="-75.6831201637616">
        <ele>52.2851891</ele>
        <time>2019-09-10T14:55:45.800Z</time>
      </trkpt>
      <trkpt lat="10.1564722507959" lon="-75.683122330013">
        <ele>52.2851891</ele>
        <time>2019-09-10T14:55:45.900Z</time>
      </trkpt>
      <trkpt lat="10.156473957301" lon="-75.6831244781614">
        <ele>52.2851891</ele>
        <time>2019-09-10T14:55:46.000Z</time>
      </trkpt>
      <trkpt lat="10.1564756408776" lon="-75.6831266171189">
        <ele>52.2851891</ele>
        <time>2019-09-10T14:55:46.100Z</time>
      </trkpt>
      <trkpt lat="10.1564773150743" lon="-75.683128738391">
        <ele>52.2851891</ele>
        <time>2019-09-10T14:55:46.200Z</time>
      </trkpt>
      <trkpt lat="10.1564789851023" lon="-75.6831307847439">
        <ele>52.2851891</ele>
        <time>2019-09-10T14:55:46.300Z</time>
      </trkpt>
      <trkpt lat="10.1564806547133" lon="-75.6831328207919">
        <ele>52.2851891</ele>
        <time>2019-09-10T14:55:46.400Z</time>
      </trkpt>
      <trkpt lat="10.1564822911823" lon="-75.6831348509913">
        <ele>52.2851891</ele>
        <time>2019-09-10T14:55:46.500Z</time>
      </trkpt>
      <trkpt lat="10.1564839259837" lon="-75.6831369129407">
        <ele>52.2851891</ele>
        <time>2019-09-10T14:55:46.600Z</time>
      </trkpt>
      <trkpt lat="10.1564855718325" lon="-75.683138956787">
        <ele>52.2851891</ele>
        <time>2019-09-10T14:55:46.700Z</time>
      </trkpt>
      <trkpt lat="10.1564872472799" lon="-75.6831410180402">
        <ele>52.2851891</ele>
        <time>2019-09-10T14:55:46.800Z</time>
      </trkpt>
      <trkpt lat="10.156488932941" lon="-75.6831430720521">
        <ele>52.2851891</ele>
        <time>2019-09-10T14:55:46.900Z</time>
      </trkpt>
      <trkpt lat="10.1564906265227" lon="-75.6831451379007">
        <ele>52.2851891</ele>
        <time>2019-09-10T14:55:47.000Z</time>
      </trkpt>
      <trkpt lat="10.1564940647542" lon="-75.6831492734971">
        <ele>52.2851891</ele>
        <time>2019-09-10T14:55:47.200Z</time>
      </trkpt>
      <trkpt lat="10.1564958160741" lon="-75.6831513403205">
        <ele>52.2851891</ele>
        <time>2019-09-10T14:55:47.300Z</time>
      </trkpt>
      <trkpt lat="10.1564975717712" lon="-75.6831534116">
        <ele>52.2851891</ele>
        <time>2019-09-10T14:55:47.400Z</time>
      </trkpt>
      <trkpt lat="10.1564993349722" lon="-75.6831554984761">
        <ele>52.2851891</ele>
        <time>2019-09-10T14:55:47.500Z</time>
      </trkpt>
      <trkpt lat="10.1565010948382" lon="-75.6831575825671">
        <ele>52.2851891</ele>
        <time>2019-09-10T14:55:47.600Z</time>
      </trkpt>
      <trkpt lat="10.1565028547041" lon="-75.6831596821155">
        <ele>52.2851891</ele>
        <time>2019-09-10T14:55:47.700Z</time>
      </trkpt>
      <trkpt lat="10.1565046124856" lon="-75.6831617773469">
        <ele>52.3851891</ele>
        <time>2019-09-10T14:55:47.800Z</time>
      </trkpt>
      <trkpt lat="10.1565063671406" lon="-75.6831638831617">
        <ele>52.3851891</ele>
        <time>2019-09-10T14:55:47.900Z</time>
      </trkpt>
      <trkpt lat="10.1565081197111" lon="-75.6831659807604">
        <ele>52.3851891</ele>
        <time>2019-09-10T14:55:48.000Z</time>
      </trkpt>
      <trkpt lat="10.1565098670706" lon="-75.6831680613701">
        <ele>52.3851891</ele>
        <time>2019-09-10T14:55:48.100Z</time>
      </trkpt>
      <trkpt lat="10.1565116156807" lon="-75.683170129586">
        <ele>52.3851891</ele>
        <time>2019-09-10T14:55:48.200Z</time>
      </trkpt>
      <trkpt lat="10.1565133503253" lon="-75.6831722072713">
        <ele>52.3851891</ele>
        <time>2019-09-10T14:55:48.300Z</time>
      </trkpt>
      <trkpt lat="10.1565150803842" lon="-75.683174283007">
        <ele>52.3851891</ele>
        <time>2019-09-10T14:55:48.400Z</time>
      </trkpt>
      <trkpt lat="10.1565167979366" lon="-75.6831763471846">
        <ele>52.3851891</ele>
        <time>2019-09-10T14:55:48.500Z</time>
      </trkpt>
      <trkpt lat="10.1565185207001" lon="-75.6831784046779">
        <ele>52.3851891</ele>
        <time>2019-09-10T14:55:48.600Z</time>
      </trkpt>
      <trkpt lat="10.1565202674343" lon="-75.6831805081253">
        <ele>52.3851891</ele>
        <time>2019-09-10T14:55:48.700Z</time>
      </trkpt>
      <trkpt lat="10.1565220239652" lon="-75.6831826186748">
        <ele>52.3851891</ele>
        <time>2019-09-10T14:55:48.800Z</time>
      </trkpt>
      <trkpt lat="10.1565237565254" lon="-75.6831846906506">
        <ele>52.3851891</ele>
        <time>2019-09-10T14:55:48.900Z</time>
      </trkpt>
      <trkpt lat="10.1565254834577" lon="-75.6831867424345">
        <ele>52.3851891</ele>
        <time>2019-09-10T14:55:49.000Z</time>
      </trkpt>
      <trkpt lat="10.1565271989257" lon="-75.6831887855845">
        <ele>52.3851891</ele>
        <time>2019-09-10T14:55:49.100Z</time>
      </trkpt>
      <trkpt lat="10.1565289181457" lon="-75.6831908429386">
        <ele>52.3851891</ele>
        <time>2019-09-10T14:55:49.200Z</time>
      </trkpt>
      <trkpt lat="10.1565306352813" lon="-75.6831929140789">
        <ele>52.3851891</ele>
        <time>2019-09-10T14:55:49.300Z</time>
      </trkpt>
      <trkpt lat="10.1565323442876" lon="-75.6831950019298">
        <ele>52.3851891</ele>
        <time>2019-09-10T14:55:49.400Z</time>
      </trkpt>
      <trkpt lat="10.1565340276558" lon="-75.6831970920088">
        <ele>52.3851891</ele>
        <time>2019-09-10T14:55:49.500Z</time>
      </trkpt>
      <trkpt lat="10.156535716235" lon="-75.6831991865439">
        <ele>52.3851891</ele>
        <time>2019-09-10T14:55:49.600Z</time>
      </trkpt>
      <trkpt lat="10.1565374275342" lon="-75.683201287624">
        <ele>52.3851891</ele>
        <time>2019-09-10T14:55:49.700Z</time>
      </trkpt>
      <trkpt lat="10.1565391507145" lon="-75.6832033870331">
        <ele>52.3851891</ele>
        <time>2019-09-10T14:55:49.800Z</time>
      </trkpt>
      <trkpt lat="10.1565408697261" lon="-75.6832055109511">
        <ele>52.3851891</ele>
        <time>2019-09-10T14:55:49.900Z</time>
      </trkpt>
      <trkpt lat="10.1565425918642" lon="-75.683207633198">
        <ele>52.3851891</ele>
        <time>2019-09-10T14:55:50.000Z</time>
      </trkpt>
      <trkpt lat="10.1565443302608" lon="-75.6832097273153">
        <ele>52.3851891</ele>
        <time>2019-09-10T14:55:50.100Z</time>
      </trkpt>
      <trkpt lat="10.1565460761612" lon="-75.6832118033296">
        <ele>52.3851891</ele>
        <time>2019-09-10T14:55:50.200Z</time>
      </trkpt>
      <trkpt lat="10.1565478283148" lon="-75.6832138753054">
        <ele>52.3851891</ele>
        <time>2019-09-10T14:55:50.300Z</time>
      </trkpt>
      <trkpt lat="10.1565495790094" lon="-75.6832159514589">
        <ele>52.3851891</ele>
        <time>2019-09-10T14:55:50.400Z</time>
      </trkpt>
      <trkpt lat="10.1565513288701" lon="-75.6832180124335">
        <ele>52.3851891</ele>
        <time>2019-09-10T14:55:50.500Z</time>
      </trkpt>
      <trkpt lat="10.1565530726861" lon="-75.6832200785607">
        <ele>52.3851891</ele>
        <time>2019-09-10T14:55:50.600Z</time>
      </trkpt>
      <trkpt lat="10.15655483818" lon="-75.6832221569422">
        <ele>52.3851891</ele>
        <time>2019-09-10T14:55:50.700Z</time>
      </trkpt>
      <trkpt lat="10.1565566093017" lon="-75.6832242443754">
        <ele>52.3851891</ele>
        <time>2019-09-10T14:55:50.800Z</time>
      </trkpt>
      <trkpt lat="10.1565583845923" lon="-75.6832263131483">
        <ele>52.3851891</ele>
        <time>2019-09-10T14:55:50.900Z</time>
      </trkpt>
      <trkpt lat="10.1565601530043" lon="-75.6832283745407">
        <ele>52.3851891</ele>
        <time>2019-09-10T14:55:51.000Z</time>
      </trkpt>
      <trkpt lat="10.1565619405929" lon="-75.6832304208937">
        <ele>52.3851891</ele>
        <time>2019-09-10T14:55:51.100Z</time>
      </trkpt>
      <trkpt lat="10.1565637308912" lon="-75.6832324751841">
        <ele>52.3851891</ele>
        <time>2019-09-10T14:55:51.200Z</time>
      </trkpt>
      <trkpt lat="10.1565655420336" lon="-75.6832345743146">
        <ele>52.3851891</ele>
        <time>2019-09-10T14:55:51.300Z</time>
      </trkpt>
      <trkpt lat="10.1565673467143" lon="-75.6832366911306">
        <ele>52.3851891</ele>
        <time>2019-09-10T14:55:51.400Z</time>
      </trkpt>
      <trkpt lat="10.1565691044958" lon="-75.6832387717402">
        <ele>52.3851891</ele>
        <time>2019-09-10T14:55:51.500Z</time>
      </trkpt>
      <trkpt lat="10.1565725829564" lon="-75.6832429258575">
        <ele>52.3851891</ele>
        <time>2019-09-10T14:55:51.700Z</time>
      </trkpt>
      <trkpt lat="10.1565743344847" lon="-75.6832450205319">
        <ele>52.3851891</ele>
        <time>2019-09-10T14:55:51.800Z</time>
      </trkpt>
      <trkpt lat="10.1565760760079" lon="-75.6832471167381">
        <ele>52.3851891</ele>
        <time>2019-09-10T14:55:51.900Z</time>
      </trkpt>
      <trkpt lat="10.1565778202407" lon="-75.683249212248">
        <ele>52.3851891</ele>
        <time>2019-09-10T14:55:52.000Z</time>
      </trkpt>
      <trkpt lat="10.1565795517587" lon="-75.6832513097075">
        <ele>52.3851891</ele>
        <time>2019-09-10T14:55:52.100Z</time>
      </trkpt>
      <trkpt lat="10.1565812895299" lon="-75.683253412041">
        <ele>52.3851891</ele>
        <time>2019-09-10T14:55:52.200Z</time>
      </trkpt>
      <trkpt lat="10.1565830473115" lon="-75.6832555135389">
        <ele>52.3851891</ele>
        <time>2019-09-10T14:55:52.300Z</time>
      </trkpt>
      <trkpt lat="10.1565848171826" lon="-75.6832576107199">
        <ele>52.3851891</ele>
        <time>2019-09-10T14:55:52.400Z</time>
      </trkpt>
      <trkpt lat="10.1565865770485" lon="-75.6832596776825">
        <ele>52.3851891</ele>
        <time>2019-09-10T14:55:52.500Z</time>
      </trkpt>
      <trkpt lat="10.1565883273262" lon="-75.6832617425563">
        <ele>52.3851891</ele>
        <time>2019-09-10T14:55:52.600Z</time>
      </trkpt>
      <trkpt lat="10.1565900915694" lon="-75.6832638103545">
        <ele>52.3851891</ele>
        <time>2019-09-10T14:55:52.700Z</time>
      </trkpt>
      <trkpt lat="10.1565918633165" lon="-75.6832658922174">
        <ele>52.3851891</ele>
        <time>2019-09-10T14:55:52.800Z</time>
      </trkpt>
      <trkpt lat="10.1565936204727" lon="-75.6832679841067">
        <ele>52.3851891</ele>
        <time>2019-09-10T14:55:52.900Z</time>
      </trkpt>
      <trkpt lat="10.1565953672068" lon="-75.68327008087">
        <ele>52.3851891</ele>
        <time>2019-09-10T14:55:53.000Z</time>
      </trkpt>
      <trkpt lat="10.1565971260306" lon="-75.6832721851529">
        <ele>52.3851891</ele>
        <time>2019-09-10T14:55:53.100Z</time>
      </trkpt>
      <trkpt lat="10.1565988877725" lon="-75.6832742902715">
        <ele>52.3851891</ele>
        <time>2019-09-10T14:55:53.200Z</time>
      </trkpt>
      <trkpt lat="10.1566023918713" lon="-75.6832784995338">
        <ele>52.3851891</ele>
        <time>2019-09-10T14:55:53.400Z</time>
      </trkpt>
      <trkpt lat="10.1566041586158" lon="-75.683280603956">
        <ele>52.3851891</ele>
        <time>2019-09-10T14:55:53.500Z</time>
      </trkpt>
      <trkpt lat="10.1566059303629" lon="-75.6832827067072">
        <ele>52.3851891</ele>
        <time>2019-09-10T14:55:53.600Z</time>
      </trkpt>
      <trkpt lat="10.1566076914794" lon="-75.6832848111295">
        <ele>52.3851891</ele>
        <time>2019-09-10T14:55:53.700Z</time>
      </trkpt>
      <trkpt lat="10.1566094398811" lon="-75.6832869142984">
        <ele>52.3851891</ele>
        <time>2019-09-10T14:55:53.800Z</time>
      </trkpt>
      <trkpt lat="10.1566111801536" lon="-75.6832890121757">
        <ele>52.3851891</ele>
        <time>2019-09-10T14:55:53.900Z</time>
      </trkpt>
      <trkpt lat="10.1566129183417" lon="-75.6832911069893">
        <ele>52.3851891</ele>
        <time>2019-09-10T14:55:54.000Z</time>
      </trkpt>
      <trkpt lat="10.1566146546539" lon="-75.6832932020815">
        <ele>52.3851891</ele>
        <time>2019-09-10T14:55:54.100Z</time>
      </trkpt>
      <trkpt lat="10.1566163955517" lon="-75.6832952956418">
        <ele>52.3851891</ele>
        <time>2019-09-10T14:55:54.200Z</time>
      </trkpt>
      <trkpt lat="10.1566181622962" lon="-75.6832974205346">
        <ele>52.3851891</ele>
        <time>2019-09-10T14:55:54.300Z</time>
      </trkpt>
      <trkpt lat="10.1566199369614" lon="-75.683299551276">
        <ele>52.3851891</ele>
        <time>2019-09-10T14:55:54.400Z</time>
      </trkpt>
      <trkpt lat="10.1566217062072" lon="-75.6833016827138">
        <ele>52.3851891</ele>
        <time>2019-09-10T14:55:54.500Z</time>
      </trkpt>
      <trkpt lat="10.156623464614" lon="-75.6833038020363">
        <ele>52.3851891</ele>
        <time>2019-09-10T14:55:54.600Z</time>
      </trkpt>
      <trkpt lat="10.1566252111398" lon="-75.6833059439182">
        <ele>52.3851891</ele>
        <time>2019-09-10T14:55:54.700Z</time>
      </trkpt>
      <trkpt lat="10.1566269524545" lon="-75.6833080803691">
        <ele>52.3851891</ele>
        <time>2019-09-10T14:55:54.800Z</time>
      </trkpt>
      <trkpt lat="10.1566286604187" lon="-75.6833101835381">
        <ele>52.3851891</ele>
        <time>2019-09-10T14:55:54.900Z</time>
      </trkpt>
      <trkpt lat="10.1566303610874" lon="-75.6833122677683">
        <ele>52.3851891</ele>
        <time>2019-09-10T14:55:55.000Z</time>
      </trkpt>
      <trkpt lat="10.156632053627" lon="-75.6833143741401">
        <ele>52.3851891</ele>
        <time>2019-09-10T14:55:55.100Z</time>
      </trkpt>
      <trkpt lat="10.1566337615911" lon="-75.6833164877532">
        <ele>52.3851891</ele>
        <time>2019-09-10T14:55:55.200Z</time>
      </trkpt>
      <trkpt lat="10.1566354797689" lon="-75.6833186315847">
        <ele>52.3851891</ele>
        <time>2019-09-10T14:55:55.300Z</time>
      </trkpt>
      <trkpt lat="10.1566372135797" lon="-75.683320773745">
        <ele>52.3851891</ele>
        <time>2019-09-10T14:55:55.400Z</time>
      </trkpt>
      <trkpt lat="10.1566389357179" lon="-75.6833229147914">
        <ele>52.3851891</ele>
        <time>2019-09-10T14:55:55.500Z</time>
      </trkpt>
      <trkpt lat="10.1566406618164" lon="-75.6833250448365">
        <ele>52.3851891</ele>
        <time>2019-09-10T14:55:55.600Z</time>
      </trkpt>
      <trkpt lat="10.1566423972948" lon="-75.6833271663872">
        <ele>52.3851891</ele>
        <time>2019-09-10T14:55:55.700Z</time>
      </trkpt>
      <trkpt lat="10.1566441586198" lon="-75.6833292766581">
        <ele>52.3851891</ele>
        <time>2019-09-10T14:55:55.800Z</time>
      </trkpt>
      <trkpt lat="10.1566477016971" lon="-75.6833334651714">
        <ele>52.3851891</ele>
        <time>2019-09-10T14:55:56.000Z</time>
      </trkpt>
      <trkpt lat="10.156649486159" lon="-75.6833355715432">
        <ele>52.3851891</ele>
        <time>2019-09-10T14:55:56.100Z</time>
      </trkpt>
      <trkpt lat="10.1566512756236" lon="-75.6833376809787">
        <ele>52.3851891</ele>
        <time>2019-09-10T14:55:56.200Z</time>
      </trkpt>
      <trkpt lat="10.1566530630037" lon="-75.6833397617275">
        <ele>52.3851891</ele>
        <time>2019-09-10T14:55:56.300Z</time>
      </trkpt>
      <trkpt lat="10.1566548474657" lon="-75.6833418338426">
        <ele>52.3851891</ele>
        <time>2019-09-10T14:55:56.400Z</time>
      </trkpt>
      <trkpt lat="10.1566566569405" lon="-75.6833439374293">
        <ele>52.3851891</ele>
        <time>2019-09-10T14:55:56.500Z</time>
      </trkpt>
      <trkpt lat="10.1566584653732" lon="-75.6833460528528">
        <ele>52.3851891</ele>
        <time>2019-09-10T14:55:56.600Z</time>
      </trkpt>
      <trkpt lat="10.1566602544208" lon="-75.6833481191191">
        <ele>52.3851891</ele>
        <time>2019-09-10T14:55:56.700Z</time>
      </trkpt>
      <trkpt lat="10.1566620301283" lon="-75.6833501749414">
        <ele>52.3851891</ele>
        <time>2019-09-10T14:55:56.800Z</time>
      </trkpt>
      <trkpt lat="10.1566638093792" lon="-75.6833522339665">
        <ele>52.3851891</ele>
        <time>2019-09-10T14:55:56.900Z</time>
      </trkpt>
      <trkpt lat="10.1566655875879" lon="-75.6833543122088">
        <ele>52.3851891</ele>
        <time>2019-09-10T14:55:57.000Z</time>
      </trkpt>
      <trkpt lat="10.1566673635038" lon="-75.6833564007559">
        <ele>52.3851891</ele>
        <time>2019-09-10T14:55:57.100Z</time>
      </trkpt>
      <trkpt lat="10.1566691358762" lon="-75.6833584955696">
        <ele>52.3851891</ele>
        <time>2019-09-10T14:55:57.200Z</time>
      </trkpt>
      <trkpt lat="10.1566708859454" lon="-75.6833606193483">
        <ele>52.3851891</ele>
        <time>2019-09-10T14:55:57.300Z</time>
      </trkpt>
      <trkpt lat="10.1566726330965" lon="-75.6833627439625">
        <ele>52.3851891</ele>
        <time>2019-09-10T14:55:57.400Z</time>
      </trkpt>
      <trkpt lat="10.1566743635723" lon="-75.6833648698301">
        <ele>52.3851891</ele>
        <time>2019-09-10T14:55:57.500Z</time>
      </trkpt>
      <trkpt lat="10.1566760998844" lon="-75.6833669862283">
        <ele>52.3851891</ele>
        <time>2019-09-10T14:55:57.600Z</time>
      </trkpt>
      <trkpt lat="10.1566778549562" lon="-75.6833691036012">
        <ele>52.3851891</ele>
        <time>2019-09-10T14:55:57.700Z</time>
      </trkpt>
      <trkpt lat="10.1566796262864" lon="-75.6833712096945">
        <ele>52.3851891</ele>
        <time>2019-09-10T14:55:57.800Z</time>
      </trkpt>
      <trkpt lat="10.1566813951153" lon="-75.6833733089643">
        <ele>52.2851891</ele>
        <time>2019-09-10T14:55:57.900Z</time>
      </trkpt>
      <trkpt lat="10.1566831616513" lon="-75.6833754016892">
        <ele>52.3851891</ele>
        <time>2019-09-10T14:55:58.000Z</time>
      </trkpt>
      <trkpt lat="10.1566849125543" lon="-75.6833774933">
        <ele>52.3851891</ele>
        <time>2019-09-10T14:55:58.100Z</time>
      </trkpt>
      <trkpt lat="10.1566866703359" lon="-75.6833795842145">
        <ele>52.3851891</ele>
        <time>2019-09-10T14:55:58.200Z</time>
      </trkpt>
      <trkpt lat="10.156688440207" lon="-75.683381654937">
        <ele>52.3851891</ele>
        <time>2019-09-10T14:55:58.300Z</time>
      </trkpt>
      <trkpt lat="10.1566902165397" lon="-75.6833837263558">
        <ele>52.3851891</ele>
        <time>2019-09-10T14:55:58.400Z</time>
      </trkpt>
      <trkpt lat="10.1566919695271" lon="-75.6833858079403">
        <ele>52.3851891</ele>
        <time>2019-09-10T14:55:58.500Z</time>
      </trkpt>
      <trkpt lat="10.1566937175119" lon="-75.6833879028932">
        <ele>52.3851891</ele>
        <time>2019-09-10T14:55:58.600Z</time>
      </trkpt>
      <trkpt lat="10.15669547175" lon="-75.6833900102398">
        <ele>52.3851891</ele>
        <time>2019-09-10T14:55:58.700Z</time>
      </trkpt>
      <trkpt lat="10.1566972289062" lon="-75.6833921242706">
        <ele>52.3851891</ele>
        <time>2019-09-10T14:55:58.800Z</time>
      </trkpt>
      <trkpt lat="10.1566989422898" lon="-75.6833942381622">
        <ele>52.3851891</ele>
        <time>2019-09-10T14:55:58.900Z</time>
      </trkpt>
      <trkpt lat="10.1567006396235" lon="-75.6833963477369">
        <ele>52.3851891</ele>
        <time>2019-09-10T14:55:59.000Z</time>
      </trkpt>
      <trkpt lat="10.156702369474" lon="-75.6833985102285">
        <ele>52.3851891</ele>
        <time>2019-09-10T14:55:59.100Z</time>
      </trkpt>
      <trkpt lat="10.1567041137068" lon="-75.6834006736949">
        <ele>52.3851891</ele>
        <time>2019-09-10T14:55:59.200Z</time>
      </trkpt>
      <trkpt lat="10.156705833969" lon="-75.683402828806">
        <ele>52.3851891</ele>
        <time>2019-09-10T14:55:59.300Z</time>
      </trkpt>
      <trkpt lat="10.1567075421416" lon="-75.6834049631681">
        <ele>52.3851891</ele>
        <time>2019-09-10T14:55:59.400Z</time>
      </trkpt>
      <trkpt lat="10.1567092617785" lon="-75.6834070843009">
        <ele>52.3851891</ele>
        <time>2019-09-10T14:55:59.500Z</time>
      </trkpt>
      <trkpt lat="10.1567109853757" lon="-75.683409198471">
        <ele>52.3851891</ele>
        <time>2019-09-10T14:55:59.600Z</time>
      </trkpt>
      <trkpt lat="10.156712714184" lon="-75.683411329491">
        <ele>52.3851891</ele>
        <time>2019-09-10T14:55:59.700Z</time>
      </trkpt>
      <trkpt lat="10.1567144415332" lon="-75.683413461068">
        <ele>52.3851891</ele>
        <time>2019-09-10T14:55:59.800Z</time>
      </trkpt>
      <trkpt lat="10.1567178676751" lon="-75.6834176920541">
        <ele>52.4851891</ele>
        <time>2019-09-10T14:56:00.000Z</time>
      </trkpt>
      <trkpt lat="10.1567195641751" lon="-75.6834197948052">
        <ele>52.4851891</ele>
        <time>2019-09-10T14:56:00.100Z</time>
      </trkpt>
      <trkpt lat="10.1567212681788" lon="-75.6834218944928">
        <ele>52.4851891</ele>
        <time>2019-09-10T14:56:00.200Z</time>
      </trkpt>
      <trkpt lat="10.1567229892748" lon="-75.6834240107518">
        <ele>52.4851891</ele>
        <time>2019-09-10T14:56:00.300Z</time>
      </trkpt>
      <trkpt lat="10.1567247220434" lon="-75.6834261313276">
        <ele>52.4851891</ele>
        <time>2019-09-10T14:56:00.400Z</time>
      </trkpt>
      <trkpt lat="10.1567264664847" lon="-75.683428246194">
        <ele>52.4851891</ele>
        <time>2019-09-10T14:56:00.500Z</time>
      </trkpt>
      <trkpt lat="10.1567282115514" lon="-75.6834303553509">
        <ele>52.4851891</ele>
        <time>2019-09-10T14:56:00.600Z</time>
      </trkpt>
      <trkpt lat="10.1567299607868" lon="-75.6834324628367">
        <ele>52.4851891</ele>
        <time>2019-09-10T14:56:00.700Z</time>
      </trkpt>
      <trkpt lat="10.1567317052282" lon="-75.6834345697656">
        <ele>52.4851891</ele>
        <time>2019-09-10T14:56:00.800Z</time>
      </trkpt>
      <trkpt lat="10.1567334246566" lon="-75.6834366631867">
        <ele>52.3851891</ele>
        <time>2019-09-10T14:56:00.900Z</time>
      </trkpt>
      <trkpt lat="10.1567351382487" lon="-75.6834387534049">
        <ele>52.3851891</ele>
        <time>2019-09-10T14:56:01.000Z</time>
      </trkpt>
      <trkpt lat="10.1567368476719" lon="-75.6834408171647">
        <ele>52.3851891</ele>
        <time>2019-09-10T14:56:01.100Z</time>
      </trkpt>
      <trkpt lat="10.1567385606387" lon="-75.6834428827348">
        <ele>52.4851891</ele>
        <time>2019-09-10T14:56:01.200Z</time>
      </trkpt>
      <trkpt lat="10.1567402836106" lon="-75.6834449469123">
        <ele>52.4851891</ele>
        <time>2019-09-10T14:56:01.300Z</time>
      </trkpt>
      <trkpt lat="10.1567420186721" lon="-75.6834470223696">
        <ele>52.4851891</ele>
        <time>2019-09-10T14:56:01.400Z</time>
      </trkpt>
      <trkpt lat="10.1567437672822" lon="-75.683449075546">
        <ele>52.4851891</ele>
        <time>2019-09-10T14:56:01.500Z</time>
      </trkpt>
      <trkpt lat="10.1567455144333" lon="-75.6834511327608">
        <ele>52.4851891</ele>
        <time>2019-09-10T14:56:01.600Z</time>
      </trkpt>
      <trkpt lat="10.1567472584577" lon="-75.6834532298025">
        <ele>52.4851891</ele>
        <time>2019-09-10T14:56:01.700Z</time>
      </trkpt>
      <trkpt lat="10.1567489964374" lon="-75.6834553435548">
        <ele>52.4851891</ele>
        <time>2019-09-10T14:56:01.800Z</time>
      </trkpt>
      <trkpt lat="10.1567506850165" lon="-75.6834574156699">
        <ele>52.4851891</ele>
        <time>2019-09-10T14:56:01.900Z</time>
      </trkpt>
      <trkpt lat="10.1567523677594" lon="-75.6834594795689">
        <ele>52.4851891</ele>
        <time>2019-09-10T14:56:02.000Z</time>
      </trkpt>
      <trkpt lat="10.1567540240302" lon="-75.6834615482026">
        <ele>52.4851891</ele>
        <time>2019-09-10T14:56:02.100Z</time>
      </trkpt>
      <trkpt lat="10.1567556969763" lon="-75.6834636338255">
        <ele>52.4851891</ele>
        <time>2019-09-10T14:56:02.200Z</time>
      </trkpt>
      <trkpt lat="10.1567573772179" lon="-75.6834657272466">
        <ele>52.4851891</ele>
        <time>2019-09-10T14:56:02.300Z</time>
      </trkpt>
      <trkpt lat="10.1567590724672" lon="-75.6834678288837">
        <ele>52.4851891</ele>
        <time>2019-09-10T14:56:02.400Z</time>
      </trkpt>
      <trkpt lat="10.1567607518749" lon="-75.6834699340022">
        <ele>52.4851891</ele>
        <time>2019-09-10T14:56:02.500Z</time>
      </trkpt>
      <trkpt lat="10.1567624281561" lon="-75.683472038146">
        <ele>52.4851891</ele>
        <time>2019-09-10T14:56:02.600Z</time>
      </trkpt>
      <trkpt lat="10.1567640717121" lon="-75.6834741425682">
        <ele>52.4851891</ele>
        <time>2019-09-10T14:56:02.700Z</time>
      </trkpt>
      <trkpt lat="10.1567657225634" lon="-75.6834762464335">
        <ele>52.4851891</ele>
        <time>2019-09-10T14:56:02.800Z</time>
      </trkpt>
      <trkpt lat="10.1567673797723" lon="-75.6834783482099">
        <ele>52.4851891</ele>
        <time>2019-09-10T14:56:02.900Z</time>
      </trkpt>
      <trkpt lat="10.1567690605349" lon="-75.6834804495685">
        <ele>52.4851891</ele>
        <time>2019-09-10T14:56:03.000Z</time>
      </trkpt>
      <trkpt lat="10.1567707545336" lon="-75.6834825513449">
        <ele>52.4851891</ele>
        <time>2019-09-10T14:56:03.100Z</time>
      </trkpt>
      <trkpt lat="10.1567724660412" lon="-75.6834846540961">
        <ele>52.4851891</ele>
        <time>2019-09-10T14:56:03.200Z</time>
      </trkpt>
      <trkpt lat="10.1567741828641" lon="-75.6834867269075">
        <ele>52.4851891</ele>
        <time>2019-09-10T14:56:03.300Z</time>
      </trkpt>
      <trkpt lat="10.1567759063572" lon="-75.6834887995796">
        <ele>52.4851891</ele>
        <time>2019-09-10T14:56:03.400Z</time>
      </trkpt>
      <trkpt lat="10.156777648193" lon="-75.683490874062">
        <ele>52.4851891</ele>
        <time>2019-09-10T14:56:03.500Z</time>
      </trkpt>
      <trkpt lat="10.1567793974284" lon="-75.6834929612166">
        <ele>52.4851891</ele>
        <time>2019-09-10T14:56:03.600Z</time>
      </trkpt>
      <trkpt lat="10.1567811441626" lon="-75.6834950539414">
        <ele>52.4851891</ele>
        <time>2019-09-10T14:56:03.700Z</time>
      </trkpt>
      <trkpt lat="10.1567828896461" lon="-75.6834971553001">
        <ele>52.4851891</ele>
        <time>2019-09-10T14:56:03.800Z</time>
      </trkpt>
      <trkpt lat="10.1567846376309" lon="-75.6834992577728">
        <ele>52.4851891</ele>
        <time>2019-09-10T14:56:03.900Z</time>
      </trkpt>
      <trkpt lat="10.1567881121312" lon="-75.6835034673136">
        <ele>52.4851891</ele>
        <time>2019-09-10T14:56:04.100Z</time>
      </trkpt>
      <trkpt lat="10.1567898346862" lon="-75.6835055709003">
        <ele>52.4851891</ele>
        <time>2019-09-10T14:56:04.200Z</time>
      </trkpt>
      <trkpt lat="10.1567916015349" lon="-75.6835077005277">
        <ele>52.4851891</ele>
        <time>2019-09-10T14:56:04.300Z</time>
      </trkpt>
      <trkpt lat="10.1567933843293" lon="-75.6835098353075">
        <ele>52.4851891</ele>
        <time>2019-09-10T14:56:04.400Z</time>
      </trkpt>
      <trkpt lat="10.1567951603494" lon="-75.6835119926467">
        <ele>52.4851891</ele>
        <time>2019-09-10T14:56:04.500Z</time>
      </trkpt>
      <trkpt lat="10.1567969199027" lon="-75.6835141428839">
        <ele>52.4851891</ele>
        <time>2019-09-10T14:56:04.600Z</time>
      </trkpt>
      <trkpt lat="10.1567986702846" lon="-75.6835163088569">
        <ele>52.4851891</ele>
        <time>2019-09-10T14:56:04.700Z</time>
      </trkpt>
      <trkpt lat="10.1568004095149" lon="-75.6835184660568">
        <ele>52.4851891</ele>
        <time>2019-09-10T14:56:04.800Z</time>
      </trkpt>
      <trkpt lat="10.1568021655247" lon="-75.6835206118378">
        <ele>52.4851891</ele>
        <time>2019-09-10T14:56:04.900Z</time>
      </trkpt>
      <trkpt lat="10.1568039224725" lon="-75.6835227449466">
        <ele>52.4851891</ele>
        <time>2019-09-10T14:56:05.000Z</time>
      </trkpt>
      <trkpt lat="10.1568056803582" lon="-75.6835248642691">
        <ele>52.4851891</ele>
        <time>2019-09-10T14:56:05.100Z</time>
      </trkpt>
      <trkpt lat="10.156807432095" lon="-75.6835269809458">
        <ele>52.4851891</ele>
        <time>2019-09-10T14:56:05.200Z</time>
      </trkpt>
      <trkpt lat="10.1568091601737" lon="-75.6835290789623">
        <ele>52.4851891</ele>
        <time>2019-09-10T14:56:05.300Z</time>
      </trkpt>
      <trkpt lat="10.1568108897115" lon="-75.6835311733582">
        <ele>52.4851891</ele>
        <time>2019-09-10T14:56:05.400Z</time>
      </trkpt>
      <trkpt lat="10.1568126511407" lon="-75.6835332439415">
        <ele>52.4851891</ele>
        <time>2019-09-10T14:56:05.500Z</time>
      </trkpt>
      <trkpt lat="10.1568144259102" lon="-75.6835353181454">
        <ele>52.4851891</ele>
        <time>2019-09-10T14:56:05.600Z</time>
      </trkpt>
      <trkpt lat="10.1568161943222" lon="-75.6835373846903">
        <ele>52.4851891</ele>
        <time>2019-09-10T14:56:05.700Z</time>
      </trkpt>
      <trkpt lat="10.1568179526248" lon="-75.6835394581979">
        <ele>52.4851891</ele>
        <time>2019-09-10T14:56:05.800Z</time>
      </trkpt>
      <trkpt lat="10.1568196931058" lon="-75.6835415110958">
        <ele>52.4851891</ele>
        <time>2019-09-10T14:56:05.900Z</time>
      </trkpt>
      <trkpt lat="10.1568214300432" lon="-75.6835435695639">
        <ele>52.4851891</ele>
        <time>2019-09-10T14:56:06.000Z</time>
      </trkpt>
      <trkpt lat="10.1568231572882" lon="-75.6835456310956">
        <ele>52.4851891</ele>
        <time>2019-09-10T14:56:06.100Z</time>
      </trkpt>
      <trkpt lat="10.1568248932876" lon="-75.6835477047425">
        <ele>52.4851891</ele>
        <time>2019-09-10T14:56:06.200Z</time>
      </trkpt>
      <trkpt lat="10.1568266251183" lon="-75.6835497875802">
        <ele>52.4851891</ele>
        <time>2019-09-10T14:56:06.300Z</time>
      </trkpt>
      <trkpt lat="10.1568283603882" lon="-75.6835518725067">
        <ele>52.4851891</ele>
        <time>2019-09-10T14:56:06.400Z</time>
      </trkpt>
      <trkpt lat="10.1568300933653" lon="-75.6835539369628">
        <ele>52.4851891</ele>
        <time>2019-09-10T14:56:06.500Z</time>
      </trkpt>
      <trkpt lat="10.1568318274888" lon="-75.6835559989123">
        <ele>52.4851891</ele>
        <time>2019-09-10T14:56:06.600Z</time>
      </trkpt>
      <trkpt lat="10.156833556297" lon="-75.683558049025">
        <ele>52.4851891</ele>
        <time>2019-09-10T14:56:06.700Z</time>
      </trkpt>
      <trkpt lat="10.1568352898994" lon="-75.6835601049865">
        <ele>52.4851891</ele>
        <time>2019-09-10T14:56:06.800Z</time>
      </trkpt>
      <trkpt lat="10.1568370492443" lon="-75.683562201889">
        <ele>52.4851891</ele>
        <time>2019-09-10T14:56:06.900Z</time>
      </trkpt>
      <trkpt lat="10.1568388141128" lon="-75.6835643097926">
        <ele>52.4851891</ele>
        <time>2019-09-10T14:56:07.000Z</time>
      </trkpt>
      <trkpt lat="10.1568405535515" lon="-75.6835664043278">
        <ele>52.4851891</ele>
        <time>2019-09-10T14:56:07.100Z</time>
      </trkpt>
      <trkpt lat="10.1568422838189" lon="-75.6835684910646">
        <ele>52.4851891</ele>
        <time>2019-09-10T14:56:07.200Z</time>
      </trkpt>
      <trkpt lat="10.1568440028304" lon="-75.6835705931196">
        <ele>52.4851891</ele>
        <time>2019-09-10T14:56:07.300Z</time>
      </trkpt>
      <trkpt lat="10.156845720904" lon="-75.6835726978203">
        <ele>52.3851891</ele>
        <time>2019-09-10T14:56:07.400Z</time>
      </trkpt>
      <trkpt lat="10.1568474386649" lon="-75.6835748044707">
        <ele>52.3851891</ele>
        <time>2019-09-10T14:56:07.500Z</time>
      </trkpt>
      <trkpt lat="10.1568491642423" lon="-75.6835769030442">
        <ele>52.3851891</ele>
        <time>2019-09-10T14:56:07.600Z</time>
      </trkpt>
      <trkpt lat="10.1568509001375" lon="-75.6835790046813">
        <ele>52.3851891</ele>
        <time>2019-09-10T14:56:07.700Z</time>
      </trkpt>
      <trkpt lat="10.1568526423902" lon="-75.6835811031156">
        <ele>52.3851891</ele>
        <time>2019-09-10T14:56:07.800Z</time>
      </trkpt>
      <trkpt lat="10.1568543864147" lon="-75.6835832111585">
        <ele>52.3851891</ele>
        <time>2019-09-10T14:56:07.900Z</time>
      </trkpt>
      <trkpt lat="10.1568561332531" lon="-75.6835853242146">
        <ele>52.3851891</ele>
        <time>2019-09-10T14:56:08.000Z</time>
      </trkpt>
      <trkpt lat="10.1568578834265" lon="-75.6835874436764">
        <ele>52.3851891</ele>
        <time>2019-09-10T14:56:08.100Z</time>
      </trkpt>
      <trkpt lat="10.1568596333915" lon="-75.6835895664803">
        <ele>52.3851891</ele>
        <time>2019-09-10T14:56:08.200Z</time>
      </trkpt>
      <trkpt lat="10.1568614045132" lon="-75.6835916940189">
        <ele>52.3851891</ele>
        <time>2019-09-10T14:56:08.300Z</time>
      </trkpt>
      <trkpt lat="10.1568631734464" lon="-75.6835938211397">
        <ele>52.3851891</ele>
        <time>2019-09-10T14:56:08.400Z</time>
      </trkpt>
      <trkpt lat="10.1568649304984" lon="-75.6835959365631">
        <ele>52.3851891</ele>
        <time>2019-09-10T14:56:08.500Z</time>
      </trkpt>
      <trkpt lat="10.1568684105223" lon="-75.683600161979">
        <ele>52.4851891</ele>
        <time>2019-09-10T14:56:08.700Z</time>
      </trkpt>
      <trkpt lat="10.1568701440204" lon="-75.6836022772631">
        <ele>52.4851891</ele>
        <time>2019-09-10T14:56:08.800Z</time>
      </trkpt>
      <trkpt lat="10.1568718781439" lon="-75.6836043812676">
        <ele>52.4851891</ele>
        <time>2019-09-10T14:56:08.900Z</time>
      </trkpt>
      <trkpt lat="10.156873612997" lon="-75.6836064797019">
        <ele>52.4851891</ele>
        <time>2019-09-10T14:56:09.000Z</time>
      </trkpt>
      <trkpt lat="10.15687532513" lon="-75.6836085739585">
        <ele>52.4851891</ele>
        <time>2019-09-10T14:56:09.100Z</time>
      </trkpt>
      <trkpt lat="10.1568770350743" lon="-75.6836106683544">
        <ele>52.4851891</ele>
        <time>2019-09-10T14:56:09.200Z</time>
      </trkpt>
      <trkpt lat="10.1568787500213" lon="-75.6836127878162">
        <ele>52.4851891</ele>
        <time>2019-09-10T14:56:09.300Z</time>
      </trkpt>
      <trkpt lat="10.1568804751818" lon="-75.6836149118734">
        <ele>52.4851891</ele>
        <time>2019-09-10T14:56:09.400Z</time>
      </trkpt>
      <trkpt lat="10.1568822284819" lon="-75.6836170630854">
        <ele>52.4851891</ele>
        <time>2019-09-10T14:56:09.500Z</time>
      </trkpt>
      <trkpt lat="10.1568839879309" lon="-75.6836192046887">
        <ele>52.4851891</ele>
        <time>2019-09-10T14:56:09.600Z</time>
      </trkpt>
      <trkpt lat="10.1568856965204" lon="-75.683621282931">
        <ele>52.4851891</ele>
        <time>2019-09-10T14:56:09.700Z</time>
      </trkpt>
      <trkpt lat="10.1568873912486" lon="-75.6836233387533">
        <ele>52.4851891</ele>
        <time>2019-09-10T14:56:09.800Z</time>
      </trkpt>
      <trkpt lat="10.1568891086968" lon="-75.6836254211732">
        <ele>52.4851891</ele>
        <time>2019-09-10T14:56:09.900Z</time>
      </trkpt>
      <trkpt lat="10.1568908435499" lon="-75.6836275214178">
        <ele>52.4851891</ele>
        <time>2019-09-10T14:56:10.000Z</time>
      </trkpt>
      <trkpt lat="10.156892588825" lon="-75.6836296283467">
        <ele>52.4851891</ele>
        <time>2019-09-10T14:56:10.100Z</time>
      </trkpt>
      <trkpt lat="10.1568943306608" lon="-75.6836317386176">
        <ele>52.4851891</ele>
        <time>2019-09-10T14:56:10.200Z</time>
      </trkpt>
      <trkpt lat="10.1568960761443" lon="-75.6836338235442">
        <ele>52.4851891</ele>
        <time>2019-09-10T14:56:10.300Z</time>
      </trkpt>
      <trkpt lat="10.1568978176674" lon="-75.6836359051286">
        <ele>52.4851891</ele>
        <time>2019-09-10T14:56:10.400Z</time>
      </trkpt>
      <trkpt lat="10.1568995587737" lon="-75.6836379557984">
        <ele>52.4851891</ele>
        <time>2019-09-10T14:56:10.500Z</time>
      </trkpt>
      <trkpt lat="10.1569012973787" lon="-75.6836400173301">
        <ele>52.4851891</ele>
        <time>2019-09-10T14:56:10.600Z</time>
      </trkpt>
      <trkpt lat="10.1569030376512" lon="-75.6836420543529">
        <ele>52.4851891</ele>
        <time>2019-09-10T14:56:10.700Z</time>
      </trkpt>
      <trkpt lat="10.1569047738591" lon="-75.6836441033517">
        <ele>52.3851891</ele>
        <time>2019-09-10T14:56:10.800Z</time>
      </trkpt>
      <trkpt lat="10.1569064918284" lon="-75.6836461375894">
        <ele>52.3851891</ele>
        <time>2019-09-10T14:56:10.900Z</time>
      </trkpt>
      <trkpt lat="10.1569082071922" lon="-75.6836481879807">
        <ele>52.3851891</ele>
        <time>2019-09-10T14:56:11.000Z</time>
      </trkpt>
      <trkpt lat="10.1569099515293" lon="-75.68365027987">
        <ele>52.3851891</ele>
        <time>2019-09-10T14:56:11.100Z</time>
      </trkpt>
      <trkpt lat="10.1569117063927" lon="-75.6836523993318">
        <ele>52.3851891</ele>
        <time>2019-09-10T14:56:11.200Z</time>
      </trkpt>
      <trkpt lat="10.1569134662587" lon="-75.683654558342">
        <ele>52.3851891</ele>
        <time>2019-09-10T14:56:11.300Z</time>
      </trkpt>
      <trkpt lat="10.1569152162237" lon="-75.6836567226439">
        <ele>52.3851891</ele>
        <time>2019-09-10T14:56:11.400Z</time>
      </trkpt>
      <trkpt lat="10.1569169635831" lon="-75.6836588891739">
        <ele>52.3851891</ele>
        <time>2019-09-10T14:56:11.500Z</time>
      </trkpt>
      <trkpt lat="10.1569187063569" lon="-75.6836610406644">
        <ele>52.3851891</ele>
        <time>2019-09-10T14:56:11.600Z</time>
      </trkpt>
      <trkpt lat="10.1569204567388" lon="-75.6836631991176">
        <ele>52.3851891</ele>
        <time>2019-09-10T14:56:11.700Z</time>
      </trkpt>
      <trkpt lat="10.156922207746" lon="-75.6836653475444">
        <ele>52.3851891</ele>
        <time>2019-09-10T14:56:11.800Z</time>
      </trkpt>
      <trkpt lat="10.1569239492692" lon="-75.6836675090613">
        <ele>52.3851891</ele>
        <time>2019-09-10T14:56:11.900Z</time>
      </trkpt>
      <trkpt lat="10.1569256845391" lon="-75.6836696655649">
        <ele>52.3851891</ele>
        <time>2019-09-10T14:56:12.000Z</time>
      </trkpt>
      <trkpt lat="10.1569274139727" lon="-75.6836718329304">
        <ele>52.3851891</ele>
        <time>2019-09-10T14:56:12.100Z</time>
      </trkpt>
      <trkpt lat="10.1569291411134" lon="-75.6836739938902">
        <ele>52.3851891</ele>
        <time>2019-09-10T14:56:12.200Z</time>
      </trkpt>
      <trkpt lat="10.156930872423" lon="-75.6836761250494">
        <ele>52.3851891</ele>
        <time>2019-09-10T14:56:12.300Z</time>
      </trkpt>
      <trkpt lat="10.1569326052958" lon="-75.6836782470178">
        <ele>52.3851891</ele>
        <time>2019-09-10T14:56:12.400Z</time>
      </trkpt>
      <trkpt lat="10.1569343442134" lon="-75.6836803375146">
        <ele>52.3851891</ele>
        <time>2019-09-10T14:56:12.500Z</time>
      </trkpt>
      <trkpt lat="10.1569360858408" lon="-75.6836824344171">
        <ele>52.3851891</ele>
        <time>2019-09-10T14:56:12.600Z</time>
      </trkpt>
      <trkpt lat="10.1569378533148" lon="-75.6836845324336">
        <ele>52.3851891</ele>
        <time>2019-09-10T14:56:12.700Z</time>
      </trkpt>
      <trkpt lat="10.156939615161" lon="-75.6836866502243">
        <ele>52.3851891</ele>
        <time>2019-09-10T14:56:12.800Z</time>
      </trkpt>
      <trkpt lat="10.1569413805506" lon="-75.6836887504689">
        <ele>52.3851891</ele>
        <time>2019-09-10T14:56:12.900Z</time>
      </trkpt>
      <trkpt lat="10.156944887776" lon="-75.6836929356401">
        <ele>52.3851891</ele>
        <time>2019-09-10T14:56:13.100Z</time>
      </trkpt>
      <trkpt lat="10.156946634406" lon="-75.6836950269723">
        <ele>52.3851891</ele>
        <time>2019-09-10T14:56:13.200Z</time>
      </trkpt>
      <trkpt lat="10.1569483786389" lon="-75.6836971107848">
        <ele>52.3851891</ele>
        <time>2019-09-10T14:56:13.300Z</time>
      </trkpt>
      <trkpt lat="10.156950118286" lon="-75.6836992035097">
        <ele>52.3851891</ele>
        <time>2019-09-10T14:56:13.400Z</time>
      </trkpt>
      <trkpt lat="10.1569518345878" lon="-75.6837012664339">
        <ele>52.3851891</ele>
        <time>2019-09-10T14:56:13.500Z</time>
      </trkpt>
      <trkpt lat="10.156953548701" lon="-75.6837033301937">
        <ele>52.3851891</ele>
        <time>2019-09-10T14:56:13.600Z</time>
      </trkpt>
      <trkpt lat="10.1569552614593" lon="-75.6837053688876">
        <ele>52.3851891</ele>
        <time>2019-09-10T14:56:13.700Z</time>
      </trkpt>
      <trkpt lat="10.1569569816173" lon="-75.683707422621">
        <ele>52.3851891</ele>
        <time>2019-09-10T14:56:13.800Z</time>
      </trkpt>
      <trkpt lat="10.1569587042766" lon="-75.6837095106111">
        <ele>52.3851891</ele>
        <time>2019-09-10T14:56:13.900Z</time>
      </trkpt>
      <trkpt lat="10.1569604305835" lon="-75.6837116211606">
        <ele>52.3851891</ele>
        <time>2019-09-10T14:56:14.000Z</time>
      </trkpt>
      <trkpt lat="10.1569620995693" lon="-75.6837137102648">
        <ele>52.3851891</ele>
        <time>2019-09-10T14:56:14.100Z</time>
      </trkpt>
      <trkpt lat="10.156963755319" lon="-75.6837157873931">
        <ele>52.3851891</ele>
        <time>2019-09-10T14:56:14.200Z</time>
      </trkpt>
      <trkpt lat="10.1569654593228" lon="-75.6837179750898">
        <ele>52.3851891</ele>
        <time>2019-09-10T14:56:14.300Z</time>
      </trkpt>
      <trkpt lat="10.1569672048063" lon="-75.6837201789402">
        <ele>52.3851891</ele>
        <time>2019-09-10T14:56:14.400Z</time>
      </trkpt>
      <trkpt lat="10.1569689669651" lon="-75.6837223797269">
        <ele>52.4851891</ele>
        <time>2019-09-10T14:56:14.500Z</time>
      </trkpt>
      <trkpt lat="10.1569707255804" lon="-75.6837245379016">
        <ele>52.4851891</ele>
        <time>2019-09-10T14:56:14.600Z</time>
      </trkpt>
      <trkpt lat="10.1569725200475" lon="-75.6837267108374">
        <ele>52.4851891</ele>
        <time>2019-09-10T14:56:14.700Z</time>
      </trkpt>
      <trkpt lat="10.1569743103458" lon="-75.6837288612138">
        <ele>52.4851891</ele>
        <time>2019-09-10T14:56:14.800Z</time>
      </trkpt>
      <trkpt lat="10.1569760498888" lon="-75.6837309324933">
        <ele>52.4851891</ele>
        <time>2019-09-10T14:56:14.900Z</time>
      </trkpt>
      <trkpt lat="10.1569777690046" lon="-75.6837329750864">
        <ele>52.4851891</ele>
        <time>2019-09-10T14:56:15.000Z</time>
      </trkpt>
      <trkpt lat="10.1569794776983" lon="-75.6837349864862">
        <ele>52.4851891</ele>
        <time>2019-09-10T14:56:15.100Z</time>
      </trkpt>
      <trkpt lat="10.1569811980647" lon="-75.6837370118116">
        <ele>52.4851891</ele>
        <time>2019-09-10T14:56:15.200Z</time>
      </trkpt>
      <trkpt lat="10.1569829132201" lon="-75.6837390162488">
        <ele>52.4851891</ele>
        <time>2019-09-10T14:56:15.300Z</time>
      </trkpt>
      <trkpt lat="10.1569846390059" lon="-75.6837410460303">
        <ele>52.4851891</ele>
        <time>2019-09-10T14:56:15.400Z</time>
      </trkpt>
      <trkpt lat="10.1569863411338" lon="-75.6837430426691">
        <ele>52.4851891</ele>
        <time>2019-09-10T14:56:15.500Z</time>
      </trkpt>
      <trkpt lat="10.1569880460755" lon="-75.6837450510054">
        <ele>52.4851891</ele>
        <time>2019-09-10T14:56:15.600Z</time>
      </trkpt>
      <trkpt lat="10.1569897528933" lon="-75.6837470590632">
        <ele>52.4851891</ele>
        <time>2019-09-10T14:56:15.700Z</time>
      </trkpt>
      <trkpt lat="10.1569914707584" lon="-75.6837490944149">
        <ele>52.4851891</ele>
        <time>2019-09-10T14:56:15.800Z</time>
      </trkpt>
      <trkpt lat="10.1569931649655" lon="-75.6837511058148">
        <ele>52.4851891</ele>
        <time>2019-09-10T14:56:15.900Z</time>
      </trkpt>
      <trkpt lat="10.1569948617781" lon="-75.6837531291906">
        <ele>52.4851891</ele>
        <time>2019-09-10T14:56:16.000Z</time>
      </trkpt>
      <trkpt lat="10.1569965380592" lon="-75.6837551525664">
        <ele>52.4851891</ele>
        <time>2019-09-10T14:56:16.100Z</time>
      </trkpt>
      <trkpt lat="10.1569982227823" lon="-75.6837571996156">
        <ele>52.4851891</ele>
        <time>2019-09-10T14:56:16.200Z</time>
      </trkpt>
      <trkpt lat="10.1569998922891" lon="-75.6837592461078">
        <ele>52.4851891</ele>
        <time>2019-09-10T14:56:16.300Z</time>
      </trkpt>
      <trkpt lat="10.1570015769079" lon="-75.6837613065254">
        <ele>52.4851891</ele>
        <time>2019-09-10T14:56:16.400Z</time>
      </trkpt>
      <trkpt lat="10.1570032549608" lon="-75.6837633633225">
        <ele>52.4851891</ele>
        <time>2019-09-10T14:56:16.500Z</time>
      </trkpt>
      <trkpt lat="10.1570049456244" lon="-75.6837654290318">
        <ele>52.4851891</ele>
        <time>2019-09-10T14:56:16.600Z</time>
      </trkpt>
      <trkpt lat="10.157006654735" lon="-75.6837674571423">
        <ele>52.4851891</ele>
        <time>2019-09-10T14:56:16.700Z</time>
      </trkpt>
      <trkpt lat="10.1570083797913" lon="-75.6837694880379">
        <ele>52.4851891</ele>
        <time>2019-09-10T14:56:16.800Z</time>
      </trkpt>
      <trkpt lat="10.1570100932792" lon="-75.6837715375936">
        <ele>52.4851891</ele>
        <time>2019-09-10T14:56:16.900Z</time>
      </trkpt>
      <trkpt lat="10.1570118055164" lon="-75.6837736097087">
        <ele>52.4851891</ele>
        <time>2019-09-10T14:56:17.000Z</time>
      </trkpt>
      <trkpt lat="10.1570135284883" lon="-75.683775674304">
        <ele>52.4851891</ele>
        <time>2019-09-10T14:56:17.100Z</time>
      </trkpt>
      <trkpt lat="10.157017012681" lon="-75.6837798319027">
        <ele>52.4851891</ele>
        <time>2019-09-10T14:56:17.300Z</time>
      </trkpt>
      <trkpt lat="10.1570187752567" lon="-75.6837819301977">
        <ele>52.4851891</ele>
        <time>2019-09-10T14:56:17.400Z</time>
      </trkpt>
      <trkpt lat="10.1570204931218" lon="-75.6837840173523">
        <ele>52.4851891</ele>
        <time>2019-09-10T14:56:17.500Z</time>
      </trkpt>
      <trkpt lat="10.1570221950412" lon="-75.6837861011649">
        <ele>52.4851891</ele>
        <time>2019-09-10T14:56:17.600Z</time>
      </trkpt>
      <trkpt lat="10.1570239048813" lon="-75.683788161861">
        <ele>52.4851891</ele>
        <time>2019-09-10T14:56:17.700Z</time>
      </trkpt>
      <trkpt lat="10.1570256278533" lon="-75.6837902281274">
        <ele>52.4851891</ele>
        <time>2019-09-10T14:56:17.800Z</time>
      </trkpt>
      <trkpt lat="10.1570273609345" lon="-75.6837922974574">
        <ele>52.4851891</ele>
        <time>2019-09-10T14:56:17.900Z</time>
      </trkpt>
      <trkpt lat="10.1570290983931" lon="-75.6837943804343">
        <ele>52.4851891</ele>
        <time>2019-09-10T14:56:18.000Z</time>
      </trkpt>
      <trkpt lat="10.1570308424175" lon="-75.6837964428016">
        <ele>52.4851891</ele>
        <time>2019-09-10T14:56:18.100Z</time>
      </trkpt>
      <trkpt lat="10.1570325902981" lon="-75.6837985009911">
        <ele>52.4851891</ele>
        <time>2019-09-10T14:56:18.200Z</time>
      </trkpt>
      <trkpt lat="10.1570343177515" lon="-75.6838005341148">
        <ele>52.4851891</ele>
        <time>2019-09-10T14:56:18.300Z</time>
      </trkpt>
      <trkpt lat="10.1570360390559" lon="-75.6838025775434">
        <ele>52.4851891</ele>
        <time>2019-09-10T14:56:18.400Z</time>
      </trkpt>
      <trkpt lat="10.157037760673" lon="-75.6838046348974">
        <ele>52.4851891</ele>
        <time>2019-09-10T14:56:18.500Z</time>
      </trkpt>
      <trkpt lat="10.15703949365" lon="-75.6838067136967">
        <ele>52.4851891</ele>
        <time>2019-09-10T14:56:18.600Z</time>
      </trkpt>
      <trkpt lat="10.1570412230836" lon="-75.6838088103207">
        <ele>52.4851891</ele>
        <time>2019-09-10T14:56:18.700Z</time>
      </trkpt>
      <trkpt lat="10.1570429587704" lon="-75.6838109133504">
        <ele>52.4851891</ele>
        <time>2019-09-10T14:56:18.800Z</time>
      </trkpt>
      <trkpt lat="10.1570447253065" lon="-75.6838130183297">
        <ele>52.4851891</ele>
        <time>2019-09-10T14:56:18.900Z</time>
      </trkpt>
      <trkpt lat="10.1570464989295" lon="-75.6838151235875">
        <ele>52.4851891</ele>
        <time>2019-09-10T14:56:19.000Z</time>
      </trkpt>
      <trkpt lat="10.1570482709892" lon="-75.6838172600384">
        <ele>52.4851891</ele>
        <time>2019-09-10T14:56:19.100Z</time>
      </trkpt>
      <trkpt lat="10.157050033148" lon="-75.6838193973248">
        <ele>52.4851891</ele>
        <time>2019-09-10T14:56:19.200Z</time>
      </trkpt>
      <trkpt lat="10.1570518143791" lon="-75.6838215911488">
        <ele>52.4851891</ele>
        <time>2019-09-10T14:56:19.300Z</time>
      </trkpt>
      <trkpt lat="10.1570535968609" lon="-75.6838237802381">
        <ele>52.4851891</ele>
        <time>2019-09-10T14:56:19.400Z</time>
      </trkpt>
      <trkpt lat="10.1570553687122" lon="-75.6838259846455">
        <ele>52.4851891</ele>
        <time>2019-09-10T14:56:19.500Z</time>
      </trkpt>
      <trkpt lat="10.1570571311837" lon="-75.683828165101">
        <ele>52.4851891</ele>
        <time>2019-09-10T14:56:19.600Z</time>
      </trkpt>
      <trkpt lat="10.1570589026181" lon="-75.6838303853834">
        <ele>52.4851891</ele>
        <time>2019-09-10T14:56:19.700Z</time>
      </trkpt>
      <trkpt lat="10.1570606740525" lon="-75.6838325881198">
        <ele>52.3851891</ele>
        <time>2019-09-10T14:56:19.800Z</time>
      </trkpt>
      <trkpt lat="10.157062452157" lon="-75.6838348265054">
        <ele>52.3851891</ele>
        <time>2019-09-10T14:56:19.900Z</time>
      </trkpt>
      <trkpt lat="10.1570642254674" lon="-75.683837036483">
        <ele>52.3851891</ele>
        <time>2019-09-10T14:56:20.000Z</time>
      </trkpt>
      <trkpt lat="10.1570659613626" lon="-75.683839177947">
        <ele>52.3851891</ele>
        <time>2019-09-10T14:56:20.100Z</time>
      </trkpt>
      <trkpt lat="10.1570676844387" lon="-75.6838412862684">
        <ele>52.3851891</ele>
        <time>2019-09-10T14:56:20.200Z</time>
      </trkpt>
      <trkpt lat="10.1570694218973" lon="-75.6838433867916">
        <ele>52.3851891</ele>
        <time>2019-09-10T14:56:20.300Z</time>
      </trkpt>
      <trkpt lat="10.1570711714454" lon="-75.6838454970625">
        <ele>52.3851891</ele>
        <time>2019-09-10T14:56:20.400Z</time>
      </trkpt>
      <trkpt lat="10.1570729142192" lon="-75.6838475844957">
        <ele>52.3851891</ele>
        <time>2019-09-10T14:56:20.500Z</time>
      </trkpt>
      <trkpt lat="10.1570746606407" lon="-75.6838496761064">
        <ele>52.3851891</ele>
        <time>2019-09-10T14:56:20.600Z</time>
      </trkpt>
      <trkpt lat="10.1570764018512" lon="-75.6838517813642">
        <ele>52.3851891</ele>
        <time>2019-09-10T14:56:20.700Z</time>
      </trkpt>
      <trkpt lat="10.1570781443123" lon="-75.6838538983194">
        <ele>52.3851891</ele>
        <time>2019-09-10T14:56:20.800Z</time>
      </trkpt>
      <trkpt lat="10.1570798815624" lon="-75.6838560113755">
        <ele>52.3851891</ele>
        <time>2019-09-10T14:56:20.900Z</time>
      </trkpt>
      <trkpt lat="10.157081617145" lon="-75.6838581202539">
        <ele>52.3851891</ele>
        <time>2019-09-10T14:56:21.000Z</time>
      </trkpt>
      <trkpt lat="10.1570833756561" lon="-75.6838602266257">
        <ele>52.3851891</ele>
        <time>2019-09-10T14:56:21.100Z</time>
      </trkpt>
      <trkpt lat="10.1570868976808" lon="-75.6838644588651">
        <ele>52.3851891</ele>
        <time>2019-09-10T14:56:21.300Z</time>
      </trkpt>
      <trkpt lat="10.1570903851044" lon="-75.6838687250827">
        <ele>52.3851891</ele>
        <time>2019-09-10T14:56:21.500Z</time>
      </trkpt>
      <trkpt lat="10.1570921228756" lon="-75.6838708478866">
        <ele>52.3851891</ele>
        <time>2019-09-10T14:56:21.600Z</time>
      </trkpt>
      <trkpt lat="10.157093857416" lon="-75.683872984616">
        <ele>52.3851891</ele>
        <time>2019-09-10T14:56:21.700Z</time>
      </trkpt>
      <trkpt lat="10.1570955894551" lon="-75.6838751213454">
        <ele>52.3851891</ele>
        <time>2019-09-10T14:56:21.800Z</time>
      </trkpt>
      <trkpt lat="10.1570973181591" lon="-75.683877275621">
        <ele>52.3851891</ele>
        <time>2019-09-10T14:56:21.900Z</time>
      </trkpt>
      <trkpt lat="10.1570990456125" lon="-75.6838794276685">
        <ele>52.3851891</ele>
        <time>2019-09-10T14:56:22.000Z</time>
      </trkpt>
      <trkpt lat="10.1571007772347" lon="-75.683881567183">
        <ele>52.3851891</ele>
        <time>2019-09-10T14:56:22.100Z</time>
      </trkpt>
      <trkpt lat="10.1571025111498" lon="-75.683883693329">
        <ele>52.3851891</ele>
        <time>2019-09-10T14:56:22.200Z</time>
      </trkpt>
      <trkpt lat="10.1571042517349" lon="-75.6838858272734">
        <ele>52.3851891</ele>
        <time>2019-09-10T14:56:22.300Z</time>
      </trkpt>
      <trkpt lat="10.157105957302" lon="-75.6838879272395">
        <ele>52.3851891</ele>
        <time>2019-09-10T14:56:22.400Z</time>
      </trkpt>
      <trkpt lat="10.1571076614101" lon="-75.6838899453236">
        <ele>52.3851891</ele>
        <time>2019-09-10T14:56:22.500Z</time>
      </trkpt>
      <trkpt lat="10.1571093556171" lon="-75.6838917988082">
        <ele>52.3851891</ele>
        <time>2019-09-10T14:56:22.600Z</time>
      </trkpt>
      <trkpt lat="10.1571110221016" lon="-75.6838933601358">
        <ele>52.3851891</ele>
        <time>2019-09-10T14:56:22.700Z</time>
      </trkpt>
      <trkpt lat="10.1571126768091" lon="-75.6838946588284">
        <ele>52.3851891</ele>
        <time>2019-09-10T14:56:22.800Z</time>
      </trkpt>
      <trkpt lat="10.157114369974" lon="-75.6838955974074">
        <ele>52.3851891</ele>
        <time>2019-09-10T14:56:22.900Z</time>
      </trkpt>
      <trkpt lat="10.1571160816901" lon="-75.683896263882">
        <ele>52.3851891</ele>
        <time>2019-09-10T14:56:23.000Z</time>
      </trkpt>
      <trkpt lat="10.1571178270694" lon="-75.6838965474053">
        <ele>52.3851891</ele>
        <time>2019-09-10T14:56:23.100Z</time>
      </trkpt>
      <trkpt lat="10.1571195856847" lon="-75.6838965696861">
        <ele>52.3851891</ele>
        <time>2019-09-10T14:56:23.200Z</time>
      </trkpt>
      <trkpt lat="10.1571214165248" lon="-75.6838962338029">
        <ele>52.3851891</ele>
        <time>2019-09-10T14:56:23.300Z</time>
      </trkpt>
      <trkpt lat="10.1571232641443" lon="-75.6838956422475">
        <ele>52.3851891</ele>
        <time>2019-09-10T14:56:23.400Z</time>
      </trkpt>
      <trkpt lat="10.1571270978923" lon="-75.6838934723754">
        <ele>52.3851891</ele>
        <time>2019-09-10T14:56:23.600Z</time>
      </trkpt>
      <trkpt lat="10.1571291367563" lon="-75.6838918717779">
        <ele>52.3851891</ele>
        <time>2019-09-10T14:56:23.700Z</time>
      </trkpt>
      <trkpt lat="10.1571311536298" lon="-75.6838900274841">
        <ele>52.3851891</ele>
        <time>2019-09-10T14:56:23.800Z</time>
      </trkpt>
      <trkpt lat="10.1571332244894" lon="-75.6838880213759">
        <ele>52.3851891</ele>
        <time>2019-09-10T14:56:23.900Z</time>
      </trkpt>
      <trkpt lat="10.1571352452191" lon="-75.6838859219668">
        <ele>52.3851891</ele>
        <time>2019-09-10T14:56:24.000Z</time>
      </trkpt>
      <trkpt lat="10.1571373526601" lon="-75.6838837713119">
        <ele>52.3851891</ele>
        <time>2019-09-10T14:56:24.100Z</time>
      </trkpt>
      <trkpt lat="10.1571394119513" lon="-75.6838815621698">
        <ele>52.3851891</ele>
        <time>2019-09-10T14:56:24.200Z</time>
      </trkpt>
      <trkpt lat="10.1571414619669" lon="-75.6838794259974">
        <ele>52.3851891</ele>
        <time>2019-09-10T14:56:24.300Z</time>
      </trkpt>
      <trkpt lat="10.1571434458025" lon="-75.6838772594674">
        <ele>52.3851891</ele>
        <time>2019-09-10T14:56:24.400Z</time>
      </trkpt>
      <trkpt lat="10.1571454449585" lon="-75.6838751427907">
        <ele>52.3851891</ele>
        <time>2019-09-10T14:56:24.500Z</time>
      </trkpt>
      <trkpt lat="10.1571494003317" lon="-75.6838708364677">
        <ele>52.3851891</ele>
        <time>2019-09-10T14:56:24.700Z</time>
      </trkpt>
      <trkpt lat="10.1571513603009" lon="-75.683868650442">
        <ele>52.3851891</ele>
        <time>2019-09-10T14:56:24.800Z</time>
      </trkpt>
      <trkpt lat="10.1571533019272" lon="-75.6838664853045">
        <ele>52.3851891</ele>
        <time>2019-09-10T14:56:24.900Z</time>
      </trkpt>
      <trkpt lat="10.1571552145803" lon="-75.6838642886954">
        <ele>52.3851891</ele>
        <time>2019-09-10T14:56:25.000Z</time>
      </trkpt>
      <trkpt lat="10.1571571146227" lon="-75.6838620854021">
        <ele>52.3851891</ele>
        <time>2019-09-10T14:56:25.100Z</time>
      </trkpt>
      <trkpt lat="10.1571590118511" lon="-75.6838598637271">
        <ele>52.3851891</ele>
        <time>2019-09-10T14:56:25.200Z</time>
      </trkpt>
      <trkpt lat="10.1571608588453" lon="-75.683857709173">
        <ele>52.3851891</ele>
        <time>2019-09-10T14:56:25.300Z</time>
      </trkpt>
      <trkpt lat="10.1571627130308" lon="-75.6838555707725">
        <ele>52.3851891</ele>
        <time>2019-09-10T14:56:25.400Z</time>
      </trkpt>
      <trkpt lat="10.1571645472059" lon="-75.6838534641222">
        <ele>52.3851891</ele>
        <time>2019-09-10T14:56:25.500Z</time>
      </trkpt>
      <trkpt lat="10.1571682894483" lon="-75.6838492820147">
        <ele>52.3851891</ele>
        <time>2019-09-10T14:56:25.700Z</time>
      </trkpt>
      <trkpt lat="10.157170198141" lon="-75.6838472193689">
        <ele>52.4851891</ele>
        <time>2019-09-10T14:56:25.800Z</time>
      </trkpt>
      <trkpt lat="10.1571721024565" lon="-75.6838451973857">
        <ele>52.4851891</ele>
        <time>2019-09-10T14:56:25.900Z</time>
      </trkpt>
      <trkpt lat="10.1571740331397" lon="-75.6838431832007">
        <ele>52.4851891</ele>
        <time>2019-09-10T14:56:26.000Z</time>
      </trkpt>
      <trkpt lat="10.1571759241149" lon="-75.6838412063361">
        <ele>52.4851891</ele>
        <time>2019-09-10T14:56:26.100Z</time>
      </trkpt>
      <trkpt lat="10.1571778381228" lon="-75.6838392344846">
        <ele>52.4851891</ele>
        <time>2019-09-10T14:56:26.200Z</time>
      </trkpt>
      <trkpt lat="10.1571797557785" lon="-75.6838372709885">
        <ele>52.4851891</ele>
        <time>2019-09-10T14:56:26.300Z</time>
      </trkpt>
      <trkpt lat="10.1571817139759" lon="-75.6838353052642">
        <ele>52.4851891</ele>
        <time>2019-09-10T14:56:26.400Z</time>
      </trkpt>
      <trkpt lat="10.1571836667538" lon="-75.6838333492879">
        <ele>52.4851891</ele>
        <time>2019-09-10T14:56:26.500Z</time>
      </trkpt>
      <trkpt lat="10.1571856480881" lon="-75.6838313997172">
        <ele>52.3851891</ele>
        <time>2019-09-10T14:56:26.600Z</time>
      </trkpt>
      <trkpt lat="10.1571875839823" lon="-75.6838294437408">
        <ele>52.3851891</ele>
        <time>2019-09-10T14:56:26.700Z</time>
      </trkpt>
      <trkpt lat="10.1571895410333" lon="-75.6838274905496">
        <ele>52.4851891</ele>
        <time>2019-09-10T14:56:26.800Z</time>
      </trkpt>
      <trkpt lat="10.1571914694237" lon="-75.6838255178626">
        <ele>52.4851891</ele>
        <time>2019-09-10T14:56:26.900Z</time>
      </trkpt>
      <trkpt lat="10.1571934327279" lon="-75.6838235526954">
        <ele>52.4851891</ele>
        <time>2019-09-10T14:56:27.000Z</time>
      </trkpt>
      <trkpt lat="10.1571953637237" lon="-75.6838215878067">
        <ele>52.4851891</ele>
        <time>2019-09-10T14:56:27.100Z</time>
      </trkpt>
      <trkpt lat="10.1571973283828" lon="-75.6838196432492">
        <ele>52.4851891</ele>
        <time>2019-09-10T14:56:27.200Z</time>
      </trkpt>
      <trkpt lat="10.1571992301969" lon="-75.6838176998058">
        <ele>52.4851891</ele>
        <time>2019-09-10T14:56:27.300Z</time>
      </trkpt>
      <trkpt lat="10.157201171198" lon="-75.6838157708449">
        <ele>52.4851891</ele>
        <time>2019-09-10T14:56:27.400Z</time>
      </trkpt>
      <trkpt lat="10.1572030314282" lon="-75.6838138705705">
        <ele>52.4851891</ele>
        <time>2019-09-10T14:56:27.500Z</time>
      </trkpt>
      <trkpt lat="10.1572048146395" lon="-75.6838120026034">
        <ele>52.4851891</ele>
        <time>2019-09-10T14:56:27.600Z</time>
      </trkpt>
      <trkpt lat="10.1572078425552" lon="-75.6838082396535">
        <ele>52.3851891</ele>
        <time>2019-09-10T14:56:27.800Z</time>
      </trkpt>
      <trkpt lat="10.1572089455199" lon="-75.6838063936886">
        <ele>52.3851891</ele>
        <time>2019-09-10T14:56:27.900Z</time>
      </trkpt>
      <trkpt lat="10.1572098095071" lon="-75.6838045624848">
        <ele>52.3851891</ele>
        <time>2019-09-10T14:56:28.000Z</time>
      </trkpt>
      <trkpt lat="10.1572102877746" lon="-75.6838026694517">
        <ele>52.3851891</ele>
        <time>2019-09-10T14:56:28.100Z</time>
      </trkpt>
      <trkpt lat="10.1572105273773" lon="-75.6838007647212">
        <ele>52.3851891</ele>
        <time>2019-09-10T14:56:28.200Z</time>
      </trkpt>
      <trkpt lat="10.1572103986651" lon="-75.6837988073522">
        <ele>52.3851891</ele>
        <time>2019-09-10T14:56:28.300Z</time>
      </trkpt>
      <trkpt lat="10.1572100334768" lon="-75.6837968630733">
        <ele>52.3851891</ele>
        <time>2019-09-10T14:56:28.400Z</time>
      </trkpt>
      <trkpt lat="10.1572093142517" lon="-75.6837948491668">
        <ele>52.3851891</ele>
        <time>2019-09-10T14:56:28.500Z</time>
      </trkpt>
      <trkpt lat="10.1572083450018" lon="-75.6837928580982">
        <ele>52.3851891</ele>
        <time>2019-09-10T14:56:28.600Z</time>
      </trkpt>
      <trkpt lat="10.1572070094172" lon="-75.6837907687155">
        <ele>52.3851891</ele>
        <time>2019-09-10T14:56:28.700Z</time>
      </trkpt>
      <trkpt lat="10.1572054135942" lon="-75.6837887188812">
        <ele>52.3851891</ele>
        <time>2019-09-10T14:56:28.800Z</time>
      </trkpt>
      <trkpt lat="10.1572035997421" lon="-75.6837866164085">
        <ele>52.3851891</ele>
        <time>2019-09-10T14:56:28.900Z</time>
      </trkpt>
      <trkpt lat="10.1572016771881" lon="-75.6837845576619">
        <ele>52.3851891</ele>
        <time>2019-09-10T14:56:29.000Z</time>
      </trkpt>
      <trkpt lat="10.157199632592" lon="-75.6837823880683">
        <ele>52.3851891</ele>
        <time>2019-09-10T14:56:29.100Z</time>
      </trkpt>
      <trkpt lat="10.1571975277564" lon="-75.6837802713916">
        <ele>52.4851891</ele>
        <time>2019-09-10T14:56:29.200Z</time>
      </trkpt>
      <trkpt lat="10.1571954369907" lon="-75.6837780566794">
        <ele>52.4851891</ele>
        <time>2019-09-10T14:56:29.300Z</time>
      </trkpt>
      <trkpt lat="10.1571933320509" lon="-75.6837759026823">
        <ele>52.4851891</ele>
        <time>2019-09-10T14:56:29.400Z</time>
      </trkpt>
      <trkpt lat="10.1571912838071" lon="-75.6837736932618">
        <ele>52.4851891</ele>
        <time>2019-09-10T14:56:29.500Z</time>
      </trkpt>
      <trkpt lat="10.1571892143023" lon="-75.6837715587604">
        <ele>52.4851891</ele>
        <time>2019-09-10T14:56:29.600Z</time>
      </trkpt>
      <trkpt lat="10.1571871965951" lon="-75.6837693877742">
        <ele>52.4851891</ele>
        <time>2019-09-10T14:56:29.700Z</time>
      </trkpt>
      <trkpt lat="10.1571851476217" lon="-75.6837672805669">
        <ele>52.4851891</ele>
        <time>2019-09-10T14:56:29.800Z</time>
      </trkpt>
      <trkpt lat="10.1571831624312" lon="-75.6837651683464">
        <ele>52.4851891</ele>
        <time>2019-09-10T14:56:29.900Z</time>
      </trkpt>
      <trkpt lat="10.1571791590124" lon="-75.6837610798182">
        <ele>52.3851891</ele>
        <time>2019-09-10T14:56:30.100Z</time>
      </trkpt>
      <trkpt lat="10.1571750977512" lon="-75.6837570787422">
        <ele>52.3851891</ele>
        <time>2019-09-10T14:56:30.300Z</time>
      </trkpt>
      <trkpt lat="10.157173034187" lon="-75.6837550940793">
        <ele>52.3851891</ele>
        <time>2019-09-10T14:56:30.400Z</time>
      </trkpt>
      <trkpt lat="10.1571710017846" lon="-75.6837532038313">
        <ele>52.3851891</ele>
        <time>2019-09-10T14:56:30.500Z</time>
      </trkpt>
      <trkpt lat="10.1571689783453" lon="-75.6837513250022">
        <ele>52.3851891</ele>
        <time>2019-09-10T14:56:30.600Z</time>
      </trkpt>
      <trkpt lat="10.157164922712" lon="-75.6837475798771">
        <ele>52.3851891</ele>
        <time>2019-09-10T14:56:30.800Z</time>
      </trkpt>
      <trkpt lat="10.1571629055259" lon="-75.6837457002124">
        <ele>52.3851891</ele>
        <time>2019-09-10T14:56:30.900Z</time>
      </trkpt>
      <trkpt lat="10.1571609029306" lon="-75.6837437784928">
        <ele>52.3851891</ele>
        <time>2019-09-10T14:56:31.000Z</time>
      </trkpt>
      <trkpt lat="10.1571588813672" lon="-75.6837418762689">
        <ele>52.3851891</ele>
        <time>2019-09-10T14:56:31.100Z</time>
      </trkpt>
      <trkpt lat="10.1571548599182" lon="-75.6837380375643">
        <ele>52.3851891</ele>
        <time>2019-09-10T14:56:31.300Z</time>
      </trkpt>
      <trkpt lat="10.1571528748319" lon="-75.6837361074894">
        <ele>52.3851891</ele>
        <time>2019-09-10T14:56:31.400Z</time>
      </trkpt>
      <trkpt lat="10.1571508757802" lon="-75.6837342105571">
        <ele>52.3851891</ele>
        <time>2019-09-10T14:56:31.500Z</time>
      </trkpt>
      <trkpt lat="10.1571489011159" lon="-75.6837322849383">
        <ele>52.3851891</ele>
        <time>2019-09-10T14:56:31.600Z</time>
      </trkpt>
      <trkpt lat="10.1571469264517" lon="-75.6837303662823">
        <ele>52.3851891</ele>
        <time>2019-09-10T14:56:31.700Z</time>
      </trkpt>
      <trkpt lat="10.157144986076" lon="-75.6837284111415">
        <ele>52.3851891</ele>
        <time>2019-09-10T14:56:31.800Z</time>
      </trkpt>
      <trkpt lat="10.1571430630009" lon="-75.6837264899789">
        <ele>52.3851891</ele>
        <time>2019-09-10T14:56:31.900Z</time>
      </trkpt>
      <trkpt lat="10.157141173589" lon="-75.6837245443074">
        <ele>52.3851891</ele>
        <time>2019-09-10T14:56:32.000Z</time>
      </trkpt>
      <trkpt lat="10.1571392855319" lon="-75.6837226100548">
        <ele>52.3851891</ele>
        <time>2019-09-10T14:56:32.100Z</time>
      </trkpt>
      <trkpt lat="10.1571374198823" lon="-75.6837206356968">
        <ele>52.3851891</ele>
        <time>2019-09-10T14:56:32.200Z</time>
      </trkpt>
      <trkpt lat="10.1571355577761" lon="-75.6837186758212">
        <ele>52.3851891</ele>
        <time>2019-09-10T14:56:32.300Z</time>
      </trkpt>
      <trkpt lat="10.1571337220377" lon="-75.6837166875377">
        <ele>52.2851891</ele>
        <time>2019-09-10T14:56:32.400Z</time>
      </trkpt>
      <trkpt lat="10.1571319021408" lon="-75.6837147009252">
        <ele>52.2851891</ele>
        <time>2019-09-10T14:56:32.500Z</time>
      </trkpt>
      <trkpt lat="10.1571301045471" lon="-75.6837126847907">
        <ele>52.2851891</ele>
        <time>2019-09-10T14:56:32.600Z</time>
      </trkpt>
      <trkpt lat="10.1571283068491" lon="-75.6837107031914">
        <ele>52.2851891</ele>
        <time>2019-09-10T14:56:32.700Z</time>
      </trkpt>
      <trkpt lat="10.1571265235336" lon="-75.6837087032104">
        <ele>52.2851891</ele>
        <time>2019-09-10T14:56:32.800Z</time>
      </trkpt>
      <trkpt lat="10.1571247270863" lon="-75.683706690975">
        <ele>52.2851891</ele>
        <time>2019-09-10T14:56:32.900Z</time>
      </trkpt>
      <trkpt lat="10.1571229443961" lon="-75.6837046447613">
        <ele>52.2851891</ele>
        <time>2019-09-10T14:56:33.000Z</time>
      </trkpt>
      <trkpt lat="10.1571211859892" lon="-75.6837026408812">
        <ele>52.2851891</ele>
        <time>2019-09-10T14:56:33.100Z</time>
      </trkpt>
      <trkpt lat="10.1571194494686" lon="-75.6837006261392">
        <ele>52.3851891</ele>
        <time>2019-09-10T14:56:33.200Z</time>
      </trkpt>
      <trkpt lat="10.1571176997121" lon="-75.6836986381342">
        <ele>52.3851891</ele>
        <time>2019-09-10T14:56:33.300Z</time>
      </trkpt>
      <trkpt lat="10.157115953499" lon="-75.683696619493">
        <ele>52.3851891</ele>
        <time>2019-09-10T14:56:33.400Z</time>
      </trkpt>
      <trkpt lat="10.1571142107252" lon="-75.6836946253608">
        <ele>52.3851891</ele>
        <time>2019-09-10T14:56:33.500Z</time>
      </trkpt>
      <trkpt lat="10.1571124808747" lon="-75.6836925980858">
        <ele>52.3851891</ele>
        <time>2019-09-10T14:56:33.600Z</time>
      </trkpt>
      <trkpt lat="10.1571107754119" lon="-75.6836905699753">
        <ele>52.3851891</ele>
        <time>2019-09-10T14:56:33.700Z</time>
      </trkpt>
      <trkpt lat="10.157109082247" lon="-75.6836885073296">
        <ele>52.3851891</ele>
        <time>2019-09-10T14:56:33.800Z</time>
      </trkpt>
      <trkpt lat="10.1571073836627" lon="-75.6836864243526">
        <ele>52.3851891</ele>
        <time>2019-09-10T14:56:33.900Z</time>
      </trkpt>
      <trkpt lat="10.1571056787209" lon="-75.6836843110181">
        <ele>52.3851891</ele>
        <time>2019-09-10T14:56:34.000Z</time>
      </trkpt>
      <trkpt lat="10.1571039578334" lon="-75.683682211052">
        <ele>52.3851891</ele>
        <time>2019-09-10T14:56:34.100Z</time>
      </trkpt>
      <trkpt lat="10.1571022396556" lon="-75.6836801005025">
        <ele>52.3851891</ele>
        <time>2019-09-10T14:56:34.200Z</time>
      </trkpt>
      <trkpt lat="10.1571005486793" lon="-75.6836780411989">
        <ele>52.3851891</ele>
        <time>2019-09-10T14:56:34.300Z</time>
      </trkpt>
      <trkpt lat="10.1570971641213" lon="-75.6836739108942">
        <ele>52.3851891</ele>
        <time>2019-09-10T14:56:34.500Z</time>
      </trkpt>
      <trkpt lat="10.1570954425043" lon="-75.6836717917109">
        <ele>52.3851891</ele>
        <time>2019-09-10T14:56:34.600Z</time>
      </trkpt>
      <trkpt lat="10.1570919727982" lon="-75.6836675020985">
        <ele>52.3851891</ele>
        <time>2019-09-10T14:56:34.800Z</time>
      </trkpt>
      <trkpt lat="10.1570902490968" lon="-75.68366533529">
        <ele>52.3851891</ele>
        <time>2019-09-10T14:56:34.900Z</time>
      </trkpt>
      <trkpt lat="10.1570885405073" lon="-75.6836631648608">
        <ele>52.3851891</ele>
        <time>2019-09-10T14:56:35.000Z</time>
      </trkpt>
      <trkpt lat="10.1570868379625" lon="-75.6836609972168">
        <ele>52.3851891</ele>
        <time>2019-09-10T14:56:35.100Z</time>
      </trkpt>
      <trkpt lat="10.1570851412542" lon="-75.6836588315223">
        <ele>52.3851891</ele>
        <time>2019-09-10T14:56:35.200Z</time>
      </trkpt>
      <trkpt lat="10.1570834466302" lon="-75.6836566741831">
        <ele>52.3851891</ele>
        <time>2019-09-10T14:56:35.300Z</time>
      </trkpt>
      <trkpt lat="10.1570817541949" lon="-75.6836545213001">
        <ele>52.3851891</ele>
        <time>2019-09-10T14:56:35.400Z</time>
      </trkpt>
      <trkpt lat="10.1570782666671" lon="-75.683650225839">
        <ele>52.4851891</ele>
        <time>2019-09-10T14:56:35.600Z</time>
      </trkpt>
      <trkpt lat="10.157076548802" lon="-75.683648141191">
        <ele>52.4851891</ele>
        <time>2019-09-10T14:56:35.700Z</time>
      </trkpt>
      <trkpt lat="10.157074849905" lon="-75.683646059328">
        <ele>52.3851891</ele>
        <time>2019-09-10T14:56:35.800Z</time>
      </trkpt>
      <trkpt lat="10.1570731329779" lon="-75.6836440003029">
        <ele>52.3851891</ele>
        <time>2019-09-10T14:56:35.900Z</time>
      </trkpt>
      <trkpt lat="10.1570714129241" lon="-75.6836419209466">
        <ele>52.4851891</ele>
        <time>2019-09-10T14:56:36.000Z</time>
      </trkpt>
      <trkpt lat="10.157069678488" lon="-75.6836398549587">
        <ele>52.4851891</ele>
        <time>2019-09-10T14:56:36.100Z</time>
      </trkpt>
      <trkpt lat="10.1570662051342" lon="-75.6836356784214">
        <ele>52.4851891</ele>
        <time>2019-09-10T14:56:36.300Z</time>
      </trkpt>
      <trkpt lat="10.1570644713233" lon="-75.6836335714925">
        <ele>52.4851891</ele>
        <time>2019-09-10T14:56:36.400Z</time>
      </trkpt>
      <trkpt lat="10.157062746267" lon="-75.6836314500812">
        <ele>52.4851891</ele>
        <time>2019-09-10T14:56:36.500Z</time>
      </trkpt>
      <trkpt lat="10.1570610327791" lon="-75.6836293147443">
        <ele>52.4851891</ele>
        <time>2019-09-10T14:56:36.600Z</time>
      </trkpt>
      <trkpt lat="10.1570593326315" lon="-75.6836271755083">
        <ele>52.4851891</ele>
        <time>2019-09-10T14:56:36.700Z</time>
      </trkpt>
      <trkpt lat="10.1570576352978" lon="-75.6836250293095">
        <ele>52.4851891</ele>
        <time>2019-09-10T14:56:36.800Z</time>
      </trkpt>
      <trkpt lat="10.1570559521381" lon="-75.6836229017709">
        <ele>52.4851891</ele>
        <time>2019-09-10T14:56:36.900Z</time>
      </trkpt>
      <trkpt lat="10.1570542663729" lon="-75.6836207809166">
        <ele>52.4851891</ele>
        <time>2019-09-10T14:56:37.000Z</time>
      </trkpt>
      <trkpt lat="10.1570525899875" lon="-75.683618653935">
        <ele>52.4851891</ele>
        <time>2019-09-10T14:56:37.100Z</time>
      </trkpt>
      <trkpt lat="10.157050905056" lon="-75.6836165202692">
        <ele>52.4851891</ele>
        <time>2019-09-10T14:56:37.200Z</time>
      </trkpt>
      <trkpt lat="10.1570492242934" lon="-75.6836144099982">
        <ele>52.4851891</ele>
        <time>2019-09-10T14:56:37.300Z</time>
      </trkpt>
      <trkpt lat="10.1570475357142" lon="-75.68361230669">
        <ele>52.4851891</ele>
        <time>2019-09-10T14:56:37.400Z</time>
      </trkpt>
      <trkpt lat="10.1570458506785" lon="-75.6836102259411">
        <ele>52.4851891</ele>
        <time>2019-09-10T14:56:37.500Z</time>
      </trkpt>
      <trkpt lat="10.1570441565757" lon="-75.6836081439389">
        <ele>52.4851891</ele>
        <time>2019-09-10T14:56:37.600Z</time>
      </trkpt>
      <trkpt lat="10.1570424692471" lon="-75.6836060719631">
        <ele>52.4851891</ele>
        <time>2019-09-10T14:56:37.700Z</time>
      </trkpt>
      <trkpt lat="10.1570390708278" lon="-75.6836018968183">
        <ele>52.4851891</ele>
        <time>2019-09-10T14:56:37.900Z</time>
      </trkpt>
      <trkpt lat="10.1570373518163" lon="-75.6835998011692">
        <ele>52.4851891</ele>
        <time>2019-09-10T14:56:38.000Z</time>
      </trkpt>
      <trkpt lat="10.1570356130029" lon="-75.6835976757194">
        <ele>52.4851891</ele>
        <time>2019-09-10T14:56:38.100Z</time>
      </trkpt>
      <trkpt lat="10.1570338790878" lon="-75.6835955402433">
        <ele>52.4851891</ele>
        <time>2019-09-10T14:56:38.200Z</time>
      </trkpt>
      <trkpt lat="10.1570321519471" lon="-75.6835934362388">
        <ele>52.4851891</ele>
        <time>2019-09-10T14:56:38.300Z</time>
      </trkpt>
      <trkpt lat="10.1570287257009" lon="-75.6835892585874">
        <ele>52.4851891</ele>
        <time>2019-09-10T14:56:38.500Z</time>
      </trkpt>
      <trkpt lat="10.1570270257617" lon="-75.6835871607101">
        <ele>52.4851891</ele>
        <time>2019-09-10T14:56:38.600Z</time>
      </trkpt>
      <trkpt lat="10.1570253193608" lon="-75.683585040552">
        <ele>52.4851891</ele>
        <time>2019-09-10T14:56:38.700Z</time>
      </trkpt>
      <trkpt lat="10.1570236059772" lon="-75.6835829099498">
        <ele>52.4851891</ele>
        <time>2019-09-10T14:56:38.800Z</time>
      </trkpt>
      <trkpt lat="10.1570219000974" lon="-75.6835807896525">
        <ele>52.4851891</ele>
        <time>2019-09-10T14:56:38.900Z</time>
      </trkpt>
      <trkpt lat="10.1570201943219" lon="-75.68357868342">
        <ele>52.4851891</ele>
        <time>2019-09-10T14:56:39.000Z</time>
      </trkpt>
      <trkpt lat="10.1570184682234" lon="-75.6835765936195">
        <ele>52.4851891</ele>
        <time>2019-09-10T14:56:39.100Z</time>
      </trkpt>
      <trkpt lat="10.1570150168601" lon="-75.6835724317039">
        <ele>52.4851891</ele>
        <time>2019-09-10T14:56:39.300Z</time>
      </trkpt>
      <trkpt lat="10.1570133007667" lon="-75.683570343853">
        <ele>52.4851891</ele>
        <time>2019-09-10T14:56:39.400Z</time>
      </trkpt>
      <trkpt lat="10.1570115737302" lon="-75.6835682436084">
        <ele>52.4851891</ele>
        <time>2019-09-10T14:56:39.500Z</time>
      </trkpt>
      <trkpt lat="10.1570081130913" lon="-75.6835640148504">
        <ele>52.4851891</ele>
        <time>2019-09-10T14:56:39.700Z</time>
      </trkpt>
      <trkpt lat="10.157004622958" lon="-75.6835598256409">
        <ele>52.3851891</ele>
        <time>2019-09-10T14:56:39.900Z</time>
      </trkpt>
      <trkpt lat="10.1570028725761" lon="-75.6835577564502">
        <ele>52.4851891</ele>
        <time>2019-09-10T14:56:40.000Z</time>
      </trkpt>
      <trkpt lat="10.1570011157326" lon="-75.683555688652">
        <ele>52.3851891</ele>
        <time>2019-09-10T14:56:40.100Z</time>
      </trkpt>
      <trkpt lat="10.1569993697279" lon="-75.6835535995478">
        <ele>52.3851891</ele>
        <time>2019-09-10T14:56:40.200Z</time>
      </trkpt>
      <trkpt lat="10.1569976282048" lon="-75.6835514974929">
        <ele>52.3851891</ele>
        <time>2019-09-10T14:56:40.300Z</time>
      </trkpt>
      <trkpt lat="10.1569941589156" lon="-75.683547251328">
        <ele>52.3851891</ele>
        <time>2019-09-10T14:56:40.500Z</time>
      </trkpt>
      <trkpt lat="10.1569907044257" lon="-75.6835429404096">
        <ele>52.3851891</ele>
        <time>2019-09-10T14:56:40.700Z</time>
      </trkpt>
      <trkpt lat="10.1569889856226" lon="-75.6835407556372">
        <ele>52.3851891</ele>
        <time>2019-09-10T14:56:40.800Z</time>
      </trkpt>
      <trkpt lat="10.1569873116343" lon="-75.6835385959307">
        <ele>52.3851891</ele>
        <time>2019-09-10T14:56:40.900Z</time>
      </trkpt>
      <trkpt lat="10.1569856459836" lon="-75.6835364497319">
        <ele>52.3851891</ele>
        <time>2019-09-10T14:56:41.000Z</time>
      </trkpt>
      <trkpt lat="10.1569839937773" lon="-75.6835343054827">
        <ele>52.3851891</ele>
        <time>2019-09-10T14:56:41.100Z</time>
      </trkpt>
      <trkpt lat="10.1569806518455" lon="-75.6835300481774">
        <ele>52.3851891</ele>
        <time>2019-09-10T14:56:41.300Z</time>
      </trkpt>
      <trkpt lat="10.1569789677478" lon="-75.6835279344251">
        <ele>52.3851891</ele>
        <time>2019-09-10T14:56:41.400Z</time>
      </trkpt>
      <trkpt lat="10.1569772866725" lon="-75.683525819698">
        <ele>52.3851891</ele>
        <time>2019-09-10T14:56:41.500Z</time>
      </trkpt>
      <trkpt lat="10.1569738859603" lon="-75.683521562532">
        <ele>52.3851891</ele>
        <time>2019-09-10T14:56:41.700Z</time>
      </trkpt>
      <trkpt lat="10.1569721629884" lon="-75.683519430398">
        <ele>52.3851891</ele>
        <time>2019-09-10T14:56:41.800Z</time>
      </trkpt>
      <trkpt lat="10.1569704418924" lon="-75.6835173149746">
        <ele>52.3851891</ele>
        <time>2019-09-10T14:56:41.900Z</time>
      </trkpt>
      <trkpt lat="10.1569669864646" lon="-75.6835130724303">
        <ele>52.3851891</ele>
        <time>2019-09-10T14:56:42.100Z</time>
      </trkpt>
      <trkpt lat="10.1569652467132" lon="-75.6835109334728">
        <ele>52.3851891</ele>
        <time>2019-09-10T14:56:42.200Z</time>
      </trkpt>
      <trkpt lat="10.1569634712142" lon="-75.6835088095549">
        <ele>52.3851891</ele>
        <time>2019-09-10T14:56:42.300Z</time>
      </trkpt>
      <trkpt lat="10.1569599292833" lon="-75.6835046057235">
        <ele>52.3851891</ele>
        <time>2019-09-10T14:56:42.500Z</time>
      </trkpt>
      <trkpt lat="10.1569581774424" lon="-75.6835025138343">
        <ele>52.3851891</ele>
        <time>2019-09-10T14:56:42.600Z</time>
      </trkpt>
      <trkpt lat="10.1569564279985" lon="-75.6835004286292">
        <ele>52.3851891</ele>
        <time>2019-09-10T14:56:42.700Z</time>
      </trkpt>
      <trkpt lat="10.1569546927285" lon="-75.6834983314482">
        <ele>52.3851891</ele>
        <time>2019-09-10T14:56:42.800Z</time>
      </trkpt>
      <trkpt lat="10.1569529828884" lon="-75.6834962392804">
        <ele>52.3851891</ele>
        <time>2019-09-10T14:56:42.900Z</time>
      </trkpt>
      <trkpt lat="10.1569495723795" lon="-75.683492053413">
        <ele>52.3851891</ele>
        <time>2019-09-10T14:56:43.100Z</time>
      </trkpt>
      <trkpt lat="10.1569461318551" lon="-75.6834878298074">
        <ele>52.3851891</ele>
        <time>2019-09-10T14:56:43.300Z</time>
      </trkpt>
      <trkpt lat="10.156944406903" lon="-75.6834856866723">
        <ele>52.3851891</ele>
        <time>2019-09-10T14:56:43.400Z</time>
      </trkpt>
      <trkpt lat="10.1569426885168" lon="-75.6834836080122">
        <ele>52.3851891</ele>
        <time>2019-09-10T14:56:43.500Z</time>
      </trkpt>
      <trkpt lat="10.1569409734657" lon="-75.6834815559499">
        <ele>52.3851891</ele>
        <time>2019-09-10T14:56:43.600Z</time>
      </trkpt>
      <trkpt lat="10.156939247784" lon="-75.68347948286">
        <ele>52.3851891</ele>
        <time>2019-09-10T14:56:43.700Z</time>
      </trkpt>
      <trkpt lat="10.1569375156407" lon="-75.6834773913885">
        <ele>52.3851891</ele>
        <time>2019-09-10T14:56:43.800Z</time>
      </trkpt>
      <trkpt lat="10.156935798922" lon="-75.6834752905868">
        <ele>52.3851891</ele>
        <time>2019-09-10T14:56:43.900Z</time>
      </trkpt>
      <trkpt lat="10.1569323764278" lon="-75.6834710771469">
        <ele>52.3851891</ele>
        <time>2019-09-10T14:56:44.100Z</time>
      </trkpt>
      <trkpt lat="10.1569306550192" lon="-75.6834689720284">
        <ele>52.3851891</ele>
        <time>2019-09-10T14:56:44.200Z</time>
      </trkpt>
      <trkpt lat="10.1569289237096" lon="-75.6834668646818">
        <ele>52.3851891</ele>
        <time>2019-09-10T14:56:44.300Z</time>
      </trkpt>
      <trkpt lat="10.156927188127" lon="-75.6834647626269">
        <ele>52.3851891</ele>
        <time>2019-09-10T14:56:44.400Z</time>
      </trkpt>
      <trkpt lat="10.1569255053842" lon="-75.6834627123748">
        <ele>52.3851891</ele>
        <time>2019-09-10T14:56:44.500Z</time>
      </trkpt>
      <trkpt lat="10.1569238402546" lon="-75.6834606786941">
        <ele>52.3851891</ele>
        <time>2019-09-10T14:56:44.600Z</time>
      </trkpt>
      <trkpt lat="10.1569221260372" lon="-75.6834585856908">
        <ele>52.3851891</ele>
        <time>2019-09-10T14:56:44.700Z</time>
      </trkpt>
      <trkpt lat="10.156920376906" lon="-75.6834564645579">
        <ele>52.3851891</ele>
        <time>2019-09-10T14:56:44.800Z</time>
      </trkpt>
      <trkpt lat="10.1569186436162" lon="-75.6834543597179">
        <ele>52.3851891</ele>
        <time>2019-09-10T14:56:44.900Z</time>
      </trkpt>
      <trkpt lat="10.1569169201232" lon="-75.6834522754877">
        <ele>52.3851891</ele>
        <time>2019-09-10T14:56:45.000Z</time>
      </trkpt>
      <trkpt lat="10.1569151870419" lon="-75.6834501859657">
        <ele>52.3851891</ele>
        <time>2019-09-10T14:56:45.100Z</time>
      </trkpt>
      <trkpt lat="10.156913453648" lon="-75.6834480949119">
        <ele>52.3851891</ele>
        <time>2019-09-10T14:56:45.200Z</time>
      </trkpt>
      <trkpt lat="10.1569117383884" lon="-75.6834459927178">
        <ele>52.4851891</ele>
        <time>2019-09-10T14:56:45.300Z</time>
      </trkpt>
      <trkpt lat="10.156910027506" lon="-75.6834438952583">
        <ele>52.4851891</ele>
        <time>2019-09-10T14:56:45.400Z</time>
      </trkpt>
      <trkpt lat="10.1569083098494" lon="-75.6834418178515">
        <ele>52.4851891</ele>
        <time>2019-09-10T14:56:45.500Z</time>
      </trkpt>
      <trkpt lat="10.1569065831255" lon="-75.6834397510281">
        <ele>52.4851891</ele>
        <time>2019-09-10T14:56:45.600Z</time>
      </trkpt>
      <trkpt lat="10.1569048491062" lon="-75.6834377032826">
        <ele>52.3851891</ele>
        <time>2019-09-10T14:56:45.700Z</time>
      </trkpt>
      <trkpt lat="10.1569031120646" lon="-75.6834356503848">
        <ele>52.3851891</ele>
        <time>2019-09-10T14:56:45.800Z</time>
      </trkpt>
      <trkpt lat="10.1569013405259" lon="-75.6834335511149">
        <ele>52.3851891</ele>
        <time>2019-09-10T14:56:45.900Z</time>
      </trkpt>
      <trkpt lat="10.1568995687789" lon="-75.6834314397299">
        <ele>52.3851891</ele>
        <time>2019-09-10T14:56:46.000Z</time>
      </trkpt>
      <trkpt lat="10.1568978445563" lon="-75.6834293702607">
        <ele>52.3851891</ele>
        <time>2019-09-10T14:56:46.100Z</time>
      </trkpt>
      <trkpt lat="10.1568961373217" lon="-75.6834273122104">
        <ele>52.3851891</ele>
        <time>2019-09-10T14:56:46.200Z</time>
      </trkpt>
      <trkpt lat="10.1568944337348" lon="-75.6834252704529">
        <ele>52.3851891</ele>
        <time>2019-09-10T14:56:46.300Z</time>
      </trkpt>
      <trkpt lat="10.1568927163907" lon="-75.6834232140736">
        <ele>52.3851891</ele>
        <time>2019-09-10T14:56:46.400Z</time>
      </trkpt>
      <trkpt lat="10.1568909916471" lon="-75.6834211440474">
        <ele>52.3851891</ele>
        <time>2019-09-10T14:56:46.500Z</time>
      </trkpt>
      <trkpt lat="10.156889259608" lon="-75.6834190574498">
        <ele>52.3851891</ele>
        <time>2019-09-10T14:56:46.600Z</time>
      </trkpt>
      <trkpt lat="10.1568874953648" lon="-75.6834169872843">
        <ele>52.3851891</ele>
        <time>2019-09-10T14:56:46.700Z</time>
      </trkpt>
      <trkpt lat="10.1568857272654" lon="-75.6834149204609">
        <ele>52.3851891</ele>
        <time>2019-09-10T14:56:46.800Z</time>
      </trkpt>
      <trkpt lat="10.1568839326941" lon="-75.6834128512701">
        <ele>52.3851891</ele>
        <time>2019-09-10T14:56:46.900Z</time>
      </trkpt>
      <trkpt lat="10.1568821503166" lon="-75.6834107734456">
        <ele>52.3851891</ele>
        <time>2019-09-10T14:56:47.000Z</time>
      </trkpt>
      <trkpt lat="10.1568803748175" lon="-75.6834087085718">
        <ele>52.3851891</ele>
        <time>2019-09-10T14:56:47.100Z</time>
      </trkpt>
      <trkpt lat="10.1568768346585" lon="-75.6834045642024">
        <ele>52.3851891</ele>
        <time>2019-09-10T14:56:47.300Z</time>
      </trkpt>
      <trkpt lat="10.1568750585341" lon="-75.6834024707813">
        <ele>52.3851891</ele>
        <time>2019-09-10T14:56:47.400Z</time>
      </trkpt>
      <trkpt lat="10.156873289601" lon="-75.6834003919819">
        <ele>52.3851891</ele>
        <time>2019-09-10T14:56:47.500Z</time>
      </trkpt>
      <trkpt lat="10.1568715345292" lon="-75.6833983148537">
        <ele>52.3851891</ele>
        <time>2019-09-10T14:56:47.600Z</time>
      </trkpt>
      <trkpt lat="10.1568697912343" lon="-75.6833962296486">
        <ele>52.3851891</ele>
        <time>2019-09-10T14:56:47.700Z</time>
      </trkpt>
      <trkpt lat="10.1568680521082" lon="-75.6833941394304">
        <ele>52.3851891</ele>
        <time>2019-09-10T14:56:47.800Z</time>
      </trkpt>
      <trkpt lat="10.1568663213198" lon="-75.6833920398821">
        <ele>52.3851891</ele>
        <time>2019-09-10T14:56:47.900Z</time>
      </trkpt>
      <trkpt lat="10.1568645874047" lon="-75.6833899401945">
        <ele>52.3851891</ele>
        <time>2019-09-10T14:56:48.000Z</time>
      </trkpt>
      <trkpt lat="10.1568628535939" lon="-75.6833878377218">
        <ele>52.3851891</ele>
        <time>2019-09-10T14:56:48.100Z</time>
      </trkpt>
      <trkpt lat="10.1568611165522" lon="-75.6833857323248">
        <ele>52.3851891</ele>
        <time>2019-09-10T14:56:48.200Z</time>
      </trkpt>
      <trkpt lat="10.1568594077543" lon="-75.6833836259529">
        <ele>52.2851891</ele>
        <time>2019-09-10T14:56:48.300Z</time>
      </trkpt>
      <trkpt lat="10.1568576996859" lon="-75.6833815216699">
        <ele>52.2851891</ele>
        <time>2019-09-10T14:56:48.400Z</time>
      </trkpt>
      <trkpt lat="10.1568559639991" lon="-75.683379356811">
        <ele>52.2851891</ele>
        <time>2019-09-10T14:56:48.500Z</time>
      </trkpt>
      <trkpt lat="10.156854211637" lon="-75.6833771916735">
        <ele>52.3851891</ele>
        <time>2019-09-10T14:56:48.600Z</time>
      </trkpt>
      <trkpt lat="10.1568525079459" lon="-75.6833750617676">
        <ele>52.2851891</ele>
        <time>2019-09-10T14:56:48.700Z</time>
      </trkpt>
      <trkpt lat="10.1568508128008" lon="-75.6833729590164">
        <ele>52.2851891</ele>
        <time>2019-09-10T14:56:48.800Z</time>
      </trkpt>
      <trkpt lat="10.1568491164051" lon="-75.6833708693552">
        <ele>52.2851891</ele>
        <time>2019-09-10T14:56:48.900Z</time>
      </trkpt>
      <trkpt lat="10.156847402813" lon="-75.683368780808">
        <ele>52.2851891</ele>
        <time>2019-09-10T14:56:49.000Z</time>
      </trkpt>
      <trkpt lat="10.1568456835931" lon="-75.68336669616">
        <ele>52.2851891</ele>
        <time>2019-09-10T14:56:49.100Z</time>
      </trkpt>
      <trkpt lat="10.1568439556186" lon="-75.6833646059417">
        <ele>52.2851891</ele>
        <time>2019-09-10T14:56:49.200Z</time>
      </trkpt>
      <trkpt lat="10.1568422249343" lon="-75.6833625109888">
        <ele>52.2851891</ele>
        <time>2019-09-10T14:56:49.300Z</time>
      </trkpt>
      <trkpt lat="10.1568404948754" lon="-75.6833604128331">
        <ele>52.2851891</ele>
        <time>2019-09-10T14:56:49.400Z</time>
      </trkpt>
      <trkpt lat="10.1568387607519" lon="-75.6833583408572">
        <ele>52.2851891</ele>
        <time>2019-09-10T14:56:49.500Z</time>
      </trkpt>
      <trkpt lat="10.1568370287129" lon="-75.6833562691599">
        <ele>52.2851891</ele>
        <time>2019-09-10T14:56:49.600Z</time>
      </trkpt>
      <trkpt lat="10.1568353210613" lon="-75.6833541998299">
        <ele>52.2851891</ele>
        <time>2019-09-10T14:56:49.700Z</time>
      </trkpt>
      <trkpt lat="10.1568336202884" lon="-75.6833521270186">
        <ele>52.2851891</ele>
        <time>2019-09-10T14:56:49.800Z</time>
      </trkpt>
      <trkpt lat="10.1568319397342" lon="-75.6833500512829">
        <ele>52.2851891</ele>
        <time>2019-09-10T14:56:49.900Z</time>
      </trkpt>
      <trkpt lat="10.1568302550111" lon="-75.6833479730406">
        <ele>52.2851891</ele>
        <time>2019-09-10T14:56:50.000Z</time>
      </trkpt>
      <trkpt lat="10.1568285571564" lon="-75.6833459138762">
        <ele>52.2851891</ele>
        <time>2019-09-10T14:56:50.100Z</time>
      </trkpt>
      <trkpt lat="10.1568268460656" lon="-75.6833438558259">
        <ele>52.2851891</ele>
        <time>2019-09-10T14:56:50.200Z</time>
      </trkpt>
      <trkpt lat="10.1568251160067" lon="-75.683341782736">
        <ele>52.2851891</ele>
        <time>2019-09-10T14:56:50.300Z</time>
      </trkpt>
      <trkpt lat="10.1568233880322" lon="-75.6833396983665">
        <ele>52.2851891</ele>
        <time>2019-09-10T14:56:50.400Z</time>
      </trkpt>
      <trkpt lat="10.1568216737106" lon="-75.683337594362">
        <ele>52.2851891</ele>
        <time>2019-09-10T14:56:50.500Z</time>
      </trkpt>
      <trkpt lat="10.1568199676223" lon="-75.683335483534">
        <ele>52.2851891</ele>
        <time>2019-09-10T14:56:50.600Z</time>
      </trkpt>
      <trkpt lat="10.1568182481939" lon="-75.683333385796">
        <ele>52.2851891</ele>
        <time>2019-09-10T14:56:50.700Z</time>
      </trkpt>
      <trkpt lat="10.1568165278275" lon="-75.6833312952993">
        <ele>52.2851891</ele>
        <time>2019-09-10T14:56:50.800Z</time>
      </trkpt>
      <trkpt lat="10.1568148215309" lon="-75.6833292053595">
        <ele>52.2851891</ele>
        <time>2019-09-10T14:56:50.900Z</time>
      </trkpt>
      <trkpt lat="10.1568131251352" lon="-75.6833271081785">
        <ele>52.2851891</ele>
        <time>2019-09-10T14:56:51.000Z</time>
      </trkpt>
      <trkpt lat="10.1568114186301" lon="-75.6833249791081">
        <ele>52.2851891</ele>
        <time>2019-09-10T14:56:51.100Z</time>
      </trkpt>
      <trkpt lat="10.1568097085815" lon="-75.6833228471134">
        <ele>52.3851891</ele>
        <time>2019-09-10T14:56:51.200Z</time>
      </trkpt>
      <trkpt lat="10.15680800093" lon="-75.6833207433874">
        <ele>52.3851891</ele>
        <time>2019-09-10T14:56:51.300Z</time>
      </trkpt>
      <trkpt lat="10.1568045693686" lon="-75.6833165724203">
        <ele>52.3851891</ele>
        <time>2019-09-10T14:56:51.500Z</time>
      </trkpt>
      <trkpt lat="10.1568028405603" lon="-75.6833144849872">
        <ele>52.3851891</ele>
        <time>2019-09-10T14:56:51.600Z</time>
      </trkpt>
      <trkpt lat="10.1567994138973" lon="-75.6833103198687">
        <ele>52.3851891</ele>
        <time>2019-09-10T14:56:51.800Z</time>
      </trkpt>
      <trkpt lat="10.1567976905085" lon="-75.6833082371703">
        <ele>52.3851891</ele>
        <time>2019-09-10T14:56:51.900Z</time>
      </trkpt>
      <trkpt lat="10.1567959619086" lon="-75.683306153497">
        <ele>52.3851891</ele>
        <time>2019-09-10T14:56:52.000Z</time>
      </trkpt>
      <trkpt lat="10.156794243314" lon="-75.6833040645321">
        <ele>52.3851891</ele>
        <time>2019-09-10T14:56:52.100Z</time>
      </trkpt>
      <trkpt lat="10.1567925299304" lon="-75.6833019751494">
        <ele>52.3851891</ele>
        <time>2019-09-10T14:56:52.200Z</time>
      </trkpt>
      <trkpt lat="10.1567908013305" lon="-75.6832999044268">
        <ele>52.3851891</ele>
        <time>2019-09-10T14:56:52.300Z</time>
      </trkpt>
      <trkpt lat="10.1567890686661" lon="-75.6832978406671">
        <ele>52.3851891</ele>
        <time>2019-09-10T14:56:52.400Z</time>
      </trkpt>
      <trkpt lat="10.1567873228699" lon="-75.683295769666">
        <ele>52.3851891</ele>
        <time>2019-09-10T14:56:52.500Z</time>
      </trkpt>
      <trkpt lat="10.1567855796793" lon="-75.6832936904489">
        <ele>52.3851891</ele>
        <time>2019-09-10T14:56:52.600Z</time>
      </trkpt>
      <trkpt lat="10.1567838329451" lon="-75.6832915964708">
        <ele>52.3851891</ele>
        <time>2019-09-10T14:56:52.700Z</time>
      </trkpt>
      <trkpt lat="10.1567820921515" lon="-75.6832894970617">
        <ele>52.3851891</ele>
        <time>2019-09-10T14:56:52.800Z</time>
      </trkpt>
      <trkpt lat="10.1567803700133" lon="-75.6832873808028">
        <ele>52.3851891</ele>
        <time>2019-09-10T14:56:52.900Z</time>
      </trkpt>
      <trkpt lat="10.1567786569424" lon="-75.6832852655187">
        <ele>52.3851891</ele>
        <time>2019-09-10T14:56:53.000Z</time>
      </trkpt>
      <trkpt lat="10.1567769411617" lon="-75.6832831694517">
        <ele>52.3851891</ele>
        <time>2019-09-10T14:56:53.100Z</time>
      </trkpt>
      <trkpt lat="10.1567752205868" lon="-75.6832810809045">
        <ele>52.3851891</ele>
        <time>2019-09-10T14:56:53.200Z</time>
      </trkpt>
      <trkpt lat="10.1567735176252" lon="-75.683278990547">
        <ele>52.3851891</ele>
        <time>2019-09-10T14:56:53.300Z</time>
      </trkpt>
      <trkpt lat="10.1567718156016" lon="-75.6832768926698">
        <ele>52.3851891</ele>
        <time>2019-09-10T14:56:53.400Z</time>
      </trkpt>
      <trkpt lat="10.1567701088881" lon="-75.6832747893616">
        <ele>52.3851891</ele>
        <time>2019-09-10T14:56:53.500Z</time>
      </trkpt>
      <trkpt lat="10.1567683955045" lon="-75.6832726810402">
        <ele>52.3851891</ele>
        <time>2019-09-10T14:56:53.600Z</time>
      </trkpt>
      <trkpt lat="10.1567666144818" lon="-75.6832705174345">
        <ele>52.2851891</ele>
        <time>2019-09-10T14:56:53.700Z</time>
      </trkpt>
      <trkpt lat="10.1567648341886" lon="-75.6832683546644">
        <ele>52.2851891</ele>
        <time>2019-09-10T14:56:53.800Z</time>
      </trkpt>
      <trkpt lat="10.1567631191375" lon="-75.6832662655602">
        <ele>52.2851891</ele>
        <time>2019-09-10T14:56:53.900Z</time>
      </trkpt>
      <trkpt lat="10.1567614316005" lon="-75.6832642050033">
        <ele>52.2851891</ele>
        <time>2019-09-10T14:56:54.000Z</time>
      </trkpt>
      <trkpt lat="10.1567597421875" lon="-75.6832621537765">
        <ele>52.2851891</ele>
        <time>2019-09-10T14:56:54.100Z</time>
      </trkpt>
      <trkpt lat="10.1567580413104" lon="-75.6832600877886">
        <ele>52.2851891</ele>
        <time>2019-09-10T14:56:54.200Z</time>
      </trkpt>
      <trkpt lat="10.1567563318871" lon="-75.6832580449171">
        <ele>52.2851891</ele>
        <time>2019-09-10T14:56:54.300Z</time>
      </trkpt>
      <trkpt lat="10.1567546135009" lon="-75.6832559955006">
        <ele>52.2851891</ele>
        <time>2019-09-10T14:56:54.400Z</time>
      </trkpt>
      <trkpt lat="10.1567529034523" lon="-75.6832539345259">
        <ele>52.2851891</ele>
        <time>2019-09-10T14:56:54.500Z</time>
      </trkpt>
      <trkpt lat="10.1567511927784" lon="-75.6832518572584">
        <ele>52.2851891</ele>
        <time>2019-09-10T14:56:54.600Z</time>
      </trkpt>
      <trkpt lat="10.1567494658461" lon="-75.6832497932201">
        <ele>52.2851891</ele>
        <time>2019-09-10T14:56:54.700Z</time>
      </trkpt>
      <trkpt lat="10.1567477297424" lon="-75.6832477279285">
        <ele>52.2851891</ele>
        <time>2019-09-10T14:56:54.800Z</time>
      </trkpt>
      <trkpt lat="10.1567460061452" lon="-75.683245650661">
        <ele>52.2851891</ele>
        <time>2019-09-10T14:56:54.900Z</time>
      </trkpt>
      <trkpt lat="10.1567442815057" lon="-75.6832435687981">
        <ele>52.2851891</ele>
        <time>2019-09-10T14:56:55.000Z</time>
      </trkpt>
      <trkpt lat="10.1567425447767" lon="-75.683241476491">
        <ele>52.2851891</ele>
        <time>2019-09-10T14:56:55.100Z</time>
      </trkpt>
      <trkpt lat="10.1567408013776" lon="-75.6832393809811">
        <ele>52.2851891</ele>
        <time>2019-09-10T14:56:55.200Z</time>
      </trkpt>
      <trkpt lat="10.1567390337994" lon="-75.6832372998144">
        <ele>52.2851891</ele>
        <time>2019-09-10T14:56:55.300Z</time>
      </trkpt>
      <trkpt lat="10.1567372691393" lon="-75.6832352219899">
        <ele>52.2851891</ele>
        <time>2019-09-10T14:56:55.400Z</time>
      </trkpt>
      <trkpt lat="10.1567355094818" lon="-75.6832331365063">
        <ele>52.2851891</ele>
        <time>2019-09-10T14:56:55.500Z</time>
      </trkpt>
      <trkpt lat="10.1567320245595" lon="-75.6832289498034">
        <ele>52.2851891</ele>
        <time>2019-09-10T14:56:55.700Z</time>
      </trkpt>
      <trkpt lat="10.1567302859545" lon="-75.6832268581926">
        <ele>52.3851891</ele>
        <time>2019-09-10T14:56:55.800Z</time>
      </trkpt>
      <trkpt lat="10.1567285469327" lon="-75.6832247947113">
        <ele>52.3851891</ele>
        <time>2019-09-10T14:56:55.900Z</time>
      </trkpt>
      <trkpt lat="10.1567268193751" lon="-75.6832227441807">
        <ele>52.3851891</ele>
        <time>2019-09-10T14:56:56.000Z</time>
      </trkpt>
      <trkpt lat="10.1567251001551" lon="-75.68322068808">
        <ele>52.3851891</ele>
        <time>2019-09-10T14:56:56.100Z</time>
      </trkpt>
      <trkpt lat="10.1567233844786" lon="-75.6832186212566">
        <ele>52.3851891</ele>
        <time>2019-09-10T14:56:56.200Z</time>
      </trkpt>
      <trkpt lat="10.1567216683852" lon="-75.6832165306206">
        <ele>52.3851891</ele>
        <time>2019-09-10T14:56:56.300Z</time>
      </trkpt>
      <trkpt lat="10.1567199558354" lon="-75.683214436364">
        <ele>52.3851891</ele>
        <time>2019-09-10T14:56:56.400Z</time>
      </trkpt>
      <trkpt lat="10.1567182787204" lon="-75.6832123430821">
        <ele>52.3851891</ele>
        <time>2019-09-10T14:56:56.500Z</time>
      </trkpt>
      <trkpt lat="10.1567166045237" lon="-75.6832102470152">
        <ele>52.2851891</ele>
        <time>2019-09-10T14:56:56.600Z</time>
      </trkpt>
      <trkpt lat="10.1567149084406" lon="-75.6832081505304">
        <ele>52.2851891</ele>
        <time>2019-09-10T14:56:56.700Z</time>
      </trkpt>
      <trkpt lat="10.1567131829674" lon="-75.683206048197">
        <ele>52.3851891</ele>
        <time>2019-09-10T14:56:56.800Z</time>
      </trkpt>
      <trkpt lat="10.1567114314391" lon="-75.683203970651">
        <ele>52.3851891</ele>
        <time>2019-09-10T14:56:56.900Z</time>
      </trkpt>
      <trkpt lat="10.1567096763673" lon="-75.6832018864207">
        <ele>52.3851891</ele>
        <time>2019-09-10T14:56:57.000Z</time>
      </trkpt>
      <trkpt lat="10.1567079450578" lon="-75.6831998051148">
        <ele>52.3851891</ele>
        <time>2019-09-10T14:56:57.100Z</time>
      </trkpt>
      <trkpt lat="10.15670622688" lon="-75.6831977068198">
        <ele>52.3851891</ele>
        <time>2019-09-10T14:56:57.200Z</time>
      </trkpt>
      <trkpt lat="10.1567045045334" lon="-75.6831956143735">
        <ele>52.3851891</ele>
        <time>2019-09-10T14:56:57.300Z</time>
      </trkpt>
      <trkpt lat="10.1567027736407" lon="-75.6831935119008">
        <ele>52.3851891</ele>
        <time>2019-09-10T14:56:57.400Z</time>
      </trkpt>
      <trkpt lat="10.1567010594233" lon="-75.6831913863118">
        <ele>52.3851891</ele>
        <time>2019-09-10T14:56:57.500Z</time>
      </trkpt>
      <trkpt lat="10.1566976274451" lon="-75.6831870904329">
        <ele>52.2851891</ele>
        <time>2019-09-10T14:56:57.700Z</time>
      </trkpt>
      <trkpt lat="10.1566959069744" lon="-75.6831849308656">
        <ele>52.2851891</ele>
        <time>2019-09-10T14:56:57.800Z</time>
      </trkpt>
      <trkpt lat="10.1566942127673" lon="-75.6831827362061">
        <ele>52.2851891</ele>
        <time>2019-09-10T14:56:57.900Z</time>
      </trkpt>
      <trkpt lat="10.1566925275232" lon="-75.6831805517122">
        <ele>52.2851891</ele>
        <time>2019-09-10T14:56:58.000Z</time>
      </trkpt>
      <trkpt lat="10.1566908435297" lon="-75.6831783922842">
        <ele>52.2851891</ele>
        <time>2019-09-10T14:56:58.100Z</time>
      </trkpt>
      <trkpt lat="10.1566891493227" lon="-75.6831762566688">
        <ele>52.2851891</ele>
        <time>2019-09-10T14:56:58.200Z</time>
      </trkpt>
      <trkpt lat="10.1566874578253" lon="-75.683174121889">
        <ele>52.2851891</ele>
        <time>2019-09-10T14:56:58.300Z</time>
      </trkpt>
      <trkpt lat="10.1566857682039" lon="-75.6831719901727">
        <ele>52.2851891</ele>
        <time>2019-09-10T14:56:58.400Z</time>
      </trkpt>
      <trkpt lat="10.1566840850442" lon="-75.6831698535825">
        <ele>52.2851891</ele>
        <time>2019-09-10T14:56:58.500Z</time>
      </trkpt>
      <trkpt lat="10.1566823897949" lon="-75.6831677154606">
        <ele>52.2851891</ele>
        <time>2019-09-10T14:56:58.600Z</time>
      </trkpt>
      <trkpt lat="10.1566806641133" lon="-75.6831655898715">
        <ele>52.2851891</ele>
        <time>2019-09-10T14:56:58.700Z</time>
      </trkpt>
      <trkpt lat="10.1566789246746" lon="-75.6831634620545">
        <ele>52.2851891</ele>
        <time>2019-09-10T14:56:58.800Z</time>
      </trkpt>
      <trkpt lat="10.1566771612651" lon="-75.6831612871691">
        <ele>52.2851891</ele>
        <time>2019-09-10T14:56:58.900Z</time>
      </trkpt>
      <trkpt lat="10.1566754001485" lon="-75.6831590948769">
        <ele>52.3851891</ele>
        <time>2019-09-10T14:56:59.000Z</time>
      </trkpt>
      <trkpt lat="10.1566736867649" lon="-75.6831569268151">
        <ele>52.3851891</ele>
        <time>2019-09-10T14:56:59.100Z</time>
      </trkpt>
      <trkpt lat="10.1566719915156" lon="-75.6831547767172">
        <ele>52.3851891</ele>
        <time>2019-09-10T14:56:59.200Z</time>
      </trkpt>
      <trkpt lat="10.1566702858443" lon="-75.6831526443047">
        <ele>52.3851891</ele>
        <time>2019-09-10T14:56:59.300Z</time>
      </trkpt>
      <trkpt lat="10.1566685568276" lon="-75.6831505288813">
        <ele>52.3851891</ele>
        <time>2019-09-10T14:56:59.400Z</time>
      </trkpt>
      <trkpt lat="10.1566668336472" lon="-75.6831484624757">
        <ele>52.3851891</ele>
        <time>2019-09-10T14:56:59.500Z</time>
      </trkpt>
      <trkpt lat="10.1566651213058" lon="-75.6831464143125">
        <ele>52.2851891</ele>
        <time>2019-09-10T14:56:59.600Z</time>
      </trkpt>
      <trkpt lat="10.1566634231383" lon="-75.6831443586295">
        <ele>52.2851891</ele>
        <time>2019-09-10T14:56:59.700Z</time>
      </trkpt>
      <trkpt lat="10.156661729765" lon="-75.6831422919454">
        <ele>52.2851891</ele>
        <time>2019-09-10T14:56:59.800Z</time>
      </trkpt>
      <trkpt lat="10.1566600486897" lon="-75.6831402401615">
        <ele>52.3851891</ele>
        <time>2019-09-10T14:56:59.900Z</time>
      </trkpt>
      <trkpt lat="10.1566583680313" lon="-75.6831381889347">
        <ele>52.3851891</ele>
        <time>2019-09-10T14:57:00.000Z</time>
      </trkpt>
      <trkpt lat="10.156656681745" lon="-75.6831361150093">
        <ele>52.3851891</ele>
        <time>2019-09-10T14:57:00.100Z</time>
      </trkpt>
      <trkpt lat="10.1566549829522" lon="-75.6831340366277">
        <ele>52.3851891</ele>
        <time>2019-09-10T14:57:00.200Z</time>
      </trkpt>
      <trkpt lat="10.1566532804075" lon="-75.6831319661837">
        <ele>52.3851891</ele>
        <time>2019-09-10T14:57:00.300Z</time>
      </trkpt>
      <trkpt lat="10.1566515757784" lon="-75.6831299001959">
        <ele>52.3851891</ele>
        <time>2019-09-10T14:57:00.400Z</time>
      </trkpt>
      <trkpt lat="10.1566498259176" lon="-75.6831277868613">
        <ele>52.3851891</ele>
        <time>2019-09-10T14:57:00.500Z</time>
      </trkpt>
      <trkpt lat="10.1566480652179" lon="-75.6831256694883">
        <ele>52.3851891</ele>
        <time>2019-09-10T14:57:00.600Z</time>
      </trkpt>
      <trkpt lat="10.1566463395362" lon="-75.6831235653446">
        <ele>52.3851891</ele>
        <time>2019-09-10T14:57:00.700Z</time>
      </trkpt>
      <trkpt lat="10.1566446311552" lon="-75.6831214802788">
        <ele>52.3851891</ele>
        <time>2019-09-10T14:57:00.800Z</time>
      </trkpt>
      <trkpt lat="10.1566429190222" lon="-75.6831193936812">
        <ele>52.3851891</ele>
        <time>2019-09-10T14:57:00.900Z</time>
      </trkpt>
      <trkpt lat="10.1566411918815" lon="-75.6831173179454">
        <ele>52.2851891</ele>
        <time>2019-09-10T14:57:01.000Z</time>
      </trkpt>
      <trkpt lat="10.1566377553175" lon="-75.6831132542047">
        <ele>52.3851891</ele>
        <time>2019-09-10T14:57:01.200Z</time>
      </trkpt>
      <trkpt lat="10.1566360288021" lon="-75.6831112227521">
        <ele>52.3851891</ele>
        <time>2019-09-10T14:57:01.300Z</time>
      </trkpt>
      <trkpt lat="10.1566342918646" lon="-75.6831091730571">
        <ele>52.3851891</ele>
        <time>2019-09-10T14:57:01.400Z</time>
      </trkpt>
      <trkpt lat="10.1566325015663" lon="-75.6831070303397">
        <ele>52.3851891</ele>
        <time>2019-09-10T14:57:01.500Z</time>
      </trkpt>
      <trkpt lat="10.1566307139777" lon="-75.683104871608">
        <ele>52.3851891</ele>
        <time>2019-09-10T14:57:01.600Z</time>
      </trkpt>
      <trkpt lat="10.1566289862117" lon="-75.6831027832">
        <ele>52.3851891</ele>
        <time>2019-09-10T14:57:01.700Z</time>
      </trkpt>
      <trkpt lat="10.1566272780391" lon="-75.6831007247319">
        <ele>52.3851891</ele>
        <time>2019-09-10T14:57:01.800Z</time>
      </trkpt>
      <trkpt lat="10.1566255596528" lon="-75.683098677822">
        <ele>52.3851891</ele>
        <time>2019-09-10T14:57:01.900Z</time>
      </trkpt>
      <trkpt lat="10.1566238218816" lon="-75.6830966228353">
        <ele>52.3851891</ele>
        <time>2019-09-10T14:57:02.000Z</time>
      </trkpt>
      <trkpt lat="10.1566220511768" lon="-75.6830945252366">
        <ele>52.3851891</ele>
        <time>2019-09-10T14:57:02.100Z</time>
      </trkpt>
      <trkpt lat="10.1566202721343" lon="-75.6830924183077">
        <ele>52.3851891</ele>
        <time>2019-09-10T14:57:02.200Z</time>
      </trkpt>
      <trkpt lat="10.1566184732899" lon="-75.6830903202912">
        <ele>52.3851891</ele>
        <time>2019-09-10T14:57:02.300Z</time>
      </trkpt>
      <trkpt lat="10.1566166738202" lon="-75.683088223528">
        <ele>52.3851891</ele>
        <time>2019-09-10T14:57:02.400Z</time>
      </trkpt>
      <trkpt lat="10.1566149091601" lon="-75.6830861420828">
        <ele>52.3851891</ele>
        <time>2019-09-10T14:57:02.500Z</time>
      </trkpt>
      <trkpt lat="10.1566131565896" lon="-75.6830840574348">
        <ele>52.3851891</ele>
        <time>2019-09-10T14:57:02.600Z</time>
      </trkpt>
      <trkpt lat="10.156611395473" lon="-75.683081904691">
        <ele>52.3851891</ele>
        <time>2019-09-10T14:57:02.700Z</time>
      </trkpt>
      <trkpt lat="10.1566096235175" lon="-75.6830797334263">
        <ele>52.3851891</ele>
        <time>2019-09-10T14:57:02.800Z</time>
      </trkpt>
      <trkpt lat="10.1566060998252" lon="-75.6830755068964">
        <ele>52.3851891</ele>
        <time>2019-09-10T14:57:03.000Z</time>
      </trkpt>
      <trkpt lat="10.1566043191152" lon="-75.6830733650146">
        <ele>52.3851891</ele>
        <time>2019-09-10T14:57:03.100Z</time>
      </trkpt>
      <trkpt lat="10.1566025431993" lon="-75.6830712100428">
        <ele>52.3851891</ele>
        <time>2019-09-10T14:57:03.200Z</time>
      </trkpt>
      <trkpt lat="10.1566007691594" lon="-75.6830690302835">
        <ele>52.2851891</ele>
        <time>2019-09-10T14:57:03.300Z</time>
      </trkpt>
      <trkpt lat="10.1565990040825" lon="-75.6830668672349">
        <ele>52.2851891</ele>
        <time>2019-09-10T14:57:03.400Z</time>
      </trkpt>
      <trkpt lat="10.1565972769417" lon="-75.6830647214539">
        <ele>52.2851891</ele>
        <time>2019-09-10T14:57:03.500Z</time>
      </trkpt>
      <trkpt lat="10.1565955593893" lon="-75.6830625911302">
        <ele>52.2851891</ele>
        <time>2019-09-10T14:57:03.600Z</time>
      </trkpt>
      <trkpt lat="10.1565938209927" lon="-75.6830604218151">
        <ele>52.2851891</ele>
        <time>2019-09-10T14:57:03.700Z</time>
      </trkpt>
      <trkpt lat="10.1565920636281" lon="-75.6830582540318">
        <ele>52.2851891</ele>
        <time>2019-09-10T14:57:03.800Z</time>
      </trkpt>
      <trkpt lat="10.1565903068888" lon="-75.6830561050479">
        <ele>52.2851891</ele>
        <time>2019-09-10T14:57:03.900Z</time>
      </trkpt>
      <trkpt lat="10.1565885522338" lon="-75.6830539748635">
        <ele>52.2851891</ele>
        <time>2019-09-10T14:57:04.000Z</time>
      </trkpt>
      <trkpt lat="10.1565867748589" lon="-75.6830518066624">
        <ele>52.2851891</ele>
        <time>2019-09-10T14:57:04.100Z</time>
      </trkpt>
      <trkpt lat="10.1565849968586" lon="-75.6830496411072">
        <ele>52.2851891</ele>
        <time>2019-09-10T14:57:04.200Z</time>
      </trkpt>
      <trkpt lat="10.1565832555439" lon="-75.6830475254053">
        <ele>52.2851891</ele>
        <time>2019-09-10T14:57:04.300Z</time>
      </trkpt>
      <trkpt lat="10.156581523609" lon="-75.6830454266925">
        <ele>52.2851891</ele>
        <time>2019-09-10T14:57:04.400Z</time>
      </trkpt>
      <trkpt lat="10.15657982565" lon="-75.6830433739339">
        <ele>52.2851891</ele>
        <time>2019-09-10T14:57:04.500Z</time>
      </trkpt>
      <trkpt lat="10.1565781193533" lon="-75.6830413142125">
        <ele>52.2851891</ele>
        <time>2019-09-10T14:57:04.600Z</time>
      </trkpt>
      <trkpt lat="10.1565764395287" lon="-75.6830392824814">
        <ele>52.2851891</ele>
        <time>2019-09-10T14:57:04.700Z</time>
      </trkpt>
      <trkpt lat="10.1565747444878" lon="-75.6830372315331">
        <ele>52.2851891</ele>
        <time>2019-09-10T14:57:04.800Z</time>
      </trkpt>
      <trkpt lat="10.1565730240172" lon="-75.6830351301744">
        <ele>52.2851891</ele>
        <time>2019-09-10T14:57:04.900Z</time>
      </trkpt>
      <trkpt lat="10.1565712735311" lon="-75.6830329953946">
        <ele>52.2851891</ele>
        <time>2019-09-10T14:57:05.000Z</time>
      </trkpt>
      <trkpt lat="10.1565695195015" lon="-75.6830308638176">
        <ele>52.2851891</ele>
        <time>2019-09-10T14:57:05.100Z</time>
      </trkpt>
      <trkpt lat="10.1565677600524" lon="-75.683028744495">
        <ele>52.2851891</ele>
        <time>2019-09-10T14:57:05.200Z</time>
      </trkpt>
      <trkpt lat="10.1565642484498" lon="-75.6830244816196">
        <ele>52.2851891</ele>
        <time>2019-09-10T14:57:05.400Z</time>
      </trkpt>
      <trkpt lat="10.1565607560236" lon="-75.6830202027298">
        <ele>52.2851891</ele>
        <time>2019-09-10T14:57:05.600Z</time>
      </trkpt>
      <trkpt lat="10.1565589940733" lon="-75.68301807728">
        <ele>52.2851891</ele>
        <time>2019-09-10T14:57:05.700Z</time>
      </trkpt>
      <trkpt lat="10.1565572287879" lon="-75.6830159695157">
        <ele>52.2851891</ele>
        <time>2019-09-10T14:57:05.800Z</time>
      </trkpt>
      <trkpt lat="10.1565554783018" lon="-75.6830138471295">
        <ele>52.2851891</ele>
        <time>2019-09-10T14:57:05.900Z</time>
      </trkpt>
      <trkpt lat="10.1565537340689" lon="-75.6830117342127">
        <ele>52.2851891</ele>
        <time>2019-09-10T14:57:06.000Z</time>
      </trkpt>
      <trkpt lat="10.1565519767042" lon="-75.6830096313222">
        <ele>52.2851891</ele>
        <time>2019-09-10T14:57:06.100Z</time>
      </trkpt>
      <trkpt lat="10.1565502157961" lon="-75.6830075473705">
        <ele>52.2851891</ele>
        <time>2019-09-10T14:57:06.200Z</time>
      </trkpt>
      <trkpt lat="10.1565484392549" lon="-75.6830054638365">
        <ele>52.2851891</ele>
        <time>2019-09-10T14:57:06.300Z</time>
      </trkpt>
      <trkpt lat="10.15654666855" lon="-75.6830033875438">
        <ele>52.2851891</ele>
        <time>2019-09-10T14:57:06.400Z</time>
      </trkpt>
      <trkpt lat="10.1565449078503" lon="-75.6830013219736">
        <ele>52.2851891</ele>
        <time>2019-09-10T14:57:06.500Z</time>
      </trkpt>
      <trkpt lat="10.1565431619499" lon="-75.6829992616953">
        <ele>52.2851891</ele>
        <time>2019-09-10T14:57:06.600Z</time>
      </trkpt>
      <trkpt lat="10.156541400208" lon="-75.682997151285">
        <ele>52.2851891</ele>
        <time>2019-09-10T14:57:06.700Z</time>
      </trkpt>
      <trkpt lat="10.1565396428433" lon="-75.6829950372542">
        <ele>52.2851891</ele>
        <time>2019-09-10T14:57:06.800Z</time>
      </trkpt>
      <trkpt lat="10.1565379113254" lon="-75.6829929648606">
        <ele>52.2851891</ele>
        <time>2019-09-10T14:57:06.900Z</time>
      </trkpt>
      <trkpt lat="10.1565361941898" lon="-75.6829909129375">
        <ele>52.2851891</ele>
        <time>2019-09-10T14:57:07.000Z</time>
      </trkpt>
      <trkpt lat="10.1565344805977" lon="-75.6829888807886">
        <ele>52.2851891</ele>
        <time>2019-09-10T14:57:07.100Z</time>
      </trkpt>
      <trkpt lat="10.1565327661719" lon="-75.6829868407022">
        <ele>52.2851891</ele>
        <time>2019-09-10T14:57:07.200Z</time>
      </trkpt>
      <trkpt lat="10.1565310498701" lon="-75.6829848035401">
        <ele>52.2851891</ele>
        <time>2019-09-10T14:57:07.300Z</time>
      </trkpt>
      <trkpt lat="10.1565293314839" lon="-75.6829827548199">
        <ele>52.2851891</ele>
        <time>2019-09-10T14:57:07.400Z</time>
      </trkpt>
      <trkpt lat="10.1565275980899" lon="-75.682980708467">
        <ele>52.2851891</ele>
        <time>2019-09-10T14:57:07.500Z</time>
      </trkpt>
      <trkpt lat="10.1565258607356" lon="-75.6829786498596">
        <ele>52.2851891</ele>
        <time>2019-09-10T14:57:07.600Z</time>
      </trkpt>
      <trkpt lat="10.1565241129592" lon="-75.682976568693">
        <ele>52.2851891</ele>
        <time>2019-09-10T14:57:07.700Z</time>
      </trkpt>
      <trkpt lat="10.1565223653913" lon="-75.6829744698409">
        <ele>52.2851891</ele>
        <time>2019-09-10T14:57:07.800Z</time>
      </trkpt>
      <trkpt lat="10.1565206080266" lon="-75.6829723456445">
        <ele>52.2851891</ele>
        <time>2019-09-10T14:57:07.900Z</time>
      </trkpt>
      <trkpt lat="10.1565188510788" lon="-75.6829702217265">
        <ele>52.2851891</ele>
        <time>2019-09-10T14:57:08.000Z</time>
      </trkpt>
      <trkpt lat="10.1565170918382" lon="-75.6829680922384">
        <ele>52.2851891</ele>
        <time>2019-09-10T14:57:08.100Z</time>
      </trkpt>
      <trkpt lat="10.1565153332229" lon="-75.6829659695737">
        <ele>52.2851891</ele>
        <time>2019-09-10T14:57:08.200Z</time>
      </trkpt>
      <trkpt lat="10.1565135800271" lon="-75.68296385234">
        <ele>52.2851891</ele>
        <time>2019-09-10T14:57:08.300Z</time>
      </trkpt>
      <trkpt lat="10.1565118324592" lon="-75.6829617431831">
        <ele>52.2851891</ele>
        <time>2019-09-10T14:57:08.400Z</time>
      </trkpt>
      <trkpt lat="10.1565100946879" lon="-75.6829596370897">
        <ele>52.2851891</ele>
        <time>2019-09-10T14:57:08.500Z</time>
      </trkpt>
      <trkpt lat="10.1565083617109" lon="-75.6829575277936">
        <ele>52.3851891</ele>
        <time>2019-09-10T14:57:08.600Z</time>
      </trkpt>
      <trkpt lat="10.156506638739" lon="-75.6829554222573">
        <ele>52.2851891</ele>
        <time>2019-09-10T14:57:08.700Z</time>
      </trkpt>
      <trkpt lat="10.1565049182683" lon="-75.6829533136574">
        <ele>52.3851891</ele>
        <time>2019-09-10T14:57:08.800Z</time>
      </trkpt>
      <trkpt lat="10.1565031977977" lon="-75.6829512153623">
        <ele>52.2851891</ele>
        <time>2019-09-10T14:57:08.900Z</time>
      </trkpt>
      <trkpt lat="10.1564997970855" lon="-75.6829470179367">
        <ele>52.2851891</ele>
        <time>2019-09-10T14:57:09.100Z</time>
      </trkpt>
      <trkpt lat="10.156498116844" lon="-75.6829449210343">
        <ele>52.2851891</ele>
        <time>2019-09-10T14:57:09.200Z</time>
      </trkpt>
      <trkpt lat="10.1564963984578" lon="-75.6829428267776">
        <ele>52.2851891</ele>
        <time>2019-09-10T14:57:09.300Z</time>
      </trkpt>
      <trkpt lat="10.156494667982" lon="-75.6829407348883">
        <ele>52.2851891</ele>
        <time>2019-09-10T14:57:09.400Z</time>
      </trkpt>
      <trkpt lat="10.1564929673133" lon="-75.6829386799016">
        <ele>52.2851891</ele>
        <time>2019-09-10T14:57:09.500Z</time>
      </trkpt>
      <trkpt lat="10.1564895624323" lon="-75.6829345727133">
        <ele>52.3851891</ele>
        <time>2019-09-10T14:57:09.700Z</time>
      </trkpt>
      <trkpt lat="10.1564878365422" lon="-75.6829325019908">
        <ele>52.3851891</ele>
        <time>2019-09-10T14:57:09.800Z</time>
      </trkpt>
      <trkpt lat="10.1564861166969" lon="-75.6829304194316">
        <ele>52.3851891</ele>
        <time>2019-09-10T14:57:09.900Z</time>
      </trkpt>
      <trkpt lat="10.15648439706" lon="-75.6829283258712">
        <ele>52.3851891</ele>
        <time>2019-09-10T14:57:10.000Z</time>
      </trkpt>
      <trkpt lat="10.1564809752953" lon="-75.6829240993413">
        <ele>52.3851891</ele>
        <time>2019-09-10T14:57:10.200Z</time>
      </trkpt>
      <trkpt lat="10.1564792516981" lon="-75.6829219431162">
        <ele>52.3851891</ele>
        <time>2019-09-10T14:57:10.300Z</time>
      </trkpt>
      <trkpt lat="10.1564775151775" lon="-75.6829197864733">
        <ele>52.3851891</ele>
        <time>2019-09-10T14:57:10.400Z</time>
      </trkpt>
      <trkpt lat="10.156475767818" lon="-75.68291764111">
        <ele>52.3851891</ele>
        <time>2019-09-10T14:57:10.500Z</time>
      </trkpt>
      <trkpt lat="10.1564740189995" lon="-75.6829155153818">
        <ele>52.3851891</ele>
        <time>2019-09-10T14:57:10.600Z</time>
      </trkpt>
      <trkpt lat="10.1564722972782" lon="-75.6829133746139">
        <ele>52.3851891</ele>
        <time>2019-09-10T14:57:10.700Z</time>
      </trkpt>
      <trkpt lat="10.1564705805595" lon="-75.6829112348209">
        <ele>52.3851891</ele>
        <time>2019-09-10T14:57:10.800Z</time>
      </trkpt>
      <trkpt lat="10.1564671412858" lon="-75.6829069865672">
        <ele>52.3851891</ele>
        <time>2019-09-10T14:57:11.000Z</time>
      </trkpt>
      <trkpt lat="10.1564654183139" lon="-75.682904854294">
        <ele>52.3851891</ele>
        <time>2019-09-10T14:57:11.100Z</time>
      </trkpt>
      <trkpt lat="10.1564636878381" lon="-75.6829027174253">
        <ele>52.3851891</ele>
        <time>2019-09-10T14:57:11.200Z</time>
      </trkpt>
      <trkpt lat="10.1564619263046" lon="-75.6829005600861">
        <ele>52.3851891</ele>
        <time>2019-09-10T14:57:11.300Z</time>
      </trkpt>
      <trkpt lat="10.1564584099078" lon="-75.6828962796645">
        <ele>52.3851891</ele>
        <time>2019-09-10T14:57:11.500Z</time>
      </trkpt>
      <trkpt lat="10.156456681308" lon="-75.6828941606205">
        <ele>52.3851891</ele>
        <time>2019-09-10T14:57:11.600Z</time>
      </trkpt>
      <trkpt lat="10.156454940827" lon="-75.6828920365633">
        <ele>52.3851891</ele>
        <time>2019-09-10T14:57:11.700Z</time>
      </trkpt>
      <trkpt lat="10.1564532015967" lon="-75.6828899186333">
        <ele>52.3851891</ele>
        <time>2019-09-10T14:57:11.800Z</time>
      </trkpt>
      <trkpt lat="10.1564497544022" lon="-75.6828856694048">
        <ele>52.3851891</ele>
        <time>2019-09-10T14:57:12.000Z</time>
      </trkpt>
      <trkpt lat="10.1564480849996" lon="-75.6828836393448">
        <ele>52.3851891</ele>
        <time>2019-09-10T14:57:12.100Z</time>
      </trkpt>
      <trkpt lat="10.1564464262275" lon="-75.6828816305907">
        <ele>52.3851891</ele>
        <time>2019-09-10T14:57:12.200Z</time>
      </trkpt>
      <trkpt lat="10.1564447555742" lon="-75.6828796240648">
        <ele>52.3851891</ele>
        <time>2019-09-10T14:57:12.300Z</time>
      </trkpt>
      <trkpt lat="10.1564430649106" lon="-75.682877588156">
        <ele>52.3851891</ele>
        <time>2019-09-10T14:57:12.400Z</time>
      </trkpt>
      <trkpt lat="10.1564396731614" lon="-75.6828735459998">
        <ele>52.3851891</ele>
        <time>2019-09-10T14:57:12.600Z</time>
      </trkpt>
      <trkpt lat="10.1564379468545" lon="-75.6828714985328">
        <ele>52.3851891</ele>
        <time>2019-09-10T14:57:12.700Z</time>
      </trkpt>
      <trkpt lat="10.1564362153365" lon="-75.6828694389507">
        <ele>52.3851891</ele>
        <time>2019-09-10T14:57:12.800Z</time>
      </trkpt>
      <trkpt lat="10.1564344846522" lon="-75.682867404156">
        <ele>52.3851891</ele>
        <time>2019-09-10T14:57:12.900Z</time>
      </trkpt>
      <trkpt lat="10.1564327598044" lon="-75.6828653759062">
        <ele>52.3851891</ele>
        <time>2019-09-10T14:57:13.000Z</time>
      </trkpt>
      <trkpt lat="10.1564310207825" lon="-75.6828633472387">
        <ele>52.3851891</ele>
        <time>2019-09-10T14:57:13.100Z</time>
      </trkpt>
      <trkpt lat="10.1564275293986" lon="-75.6828592585713">
        <ele>52.3851891</ele>
        <time>2019-09-10T14:57:13.300Z</time>
      </trkpt>
      <trkpt lat="10.1564257845404" lon="-75.6828572028884">
        <ele>52.3851891</ele>
        <time>2019-09-10T14:57:13.400Z</time>
      </trkpt>
      <trkpt lat="10.1564240357218" lon="-75.6828551441418">
        <ele>52.3851891</ele>
        <time>2019-09-10T14:57:13.500Z</time>
      </trkpt>
      <trkpt lat="10.1564222937818" lon="-75.6828530828886">
        <ele>52.3851891</ele>
        <time>2019-09-10T14:57:13.600Z</time>
      </trkpt>
      <trkpt lat="10.1564205470476" lon="-75.6828509954554">
        <ele>52.3851891</ele>
        <time>2019-09-10T14:57:13.700Z</time>
      </trkpt>
      <trkpt lat="10.1564188036485" lon="-75.6828488986922">
        <ele>52.3851891</ele>
        <time>2019-09-10T14:57:13.800Z</time>
      </trkpt>
      <trkpt lat="10.1564170560806" lon="-75.6828468055496">
        <ele>52.2851891</ele>
        <time>2019-09-10T14:57:13.900Z</time>
      </trkpt>
      <trkpt lat="10.1564153103886" lon="-75.6828447203445">
        <ele>52.2851891</ele>
        <time>2019-09-10T14:57:14.000Z</time>
      </trkpt>
      <trkpt lat="10.1564135594856" lon="-75.6828425941985">
        <ele>52.2851891</ele>
        <time>2019-09-10T14:57:14.100Z</time>
      </trkpt>
      <trkpt lat="10.1564118123346" lon="-75.6828404634571">
        <ele>52.2851891</ele>
        <time>2019-09-10T14:57:14.200Z</time>
      </trkpt>
      <trkpt lat="10.1564100410044" lon="-75.6828382973448">
        <ele>52.2851891</ele>
        <time>2019-09-10T14:57:14.300Z</time>
      </trkpt>
      <trkpt lat="10.1564082684235" lon="-75.6828361430693">
        <ele>52.2851891</ele>
        <time>2019-09-10T14:57:14.400Z</time>
      </trkpt>
      <trkpt lat="10.1564064754155" lon="-75.6828339269645">
        <ele>52.2851891</ele>
        <time>2019-09-10T14:57:14.500Z</time>
      </trkpt>
      <trkpt lat="10.1564046909535" lon="-75.6828317373181">
        <ele>52.1851891</ele>
        <time>2019-09-10T14:57:14.600Z</time>
      </trkpt>
      <trkpt lat="10.1564029392168" lon="-75.682829622591">
        <ele>52.1851891</ele>
        <time>2019-09-10T14:57:14.700Z</time>
      </trkpt>
      <trkpt lat="10.1564011987358" lon="-75.6828275437917">
        <ele>52.2851891</ele>
        <time>2019-09-10T14:57:14.800Z</time>
      </trkpt>
      <trkpt lat="10.1563995109904" lon="-75.6828255271001">
        <ele>52.2851891</ele>
        <time>2019-09-10T14:57:14.900Z</time>
      </trkpt>
      <trkpt lat="10.1563978340839" lon="-75.6828235165357">
        <ele>52.2851891</ele>
        <time>2019-09-10T14:57:15.000Z</time>
      </trkpt>
      <trkpt lat="10.1563961194497" lon="-75.6828214573714">
        <ele>52.2851891</ele>
        <time>2019-09-10T14:57:15.100Z</time>
      </trkpt>
      <trkpt lat="10.1563943677129" lon="-75.6828193500248">
        <ele>52.2851891</ele>
        <time>2019-09-10T14:57:15.200Z</time>
      </trkpt>
      <trkpt lat="10.1563926136833" lon="-75.6828172577177">
        <ele>52.2851891</ele>
        <time>2019-09-10T14:57:15.300Z</time>
      </trkpt>
      <trkpt lat="10.1563908659069" lon="-75.6828151772473">
        <ele>52.2851891</ele>
        <time>2019-09-10T14:57:15.400Z</time>
      </trkpt>
      <trkpt lat="10.1563890939514" lon="-75.6828130602921">
        <ele>52.2851891</ele>
        <time>2019-09-10T14:57:15.500Z</time>
      </trkpt>
      <trkpt lat="10.156387323455" lon="-75.6828109388807">
        <ele>52.2851891</ele>
        <time>2019-09-10T14:57:15.600Z</time>
      </trkpt>
      <trkpt lat="10.1563855810981" lon="-75.6828088159376">
        <ele>52.2851891</ele>
        <time>2019-09-10T14:57:15.700Z</time>
      </trkpt>
      <trkpt lat="10.1563838516645" lon="-75.6828067021852">
        <ele>52.2851891</ele>
        <time>2019-09-10T14:57:15.800Z</time>
      </trkpt>
      <trkpt lat="10.1563821018037" lon="-75.6828045859263">
        <ele>52.2851891</ele>
        <time>2019-09-10T14:57:15.900Z</time>
      </trkpt>
      <trkpt lat="10.1563803446475" lon="-75.6828024788582">
        <ele>52.2851891</ele>
        <time>2019-09-10T14:57:16.000Z</time>
      </trkpt>
      <trkpt lat="10.1563785672726" lon="-75.6828003410148">
        <ele>52.2851891</ele>
        <time>2019-09-10T14:57:16.100Z</time>
      </trkpt>
      <trkpt lat="10.1563767961508" lon="-75.6827982083237">
        <ele>52.2851891</ele>
        <time>2019-09-10T14:57:16.200Z</time>
      </trkpt>
      <trkpt lat="10.1563750312823" lon="-75.6827960775823">
        <ele>52.2851891</ele>
        <time>2019-09-10T14:57:16.300Z</time>
      </trkpt>
      <trkpt lat="10.1563732789202" lon="-75.6827939632729">
        <ele>52.2851891</ele>
        <time>2019-09-10T14:57:16.400Z</time>
      </trkpt>
      <trkpt lat="10.1563715313523" lon="-75.6827918275183">
        <ele>52.2851891</ele>
        <time>2019-09-10T14:57:16.500Z</time>
      </trkpt>
      <trkpt lat="10.1563697914967" lon="-75.6827896990049">
        <ele>52.2851891</ele>
        <time>2019-09-10T14:57:16.600Z</time>
      </trkpt>
      <trkpt lat="10.1563680564352" lon="-75.6827876061408">
        <ele>52.2851891</ele>
        <time>2019-09-10T14:57:16.700Z</time>
      </trkpt>
      <trkpt lat="10.1563663230412" lon="-75.6827855319369">
        <ele>52.2851891</ele>
        <time>2019-09-10T14:57:16.800Z</time>
      </trkpt>
      <trkpt lat="10.1563646163277" lon="-75.6827834868373">
        <ele>52.2851891</ele>
        <time>2019-09-10T14:57:16.900Z</time>
      </trkpt>
      <trkpt lat="10.1563629123239" lon="-75.6827814404844">
        <ele>52.2851891</ele>
        <time>2019-09-10T14:57:17.000Z</time>
      </trkpt>
      <trkpt lat="10.1563611853916" lon="-75.6827793238077">
        <ele>52.2851891</ele>
        <time>2019-09-10T14:57:17.100Z</time>
      </trkpt>
      <trkpt lat="10.156359447412" lon="-75.6827771951551">
        <ele>52.2851891</ele>
        <time>2019-09-10T14:57:17.200Z</time>
      </trkpt>
      <trkpt lat="10.1563577246485" lon="-75.6827750871122">
        <ele>52.2851891</ele>
        <time>2019-09-10T14:57:17.300Z</time>
      </trkpt>
      <trkpt lat="10.1563560073045" lon="-75.682772998008">
        <ele>52.2851891</ele>
        <time>2019-09-10T14:57:17.400Z</time>
      </trkpt>
      <trkpt lat="10.1563543074695" lon="-75.682770957086">
        <ele>52.2851891</ele>
        <time>2019-09-10T14:57:17.500Z</time>
      </trkpt>
      <trkpt lat="10.1563508998788" lon="-75.6827668835975">
        <ele>52.2851891</ele>
        <time>2019-09-10T14:57:17.700Z</time>
      </trkpt>
      <trkpt lat="10.1563491831601" lon="-75.6827648217872">
        <ele>52.2851891</ele>
        <time>2019-09-10T14:57:17.800Z</time>
      </trkpt>
      <trkpt lat="10.15634747999" lon="-75.6827627418739">
        <ele>52.2851891</ele>
        <time>2019-09-10T14:57:17.900Z</time>
      </trkpt>
      <trkpt lat="10.1563457772369" lon="-75.6827606552763">
        <ele>52.2851891</ele>
        <time>2019-09-10T14:57:18.000Z</time>
      </trkpt>
      <trkpt lat="10.1563440601013" lon="-75.6827585512718">
        <ele>52.2851891</ele>
        <time>2019-09-10T14:57:18.100Z</time>
      </trkpt>
      <trkpt lat="10.156342335045" lon="-75.6827564513057">
        <ele>52.2851891</ele>
        <time>2019-09-10T14:57:18.200Z</time>
      </trkpt>
      <trkpt lat="10.156340628123" lon="-75.6827543649866">
        <ele>52.2851891</ele>
        <time>2019-09-10T14:57:18.300Z</time>
      </trkpt>
      <trkpt lat="10.1563389186998" lon="-75.6827522867443">
        <ele>52.2851891</ele>
        <time>2019-09-10T14:57:18.400Z</time>
      </trkpt>
      <trkpt lat="10.1563354727559" lon="-75.6827481050545">
        <ele>52.2851891</ele>
        <time>2019-09-10T14:57:18.600Z</time>
      </trkpt>
      <trkpt lat="10.1563337379029" lon="-75.68274600105">
        <ele>52.2851891</ele>
        <time>2019-09-10T14:57:18.700Z</time>
      </trkpt>
      <trkpt lat="10.1563320015908" lon="-75.6827439010839">
        <ele>52.2851891</ele>
        <time>2019-09-10T14:57:18.800Z</time>
      </trkpt>
      <trkpt lat="10.1563302575663" lon="-75.682741797915">
        <ele>52.2851891</ele>
        <time>2019-09-10T14:57:18.900Z</time>
      </trkpt>
      <trkpt lat="10.1563285162516" lon="-75.6827397022658">
        <ele>52.2851891</ele>
        <time>2019-09-10T14:57:19.000Z</time>
      </trkpt>
      <trkpt lat="10.1563267672246" lon="-75.6827375769553">
        <ele>52.2851891</ele>
        <time>2019-09-10T14:57:19.100Z</time>
      </trkpt>
      <trkpt lat="10.1563250236171" lon="-75.6827354534551">
        <ele>52.2851891</ele>
        <time>2019-09-10T14:57:19.200Z</time>
      </trkpt>
      <trkpt lat="10.1563232481181" lon="-75.6827333225744">
        <ele>52.2851891</ele>
        <time>2019-09-10T14:57:19.300Z</time>
      </trkpt>
      <trkpt lat="10.1563214751203" lon="-75.682731208265">
        <ele>52.2851891</ele>
        <time>2019-09-10T14:57:19.400Z</time>
      </trkpt>
      <trkpt lat="10.1563197012889" lon="-75.6827290890817">
        <ele>52.2851891</ele>
        <time>2019-09-10T14:57:19.500Z</time>
      </trkpt>
      <trkpt lat="10.1563179418398" lon="-75.6827269810389">
        <ele>52.2851891</ele>
        <time>2019-09-10T14:57:19.600Z</time>
      </trkpt>
      <trkpt lat="10.1563161598791" lon="-75.6827248164584">
        <ele>52.2851891</ele>
        <time>2019-09-10T14:57:19.700Z</time>
      </trkpt>
      <trkpt lat="10.1563143856308" lon="-75.6827226560556">
        <ele>52.2851891</ele>
        <time>2019-09-10T14:57:19.800Z</time>
      </trkpt>
      <trkpt lat="10.1563126136753" lon="-75.682720527403">
        <ele>52.2851891</ele>
        <time>2019-09-10T14:57:19.900Z</time>
      </trkpt>
      <trkpt lat="10.15631085506" lon="-75.6827184260444">
        <ele>52.2851891</ele>
        <time>2019-09-10T14:57:20.000Z</time>
      </trkpt>
      <trkpt lat="10.1563091056161" lon="-75.6827163053293">
        <ele>52.2851891</ele>
        <time>2019-09-10T14:57:20.100Z</time>
      </trkpt>
      <trkpt lat="10.1563073638845" lon="-75.6827141846142">
        <ele>52.2851891</ele>
        <time>2019-09-10T14:57:20.200Z</time>
      </trkpt>
      <trkpt lat="10.1563056267386" lon="-75.682712094953">
        <ele>52.2851891</ele>
        <time>2019-09-10T14:57:20.300Z</time>
      </trkpt>
      <trkpt lat="10.1563038931362" lon="-75.6827100236734">
        <ele>52.2851891</ele>
        <time>2019-09-10T14:57:20.400Z</time>
      </trkpt>
      <trkpt lat="10.1563021626604" lon="-75.6827079546219">
        <ele>52.2851891</ele>
        <time>2019-09-10T14:57:20.500Z</time>
      </trkpt>
      <trkpt lat="10.1563004307255" lon="-75.6827058813928">
        <ele>52.2851891</ele>
        <time>2019-09-10T14:57:20.600Z</time>
      </trkpt>
      <trkpt lat="10.1562986992076" lon="-75.682703802315">
        <ele>52.2851891</ele>
        <time>2019-09-10T14:57:20.700Z</time>
      </trkpt>
      <trkpt lat="10.156296967898" lon="-75.6827017222624">
        <ele>52.2851891</ele>
        <time>2019-09-10T14:57:20.800Z</time>
      </trkpt>
      <trkpt lat="10.1562952367969" lon="-75.682699655439">
        <ele>52.2851891</ele>
        <time>2019-09-10T14:57:20.900Z</time>
      </trkpt>
      <trkpt lat="10.1562935056958" lon="-75.6826975911222">
        <ele>52.2851891</ele>
        <time>2019-09-10T14:57:21.000Z</time>
      </trkpt>
      <trkpt lat="10.156291768133" lon="-75.6826955166398">
        <ele>52.2851891</ele>
        <time>2019-09-10T14:57:21.100Z</time>
      </trkpt>
      <trkpt lat="10.1562900324462" lon="-75.6826934350553">
        <ele>52.2851891</ele>
        <time>2019-09-10T14:57:21.200Z</time>
      </trkpt>
      <trkpt lat="10.156288294675" lon="-75.6826913353677">
        <ele>52.2851891</ele>
        <time>2019-09-10T14:57:21.300Z</time>
      </trkpt>
      <trkpt lat="10.1562848233014" lon="-75.6826871261055">
        <ele>52.2851891</ele>
        <time>2019-09-10T14:57:21.500Z</time>
      </trkpt>
      <trkpt lat="10.1562830869893" lon="-75.6826850204299">
        <ele>52.2851891</ele>
        <time>2019-09-10T14:57:21.600Z</time>
      </trkpt>
      <trkpt lat="10.1562813446324" lon="-75.6826829098805">
        <ele>52.2851891</ele>
        <time>2019-09-10T14:57:21.700Z</time>
      </trkpt>
      <trkpt lat="10.1562796024839" lon="-75.6826808065723">
        <ele>52.2851891</ele>
        <time>2019-09-10T14:57:21.800Z</time>
      </trkpt>
      <trkpt lat="10.1562778580426" lon="-75.6826786976938">
        <ele>52.2851891</ele>
        <time>2019-09-10T14:57:21.900Z</time>
      </trkpt>
      <trkpt lat="10.1562761179785" lon="-75.6826765960567">
        <ele>52.2851891</ele>
        <time>2019-09-10T14:57:22.000Z</time>
      </trkpt>
      <trkpt lat="10.1562743812495" lon="-75.6826744902419">
        <ele>52.2851891</ele>
        <time>2019-09-10T14:57:22.100Z</time>
      </trkpt>
      <trkpt lat="10.1562726478555" lon="-75.6826723897188">
        <ele>52.2851891</ele>
        <time>2019-09-10T14:57:22.200Z</time>
      </trkpt>
      <trkpt lat="10.1562708865305" lon="-75.6826702559137">
        <ele>52.2851891</ele>
        <time>2019-09-10T14:57:22.300Z</time>
      </trkpt>
      <trkpt lat="10.1562691245802" lon="-75.6826681243367">
        <ele>52.2851891</ele>
        <time>2019-09-10T14:57:22.400Z</time>
      </trkpt>
      <trkpt lat="10.1562673851414" lon="-75.6826660164331">
        <ele>52.2851891</ele>
        <time>2019-09-10T14:57:22.500Z</time>
      </trkpt>
      <trkpt lat="10.1562656611273" lon="-75.6826639251008">
        <ele>52.2851891</ele>
        <time>2019-09-10T14:57:22.600Z</time>
      </trkpt>
      <trkpt lat="10.1562639623345" lon="-75.6826618071708">
        <ele>52.2851891</ele>
        <time>2019-09-10T14:57:22.700Z</time>
      </trkpt>
      <trkpt lat="10.1562622643755" lon="-75.6826596829743">
        <ele>52.2851891</ele>
        <time>2019-09-10T14:57:22.800Z</time>
      </trkpt>
      <trkpt lat="10.1562605614139" lon="-75.6826575860719">
        <ele>52.2851891</ele>
        <time>2019-09-10T14:57:22.900Z</time>
      </trkpt>
      <trkpt lat="10.1562588428193" lon="-75.6826555054622">
        <ele>52.2851891</ele>
        <time>2019-09-10T14:57:23.000Z</time>
      </trkpt>
      <trkpt lat="10.156257112135" lon="-75.6826534032681">
        <ele>52.2851891</ele>
        <time>2019-09-10T14:57:23.100Z</time>
      </trkpt>
      <trkpt lat="10.156255375406" lon="-75.6826512962">
        <ele>52.2851891</ele>
        <time>2019-09-10T14:57:23.200Z</time>
      </trkpt>
      <trkpt lat="10.1562536538932" lon="-75.6826492168436">
        <ele>52.2851891</ele>
        <time>2019-09-10T14:57:23.300Z</time>
      </trkpt>
      <trkpt lat="10.1562519350901" lon="-75.6826471505773">
        <ele>52.2851891</ele>
        <time>2019-09-10T14:57:23.400Z</time>
      </trkpt>
      <trkpt lat="10.1562502129519" lon="-75.6826450553458">
        <ele>52.2851891</ele>
        <time>2019-09-10T14:57:23.500Z</time>
      </trkpt>
      <trkpt lat="10.1562484858112" lon="-75.6826429516199">
        <ele>52.2851891</ele>
        <time>2019-09-10T14:57:23.600Z</time>
      </trkpt>
      <trkpt lat="10.1562467545017" lon="-75.6826408612624">
        <ele>52.2851891</ele>
        <time>2019-09-10T14:57:23.700Z</time>
      </trkpt>
      <trkpt lat="10.156245023609" lon="-75.6826387839948">
        <ele>52.2851891</ele>
        <time>2019-09-10T14:57:23.800Z</time>
      </trkpt>
      <trkpt lat="10.1562433168955" lon="-75.6826367508712">
        <ele>52.2851891</ele>
        <time>2019-09-10T14:57:23.900Z</time>
      </trkpt>
      <trkpt lat="10.156241613517" lon="-75.6826347201148">
        <ele>52.2851891</ele>
        <time>2019-09-10T14:57:24.000Z</time>
      </trkpt>
      <trkpt lat="10.1562399293151" lon="-75.6826327312743">
        <ele>52.2851891</ele>
        <time>2019-09-10T14:57:24.100Z</time>
      </trkpt>
      <trkpt lat="10.156238236984" lon="-75.6826307260016">
        <ele>52.2851891</ele>
        <time>2019-09-10T14:57:24.200Z</time>
      </trkpt>
      <trkpt lat="10.1562365346477" lon="-75.6826287547072">
        <ele>52.2851891</ele>
        <time>2019-09-10T14:57:24.300Z</time>
      </trkpt>
      <trkpt lat="10.1562348206387" lon="-75.6826267590431">
        <ele>52.1851891</ele>
        <time>2019-09-10T14:57:24.400Z</time>
      </trkpt>
      <trkpt lat="10.15623311997" lon="-75.6826247898375">
        <ele>52.1851891</ele>
        <time>2019-09-10T14:57:24.500Z</time>
      </trkpt>
      <trkpt lat="10.1562314203435" lon="-75.6826227982119">
        <ele>52.1851891</ele>
        <time>2019-09-10T14:57:24.600Z</time>
      </trkpt>
      <trkpt lat="10.1562297365584" lon="-75.6826208271959">
        <ele>52.1851891</ele>
        <time>2019-09-10T14:57:24.700Z</time>
      </trkpt>
      <trkpt lat="10.1562280498552" lon="-75.6826188325067">
        <ele>52.1851891</ele>
        <time>2019-09-10T14:57:24.800Z</time>
      </trkpt>
      <trkpt lat="10.1562263237567" lon="-75.682616826677">
        <ele>52.1851891</ele>
        <time>2019-09-10T14:57:24.900Z</time>
      </trkpt>
      <trkpt lat="10.1562245853601" lon="-75.6826147999591">
        <ele>52.1851891</ele>
        <time>2019-09-10T14:57:25.000Z</time>
      </trkpt>
      <trkpt lat="10.1562228798973" lon="-75.6826127888377">
        <ele>52.1851891</ele>
        <time>2019-09-10T14:57:25.100Z</time>
      </trkpt>
      <trkpt lat="10.1562211892337" lon="-75.6826107731209">
        <ele>52.1851891</ele>
        <time>2019-09-10T14:57:25.200Z</time>
      </trkpt>
      <trkpt lat="10.1562195087837" lon="-75.6826087498843">
        <ele>52.1851891</ele>
        <time>2019-09-10T14:57:25.300Z</time>
      </trkpt>
      <trkpt lat="10.1562161101559" lon="-75.6826046074645">
        <ele>52.2851891</ele>
        <time>2019-09-10T14:57:25.500Z</time>
      </trkpt>
      <trkpt lat="10.1562143867671" lon="-75.6826024880027">
        <ele>52.2851891</ele>
        <time>2019-09-10T14:57:25.600Z</time>
      </trkpt>
      <trkpt lat="10.1562126421174" lon="-75.6826003360945">
        <ele>52.2851891</ele>
        <time>2019-09-10T14:57:25.700Z</time>
      </trkpt>
      <trkpt lat="10.1562091553191" lon="-75.6825960232264">
        <ele>52.2851891</ele>
        <time>2019-09-10T14:57:25.900Z</time>
      </trkpt>
      <trkpt lat="10.1562074246349" lon="-75.6825938601778">
        <ele>52.2851891</ele>
        <time>2019-09-10T14:57:26.000Z</time>
      </trkpt>
      <trkpt lat="10.1562056635183" lon="-75.6825916666323">
        <ele>52.2851891</ele>
        <time>2019-09-10T14:57:26.100Z</time>
      </trkpt>
      <trkpt lat="10.1562038923966" lon="-75.6825894910507">
        <ele>52.2851891</ele>
        <time>2019-09-10T14:57:26.200Z</time>
      </trkpt>
      <trkpt lat="10.1562021425358" lon="-75.6825873183935">
        <ele>52.2851891</ele>
        <time>2019-09-10T14:57:26.300Z</time>
      </trkpt>
      <trkpt lat="10.1562004070574" lon="-75.6825851706629">
        <ele>52.2851891</ele>
        <time>2019-09-10T14:57:26.400Z</time>
      </trkpt>
      <trkpt lat="10.1561986705369" lon="-75.6825830332373">
        <ele>52.2851891</ele>
        <time>2019-09-10T14:57:26.500Z</time>
      </trkpt>
      <trkpt lat="10.1561969369345" lon="-75.6825808988752">
        <ele>52.2851891</ele>
        <time>2019-09-10T14:57:26.600Z</time>
      </trkpt>
      <trkpt lat="10.1561951885328" lon="-75.6825787457136">
        <ele>52.2851891</ele>
        <time>2019-09-10T14:57:26.700Z</time>
      </trkpt>
      <trkpt lat="10.1561934428408" lon="-75.6825765819687">
        <ele>52.2851891</ele>
        <time>2019-09-10T14:57:26.800Z</time>
      </trkpt>
      <trkpt lat="10.1561917067371" lon="-75.6825743885625">
        <ele>52.2851891</ele>
        <time>2019-09-10T14:57:26.900Z</time>
      </trkpt>
      <trkpt lat="10.1561899791795" lon="-75.6825721996125">
        <ele>52.2851891</ele>
        <time>2019-09-10T14:57:27.000Z</time>
      </trkpt>
      <trkpt lat="10.1561882491206" lon="-75.6825699945088">
        <ele>52.2851891</ele>
        <time>2019-09-10T14:57:27.100Z</time>
      </trkpt>
      <trkpt lat="10.1561865230221" lon="-75.6825678065335">
        <ele>52.2851891</ele>
        <time>2019-09-10T14:57:27.200Z</time>
      </trkpt>
      <trkpt lat="10.1561847596127" lon="-75.6825656043542">
        <ele>52.2851891</ele>
        <time>2019-09-10T14:57:27.300Z</time>
      </trkpt>
      <trkpt lat="10.1561829962032" lon="-75.6825634215314">
        <ele>52.2851891</ele>
        <time>2019-09-10T14:57:27.400Z</time>
      </trkpt>
      <trkpt lat="10.1561812017361" lon="-75.6825611636501">
        <ele>52.2851891</ele>
        <time>2019-09-10T14:57:27.500Z</time>
      </trkpt>
      <trkpt lat="10.1561794206092" lon="-75.6825589263785">
        <ele>52.2851891</ele>
        <time>2019-09-10T14:57:27.600Z</time>
      </trkpt>
      <trkpt lat="10.1561776674134" lon="-75.682556732833">
        <ele>52.2851891</ele>
        <time>2019-09-10T14:57:27.700Z</time>
      </trkpt>
      <trkpt lat="10.1561759354785" lon="-75.6825545848239">
        <ele>52.2851891</ele>
        <time>2019-09-10T14:57:27.800Z</time>
      </trkpt>
      <trkpt lat="10.1561741831164" lon="-75.6825524192687">
        <ele>52.2851891</ele>
        <time>2019-09-10T14:57:27.900Z</time>
      </trkpt>
      <trkpt lat="10.1561724282531" lon="-75.6825502583089">
        <ele>52.3851891</ele>
        <time>2019-09-10T14:57:28.000Z</time>
      </trkpt>
      <trkpt lat="10.1561706746403" lon="-75.6825480956781">
        <ele>52.3851891</ele>
        <time>2019-09-10T14:57:28.100Z</time>
      </trkpt>
      <trkpt lat="10.1561689295737" lon="-75.68254594934">
        <ele>52.3851891</ele>
        <time>2019-09-10T14:57:28.200Z</time>
      </trkpt>
      <trkpt lat="10.1561671840902" lon="-75.6825437981281">
        <ele>52.3851891</ele>
        <time>2019-09-10T14:57:28.300Z</time>
      </trkpt>
      <trkpt lat="10.1561654475696" lon="-75.6825416573603">
        <ele>52.3851891</ele>
        <time>2019-09-10T14:57:28.400Z</time>
      </trkpt>
      <trkpt lat="10.1561637075055" lon="-75.6825395057306">
        <ele>52.3851891</ele>
        <time>2019-09-10T14:57:28.500Z</time>
      </trkpt>
      <trkpt lat="10.1561619757791" lon="-75.682537363988">
        <ele>52.3851891</ele>
        <time>2019-09-10T14:57:28.600Z</time>
      </trkpt>
      <trkpt lat="10.1561602415514" lon="-75.6825352463365">
        <ele>52.3851891</ele>
        <time>2019-09-10T14:57:28.700Z</time>
      </trkpt>
      <trkpt lat="10.1561567995679" lon="-75.6825310681281">
        <ele>52.3851891</ele>
        <time>2019-09-10T14:57:28.900Z</time>
      </trkpt>
      <trkpt lat="10.1561533736344" lon="-75.6825268975787">
        <ele>52.3851891</ele>
        <time>2019-09-10T14:57:29.100Z</time>
      </trkpt>
      <trkpt lat="10.1561516444093" lon="-75.6825247948275">
        <ele>52.3851891</ele>
        <time>2019-09-10T14:57:29.200Z</time>
      </trkpt>
      <trkpt lat="10.1561499093478" lon="-75.6825226816322">
        <ele>52.3851891</ele>
        <time>2019-09-10T14:57:29.300Z</time>
      </trkpt>
      <trkpt lat="10.156146415671" lon="-75.6825184729269">
        <ele>52.3851891</ele>
        <time>2019-09-10T14:57:29.500Z</time>
      </trkpt>
      <trkpt lat="10.1561429142819" lon="-75.6825142640825">
        <ele>52.3851891</ele>
        <time>2019-09-10T14:57:29.700Z</time>
      </trkpt>
      <trkpt lat="10.1561411698406" lon="-75.6825121607742">
        <ele>52.3851891</ele>
        <time>2019-09-10T14:57:29.800Z</time>
      </trkpt>
      <trkpt lat="10.1561376196764" lon="-75.6825079568037">
        <ele>52.3851891</ele>
        <time>2019-09-10T14:57:30.000Z</time>
      </trkpt>
      <trkpt lat="10.1561358258346" lon="-75.682505828708">
        <ele>52.3851891</ele>
        <time>2019-09-10T14:57:30.100Z</time>
      </trkpt>
      <trkpt lat="10.1561340480427" lon="-75.6825036996376">
        <ele>52.2851891</ele>
        <time>2019-09-10T14:57:30.200Z</time>
      </trkpt>
      <trkpt lat="10.1561322773379" lon="-75.6825015939621">
        <ele>52.2851891</ele>
        <time>2019-09-10T14:57:30.300Z</time>
      </trkpt>
      <trkpt lat="10.156128752395" lon="-75.6824973739772">
        <ele>52.2851891</ele>
        <time>2019-09-10T14:57:30.500Z</time>
      </trkpt>
      <trkpt lat="10.1561252230748" lon="-75.6824931076204">
        <ele>52.2851891</ele>
        <time>2019-09-10T14:57:30.700Z</time>
      </trkpt>
      <trkpt lat="10.1561234511193" lon="-75.6824909889941">
        <ele>52.2851891</ele>
        <time>2019-09-10T14:57:30.800Z</time>
      </trkpt>
      <trkpt lat="10.1561216889605" lon="-75.6824888531002">
        <ele>52.2851891</ele>
        <time>2019-09-10T14:57:30.900Z</time>
      </trkpt>
      <trkpt lat="10.1561181736059" lon="-75.6824846130626">
        <ele>52.2851891</ele>
        <time>2019-09-10T14:57:31.100Z</time>
      </trkpt>
      <trkpt lat="10.1561146422013" lon="-75.6824804219034">
        <ele>52.2851891</ele>
        <time>2019-09-10T14:57:31.300Z</time>
      </trkpt>
      <trkpt lat="10.1561111472739" lon="-75.6824762459231">
        <ele>52.2851891</ele>
        <time>2019-09-10T14:57:31.500Z</time>
      </trkpt>
      <trkpt lat="10.1561094109618" lon="-75.6824741611358">
        <ele>52.2851891</ele>
        <time>2019-09-10T14:57:31.600Z</time>
      </trkpt>
      <trkpt lat="10.1561076604757" lon="-75.6824720741205">
        <ele>52.2851891</ele>
        <time>2019-09-10T14:57:31.700Z</time>
      </trkpt>
      <trkpt lat="10.1561041984819" lon="-75.682467893684">
        <ele>52.2851891</ele>
        <time>2019-09-10T14:57:31.900Z</time>
      </trkpt>
      <trkpt lat="10.1561007746328" lon="-75.6824636937518">
        <ele>52.2851891</ele>
        <time>2019-09-10T14:57:32.100Z</time>
      </trkpt>
      <trkpt lat="10.1560990429064" lon="-75.6824615942035">
        <ele>52.2851891</ele>
        <time>2019-09-10T14:57:32.200Z</time>
      </trkpt>
      <trkpt lat="10.1560973526596" lon="-75.6824595183285">
        <ele>52.2851891</ele>
        <time>2019-09-10T14:57:32.300Z</time>
      </trkpt>
      <trkpt lat="10.1560956738772" lon="-75.6824574567968">
        <ele>52.2851891</ele>
        <time>2019-09-10T14:57:32.400Z</time>
      </trkpt>
      <trkpt lat="10.1560940057252" lon="-75.6824554128113">
        <ele>52.2851891</ele>
        <time>2019-09-10T14:57:32.500Z</time>
      </trkpt>
      <trkpt lat="10.1560906254402" lon="-75.6824512972676">
        <ele>52.2851891</ele>
        <time>2019-09-10T14:57:32.700Z</time>
      </trkpt>
      <trkpt lat="10.1560889124735" lon="-75.6824492176328">
        <ele>52.2851891</ele>
        <time>2019-09-10T14:57:32.800Z</time>
      </trkpt>
      <trkpt lat="10.1560872024249" lon="-75.6824471731598">
        <ele>52.2851891</ele>
        <time>2019-09-10T14:57:32.900Z</time>
      </trkpt>
      <trkpt lat="10.1560854967536" lon="-75.6824451398273">
        <ele>52.2851891</ele>
        <time>2019-09-10T14:57:33.000Z</time>
      </trkpt>
      <trkpt lat="10.1560838027549" lon="-75.6824431246675">
        <ele>52.2851891</ele>
        <time>2019-09-10T14:57:33.100Z</time>
      </trkpt>
      <trkpt lat="10.1560821022946" lon="-75.6824411032413">
        <ele>52.2851891</ele>
        <time>2019-09-10T14:57:33.200Z</time>
      </trkpt>
      <trkpt lat="10.1560804093382" lon="-75.6824390914236">
        <ele>52.2851891</ele>
        <time>2019-09-10T14:57:33.300Z</time>
      </trkpt>
      <trkpt lat="10.1560770286364" lon="-75.6824350509385">
        <ele>52.2851891</ele>
        <time>2019-09-10T14:57:33.500Z</time>
      </trkpt>
      <trkpt lat="10.1560736222963" lon="-75.6824309661702">
        <ele>52.2851891</ele>
        <time>2019-09-10T14:57:33.700Z</time>
      </trkpt>
      <trkpt lat="10.1560701834395" lon="-75.6824268458223">
        <ele>52.2851891</ele>
        <time>2019-09-10T14:57:33.900Z</time>
      </trkpt>
      <trkpt lat="10.1560684744331" lon="-75.6824247828284">
        <ele>52.2851891</ele>
        <time>2019-09-10T14:57:34.000Z</time>
      </trkpt>
      <trkpt lat="10.1560667541709" lon="-75.6824227204612">
        <ele>52.2851891</ele>
        <time>2019-09-10T14:57:34.100Z</time>
      </trkpt>
      <trkpt lat="10.1560633073933" lon="-75.6824186044998">
        <ele>52.2851891</ele>
        <time>2019-09-10T14:57:34.300Z</time>
      </trkpt>
      <trkpt lat="10.1560615883818" lon="-75.6824165468672">
        <ele>52.2851891</ele>
        <time>2019-09-10T14:57:34.400Z</time>
      </trkpt>
      <trkpt lat="10.1560598781247" lon="-75.6824144911842">
        <ele>52.2851891</ele>
        <time>2019-09-10T14:57:34.500Z</time>
      </trkpt>
      <trkpt lat="10.1560564711593" lon="-75.6824103827426">
        <ele>52.2851891</ele>
        <time>2019-09-10T14:57:34.700Z</time>
      </trkpt>
      <trkpt lat="10.1560547656965" lon="-75.6824083285914">
        <ele>52.2851891</ele>
        <time>2019-09-10T14:57:34.800Z</time>
      </trkpt>
      <trkpt lat="10.1560530431414" lon="-75.6824062520202">
        <ele>52.2851891</ele>
        <time>2019-09-10T14:57:34.900Z</time>
      </trkpt>
      <trkpt lat="10.1560513084968" lon="-75.6824041705054">
        <ele>52.2851891</ele>
        <time>2019-09-10T14:57:35.000Z</time>
      </trkpt>
      <trkpt lat="10.1560495826067" lon="-75.6824020926809">
        <ele>52.2851891</ele>
        <time>2019-09-10T14:57:35.100Z</time>
      </trkpt>
      <trkpt lat="10.1560460649593" lon="-75.6823978250011">
        <ele>52.2851891</ele>
        <time>2019-09-10T14:57:35.300Z</time>
      </trkpt>
      <trkpt lat="10.1560425083334" lon="-75.6823935132471">
        <ele>52.2851891</ele>
        <time>2019-09-10T14:57:35.500Z</time>
      </trkpt>
      <trkpt lat="10.1560390405032" lon="-75.6823893385201">
        <ele>52.2851891</ele>
        <time>2019-09-10T14:57:35.700Z</time>
      </trkpt>
      <trkpt lat="10.1560355676705" lon="-75.6823851125472">
        <ele>52.2851891</ele>
        <time>2019-09-10T14:57:35.900Z</time>
      </trkpt>
      <trkpt lat="10.1560338321922" lon="-75.6823829999786">
        <ele>52.2851891</ele>
        <time>2019-09-10T14:57:36.000Z</time>
      </trkpt>
      <trkpt lat="10.1560320979645" lon="-75.6823808885239">
        <ele>52.2851891</ele>
        <time>2019-09-10T14:57:36.100Z</time>
      </trkpt>
      <trkpt lat="10.1560286299259" lon="-75.6823766763373">
        <ele>52.2851891</ele>
        <time>2019-09-10T14:57:36.300Z</time>
      </trkpt>
      <trkpt lat="10.1560251462543" lon="-75.6823725170676">
        <ele>52.2851891</ele>
        <time>2019-09-10T14:57:36.500Z</time>
      </trkpt>
      <trkpt lat="10.1560234076493" lon="-75.6823704574855">
        <ele>52.2851891</ele>
        <time>2019-09-10T14:57:36.600Z</time>
      </trkpt>
      <trkpt lat="10.1560216504931" lon="-75.6823683694257">
        <ele>52.2851891</ele>
        <time>2019-09-10T14:57:36.700Z</time>
      </trkpt>
      <trkpt lat="10.1560181641118" lon="-75.6823642127322">
        <ele>52.2851891</ele>
        <time>2019-09-10T14:57:36.900Z</time>
      </trkpt>
      <trkpt lat="10.156014726714" lon="-75.6823601493396">
        <ele>52.2851891</ele>
        <time>2019-09-10T14:57:37.100Z</time>
      </trkpt>
      <trkpt lat="10.1560112826461" lon="-75.6823560895676">
        <ele>52.2851891</ele>
        <time>2019-09-10T14:57:37.300Z</time>
      </trkpt>
      <trkpt lat="10.1560078285731" lon="-75.6823520234595">
        <ele>52.2851891</ele>
        <time>2019-09-10T14:57:37.500Z</time>
      </trkpt>
      <trkpt lat="10.1560043305191" lon="-75.682347914252">
        <ele>52.2851891</ele>
        <time>2019-09-10T14:57:37.700Z</time>
      </trkpt>
      <trkpt lat="10.1560025646084" lon="-75.6823458339209">
        <ele>52.2851891</ele>
        <time>2019-09-10T14:57:37.800Z</time>
      </trkpt>
      <trkpt lat="10.1560007914022" lon="-75.682343699141">
        <ele>52.2851891</ele>
        <time>2019-09-10T14:57:37.900Z</time>
      </trkpt>
      <trkpt lat="10.1559972581217" lon="-75.6823393956727">
        <ele>52.2851891</ele>
        <time>2019-09-10T14:57:38.100Z</time>
      </trkpt>
      <trkpt lat="10.1559954924194" lon="-75.6823372436949">
        <ele>52.2851891</ele>
        <time>2019-09-10T14:57:38.200Z</time>
      </trkpt>
      <trkpt lat="10.1559937531891" lon="-75.6823350660941">
        <ele>52.2851891</ele>
        <time>2019-09-10T14:57:38.300Z</time>
      </trkpt>
      <trkpt lat="10.1559920310509" lon="-75.6823329122363">
        <ele>52.2851891</ele>
        <time>2019-09-10T14:57:38.400Z</time>
      </trkpt>
      <trkpt lat="10.1559903105803" lon="-75.6823307315023">
        <ele>52.2851891</ele>
        <time>2019-09-10T14:57:38.500Z</time>
      </trkpt>
      <trkpt lat="10.1559868604677" lon="-75.6823264006703">
        <ele>52.2851891</ele>
        <time>2019-09-10T14:57:38.700Z</time>
      </trkpt>
      <trkpt lat="10.1559834005583" lon="-75.6823220733894">
        <ele>52.2851891</ele>
        <time>2019-09-10T14:57:38.900Z</time>
      </trkpt>
      <trkpt lat="10.1559816690403" lon="-75.6823199173732">
        <ele>52.2851891</ele>
        <time>2019-09-10T14:57:39.000Z</time>
      </trkpt>
      <trkpt lat="10.1559799291847" lon="-75.6823177711048">
        <ele>52.2851891</ele>
        <time>2019-09-10T14:57:39.100Z</time>
      </trkpt>
      <trkpt lat="10.1559764403021" lon="-75.6823135193697">
        <ele>52.2851891</ele>
        <time>2019-09-10T14:57:39.300Z</time>
      </trkpt>
      <trkpt lat="10.155974695027" lon="-75.6823114015094">
        <ele>52.2851891</ele>
        <time>2019-09-10T14:57:39.400Z</time>
      </trkpt>
      <trkpt lat="10.155972947459" lon="-75.682309295416">
        <ele>52.2851891</ele>
        <time>2019-09-10T14:57:39.500Z</time>
      </trkpt>
      <trkpt lat="10.1559712076034" lon="-75.6823072019253">
        <ele>52.2851891</ele>
        <time>2019-09-10T14:57:39.600Z</time>
      </trkpt>
      <trkpt lat="10.1559694817133" lon="-75.6823050869197">
        <ele>52.2851891</ele>
        <time>2019-09-10T14:57:39.700Z</time>
      </trkpt>
      <trkpt lat="10.1559660597402" lon="-75.6823008869179">
        <ele>52.2851891</ele>
        <time>2019-09-10T14:57:39.900Z</time>
      </trkpt>
      <trkpt lat="10.155964339478" lon="-75.6822988110429">
        <ele>52.2851891</ele>
        <time>2019-09-10T14:57:40.000Z</time>
      </trkpt>
      <trkpt lat="10.1559626035828" lon="-75.682296701329">
        <ele>52.2851891</ele>
        <time>2019-09-10T14:57:40.100Z</time>
      </trkpt>
      <trkpt lat="10.155960874983" lon="-75.6822945812405">
        <ele>52.2851891</ele>
        <time>2019-09-10T14:57:40.200Z</time>
      </trkpt>
      <trkpt lat="10.155959143465" lon="-75.682292476679">
        <ele>52.2851891</ele>
        <time>2019-09-10T14:57:40.300Z</time>
      </trkpt>
      <trkpt lat="10.155955655833" lon="-75.6822882357362">
        <ele>52.2851891</ele>
        <time>2019-09-10T14:57:40.500Z</time>
      </trkpt>
      <trkpt lat="10.1559539028456" lon="-75.6822860806251">
        <ele>52.2851891</ele>
        <time>2019-09-10T14:57:40.600Z</time>
      </trkpt>
      <trkpt lat="10.1559521911295" lon="-75.6822839602582">
        <ele>52.2851891</ele>
        <time>2019-09-10T14:57:40.700Z</time>
      </trkpt>
      <trkpt lat="10.1559505006743" lon="-75.6822818705273">
        <ele>52.2851891</ele>
        <time>2019-09-10T14:57:40.800Z</time>
      </trkpt>
      <trkpt lat="10.1559488004225" lon="-75.6822797932598">
        <ele>52.2851891</ele>
        <time>2019-09-10T14:57:40.900Z</time>
      </trkpt>
      <trkpt lat="10.1559470901654" lon="-75.6822777180115">
        <ele>52.2851891</ele>
        <time>2019-09-10T14:57:41.000Z</time>
      </trkpt>
      <trkpt lat="10.1559453936655" lon="-75.6822756698483">
        <ele>52.2851891</ele>
        <time>2019-09-10T14:57:41.100Z</time>
      </trkpt>
      <trkpt lat="10.1559420067104" lon="-75.682271591068">
        <ele>52.2851891</ele>
        <time>2019-09-10T14:57:41.300Z</time>
      </trkpt>
      <trkpt lat="10.1559385991197" lon="-75.6822674930009">
        <ele>52.2851891</ele>
        <time>2019-09-10T14:57:41.500Z</time>
      </trkpt>
      <trkpt lat="10.1559351350415" lon="-75.6822633554549">
        <ele>52.2851891</ele>
        <time>2019-09-10T14:57:41.700Z</time>
      </trkpt>
      <trkpt lat="10.1559316376128" lon="-75.682259203148">
        <ele>52.2851891</ele>
        <time>2019-09-10T14:57:41.900Z</time>
      </trkpt>
      <trkpt lat="10.1559298894196" lon="-75.6822571057581">
        <ele>52.2851891</ele>
        <time>2019-09-10T14:57:42.000Z</time>
      </trkpt>
      <trkpt lat="10.1559281349731" lon="-75.6822549869926">
        <ele>52.2851891</ele>
        <time>2019-09-10T14:57:42.100Z</time>
      </trkpt>
      <trkpt lat="10.1559263842785" lon="-75.6822528712211">
        <ele>52.2851891</ele>
        <time>2019-09-10T14:57:42.200Z</time>
      </trkpt>
      <trkpt lat="10.1559246362937" lon="-75.6822507461891">
        <ele>52.2851891</ele>
        <time>2019-09-10T14:57:42.300Z</time>
      </trkpt>
      <trkpt lat="10.1559211818038" lon="-75.6822465175007">
        <ele>52.2851891</ele>
        <time>2019-09-10T14:57:42.500Z</time>
      </trkpt>
      <trkpt lat="10.1559177819254" lon="-75.6822422980728">
        <ele>52.2851891</ele>
        <time>2019-09-10T14:57:42.700Z</time>
      </trkpt>
      <trkpt lat="10.1559160741697" lon="-75.6822401749904">
        <ele>52.2851891</ele>
        <time>2019-09-10T14:57:42.800Z</time>
      </trkpt>
      <trkpt lat="10.1559143482796" lon="-75.6822380439704">
        <ele>52.2851891</ele>
        <time>2019-09-10T14:57:42.900Z</time>
      </trkpt>
      <trkpt lat="10.155912622598" lon="-75.6822359252745">
        <ele>52.2851891</ele>
        <time>2019-09-10T14:57:43.000Z</time>
      </trkpt>
      <trkpt lat="10.1559091491399" lon="-75.6822316360799">
        <ele>52.2851891</ele>
        <time>2019-09-10T14:57:43.200Z</time>
      </trkpt>
      <trkpt lat="10.1559074272102" lon="-75.682229555331">
        <ele>52.2851891</ele>
        <time>2019-09-10T14:57:43.300Z</time>
      </trkpt>
      <trkpt lat="10.1559039831424" lon="-75.6822254503707">
        <ele>52.2851891</ele>
        <time>2019-09-10T14:57:43.500Z</time>
      </trkpt>
      <trkpt lat="10.1559005228161" lon="-75.6822213166543">
        <ele>52.2851891</ele>
        <time>2019-09-10T14:57:43.700Z</time>
      </trkpt>
      <trkpt lat="10.1558988046384" lon="-75.682219231867">
        <ele>52.2851891</ele>
        <time>2019-09-10T14:57:43.800Z</time>
      </trkpt>
      <trkpt lat="10.1558970864606" lon="-75.6822171312743">
        <ele>52.2851891</ele>
        <time>2019-09-10T14:57:43.900Z</time>
      </trkpt>
      <trkpt lat="10.1558936223824" lon="-75.6822129361464">
        <ele>52.2851891</ele>
        <time>2019-09-10T14:57:44.100Z</time>
      </trkpt>
      <trkpt lat="10.1558918862787" lon="-75.6822108499666">
        <ele>52.2851891</ele>
        <time>2019-09-10T14:57:44.200Z</time>
      </trkpt>
      <trkpt lat="10.1558901435049" lon="-75.6822087635778">
        <ele>52.2851891</ele>
        <time>2019-09-10T14:57:44.300Z</time>
      </trkpt>
      <trkpt lat="10.1558866877644" lon="-75.6822045714439">
        <ele>52.2851891</ele>
        <time>2019-09-10T14:57:44.500Z</time>
      </trkpt>
      <trkpt lat="10.1558849785496" lon="-75.6822024720349">
        <ele>52.2851891</ele>
        <time>2019-09-10T14:57:44.600Z</time>
      </trkpt>
      <trkpt lat="10.1558832732951" lon="-75.6822003749235">
        <ele>52.2851891</ele>
        <time>2019-09-10T14:57:44.700Z</time>
      </trkpt>
      <trkpt lat="10.1558815569933" lon="-75.6821982785781">
        <ele>52.2851891</ele>
        <time>2019-09-10T14:57:44.800Z</time>
      </trkpt>
      <trkpt lat="10.1558798363142" lon="-75.6821961816059">
        <ele>52.2851891</ele>
        <time>2019-09-10T14:57:44.900Z</time>
      </trkpt>
      <trkpt lat="10.1558763962068" lon="-75.6821920250517">
        <ele>52.2851891</ele>
        <time>2019-09-10T14:57:45.100Z</time>
      </trkpt>
      <trkpt lat="10.1558746928283" lon="-75.6821899733375">
        <ele>52.2851891</ele>
        <time>2019-09-10T14:57:45.200Z</time>
      </trkpt>
      <trkpt lat="10.1558729817375" lon="-75.682187923364">
        <ele>52.2851891</ele>
        <time>2019-09-10T14:57:45.300Z</time>
      </trkpt>
      <trkpt lat="10.1558695651838" lon="-75.6821838184733">
        <ele>52.2851891</ele>
        <time>2019-09-10T14:57:45.500Z</time>
      </trkpt>
      <trkpt lat="10.1558661352899" lon="-75.6821796792564">
        <ele>52.2851891</ele>
        <time>2019-09-10T14:57:45.700Z</time>
      </trkpt>
      <trkpt lat="10.1558643933499" lon="-75.6821775735112">
        <ele>52.2851891</ele>
        <time>2019-09-10T14:57:45.800Z</time>
      </trkpt>
      <trkpt lat="10.1558626822591" lon="-75.6821755043205">
        <ele>52.2851891</ele>
        <time>2019-09-10T14:57:45.900Z</time>
      </trkpt>
      <trkpt lat="10.1558609774216" lon="-75.6821734559484">
        <ele>52.2851891</ele>
        <time>2019-09-10T14:57:46.000Z</time>
      </trkpt>
      <trkpt lat="10.1558592819638" lon="-75.6821714121717">
        <ele>52.2851891</ele>
        <time>2019-09-10T14:57:46.100Z</time>
      </trkpt>
      <trkpt lat="10.1558558579063" lon="-75.6821672953748">
        <ele>52.2851891</ele>
        <time>2019-09-10T14:57:46.300Z</time>
      </trkpt>
      <trkpt lat="10.1558523965378" lon="-75.6821631730077">
        <ele>52.2851891</ele>
        <time>2019-09-10T14:57:46.500Z</time>
      </trkpt>
      <trkpt lat="10.1558507490215" lon="-75.6821611526954">
        <ele>52.2851891</ele>
        <time>2019-09-10T14:57:46.600Z</time>
      </trkpt>
      <trkpt lat="10.1558492653397" lon="-75.682159163089">
        <ele>52.2851891</ele>
        <time>2019-09-10T14:57:46.700Z</time>
      </trkpt>
      <trkpt lat="10.1558469516464" lon="-75.6821552583079">
        <ele>52.2851891</ele>
        <time>2019-09-10T14:57:46.900Z</time>
      </trkpt>
      <trkpt lat="10.1558457178852" lon="-75.6821514505179">
        <ele>52.2851891</ele>
        <time>2019-09-10T14:57:47.100Z</time>
      </trkpt>
      <trkpt lat="10.1558455284124" lon="-75.6821495911149">
        <ele>52.1851891</ele>
        <time>2019-09-10T14:57:47.200Z</time>
      </trkpt>
      <trkpt lat="10.1558457091306" lon="-75.6821478197907">
        <ele>52.1851891</ele>
        <time>2019-09-10T14:57:47.300Z</time>
      </trkpt>
      <trkpt lat="10.1558461741621" lon="-75.6821460605121">
        <ele>52.1851891</ele>
        <time>2019-09-10T14:57:47.400Z</time>
      </trkpt>
      <trkpt lat="10.1558469950021" lon="-75.6821443909834">
        <ele>52.1851891</ele>
        <time>2019-09-10T14:57:47.500Z</time>
      </trkpt>
      <trkpt lat="10.1558480911925" lon="-75.6821427195747">
        <ele>52.1851891</ele>
        <time>2019-09-10T14:57:47.600Z</time>
      </trkpt>
      <trkpt lat="10.1558495367296" lon="-75.6821411617981">
        <ele>52.1851891</ele>
        <time>2019-09-10T14:57:47.700Z</time>
      </trkpt>
      <trkpt lat="10.1558512628282" lon="-75.68213960618">
        <ele>52.1851891</ele>
        <time>2019-09-10T14:57:47.800Z</time>
      </trkpt>
      <trkpt lat="10.1558532257155" lon="-75.6821381944123">
        <ele>52.1851891</ele>
        <time>2019-09-10T14:57:47.900Z</time>
      </trkpt>
      <trkpt lat="10.1558575260583" lon="-75.6821354732991">
        <ele>52.1851891</ele>
        <time>2019-09-10T14:57:48.100Z</time>
      </trkpt>
      <trkpt lat="10.1558598068178" lon="-75.6821341292094">
        <ele>52.2851891</ele>
        <time>2019-09-10T14:57:48.200Z</time>
      </trkpt>
      <trkpt lat="10.1558620915378" lon="-75.6821328697171">
        <ele>52.2851891</ele>
        <time>2019-09-10T14:57:48.300Z</time>
      </trkpt>
      <trkpt lat="10.155866724969" lon="-75.6821302091102">
        <ele>52.2851891</ele>
        <time>2019-09-10T14:57:48.500Z</time>
      </trkpt>
      <trkpt lat="10.1558690517941" lon="-75.6821288224781">
        <ele>52.2851891</ele>
        <time>2019-09-10T14:57:48.600Z</time>
      </trkpt>
      <trkpt lat="10.1558713000369" lon="-75.6821274490752">
        <ele>52.2851891</ele>
        <time>2019-09-10T14:57:48.700Z</time>
      </trkpt>
      <trkpt lat="10.1558758534268" lon="-75.6821245069642">
        <ele>52.3851891</ele>
        <time>2019-09-10T14:57:48.900Z</time>
      </trkpt>
      <trkpt lat="10.1558804184895" lon="-75.6821213235243">
        <ele>52.3851891</ele>
        <time>2019-09-10T14:57:49.100Z</time>
      </trkpt>
      <trkpt lat="10.1558850016865" lon="-75.6821179149785">
        <ele>52.2851891</ele>
        <time>2019-09-10T14:57:49.300Z</time>
      </trkpt>
      <trkpt lat="10.1558873170472" lon="-75.6821161564658">
        <ele>52.2851891</ele>
        <time>2019-09-10T14:57:49.400Z</time>
      </trkpt>
      <trkpt lat="10.155889605936" lon="-75.6821143702413">
        <ele>52.2851891</ele>
        <time>2019-09-10T14:57:49.500Z</time>
      </trkpt>
      <trkpt lat="10.1558919048299" lon="-75.6821125698128">
        <ele>52.2851891</ele>
        <time>2019-09-10T14:57:49.600Z</time>
      </trkpt>
      <trkpt lat="10.1558942339478" lon="-75.6821106985731">
        <ele>52.2851891</ele>
        <time>2019-09-10T14:57:49.700Z</time>
      </trkpt>
      <trkpt lat="10.1558965795325" lon="-75.6821088099962">
        <ele>52.2851891</ele>
        <time>2019-09-10T14:57:49.800Z</time>
      </trkpt>
      <trkpt lat="10.1558989155289" lon="-75.6821068790858">
        <ele>52.2851891</ele>
        <time>2019-09-10T14:57:49.900Z</time>
      </trkpt>
      <trkpt lat="10.155903595234" lon="-75.682102994984">
        <ele>52.2851891</ele>
        <time>2019-09-10T14:57:50.100Z</time>
      </trkpt>
      <trkpt lat="10.1559083105825" lon="-75.6820990919436">
        <ele>52.2851891</ele>
        <time>2019-09-10T14:57:50.300Z</time>
      </trkpt>
      <trkpt lat="10.1559129504754" lon="-75.6820951703126">
        <ele>52.2851891</ele>
        <time>2019-09-10T14:57:50.500Z</time>
      </trkpt>
      <trkpt lat="10.1559174801031" lon="-75.6820911879664">
        <ele>52.2851891</ele>
        <time>2019-09-10T14:57:50.700Z</time>
      </trkpt>
      <trkpt lat="10.1559197214674" lon="-75.682089215001">
        <ele>52.2851891</ele>
        <time>2019-09-10T14:57:50.800Z</time>
      </trkpt>
      <trkpt lat="10.1559219690849" lon="-75.6820871779085">
        <ele>52.2851891</ele>
        <time>2019-09-10T14:57:50.900Z</time>
      </trkpt>
      <trkpt lat="10.1559241777239" lon="-75.6820851585015">
        <ele>52.2851891</ele>
        <time>2019-09-10T14:57:51.000Z</time>
      </trkpt>
      <trkpt lat="10.155926384487" lon="-75.6820831070658">
        <ele>52.2851891</ele>
        <time>2019-09-10T14:57:51.100Z</time>
      </trkpt>
      <trkpt lat="10.1559285560236" lon="-75.6820810938556">
        <ele>52.2851891</ele>
        <time>2019-09-10T14:57:51.200Z</time>
      </trkpt>
      <trkpt lat="10.1559306675292" lon="-75.6820790603141">
        <ele>52.2851891</ele>
        <time>2019-09-10T14:57:51.300Z</time>
      </trkpt>
      <trkpt lat="10.1559348473932" lon="-75.6820749883573">
        <ele>52.2851891</ele>
        <time>2019-09-10T14:57:51.500Z</time>
      </trkpt>
      <trkpt lat="10.1559388863512" lon="-75.6820711266757">
        <ele>52.2851891</ele>
        <time>2019-09-10T14:57:51.700Z</time>
      </trkpt>
      <trkpt lat="10.1559427158261" lon="-75.6820680549879">
        <ele>52.1851891</ele>
        <time>2019-09-10T14:57:51.900Z</time>
      </trkpt>
      <trkpt lat="10.155946311222" lon="-75.682066113494">
        <ele>52.1851891</ele>
        <time>2019-09-10T14:57:52.100Z</time>
      </trkpt>
      <trkpt lat="10.1559496471091" lon="-75.6820654342079">
        <ele>52.1851891</ele>
        <time>2019-09-10T14:57:52.300Z</time>
      </trkpt>
      <trkpt lat="10.1559527407879" lon="-75.6820660488797">
        <ele>52.1851891</ele>
        <time>2019-09-10T14:57:52.500Z</time>
      </trkpt>
      <trkpt lat="10.1559555941345" lon="-75.682067872703">
        <ele>52.2851891</ele>
        <time>2019-09-10T14:57:52.700Z</time>
      </trkpt>
      <trkpt lat="10.1559569667174" lon="-75.6820692390735">
        <ele>52.2851891</ele>
        <time>2019-09-10T14:57:52.800Z</time>
      </trkpt>
      <trkpt lat="10.1559581794261" lon="-75.682070845102">
        <ele>52.2851891</ele>
        <time>2019-09-10T14:57:52.900Z</time>
      </trkpt>
      <trkpt lat="10.1559593873407" lon="-75.6820726825723">
        <ele>52.2851891</ele>
        <time>2019-09-10T14:57:53.000Z</time>
      </trkpt>
      <trkpt lat="10.1559604681064" lon="-75.6820746560948">
        <ele>52.2851891</ele>
        <time>2019-09-10T14:57:53.100Z</time>
      </trkpt>
      <trkpt lat="10.1559616078609" lon="-75.6820767865578">
        <ele>52.3851891</ele>
        <time>2019-09-10T14:57:53.200Z</time>
      </trkpt>
      <trkpt lat="10.1559626767455" lon="-75.682078940137">
        <ele>52.3851891</ele>
        <time>2019-09-10T14:57:53.300Z</time>
      </trkpt>
      <trkpt lat="10.1559638427635" lon="-75.6820812031708">
        <ele>52.3851891</ele>
        <time>2019-09-10T14:57:53.400Z</time>
      </trkpt>
      <trkpt lat="10.1559649914809" lon="-75.682083448171">
        <ele>52.3851891</ele>
        <time>2019-09-10T14:57:53.500Z</time>
      </trkpt>
      <trkpt lat="10.155967522578" lon="-75.6820880274339">
        <ele>52.3851891</ele>
        <time>2019-09-10T14:57:53.700Z</time>
      </trkpt>
      <trkpt lat="10.1559702958832" lon="-75.6820925381834">
        <ele>52.3851891</ele>
        <time>2019-09-10T14:57:53.900Z</time>
      </trkpt>
      <trkpt lat="10.1559733155655" lon="-75.6820970806133">
        <ele>52.3851891</ele>
        <time>2019-09-10T14:57:54.100Z</time>
      </trkpt>
      <trkpt lat="10.1559748986737" lon="-75.6820994195411">
        <ele>52.2851891</ele>
        <time>2019-09-10T14:57:54.200Z</time>
      </trkpt>
      <trkpt lat="10.1559765555698" lon="-75.6821017492084">
        <ele>52.2851891</ele>
        <time>2019-09-10T14:57:54.300Z</time>
      </trkpt>
      <trkpt lat="10.155978253112" lon="-75.6821041476677">
        <ele>52.2851891</ele>
        <time>2019-09-10T14:57:54.400Z</time>
      </trkpt>
      <trkpt lat="10.1559799689969" lon="-75.6821065279542">
        <ele>52.2851891</ele>
        <time>2019-09-10T14:57:54.500Z</time>
      </trkpt>
      <trkpt lat="10.1559817011402" lon="-75.6821089477891">
        <ele>52.2851891</ele>
        <time>2019-09-10T14:57:54.600Z</time>
      </trkpt>
      <trkpt lat="10.1559834853937" lon="-75.6821113636553">
        <ele>52.2851891</ele>
        <time>2019-09-10T14:57:54.700Z</time>
      </trkpt>
      <trkpt lat="10.1559852915335" lon="-75.6821138151011">
        <ele>52.2851891</ele>
        <time>2019-09-10T14:57:54.800Z</time>
      </trkpt>
      <trkpt lat="10.1559871176837" lon="-75.6821162478171">
        <ele>52.2851891</ele>
        <time>2019-09-10T14:57:54.900Z</time>
      </trkpt>
      <trkpt lat="10.1559908719115" lon="-75.6821211798827">
        <ele>52.2851891</ele>
        <time>2019-09-10T14:57:55.100Z</time>
      </trkpt>
      <trkpt lat="10.1559928083268" lon="-75.6821236899549">
        <ele>52.3851891</ele>
        <time>2019-09-10T14:57:55.200Z</time>
      </trkpt>
      <trkpt lat="10.1559967401462" lon="-75.6821287643391">
        <ele>52.3851891</ele>
        <time>2019-09-10T14:57:55.400Z</time>
      </trkpt>
      <trkpt lat="10.155998725962" lon="-75.6821312848555">
        <ele>52.3851891</ele>
        <time>2019-09-10T14:57:55.500Z</time>
      </trkpt>
      <trkpt lat="10.1560006869733" lon="-75.6821337716721">
        <ele>52.3851891</ele>
        <time>2019-09-10T14:57:55.600Z</time>
      </trkpt>
      <trkpt lat="10.1560026667444" lon="-75.6821362441454">
        <ele>52.2851891</ele>
        <time>2019-09-10T14:57:55.700Z</time>
      </trkpt>
      <trkpt lat="10.1560046119142" lon="-75.6821386902299">
        <ele>52.2851891</ele>
        <time>2019-09-10T14:57:55.800Z</time>
      </trkpt>
      <trkpt lat="10.1560065827223" lon="-75.6821411343649">
        <ele>52.2851891</ele>
        <time>2019-09-10T14:57:55.900Z</time>
      </trkpt>
      <trkpt lat="10.1560085139266" lon="-75.6821435523895">
        <ele>52.2851891</ele>
        <time>2019-09-10T14:57:56.000Z</time>
      </trkpt>
      <trkpt lat="10.1560104751464" lon="-75.6821459636602">
        <ele>52.2851891</ele>
        <time>2019-09-10T14:57:56.100Z</time>
      </trkpt>
      <trkpt lat="10.1560123900923" lon="-75.6821483408135">
        <ele>52.2851891</ele>
        <time>2019-09-10T14:57:56.200Z</time>
      </trkpt>
      <trkpt lat="10.1560142781493" lon="-75.6821506399143">
        <ele>52.2851891</ele>
        <time>2019-09-10T14:57:56.300Z</time>
      </trkpt>
      <trkpt lat="10.1560161295208" lon="-75.6821529038532">
        <ele>52.2851891</ele>
        <time>2019-09-10T14:57:56.400Z</time>
      </trkpt>
      <trkpt lat="10.1560179813091" lon="-75.6821551556073">
        <ele>52.2851891</ele>
        <time>2019-09-10T14:57:56.500Z</time>
      </trkpt>
      <trkpt lat="10.1560198114196" lon="-75.6821574130708">
        <ele>52.2851891</ele>
        <time>2019-09-10T14:57:56.600Z</time>
      </trkpt>
      <trkpt lat="10.1560216853027" lon="-75.6821596355813">
        <ele>52.2851891</ele>
        <time>2019-09-10T14:57:56.700Z</time>
      </trkpt>
      <trkpt lat="10.1560235456371" lon="-75.6821618477174">
        <ele>52.2851891</ele>
        <time>2019-09-10T14:57:56.800Z</time>
      </trkpt>
      <trkpt lat="10.1560254368208" lon="-75.6821640424465">
        <ele>52.2851891</ele>
        <time>2019-09-10T14:57:56.900Z</time>
      </trkpt>
      <trkpt lat="10.1560272881923" lon="-75.6821662445562">
        <ele>52.2851891</ele>
        <time>2019-09-10T14:57:57.000Z</time>
      </trkpt>
      <trkpt lat="10.1560291487351" lon="-75.6821684496598">
        <ele>52.2851891</ele>
        <time>2019-09-10T14:57:57.100Z</time>
      </trkpt>
      <trkpt lat="10.156030968632" lon="-75.6821706523962">
        <ele>52.2851891</ele>
        <time>2019-09-10T14:57:57.200Z</time>
      </trkpt>
      <trkpt lat="10.1560327993679" lon="-75.6821728396752">
        <ele>52.2851891</ele>
        <time>2019-09-10T14:57:57.300Z</time>
      </trkpt>
      <trkpt lat="10.1560345973785" lon="-75.6821750156745">
        <ele>52.2851891</ele>
        <time>2019-09-10T14:57:57.400Z</time>
      </trkpt>
      <trkpt lat="10.1560364087293" lon="-75.6821771799764">
        <ele>52.2851891</ele>
        <time>2019-09-10T14:57:57.500Z</time>
      </trkpt>
      <trkpt lat="10.156038188814" lon="-75.6821793431643">
        <ele>52.2851891</ele>
        <time>2019-09-10T14:57:57.600Z</time>
      </trkpt>
      <trkpt lat="10.1560417873365" lon="-75.682183619269">
        <ele>52.2851891</ele>
        <time>2019-09-10T14:57:57.800Z</time>
      </trkpt>
      <trkpt lat="10.1560435795108" lon="-75.6821857357368">
        <ele>52.2851891</ele>
        <time>2019-09-10T14:57:57.900Z</time>
      </trkpt>
      <trkpt lat="10.1560470742298" lon="-75.6821899589246">
        <ele>52.2851891</ele>
        <time>2019-09-10T14:57:58.100Z</time>
      </trkpt>
      <trkpt lat="10.1560487846952" lon="-75.6821920613277">
        <ele>52.2851891</ele>
        <time>2019-09-10T14:57:58.200Z</time>
      </trkpt>
      <trkpt lat="10.1560505120444" lon="-75.6821941353227">
        <ele>52.2851891</ele>
        <time>2019-09-10T14:57:58.300Z</time>
      </trkpt>
      <trkpt lat="10.1560522141722" lon="-75.6821962027727">
        <ele>52.2851891</ele>
        <time>2019-09-10T14:57:58.400Z</time>
      </trkpt>
      <trkpt lat="10.156053936102" lon="-75.6821982644437">
        <ele>52.2851891</ele>
        <time>2019-09-10T14:57:58.500Z</time>
      </trkpt>
      <trkpt lat="10.1560573876737" lon="-75.6822024113893">
        <ele>52.2851891</ele>
        <time>2019-09-10T14:57:58.700Z</time>
      </trkpt>
      <trkpt lat="10.1560591202339" lon="-75.6822045030697">
        <ele>52.2851891</ele>
        <time>2019-09-10T14:57:58.800Z</time>
      </trkpt>
      <trkpt lat="10.156060814441" lon="-75.682206532712">
        <ele>52.2851891</ele>
        <time>2019-09-10T14:57:58.900Z</time>
      </trkpt>
      <trkpt lat="10.1560624702949" lon="-75.6822085388898">
        <ele>52.2851891</ele>
        <time>2019-09-10T14:57:59.000Z</time>
      </trkpt>
      <trkpt lat="10.1560641561644" lon="-75.6822105660952">
        <ele>52.2851891</ele>
        <time>2019-09-10T14:57:59.100Z</time>
      </trkpt>
      <trkpt lat="10.1560658361975" lon="-75.682212620873">
        <ele>52.2851891</ele>
        <time>2019-09-10T14:57:59.200Z</time>
      </trkpt>
      <trkpt lat="10.156067533948" lon="-75.6822146827528">
        <ele>52.2851891</ele>
        <time>2019-09-10T14:57:59.300Z</time>
      </trkpt>
      <trkpt lat="10.1560692116883" lon="-75.6822167447023">
        <ele>52.2851891</ele>
        <time>2019-09-10T14:57:59.400Z</time>
      </trkpt>
      <trkpt lat="10.1560709048532" lon="-75.6822188072784">
        <ele>52.2851891</ele>
        <time>2019-09-10T14:57:59.500Z</time>
      </trkpt>
      <trkpt lat="10.1560742705473" lon="-75.6822229377223">
        <ele>52.2851891</ele>
        <time>2019-09-10T14:57:59.700Z</time>
      </trkpt>
      <trkpt lat="10.1560759434934" lon="-75.6822250095589">
        <ele>52.2851891</ele>
        <time>2019-09-10T14:57:59.800Z</time>
      </trkpt>
      <trkpt lat="10.156077637492" lon="-75.6822270766608">
        <ele>52.2851891</ele>
        <time>2019-09-10T14:57:59.900Z</time>
      </trkpt>
      <trkpt lat="10.1560793141901" lon="-75.6822291478011">
        <ele>52.2851891</ele>
        <time>2019-09-10T14:58:00.000Z</time>
      </trkpt>
      <trkpt lat="10.1560809888037" lon="-75.682231205921">
        <ele>52.2851891</ele>
        <time>2019-09-10T14:58:00.100Z</time>
      </trkpt>
      <trkpt lat="10.1560826454915" lon="-75.6822332680794">
        <ele>52.2851891</ele>
        <time>2019-09-10T14:58:00.200Z</time>
      </trkpt>
      <trkpt lat="10.1560843284427" lon="-75.6822353408211">
        <ele>52.2851891</ele>
        <time>2019-09-10T14:58:00.300Z</time>
      </trkpt>
      <trkpt lat="10.1560860074336" lon="-75.6822374247729">
        <ele>52.2851891</ele>
        <time>2019-09-10T14:58:00.400Z</time>
      </trkpt>
      <trkpt lat="10.1560876793375" lon="-75.6822394893682">
        <ele>52.2851891</ele>
        <time>2019-09-10T14:58:00.500Z</time>
      </trkpt>
      <trkpt lat="10.1560893437376" lon="-75.6822415495073">
        <ele>52.2851891</ele>
        <time>2019-09-10T14:58:00.600Z</time>
      </trkpt>
      <trkpt lat="10.1560910023013" lon="-75.6822436223883">
        <ele>52.2851891</ele>
        <time>2019-09-10T14:58:00.700Z</time>
      </trkpt>
      <trkpt lat="10.1560926498176" lon="-75.6822457043905">
        <ele>52.2851891</ele>
        <time>2019-09-10T14:58:00.800Z</time>
      </trkpt>
      <trkpt lat="10.1560943160936" lon="-75.6822477771322">
        <ele>52.2851891</ele>
        <time>2019-09-10T14:58:00.900Z</time>
      </trkpt>
      <trkpt lat="10.1560959840371" lon="-75.6822498470889">
        <ele>52.2851891</ele>
        <time>2019-09-10T14:58:01.000Z</time>
      </trkpt>
      <trkpt lat="10.1560976496878" lon="-75.6822519032592">
        <ele>52.2851891</ele>
        <time>2019-09-10T14:58:01.100Z</time>
      </trkpt>
      <trkpt lat="10.1560993090853" lon="-75.6822539618666">
        <ele>52.2851891</ele>
        <time>2019-09-10T14:58:01.200Z</time>
      </trkpt>
      <trkpt lat="10.1561010120469" lon="-75.6822560610668">
        <ele>52.2851891</ele>
        <time>2019-09-10T14:58:01.300Z</time>
      </trkpt>
      <trkpt lat="10.1561027164676" lon="-75.6822581708503">
        <ele>52.2851891</ele>
        <time>2019-09-10T14:58:01.400Z</time>
      </trkpt>
      <trkpt lat="10.1561043852449" lon="-75.6822602380915">
        <ele>52.2851891</ele>
        <time>2019-09-10T14:58:01.500Z</time>
      </trkpt>
      <trkpt lat="10.156106040682" lon="-75.6822622905716">
        <ele>52.2851891</ele>
        <time>2019-09-10T14:58:01.600Z</time>
      </trkpt>
      <trkpt lat="10.1561077036229" lon="-75.6822643559328">
        <ele>52.2851891</ele>
        <time>2019-09-10T14:58:01.700Z</time>
      </trkpt>
      <trkpt lat="10.156109373234" lon="-75.6822664363336">
        <ele>52.2851891</ele>
        <time>2019-09-10T14:58:01.800Z</time>
      </trkpt>
      <trkpt lat="10.1561110251276" lon="-75.682268504828">
        <ele>52.2851891</ele>
        <time>2019-09-10T14:58:01.900Z</time>
      </trkpt>
      <trkpt lat="10.1561126816068" lon="-75.6822705738795">
        <ele>52.2851891</ele>
        <time>2019-09-10T14:58:02.000Z</time>
      </trkpt>
      <trkpt lat="10.1561143533023" lon="-75.6822726258026">
        <ele>52.2851891</ele>
        <time>2019-09-10T14:58:02.100Z</time>
      </trkpt>
      <trkpt lat="10.1561160289582" lon="-75.6822746828781">
        <ele>52.2851891</ele>
        <time>2019-09-10T14:58:02.200Z</time>
      </trkpt>
      <trkpt lat="10.1561176902316" lon="-75.6822767455935">
        <ele>52.2851891</ele>
        <time>2019-09-10T14:58:02.300Z</time>
      </trkpt>
      <trkpt lat="10.1561193490037" lon="-75.6822788179871">
        <ele>52.2851891</ele>
        <time>2019-09-10T14:58:02.400Z</time>
      </trkpt>
      <trkpt lat="10.1561210159051" lon="-75.6822809035403">
        <ele>52.2851891</ele>
        <time>2019-09-10T14:58:02.500Z</time>
      </trkpt>
      <trkpt lat="10.1561226946875" lon="-75.6822829909734">
        <ele>52.2851891</ele>
        <time>2019-09-10T14:58:02.600Z</time>
      </trkpt>
      <trkpt lat="10.1561243884777" lon="-75.6822850685891">
        <ele>52.2851891</ele>
        <time>2019-09-10T14:58:02.700Z</time>
      </trkpt>
      <trkpt lat="10.1561260753894" lon="-75.6822871405649">
        <ele>52.2851891</ele>
        <time>2019-09-10T14:58:02.800Z</time>
      </trkpt>
      <trkpt lat="10.1561277718893" lon="-75.6822892239597">
        <ele>52.2851891</ele>
        <time>2019-09-10T14:58:02.900Z</time>
      </trkpt>
      <trkpt lat="10.1561294658879" lon="-75.6822913135512">
        <ele>52.2851891</ele>
        <time>2019-09-10T14:58:03.000Z</time>
      </trkpt>
      <trkpt lat="10.1561311719761" lon="-75.6822934183216">
        <ele>52.3851891</ele>
        <time>2019-09-10T14:58:03.100Z</time>
      </trkpt>
      <trkpt lat="10.1561328709774" lon="-75.6822955235098">
        <ele>52.2851891</ele>
        <time>2019-09-10T14:58:03.200Z</time>
      </trkpt>
      <trkpt lat="10.1561362783596" lon="-75.6822997479509">
        <ele>52.2851891</ele>
        <time>2019-09-10T14:58:03.400Z</time>
      </trkpt>
      <trkpt lat="10.1561380021653" lon="-75.6823018585003">
        <ele>52.2851891</ele>
        <time>2019-09-10T14:58:03.500Z</time>
      </trkpt>
      <trkpt lat="10.1561397253457" lon="-75.6823039618782">
        <ele>52.2851891</ele>
        <time>2019-09-10T14:58:03.600Z</time>
      </trkpt>
      <trkpt lat="10.1561414266397" lon="-75.6823060387975">
        <ele>52.2851891</ele>
        <time>2019-09-10T14:58:03.700Z</time>
      </trkpt>
      <trkpt lat="10.1561431152189" lon="-75.6823081092416">
        <ele>52.2851891</ele>
        <time>2019-09-10T14:58:03.800Z</time>
      </trkpt>
      <trkpt lat="10.1561448513226" lon="-75.6823102461799">
        <ele>52.2851891</ele>
        <time>2019-09-10T14:58:03.900Z</time>
      </trkpt>
      <trkpt lat="10.1561465905529" lon="-75.6823123930749">
        <ele>52.2851891</ele>
        <time>2019-09-10T14:58:04.000Z</time>
      </trkpt>
      <trkpt lat="10.1561482716282" lon="-75.6823144847553">
        <ele>52.2851891</ele>
        <time>2019-09-10T14:58:04.100Z</time>
      </trkpt>
      <trkpt lat="10.1561499322763" lon="-75.6823165553386">
        <ele>52.2851891</ele>
        <time>2019-09-10T14:58:04.200Z</time>
      </trkpt>
      <trkpt lat="10.1561516048055" lon="-75.6823186261308">
        <ele>52.2851891</ele>
        <time>2019-09-10T14:58:04.300Z</time>
      </trkpt>
      <trkpt lat="10.1561532960944" lon="-75.6823207095255">
        <ele>52.2851891</ele>
        <time>2019-09-10T14:58:04.400Z</time>
      </trkpt>
      <trkpt lat="10.156154988634" lon="-75.6823227684114">
        <ele>52.2851891</ele>
        <time>2019-09-10T14:58:04.500Z</time>
      </trkpt>
      <trkpt lat="10.1561566822158" lon="-75.6823248274365">
        <ele>52.2851891</ele>
        <time>2019-09-10T14:58:04.600Z</time>
      </trkpt>
      <trkpt lat="10.1561583747553" lon="-75.6823268919621">
        <ele>52.2851891</ele>
        <time>2019-09-10T14:58:04.700Z</time>
      </trkpt>
      <trkpt lat="10.1561600689624" lon="-75.6823289676979">
        <ele>52.2851891</ele>
        <time>2019-09-10T14:58:04.800Z</time>
      </trkpt>
      <trkpt lat="10.1561617575416" lon="-75.6823310481683">
        <ele>52.2851891</ele>
        <time>2019-09-10T14:58:04.900Z</time>
      </trkpt>
      <trkpt lat="10.1561634484136" lon="-75.6823331348355">
        <ele>52.2851891</ele>
        <time>2019-09-10T14:58:05.000Z</time>
      </trkpt>
      <trkpt lat="10.1561651376181" lon="-75.6823352049314">
        <ele>52.2851891</ele>
        <time>2019-09-10T14:58:05.100Z</time>
      </trkpt>
      <trkpt lat="10.1561668278648" lon="-75.6823372672986">
        <ele>52.2851891</ele>
        <time>2019-09-10T14:58:05.200Z</time>
      </trkpt>
      <trkpt lat="10.156168512692" lon="-75.6823393361412">
        <ele>52.2851891</ele>
        <time>2019-09-10T14:58:05.300Z</time>
      </trkpt>
      <trkpt lat="10.1561702075244" lon="-75.6823414093007">
        <ele>52.2851891</ele>
        <time>2019-09-10T14:58:05.400Z</time>
      </trkpt>
      <trkpt lat="10.1561719040244" lon="-75.6823434706931">
        <ele>52.2851891</ele>
        <time>2019-09-10T14:58:05.500Z</time>
      </trkpt>
      <trkpt lat="10.1561736034425" lon="-75.6823455306234">
        <ele>52.2851891</ele>
        <time>2019-09-10T14:58:05.600Z</time>
      </trkpt>
      <trkpt lat="10.1561753228709" lon="-75.6823475819895">
        <ele>52.2851891</ele>
        <time>2019-09-10T14:58:05.700Z</time>
      </trkpt>
      <trkpt lat="10.156177046885" lon="-75.6823496365584">
        <ele>52.2851891</ele>
        <time>2019-09-10T14:58:05.800Z</time>
      </trkpt>
      <trkpt lat="10.1561787963289" lon="-75.6823517619385">
        <ele>52.2851891</ele>
        <time>2019-09-10T14:58:05.900Z</time>
      </trkpt>
      <trkpt lat="10.1561805388943" lon="-75.6823539034723">
        <ele>52.2851891</ele>
        <time>2019-09-10T14:58:06.000Z</time>
      </trkpt>
      <trkpt lat="10.1561822966758" lon="-75.6823560624129">
        <ele>52.2851891</ele>
        <time>2019-09-10T14:58:06.100Z</time>
      </trkpt>
      <trkpt lat="10.1561840438268" lon="-75.6823581980979">
        <ele>52.2851891</ele>
        <time>2019-09-10T14:58:06.200Z</time>
      </trkpt>
      <trkpt lat="10.1561857974396" lon="-75.6823603366376">
        <ele>52.2851891</ele>
        <time>2019-09-10T14:58:06.300Z</time>
      </trkpt>
      <trkpt lat="10.1561875427146" lon="-75.6823624586756">
        <ele>52.2851891</ele>
        <time>2019-09-10T14:58:06.400Z</time>
      </trkpt>
      <trkpt lat="10.1561893144617" lon="-75.6823646110016">
        <ele>52.2851891</ele>
        <time>2019-09-10T14:58:06.500Z</time>
      </trkpt>
      <trkpt lat="10.1561910753698" lon="-75.682366752605">
        <ele>52.2851891</ele>
        <time>2019-09-10T14:58:06.600Z</time>
      </trkpt>
      <trkpt lat="10.1561928152255" lon="-75.6823688620404">
        <ele>52.2851891</ele>
        <time>2019-09-10T14:58:06.700Z</time>
      </trkpt>
      <trkpt lat="10.1561945338201" lon="-75.6823709545563">
        <ele>52.2851891</ele>
        <time>2019-09-10T14:58:06.800Z</time>
      </trkpt>
      <trkpt lat="10.1561962540823" lon="-75.6823730437998">
        <ele>52.2851891</ele>
        <time>2019-09-10T14:58:06.900Z</time>
      </trkpt>
      <trkpt lat="10.156197976012" lon="-75.6823751356891">
        <ele>52.2851891</ele>
        <time>2019-09-10T14:58:07.000Z</time>
      </trkpt>
      <trkpt lat="10.1561997031528" lon="-75.6823772245148">
        <ele>52.2851891</ele>
        <time>2019-09-10T14:58:07.100Z</time>
      </trkpt>
      <trkpt lat="10.1562014313357" lon="-75.6823793145241">
        <ele>52.2851891</ele>
        <time>2019-09-10T14:58:07.200Z</time>
      </trkpt>
      <trkpt lat="10.1562048447627" lon="-75.682383490783">
        <ele>52.2851891</ele>
        <time>2019-09-10T14:58:07.400Z</time>
      </trkpt>
      <trkpt lat="10.1562065589801" lon="-75.6823855773109">
        <ele>52.2851891</ele>
        <time>2019-09-10T14:58:07.500Z</time>
      </trkpt>
      <trkpt lat="10.1562082836196" lon="-75.6823876624464">
        <ele>52.2851891</ele>
        <time>2019-09-10T14:58:07.600Z</time>
      </trkpt>
      <trkpt lat="10.1562100280609" lon="-75.6823897486959">
        <ele>52.2851891</ele>
        <time>2019-09-10T14:58:07.700Z</time>
      </trkpt>
      <trkpt lat="10.1562117770879" lon="-75.6823918304892">
        <ele>52.2851891</ele>
        <time>2019-09-10T14:58:07.800Z</time>
      </trkpt>
      <trkpt lat="10.1562135136085" lon="-75.6823939212644">
        <ele>52.2851891</ele>
        <time>2019-09-10T14:58:07.900Z</time>
      </trkpt>
      <trkpt lat="10.1562152405408" lon="-75.6823960109256">
        <ele>52.2851891</ele>
        <time>2019-09-10T14:58:08.000Z</time>
      </trkpt>
      <trkpt lat="10.1562169918606" lon="-75.6823981466106">
        <ele>52.2851891</ele>
        <time>2019-09-10T14:58:08.100Z</time>
      </trkpt>
      <trkpt lat="10.1562187440143" lon="-75.6824002839667">
        <ele>52.2851891</ele>
        <time>2019-09-10T14:58:08.200Z</time>
      </trkpt>
      <trkpt lat="10.1562204967932" lon="-75.6824023989723">
        <ele>52.2851891</ele>
        <time>2019-09-10T14:58:08.300Z</time>
      </trkpt>
      <trkpt lat="10.156222241443" lon="-75.6824044974763">
        <ele>52.2851891</ele>
        <time>2019-09-10T14:58:08.400Z</time>
      </trkpt>
      <trkpt lat="10.1562239602461" lon="-75.6824065984868">
        <ele>52.2851891</ele>
        <time>2019-09-10T14:58:08.500Z</time>
      </trkpt>
      <trkpt lat="10.156225663833" lon="-75.6824086994276">
        <ele>52.2851891</ele>
        <time>2019-09-10T14:58:08.600Z</time>
      </trkpt>
      <trkpt lat="10.1562273705465" lon="-75.6824108016218">
        <ele>52.2851891</ele>
        <time>2019-09-10T14:58:08.700Z</time>
      </trkpt>
      <trkpt lat="10.1562290826795" lon="-75.6824129015879">
        <ele>52.2851891</ele>
        <time>2019-09-10T14:58:08.800Z</time>
      </trkpt>
      <trkpt lat="10.1562308048177" lon="-75.6824150000222">
        <ele>52.2851891</ele>
        <time>2019-09-10T14:58:08.900Z</time>
      </trkpt>
      <trkpt lat="10.1562325321668" lon="-75.6824170978994">
        <ele>52.2851891</ele>
        <time>2019-09-10T14:58:09.000Z</time>
      </trkpt>
      <trkpt lat="10.1562343305943" lon="-75.6824192599037">
        <ele>52.2851891</ele>
        <time>2019-09-10T14:58:09.100Z</time>
      </trkpt>
      <trkpt lat="10.1562361246446" lon="-75.6824214233004">
        <ele>52.2851891</ele>
        <time>2019-09-10T14:58:09.200Z</time>
      </trkpt>
      <trkpt lat="10.1562378692943" lon="-75.6824235252857">
        <ele>52.2851891</ele>
        <time>2019-09-10T14:58:09.300Z</time>
      </trkpt>
      <trkpt lat="10.1562412808454" lon="-75.682427652109">
        <ele>52.2851891</ele>
        <time>2019-09-10T14:58:09.500Z</time>
      </trkpt>
      <trkpt lat="10.1562429731765" lon="-75.6824297058424">
        <ele>52.2851891</ele>
        <time>2019-09-10T14:58:09.600Z</time>
      </trkpt>
      <trkpt lat="10.1562446757213" lon="-75.6824317581833">
        <ele>52.2851891</ele>
        <time>2019-09-10T14:58:09.700Z</time>
      </trkpt>
      <trkpt lat="10.1562463899387" lon="-75.682433827374">
        <ele>52.2851891</ele>
        <time>2019-09-10T14:58:09.800Z</time>
      </trkpt>
      <trkpt lat="10.1562480914412" lon="-75.6824359061733">
        <ele>52.2851891</ele>
        <time>2019-09-10T14:58:09.900Z</time>
      </trkpt>
      <trkpt lat="10.1562497898171" lon="-75.6824379986196">
        <ele>52.2851891</ele>
        <time>2019-09-10T14:58:10.000Z</time>
      </trkpt>
      <trkpt lat="10.1562515269629" lon="-75.6824401013708">
        <ele>52.2851891</ele>
        <time>2019-09-10T14:58:10.100Z</time>
      </trkpt>
      <trkpt lat="10.1562532757815" lon="-75.6824422064197">
        <ele>52.2851891</ele>
        <time>2019-09-10T14:58:10.200Z</time>
      </trkpt>
      <trkpt lat="10.1562550120937" lon="-75.6824443162729">
        <ele>52.2851891</ele>
        <time>2019-09-10T14:58:10.300Z</time>
      </trkpt>
      <trkpt lat="10.1562567321474" lon="-75.6824464275883">
        <ele>52.2851891</ele>
        <time>2019-09-10T14:58:10.400Z</time>
      </trkpt>
      <trkpt lat="10.1562584605388" lon="-75.6824485677991">
        <ele>52.2851891</ele>
        <time>2019-09-10T14:58:10.500Z</time>
      </trkpt>
      <trkpt lat="10.156260194558" lon="-75.6824507095417">
        <ele>52.2851891</ele>
        <time>2019-09-10T14:58:10.600Z</time>
      </trkpt>
      <trkpt lat="10.1562619152371" lon="-75.6824528420935">
        <ele>52.2851891</ele>
        <time>2019-09-10T14:58:10.700Z</time>
      </trkpt>
      <trkpt lat="10.1562636336233" lon="-75.6824549605805">
        <ele>52.2851891</ele>
        <time>2019-09-10T14:58:10.800Z</time>
      </trkpt>
      <trkpt lat="10.1562653638907" lon="-75.682457094873">
        <ele>52.2851891</ele>
        <time>2019-09-10T14:58:10.900Z</time>
      </trkpt>
      <trkpt lat="10.1562670999944" lon="-75.6824592288173">
        <ele>52.2851891</ele>
        <time>2019-09-10T14:58:11.000Z</time>
      </trkpt>
      <trkpt lat="10.1562688371403" lon="-75.6824613551026">
        <ele>52.2851891</ele>
        <time>2019-09-10T14:58:11.100Z</time>
      </trkpt>
      <trkpt lat="10.156270574703" lon="-75.6824634756784">
        <ele>52.2851891</ele>
        <time>2019-09-10T14:58:11.200Z</time>
      </trkpt>
      <trkpt lat="10.156272308097" lon="-75.6824655851138">
        <ele>52.2851891</ele>
        <time>2019-09-10T14:58:11.300Z</time>
      </trkpt>
      <trkpt lat="10.1562740327364" lon="-75.6824676920427">
        <ele>52.2851891</ele>
        <time>2019-09-10T14:58:11.400Z</time>
      </trkpt>
      <trkpt lat="10.1562757573759" lon="-75.6824698176317">
        <ele>52.2851891</ele>
        <time>2019-09-10T14:58:11.500Z</time>
      </trkpt>
      <trkpt lat="10.1562792358365" lon="-75.6824741025095">
        <ele>52.2851891</ele>
        <time>2019-09-10T14:58:11.700Z</time>
      </trkpt>
      <trkpt lat="10.1562809965362" lon="-75.6824762418847">
        <ele>52.2851891</ele>
        <time>2019-09-10T14:58:11.800Z</time>
      </trkpt>
      <trkpt lat="10.156282719925" lon="-75.6824783364199">
        <ele>52.2851891</ele>
        <time>2019-09-10T14:58:11.900Z</time>
      </trkpt>
      <trkpt lat="10.1562844220528" lon="-75.6824804203716">
        <ele>52.2851891</ele>
        <time>2019-09-10T14:58:12.000Z</time>
      </trkpt>
      <trkpt lat="10.1562860947905" lon="-75.6824825020953">
        <ele>52.2851891</ele>
        <time>2019-09-10T14:58:12.100Z</time>
      </trkpt>
      <trkpt lat="10.1562877721138" lon="-75.6824845960735">
        <ele>52.3851891</ele>
        <time>2019-09-10T14:58:12.200Z</time>
      </trkpt>
      <trkpt lat="10.1562894640281" lon="-75.6824866854562">
        <ele>52.3851891</ele>
        <time>2019-09-10T14:58:12.300Z</time>
      </trkpt>
      <trkpt lat="10.1562911742851" lon="-75.6824887777632">
        <ele>52.3851891</ele>
        <time>2019-09-10T14:58:12.400Z</time>
      </trkpt>
      <trkpt lat="10.1562946039705" lon="-75.6824928694942">
        <ele>52.3851891</ele>
        <time>2019-09-10T14:58:12.600Z</time>
      </trkpt>
      <trkpt lat="10.1562963158951" lon="-75.6824949095807">
        <ele>52.3851891</ele>
        <time>2019-09-10T14:58:12.700Z</time>
      </trkpt>
      <trkpt lat="10.156298029904" lon="-75.6824969673525">
        <ele>52.3851891</ele>
        <time>2019-09-10T14:58:12.800Z</time>
      </trkpt>
      <trkpt lat="10.156299745789" lon="-75.6824990160727">
        <ele>52.3851891</ele>
        <time>2019-09-10T14:58:12.900Z</time>
      </trkpt>
      <trkpt lat="10.1563014725128" lon="-75.6825010692491">
        <ele>52.3851891</ele>
        <time>2019-09-10T14:58:13.000Z</time>
      </trkpt>
      <trkpt lat="10.1563032111178" lon="-75.682503107943">
        <ele>52.3851891</ele>
        <time>2019-09-10T14:58:13.100Z</time>
      </trkpt>
      <trkpt lat="10.1563049566013" lon="-75.6825051473331">
        <ele>52.3851891</ele>
        <time>2019-09-10T14:58:13.200Z</time>
      </trkpt>
      <trkpt lat="10.1563066797817" lon="-75.6825071780894">
        <ele>52.3851891</ele>
        <time>2019-09-10T14:58:13.300Z</time>
      </trkpt>
      <trkpt lat="10.1563083971257" lon="-75.6825092190114">
        <ele>52.3851891</ele>
        <time>2019-09-10T14:58:13.400Z</time>
      </trkpt>
      <trkpt lat="10.156310113219" lon="-75.6825112893162">
        <ele>52.3851891</ele>
        <time>2019-09-10T14:58:13.500Z</time>
      </trkpt>
      <trkpt lat="10.1563118409851" lon="-75.6825133727109">
        <ele>52.3851891</ele>
        <time>2019-09-10T14:58:13.600Z</time>
      </trkpt>
      <trkpt lat="10.1563135745875" lon="-75.6825154505354">
        <ele>52.3851891</ele>
        <time>2019-09-10T14:58:13.700Z</time>
      </trkpt>
      <trkpt lat="10.1563153127756" lon="-75.6825175220935">
        <ele>52.3851891</ele>
        <time>2019-09-10T14:58:13.800Z</time>
      </trkpt>
      <trkpt lat="10.1563170542987" lon="-75.6825196121725">
        <ele>52.3851891</ele>
        <time>2019-09-10T14:58:13.900Z</time>
      </trkpt>
      <trkpt lat="10.1563187970725" lon="-75.6825217001626">
        <ele>52.3851891</ele>
        <time>2019-09-10T14:58:14.000Z</time>
      </trkpt>
      <trkpt lat="10.1563205415139" lon="-75.6825237792405">
        <ele>52.3851891</ele>
        <time>2019-09-10T14:58:14.100Z</time>
      </trkpt>
      <trkpt lat="10.1563222861636" lon="-75.6825258498237">
        <ele>52.3851891</ele>
        <time>2019-09-10T14:58:14.200Z</time>
      </trkpt>
      <trkpt lat="10.1563240554094" lon="-75.6825279632976">
        <ele>52.3851891</ele>
        <time>2019-09-10T14:58:14.300Z</time>
      </trkpt>
      <trkpt lat="10.1563258271565" lon="-75.6825300813668">
        <ele>52.3851891</ele>
        <time>2019-09-10T14:58:14.400Z</time>
      </trkpt>
      <trkpt lat="10.156327544292" lon="-75.6825321823077">
        <ele>52.3851891</ele>
        <time>2019-09-10T14:58:14.500Z</time>
      </trkpt>
      <trkpt lat="10.1563292472536" lon="-75.6825342641706">
        <ele>52.3851891</ele>
        <time>2019-09-10T14:58:14.600Z</time>
      </trkpt>
      <trkpt lat="10.1563309397932" lon="-75.6825363584273">
        <ele>52.3851891</ele>
        <time>2019-09-10T14:58:14.700Z</time>
      </trkpt>
      <trkpt lat="10.1563326442139" lon="-75.6825384542157">
        <ele>52.3851891</ele>
        <time>2019-09-10T14:58:14.800Z</time>
      </trkpt>
      <trkpt lat="10.1563342973581" lon="-75.6825405398385">
        <ele>52.3851891</ele>
        <time>2019-09-10T14:58:14.900Z</time>
      </trkpt>
      <trkpt lat="10.1563359467504" lon="-75.6825426258791">
        <ele>52.3851891</ele>
        <time>2019-09-10T14:58:15.000Z</time>
      </trkpt>
      <trkpt lat="10.1563375930161" lon="-75.6825447227816">
        <ele>52.2851891</ele>
        <time>2019-09-10T14:58:15.100Z</time>
      </trkpt>
      <trkpt lat="10.1563409620452" lon="-75.6825489338542">
        <ele>52.2851891</ele>
        <time>2019-09-10T14:58:15.300Z</time>
      </trkpt>
      <trkpt lat="10.1563426773048" lon="-75.6825510321492">
        <ele>52.2851891</ele>
        <time>2019-09-10T14:58:15.400Z</time>
      </trkpt>
      <trkpt lat="10.156344425915" lon="-75.6825531566242">
        <ele>52.2851891</ele>
        <time>2019-09-10T14:58:15.500Z</time>
      </trkpt>
      <trkpt lat="10.1563461718154" lon="-75.6825552851376">
        <ele>52.2851891</ele>
        <time>2019-09-10T14:58:15.600Z</time>
      </trkpt>
      <trkpt lat="10.156347931056" lon="-75.6825574164361">
        <ele>52.2851891</ele>
        <time>2019-09-10T14:58:15.700Z</time>
      </trkpt>
      <trkpt lat="10.1563496815421" lon="-75.6825595375689">
        <ele>52.2851891</ele>
        <time>2019-09-10T14:58:15.800Z</time>
      </trkpt>
      <trkpt lat="10.1563514420334" lon="-75.6825616534101">
        <ele>52.2851891</ele>
        <time>2019-09-10T14:58:15.900Z</time>
      </trkpt>
      <trkpt lat="10.1563531985643" lon="-75.6825637592249">
        <ele>52.2851891</ele>
        <time>2019-09-10T14:58:16.000Z</time>
      </trkpt>
      <trkpt lat="10.1563549917807" lon="-75.682565853203">
        <ele>52.2851891</ele>
        <time>2019-09-10T14:58:16.100Z</time>
      </trkpt>
      <trkpt lat="10.1563567868732" lon="-75.6825679389651">
        <ele>52.2851891</ele>
        <time>2019-09-10T14:58:16.200Z</time>
      </trkpt>
      <trkpt lat="10.1563585890526" lon="-75.6825700439444">
        <ele>52.2851891</ele>
        <time>2019-09-10T14:58:16.300Z</time>
      </trkpt>
      <trkpt lat="10.1563603866463" lon="-75.6825721450245">
        <ele>52.2851891</ele>
        <time>2019-09-10T14:58:16.400Z</time>
      </trkpt>
      <trkpt lat="10.1563622027913" lon="-75.6825742470794">
        <ele>52.2851891</ele>
        <time>2019-09-10T14:58:16.500Z</time>
      </trkpt>
      <trkpt lat="10.1563640133084" lon="-75.6825763424501">
        <ele>52.2851891</ele>
        <time>2019-09-10T14:58:16.600Z</time>
      </trkpt>
      <trkpt lat="10.1563658206988" lon="-75.6825784250093">
        <ele>52.2851891</ele>
        <time>2019-09-10T14:58:16.700Z</time>
      </trkpt>
      <trkpt lat="10.1563676197516" lon="-75.6825804997702">
        <ele>52.2851891</ele>
        <time>2019-09-10T14:58:16.800Z</time>
      </trkpt>
      <trkpt lat="10.1563694202635" lon="-75.682582557542">
        <ele>52.2851891</ele>
        <time>2019-09-10T14:58:16.900Z</time>
      </trkpt>
      <trkpt lat="10.1563712093112" lon="-75.6825846167064">
        <ele>52.2851891</ele>
        <time>2019-09-10T14:58:17.000Z</time>
      </trkpt>
      <trkpt lat="10.1563729854355" lon="-75.6825866852008">
        <ele>52.2851891</ele>
        <time>2019-09-10T14:58:17.100Z</time>
      </trkpt>
      <trkpt lat="10.156374754056" lon="-75.6825887651142">
        <ele>52.2851891</ele>
        <time>2019-09-10T14:58:17.200Z</time>
      </trkpt>
      <trkpt lat="10.1563765241355" lon="-75.6825908284562">
        <ele>52.2851891</ele>
        <time>2019-09-10T14:58:17.300Z</time>
      </trkpt>
      <trkpt lat="10.1563782923391" lon="-75.6825928865065">
        <ele>52.2851891</ele>
        <time>2019-09-10T14:58:17.400Z</time>
      </trkpt>
      <trkpt lat="10.1563800447012" lon="-75.6825949562543">
        <ele>52.2851891</ele>
        <time>2019-09-10T14:58:17.500Z</time>
      </trkpt>
      <trkpt lat="10.1563817912269" lon="-75.682597033661">
        <ele>52.2851891</ele>
        <time>2019-09-10T14:58:17.600Z</time>
      </trkpt>
      <trkpt lat="10.1563835498422" lon="-75.6825991298672">
        <ele>52.2851891</ele>
        <time>2019-09-10T14:58:17.700Z</time>
      </trkpt>
      <trkpt lat="10.1563853124179" lon="-75.6826012255164">
        <ele>52.2851891</ele>
        <time>2019-09-10T14:58:17.800Z</time>
      </trkpt>
      <trkpt lat="10.1563870599858" lon="-75.6826033091897">
        <ele>52.2851891</ele>
        <time>2019-09-10T14:58:17.900Z</time>
      </trkpt>
      <trkpt lat="10.156388804844" lon="-75.6826053804692">
        <ele>52.2851891</ele>
        <time>2019-09-10T14:58:18.000Z</time>
      </trkpt>
      <trkpt lat="10.1563905401139" lon="-75.6826074319746">
        <ele>52.2851891</ele>
        <time>2019-09-10T14:58:18.100Z</time>
      </trkpt>
      <trkpt lat="10.1563922760092" lon="-75.6826094859865">
        <ele>52.2851891</ele>
        <time>2019-09-10T14:58:18.200Z</time>
      </trkpt>
      <trkpt lat="10.1563940077356" lon="-75.6826115581016">
        <ele>52.2851891</ele>
        <time>2019-09-10T14:58:18.300Z</time>
      </trkpt>
      <trkpt lat="10.1563957459237" lon="-75.6826136455347">
        <ele>52.2851891</ele>
        <time>2019-09-10T14:58:18.400Z</time>
      </trkpt>
      <trkpt lat="10.1563974751488" lon="-75.6826157541346">
        <ele>52.2851891</ele>
        <time>2019-09-10T14:58:18.500Z</time>
      </trkpt>
      <trkpt lat="10.1563992056246" lon="-75.6826178669122">
        <ele>52.2851891</ele>
        <time>2019-09-10T14:58:18.600Z</time>
      </trkpt>
      <trkpt lat="10.1564009060849" lon="-75.6826199627006">
        <ele>52.2851891</ele>
        <time>2019-09-10T14:58:18.700Z</time>
      </trkpt>
      <trkpt lat="10.1564026005004" lon="-75.6826220498552">
        <ele>52.2851891</ele>
        <time>2019-09-10T14:58:18.800Z</time>
      </trkpt>
      <trkpt lat="10.1564042951244" lon="-75.682624139795">
        <ele>52.2851891</ele>
        <time>2019-09-10T14:58:18.900Z</time>
      </trkpt>
      <trkpt lat="10.1564060062152" lon="-75.6826262339123">
        <ele>52.2851891</ele>
        <time>2019-09-10T14:58:19.000Z</time>
      </trkpt>
      <trkpt lat="10.1564077273111" lon="-75.6826283273334">
        <ele>52.2851891</ele>
        <time>2019-09-10T14:58:19.100Z</time>
      </trkpt>
      <trkpt lat="10.1564094571616" lon="-75.6826304213116">
        <ele>52.2851891</ele>
        <time>2019-09-10T14:58:19.200Z</time>
      </trkpt>
      <trkpt lat="10.1564129343715" lon="-75.6826346109389">
        <ele>52.2851891</ele>
        <time>2019-09-10T14:58:19.400Z</time>
      </trkpt>
      <trkpt lat="10.1564147090368" lon="-75.6826367628471">
        <ele>52.2851891</ele>
        <time>2019-09-10T14:58:19.500Z</time>
      </trkpt>
      <trkpt lat="10.1564164849527" lon="-75.6826389207433">
        <ele>52.2851891</ele>
        <time>2019-09-10T14:58:19.600Z</time>
      </trkpt>
      <trkpt lat="10.1564182175129" lon="-75.682641023216">
        <ele>52.2851891</ele>
        <time>2019-09-10T14:58:19.700Z</time>
      </trkpt>
      <trkpt lat="10.156419936316" lon="-75.6826430949133">
        <ele>52.2851891</ele>
        <time>2019-09-10T14:58:19.800Z</time>
      </trkpt>
      <trkpt lat="10.1564216476152" lon="-75.6826451345819">
        <ele>52.2851891</ele>
        <time>2019-09-10T14:58:19.900Z</time>
      </trkpt>
      <trkpt lat="10.1564233693365" lon="-75.6826471792638">
        <ele>52.2851891</ele>
        <time>2019-09-10T14:58:20.000Z</time>
      </trkpt>
      <trkpt lat="10.1564250877227" lon="-75.6826492277055">
        <ele>52.2851891</ele>
        <time>2019-09-10T14:58:20.100Z</time>
      </trkpt>
      <trkpt lat="10.1564268136128" lon="-75.6826512931364">
        <ele>52.2851891</ele>
        <time>2019-09-10T14:58:20.200Z</time>
      </trkpt>
      <trkpt lat="10.1564285397113" lon="-75.6826533447809">
        <ele>52.2851891</ele>
        <time>2019-09-10T14:58:20.300Z</time>
      </trkpt>
      <trkpt lat="10.1564302708124" lon="-75.6826554004639">
        <ele>52.2851891</ele>
        <time>2019-09-10T14:58:20.400Z</time>
      </trkpt>
      <trkpt lat="10.1564320031641" lon="-75.6826574443102">
        <ele>52.2851891</ele>
        <time>2019-09-10T14:58:20.500Z</time>
      </trkpt>
      <trkpt lat="10.1564337353075" lon="-75.6826594941445">
        <ele>52.2851891</ele>
        <time>2019-09-10T14:58:20.600Z</time>
      </trkpt>
      <trkpt lat="10.156435468493" lon="-75.6826615357627">
        <ele>52.2851891</ele>
        <time>2019-09-10T14:58:20.700Z</time>
      </trkpt>
      <trkpt lat="10.1564372023038" lon="-75.6826635876858">
        <ele>52.2851891</ele>
        <time>2019-09-10T14:58:20.800Z</time>
      </trkpt>
      <trkpt lat="10.1564389096427" lon="-75.6826656552055">
        <ele>52.2851891</ele>
        <time>2019-09-10T14:58:20.900Z</time>
      </trkpt>
      <trkpt lat="10.1564406136465" lon="-75.6826677386002">
        <ele>52.2851891</ele>
        <time>2019-09-10T14:58:21.000Z</time>
      </trkpt>
      <trkpt lat="10.156442327447" lon="-75.6826698206024">
        <ele>52.2851891</ele>
        <time>2019-09-10T14:58:21.100Z</time>
      </trkpt>
      <trkpt lat="10.1564440539624" lon="-75.682671906086">
        <ele>52.2851891</ele>
        <time>2019-09-10T14:58:21.200Z</time>
      </trkpt>
      <trkpt lat="10.1564457644278" lon="-75.6826740074446">
        <ele>52.2851891</ele>
        <time>2019-09-10T14:58:21.300Z</time>
      </trkpt>
      <trkpt lat="10.1564474771862" lon="-75.6826761195259">
        <ele>52.2851891</ele>
        <time>2019-09-10T14:58:21.400Z</time>
      </trkpt>
      <trkpt lat="10.1564491738945" lon="-75.6826782144788">
        <ele>52.2851891</ele>
        <time>2019-09-10T14:58:21.500Z</time>
      </trkpt>
      <trkpt lat="10.1564508820671" lon="-75.6826803056719">
        <ele>52.2851891</ele>
        <time>2019-09-10T14:58:21.600Z</time>
      </trkpt>
      <trkpt lat="10.1564525979521" lon="-75.6826824238804">
        <ele>52.2851891</ele>
        <time>2019-09-10T14:58:21.700Z</time>
      </trkpt>
      <trkpt lat="10.1564543290532" lon="-75.6826845553181">
        <ele>52.2851891</ele>
        <time>2019-09-10T14:58:21.800Z</time>
      </trkpt>
      <trkpt lat="10.156456068075" lon="-75.6826866789575">
        <ele>52.2851891</ele>
        <time>2019-09-10T14:58:21.900Z</time>
      </trkpt>
      <trkpt lat="10.1564578166852" lon="-75.6826887946594">
        <ele>52.2851891</ele>
        <time>2019-09-10T14:58:22.000Z</time>
      </trkpt>
      <trkpt lat="10.1564595917673" lon="-75.6826909294393">
        <ele>52.2851891</ele>
        <time>2019-09-10T14:58:22.100Z</time>
      </trkpt>
      <trkpt lat="10.156461369976" lon="-75.6826930628266">
        <ele>52.2851891</ele>
        <time>2019-09-10T14:58:22.200Z</time>
      </trkpt>
      <trkpt lat="10.1564631192115" lon="-75.6826951570832">
        <ele>52.2851891</ele>
        <time>2019-09-10T14:58:22.300Z</time>
      </trkpt>
      <trkpt lat="10.1564648582333" lon="-75.6826972368574">
        <ele>52.2851891</ele>
        <time>2019-09-10T14:58:22.400Z</time>
      </trkpt>
      <trkpt lat="10.1564665868332" lon="-75.6826993060481">
        <ele>52.2851891</ele>
        <time>2019-09-10T14:58:22.500Z</time>
      </trkpt>
      <trkpt lat="10.1564683239791" lon="-75.6827013840119">
        <ele>52.2851891</ele>
        <time>2019-09-10T14:58:22.600Z</time>
      </trkpt>
      <trkpt lat="10.1564700500776" lon="-75.6827034362135">
        <ele>52.2851891</ele>
        <time>2019-09-10T14:58:22.700Z</time>
      </trkpt>
      <trkpt lat="10.1564717813871" lon="-75.6827054953778">
        <ele>52.2851891</ele>
        <time>2019-09-10T14:58:22.800Z</time>
      </trkpt>
      <trkpt lat="10.156473506235" lon="-75.6827075623405">
        <ele>52.2851891</ele>
        <time>2019-09-10T14:58:22.900Z</time>
      </trkpt>
      <trkpt lat="10.1564752392121" lon="-75.6827096447604">
        <ele>52.2851891</ele>
        <time>2019-09-10T14:58:23.000Z</time>
      </trkpt>
      <trkpt lat="10.1564769671866" lon="-75.6827117337254">
        <ele>52.2851891</ele>
        <time>2019-09-10T14:58:23.100Z</time>
      </trkpt>
      <trkpt lat="10.1564804548186" lon="-75.6827159286444">
        <ele>52.2851891</ele>
        <time>2019-09-10T14:58:23.300Z</time>
      </trkpt>
      <trkpt lat="10.1564822157267" lon="-75.6827180291675">
        <ele>52.2851891</ele>
        <time>2019-09-10T14:58:23.400Z</time>
      </trkpt>
      <trkpt lat="10.1564839785108" lon="-75.6827201360963">
        <ele>52.1851891</ele>
        <time>2019-09-10T14:58:23.500Z</time>
      </trkpt>
      <trkpt lat="10.1564857352502" lon="-75.6827222410756">
        <ele>52.1851891</ele>
        <time>2019-09-10T14:58:23.600Z</time>
      </trkpt>
      <trkpt lat="10.1564874861531" lon="-75.6827243688927">
        <ele>52.1851891</ele>
        <time>2019-09-10T14:58:23.700Z</time>
      </trkpt>
      <trkpt lat="10.1564892378899" lon="-75.6827264964313">
        <ele>52.1851891</ele>
        <time>2019-09-10T14:58:23.800Z</time>
      </trkpt>
      <trkpt lat="10.156491007761" lon="-75.6827286229951">
        <ele>52.1851891</ele>
        <time>2019-09-10T14:58:23.900Z</time>
      </trkpt>
      <trkpt lat="10.1564927688776" lon="-75.6827307368867">
        <ele>52.1851891</ele>
        <time>2019-09-10T14:58:24.000Z</time>
      </trkpt>
      <trkpt lat="10.156494512902" lon="-75.6827328459044">
        <ele>52.1851891</ele>
        <time>2019-09-10T14:58:24.100Z</time>
      </trkpt>
      <trkpt lat="10.1564962408765" lon="-75.6827349414143">
        <ele>52.1851891</ele>
        <time>2019-09-10T14:58:24.200Z</time>
      </trkpt>
      <trkpt lat="10.1564979653075" lon="-75.6827370640789">
        <ele>52.1851891</ele>
        <time>2019-09-10T14:58:24.300Z</time>
      </trkpt>
      <trkpt lat="10.1564996849444" lon="-75.6827391917568">
        <ele>52.1851891</ele>
        <time>2019-09-10T14:58:24.400Z</time>
      </trkpt>
      <trkpt lat="10.156501380819" lon="-75.6827413208272">
        <ele>52.1851891</ele>
        <time>2019-09-10T14:58:24.500Z</time>
      </trkpt>
      <trkpt lat="10.156503073567" lon="-75.6827434355543">
        <ele>52.1851891</ele>
        <time>2019-09-10T14:58:24.600Z</time>
      </trkpt>
      <trkpt lat="10.1565047957051" lon="-75.6827456119714">
        <ele>52.1851891</ele>
        <time>2019-09-10T14:58:24.700Z</time>
      </trkpt>
      <trkpt lat="10.1565065218036" lon="-75.6827477856034">
        <ele>52.1851891</ele>
        <time>2019-09-10T14:58:24.800Z</time>
      </trkpt>
      <trkpt lat="10.1565082103828" lon="-75.6827498933678">
        <ele>52.1851891</ele>
        <time>2019-09-10T14:58:24.900Z</time>
      </trkpt>
      <trkpt lat="10.1565098827036" lon="-75.6827519665969">
        <ele>52.1851891</ele>
        <time>2019-09-10T14:58:25.000Z</time>
      </trkpt>
      <trkpt lat="10.1565114941597" lon="-75.6827539706163">
        <ele>52.1851891</ele>
        <time>2019-09-10T14:58:25.100Z</time>
      </trkpt>
      <trkpt lat="10.1565131129112" lon="-75.682755976446">
        <ele>52.1851891</ele>
        <time>2019-09-10T14:58:25.200Z</time>
      </trkpt>
      <trkpt lat="10.1565147439607" lon="-75.6827579822757">
        <ele>52.1851891</ele>
        <time>2019-09-10T14:58:25.300Z</time>
      </trkpt>
      <trkpt lat="10.1565164154477" lon="-75.682760020691">
        <ele>52.2851891</ele>
        <time>2019-09-10T14:58:25.400Z</time>
      </trkpt>
      <trkpt lat="10.1565181027763" lon="-75.6827620499156">
        <ele>52.2851891</ele>
        <time>2019-09-10T14:58:25.500Z</time>
      </trkpt>
      <trkpt lat="10.1565198101151" lon="-75.6827640975218">
        <ele>52.2851891</ele>
        <time>2019-09-10T14:58:25.600Z</time>
      </trkpt>
      <trkpt lat="10.1565214974436" lon="-75.6827661451279">
        <ele>52.2851891</ele>
        <time>2019-09-10T14:58:25.700Z</time>
      </trkpt>
      <trkpt lat="10.1565231887325" lon="-75.6827682045708">
        <ele>52.2851891</ele>
        <time>2019-09-10T14:58:25.800Z</time>
      </trkpt>
      <trkpt lat="10.1565249123298" lon="-75.6827703135885">
        <ele>52.2851891</ele>
        <time>2019-09-10T14:58:25.900Z</time>
      </trkpt>
      <trkpt lat="10.1565266398874" lon="-75.6827724425196">
        <ele>52.2851891</ele>
        <time>2019-09-10T14:58:26.000Z</time>
      </trkpt>
      <trkpt lat="10.1565283686956" lon="-75.6827746175442">
        <ele>52.2851891</ele>
        <time>2019-09-10T14:58:26.100Z</time>
      </trkpt>
      <trkpt lat="10.1565300922929" lon="-75.6827767858845">
        <ele>52.2851891</ele>
        <time>2019-09-10T14:58:26.200Z</time>
      </trkpt>
      <trkpt lat="10.1565318333992" lon="-75.6827789536678">
        <ele>52.2851891</ele>
        <time>2019-09-10T14:58:26.300Z</time>
      </trkpt>
      <trkpt lat="10.1565335774236" lon="-75.6827811007021">
        <ele>52.2851891</ele>
        <time>2019-09-10T14:58:26.400Z</time>
      </trkpt>
      <trkpt lat="10.1565353158201" lon="-75.682783257902">
        <ele>52.2851891</ele>
        <time>2019-09-10T14:58:26.500Z</time>
      </trkpt>
      <trkpt lat="10.1565370494225" lon="-75.6827854041008">
        <ele>52.2851891</ele>
        <time>2019-09-10T14:58:26.600Z</time>
      </trkpt>
      <trkpt lat="10.1565387899035" lon="-75.6827875312216">
        <ele>52.2851891</ele>
        <time>2019-09-10T14:58:26.700Z</time>
      </trkpt>
      <trkpt lat="10.1565405310097" lon="-75.6827896490123">
        <ele>52.2851891</ele>
        <time>2019-09-10T14:58:26.800Z</time>
      </trkpt>
      <trkpt lat="10.1565422704485" lon="-75.6827917513458">
        <ele>52.2851891</ele>
        <time>2019-09-10T14:58:26.900Z</time>
      </trkpt>
      <trkpt lat="10.1565440090534" lon="-75.6827938513118">
        <ele>52.2851891</ele>
        <time>2019-09-10T14:58:27.000Z</time>
      </trkpt>
      <trkpt lat="10.15654574745" lon="-75.6827959617221">
        <ele>52.2851891</ele>
        <time>2019-09-10T14:58:27.100Z</time>
      </trkpt>
      <trkpt lat="10.1565474879309" lon="-75.6827980803483">
        <ele>52.2851891</ele>
        <time>2019-09-10T14:58:27.200Z</time>
      </trkpt>
      <trkpt lat="10.1565492607202" lon="-75.6828002275219">
        <ele>52.2851891</ele>
        <time>2019-09-10T14:58:27.300Z</time>
      </trkpt>
      <trkpt lat="10.1565527533548" lon="-75.6828044594827">
        <ele>52.2851891</ele>
        <time>2019-09-10T14:58:27.500Z</time>
      </trkpt>
      <trkpt lat="10.156556217433" lon="-75.6828085719627">
        <ele>52.2851891</ele>
        <time>2019-09-10T14:58:27.700Z</time>
      </trkpt>
      <trkpt lat="10.1565579895969" lon="-75.682810634887">
        <ele>52.2851891</ele>
        <time>2019-09-10T14:58:27.800Z</time>
      </trkpt>
      <trkpt lat="10.1565597325791" lon="-75.6828126730238">
        <ele>52.2851891</ele>
        <time>2019-09-10T14:58:27.900Z</time>
      </trkpt>
      <trkpt lat="10.1565614703504" lon="-75.6828147252255">
        <ele>52.1851891</ele>
        <time>2019-09-10T14:58:28.000Z</time>
      </trkpt>
      <trkpt lat="10.1565632139579" lon="-75.6828168412059">
        <ele>52.1851891</ele>
        <time>2019-09-10T14:58:28.100Z</time>
      </trkpt>
      <trkpt lat="10.1565649671537" lon="-75.6828189869869">
        <ele>52.1851891</ele>
        <time>2019-09-10T14:58:28.200Z</time>
      </trkpt>
      <trkpt lat="10.1565667255606" lon="-75.6828211533776">
        <ele>52.2851891</ele>
        <time>2019-09-10T14:58:28.300Z</time>
      </trkpt>
      <trkpt lat="10.1565684797986" lon="-75.6828233144767">
        <ele>52.2851891</ele>
        <time>2019-09-10T14:58:28.400Z</time>
      </trkpt>
      <trkpt lat="10.1565702219471" lon="-75.6828254683345">
        <ele>52.2851891</ele>
        <time>2019-09-10T14:58:28.500Z</time>
      </trkpt>
      <trkpt lat="10.1565719534651" lon="-75.6828276136977">
        <ele>52.2851891</ele>
        <time>2019-09-10T14:58:28.600Z</time>
      </trkpt>
      <trkpt lat="10.1565736533001" lon="-75.6828297571114">
        <ele>52.1851891</ele>
        <time>2019-09-10T14:58:28.700Z</time>
      </trkpt>
      <trkpt lat="10.1565753523013" lon="-75.682831892866">
        <ele>52.1851891</ele>
        <time>2019-09-10T14:58:28.800Z</time>
      </trkpt>
      <trkpt lat="10.1565770348357" lon="-75.6828339985416">
        <ele>52.1851891</ele>
        <time>2019-09-10T14:58:28.900Z</time>
      </trkpt>
      <trkpt lat="10.1565787265415" lon="-75.6828360971151">
        <ele>52.1851891</ele>
        <time>2019-09-10T14:58:29.000Z</time>
      </trkpt>
      <trkpt lat="10.1565804272102" lon="-75.6828382321735">
        <ele>52.2851891</ele>
        <time>2019-09-10T14:58:29.100Z</time>
      </trkpt>
      <trkpt lat="10.1565821445542" lon="-75.6828403689029">
        <ele>52.2851891</ele>
        <time>2019-09-10T14:58:29.200Z</time>
      </trkpt>
      <trkpt lat="10.1565838552281" lon="-75.6828424599567">
        <ele>52.2851891</ele>
        <time>2019-09-10T14:58:29.300Z</time>
      </trkpt>
      <trkpt lat="10.1565855704877" lon="-75.6828445349961">
        <ele>52.2851891</ele>
        <time>2019-09-10T14:58:29.400Z</time>
      </trkpt>
      <trkpt lat="10.1565872717818" lon="-75.6828466341266">
        <ele>52.2851891</ele>
        <time>2019-09-10T14:58:29.500Z</time>
      </trkpt>
      <trkpt lat="10.1565889793291" lon="-75.6828487502463">
        <ele>52.2851891</ele>
        <time>2019-09-10T14:58:29.600Z</time>
      </trkpt>
      <trkpt lat="10.1565906645732" lon="-75.6828508741643">
        <ele>52.2851891</ele>
        <time>2019-09-10T14:58:29.700Z</time>
      </trkpt>
      <trkpt lat="10.156592365242" lon="-75.6828529946009">
        <ele>52.2851891</ele>
        <time>2019-09-10T14:58:29.800Z</time>
      </trkpt>
      <trkpt lat="10.156594094884" lon="-75.6828551420529">
        <ele>52.2851891</ele>
        <time>2019-09-10T14:58:29.900Z</time>
      </trkpt>
      <trkpt lat="10.1565958403675" lon="-75.6828572938219">
        <ele>52.1851891</ele>
        <time>2019-09-10T14:58:30.000Z</time>
      </trkpt>
      <trkpt lat="10.1565975454135" lon="-75.6828594075742">
        <ele>52.1851891</ele>
        <time>2019-09-10T14:58:30.100Z</time>
      </trkpt>
      <trkpt lat="10.1565992412881" lon="-75.6828615075403">
        <ele>52.1851891</ele>
        <time>2019-09-10T14:58:30.200Z</time>
      </trkpt>
      <trkpt lat="10.1566009373712" lon="-75.6828635970623">
        <ele>52.1851891</ele>
        <time>2019-09-10T14:58:30.300Z</time>
      </trkpt>
      <trkpt lat="10.1566026392906" lon="-75.6828657053837">
        <ele>52.2851891</ele>
        <time>2019-09-10T14:58:30.400Z</time>
      </trkpt>
      <trkpt lat="10.1566042999387" lon="-75.6828678347326">
        <ele>52.2851891</ele>
        <time>2019-09-10T14:58:30.500Z</time>
      </trkpt>
      <trkpt lat="10.1566059468297" lon="-75.6828699853875">
        <ele>52.2851891</ele>
        <time>2019-09-10T14:58:30.600Z</time>
      </trkpt>
      <trkpt lat="10.1566075828818" lon="-75.6828721466258">
        <ele>52.2851891</ele>
        <time>2019-09-10T14:58:30.700Z</time>
      </trkpt>
      <trkpt lat="10.1566092276884" lon="-75.6828743106492">
        <ele>52.2851891</ele>
        <time>2019-09-10T14:58:30.800Z</time>
      </trkpt>
      <trkpt lat="10.1566108770807" lon="-75.6828765124108">
        <ele>52.2851891</ele>
        <time>2019-09-10T14:58:30.900Z</time>
      </trkpt>
      <trkpt lat="10.1566125281405" lon="-75.6828787161219">
        <ele>52.2851891</ele>
        <time>2019-09-10T14:58:31.000Z</time>
      </trkpt>
      <trkpt lat="10.1566141568972" lon="-75.6828809099459">
        <ele>52.2851891</ele>
        <time>2019-09-10T14:58:31.100Z</time>
      </trkpt>
      <trkpt lat="10.1566157771077" lon="-75.6828830789825">
        <ele>52.2851891</ele>
        <time>2019-09-10T14:58:31.200Z</time>
      </trkpt>
      <trkpt lat="10.1566190289932" lon="-75.6828873123358">
        <ele>52.2851891</ele>
        <time>2019-09-10T14:58:31.400Z</time>
      </trkpt>
      <trkpt lat="10.1566206692141" lon="-75.682889407428">
        <ele>52.2851891</ele>
        <time>2019-09-10T14:58:31.500Z</time>
      </trkpt>
      <trkpt lat="10.1566223259018" lon="-75.6828915236869">
        <ele>52.2851891</ele>
        <time>2019-09-10T14:58:31.600Z</time>
      </trkpt>
      <trkpt lat="10.1566239948875" lon="-75.6828936431487">
        <ele>52.2851891</ele>
        <time>2019-09-10T14:58:31.700Z</time>
      </trkpt>
      <trkpt lat="10.1566256765882" lon="-75.6828957614965">
        <ele>52.2851891</ele>
        <time>2019-09-10T14:58:31.800Z</time>
      </trkpt>
      <trkpt lat="10.1566273837186" lon="-75.6828978525503">
        <ele>52.2851891</ele>
        <time>2019-09-10T14:58:31.900Z</time>
      </trkpt>
      <trkpt lat="10.1566290985613" lon="-75.6828999328814">
        <ele>52.2851891</ele>
        <time>2019-09-10T14:58:32.000Z</time>
      </trkpt>
      <trkpt lat="10.1566308109027" lon="-75.6829019983122">
        <ele>52.2851891</ele>
        <time>2019-09-10T14:58:32.100Z</time>
      </trkpt>
      <trkpt lat="10.1566325182416" lon="-75.6829040782256">
        <ele>52.2851891</ele>
        <time>2019-09-10T14:58:32.200Z</time>
      </trkpt>
      <trkpt lat="10.1566359789847" lon="-75.6829082611687">
        <ele>52.2851891</ele>
        <time>2019-09-10T14:58:32.400Z</time>
      </trkpt>
      <trkpt lat="10.1566377411435" lon="-75.6829104122414">
        <ele>52.2851891</ele>
        <time>2019-09-10T14:58:32.500Z</time>
      </trkpt>
      <trkpt lat="10.1566395049698" lon="-75.6829125615037">
        <ele>52.2851891</ele>
        <time>2019-09-10T14:58:32.600Z</time>
      </trkpt>
      <trkpt lat="10.1566412604585" lon="-75.6829146882068">
        <ele>52.2851891</ele>
        <time>2019-09-10T14:58:32.700Z</time>
      </trkpt>
      <trkpt lat="10.1566430032323" lon="-75.6829168066938">
        <ele>52.2851891</ele>
        <time>2019-09-10T14:58:32.800Z</time>
      </trkpt>
      <trkpt lat="10.1566447255789" lon="-75.6829189254593">
        <ele>52.2851891</ele>
        <time>2019-09-10T14:58:32.900Z</time>
      </trkpt>
      <trkpt lat="10.156646451469" lon="-75.6829210403257">
        <ele>52.2851891</ele>
        <time>2019-09-10T14:58:33.000Z</time>
      </trkpt>
      <trkpt lat="10.1566482096674" lon="-75.6829231473938">
        <ele>52.2851891</ele>
        <time>2019-09-10T14:58:33.100Z</time>
      </trkpt>
      <trkpt lat="10.1566499910027" lon="-75.6829252559937">
        <ele>52.2851891</ele>
        <time>2019-09-10T14:58:33.200Z</time>
      </trkpt>
      <trkpt lat="10.1566517614991" lon="-75.6829273215638">
        <ele>52.2851891</ele>
        <time>2019-09-10T14:58:33.300Z</time>
      </trkpt>
      <trkpt lat="10.156653521782" lon="-75.6829293817029">
        <ele>52.2851891</ele>
        <time>2019-09-10T14:58:33.400Z</time>
      </trkpt>
      <trkpt lat="10.1566552680993" lon="-75.6829314311195">
        <ele>52.2851891</ele>
        <time>2019-09-10T14:58:33.500Z</time>
      </trkpt>
      <trkpt lat="10.1566570225457" lon="-75.6829335014242">
        <ele>52.2851891</ele>
        <time>2019-09-10T14:58:33.600Z</time>
      </trkpt>
      <trkpt lat="10.1566588013798" lon="-75.6829355871863">
        <ele>52.2851891</ele>
        <time>2019-09-10T14:58:33.700Z</time>
      </trkpt>
      <trkpt lat="10.1566605898021" lon="-75.6829376904945">
        <ele>52.2851891</ele>
        <time>2019-09-10T14:58:33.800Z</time>
      </trkpt>
      <trkpt lat="10.1566623550875" lon="-75.682939800487">
        <ele>52.2851891</ele>
        <time>2019-09-10T14:58:33.900Z</time>
      </trkpt>
      <trkpt lat="10.1566641089087" lon="-75.6829419078336">
        <ele>52.3851891</ele>
        <time>2019-09-10T14:58:34.000Z</time>
      </trkpt>
      <trkpt lat="10.1566658381338" lon="-75.6829440039005">
        <ele>52.3851891</ele>
        <time>2019-09-10T14:58:34.100Z</time>
      </trkpt>
      <trkpt lat="10.1566675658999" lon="-75.682946092587">
        <ele>52.3851891</ele>
        <time>2019-09-10T14:58:34.200Z</time>
      </trkpt>
      <trkpt lat="10.1566692999192" lon="-75.6829481704115">
        <ele>52.3851891</ele>
        <time>2019-09-10T14:58:34.300Z</time>
      </trkpt>
      <trkpt lat="10.1566710485293" lon="-75.6829502418303">
        <ele>52.3851891</ele>
        <time>2019-09-10T14:58:34.400Z</time>
      </trkpt>
      <trkpt lat="10.1566727927622" lon="-75.6829523160342">
        <ele>52.3851891</ele>
        <time>2019-09-10T14:58:34.500Z</time>
      </trkpt>
      <trkpt lat="10.1566745294912" lon="-75.6829543969224">
        <ele>52.3851891</ele>
        <time>2019-09-10T14:58:34.600Z</time>
      </trkpt>
      <trkpt lat="10.1566762537137" lon="-75.682956469316">
        <ele>52.3851891</ele>
        <time>2019-09-10T14:58:34.700Z</time>
      </trkpt>
      <trkpt lat="10.1566779756434" lon="-75.6829585417095">
        <ele>52.3851891</ele>
        <time>2019-09-10T14:58:34.800Z</time>
      </trkpt>
      <trkpt lat="10.1566796694336" lon="-75.6829606040768">
        <ele>52.3851891</ele>
        <time>2019-09-10T14:58:34.900Z</time>
      </trkpt>
      <trkpt lat="10.1566813592635" lon="-75.6829626728497">
        <ele>52.3851891</ele>
        <time>2019-09-10T14:58:35.000Z</time>
      </trkpt>
      <trkpt lat="10.1566831051639" lon="-75.6829648055408">
        <ele>52.3851891</ele>
        <time>2019-09-10T14:58:35.100Z</time>
      </trkpt>
      <trkpt lat="10.1566848664889" lon="-75.6829669461693">
        <ele>52.3851891</ele>
        <time>2019-09-10T14:58:35.200Z</time>
      </trkpt>
      <trkpt lat="10.1566866432385" lon="-75.682969089583">
        <ele>52.3851891</ele>
        <time>2019-09-10T14:58:35.300Z</time>
      </trkpt>
      <trkpt lat="10.1566884131096" lon="-75.6829712050064">
        <ele>52.3851891</ele>
        <time>2019-09-10T14:58:35.400Z</time>
      </trkpt>
      <trkpt lat="10.1566901642211" lon="-75.6829732509415">
        <ele>52.3851891</ele>
        <time>2019-09-10T14:58:35.500Z</time>
      </trkpt>
      <trkpt lat="10.1566919074117" lon="-75.6829752686079">
        <ele>52.3851891</ele>
        <time>2019-09-10T14:58:35.600Z</time>
      </trkpt>
      <trkpt lat="10.1566953908749" lon="-75.6829792436432">
        <ele>52.3851891</ele>
        <time>2019-09-10T14:58:35.800Z</time>
      </trkpt>
      <trkpt lat="10.1566971532422" lon="-75.6829812276098">
        <ele>52.3851891</ele>
        <time>2019-09-10T14:58:35.900Z</time>
      </trkpt>
      <trkpt lat="10.1566989462502" lon="-75.6829832259197">
        <ele>52.3851891</ele>
        <time>2019-09-10T14:58:36.000Z</time>
      </trkpt>
      <trkpt lat="10.1567007688568" lon="-75.6829852474852">
        <ele>52.3851891</ele>
        <time>2019-09-10T14:58:36.100Z</time>
      </trkpt>
      <trkpt lat="10.1567026110569" lon="-75.6829872824192">
        <ele>52.3851891</ele>
        <time>2019-09-10T14:58:36.200Z</time>
      </trkpt>
      <trkpt lat="10.1567044820218" lon="-75.6829893241767">
        <ele>52.3851891</ele>
        <time>2019-09-10T14:58:36.300Z</time>
      </trkpt>
      <trkpt lat="10.1567063569471" lon="-75.6829913553508">
        <ele>52.3851891</ele>
        <time>2019-09-10T14:58:36.400Z</time>
      </trkpt>
      <trkpt lat="10.1567082201997" lon="-75.6829933717638">
        <ele>52.3851891</ele>
        <time>2019-09-10T14:58:36.500Z</time>
      </trkpt>
      <trkpt lat="10.1567100759484" lon="-75.6829953934686">
        <ele>52.2851891</ele>
        <time>2019-09-10T14:58:36.600Z</time>
      </trkpt>
      <trkpt lat="10.156711953375" lon="-75.6829974310484">
        <ele>52.2851891</ele>
        <time>2019-09-10T14:58:36.700Z</time>
      </trkpt>
      <trkpt lat="10.1567138403898" lon="-75.6829994776798">
        <ele>52.2851891</ele>
        <time>2019-09-10T14:58:36.800Z</time>
      </trkpt>
      <trkpt lat="10.1567157082281" lon="-75.6830015337806">
        <ele>52.2851891</ele>
        <time>2019-09-10T14:58:36.900Z</time>
      </trkpt>
      <trkpt lat="10.1567175562645" lon="-75.683003594616">
        <ele>52.3851891</ele>
        <time>2019-09-10T14:58:37.000Z</time>
      </trkpt>
      <trkpt lat="10.1567194045094" lon="-75.6830056575402">
        <ele>52.3851891</ele>
        <time>2019-09-10T14:58:37.100Z</time>
      </trkpt>
      <trkpt lat="10.1567212562977" lon="-75.6830077219963">
        <ele>52.3851891</ele>
        <time>2019-09-10T14:58:37.200Z</time>
      </trkpt>
      <trkpt lat="10.1567231035004" lon="-75.6830097530312">
        <ele>52.3851891</ele>
        <time>2019-09-10T14:58:37.300Z</time>
      </trkpt>
      <trkpt lat="10.1567249375712" lon="-75.6830117787743">
        <ele>52.3851891</ele>
        <time>2019-09-10T14:58:37.400Z</time>
      </trkpt>
      <trkpt lat="10.1567267443364" lon="-75.6830138084166">
        <ele>52.3851891</ele>
        <time>2019-09-10T14:58:37.500Z</time>
      </trkpt>
      <trkpt lat="10.1567285325503" lon="-75.6830158543517">
        <ele>52.3851891</ele>
        <time>2019-09-10T14:58:37.600Z</time>
      </trkpt>
      <trkpt lat="10.156730321181" lon="-75.6830179291127">
        <ele>52.3851891</ele>
        <time>2019-09-10T14:58:37.700Z</time>
      </trkpt>
      <trkpt lat="10.1567321131469" lon="-75.683020008469">
        <ele>52.3851891</ele>
        <time>2019-09-10T14:58:37.800Z</time>
      </trkpt>
      <trkpt lat="10.1567338684271" lon="-75.6830220301738">
        <ele>52.3851891</ele>
        <time>2019-09-10T14:58:37.900Z</time>
      </trkpt>
      <trkpt lat="10.1567356114094" lon="-75.6830240376745">
        <ele>52.3851891</ele>
        <time>2019-09-10T14:58:38.000Z</time>
      </trkpt>
      <trkpt lat="10.1567373448033" lon="-75.6830260437827">
        <ele>52.2851891</ele>
        <time>2019-09-10T14:58:38.100Z</time>
      </trkpt>
      <trkpt lat="10.1567390865349" lon="-75.6830280724502">
        <ele>52.2851891</ele>
        <time>2019-09-10T14:58:38.200Z</time>
      </trkpt>
      <trkpt lat="10.1567408193035" lon="-75.6830301072449">
        <ele>52.3851891</ele>
        <time>2019-09-10T14:58:38.300Z</time>
      </trkpt>
      <trkpt lat="10.156742559576" lon="-75.6830321593073">
        <ele>52.3851891</ele>
        <time>2019-09-10T14:58:38.400Z</time>
      </trkpt>
      <trkpt lat="10.1567443202757" lon="-75.6830342179146">
        <ele>52.3851891</ele>
        <time>2019-09-10T14:58:38.500Z</time>
      </trkpt>
      <trkpt lat="10.1567460901468" lon="-75.6830362904475">
        <ele>52.3851891</ele>
        <time>2019-09-10T14:58:38.600Z</time>
      </trkpt>
      <trkpt lat="10.156747856266" lon="-75.6830383625626">
        <ele>52.3851891</ele>
        <time>2019-09-10T14:58:38.700Z</time>
      </trkpt>
      <trkpt lat="10.156749619467" lon="-75.6830404406656">
        <ele>52.3851891</ele>
        <time>2019-09-10T14:58:38.800Z</time>
      </trkpt>
      <trkpt lat="10.1567513659927" lon="-75.6830425386821">
        <ele>52.3851891</ele>
        <time>2019-09-10T14:58:38.900Z</time>
      </trkpt>
      <trkpt lat="10.1567531081412" lon="-75.6830446476998">
        <ele>52.3851891</ele>
        <time>2019-09-10T14:58:39.000Z</time>
      </trkpt>
      <trkpt lat="10.1567548548754" lon="-75.6830467617306">
        <ele>52.3851891</ele>
        <time>2019-09-10T14:58:39.100Z</time>
      </trkpt>
      <trkpt lat="10.1567566003589" lon="-75.6830488740904">
        <ele>52.3851891</ele>
        <time>2019-09-10T14:58:39.200Z</time>
      </trkpt>
      <trkpt lat="10.1567600656877" lon="-75.6830531659309">
        <ele>52.3851891</ele>
        <time>2019-09-10T14:58:39.400Z</time>
      </trkpt>
      <trkpt lat="10.1567618009576" lon="-75.6830553151933">
        <ele>52.3851891</ele>
        <time>2019-09-10T14:58:39.500Z</time>
      </trkpt>
      <trkpt lat="10.1567635406048" lon="-75.6830574496947">
        <ele>52.3851891</ele>
        <time>2019-09-10T14:58:39.600Z</time>
      </trkpt>
      <trkpt lat="10.1567652796267" lon="-75.6830595943616">
        <ele>52.3851891</ele>
        <time>2019-09-10T14:58:39.700Z</time>
      </trkpt>
      <trkpt lat="10.1567670183359" lon="-75.6830617398641">
        <ele>52.3851891</ele>
        <time>2019-09-10T14:58:39.800Z</time>
      </trkpt>
      <trkpt lat="10.1567687317195" lon="-75.683063902495">
        <ele>52.3851891</ele>
        <time>2019-09-10T14:58:39.900Z</time>
      </trkpt>
      <trkpt lat="10.1567704388499" lon="-75.6830660608089">
        <ele>52.3851891</ele>
        <time>2019-09-10T14:58:40.000Z</time>
      </trkpt>
      <trkpt lat="10.1567721408735" lon="-75.6830682246931">
        <ele>52.3851891</ele>
        <time>2019-09-10T14:58:40.100Z</time>
      </trkpt>
      <trkpt lat="10.1567738545698" lon="-75.6830703856529">
        <ele>52.3851891</ele>
        <time>2019-09-10T14:58:40.200Z</time>
      </trkpt>
      <trkpt lat="10.1567755639931" lon="-75.6830725869967">
        <ele>52.3851891</ele>
        <time>2019-09-10T14:58:40.300Z</time>
      </trkpt>
      <trkpt lat="10.1567772787316" lon="-75.6830747836057">
        <ele>52.3851891</ele>
        <time>2019-09-10T14:58:40.400Z</time>
      </trkpt>
      <trkpt lat="10.1567789862789" lon="-75.6830769752017">
        <ele>52.3851891</ele>
        <time>2019-09-10T14:58:40.500Z</time>
      </trkpt>
      <trkpt lat="10.1567806944515" lon="-75.683079151201">
        <ele>52.3851891</ele>
        <time>2019-09-10T14:58:40.600Z</time>
      </trkpt>
      <trkpt lat="10.1567824111702" lon="-75.6830813160599">
        <ele>52.3851891</ele>
        <time>2019-09-10T14:58:40.700Z</time>
      </trkpt>
      <trkpt lat="10.1567841382067" lon="-75.6830834731206">
        <ele>52.3851891</ele>
        <time>2019-09-10T14:58:40.800Z</time>
      </trkpt>
      <trkpt lat="10.1567858522157" lon="-75.6830856491199">
        <ele>52.3851891</ele>
        <time>2019-09-10T14:58:40.900Z</time>
      </trkpt>
      <trkpt lat="10.1567875595545" lon="-75.6830878279044">
        <ele>52.3851891</ele>
        <time>2019-09-10T14:58:41.000Z</time>
      </trkpt>
      <trkpt lat="10.1567892693947" lon="-75.6830900373249">
        <ele>52.3851891</ele>
        <time>2019-09-10T14:58:41.100Z</time>
      </trkpt>
      <trkpt lat="10.1567909902822" lon="-75.6830922367191">
        <ele>52.3851891</ele>
        <time>2019-09-10T14:58:41.200Z</time>
      </trkpt>
      <trkpt lat="10.1567927235719" lon="-75.6830944256692">
        <ele>52.3851891</ele>
        <time>2019-09-10T14:58:41.300Z</time>
      </trkpt>
      <trkpt lat="10.1567944541519" lon="-75.6830966006938">
        <ele>52.3851891</ele>
        <time>2019-09-10T14:58:41.400Z</time>
      </trkpt>
      <trkpt lat="10.1567961635752" lon="-75.6830987903401">
        <ele>52.3851891</ele>
        <time>2019-09-10T14:58:41.500Z</time>
      </trkpt>
      <trkpt lat="10.1567978662241" lon="-75.6831009696816">
        <ele>52.3851891</ele>
        <time>2019-09-10T14:58:41.600Z</time>
      </trkpt>
      <trkpt lat="10.1567995544906" lon="-75.6831030983342">
        <ele>52.3851891</ele>
        <time>2019-09-10T14:58:41.700Z</time>
      </trkpt>
      <trkpt lat="10.1568012522412" lon="-75.6831052090229">
        <ele>52.3851891</ele>
        <time>2019-09-10T14:58:41.800Z</time>
      </trkpt>
      <trkpt lat="10.1568029681261" lon="-75.6831073085713">
        <ele>52.3851891</ele>
        <time>2019-09-10T14:58:41.900Z</time>
      </trkpt>
      <trkpt lat="10.1568046953711" lon="-75.6831094177282">
        <ele>52.3851891</ele>
        <time>2019-09-10T14:58:42.000Z</time>
      </trkpt>
      <trkpt lat="10.1568063809278" lon="-75.683111482602">
        <ele>52.3851891</ele>
        <time>2019-09-10T14:58:42.100Z</time>
      </trkpt>
      <trkpt lat="10.1568080687775" lon="-75.6831135384243">
        <ele>52.3851891</ele>
        <time>2019-09-10T14:58:42.200Z</time>
      </trkpt>
      <trkpt lat="10.1568097988364" lon="-75.6831156060832">
        <ele>52.3851891</ele>
        <time>2019-09-10T14:58:42.300Z</time>
      </trkpt>
      <trkpt lat="10.1568115471339" lon="-75.6831176972762">
        <ele>52.3851891</ele>
        <time>2019-09-10T14:58:42.400Z</time>
      </trkpt>
      <trkpt lat="10.1568132821953" lon="-75.6831197604789">
        <ele>52.3851891</ele>
        <time>2019-09-10T14:58:42.500Z</time>
      </trkpt>
      <trkpt lat="10.1568150162146" lon="-75.6831218175545">
        <ele>52.3851891</ele>
        <time>2019-09-10T14:58:42.600Z</time>
      </trkpt>
      <trkpt lat="10.1568167558618" lon="-75.6831239026203">
        <ele>52.3851891</ele>
        <time>2019-09-10T14:58:42.700Z</time>
      </trkpt>
      <trkpt lat="10.1568184987398" lon="-75.6831260089921">
        <ele>52.3851891</ele>
        <time>2019-09-10T14:58:42.800Z</time>
      </trkpt>
      <trkpt lat="10.1568202594395" lon="-75.6831281641032">
        <ele>52.3851891</ele>
        <time>2019-09-10T14:58:42.900Z</time>
      </trkpt>
      <trkpt lat="10.1568220180548" lon="-75.6831303186573">
        <ele>52.3851891</ele>
        <time>2019-09-10T14:58:43.000Z</time>
      </trkpt>
      <trkpt lat="10.1568238008492" lon="-75.6831324755787">
        <ele>52.3851891</ele>
        <time>2019-09-10T14:58:43.100Z</time>
      </trkpt>
      <trkpt lat="10.1568255767651" lon="-75.6831346039528">
        <ele>52.3851891</ele>
        <time>2019-09-10T14:58:43.200Z</time>
      </trkpt>
      <trkpt lat="10.1568273549739" lon="-75.6831367069825">
        <ele>52.3851891</ele>
        <time>2019-09-10T14:58:43.300Z</time>
      </trkpt>
      <trkpt lat="10.1568309300468" lon="-75.6831408687588">
        <ele>52.3851891</ele>
        <time>2019-09-10T14:58:43.500Z</time>
      </trkpt>
      <trkpt lat="10.1568344988665" lon="-75.6831450536514">
        <ele>52.3851891</ele>
        <time>2019-09-10T14:58:43.700Z</time>
      </trkpt>
      <trkpt lat="10.1568362561269" lon="-75.683147153339">
        <ele>52.3851891</ele>
        <time>2019-09-10T14:58:43.800Z</time>
      </trkpt>
      <trkpt lat="10.1568380166182" lon="-75.6831492360375">
        <ele>52.3851891</ele>
        <time>2019-09-10T14:58:43.900Z</time>
      </trkpt>
      <trkpt lat="10.1568397751292" lon="-75.6831513226351">
        <ele>52.3851891</ele>
        <time>2019-09-10T14:58:44.000Z</time>
      </trkpt>
      <trkpt lat="10.156841514568" lon="-75.6831533884837">
        <ele>52.3851891</ele>
        <time>2019-09-10T14:58:44.100Z</time>
      </trkpt>
      <trkpt lat="10.1568432376441" lon="-75.6831554585099">
        <ele>52.3851891</ele>
        <time>2019-09-10T14:58:44.200Z</time>
      </trkpt>
      <trkpt lat="10.1568449245558" lon="-75.6831575008244">
        <ele>52.3851891</ele>
        <time>2019-09-10T14:58:44.300Z</time>
      </trkpt>
      <trkpt lat="10.1568466017749" lon="-75.683159559014">
        <ele>52.3851891</ele>
        <time>2019-09-10T14:58:44.400Z</time>
      </trkpt>
      <trkpt lat="10.1568482700311" lon="-75.6831616300151">
        <ele>52.3851891</ele>
        <time>2019-09-10T14:58:44.500Z</time>
      </trkpt>
      <trkpt lat="10.1568499449574" lon="-75.6831637259427">
        <ele>52.3851891</ele>
        <time>2019-09-10T14:58:44.600Z</time>
      </trkpt>
      <trkpt lat="10.1568516077942" lon="-75.6831658037673">
        <ele>52.3851891</ele>
        <time>2019-09-10T14:58:44.700Z</time>
      </trkpt>
      <trkpt lat="10.1568532669832" lon="-75.683167886048">
        <ele>52.3851891</ele>
        <time>2019-09-10T14:58:44.800Z</time>
      </trkpt>
      <trkpt lat="10.1568549323212" lon="-75.68316996248">
        <ele>52.3851891</ele>
        <time>2019-09-10T14:58:44.900Z</time>
      </trkpt>
      <trkpt lat="10.1568566053715" lon="-75.6831720492168">
        <ele>52.3851891</ele>
        <time>2019-09-10T14:58:45.000Z</time>
      </trkpt>
      <trkpt lat="10.1568582711264" lon="-75.6831740982156">
        <ele>52.3851891</ele>
        <time>2019-09-10T14:58:45.100Z</time>
      </trkpt>
      <trkpt lat="10.1568599395911" lon="-75.6831761403908">
        <ele>52.3851891</ele>
        <time>2019-09-10T14:58:45.200Z</time>
      </trkpt>
      <trkpt lat="10.1568616442202" lon="-75.6831782055432">
        <ele>52.3851891</ele>
        <time>2019-09-10T14:58:45.300Z</time>
      </trkpt>
      <trkpt lat="10.1568633588545" lon="-75.6831802868491">
        <ele>52.3851891</ele>
        <time>2019-09-10T14:58:45.400Z</time>
      </trkpt>
      <trkpt lat="10.1568650799504" lon="-75.6831824081212">
        <ele>52.3851891</ele>
        <time>2019-09-10T14:58:45.500Z</time>
      </trkpt>
      <trkpt lat="10.1568667979198" lon="-75.683184522152">
        <ele>52.3851891</ele>
        <time>2019-09-10T14:58:45.600Z</time>
      </trkpt>
      <trkpt lat="10.1568685441328" lon="-75.6831866512224">
        <ele>52.3851891</ele>
        <time>2019-09-10T14:58:45.700Z</time>
      </trkpt>
      <trkpt lat="10.156870288991" lon="-75.6831887644177">
        <ele>52.3851891</ele>
        <time>2019-09-10T14:58:45.800Z</time>
      </trkpt>
      <trkpt lat="10.1568720007071" lon="-75.683190861738">
        <ele>52.3851891</ele>
        <time>2019-09-10T14:58:45.900Z</time>
      </trkpt>
      <trkpt lat="10.1568736962691" lon="-75.6831929419299">
        <ele>52.3851891</ele>
        <time>2019-09-10T14:58:46.000Z</time>
      </trkpt>
      <trkpt lat="10.1568753726545" lon="-75.6831949992839">
        <ele>52.3851891</ele>
        <time>2019-09-10T14:58:46.100Z</time>
      </trkpt>
      <trkpt lat="10.1568770562311" lon="-75.6831970492574">
        <ele>52.3851891</ele>
        <time>2019-09-10T14:58:46.200Z</time>
      </trkpt>
      <trkpt lat="10.1568787482495" lon="-75.6831991456029">
        <ele>52.3851891</ele>
        <time>2019-09-10T14:58:46.300Z</time>
      </trkpt>
      <trkpt lat="10.1568804529829" lon="-75.6832012542028">
        <ele>52.3851891</ele>
        <time>2019-09-10T14:58:46.400Z</time>
      </trkpt>
      <trkpt lat="10.1568821568824" lon="-75.6832033527764">
        <ele>52.3851891</ele>
        <time>2019-09-10T14:58:46.500Z</time>
      </trkpt>
      <trkpt lat="10.1568838655762" lon="-75.6832054420198">
        <ele>52.3851891</ele>
        <time>2019-09-10T14:58:46.600Z</time>
      </trkpt>
      <trkpt lat="10.1568855476937" lon="-75.683207489069">
        <ele>52.3851891</ele>
        <time>2019-09-10T14:58:46.700Z</time>
      </trkpt>
      <trkpt lat="10.1568872353349" lon="-75.6832095350041">
        <ele>52.3851891</ele>
        <time>2019-09-10T14:58:46.800Z</time>
      </trkpt>
      <trkpt lat="10.1568889403809" lon="-75.6832115924974">
        <ele>52.3851891</ele>
        <time>2019-09-10T14:58:46.900Z</time>
      </trkpt>
      <trkpt lat="10.156890663457" lon="-75.6832136679546">
        <ele>52.3851891</ele>
        <time>2019-09-10T14:58:47.000Z</time>
      </trkpt>
      <trkpt lat="10.1568923790293" lon="-75.6832157583121">
        <ele>52.3851891</ele>
        <time>2019-09-10T14:58:47.100Z</time>
      </trkpt>
      <trkpt lat="10.1568940997083" lon="-75.6832178568856">
        <ele>52.3851891</ele>
        <time>2019-09-10T14:58:47.200Z</time>
      </trkpt>
      <trkpt lat="10.1568958278913" lon="-75.6832199606116">
        <ele>52.3851891</ele>
        <time>2019-09-10T14:58:47.300Z</time>
      </trkpt>
      <trkpt lat="10.1568975681638" lon="-75.683222068376">
        <ele>52.3851891</ele>
        <time>2019-09-10T14:58:47.400Z</time>
      </trkpt>
      <trkpt lat="10.1568993168781" lon="-75.6832242116504">
        <ele>52.3851891</ele>
        <time>2019-09-10T14:58:47.500Z</time>
      </trkpt>
      <trkpt lat="10.1569010706993" lon="-75.683226359381">
        <ele>52.3851891</ele>
        <time>2019-09-10T14:58:47.600Z</time>
      </trkpt>
      <trkpt lat="10.1569028259795" lon="-75.6832285032124">
        <ele>52.3851891</ele>
        <time>2019-09-10T14:58:47.700Z</time>
      </trkpt>
      <trkpt lat="10.1569063289319" lon="-75.6832327520231">
        <ele>52.3851891</ele>
        <time>2019-09-10T14:58:47.900Z</time>
      </trkpt>
      <trkpt lat="10.1569080750408" lon="-75.6832348648007">
        <ele>52.3851891</ele>
        <time>2019-09-10T14:58:48.000Z</time>
      </trkpt>
      <trkpt lat="10.1569098613787" lon="-75.6832369958206">
        <ele>52.3851891</ele>
        <time>2019-09-10T14:58:48.100Z</time>
      </trkpt>
      <trkpt lat="10.15691165595" lon="-75.6832391279546">
        <ele>52.3851891</ele>
        <time>2019-09-10T14:58:48.200Z</time>
      </trkpt>
      <trkpt lat="10.1569134141484" lon="-75.6832412463024">
        <ele>52.3851891</ele>
        <time>2019-09-10T14:58:48.300Z</time>
      </trkpt>
      <trkpt lat="10.1569151557758" lon="-75.6832433551808">
        <ele>52.3851891</ele>
        <time>2019-09-10T14:58:48.400Z</time>
      </trkpt>
      <trkpt lat="10.1569168829165" lon="-75.6832454555647">
        <ele>52.3851891</ele>
        <time>2019-09-10T14:58:48.500Z</time>
      </trkpt>
      <trkpt lat="10.156918612767" lon="-75.6832475580374">
        <ele>52.3851891</ele>
        <time>2019-09-10T14:58:48.600Z</time>
      </trkpt>
      <trkpt lat="10.1569203341756" lon="-75.6832496556361">
        <ele>52.3851891</ele>
        <time>2019-09-10T14:58:48.700Z</time>
      </trkpt>
      <trkpt lat="10.1569220617332" lon="-75.6832517557415">
        <ele>52.3851891</ele>
        <time>2019-09-10T14:58:48.800Z</time>
      </trkpt>
      <trkpt lat="10.1569237840798" lon="-75.6832538545935">
        <ele>52.3851891</ele>
        <time>2019-09-10T14:58:48.900Z</time>
      </trkpt>
      <trkpt lat="10.1569255106994" lon="-75.6832559579017">
        <ele>52.3851891</ele>
        <time>2019-09-10T14:58:49.000Z</time>
      </trkpt>
      <trkpt lat="10.1569272348178" lon="-75.6832580855796">
        <ele>52.3851891</ele>
        <time>2019-09-10T14:58:49.100Z</time>
      </trkpt>
      <trkpt lat="10.1569289606036" lon="-75.683260222866">
        <ele>52.3851891</ele>
        <time>2019-09-10T14:58:49.200Z</time>
      </trkpt>
      <trkpt lat="10.1569306860769" lon="-75.683262353329">
        <ele>52.3851891</ele>
        <time>2019-09-10T14:58:49.300Z</time>
      </trkpt>
      <trkpt lat="10.1569324135302" lon="-75.6832644762721">
        <ele>52.3851891</ele>
        <time>2019-09-10T14:58:49.400Z</time>
      </trkpt>
      <trkpt lat="10.1569341213902" lon="-75.6832666160652">
        <ele>52.3851891</ele>
        <time>2019-09-10T14:58:49.500Z</time>
      </trkpt>
      <trkpt lat="10.156935825394" lon="-75.6832687580863">
        <ele>52.3851891</ele>
        <time>2019-09-10T14:58:49.600Z</time>
      </trkpt>
      <trkpt lat="10.1569375626441" lon="-75.6832708899418">
        <ele>52.3851891</ele>
        <time>2019-09-10T14:58:49.700Z</time>
      </trkpt>
      <trkpt lat="10.1569393133387" lon="-75.6832730124672">
        <ele>52.3851891</ele>
        <time>2019-09-10T14:58:49.800Z</time>
      </trkpt>
      <trkpt lat="10.1569410745595" lon="-75.6832751192568">
        <ele>52.3851891</ele>
        <time>2019-09-10T14:58:49.900Z</time>
      </trkpt>
      <trkpt lat="10.1569428259835" lon="-75.6832772266034">
        <ele>52.3851891</ele>
        <time>2019-09-10T14:58:50.000Z</time>
      </trkpt>
      <trkpt lat="10.1569445828271" lon="-75.6832793462044">
        <ele>52.3851891</ele>
        <time>2019-09-10T14:58:50.100Z</time>
      </trkpt>
      <trkpt lat="10.1569463333132" lon="-75.6832814748571">
        <ele>52.3851891</ele>
        <time>2019-09-10T14:58:50.200Z</time>
      </trkpt>
      <trkpt lat="10.1569480821318" lon="-75.683283590559">
        <ele>52.3851891</ele>
        <time>2019-09-10T14:58:50.300Z</time>
      </trkpt>
      <trkpt lat="10.1569498233423" lon="-75.6832857029188">
        <ele>52.3851891</ele>
        <time>2019-09-10T14:58:50.400Z</time>
      </trkpt>
      <trkpt lat="10.1569515600713" lon="-75.6832878033026">
        <ele>52.3851891</ele>
        <time>2019-09-10T14:58:50.500Z</time>
      </trkpt>
      <trkpt lat="10.1569532938821" lon="-75.6832899085604">
        <ele>52.3851891</ele>
        <time>2019-09-10T14:58:50.600Z</time>
      </trkpt>
      <trkpt lat="10.1569550481201" lon="-75.6832920593546">
        <ele>52.3851891</ele>
        <time>2019-09-10T14:58:50.700Z</time>
      </trkpt>
      <trkpt lat="10.1569568004822" lon="-75.6832942219854">
        <ele>52.3851891</ele>
        <time>2019-09-10T14:58:50.800Z</time>
      </trkpt>
      <trkpt lat="10.1569585294989" lon="-75.6832963422828">
        <ele>52.3851891</ele>
        <time>2019-09-10T14:58:50.900Z</time>
      </trkpt>
      <trkpt lat="10.156960244967" lon="-75.683298439603">
        <ele>52.3851891</ele>
        <time>2019-09-10T14:58:51.000Z</time>
      </trkpt>
      <trkpt lat="10.1569619424049" lon="-75.6833004915261">
        <ele>52.3851891</ele>
        <time>2019-09-10T14:58:51.100Z</time>
      </trkpt>
      <trkpt lat="10.1569636407808" lon="-75.6833025452595">
        <ele>52.3851891</ele>
        <time>2019-09-10T14:58:51.200Z</time>
      </trkpt>
      <trkpt lat="10.156965349266" lon="-75.6833046161213">
        <ele>52.3851891</ele>
        <time>2019-09-10T14:58:51.300Z</time>
      </trkpt>
      <trkpt lat="10.1569670691113" lon="-75.683306712606">
        <ele>52.3851891</ele>
        <time>2019-09-10T14:58:51.400Z</time>
      </trkpt>
      <trkpt lat="10.1569688008378" lon="-75.683308809787">
        <ele>52.3851891</ele>
        <time>2019-09-10T14:58:51.500Z</time>
      </trkpt>
      <trkpt lat="10.1569722657497" lon="-75.683312968639">
        <ele>52.3851891</ele>
        <time>2019-09-10T14:58:51.700Z</time>
      </trkpt>
      <trkpt lat="10.1569739916398" lon="-75.6833150247397">
        <ele>52.3851891</ele>
        <time>2019-09-10T14:58:51.800Z</time>
      </trkpt>
      <trkpt lat="10.156975697728" lon="-75.6833170800049">
        <ele>52.3851891</ele>
        <time>2019-09-10T14:58:51.900Z</time>
      </trkpt>
      <trkpt lat="10.1569774084019" lon="-75.6833191454358">
        <ele>52.4851891</ele>
        <time>2019-09-10T14:58:52.000Z</time>
      </trkpt>
      <trkpt lat="10.1569790965642" lon="-75.683321193599">
        <ele>52.4851891</ele>
        <time>2019-09-10T14:58:52.100Z</time>
      </trkpt>
      <trkpt lat="10.1569808002553" lon="-75.6833232382808">
        <ele>52.4851891</ele>
        <time>2019-09-10T14:58:52.200Z</time>
      </trkpt>
      <trkpt lat="10.156982506552" lon="-75.6833253064968">
        <ele>52.4851891</ele>
        <time>2019-09-10T14:58:52.300Z</time>
      </trkpt>
      <trkpt lat="10.1569842290028" lon="-75.6833273872457">
        <ele>52.4851891</ele>
        <time>2019-09-10T14:58:52.400Z</time>
      </trkpt>
      <trkpt lat="10.1569859245648" lon="-75.6833294702226">
        <ele>52.4851891</ele>
        <time>2019-09-10T14:58:52.500Z</time>
      </trkpt>
      <trkpt lat="10.1569876130397" lon="-75.6833315607194">
        <ele>52.4851891</ele>
        <time>2019-09-10T14:58:52.600Z</time>
      </trkpt>
      <trkpt lat="10.1569892981796" lon="-75.6833337006517">
        <ele>52.4851891</ele>
        <time>2019-09-10T14:58:52.700Z</time>
      </trkpt>
      <trkpt lat="10.1569909964513" lon="-75.683335847686">
        <ele>52.4851891</ele>
        <time>2019-09-10T14:58:52.800Z</time>
      </trkpt>
      <trkpt lat="10.1569926896162" lon="-75.6833379427781">
        <ele>52.4851891</ele>
        <time>2019-09-10T14:58:52.900Z</time>
      </trkpt>
      <trkpt lat="10.1569943952875" lon="-75.683340009323">
        <ele>52.4851891</ele>
        <time>2019-09-10T14:58:53.000Z</time>
      </trkpt>
      <trkpt lat="10.1569961136737" lon="-75.6833421253034">
        <ele>52.4851891</ele>
        <time>2019-09-10T14:58:53.100Z</time>
      </trkpt>
      <trkpt lat="10.1569978500901" lon="-75.6833442578552">
        <ele>52.4851891</ele>
        <time>2019-09-10T14:58:53.200Z</time>
      </trkpt>
      <trkpt lat="10.1569996337182" lon="-75.6833464234104">
        <ele>52.4851891</ele>
        <time>2019-09-10T14:58:53.300Z</time>
      </trkpt>
      <trkpt lat="10.1570014212026" lon="-75.6833485817244">
        <ele>52.4851891</ele>
        <time>2019-09-10T14:58:53.400Z</time>
      </trkpt>
      <trkpt lat="10.1570031842994" lon="-75.6833507362785">
        <ele>52.4851891</ele>
        <time>2019-09-10T14:58:53.500Z</time>
      </trkpt>
      <trkpt lat="10.1570049399965" lon="-75.6833528782996">
        <ele>52.4851891</ele>
        <time>2019-09-10T14:58:53.600Z</time>
      </trkpt>
      <trkpt lat="10.1570066870433" lon="-75.6833550048634">
        <ele>52.4851891</ele>
        <time>2019-09-10T14:58:53.700Z</time>
      </trkpt>
      <trkpt lat="10.1570084312762" lon="-75.6833571200083">
        <ele>52.4851891</ele>
        <time>2019-09-10T14:58:53.800Z</time>
      </trkpt>
      <trkpt lat="10.157010192497" lon="-75.6833592440655">
        <ele>52.4851891</ele>
        <time>2019-09-10T14:58:53.900Z</time>
      </trkpt>
      <trkpt lat="10.1570119568444" lon="-75.6833613670086">
        <ele>52.4851891</ele>
        <time>2019-09-10T14:58:54.000Z</time>
      </trkpt>
      <trkpt lat="10.1570136800248" lon="-75.6833634756085">
        <ele>52.4851891</ele>
        <time>2019-09-10T14:58:54.100Z</time>
      </trkpt>
      <trkpt lat="10.1570188458139" lon="-75.6833697768994">
        <ele>52.4851891</ele>
        <time>2019-09-10T14:58:54.400Z</time>
      </trkpt>
      <trkpt lat="10.1570205708702" lon="-75.6833718811824">
        <ele>52.4851891</ele>
        <time>2019-09-10T14:58:54.500Z</time>
      </trkpt>
      <trkpt lat="10.1570223028051" lon="-75.683373989086">
        <ele>52.3851891</ele>
        <time>2019-09-10T14:58:54.600Z</time>
      </trkpt>
      <trkpt lat="10.157024030988" lon="-75.6833760887736">
        <ele>52.3851891</ele>
        <time>2019-09-10T14:58:54.700Z</time>
      </trkpt>
      <trkpt lat="10.1570257607343" lon="-75.6833781926388">
        <ele>52.3851891</ele>
        <time>2019-09-10T14:58:54.800Z</time>
      </trkpt>
      <trkpt lat="10.1570274357648" lon="-75.6833802917694">
        <ele>52.4851891</ele>
        <time>2019-09-10T14:58:54.900Z</time>
      </trkpt>
      <trkpt lat="10.1570291055843" lon="-75.6833823932673">
        <ele>52.4851891</ele>
        <time>2019-09-10T14:58:55.000Z</time>
      </trkpt>
      <trkpt lat="10.1570307705055" lon="-75.6833845155142">
        <ele>52.4851891</ele>
        <time>2019-09-10T14:58:55.100Z</time>
      </trkpt>
      <trkpt lat="10.1570324617944" lon="-75.6833866477874">
        <ele>52.4851891</ele>
        <time>2019-09-10T14:58:55.200Z</time>
      </trkpt>
      <trkpt lat="10.1570341756991" lon="-75.6833888095828">
        <ele>52.3851891</ele>
        <time>2019-09-10T14:58:55.300Z</time>
      </trkpt>
      <trkpt lat="10.1570359036736" lon="-75.6833909710996">
        <ele>52.3851891</ele>
        <time>2019-09-10T14:58:55.400Z</time>
      </trkpt>
      <trkpt lat="10.1570376222682" lon="-75.6833931192479">
        <ele>52.3851891</ele>
        <time>2019-09-10T14:58:55.500Z</time>
      </trkpt>
      <trkpt lat="10.1570393452402" lon="-75.6833952543063">
        <ele>52.3851891</ele>
        <time>2019-09-10T14:58:55.600Z</time>
      </trkpt>
      <trkpt lat="10.157042753352" lon="-75.6833995252585">
        <ele>52.3851891</ele>
        <time>2019-09-10T14:58:55.800Z</time>
      </trkpt>
      <trkpt lat="10.1570461786602" lon="-75.6834038205804">
        <ele>52.3851891</ele>
        <time>2019-09-10T14:58:56.000Z</time>
      </trkpt>
      <trkpt lat="10.1570478622368" lon="-75.6834059396244">
        <ele>52.3851891</ele>
        <time>2019-09-10T14:58:56.100Z</time>
      </trkpt>
      <trkpt lat="10.157049551337" lon="-75.6834080448822">
        <ele>52.3851891</ele>
        <time>2019-09-10T14:58:56.200Z</time>
      </trkpt>
      <trkpt lat="10.1570512266802" lon="-75.6834101087813">
        <ele>52.3851891</ele>
        <time>2019-09-10T14:58:56.300Z</time>
      </trkpt>
      <trkpt lat="10.1570529200535" lon="-75.6834121705915">
        <ele>52.3851891</ele>
        <time>2019-09-10T14:58:56.400Z</time>
      </trkpt>
      <trkpt lat="10.1570546716861" lon="-75.6834142782166">
        <ele>52.3851891</ele>
        <time>2019-09-10T14:58:56.500Z</time>
      </trkpt>
      <trkpt lat="10.1570564456218" lon="-75.6834164139712">
        <ele>52.3851891</ele>
        <time>2019-09-10T14:58:56.600Z</time>
      </trkpt>
      <trkpt lat="10.1570581945446" lon="-75.6834185474978">
        <ele>52.3851891</ele>
        <time>2019-09-10T14:58:56.700Z</time>
      </trkpt>
      <trkpt lat="10.1570599260626" lon="-75.6834206696054">
        <ele>52.3851891</ele>
        <time>2019-09-10T14:58:56.800Z</time>
      </trkpt>
      <trkpt lat="10.1570616538286" lon="-75.6834227542535">
        <ele>52.3851891</ele>
        <time>2019-09-10T14:58:56.900Z</time>
      </trkpt>
      <trkpt lat="10.1570633783638" lon="-75.6834248345846">
        <ele>52.3851891</ele>
        <time>2019-09-10T14:58:57.000Z</time>
      </trkpt>
      <trkpt lat="10.1570650860153" lon="-75.6834268759243">
        <ele>52.3851891</ele>
        <time>2019-09-10T14:58:57.100Z</time>
      </trkpt>
      <trkpt lat="10.1570667980441" lon="-75.6834289142004">
        <ele>52.3851891</ele>
        <time>2019-09-10T14:58:57.200Z</time>
      </trkpt>
      <trkpt lat="10.1570685401926" lon="-75.6834309751751">
        <ele>52.3851891</ele>
        <time>2019-09-10T14:58:57.300Z</time>
      </trkpt>
      <trkpt lat="10.1570702885943" lon="-75.6834330595446">
        <ele>52.3851891</ele>
        <time>2019-09-10T14:58:57.400Z</time>
      </trkpt>
      <trkpt lat="10.1570719928065" lon="-75.6834350994918">
        <ele>52.3851891</ele>
        <time>2019-09-10T14:58:57.500Z</time>
      </trkpt>
      <trkpt lat="10.157073687222" lon="-75.683437127463">
        <ele>52.3851891</ele>
        <time>2019-09-10T14:58:57.600Z</time>
      </trkpt>
      <trkpt lat="10.1570753869528" lon="-75.6834391380274">
        <ele>52.3851891</ele>
        <time>2019-09-10T14:58:57.700Z</time>
      </trkpt>
      <trkpt lat="10.1570771006491" lon="-75.6834411605677">
        <ele>52.3851891</ele>
        <time>2019-09-10T14:58:57.800Z</time>
      </trkpt>
      <trkpt lat="10.1570788498846" lon="-75.6834431799051">
        <ele>52.3851891</ele>
        <time>2019-09-10T14:58:57.900Z</time>
      </trkpt>
      <trkpt lat="10.1570806059986" lon="-75.6834452165101">
        <ele>52.3851891</ele>
        <time>2019-09-10T14:58:58.000Z</time>
      </trkpt>
      <trkpt lat="10.1570823695122" lon="-75.6834472539507">
        <ele>52.3851891</ele>
        <time>2019-09-10T14:58:58.100Z</time>
      </trkpt>
      <trkpt lat="10.1570841262515" lon="-75.6834493008606">
        <ele>52.3851891</ele>
        <time>2019-09-10T14:58:58.200Z</time>
      </trkpt>
      <trkpt lat="10.1570859118599" lon="-75.6834513460995">
        <ele>52.3851891</ele>
        <time>2019-09-10T14:58:58.300Z</time>
      </trkpt>
      <trkpt lat="10.1570876928826" lon="-75.683453401504">
        <ele>52.3851891</ele>
        <time>2019-09-10T14:58:58.400Z</time>
      </trkpt>
      <trkpt lat="10.1570894967296" lon="-75.6834554893549">
        <ele>52.3851891</ele>
        <time>2019-09-10T14:58:58.500Z</time>
      </trkpt>
      <trkpt lat="10.1570912860899" lon="-75.6834575868144">
        <ele>52.3851891</ele>
        <time>2019-09-10T14:58:58.600Z</time>
      </trkpt>
      <trkpt lat="10.1570930670084" lon="-75.6834596550303">
        <ele>52.3851891</ele>
        <time>2019-09-10T14:58:58.700Z</time>
      </trkpt>
      <trkpt lat="10.1570948290629" lon="-75.6834617153087">
        <ele>52.4851891</ele>
        <time>2019-09-10T14:58:58.800Z</time>
      </trkpt>
      <trkpt lat="10.1570965793406" lon="-75.6834637889556">
        <ele>52.3851891</ele>
        <time>2019-09-10T14:58:58.900Z</time>
      </trkpt>
      <trkpt lat="10.1570983222186" lon="-75.6834658761102">
        <ele>52.3851891</ele>
        <time>2019-09-10T14:58:59.000Z</time>
      </trkpt>
      <trkpt lat="10.1571000550915" lon="-75.6834679433514">
        <ele>52.3851891</ele>
        <time>2019-09-10T14:58:59.100Z</time>
      </trkpt>
      <trkpt lat="10.157101789215" lon="-75.6834700078074">
        <ele>52.3851891</ele>
        <time>2019-09-10T14:58:59.200Z</time>
      </trkpt>
      <trkpt lat="10.1571035153135" lon="-75.6834720835431">
        <ele>52.3851891</ele>
        <time>2019-09-10T14:58:59.300Z</time>
      </trkpt>
      <trkpt lat="10.1571052433922" lon="-75.683474164849">
        <ele>52.3851891</ele>
        <time>2019-09-10T14:58:59.400Z</time>
      </trkpt>
      <trkpt lat="10.1571069754313" lon="-75.6834762281911">
        <ele>52.3851891</ele>
        <time>2019-09-10T14:58:59.500Z</time>
      </trkpt>
      <trkpt lat="10.1571087116392" lon="-75.6834782874947">
        <ele>52.3851891</ele>
        <time>2019-09-10T14:58:59.600Z</time>
      </trkpt>
      <trkpt lat="10.1571104475344" lon="-75.6834803576602">
        <ele>52.3851891</ele>
        <time>2019-09-10T14:58:59.700Z</time>
      </trkpt>
      <trkpt lat="10.1571121808242" lon="-75.6834824407764">
        <ele>52.3851891</ele>
        <time>2019-09-10T14:58:59.800Z</time>
      </trkpt>
      <trkpt lat="10.1571139120295" lon="-75.6834845162336">
        <ele>52.3851891</ele>
        <time>2019-09-10T14:58:59.900Z</time>
      </trkpt>
      <trkpt lat="10.157115644277" lon="-75.6834865883487">
        <ele>52.3851891</ele>
        <time>2019-09-10T14:59:00.000Z</time>
      </trkpt>
      <trkpt lat="10.1571173830904" lon="-75.6834886486271">
        <ele>52.3851891</ele>
        <time>2019-09-10T14:59:00.100Z</time>
      </trkpt>
      <trkpt lat="10.1571208706182" lon="-75.6834927913255">
        <ele>52.4851891</ele>
        <time>2019-09-10T14:59:00.300Z</time>
      </trkpt>
      <trkpt lat="10.1571226158933" lon="-75.6834948814044">
        <ele>52.4851891</ele>
        <time>2019-09-10T14:59:00.400Z</time>
      </trkpt>
      <trkpt lat="10.1571243582502" lon="-75.6834969588112">
        <ele>52.4851891</ele>
        <time>2019-09-10T14:59:00.500Z</time>
      </trkpt>
      <trkpt lat="10.1571260975847" lon="-75.6834990364965">
        <ele>52.4851891</ele>
        <time>2019-09-10T14:59:00.600Z</time>
      </trkpt>
      <trkpt lat="10.1571278331673" lon="-75.6835011230941">
        <ele>52.4851891</ele>
        <time>2019-09-10T14:59:00.700Z</time>
      </trkpt>
      <trkpt lat="10.1571295672908" lon="-75.6835032188825">
        <ele>52.4851891</ele>
        <time>2019-09-10T14:59:00.800Z</time>
      </trkpt>
      <trkpt lat="10.1571313040198" lon="-75.6835053191271">
        <ele>52.4851891</ele>
        <time>2019-09-10T14:59:00.900Z</time>
      </trkpt>
      <trkpt lat="10.1571330408531" lon="-75.6835074238279">
        <ele>52.4851891</ele>
        <time>2019-09-10T14:59:01.000Z</time>
      </trkpt>
      <trkpt lat="10.1571347792496" lon="-75.6835095311745">
        <ele>52.4851891</ele>
        <time>2019-09-10T14:59:01.100Z</time>
      </trkpt>
      <trkpt lat="10.1571365210854" lon="-75.6835116386604">
        <ele>52.4851891</ele>
        <time>2019-09-10T14:59:01.200Z</time>
      </trkpt>
      <trkpt lat="10.1571382405138" lon="-75.6835137217766">
        <ele>52.4851891</ele>
        <time>2019-09-10T14:59:01.300Z</time>
      </trkpt>
      <trkpt lat="10.1571399550439" lon="-75.6835158047536">
        <ele>52.4851891</ele>
        <time>2019-09-10T14:59:01.400Z</time>
      </trkpt>
      <trkpt lat="10.1571416425809" lon="-75.6835178870343">
        <ele>52.4851891</ele>
        <time>2019-09-10T14:59:01.500Z</time>
      </trkpt>
      <trkpt lat="10.157143333036" lon="-75.6835199858863">
        <ele>52.3851891</ele>
        <time>2019-09-10T14:59:01.600Z</time>
      </trkpt>
      <trkpt lat="10.1571450222405" lon="-75.6835220898908">
        <ele>52.3851891</ele>
        <time>2019-09-10T14:59:01.700Z</time>
      </trkpt>
      <trkpt lat="10.1571467268696" lon="-75.6835242101882">
        <ele>52.3851891</ele>
        <time>2019-09-10T14:59:01.800Z</time>
      </trkpt>
      <trkpt lat="10.1571484444221" lon="-75.6835263519308">
        <ele>52.3851891</ele>
        <time>2019-09-10T14:59:01.900Z</time>
      </trkpt>
      <trkpt lat="10.1571501772949" lon="-75.6835284897742">
        <ele>52.3851891</ele>
        <time>2019-09-10T14:59:02.000Z</time>
      </trkpt>
      <trkpt lat="10.157151902247" lon="-75.6835306628492">
        <ele>52.3851891</ele>
        <time>2019-09-10T14:59:02.100Z</time>
      </trkpt>
      <trkpt lat="10.157153619591" lon="-75.6835328343924">
        <ele>52.3851891</ele>
        <time>2019-09-10T14:59:02.200Z</time>
      </trkpt>
      <trkpt lat="10.1571553339127" lon="-75.6835350220892">
        <ele>52.3851891</ele>
        <time>2019-09-10T14:59:02.300Z</time>
      </trkpt>
      <trkpt lat="10.1571570493807" lon="-75.6835371914043">
        <ele>52.3851891</ele>
        <time>2019-09-10T14:59:02.400Z</time>
      </trkpt>
      <trkpt lat="10.1571587731864" lon="-75.6835393635045">
        <ele>52.3851891</ele>
        <time>2019-09-10T14:59:02.500Z</time>
      </trkpt>
      <trkpt lat="10.1571604965752" lon="-75.6835415227932">
        <ele>52.3851891</ele>
        <time>2019-09-10T14:59:02.600Z</time>
      </trkpt>
      <trkpt lat="10.1571622018296" lon="-75.6835437188453">
        <ele>52.3851891</ele>
        <time>2019-09-10T14:59:02.700Z</time>
      </trkpt>
      <trkpt lat="10.157163905625" lon="-75.6835459065421">
        <ele>52.3851891</ele>
        <time>2019-09-10T14:59:02.800Z</time>
      </trkpt>
      <trkpt lat="10.1571656268251" lon="-75.6835480902004">
        <ele>52.3851891</ele>
        <time>2019-09-10T14:59:02.900Z</time>
      </trkpt>
      <trkpt lat="10.1571673518815" lon="-75.6835502553379">
        <ele>52.3851891</ele>
        <time>2019-09-10T14:59:03.000Z</time>
      </trkpt>
      <trkpt lat="10.1571690662031" lon="-75.6835524440094">
        <ele>52.3851891</ele>
        <time>2019-09-10T14:59:03.100Z</time>
      </trkpt>
      <trkpt lat="10.1571707798994" lon="-75.6835546216798">
        <ele>52.3851891</ele>
        <time>2019-09-10T14:59:03.200Z</time>
      </trkpt>
      <trkpt lat="10.1571724805681" lon="-75.6835567962866">
        <ele>52.3851891</ele>
        <time>2019-09-10T14:59:03.300Z</time>
      </trkpt>
      <trkpt lat="10.1571741878028" lon="-75.6835589501444">
        <ele>52.3851891</ele>
        <time>2019-09-10T14:59:03.400Z</time>
      </trkpt>
      <trkpt lat="10.1571759065016" lon="-75.683561097875">
        <ele>52.3851891</ele>
        <time>2019-09-10T14:59:03.500Z</time>
      </trkpt>
      <trkpt lat="10.1571776340592" lon="-75.6835632368325">
        <ele>52.3851891</ele>
        <time>2019-09-10T14:59:03.600Z</time>
      </trkpt>
      <trkpt lat="10.1571793914239" lon="-75.6835653803854">
        <ele>52.3851891</ele>
        <time>2019-09-10T14:59:03.700Z</time>
      </trkpt>
      <trkpt lat="10.1571811533742" lon="-75.6835675127979">
        <ele>52.3851891</ele>
        <time>2019-09-10T14:59:03.800Z</time>
      </trkpt>
      <trkpt lat="10.1571828731153" lon="-75.6835695935468">
        <ele>52.3851891</ele>
        <time>2019-09-10T14:59:03.900Z</time>
      </trkpt>
      <trkpt lat="10.1571845769107" lon="-75.6835716603702">
        <ele>52.3851891</ele>
        <time>2019-09-10T14:59:04.000Z</time>
      </trkpt>
      <trkpt lat="10.1571862791427" lon="-75.6835737177243">
        <ele>52.3851891</ele>
        <time>2019-09-10T14:59:04.100Z</time>
      </trkpt>
      <trkpt lat="10.1571897251908" lon="-75.6835778506748">
        <ele>52.3851891</ele>
        <time>2019-09-10T14:59:04.300Z</time>
      </trkpt>
      <trkpt lat="10.1571914637958" lon="-75.6835799223721">
        <ele>52.3851891</ele>
        <time>2019-09-10T14:59:04.400Z</time>
      </trkpt>
      <trkpt lat="10.1571932080286" lon="-75.6835820010322">
        <ele>52.3851891</ele>
        <time>2019-09-10T14:59:04.500Z</time>
      </trkpt>
      <trkpt lat="10.1571967110853" lon="-75.6835861848108">
        <ele>52.3851891</ele>
        <time>2019-09-10T14:59:04.700Z</time>
      </trkpt>
      <trkpt lat="10.1571984623009" lon="-75.6835882792066">
        <ele>52.3851891</ele>
        <time>2019-09-10T14:59:04.800Z</time>
      </trkpt>
      <trkpt lat="10.1572002055958" lon="-75.6835903826541">
        <ele>52.3851891</ele>
        <time>2019-09-10T14:59:04.900Z</time>
      </trkpt>
      <trkpt lat="10.157201946181" lon="-75.6835924817847">
        <ele>52.4851891</ele>
        <time>2019-09-10T14:59:05.000Z</time>
      </trkpt>
      <trkpt lat="10.1572036797834" lon="-75.6835945860677">
        <ele>52.4851891</ele>
        <time>2019-09-10T14:59:05.100Z</time>
      </trkpt>
      <trkpt lat="10.1572054179715" lon="-75.6835966874263">
        <ele>52.4851891</ele>
        <time>2019-09-10T14:59:05.200Z</time>
      </trkpt>
      <trkpt lat="10.1572071547005" lon="-75.6835987908738">
        <ele>52.4851891</ele>
        <time>2019-09-10T14:59:05.300Z</time>
      </trkpt>
      <trkpt lat="10.1572106878768" lon="-75.683603018657">
        <ele>52.4851891</ele>
        <time>2019-09-10T14:59:05.500Z</time>
      </trkpt>
      <trkpt lat="10.1572124839072" lon="-75.6836051491199">
        <ele>52.4851891</ele>
        <time>2019-09-10T14:59:05.600Z</time>
      </trkpt>
      <trkpt lat="10.1572142463787" lon="-75.6836072539599">
        <ele>52.4851891</ele>
        <time>2019-09-10T14:59:05.700Z</time>
      </trkpt>
      <trkpt lat="10.1572159861301" lon="-75.6836093472418">
        <ele>52.4851891</ele>
        <time>2019-09-10T14:59:05.800Z</time>
      </trkpt>
      <trkpt lat="10.1572177395343" lon="-75.6836114740841">
        <ele>52.4851891</ele>
        <time>2019-09-10T14:59:05.900Z</time>
      </trkpt>
      <trkpt lat="10.1572194995045" lon="-75.6836136007872">
        <ele>52.4851891</ele>
        <time>2019-09-10T14:59:06.000Z</time>
      </trkpt>
      <trkpt lat="10.1572212827158" lon="-75.6836157237303">
        <ele>52.4851891</ele>
        <time>2019-09-10T14:59:06.100Z</time>
      </trkpt>
      <trkpt lat="10.1572248384037" lon="-75.6836199424619">
        <ele>52.4851891</ele>
        <time>2019-09-10T14:59:06.300Z</time>
      </trkpt>
      <trkpt lat="10.1572266023343" lon="-75.6836220429851">
        <ele>52.4851891</ele>
        <time>2019-09-10T14:59:06.400Z</time>
      </trkpt>
      <trkpt lat="10.1572283600116" lon="-75.6836241130113">
        <ele>52.4851891</ele>
        <time>2019-09-10T14:59:06.500Z</time>
      </trkpt>
      <trkpt lat="10.1572301124779" lon="-75.6836261773281">
        <ele>52.4851891</ele>
        <time>2019-09-10T14:59:06.600Z</time>
      </trkpt>
      <trkpt lat="10.1572318526462" lon="-75.6836282422019">
        <ele>52.4851891</ele>
        <time>2019-09-10T14:59:06.700Z</time>
      </trkpt>
      <trkpt lat="10.1572335925018" lon="-75.6836303187732">
        <ele>52.4851891</ele>
        <time>2019-09-10T14:59:06.800Z</time>
      </trkpt>
      <trkpt lat="10.1572353195383" lon="-75.6836324036997">
        <ele>52.4851891</ele>
        <time>2019-09-10T14:59:06.900Z</time>
      </trkpt>
      <trkpt lat="10.1572370526196" lon="-75.6836344969816">
        <ele>52.4851891</ele>
        <time>2019-09-10T14:59:07.000Z</time>
      </trkpt>
      <trkpt lat="10.1572388061281" lon="-75.6836366014038">
        <ele>52.4851891</ele>
        <time>2019-09-10T14:59:07.100Z</time>
      </trkpt>
      <trkpt lat="10.1572405629716" lon="-75.6836387105607">
        <ele>52.4851891</ele>
        <time>2019-09-10T14:59:07.200Z</time>
      </trkpt>
      <trkpt lat="10.1572423137704" lon="-75.6836408308581">
        <ele>52.4851891</ele>
        <time>2019-09-10T14:59:07.300Z</time>
      </trkpt>
      <trkpt lat="10.1572440531049" lon="-75.6836429561686">
        <ele>52.4851891</ele>
        <time>2019-09-10T14:59:07.400Z</time>
      </trkpt>
      <trkpt lat="10.1572457864989" lon="-75.6836450837072">
        <ele>52.4851891</ele>
        <time>2019-09-10T14:59:07.500Z</time>
      </trkpt>
      <trkpt lat="10.1572492467209" lon="-75.6836493248588">
        <ele>52.4851891</ele>
        <time>2019-09-10T14:59:07.700Z</time>
      </trkpt>
      <trkpt lat="10.1572509728194" lon="-75.6836514407">
        <ele>52.4851891</ele>
        <time>2019-09-10T14:59:07.800Z</time>
      </trkpt>
      <trkpt lat="10.1572527071514" lon="-75.6836535752014">
        <ele>52.4851891</ele>
        <time>2019-09-10T14:59:07.900Z</time>
      </trkpt>
      <trkpt lat="10.1572544469028" lon="-75.6836557080317">
        <ele>52.4851891</ele>
        <time>2019-09-10T14:59:08.000Z</time>
      </trkpt>
      <trkpt lat="10.1572561716464" lon="-75.683657828886">
        <ele>52.4851891</ele>
        <time>2019-09-10T14:59:08.100Z</time>
      </trkpt>
      <trkpt lat="10.1572596290545" lon="-75.6836620277041">
        <ele>52.4851891</ele>
        <time>2019-09-10T14:59:08.300Z</time>
      </trkpt>
      <trkpt lat="10.1572613728705" lon="-75.6836641129092">
        <ele>52.4851891</ele>
        <time>2019-09-10T14:59:08.400Z</time>
      </trkpt>
      <trkpt lat="10.1572648614405" lon="-75.68366826076">
        <ele>52.4851891</ele>
        <time>2019-09-10T14:59:08.600Z</time>
      </trkpt>
      <trkpt lat="10.1572666006708" lon="-75.6836703055811">
        <ele>52.4851891</ele>
        <time>2019-09-10T14:59:08.700Z</time>
      </trkpt>
      <trkpt lat="10.1572683415686" lon="-75.6836723517947">
        <ele>52.4851891</ele>
        <time>2019-09-10T14:59:08.800Z</time>
      </trkpt>
      <trkpt lat="10.157270124363" lon="-75.6836744347717">
        <ele>52.4851891</ele>
        <time>2019-09-10T14:59:08.900Z</time>
      </trkpt>
      <trkpt lat="10.1572719116389" lon="-75.6836765380799">
        <ele>52.4851891</ele>
        <time>2019-09-10T14:59:09.000Z</time>
      </trkpt>
      <trkpt lat="10.1572736662939" lon="-75.6836786037892">
        <ele>52.3851891</ele>
        <time>2019-09-10T14:59:09.100Z</time>
      </trkpt>
      <trkpt lat="10.1572754027102" lon="-75.6836806558516">
        <ele>52.4851891</ele>
        <time>2019-09-10T14:59:09.200Z</time>
      </trkpt>
      <trkpt lat="10.1572771307889" lon="-75.6836827210039">
        <ele>52.3851891</ele>
        <time>2019-09-10T14:59:09.300Z</time>
      </trkpt>
      <trkpt lat="10.1572788614731" lon="-75.6836848037024">
        <ele>52.4851891</ele>
        <time>2019-09-10T14:59:09.400Z</time>
      </trkpt>
      <trkpt lat="10.1572805875717" lon="-75.6836868735894">
        <ele>52.3851891</ele>
        <time>2019-09-10T14:59:09.500Z</time>
      </trkpt>
      <trkpt lat="10.1572823186728" lon="-75.6836889473755">
        <ele>52.3851891</ele>
        <time>2019-09-10T14:59:09.600Z</time>
      </trkpt>
      <trkpt lat="10.1572840511288" lon="-75.6836909983239">
        <ele>52.3851891</ele>
        <time>2019-09-10T14:59:09.700Z</time>
      </trkpt>
      <trkpt lat="10.1572857831678" lon="-75.6836930592985">
        <ele>52.3851891</ele>
        <time>2019-09-10T14:59:09.800Z</time>
      </trkpt>
      <trkpt lat="10.1572875126014" lon="-75.6836951018916">
        <ele>52.3851891</ele>
        <time>2019-09-10T14:59:09.900Z</time>
      </trkpt>
      <trkpt lat="10.1572892464123" lon="-75.6836971547894">
        <ele>52.3851891</ele>
        <time>2019-09-10T14:59:10.000Z</time>
      </trkpt>
      <trkpt lat="10.157290956044" lon="-75.6836992191062">
        <ele>52.3851891</ele>
        <time>2019-09-10T14:59:10.100Z</time>
      </trkpt>
      <trkpt lat="10.1572926615068" lon="-75.6837012995766">
        <ele>52.3851891</ele>
        <time>2019-09-10T14:59:10.200Z</time>
      </trkpt>
      <trkpt lat="10.1572943693668" lon="-75.6837033886808">
        <ele>52.3851891</ele>
        <time>2019-09-10T14:59:10.300Z</time>
      </trkpt>
      <trkpt lat="10.1572960892121" lon="-75.6837054858618">
        <ele>52.3851891</ele>
        <time>2019-09-10T14:59:10.400Z</time>
      </trkpt>
      <trkpt lat="10.157297817395" lon="-75.6837075952972">
        <ele>52.3851891</ele>
        <time>2019-09-10T14:59:10.500Z</time>
      </trkpt>
      <trkpt lat="10.1572995497468" lon="-75.6837097080748">
        <ele>52.3851891</ele>
        <time>2019-09-10T14:59:10.600Z</time>
      </trkpt>
      <trkpt lat="10.1573012650064" lon="-75.6837118060913">
        <ele>52.3851891</ele>
        <time>2019-09-10T14:59:10.700Z</time>
      </trkpt>
      <trkpt lat="10.157302947645" lon="-75.6837138606603">
        <ele>52.3851891</ele>
        <time>2019-09-10T14:59:10.800Z</time>
      </trkpt>
      <trkpt lat="10.1573046128788" lon="-75.6837158082813">
        <ele>52.3851891</ele>
        <time>2019-09-10T14:59:10.900Z</time>
      </trkpt>
      <trkpt lat="10.1573062869713" lon="-75.6837175910244">
        <ele>52.3851891</ele>
        <time>2019-09-10T14:59:11.000Z</time>
      </trkpt>
      <trkpt lat="10.1573079621061" lon="-75.6837190997136">
        <ele>52.3851891</ele>
        <time>2019-09-10T14:59:11.100Z</time>
      </trkpt>
      <trkpt lat="10.157309640159" lon="-75.6837203552371">
        <ele>52.3851891</ele>
        <time>2019-09-10T14:59:11.200Z</time>
      </trkpt>
      <trkpt lat="10.1573113877269" lon="-75.6837212659651">
        <ele>52.3851891</ele>
        <time>2019-09-10T14:59:11.300Z</time>
      </trkpt>
      <trkpt lat="10.1573131556178" lon="-75.683721912387">
        <ele>52.3851891</ele>
        <time>2019-09-10T14:59:11.400Z</time>
      </trkpt>
      <trkpt lat="10.1573149976095" lon="-75.6837221680593">
        <ele>52.3851891</ele>
        <time>2019-09-10T14:59:11.500Z</time>
      </trkpt>
      <trkpt lat="10.1573168439784" lon="-75.6837221502346">
        <ele>52.3851891</ele>
        <time>2019-09-10T14:59:11.600Z</time>
      </trkpt>
      <trkpt lat="10.1573187361" lon="-75.6837217519652">
        <ele>52.3851891</ele>
        <time>2019-09-10T14:59:11.700Z</time>
      </trkpt>
      <trkpt lat="10.157320620822" lon="-75.6837210779708">
        <ele>52.3851891</ele>
        <time>2019-09-10T14:59:11.800Z</time>
      </trkpt>
      <trkpt lat="10.1573225987171" lon="-75.6837200424703">
        <ele>52.3851891</ele>
        <time>2019-09-10T14:59:11.900Z</time>
      </trkpt>
      <trkpt lat="10.1573245782796" lon="-75.6837187401571">
        <ele>52.3851891</ele>
        <time>2019-09-10T14:59:12.000Z</time>
      </trkpt>
      <trkpt lat="10.1573266542461" lon="-75.6837170963905">
        <ele>52.3851891</ele>
        <time>2019-09-10T14:59:12.100Z</time>
      </trkpt>
      <trkpt lat="10.1573286937354" lon="-75.6837152365001">
        <ele>52.3851891</ele>
        <time>2019-09-10T14:59:12.200Z</time>
      </trkpt>
      <trkpt lat="10.1573308269189" lon="-75.6837132376332">
        <ele>52.3851891</ele>
        <time>2019-09-10T14:59:12.300Z</time>
      </trkpt>
      <trkpt lat="10.1573329172678" lon="-75.6837111418448">
        <ele>52.3851891</ele>
        <time>2019-09-10T14:59:12.400Z</time>
      </trkpt>
      <trkpt lat="10.157335075881" lon="-75.6837090232185">
        <ele>52.3851891</ele>
        <time>2019-09-10T14:59:12.500Z</time>
      </trkpt>
      <trkpt lat="10.157337169565" lon="-75.6837068402564">
        <ele>52.3851891</ele>
        <time>2019-09-10T14:59:12.600Z</time>
      </trkpt>
      <trkpt lat="10.1573393402678" lon="-75.6837046912725">
        <ele>52.3851891</ele>
        <time>2019-09-10T14:59:12.700Z</time>
      </trkpt>
      <trkpt lat="10.1573414464582" lon="-75.6837024871436">
        <ele>52.3851891</ele>
        <time>2019-09-10T14:59:12.800Z</time>
      </trkpt>
      <trkpt lat="10.1573435690111" lon="-75.6837003362102">
        <ele>52.3851891</ele>
        <time>2019-09-10T14:59:12.900Z</time>
      </trkpt>
      <trkpt lat="10.1573456174634" lon="-75.6836981343094">
        <ele>52.3851891</ele>
        <time>2019-09-10T14:59:13.000Z</time>
      </trkpt>
      <trkpt lat="10.1573477161499" lon="-75.6836959535754">
        <ele>52.3851891</ele>
        <time>2019-09-10T14:59:13.100Z</time>
      </trkpt>
      <trkpt lat="10.1573517760562" lon="-75.6836915341773">
        <ele>52.2851891</ele>
        <time>2019-09-10T14:59:13.300Z</time>
      </trkpt>
      <trkpt lat="10.1573537436335" lon="-75.6836893339476">
        <ele>52.2851891</ele>
        <time>2019-09-10T14:59:13.400Z</time>
      </trkpt>
      <trkpt lat="10.1573556712943" lon="-75.6836871643539">
        <ele>52.2851891</ele>
        <time>2019-09-10T14:59:13.500Z</time>
      </trkpt>
      <trkpt lat="10.1573575820714" lon="-75.6836849719225">
        <ele>52.2851891</ele>
        <time>2019-09-10T14:59:13.600Z</time>
      </trkpt>
      <trkpt lat="10.1573594936822" lon="-75.6836828357501">
        <ele>52.2851891</ele>
        <time>2019-09-10T14:59:13.700Z</time>
      </trkpt>
      <trkpt lat="10.1573614209262" lon="-75.6836806940075">
        <ele>52.2851891</ele>
        <time>2019-09-10T14:59:13.800Z</time>
      </trkpt>
      <trkpt lat="10.1573633330581" lon="-75.6836785895852">
        <ele>52.2851891</ele>
        <time>2019-09-10T14:59:13.900Z</time>
      </trkpt>
      <trkpt lat="10.1573652515476" lon="-75.6836764784787">
        <ele>52.2851891</ele>
        <time>2019-09-10T14:59:14.000Z</time>
      </trkpt>
      <trkpt lat="10.157367176186" lon="-75.6836743216966">
        <ele>52.2851891</ele>
        <time>2019-09-10T14:59:14.100Z</time>
      </trkpt>
      <trkpt lat="10.1573691230233" lon="-75.6836721601798">
        <ele>52.2851891</ele>
        <time>2019-09-10T14:59:14.200Z</time>
      </trkpt>
      <trkpt lat="10.1573710243164" lon="-75.6836700568716">
        <ele>52.2851891</ele>
        <time>2019-09-10T14:59:14.300Z</time>
      </trkpt>
      <trkpt lat="10.1573729359273" lon="-75.6836679914407">
        <ele>52.2851891</ele>
        <time>2019-09-10T14:59:14.400Z</time>
      </trkpt>
      <trkpt lat="10.1573748221083" lon="-75.683665985611">
        <ele>52.2851891</ele>
        <time>2019-09-10T14:59:14.500Z</time>
      </trkpt>
      <trkpt lat="10.1573786256324" lon="-75.6836620405156">
        <ele>52.2851891</ele>
        <time>2019-09-10T14:59:14.700Z</time>
      </trkpt>
      <trkpt lat="10.1573805434965" lon="-75.6836600823111">
        <ele>52.2851891</ele>
        <time>2019-09-10T14:59:14.800Z</time>
      </trkpt>
      <trkpt lat="10.1573824096673" lon="-75.6836581981904">
        <ele>52.2851891</ele>
        <time>2019-09-10T14:59:14.900Z</time>
      </trkpt>
      <trkpt lat="10.1573842949104" lon="-75.6836563299447">
        <ele>52.2851891</ele>
        <time>2019-09-10T14:59:15.000Z</time>
      </trkpt>
      <trkpt lat="10.1573861438848" lon="-75.6836544357975">
        <ele>52.2851891</ele>
        <time>2019-09-10T14:59:15.100Z</time>
      </trkpt>
      <trkpt lat="10.1573898967577" lon="-75.6836506032202">
        <ele>52.2851891</ele>
        <time>2019-09-10T14:59:15.300Z</time>
      </trkpt>
      <trkpt lat="10.1573917818966" lon="-75.6836487113011">
        <ele>52.2851891</ele>
        <time>2019-09-10T14:59:15.400Z</time>
      </trkpt>
      <trkpt lat="10.1573936572388" lon="-75.6836467823402">
        <ele>52.2851891</ele>
        <time>2019-09-10T14:59:15.500Z</time>
      </trkpt>
      <trkpt lat="10.1573955897979" lon="-75.6836448458596">
        <ele>52.2851891</ele>
        <time>2019-09-10T14:59:15.600Z</time>
      </trkpt>
      <trkpt lat="10.1573975399704" lon="-75.6836428617537">
        <ele>52.2851891</ele>
        <time>2019-09-10T14:59:15.700Z</time>
      </trkpt>
      <trkpt lat="10.1574014242652" lon="-75.683638953143">
        <ele>52.2851891</ele>
        <time>2019-09-10T14:59:15.900Z</time>
      </trkpt>
      <trkpt lat="10.1574047233625" lon="-75.6836351553794">
        <ele>52.2851891</ele>
        <time>2019-09-10T14:59:16.100Z</time>
      </trkpt>
      <trkpt lat="10.1574060736422" lon="-75.6836332835131">
        <ele>52.2851891</ele>
        <time>2019-09-10T14:59:16.200Z</time>
      </trkpt>
      <trkpt lat="10.1574070981289" lon="-75.6836313932651">
        <ele>52.2851891</ele>
        <time>2019-09-10T14:59:16.300Z</time>
      </trkpt>
      <trkpt lat="10.1574079017725" lon="-75.6836295085873">
        <ele>52.2851891</ele>
        <time>2019-09-10T14:59:16.400Z</time>
      </trkpt>
      <trkpt lat="10.1574083088575" lon="-75.6836275637513">
        <ele>52.2851891</ele>
        <time>2019-09-10T14:59:16.500Z</time>
      </trkpt>
      <trkpt lat="10.1574082360074" lon="-75.6836236448359">
        <ele>52.2851891</ele>
        <time>2019-09-10T14:59:16.700Z</time>
      </trkpt>
      <trkpt lat="10.1574077551344" lon="-75.6836216850996">
        <ele>52.2851891</ele>
        <time>2019-09-10T14:59:16.800Z</time>
      </trkpt>
      <trkpt lat="10.1574069145968" lon="-75.6836197188183">
        <ele>52.2851891</ele>
        <time>2019-09-10T14:59:16.900Z</time>
      </trkpt>
      <trkpt lat="10.157405814446" lon="-75.6836177730076">
        <ele>52.2851891</ele>
        <time>2019-09-10T14:59:17.000Z</time>
      </trkpt>
      <trkpt lat="10.1574043952766" lon="-75.683615715375">
        <ele>52.2851891</ele>
        <time>2019-09-10T14:59:17.100Z</time>
      </trkpt>
      <trkpt lat="10.1574008608497" lon="-75.6836114878704">
        <ele>52.2851891</ele>
        <time>2019-09-10T14:59:17.300Z</time>
      </trkpt>
      <trkpt lat="10.1573988562742" lon="-75.6836093575467">
        <ele>52.2851891</ele>
        <time>2019-09-10T14:59:17.400Z</time>
      </trkpt>
      <trkpt lat="10.1573968211621" lon="-75.6836071846109">
        <ele>52.3851891</ele>
        <time>2019-09-10T14:59:17.500Z</time>
      </trkpt>
      <trkpt lat="10.1573947555135" lon="-75.6836050865944">
        <ele>52.3851891</ele>
        <time>2019-09-10T14:59:17.600Z</time>
      </trkpt>
      <trkpt lat="10.1573927031009" lon="-75.6836029288375">
        <ele>52.3851891</ele>
        <time>2019-09-10T14:59:17.700Z</time>
      </trkpt>
      <trkpt lat="10.1573885694065" lon="-75.6835986928382">
        <ele>52.3851891</ele>
        <time>2019-09-10T14:59:17.900Z</time>
      </trkpt>
      <trkpt lat="10.1573864879164" lon="-75.68359661571">
        <ele>52.3851891</ele>
        <time>2019-09-10T14:59:18.000Z</time>
      </trkpt>
      <trkpt lat="10.1573844567647" lon="-75.6835945197823">
        <ele>52.3851891</ele>
        <time>2019-09-10T14:59:18.100Z</time>
      </trkpt>
      <trkpt lat="10.1573824024761" lon="-75.6835924881904">
        <ele>52.3851891</ele>
        <time>2019-09-10T14:59:18.200Z</time>
      </trkpt>
      <trkpt lat="10.1573804124914" lon="-75.6835904517246">
        <ele>52.3851891</ele>
        <time>2019-09-10T14:59:18.300Z</time>
      </trkpt>
      <trkpt lat="10.1573783995783" lon="-75.683588461213">
        <ele>52.3851891</ele>
        <time>2019-09-10T14:59:18.400Z</time>
      </trkpt>
      <trkpt lat="10.1573764140752" lon="-75.6835864790567">
        <ele>52.3851891</ele>
        <time>2019-09-10T14:59:18.500Z</time>
      </trkpt>
      <trkpt lat="10.1573724003385" lon="-75.6835825898025">
        <ele>52.3851891</ele>
        <time>2019-09-10T14:59:18.700Z</time>
      </trkpt>
      <trkpt lat="10.1573703784625" lon="-75.6835806627912">
        <ele>52.3851891</ele>
        <time>2019-09-10T14:59:18.800Z</time>
      </trkpt>
      <trkpt lat="10.1573683746165" lon="-75.6835787434389">
        <ele>52.3851891</ele>
        <time>2019-09-10T14:59:18.900Z</time>
      </trkpt>
      <trkpt lat="10.1573663686862" lon="-75.683576813921">
        <ele>52.3851891</ele>
        <time>2019-09-10T14:59:19.000Z</time>
      </trkpt>
      <trkpt lat="10.1573643492072" lon="-75.6835748928976">
        <ele>52.3851891</ele>
        <time>2019-09-10T14:59:19.100Z</time>
      </trkpt>
      <trkpt lat="10.1573623280607" lon="-75.6835729558599">
        <ele>52.3851891</ele>
        <time>2019-09-10T14:59:19.200Z</time>
      </trkpt>
      <trkpt lat="10.1573602582432" lon="-75.6835710385965">
        <ele>52.3851891</ele>
        <time>2019-09-10T14:59:19.300Z</time>
      </trkpt>
      <trkpt lat="10.1573561814532" lon="-75.6835672231475">
        <ele>52.3851891</ele>
        <time>2019-09-10T14:59:19.500Z</time>
      </trkpt>
      <trkpt lat="10.1573541984514" lon="-75.6835653292788">
        <ele>52.3851891</ele>
        <time>2019-09-10T14:59:19.600Z</time>
      </trkpt>
      <trkpt lat="10.1573522107596" lon="-75.6835634585265">
        <ele>52.3851891</ele>
        <time>2019-09-10T14:59:19.700Z</time>
      </trkpt>
      <trkpt lat="10.1573482800866" lon="-75.6835596301268">
        <ele>52.3851891</ele>
        <time>2019-09-10T14:59:19.900Z</time>
      </trkpt>
      <trkpt lat="10.1573444249734" lon="-75.6835557394801">
        <ele>52.3851891</ele>
        <time>2019-09-10T14:59:20.100Z</time>
      </trkpt>
      <trkpt lat="10.1573406566758" lon="-75.6835518694431">
        <ele>52.3851891</ele>
        <time>2019-09-10T14:59:20.300Z</time>
      </trkpt>
      <trkpt lat="10.1573369417391" lon="-75.6835479761505">
        <ele>52.3851891</ele>
        <time>2019-09-10T14:59:20.500Z</time>
      </trkpt>
      <trkpt lat="10.1573332750565" lon="-75.6835440160156">
        <ele>52.3851891</ele>
        <time>2019-09-10T14:59:20.700Z</time>
      </trkpt>
      <trkpt lat="10.1573314552638" lon="-75.6835420216048">
        <ele>52.3851891</ele>
        <time>2019-09-10T14:59:20.800Z</time>
      </trkpt>
      <trkpt lat="10.1573296616304" lon="-75.6835400489178">
        <ele>52.3851891</ele>
        <time>2019-09-10T14:59:20.900Z</time>
      </trkpt>
      <trkpt lat="10.1573278922804" lon="-75.6835380514434">
        <ele>52.3851891</ele>
        <time>2019-09-10T14:59:21.000Z</time>
      </trkpt>
      <trkpt lat="10.1573261090691" lon="-75.683536081263">
        <ele>52.3851891</ele>
        <time>2019-09-10T14:59:21.100Z</time>
      </trkpt>
      <trkpt lat="10.1573225516094" lon="-75.6835320934163">
        <ele>52.3851891</ele>
        <time>2019-09-10T14:59:21.300Z</time>
      </trkpt>
      <trkpt lat="10.1573190195795" lon="-75.683528082314">
        <ele>52.3851891</ele>
        <time>2019-09-10T14:59:21.500Z</time>
      </trkpt>
      <trkpt lat="10.1573154865074" lon="-75.6835240713509">
        <ele>52.3851891</ele>
        <time>2019-09-10T14:59:21.700Z</time>
      </trkpt>
      <trkpt lat="10.1573119131021" lon="-75.6835199812909">
        <ele>52.3851891</ele>
        <time>2019-09-10T14:59:21.900Z</time>
      </trkpt>
      <trkpt lat="10.1573101181138" lon="-75.6835179063907">
        <ele>52.3851891</ele>
        <time>2019-09-10T14:59:22.000Z</time>
      </trkpt>
      <trkpt lat="10.1573083527242" lon="-75.6835158608734">
        <ele>52.3851891</ele>
        <time>2019-09-10T14:59:22.100Z</time>
      </trkpt>
      <trkpt lat="10.1573066199556" lon="-75.6835137973921">
        <ele>52.3851891</ele>
        <time>2019-09-10T14:59:22.200Z</time>
      </trkpt>
      <trkpt lat="10.1573048870827" lon="-75.683511752014">
        <ele>52.3851891</ele>
        <time>2019-09-10T14:59:22.300Z</time>
      </trkpt>
      <trkpt lat="10.1573014340519" lon="-75.6835076094549">
        <ele>52.3851891</ele>
        <time>2019-09-10T14:59:22.500Z</time>
      </trkpt>
      <trkpt lat="10.157297984773" lon="-75.6835034195491">
        <ele>52.3851891</ele>
        <time>2019-09-10T14:59:22.700Z</time>
      </trkpt>
      <trkpt lat="10.1572962635729" lon="-75.6835013116454">
        <ele>52.3851891</ele>
        <time>2019-09-10T14:59:22.800Z</time>
      </trkpt>
      <trkpt lat="10.1572945596733" lon="-75.6834992107046">
        <ele>52.3851891</ele>
        <time>2019-09-10T14:59:22.900Z</time>
      </trkpt>
      <trkpt lat="10.1572911661523" lon="-75.6834949916944">
        <ele>52.3851891</ele>
        <time>2019-09-10T14:59:23.100Z</time>
      </trkpt>
      <trkpt lat="10.1572877646064" lon="-75.6834907788115">
        <ele>52.3851891</ele>
        <time>2019-09-10T14:59:23.300Z</time>
      </trkpt>
      <trkpt lat="10.1572843684799" lon="-75.6834865401665">
        <ele>52.3851891</ele>
        <time>2019-09-10T14:59:23.500Z</time>
      </trkpt>
      <trkpt lat="10.157282657806" lon="-75.6834843973098">
        <ele>52.3851891</ele>
        <time>2019-09-10T14:59:23.600Z</time>
      </trkpt>
      <trkpt lat="10.1572809452561" lon="-75.6834822728348">
        <ele>52.3851891</ele>
        <time>2019-09-10T14:59:23.700Z</time>
      </trkpt>
      <trkpt lat="10.1572792402101" lon="-75.6834801439037">
        <ele>52.3851891</ele>
        <time>2019-09-10T14:59:23.800Z</time>
      </trkpt>
      <trkpt lat="10.1572775566335" lon="-75.6834780928161">
        <ele>52.3851891</ele>
        <time>2019-09-10T14:59:23.900Z</time>
      </trkpt>
      <trkpt lat="10.1572741797878" lon="-75.6834740132003">
        <ele>52.3851891</ele>
        <time>2019-09-10T14:59:24.100Z</time>
      </trkpt>
      <trkpt lat="10.1572724720321" lon="-75.6834719442881">
        <ele>52.3851891</ele>
        <time>2019-09-10T14:59:24.200Z</time>
      </trkpt>
      <trkpt lat="10.1572707654228" lon="-75.6834698821994">
        <ele>52.3851891</ele>
        <time>2019-09-10T14:59:24.300Z</time>
      </trkpt>
      <trkpt lat="10.1572673427201" lon="-75.6834656888122">
        <ele>52.3851891</ele>
        <time>2019-09-10T14:59:24.500Z</time>
      </trkpt>
      <trkpt lat="10.157263951492" lon="-75.6834614645104">
        <ele>52.3851891</ele>
        <time>2019-09-10T14:59:24.700Z</time>
      </trkpt>
      <trkpt lat="10.1572606531243" lon="-75.6834572878338">
        <ele>52.3851891</ele>
        <time>2019-09-10T14:59:24.900Z</time>
      </trkpt>
      <trkpt lat="10.1572573230736" lon="-75.6834531026626">
        <ele>52.3851891</ele>
        <time>2019-09-10T14:59:25.100Z</time>
      </trkpt>
      <trkpt lat="10.1572539657171" lon="-75.6834489105287">
        <ele>52.3851891</ele>
        <time>2019-09-10T14:59:25.300Z</time>
      </trkpt>
      <trkpt lat="10.1572505575011" lon="-75.6834447215977">
        <ele>52.3851891</ele>
        <time>2019-09-10T14:59:25.500Z</time>
      </trkpt>
      <trkpt lat="10.1572470862317" lon="-75.6834405037016">
        <ele>52.3851891</ele>
        <time>2019-09-10T14:59:25.700Z</time>
      </trkpt>
      <trkpt lat="10.157243586927" lon="-75.6834362422187">
        <ele>52.3851891</ele>
        <time>2019-09-10T14:59:25.900Z</time>
      </trkpt>
      <trkpt lat="10.1572400794931" lon="-75.6834319804573">
        <ele>52.2851891</ele>
        <time>2019-09-10T14:59:26.100Z</time>
      </trkpt>
      <trkpt lat="10.1572383328632" lon="-75.6834298396895">
        <ele>52.2851891</ele>
        <time>2019-09-10T14:59:26.200Z</time>
      </trkpt>
      <trkpt lat="10.1572365762281" lon="-75.6834277142397">
        <ele>52.2851891</ele>
        <time>2019-09-10T14:59:26.300Z</time>
      </trkpt>
      <trkpt lat="10.1572348312656" lon="-75.6834255949172">
        <ele>52.2851891</ele>
        <time>2019-09-10T14:59:26.400Z</time>
      </trkpt>
      <trkpt lat="10.1572331237183" lon="-75.6834235443866">
        <ele>52.2851891</ele>
        <time>2019-09-10T14:59:26.500Z</time>
      </trkpt>
      <trkpt lat="10.1572297012241" lon="-75.6834194005742">
        <ele>52.2851891</ele>
        <time>2019-09-10T14:59:26.700Z</time>
      </trkpt>
      <trkpt lat="10.1572261750306" lon="-75.6834150918838">
        <ele>52.2851891</ele>
        <time>2019-09-10T14:59:26.900Z</time>
      </trkpt>
      <trkpt lat="10.157222599645" lon="-75.6834107613304">
        <ele>52.2851891</ele>
        <time>2019-09-10T14:59:27.100Z</time>
      </trkpt>
      <trkpt lat="10.1572190375996" lon="-75.6834064707432">
        <ele>52.2851891</ele>
        <time>2019-09-10T14:59:27.300Z</time>
      </trkpt>
      <trkpt lat="10.1572173104589" lon="-75.683404394729">
        <ele>52.2851891</ele>
        <time>2019-09-10T14:59:27.400Z</time>
      </trkpt>
      <trkpt lat="10.1572156205248" lon="-75.6834023157904">
        <ele>52.2851891</ele>
        <time>2019-09-10T14:59:27.500Z</time>
      </trkpt>
      <trkpt lat="10.1572122570194" lon="-75.6833980978943">
        <ele>52.2851891</ele>
        <time>2019-09-10T14:59:27.700Z</time>
      </trkpt>
      <trkpt lat="10.1572089210281" lon="-75.6833938783272">
        <ele>52.2851891</ele>
        <time>2019-09-10T14:59:27.900Z</time>
      </trkpt>
      <trkpt lat="10.1572056596586" lon="-75.6833897236529">
        <ele>52.2851891</ele>
        <time>2019-09-10T14:59:28.100Z</time>
      </trkpt>
      <trkpt lat="10.1572040281922" lon="-75.683387642904">
        <ele>52.2851891</ele>
        <time>2019-09-10T14:59:28.200Z</time>
      </trkpt>
      <trkpt lat="10.1572023630626" lon="-75.6833855415453">
        <ele>52.2851891</ele>
        <time>2019-09-10T14:59:28.300Z</time>
      </trkpt>
      <trkpt lat="10.157198970167" lon="-75.6833813200286">
        <ele>52.2851891</ele>
        <time>2019-09-10T14:59:28.500Z</time>
      </trkpt>
      <trkpt lat="10.1571972678307" lon="-75.6833792139353">
        <ele>52.2851891</ele>
        <time>2019-09-10T14:59:28.600Z</time>
      </trkpt>
      <trkpt lat="10.1571955835246" lon="-75.6833771613159">
        <ele>52.2851891</ele>
        <time>2019-09-10T14:59:28.700Z</time>
      </trkpt>
      <trkpt lat="10.1571938998438" lon="-75.683375114963">
        <ele>52.2851891</ele>
        <time>2019-09-10T14:59:28.800Z</time>
      </trkpt>
      <trkpt lat="10.1571922160587" lon="-75.683373092005">
        <ele>52.2851891</ele>
        <time>2019-09-10T14:59:28.900Z</time>
      </trkpt>
      <trkpt lat="10.1571888162845" lon="-75.6833689848167">
        <ele>52.2851891</ele>
        <time>2019-09-10T14:59:29.100Z</time>
      </trkpt>
      <trkpt lat="10.1571853654424" lon="-75.6833647690094">
        <ele>52.2851891</ele>
        <time>2019-09-10T14:59:29.300Z</time>
      </trkpt>
      <trkpt lat="10.1571836375721" lon="-75.6833626411923">
        <ele>52.2851891</ele>
        <time>2019-09-10T14:59:29.400Z</time>
      </trkpt>
      <trkpt lat="10.1571819165804" lon="-75.6833605469357">
        <ele>52.2851891</ele>
        <time>2019-09-10T14:59:29.500Z</time>
      </trkpt>
      <trkpt lat="10.1571802049685" lon="-75.6833584645157">
        <ele>52.3851891</ele>
        <time>2019-09-10T14:59:29.600Z</time>
      </trkpt>
      <trkpt lat="10.1571784503135" lon="-75.6833562949221">
        <ele>52.3851891</ele>
        <time>2019-09-10T14:59:29.700Z</time>
      </trkpt>
      <trkpt lat="10.1571750050993" lon="-75.6833520296793">
        <ele>52.3851891</ele>
        <time>2019-09-10T14:59:29.900Z</time>
      </trkpt>
      <trkpt lat="10.1571716479512" lon="-75.6833479410119">
        <ele>52.3851891</ele>
        <time>2019-09-10T14:59:30.100Z</time>
      </trkpt>
      <trkpt lat="10.1571699485331" lon="-75.6833458708464">
        <ele>52.3851891</ele>
        <time>2019-09-10T14:59:30.200Z</time>
      </trkpt>
      <trkpt lat="10.1571665792955" lon="-75.6833417480615">
        <ele>52.3851891</ele>
        <time>2019-09-10T14:59:30.400Z</time>
      </trkpt>
      <trkpt lat="10.1571649249006" lon="-75.6833396499057">
        <ele>52.3851891</ele>
        <time>2019-09-10T14:59:30.500Z</time>
      </trkpt>
      <trkpt lat="10.1571632655032" lon="-75.6833375336468">
        <ele>52.3851891</ele>
        <time>2019-09-10T14:59:30.600Z</time>
      </trkpt>
      <trkpt lat="10.1571616069395" lon="-75.6833354178057">
        <ele>52.3851891</ele>
        <time>2019-09-10T14:59:30.700Z</time>
      </trkpt>
      <trkpt lat="10.157158258546" lon="-75.6833312088219">
        <ele>52.3851891</ele>
        <time>2019-09-10T14:59:30.900Z</time>
      </trkpt>
      <trkpt lat="10.1571548516848" lon="-75.6833270339556">
        <ele>52.3851891</ele>
        <time>2019-09-10T14:59:31.100Z</time>
      </trkpt>
      <trkpt lat="10.1571531248567" lon="-75.6833249671322">
        <ele>52.3851891</ele>
        <time>2019-09-10T14:59:31.200Z</time>
      </trkpt>
      <trkpt lat="10.1571514001131" lon="-75.6833229051828">
        <ele>52.3851891</ele>
        <time>2019-09-10T14:59:31.300Z</time>
      </trkpt>
      <trkpt lat="10.1571479572958" lon="-75.6833187580282">
        <ele>52.3851891</ele>
        <time>2019-09-10T14:59:31.500Z</time>
      </trkpt>
      <trkpt lat="10.1571445214614" lon="-75.6833146008474">
        <ele>52.3851891</ele>
        <time>2019-09-10T14:59:31.700Z</time>
      </trkpt>
      <trkpt lat="10.1571411055331" lon="-75.6833104467301">
        <ele>52.3851891</ele>
        <time>2019-09-10T14:59:31.900Z</time>
      </trkpt>
      <trkpt lat="10.1571376809544" lon="-75.6833062664329">
        <ele>52.3851891</ele>
        <time>2019-09-10T14:59:32.100Z</time>
      </trkpt>
      <trkpt lat="10.157134243244" lon="-75.6833020322439">
        <ele>52.3851891</ele>
        <time>2019-09-10T14:59:32.300Z</time>
      </trkpt>
      <trkpt lat="10.1571307935482" lon="-75.6832977419352">
        <ele>52.3851891</ele>
        <time>2019-09-10T14:59:32.500Z</time>
      </trkpt>
      <trkpt lat="10.1571273435398" lon="-75.6832934900609">
        <ele>52.3851891</ele>
        <time>2019-09-10T14:59:32.700Z</time>
      </trkpt>
      <trkpt lat="10.1571238482997" lon="-75.6832892675694">
        <ele>52.3851891</ele>
        <time>2019-09-10T14:59:32.900Z</time>
      </trkpt>
      <trkpt lat="10.157120396728" lon="-75.6832849821347">
        <ele>52.3851891</ele>
        <time>2019-09-10T14:59:33.100Z</time>
      </trkpt>
      <trkpt lat="10.1571186730265" lon="-75.6832827963874">
        <ele>52.3851891</ele>
        <time>2019-09-10T14:59:33.200Z</time>
      </trkpt>
      <trkpt lat="10.1571169509926" lon="-75.6832806127291">
        <ele>52.3851891</ele>
        <time>2019-09-10T14:59:33.300Z</time>
      </trkpt>
      <trkpt lat="10.1571152209337" lon="-75.683278443971">
        <ele>52.3851891</ele>
        <time>2019-09-10T14:59:33.400Z</time>
      </trkpt>
      <trkpt lat="10.1571135210987" lon="-75.6832763059883">
        <ele>52.3851891</ele>
        <time>2019-09-10T14:59:33.500Z</time>
      </trkpt>
      <trkpt lat="10.157110125806" lon="-75.6832720553673">
        <ele>52.3851891</ele>
        <time>2019-09-10T14:59:33.700Z</time>
      </trkpt>
      <trkpt lat="10.1571084126308" lon="-75.6832699288034">
        <ele>52.3851891</ele>
        <time>2019-09-10T14:59:33.800Z</time>
      </trkpt>
      <trkpt lat="10.1571067087312" lon="-75.6832677711858">
        <ele>52.3851891</ele>
        <time>2019-09-10T14:59:33.900Z</time>
      </trkpt>
      <trkpt lat="10.1571050007671" lon="-75.6832656032632">
        <ele>52.3851891</ele>
        <time>2019-09-10T14:59:34.000Z</time>
      </trkpt>
      <trkpt lat="10.1571032833188" lon="-75.6832634597103">
        <ele>52.3851891</ele>
        <time>2019-09-10T14:59:34.100Z</time>
      </trkpt>
      <trkpt lat="10.1570998335188" lon="-75.6832592277494">
        <ele>52.3851891</ele>
        <time>2019-09-10T14:59:34.300Z</time>
      </trkpt>
      <trkpt lat="10.1570963582891" lon="-75.6832549804706">
        <ele>52.3851891</ele>
        <time>2019-09-10T14:59:34.500Z</time>
      </trkpt>
      <trkpt lat="10.1570928726373" lon="-75.6832507489275">
        <ele>52.3851891</ele>
        <time>2019-09-10T14:59:34.700Z</time>
      </trkpt>
      <trkpt lat="10.1570893529054" lon="-75.6832465123712">
        <ele>52.3851891</ele>
        <time>2019-09-10T14:59:34.900Z</time>
      </trkpt>
      <trkpt lat="10.15708585704" lon="-75.683242208137">
        <ele>52.3851891</ele>
        <time>2019-09-10T14:59:35.100Z</time>
      </trkpt>
      <trkpt lat="10.1570841457408" lon="-75.6832400718254">
        <ele>52.3851891</ele>
        <time>2019-09-10T14:59:35.200Z</time>
      </trkpt>
      <trkpt lat="10.1570824067189" lon="-75.6832379119796">
        <ele>52.3851891</ele>
        <time>2019-09-10T14:59:35.300Z</time>
      </trkpt>
      <trkpt lat="10.1570789074142" lon="-75.6832336396348">
        <ele>52.3851891</ele>
        <time>2019-09-10T14:59:35.500Z</time>
      </trkpt>
      <trkpt lat="10.1570754038365" lon="-75.6832294089272">
        <ele>52.3851891</ele>
        <time>2019-09-10T14:59:35.700Z</time>
      </trkpt>
      <trkpt lat="10.1570736307346" lon="-75.6832272731726">
        <ele>52.3851891</ele>
        <time>2019-09-10T14:59:35.800Z</time>
      </trkpt>
      <trkpt lat="10.1570718398109" lon="-75.6832251007939">
        <ele>52.3851891</ele>
        <time>2019-09-10T14:59:35.900Z</time>
      </trkpt>
      <trkpt lat="10.1570682792247" lon="-75.6832207859763">
        <ele>52.3851891</ele>
        <time>2019-09-10T14:59:36.100Z</time>
      </trkpt>
      <trkpt lat="10.1570647468821" lon="-75.6832165587501">
        <ele>52.3851891</ele>
        <time>2019-09-10T14:59:36.300Z</time>
      </trkpt>
      <trkpt lat="10.1570611931744" lon="-75.683212361603">
        <ele>52.3851891</ele>
        <time>2019-09-10T14:59:36.500Z</time>
      </trkpt>
      <trkpt lat="10.1570594180922" lon="-75.6832102514713">
        <ele>52.3851891</ele>
        <time>2019-09-10T14:59:36.600Z</time>
      </trkpt>
      <trkpt lat="10.1570576844898" lon="-75.6832081769889">
        <ele>52.3851891</ele>
        <time>2019-09-10T14:59:36.700Z</time>
      </trkpt>
      <trkpt lat="10.1570559664163" lon="-75.6832061103048">
        <ele>52.3851891</ele>
        <time>2019-09-10T14:59:36.800Z</time>
      </trkpt>
      <trkpt lat="10.1570542581395" lon="-75.6832040514189">
        <ele>52.3851891</ele>
        <time>2019-09-10T14:59:36.900Z</time>
      </trkpt>
      <trkpt lat="10.1570508316848" lon="-75.6831998649945">
        <ele>52.4851891</ele>
        <time>2019-09-10T14:59:37.100Z</time>
      </trkpt>
      <trkpt lat="10.1570491164252" lon="-75.6831977321642">
        <ele>52.4851891</ele>
        <time>2019-09-10T14:59:37.200Z</time>
      </trkpt>
      <trkpt lat="10.1570474286798" lon="-75.6831955627098">
        <ele>52.4851891</ele>
        <time>2019-09-10T14:59:37.300Z</time>
      </trkpt>
      <trkpt lat="10.157044017233" lon="-75.683191221016">
        <ele>52.3851891</ele>
        <time>2019-09-10T14:59:37.500Z</time>
      </trkpt>
      <trkpt lat="10.1570405464847" lon="-75.6831869251371">
        <ele>52.3851891</ele>
        <time>2019-09-10T14:59:37.700Z</time>
      </trkpt>
      <trkpt lat="10.1570388244507" lon="-75.6831848179298">
        <ele>52.3851891</ele>
        <time>2019-09-10T14:59:37.800Z</time>
      </trkpt>
      <trkpt lat="10.157037068441" lon="-75.6831827245087">
        <ele>52.3851891</ele>
        <time>2019-09-10T14:59:37.900Z</time>
      </trkpt>
      <trkpt lat="10.1570335391208" lon="-75.6831785525667">
        <ele>52.3851891</ele>
        <time>2019-09-10T14:59:38.100Z</time>
      </trkpt>
      <trkpt lat="10.1570317848828" lon="-75.6831764766918">
        <ele>52.3851891</ele>
        <time>2019-09-10T14:59:38.200Z</time>
      </trkpt>
      <trkpt lat="10.157030027935" lon="-75.6831744030449">
        <ele>52.3851891</ele>
        <time>2019-09-10T14:59:38.300Z</time>
      </trkpt>
      <trkpt lat="10.1570265684425" lon="-75.683170239319">
        <ele>52.3851891</ele>
        <time>2019-09-10T14:59:38.500Z</time>
      </trkpt>
      <trkpt lat="10.157024868816" lon="-75.6831681484045">
        <ele>52.3851891</ele>
        <time>2019-09-10T14:59:38.600Z</time>
      </trkpt>
      <trkpt lat="10.1570231720034" lon="-75.6831660750361">
        <ele>52.3851891</ele>
        <time>2019-09-10T14:59:38.700Z</time>
      </trkpt>
      <trkpt lat="10.1570197292904" lon="-75.6831619496054">
        <ele>52.3851891</ele>
        <time>2019-09-10T14:59:38.900Z</time>
      </trkpt>
      <trkpt lat="10.1570162157075" lon="-75.6831577800308">
        <ele>52.3851891</ele>
        <time>2019-09-10T14:59:39.100Z</time>
      </trkpt>
      <trkpt lat="10.1570127263038" lon="-75.683153549741">
        <ele>52.3851891</ele>
        <time>2019-09-10T14:59:39.300Z</time>
      </trkpt>
      <trkpt lat="10.1570092503445" lon="-75.6831493250214">
        <ele>52.2851891</ele>
        <time>2019-09-10T14:59:39.500Z</time>
      </trkpt>
      <trkpt lat="10.157007502047" lon="-75.6831471868995">
        <ele>52.2851891</ele>
        <time>2019-09-10T14:59:39.600Z</time>
      </trkpt>
      <trkpt lat="10.1570057749062" lon="-75.683145082338">
        <ele>52.2851891</ele>
        <time>2019-09-10T14:59:39.700Z</time>
      </trkpt>
      <trkpt lat="10.157002402542" lon="-75.6831409120671">
        <ele>52.2851891</ele>
        <time>2019-09-10T14:59:39.900Z</time>
      </trkpt>
      <trkpt lat="10.1569990229866" lon="-75.6831367011338">
        <ele>52.2851891</ele>
        <time>2019-09-10T14:59:40.100Z</time>
      </trkpt>
      <trkpt lat="10.1569955654743" lon="-75.683132492707">
        <ele>52.2851891</ele>
        <time>2019-09-10T14:59:40.300Z</time>
      </trkpt>
      <trkpt lat="10.1569938690786" lon="-75.6831304402269">
        <ele>52.2851891</ele>
        <time>2019-09-10T14:59:40.400Z</time>
      </trkpt>
      <trkpt lat="10.1569921816459" lon="-75.6831283883038">
        <ele>52.2851891</ele>
        <time>2019-09-10T14:59:40.500Z</time>
      </trkpt>
      <trkpt lat="10.1569887537322" lon="-75.6831242996364">
        <ele>52.2851891</ele>
        <time>2019-09-10T14:59:40.700Z</time>
      </trkpt>
      <trkpt lat="10.1569870220057" lon="-75.683122264981">
        <ele>52.2851891</ele>
        <time>2019-09-10T14:59:40.800Z</time>
      </trkpt>
      <trkpt lat="10.1569852880907" lon="-75.6831202339461">
        <ele>52.2851891</ele>
        <time>2019-09-10T14:59:40.900Z</time>
      </trkpt>
      <trkpt lat="10.1569818068161" lon="-75.6831161135286">
        <ele>52.2851891</ele>
        <time>2019-09-10T14:59:41.100Z</time>
      </trkpt>
      <trkpt lat="10.1569782859378" lon="-75.6831119401941">
        <ele>52.2851891</ele>
        <time>2019-09-10T14:59:41.300Z</time>
      </trkpt>
      <trkpt lat="10.1569765067911" lon="-75.6831098618125">
        <ele>52.2851891</ele>
        <time>2019-09-10T14:59:41.400Z</time>
      </trkpt>
      <trkpt lat="10.1569747306668" lon="-75.6831077919255">
        <ele>52.2851891</ele>
        <time>2019-09-10T14:59:41.500Z</time>
      </trkpt>
      <trkpt lat="10.1569712041606" lon="-75.6831036621779">
        <ele>52.2851891</ele>
        <time>2019-09-10T14:59:41.700Z</time>
      </trkpt>
      <trkpt lat="10.1569676549343" lon="-75.6830995350761">
        <ele>52.2851891</ele>
        <time>2019-09-10T14:59:41.900Z</time>
      </trkpt>
      <trkpt lat="10.1569658756834" lon="-75.6830974546057">
        <ele>52.2851891</ele>
        <time>2019-09-10T14:59:42.000Z</time>
      </trkpt>
      <trkpt lat="10.1569623080101" lon="-75.6830932562053">
        <ele>52.2851891</ele>
        <time>2019-09-10T14:59:42.200Z</time>
      </trkpt>
      <trkpt lat="10.1569605458513" lon="-75.6830911437063">
        <ele>52.3851891</ele>
        <time>2019-09-10T14:59:42.300Z</time>
      </trkpt>
      <trkpt lat="10.1569570601995" lon="-75.6830869214933">
        <ele>52.3851891</ele>
        <time>2019-09-10T14:59:42.500Z</time>
      </trkpt>
      <trkpt lat="10.1569535864288" lon="-75.6830826739359">
        <ele>52.3851891</ele>
        <time>2019-09-10T14:59:42.700Z</time>
      </trkpt>
      <trkpt lat="10.1569501361077" lon="-75.6830784493556">
        <ele>52.3851891</ele>
        <time>2019-09-10T14:59:42.900Z</time>
      </trkpt>
      <trkpt lat="10.1569467113206" lon="-75.6830743214182">
        <ele>52.2851891</ele>
        <time>2019-09-10T14:59:43.100Z</time>
      </trkpt>
      <trkpt lat="10.1569449834504" lon="-75.6830722700522">
        <ele>52.2851891</ele>
        <time>2019-09-10T14:59:43.200Z</time>
      </trkpt>
      <trkpt lat="10.1569432773622" lon="-75.683070202811">
        <ele>52.2851891</ele>
        <time>2019-09-10T14:59:43.300Z</time>
      </trkpt>
      <trkpt lat="10.1569415674178" lon="-75.6830681157956">
        <ele>52.2851891</ele>
        <time>2019-09-10T14:59:43.400Z</time>
      </trkpt>
      <trkpt lat="10.1569398295424" lon="-75.6830660408955">
        <ele>52.2851891</ele>
        <time>2019-09-10T14:59:43.500Z</time>
      </trkpt>
      <trkpt lat="10.1569380803069" lon="-75.6830639615391">
        <ele>52.2851891</ele>
        <time>2019-09-10T14:59:43.600Z</time>
      </trkpt>
      <trkpt lat="10.1569363246098" lon="-75.6830618756378">
        <ele>52.2851891</ele>
        <time>2019-09-10T14:59:43.700Z</time>
      </trkpt>
      <trkpt lat="10.1569345656818" lon="-75.6830597791531">
        <ele>52.2851891</ele>
        <time>2019-09-10T14:59:43.800Z</time>
      </trkpt>
      <trkpt lat="10.1569328042526" lon="-75.6830576761234">
        <ele>52.2851891</ele>
        <time>2019-09-10T14:59:43.900Z</time>
      </trkpt>
      <trkpt lat="10.1569310470964" lon="-75.6830555639028">
        <ele>52.2851891</ele>
        <time>2019-09-10T14:59:44.000Z</time>
      </trkpt>
      <trkpt lat="10.1569274861974" lon="-75.6830512691379">
        <ele>52.2851891</ele>
        <time>2019-09-10T14:59:44.200Z</time>
      </trkpt>
      <trkpt lat="10.1569256847475" lon="-75.6830491215466">
        <ele>52.3851891</ele>
        <time>2019-09-10T14:59:44.300Z</time>
      </trkpt>
      <trkpt lat="10.1569221044636" lon="-75.6830448301239">
        <ele>52.3851891</ele>
        <time>2019-09-10T14:59:44.500Z</time>
      </trkpt>
      <trkpt lat="10.1569185559669" lon="-75.6830405513734">
        <ele>52.3851891</ele>
        <time>2019-09-10T14:59:44.700Z</time>
      </trkpt>
      <trkpt lat="10.1569167846367" lon="-75.683038410327">
        <ele>52.3851891</ele>
        <time>2019-09-10T14:59:44.800Z</time>
      </trkpt>
      <trkpt lat="10.1569150203935" lon="-75.6830362735976">
        <ele>52.3851891</ele>
        <time>2019-09-10T14:59:44.900Z</time>
      </trkpt>
      <trkpt lat="10.1569115311982" lon="-75.6830320018098">
        <ele>52.3851891</ele>
        <time>2019-09-10T14:59:45.100Z</time>
      </trkpt>
      <trkpt lat="10.1569080417944" lon="-75.6830277154003">
        <ele>52.3851891</ele>
        <time>2019-09-10T14:59:45.300Z</time>
      </trkpt>
      <trkpt lat="10.1569062832834" lon="-75.6830255593144">
        <ele>52.3851891</ele>
        <time>2019-09-10T14:59:45.400Z</time>
      </trkpt>
      <trkpt lat="10.15690455583" lon="-75.6830234188251">
        <ele>52.3851891</ele>
        <time>2019-09-10T14:59:45.500Z</time>
      </trkpt>
      <trkpt lat="10.1569028423421" lon="-75.6830212886406">
        <ele>52.3851891</ele>
        <time>2019-09-10T14:59:45.600Z</time>
      </trkpt>
      <trkpt lat="10.1569011365666" lon="-75.6830191416063">
        <ele>52.3851891</ele>
        <time>2019-09-10T14:59:45.700Z</time>
      </trkpt>
      <trkpt lat="10.1568977406486" lon="-75.6830149050501">
        <ele>52.3851891</ele>
        <time>2019-09-10T14:59:45.900Z</time>
      </trkpt>
      <trkpt lat="10.1568943397279" lon="-75.6830107047001">
        <ele>52.3851891</ele>
        <time>2019-09-10T14:59:46.100Z</time>
      </trkpt>
      <trkpt lat="10.1568926146716" lon="-75.6830085722876">
        <ele>52.3851891</ele>
        <time>2019-09-10T14:59:46.200Z</time>
      </trkpt>
      <trkpt lat="10.1568909242165" lon="-75.68300645018">
        <ele>52.3851891</ele>
        <time>2019-09-10T14:59:46.300Z</time>
      </trkpt>
      <trkpt lat="10.1568875344475" lon="-75.6830022257389">
        <ele>52.3851891</ele>
        <time>2019-09-10T14:59:46.500Z</time>
      </trkpt>
      <trkpt lat="10.1568858177288" lon="-75.6830001186708">
        <ele>52.3851891</ele>
        <time>2019-09-10T14:59:46.600Z</time>
      </trkpt>
      <trkpt lat="10.1568840904838" lon="-75.6829980192617">
        <ele>52.3851891</ele>
        <time>2019-09-10T14:59:46.700Z</time>
      </trkpt>
      <trkpt lat="10.1568823608418" lon="-75.682995916232">
        <ele>52.3851891</ele>
        <time>2019-09-10T14:59:46.800Z</time>
      </trkpt>
      <trkpt lat="10.1568806443315" lon="-75.6829938480161">
        <ele>52.3851891</ele>
        <time>2019-09-10T14:59:46.900Z</time>
      </trkpt>
      <trkpt lat="10.1568789304268" lon="-75.6829917810534">
        <ele>52.3851891</ele>
        <time>2019-09-10T14:59:47.000Z</time>
      </trkpt>
      <trkpt lat="10.1568772367408" lon="-75.682989690696">
        <ele>52.3851891</ele>
        <time>2019-09-10T14:59:47.100Z</time>
      </trkpt>
      <trkpt lat="10.156875539824" lon="-75.6829875836279">
        <ele>52.3851891</ele>
        <time>2019-09-10T14:59:47.200Z</time>
      </trkpt>
      <trkpt lat="10.156873808306" lon="-75.6829854517724">
        <ele>52.3851891</ele>
        <time>2019-09-10T14:59:47.300Z</time>
      </trkpt>
      <trkpt lat="10.1568720598001" lon="-75.6829833204739">
        <ele>52.3851891</ele>
        <time>2019-09-10T14:59:47.400Z</time>
      </trkpt>
      <trkpt lat="10.1568703307834" lon="-75.6829812167479">
        <ele>52.3851891</ele>
        <time>2019-09-10T14:59:47.500Z</time>
      </trkpt>
      <trkpt lat="10.1568686152112" lon="-75.6829791312643">
        <ele>52.3851891</ele>
        <time>2019-09-10T14:59:47.600Z</time>
      </trkpt>
      <trkpt lat="10.1568669179817" lon="-75.6829770228037">
        <ele>52.3851891</ele>
        <time>2019-09-10T14:59:47.700Z</time>
      </trkpt>
      <trkpt lat="10.1568652195016" lon="-75.6829749064055">
        <ele>52.3851891</ele>
        <time>2019-09-10T14:59:47.800Z</time>
      </trkpt>
      <trkpt lat="10.1568634879836" lon="-75.6829727648022">
        <ele>52.3851891</ele>
        <time>2019-09-10T14:59:47.900Z</time>
      </trkpt>
      <trkpt lat="10.1568617411452" lon="-75.6829706328074">
        <ele>52.3851891</ele>
        <time>2019-09-10T14:59:48.000Z</time>
      </trkpt>
      <trkpt lat="10.1568599975376" lon="-75.6829685637559">
        <ele>52.3851891</ele>
        <time>2019-09-10T14:59:48.100Z</time>
      </trkpt>
      <trkpt lat="10.1568582578904" lon="-75.6829665197704">
        <ele>52.3851891</ele>
        <time>2019-09-10T14:59:48.200Z</time>
      </trkpt>
      <trkpt lat="10.1568565124069" lon="-75.6829644775951">
        <ele>52.3851891</ele>
        <time>2019-09-10T14:59:48.300Z</time>
      </trkpt>
      <trkpt lat="10.1568547640052" lon="-75.682962424001">
        <ele>52.3851891</ele>
        <time>2019-09-10T14:59:48.400Z</time>
      </trkpt>
      <trkpt lat="10.1568530199808" lon="-75.6829603575953">
        <ele>52.3851891</ele>
        <time>2019-09-10T14:59:48.500Z</time>
      </trkpt>
      <trkpt lat="10.1568512789787" lon="-75.6829582849232">
        <ele>52.3851891</ele>
        <time>2019-09-10T14:59:48.600Z</time>
      </trkpt>
      <trkpt lat="10.156849510671" lon="-75.6829562171251">
        <ele>52.3851891</ele>
        <time>2019-09-10T14:59:48.700Z</time>
      </trkpt>
      <trkpt lat="10.1568477475742" lon="-75.68295414501">
        <ele>52.3851891</ele>
        <time>2019-09-10T14:59:48.800Z</time>
      </trkpt>
      <trkpt lat="10.1568459916686" lon="-75.6829520780474">
        <ele>52.3851891</ele>
        <time>2019-09-10T14:59:48.900Z</time>
      </trkpt>
      <trkpt lat="10.1568442424332" lon="-75.6829500071856">
        <ele>52.3851891</ele>
        <time>2019-09-10T14:59:49.000Z</time>
      </trkpt>
      <trkpt lat="10.1568424969496" lon="-75.6829479111186">
        <ele>52.3851891</ele>
        <time>2019-09-10T14:59:49.100Z</time>
      </trkpt>
      <trkpt lat="10.1568407607417" lon="-75.6829457897072">
        <ele>52.3851891</ele>
        <time>2019-09-10T14:59:49.200Z</time>
      </trkpt>
      <trkpt lat="10.1568390300575" lon="-75.6829436546489">
        <ele>52.3851891</ele>
        <time>2019-09-10T14:59:49.300Z</time>
      </trkpt>
      <trkpt lat="10.1568373018746" lon="-75.6829415241859">
        <ele>52.3851891</ele>
        <time>2019-09-10T14:59:49.400Z</time>
      </trkpt>
      <trkpt lat="10.1568356018311" lon="-75.682939402496">
        <ele>52.3851891</ele>
        <time>2019-09-10T14:59:49.500Z</time>
      </trkpt>
      <trkpt lat="10.1568339108549" lon="-75.6829372827557">
        <ele>52.3851891</ele>
        <time>2019-09-10T14:59:49.600Z</time>
      </trkpt>
      <trkpt lat="10.1568322162309" lon="-75.682935144773">
        <ele>52.3851891</ele>
        <time>2019-09-10T14:59:49.700Z</time>
      </trkpt>
      <trkpt lat="10.1568305129567" lon="-75.6829330056763">
        <ele>52.3851891</ele>
        <time>2019-09-10T14:59:49.800Z</time>
      </trkpt>
      <trkpt lat="10.1568288275041" lon="-75.682930859756">
        <ele>52.3851891</ele>
        <time>2019-09-10T14:59:49.900Z</time>
      </trkpt>
      <trkpt lat="10.1568271541411" lon="-75.6829287284575">
        <ele>52.3851891</ele>
        <time>2019-09-10T14:59:50.000Z</time>
      </trkpt>
      <trkpt lat="10.1568254933888" lon="-75.6829266212502">
        <ele>52.3851891</ele>
        <time>2019-09-10T14:59:50.100Z</time>
      </trkpt>
      <trkpt lat="10.1568238271128" lon="-75.682924532146">
        <ele>52.3851891</ele>
        <time>2019-09-10T14:59:50.200Z</time>
      </trkpt>
      <trkpt lat="10.1568221322804" lon="-75.6829224253564">
        <ele>52.3851891</ele>
        <time>2019-09-10T14:59:50.300Z</time>
      </trkpt>
      <trkpt lat="10.156820431299" lon="-75.6829203138321">
        <ele>52.3851891</ele>
        <time>2019-09-10T14:59:50.400Z</time>
      </trkpt>
      <trkpt lat="10.1568187273994" lon="-75.6829181999405">
        <ele>52.3851891</ele>
        <time>2019-09-10T14:59:50.500Z</time>
      </trkpt>
      <trkpt lat="10.1568153671248" lon="-75.6829140654582">
        <ele>52.3851891</ele>
        <time>2019-09-10T14:59:50.700Z</time>
      </trkpt>
      <trkpt lat="10.1568137060598" lon="-75.6829120487667">
        <ele>52.3851891</ele>
        <time>2019-09-10T14:59:50.800Z</time>
      </trkpt>
      <trkpt lat="10.1568120405133" lon="-75.6829100301255">
        <ele>52.3851891</ele>
        <time>2019-09-10T14:59:50.900Z</time>
      </trkpt>
      <trkpt lat="10.156810353289" lon="-75.6829080120414">
        <ele>52.3851891</ele>
        <time>2019-09-10T14:59:51.000Z</time>
      </trkpt>
      <trkpt lat="10.1568086684617" lon="-75.6829060184662">
        <ele>52.3851891</ele>
        <time>2019-09-10T14:59:51.100Z</time>
      </trkpt>
      <trkpt lat="10.1568069796741" lon="-75.6829040312967">
        <ele>52.3851891</ele>
        <time>2019-09-10T14:59:51.200Z</time>
      </trkpt>
      <trkpt lat="10.1568052791096" lon="-75.6829020292269">
        <ele>52.3851891</ele>
        <time>2019-09-10T14:59:51.300Z</time>
      </trkpt>
      <trkpt lat="10.1568035758353" lon="-75.6829000160167">
        <ele>52.3851891</ele>
        <time>2019-09-10T14:59:51.400Z</time>
      </trkpt>
      <trkpt lat="10.1568018477566" lon="-75.6828979880454">
        <ele>52.3851891</ele>
        <time>2019-09-10T14:59:51.500Z</time>
      </trkpt>
      <trkpt lat="10.1568001290578" lon="-75.6828959528329">
        <ele>52.3851891</ele>
        <time>2019-09-10T14:59:51.600Z</time>
      </trkpt>
      <trkpt lat="10.1567984154657" lon="-75.6828938861488">
        <ele>52.3851891</ele>
        <time>2019-09-10T14:59:51.700Z</time>
      </trkpt>
      <trkpt lat="10.1567967111492" lon="-75.6828918193254">
        <ele>52.3851891</ele>
        <time>2019-09-10T14:59:51.800Z</time>
      </trkpt>
      <trkpt lat="10.1567950074581" lon="-75.682889794">
        <ele>52.3851891</ele>
        <time>2019-09-10T14:59:51.900Z</time>
      </trkpt>
      <trkpt lat="10.1567932988686" lon="-75.6828877796758">
        <ele>52.3851891</ele>
        <time>2019-09-10T14:59:52.000Z</time>
      </trkpt>
      <trkpt lat="10.156791594969" lon="-75.6828857586673">
        <ele>52.3851891</ele>
        <time>2019-09-10T14:59:52.100Z</time>
      </trkpt>
      <trkpt lat="10.1567898999282" lon="-75.6828837241511">
        <ele>52.3851891</ele>
        <time>2019-09-10T14:59:52.200Z</time>
      </trkpt>
      <trkpt lat="10.1567881877952" lon="-75.6828816779374">
        <ele>52.3851891</ele>
        <time>2019-09-10T14:59:52.300Z</time>
      </trkpt>
      <trkpt lat="10.1567864677414" lon="-75.6828796260143">
        <ele>52.3851891</ele>
        <time>2019-09-10T14:59:52.400Z</time>
      </trkpt>
      <trkpt lat="10.1567847274689" lon="-75.6828775438729">
        <ele>52.3851891</ele>
        <time>2019-09-10T14:59:52.500Z</time>
      </trkpt>
      <trkpt lat="10.1567829913652" lon="-75.682875469669">
        <ele>52.3851891</ele>
        <time>2019-09-10T14:59:52.600Z</time>
      </trkpt>
      <trkpt lat="10.1567812676638" lon="-75.6828734430903">
        <ele>52.3851891</ele>
        <time>2019-09-10T14:59:52.700Z</time>
      </trkpt>
      <trkpt lat="10.1567795653275" lon="-75.6828714578704">
        <ele>52.3851891</ele>
        <time>2019-09-10T14:59:52.800Z</time>
      </trkpt>
      <trkpt lat="10.1567778855029" lon="-75.6828694815628">
        <ele>52.3851891</ele>
        <time>2019-09-10T14:59:52.900Z</time>
      </trkpt>
      <trkpt lat="10.1567762123483" lon="-75.6828674977354">
        <ele>52.3851891</ele>
        <time>2019-09-10T14:59:53.000Z</time>
      </trkpt>
      <trkpt lat="10.1567744661352" lon="-75.6828654488759">
        <ele>52.3851891</ele>
        <time>2019-09-10T14:59:53.100Z</time>
      </trkpt>
      <trkpt lat="10.1567727058524" lon="-75.6828633938892">
        <ele>52.3851891</ele>
        <time>2019-09-10T14:59:53.200Z</time>
      </trkpt>
      <trkpt lat="10.1567709862155" lon="-75.6828613837426">
        <ele>52.3851891</ele>
        <time>2019-09-10T14:59:53.300Z</time>
      </trkpt>
      <trkpt lat="10.1567692808569" lon="-75.6828593896103">
        <ele>52.3851891</ele>
        <time>2019-09-10T14:59:53.400Z</time>
      </trkpt>
      <trkpt lat="10.1567675480882" lon="-75.6828573949211">
        <ele>52.3851891</ele>
        <time>2019-09-10T14:59:53.500Z</time>
      </trkpt>
      <trkpt lat="10.1567657934333" lon="-75.6828553890914">
        <ele>52.3851891</ele>
        <time>2019-09-10T14:59:53.600Z</time>
      </trkpt>
      <trkpt lat="10.1567640450316" lon="-75.6828533523471">
        <ele>52.3851891</ele>
        <time>2019-09-10T14:59:53.700Z</time>
      </trkpt>
      <trkpt lat="10.1567622889176" lon="-75.6828512866377">
        <ele>52.3851891</ele>
        <time>2019-09-10T14:59:53.800Z</time>
      </trkpt>
      <trkpt lat="10.1567605025797" lon="-75.6828492221817">
        <ele>52.3851891</ele>
        <time>2019-09-10T14:59:53.900Z</time>
      </trkpt>
      <trkpt lat="10.1567586997749" lon="-75.6828471513199">
        <ele>52.3851891</ele>
        <time>2019-09-10T14:59:54.000Z</time>
      </trkpt>
      <trkpt lat="10.1567568811287" lon="-75.682845050379">
        <ele>52.3851891</ele>
        <time>2019-09-10T14:59:54.100Z</time>
      </trkpt>
      <trkpt lat="10.1567550668597" lon="-75.6828429370444">
        <ele>52.3851891</ele>
        <time>2019-09-10T14:59:54.200Z</time>
      </trkpt>
      <trkpt lat="10.1567532567595" lon="-75.682840785554">
        <ele>52.3851891</ele>
        <time>2019-09-10T14:59:54.300Z</time>
      </trkpt>
      <trkpt lat="10.1567514545801" lon="-75.6828386429759">
        <ele>52.3851891</ele>
        <time>2019-09-10T14:59:54.400Z</time>
      </trkpt>
      <trkpt lat="10.1567496323903" lon="-75.6828365113989">
        <ele>52.3851891</ele>
        <time>2019-09-10T14:59:54.500Z</time>
      </trkpt>
      <trkpt lat="10.1567478162454" lon="-75.6828344094832">
        <ele>52.3851891</ele>
        <time>2019-09-10T14:59:54.600Z</time>
      </trkpt>
      <trkpt lat="10.1567460171925" lon="-75.6828322879326">
        <ele>52.3851891</ele>
        <time>2019-09-10T14:59:54.700Z</time>
      </trkpt>
      <trkpt lat="10.1567442354403" lon="-75.6828301711166">
        <ele>52.3851891</ele>
        <time>2019-09-10T14:59:54.800Z</time>
      </trkpt>
      <trkpt lat="10.1567424601498" lon="-75.6828280477557">
        <ele>52.3851891</ele>
        <time>2019-09-10T14:59:54.900Z</time>
      </trkpt>
      <trkpt lat="10.1567388995635" lon="-75.6828237951851">
        <ele>52.3851891</ele>
        <time>2019-09-10T14:59:55.100Z</time>
      </trkpt>
      <trkpt lat="10.1567371113496" lon="-75.6828216590127">
        <ele>52.3851891</ele>
        <time>2019-09-10T14:59:55.200Z</time>
      </trkpt>
      <trkpt lat="10.1567353154234" lon="-75.6828194923434">
        <ele>52.3851891</ele>
        <time>2019-09-10T14:59:55.300Z</time>
      </trkpt>
      <trkpt lat="10.1567335203309" lon="-75.6828173224713">
        <ele>52.3851891</ele>
        <time>2019-09-10T14:59:55.400Z</time>
      </trkpt>
      <trkpt lat="10.1567317227372" lon="-75.6828151892233">
        <ele>52.3851891</ele>
        <time>2019-09-10T14:59:55.500Z</time>
      </trkpt>
      <trkpt lat="10.1567299363993" lon="-75.6828130733821">
        <ele>52.3851891</ele>
        <time>2019-09-10T14:59:55.600Z</time>
      </trkpt>
      <trkpt lat="10.1567280839856" lon="-75.6828108607587">
        <ele>52.3851891</ele>
        <time>2019-09-10T14:59:55.700Z</time>
      </trkpt>
      <trkpt lat="10.1567262442868" lon="-75.6828086368556">
        <ele>52.3851891</ele>
        <time>2019-09-10T14:59:55.800Z</time>
      </trkpt>
      <trkpt lat="10.1567244596164" lon="-75.6828064781239">
        <ele>52.3851891</ele>
        <time>2019-09-10T14:59:55.900Z</time>
      </trkpt>
      <trkpt lat="10.1567226997505" lon="-75.6828043572695">
        <ele>52.3851891</ele>
        <time>2019-09-10T14:59:56.000Z</time>
      </trkpt>
      <trkpt lat="10.1567209544754" lon="-75.6828022713682">
        <ele>52.3851891</ele>
        <time>2019-09-10T14:59:56.100Z</time>
      </trkpt>
      <trkpt lat="10.1567192071159" lon="-75.6828001889482">
        <ele>52.3851891</ele>
        <time>2019-09-10T14:59:56.200Z</time>
      </trkpt>
      <trkpt lat="10.1567174228624" lon="-75.6827981010973">
        <ele>52.3851891</ele>
        <time>2019-09-10T14:59:56.300Z</time>
      </trkpt>
      <trkpt lat="10.1567156279784" lon="-75.6827960041949">
        <ele>52.3851891</ele>
        <time>2019-09-10T14:59:56.400Z</time>
      </trkpt>
      <trkpt lat="10.1567138472684" lon="-75.6827939213571">
        <ele>52.3851891</ele>
        <time>2019-09-10T14:59:56.500Z</time>
      </trkpt>
      <trkpt lat="10.1567120773973" lon="-75.6827918449252">
        <ele>52.3851891</ele>
        <time>2019-09-10T14:59:56.600Z</time>
      </trkpt>
      <trkpt lat="10.1567103002307" lon="-75.6827897786588">
        <ele>52.3851891</ele>
        <time>2019-09-10T14:59:56.700Z</time>
      </trkpt>
      <trkpt lat="10.1567085255655" lon="-75.6827877094681">
        <ele>52.2851891</ele>
        <time>2019-09-10T14:59:56.800Z</time>
      </trkpt>
      <trkpt lat="10.1567067842508" lon="-75.6827856558739">
        <ele>52.2851891</ele>
        <time>2019-09-10T14:59:56.900Z</time>
      </trkpt>
      <trkpt lat="10.1567050404348" lon="-75.6827836045078">
        <ele>52.2851891</ele>
        <time>2019-09-10T14:59:57.000Z</time>
      </trkpt>
      <trkpt lat="10.1567032903656" lon="-75.6827815280758">
        <ele>52.2851891</ele>
        <time>2019-09-10T14:59:57.100Z</time>
      </trkpt>
      <trkpt lat="10.1567015229958" lon="-75.6827794295023">
        <ele>52.2851891</ele>
        <time>2019-09-10T14:59:57.200Z</time>
      </trkpt>
      <trkpt lat="10.1566997189404" lon="-75.6827772539207">
        <ele>52.2851891</ele>
        <time>2019-09-10T14:59:57.300Z</time>
      </trkpt>
      <trkpt lat="10.1566979057136" lon="-75.6827750786176">
        <ele>52.2851891</ele>
        <time>2019-09-10T14:59:57.400Z</time>
      </trkpt>
      <trkpt lat="10.1566960866504" lon="-75.6827728730962">
        <ele>52.2851891</ele>
        <time>2019-09-10T14:59:57.500Z</time>
      </trkpt>
      <trkpt lat="10.156694282595" lon="-75.6827706931977">
        <ele>52.2851891</ele>
        <time>2019-09-10T14:59:57.600Z</time>
      </trkpt>
      <trkpt lat="10.1566925137661" lon="-75.6827685559113">
        <ele>52.1851891</ele>
        <time>2019-09-10T14:59:57.700Z</time>
      </trkpt>
      <trkpt lat="10.1566907607787" lon="-75.68276644383">
        <ele>52.1851891</ele>
        <time>2019-09-10T14:59:57.800Z</time>
      </trkpt>
      <trkpt lat="10.1566890088335" lon="-75.6827643495734">
        <ele>52.1851891</ele>
        <time>2019-09-10T14:59:57.900Z</time>
      </trkpt>
      <trkpt lat="10.1566872485507" lon="-75.6827622600514">
        <ele>52.1851891</ele>
        <time>2019-09-10T14:59:58.000Z</time>
      </trkpt>
      <trkpt lat="10.1566855047347" lon="-75.6827601630097">
        <ele>52.1851891</ele>
        <time>2019-09-10T14:59:58.100Z</time>
      </trkpt>
      <trkpt lat="10.1566837680057" lon="-75.6827580585874">
        <ele>52.1851891</ele>
        <time>2019-09-10T14:59:58.200Z</time>
      </trkpt>
      <trkpt lat="10.1566819993853" lon="-75.6827558657382">
        <ele>52.1851891</ele>
        <time>2019-09-10T14:59:58.300Z</time>
      </trkpt>
      <trkpt lat="10.1566785113364" lon="-75.6827515681883">
        <ele>52.1851891</ele>
        <time>2019-09-10T14:59:58.500Z</time>
      </trkpt>
      <trkpt lat="10.1566768275513" lon="-75.6827494842365">
        <ele>52.1851891</ele>
        <time>2019-09-10T14:59:58.600Z</time>
      </trkpt>
      <trkpt lat="10.1566751864967" lon="-75.682747401538">
        <ele>52.1851891</ele>
        <time>2019-09-10T14:59:58.700Z</time>
      </trkpt>
      <trkpt lat="10.1566735393972" lon="-75.6827453024075">
        <ele>52.1851891</ele>
        <time>2019-09-10T14:59:58.800Z</time>
      </trkpt>
      <trkpt lat="10.1566719116828" lon="-75.6827431608041">
        <ele>52.1851891</ele>
        <time>2019-09-10T14:59:58.900Z</time>
      </trkpt>
      <trkpt lat="10.1566702727125" lon="-75.6827409971985">
        <ele>52.1851891</ele>
        <time>2019-09-10T14:59:59.000Z</time>
      </trkpt>
      <trkpt lat="10.1566686341591" lon="-75.682738816743">
        <ele>52.1851891</ele>
        <time>2019-09-10T14:59:59.100Z</time>
      </trkpt>
      <trkpt lat="10.1566669822655" lon="-75.6827366623282">
        <ele>52.1851891</ele>
        <time>2019-09-10T14:59:59.200Z</time>
      </trkpt>
      <trkpt lat="10.1566653299551" lon="-75.6827345527535">
        <ele>52.1851891</ele>
        <time>2019-09-10T14:59:59.300Z</time>
      </trkpt>
      <trkpt lat="10.156663677853" lon="-75.6827324701943">
        <ele>52.1851891</ele>
        <time>2019-09-10T14:59:59.400Z</time>
      </trkpt>
      <trkpt lat="10.1566620376321" lon="-75.6827303803938">
        <ele>52.1851891</ele>
        <time>2019-09-10T14:59:59.500Z</time>
      </trkpt>
      <trkpt lat="10.1566604005378" lon="-75.6827282755538">
        <ele>52.1851891</ele>
        <time>2019-09-10T14:59:59.600Z</time>
      </trkpt>
      <trkpt lat="10.1566587411404" lon="-75.6827261559527">
        <ele>52.1851891</ele>
        <time>2019-09-10T14:59:59.700Z</time>
      </trkpt>
      <trkpt lat="10.1566570721546" lon="-75.6827240360731">
        <ele>52.1851891</ele>
        <time>2019-09-10T14:59:59.800Z</time>
      </trkpt>
      <trkpt lat="10.1566553990001" lon="-75.6827219200927">
        <ele>52.1851891</ele>
        <time>2019-09-10T14:59:59.900Z</time>
      </trkpt>
      <trkpt lat="10.1566537279299" lon="-75.6827198068974">
        <ele>52.1851891</ele>
        <time>2019-09-10T15:00:00.000Z</time>
      </trkpt>
      <trkpt lat="10.1566520606117" lon="-75.6827176704465">
        <ele>52.1851891</ele>
        <time>2019-09-10T15:00:00.100Z</time>
      </trkpt>
      <trkpt lat="10.1566503941273" lon="-75.6827155292609">
        <ele>52.1851891</ele>
        <time>2019-09-10T15:00:00.200Z</time>
      </trkpt>
      <trkpt lat="10.1566487140942" lon="-75.682713370947">
        <ele>52.2851891</ele>
        <time>2019-09-10T15:00:00.300Z</time>
      </trkpt>
      <trkpt lat="10.1566470261403" lon="-75.6827112261407">
        <ele>52.2851891</ele>
        <time>2019-09-10T15:00:00.400Z</time>
      </trkpt>
      <trkpt lat="10.1566453283898" lon="-75.6827090998554">
        <ele>52.2851891</ele>
        <time>2019-09-10T15:00:00.500Z</time>
      </trkpt>
      <trkpt lat="10.1566436254282" lon="-75.6827069923696">
        <ele>52.1851891</ele>
        <time>2019-09-10T15:00:00.600Z</time>
      </trkpt>
      <trkpt lat="10.1566419089179" lon="-75.6827048723508">
        <ele>52.1851891</ele>
        <time>2019-09-10T15:00:00.700Z</time>
      </trkpt>
      <trkpt lat="10.156640191157" lon="-75.6827027467617">
        <ele>52.1851891</ele>
        <time>2019-09-10T15:00:00.800Z</time>
      </trkpt>
      <trkpt lat="10.1566384508845" lon="-75.6827005873337">
        <ele>52.2851891</ele>
        <time>2019-09-10T15:00:00.900Z</time>
      </trkpt>
      <trkpt lat="10.1566367131133" lon="-75.6826984308301">
        <ele>52.2851891</ele>
        <time>2019-09-10T15:00:01.000Z</time>
      </trkpt>
      <trkpt lat="10.1566349872232" lon="-75.6826963127609">
        <ele>52.2851891</ele>
        <time>2019-09-10T15:00:01.100Z</time>
      </trkpt>
      <trkpt lat="10.1566332690454" lon="-75.6826942144658">
        <ele>52.2851891</ele>
        <time>2019-09-10T15:00:01.200Z</time>
      </trkpt>
      <trkpt lat="10.1566315400287" lon="-75.6826921323244">
        <ele>52.2851891</ele>
        <time>2019-09-10T15:00:01.300Z</time>
      </trkpt>
      <trkpt lat="10.1566298112205" lon="-75.682690044195">
        <ele>52.2851891</ele>
        <time>2019-09-10T15:00:01.400Z</time>
      </trkpt>
      <trkpt lat="10.1566280724071" lon="-75.6826879665097">
        <ele>52.2851891</ele>
        <time>2019-09-10T15:00:01.500Z</time>
      </trkpt>
      <trkpt lat="10.1566263365118" lon="-75.6826858801906">
        <ele>52.2851891</ele>
        <time>2019-09-10T15:00:01.600Z</time>
      </trkpt>
      <trkpt lat="10.1566245933212" lon="-75.6826837976314">
        <ele>52.2851891</ele>
        <time>2019-09-10T15:00:01.700Z</time>
      </trkpt>
      <trkpt lat="10.1566228638876" lon="-75.6826817114515">
        <ele>52.2851891</ele>
        <time>2019-09-10T15:00:01.800Z</time>
      </trkpt>
      <trkpt lat="10.1566211284092" lon="-75.6826796542368">
        <ele>52.2851891</ele>
        <time>2019-09-10T15:00:01.900Z</time>
      </trkpt>
      <trkpt lat="10.1566176403603" lon="-75.6826755561">
        <ele>52.2851891</ele>
        <time>2019-09-10T15:00:02.100Z</time>
      </trkpt>
      <trkpt lat="10.1566158932093" lon="-75.682673500974">
        <ele>52.2851891</ele>
        <time>2019-09-10T15:00:02.200Z</time>
      </trkpt>
      <trkpt lat="10.1566141420979" lon="-75.6826714536464">
        <ele>52.2851891</ele>
        <time>2019-09-10T15:00:02.300Z</time>
      </trkpt>
      <trkpt lat="10.1566124026591" lon="-75.6826693967101">
        <ele>52.2851891</ele>
        <time>2019-09-10T15:00:02.400Z</time>
      </trkpt>
      <trkpt lat="10.1566089260745" lon="-75.6826652715579">
        <ele>52.2851891</ele>
        <time>2019-09-10T15:00:02.600Z</time>
      </trkpt>
      <trkpt lat="10.1566071584962" lon="-75.6826631798078">
        <ele>52.2851891</ele>
        <time>2019-09-10T15:00:02.700Z</time>
      </trkpt>
      <trkpt lat="10.1566053971712" lon="-75.6826610742715">
        <ele>52.2851891</ele>
        <time>2019-09-10T15:00:02.800Z</time>
      </trkpt>
      <trkpt lat="10.156603647102" lon="-75.6826590199811">
        <ele>52.2851891</ele>
        <time>2019-09-10T15:00:02.900Z</time>
      </trkpt>
      <trkpt lat="10.1566019028691" lon="-75.6826569772488">
        <ele>52.2851891</ele>
        <time>2019-09-10T15:00:03.000Z</time>
      </trkpt>
      <trkpt lat="10.1566001354993" lon="-75.6826548978925">
        <ele>52.2851891</ele>
        <time>2019-09-10T15:00:03.100Z</time>
      </trkpt>
      <trkpt lat="10.1565983672957" lon="-75.6826527966731">
        <ele>52.2851891</ele>
        <time>2019-09-10T15:00:03.200Z</time>
      </trkpt>
      <trkpt lat="10.1565965993006" lon="-75.6826507155064">
        <ele>52.2851891</ele>
        <time>2019-09-10T15:00:03.300Z</time>
      </trkpt>
      <trkpt lat="10.1565948352658" lon="-75.6826486389352">
        <ele>52.2851891</ele>
        <time>2019-09-10T15:00:03.400Z</time>
      </trkpt>
      <trkpt lat="10.1565931029141" lon="-75.6826465496917">
        <ele>52.2851891</ele>
        <time>2019-09-10T15:00:03.500Z</time>
      </trkpt>
      <trkpt lat="10.1565913797337" lon="-75.682644452093">
        <ele>52.2851891</ele>
        <time>2019-09-10T15:00:03.600Z</time>
      </trkpt>
      <trkpt lat="10.1565896352924" lon="-75.6826423507343">
        <ele>52.2851891</ele>
        <time>2019-09-10T15:00:03.700Z</time>
      </trkpt>
      <trkpt lat="10.1565878795953" lon="-75.6826402527178">
        <ele>52.2851891</ele>
        <time>2019-09-10T15:00:03.800Z</time>
      </trkpt>
      <trkpt lat="10.1565861305683" lon="-75.6826381249007">
        <ele>52.2851891</ele>
        <time>2019-09-10T15:00:03.900Z</time>
      </trkpt>
      <trkpt lat="10.1565843857101" lon="-75.6826359973621">
        <ele>52.2851891</ele>
        <time>2019-09-10T15:00:04.000Z</time>
      </trkpt>
      <trkpt lat="10.1565826512739" lon="-75.6826338720516">
        <ele>52.2851891</ele>
        <time>2019-09-10T15:00:04.100Z</time>
      </trkpt>
      <trkpt lat="10.1565809176715" lon="-75.6826317594133">
        <ele>52.2851891</ele>
        <time>2019-09-10T15:00:04.200Z</time>
      </trkpt>
      <trkpt lat="10.1565791857366" lon="-75.6826296374449">
        <ele>52.2851891</ele>
        <time>2019-09-10T15:00:04.300Z</time>
      </trkpt>
      <trkpt lat="10.1565774525511" lon="-75.6826275150588">
        <ele>52.2851891</ele>
        <time>2019-09-10T15:00:04.400Z</time>
      </trkpt>
      <trkpt lat="10.1565757216585" lon="-75.6826253625935">
        <ele>52.2851891</ele>
        <time>2019-09-10T15:00:04.500Z</time>
      </trkpt>
      <trkpt lat="10.1565739870139" lon="-75.6826232122171">
        <ele>52.2851891</ele>
        <time>2019-09-10T15:00:04.600Z</time>
      </trkpt>
      <trkpt lat="10.1565722200609" lon="-75.6826210754877">
        <ele>52.2851891</ele>
        <time>2019-09-10T15:00:04.700Z</time>
      </trkpt>
      <trkpt lat="10.1565704468548" lon="-75.6826189455818">
        <ele>52.2851891</ele>
        <time>2019-09-10T15:00:04.800Z</time>
      </trkpt>
      <trkpt lat="10.1565686748993" lon="-75.6826167865715">
        <ele>52.2851891</ele>
        <time>2019-09-10T15:00:04.900Z</time>
      </trkpt>
      <trkpt lat="10.1565669167008" lon="-75.682614619763">
        <ele>52.2851891</ele>
        <time>2019-09-10T15:00:05.000Z</time>
      </trkpt>
      <trkpt lat="10.1565651716342" lon="-75.6826124508657">
        <ele>52.2851891</ele>
        <time>2019-09-10T15:00:05.100Z</time>
      </trkpt>
      <trkpt lat="10.1565634374065" lon="-75.682610299236">
        <ele>52.2851891</ele>
        <time>2019-09-10T15:00:05.200Z</time>
      </trkpt>
      <trkpt lat="10.1565617104742" lon="-75.6826081565186">
        <ele>52.2851891</ele>
        <time>2019-09-10T15:00:05.300Z</time>
      </trkpt>
      <trkpt lat="10.1565599854179" lon="-75.6826060242453">
        <ele>52.2851891</ele>
        <time>2019-09-10T15:00:05.400Z</time>
      </trkpt>
      <trkpt lat="10.1565582626544" lon="-75.6826039168987">
        <ele>52.2851891</ele>
        <time>2019-09-10T15:00:05.500Z</time>
      </trkpt>
      <trkpt lat="10.1565565415584" lon="-75.6826018229206">
        <ele>52.2851891</ele>
        <time>2019-09-10T15:00:05.600Z</time>
      </trkpt>
      <trkpt lat="10.156554818795" lon="-75.6825997517803">
        <ele>52.2851891</ele>
        <time>2019-09-10T15:00:05.700Z</time>
      </trkpt>
      <trkpt lat="10.156553094364" lon="-75.6825976835643">
        <ele>52.2851891</ele>
        <time>2019-09-10T15:00:05.800Z</time>
      </trkpt>
      <trkpt lat="10.156551384107" lon="-75.6825956586567">
        <ele>52.2851891</ele>
        <time>2019-09-10T15:00:05.900Z</time>
      </trkpt>
      <trkpt lat="10.1565496751006" lon="-75.6825936460036">
        <ele>52.2851891</ele>
        <time>2019-09-10T15:00:06.000Z</time>
      </trkpt>
      <trkpt lat="10.1565479348281" lon="-75.6825915986759">
        <ele>52.2851891</ele>
        <time>2019-09-10T15:00:06.100Z</time>
      </trkpt>
      <trkpt lat="10.1565461933049" lon="-75.6825895314347">
        <ele>52.2851891</ele>
        <time>2019-09-10T15:00:06.200Z</time>
      </trkpt>
      <trkpt lat="10.1565444903433" lon="-75.6825874892595">
        <ele>52.2851891</ele>
        <time>2019-09-10T15:00:06.300Z</time>
      </trkpt>
      <trkpt lat="10.1565410881721" lon="-75.6825834220373">
        <ele>52.2851891</ele>
        <time>2019-09-10T15:00:06.500Z</time>
      </trkpt>
      <trkpt lat="10.1565393699943" lon="-75.682581377634">
        <ele>52.2851891</ele>
        <time>2019-09-10T15:00:06.600Z</time>
      </trkpt>
      <trkpt lat="10.1565376391016" lon="-75.682579334484">
        <ele>52.2851891</ele>
        <time>2019-09-10T15:00:06.700Z</time>
      </trkpt>
      <trkpt lat="10.1565359050824" lon="-75.6825772913339">
        <ele>52.2851891</ele>
        <time>2019-09-10T15:00:06.800Z</time>
      </trkpt>
      <trkpt lat="10.1565342190045" lon="-75.6825753157226">
        <ele>52.2851891</ele>
        <time>2019-09-10T15:00:06.900Z</time>
      </trkpt>
      <trkpt lat="10.1565325508525" lon="-75.682573354176">
        <ele>52.2851891</ele>
        <time>2019-09-10T15:00:07.000Z</time>
      </trkpt>
      <trkpt lat="10.1565308118306" lon="-75.682571303367">
        <ele>52.2851891</ele>
        <time>2019-09-10T15:00:07.100Z</time>
      </trkpt>
      <trkpt lat="10.1565290365401" lon="-75.6825691889184">
        <ele>52.2851891</ele>
        <time>2019-09-10T15:00:07.200Z</time>
      </trkpt>
      <trkpt lat="10.1565273008533" lon="-75.6825670620761">
        <ele>52.2851891</ele>
        <time>2019-09-10T15:00:07.300Z</time>
      </trkpt>
      <trkpt lat="10.156525593306" lon="-75.6825649474882">
        <ele>52.2851891</ele>
        <time>2019-09-10T15:00:07.400Z</time>
      </trkpt>
      <trkpt lat="10.15652383344" lon="-75.682562755753">
        <ele>52.2851891</ele>
        <time>2019-09-10T15:00:07.500Z</time>
      </trkpt>
      <trkpt lat="10.1565220664871" lon="-75.6825605711199">
        <ele>52.2851891</ele>
        <time>2019-09-10T15:00:07.600Z</time>
      </trkpt>
      <trkpt lat="10.1565202918219" lon="-75.6825583839801">
        <ele>52.2851891</ele>
        <time>2019-09-10T15:00:07.700Z</time>
      </trkpt>
      <trkpt lat="10.1565185402936" lon="-75.6825562320719">
        <ele>52.2851891</ele>
        <time>2019-09-10T15:00:07.800Z</time>
      </trkpt>
      <trkpt lat="10.1565168152372" lon="-75.6825540986846">
        <ele>52.3851891</ele>
        <time>2019-09-10T15:00:07.900Z</time>
      </trkpt>
      <trkpt lat="10.1565150993523" lon="-75.6825519881351">
        <ele>52.2851891</ele>
        <time>2019-09-10T15:00:08.000Z</time>
      </trkpt>
      <trkpt lat="10.1565133713778" lon="-75.6825498924859">
        <ele>52.2851891</ele>
        <time>2019-09-10T15:00:08.100Z</time>
      </trkpt>
      <trkpt lat="10.1565116392345" lon="-75.6825478022677">
        <ele>52.2851891</ele>
        <time>2019-09-10T15:00:08.200Z</time>
      </trkpt>
      <trkpt lat="10.1565099283522" lon="-75.6825457726254">
        <ele>52.2851891</ele>
        <time>2019-09-10T15:00:08.300Z</time>
      </trkpt>
      <trkpt lat="10.1565082118419" lon="-75.682543741312">
        <ele>52.2851891</ele>
        <time>2019-09-10T15:00:08.400Z</time>
      </trkpt>
      <trkpt lat="10.1565065097141" lon="-75.6825417268485">
        <ele>52.2851891</ele>
        <time>2019-09-10T15:00:08.500Z</time>
      </trkpt>
      <trkpt lat="10.1565047940376" lon="-75.6825396875977">
        <ele>52.2851891</ele>
        <time>2019-09-10T15:00:08.600Z</time>
      </trkpt>
      <trkpt lat="10.1565030397996" lon="-75.6825376021141">
        <ele>52.2851891</ele>
        <time>2019-09-10T15:00:08.700Z</time>
      </trkpt>
      <trkpt lat="10.1565012668018" lon="-75.6825354958815">
        <ele>52.2851891</ele>
        <time>2019-09-10T15:00:08.800Z</time>
      </trkpt>
      <trkpt lat="10.1564995140229" lon="-75.6825334084484">
        <ele>52.2851891</ele>
        <time>2019-09-10T15:00:08.900Z</time>
      </trkpt>
      <trkpt lat="10.1564977712491" lon="-75.6825313286743">
        <ele>52.2851891</ele>
        <time>2019-09-10T15:00:09.000Z</time>
      </trkpt>
      <trkpt lat="10.1564960422324" lon="-75.6825292423552">
        <ele>52.3851891</ele>
        <time>2019-09-10T15:00:09.100Z</time>
      </trkpt>
      <trkpt lat="10.1564943123819" lon="-75.6825271435031">
        <ele>52.3851891</ele>
        <time>2019-09-10T15:00:09.200Z</time>
      </trkpt>
      <trkpt lat="10.1564925969139" lon="-75.682525006913">
        <ele>52.3851891</ele>
        <time>2019-09-10T15:00:09.300Z</time>
      </trkpt>
      <trkpt lat="10.1564908795699" lon="-75.6825228703228">
        <ele>52.3851891</ele>
        <time>2019-09-10T15:00:09.400Z</time>
      </trkpt>
      <trkpt lat="10.1564891409649" lon="-75.6825207345682">
        <ele>52.3851891</ele>
        <time>2019-09-10T15:00:09.500Z</time>
      </trkpt>
      <trkpt lat="10.1564873954814" lon="-75.6825186197018">
        <ele>52.3851891</ele>
        <time>2019-09-10T15:00:09.600Z</time>
      </trkpt>
      <trkpt lat="10.1564856299875" lon="-75.6825164640337">
        <ele>52.3851891</ele>
        <time>2019-09-10T15:00:09.700Z</time>
      </trkpt>
      <trkpt lat="10.1564838705385" lon="-75.6825143229873">
        <ele>52.3851891</ele>
        <time>2019-09-10T15:00:09.800Z</time>
      </trkpt>
      <trkpt lat="10.1564821052531" lon="-75.6825122007404">
        <ele>52.3851891</ele>
        <time>2019-09-10T15:00:09.900Z</time>
      </trkpt>
      <trkpt lat="10.1564803472631" lon="-75.6825101282076">
        <ele>52.3851891</ele>
        <time>2019-09-10T15:00:10.000Z</time>
      </trkpt>
      <trkpt lat="10.1564785909407" lon="-75.6825080725246">
        <ele>52.3851891</ele>
        <time>2019-09-10T15:00:10.100Z</time>
      </trkpt>
      <trkpt lat="10.1564768492091" lon="-75.6825060357803">
        <ele>52.3851891</ele>
        <time>2019-09-10T15:00:10.200Z</time>
      </trkpt>
      <trkpt lat="10.1564750930951" lon="-75.682503991934">
        <ele>52.3851891</ele>
        <time>2019-09-10T15:00:10.300Z</time>
      </trkpt>
      <trkpt lat="10.1564733496959" lon="-75.6825019454418">
        <ele>52.3851891</ele>
        <time>2019-09-10T15:00:10.400Z</time>
      </trkpt>
      <trkpt lat="10.1564716254734" lon="-75.6824998833531">
        <ele>52.3851891</ele>
        <time>2019-09-10T15:00:10.500Z</time>
      </trkpt>
      <trkpt lat="10.1564681666062" lon="-75.6824957814565">
        <ele>52.3851891</ele>
        <time>2019-09-10T15:00:10.700Z</time>
      </trkpt>
      <trkpt lat="10.1564664234155" lon="-75.6824937409523">
        <ele>52.3851891</ele>
        <time>2019-09-10T15:00:10.800Z</time>
      </trkpt>
      <trkpt lat="10.1564646685522" lon="-75.68249168889">
        <ele>52.3851891</ele>
        <time>2019-09-10T15:00:10.900Z</time>
      </trkpt>
      <trkpt lat="10.1564629093116" lon="-75.6824896183067">
        <ele>52.3851891</ele>
        <time>2019-09-10T15:00:11.000Z</time>
      </trkpt>
      <trkpt lat="10.1564611513216" lon="-75.6824875012122">
        <ele>52.3851891</ele>
        <time>2019-09-10T15:00:11.100Z</time>
      </trkpt>
      <trkpt lat="10.1564593987511" lon="-75.6824853686604">
        <ele>52.3851891</ele>
        <time>2019-09-10T15:00:11.200Z</time>
      </trkpt>
      <trkpt lat="10.1564576280462" lon="-75.6824832265001">
        <ele>52.3851891</ele>
        <time>2019-09-10T15:00:11.300Z</time>
      </trkpt>
      <trkpt lat="10.1564558669296" lon="-75.6824810972904">
        <ele>52.3851891</ele>
        <time>2019-09-10T15:00:11.400Z</time>
      </trkpt>
      <trkpt lat="10.1564541673031" lon="-75.6824790377083">
        <ele>52.3851891</ele>
        <time>2019-09-10T15:00:11.500Z</time>
      </trkpt>
      <trkpt lat="10.1564524755973" lon="-75.682476993862">
        <ele>52.3851891</ele>
        <time>2019-09-10T15:00:11.600Z</time>
      </trkpt>
      <trkpt lat="10.1564507826409" lon="-75.6824749202151">
        <ele>52.3851891</ele>
        <time>2019-09-10T15:00:11.700Z</time>
      </trkpt>
      <trkpt lat="10.1564490742598" lon="-75.6824728146788">
        <ele>52.3851891</ele>
        <time>2019-09-10T15:00:11.800Z</time>
      </trkpt>
      <trkpt lat="10.1564473856806" lon="-75.6824707031546">
        <ele>52.3851891</ele>
        <time>2019-09-10T15:00:11.900Z</time>
      </trkpt>
      <trkpt lat="10.1564456983521" lon="-75.6824685856423">
        <ele>52.3851891</ele>
        <time>2019-09-10T15:00:12.000Z</time>
      </trkpt>
      <trkpt lat="10.1564440014353" lon="-75.6824664465456">
        <ele>52.3851891</ele>
        <time>2019-09-10T15:00:12.100Z</time>
      </trkpt>
      <trkpt lat="10.1564422897192" lon="-75.6824643103732">
        <ele>52.3851891</ele>
        <time>2019-09-10T15:00:12.200Z</time>
      </trkpt>
      <trkpt lat="10.1564405636207" lon="-75.6824621580472">
        <ele>52.3851891</ele>
        <time>2019-09-10T15:00:12.300Z</time>
      </trkpt>
      <trkpt lat="10.1564388302267" lon="-75.6824600114306">
        <ele>52.3851891</ele>
        <time>2019-09-10T15:00:12.400Z</time>
      </trkpt>
      <trkpt lat="10.1564370601472" lon="-75.6824578446221">
        <ele>52.3851891</ele>
        <time>2019-09-10T15:00:12.500Z</time>
      </trkpt>
      <trkpt lat="10.1564352917351" lon="-75.6824556850549">
        <ele>52.3851891</ele>
        <time>2019-09-10T15:00:12.600Z</time>
      </trkpt>
      <trkpt lat="10.1564335416659" lon="-75.6824535373243">
        <ele>52.3851891</ele>
        <time>2019-09-10T15:00:12.700Z</time>
      </trkpt>
      <trkpt lat="10.1564318122323" lon="-75.6824514048422">
        <ele>52.3851891</ele>
        <time>2019-09-10T15:00:12.800Z</time>
      </trkpt>
      <trkpt lat="10.1564300802975" lon="-75.6824492692964">
        <ele>52.3851891</ele>
        <time>2019-09-10T15:00:12.900Z</time>
      </trkpt>
      <trkpt lat="10.1564283481542" lon="-75.6824471364661">
        <ele>52.3851891</ele>
        <time>2019-09-10T15:00:13.000Z</time>
      </trkpt>
      <trkpt lat="10.1564266107998" lon="-75.6824449946539">
        <ele>52.3851891</ele>
        <time>2019-09-10T15:00:13.100Z</time>
      </trkpt>
      <trkpt lat="10.1564248719864" lon="-75.6824428619629">
        <ele>52.3851891</ele>
        <time>2019-09-10T15:00:13.200Z</time>
      </trkpt>
      <trkpt lat="10.1564231281704" lon="-75.6824407208469">
        <ele>52.3851891</ele>
        <time>2019-09-10T15:00:13.300Z</time>
      </trkpt>
      <trkpt lat="10.1564213839375" lon="-75.6824385862759">
        <ele>52.3851891</ele>
        <time>2019-09-10T15:00:13.400Z</time>
      </trkpt>
      <trkpt lat="10.1564196372034" lon="-75.6824364378491">
        <ele>52.3851891</ele>
        <time>2019-09-10T15:00:13.500Z</time>
      </trkpt>
      <trkpt lat="10.1564178944296" lon="-75.6824342972902">
        <ele>52.3851891</ele>
        <time>2019-09-10T15:00:13.600Z</time>
      </trkpt>
      <trkpt lat="10.1564161522811" lon="-75.6824321682894">
        <ele>52.3851891</ele>
        <time>2019-09-10T15:00:13.700Z</time>
      </trkpt>
      <trkpt lat="10.1564144149268" lon="-75.6824300551637">
        <ele>52.3851891</ele>
        <time>2019-09-10T15:00:13.800Z</time>
      </trkpt>
      <trkpt lat="10.1564126588128" lon="-75.6824279299228">
        <ele>52.3851891</ele>
        <time>2019-09-10T15:00:13.900Z</time>
      </trkpt>
      <trkpt lat="10.1564109074929" lon="-75.6824258127587">
        <ele>52.3851891</ele>
        <time>2019-09-10T15:00:14.000Z</time>
      </trkpt>
      <trkpt lat="10.15640917931" lon="-75.6824237355608">
        <ele>52.3851891</ele>
        <time>2019-09-10T15:00:14.100Z</time>
      </trkpt>
      <trkpt lat="10.1564074590478" lon="-75.6824216730543">
        <ele>52.3851891</ele>
        <time>2019-09-10T15:00:14.200Z</time>
      </trkpt>
      <trkpt lat="10.156405762131" lon="-75.6824196371456">
        <ele>52.3851891</ele>
        <time>2019-09-10T15:00:14.300Z</time>
      </trkpt>
      <trkpt lat="10.1564040606285" lon="-75.6824175968503">
        <ele>52.2851891</ele>
        <time>2019-09-10T15:00:14.400Z</time>
      </trkpt>
      <trkpt lat="10.156402350163" lon="-75.6824155477123">
        <ele>52.2851891</ele>
        <time>2019-09-10T15:00:14.500Z</time>
      </trkpt>
      <trkpt lat="10.1564006213547" lon="-75.6824134797749">
        <ele>52.2851891</ele>
        <time>2019-09-10T15:00:14.600Z</time>
      </trkpt>
      <trkpt lat="10.1563988804569" lon="-75.6824114220727">
        <ele>52.2851891</ele>
        <time>2019-09-10T15:00:14.700Z</time>
      </trkpt>
      <trkpt lat="10.1563971378916" lon="-75.6824093633957">
        <ele>52.2851891</ele>
        <time>2019-09-10T15:00:14.800Z</time>
      </trkpt>
      <trkpt lat="10.1563954128352" lon="-75.6824073146058">
        <ele>52.2851891</ele>
        <time>2019-09-10T15:00:14.900Z</time>
      </trkpt>
      <trkpt lat="10.156391966683" lon="-75.6824031572161">
        <ele>52.2851891</ele>
        <time>2019-09-10T15:00:15.100Z</time>
      </trkpt>
      <trkpt lat="10.1563902343312" lon="-75.6824010344122">
        <ele>52.2851891</ele>
        <time>2019-09-10T15:00:15.200Z</time>
      </trkpt>
      <trkpt lat="10.1563884986444" lon="-75.6823988916948">
        <ele>52.2851891</ele>
        <time>2019-09-10T15:00:15.300Z</time>
      </trkpt>
      <trkpt lat="10.1563867581635" lon="-75.6823967593519">
        <ele>52.2851891</ele>
        <time>2019-09-10T15:00:15.400Z</time>
      </trkpt>
      <trkpt lat="10.1563850168488" lon="-75.6823946221351">
        <ele>52.2851891</ele>
        <time>2019-09-10T15:00:15.500Z</time>
      </trkpt>
      <trkpt lat="10.1563832755341" lon="-75.6823925008629">
        <ele>52.2851891</ele>
        <time>2019-09-10T15:00:15.600Z</time>
      </trkpt>
      <trkpt lat="10.1563814889877" lon="-75.6823903378143">
        <ele>52.2851891</ele>
        <time>2019-09-10T15:00:15.700Z</time>
      </trkpt>
      <trkpt lat="10.156379691394" lon="-75.6823881834691">
        <ele>52.2851891</ele>
        <time>2019-09-10T15:00:15.800Z</time>
      </trkpt>
      <trkpt lat="10.1563779677967" lon="-75.6823860899088">
        <ele>52.2851891</ele>
        <time>2019-09-10T15:00:15.900Z</time>
      </trkpt>
      <trkpt lat="10.1563762777585" lon="-75.682384026149">
        <ele>52.2851891</ele>
        <time>2019-09-10T15:00:16.000Z</time>
      </trkpt>
      <trkpt lat="10.1563745562456" lon="-75.68238191177">
        <ele>52.2851891</ele>
        <time>2019-09-10T15:00:16.100Z</time>
      </trkpt>
      <trkpt lat="10.1563728068017" lon="-75.682379779079">
        <ele>52.2851891</ele>
        <time>2019-09-10T15:00:16.200Z</time>
      </trkpt>
      <trkpt lat="10.1563710600676" lon="-75.6823776477109">
        <ele>52.2851891</ele>
        <time>2019-09-10T15:00:16.300Z</time>
      </trkpt>
      <trkpt lat="10.1563693160431" lon="-75.6823755373007">
        <ele>52.2851891</ele>
        <time>2019-09-10T15:00:16.400Z</time>
      </trkpt>
      <trkpt lat="10.1563675453383" lon="-75.6823734035652">
        <ele>52.2851891</ele>
        <time>2019-09-10T15:00:16.500Z</time>
      </trkpt>
      <trkpt lat="10.1563657765094" lon="-75.6823712850782">
        <ele>52.2851891</ele>
        <time>2019-09-10T15:00:16.600Z</time>
      </trkpt>
      <trkpt lat="10.1563640337356" lon="-75.6823692270279">
        <ele>52.2851891</ele>
        <time>2019-09-10T15:00:16.700Z</time>
      </trkpt>
      <trkpt lat="10.156362302426" lon="-75.6823671900051">
        <ele>52.2851891</ele>
        <time>2019-09-10T15:00:16.800Z</time>
      </trkpt>
      <trkpt lat="10.1563606161397" lon="-75.6823652265786">
        <ele>52.2851891</ele>
        <time>2019-09-10T15:00:16.900Z</time>
      </trkpt>
      <trkpt lat="10.1563589375657" lon="-75.6823632616899">
        <ele>52.2851891</ele>
        <time>2019-09-10T15:00:17.000Z</time>
      </trkpt>
      <trkpt lat="10.1563572166782" lon="-75.6823612163117">
        <ele>52.2851891</ele>
        <time>2019-09-10T15:00:17.100Z</time>
      </trkpt>
      <trkpt lat="10.1563554693187" lon="-75.6823591235173">
        <ele>52.2851891</ele>
        <time>2019-09-10T15:00:17.200Z</time>
      </trkpt>
      <trkpt lat="10.1563537897025" lon="-75.6823570837094">
        <ele>52.2851891</ele>
        <time>2019-09-10T15:00:17.300Z</time>
      </trkpt>
      <trkpt lat="10.1563521292628" lon="-75.6823550645112">
        <ele>52.2851891</ele>
        <time>2019-09-10T15:00:17.400Z</time>
      </trkpt>
      <trkpt lat="10.1563504392245" lon="-75.6823530222663">
        <ele>52.2851891</ele>
        <time>2019-09-10T15:00:17.500Z</time>
      </trkpt>
      <trkpt lat="10.1563487212552" lon="-75.6823509604561">
        <ele>52.2851891</ele>
        <time>2019-09-10T15:00:17.600Z</time>
      </trkpt>
      <trkpt lat="10.1563469909879" lon="-75.6823488709342">
        <ele>52.2851891</ele>
        <time>2019-09-10T15:00:17.700Z</time>
      </trkpt>
      <trkpt lat="10.1563452653062" lon="-75.6823467823174">
        <ele>52.2851891</ele>
        <time>2019-09-10T15:00:17.800Z</time>
      </trkpt>
      <trkpt lat="10.156343525659" lon="-75.682344674553">
        <ele>52.2851891</ele>
        <time>2019-09-10T15:00:17.900Z</time>
      </trkpt>
      <trkpt lat="10.1563417872625" lon="-75.6823425766757">
        <ele>52.2851891</ele>
        <time>2019-09-10T15:00:18.000Z</time>
      </trkpt>
      <trkpt lat="10.1563400359426" lon="-75.6823404852738">
        <ele>52.2851891</ele>
        <time>2019-09-10T15:00:18.100Z</time>
      </trkpt>
      <trkpt lat="10.1563382906675" lon="-75.6823384060567">
        <ele>52.2851891</ele>
        <time>2019-09-10T15:00:18.200Z</time>
      </trkpt>
      <trkpt lat="10.1563365349704" lon="-75.682336309015">
        <ele>52.2851891</ele>
        <time>2019-09-10T15:00:18.300Z</time>
      </trkpt>
      <trkpt lat="10.1563347834421" lon="-75.6823342174042">
        <ele>52.2851891</ele>
        <time>2019-09-10T15:00:18.400Z</time>
      </trkpt>
      <trkpt lat="10.1563330229509" lon="-75.6823321193181">
        <ele>52.2851891</ele>
        <time>2019-09-10T15:00:18.500Z</time>
      </trkpt>
      <trkpt lat="10.1563312720479" lon="-75.6823300285428">
        <ele>52.2851891</ele>
        <time>2019-09-10T15:00:18.600Z</time>
      </trkpt>
      <trkpt lat="10.1563294984248" lon="-75.6823279465406">
        <ele>52.2851891</ele>
        <time>2019-09-10T15:00:18.700Z</time>
      </trkpt>
      <trkpt lat="10.1563277314719" lon="-75.6823258717797">
        <ele>52.2851891</ele>
        <time>2019-09-10T15:00:18.800Z</time>
      </trkpt>
      <trkpt lat="10.1563259674371" lon="-75.6823237790549">
        <ele>52.2851891</ele>
        <time>2019-09-10T15:00:18.900Z</time>
      </trkpt>
      <trkpt lat="10.1563224456208" lon="-75.6823195452837">
        <ele>52.2851891</ele>
        <time>2019-09-10T15:00:19.100Z</time>
      </trkpt>
      <trkpt lat="10.1563206815861" lon="-75.6823174105735">
        <ele>52.2851891</ele>
        <time>2019-09-10T15:00:19.200Z</time>
      </trkpt>
      <trkpt lat="10.1563189431896" lon="-75.6823153262039">
        <ele>52.2851891</ele>
        <time>2019-09-10T15:00:19.300Z</time>
      </trkpt>
      <trkpt lat="10.1563172181332" lon="-75.6823132623049">
        <ele>52.2851891</ele>
        <time>2019-09-10T15:00:19.400Z</time>
      </trkpt>
      <trkpt lat="10.1563154905756" lon="-75.682311198197">
        <ele>52.2851891</ele>
        <time>2019-09-10T15:00:19.500Z</time>
      </trkpt>
      <trkpt lat="10.1563137603083" lon="-75.6823091238538">
        <ele>52.2851891</ele>
        <time>2019-09-10T15:00:19.600Z</time>
      </trkpt>
      <trkpt lat="10.1563120535947" lon="-75.6823070418516">
        <ele>52.2851891</ele>
        <time>2019-09-10T15:00:19.700Z</time>
      </trkpt>
      <trkpt lat="10.1563103506332" lon="-75.6823049559503">
        <ele>52.2851891</ele>
        <time>2019-09-10T15:00:19.800Z</time>
      </trkpt>
      <trkpt lat="10.1563086449618" lon="-75.682302887804">
        <ele>52.2851891</ele>
        <time>2019-09-10T15:00:19.900Z</time>
      </trkpt>
      <trkpt lat="10.1563069288685" lon="-75.6823008213984">
        <ele>52.2851891</ele>
        <time>2019-09-10T15:00:20.000Z</time>
      </trkpt>
      <trkpt lat="10.1563052038121" lon="-75.682298746916">
        <ele>52.2851891</ele>
        <time>2019-09-10T15:00:20.100Z</time>
      </trkpt>
      <trkpt lat="10.1563034725026" lon="-75.6822966667937">
        <ele>52.2851891</ele>
        <time>2019-09-10T15:00:20.200Z</time>
      </trkpt>
      <trkpt lat="10.1563017034653" lon="-75.6822945429454">
        <ele>52.2851891</ele>
        <time>2019-09-10T15:00:20.300Z</time>
      </trkpt>
      <trkpt lat="10.1562999313013" lon="-75.6822924140839">
        <ele>52.2851891</ele>
        <time>2019-09-10T15:00:20.400Z</time>
      </trkpt>
      <trkpt lat="10.1562981774801" lon="-75.6822903270685">
        <ele>52.2851891</ele>
        <time>2019-09-10T15:00:20.500Z</time>
      </trkpt>
      <trkpt lat="10.1562964397089" lon="-75.6822882553712">
        <ele>52.2851891</ele>
        <time>2019-09-10T15:00:20.600Z</time>
      </trkpt>
      <trkpt lat="10.1562946852625" lon="-75.6822861447521">
        <ele>52.2851891</ele>
        <time>2019-09-10T15:00:20.700Z</time>
      </trkpt>
      <trkpt lat="10.1562929339426" lon="-75.6822840168654">
        <ele>52.2851891</ele>
        <time>2019-09-10T15:00:20.800Z</time>
      </trkpt>
      <trkpt lat="10.1562912078441" lon="-75.6822819150889">
        <ele>52.2851891</ele>
        <time>2019-09-10T15:00:20.900Z</time>
      </trkpt>
      <trkpt lat="10.1562894892494" lon="-75.68227982313">
        <ele>52.2851891</ele>
        <time>2019-09-10T15:00:21.000Z</time>
      </trkpt>
      <trkpt lat="10.1562877739898" lon="-75.6822777088206">
        <ele>52.2851891</ele>
        <time>2019-09-10T15:00:21.100Z</time>
      </trkpt>
      <trkpt lat="10.1562860533107" lon="-75.6822755865738">
        <ele>52.2851891</ele>
        <time>2019-09-10T15:00:21.200Z</time>
      </trkpt>
      <trkpt lat="10.1562843284629" lon="-75.6822734704541">
        <ele>52.2851891</ele>
        <time>2019-09-10T15:00:21.300Z</time>
      </trkpt>
      <trkpt lat="10.156282596528" lon="-75.6822713634556">
        <ele>52.2851891</ele>
        <time>2019-09-10T15:00:21.400Z</time>
      </trkpt>
      <trkpt lat="10.1562808839781" lon="-75.6822692633503">
        <ele>52.2851891</ele>
        <time>2019-09-10T15:00:21.500Z</time>
      </trkpt>
      <trkpt lat="10.1562791733042" lon="-75.6822671641501">
        <ele>52.2851891</ele>
        <time>2019-09-10T15:00:21.600Z</time>
      </trkpt>
      <trkpt lat="10.1562774307389" lon="-75.6822650389788">
        <ele>52.2851891</ele>
        <time>2019-09-10T15:00:21.700Z</time>
      </trkpt>
      <trkpt lat="10.1562756815034" lon="-75.682262912972">
        <ele>52.2851891</ele>
        <time>2019-09-10T15:00:21.800Z</time>
      </trkpt>
      <trkpt lat="10.1562739749983" lon="-75.6822608177406">
        <ele>52.2851891</ele>
        <time>2019-09-10T15:00:21.900Z</time>
      </trkpt>
      <trkpt lat="10.1562722784984" lon="-75.6822587321874">
        <ele>52.2851891</ele>
        <time>2019-09-10T15:00:22.000Z</time>
      </trkpt>
      <trkpt lat="10.1562705503154" lon="-75.682256619201">
        <ele>52.1851891</ele>
        <time>2019-09-10T15:00:22.100Z</time>
      </trkpt>
      <trkpt lat="10.1562688052488" lon="-75.6822544957008">
        <ele>52.2851891</ele>
        <time>2019-09-10T15:00:22.200Z</time>
      </trkpt>
      <trkpt lat="10.156267050177" lon="-75.6822523766568">
        <ele>52.2851891</ele>
        <time>2019-09-10T15:00:22.300Z</time>
      </trkpt>
      <trkpt lat="10.1562652990656" lon="-75.6822502628348">
        <ele>52.2851891</ele>
        <time>2019-09-10T15:00:22.400Z</time>
      </trkpt>
      <trkpt lat="10.1562617966343" lon="-75.6822460562184">
        <ele>52.2851891</ele>
        <time>2019-09-10T15:00:22.600Z</time>
      </trkpt>
      <trkpt lat="10.1562600563618" lon="-75.6822439659305">
        <ele>52.2851891</ele>
        <time>2019-09-10T15:00:22.700Z</time>
      </trkpt>
      <trkpt lat="10.1562583244269" lon="-75.682241879681">
        <ele>52.2851891</ele>
        <time>2019-09-10T15:00:22.800Z</time>
      </trkpt>
      <trkpt lat="10.1562566252172" lon="-75.6822398239284">
        <ele>52.2851891</ele>
        <time>2019-09-10T15:00:22.900Z</time>
      </trkpt>
      <trkpt lat="10.1562549316355" lon="-75.6822377685239">
        <ele>52.2851891</ele>
        <time>2019-09-10T15:00:23.000Z</time>
      </trkpt>
      <trkpt lat="10.156253233468" lon="-75.6822357074796">
        <ele>52.2851891</ele>
        <time>2019-09-10T15:00:23.100Z</time>
      </trkpt>
      <trkpt lat="10.156251525087" lon="-75.6822336384282">
        <ele>52.2851891</ele>
        <time>2019-09-10T15:00:23.200Z</time>
      </trkpt>
      <trkpt lat="10.156249800656" lon="-75.6822315574008">
        <ele>52.2851891</ele>
        <time>2019-09-10T15:00:23.300Z</time>
      </trkpt>
      <trkpt lat="10.1562480733068" lon="-75.6822294728224">
        <ele>52.2851891</ele>
        <time>2019-09-10T15:00:23.400Z</time>
      </trkpt>
      <trkpt lat="10.1562463828517" lon="-75.682227430299">
        <ele>52.2851891</ele>
        <time>2019-09-10T15:00:23.500Z</time>
      </trkpt>
      <trkpt lat="10.1562446992751" lon="-75.6822253940421">
        <ele>52.2851891</ele>
        <time>2019-09-10T15:00:23.600Z</time>
      </trkpt>
      <trkpt lat="10.1562430015245" lon="-75.68222336997">
        <ele>52.2851891</ele>
        <time>2019-09-10T15:00:23.700Z</time>
      </trkpt>
      <trkpt lat="10.1562412900168" lon="-75.6822213330864">
        <ele>52.2851891</ele>
        <time>2019-09-10T15:00:23.800Z</time>
      </trkpt>
      <trkpt lat="10.1562395374463" lon="-75.6822192761501">
        <ele>52.2851891</ele>
        <time>2019-09-10T15:00:23.900Z</time>
      </trkpt>
      <trkpt lat="10.1562377784141" lon="-75.6822172042439">
        <ele>52.2851891</ele>
        <time>2019-09-10T15:00:24.000Z</time>
      </trkpt>
      <trkpt lat="10.1562360575266" lon="-75.6822151642271">
        <ele>52.2851891</ele>
        <time>2019-09-10T15:00:24.100Z</time>
      </trkpt>
      <trkpt lat="10.1562343508131" lon="-75.6822131249066">
        <ele>52.2851891</ele>
        <time>2019-09-10T15:00:24.200Z</time>
      </trkpt>
      <trkpt lat="10.1562326136672" lon="-75.6822110612165">
        <ele>52.2851891</ele>
        <time>2019-09-10T15:00:24.300Z</time>
      </trkpt>
      <trkpt lat="10.1562308638064" lon="-75.6822089823475">
        <ele>52.1851891</ele>
        <time>2019-09-10T15:00:24.400Z</time>
      </trkpt>
      <trkpt lat="10.1562291299956" lon="-75.6822069407989">
        <ele>52.1851891</ele>
        <time>2019-09-10T15:00:24.500Z</time>
      </trkpt>
      <trkpt lat="10.1562274059815" lon="-75.6822049011303">
        <ele>52.1851891</ele>
        <time>2019-09-10T15:00:24.600Z</time>
      </trkpt>
      <trkpt lat="10.1562257073971" lon="-75.6822028462132">
        <ele>52.1851891</ele>
        <time>2019-09-10T15:00:24.700Z</time>
      </trkpt>
      <trkpt lat="10.1562240096466" lon="-75.6822007746551">
        <ele>52.1851891</ele>
        <time>2019-09-10T15:00:24.800Z</time>
      </trkpt>
      <trkpt lat="10.1562223104369" lon="-75.6821986803289">
        <ele>52.1851891</ele>
        <time>2019-09-10T15:00:24.900Z</time>
      </trkpt>
      <trkpt lat="10.1562206043487" lon="-75.6821965766725">
        <ele>52.1851891</ele>
        <time>2019-09-10T15:00:25.000Z</time>
      </trkpt>
      <trkpt lat="10.1562189078488" lon="-75.6821945098491">
        <ele>52.2851891</ele>
        <time>2019-09-10T15:00:25.100Z</time>
      </trkpt>
      <trkpt lat="10.156217209056" lon="-75.6821924511025">
        <ele>52.2851891</ele>
        <time>2019-09-10T15:00:25.200Z</time>
      </trkpt>
      <trkpt lat="10.1562155217275" lon="-75.6821903865768">
        <ele>52.2851891</ele>
        <time>2019-09-10T15:00:25.300Z</time>
      </trkpt>
      <trkpt lat="10.1562138291879" lon="-75.6821883061761">
        <ele>52.2851891</ele>
        <time>2019-09-10T15:00:25.400Z</time>
      </trkpt>
      <trkpt lat="10.1562121412341" lon="-75.6821862438089">
        <ele>52.2851891</ele>
        <time>2019-09-10T15:00:25.500Z</time>
      </trkpt>
      <trkpt lat="10.1562104466101" lon="-75.6821841826949">
        <ele>52.2851891</ele>
        <time>2019-09-10T15:00:25.600Z</time>
      </trkpt>
      <trkpt lat="10.1562069762787" lon="-75.6821799198891">
        <ele>52.2851891</ele>
        <time>2019-09-10T15:00:25.800Z</time>
      </trkpt>
      <trkpt lat="10.156205242051" lon="-75.6821778035605">
        <ele>52.2851891</ele>
        <time>2019-09-10T15:00:25.900Z</time>
      </trkpt>
      <trkpt lat="10.15620351762" lon="-75.6821757065884">
        <ele>52.2851891</ele>
        <time>2019-09-10T15:00:26.000Z</time>
      </trkpt>
      <trkpt lat="10.156201786102" lon="-75.6821736068312">
        <ele>52.2851891</ele>
        <time>2019-09-10T15:00:26.100Z</time>
      </trkpt>
      <trkpt lat="10.1562000552093" lon="-75.6821715078399">
        <ele>52.2851891</ele>
        <time>2019-09-10T15:00:26.200Z</time>
      </trkpt>
      <trkpt lat="10.1561982863804" lon="-75.6821693775162">
        <ele>52.2851891</ele>
        <time>2019-09-10T15:00:26.300Z</time>
      </trkpt>
      <trkpt lat="10.1561965219288" lon="-75.6821672488636">
        <ele>52.2851891</ele>
        <time>2019-09-10T15:00:26.400Z</time>
      </trkpt>
      <trkpt lat="10.1561947751946" lon="-75.682165149733">
        <ele>52.2851891</ele>
        <time>2019-09-10T15:00:26.500Z</time>
      </trkpt>
      <trkpt lat="10.1561930420091" lon="-75.6821630640406">
        <ele>52.2851891</ele>
        <time>2019-09-10T15:00:26.600Z</time>
      </trkpt>
      <trkpt lat="10.1561913067392" lon="-75.6821609502882">
        <ele>52.2851891</ele>
        <time>2019-09-10T15:00:26.700Z</time>
      </trkpt>
      <trkpt lat="10.1561895685511" lon="-75.6821588279717">
        <ele>52.2851891</ele>
        <time>2019-09-10T15:00:26.800Z</time>
      </trkpt>
      <trkpt lat="10.1561877730418" lon="-75.6821566688222">
        <ele>52.2851891</ele>
        <time>2019-09-10T15:00:26.900Z</time>
      </trkpt>
      <trkpt lat="10.1561859802422" lon="-75.6821545208132">
        <ele>52.2851891</ele>
        <time>2019-09-10T15:00:27.000Z</time>
      </trkpt>
      <trkpt lat="10.156184240595" lon="-75.6821524112384">
        <ele>52.2851891</ele>
        <time>2019-09-10T15:00:27.100Z</time>
      </trkpt>
      <trkpt lat="10.1561808042394" lon="-75.6821482323338">
        <ele>52.2851891</ele>
        <time>2019-09-10T15:00:27.300Z</time>
      </trkpt>
      <trkpt lat="10.1561790837688" lon="-75.6821461400267">
        <ele>52.2851891</ele>
        <time>2019-09-10T15:00:27.400Z</time>
      </trkpt>
      <trkpt lat="10.1561773378684" lon="-75.6821440228626">
        <ele>52.2851891</ele>
        <time>2019-09-10T15:00:27.500Z</time>
      </trkpt>
      <trkpt lat="10.1561755861317" lon="-75.6821418992928">
        <ele>52.2851891</ele>
        <time>2019-09-10T15:00:27.600Z</time>
      </trkpt>
      <trkpt lat="10.1561738252235" lon="-75.6821397785777">
        <ele>52.2851891</ele>
        <time>2019-09-10T15:00:27.700Z</time>
      </trkpt>
      <trkpt lat="10.1561720743205" lon="-75.6821376657305">
        <ele>52.2851891</ele>
        <time>2019-09-10T15:00:27.800Z</time>
      </trkpt>
      <trkpt lat="10.1561703538499" lon="-75.6821355857475">
        <ele>52.2851891</ele>
        <time>2019-09-10T15:00:27.900Z</time>
      </trkpt>
      <trkpt lat="10.1561686394241" lon="-75.6821335148858">
        <ele>52.2851891</ele>
        <time>2019-09-10T15:00:28.000Z</time>
      </trkpt>
      <trkpt lat="10.1561669256235" lon="-75.6821314476446">
        <ele>52.2851891</ele>
        <time>2019-09-10T15:00:28.100Z</time>
      </trkpt>
      <trkpt lat="10.1561652068204" lon="-75.6821293708645">
        <ele>52.2851891</ele>
        <time>2019-09-10T15:00:28.200Z</time>
      </trkpt>
      <trkpt lat="10.156163484057" lon="-75.6821272912993">
        <ele>52.2851891</ele>
        <time>2019-09-10T15:00:28.300Z</time>
      </trkpt>
      <trkpt lat="10.1561617575416" lon="-75.6821252041446">
        <ele>52.2851891</ele>
        <time>2019-09-10T15:00:28.400Z</time>
      </trkpt>
      <trkpt lat="10.1561600214379" lon="-75.6821231114198">
        <ele>52.2851891</ele>
        <time>2019-09-10T15:00:28.500Z</time>
      </trkpt>
      <trkpt lat="10.1561582834582" lon="-75.682121016815">
        <ele>52.2851891</ele>
        <time>2019-09-10T15:00:28.600Z</time>
      </trkpt>
      <trkpt lat="10.1561547993697" lon="-75.6821167593009">
        <ele>52.2851891</ele>
        <time>2019-09-10T15:00:28.800Z</time>
      </trkpt>
      <trkpt lat="10.1561530603479" lon="-75.6821146252869">
        <ele>52.2851891</ele>
        <time>2019-09-10T15:00:28.900Z</time>
      </trkpt>
      <trkpt lat="10.1561513221598" lon="-75.6821125033882">
        <ele>52.2851891</ele>
        <time>2019-09-10T15:00:29.000Z</time>
      </trkpt>
      <trkpt lat="10.156149575634" lon="-75.6821103822553">
        <ele>52.2851891</ele>
        <time>2019-09-10T15:00:29.100Z</time>
      </trkpt>
      <trkpt lat="10.1561478339025" lon="-75.6821082719843">
        <ele>52.2851891</ele>
        <time>2019-09-10T15:00:29.200Z</time>
      </trkpt>
      <trkpt lat="10.1561460892527" lon="-75.6821061665873">
        <ele>52.2851891</ele>
        <time>2019-09-10T15:00:29.300Z</time>
      </trkpt>
      <trkpt lat="10.156144344186" lon="-75.6821040685012">
        <ele>52.2851891</ele>
        <time>2019-09-10T15:00:29.400Z</time>
      </trkpt>
      <trkpt lat="10.156142572439" lon="-75.6821019448617">
        <ele>52.2851891</ele>
        <time>2019-09-10T15:00:29.500Z</time>
      </trkpt>
      <trkpt lat="10.1561408046523" lon="-75.68209982352">
        <ele>52.2851891</ele>
        <time>2019-09-10T15:00:29.600Z</time>
      </trkpt>
      <trkpt lat="10.1561390668811" lon="-75.6820977340676">
        <ele>52.2851891</ele>
        <time>2019-09-10T15:00:29.700Z</time>
      </trkpt>
      <trkpt lat="10.1561373420332" lon="-75.6820956597245">
        <ele>52.2851891</ele>
        <time>2019-09-10T15:00:29.800Z</time>
      </trkpt>
      <trkpt lat="10.1561356461586" lon="-75.6820936376716">
        <ele>52.2851891</ele>
        <time>2019-09-10T15:00:29.900Z</time>
      </trkpt>
      <trkpt lat="10.1561339519515" lon="-75.6820916223029">
        <ele>52.2851891</ele>
        <time>2019-09-10T15:00:30.000Z</time>
      </trkpt>
      <trkpt lat="10.1561322625386" lon="-75.6820895726776">
        <ele>52.2851891</ele>
        <time>2019-09-10T15:00:30.100Z</time>
      </trkpt>
      <trkpt lat="10.1561305583263" lon="-75.6820874940175">
        <ele>52.2851891</ele>
        <time>2019-09-10T15:00:30.200Z</time>
      </trkpt>
      <trkpt lat="10.1561288497368" lon="-75.6820854237127">
        <ele>52.2851891</ele>
        <time>2019-09-10T15:00:30.300Z</time>
      </trkpt>
      <trkpt lat="10.1561271355194" lon="-75.6820833573767">
        <ele>52.2851891</ele>
        <time>2019-09-10T15:00:30.400Z</time>
      </trkpt>
      <trkpt lat="10.1561254046268" lon="-75.6820812730072">
        <ele>52.3851891</ele>
        <time>2019-09-10T15:00:30.500Z</time>
      </trkpt>
      <trkpt lat="10.1561236756101" lon="-75.6820791851563">
        <ele>52.3851891</ele>
        <time>2019-09-10T15:00:30.600Z</time>
      </trkpt>
      <trkpt lat="10.1561219295012" lon="-75.6820770824747">
        <ele>52.3851891</ele>
        <time>2019-09-10T15:00:30.700Z</time>
      </trkpt>
      <trkpt lat="10.1561201854768" lon="-75.6820749820212">
        <ele>52.2851891</ele>
        <time>2019-09-10T15:00:30.800Z</time>
      </trkpt>
      <trkpt lat="10.1561184781379" lon="-75.6820728957021">
        <ele>52.2851891</ele>
        <time>2019-09-10T15:00:30.900Z</time>
      </trkpt>
      <trkpt lat="10.1561167824718" lon="-75.6820708190613">
        <ele>52.2851891</ele>
        <time>2019-09-10T15:00:31.000Z</time>
      </trkpt>
      <trkpt lat="10.1561150574154" lon="-75.6820687035682">
        <ele>52.2851891</ele>
        <time>2019-09-10T15:00:31.100Z</time>
      </trkpt>
      <trkpt lat="10.1561133175598" lon="-75.6820665809036">
        <ele>52.2851891</ele>
        <time>2019-09-10T15:00:31.200Z</time>
      </trkpt>
      <trkpt lat="10.1561098295109" lon="-75.6820623337639">
        <ele>52.2851891</ele>
        <time>2019-09-10T15:00:31.400Z</time>
      </trkpt>
      <trkpt lat="10.1561081027871" lon="-75.6820602159732">
        <ele>52.2851891</ele>
        <time>2019-09-10T15:00:31.500Z</time>
      </trkpt>
      <trkpt lat="10.1561063860684" lon="-75.6820581070252">
        <ele>52.2851891</ele>
        <time>2019-09-10T15:00:31.600Z</time>
      </trkpt>
      <trkpt lat="10.1561046639303" lon="-75.6820560225164">
        <ele>52.2851891</ele>
        <time>2019-09-10T15:00:31.700Z</time>
      </trkpt>
      <trkpt lat="10.1561029367895" lon="-75.6820539456666">
        <ele>52.2851891</ele>
        <time>2019-09-10T15:00:31.800Z</time>
      </trkpt>
      <trkpt lat="10.1561012282" lon="-75.6820518920725">
        <ele>52.2851891</ele>
        <time>2019-09-10T15:00:31.900Z</time>
      </trkpt>
      <trkpt lat="10.1560995158586" lon="-75.6820498360413">
        <ele>52.2851891</ele>
        <time>2019-09-10T15:00:32.000Z</time>
      </trkpt>
      <trkpt lat="10.1560977505732" lon="-75.6820477169277">
        <ele>52.2851891</ele>
        <time>2019-09-10T15:00:32.100Z</time>
      </trkpt>
      <trkpt lat="10.1560959788261" lon="-75.6820455758813">
        <ele>52.2851891</ele>
        <time>2019-09-10T15:00:32.200Z</time>
      </trkpt>
      <trkpt lat="10.1560942275063" lon="-75.6820434284989">
        <ele>52.2851891</ele>
        <time>2019-09-10T15:00:32.300Z</time>
      </trkpt>
      <trkpt lat="10.1560924924448" lon="-75.6820412976878">
        <ele>52.2851891</ele>
        <time>2019-09-10T15:00:32.400Z</time>
      </trkpt>
      <trkpt lat="10.156090756758" lon="-75.6820391746054">
        <ele>52.2851891</ele>
        <time>2019-09-10T15:00:32.500Z</time>
      </trkpt>
      <trkpt lat="10.156089020029" lon="-75.682037065727">
        <ele>52.2851891</ele>
        <time>2019-09-10T15:00:32.600Z</time>
      </trkpt>
      <trkpt lat="10.1560872826746" lon="-75.6820349610959">
        <ele>52.2851891</ele>
        <time>2019-09-10T15:00:32.700Z</time>
      </trkpt>
      <trkpt lat="10.1560855511566" lon="-75.6820328602942">
        <ele>52.3851891</ele>
        <time>2019-09-10T15:00:32.800Z</time>
      </trkpt>
      <trkpt lat="10.156083813177" lon="-75.6820307311542">
        <ele>52.3851891</ele>
        <time>2019-09-10T15:00:32.900Z</time>
      </trkpt>
      <trkpt lat="10.1560820766564" lon="-75.6820285986721">
        <ele>52.2851891</ele>
        <time>2019-09-10T15:00:33.000Z</time>
      </trkpt>
      <trkpt lat="10.1560803311729" lon="-75.6820264673736">
        <ele>52.2851891</ele>
        <time>2019-09-10T15:00:33.100Z</time>
      </trkpt>
      <trkpt lat="10.1560785881907" lon="-75.6820243470763">
        <ele>52.2851891</ele>
        <time>2019-09-10T15:00:33.200Z</time>
      </trkpt>
      <trkpt lat="10.1560768493772" lon="-75.6820222345772">
        <ele>52.2851891</ele>
        <time>2019-09-10T15:00:33.300Z</time>
      </trkpt>
      <trkpt lat="10.1560751128567" lon="-75.6820201292498">
        <ele>52.2851891</ele>
        <time>2019-09-10T15:00:33.400Z</time>
      </trkpt>
      <trkpt lat="10.1560734017659" lon="-75.6820180326955">
        <ele>52.2851891</ele>
        <time>2019-09-10T15:00:33.500Z</time>
      </trkpt>
      <trkpt lat="10.156071694427" lon="-75.6820159372552">
        <ele>52.2851891</ele>
        <time>2019-09-10T15:00:33.600Z</time>
      </trkpt>
      <trkpt lat="10.1560699800012" lon="-75.6820138456444">
        <ele>52.2851891</ele>
        <time>2019-09-10T15:00:33.700Z</time>
      </trkpt>
      <trkpt lat="10.1560682561955" lon="-75.6820117536855">
        <ele>52.2851891</ele>
        <time>2019-09-10T15:00:33.800Z</time>
      </trkpt>
      <trkpt lat="10.1560665215509" lon="-75.6820096606821">
        <ele>52.2851891</ele>
        <time>2019-09-10T15:00:33.900Z</time>
      </trkpt>
      <trkpt lat="10.1560647860726" lon="-75.6820075654507">
        <ele>52.2851891</ele>
        <time>2019-09-10T15:00:34.000Z</time>
      </trkpt>
      <trkpt lat="10.1560630497604" lon="-75.6820054643706">
        <ele>52.2851891</ele>
        <time>2019-09-10T15:00:34.100Z</time>
      </trkpt>
      <trkpt lat="10.1560613124061" lon="-75.6820033607838">
        <ele>52.2851891</ele>
        <time>2019-09-10T15:00:34.200Z</time>
      </trkpt>
      <trkpt lat="10.1560595996478" lon="-75.6820012567794">
        <ele>52.2851891</ele>
        <time>2019-09-10T15:00:34.300Z</time>
      </trkpt>
      <trkpt lat="10.1560578898076" lon="-75.6819991547941">
        <ele>52.2851891</ele>
        <time>2019-09-10T15:00:34.400Z</time>
      </trkpt>
      <trkpt lat="10.1560561724636" lon="-75.6819970571257">
        <ele>52.2851891</ele>
        <time>2019-09-10T15:00:34.500Z</time>
      </trkpt>
      <trkpt lat="10.1560544492833" lon="-75.6819949612676">
        <ele>52.2851891</ele>
        <time>2019-09-10T15:00:34.600Z</time>
      </trkpt>
      <trkpt lat="10.156052697755" lon="-75.6819928337987">
        <ele>52.2851891</ele>
        <time>2019-09-10T15:00:34.700Z</time>
      </trkpt>
      <trkpt lat="10.1560509422663" lon="-75.6819907072348">
        <ele>52.2851891</ele>
        <time>2019-09-10T15:00:34.800Z</time>
      </trkpt>
      <trkpt lat="10.1560492480592" lon="-75.6819886639456">
        <ele>52.2851891</ele>
        <time>2019-09-10T15:00:34.900Z</time>
      </trkpt>
      <trkpt lat="10.1560475744878" lon="-75.6819866473932">
        <ele>52.2851891</ele>
        <time>2019-09-10T15:00:35.000Z</time>
      </trkpt>
      <trkpt lat="10.1560458992488" lon="-75.6819846161495">
        <ele>52.2851891</ele>
        <time>2019-09-10T15:00:35.100Z</time>
      </trkpt>
      <trkpt lat="10.1560443207264" lon="-75.6819825799622">
        <ele>52.2851891</ele>
        <time>2019-09-10T15:00:35.200Z</time>
      </trkpt>
      <trkpt lat="10.1560429437663" lon="-75.6819806026798">
        <ele>52.2851891</ele>
        <time>2019-09-10T15:00:35.300Z</time>
      </trkpt>
      <trkpt lat="10.15604179088" lon="-75.6819786623697">
        <ele>52.2851891</ele>
        <time>2019-09-10T15:00:35.400Z</time>
      </trkpt>
      <trkpt lat="10.1560409533648" lon="-75.6819767994157">
        <ele>52.2851891</ele>
        <time>2019-09-10T15:00:35.500Z</time>
      </trkpt>
      <trkpt lat="10.1560401410708" lon="-75.6819731534401">
        <ele>52.2851891</ele>
        <time>2019-09-10T15:00:35.700Z</time>
      </trkpt>
      <trkpt lat="10.1560401671259" lon="-75.6819713434726">
        <ele>52.2851891</ele>
        <time>2019-09-10T15:00:35.800Z</time>
      </trkpt>
      <trkpt lat="10.156040545446" lon="-75.6819696278504">
        <ele>52.2851891</ele>
        <time>2019-09-10T15:00:35.900Z</time>
      </trkpt>
      <trkpt lat="10.1560422288142" lon="-75.6819663050858">
        <ele>52.2851891</ele>
        <time>2019-09-10T15:00:36.100Z</time>
      </trkpt>
      <trkpt lat="10.1560435359467" lon="-75.6819646739914">
        <ele>52.2851891</ele>
        <time>2019-09-10T15:00:36.200Z</time>
      </trkpt>
      <trkpt lat="10.156045165954" lon="-75.6819631538833">
        <ele>52.2851891</ele>
        <time>2019-09-10T15:00:36.300Z</time>
      </trkpt>
      <trkpt lat="10.156047052135" lon="-75.6819616302243">
        <ele>52.2851891</ele>
        <time>2019-09-10T15:00:36.400Z</time>
      </trkpt>
      <trkpt lat="10.1560491182006" lon="-75.6819602539667">
        <ele>52.2851891</ele>
        <time>2019-09-10T15:00:36.500Z</time>
      </trkpt>
      <trkpt lat="10.1560513076631" lon="-75.681958849301">
        <ele>52.2851891</ele>
        <time>2019-09-10T15:00:36.600Z</time>
      </trkpt>
      <trkpt lat="10.1560535475682" lon="-75.6819575474752">
        <ele>52.2851891</ele>
        <time>2019-09-10T15:00:36.700Z</time>
      </trkpt>
      <trkpt lat="10.1560558652218" lon="-75.681956182915">
        <ele>52.2851891</ele>
        <time>2019-09-10T15:00:36.800Z</time>
      </trkpt>
      <trkpt lat="10.1560581734956" lon="-75.6819548885394">
        <ele>52.2851891</ele>
        <time>2019-09-10T15:00:36.900Z</time>
      </trkpt>
      <trkpt lat="10.1560605380484" lon="-75.6819535157631">
        <ele>52.3851891</ele>
        <time>2019-09-10T15:00:37.000Z</time>
      </trkpt>
      <trkpt lat="10.1560628298554" lon="-75.6819521778703">
        <ele>52.3851891</ele>
        <time>2019-09-10T15:00:37.100Z</time>
      </trkpt>
      <trkpt lat="10.1560651625167" lon="-75.6819507581651">
        <ele>52.3851891</ele>
        <time>2019-09-10T15:00:37.200Z</time>
      </trkpt>
      <trkpt lat="10.1560674799619" lon="-75.6819493032284">
        <ele>52.3851891</ele>
        <time>2019-09-10T15:00:37.300Z</time>
      </trkpt>
      <trkpt lat="10.1560698628575" lon="-75.6819477561048">
        <ele>52.3851891</ele>
        <time>2019-09-10T15:00:37.400Z</time>
      </trkpt>
      <trkpt lat="10.1560720973432" lon="-75.6819462204698">
        <ele>52.3851891</ele>
        <time>2019-09-10T15:00:37.500Z</time>
      </trkpt>
      <trkpt lat="10.1560743222406" lon="-75.6819446495336">
        <ele>52.3851891</ele>
        <time>2019-09-10T15:00:37.600Z</time>
      </trkpt>
      <trkpt lat="10.1560765731931" lon="-75.6819430045138">
        <ele>52.3851891</ele>
        <time>2019-09-10T15:00:37.700Z</time>
      </trkpt>
      <trkpt lat="10.1560789096064" lon="-75.6819412918856">
        <ele>52.3851891</ele>
        <time>2019-09-10T15:00:37.800Z</time>
      </trkpt>
      <trkpt lat="10.1560812095426" lon="-75.6819394961221">
        <ele>52.3851891</ele>
        <time>2019-09-10T15:00:37.900Z</time>
      </trkpt>
      <trkpt lat="10.1560835165657" lon="-75.6819376785653">
        <ele>52.2851891</ele>
        <time>2019-09-10T15:00:38.000Z</time>
      </trkpt>
      <trkpt lat="10.1560857969084" lon="-75.6819358206244">
        <ele>52.2851891</ele>
        <time>2019-09-10T15:00:38.100Z</time>
      </trkpt>
      <trkpt lat="10.1560880870478" lon="-75.6819339660954">
        <ele>52.2851891</ele>
        <time>2019-09-10T15:00:38.200Z</time>
      </trkpt>
      <trkpt lat="10.1560903926118" lon="-75.6819320815568">
        <ele>52.2851891</ele>
        <time>2019-09-10T15:00:38.300Z</time>
      </trkpt>
      <trkpt lat="10.1560927038038" lon="-75.6819302004301">
        <ele>52.2851891</ele>
        <time>2019-09-10T15:00:38.400Z</time>
      </trkpt>
      <trkpt lat="10.156095014162" lon="-75.6819282900597">
        <ele>52.2851891</ele>
        <time>2019-09-10T15:00:38.500Z</time>
      </trkpt>
      <trkpt lat="10.1560973130559" lon="-75.6819263783664">
        <ele>52.2851891</ele>
        <time>2019-09-10T15:00:38.600Z</time>
      </trkpt>
      <trkpt lat="10.1560996123667" lon="-75.681924430815">
        <ele>52.2851891</ele>
        <time>2019-09-10T15:00:38.700Z</time>
      </trkpt>
      <trkpt lat="10.1561018918756" lon="-75.6819224831939">
        <ele>52.2851891</ele>
        <time>2019-09-10T15:00:38.800Z</time>
      </trkpt>
      <trkpt lat="10.1561041811813" lon="-75.6819205230399">
        <ele>52.2851891</ele>
        <time>2019-09-10T15:00:38.900Z</time>
      </trkpt>
      <trkpt lat="10.1561087072655" lon="-75.6819165980668">
        <ele>52.2851891</ele>
        <time>2019-09-10T15:00:39.100Z</time>
      </trkpt>
      <trkpt lat="10.1561109375824" lon="-75.6819146291397">
        <ele>52.2851891</ele>
        <time>2019-09-10T15:00:39.200Z</time>
      </trkpt>
      <trkpt lat="10.1561131785298" lon="-75.6819126213605">
        <ele>52.2851891</ele>
        <time>2019-09-10T15:00:39.300Z</time>
      </trkpt>
      <trkpt lat="10.1561153957149" lon="-75.6819106194995">
        <ele>52.2851891</ele>
        <time>2019-09-10T15:00:39.400Z</time>
      </trkpt>
      <trkpt lat="10.1561176143591" lon="-75.681908589718">
        <ele>52.2851891</ele>
        <time>2019-09-10T15:00:39.500Z</time>
      </trkpt>
      <trkpt lat="10.1561198046554" lon="-75.6819065760204">
        <ele>52.2851891</ele>
        <time>2019-09-10T15:00:39.600Z</time>
      </trkpt>
      <trkpt lat="10.1561219811945" lon="-75.6819045174827">
        <ele>52.2851891</ele>
        <time>2019-09-10T15:00:39.700Z</time>
      </trkpt>
      <trkpt lat="10.156124128552" lon="-75.6819024792762">
        <ele>52.2851891</ele>
        <time>2019-09-10T15:00:39.800Z</time>
      </trkpt>
      <trkpt lat="10.1561262796614" lon="-75.681900372417">
        <ele>52.2851891</ele>
        <time>2019-09-10T15:00:39.900Z</time>
      </trkpt>
      <trkpt lat="10.1561284163883" lon="-75.6818982943836">
        <ele>52.2851891</ele>
        <time>2019-09-10T15:00:40.000Z</time>
      </trkpt>
      <trkpt lat="10.1561305074668" lon="-75.6818962460115">
        <ele>52.2851891</ele>
        <time>2019-09-10T15:00:40.100Z</time>
      </trkpt>
      <trkpt lat="10.1561344738874" lon="-75.6818926106889">
        <ele>52.2851891</ele>
        <time>2019-09-10T15:00:40.300Z</time>
      </trkpt>
      <trkpt lat="10.1561382224873" lon="-75.6818898833092">
        <ele>52.2851891</ele>
        <time>2019-09-10T15:00:40.500Z</time>
      </trkpt>
      <trkpt lat="10.1561400382153" lon="-75.6818889341468">
        <ele>52.2851891</ele>
        <time>2019-09-10T15:00:40.600Z</time>
      </trkpt>
      <trkpt lat="10.1561417716093" lon="-75.6818883205194">
        <ele>52.2851891</ele>
        <time>2019-09-10T15:00:40.700Z</time>
      </trkpt>
      <trkpt lat="10.1561434729034" lon="-75.6818880069867">
        <ele>52.2851891</ele>
        <time>2019-09-10T15:00:40.800Z</time>
      </trkpt>
      <trkpt lat="10.1561466395365" lon="-75.6818883637581">
        <ele>52.2851891</ele>
        <time>2019-09-10T15:00:41.000Z</time>
      </trkpt>
      <trkpt lat="10.1561481021658" lon="-75.6818890004322">
        <ele>52.2851891</ele>
        <time>2019-09-10T15:00:41.100Z</time>
      </trkpt>
      <trkpt lat="10.1561495610432" lon="-75.6818899400556">
        <ele>52.2851891</ele>
        <time>2019-09-10T15:00:41.200Z</time>
      </trkpt>
      <trkpt lat="10.1561508581705" lon="-75.6818911793559">
        <ele>52.2851891</ele>
        <time>2019-09-10T15:00:41.300Z</time>
      </trkpt>
      <trkpt lat="10.1561521613426" lon="-75.6818927358792">
        <ele>52.2851891</ele>
        <time>2019-09-10T15:00:41.400Z</time>
      </trkpt>
      <trkpt lat="10.156153320482" lon="-75.6818945562211">
        <ele>52.2851891</ele>
        <time>2019-09-10T15:00:41.500Z</time>
      </trkpt>
      <trkpt lat="10.1561545269376" lon="-75.6818965714505">
        <ele>52.3851891</ele>
        <time>2019-09-10T15:00:41.600Z</time>
      </trkpt>
      <trkpt lat="10.1561556329246" lon="-75.6818986308934">
        <ele>52.3851891</ele>
        <time>2019-09-10T15:00:41.700Z</time>
      </trkpt>
      <trkpt lat="10.1561568131166" lon="-75.6819008061268">
        <ele>52.3851891</ele>
        <time>2019-09-10T15:00:41.800Z</time>
      </trkpt>
      <trkpt lat="10.1561579466178" lon="-75.6819029627001">
        <ele>52.3851891</ele>
        <time>2019-09-10T15:00:41.900Z</time>
      </trkpt>
      <trkpt lat="10.1561591643292" lon="-75.6819052276834">
        <ele>52.3851891</ele>
        <time>2019-09-10T15:00:42.000Z</time>
      </trkpt>
      <trkpt lat="10.1561603286797" lon="-75.6819074333441">
        <ele>52.3851891</ele>
        <time>2019-09-10T15:00:42.100Z</time>
      </trkpt>
      <trkpt lat="10.1561615757812" lon="-75.6819097321664">
        <ele>52.3851891</ele>
        <time>2019-09-10T15:00:42.200Z</time>
      </trkpt>
      <trkpt lat="10.1561628099593" lon="-75.681911964007">
        <ele>52.3851891</ele>
        <time>2019-09-10T15:00:42.300Z</time>
      </trkpt>
      <trkpt lat="10.1561641360599" lon="-75.6819142862242">
        <ele>52.3851891</ele>
        <time>2019-09-10T15:00:42.400Z</time>
      </trkpt>
      <trkpt lat="10.1561655409511" lon="-75.6819165500238">
        <ele>52.3851891</ele>
        <time>2019-09-10T15:00:42.500Z</time>
      </trkpt>
      <trkpt lat="10.1561670379731" lon="-75.6819189003705">
        <ele>52.3851891</ele>
        <time>2019-09-10T15:00:42.600Z</time>
      </trkpt>
      <trkpt lat="10.15616856376" lon="-75.6819211681389">
        <ele>52.3851891</ele>
        <time>2019-09-10T15:00:42.700Z</time>
      </trkpt>
      <trkpt lat="10.1561701347786" lon="-75.6819234917486">
        <ele>52.3851891</ele>
        <time>2019-09-10T15:00:42.800Z</time>
      </trkpt>
      <trkpt lat="10.1561717533216" lon="-75.6819257875073">
        <ele>52.3851891</ele>
        <time>2019-09-10T15:00:42.900Z</time>
      </trkpt>
      <trkpt lat="10.1561734173048" lon="-75.6819281485069">
        <ele>52.3851891</ele>
        <time>2019-09-10T15:00:43.000Z</time>
      </trkpt>
      <trkpt lat="10.1561751388176" lon="-75.6819305131969">
        <ele>52.3851891</ele>
        <time>2019-09-10T15:00:43.100Z</time>
      </trkpt>
      <trkpt lat="10.1561768926388" lon="-75.6819329215433">
        <ele>52.3851891</ele>
        <time>2019-09-10T15:00:43.200Z</time>
      </trkpt>
      <trkpt lat="10.1561787102428" lon="-75.6819353305859">
        <ele>52.3851891</ele>
        <time>2019-09-10T15:00:43.300Z</time>
      </trkpt>
      <trkpt lat="10.1561805461897" lon="-75.6819377606561">
        <ele>52.3851891</ele>
        <time>2019-09-10T15:00:43.400Z</time>
      </trkpt>
      <trkpt lat="10.1561824229909" lon="-75.6819401926759">
        <ele>52.3851891</ele>
        <time>2019-09-10T15:00:43.500Z</time>
      </trkpt>
      <trkpt lat="10.1561842991669" lon="-75.6819426330509">
        <ele>52.3851891</ele>
        <time>2019-09-10T15:00:43.600Z</time>
      </trkpt>
      <trkpt lat="10.1561862316218" lon="-75.6819451001629">
        <ele>52.3851891</ele>
        <time>2019-09-10T15:00:43.700Z</time>
      </trkpt>
      <trkpt lat="10.1561881559476" lon="-75.6819475750036">
        <ele>52.3851891</ele>
        <time>2019-09-10T15:00:43.800Z</time>
      </trkpt>
      <trkpt lat="10.1561901044525" lon="-75.6819500703844">
        <ele>52.3851891</ele>
        <time>2019-09-10T15:00:43.900Z</time>
      </trkpt>
      <trkpt lat="10.1561920287782" lon="-75.6819525482887">
        <ele>52.3851891</ele>
        <time>2019-09-10T15:00:44.000Z</time>
      </trkpt>
      <trkpt lat="10.1561939841617" lon="-75.6819550064884">
        <ele>52.3851891</ele>
        <time>2019-09-10T15:00:44.100Z</time>
      </trkpt>
      <trkpt lat="10.1561959172419" lon="-75.6819574334253">
        <ele>52.3851891</ele>
        <time>2019-09-10T15:00:44.200Z</time>
      </trkpt>
      <trkpt lat="10.1561978724169" lon="-75.681959845462">
        <ele>52.3851891</ele>
        <time>2019-09-10T15:00:44.300Z</time>
      </trkpt>
      <trkpt lat="10.156199797368" lon="-75.6819622322934">
        <ele>52.3851891</ele>
        <time>2019-09-10T15:00:44.400Z</time>
      </trkpt>
      <trkpt lat="10.1562017377437" lon="-75.6819645958693">
        <ele>52.3851891</ele>
        <time>2019-09-10T15:00:44.500Z</time>
      </trkpt>
      <trkpt lat="10.1562036453942" lon="-75.6819669398799">
        <ele>52.3851891</ele>
        <time>2019-09-10T15:00:44.600Z</time>
      </trkpt>
      <trkpt lat="10.1562055728466" lon="-75.6819692793647">
        <ele>52.3851891</ele>
        <time>2019-09-10T15:00:44.700Z</time>
      </trkpt>
      <trkpt lat="10.1562074702835" lon="-75.6819716015818">
        <ele>52.3851891</ele>
        <time>2019-09-10T15:00:44.800Z</time>
      </trkpt>
      <trkpt lat="10.1562093929417" lon="-75.6819738830669">
        <ele>52.3851891</ele>
        <time>2019-09-10T15:00:44.900Z</time>
      </trkpt>
      <trkpt lat="10.1562112830832" lon="-75.6819761433851">
        <ele>52.3851891</ele>
        <time>2019-09-10T15:00:45.000Z</time>
      </trkpt>
      <trkpt lat="10.1562132074089" lon="-75.6819784159579">
        <ele>52.3851891</ele>
        <time>2019-09-10T15:00:45.100Z</time>
      </trkpt>
      <trkpt lat="10.1562169520484" lon="-75.6819828760881">
        <ele>52.3851891</ele>
        <time>2019-09-10T15:00:45.300Z</time>
      </trkpt>
      <trkpt lat="10.1562187759057" lon="-75.6819850460995">
        <ele>52.3851891</ele>
        <time>2019-09-10T15:00:45.400Z</time>
      </trkpt>
      <trkpt lat="10.15622062957" lon="-75.6819871812275">
        <ele>52.3851891</ele>
        <time>2019-09-10T15:00:45.500Z</time>
      </trkpt>
      <trkpt lat="10.156222459889" lon="-75.6819893196279">
        <ele>52.3851891</ele>
        <time>2019-09-10T15:00:45.600Z</time>
      </trkpt>
      <trkpt lat="10.156224325226" lon="-75.68199145587">
        <ele>52.3851891</ele>
        <time>2019-09-10T15:00:45.700Z</time>
      </trkpt>
      <trkpt lat="10.1562261555449" lon="-75.6819935996318">
        <ele>52.3851891</ele>
        <time>2019-09-10T15:00:45.800Z</time>
      </trkpt>
      <trkpt lat="10.1562279937846" lon="-75.6819957295377">
        <ele>52.3851891</ele>
        <time>2019-09-10T15:00:45.900Z</time>
      </trkpt>
      <trkpt lat="10.1562297920037" lon="-75.6819978561711">
        <ele>52.3851891</ele>
        <time>2019-09-10T15:00:46.000Z</time>
      </trkpt>
      <trkpt lat="10.1562316160694" lon="-75.6819999761203">
        <ele>52.3851891</ele>
        <time>2019-09-10T15:00:46.100Z</time>
      </trkpt>
      <trkpt lat="10.1562334067846" lon="-75.6820020994813">
        <ele>52.3851891</ele>
        <time>2019-09-10T15:00:46.200Z</time>
      </trkpt>
      <trkpt lat="10.1562352041699" lon="-75.682004227925">
        <ele>52.3851891</ele>
        <time>2019-09-10T15:00:46.300Z</time>
      </trkpt>
      <trkpt lat="10.1562369648696" lon="-75.6820063579006">
        <ele>52.3851891</ele>
        <time>2019-09-10T15:00:46.400Z</time>
      </trkpt>
      <trkpt lat="10.1562387432867" lon="-75.6820084699122">
        <ele>52.3851891</ele>
        <time>2019-09-10T15:00:46.500Z</time>
      </trkpt>
      <trkpt lat="10.1562404931475" lon="-75.6820105792084">
        <ele>52.3851891</ele>
        <time>2019-09-10T15:00:46.600Z</time>
      </trkpt>
      <trkpt lat="10.1562422436336" lon="-75.6820126735347">
        <ele>52.3851891</ele>
        <time>2019-09-10T15:00:46.700Z</time>
      </trkpt>
      <trkpt lat="10.1562439672309" lon="-75.682014769532">
        <ele>52.3851891</ele>
        <time>2019-09-10T15:00:46.800Z</time>
      </trkpt>
      <trkpt lat="10.1562456960391" lon="-75.6820168522304">
        <ele>52.3851891</ele>
        <time>2019-09-10T15:00:46.900Z</time>
      </trkpt>
      <trkpt lat="10.1562474046286" lon="-75.6820189380622">
        <ele>52.3851891</ele>
        <time>2019-09-10T15:00:47.000Z</time>
      </trkpt>
      <trkpt lat="10.1562491307271" lon="-75.6820210166526">
        <ele>52.3851891</ele>
        <time>2019-09-10T15:00:47.100Z</time>
      </trkpt>
      <trkpt lat="10.1562508355647" lon="-75.6820230996296">
        <ele>52.3851891</ele>
        <time>2019-09-10T15:00:47.200Z</time>
      </trkpt>
      <trkpt lat="10.1562525614548" lon="-75.6820251547555">
        <ele>52.3851891</ele>
        <time>2019-09-10T15:00:47.300Z</time>
      </trkpt>
      <trkpt lat="10.1562542660839" lon="-75.6820272157998">
        <ele>52.3851891</ele>
        <time>2019-09-10T15:00:47.400Z</time>
      </trkpt>
      <trkpt lat="10.1562559746734" lon="-75.6820292815092">
        <ele>52.3851891</ele>
        <time>2019-09-10T15:00:47.500Z</time>
      </trkpt>
      <trkpt lat="10.1562576626273" lon="-75.6820313614225">
        <ele>52.3851891</ele>
        <time>2019-09-10T15:00:47.600Z</time>
      </trkpt>
      <trkpt lat="10.1562593891427" lon="-75.6820334245557">
        <ele>52.3851891</ele>
        <time>2019-09-10T15:00:47.700Z</time>
      </trkpt>
      <trkpt lat="10.1562611033601" lon="-75.6820354943034">
        <ele>52.3851891</ele>
        <time>2019-09-10T15:00:47.800Z</time>
      </trkpt>
      <trkpt lat="10.1562628009022" lon="-75.6820375472013">
        <ele>52.3851891</ele>
        <time>2019-09-10T15:00:47.900Z</time>
      </trkpt>
      <trkpt lat="10.1562644723892" lon="-75.6820396094293">
        <ele>52.3851891</ele>
        <time>2019-09-10T15:00:48.000Z</time>
      </trkpt>
      <trkpt lat="10.1562661709736" lon="-75.6820416793859">
        <ele>52.3851891</ele>
        <time>2019-09-10T15:00:48.100Z</time>
      </trkpt>
      <trkpt lat="10.156267862054" lon="-75.6820437625718">
        <ele>52.3851891</ele>
        <time>2019-09-10T15:00:48.200Z</time>
      </trkpt>
      <trkpt lat="10.1562695370846" lon="-75.6820458239642">
        <ele>52.3851891</ele>
        <time>2019-09-10T15:00:48.300Z</time>
      </trkpt>
      <trkpt lat="10.1562711954398" lon="-75.6820478861226">
        <ele>52.3851891</ele>
        <time>2019-09-10T15:00:48.400Z</time>
      </trkpt>
      <trkpt lat="10.1562728715125" lon="-75.6820499521104">
        <ele>52.3851891</ele>
        <time>2019-09-10T15:00:48.500Z</time>
      </trkpt>
      <trkpt lat="10.1562745438333" lon="-75.6820520285424">
        <ele>52.3851891</ele>
        <time>2019-09-10T15:00:48.600Z</time>
      </trkpt>
      <trkpt lat="10.1562762105262" lon="-75.6820540874979">
        <ele>52.3851891</ele>
        <time>2019-09-10T15:00:48.700Z</time>
      </trkpt>
      <trkpt lat="10.1562778613776" lon="-75.682056141092">
        <ele>52.3851891</ele>
        <time>2019-09-10T15:00:48.800Z</time>
      </trkpt>
      <trkpt lat="10.1562795480808" lon="-75.6820582352791">
        <ele>52.3851891</ele>
        <time>2019-09-10T15:00:48.900Z</time>
      </trkpt>
      <trkpt lat="10.1562812352009" lon="-75.6820603410242">
        <ele>52.3851891</ele>
        <time>2019-09-10T15:00:49.000Z</time>
      </trkpt>
      <trkpt lat="10.156282924197" lon="-75.6820624352809">
        <ele>52.3851891</ele>
        <time>2019-09-10T15:00:49.100Z</time>
      </trkpt>
      <trkpt lat="10.15628459756" lon="-75.6820645218088">
        <ele>52.3851891</ele>
        <time>2019-09-10T15:00:49.200Z</time>
      </trkpt>
      <trkpt lat="10.156286276134" lon="-75.6820666526896">
        <ele>52.3851891</ele>
        <time>2019-09-10T15:00:49.300Z</time>
      </trkpt>
      <trkpt lat="10.1562879409509" lon="-75.6820687891405">
        <ele>52.3851891</ele>
        <time>2019-09-10T15:00:49.400Z</time>
      </trkpt>
      <trkpt lat="10.1562896272372" lon="-75.682070932206">
        <ele>52.3851891</ele>
        <time>2019-09-10T15:00:49.500Z</time>
      </trkpt>
      <trkpt lat="10.1562913147742" lon="-75.682073057795">
        <ele>52.2851891</ele>
        <time>2019-09-10T15:00:49.600Z</time>
      </trkpt>
      <trkpt lat="10.156294685054" lon="-75.6820772956046">
        <ele>52.3851891</ele>
        <time>2019-09-10T15:00:49.800Z</time>
      </trkpt>
      <trkpt lat="10.1562963803033" lon="-75.6820794344228">
        <ele>52.2851891</ele>
        <time>2019-09-10T15:00:49.900Z</time>
      </trkpt>
      <trkpt lat="10.1562980803467" lon="-75.6820815750514">
        <ele>52.2851891</ele>
        <time>2019-09-10T15:00:50.000Z</time>
      </trkpt>
      <trkpt lat="10.1562997920628" lon="-75.6820837101794">
        <ele>52.2851891</ele>
        <time>2019-09-10T15:00:50.100Z</time>
      </trkpt>
      <trkpt lat="10.1563014991932" lon="-75.6820858320781">
        <ele>52.2851891</ele>
        <time>2019-09-10T15:00:50.200Z</time>
      </trkpt>
      <trkpt lat="10.1563032876156" lon="-75.6820880032732">
        <ele>52.2851891</ele>
        <time>2019-09-10T15:00:50.300Z</time>
      </trkpt>
      <trkpt lat="10.1563050741619" lon="-75.682090170778">
        <ele>52.2851891</ele>
        <time>2019-09-10T15:00:50.400Z</time>
      </trkpt>
      <trkpt lat="10.1563068073475" lon="-75.6820922681678">
        <ele>52.2851891</ele>
        <time>2019-09-10T15:00:50.500Z</time>
      </trkpt>
      <trkpt lat="10.15630850885" lon="-75.6820943441821">
        <ele>52.2851891</ele>
        <time>2019-09-10T15:00:50.600Z</time>
      </trkpt>
      <trkpt lat="10.156310243703" lon="-75.6820964343307">
        <ele>52.2851891</ele>
        <time>2019-09-10T15:00:50.700Z</time>
      </trkpt>
      <trkpt lat="10.1563119864768" lon="-75.6820985421647">
        <ele>52.3851891</ele>
        <time>2019-09-10T15:00:50.800Z</time>
      </trkpt>
      <trkpt lat="10.1563136896468" lon="-75.6821006089881">
        <ele>52.3851891</ele>
        <time>2019-09-10T15:00:50.900Z</time>
      </trkpt>
      <trkpt lat="10.1563153715559" lon="-75.6821026698235">
        <ele>52.3851891</ele>
        <time>2019-09-10T15:00:51.000Z</time>
      </trkpt>
      <trkpt lat="10.1563170595098" lon="-75.6821047218162">
        <ele>52.3851891</ele>
        <time>2019-09-10T15:00:51.100Z</time>
      </trkpt>
      <trkpt lat="10.1563187530915" lon="-75.6821067852975">
        <ele>52.3851891</ele>
        <time>2019-09-10T15:00:51.200Z</time>
      </trkpt>
      <trkpt lat="10.1563204410454" lon="-75.6821088489876">
        <ele>52.3851891</ele>
        <time>2019-09-10T15:00:51.300Z</time>
      </trkpt>
      <trkpt lat="10.1563221242051" lon="-75.6821109198494">
        <ele>52.3851891</ele>
        <time>2019-09-10T15:00:51.400Z</time>
      </trkpt>
      <trkpt lat="10.156323827792" lon="-75.682112999345">
        <ele>52.3851891</ele>
        <time>2019-09-10T15:00:51.500Z</time>
      </trkpt>
      <trkpt lat="10.1563255353393" lon="-75.6821150774481">
        <ele>52.3851891</ele>
        <time>2019-09-10T15:00:51.600Z</time>
      </trkpt>
      <trkpt lat="10.15632723976" lon="-75.6821171684322">
        <ele>52.3851891</ele>
        <time>2019-09-10T15:00:51.700Z</time>
      </trkpt>
      <trkpt lat="10.1563289339671" lon="-75.6821192555868">
        <ele>52.3851891</ele>
        <time>2019-09-10T15:00:51.800Z</time>
      </trkpt>
      <trkpt lat="10.1563306561052" lon="-75.6821213857713">
        <ele>52.3851891</ele>
        <time>2019-09-10T15:00:51.900Z</time>
      </trkpt>
      <trkpt lat="10.1563323828291" lon="-75.6821235209689">
        <ele>52.2851891</ele>
        <time>2019-09-10T15:00:52.000Z</time>
      </trkpt>
      <trkpt lat="10.1563341155977" lon="-75.682125668978">
        <ele>52.2851891</ele>
        <time>2019-09-10T15:00:52.100Z</time>
      </trkpt>
      <trkpt lat="10.1563358356514" lon="-75.6821277982572">
        <ele>52.2851891</ele>
        <time>2019-09-10T15:00:52.200Z</time>
      </trkpt>
      <trkpt lat="10.1563375684201" lon="-75.6821299627681">
        <ele>52.2851891</ele>
        <time>2019-09-10T15:00:52.300Z</time>
      </trkpt>
      <trkpt lat="10.156339298479" lon="-75.6821321196895">
        <ele>52.2851891</ele>
        <time>2019-09-10T15:00:52.400Z</time>
      </trkpt>
      <trkpt lat="10.1563410183243" lon="-75.6821342705533">
        <ele>52.2851891</ele>
        <time>2019-09-10T15:00:52.500Z</time>
      </trkpt>
      <trkpt lat="10.1563427244125" lon="-75.6821364037317">
        <ele>52.2851891</ele>
        <time>2019-09-10T15:00:52.600Z</time>
      </trkpt>
      <trkpt lat="10.1563444409227" lon="-75.6821385533422">
        <ele>52.2851891</ele>
        <time>2019-09-10T15:00:52.700Z</time>
      </trkpt>
      <trkpt lat="10.156346157433" lon="-75.6821406957115">
        <ele>52.2851891</ele>
        <time>2019-09-10T15:00:52.800Z</time>
      </trkpt>
      <trkpt lat="10.1563478847821" lon="-75.6821428820853">
        <ele>52.2851891</ele>
        <time>2019-09-10T15:00:52.900Z</time>
      </trkpt>
      <trkpt lat="10.1563496008755" lon="-75.6821450579454">
        <ele>52.2851891</ele>
        <time>2019-09-10T15:00:53.000Z</time>
      </trkpt>
      <trkpt lat="10.1563513098819" lon="-75.6821471895224">
        <ele>52.2851891</ele>
        <time>2019-09-10T15:00:53.100Z</time>
      </trkpt>
      <trkpt lat="10.1563530095084" lon="-75.6821492926217">
        <ele>52.2851891</ele>
        <time>2019-09-10T15:00:53.200Z</time>
      </trkpt>
      <trkpt lat="10.1563547060084" lon="-75.6821513801941">
        <ele>52.2851891</ele>
        <time>2019-09-10T15:00:53.300Z</time>
      </trkpt>
      <trkpt lat="10.1563563979226" lon="-75.6821534761914">
        <ele>52.2851891</ele>
        <time>2019-09-10T15:00:53.400Z</time>
      </trkpt>
      <trkpt lat="10.1563580873355" lon="-75.6821555658526">
        <ele>52.2851891</ele>
        <time>2019-09-10T15:00:53.500Z</time>
      </trkpt>
      <trkpt lat="10.1563614686627" lon="-75.6821597815903">
        <ele>52.2851891</ele>
        <time>2019-09-10T15:00:53.700Z</time>
      </trkpt>
      <trkpt lat="10.1563631643289" lon="-75.6821619062045">
        <ele>52.2851891</ele>
        <time>2019-09-10T15:00:53.800Z</time>
      </trkpt>
      <trkpt lat="10.1563648610372" lon="-75.6821640205139">
        <ele>52.3851891</ele>
        <time>2019-09-10T15:00:53.900Z</time>
      </trkpt>
      <trkpt lat="10.1563665573287" lon="-75.6821661286264">
        <ele>52.3851891</ele>
        <time>2019-09-10T15:00:54.000Z</time>
      </trkpt>
      <trkpt lat="10.1563699407403" lon="-75.6821703161648">
        <ele>52.3851891</ele>
        <time>2019-09-10T15:00:54.200Z</time>
      </trkpt>
      <trkpt lat="10.1563716395331" lon="-75.6821723931539">
        <ele>52.3851891</ele>
        <time>2019-09-10T15:00:54.300Z</time>
      </trkpt>
      <trkpt lat="10.1563733441622" lon="-75.6821744709088">
        <ele>52.3851891</ele>
        <time>2019-09-10T15:00:54.400Z</time>
      </trkpt>
      <trkpt lat="10.1563750679679" lon="-75.6821765525628">
        <ele>52.3851891</ele>
        <time>2019-09-10T15:00:54.500Z</time>
      </trkpt>
      <trkpt lat="10.1563768001112" lon="-75.6821786400656">
        <ele>52.3851891</ele>
        <time>2019-09-10T15:00:54.600Z</time>
      </trkpt>
      <trkpt lat="10.1563785489298" lon="-75.6821807100919">
        <ele>52.3851891</ele>
        <time>2019-09-10T15:00:54.700Z</time>
      </trkpt>
      <trkpt lat="10.1563802967061" lon="-75.682182777333">
        <ele>52.3851891</ele>
        <time>2019-09-10T15:00:54.800Z</time>
      </trkpt>
      <trkpt lat="10.156382030517" lon="-75.6821848536257">
        <ele>52.3851891</ele>
        <time>2019-09-10T15:00:54.900Z</time>
      </trkpt>
      <trkpt lat="10.1563837557817" lon="-75.6821869384826">
        <ele>52.3851891</ele>
        <time>2019-09-10T15:00:55.000Z</time>
      </trkpt>
      <trkpt lat="10.1563854910517" lon="-75.6821890312771">
        <ele>52.3851891</ele>
        <time>2019-09-10T15:00:55.100Z</time>
      </trkpt>
      <trkpt lat="10.1563872292398" lon="-75.6821911277618">
        <ele>52.3851891</ele>
        <time>2019-09-10T15:00:55.200Z</time>
      </trkpt>
      <trkpt lat="10.1563889663856" lon="-75.6821932083018">
        <ele>52.3851891</ele>
        <time>2019-09-10T15:00:55.300Z</time>
      </trkpt>
      <trkpt lat="10.1563907043653" lon="-75.682195276657">
        <ele>52.3851891</ele>
        <time>2019-09-10T15:00:55.400Z</time>
      </trkpt>
      <trkpt lat="10.1563924713182" lon="-75.6821973734899">
        <ele>52.3851891</ele>
        <time>2019-09-10T15:00:55.500Z</time>
      </trkpt>
      <trkpt lat="10.1563942357699" lon="-75.6821994807669">
        <ele>52.3851891</ele>
        <time>2019-09-10T15:00:55.600Z</time>
      </trkpt>
      <trkpt lat="10.1563960041819" lon="-75.6822015988361">
        <ele>52.3851891</ele>
        <time>2019-09-10T15:00:55.700Z</time>
      </trkpt>
      <trkpt lat="10.156397768842" lon="-75.6822037033976">
        <ele>52.3851891</ele>
        <time>2019-09-10T15:00:55.800Z</time>
      </trkpt>
      <trkpt lat="10.1563995299585" lon="-75.6822057892293">
        <ele>52.3851891</ele>
        <time>2019-09-10T15:00:55.900Z</time>
      </trkpt>
      <trkpt lat="10.1564012846135" lon="-75.6822078683768">
        <ele>52.3851891</ele>
        <time>2019-09-10T15:00:56.000Z</time>
      </trkpt>
      <trkpt lat="10.1564030288463" lon="-75.6822098956517">
        <ele>52.3851891</ele>
        <time>2019-09-10T15:00:56.100Z</time>
      </trkpt>
      <trkpt lat="10.1564047751636" lon="-75.6822119240407">
        <ele>52.3851891</ele>
        <time>2019-09-10T15:00:56.200Z</time>
      </trkpt>
      <trkpt lat="10.1564065135602" lon="-75.682213941359">
        <ele>52.3851891</ele>
        <time>2019-09-10T15:00:56.300Z</time>
      </trkpt>
      <trkpt lat="10.1564082496639" lon="-75.6822159776855">
        <ele>52.3851891</ele>
        <time>2019-09-10T15:00:56.400Z</time>
      </trkpt>
      <trkpt lat="10.1564099447047" lon="-75.682218003359">
        <ele>52.3851891</ele>
        <time>2019-09-10T15:00:56.500Z</time>
      </trkpt>
      <trkpt lat="10.1564116253631" lon="-75.6822200403818">
        <ele>52.3851891</ele>
        <time>2019-09-10T15:00:56.600Z</time>
      </trkpt>
      <trkpt lat="10.1564132987261" lon="-75.682222074898">
        <ele>52.2851891</ele>
        <time>2019-09-10T15:00:56.700Z</time>
      </trkpt>
      <trkpt lat="10.1564149873053" lon="-75.6822241142186">
        <ele>52.2851891</ele>
        <time>2019-09-10T15:00:56.800Z</time>
      </trkpt>
      <trkpt lat="10.1564166650456" lon="-75.6822261476208">
        <ele>52.2851891</ele>
        <time>2019-09-10T15:00:56.900Z</time>
      </trkpt>
      <trkpt lat="10.1564183573767" lon="-75.6822281902834">
        <ele>52.2851891</ele>
        <time>2019-09-10T15:00:57.000Z</time>
      </trkpt>
      <trkpt lat="10.1564200453305" lon="-75.6822302323194">
        <ele>52.2851891</ele>
        <time>2019-09-10T15:00:57.100Z</time>
      </trkpt>
      <trkpt lat="10.1564217453739" lon="-75.6822322859832">
        <ele>52.2851891</ele>
        <time>2019-09-10T15:00:57.200Z</time>
      </trkpt>
      <trkpt lat="10.1564234658446" lon="-75.6822343415269">
        <ele>52.2851891</ele>
        <time>2019-09-10T15:00:57.300Z</time>
      </trkpt>
      <trkpt lat="10.1564252017398" lon="-75.6822363988809">
        <ele>52.2851891</ele>
        <time>2019-09-10T15:00:57.400Z</time>
      </trkpt>
      <trkpt lat="10.1564269261708" lon="-75.6822384808135">
        <ele>52.2851891</ele>
        <time>2019-09-10T15:00:57.500Z</time>
      </trkpt>
      <trkpt lat="10.1564286495596" lon="-75.6822405802922">
        <ele>52.2851891</ele>
        <time>2019-09-10T15:00:57.600Z</time>
      </trkpt>
      <trkpt lat="10.1564303835789" lon="-75.6822426785872">
        <ele>52.2851891</ele>
        <time>2019-09-10T15:00:57.700Z</time>
      </trkpt>
      <trkpt lat="10.1564321144715" lon="-75.6822447747934">
        <ele>52.2851891</ele>
        <time>2019-09-10T15:00:57.800Z</time>
      </trkpt>
      <trkpt lat="10.1564337782463" lon="-75.6822468019291">
        <ele>52.3851891</ele>
        <time>2019-09-10T15:00:57.900Z</time>
      </trkpt>
      <trkpt lat="10.1564371606156" lon="-75.6822509274295">
        <ele>52.3851891</ele>
        <time>2019-09-10T15:00:58.100Z</time>
      </trkpt>
      <trkpt lat="10.1564389313205" lon="-75.6822530883893">
        <ele>52.3851891</ele>
        <time>2019-09-10T15:00:58.200Z</time>
      </trkpt>
      <trkpt lat="10.1564406455379" lon="-75.6822551719929">
        <ele>52.2851891</ele>
        <time>2019-09-10T15:00:58.300Z</time>
      </trkpt>
      <trkpt lat="10.1564423357846" lon="-75.6822572163266">
        <ele>52.2851891</ele>
        <time>2019-09-10T15:00:58.400Z</time>
      </trkpt>
      <trkpt lat="10.1564440379124" lon="-75.6822592389365">
        <ele>52.2851891</ele>
        <time>2019-09-10T15:00:58.500Z</time>
      </trkpt>
      <trkpt lat="10.1564457429584" lon="-75.6822612761682">
        <ele>52.2851891</ele>
        <time>2019-09-10T15:00:58.600Z</time>
      </trkpt>
      <trkpt lat="10.1564474405006" lon="-75.6822633283698">
        <ele>52.2851891</ele>
        <time>2019-09-10T15:00:58.700Z</time>
      </trkpt>
      <trkpt lat="10.1564491434622" lon="-75.6822653979783">
        <ele>52.2851891</ele>
        <time>2019-09-10T15:00:58.800Z</time>
      </trkpt>
      <trkpt lat="10.1564508512179" lon="-75.6822674872218">
        <ele>52.2851891</ele>
        <time>2019-09-10T15:00:58.900Z</time>
      </trkpt>
      <trkpt lat="10.156452568145" lon="-75.6822695841243">
        <ele>52.2851891</ele>
        <time>2019-09-10T15:00:59.000Z</time>
      </trkpt>
      <trkpt lat="10.1564543065416" lon="-75.6822717026113">
        <ele>52.2851891</ele>
        <time>2019-09-10T15:00:59.100Z</time>
      </trkpt>
      <trkpt lat="10.1564560570277" lon="-75.6822738201931">
        <ele>52.2851891</ele>
        <time>2019-09-10T15:00:59.200Z</time>
      </trkpt>
      <trkpt lat="10.1564578160598" lon="-75.6822759553907">
        <ele>52.2851891</ele>
        <time>2019-09-10T15:00:59.300Z</time>
      </trkpt>
      <trkpt lat="10.1564595613349" lon="-75.6822780879425">
        <ele>52.2851891</ele>
        <time>2019-09-10T15:00:59.400Z</time>
      </trkpt>
      <trkpt lat="10.1564613145308" lon="-75.6822802118605">
        <ele>52.2851891</ele>
        <time>2019-09-10T15:00:59.500Z</time>
      </trkpt>
      <trkpt lat="10.1564630760642" lon="-75.6822823211566">
        <ele>52.2851891</ele>
        <time>2019-09-10T15:00:59.600Z</time>
      </trkpt>
      <trkpt lat="10.1564648605262" lon="-75.6822844389474">
        <ele>52.2851891</ele>
        <time>2019-09-10T15:00:59.700Z</time>
      </trkpt>
      <trkpt lat="10.1564666416531" lon="-75.6822865488702">
        <ele>52.2851891</ele>
        <time>2019-09-10T15:00:59.800Z</time>
      </trkpt>
      <trkpt lat="10.1564684515448" lon="-75.6822887105263">
        <ele>52.2851891</ele>
        <time>2019-09-10T15:00:59.900Z</time>
      </trkpt>
      <trkpt lat="10.1564702551834" lon="-75.6822908629219">
        <ele>52.2851891</ele>
        <time>2019-09-10T15:01:00.000Z</time>
      </trkpt>
      <trkpt lat="10.1564720404791" lon="-75.6822929814089">
        <ele>52.2851891</ele>
        <time>2019-09-10T15:01:00.100Z</time>
      </trkpt>
      <trkpt lat="10.1564737968015" lon="-75.6822950695383">
        <ele>52.2851891</ele>
        <time>2019-09-10T15:01:00.200Z</time>
      </trkpt>
      <trkpt lat="10.1564755566675" lon="-75.682297166023">
        <ele>52.2851891</ele>
        <time>2019-09-10T15:01:00.300Z</time>
      </trkpt>
      <trkpt lat="10.1564772981906" lon="-75.682299277408">
        <ele>52.2851891</ele>
        <time>2019-09-10T15:01:00.400Z</time>
      </trkpt>
      <trkpt lat="10.1564790088645" lon="-75.6823013768868">
        <ele>52.2851891</ele>
        <time>2019-09-10T15:01:00.500Z</time>
      </trkpt>
      <trkpt lat="10.1564807107839" lon="-75.6823034719093">
        <ele>52.2851891</ele>
        <time>2019-09-10T15:01:00.600Z</time>
      </trkpt>
      <trkpt lat="10.1564824206241" lon="-75.6823056220072">
        <ele>52.2851891</ele>
        <time>2019-09-10T15:01:00.700Z</time>
      </trkpt>
      <trkpt lat="10.1564841383849" lon="-75.6823077840114">
        <ele>52.2851891</ele>
        <time>2019-09-10T15:01:00.800Z</time>
      </trkpt>
      <trkpt lat="10.1564858436394" lon="-75.6823099053532">
        <ele>52.2851891</ele>
        <time>2019-09-10T15:01:00.900Z</time>
      </trkpt>
      <trkpt lat="10.1564875474347" lon="-75.6823120080347">
        <ele>52.2851891</ele>
        <time>2019-09-10T15:01:01.000Z</time>
      </trkpt>
      <trkpt lat="10.1564892599846" lon="-75.6823140984618">
        <ele>52.2851891</ele>
        <time>2019-09-10T15:01:01.100Z</time>
      </trkpt>
      <trkpt lat="10.1564909758695" lon="-75.6823161921615">
        <ele>52.2851891</ele>
        <time>2019-09-10T15:01:01.200Z</time>
      </trkpt>
      <trkpt lat="10.1564926798733" lon="-75.6823183051479">
        <ele>52.2851891</ele>
        <time>2019-09-10T15:01:01.300Z</time>
      </trkpt>
      <trkpt lat="10.1564943805421" lon="-75.6823204268378">
        <ele>52.2851891</ele>
        <time>2019-09-10T15:01:01.400Z</time>
      </trkpt>
      <trkpt lat="10.1564961005958" lon="-75.6823225396849">
        <ele>52.2851891</ele>
        <time>2019-09-10T15:01:01.500Z</time>
      </trkpt>
      <trkpt lat="10.1564978306547" lon="-75.6823246466834">
        <ele>52.2851891</ele>
        <time>2019-09-10T15:01:01.600Z</time>
      </trkpt>
      <trkpt lat="10.1564995525844" lon="-75.6823267421237">
        <ele>52.2851891</ele>
        <time>2019-09-10T15:01:01.700Z</time>
      </trkpt>
      <trkpt lat="10.1565012668018" lon="-75.6823288388869">
        <ele>52.2851891</ele>
        <time>2019-09-10T15:01:01.800Z</time>
      </trkpt>
      <trkpt lat="10.156502981853" lon="-75.6823309611338">
        <ele>52.2851891</ele>
        <time>2019-09-10T15:01:01.900Z</time>
      </trkpt>
      <trkpt lat="10.1565046935691" lon="-75.6823330856785">
        <ele>52.2851891</ele>
        <time>2019-09-10T15:01:02.000Z</time>
      </trkpt>
      <trkpt lat="10.1565064182086" lon="-75.6823352323646">
        <ele>52.2851891</ele>
        <time>2019-09-10T15:01:02.100Z</time>
      </trkpt>
      <trkpt lat="10.1565081424311" lon="-75.682337376196">
        <ele>52.2851891</ele>
        <time>2019-09-10T15:01:02.200Z</time>
      </trkpt>
      <trkpt lat="10.1565098629017" lon="-75.6823395446756">
        <ele>52.2851891</ele>
        <time>2019-09-10T15:01:02.300Z</time>
      </trkpt>
      <trkpt lat="10.1565133330247" lon="-75.6823438235654">
        <ele>52.2851891</ele>
        <time>2019-09-10T15:01:02.500Z</time>
      </trkpt>
      <trkpt lat="10.1565150880965" lon="-75.6823459214427">
        <ele>52.2851891</ele>
        <time>2019-09-10T15:01:02.600Z</time>
      </trkpt>
      <trkpt lat="10.1565168494215" lon="-75.6823480018434">
        <ele>52.2851891</ele>
        <time>2019-09-10T15:01:02.700Z</time>
      </trkpt>
      <trkpt lat="10.1565186030342" lon="-75.6823500856559">
        <ele>52.3851891</ele>
        <time>2019-09-10T15:01:02.800Z</time>
      </trkpt>
      <trkpt lat="10.1565203537288" lon="-75.6823521248372">
        <ele>52.3851891</ele>
        <time>2019-09-10T15:01:02.900Z</time>
      </trkpt>
      <trkpt lat="10.1565221040065" lon="-75.6823541631133">
        <ele>52.3851891</ele>
        <time>2019-09-10T15:01:03.000Z</time>
      </trkpt>
      <trkpt lat="10.1565238532419" lon="-75.6823561465925">
        <ele>52.3851891</ele>
        <time>2019-09-10T15:01:03.100Z</time>
      </trkpt>
      <trkpt lat="10.1565256045618" lon="-75.6823581417692">
        <ele>52.3851891</ele>
        <time>2019-09-10T15:01:03.200Z</time>
      </trkpt>
      <trkpt lat="10.1565273817283" lon="-75.6823601549794">
        <ele>52.3851891</ele>
        <time>2019-09-10T15:01:03.300Z</time>
      </trkpt>
      <trkpt lat="10.1565291651481" lon="-75.6823622074595">
        <ele>52.3851891</ele>
        <time>2019-09-10T15:01:03.400Z</time>
      </trkpt>
      <trkpt lat="10.1565309404386" lon="-75.6823642350826">
        <ele>52.3851891</ele>
        <time>2019-09-10T15:01:03.500Z</time>
      </trkpt>
      <trkpt lat="10.1565327055156" lon="-75.6823662679278">
        <ele>52.3851891</ele>
        <time>2019-09-10T15:01:03.600Z</time>
      </trkpt>
      <trkpt lat="10.1565344407855" lon="-75.6823683004248">
        <ele>52.3851891</ele>
        <time>2019-09-10T15:01:03.700Z</time>
      </trkpt>
      <trkpt lat="10.1565361645912" lon="-75.6823703526264">
        <ele>52.3851891</ele>
        <time>2019-09-10T15:01:03.800Z</time>
      </trkpt>
      <trkpt lat="10.1565378840196" lon="-75.6823724063598">
        <ele>52.3851891</ele>
        <time>2019-09-10T15:01:03.900Z</time>
      </trkpt>
      <trkpt lat="10.1565396199149" lon="-75.682374474158">
        <ele>52.3851891</ele>
        <time>2019-09-10T15:01:04.000Z</time>
      </trkpt>
      <trkpt lat="10.1565413628971" lon="-75.682376558249">
        <ele>52.3851891</ele>
        <time>2019-09-10T15:01:04.100Z</time>
      </trkpt>
      <trkpt lat="10.1565431146338" lon="-75.6823786569618">
        <ele>52.3851891</ele>
        <time>2019-09-10T15:01:04.200Z</time>
      </trkpt>
      <trkpt lat="10.1565448273922" lon="-75.6823807756577">
        <ele>52.3851891</ele>
        <time>2019-09-10T15:01:04.300Z</time>
      </trkpt>
      <trkpt lat="10.1565465349394" lon="-75.6823828945625">
        <ele>52.3851891</ele>
        <time>2019-09-10T15:01:04.400Z</time>
      </trkpt>
      <trkpt lat="10.1565482358166" lon="-75.6823849907687">
        <ele>52.3851891</ele>
        <time>2019-09-10T15:01:04.500Z</time>
      </trkpt>
      <trkpt lat="10.156549942947" lon="-75.6823870882978">
        <ele>52.3851891</ele>
        <time>2019-09-10T15:01:04.600Z</time>
      </trkpt>
      <trkpt lat="10.1565516423651" lon="-75.6823891897957">
        <ele>52.3851891</ele>
        <time>2019-09-10T15:01:04.700Z</time>
      </trkpt>
      <trkpt lat="10.1565533494956" lon="-75.6823913046621">
        <ele>52.3851891</ele>
        <time>2019-09-10T15:01:04.800Z</time>
      </trkpt>
      <trkpt lat="10.1565550332806" lon="-75.6823934388849">
        <ele>52.3851891</ele>
        <time>2019-09-10T15:01:04.900Z</time>
      </trkpt>
      <trkpt lat="10.1565584075208" lon="-75.682397688183">
        <ele>52.3851891</ele>
        <time>2019-09-10T15:01:05.100Z</time>
      </trkpt>
      <trkpt lat="10.1565601069389" lon="-75.6823997957385">
        <ele>52.3851891</ele>
        <time>2019-09-10T15:01:05.200Z</time>
      </trkpt>
      <trkpt lat="10.1565618009375" lon="-75.6824018888115">
        <ele>52.3851891</ele>
        <time>2019-09-10T15:01:05.300Z</time>
      </trkpt>
      <trkpt lat="10.1565635074426" lon="-75.6824039811882">
        <ele>52.3851891</ele>
        <time>2019-09-10T15:01:05.400Z</time>
      </trkpt>
      <trkpt lat="10.1565652229106" lon="-75.6824060646525">
        <ele>52.3851891</ele>
        <time>2019-09-10T15:01:05.500Z</time>
      </trkpt>
      <trkpt lat="10.1565669473416" lon="-75.6824081556367">
        <ele>52.3851891</ele>
        <time>2019-09-10T15:01:05.600Z</time>
      </trkpt>
      <trkpt lat="10.1565686761499" lon="-75.6824102420254">
        <ele>52.3851891</ele>
        <time>2019-09-10T15:01:05.700Z</time>
      </trkpt>
      <trkpt lat="10.1565704082932" lon="-75.6824123300156">
        <ele>52.3851891</ele>
        <time>2019-09-10T15:01:05.800Z</time>
      </trkpt>
      <trkpt lat="10.1565721771221" lon="-75.6824144471797">
        <ele>52.3851891</ele>
        <time>2019-09-10T15:01:05.900Z</time>
      </trkpt>
      <trkpt lat="10.1565756647541" lon="-75.6824186247614">
        <ele>52.3851891</ele>
        <time>2019-09-10T15:01:06.100Z</time>
      </trkpt>
      <trkpt lat="10.1565773712592" lon="-75.6824206703484">
        <ele>52.3851891</ele>
        <time>2019-09-10T15:01:06.200Z</time>
      </trkpt>
      <trkpt lat="10.1565790527514" lon="-75.6824227187901">
        <ele>52.3851891</ele>
        <time>2019-09-10T15:01:06.300Z</time>
      </trkpt>
      <trkpt lat="10.1565807411221" lon="-75.6824247827588">
        <ele>52.3851891</ele>
        <time>2019-09-10T15:01:06.400Z</time>
      </trkpt>
      <trkpt lat="10.1565824263662" lon="-75.6824268384418">
        <ele>52.3851891</ele>
        <time>2019-09-10T15:01:06.500Z</time>
      </trkpt>
      <trkpt lat="10.1565841230746" lon="-75.6824289056133">
        <ele>52.3851891</ele>
        <time>2019-09-10T15:01:06.600Z</time>
      </trkpt>
      <trkpt lat="10.156585805609" lon="-75.6824309911665">
        <ele>52.3851891</ele>
        <time>2019-09-10T15:01:06.700Z</time>
      </trkpt>
      <trkpt lat="10.1565874956473" lon="-75.6824330878601">
        <ele>52.3851891</ele>
        <time>2019-09-10T15:01:06.800Z</time>
      </trkpt>
      <trkpt lat="10.1565891831842" lon="-75.682435191029">
        <ele>52.3851891</ele>
        <time>2019-09-10T15:01:06.900Z</time>
      </trkpt>
      <trkpt lat="10.1565926118275" lon="-75.6824393996647">
        <ele>52.3851891</ele>
        <time>2019-09-10T15:01:07.100Z</time>
      </trkpt>
      <trkpt lat="10.1565943493902" lon="-75.6824415019981">
        <ele>52.3851891</ele>
        <time>2019-09-10T15:01:07.200Z</time>
      </trkpt>
      <trkpt lat="10.1565960715284" lon="-75.68244360649">
        <ele>52.3851891</ele>
        <time>2019-09-10T15:01:07.300Z</time>
      </trkpt>
      <trkpt lat="10.1565977930412" lon="-75.6824457106337">
        <ele>52.3851891</ele>
        <time>2019-09-10T15:01:07.400Z</time>
      </trkpt>
      <trkpt lat="10.1565995166385" lon="-75.6824478199995">
        <ele>52.3851891</ele>
        <time>2019-09-10T15:01:07.500Z</time>
      </trkpt>
      <trkpt lat="10.1566012410695" lon="-75.6824499297135">
        <ele>52.3851891</ele>
        <time>2019-09-10T15:01:07.600Z</time>
      </trkpt>
      <trkpt lat="10.1566029655005" lon="-75.6824520368512">
        <ele>52.3851891</ele>
        <time>2019-09-10T15:01:07.700Z</time>
      </trkpt>
      <trkpt lat="10.1566046907652" lon="-75.6824541444763">
        <ele>52.3851891</ele>
        <time>2019-09-10T15:01:07.800Z</time>
      </trkpt>
      <trkpt lat="10.1566081044007" lon="-75.6824583626509">
        <ele>52.3851891</ele>
        <time>2019-09-10T15:01:08.000Z</time>
      </trkpt>
      <trkpt lat="10.1566097567112" lon="-75.682460393825">
        <ele>52.3851891</ele>
        <time>2019-09-10T15:01:08.100Z</time>
      </trkpt>
      <trkpt lat="10.1566114002672" lon="-75.6824624038323">
        <ele>52.3851891</ele>
        <time>2019-09-10T15:01:08.200Z</time>
      </trkpt>
      <trkpt lat="10.1566131242813" lon="-75.6824644886196">
        <ele>52.3851891</ele>
        <time>2019-09-10T15:01:08.300Z</time>
      </trkpt>
      <trkpt lat="10.1566148960283" lon="-75.6824666215892">
        <ele>52.3851891</ele>
        <time>2019-09-10T15:01:08.400Z</time>
      </trkpt>
      <trkpt lat="10.1566166859098" lon="-75.6824687854733">
        <ele>52.3851891</ele>
        <time>2019-09-10T15:01:08.500Z</time>
      </trkpt>
      <trkpt lat="10.1566184639101" lon="-75.6824709306973">
        <ele>52.3851891</ele>
        <time>2019-09-10T15:01:08.600Z</time>
      </trkpt>
      <trkpt lat="10.1566202014728" lon="-75.682472985127">
        <ele>52.3851891</ele>
        <time>2019-09-10T15:01:08.700Z</time>
      </trkpt>
      <trkpt lat="10.1566219246532" lon="-75.6824750124019">
        <ele>52.3851891</ele>
        <time>2019-09-10T15:01:08.800Z</time>
      </trkpt>
      <trkpt lat="10.156623646166" lon="-75.6824770396769">
        <ele>52.3851891</ele>
        <time>2019-09-10T15:01:08.900Z</time>
      </trkpt>
      <trkpt lat="10.1566271350487" lon="-75.6824811518784">
        <ele>52.3851891</ele>
        <time>2019-09-10T15:01:09.100Z</time>
      </trkpt>
      <trkpt lat="10.1566288997087" lon="-75.6824832281711">
        <ele>52.3851891</ele>
        <time>2019-09-10T15:01:09.200Z</time>
      </trkpt>
      <trkpt lat="10.1566306868804" lon="-75.682485323124">
        <ele>52.3851891</ele>
        <time>2019-09-10T15:01:09.300Z</time>
      </trkpt>
      <trkpt lat="10.1566324698833" lon="-75.6824874253182">
        <ele>52.3851891</ele>
        <time>2019-09-10T15:01:09.400Z</time>
      </trkpt>
      <trkpt lat="10.1566342405882" lon="-75.6824895460333">
        <ele>52.3851891</ele>
        <time>2019-09-10T15:01:09.500Z</time>
      </trkpt>
      <trkpt lat="10.1566359946178" lon="-75.6824916631278">
        <ele>52.3851891</ele>
        <time>2019-09-10T15:01:09.600Z</time>
      </trkpt>
      <trkpt lat="10.1566377363493" lon="-75.6824937586377">
        <ele>52.3851891</ele>
        <time>2019-09-10T15:01:09.700Z</time>
      </trkpt>
      <trkpt lat="10.156639476205" lon="-75.6824958418932">
        <ele>52.3851891</ele>
        <time>2019-09-10T15:01:09.800Z</time>
      </trkpt>
      <trkpt lat="10.1566412060554" lon="-75.6824979243131">
        <ele>52.3851891</ele>
        <time>2019-09-10T15:01:09.900Z</time>
      </trkpt>
      <trkpt lat="10.1566429359059" lon="-75.6825000148099">
        <ele>52.3851891</ele>
        <time>2019-09-10T15:01:10.000Z</time>
      </trkpt>
      <trkpt lat="10.1566446895186" lon="-75.6825021369175">
        <ele>52.3851891</ele>
        <time>2019-09-10T15:01:10.100Z</time>
      </trkpt>
      <trkpt lat="10.1566464466748" lon="-75.6825042619495">
        <ele>52.3851891</ele>
        <time>2019-09-10T15:01:10.200Z</time>
      </trkpt>
      <trkpt lat="10.1566482017466" lon="-75.6825063907414">
        <ele>52.3851891</ele>
        <time>2019-09-10T15:01:10.300Z</time>
      </trkpt>
      <trkpt lat="10.1566499509821" lon="-75.6825085095069">
        <ele>52.3851891</ele>
        <time>2019-09-10T15:01:10.400Z</time>
      </trkpt>
      <trkpt lat="10.1566516743709" lon="-75.6825105997252">
        <ele>52.3851891</ele>
        <time>2019-09-10T15:01:10.500Z</time>
      </trkpt>
      <trkpt lat="10.1566533908811" lon="-75.6825126845125">
        <ele>52.3851891</ele>
        <time>2019-09-10T15:01:10.600Z</time>
      </trkpt>
      <trkpt lat="10.1566551259426" lon="-75.6825147971508">
        <ele>52.3851891</ele>
        <time>2019-09-10T15:01:10.700Z</time>
      </trkpt>
      <trkpt lat="10.1566568710092" lon="-75.6825169231576">
        <ele>52.3851891</ele>
        <time>2019-09-10T15:01:10.800Z</time>
      </trkpt>
      <trkpt lat="10.1566585950234" lon="-75.6825189887276">
        <ele>52.3851891</ele>
        <time>2019-09-10T15:01:10.900Z</time>
      </trkpt>
      <trkpt lat="10.1566603098661" lon="-75.6825210424611">
        <ele>52.3851891</ele>
        <time>2019-09-10T15:01:11.000Z</time>
      </trkpt>
      <trkpt lat="10.1566620747346" lon="-75.6825231531498">
        <ele>52.3851891</ele>
        <time>2019-09-10T15:01:11.100Z</time>
      </trkpt>
      <trkpt lat="10.1566638473154" lon="-75.682525283752">
        <ele>52.3851891</ele>
        <time>2019-09-10T15:01:11.200Z</time>
      </trkpt>
      <trkpt lat="10.1566655796672" lon="-75.6825273489043">
        <ele>52.2851891</ele>
        <time>2019-09-10T15:01:11.300Z</time>
      </trkpt>
      <trkpt lat="10.1566673009716" lon="-75.6825293958142">
        <ele>52.2851891</ele>
        <time>2019-09-10T15:01:11.400Z</time>
      </trkpt>
      <trkpt lat="10.1566690460382" lon="-75.682531446484">
        <ele>52.2851891</ele>
        <time>2019-09-10T15:01:11.500Z</time>
      </trkpt>
      <trkpt lat="10.1566707990256" lon="-75.6825335194347">
        <ele>52.2851891</ele>
        <time>2019-09-10T15:01:11.600Z</time>
      </trkpt>
      <trkpt lat="10.1566725474273" lon="-75.6825356024116">
        <ele>52.2851891</ele>
        <time>2019-09-10T15:01:11.700Z</time>
      </trkpt>
      <trkpt lat="10.1566742908264" lon="-75.6825376937439">
        <ele>52.2851891</ele>
        <time>2019-09-10T15:01:11.800Z</time>
      </trkpt>
      <trkpt lat="10.1566760029594" lon="-75.682539794267">
        <ele>52.2851891</ele>
        <time>2019-09-10T15:01:11.900Z</time>
      </trkpt>
      <trkpt lat="10.1566777153008" lon="-75.682541897436">
        <ele>52.2851891</ele>
        <time>2019-09-10T15:01:12.000Z</time>
      </trkpt>
      <trkpt lat="10.1566794030463" lon="-75.6825439779064">
        <ele>52.2851891</ele>
        <time>2019-09-10T15:01:12.100Z</time>
      </trkpt>
      <trkpt lat="10.1566827612365" lon="-75.6825481529119">
        <ele>52.2851891</ele>
        <time>2019-09-10T15:01:12.300Z</time>
      </trkpt>
      <trkpt lat="10.1566844437709" lon="-75.6825502558023">
        <ele>52.2851891</ele>
        <time>2019-09-10T15:01:12.400Z</time>
      </trkpt>
      <trkpt lat="10.1566861448565" lon="-75.6825523560469">
        <ele>52.2851891</ele>
        <time>2019-09-10T15:01:12.500Z</time>
      </trkpt>
      <trkpt lat="10.156687860533" lon="-75.6825544624188">
        <ele>52.2851891</ele>
        <time>2019-09-10T15:01:12.600Z</time>
      </trkpt>
      <trkpt lat="10.1566895832965" lon="-75.6825565756141">
        <ele>52.2851891</ele>
        <time>2019-09-10T15:01:12.700Z</time>
      </trkpt>
      <trkpt lat="10.1566913073106" lon="-75.6825586886702">
        <ele>52.2851891</ele>
        <time>2019-09-10T15:01:12.800Z</time>
      </trkpt>
      <trkpt lat="10.1566930294487" lon="-75.6825607834838">
        <ele>52.2851891</ele>
        <time>2019-09-10T15:01:12.900Z</time>
      </trkpt>
      <trkpt lat="10.1566947499194" lon="-75.6825628787152">
        <ele>52.2851891</ele>
        <time>2019-09-10T15:01:13.000Z</time>
      </trkpt>
      <trkpt lat="10.1566964762263" lon="-75.6825649742251">
        <ele>52.2851891</ele>
        <time>2019-09-10T15:01:13.100Z</time>
      </trkpt>
      <trkpt lat="10.1566982048262" lon="-75.6825670775334">
        <ele>52.2851891</ele>
        <time>2019-09-10T15:01:13.200Z</time>
      </trkpt>
      <trkpt lat="10.1566999417636" lon="-75.6825691808416">
        <ele>52.2851891</ele>
        <time>2019-09-10T15:01:13.300Z</time>
      </trkpt>
      <trkpt lat="10.1567016726563" lon="-75.6825712806684">
        <ele>52.2851891</ele>
        <time>2019-09-10T15:01:13.400Z</time>
      </trkpt>
      <trkpt lat="10.1567033847893" lon="-75.6825733419216">
        <ele>52.2851891</ele>
        <time>2019-09-10T15:01:13.500Z</time>
      </trkpt>
      <trkpt lat="10.1567050896268" lon="-75.6825754009467">
        <ele>52.2851891</ele>
        <time>2019-09-10T15:01:13.600Z</time>
      </trkpt>
      <trkpt lat="10.1567068144747" lon="-75.6825775209655">
        <ele>52.2851891</ele>
        <time>2019-09-10T15:01:13.700Z</time>
      </trkpt>
      <trkpt lat="10.1567085503699" lon="-75.6825796606193">
        <ele>52.2851891</ele>
        <time>2019-09-10T15:01:13.800Z</time>
      </trkpt>
      <trkpt lat="10.1567103050249" lon="-75.6825818005516">
        <ele>52.2851891</ele>
        <time>2019-09-10T15:01:13.900Z</time>
      </trkpt>
      <trkpt lat="10.1567120563447" lon="-75.6825839251658">
        <ele>52.2851891</ele>
        <time>2019-09-10T15:01:14.000Z</time>
      </trkpt>
      <trkpt lat="10.1567137945328" lon="-75.6825860405892">
        <ele>52.2851891</ele>
        <time>2019-09-10T15:01:14.100Z</time>
      </trkpt>
      <trkpt lat="10.1567155248002" lon="-75.6825881418086">
        <ele>52.2851891</ele>
        <time>2019-09-10T15:01:14.200Z</time>
      </trkpt>
      <trkpt lat="10.1567172600701" lon="-75.6825902101638">
        <ele>52.2851891</ele>
        <time>2019-09-10T15:01:14.300Z</time>
      </trkpt>
      <trkpt lat="10.156719004303" lon="-75.6825922754554">
        <ele>52.2851891</ele>
        <time>2019-09-10T15:01:14.400Z</time>
      </trkpt>
      <trkpt lat="10.1567207266496" lon="-75.6825943482667">
        <ele>52.2851891</ele>
        <time>2019-09-10T15:01:14.500Z</time>
      </trkpt>
      <trkpt lat="10.1567224546241" lon="-75.6825964355606">
        <ele>52.2851891</ele>
        <time>2019-09-10T15:01:14.600Z</time>
      </trkpt>
      <trkpt lat="10.1567241894771" lon="-75.6825985164488">
        <ele>52.2851891</ele>
        <time>2019-09-10T15:01:14.700Z</time>
      </trkpt>
      <trkpt lat="10.1567259391294" lon="-75.6826005923237">
        <ele>52.2851891</ele>
        <time>2019-09-10T15:01:14.800Z</time>
      </trkpt>
      <trkpt lat="10.1567276681461" lon="-75.68260264926">
        <ele>52.2851891</ele>
        <time>2019-09-10T15:01:14.900Z</time>
      </trkpt>
      <trkpt lat="10.1567293996641" lon="-75.6826047070318">
        <ele>52.2851891</ele>
        <time>2019-09-10T15:01:15.000Z</time>
      </trkpt>
      <trkpt lat="10.1567311445223" lon="-75.6826067783114">
        <ele>52.2851891</ele>
        <time>2019-09-10T15:01:15.100Z</time>
      </trkpt>
      <trkpt lat="10.1567329118921" lon="-75.6826088591995">
        <ele>52.2851891</ele>
        <time>2019-09-10T15:01:15.200Z</time>
      </trkpt>
      <trkpt lat="10.1567346976047" lon="-75.6826109260229">
        <ele>52.2851891</ele>
        <time>2019-09-10T15:01:15.300Z</time>
      </trkpt>
      <trkpt lat="10.1567364904043" lon="-75.6826129906182">
        <ele>52.2851891</ele>
        <time>2019-09-10T15:01:15.400Z</time>
      </trkpt>
      <trkpt lat="10.1567382408904" lon="-75.6826150493648">
        <ele>52.2851891</ele>
        <time>2019-09-10T15:01:15.500Z</time>
      </trkpt>
      <trkpt lat="10.156739977411" lon="-75.6826171193911">
        <ele>52.2851891</ele>
        <time>2019-09-10T15:01:15.600Z</time>
      </trkpt>
      <trkpt lat="10.1567417401951" lon="-75.6826192089131">
        <ele>52.2851891</ele>
        <time>2019-09-10T15:01:15.700Z</time>
      </trkpt>
      <trkpt lat="10.1567435240318" lon="-75.6826213088791">
        <ele>52.2851891</ele>
        <time>2019-09-10T15:01:15.800Z</time>
      </trkpt>
      <trkpt lat="10.1567452930691" lon="-75.6826234114911">
        <ele>52.2851891</ele>
        <time>2019-09-10T15:01:15.900Z</time>
      </trkpt>
      <trkpt lat="10.1567470562701" lon="-75.6826255164704">
        <ele>52.2851891</ele>
        <time>2019-09-10T15:01:16.000Z</time>
      </trkpt>
      <trkpt lat="10.1567488211386" lon="-75.6826276263236">
        <ele>52.2851891</ele>
        <time>2019-09-10T15:01:16.100Z</time>
      </trkpt>
      <trkpt lat="10.1567505818383" lon="-75.6826297343664">
        <ele>52.2851891</ele>
        <time>2019-09-10T15:01:16.200Z</time>
      </trkpt>
      <trkpt lat="10.1567523421211" lon="-75.6826318818185">
        <ele>52.2851891</ele>
        <time>2019-09-10T15:01:16.300Z</time>
      </trkpt>
      <trkpt lat="10.1567540959423" lon="-75.6826340277388">
        <ele>52.2851891</ele>
        <time>2019-09-10T15:01:16.400Z</time>
      </trkpt>
      <trkpt lat="10.1567575139551" lon="-75.6826382307345">
        <ele>52.2851891</ele>
        <time>2019-09-10T15:01:16.600Z</time>
      </trkpt>
      <trkpt lat="10.1567591873181" lon="-75.6826403160789">
        <ele>52.2851891</ele>
        <time>2019-09-10T15:01:16.700Z</time>
      </trkpt>
      <trkpt lat="10.1567608719369" lon="-75.6826424069934">
        <ele>52.2851891</ele>
        <time>2019-09-10T15:01:16.800Z</time>
      </trkpt>
      <trkpt lat="10.1567625192447" lon="-75.6826444637904">
        <ele>52.2851891</ele>
        <time>2019-09-10T15:01:16.900Z</time>
      </trkpt>
      <trkpt lat="10.1567641784338" lon="-75.682646522537">
        <ele>52.2851891</ele>
        <time>2019-09-10T15:01:17.000Z</time>
      </trkpt>
      <trkpt lat="10.1567658757675" lon="-75.6826486098309">
        <ele>52.2851891</ele>
        <time>2019-09-10T15:01:17.100Z</time>
      </trkpt>
      <trkpt lat="10.1567676087445" lon="-75.6826507152279">
        <ele>52.2851891</ele>
        <time>2019-09-10T15:01:17.200Z</time>
      </trkpt>
      <trkpt lat="10.1567693325502" lon="-75.6826528225745">
        <ele>52.2851891</ele>
        <time>2019-09-10T15:01:17.300Z</time>
      </trkpt>
      <trkpt lat="10.1567710546884" lon="-75.682654920034">
        <ele>52.2851891</ele>
        <time>2019-09-10T15:01:17.400Z</time>
      </trkpt>
      <trkpt lat="10.1567727875612" lon="-75.6826570162402">
        <ele>52.2851891</ele>
        <time>2019-09-10T15:01:17.500Z</time>
      </trkpt>
      <trkpt lat="10.1567745257493" lon="-75.6826591065977">
        <ele>52.2851891</ele>
        <time>2019-09-10T15:01:17.600Z</time>
      </trkpt>
      <trkpt lat="10.1567762690442" lon="-75.6826612025254">
        <ele>52.2851891</ele>
        <time>2019-09-10T15:01:17.700Z</time>
      </trkpt>
      <trkpt lat="10.1567780076492" lon="-75.6826632958073">
        <ele>52.2851891</ele>
        <time>2019-09-10T15:01:17.800Z</time>
      </trkpt>
      <trkpt lat="10.1567797166556" lon="-75.6826653947986">
        <ele>52.2851891</ele>
        <time>2019-09-10T15:01:17.900Z</time>
      </trkpt>
      <trkpt lat="10.1567814333742" lon="-75.6826674950432">
        <ele>52.2851891</ele>
        <time>2019-09-10T15:01:18.000Z</time>
      </trkpt>
      <trkpt lat="10.1567831597854" lon="-75.6826696065674">
        <ele>52.2851891</ele>
        <time>2019-09-10T15:01:18.100Z</time>
      </trkpt>
      <trkpt lat="10.1567848979735" lon="-75.6826717190665">
        <ele>52.2851891</ele>
        <time>2019-09-10T15:01:18.200Z</time>
      </trkpt>
      <trkpt lat="10.1567865945777" lon="-75.6826737833833">
        <ele>52.2851891</ele>
        <time>2019-09-10T15:01:18.300Z</time>
      </trkpt>
      <trkpt lat="10.1567882849286" lon="-75.6826758364204">
        <ele>52.2851891</ele>
        <time>2019-09-10T15:01:18.400Z</time>
      </trkpt>
      <trkpt lat="10.1567900485465" lon="-75.68267794321">
        <ele>52.2851891</ele>
        <time>2019-09-10T15:01:18.500Z</time>
      </trkpt>
      <trkpt lat="10.1567936169493" lon="-75.6826822155548">
        <ele>52.2851891</ele>
        <time>2019-09-10T15:01:18.700Z</time>
      </trkpt>
      <trkpt lat="10.1567953833811" lon="-75.682684339612">
        <ele>52.2851891</ele>
        <time>2019-09-10T15:01:18.800Z</time>
      </trkpt>
      <trkpt lat="10.1567971743047" lon="-75.6826864898492">
        <ele>52.2851891</ele>
        <time>2019-09-10T15:01:18.900Z</time>
      </trkpt>
      <trkpt lat="10.1567989581414" lon="-75.6826886275534">
        <ele>52.1851891</ele>
        <time>2019-09-10T15:01:19.000Z</time>
      </trkpt>
      <trkpt lat="10.1568007118583" lon="-75.682690755092">
        <ele>52.1851891</ele>
        <time>2019-09-10T15:01:19.100Z</time>
      </trkpt>
      <trkpt lat="10.1568024478578" lon="-75.6826928721865">
        <ele>52.1851891</ele>
        <time>2019-09-10T15:01:19.200Z</time>
      </trkpt>
      <trkpt lat="10.1568041976143" lon="-75.6826949587841">
        <ele>52.1851891</ele>
        <time>2019-09-10T15:01:19.300Z</time>
      </trkpt>
      <trkpt lat="10.1568059582098" lon="-75.6826970393937">
        <ele>52.1851891</ele>
        <time>2019-09-10T15:01:19.400Z</time>
      </trkpt>
      <trkpt lat="10.1568076840999" lon="-75.6826991179145">
        <ele>52.1851891</ele>
        <time>2019-09-10T15:01:19.500Z</time>
      </trkpt>
      <trkpt lat="10.1568094071761" lon="-75.6827012102216">
        <ele>52.2851891</ele>
        <time>2019-09-10T15:01:19.600Z</time>
      </trkpt>
      <trkpt lat="10.1568111175373" lon="-75.6827032749561">
        <ele>52.2851891</ele>
        <time>2019-09-10T15:01:19.700Z</time>
      </trkpt>
      <trkpt lat="10.1568128225833" lon="-75.6827053449824">
        <ele>52.2851891</ele>
        <time>2019-09-10T15:01:19.800Z</time>
      </trkpt>
      <trkpt lat="10.1568144818765" lon="-75.6827074130591">
        <ele>52.2851891</ele>
        <time>2019-09-10T15:01:19.900Z</time>
      </trkpt>
      <trkpt lat="10.1568161321026" lon="-75.6827094961753">
        <ele>52.2851891</ele>
        <time>2019-09-10T15:01:20.000Z</time>
      </trkpt>
      <trkpt lat="10.1568177499161" lon="-75.6827115539471">
        <ele>52.2851891</ele>
        <time>2019-09-10T15:01:20.100Z</time>
      </trkpt>
      <trkpt lat="10.1568193676254" lon="-75.6827136224416">
        <ele>52.2851891</ele>
        <time>2019-09-10T15:01:20.200Z</time>
      </trkpt>
      <trkpt lat="10.1568209598007" lon="-75.6827156965062">
        <ele>52.2851891</ele>
        <time>2019-09-10T15:01:20.300Z</time>
      </trkpt>
      <trkpt lat="10.1568241613477" lon="-75.6827199203903">
        <ele>52.1851891</ele>
        <time>2019-09-10T15:01:20.500Z</time>
      </trkpt>
      <trkpt lat="10.1568257963575" lon="-75.6827220572589">
        <ele>52.1851891</ele>
        <time>2019-09-10T15:01:20.600Z</time>
      </trkpt>
      <trkpt lat="10.1568274309505" lon="-75.6827242293591">
        <ele>52.1851891</ele>
        <time>2019-09-10T15:01:20.700Z</time>
      </trkpt>
      <trkpt lat="10.1568290896185" lon="-75.6827264043837">
        <ele>52.1851891</ele>
        <time>2019-09-10T15:01:20.800Z</time>
      </trkpt>
      <trkpt lat="10.1568307817411" lon="-75.6827285643687">
        <ele>52.2851891</ele>
        <time>2019-09-10T15:01:20.900Z</time>
      </trkpt>
      <trkpt lat="10.1568324774073" lon="-75.682730710289">
        <ele>52.2851891</ele>
        <time>2019-09-10T15:01:21.000Z</time>
      </trkpt>
      <trkpt lat="10.1568341735946" lon="-75.6827328232058">
        <ele>52.2851891</ele>
        <time>2019-09-10T15:01:21.100Z</time>
      </trkpt>
      <trkpt lat="10.1568358725958" lon="-75.6827349345908">
        <ele>52.2851891</ele>
        <time>2019-09-10T15:01:21.200Z</time>
      </trkpt>
      <trkpt lat="10.1568375858752" lon="-75.6827370259231">
        <ele>52.2851891</ele>
        <time>2019-09-10T15:01:21.300Z</time>
      </trkpt>
      <trkpt lat="10.1568393078049" lon="-75.6827391260284">
        <ele>52.2851891</ele>
        <time>2019-09-10T15:01:21.400Z</time>
      </trkpt>
      <trkpt lat="10.156841084763" lon="-75.6827412688851">
        <ele>52.2851891</ele>
        <time>2019-09-10T15:01:21.500Z</time>
      </trkpt>
      <trkpt lat="10.1568428667237" lon="-75.6827434230214">
        <ele>52.2851891</ele>
        <time>2019-09-10T15:01:21.600Z</time>
      </trkpt>
      <trkpt lat="10.1568446186689" lon="-75.6827455558517">
        <ele>52.2851891</ele>
        <time>2019-09-10T15:01:21.700Z</time>
      </trkpt>
      <trkpt lat="10.1568463708225" lon="-75.6827476743387">
        <ele>52.1851891</ele>
        <time>2019-09-10T15:01:21.800Z</time>
      </trkpt>
      <trkpt lat="10.1568481290209" lon="-75.6827497855844">
        <ele>52.2851891</ele>
        <time>2019-09-10T15:01:21.900Z</time>
      </trkpt>
      <trkpt lat="10.1568498914923" lon="-75.682751893488">
        <ele>52.2851891</ele>
        <time>2019-09-10T15:01:22.000Z</time>
      </trkpt>
      <trkpt lat="10.1568516513583" lon="-75.6827540146209">
        <ele>52.2851891</ele>
        <time>2019-09-10T15:01:22.100Z</time>
      </trkpt>
      <trkpt lat="10.1568534118496" lon="-75.6827561420202">
        <ele>52.2851891</ele>
        <time>2019-09-10T15:01:22.200Z</time>
      </trkpt>
      <trkpt lat="10.1568551677551" lon="-75.682758295878">
        <ele>52.2851891</ele>
        <time>2019-09-10T15:01:22.300Z</time>
      </trkpt>
      <trkpt lat="10.156856930435" lon="-75.6827604342785">
        <ele>52.2851891</ele>
        <time>2019-09-10T15:01:22.400Z</time>
      </trkpt>
      <trkpt lat="10.1568587123957" lon="-75.6827625594498">
        <ele>52.2851891</ele>
        <time>2019-09-10T15:01:22.500Z</time>
      </trkpt>
      <trkpt lat="10.1568605052995" lon="-75.6827646732021">
        <ele>52.2851891</ele>
        <time>2019-09-10T15:01:22.600Z</time>
      </trkpt>
      <trkpt lat="10.1568622839251" lon="-75.6827667774851">
        <ele>52.2851891</ele>
        <time>2019-09-10T15:01:22.700Z</time>
      </trkpt>
      <trkpt lat="10.1568658345062" lon="-75.6827709580608">
        <ele>52.2851891</ele>
        <time>2019-09-10T15:01:22.900Z</time>
      </trkpt>
      <trkpt lat="10.156867612715" lon="-75.6827730432659">
        <ele>52.2851891</ele>
        <time>2019-09-10T15:01:23.000Z</time>
      </trkpt>
      <trkpt lat="10.1568693916532" lon="-75.682775121926">
        <ele>52.2851891</ele>
        <time>2019-09-10T15:01:23.100Z</time>
      </trkpt>
      <trkpt lat="10.1568711725717" lon="-75.6827771979402">
        <ele>52.2851891</ele>
        <time>2019-09-10T15:01:23.200Z</time>
      </trkpt>
      <trkpt lat="10.1568729542197" lon="-75.6827792522306">
        <ele>52.2851891</ele>
        <time>2019-09-10T15:01:23.300Z</time>
      </trkpt>
      <trkpt lat="10.1568747363888" lon="-75.6827812957984">
        <ele>52.2851891</ele>
        <time>2019-09-10T15:01:23.400Z</time>
      </trkpt>
      <trkpt lat="10.1568764921902" lon="-75.6827833535702">
        <ele>52.2851891</ele>
        <time>2019-09-10T15:01:23.500Z</time>
      </trkpt>
      <trkpt lat="10.1568782422594" lon="-75.6827854263816">
        <ele>52.2851891</ele>
        <time>2019-09-10T15:01:23.600Z</time>
      </trkpt>
      <trkpt lat="10.1568799946215" lon="-75.6827875143717">
        <ele>52.2851891</ele>
        <time>2019-09-10T15:01:23.700Z</time>
      </trkpt>
      <trkpt lat="10.1568817548001" lon="-75.68278960459">
        <ele>52.2851891</ele>
        <time>2019-09-10T15:01:23.800Z</time>
      </trkpt>
      <trkpt lat="10.1568834999709" lon="-75.6827916686283">
        <ele>52.2851891</ele>
        <time>2019-09-10T15:01:23.900Z</time>
      </trkpt>
      <trkpt lat="10.1568852402434" lon="-75.6827937333628">
        <ele>52.2851891</ele>
        <time>2019-09-10T15:01:24.000Z</time>
      </trkpt>
      <trkpt lat="10.1568869884367" lon="-75.6827958418235">
        <ele>52.2851891</ele>
        <time>2019-09-10T15:01:24.100Z</time>
      </trkpt>
      <trkpt lat="10.1568887421536" lon="-75.6827979582217">
        <ele>52.2851891</ele>
        <time>2019-09-10T15:01:24.200Z</time>
      </trkpt>
      <trkpt lat="10.1568921682956" lon="-75.6828021357338">
        <ele>52.2851891</ele>
        <time>2019-09-10T15:01:24.400Z</time>
      </trkpt>
      <trkpt lat="10.1568938729247" lon="-75.6828042234454">
        <ele>52.2851891</ele>
        <time>2019-09-10T15:01:24.500Z</time>
      </trkpt>
      <trkpt lat="10.1568955901645" lon="-75.6828063135244">
        <ele>52.2851891</ele>
        <time>2019-09-10T15:01:24.600Z</time>
      </trkpt>
      <trkpt lat="10.1568972819745" lon="-75.6828083820189">
        <ele>52.2851891</ele>
        <time>2019-09-10T15:01:24.700Z</time>
      </trkpt>
      <trkpt lat="10.1568989807673" lon="-75.6828104505133">
        <ele>52.2851891</ele>
        <time>2019-09-10T15:01:24.800Z</time>
      </trkpt>
      <trkpt lat="10.156900686647" lon="-75.6828125294519">
        <ele>52.2851891</ele>
        <time>2019-09-10T15:01:24.900Z</time>
      </trkpt>
      <trkpt lat="10.1569024071177" lon="-75.6828146181383">
        <ele>52.2851891</ele>
        <time>2019-09-10T15:01:25.000Z</time>
      </trkpt>
      <trkpt lat="10.1569041382188" lon="-75.6828166895571">
        <ele>52.2851891</ele>
        <time>2019-09-10T15:01:25.100Z</time>
      </trkpt>
      <trkpt lat="10.1569058739056" lon="-75.6828187572161">
        <ele>52.2851891</ele>
        <time>2019-09-10T15:01:25.200Z</time>
      </trkpt>
      <trkpt lat="10.1569076215777" lon="-75.6828208316985">
        <ele>52.2851891</ele>
        <time>2019-09-10T15:01:25.300Z</time>
      </trkpt>
      <trkpt lat="10.1569093790466" lon="-75.6828229178783">
        <ele>52.2851891</ele>
        <time>2019-09-10T15:01:25.400Z</time>
      </trkpt>
      <trkpt lat="10.1569111441236" lon="-75.6828249837269">
        <ele>52.2851891</ele>
        <time>2019-09-10T15:01:25.500Z</time>
      </trkpt>
      <trkpt lat="10.156912906595" lon="-75.6828270452586">
        <ele>52.2851891</ele>
        <time>2019-09-10T15:01:25.600Z</time>
      </trkpt>
      <trkpt lat="10.1569146547883" lon="-75.6828291170952">
        <ele>52.2851891</ele>
        <time>2019-09-10T15:01:25.700Z</time>
      </trkpt>
      <trkpt lat="10.1569164001676" lon="-75.6828311964515">
        <ele>52.2851891</ele>
        <time>2019-09-10T15:01:25.800Z</time>
      </trkpt>
      <trkpt lat="10.1569181372092" lon="-75.6828332905689">
        <ele>52.2851891</ele>
        <time>2019-09-10T15:01:25.900Z</time>
      </trkpt>
      <trkpt lat="10.1569198791493" lon="-75.6828353898387">
        <ele>52.2851891</ele>
        <time>2019-09-10T15:01:26.000Z</time>
      </trkpt>
      <trkpt lat="10.1569215876346" lon="-75.6828374781074">
        <ele>52.2851891</ele>
        <time>2019-09-10T15:01:26.100Z</time>
      </trkpt>
      <trkpt lat="10.156923292889" lon="-75.6828395687434">
        <ele>52.3851891</ele>
        <time>2019-09-10T15:01:26.200Z</time>
      </trkpt>
      <trkpt lat="10.1569249860539" lon="-75.6828416705198">
        <ele>52.3851891</ele>
        <time>2019-09-10T15:01:26.300Z</time>
      </trkpt>
      <trkpt lat="10.1569266882859" lon="-75.6828437759168">
        <ele>52.3851891</ele>
        <time>2019-09-10T15:01:26.400Z</time>
      </trkpt>
      <trkpt lat="10.1569283917686" lon="-75.6828458765792">
        <ele>52.3851891</ele>
        <time>2019-09-10T15:01:26.500Z</time>
      </trkpt>
      <trkpt lat="10.1569301014003" lon="-75.682847975849">
        <ele>52.3851891</ele>
        <time>2019-09-10T15:01:26.600Z</time>
      </trkpt>
      <trkpt lat="10.1569318476134" lon="-75.6828500751188">
        <ele>52.3851891</ele>
        <time>2019-09-10T15:01:26.700Z</time>
      </trkpt>
      <trkpt lat="10.1569335974742" lon="-75.6828521774523">
        <ele>52.3851891</ele>
        <time>2019-09-10T15:01:26.800Z</time>
      </trkpt>
      <trkpt lat="10.1569353079396" lon="-75.6828542506814">
        <ele>52.3851891</ele>
        <time>2019-09-10T15:01:26.900Z</time>
      </trkpt>
      <trkpt lat="10.1569370068366" lon="-75.6828563188973">
        <ele>52.3851891</ele>
        <time>2019-09-10T15:01:27.000Z</time>
      </trkpt>
      <trkpt lat="10.156938686974" lon="-75.6828583866955">
        <ele>52.3851891</ele>
        <time>2019-09-10T15:01:27.100Z</time>
      </trkpt>
      <trkpt lat="10.1569403807641" lon="-75.6828604653556">
        <ele>52.3851891</ele>
        <time>2019-09-10T15:01:27.200Z</time>
      </trkpt>
      <trkpt lat="10.1569420607973" lon="-75.6828625513962">
        <ele>52.3851891</ele>
        <time>2019-09-10T15:01:27.300Z</time>
      </trkpt>
      <trkpt lat="10.1569437514608" lon="-75.6828646469061">
        <ele>52.3851891</ele>
        <time>2019-09-10T15:01:27.400Z</time>
      </trkpt>
      <trkpt lat="10.1569454272209" lon="-75.6828667514676">
        <ele>52.2851891</ele>
        <time>2019-09-10T15:01:27.500Z</time>
      </trkpt>
      <trkpt lat="10.1569471154874" lon="-75.6828688620171">
        <ele>52.2851891</ele>
        <time>2019-09-10T15:01:27.600Z</time>
      </trkpt>
      <trkpt lat="10.1569487960416" lon="-75.6828709763264">
        <ele>52.2851891</ele>
        <time>2019-09-10T15:01:27.700Z</time>
      </trkpt>
      <trkpt lat="10.1569504921247" lon="-75.682873090775">
        <ele>52.2851891</ele>
        <time>2019-09-10T15:01:27.800Z</time>
      </trkpt>
      <trkpt lat="10.1569522066547" lon="-75.682875234885">
        <ele>52.2851891</ele>
        <time>2019-09-10T15:01:27.900Z</time>
      </trkpt>
      <trkpt lat="10.1569556404048" lon="-75.6828795297891">
        <ele>52.2851891</ele>
        <time>2019-09-10T15:01:28.100Z</time>
      </trkpt>
      <trkpt lat="10.1569573531631" lon="-75.6828816670755">
        <ele>52.2851891</ele>
        <time>2019-09-10T15:01:28.200Z</time>
      </trkpt>
      <trkpt lat="10.1569590319455" lon="-75.6828837585471">
        <ele>52.2851891</ele>
        <time>2019-09-10T15:01:28.300Z</time>
      </trkpt>
      <trkpt lat="10.1569607085394" lon="-75.6828858363716">
        <ele>52.2851891</ele>
        <time>2019-09-10T15:01:28.400Z</time>
      </trkpt>
      <trkpt lat="10.1569624385983" lon="-75.6828879566689">
        <ele>52.2851891</ele>
        <time>2019-09-10T15:01:28.500Z</time>
      </trkpt>
      <trkpt lat="10.1569641960671" lon="-75.6828901016144">
        <ele>52.2851891</ele>
        <time>2019-09-10T15:01:28.600Z</time>
      </trkpt>
      <trkpt lat="10.156965942176" lon="-75.682892235141">
        <ele>52.2851891</ele>
        <time>2019-09-10T15:01:28.700Z</time>
      </trkpt>
      <trkpt lat="10.156967671818" lon="-75.6828943512606">
        <ele>52.2851891</ele>
        <time>2019-09-10T15:01:28.800Z</time>
      </trkpt>
      <trkpt lat="10.1569694016685" lon="-75.6828964496949">
        <ele>52.2851891</ele>
        <time>2019-09-10T15:01:28.900Z</time>
      </trkpt>
      <trkpt lat="10.1569711280797" lon="-75.6828985474329">
        <ele>52.2851891</ele>
        <time>2019-09-10T15:01:29.000Z</time>
      </trkpt>
      <trkpt lat="10.1569728371903" lon="-75.682900633195">
        <ele>52.2851891</ele>
        <time>2019-09-10T15:01:29.100Z</time>
      </trkpt>
      <trkpt lat="10.1569745399434" lon="-75.682902722717">
        <ele>52.2851891</ele>
        <time>2019-09-10T15:01:29.200Z</time>
      </trkpt>
      <trkpt lat="10.1569763065837" lon="-75.6829048378619">
        <ele>52.2851891</ele>
        <time>2019-09-10T15:01:29.300Z</time>
      </trkpt>
      <trkpt lat="10.1569780809363" lon="-75.6829069592732">
        <ele>52.2851891</ele>
        <time>2019-09-10T15:01:29.400Z</time>
      </trkpt>
      <trkpt lat="10.1569798383009" lon="-75.6829090543654">
        <ele>52.2851891</ele>
        <time>2019-09-10T15:01:29.500Z</time>
      </trkpt>
      <trkpt lat="10.1569815763848" lon="-75.6829111455584">
        <ele>52.2851891</ele>
        <time>2019-09-10T15:01:29.600Z</time>
      </trkpt>
      <trkpt lat="10.1569833480276" lon="-75.6829132038873">
        <ele>52.2851891</ele>
        <time>2019-09-10T15:01:29.700Z</time>
      </trkpt>
      <trkpt lat="10.156985123214" lon="-75.6829152705714">
        <ele>52.2851891</ele>
        <time>2019-09-10T15:01:29.800Z</time>
      </trkpt>
      <trkpt lat="10.1569868778689" lon="-75.6829172826676">
        <ele>52.2851891</ele>
        <time>2019-09-10T15:01:29.900Z</time>
      </trkpt>
      <trkpt lat="10.1569886186625" lon="-75.6829193059041">
        <ele>52.2851891</ele>
        <time>2019-09-10T15:01:30.000Z</time>
      </trkpt>
      <trkpt lat="10.1569903551831" lon="-75.6829213351286">
        <ele>52.2851891</ele>
        <time>2019-09-10T15:01:30.100Z</time>
      </trkpt>
      <trkpt lat="10.1569920911825" lon="-75.6829233983314">
        <ele>52.2851891</ele>
        <time>2019-09-10T15:01:30.200Z</time>
      </trkpt>
      <trkpt lat="10.1569938441699" lon="-75.6829254723961">
        <ele>52.2851891</ele>
        <time>2019-09-10T15:01:30.300Z</time>
      </trkpt>
      <trkpt lat="10.1569956000755" lon="-75.6829275641461">
        <ele>52.2851891</ele>
        <time>2019-09-10T15:01:30.400Z</time>
      </trkpt>
      <trkpt lat="10.1569973829741" lon="-75.6829296649477">
        <ele>52.2851891</ele>
        <time>2019-09-10T15:01:30.500Z</time>
      </trkpt>
      <trkpt lat="10.1569991608702" lon="-75.6829317700662">
        <ele>52.2851891</ele>
        <time>2019-09-10T15:01:30.600Z</time>
      </trkpt>
      <trkpt lat="10.1570009366819" lon="-75.6829339052639">
        <ele>52.2851891</ele>
        <time>2019-09-10T15:01:30.700Z</time>
      </trkpt>
      <trkpt lat="10.1570027014462" lon="-75.6829360444999">
        <ele>52.2851891</ele>
        <time>2019-09-10T15:01:30.800Z</time>
      </trkpt>
      <trkpt lat="10.1570044593319" lon="-75.6829381841537">
        <ele>52.2851891</ele>
        <time>2019-09-10T15:01:30.900Z</time>
      </trkpt>
      <trkpt lat="10.1570062104434" lon="-75.6829403150344">
        <ele>52.2851891</ele>
        <time>2019-09-10T15:01:31.000Z</time>
      </trkpt>
      <trkpt lat="10.157007979168" lon="-75.6829424349139">
        <ele>52.2851891</ele>
        <time>2019-09-10T15:01:31.100Z</time>
      </trkpt>
      <trkpt lat="10.1570097454956" lon="-75.6829445461597">
        <ele>52.2851891</ele>
        <time>2019-09-10T15:01:31.200Z</time>
      </trkpt>
      <trkpt lat="10.1570115010886" lon="-75.6829466458473">
        <ele>52.2851891</ele>
        <time>2019-09-10T15:01:31.300Z</time>
      </trkpt>
      <trkpt lat="10.157013250324" lon="-75.6829487480414">
        <ele>52.2851891</ele>
        <time>2019-09-10T15:01:31.400Z</time>
      </trkpt>
      <trkpt lat="10.1570149953907" lon="-75.6829508159789">
        <ele>52.2851891</ele>
        <time>2019-09-10T15:01:31.500Z</time>
      </trkpt>
      <trkpt lat="10.1570167453557" lon="-75.6829528847518">
        <ele>52.2851891</ele>
        <time>2019-09-10T15:01:31.600Z</time>
      </trkpt>
      <trkpt lat="10.1570184929236" lon="-75.6829549504612">
        <ele>52.2851891</ele>
        <time>2019-09-10T15:01:31.700Z</time>
      </trkpt>
      <trkpt lat="10.1570202460152" lon="-75.682957030096">
        <ele>52.2851891</ele>
        <time>2019-09-10T15:01:31.800Z</time>
      </trkpt>
      <trkpt lat="10.1570219971266" lon="-75.6829591101486">
        <ele>52.2851891</ele>
        <time>2019-09-10T15:01:31.900Z</time>
      </trkpt>
      <trkpt lat="10.1570237610572" lon="-75.6829612020379">
        <ele>52.2851891</ele>
        <time>2019-09-10T15:01:32.000Z</time>
      </trkpt>
      <trkpt lat="10.1570255209231" lon="-75.6829632447702">
        <ele>52.2851891</ele>
        <time>2019-09-10T15:01:32.100Z</time>
      </trkpt>
      <trkpt lat="10.1570272862085" lon="-75.6829652873632">
        <ele>52.2851891</ele>
        <time>2019-09-10T15:01:32.200Z</time>
      </trkpt>
      <trkpt lat="10.1570290839065" lon="-75.6829673619849">
        <ele>52.2851891</ele>
        <time>2019-09-10T15:01:32.300Z</time>
      </trkpt>
      <trkpt lat="10.1570308882745" lon="-75.6829694691922">
        <ele>52.2851891</ele>
        <time>2019-09-10T15:01:32.400Z</time>
      </trkpt>
      <trkpt lat="10.1570326951439" lon="-75.6829715858689">
        <ele>52.2851891</ele>
        <time>2019-09-10T15:01:32.500Z</time>
      </trkpt>
      <trkpt lat="10.1570344894025" lon="-75.6829737109009">
        <ele>52.2851891</ele>
        <time>2019-09-10T15:01:32.600Z</time>
      </trkpt>
      <trkpt lat="10.1570362808473" lon="-75.6829758384395">
        <ele>52.2851891</ele>
        <time>2019-09-10T15:01:32.700Z</time>
      </trkpt>
      <trkpt lat="10.1570380616615" lon="-75.6829779676492">
        <ele>52.2851891</ele>
        <time>2019-09-10T15:01:32.800Z</time>
      </trkpt>
      <trkpt lat="10.1570397918246" lon="-75.6829800894783">
        <ele>52.2851891</ele>
        <time>2019-09-10T15:01:32.900Z</time>
      </trkpt>
      <trkpt lat="10.1570415142755" lon="-75.6829822094971">
        <ele>52.2851891</ele>
        <time>2019-09-10T15:01:33.000Z</time>
      </trkpt>
      <trkpt lat="10.1570432201552" lon="-75.6829843402386">
        <ele>52.2851891</ele>
        <time>2019-09-10T15:01:33.100Z</time>
      </trkpt>
      <trkpt lat="10.1570449419807" lon="-75.6829864798924">
        <ele>52.2851891</ele>
        <time>2019-09-10T15:01:33.200Z</time>
      </trkpt>
      <trkpt lat="10.1570466604711" lon="-75.682988600886">
        <ele>52.2851891</ele>
        <time>2019-09-10T15:01:33.300Z</time>
      </trkpt>
      <trkpt lat="10.1570483876119" lon="-75.6829907163094">
        <ele>52.2851891</ele>
        <time>2019-09-10T15:01:33.400Z</time>
      </trkpt>
      <trkpt lat="10.1570501259042" lon="-75.682992844405">
        <ele>52.2851891</ele>
        <time>2019-09-10T15:01:33.500Z</time>
      </trkpt>
      <trkpt lat="10.1570518701371" lon="-75.6829949840588">
        <ele>52.2851891</ele>
        <time>2019-09-10T15:01:33.600Z</time>
      </trkpt>
      <trkpt lat="10.1570536081167" lon="-75.6829971327641">
        <ele>52.2851891</ele>
        <time>2019-09-10T15:01:33.700Z</time>
      </trkpt>
      <trkpt lat="10.1570570620855" lon="-75.6830014610894">
        <ele>52.2851891</ele>
        <time>2019-09-10T15:01:33.900Z</time>
      </trkpt>
      <trkpt lat="10.157058789122" lon="-75.6830036365318">
        <ele>52.2851891</ele>
        <time>2019-09-10T15:01:34.000Z</time>
      </trkpt>
      <trkpt lat="10.1570605265806" lon="-75.6830057841231">
        <ele>52.2851891</ele>
        <time>2019-09-10T15:01:34.100Z</time>
      </trkpt>
      <trkpt lat="10.1570622668531" lon="-75.6830079098514">
        <ele>52.2851891</ele>
        <time>2019-09-10T15:01:34.200Z</time>
      </trkpt>
      <trkpt lat="10.1570639897208" lon="-75.6830100380862">
        <ele>52.2851891</ele>
        <time>2019-09-10T15:01:34.300Z</time>
      </trkpt>
      <trkpt lat="10.1570657053973" lon="-75.683012170081">
        <ele>52.2851891</ele>
        <time>2019-09-10T15:01:34.400Z</time>
      </trkpt>
      <trkpt lat="10.157067445774" lon="-75.6830143417634">
        <ele>52.2851891</ele>
        <time>2019-09-10T15:01:34.500Z</time>
      </trkpt>
      <trkpt lat="10.1570691940715" lon="-75.6830165152562">
        <ele>52.2851891</ele>
        <time>2019-09-10T15:01:34.600Z</time>
      </trkpt>
      <trkpt lat="10.157070945704" lon="-75.6830186703673">
        <ele>52.2851891</ele>
        <time>2019-09-10T15:01:34.700Z</time>
      </trkpt>
      <trkpt lat="10.1570726912917" lon="-75.6830208031975">
        <ele>52.2851891</ele>
        <time>2019-09-10T15:01:34.800Z</time>
      </trkpt>
      <trkpt lat="10.1570744393808" lon="-75.6830229083161">
        <ele>52.2851891</ele>
        <time>2019-09-10T15:01:34.900Z</time>
      </trkpt>
      <trkpt lat="10.1570761818419" lon="-75.6830250041045">
        <ele>52.2851891</ele>
        <time>2019-09-10T15:01:35.000Z</time>
      </trkpt>
      <trkpt lat="10.1570779238862" lon="-75.6830271100586">
        <ele>52.2851891</ele>
        <time>2019-09-10T15:01:35.100Z</time>
      </trkpt>
      <trkpt lat="10.1570796625954" lon="-75.6830292256212">
        <ele>52.2851891</ele>
        <time>2019-09-10T15:01:35.200Z</time>
      </trkpt>
      <trkpt lat="10.1570814010961" lon="-75.6830313328286">
        <ele>52.2851891</ele>
        <time>2019-09-10T15:01:35.300Z</time>
      </trkpt>
      <trkpt lat="10.1570831413686" lon="-75.6830334387826">
        <ele>52.2851891</ele>
        <time>2019-09-10T15:01:35.400Z</time>
      </trkpt>
      <trkpt lat="10.1570848687178" lon="-75.6830355057453">
        <ele>52.2851891</ele>
        <time>2019-09-10T15:01:35.500Z</time>
      </trkpt>
      <trkpt lat="10.1570865950248" lon="-75.683037567834">
        <ele>52.2851891</ele>
        <time>2019-09-10T15:01:35.600Z</time>
      </trkpt>
      <trkpt lat="10.1570883556202" lon="-75.683039651368">
        <ele>52.2851891</ele>
        <time>2019-09-10T15:01:35.700Z</time>
      </trkpt>
      <trkpt lat="10.157090138102" lon="-75.6830417471564">
        <ele>52.2851891</ele>
        <time>2019-09-10T15:01:35.800Z</time>
      </trkpt>
      <trkpt lat="10.1570919204796" lon="-75.6830438390457">
        <ele>52.2851891</ele>
        <time>2019-09-10T15:01:35.900Z</time>
      </trkpt>
      <trkpt lat="10.1570936908718" lon="-75.6830459314921">
        <ele>52.2851891</ele>
        <time>2019-09-10T15:01:36.000Z</time>
      </trkpt>
      <trkpt lat="10.1570954637653" lon="-75.6830480310404">
        <ele>52.2851891</ele>
        <time>2019-09-10T15:01:36.100Z</time>
      </trkpt>
      <trkpt lat="10.1570972301971" lon="-75.6830501283606">
        <ele>52.2851891</ele>
        <time>2019-09-10T15:01:36.200Z</time>
      </trkpt>
      <trkpt lat="10.1570989791199" lon="-75.6830522318081">
        <ele>52.2851891</ele>
        <time>2019-09-10T15:01:36.300Z</time>
      </trkpt>
      <trkpt lat="10.1571007216852" lon="-75.6830543303816">
        <ele>52.2851891</ele>
        <time>2019-09-10T15:01:36.400Z</time>
      </trkpt>
      <trkpt lat="10.1571025059388" lon="-75.6830564366142">
        <ele>52.2851891</ele>
        <time>2019-09-10T15:01:36.500Z</time>
      </trkpt>
      <trkpt lat="10.1571042873783" lon="-75.6830585399224">
        <ele>52.2851891</ele>
        <time>2019-09-10T15:01:36.600Z</time>
      </trkpt>
      <trkpt lat="10.157106057041" lon="-75.6830606185825">
        <ele>52.2851891</ele>
        <time>2019-09-10T15:01:36.700Z</time>
      </trkpt>
      <trkpt lat="10.157107815031" lon="-75.6830626915331">
        <ele>52.2851891</ele>
        <time>2019-09-10T15:01:36.800Z</time>
      </trkpt>
      <trkpt lat="10.1571095706239" lon="-75.6830647137949">
        <ele>52.2851891</ele>
        <time>2019-09-10T15:01:36.900Z</time>
      </trkpt>
      <trkpt lat="10.1571113232986" lon="-75.6830667364744">
        <ele>52.2851891</ele>
        <time>2019-09-10T15:01:37.000Z</time>
      </trkpt>
      <trkpt lat="10.1571131266244" lon="-75.6830687728009">
        <ele>52.2851891</ele>
        <time>2019-09-10T15:01:37.100Z</time>
      </trkpt>
      <trkpt lat="10.1571149318263" lon="-75.6830708385103">
        <ele>52.2851891</ele>
        <time>2019-09-10T15:01:37.200Z</time>
      </trkpt>
      <trkpt lat="10.1571166726199" lon="-75.6830728393268">
        <ele>52.2851891</ele>
        <time>2019-09-10T15:01:37.300Z</time>
      </trkpt>
      <trkpt lat="10.1571183931947" lon="-75.683074847106">
        <ele>52.2851891</ele>
        <time>2019-09-10T15:01:37.400Z</time>
      </trkpt>
      <trkpt lat="10.1571200909453" lon="-75.6830768812045">
        <ele>52.2851891</ele>
        <time>2019-09-10T15:01:37.500Z</time>
      </trkpt>
      <trkpt lat="10.1571217992221" lon="-75.6830789499775">
        <ele>52.2851891</ele>
        <time>2019-09-10T15:01:37.600Z</time>
      </trkpt>
      <trkpt lat="10.1571234962432" lon="-75.6830810743132">
        <ele>52.2851891</ele>
        <time>2019-09-10T15:01:37.700Z</time>
      </trkpt>
      <trkpt lat="10.1571252062917" lon="-75.6830832131314">
        <ele>52.2851891</ele>
        <time>2019-09-10T15:01:37.800Z</time>
      </trkpt>
      <trkpt lat="10.1571285905371" lon="-75.6830874404968">
        <ele>52.2851891</ele>
        <time>2019-09-10T15:01:38.000Z</time>
      </trkpt>
      <trkpt lat="10.1571302980844" lon="-75.6830895741627">
        <ele>52.2851891</ele>
        <time>2019-09-10T15:01:38.100Z</time>
      </trkpt>
      <trkpt lat="10.157132020431" lon="-75.6830917110313">
        <ele>52.2851891</ele>
        <time>2019-09-10T15:01:38.200Z</time>
      </trkpt>
      <trkpt lat="10.1571337035907" lon="-75.6830938115545">
        <ele>52.2851891</ele>
        <time>2019-09-10T15:01:38.300Z</time>
      </trkpt>
      <trkpt lat="10.1571353810183" lon="-75.6830958987091">
        <ele>52.2851891</ele>
        <time>2019-09-10T15:01:38.400Z</time>
      </trkpt>
      <trkpt lat="10.1571369995613" lon="-75.6830979528603">
        <ele>52.2851891</ele>
        <time>2019-09-10T15:01:38.500Z</time>
      </trkpt>
      <trkpt lat="10.1571386198761" lon="-75.6831000071507">
        <ele>52.2851891</ele>
        <time>2019-09-10T15:01:38.600Z</time>
      </trkpt>
      <trkpt lat="10.1571402969911" lon="-75.6831021380314">
        <ele>52.2851891</ele>
        <time>2019-09-10T15:01:38.700Z</time>
      </trkpt>
      <trkpt lat="10.157142025174" lon="-75.6831043021941">
        <ele>52.2851891</ele>
        <time>2019-09-10T15:01:38.800Z</time>
      </trkpt>
      <trkpt lat="10.1571437343888" lon="-75.6831064407338">
        <ele>52.2851891</ele>
        <time>2019-09-10T15:01:38.900Z</time>
      </trkpt>
      <trkpt lat="10.1571454329732" lon="-75.6831085603349">
        <ele>52.2851891</ele>
        <time>2019-09-10T15:01:39.000Z</time>
      </trkpt>
      <trkpt lat="10.1571471488581" lon="-75.6831106717199">
        <ele>52.2851891</ele>
        <time>2019-09-10T15:01:39.100Z</time>
      </trkpt>
      <trkpt lat="10.1571488754777" lon="-75.6831127835226">
        <ele>52.2851891</ele>
        <time>2019-09-10T15:01:39.200Z</time>
      </trkpt>
      <trkpt lat="10.157150593447" lon="-75.683114904934">
        <ele>52.2851891</ele>
        <time>2019-09-10T15:01:39.300Z</time>
      </trkpt>
      <trkpt lat="10.1571523094362" lon="-75.6831170321941">
        <ele>52.3851891</ele>
        <time>2019-09-10T15:01:39.400Z</time>
      </trkpt>
      <trkpt lat="10.1571540354305" lon="-75.6831191498456">
        <ele>52.3851891</ele>
        <time>2019-09-10T15:01:39.500Z</time>
      </trkpt>
      <trkpt lat="10.1571557679907" lon="-75.6831212601165">
        <ele>52.3851891</ele>
        <time>2019-09-10T15:01:39.600Z</time>
      </trkpt>
      <trkpt lat="10.1571575546413" lon="-75.6831234443319">
        <ele>52.3851891</ele>
        <time>2019-09-10T15:01:39.700Z</time>
      </trkpt>
      <trkpt lat="10.1571593436889" lon="-75.6831256345353">
        <ele>52.3851891</ele>
        <time>2019-09-10T15:01:39.800Z</time>
      </trkpt>
      <trkpt lat="10.1571611134558" lon="-75.6831278105346">
        <ele>52.3851891</ele>
        <time>2019-09-10T15:01:39.900Z</time>
      </trkpt>
      <trkpt lat="10.1571628586267" lon="-75.6831299572904">
        <ele>52.3851891</ele>
        <time>2019-09-10T15:01:40.000Z</time>
      </trkpt>
      <trkpt lat="10.1571646010878" lon="-75.6831320838542">
        <ele>52.3851891</ele>
        <time>2019-09-10T15:01:40.100Z</time>
      </trkpt>
      <trkpt lat="10.1571663386506" lon="-75.6831342003917">
        <ele>52.3851891</ele>
        <time>2019-09-10T15:01:40.200Z</time>
      </trkpt>
      <trkpt lat="10.1571680207681" lon="-75.6831362984082">
        <ele>52.3851891</ele>
        <time>2019-09-10T15:01:40.300Z</time>
      </trkpt>
      <trkpt lat="10.1571696882947" lon="-75.683138398235">
        <ele>52.3851891</ele>
        <time>2019-09-10T15:01:40.400Z</time>
      </trkpt>
      <trkpt lat="10.1571713578016" lon="-75.6831404826046">
        <ele>52.3851891</ele>
        <time>2019-09-10T15:01:40.500Z</time>
      </trkpt>
      <trkpt lat="10.1571730550311" lon="-75.6831425676704">
        <ele>52.3851891</ele>
        <time>2019-09-10T15:01:40.600Z</time>
      </trkpt>
      <trkpt lat="10.1571747494466" lon="-75.6831446176439">
        <ele>52.3851891</ele>
        <time>2019-09-10T15:01:40.700Z</time>
      </trkpt>
      <trkpt lat="10.1571764525124" lon="-75.6831466688707">
        <ele>52.3851891</ele>
        <time>2019-09-10T15:01:40.800Z</time>
      </trkpt>
      <trkpt lat="10.1571781707944" lon="-75.683148718148">
        <ele>52.3851891</ele>
        <time>2019-09-10T15:01:40.900Z</time>
      </trkpt>
      <trkpt lat="10.1571816422722" lon="-75.6831528406543">
        <ele>52.3851891</ele>
        <time>2019-09-10T15:01:41.100Z</time>
      </trkpt>
      <trkpt lat="10.1571833802519" lon="-75.6831549017683">
        <ele>52.3851891</ele>
        <time>2019-09-10T15:01:41.200Z</time>
      </trkpt>
      <trkpt lat="10.1571850974917" lon="-75.6831569705412">
        <ele>52.3851891</ele>
        <time>2019-09-10T15:01:41.300Z</time>
      </trkpt>
      <trkpt lat="10.1571868052474" lon="-75.6831590528219">
        <ele>52.3851891</ele>
        <time>2019-09-10T15:01:41.400Z</time>
      </trkpt>
      <trkpt lat="10.1571885180057" lon="-75.6831611169995">
        <ele>52.3851891</ele>
        <time>2019-09-10T15:01:41.500Z</time>
      </trkpt>
      <trkpt lat="10.1571902432705" lon="-75.6831631814555">
        <ele>52.3851891</ele>
        <time>2019-09-10T15:01:41.600Z</time>
      </trkpt>
      <trkpt lat="10.1571919598849" lon="-75.6831652280869">
        <ele>52.3851891</ele>
        <time>2019-09-10T15:01:41.700Z</time>
      </trkpt>
      <trkpt lat="10.1571936733728" lon="-75.6831672836307">
        <ele>52.3851891</ele>
        <time>2019-09-10T15:01:41.800Z</time>
      </trkpt>
      <trkpt lat="10.1571971679876" lon="-75.6831715065399">
        <ele>52.3851891</ele>
        <time>2019-09-10T15:01:42.000Z</time>
      </trkpt>
      <trkpt lat="10.1571988759517" lon="-75.6831736126332">
        <ele>52.3851891</ele>
        <time>2019-09-10T15:01:42.100Z</time>
      </trkpt>
      <trkpt lat="10.1572005640098" lon="-75.6831757084217">
        <ele>52.3851891</ele>
        <time>2019-09-10T15:01:42.200Z</time>
      </trkpt>
      <trkpt lat="10.1572022746837" lon="-75.6831778659001">
        <ele>52.3851891</ele>
        <time>2019-09-10T15:01:42.300Z</time>
      </trkpt>
      <trkpt lat="10.1572040051595" lon="-75.6831800308983">
        <ele>52.3851891</ele>
        <time>2019-09-10T15:01:42.400Z</time>
      </trkpt>
      <trkpt lat="10.1572056983244" lon="-75.6831821621968">
        <ele>52.3851891</ele>
        <time>2019-09-10T15:01:42.500Z</time>
      </trkpt>
      <trkpt lat="10.1572073848191" lon="-75.6831842662013">
        <ele>52.3851891</ele>
        <time>2019-09-10T15:01:42.600Z</time>
      </trkpt>
      <trkpt lat="10.1572090557851" lon="-75.6831863586476">
        <ele>52.3851891</ele>
        <time>2019-09-10T15:01:42.700Z</time>
      </trkpt>
      <trkpt lat="10.1572107417587" lon="-75.6831884491443">
        <ele>52.3851891</ele>
        <time>2019-09-10T15:01:42.800Z</time>
      </trkpt>
      <trkpt lat="10.1572124268986" lon="-75.6831905066376">
        <ele>52.3851891</ele>
        <time>2019-09-10T15:01:42.900Z</time>
      </trkpt>
      <trkpt lat="10.157214126421" lon="-75.6831925593963">
        <ele>52.3851891</ele>
        <time>2019-09-10T15:01:43.000Z</time>
      </trkpt>
      <trkpt lat="10.1572176125939" lon="-75.6831967469347">
        <ele>52.3851891</ele>
        <time>2019-09-10T15:01:43.200Z</time>
      </trkpt>
      <trkpt lat="10.1572193175356" lon="-75.6831988333931">
        <ele>52.3851891</ele>
        <time>2019-09-10T15:01:43.300Z</time>
      </trkpt>
      <trkpt lat="10.1572210051768" lon="-75.6832009233328">
        <ele>52.3851891</ele>
        <time>2019-09-10T15:01:43.400Z</time>
      </trkpt>
      <trkpt lat="10.1572227012599" lon="-75.6832029975367">
        <ele>52.3851891</ele>
        <time>2019-09-10T15:01:43.500Z</time>
      </trkpt>
      <trkpt lat="10.1572244171448" lon="-75.6832050792604">
        <ele>52.3851891</ele>
        <time>2019-09-10T15:01:43.600Z</time>
      </trkpt>
      <trkpt lat="10.1572261238583" lon="-75.6832071588953">
        <ele>52.3851891</ele>
        <time>2019-09-10T15:01:43.700Z</time>
      </trkpt>
      <trkpt lat="10.157227829217" lon="-75.6832092539874">
        <ele>52.3851891</ele>
        <time>2019-09-10T15:01:43.800Z</time>
      </trkpt>
      <trkpt lat="10.1572295405162" lon="-75.6832113767914">
        <ele>52.4851891</ele>
        <time>2019-09-10T15:01:43.900Z</time>
      </trkpt>
      <trkpt lat="10.1572312625502" lon="-75.6832135100394">
        <ele>52.4851891</ele>
        <time>2019-09-10T15:01:44.000Z</time>
      </trkpt>
      <trkpt lat="10.1572330274187" lon="-75.6832156943941">
        <ele>52.4851891</ele>
        <time>2019-09-10T15:01:44.100Z</time>
      </trkpt>
      <trkpt lat="10.1572348036472" lon="-75.6832178751281">
        <ele>52.4851891</ele>
        <time>2019-09-10T15:01:44.200Z</time>
      </trkpt>
      <trkpt lat="10.1572365727888" lon="-75.6832200104649">
        <ele>52.3851891</ele>
        <time>2019-09-10T15:01:44.300Z</time>
      </trkpt>
      <trkpt lat="10.1572383295281" lon="-75.6832221157227">
        <ele>52.4851891</ele>
        <time>2019-09-10T15:01:44.400Z</time>
      </trkpt>
      <trkpt lat="10.1572400794931" lon="-75.6832242056625">
        <ele>52.4851891</ele>
        <time>2019-09-10T15:01:44.500Z</time>
      </trkpt>
      <trkpt lat="10.1572418315425" lon="-75.6832262972732">
        <ele>52.4851891</ele>
        <time>2019-09-10T15:01:44.600Z</time>
      </trkpt>
      <trkpt lat="10.1572435780683" lon="-75.6832283784399">
        <ele>52.3851891</ele>
        <time>2019-09-10T15:01:44.700Z</time>
      </trkpt>
      <trkpt lat="10.1572453275122" lon="-75.6832304683796">
        <ele>52.3851891</ele>
        <time>2019-09-10T15:01:44.800Z</time>
      </trkpt>
      <trkpt lat="10.1572471219793" lon="-75.6832325765618">
        <ele>52.3851891</ele>
        <time>2019-09-10T15:01:44.900Z</time>
      </trkpt>
      <trkpt lat="10.1572489320795" lon="-75.6832346950488">
        <ele>52.3851891</ele>
        <time>2019-09-10T15:01:45.000Z</time>
      </trkpt>
      <trkpt lat="10.1572507094544" lon="-75.6832367902802">
        <ele>52.3851891</ele>
        <time>2019-09-10T15:01:45.100Z</time>
      </trkpt>
      <trkpt lat="10.1572524658811" lon="-75.6832388775741">
        <ele>52.3851891</ele>
        <time>2019-09-10T15:01:45.200Z</time>
      </trkpt>
      <trkpt lat="10.1572541972949" lon="-75.6832409658427">
        <ele>52.4851891</ele>
        <time>2019-09-10T15:01:45.300Z</time>
      </trkpt>
      <trkpt lat="10.1572559269369" lon="-75.6832430685939">
        <ele>52.4851891</ele>
        <time>2019-09-10T15:01:45.400Z</time>
      </trkpt>
      <trkpt lat="10.1572576848226" lon="-75.6832451991961">
        <ele>52.4851891</ele>
        <time>2019-09-10T15:01:45.500Z</time>
      </trkpt>
      <trkpt lat="10.1572594611554" lon="-75.6832473403817">
        <ele>52.4851891</ele>
        <time>2019-09-10T15:01:45.600Z</time>
      </trkpt>
      <trkpt lat="10.1572611898594" lon="-75.683249445918">
        <ele>52.4851891</ele>
        <time>2019-09-10T15:01:45.700Z</time>
      </trkpt>
      <trkpt lat="10.1572629078288" lon="-75.6832515312623">
        <ele>52.4851891</ele>
        <time>2019-09-10T15:01:45.800Z</time>
      </trkpt>
      <trkpt lat="10.1572646687369" lon="-75.6832536500279">
        <ele>52.4851891</ele>
        <time>2019-09-10T15:01:45.900Z</time>
      </trkpt>
      <trkpt lat="10.1572664582015" lon="-75.6832557856432">
        <ele>52.4851891</ele>
        <time>2019-09-10T15:01:46.000Z</time>
      </trkpt>
      <trkpt lat="10.1572682359933" lon="-75.6832578850523">
        <ele>52.4851891</ele>
        <time>2019-09-10T15:01:46.100Z</time>
      </trkpt>
      <trkpt lat="10.1572717834478" lon="-75.6832620706412">
        <ele>52.4851891</ele>
        <time>2019-09-10T15:01:46.300Z</time>
      </trkpt>
      <trkpt lat="10.1572735638452" lon="-75.6832641853683">
        <ele>52.4851891</ele>
        <time>2019-09-10T15:01:46.400Z</time>
      </trkpt>
      <trkpt lat="10.1572753219394" lon="-75.6832662758651">
        <ele>52.3851891</ele>
        <time>2019-09-10T15:01:46.500Z</time>
      </trkpt>
      <trkpt lat="10.1572770754479" lon="-75.6832683578673">
        <ele>52.3851891</ele>
        <time>2019-09-10T15:01:46.600Z</time>
      </trkpt>
      <trkpt lat="10.1572788115516" lon="-75.6832704387554">
        <ele>52.3851891</ele>
        <time>2019-09-10T15:01:46.700Z</time>
      </trkpt>
      <trkpt lat="10.1572805534916" lon="-75.6832725267456">
        <ele>52.3851891</ele>
        <time>2019-09-10T15:01:46.800Z</time>
      </trkpt>
      <trkpt lat="10.1572822746918" lon="-75.683274613761">
        <ele>52.3851891</ele>
        <time>2019-09-10T15:01:46.900Z</time>
      </trkpt>
      <trkpt lat="10.1572857384573" lon="-75.6832788006031">
        <ele>52.3851891</ele>
        <time>2019-09-10T15:01:47.100Z</time>
      </trkpt>
      <trkpt lat="10.1572874876927" lon="-75.6832809019618">
        <ele>52.3851891</ele>
        <time>2019-09-10T15:01:47.200Z</time>
      </trkpt>
      <trkpt lat="10.157289207538" lon="-75.6832829815966">
        <ele>52.3851891</ele>
        <time>2019-09-10T15:01:47.300Z</time>
      </trkpt>
      <trkpt lat="10.1572909251947" lon="-75.6832850570539">
        <ele>52.3851891</ele>
        <time>2019-09-10T15:01:47.400Z</time>
      </trkpt>
      <trkpt lat="10.1572926881873" lon="-75.6832871922515">
        <ele>52.3851891</ele>
        <time>2019-09-10T15:01:47.500Z</time>
      </trkpt>
      <trkpt lat="10.1572944727535" lon="-75.6832893420709">
        <ele>52.3851891</ele>
        <time>2019-09-10T15:01:47.600Z</time>
      </trkpt>
      <trkpt lat="10.1572962118795" lon="-75.683291443151">
        <ele>52.3851891</ele>
        <time>2019-09-10T15:01:47.700Z</time>
      </trkpt>
      <trkpt lat="10.1572997093082" lon="-75.6832956093835">
        <ele>52.3851891</ele>
        <time>2019-09-10T15:01:47.900Z</time>
      </trkpt>
      <trkpt lat="10.1573014835566" lon="-75.683297708514">
        <ele>52.4851891</ele>
        <time>2019-09-10T15:01:48.000Z</time>
      </trkpt>
      <trkpt lat="10.1573032355018" lon="-75.6832998019351">
        <ele>52.4851891</ele>
        <time>2019-09-10T15:01:48.100Z</time>
      </trkpt>
      <trkpt lat="10.1573049598286" lon="-75.6833018999516">
        <ele>52.4851891</ele>
        <time>2019-09-10T15:01:48.200Z</time>
      </trkpt>
      <trkpt lat="10.1573066675843" lon="-75.6833040155143">
        <ele>52.4851891</ele>
        <time>2019-09-10T15:01:48.300Z</time>
      </trkpt>
      <trkpt lat="10.1573100615221" lon="-75.6833082675279">
        <ele>52.4851891</ele>
        <time>2019-09-10T15:01:48.500Z</time>
      </trkpt>
      <trkpt lat="10.1573117382202" lon="-75.6833103842046">
        <ele>52.4851891</ele>
        <time>2019-09-10T15:01:48.600Z</time>
      </trkpt>
      <trkpt lat="10.157313403454" lon="-75.6833124858417">
        <ele>52.4851891</ele>
        <time>2019-09-10T15:01:48.700Z</time>
      </trkpt>
      <trkpt lat="10.1573150802563" lon="-75.6833145735534">
        <ele>52.4851891</ele>
        <time>2019-09-10T15:01:48.800Z</time>
      </trkpt>
      <trkpt lat="10.1573167592472" lon="-75.6833166484535">
        <ele>52.4851891</ele>
        <time>2019-09-10T15:01:48.900Z</time>
      </trkpt>
      <trkpt lat="10.157318449077" lon="-75.6833187308735">
        <ele>52.4851891</ele>
        <time>2019-09-10T15:01:49.000Z</time>
      </trkpt>
      <trkpt lat="10.1573201335916" lon="-75.6833208167748">
        <ele>52.4851891</ele>
        <time>2019-09-10T15:01:49.100Z</time>
      </trkpt>
      <trkpt lat="10.1573218251931" lon="-75.6833229115885">
        <ele>52.4851891</ele>
        <time>2019-09-10T15:01:49.200Z</time>
      </trkpt>
      <trkpt lat="10.1573235224226" lon="-75.6833249859316">
        <ele>52.4851891</ele>
        <time>2019-09-10T15:01:49.300Z</time>
      </trkpt>
      <trkpt lat="10.1573252322627" lon="-75.6833270659843">
        <ele>52.4851891</ele>
        <time>2019-09-10T15:01:49.400Z</time>
      </trkpt>
      <trkpt lat="10.1573269731606" lon="-75.6833291552277">
        <ele>52.4851891</ele>
        <time>2019-09-10T15:01:49.500Z</time>
      </trkpt>
      <trkpt lat="10.1573287247931" lon="-75.6833312546368">
        <ele>52.4851891</ele>
        <time>2019-09-10T15:01:49.600Z</time>
      </trkpt>
      <trkpt lat="10.1573304864308" lon="-75.6833333552992">
        <ele>52.4851891</ele>
        <time>2019-09-10T15:01:49.700Z</time>
      </trkpt>
      <trkpt lat="10.1573322456714" lon="-75.6833354636206">
        <ele>52.4851891</ele>
        <time>2019-09-10T15:01:49.800Z</time>
      </trkpt>
      <trkpt lat="10.1573340111653" lon="-75.683337537546">
        <ele>52.4851891</ele>
        <time>2019-09-10T15:01:49.900Z</time>
      </trkpt>
      <trkpt lat="10.1573357768675" lon="-75.6833396110536">
        <ele>52.4851891</ele>
        <time>2019-09-10T15:01:50.000Z</time>
      </trkpt>
      <trkpt lat="10.1573375673743" lon="-75.6833417086523">
        <ele>52.4851891</ele>
        <time>2019-09-10T15:01:50.100Z</time>
      </trkpt>
      <trkpt lat="10.1573393604865" lon="-75.6833438194803">
        <ele>52.3851891</ele>
        <time>2019-09-10T15:01:50.200Z</time>
      </trkpt>
      <trkpt lat="10.1573411266057" lon="-75.6833458950768">
        <ele>52.3851891</ele>
        <time>2019-09-10T15:01:50.300Z</time>
      </trkpt>
      <trkpt lat="10.1573428878265" lon="-75.6833479575833">
        <ele>52.3851891</ele>
        <time>2019-09-10T15:01:50.400Z</time>
      </trkpt>
      <trkpt lat="10.1573446630129" lon="-75.6833500156336">
        <ele>52.3851891</ele>
        <time>2019-09-10T15:01:50.500Z</time>
      </trkpt>
      <trkpt lat="10.1573482411082" lon="-75.6833541425961">
        <ele>52.3851891</ele>
        <time>2019-09-10T15:01:50.700Z</time>
      </trkpt>
      <trkpt lat="10.1573500148354" lon="-75.6833561998109">
        <ele>52.3851891</ele>
        <time>2019-09-10T15:01:50.800Z</time>
      </trkpt>
      <trkpt lat="10.15735351883" lon="-75.6833602980869">
        <ele>52.3851891</ele>
        <time>2019-09-10T15:01:51.000Z</time>
      </trkpt>
      <trkpt lat="10.1573552421146" lon="-75.6833623671384">
        <ele>52.3851891</ele>
        <time>2019-09-10T15:01:51.100Z</time>
      </trkpt>
      <trkpt lat="10.1573569537265" lon="-75.683364448305">
        <ele>52.3851891</ele>
        <time>2019-09-10T15:01:51.200Z</time>
      </trkpt>
      <trkpt lat="10.1573586872247" lon="-75.6833665411691">
        <ele>52.3851891</ele>
        <time>2019-09-10T15:01:51.300Z</time>
      </trkpt>
      <trkpt lat="10.1573604356264" lon="-75.6833686351472">
        <ele>52.3851891</ele>
        <time>2019-09-10T15:01:51.400Z</time>
      </trkpt>
      <trkpt lat="10.1573621695414" lon="-75.6833707128325">
        <ele>52.3851891</ele>
        <time>2019-09-10T15:01:51.500Z</time>
      </trkpt>
      <trkpt lat="10.1573639091886" lon="-75.6833727803522">
        <ele>52.3851891</ele>
        <time>2019-09-10T15:01:51.600Z</time>
      </trkpt>
      <trkpt lat="10.1573656669701" lon="-75.6833748539991">
        <ele>52.3851891</ele>
        <time>2019-09-10T15:01:51.700Z</time>
      </trkpt>
      <trkpt lat="10.1573674371539" lon="-75.6833769327984">
        <ele>52.3851891</ele>
        <time>2019-09-10T15:01:51.800Z</time>
      </trkpt>
      <trkpt lat="10.1573692246382" lon="-75.6833790270551">
        <ele>52.3851891</ele>
        <time>2019-09-10T15:01:51.900Z</time>
      </trkpt>
      <trkpt lat="10.1573710117057" lon="-75.6833811218687">
        <ele>52.3851891</ele>
        <time>2019-09-10T15:01:52.000Z</time>
      </trkpt>
      <trkpt lat="10.1573727756363" lon="-75.6833832354818">
        <ele>52.3851891</ele>
        <time>2019-09-10T15:01:52.100Z</time>
      </trkpt>
      <trkpt lat="10.1573745231" lon="-75.6833853506267">
        <ele>52.3851891</ele>
        <time>2019-09-10T15:01:52.200Z</time>
      </trkpt>
      <trkpt lat="10.157376246593" lon="-75.6833874756587">
        <ele>52.4851891</ele>
        <time>2019-09-10T15:01:52.300Z</time>
      </trkpt>
      <trkpt lat="10.1573779663341" lon="-75.6833895956775">
        <ele>52.4851891</ele>
        <time>2019-09-10T15:01:52.400Z</time>
      </trkpt>
      <trkpt lat="10.1573796715885" lon="-75.6833917172281">
        <ele>52.4851891</ele>
        <time>2019-09-10T15:01:52.500Z</time>
      </trkpt>
      <trkpt lat="10.15738312118" lon="-75.6833959766222">
        <ele>52.4851891</ele>
        <time>2019-09-10T15:01:52.700Z</time>
      </trkpt>
      <trkpt lat="10.1573865749404" lon="-75.683400227661">
        <ele>52.4851891</ele>
        <time>2019-09-10T15:01:52.900Z</time>
      </trkpt>
      <trkpt lat="10.1573882763387" lon="-75.6834023210821">
        <ele>52.4851891</ele>
        <time>2019-09-10T15:01:53.000Z</time>
      </trkpt>
      <trkpt lat="10.1573899837818" lon="-75.6834044000207">
        <ele>52.4851891</ele>
        <time>2019-09-10T15:01:53.100Z</time>
      </trkpt>
      <trkpt lat="10.1573934219091" lon="-75.6834085397947">
        <ele>52.4851891</ele>
        <time>2019-09-10T15:01:53.300Z</time>
      </trkpt>
      <trkpt lat="10.1573951479034" lon="-75.6834105993768">
        <ele>52.4851891</ele>
        <time>2019-09-10T15:01:53.400Z</time>
      </trkpt>
      <trkpt lat="10.1573968534705" lon="-75.6834126341715">
        <ele>52.4851891</ele>
        <time>2019-09-10T15:01:53.500Z</time>
      </trkpt>
      <trkpt lat="10.1573985590376" lon="-75.6834146827525">
        <ele>52.4851891</ele>
        <time>2019-09-10T15:01:53.600Z</time>
      </trkpt>
      <trkpt lat="10.1574019407816" lon="-75.6834188180704">
        <ele>52.4851891</ele>
        <time>2019-09-10T15:01:53.800Z</time>
      </trkpt>
      <trkpt lat="10.1574036484331" lon="-75.6834209070353">
        <ele>52.4851891</ele>
        <time>2019-09-10T15:01:53.900Z</time>
      </trkpt>
      <trkpt lat="10.1574053672362" lon="-75.6834230058873">
        <ele>52.4851891</ele>
        <time>2019-09-10T15:01:54.000Z</time>
      </trkpt>
      <trkpt lat="10.1574070624855" lon="-75.6834250877503">
        <ele>52.4851891</ele>
        <time>2019-09-10T15:01:54.100Z</time>
      </trkpt>
      <trkpt lat="10.1574087525238" lon="-75.6834271722591">
        <ele>52.4851891</ele>
        <time>2019-09-10T15:01:54.200Z</time>
      </trkpt>
      <trkpt lat="10.1574104527756" lon="-75.6834292595529">
        <ele>52.4851891</ele>
        <time>2019-09-10T15:01:54.300Z</time>
      </trkpt>
      <trkpt lat="10.1574138633888" lon="-75.6834334663086">
        <ele>52.4851891</ele>
        <time>2019-09-10T15:01:54.500Z</time>
      </trkpt>
      <trkpt lat="10.1574172809846" lon="-75.6834376836477">
        <ele>52.4851891</ele>
        <time>2019-09-10T15:01:54.700Z</time>
      </trkpt>
      <trkpt lat="10.1574207323479" lon="-75.6834419267489">
        <ele>52.4851891</ele>
        <time>2019-09-10T15:01:54.900Z</time>
      </trkpt>
      <trkpt lat="10.1574224567789" lon="-75.6834440609718">
        <ele>52.4851891</ele>
        <time>2019-09-10T15:01:55.000Z</time>
      </trkpt>
      <trkpt lat="10.1574242018456" lon="-75.6834461815476">
        <ele>52.4851891</ele>
        <time>2019-09-10T15:01:55.100Z</time>
      </trkpt>
      <trkpt lat="10.157427751176" lon="-75.6834504506895">
        <ele>52.4851891</ele>
        <time>2019-09-10T15:01:55.300Z</time>
      </trkpt>
      <trkpt lat="10.1574312515229" lon="-75.683454705906">
        <ele>52.4851891</ele>
        <time>2019-09-10T15:01:55.500Z</time>
      </trkpt>
      <trkpt lat="10.1574346276391" lon="-75.6834587941556">
        <ele>52.4851891</ele>
        <time>2019-09-10T15:01:55.700Z</time>
      </trkpt>
      <trkpt lat="10.1574380668086" lon="-75.68346287029">
        <ele>52.4851891</ele>
        <time>2019-09-10T15:01:55.900Z</time>
      </trkpt>
      <trkpt lat="10.1574398064558" lon="-75.6834649334928">
        <ele>52.4851891</ele>
        <time>2019-09-10T15:01:56.000Z</time>
      </trkpt>
      <trkpt lat="10.1574415265095" lon="-75.6834670076967">
        <ele>52.4851891</ele>
        <time>2019-09-10T15:01:56.100Z</time>
      </trkpt>
      <trkpt lat="10.1574432545882" lon="-75.6834690952691">
        <ele>52.4851891</ele>
        <time>2019-09-10T15:01:56.200Z</time>
      </trkpt>
      <trkpt lat="10.1574449877737" lon="-75.6834711941212">
        <ele>52.4851891</ele>
        <time>2019-09-10T15:01:56.300Z</time>
      </trkpt>
      <trkpt lat="10.1574484821801" lon="-75.6834754192585">
        <ele>52.4851891</ele>
        <time>2019-09-10T15:01:56.500Z</time>
      </trkpt>
      <trkpt lat="10.1574520005571" lon="-75.6834796573466">
        <ele>52.4851891</ele>
        <time>2019-09-10T15:01:56.700Z</time>
      </trkpt>
      <trkpt lat="10.1574537735548" lon="-75.6834817748588">
        <ele>52.4851891</ele>
        <time>2019-09-10T15:01:56.800Z</time>
      </trkpt>
      <trkpt lat="10.15745729485" lon="-75.6834859992999">
        <ele>52.4851891</ele>
        <time>2019-09-10T15:01:57.000Z</time>
      </trkpt>
      <trkpt lat="10.1574590609691" lon="-75.683488102051">
        <ele>52.4851891</ele>
        <time>2019-09-10T15:01:57.100Z</time>
      </trkpt>
      <trkpt lat="10.1574608306318" lon="-75.683490204106">
        <ele>52.4851891</ele>
        <time>2019-09-10T15:01:57.200Z</time>
      </trkpt>
      <trkpt lat="10.1574625843487" lon="-75.6834922951597">
        <ele>52.4851891</ele>
        <time>2019-09-10T15:01:57.300Z</time>
      </trkpt>
      <trkpt lat="10.157466094805" lon="-75.6834965023332">
        <ele>52.4851891</ele>
        <time>2019-09-10T15:01:57.500Z</time>
      </trkpt>
      <trkpt lat="10.1574696244378" lon="-75.6835007522579">
        <ele>52.4851891</ele>
        <time>2019-09-10T15:01:57.700Z</time>
      </trkpt>
      <trkpt lat="10.1574731394798" lon="-75.6835050233494">
        <ele>52.4851891</ele>
        <time>2019-09-10T15:01:57.900Z</time>
      </trkpt>
      <trkpt lat="10.1574749127902" lon="-75.6835071698267">
        <ele>52.4851891</ele>
        <time>2019-09-10T15:01:58.000Z</time>
      </trkpt>
      <trkpt lat="10.1574766577526" lon="-75.6835092717424">
        <ele>52.4851891</ele>
        <time>2019-09-10T15:01:58.100Z</time>
      </trkpt>
      <trkpt lat="10.1574801282924" lon="-75.6835134239101">
        <ele>52.4851891</ele>
        <time>2019-09-10T15:01:58.300Z</time>
      </trkpt>
      <trkpt lat="10.1574836044602" lon="-75.6835175719001">
        <ele>52.4851891</ele>
        <time>2019-09-10T15:01:58.500Z</time>
      </trkpt>
      <trkpt lat="10.1574853469213" lon="-75.6835196541808">
        <ele>52.4851891</ele>
        <time>2019-09-10T15:01:58.600Z</time>
      </trkpt>
      <trkpt lat="10.1574870500913" lon="-75.6835217116741">
        <ele>52.4851891</ele>
        <time>2019-09-10T15:01:58.700Z</time>
      </trkpt>
      <trkpt lat="10.1574904629973" lon="-75.6835258632848">
        <ele>52.4851891</ele>
        <time>2019-09-10T15:01:58.900Z</time>
      </trkpt>
      <trkpt lat="10.1574921942026" lon="-75.6835279753661">
        <ele>52.4851891</ele>
        <time>2019-09-10T15:01:59.000Z</time>
      </trkpt>
      <trkpt lat="10.1574939445845" lon="-75.6835300967774">
        <ele>52.4851891</ele>
        <time>2019-09-10T15:01:59.100Z</time>
      </trkpt>
      <trkpt lat="10.1574957038251" lon="-75.6835322099728">
        <ele>52.4851891</ele>
        <time>2019-09-10T15:01:59.200Z</time>
      </trkpt>
      <trkpt lat="10.1574974648375" lon="-75.6835343252569">
        <ele>52.4851891</ele>
        <time>2019-09-10T15:01:59.300Z</time>
      </trkpt>
      <trkpt lat="10.1575009263102" lon="-75.6835385290882">
        <ele>52.4851891</ele>
        <time>2019-09-10T15:01:59.500Z</time>
      </trkpt>
      <trkpt lat="10.1575042646985" lon="-75.6835422629338">
        <ele>52.3851891</ele>
        <time>2019-09-10T15:01:59.700Z</time>
      </trkpt>
      <trkpt lat="10.1575076540507" lon="-75.6835449926112">
        <ele>52.3851891</ele>
        <time>2019-09-10T15:01:59.900Z</time>
      </trkpt>
      <trkpt lat="10.1575111046844" lon="-75.683546483615">
        <ele>52.3851891</ele>
        <time>2019-09-10T15:02:00.100Z</time>
      </trkpt>
      <trkpt lat="10.157514655474" lon="-75.6835466695205">
        <ele>52.3851891</ele>
        <time>2019-09-10T15:02:00.300Z</time>
      </trkpt>
      <trkpt lat="10.1575164860014" lon="-75.6835463332195">
        <ele>52.3851891</ele>
        <time>2019-09-10T15:02:00.400Z</time>
      </trkpt>
      <trkpt lat="10.1575184468043" lon="-75.6835456576933">
        <ele>52.3851891</ele>
        <time>2019-09-10T15:02:00.500Z</time>
      </trkpt>
      <trkpt lat="10.157522410932" lon="-75.6835434223713">
        <ele>52.3851891</ele>
        <time>2019-09-10T15:02:00.700Z</time>
      </trkpt>
      <trkpt lat="10.1575264060132" lon="-75.6835399980897">
        <ele>52.3851891</ele>
        <time>2019-09-10T15:02:00.900Z</time>
      </trkpt>
      <trkpt lat="10.1575283826576" lon="-75.6835380141231">
        <ele>52.3851891</ele>
        <time>2019-09-10T15:02:01.000Z</time>
      </trkpt>
      <trkpt lat="10.1575323548103" lon="-75.6835337972018">
        <ele>52.3851891</ele>
        <time>2019-09-10T15:02:01.200Z</time>
      </trkpt>
      <trkpt lat="10.157534429943" lon="-75.6835316461291">
        <ele>52.3851891</ele>
        <time>2019-09-10T15:02:01.300Z</time>
      </trkpt>
      <trkpt lat="10.1575364770404" lon="-75.683529429885">
        <ele>52.3851891</ele>
        <time>2019-09-10T15:02:01.400Z</time>
      </trkpt>
      <trkpt lat="10.1575385295573" lon="-75.6835272828507">
        <ele>52.3851891</ele>
        <time>2019-09-10T15:02:01.500Z</time>
      </trkpt>
      <trkpt lat="10.1575426108288" lon="-75.6835229380933">
        <ele>52.3851891</ele>
        <time>2019-09-10T15:02:01.700Z</time>
      </trkpt>
      <trkpt lat="10.157546673549" lon="-75.6835185735617">
        <ele>52.3851891</ele>
        <time>2019-09-10T15:02:01.900Z</time>
      </trkpt>
      <trkpt lat="10.1575486398756" lon="-75.6835164112093">
        <ele>52.3851891</ele>
        <time>2019-09-10T15:02:02.000Z</time>
      </trkpt>
      <trkpt lat="10.1575506208973" lon="-75.6835142612507">
        <ele>52.3851891</ele>
        <time>2019-09-10T15:02:02.100Z</time>
      </trkpt>
      <trkpt lat="10.1575525948319" lon="-75.6835120658949">
        <ele>52.3851891</ele>
        <time>2019-09-10T15:02:02.200Z</time>
      </trkpt>
      <trkpt lat="10.1575545376047" lon="-75.6835099538136">
        <ele>52.3851891</ele>
        <time>2019-09-10T15:02:02.300Z</time>
      </trkpt>
      <trkpt lat="10.1575564732905" lon="-75.683507848138">
        <ele>52.3851891</ele>
        <time>2019-09-10T15:02:02.400Z</time>
      </trkpt>
      <trkpt lat="10.1575584040779" lon="-75.6835058015066">
        <ele>52.3851891</ele>
        <time>2019-09-10T15:02:02.500Z</time>
      </trkpt>
      <trkpt lat="10.1575603477887" lon="-75.6835037328729">
        <ele>52.3851891</ele>
        <time>2019-09-10T15:02:02.600Z</time>
      </trkpt>
      <trkpt lat="10.1575622620051" lon="-75.6835016593653">
        <ele>52.3851891</ele>
        <time>2019-09-10T15:02:02.700Z</time>
      </trkpt>
      <trkpt lat="10.1575641871646" lon="-75.6834995596777">
        <ele>52.3851891</ele>
        <time>2019-09-10T15:02:02.800Z</time>
      </trkpt>
      <trkpt lat="10.1575680648936" lon="-75.6834953825834">
        <ele>52.3851891</ele>
        <time>2019-09-10T15:02:03.000Z</time>
      </trkpt>
      <trkpt lat="10.1575700093339" lon="-75.6834932904156">
        <ele>52.3851891</ele>
        <time>2019-09-10T15:02:03.100Z</time>
      </trkpt>
      <trkpt lat="10.1575719747225" lon="-75.6834912109199">
        <ele>52.3851891</ele>
        <time>2019-09-10T15:02:03.200Z</time>
      </trkpt>
      <trkpt lat="10.1575739278131" lon="-75.6834891715298">
        <ele>52.3851891</ele>
        <time>2019-09-10T15:02:03.300Z</time>
      </trkpt>
      <trkpt lat="10.157577816381" lon="-75.6834851857719">
        <ele>52.3851891</ele>
        <time>2019-09-10T15:02:03.500Z</time>
      </trkpt>
      <trkpt lat="10.1575816650325" lon="-75.6834812695022">
        <ele>52.3851891</ele>
        <time>2019-09-10T15:02:03.700Z</time>
      </trkpt>
      <trkpt lat="10.1575855206668" lon="-75.6834773515615">
        <ele>52.3851891</ele>
        <time>2019-09-10T15:02:03.900Z</time>
      </trkpt>
      <trkpt lat="10.1575893621271" lon="-75.6834734734477">
        <ele>52.3851891</ele>
        <time>2019-09-10T15:02:04.100Z</time>
      </trkpt>
      <trkpt lat="10.157593223702" lon="-75.6834696077277">
        <ele>52.3851891</ele>
        <time>2019-09-10T15:02:04.300Z</time>
      </trkpt>
      <trkpt lat="10.1575951677254" lon="-75.683467665259">
        <ele>52.3851891</ele>
        <time>2019-09-10T15:02:04.400Z</time>
      </trkpt>
      <trkpt lat="10.1575970780856" lon="-75.6834657583004">
        <ele>52.3851891</ele>
        <time>2019-09-10T15:02:04.500Z</time>
      </trkpt>
      <trkpt lat="10.1576006362748" lon="-75.6834620569013">
        <ele>52.3851891</ele>
        <time>2019-09-10T15:02:04.700Z</time>
      </trkpt>
      <trkpt lat="10.1576033971778" lon="-75.6834583475647">
        <ele>52.3851891</ele>
        <time>2019-09-10T15:02:04.900Z</time>
      </trkpt>
      <trkpt lat="10.1576050996183" lon="-75.68345459673">
        <ele>52.3851891</ele>
        <time>2019-09-10T15:02:05.100Z</time>
      </trkpt>
      <trkpt lat="10.1576056351028" lon="-75.6834506956392">
        <ele>52.3851891</ele>
        <time>2019-09-10T15:02:05.300Z</time>
      </trkpt>
      <trkpt lat="10.1576049121258" lon="-75.6834466398359">
        <ele>52.3851891</ele>
        <time>2019-09-10T15:02:05.500Z</time>
      </trkpt>
      <trkpt lat="10.1576041104624" lon="-75.6834446195237">
        <ele>52.3851891</ele>
        <time>2019-09-10T15:02:05.600Z</time>
      </trkpt>
      <trkpt lat="10.1576029418389" lon="-75.6834425000619">
        <ele>52.3851891</ele>
        <time>2019-09-10T15:02:05.700Z</time>
      </trkpt>
      <trkpt lat="10.1576015150614" lon="-75.6834404225159">
        <ele>52.3851891</ele>
        <time>2019-09-10T15:02:05.800Z</time>
      </trkpt>
      <trkpt lat="10.1575997906304" lon="-75.6834383041681">
        <ele>52.3851891</ele>
        <time>2019-09-10T15:02:05.900Z</time>
      </trkpt>
      <trkpt lat="10.1575979132038" lon="-75.683436250574">
        <ele>52.3851891</ele>
        <time>2019-09-10T15:02:06.000Z</time>
      </trkpt>
      <trkpt lat="10.1575959145689" lon="-75.6834341120343">
        <ele>52.3851891</ele>
        <time>2019-09-10T15:02:06.100Z</time>
      </trkpt>
      <trkpt lat="10.157593850692" lon="-75.6834320297536">
        <ele>52.3851891</ele>
        <time>2019-09-10T15:02:06.200Z</time>
      </trkpt>
      <trkpt lat="10.1575896737462" lon="-75.6834277943113">
        <ele>52.3851891</ele>
        <time>2019-09-10T15:02:06.400Z</time>
      </trkpt>
      <trkpt lat="10.1575876042414" lon="-75.6834256373899">
        <ele>52.3851891</ele>
        <time>2019-09-10T15:02:06.500Z</time>
      </trkpt>
      <trkpt lat="10.157585505138" lon="-75.6834235443866">
        <ele>52.3851891</ele>
        <time>2019-09-10T15:02:06.600Z</time>
      </trkpt>
      <trkpt lat="10.1575834253153" lon="-75.6834213870474">
        <ele>52.3851891</ele>
        <time>2019-09-10T15:02:06.700Z</time>
      </trkpt>
      <trkpt lat="10.1575813091198" lon="-75.683419297247">
        <ele>52.3851891</ele>
        <time>2019-09-10T15:02:06.800Z</time>
      </trkpt>
      <trkpt lat="10.1575792841171" lon="-75.6834172645411">
        <ele>52.3851891</ele>
        <time>2019-09-10T15:02:06.900Z</time>
      </trkpt>
      <trkpt lat="10.1575772635959" lon="-75.6834152953355">
        <ele>52.3851891</ele>
        <time>2019-09-10T15:02:07.000Z</time>
      </trkpt>
      <trkpt lat="10.1575752643357" lon="-75.6834133165213">
        <ele>52.3851891</ele>
        <time>2019-09-10T15:02:07.100Z</time>
      </trkpt>
      <trkpt lat="10.1575732169256" lon="-75.6834113510755">
        <ele>52.3851891</ele>
        <time>2019-09-10T15:02:07.200Z</time>
      </trkpt>
      <trkpt lat="10.1575691079315" lon="-75.6834074384265">
        <ele>52.3851891</ele>
        <time>2019-09-10T15:02:07.400Z</time>
      </trkpt>
      <trkpt lat="10.1575670610425" lon="-75.6834055076553">
        <ele>52.3851891</ele>
        <time>2019-09-10T15:02:07.500Z</time>
      </trkpt>
      <trkpt lat="10.1575629529864" lon="-75.6834016372006">
        <ele>52.3851891</ele>
        <time>2019-09-10T15:02:07.700Z</time>
      </trkpt>
      <trkpt lat="10.1575608891095" lon="-75.6833996792746">
        <ele>52.3851891</ele>
        <time>2019-09-10T15:02:07.800Z</time>
      </trkpt>
      <trkpt lat="10.1575588183541" lon="-75.6833977381985">
        <ele>52.3851891</ele>
        <time>2019-09-10T15:02:07.900Z</time>
      </trkpt>
      <trkpt lat="10.15755470936" lon="-75.6833938669083">
        <ele>52.3851891</ele>
        <time>2019-09-10T15:02:08.100Z</time>
      </trkpt>
      <trkpt lat="10.1575506235028" lon="-75.6833899883767">
        <ele>52.3851891</ele>
        <time>2019-09-10T15:02:08.300Z</time>
      </trkpt>
      <trkpt lat="10.1575466201882" lon="-75.6833861197323">
        <ele>52.3851891</ele>
        <time>2019-09-10T15:02:08.500Z</time>
      </trkpt>
      <trkpt lat="10.1575446730381" lon="-75.6833842033044">
        <ele>52.3851891</ele>
        <time>2019-09-10T15:02:08.600Z</time>
      </trkpt>
      <trkpt lat="10.1575427378735" lon="-75.6833823244753">
        <ele>52.3851891</ele>
        <time>2019-09-10T15:02:08.700Z</time>
      </trkpt>
      <trkpt lat="10.157540828347" lon="-75.6833804065155">
        <ele>52.3851891</ele>
        <time>2019-09-10T15:02:08.800Z</time>
      </trkpt>
      <trkpt lat="10.1575389569652" lon="-75.6833785647283">
        <ele>52.3851891</ele>
        <time>2019-09-10T15:02:08.900Z</time>
      </trkpt>
      <trkpt lat="10.1575352504703" lon="-75.6833748477326">
        <ele>52.3851891</ele>
        <time>2019-09-10T15:02:09.100Z</time>
      </trkpt>
      <trkpt lat="10.1575315750332" lon="-75.6833710496905">
        <ele>52.3851891</ele>
        <time>2019-09-10T15:02:09.300Z</time>
      </trkpt>
      <trkpt lat="10.1575297719157" lon="-75.6833691467703">
        <ele>52.3851891</ele>
        <time>2019-09-10T15:02:09.400Z</time>
      </trkpt>
      <trkpt lat="10.1575279247131" lon="-75.6833672286713">
        <ele>52.3851891</ele>
        <time>2019-09-10T15:02:09.500Z</time>
      </trkpt>
      <trkpt lat="10.1575242619908" lon="-75.6833632976406">
        <ele>52.3851891</ele>
        <time>2019-09-10T15:02:09.700Z</time>
      </trkpt>
      <trkpt lat="10.1575224740896" lon="-75.6833613249536">
        <ele>52.3851891</ele>
        <time>2019-09-10T15:02:09.800Z</time>
      </trkpt>
      <trkpt lat="10.1575206959851" lon="-75.6833593473927">
        <ele>52.3851891</ele>
        <time>2019-09-10T15:02:09.900Z</time>
      </trkpt>
      <trkpt lat="10.1575189371613" lon="-75.6833573276375">
        <ele>52.3851891</ele>
        <time>2019-09-10T15:02:10.000Z</time>
      </trkpt>
      <trkpt lat="10.1575171782334" lon="-75.683355311503">
        <ele>52.3851891</ele>
        <time>2019-09-10T15:02:10.100Z</time>
      </trkpt>
      <trkpt lat="10.1575136926858" lon="-75.6833512367611">
        <ele>52.3851891</ele>
        <time>2019-09-10T15:02:10.300Z</time>
      </trkpt>
      <trkpt lat="10.1575102292329" lon="-75.6833471057601">
        <ele>52.4851891</ele>
        <time>2019-09-10T15:02:10.500Z</time>
      </trkpt>
      <trkpt lat="10.157506765259" lon="-75.6833429010933">
        <ele>52.4851891</ele>
        <time>2019-09-10T15:02:10.700Z</time>
      </trkpt>
      <trkpt lat="10.1575033321342" lon="-75.6833386662081">
        <ele>52.3851891</ele>
        <time>2019-09-10T15:02:10.900Z</time>
      </trkpt>
      <trkpt lat="10.1575016015542" lon="-75.6833365156924">
        <ele>52.3851891</ele>
        <time>2019-09-10T15:02:11.000Z</time>
      </trkpt>
      <trkpt lat="10.1574998550285" lon="-75.6833344041682">
        <ele>52.3851891</ele>
        <time>2019-09-10T15:02:11.100Z</time>
      </trkpt>
      <trkpt lat="10.1574963937643" lon="-75.6833302284664">
        <ele>52.3851891</ele>
        <time>2019-09-10T15:02:11.300Z</time>
      </trkpt>
      <trkpt lat="10.1574929727291" lon="-75.6833261126442">
        <ele>52.3851891</ele>
        <time>2019-09-10T15:02:11.500Z</time>
      </trkpt>
      <trkpt lat="10.1574895339765" lon="-75.6833219698066">
        <ele>52.3851891</ele>
        <time>2019-09-10T15:02:11.700Z</time>
      </trkpt>
      <trkpt lat="10.1574860577045" lon="-75.6833176931449">
        <ele>52.3851891</ele>
        <time>2019-09-10T15:02:11.900Z</time>
      </trkpt>
      <trkpt lat="10.1574843426534" lon="-75.6833155294">
        <ele>52.3851891</ele>
        <time>2019-09-10T15:02:12.000Z</time>
      </trkpt>
      <trkpt lat="10.1574809508" lon="-75.6833112453578">
        <ele>52.3851891</ele>
        <time>2019-09-10T15:02:12.200Z</time>
      </trkpt>
      <trkpt lat="10.1574792467962" lon="-75.6833091059825">
        <ele>52.3851891</ele>
        <time>2019-09-10T15:02:12.300Z</time>
      </trkpt>
      <trkpt lat="10.1574775413333" lon="-75.6833069576949">
        <ele>52.3851891</ele>
        <time>2019-09-10T15:02:12.400Z</time>
      </trkpt>
      <trkpt lat="10.1574758422278" lon="-75.6833048181804">
        <ele>52.3851891</ele>
        <time>2019-09-10T15:02:12.500Z</time>
      </trkpt>
      <trkpt lat="10.1574741545866" lon="-75.6833026729564">
        <ele>52.3851891</ele>
        <time>2019-09-10T15:02:12.600Z</time>
      </trkpt>
      <trkpt lat="10.1574724725733" lon="-75.6833005335811">
        <ele>52.3851891</ele>
        <time>2019-09-10T15:02:12.700Z</time>
      </trkpt>
      <trkpt lat="10.1574707903516" lon="-75.6832983905853">
        <ele>52.3851891</ele>
        <time>2019-09-10T15:02:12.800Z</time>
      </trkpt>
      <trkpt lat="10.1574691057328" lon="-75.6832962824031">
        <ele>52.3851891</ele>
        <time>2019-09-10T15:02:12.900Z</time>
      </trkpt>
      <trkpt lat="10.1574657655727" lon="-75.6832920962572">
        <ele>52.2851891</ele>
        <time>2019-09-10T15:02:13.100Z</time>
      </trkpt>
      <trkpt lat="10.1574624611602" lon="-75.6832879344809">
        <ele>52.2851891</ele>
        <time>2019-09-10T15:02:13.300Z</time>
      </trkpt>
      <trkpt lat="10.1574607995741" lon="-75.6832858495543">
        <ele>52.2851891</ele>
        <time>2019-09-10T15:02:13.400Z</time>
      </trkpt>
      <trkpt lat="10.1574591288166" lon="-75.68328375112">
        <ele>52.2851891</ele>
        <time>2019-09-10T15:02:13.500Z</time>
      </trkpt>
      <trkpt lat="10.1574557990786" lon="-75.6832795450606">
        <ele>52.3851891</ele>
        <time>2019-09-10T15:02:13.700Z</time>
      </trkpt>
      <trkpt lat="10.1574525044628" lon="-75.6832753500024">
        <ele>52.3851891</ele>
        <time>2019-09-10T15:02:13.900Z</time>
      </trkpt>
      <trkpt lat="10.1574492056782" lon="-75.683271123751">
        <ele>52.3851891</ele>
        <time>2019-09-10T15:02:14.100Z</time>
      </trkpt>
      <trkpt lat="10.1574458987644" lon="-75.6832669195019">
        <ele>52.3851891</ele>
        <time>2019-09-10T15:02:14.300Z</time>
      </trkpt>
      <trkpt lat="10.1574425998756" lon="-75.6832626709697">
        <ele>52.3851891</ele>
        <time>2019-09-10T15:02:14.500Z</time>
      </trkpt>
      <trkpt lat="10.1574392782667" lon="-75.6832584519596">
        <ele>52.3851891</ele>
        <time>2019-09-10T15:02:14.700Z</time>
      </trkpt>
      <trkpt lat="10.1574376293955" lon="-75.6832563538038">
        <ele>52.3851891</ele>
        <time>2019-09-10T15:02:14.800Z</time>
      </trkpt>
      <trkpt lat="10.157435982296" lon="-75.6832543123248">
        <ele>52.3851891</ele>
        <time>2019-09-10T15:02:14.900Z</time>
      </trkpt>
      <trkpt lat="10.15743267434" lon="-75.6832502265818">
        <ele>52.3851891</ele>
        <time>2019-09-10T15:02:15.100Z</time>
      </trkpt>
      <trkpt lat="10.1574309980589" lon="-75.6832481431871">
        <ele>52.3851891</ele>
        <time>2019-09-10T15:02:15.200Z</time>
      </trkpt>
      <trkpt lat="10.1574293170878" lon="-75.6832460724645">
        <ele>52.3851891</ele>
        <time>2019-09-10T15:02:15.300Z</time>
      </trkpt>
      <trkpt lat="10.157425967131" lon="-75.6832419169547">
        <ele>52.3851891</ele>
        <time>2019-09-10T15:02:15.500Z</time>
      </trkpt>
      <trkpt lat="10.1574242949144" lon="-75.683239813925">
        <ele>52.3851891</ele>
        <time>2019-09-10T15:02:15.600Z</time>
      </trkpt>
      <trkpt lat="10.1574226111294" lon="-75.6832377270489">
        <ele>52.3851891</ele>
        <time>2019-09-10T15:02:15.700Z</time>
      </trkpt>
      <trkpt lat="10.1574209167138" lon="-75.6832356340456">
        <ele>52.3851891</ele>
        <time>2019-09-10T15:02:15.800Z</time>
      </trkpt>
      <trkpt lat="10.1574192449141" lon="-75.6832335587276">
        <ele>52.3851891</ele>
        <time>2019-09-10T15:02:15.900Z</time>
      </trkpt>
      <trkpt lat="10.15741757572" lon="-75.683231478118">
        <ele>52.3851891</ele>
        <time>2019-09-10T15:02:16.000Z</time>
      </trkpt>
      <trkpt lat="10.1574158532692" lon="-75.6832293475158">
        <ele>52.3851891</ele>
        <time>2019-09-10T15:02:16.100Z</time>
      </trkpt>
      <trkpt lat="10.1574124161841" lon="-75.6832250885394">
        <ele>52.3851891</ele>
        <time>2019-09-10T15:02:16.300Z</time>
      </trkpt>
      <trkpt lat="10.1574090527828" lon="-75.6832209044823">
        <ele>52.3851891</ele>
        <time>2019-09-10T15:02:16.500Z</time>
      </trkpt>
      <trkpt lat="10.1574056853169" lon="-75.6832167626195">
        <ele>52.3851891</ele>
        <time>2019-09-10T15:02:16.700Z</time>
      </trkpt>
      <trkpt lat="10.1574023079502" lon="-75.6832126789653">
        <ele>52.3851891</ele>
        <time>2019-09-10T15:02:16.900Z</time>
      </trkpt>
      <trkpt lat="10.1573988965033" lon="-75.6832085621684">
        <ele>52.3851891</ele>
        <time>2019-09-10T15:02:17.100Z</time>
      </trkpt>
      <trkpt lat="10.1573953804191" lon="-75.6832043225485">
        <ele>52.3851891</ele>
        <time>2019-09-10T15:02:17.300Z</time>
      </trkpt>
      <trkpt lat="10.1573917816882" lon="-75.6832001064627">
        <ele>52.3851891</ele>
        <time>2019-09-10T15:02:17.500Z</time>
      </trkpt>
      <trkpt lat="10.1573881865007" lon="-75.6831959696131">
        <ele>52.3851891</ele>
        <time>2019-09-10T15:02:17.700Z</time>
      </trkpt>
      <trkpt lat="10.1573864077709" lon="-75.6831939002831">
        <ele>52.3851891</ele>
        <time>2019-09-10T15:02:17.800Z</time>
      </trkpt>
      <trkpt lat="10.1573846429023" lon="-75.6831918146603">
        <ele>52.3851891</ele>
        <time>2019-09-10T15:02:17.900Z</time>
      </trkpt>
      <trkpt lat="10.1573811497467" lon="-75.683187613057">
        <ele>52.3851891</ele>
        <time>2019-09-10T15:02:18.100Z</time>
      </trkpt>
      <trkpt lat="10.1573776865022" lon="-75.6831834046303">
        <ele>52.3851891</ele>
        <time>2019-09-10T15:02:18.300Z</time>
      </trkpt>
      <trkpt lat="10.157375957694" lon="-75.6831812889284">
        <ele>52.3851891</ele>
        <time>2019-09-10T15:02:18.400Z</time>
      </trkpt>
      <trkpt lat="10.1573742396204" lon="-75.6831792113824">
        <ele>52.3851891</ele>
        <time>2019-09-10T15:02:18.500Z</time>
      </trkpt>
      <trkpt lat="10.1573725180034" lon="-75.6831771352289">
        <ele>52.3851891</ele>
        <time>2019-09-10T15:02:18.600Z</time>
      </trkpt>
      <trkpt lat="10.1573707787731" lon="-75.6831750401367">
        <ele>52.3851891</ele>
        <time>2019-09-10T15:02:18.700Z</time>
      </trkpt>
      <trkpt lat="10.1573673397078" lon="-75.6831708783604">
        <ele>52.3851891</ele>
        <time>2019-09-10T15:02:18.900Z</time>
      </trkpt>
      <trkpt lat="10.1573656610296" lon="-75.683168832286">
        <ele>52.3851891</ele>
        <time>2019-09-10T15:02:19.000Z</time>
      </trkpt>
      <trkpt lat="10.1573639568173" lon="-75.68316675474">
        <ele>52.3851891</ele>
        <time>2019-09-10T15:02:19.100Z</time>
      </trkpt>
      <trkpt lat="10.1573622338454" lon="-75.6831646421017">
        <ele>52.3851891</ele>
        <time>2019-09-10T15:02:19.200Z</time>
      </trkpt>
      <trkpt lat="10.1573604921138" lon="-75.6831625365654">
        <ele>52.3851891</ele>
        <time>2019-09-10T15:02:19.300Z</time>
      </trkpt>
      <trkpt lat="10.1573587514244" lon="-75.6831604427265">
        <ele>52.3851891</ele>
        <time>2019-09-10T15:02:19.400Z</time>
      </trkpt>
      <trkpt lat="10.1573553514418" lon="-75.6831563473749">
        <ele>52.3851891</ele>
        <time>2019-09-10T15:02:19.600Z</time>
      </trkpt>
      <trkpt lat="10.1573536442072" lon="-75.6831542918312">
        <ele>52.3851891</ele>
        <time>2019-09-10T15:02:19.700Z</time>
      </trkpt>
      <trkpt lat="10.1573519207142" lon="-75.6831522116393">
        <ele>52.3851891</ele>
        <time>2019-09-10T15:02:19.800Z</time>
      </trkpt>
      <trkpt lat="10.1573501864864" lon="-75.6831501183574">
        <ele>52.3851891</ele>
        <time>2019-09-10T15:02:19.900Z</time>
      </trkpt>
      <trkpt lat="10.1573467042739" lon="-75.6831459433519">
        <ele>52.3851891</ele>
        <time>2019-09-10T15:02:20.100Z</time>
      </trkpt>
      <trkpt lat="10.1573431911079" lon="-75.6831418012106">
        <ele>52.3851891</ele>
        <time>2019-09-10T15:02:20.300Z</time>
      </trkpt>
      <trkpt lat="10.1573414212368" lon="-75.683139722829">
        <ele>52.3851891</ele>
        <time>2019-09-10T15:02:20.400Z</time>
      </trkpt>
      <trkpt lat="10.1573397037886" lon="-75.6831376622721">
        <ele>52.3851891</ele>
        <time>2019-09-10T15:02:20.500Z</time>
      </trkpt>
      <trkpt lat="10.1573362769171" lon="-75.6831335351703">
        <ele>52.3851891</ele>
        <time>2019-09-10T15:02:20.700Z</time>
      </trkpt>
      <trkpt lat="10.1573328463979" lon="-75.6831293821671">
        <ele>52.3851891</ele>
        <time>2019-09-10T15:02:20.900Z</time>
      </trkpt>
      <trkpt lat="10.1573294652792" lon="-75.6831252522802">
        <ele>52.3851891</ele>
        <time>2019-09-10T15:02:21.100Z</time>
      </trkpt>
      <trkpt lat="10.1573259754585" lon="-75.6831210377262">
        <ele>52.3851891</ele>
        <time>2019-09-10T15:02:21.300Z</time>
      </trkpt>
      <trkpt lat="10.1573224884519" lon="-75.6831167417081">
        <ele>52.3851891</ele>
        <time>2019-09-10T15:02:21.500Z</time>
      </trkpt>
      <trkpt lat="10.1573208062301" lon="-75.6831146273987">
        <ele>52.3851891</ele>
        <time>2019-09-10T15:02:21.600Z</time>
      </trkpt>
      <trkpt lat="10.1573191238" lon="-75.6831125247868">
        <ele>52.3851891</ele>
        <time>2019-09-10T15:02:21.700Z</time>
      </trkpt>
      <trkpt lat="10.1573174192751" lon="-75.6831104238459">
        <ele>52.3851891</ele>
        <time>2019-09-10T15:02:21.800Z</time>
      </trkpt>
      <trkpt lat="10.157315700472" lon="-75.6831083322351">
        <ele>52.3851891</ele>
        <time>2019-09-10T15:02:21.900Z</time>
      </trkpt>
      <trkpt lat="10.1573139648894" lon="-75.6831062371429">
        <ele>52.3851891</ele>
        <time>2019-09-10T15:02:22.000Z</time>
      </trkpt>
      <trkpt lat="10.1573122185721" lon="-75.6831041455322">
        <ele>52.3851891</ele>
        <time>2019-09-10T15:02:22.100Z</time>
      </trkpt>
      <trkpt lat="10.1573104717337" lon="-75.683102049326">
        <ele>52.3851891</ele>
        <time>2019-09-10T15:02:22.200Z</time>
      </trkpt>
      <trkpt lat="10.1573087238531" lon="-75.6830999533983">
        <ele>52.3851891</ele>
        <time>2019-09-10T15:02:22.300Z</time>
      </trkpt>
      <trkpt lat="10.1573069800371" lon="-75.6830978595594">
        <ele>52.3851891</ele>
        <time>2019-09-10T15:02:22.400Z</time>
      </trkpt>
      <trkpt lat="10.1573052091238" lon="-75.6830957715692">
        <ele>52.3851891</ele>
        <time>2019-09-10T15:02:22.500Z</time>
      </trkpt>
      <trkpt lat="10.1573034366472" lon="-75.6830936799584">
        <ele>52.3851891</ele>
        <time>2019-09-10T15:02:22.600Z</time>
      </trkpt>
      <trkpt lat="10.15730166959" lon="-75.6830915820812">
        <ele>52.4851891</ele>
        <time>2019-09-10T15:02:22.700Z</time>
      </trkpt>
      <trkpt lat="10.1572999167069" lon="-75.6830894794692">
        <ele>52.4851891</ele>
        <time>2019-09-10T15:02:22.800Z</time>
      </trkpt>
      <trkpt lat="10.1572981690347" lon="-75.6830873700338">
        <ele>52.4851891</ele>
        <time>2019-09-10T15:02:22.900Z</time>
      </trkpt>
      <trkpt lat="10.1572964282411" lon="-75.6830852547497">
        <ele>52.4851891</ele>
        <time>2019-09-10T15:02:23.000Z</time>
      </trkpt>
      <trkpt lat="10.1572946890108" lon="-75.6830831368197">
        <ele>52.4851891</ele>
        <time>2019-09-10T15:02:23.100Z</time>
      </trkpt>
      <trkpt lat="10.1572929504058" lon="-75.683081019586">
        <ele>52.3851891</ele>
        <time>2019-09-10T15:02:23.200Z</time>
      </trkpt>
      <trkpt lat="10.1572911950214" lon="-75.6830788822995">
        <ele>52.3851891</ele>
        <time>2019-09-10T15:02:23.300Z</time>
      </trkpt>
      <trkpt lat="10.1572894372398" lon="-75.683076736797">
        <ele>52.3851891</ele>
        <time>2019-09-10T15:02:23.400Z</time>
      </trkpt>
      <trkpt lat="10.1572877007193" lon="-75.6830745989536">
        <ele>52.3851891</ele>
        <time>2019-09-10T15:02:23.500Z</time>
      </trkpt>
      <trkpt lat="10.157284256443" lon="-75.6830703513961">
        <ele>52.3851891</ele>
        <time>2019-09-10T15:02:23.700Z</time>
      </trkpt>
      <trkpt lat="10.1572825304487" lon="-75.6830682386186">
        <ele>52.3851891</ele>
        <time>2019-09-10T15:02:23.800Z</time>
      </trkpt>
      <trkpt lat="10.1572807515104" lon="-75.6830660793298">
        <ele>52.3851891</ele>
        <time>2019-09-10T15:02:23.900Z</time>
      </trkpt>
      <trkpt lat="10.1572789673611" lon="-75.6830639089007">
        <ele>52.3851891</ele>
        <time>2019-09-10T15:02:24.000Z</time>
      </trkpt>
      <trkpt lat="10.1572772309447" lon="-75.6830618186825">
        <ele>52.3851891</ele>
        <time>2019-09-10T15:02:24.100Z</time>
      </trkpt>
      <trkpt lat="10.1572755093277" lon="-75.6830597500488">
        <ele>52.4851891</ele>
        <time>2019-09-10T15:02:24.200Z</time>
      </trkpt>
      <trkpt lat="10.157273818143" lon="-75.6830576757056">
        <ele>52.4851891</ele>
        <time>2019-09-10T15:02:24.300Z</time>
      </trkpt>
      <trkpt lat="10.1572721178911" lon="-75.683055582563">
        <ele>52.4851891</ele>
        <time>2019-09-10T15:02:24.400Z</time>
      </trkpt>
      <trkpt lat="10.1572703893955" lon="-75.6830534735453">
        <ele>52.3851891</ele>
        <time>2019-09-10T15:02:24.500Z</time>
      </trkpt>
      <trkpt lat="10.1572686397432" lon="-75.6830513590967">
        <ele>52.3851891</ele>
        <time>2019-09-10T15:02:24.600Z</time>
      </trkpt>
      <trkpt lat="10.1572669422011" lon="-75.6830492802974">
        <ele>52.3851891</ele>
        <time>2019-09-10T15:02:24.700Z</time>
      </trkpt>
      <trkpt lat="10.1572652588329" lon="-75.6830472055365">
        <ele>52.3851891</ele>
        <time>2019-09-10T15:02:24.800Z</time>
      </trkpt>
      <trkpt lat="10.1572635767154" lon="-75.6830451323074">
        <ele>52.3851891</ele>
        <time>2019-09-10T15:02:24.900Z</time>
      </trkpt>
      <trkpt lat="10.1572618767762" lon="-75.6830430438994">
        <ele>52.3851891</ele>
        <time>2019-09-10T15:02:25.000Z</time>
      </trkpt>
      <trkpt lat="10.1572601726682" lon="-75.6830409209562">
        <ele>52.3851891</ele>
        <time>2019-09-10T15:02:25.100Z</time>
      </trkpt>
      <trkpt lat="10.157258457617" lon="-75.683038788126">
        <ele>52.2851891</ele>
        <time>2019-09-10T15:02:25.200Z</time>
      </trkpt>
      <trkpt lat="10.1572567534048" lon="-75.6830366611444">
        <ele>52.2851891</ele>
        <time>2019-09-10T15:02:25.300Z</time>
      </trkpt>
      <trkpt lat="10.1572550452322" lon="-75.6830345458603">
        <ele>52.2851891</ele>
        <time>2019-09-10T15:02:25.400Z</time>
      </trkpt>
      <trkpt lat="10.1572533217392" lon="-75.6830324330827">
        <ele>52.2851891</ele>
        <time>2019-09-10T15:02:25.500Z</time>
      </trkpt>
      <trkpt lat="10.1572515901169" lon="-75.6830303232295">
        <ele>52.3851891</ele>
        <time>2019-09-10T15:02:25.600Z</time>
      </trkpt>
      <trkpt lat="10.1572498741278" lon="-75.6830282512537">
        <ele>52.3851891</ele>
        <time>2019-09-10T15:02:25.700Z</time>
      </trkpt>
      <trkpt lat="10.1572481599104" lon="-75.6830261785816">
        <ele>52.3851891</ele>
        <time>2019-09-10T15:02:25.800Z</time>
      </trkpt>
      <trkpt lat="10.1572464635147" lon="-75.6830241355708">
        <ele>52.3851891</ele>
        <time>2019-09-10T15:02:25.900Z</time>
      </trkpt>
      <trkpt lat="10.1572447602404" lon="-75.6830220847617">
        <ele>52.3851891</ele>
        <time>2019-09-10T15:02:26.000Z</time>
      </trkpt>
      <trkpt lat="10.1572430216355" lon="-75.6830200347882">
        <ele>52.3851891</ele>
        <time>2019-09-10T15:02:26.100Z</time>
      </trkpt>
      <trkpt lat="10.1572412635413" lon="-75.6830179646227">
        <ele>52.3851891</ele>
        <time>2019-09-10T15:02:26.200Z</time>
      </trkpt>
      <trkpt lat="10.1572394967968" lon="-75.6830159126996">
        <ele>52.3851891</ele>
        <time>2019-09-10T15:02:26.300Z</time>
      </trkpt>
      <trkpt lat="10.1572377339084" lon="-75.6830138526997">
        <ele>52.3851891</ele>
        <time>2019-09-10T15:02:26.400Z</time>
      </trkpt>
      <trkpt lat="10.1572359473621" lon="-75.6830117801669">
        <ele>52.4851891</ele>
        <time>2019-09-10T15:02:26.500Z</time>
      </trkpt>
      <trkpt lat="10.1572341648803" lon="-75.683009695101">
        <ele>52.4851891</ele>
        <time>2019-09-10T15:02:26.600Z</time>
      </trkpt>
      <trkpt lat="10.1572324136647" lon="-75.6830076281384">
        <ele>52.4851891</ele>
        <time>2019-09-10T15:02:26.700Z</time>
      </trkpt>
      <trkpt lat="10.157230670474" lon="-75.6830055600617">
        <ele>52.4851891</ele>
        <time>2019-09-10T15:02:26.800Z</time>
      </trkpt>
      <trkpt lat="10.1572289391644" lon="-75.6830035117593">
        <ele>52.4851891</ele>
        <time>2019-09-10T15:02:26.900Z</time>
      </trkpt>
      <trkpt lat="10.1572272002468" lon="-75.683001456494">
        <ele>52.4851891</ele>
        <time>2019-09-10T15:02:27.000Z</time>
      </trkpt>
      <trkpt lat="10.1572219969383" lon="-75.6829953312216">
        <ele>52.4851891</ele>
        <time>2019-09-10T15:02:27.300Z</time>
      </trkpt>
      <trkpt lat="10.1572202489535" lon="-75.6829932762349">
        <ele>52.4851891</ele>
        <time>2019-09-10T15:02:27.400Z</time>
      </trkpt>
      <trkpt lat="10.1572167522543" lon="-75.6829891743382">
        <ele>52.4851891</ele>
        <time>2019-09-10T15:02:27.600Z</time>
      </trkpt>
      <trkpt lat="10.1572150112523" lon="-75.6829871292387">
        <ele>52.4851891</ele>
        <time>2019-09-10T15:02:27.700Z</time>
      </trkpt>
      <trkpt lat="10.1572132671236" lon="-75.6829850707706">
        <ele>52.4851891</ele>
        <time>2019-09-10T15:02:27.800Z</time>
      </trkpt>
      <trkpt lat="10.1572115393576" lon="-75.6829829997695">
        <ele>52.4851891</ele>
        <time>2019-09-10T15:02:27.900Z</time>
      </trkpt>
      <trkpt lat="10.1572098063805" lon="-75.6829809126149">
        <ele>52.4851891</ele>
        <time>2019-09-10T15:02:28.000Z</time>
      </trkpt>
      <trkpt lat="10.1572080603759" lon="-75.6829788159909">
        <ele>52.3851891</ele>
        <time>2019-09-10T15:02:28.100Z</time>
      </trkpt>
      <trkpt lat="10.1572045608628" lon="-75.6829745769281">
        <ele>52.3851891</ele>
        <time>2019-09-10T15:02:28.300Z</time>
      </trkpt>
      <trkpt lat="10.1572010970972" lon="-75.6829703013804">
        <ele>52.3851891</ele>
        <time>2019-09-10T15:02:28.500Z</time>
      </trkpt>
      <trkpt lat="10.1571993696438" lon="-75.6829681830326">
        <ele>52.3851891</ele>
        <time>2019-09-10T15:02:28.600Z</time>
      </trkpt>
      <trkpt lat="10.1571976119665" lon="-75.6829660302889">
        <ele>52.3851891</ele>
        <time>2019-09-10T15:02:28.700Z</time>
      </trkpt>
      <trkpt lat="10.1571958491824" lon="-75.6829638760133">
        <ele>52.2851891</ele>
        <time>2019-09-10T15:02:28.800Z</time>
      </trkpt>
      <trkpt lat="10.157194110369" lon="-75.682961727865">
        <ele>52.2851891</ele>
        <time>2019-09-10T15:02:28.900Z</time>
      </trkpt>
      <trkpt lat="10.1571923820818" lon="-75.6829595969843">
        <ele>52.2851891</ele>
        <time>2019-09-10T15:02:29.000Z</time>
      </trkpt>
      <trkpt lat="10.1571907020487" lon="-75.6829575089941">
        <ele>52.2851891</ele>
        <time>2019-09-10T15:02:29.100Z</time>
      </trkpt>
      <trkpt lat="10.1571873048801" lon="-75.6829533039095">
        <ele>52.2851891</ele>
        <time>2019-09-10T15:02:29.300Z</time>
      </trkpt>
      <trkpt lat="10.1571855472028" lon="-75.6829511521405">
        <ele>52.2851891</ele>
        <time>2019-09-10T15:02:29.400Z</time>
      </trkpt>
      <trkpt lat="10.1571837996348" lon="-75.6829490354638">
        <ele>52.2851891</ele>
        <time>2019-09-10T15:02:29.500Z</time>
      </trkpt>
      <trkpt lat="10.1571820540471" lon="-75.6829469360548">
        <ele>52.2851891</ele>
        <time>2019-09-10T15:02:29.600Z</time>
      </trkpt>
      <trkpt lat="10.1571803065834" lon="-75.6829448548881">
        <ele>52.2851891</ele>
        <time>2019-09-10T15:02:29.700Z</time>
      </trkpt>
      <trkpt lat="10.1571785528664" lon="-75.6829427662017">
        <ele>52.2851891</ele>
        <time>2019-09-10T15:02:29.800Z</time>
      </trkpt>
      <trkpt lat="10.1571768023803" lon="-75.6829406841995">
        <ele>52.2851891</ele>
        <time>2019-09-10T15:02:29.900Z</time>
      </trkpt>
      <trkpt lat="10.1571733293392" lon="-75.6829365380198">
        <ele>52.2851891</ele>
        <time>2019-09-10T15:02:30.100Z</time>
      </trkpt>
      <trkpt lat="10.1571716144965" lon="-75.6829344781591">
        <ele>52.2851891</ele>
        <time>2019-09-10T15:02:30.200Z</time>
      </trkpt>
      <trkpt lat="10.1571698616133" lon="-75.6829323965747">
        <ele>52.2851891</ele>
        <time>2019-09-10T15:02:30.300Z</time>
      </trkpt>
      <trkpt lat="10.1571680907" lon="-75.6829302936843">
        <ele>52.2851891</ele>
        <time>2019-09-10T15:02:30.400Z</time>
      </trkpt>
      <trkpt lat="10.1571663531372" lon="-75.6829281594614">
        <ele>52.2851891</ele>
        <time>2019-09-10T15:02:30.500Z</time>
      </trkpt>
      <trkpt lat="10.157164630478" lon="-75.6829260249601">
        <ele>52.2851891</ele>
        <time>2019-09-10T15:02:30.600Z</time>
      </trkpt>
      <trkpt lat="10.1571629033372" lon="-75.6829238878129">
        <ele>52.2851891</ele>
        <time>2019-09-10T15:02:30.700Z</time>
      </trkpt>
      <trkpt lat="10.1571611641069" lon="-75.6829217658445">
        <ele>52.2851891</ele>
        <time>2019-09-10T15:02:30.800Z</time>
      </trkpt>
      <trkpt lat="10.1571594470756" lon="-75.6829196779936">
        <ele>52.3851891</ele>
        <time>2019-09-10T15:02:30.900Z</time>
      </trkpt>
      <trkpt lat="10.1571559905013" lon="-75.6829155081405">
        <ele>52.3851891</ele>
        <time>2019-09-10T15:02:31.100Z</time>
      </trkpt>
      <trkpt lat="10.1571542467895" lon="-75.682913389375">
        <ele>52.3851891</ele>
        <time>2019-09-10T15:02:31.200Z</time>
      </trkpt>
      <trkpt lat="10.1571525321552" lon="-75.6829112864845">
        <ele>52.3851891</ele>
        <time>2019-09-10T15:02:31.300Z</time>
      </trkpt>
      <trkpt lat="10.1571508262755" lon="-75.6829091940382">
        <ele>52.3851891</ele>
        <time>2019-09-10T15:02:31.400Z</time>
      </trkpt>
      <trkpt lat="10.1571491464508" lon="-75.6829071113397">
        <ele>52.3851891</ele>
        <time>2019-09-10T15:02:31.500Z</time>
      </trkpt>
      <trkpt lat="10.1571474582885" lon="-75.682905020286">
        <ele>52.3851891</ele>
        <time>2019-09-10T15:02:31.600Z</time>
      </trkpt>
      <trkpt lat="10.1571439366806" lon="-75.6829006668947">
        <ele>52.2851891</ele>
        <time>2019-09-10T15:02:31.800Z</time>
      </trkpt>
      <trkpt lat="10.1571421862988" lon="-75.6828985564845">
        <ele>52.2851891</ele>
        <time>2019-09-10T15:02:31.900Z</time>
      </trkpt>
      <trkpt lat="10.1571387146125" lon="-75.6828943961008">
        <ele>52.2851891</ele>
        <time>2019-09-10T15:02:32.100Z</time>
      </trkpt>
      <trkpt lat="10.1571369771539" lon="-75.6828922905645">
        <ele>52.2851891</ele>
        <time>2019-09-10T15:02:32.200Z</time>
      </trkpt>
      <trkpt lat="10.1571352425093" lon="-75.6828901755589">
        <ele>52.2851891</ele>
        <time>2019-09-10T15:02:32.300Z</time>
      </trkpt>
      <trkpt lat="10.1571334957752" lon="-75.6828880612495">
        <ele>52.2851891</ele>
        <time>2019-09-10T15:02:32.400Z</time>
      </trkpt>
      <trkpt lat="10.1571317342417" lon="-75.6828859252163">
        <ele>52.2851891</ele>
        <time>2019-09-10T15:02:32.500Z</time>
      </trkpt>
      <trkpt lat="10.1571299709365" lon="-75.6828837848663">
        <ele>52.2851891</ele>
        <time>2019-09-10T15:02:32.600Z</time>
      </trkpt>
      <trkpt lat="10.1571282494237" lon="-75.682881671671">
        <ele>52.1851891</ele>
        <time>2019-09-10T15:02:32.700Z</time>
      </trkpt>
      <trkpt lat="10.1571265406257" lon="-75.6828795839593">
        <ele>52.1851891</ele>
        <time>2019-09-10T15:02:32.800Z</time>
      </trkpt>
      <trkpt lat="10.1571248093162" lon="-75.6828774851073">
        <ele>52.1851891</ele>
        <time>2019-09-10T15:02:32.900Z</time>
      </trkpt>
      <trkpt lat="10.157121317828" lon="-75.682873248551">
        <ele>52.1851891</ele>
        <time>2019-09-10T15:02:33.100Z</time>
      </trkpt>
      <trkpt lat="10.1571195685926" lon="-75.6828711250508">
        <ele>52.2851891</ele>
        <time>2019-09-10T15:02:33.200Z</time>
      </trkpt>
      <trkpt lat="10.1571177940315" lon="-75.6828690018291">
        <ele>52.2851891</ele>
        <time>2019-09-10T15:02:33.300Z</time>
      </trkpt>
      <trkpt lat="10.1571160172819" lon="-75.68286688">
        <ele>52.2851891</ele>
        <time>2019-09-10T15:02:33.400Z</time>
      </trkpt>
      <trkpt lat="10.1571142671085" lon="-75.6828647519044">
        <ele>52.2851891</ele>
        <time>2019-09-10T15:02:33.500Z</time>
      </trkpt>
      <trkpt lat="10.1571125365284" lon="-75.6828626284042">
        <ele>52.2851891</ele>
        <time>2019-09-10T15:02:33.600Z</time>
      </trkpt>
      <trkpt lat="10.1571108144945" lon="-75.682860497802">
        <ele>52.2851891</ele>
        <time>2019-09-10T15:02:33.700Z</time>
      </trkpt>
      <trkpt lat="10.1571090834976" lon="-75.6828583688709">
        <ele>52.2851891</ele>
        <time>2019-09-10T15:02:33.800Z</time>
      </trkpt>
      <trkpt lat="10.1571073750124" lon="-75.682856240079">
        <ele>52.2851891</ele>
        <time>2019-09-10T15:02:33.900Z</time>
      </trkpt>
      <trkpt lat="10.1571056550628" lon="-75.6828541247948">
        <ele>52.2851891</ele>
        <time>2019-09-10T15:02:34.000Z</time>
      </trkpt>
      <trkpt lat="10.157103926463" lon="-75.6828520556041">
        <ele>52.2851891</ele>
        <time>2019-09-10T15:02:34.100Z</time>
      </trkpt>
      <trkpt lat="10.1571021820217" lon="-75.6828500039595">
        <ele>52.2851891</ele>
        <time>2019-09-10T15:02:34.200Z</time>
      </trkpt>
      <trkpt lat="10.1571004001653" lon="-75.6828479016261">
        <ele>52.2851891</ele>
        <time>2019-09-10T15:02:34.300Z</time>
      </trkpt>
      <trkpt lat="10.1570986052812" lon="-75.6828457841139">
        <ele>52.2851891</ele>
        <time>2019-09-10T15:02:34.400Z</time>
      </trkpt>
      <trkpt lat="10.1570968115437" lon="-75.6828436847048">
        <ele>52.2851891</ele>
        <time>2019-09-10T15:02:34.500Z</time>
      </trkpt>
      <trkpt lat="10.1570950168681" lon="-75.6828415971324">
        <ele>52.2851891</ele>
        <time>2019-09-10T15:02:34.600Z</time>
      </trkpt>
      <trkpt lat="10.157091421368" lon="-75.6828374995527">
        <ele>52.2851891</ele>
        <time>2019-09-10T15:02:34.800Z</time>
      </trkpt>
      <trkpt lat="10.1570896576459" lon="-75.6828354626691">
        <ele>52.2851891</ele>
        <time>2019-09-10T15:02:34.900Z</time>
      </trkpt>
      <trkpt lat="10.1570879226886" lon="-75.6828334379007">
        <ele>52.2851891</ele>
        <time>2019-09-10T15:02:35.000Z</time>
      </trkpt>
      <trkpt lat="10.1570862260845" lon="-75.68283141731">
        <ele>52.2851891</ele>
        <time>2019-09-10T15:02:35.100Z</time>
      </trkpt>
      <trkpt lat="10.1570845512624" lon="-75.6828293992259">
        <ele>52.2851891</ele>
        <time>2019-09-10T15:02:35.200Z</time>
      </trkpt>
      <trkpt lat="10.1570828566384" lon="-75.6828273663807">
        <ele>52.2851891</ele>
        <time>2019-09-10T15:02:35.300Z</time>
      </trkpt>
      <trkpt lat="10.1570811487785" lon="-75.6828253175213">
        <ele>52.2851891</ele>
        <time>2019-09-10T15:02:35.400Z</time>
      </trkpt>
      <trkpt lat="10.1570794975102" lon="-75.6828232472165">
        <ele>52.2851891</ele>
        <time>2019-09-10T15:02:35.500Z</time>
      </trkpt>
      <trkpt lat="10.1570778642721" lon="-75.6828211519851">
        <ele>52.2851891</ele>
        <time>2019-09-10T15:02:35.600Z</time>
      </trkpt>
      <trkpt lat="10.1570762275947" lon="-75.6828190698436">
        <ele>52.2851891</ele>
        <time>2019-09-10T15:02:35.700Z</time>
      </trkpt>
      <trkpt lat="10.1570745721576" lon="-75.6828169835245">
        <ele>52.2851891</ele>
        <time>2019-09-10T15:02:35.800Z</time>
      </trkpt>
      <trkpt lat="10.1570729012959" lon="-75.6828148710255">
        <ele>52.2851891</ele>
        <time>2019-09-10T15:02:35.900Z</time>
      </trkpt>
      <trkpt lat="10.1570712111534" lon="-75.6828127476646">
        <ele>52.2851891</ele>
        <time>2019-09-10T15:02:36.000Z</time>
      </trkpt>
      <trkpt lat="10.1570678421242" lon="-75.6828085116653">
        <ele>52.2851891</ele>
        <time>2019-09-10T15:02:36.200Z</time>
      </trkpt>
      <trkpt lat="10.1570661461454" lon="-75.6828064047365">
        <ele>52.2851891</ele>
        <time>2019-09-10T15:02:36.300Z</time>
      </trkpt>
      <trkpt lat="10.1570644346377" lon="-75.6828042968328">
        <ele>52.2851891</ele>
        <time>2019-09-10T15:02:36.400Z</time>
      </trkpt>
      <trkpt lat="10.1570627173979" lon="-75.6828022206794">
        <ele>52.2851891</ele>
        <time>2019-09-10T15:02:36.500Z</time>
      </trkpt>
      <trkpt lat="10.1570609829618" lon="-75.6828001377024">
        <ele>52.2851891</ele>
        <time>2019-09-10T15:02:36.600Z</time>
      </trkpt>
      <trkpt lat="10.1570592571759" lon="-75.6827980242286">
        <ele>52.2851891</ele>
        <time>2019-09-10T15:02:36.700Z</time>
      </trkpt>
      <trkpt lat="10.1570575234693" lon="-75.6827958819289">
        <ele>52.2851891</ele>
        <time>2019-09-10T15:02:36.800Z</time>
      </trkpt>
      <trkpt lat="10.1570557641245" lon="-75.6827937140064">
        <ele>52.2851891</ele>
        <time>2019-09-10T15:02:36.900Z</time>
      </trkpt>
      <trkpt lat="10.1570539972758" lon="-75.6827915604271">
        <ele>52.2851891</ele>
        <time>2019-09-10T15:02:37.000Z</time>
      </trkpt>
      <trkpt lat="10.1570522661747" lon="-75.6827894370662">
        <ele>52.2851891</ele>
        <time>2019-09-10T15:02:37.100Z</time>
      </trkpt>
      <trkpt lat="10.1570505438281" lon="-75.682787322896">
        <ele>52.2851891</ele>
        <time>2019-09-10T15:02:37.200Z</time>
      </trkpt>
      <trkpt lat="10.1570488307571" lon="-75.6827852308675">
        <ele>52.2851891</ele>
        <time>2019-09-10T15:02:37.300Z</time>
      </trkpt>
      <trkpt lat="10.1570471071598" lon="-75.6827831374464">
        <ele>52.2851891</ele>
        <time>2019-09-10T15:02:37.400Z</time>
      </trkpt>
      <trkpt lat="10.157045393672" lon="-75.6827810171491">
        <ele>52.2851891</ele>
        <time>2019-09-10T15:02:37.500Z</time>
      </trkpt>
      <trkpt lat="10.1570436745562" lon="-75.6827788741532">
        <ele>52.2851891</ele>
        <time>2019-09-10T15:02:37.600Z</time>
      </trkpt>
      <trkpt lat="10.1570419749297" lon="-75.6827767106868">
        <ele>52.2851891</ele>
        <time>2019-09-10T15:02:37.700Z</time>
      </trkpt>
      <trkpt lat="10.1570402674866" lon="-75.6827745580823">
        <ele>52.2851891</ele>
        <time>2019-09-10T15:02:37.800Z</time>
      </trkpt>
      <trkpt lat="10.1570385748428" lon="-75.682772440013">
        <ele>52.3851891</ele>
        <time>2019-09-10T15:02:37.900Z</time>
      </trkpt>
      <trkpt lat="10.1570368761543" lon="-75.6827703385151">
        <ele>52.3851891</ele>
        <time>2019-09-10T15:02:38.000Z</time>
      </trkpt>
      <trkpt lat="10.1570351990394" lon="-75.6827682255983">
        <ele>52.3851891</ele>
        <time>2019-09-10T15:02:38.100Z</time>
      </trkpt>
      <trkpt lat="10.1570335108771" lon="-75.682766111289">
        <ele>52.3851891</ele>
        <time>2019-09-10T15:02:38.200Z</time>
      </trkpt>
      <trkpt lat="10.1570318113547" lon="-75.6827640090948">
        <ele>52.2851891</ele>
        <time>2019-09-10T15:02:38.300Z</time>
      </trkpt>
      <trkpt lat="10.157030093177" lon="-75.6827619059258">
        <ele>52.2851891</ele>
        <time>2019-09-10T15:02:38.400Z</time>
      </trkpt>
      <trkpt lat="10.1570283273705" lon="-75.6827597414847">
        <ele>52.2851891</ele>
        <time>2019-09-10T15:02:38.500Z</time>
      </trkpt>
      <trkpt lat="10.1570265519757" lon="-75.6827575672956">
        <ele>52.2851891</ele>
        <time>2019-09-10T15:02:38.600Z</time>
      </trkpt>
      <trkpt lat="10.1570247767893" lon="-75.682755391157">
        <ele>52.2851891</ele>
        <time>2019-09-10T15:02:38.700Z</time>
      </trkpt>
      <trkpt lat="10.157023002541" lon="-75.6827532424517">
        <ele>52.2851891</ele>
        <time>2019-09-10T15:02:38.800Z</time>
      </trkpt>
      <trkpt lat="10.1570212517422" lon="-75.6827510976455">
        <ele>52.2851891</ele>
        <time>2019-09-10T15:02:38.900Z</time>
      </trkpt>
      <trkpt lat="10.1570195071967" lon="-75.6827489613338">
        <ele>52.2851891</ele>
        <time>2019-09-10T15:02:39.000Z</time>
      </trkpt>
      <trkpt lat="10.1570177758871" lon="-75.682746854962">
        <ele>52.2851891</ele>
        <time>2019-09-10T15:02:39.100Z</time>
      </trkpt>
      <trkpt lat="10.1570160338429" lon="-75.6827447640475">
        <ele>52.2851891</ele>
        <time>2019-09-10T15:02:39.200Z</time>
      </trkpt>
      <trkpt lat="10.1570143446384" lon="-75.6827427442923">
        <ele>52.2851891</ele>
        <time>2019-09-10T15:02:39.300Z</time>
      </trkpt>
      <trkpt lat="10.157012663042" lon="-75.6827407379056">
        <ele>52.2851891</ele>
        <time>2019-09-10T15:02:39.400Z</time>
      </trkpt>
      <trkpt lat="10.1570109245412" lon="-75.6827386411424">
        <ele>52.2851891</ele>
        <time>2019-09-10T15:02:39.500Z</time>
      </trkpt>
      <trkpt lat="10.1570091523773" lon="-75.6827365032989">
        <ele>52.2851891</ele>
        <time>2019-09-10T15:02:39.600Z</time>
      </trkpt>
      <trkpt lat="10.1570074090824" lon="-75.6827343743677">
        <ele>52.2851891</ele>
        <time>2019-09-10T15:02:39.700Z</time>
      </trkpt>
      <trkpt lat="10.1570039268698" lon="-75.6827301123278">
        <ele>52.2851891</ele>
        <time>2019-09-10T15:02:39.900Z</time>
      </trkpt>
      <trkpt lat="10.1570004155798" lon="-75.682725831767">
        <ele>52.2851891</ele>
        <time>2019-09-10T15:02:40.100Z</time>
      </trkpt>
      <trkpt lat="10.1569986665528" lon="-75.682723679441">
        <ele>52.2851891</ele>
        <time>2019-09-10T15:02:40.200Z</time>
      </trkpt>
      <trkpt lat="10.1569969277394" lon="-75.6827215446611">
        <ele>52.2851891</ele>
        <time>2019-09-10T15:02:40.300Z</time>
      </trkpt>
      <trkpt lat="10.1569951821516" lon="-75.6827194279844">
        <ele>52.2851891</ele>
        <time>2019-09-10T15:02:40.400Z</time>
      </trkpt>
      <trkpt lat="10.1569934172831" lon="-75.6827173028132">
        <ele>52.2851891</ele>
        <time>2019-09-10T15:02:40.500Z</time>
      </trkpt>
      <trkpt lat="10.1569916515808" lon="-75.6827151777812">
        <ele>52.2851891</ele>
        <time>2019-09-10T15:02:40.600Z</time>
      </trkpt>
      <trkpt lat="10.1569899011989" lon="-75.682713054838">
        <ele>52.2851891</ele>
        <time>2019-09-10T15:02:40.700Z</time>
      </trkpt>
      <trkpt lat="10.1569881585294" lon="-75.6827109537579">
        <ele>52.2851891</ele>
        <time>2019-09-10T15:02:40.800Z</time>
      </trkpt>
      <trkpt lat="10.1569864317013" lon="-75.6827088625649">
        <ele>52.2851891</ele>
        <time>2019-09-10T15:02:40.900Z</time>
      </trkpt>
      <trkpt lat="10.1569847072703" lon="-75.6827067784738">
        <ele>52.2851891</ele>
        <time>2019-09-10T15:02:41.000Z</time>
      </trkpt>
      <trkpt lat="10.1569829962837" lon="-75.6827047200057">
        <ele>52.2851891</ele>
        <time>2019-09-10T15:02:41.100Z</time>
      </trkpt>
      <trkpt lat="10.1569812839423" lon="-75.682702665019">
        <ele>52.2851891</ele>
        <time>2019-09-10T15:02:41.200Z</time>
      </trkpt>
      <trkpt lat="10.1569795648265" lon="-75.6827005947143">
        <ele>52.2851891</ele>
        <time>2019-09-10T15:02:41.300Z</time>
      </trkpt>
      <trkpt lat="10.1569778388322" lon="-75.6826985184215">
        <ele>52.2851891</ele>
        <time>2019-09-10T15:02:41.400Z</time>
      </trkpt>
      <trkpt lat="10.1569760992893" lon="-75.6826964259752">
        <ele>52.2851891</ele>
        <time>2019-09-10T15:02:41.500Z</time>
      </trkpt>
      <trkpt lat="10.1569743579746" lon="-75.6826943294905">
        <ele>52.2851891</ele>
        <time>2019-09-10T15:02:41.600Z</time>
      </trkpt>
      <trkpt lat="10.1569726369828" lon="-75.6826922199158">
        <ele>52.2851891</ele>
        <time>2019-09-10T15:02:41.700Z</time>
      </trkpt>
      <trkpt lat="10.1569709261005" lon="-75.6826901227348">
        <ele>52.2851891</ele>
        <time>2019-09-10T15:02:41.800Z</time>
      </trkpt>
      <trkpt lat="10.1569692170941" lon="-75.6826880503412">
        <ele>52.2851891</ele>
        <time>2019-09-10T15:02:41.900Z</time>
      </trkpt>
      <trkpt lat="10.1569675036063" lon="-75.682685987974">
        <ele>52.2851891</ele>
        <time>2019-09-10T15:02:42.000Z</time>
      </trkpt>
      <trkpt lat="10.1569657524948" lon="-75.6826838839695">
        <ele>52.2851891</ele>
        <time>2019-09-10T15:02:42.100Z</time>
      </trkpt>
      <trkpt lat="10.1569639961724" lon="-75.6826817789902">
        <ele>52.2851891</ele>
        <time>2019-09-10T15:02:42.200Z</time>
      </trkpt>
      <trkpt lat="10.1569622562125" lon="-75.682679716066">
        <ele>52.2851891</ele>
        <time>2019-09-10T15:02:42.300Z</time>
      </trkpt>
      <trkpt lat="10.1569605229228" lon="-75.6826776677635">
        <ele>52.2851891</ele>
        <time>2019-09-10T15:02:42.400Z</time>
      </trkpt>
      <trkpt lat="10.1569587866107" lon="-75.6826756063711">
        <ele>52.2851891</ele>
        <time>2019-09-10T15:02:42.500Z</time>
      </trkpt>
      <trkpt lat="10.1569570554054" lon="-75.6826735297998">
        <ele>52.2851891</ele>
        <time>2019-09-10T15:02:42.600Z</time>
      </trkpt>
      <trkpt lat="10.1569553452526" lon="-75.6826714536464">
        <ele>52.2851891</ele>
        <time>2019-09-10T15:02:42.700Z</time>
      </trkpt>
      <trkpt lat="10.1569536354124" lon="-75.6826693756826">
        <ele>52.2851891</ele>
        <time>2019-09-10T15:02:42.800Z</time>
      </trkpt>
      <trkpt lat="10.1569519440193" lon="-75.6826673089984">
        <ele>52.2851891</ele>
        <time>2019-09-10T15:02:42.900Z</time>
      </trkpt>
      <trkpt lat="10.1569502446012" lon="-75.6826652391114">
        <ele>52.2851891</ele>
        <time>2019-09-10T15:02:43.000Z</time>
      </trkpt>
      <trkpt lat="10.1569485349695" lon="-75.6826631576663">
        <ele>52.2851891</ele>
        <time>2019-09-10T15:02:43.100Z</time>
      </trkpt>
      <trkpt lat="10.156946807933" lon="-75.6826610638274">
        <ele>52.2851891</ele>
        <time>2019-09-10T15:02:43.200Z</time>
      </trkpt>
      <trkpt lat="10.1569450660972" lon="-75.6826589594051">
        <ele>52.2851891</ele>
        <time>2019-09-10T15:02:43.300Z</time>
      </trkpt>
      <trkpt lat="10.1569433160279" lon="-75.6826568520585">
        <ele>52.2851891</ele>
        <time>2019-09-10T15:02:43.400Z</time>
      </trkpt>
      <trkpt lat="10.1569398034873" lon="-75.6826526327699">
        <ele>52.2851891</ele>
        <time>2019-09-10T15:02:43.600Z</time>
      </trkpt>
      <trkpt lat="10.1569380453931" lon="-75.6826505216634">
        <ele>52.2851891</ele>
        <time>2019-09-10T15:02:43.700Z</time>
      </trkpt>
      <trkpt lat="10.1569362854229" lon="-75.6826484111139">
        <ele>52.2851891</ele>
        <time>2019-09-10T15:02:43.800Z</time>
      </trkpt>
      <trkpt lat="10.1569345358748" lon="-75.6826462922092">
        <ele>52.2851891</ele>
        <time>2019-09-10T15:02:43.900Z</time>
      </trkpt>
      <trkpt lat="10.156932791225" lon="-75.6826441614677">
        <ele>52.2851891</ele>
        <time>2019-09-10T15:02:44.000Z</time>
      </trkpt>
      <trkpt lat="10.1569310859706" lon="-75.6826420297515">
        <ele>52.2851891</ele>
        <time>2019-09-10T15:02:44.100Z</time>
      </trkpt>
      <trkpt lat="10.1569293816541" lon="-75.6826398973389">
        <ele>52.2851891</ele>
        <time>2019-09-10T15:02:44.200Z</time>
      </trkpt>
      <trkpt lat="10.1569276842162" lon="-75.6826377812193">
        <ele>52.2851891</ele>
        <time>2019-09-10T15:02:44.300Z</time>
      </trkpt>
      <trkpt lat="10.1569259715621" lon="-75.6826356634285">
        <ele>52.2851891</ele>
        <time>2019-09-10T15:02:44.400Z</time>
      </trkpt>
      <trkpt lat="10.1569242547392" lon="-75.6826335425742">
        <ele>52.2851891</ele>
        <time>2019-09-10T15:02:44.500Z</time>
      </trkpt>
      <trkpt lat="10.1569225264521" lon="-75.6826314158711">
        <ele>52.2851891</ele>
        <time>2019-09-10T15:02:44.600Z</time>
      </trkpt>
      <trkpt lat="10.1569207710676" lon="-75.6826292783062">
        <ele>52.2851891</ele>
        <time>2019-09-10T15:02:44.700Z</time>
      </trkpt>
      <trkpt lat="10.1569190072413" lon="-75.6826271371206">
        <ele>52.1851891</ele>
        <time>2019-09-10T15:02:44.800Z</time>
      </trkpt>
      <trkpt lat="10.1569172699912" lon="-75.6826250396611">
        <ele>52.1851891</ele>
        <time>2019-09-10T15:02:44.900Z</time>
      </trkpt>
      <trkpt lat="10.1569155446222" lon="-75.6826229534812">
        <ele>52.1851891</ele>
        <time>2019-09-10T15:02:45.000Z</time>
      </trkpt>
      <trkpt lat="10.1569137982007" lon="-75.6826208600601">
        <ele>52.1851891</ele>
        <time>2019-09-10T15:02:45.100Z</time>
      </trkpt>
      <trkpt lat="10.1569120426078" lon="-75.6826187503462">
        <ele>52.1851891</ele>
        <time>2019-09-10T15:02:45.200Z</time>
      </trkpt>
      <trkpt lat="10.1569102893077" lon="-75.6826166228076">
        <ele>52.1851891</ele>
        <time>2019-09-10T15:02:45.300Z</time>
      </trkpt>
      <trkpt lat="10.1569085419482" lon="-75.6826145002822">
        <ele>52.1851891</ele>
        <time>2019-09-10T15:02:45.400Z</time>
      </trkpt>
      <trkpt lat="10.1569068499298" lon="-75.6826124544863">
        <ele>52.1851891</ele>
        <time>2019-09-10T15:02:45.500Z</time>
      </trkpt>
      <trkpt lat="10.1569051657279" lon="-75.6826104340349">
        <ele>52.1851891</ele>
        <time>2019-09-10T15:02:45.600Z</time>
      </trkpt>
      <trkpt lat="10.1569034811091" lon="-75.6826084184573">
        <ele>52.1851891</ele>
        <time>2019-09-10T15:02:45.700Z</time>
      </trkpt>
      <trkpt lat="10.15690005726" lon="-75.6826043509567">
        <ele>52.2851891</ele>
        <time>2019-09-10T15:02:45.900Z</time>
      </trkpt>
      <trkpt lat="10.1568983236576" lon="-75.6826023133769">
        <ele>52.2851891</ele>
        <time>2019-09-10T15:02:46.000Z</time>
      </trkpt>
      <trkpt lat="10.1568965844273" lon="-75.6826002494778">
        <ele>52.2851891</ele>
        <time>2019-09-10T15:02:46.100Z</time>
      </trkpt>
      <trkpt lat="10.1568948402986" lon="-75.6825981740206">
        <ele>52.2851891</ele>
        <time>2019-09-10T15:02:46.200Z</time>
      </trkpt>
      <trkpt lat="10.1568930921053" lon="-75.6825961049691">
        <ele>52.2851891</ele>
        <time>2019-09-10T15:02:46.300Z</time>
      </trkpt>
      <trkpt lat="10.1568913434952" lon="-75.6825940414879">
        <ele>52.2851891</ele>
        <time>2019-09-10T15:02:46.400Z</time>
      </trkpt>
      <trkpt lat="10.1568895954062" lon="-75.6825919550295">
        <ele>52.2851891</ele>
        <time>2019-09-10T15:02:46.500Z</time>
      </trkpt>
      <trkpt lat="10.1568878485678" lon="-75.6825898603551">
        <ele>52.2851891</ele>
        <time>2019-09-10T15:02:46.600Z</time>
      </trkpt>
      <trkpt lat="10.1568861105881" lon="-75.6825877388045">
        <ele>52.2851891</ele>
        <time>2019-09-10T15:02:46.700Z</time>
      </trkpt>
      <trkpt lat="10.1568843727127" lon="-75.6825856210138">
        <ele>52.2851891</ele>
        <time>2019-09-10T15:02:46.800Z</time>
      </trkpt>
      <trkpt lat="10.1568826367132" lon="-75.682583495564">
        <ele>52.2851891</ele>
        <time>2019-09-10T15:02:46.900Z</time>
      </trkpt>
      <trkpt lat="10.1568808984209" lon="-75.6825813811154">
        <ele>52.2851891</ele>
        <time>2019-09-10T15:02:47.000Z</time>
      </trkpt>
      <trkpt lat="10.1568791636721" lon="-75.6825792567797">
        <ele>52.2851891</ele>
        <time>2019-09-10T15:02:47.100Z</time>
      </trkpt>
      <trkpt lat="10.1568756979264" lon="-75.6825749451649">
        <ele>52.2851891</ele>
        <time>2019-09-10T15:02:47.300Z</time>
      </trkpt>
      <trkpt lat="10.1568739616143" lon="-75.6825727713937">
        <ele>52.2851891</ele>
        <time>2019-09-10T15:02:47.400Z</time>
      </trkpt>
      <trkpt lat="10.1568722481264" lon="-75.6825706512356">
        <ele>52.2851891</ele>
        <time>2019-09-10T15:02:47.500Z</time>
      </trkpt>
      <trkpt lat="10.15687053912" lon="-75.6825685619921">
        <ele>52.2851891</ele>
        <time>2019-09-10T15:02:47.600Z</time>
      </trkpt>
      <trkpt lat="10.1568688302179" lon="-75.6825665159178">
        <ele>52.2851891</ele>
        <time>2019-09-10T15:02:47.700Z</time>
      </trkpt>
      <trkpt lat="10.1568653774997" lon="-75.6825624207054">
        <ele>52.2851891</ele>
        <time>2019-09-10T15:02:47.900Z</time>
      </trkpt>
      <trkpt lat="10.1568636372272" lon="-75.6825603526287">
        <ele>52.2851891</ele>
        <time>2019-09-10T15:02:48.000Z</time>
      </trkpt>
      <trkpt lat="10.1568618915352" lon="-75.6825583037692">
        <ele>52.2851891</ele>
        <time>2019-09-10T15:02:48.100Z</time>
      </trkpt>
      <trkpt lat="10.1568601399027" lon="-75.682556255606">
        <ele>52.2851891</ele>
        <time>2019-09-10T15:02:48.200Z</time>
      </trkpt>
      <trkpt lat="10.1568583849351" lon="-75.6825542254067">
        <ele>52.2851891</ele>
        <time>2019-09-10T15:02:48.300Z</time>
      </trkpt>
      <trkpt lat="10.1568566262156" lon="-75.682552186295">
        <ele>52.2851891</ele>
        <time>2019-09-10T15:02:48.400Z</time>
      </trkpt>
      <trkpt lat="10.1568548944892" lon="-75.6825501519181">
        <ele>52.2851891</ele>
        <time>2019-09-10T15:02:48.500Z</time>
      </trkpt>
      <trkpt lat="10.156853162867" lon="-75.6825481072362">
        <ele>52.2851891</ele>
        <time>2019-09-10T15:02:48.600Z</time>
      </trkpt>
      <trkpt lat="10.1568514378107" lon="-75.6825460633899">
        <ele>52.2851891</ele>
        <time>2019-09-10T15:02:48.700Z</time>
      </trkpt>
      <trkpt lat="10.1568497004563" lon="-75.6825439999086">
        <ele>52.2851891</ele>
        <time>2019-09-10T15:02:48.800Z</time>
      </trkpt>
      <trkpt lat="10.1568479539306" lon="-75.6825418977145">
        <ele>52.2851891</ele>
        <time>2019-09-10T15:02:48.900Z</time>
      </trkpt>
      <trkpt lat="10.1568462011516" lon="-75.6825397746321">
        <ele>52.2851891</ele>
        <time>2019-09-10T15:02:49.000Z</time>
      </trkpt>
      <trkpt lat="10.1568444487896" lon="-75.6825376309399">
        <ele>52.2851891</ele>
        <time>2019-09-10T15:02:49.100Z</time>
      </trkpt>
      <trkpt lat="10.1568426899658" lon="-75.6825354846019">
        <ele>52.2851891</ele>
        <time>2019-09-10T15:02:49.200Z</time>
      </trkpt>
      <trkpt lat="10.1568409318716" lon="-75.682533314312">
        <ele>52.2851891</ele>
        <time>2019-09-10T15:02:49.300Z</time>
      </trkpt>
      <trkpt lat="10.1568391742986" lon="-75.6825311502886">
        <ele>52.2851891</ele>
        <time>2019-09-10T15:02:49.400Z</time>
      </trkpt>
      <trkpt lat="10.1568374469494" lon="-75.6825290664761">
        <ele>52.2851891</ele>
        <time>2019-09-10T15:02:49.500Z</time>
      </trkpt>
      <trkpt lat="10.1568357229353" lon="-75.6825270295925">
        <ele>52.2851891</ele>
        <time>2019-09-10T15:02:49.600Z</time>
      </trkpt>
      <trkpt lat="10.1568339429548" lon="-75.6825249253095">
        <ele>52.2851891</ele>
        <time>2019-09-10T15:02:49.700Z</time>
      </trkpt>
      <trkpt lat="10.1568321461948" lon="-75.6825228073795">
        <ele>52.2851891</ele>
        <time>2019-09-10T15:02:49.800Z</time>
      </trkpt>
      <trkpt lat="10.1568286123932" lon="-75.6825186747075">
        <ele>52.2851891</ele>
        <time>2019-09-10T15:02:50.000Z</time>
      </trkpt>
      <trkpt lat="10.1568251390394" lon="-75.6825146119415">
        <ele>52.2851891</ele>
        <time>2019-09-10T15:02:50.200Z</time>
      </trkpt>
      <trkpt lat="10.1568234161717" lon="-75.682512575615">
        <ele>52.3851891</ele>
        <time>2019-09-10T15:02:50.300Z</time>
      </trkpt>
      <trkpt lat="10.1568216910111" lon="-75.6825105231349">
        <ele>52.3851891</ele>
        <time>2019-09-10T15:02:50.400Z</time>
      </trkpt>
      <trkpt lat="10.1568199899255" lon="-75.6825084752502">
        <ele>52.3851891</ele>
        <time>2019-09-10T15:02:50.500Z</time>
      </trkpt>
      <trkpt lat="10.1568165661806" lon="-75.6825043468951">
        <ele>52.3851891</ele>
        <time>2019-09-10T15:02:50.700Z</time>
      </trkpt>
      <trkpt lat="10.1568148328909" lon="-75.6825022609938">
        <ele>52.3851891</ele>
        <time>2019-09-10T15:02:50.800Z</time>
      </trkpt>
      <trkpt lat="10.1568131187777" lon="-75.6825001539257">
        <ele>52.3851891</ele>
        <time>2019-09-10T15:02:50.900Z</time>
      </trkpt>
      <trkpt lat="10.1568114013295" lon="-75.6824980393378">
        <ele>52.3851891</ele>
        <time>2019-09-10T15:02:51.000Z</time>
      </trkpt>
      <trkpt lat="10.1568079456932" lon="-75.6824938168463">
        <ele>52.3851891</ele>
        <time>2019-09-10T15:02:51.200Z</time>
      </trkpt>
      <trkpt lat="10.1568062124034" lon="-75.6824917152092">
        <ele>52.3851891</ele>
        <time>2019-09-10T15:02:51.300Z</time>
      </trkpt>
      <trkpt lat="10.1568044795306" lon="-75.6824896208133">
        <ele>52.3851891</ele>
        <time>2019-09-10T15:02:51.400Z</time>
      </trkpt>
      <trkpt lat="10.1568027515561" lon="-75.6824874992626">
        <ele>52.3851891</ele>
        <time>2019-09-10T15:02:51.500Z</time>
      </trkpt>
      <trkpt lat="10.1568010248322" lon="-75.6824853658753">
        <ele>52.3851891</ele>
        <time>2019-09-10T15:02:51.600Z</time>
      </trkpt>
      <trkpt lat="10.1567992938353" lon="-75.6824832227402">
        <ele>52.3851891</ele>
        <time>2019-09-10T15:02:51.700Z</time>
      </trkpt>
      <trkpt lat="10.1567975568979" lon="-75.6824810885174">
        <ele>52.3851891</ele>
        <time>2019-09-10T15:02:51.800Z</time>
      </trkpt>
      <trkpt lat="10.1567957909872" lon="-75.6824789283931">
        <ele>52.3851891</ele>
        <time>2019-09-10T15:02:51.900Z</time>
      </trkpt>
      <trkpt lat="10.1567922549969" lon="-75.6824746064735">
        <ele>52.3851891</ele>
        <time>2019-09-10T15:02:52.100Z</time>
      </trkpt>
      <trkpt lat="10.1567887894596" lon="-75.6824703622582">
        <ele>52.3851891</ele>
        <time>2019-09-10T15:02:52.300Z</time>
      </trkpt>
      <trkpt lat="10.1567853652979" lon="-75.6824661808469">
        <ele>52.3851891</ele>
        <time>2019-09-10T15:02:52.500Z</time>
      </trkpt>
      <trkpt lat="10.156783644723" lon="-75.6824640615244">
        <ele>52.3851891</ele>
        <time>2019-09-10T15:02:52.600Z</time>
      </trkpt>
      <trkpt lat="10.1567819721938" lon="-75.682461973952">
        <ele>52.3851891</ele>
        <time>2019-09-10T15:02:52.700Z</time>
      </trkpt>
      <trkpt lat="10.1567803161314" lon="-75.6824598922283">
        <ele>52.3851891</ele>
        <time>2019-09-10T15:02:52.800Z</time>
      </trkpt>
      <trkpt lat="10.156778640684" lon="-75.682457793794">
        <ele>52.3851891</ele>
        <time>2019-09-10T15:02:52.900Z</time>
      </trkpt>
      <trkpt lat="10.1567752587315" lon="-75.6824535632257">
        <ele>52.3851891</ele>
        <time>2019-09-10T15:02:53.100Z</time>
      </trkpt>
      <trkpt lat="10.1567718694836" lon="-75.6824493481148">
        <ele>52.3851891</ele>
        <time>2019-09-10T15:02:53.300Z</time>
      </trkpt>
      <trkpt lat="10.1567685082709" lon="-75.6824451434479">
        <ele>52.3851891</ele>
        <time>2019-09-10T15:02:53.500Z</time>
      </trkpt>
      <trkpt lat="10.1567668474144" lon="-75.6824430381901">
        <ele>52.3851891</ele>
        <time>2019-09-10T15:02:53.600Z</time>
      </trkpt>
      <trkpt lat="10.1567651877043" lon="-75.6824409382937">
        <ele>52.3851891</ele>
        <time>2019-09-10T15:02:53.700Z</time>
      </trkpt>
      <trkpt lat="10.156763518927" lon="-75.6824388354729">
        <ele>52.3851891</ele>
        <time>2019-09-10T15:02:53.800Z</time>
      </trkpt>
      <trkpt lat="10.1567618632814" lon="-75.6824367430265">
        <ele>52.2851891</ele>
        <time>2019-09-10T15:02:53.900Z</time>
      </trkpt>
      <trkpt lat="10.1567585048828" lon="-75.6824325612671">
        <ele>52.2851891</ele>
        <time>2019-09-10T15:02:54.100Z</time>
      </trkpt>
      <trkpt lat="10.1567567942089" lon="-75.6824304813538">
        <ele>52.2851891</ele>
        <time>2019-09-10T15:02:54.200Z</time>
      </trkpt>
      <trkpt lat="10.1567550668597" lon="-75.6824283544418">
        <ele>52.2851891</ele>
        <time>2019-09-10T15:02:54.300Z</time>
      </trkpt>
      <trkpt lat="10.1567533295054" lon="-75.6824262126992">
        <ele>52.2851891</ele>
        <time>2019-09-10T15:02:54.400Z</time>
      </trkpt>
      <trkpt lat="10.1567498189449" lon="-75.6824219131301">
        <ele>52.2851891</ele>
        <time>2019-09-10T15:02:54.600Z</time>
      </trkpt>
      <trkpt lat="10.1567481018093" lon="-75.6824197676972">
        <ele>52.2851891</ele>
        <time>2019-09-10T15:02:54.700Z</time>
      </trkpt>
      <trkpt lat="10.1567463969717" lon="-75.6824176292967">
        <ele>52.2851891</ele>
        <time>2019-09-10T15:02:54.800Z</time>
      </trkpt>
      <trkpt lat="10.1567446896329" lon="-75.6824154788507">
        <ele>52.2851891</ele>
        <time>2019-09-10T15:02:54.900Z</time>
      </trkpt>
      <trkpt lat="10.1567411924126" lon="-75.6824111184967">
        <ele>52.2851891</ele>
        <time>2019-09-10T15:02:55.100Z</time>
      </trkpt>
      <trkpt lat="10.1567394071169" lon="-75.6824089190328">
        <ele>52.2851891</ele>
        <time>2019-09-10T15:02:55.200Z</time>
      </trkpt>
      <trkpt lat="10.1567376422484" lon="-75.6824067737392">
        <ele>52.2851891</ele>
        <time>2019-09-10T15:02:55.300Z</time>
      </trkpt>
      <trkpt lat="10.1567358942636" lon="-75.6824046631898">
        <ele>52.2851891</ele>
        <time>2019-09-10T15:02:55.400Z</time>
      </trkpt>
      <trkpt lat="10.1567341508644" lon="-75.6824025496463">
        <ele>52.2851891</ele>
        <time>2019-09-10T15:02:55.500Z</time>
      </trkpt>
      <trkpt lat="10.1567324082991" lon="-75.6824004312289">
        <ele>52.2851891</ele>
        <time>2019-09-10T15:02:55.600Z</time>
      </trkpt>
      <trkpt lat="10.1567306997096" lon="-75.6823983016015">
        <ele>52.2851891</ele>
        <time>2019-09-10T15:02:55.700Z</time>
      </trkpt>
      <trkpt lat="10.1567289913285" lon="-75.6823961716956">
        <ele>52.2851891</ele>
        <time>2019-09-10T15:02:55.800Z</time>
      </trkpt>
      <trkpt lat="10.1567272912851" lon="-75.682394055924">
        <ele>52.2851891</ele>
        <time>2019-09-10T15:02:55.900Z</time>
      </trkpt>
      <trkpt lat="10.1567238880717" lon="-75.6823898834947">
        <ele>52.2851891</ele>
        <time>2019-09-10T15:02:56.100Z</time>
      </trkpt>
      <trkpt lat="10.1567221915717" lon="-75.6823878187602">
        <ele>52.2851891</ele>
        <time>2019-09-10T15:02:56.200Z</time>
      </trkpt>
      <trkpt lat="10.1567204658901" lon="-75.6823857268709">
        <ele>52.2851891</ele>
        <time>2019-09-10T15:02:56.300Z</time>
      </trkpt>
      <trkpt lat="10.1567187210319" lon="-75.6823836204294">
        <ele>52.3851891</ele>
        <time>2019-09-10T15:02:56.400Z</time>
      </trkpt>
      <trkpt lat="10.1567169661685" lon="-75.6823815002713">
        <ele>52.3851891</ele>
        <time>2019-09-10T15:02:56.500Z</time>
      </trkpt>
      <trkpt lat="10.1567152098461" lon="-75.6823793961972">
        <ele>52.3851891</ele>
        <time>2019-09-10T15:02:56.600Z</time>
      </trkpt>
      <trkpt lat="10.1567134743677" lon="-75.6823773494266">
        <ele>52.3851891</ele>
        <time>2019-09-10T15:02:56.700Z</time>
      </trkpt>
      <trkpt lat="10.1567100140415" lon="-75.6823733094288">
        <ele>52.3851891</ele>
        <time>2019-09-10T15:02:56.900Z</time>
      </trkpt>
      <trkpt lat="10.1567065407919" lon="-75.6823692388646">
        <ele>52.3851891</ele>
        <time>2019-09-10T15:02:57.100Z</time>
      </trkpt>
      <trkpt lat="10.1567047990603" lon="-75.6823671790039">
        <ele>52.3851891</ele>
        <time>2019-09-10T15:02:57.200Z</time>
      </trkpt>
      <trkpt lat="10.1567030346087" lon="-75.6823650899694">
        <ele>52.3851891</ele>
        <time>2019-09-10T15:02:57.300Z</time>
      </trkpt>
      <trkpt lat="10.1567012639038" lon="-75.6823630026755">
        <ele>52.2851891</ele>
        <time>2019-09-10T15:02:57.400Z</time>
      </trkpt>
      <trkpt lat="10.1566995007028" lon="-75.6823609143372">
        <ele>52.2851891</ele>
        <time>2019-09-10T15:02:57.500Z</time>
      </trkpt>
      <trkpt lat="10.1566977472985" lon="-75.6823588324046">
        <ele>52.2851891</ele>
        <time>2019-09-10T15:02:57.600Z</time>
      </trkpt>
      <trkpt lat="10.1566960068176" lon="-75.6823567130124">
        <ele>52.2851891</ele>
        <time>2019-09-10T15:02:57.700Z</time>
      </trkpt>
      <trkpt lat="10.1566925585809" lon="-75.6823524701897">
        <ele>52.3851891</ele>
        <time>2019-09-10T15:02:57.900Z</time>
      </trkpt>
      <trkpt lat="10.1566908552024" lon="-75.682350381364">
        <ele>52.3851891</ele>
        <time>2019-09-10T15:02:58.000Z</time>
      </trkpt>
      <trkpt lat="10.1566874421923" lon="-75.6823462422863">
        <ele>52.3851891</ele>
        <time>2019-09-10T15:02:58.200Z</time>
      </trkpt>
      <trkpt lat="10.1566857158853" lon="-75.6823441573597">
        <ele>52.3851891</ele>
        <time>2019-09-10T15:02:58.300Z</time>
      </trkpt>
      <trkpt lat="10.1566822207494" lon="-75.6823399523448">
        <ele>52.3851891</ele>
        <time>2019-09-10T15:02:58.500Z</time>
      </trkpt>
      <trkpt lat="10.1566787095636" lon="-75.6823357871567">
        <ele>52.3851891</ele>
        <time>2019-09-10T15:02:58.700Z</time>
      </trkpt>
      <trkpt lat="10.1566769717924" lon="-75.6823337324485">
        <ele>52.3851891</ele>
        <time>2019-09-10T15:02:58.800Z</time>
      </trkpt>
      <trkpt lat="10.1566752319368" lon="-75.6823316975145">
        <ele>52.3851891</ele>
        <time>2019-09-10T15:02:58.900Z</time>
      </trkpt>
      <trkpt lat="10.156671748682" lon="-75.682327581205">
        <ele>52.3851891</ele>
        <time>2019-09-10T15:02:59.100Z</time>
      </trkpt>
      <trkpt lat="10.1566700073673" lon="-75.6823255007346">
        <ele>52.3851891</ele>
        <time>2019-09-10T15:02:59.200Z</time>
      </trkpt>
      <trkpt lat="10.1566682745987" lon="-75.6823234421273">
        <ele>52.2851891</ele>
        <time>2019-09-10T15:02:59.300Z</time>
      </trkpt>
      <trkpt lat="10.1566665424554" lon="-75.6823213872798">
        <ele>52.2851891</ele>
        <time>2019-09-10T15:02:59.400Z</time>
      </trkpt>
      <trkpt lat="10.1566648163569" lon="-75.682319331945">
        <ele>52.2851891</ele>
        <time>2019-09-10T15:02:59.500Z</time>
      </trkpt>
      <trkpt lat="10.156663089633" lon="-75.6823172720843">
        <ele>52.2851891</ele>
        <time>2019-09-10T15:02:59.600Z</time>
      </trkpt>
      <trkpt lat="10.1566614241908" lon="-75.6823152770469">
        <ele>52.2851891</ele>
        <time>2019-09-10T15:02:59.700Z</time>
      </trkpt>
      <trkpt lat="10.1566597758407" lon="-75.6823133005304">
        <ele>52.2851891</ele>
        <time>2019-09-10T15:02:59.800Z</time>
      </trkpt>
      <trkpt lat="10.1566580574545" lon="-75.6823112539686">
        <ele>52.2851891</ele>
        <time>2019-09-10T15:02:59.900Z</time>
      </trkpt>
      <trkpt lat="10.1566545210473" lon="-75.6823070476307">
        <ele>52.2851891</ele>
        <time>2019-09-10T15:03:00.100Z</time>
      </trkpt>
      <trkpt lat="10.1566527697274" lon="-75.6823049418855">
        <ele>52.2851891</ele>
        <time>2019-09-10T15:03:00.200Z</time>
      </trkpt>
      <trkpt lat="10.1566509681733" lon="-75.6823027622656">
        <ele>52.2851891</ele>
        <time>2019-09-10T15:03:00.300Z</time>
      </trkpt>
      <trkpt lat="10.1566491718303" lon="-75.6823006123069">
        <ele>52.2851891</ele>
        <time>2019-09-10T15:03:00.400Z</time>
      </trkpt>
      <trkpt lat="10.1566473879936" lon="-75.6822984770397">
        <ele>52.2851891</ele>
        <time>2019-09-10T15:03:00.500Z</time>
      </trkpt>
      <trkpt lat="10.1566456220829" lon="-75.6822963783965">
        <ele>52.2851891</ele>
        <time>2019-09-10T15:03:00.600Z</time>
      </trkpt>
      <trkpt lat="10.1566438872298" lon="-75.6822942843488">
        <ele>52.2851891</ele>
        <time>2019-09-10T15:03:00.700Z</time>
      </trkpt>
      <trkpt lat="10.1566421588385" lon="-75.6822922006059">
        <ele>52.2851891</ele>
        <time>2019-09-10T15:03:00.800Z</time>
      </trkpt>
      <trkpt lat="10.1566404550431" lon="-75.6822901494487">
        <ele>52.2851891</ele>
        <time>2019-09-10T15:03:00.900Z</time>
      </trkpt>
      <trkpt lat="10.1566387383244" lon="-75.6822881068557">
        <ele>52.2851891</ele>
        <time>2019-09-10T15:03:01.000Z</time>
      </trkpt>
      <trkpt lat="10.1566369901312" lon="-75.6822860373168">
        <ele>52.2851891</ele>
        <time>2019-09-10T15:03:01.100Z</time>
      </trkpt>
      <trkpt lat="10.1566352194263" lon="-75.682283929065">
        <ele>52.2851891</ele>
        <time>2019-09-10T15:03:01.200Z</time>
      </trkpt>
      <trkpt lat="10.1566334851986" lon="-75.6822818265924">
        <ele>52.2851891</ele>
        <time>2019-09-10T15:03:01.300Z</time>
      </trkpt>
      <trkpt lat="10.15663175243" lon="-75.6822797193154">
        <ele>52.2851891</ele>
        <time>2019-09-10T15:03:01.400Z</time>
      </trkpt>
      <trkpt lat="10.1566299908965" lon="-75.6822775838393">
        <ele>52.2851891</ele>
        <time>2019-09-10T15:03:01.500Z</time>
      </trkpt>
      <trkpt lat="10.1566282231098" lon="-75.6822754610353">
        <ele>52.2851891</ele>
        <time>2019-09-10T15:03:01.600Z</time>
      </trkpt>
      <trkpt lat="10.156626462827" lon="-75.6822733481185">
        <ele>52.2851891</ele>
        <time>2019-09-10T15:03:01.700Z</time>
      </trkpt>
      <trkpt lat="10.1566246894124" lon="-75.6822712487095">
        <ele>52.2851891</ele>
        <time>2019-09-10T15:03:01.800Z</time>
      </trkpt>
      <trkpt lat="10.1566229276705" lon="-75.6822692021477">
        <ele>52.2851891</ele>
        <time>2019-09-10T15:03:01.900Z</time>
      </trkpt>
      <trkpt lat="10.1566211630104" lon="-75.6822671720876">
        <ele>52.2851891</ele>
        <time>2019-09-10T15:03:02.000Z</time>
      </trkpt>
      <trkpt lat="10.1566193664589" lon="-75.6822651049857">
        <ele>52.2851891</ele>
        <time>2019-09-10T15:03:02.100Z</time>
      </trkpt>
      <trkpt lat="10.1566157591818" lon="-75.6822608642518">
        <ele>52.2851891</ele>
        <time>2019-09-10T15:03:02.300Z</time>
      </trkpt>
      <trkpt lat="10.156613977638" lon="-75.682258729472">
        <ele>52.2851891</ele>
        <time>2019-09-10T15:03:02.400Z</time>
      </trkpt>
      <trkpt lat="10.1566122010968" lon="-75.6822565657967">
        <ele>52.2851891</ele>
        <time>2019-09-10T15:03:02.500Z</time>
      </trkpt>
      <trkpt lat="10.1566104297666" lon="-75.6822543964816">
        <ele>52.2851891</ele>
        <time>2019-09-10T15:03:02.600Z</time>
      </trkpt>
      <trkpt lat="10.1566086617715" lon="-75.6822522334329">
        <ele>52.2851891</ele>
        <time>2019-09-10T15:03:02.700Z</time>
      </trkpt>
      <trkpt lat="10.1566069177471" lon="-75.6822500948932">
        <ele>52.2851891</ele>
        <time>2019-09-10T15:03:02.800Z</time>
      </trkpt>
      <trkpt lat="10.1566051818518" lon="-75.6822479360919">
        <ele>52.2851891</ele>
        <time>2019-09-10T15:03:02.900Z</time>
      </trkpt>
      <trkpt lat="10.1566034597137" lon="-75.6822457885702">
        <ele>52.2851891</ele>
        <time>2019-09-10T15:03:03.000Z</time>
      </trkpt>
      <trkpt lat="10.1566017669657" lon="-75.6822436594998">
        <ele>52.2851891</ele>
        <time>2019-09-10T15:03:03.100Z</time>
      </trkpt>
      <trkpt lat="10.1566000763021" lon="-75.6822415498555">
        <ele>52.2851891</ele>
        <time>2019-09-10T15:03:03.200Z</time>
      </trkpt>
      <trkpt lat="10.1565983941846" lon="-75.6822394187659">
        <ele>52.2851891</ele>
        <time>2019-09-10T15:03:03.300Z</time>
      </trkpt>
      <trkpt lat="10.1565967003944" lon="-75.6822372833594">
        <ele>52.2851891</ele>
        <time>2019-09-10T15:03:03.400Z</time>
      </trkpt>
      <trkpt lat="10.1565949774225" lon="-75.6822351495543">
        <ele>52.2851891</ele>
        <time>2019-09-10T15:03:03.500Z</time>
      </trkpt>
      <trkpt lat="10.1565932308967" lon="-75.682233027377">
        <ele>52.2851891</ele>
        <time>2019-09-10T15:03:03.600Z</time>
      </trkpt>
      <trkpt lat="10.156591491458" lon="-75.682230948717">
        <ele>52.2851891</ele>
        <time>2019-09-10T15:03:03.700Z</time>
      </trkpt>
      <trkpt lat="10.1565897574387" lon="-75.6822288777159">
        <ele>52.2851891</ele>
        <time>2019-09-10T15:03:03.800Z</time>
      </trkpt>
      <trkpt lat="10.1565880240448" lon="-75.682226789308">
        <ele>52.2851891</ele>
        <time>2019-09-10T15:03:03.900Z</time>
      </trkpt>
      <trkpt lat="10.1565862848145" lon="-75.6822246853035">
        <ele>52.2851891</ele>
        <time>2019-09-10T15:03:04.000Z</time>
      </trkpt>
      <trkpt lat="10.1565828009344" lon="-75.6822204440126">
        <ele>52.2851891</ele>
        <time>2019-09-10T15:03:04.200Z</time>
      </trkpt>
      <trkpt lat="10.1565810917196" lon="-75.6822183547691">
        <ele>52.2851891</ele>
        <time>2019-09-10T15:03:04.300Z</time>
      </trkpt>
      <trkpt lat="10.1565793895918" lon="-75.6822162773624">
        <ele>52.2851891</ele>
        <time>2019-09-10T15:03:04.400Z</time>
      </trkpt>
      <trkpt lat="10.1565777145612" lon="-75.6822141936195">
        <ele>52.2851891</ele>
        <time>2019-09-10T15:03:04.500Z</time>
      </trkpt>
      <trkpt lat="10.1565760334859" lon="-75.6822121051419">
        <ele>52.2851891</ele>
        <time>2019-09-10T15:03:04.600Z</time>
      </trkpt>
      <trkpt lat="10.1565743361522" lon="-75.6822099906237">
        <ele>52.2851891</ele>
        <time>2019-09-10T15:03:04.700Z</time>
      </trkpt>
      <trkpt lat="10.1565726077609" lon="-75.6822078715796">
        <ele>52.2851891</ele>
        <time>2019-09-10T15:03:04.800Z</time>
      </trkpt>
      <trkpt lat="10.1565708576916" lon="-75.6822057477313">
        <ele>52.2851891</ele>
        <time>2019-09-10T15:03:04.900Z</time>
      </trkpt>
      <trkpt lat="10.1565690992848" lon="-75.6822036331434">
        <ele>52.2851891</ele>
        <time>2019-09-10T15:03:05.000Z</time>
      </trkpt>
      <trkpt lat="10.1565673154482" lon="-75.6822014634802">
        <ele>52.2851891</ele>
        <time>2019-09-10T15:03:05.100Z</time>
      </trkpt>
      <trkpt lat="10.1565655241076" lon="-75.6821993002923">
        <ele>52.2851891</ele>
        <time>2019-09-10T15:03:05.200Z</time>
      </trkpt>
      <trkpt lat="10.156563738395" lon="-75.6821971632844">
        <ele>52.2851891</ele>
        <time>2019-09-10T15:03:05.300Z</time>
      </trkpt>
      <trkpt lat="10.1565619645636" lon="-75.682195056077">
        <ele>52.2851891</ele>
        <time>2019-09-10T15:03:05.400Z</time>
      </trkpt>
      <trkpt lat="10.1565601590491" lon="-75.6821928992253">
        <ele>52.3851891</ele>
        <time>2019-09-10T15:03:05.500Z</time>
      </trkpt>
      <trkpt lat="10.1565583631229" lon="-75.6821907408417">
        <ele>52.3851891</ele>
        <time>2019-09-10T15:03:05.600Z</time>
      </trkpt>
      <trkpt lat="10.1565565901252" lon="-75.6821885922059">
        <ele>52.3851891</ele>
        <time>2019-09-10T15:03:05.700Z</time>
      </trkpt>
      <trkpt lat="10.1565548346365" lon="-75.6821864680791">
        <ele>52.3851891</ele>
        <time>2019-09-10T15:03:05.800Z</time>
      </trkpt>
      <trkpt lat="10.1565531139574" lon="-75.682184384754">
        <ele>52.3851891</ele>
        <time>2019-09-10T15:03:05.900Z</time>
      </trkpt>
      <trkpt lat="10.1565514034919" lon="-75.682182314867">
        <ele>52.2851891</ele>
        <time>2019-09-10T15:03:06.000Z</time>
      </trkpt>
      <trkpt lat="10.1565479458754" lon="-75.6821781100609">
        <ele>52.2851891</ele>
        <time>2019-09-10T15:03:06.200Z</time>
      </trkpt>
      <trkpt lat="10.1565462074789" lon="-75.6821759934538">
        <ele>52.2851891</ele>
        <time>2019-09-10T15:03:06.300Z</time>
      </trkpt>
      <trkpt lat="10.1565444634545" lon="-75.6821738731565">
        <ele>52.2851891</ele>
        <time>2019-09-10T15:03:06.400Z</time>
      </trkpt>
      <trkpt lat="10.1565427421501" lon="-75.682171751397">
        <ele>52.2851891</ele>
        <time>2019-09-10T15:03:06.500Z</time>
      </trkpt>
      <trkpt lat="10.156541021471" lon="-75.6821696359736">
        <ele>52.2851891</ele>
        <time>2019-09-10T15:03:06.600Z</time>
      </trkpt>
      <trkpt lat="10.1565393074621" lon="-75.6821675340579">
        <ele>52.2851891</ele>
        <time>2019-09-10T15:03:06.700Z</time>
      </trkpt>
      <trkpt lat="10.1565375834479" lon="-75.6821654373643">
        <ele>52.2851891</ele>
        <time>2019-09-10T15:03:06.800Z</time>
      </trkpt>
      <trkpt lat="10.1565358569325" lon="-75.6821633199914">
        <ele>52.2851891</ele>
        <time>2019-09-10T15:03:06.900Z</time>
      </trkpt>
      <trkpt lat="10.156532392229" lon="-75.6821590968036">
        <ele>52.2851891</ele>
        <time>2019-09-10T15:03:07.100Z</time>
      </trkpt>
      <trkpt lat="10.1565306559169" lon="-75.6821569988567">
        <ele>52.2851891</ele>
        <time>2019-09-10T15:03:07.200Z</time>
      </trkpt>
      <trkpt lat="10.1565289185626" lon="-75.6821549000046">
        <ele>52.2851891</ele>
        <time>2019-09-10T15:03:07.300Z</time>
      </trkpt>
      <trkpt lat="10.1565271762057" lon="-75.6821528106915">
        <ele>52.2851891</ele>
        <time>2019-09-10T15:03:07.400Z</time>
      </trkpt>
      <trkpt lat="10.1565254359331" lon="-75.6821507485332">
        <ele>52.2851891</ele>
        <time>2019-09-10T15:03:07.500Z</time>
      </trkpt>
      <trkpt lat="10.1565236983704" lon="-75.6821486879067">
        <ele>52.2851891</ele>
        <time>2019-09-10T15:03:07.600Z</time>
      </trkpt>
      <trkpt lat="10.1565219908231" lon="-75.68214661795">
        <ele>52.2851891</ele>
        <time>2019-09-10T15:03:07.700Z</time>
      </trkpt>
      <trkpt lat="10.156520284318" lon="-75.6821445342072">
        <ele>52.2851891</ele>
        <time>2019-09-10T15:03:07.800Z</time>
      </trkpt>
      <trkpt lat="10.1565185723934" lon="-75.6821424605603">
        <ele>52.2851891</ele>
        <time>2019-09-10T15:03:07.900Z</time>
      </trkpt>
      <trkpt lat="10.1565168469202" lon="-75.6821403869134">
        <ele>52.2851891</ele>
        <time>2019-09-10T15:03:08.000Z</time>
      </trkpt>
      <trkpt lat="10.1565150601654" lon="-75.6821382753891">
        <ele>52.2851891</ele>
        <time>2019-09-10T15:03:08.100Z</time>
      </trkpt>
      <trkpt lat="10.1565132646561" lon="-75.6821361541867">
        <ele>52.2851891</ele>
        <time>2019-09-10T15:03:08.200Z</time>
      </trkpt>
      <trkpt lat="10.1565114968694" lon="-75.6821340510873">
        <ele>52.2851891</ele>
        <time>2019-09-10T15:03:08.300Z</time>
      </trkpt>
      <trkpt lat="10.156509749093" lon="-75.6821319576662">
        <ele>52.2851891</ele>
        <time>2019-09-10T15:03:08.400Z</time>
      </trkpt>
      <trkpt lat="10.156508007153" lon="-75.6821298879881">
        <ele>52.2851891</ele>
        <time>2019-09-10T15:03:08.500Z</time>
      </trkpt>
      <trkpt lat="10.1565062572922" lon="-75.6821278189366">
        <ele>52.2851891</ele>
        <time>2019-09-10T15:03:08.600Z</time>
      </trkpt>
      <trkpt lat="10.1565045353625" lon="-75.6821257271866">
        <ele>52.2851891</ele>
        <time>2019-09-10T15:03:08.700Z</time>
      </trkpt>
      <trkpt lat="10.1565028117653" lon="-75.6821236268724">
        <ele>52.2851891</ele>
        <time>2019-09-10T15:03:08.800Z</time>
      </trkpt>
      <trkpt lat="10.1565010704506" lon="-75.682121553504">
        <ele>52.2851891</ele>
        <time>2019-09-10T15:03:08.900Z</time>
      </trkpt>
      <trkpt lat="10.1564975696868" lon="-75.6821174339916">
        <ele>52.2851891</ele>
        <time>2019-09-10T15:03:09.100Z</time>
      </trkpt>
      <trkpt lat="10.1564941176982" lon="-75.6821132767411">
        <ele>52.1851891</ele>
        <time>2019-09-10T15:03:09.300Z</time>
      </trkpt>
      <trkpt lat="10.1564924053568" lon="-75.6821111831807">
        <ele>52.1851891</ele>
        <time>2019-09-10T15:03:09.400Z</time>
      </trkpt>
      <trkpt lat="10.1564907157354" lon="-75.682109128751">
        <ele>52.1851891</ele>
        <time>2019-09-10T15:03:09.500Z</time>
      </trkpt>
      <trkpt lat="10.1564890192355" lon="-75.6821070881772">
        <ele>52.2851891</ele>
        <time>2019-09-10T15:03:09.600Z</time>
      </trkpt>
      <trkpt lat="10.1564873269043" lon="-75.6821050376467">
        <ele>52.2851891</ele>
        <time>2019-09-10T15:03:09.700Z</time>
      </trkpt>
      <trkpt lat="10.1564856170642" lon="-75.682102971241">
        <ele>52.2851891</ele>
        <time>2019-09-10T15:03:09.800Z</time>
      </trkpt>
      <trkpt lat="10.1564839013877" lon="-75.6821008879159">
        <ele>52.2851891</ele>
        <time>2019-09-10T15:03:09.900Z</time>
      </trkpt>
      <trkpt lat="10.1564821767483" lon="-75.682098799508">
        <ele>52.2851891</ele>
        <time>2019-09-10T15:03:10.000Z</time>
      </trkpt>
      <trkpt lat="10.1564804033337" lon="-75.6820966586705">
        <ele>52.2851891</ele>
        <time>2019-09-10T15:03:10.100Z</time>
      </trkpt>
      <trkpt lat="10.1564786295022" lon="-75.6820945146999">
        <ele>52.2851891</ele>
        <time>2019-09-10T15:03:10.200Z</time>
      </trkpt>
      <trkpt lat="10.1564751458306" lon="-75.6820902037814">
        <ele>52.2851891</ele>
        <time>2019-09-10T15:03:10.400Z</time>
      </trkpt>
      <trkpt lat="10.1564734293203" lon="-75.6820881010302">
        <ele>52.2851891</ele>
        <time>2019-09-10T15:03:10.500Z</time>
      </trkpt>
      <trkpt lat="10.1564717138523" lon="-75.682086018471">
        <ele>52.2851891</ele>
        <time>2019-09-10T15:03:10.600Z</time>
      </trkpt>
      <trkpt lat="10.1564699752473" lon="-75.6820839191316">
        <ele>52.2851891</ele>
        <time>2019-09-10T15:03:10.700Z</time>
      </trkpt>
      <trkpt lat="10.1564682258034" lon="-75.6820818176337">
        <ele>52.2851891</ele>
        <time>2019-09-10T15:03:10.800Z</time>
      </trkpt>
      <trkpt lat="10.1564664719823" lon="-75.6820797437779">
        <ele>52.2851891</ele>
        <time>2019-09-10T15:03:10.900Z</time>
      </trkpt>
      <trkpt lat="10.1564647279578" lon="-75.6820776780686">
        <ele>52.2851891</ele>
        <time>2019-09-10T15:03:11.000Z</time>
      </trkpt>
      <trkpt lat="10.1564630091547" lon="-75.6820756065801">
        <ele>52.2851891</ele>
        <time>2019-09-10T15:03:11.100Z</time>
      </trkpt>
      <trkpt lat="10.156461296188" lon="-75.6820735245779">
        <ele>52.2851891</ele>
        <time>2019-09-10T15:03:11.200Z</time>
      </trkpt>
      <trkpt lat="10.1564596274107" lon="-75.6820714848396">
        <ele>52.2851891</ele>
        <time>2019-09-10T15:03:11.300Z</time>
      </trkpt>
      <trkpt lat="10.1564579521717" lon="-75.6820694553366">
        <ele>52.2851891</ele>
        <time>2019-09-10T15:03:11.400Z</time>
      </trkpt>
      <trkpt lat="10.156456267136" lon="-75.6820674152502">
        <ele>52.2851891</ele>
        <time>2019-09-10T15:03:11.500Z</time>
      </trkpt>
      <trkpt lat="10.1564545575043" lon="-75.6820653456417">
        <ele>52.2851891</ele>
        <time>2019-09-10T15:03:11.600Z</time>
      </trkpt>
      <trkpt lat="10.1564528614213" lon="-75.6820632788879">
        <ele>52.2851891</ele>
        <time>2019-09-10T15:03:11.700Z</time>
      </trkpt>
      <trkpt lat="10.1564511563753" lon="-75.6820612127608">
        <ele>52.2851891</ele>
        <time>2019-09-10T15:03:11.800Z</time>
      </trkpt>
      <trkpt lat="10.1564494361131" lon="-75.6820591337526">
        <ele>52.2851891</ele>
        <time>2019-09-10T15:03:11.900Z</time>
      </trkpt>
      <trkpt lat="10.1564477027191" lon="-75.6820570467372">
        <ele>52.2851891</ele>
        <time>2019-09-10T15:03:12.000Z</time>
      </trkpt>
      <trkpt lat="10.1564459930874" lon="-75.682054949974">
        <ele>52.2851891</ele>
        <time>2019-09-10T15:03:12.100Z</time>
      </trkpt>
      <trkpt lat="10.1564442851233" lon="-75.6820528552996">
        <ele>52.2851891</ele>
        <time>2019-09-10T15:03:12.200Z</time>
      </trkpt>
      <trkpt lat="10.1564425715312" lon="-75.6820507735063">
        <ele>52.2851891</ele>
        <time>2019-09-10T15:03:12.300Z</time>
      </trkpt>
      <trkpt lat="10.1564408481424" lon="-75.6820486972832">
        <ele>52.2851891</ele>
        <time>2019-09-10T15:03:12.400Z</time>
      </trkpt>
      <trkpt lat="10.1564391508087" lon="-75.6820466071346">
        <ele>52.2851891</ele>
        <time>2019-09-10T15:03:12.500Z</time>
      </trkpt>
      <trkpt lat="10.1564374626464" lon="-75.6820445031997">
        <ele>52.2851891</ele>
        <time>2019-09-10T15:03:12.600Z</time>
      </trkpt>
      <trkpt lat="10.1564357778192" lon="-75.6820423892385">
        <ele>52.2851891</ele>
        <time>2019-09-10T15:03:12.700Z</time>
      </trkpt>
      <trkpt lat="10.1564340884062" lon="-75.6820402855125">
        <ele>52.2851891</ele>
        <time>2019-09-10T15:03:12.800Z</time>
      </trkpt>
      <trkpt lat="10.1564324117082" lon="-75.6820381872871">
        <ele>52.2851891</ele>
        <time>2019-09-10T15:03:12.900Z</time>
      </trkpt>
      <trkpt lat="10.1564307377199" lon="-75.6820360919861">
        <ele>52.2851891</ele>
        <time>2019-09-10T15:03:13.000Z</time>
      </trkpt>
      <trkpt lat="10.156429060188" lon="-75.6820339957799">
        <ele>52.2851891</ele>
        <time>2019-09-10T15:03:13.100Z</time>
      </trkpt>
      <trkpt lat="10.1564273801549" lon="-75.6820319056313">
        <ele>52.2851891</ele>
        <time>2019-09-10T15:03:13.200Z</time>
      </trkpt>
      <trkpt lat="10.1564239638097" lon="-75.6820276539658">
        <ele>52.2851891</ele>
        <time>2019-09-10T15:03:13.400Z</time>
      </trkpt>
      <trkpt lat="10.1564222502176" lon="-75.6820255264969">
        <ele>52.2851891</ele>
        <time>2019-09-10T15:03:13.500Z</time>
      </trkpt>
      <trkpt lat="10.1564205445463" lon="-75.6820234212391">
        <ele>52.2851891</ele>
        <time>2019-09-10T15:03:13.600Z</time>
      </trkpt>
      <trkpt lat="10.1564188693073" lon="-75.6820213482189">
        <ele>52.2851891</ele>
        <time>2019-09-10T15:03:13.700Z</time>
      </trkpt>
      <trkpt lat="10.1564171967781" lon="-75.682019279237">
        <ele>52.2851891</ele>
        <time>2019-09-10T15:03:13.800Z</time>
      </trkpt>
      <trkpt lat="10.1564155198716" lon="-75.682017188601">
        <ele>52.2851891</ele>
        <time>2019-09-10T15:03:13.900Z</time>
      </trkpt>
      <trkpt lat="10.156413823997" lon="-75.6820150779123">
        <ele>52.2851891</ele>
        <time>2019-09-10T15:03:14.000Z</time>
      </trkpt>
      <trkpt lat="10.1564120828907" lon="-75.6820129571972">
        <ele>52.2851891</ele>
        <time>2019-09-10T15:03:14.100Z</time>
      </trkpt>
      <trkpt lat="10.1564103173969" lon="-75.6820108336274">
        <ele>52.2851891</ele>
        <time>2019-09-10T15:03:14.200Z</time>
      </trkpt>
      <trkpt lat="10.1564085519031" lon="-75.6820086932773">
        <ele>52.2851891</ele>
        <time>2019-09-10T15:03:14.300Z</time>
      </trkpt>
      <trkpt lat="10.1564067874514" lon="-75.6820065545983">
        <ele>52.2851891</ele>
        <time>2019-09-10T15:03:14.400Z</time>
      </trkpt>
      <trkpt lat="10.1564032181106" lon="-75.6820023119148">
        <ele>52.2851891</ele>
        <time>2019-09-10T15:03:14.600Z</time>
      </trkpt>
      <trkpt lat="10.1564014409441" lon="-75.6820001861169">
        <ele>52.2851891</ele>
        <time>2019-09-10T15:03:14.700Z</time>
      </trkpt>
      <trkpt lat="10.1563996733658" lon="-75.6819980549577">
        <ele>52.2851891</ele>
        <time>2019-09-10T15:03:14.800Z</time>
      </trkpt>
      <trkpt lat="10.1563979162096" lon="-75.681995958473">
        <ele>52.2851891</ele>
        <time>2019-09-10T15:03:14.900Z</time>
      </trkpt>
      <trkpt lat="10.1563961532171" lon="-75.681993879047">
        <ele>52.2851891</ele>
        <time>2019-09-10T15:03:15.000Z</time>
      </trkpt>
      <trkpt lat="10.1563943785518" lon="-75.6819917804735">
        <ele>52.2851891</ele>
        <time>2019-09-10T15:03:15.100Z</time>
      </trkpt>
      <trkpt lat="10.1563925947152" lon="-75.6819896676959">
        <ele>52.2851891</ele>
        <time>2019-09-10T15:03:15.200Z</time>
      </trkpt>
      <trkpt lat="10.1563908102532" lon="-75.6819875334731">
        <ele>52.2851891</ele>
        <time>2019-09-10T15:03:15.300Z</time>
      </trkpt>
      <trkpt lat="10.1563890249575" lon="-75.6819854000162">
        <ele>52.2851891</ele>
        <time>2019-09-10T15:03:15.400Z</time>
      </trkpt>
      <trkpt lat="10.1563872386196" lon="-75.6819832706673">
        <ele>52.2851891</ele>
        <time>2019-09-10T15:03:15.500Z</time>
      </trkpt>
      <trkpt lat="10.1563854579096" lon="-75.6819811597696">
        <ele>52.2851891</ele>
        <time>2019-09-10T15:03:15.600Z</time>
      </trkpt>
      <trkpt lat="10.1563836771995" lon="-75.6819790592465">
        <ele>52.2851891</ele>
        <time>2019-09-10T15:03:15.700Z</time>
      </trkpt>
      <trkpt lat="10.156381900033" lon="-75.6819769661039">
        <ele>52.2851891</ele>
        <time>2019-09-10T15:03:15.800Z</time>
      </trkpt>
      <trkpt lat="10.1563801009802" lon="-75.6819748230384">
        <ele>52.2851891</ele>
        <time>2019-09-10T15:03:15.900Z</time>
      </trkpt>
      <trkpt lat="10.1563783065131" lon="-75.6819726812958">
        <ele>52.2851891</ele>
        <time>2019-09-10T15:03:16.000Z</time>
      </trkpt>
      <trkpt lat="10.1563765299719" lon="-75.6819705367681">
        <ele>52.2851891</ele>
        <time>2019-09-10T15:03:16.100Z</time>
      </trkpt>
      <trkpt lat="10.156374769689" lon="-75.6819684175848">
        <ele>52.2851891</ele>
        <time>2019-09-10T15:03:16.200Z</time>
      </trkpt>
      <trkpt lat="10.1563730006517" lon="-75.6819662986104">
        <ele>52.2851891</ele>
        <time>2019-09-10T15:03:16.300Z</time>
      </trkpt>
      <trkpt lat="10.1563712282793" lon="-75.6819641936311">
        <ele>52.2851891</ele>
        <time>2019-09-10T15:03:16.400Z</time>
      </trkpt>
      <trkpt lat="10.1563694652868" lon="-75.6819620916459">
        <ele>52.2851891</ele>
        <time>2019-09-10T15:03:16.500Z</time>
      </trkpt>
      <trkpt lat="10.1563677148007" lon="-75.6819599957878">
        <ele>52.2851891</ele>
        <time>2019-09-10T15:03:16.600Z</time>
      </trkpt>
      <trkpt lat="10.1563659789054" lon="-75.6819579220016">
        <ele>52.2851891</ele>
        <time>2019-09-10T15:03:16.700Z</time>
      </trkpt>
      <trkpt lat="10.156364240092" lon="-75.6819558553175">
        <ele>52.2851891</ele>
        <time>2019-09-10T15:03:16.800Z</time>
      </trkpt>
      <trkpt lat="10.1563625062812" lon="-75.6819538056921">
        <ele>52.2851891</ele>
        <time>2019-09-10T15:03:16.900Z</time>
      </trkpt>
      <trkpt lat="10.1563607726788" lon="-75.681951740679">
        <ele>52.2851891</ele>
        <time>2019-09-10T15:03:17.000Z</time>
      </trkpt>
      <trkpt lat="10.1563590009317" lon="-75.6819496278319">
        <ele>52.2851891</ele>
        <time>2019-09-10T15:03:17.100Z</time>
      </trkpt>
      <trkpt lat="10.156357222723" lon="-75.6819475023125">
        <ele>52.2851891</ele>
        <time>2019-09-10T15:03:17.200Z</time>
      </trkpt>
      <trkpt lat="10.1563554814082" lon="-75.6819453838255">
        <ele>52.2851891</ele>
        <time>2019-09-10T15:03:17.300Z</time>
      </trkpt>
      <trkpt lat="10.1563537609376" lon="-75.6819432794032">
        <ele>52.2851891</ele>
        <time>2019-09-10T15:03:17.400Z</time>
      </trkpt>
      <trkpt lat="10.1563520458865" lon="-75.6819412088199">
        <ele>52.2851891</ele>
        <time>2019-09-10T15:03:17.500Z</time>
      </trkpt>
      <trkpt lat="10.1563503293762" lon="-75.6819391564791">
        <ele>52.2851891</ele>
        <time>2019-09-10T15:03:17.600Z</time>
      </trkpt>
      <trkpt lat="10.1563485866024" lon="-75.6819370796293">
        <ele>52.2851891</ele>
        <time>2019-09-10T15:03:17.700Z</time>
      </trkpt>
      <trkpt lat="10.1563468331981" lon="-75.6819349898985">
        <ele>52.2851891</ele>
        <time>2019-09-10T15:03:17.800Z</time>
      </trkpt>
      <trkpt lat="10.1563450889653" lon="-75.6819329120739">
        <ele>52.2851891</ele>
        <time>2019-09-10T15:03:17.900Z</time>
      </trkpt>
      <trkpt lat="10.15634335307" lon="-75.6819308439972">
        <ele>52.2851891</ele>
        <time>2019-09-10T15:03:18.000Z</time>
      </trkpt>
      <trkpt lat="10.1563415873677" lon="-75.6819287568426">
        <ele>52.2851891</ele>
        <time>2019-09-10T15:03:18.100Z</time>
      </trkpt>
      <trkpt lat="10.1563398131194" lon="-75.6819266654407">
        <ele>52.2851891</ele>
        <time>2019-09-10T15:03:18.200Z</time>
      </trkpt>
      <trkpt lat="10.1563380403301" lon="-75.6819245519669">
        <ele>52.2851891</ele>
        <time>2019-09-10T15:03:18.300Z</time>
      </trkpt>
      <trkpt lat="10.1563362752531" lon="-75.6819224395375">
        <ele>52.2851891</ele>
        <time>2019-09-10T15:03:18.400Z</time>
      </trkpt>
      <trkpt lat="10.1563344909996" lon="-75.6819203107456">
        <ele>52.2851891</ele>
        <time>2019-09-10T15:03:18.500Z</time>
      </trkpt>
      <trkpt lat="10.1563327096643" lon="-75.6819181876631">
        <ele>52.2851891</ele>
        <time>2019-09-10T15:03:18.600Z</time>
      </trkpt>
      <trkpt lat="10.1563309894021" lon="-75.6819161224412">
        <ele>52.2851891</ele>
        <time>2019-09-10T15:03:18.700Z</time>
      </trkpt>
      <trkpt lat="10.1563275895237" lon="-75.6819120158795">
        <ele>52.2851891</ele>
        <time>2019-09-10T15:03:18.900Z</time>
      </trkpt>
      <trkpt lat="10.1563258744725" lon="-75.681909946271">
        <ele>52.2851891</ele>
        <time>2019-09-10T15:03:19.000Z</time>
      </trkpt>
      <trkpt lat="10.1563241652577" lon="-75.6819078718582">
        <ele>52.2851891</ele>
        <time>2019-09-10T15:03:19.100Z</time>
      </trkpt>
      <trkpt lat="10.1563224427027" lon="-75.681905789299">
        <ele>52.2851891</ele>
        <time>2019-09-10T15:03:19.200Z</time>
      </trkpt>
      <trkpt lat="10.156320690549" lon="-75.6819036994986">
        <ele>52.2851891</ele>
        <time>2019-09-10T15:03:19.300Z</time>
      </trkpt>
      <trkpt lat="10.1563189254721" lon="-75.6819016061471">
        <ele>52.2851891</ele>
        <time>2019-09-10T15:03:19.400Z</time>
      </trkpt>
      <trkpt lat="10.1563171618542" lon="-75.6818995283922">
        <ele>52.2851891</ele>
        <time>2019-09-10T15:03:19.500Z</time>
      </trkpt>
      <trkpt lat="10.1563154084499" lon="-75.6818974531438">
        <ele>52.2851891</ele>
        <time>2019-09-10T15:03:19.600Z</time>
      </trkpt>
      <trkpt lat="10.1563137225805" lon="-75.681895440421">
        <ele>52.2851891</ele>
        <time>2019-09-10T15:03:19.700Z</time>
      </trkpt>
      <trkpt lat="10.1563120581804" lon="-75.6818934485169">
        <ele>52.2851891</ele>
        <time>2019-09-10T15:03:19.800Z</time>
      </trkpt>
      <trkpt lat="10.156310335417" lon="-75.6818913757751">
        <ele>52.2851891</ele>
        <time>2019-09-10T15:03:19.900Z</time>
      </trkpt>
      <trkpt lat="10.1563085611686" lon="-75.6818892492113">
        <ele>52.2851891</ele>
        <time>2019-09-10T15:03:20.000Z</time>
      </trkpt>
      <trkpt lat="10.1563067737885" lon="-75.6818871391493">
        <ele>52.2851891</ele>
        <time>2019-09-10T15:03:20.100Z</time>
      </trkpt>
      <trkpt lat="10.1563049945375" lon="-75.6818850570774">
        <ele>52.2851891</ele>
        <time>2019-09-10T15:03:20.200Z</time>
      </trkpt>
      <trkpt lat="10.1563032163288" lon="-75.681882995128">
        <ele>52.2851891</ele>
        <time>2019-09-10T15:03:20.300Z</time>
      </trkpt>
      <trkpt lat="10.1563014491674" lon="-75.6818809445278">
        <ele>52.2851891</ele>
        <time>2019-09-10T15:03:20.400Z</time>
      </trkpt>
      <trkpt lat="10.1562996970138" lon="-75.6818788696972">
        <ele>52.2851891</ele>
        <time>2019-09-10T15:03:20.500Z</time>
      </trkpt>
      <trkpt lat="10.1562979496543" lon="-75.6818767782953">
        <ele>52.2851891</ele>
        <time>2019-09-10T15:03:20.600Z</time>
      </trkpt>
      <trkpt lat="10.1562961564378" lon="-75.6818746648215">
        <ele>52.2851891</ele>
        <time>2019-09-10T15:03:20.700Z</time>
      </trkpt>
      <trkpt lat="10.15629435405" lon="-75.6818725577534">
        <ele>52.2851891</ele>
        <time>2019-09-10T15:03:20.800Z</time>
      </trkpt>
      <trkpt lat="10.156292588973" lon="-75.6818704646108">
        <ele>52.2851891</ele>
        <time>2019-09-10T15:03:20.900Z</time>
      </trkpt>
      <trkpt lat="10.1562908474499" lon="-75.6818683665247">
        <ele>52.2851891</ele>
        <time>2019-09-10T15:03:21.000Z</time>
      </trkpt>
      <trkpt lat="10.1562890775788" lon="-75.6818661904557">
        <ele>52.2851891</ele>
        <time>2019-09-10T15:03:21.100Z</time>
      </trkpt>
      <trkpt lat="10.1562872933252" lon="-75.681864001819">
        <ele>52.2851891</ele>
        <time>2019-09-10T15:03:21.200Z</time>
      </trkpt>
      <trkpt lat="10.1562855211613" lon="-75.6818618163503">
        <ele>52.2851891</ele>
        <time>2019-09-10T15:03:21.300Z</time>
      </trkpt>
      <trkpt lat="10.1562837602531" lon="-75.681859660717">
        <ele>52.2851891</ele>
        <time>2019-09-10T15:03:21.400Z</time>
      </trkpt>
      <trkpt lat="10.1562820393656" lon="-75.6818575627701">
        <ele>52.2851891</ele>
        <time>2019-09-10T15:03:21.500Z</time>
      </trkpt>
      <trkpt lat="10.1562803257736" lon="-75.6818554800716">
        <ele>52.2851891</ele>
        <time>2019-09-10T15:03:21.600Z</time>
      </trkpt>
      <trkpt lat="10.1562786236457" lon="-75.6818534214295">
        <ele>52.2851891</ele>
        <time>2019-09-10T15:03:21.700Z</time>
      </trkpt>
      <trkpt lat="10.1562769046342" lon="-75.6818513562771">
        <ele>52.2851891</ele>
        <time>2019-09-10T15:03:21.800Z</time>
      </trkpt>
      <trkpt lat="10.1562751887493" lon="-75.6818493248941">
        <ele>52.2851891</ele>
        <time>2019-09-10T15:03:21.900Z</time>
      </trkpt>
      <trkpt lat="10.1562734655689" lon="-75.6818472858521">
        <ele>52.2851891</ele>
        <time>2019-09-10T15:03:22.000Z</time>
      </trkpt>
      <trkpt lat="10.1562717436392" lon="-75.6818452400911">
        <ele>52.2851891</ele>
        <time>2019-09-10T15:03:22.100Z</time>
      </trkpt>
      <trkpt lat="10.1562700192082" lon="-75.6818431714574">
        <ele>52.2851891</ele>
        <time>2019-09-10T15:03:22.200Z</time>
      </trkpt>
      <trkpt lat="10.1562683231252" lon="-75.6818410904996">
        <ele>52.2851891</ele>
        <time>2019-09-10T15:03:22.300Z</time>
      </trkpt>
      <trkpt lat="10.1562649297084" lon="-75.6818368984701">
        <ele>52.2851891</ele>
        <time>2019-09-10T15:03:22.500Z</time>
      </trkpt>
      <trkpt lat="10.156263219243" lon="-75.6818347971811">
        <ele>52.2851891</ele>
        <time>2019-09-10T15:03:22.600Z</time>
      </trkpt>
      <trkpt lat="10.1562615169067" lon="-75.6818326906352">
        <ele>52.2851891</ele>
        <time>2019-09-10T15:03:22.700Z</time>
      </trkpt>
      <trkpt lat="10.1562598087341" lon="-75.6818305853426">
        <ele>52.2851891</ele>
        <time>2019-09-10T15:03:22.800Z</time>
      </trkpt>
      <trkpt lat="10.1562580926407" lon="-75.6818284418941">
        <ele>52.2851891</ele>
        <time>2019-09-10T15:03:22.900Z</time>
      </trkpt>
      <trkpt lat="10.1562563700857" lon="-75.6818262880712">
        <ele>52.2851891</ele>
        <time>2019-09-10T15:03:23.000Z</time>
      </trkpt>
      <trkpt lat="10.1562529035062" lon="-75.6818219593281">
        <ele>52.2851891</ele>
        <time>2019-09-10T15:03:23.200Z</time>
      </trkpt>
      <trkpt lat="10.1562511894972" lon="-75.6818197839206">
        <ele>52.2851891</ele>
        <time>2019-09-10T15:03:23.300Z</time>
      </trkpt>
      <trkpt lat="10.1562494821584" lon="-75.6818176235526">
        <ele>52.2851891</ele>
        <time>2019-09-10T15:03:23.400Z</time>
      </trkpt>
      <trkpt lat="10.1562477625215" lon="-75.681815474708">
        <ele>52.2851891</ele>
        <time>2019-09-10T15:03:23.500Z</time>
      </trkpt>
      <trkpt lat="10.1562460374652" lon="-75.6818133436532">
        <ele>52.2851891</ele>
        <time>2019-09-10T15:03:23.600Z</time>
      </trkpt>
      <trkpt lat="10.1562443157439" lon="-75.6818111896213">
        <ele>52.2851891</ele>
        <time>2019-09-10T15:03:23.700Z</time>
      </trkpt>
      <trkpt lat="10.156242599859" lon="-75.6818090434922">
        <ele>52.2851891</ele>
        <time>2019-09-10T15:03:23.800Z</time>
      </trkpt>
      <trkpt lat="10.1562408785546" lon="-75.6818069270244">
        <ele>52.2851891</ele>
        <time>2019-09-10T15:03:23.900Z</time>
      </trkpt>
      <trkpt lat="10.1562392352071" lon="-75.6818048695659">
        <ele>52.2851891</ele>
        <time>2019-09-10T15:03:24.000Z</time>
      </trkpt>
      <trkpt lat="10.1562377740369" lon="-75.6818028749811">
        <ele>52.2851891</ele>
        <time>2019-09-10T15:03:24.100Z</time>
      </trkpt>
      <trkpt lat="10.1562365052575" lon="-75.681800910162">
        <ele>52.2851891</ele>
        <time>2019-09-10T15:03:24.200Z</time>
      </trkpt>
      <trkpt lat="10.1562355285038" lon="-75.6817989894868">
        <ele>52.2851891</ele>
        <time>2019-09-10T15:03:24.300Z</time>
      </trkpt>
      <trkpt lat="10.1562347902064" lon="-75.6817970717707">
        <ele>52.2851891</ele>
        <time>2019-09-10T15:03:24.400Z</time>
      </trkpt>
      <trkpt lat="10.1562343693643" lon="-75.6817952388262">
        <ele>52.2851891</ele>
        <time>2019-09-10T15:03:24.500Z</time>
      </trkpt>
      <trkpt lat="10.1562342144928" lon="-75.6817934238455">
        <ele>52.1851891</ele>
        <time>2019-09-10T15:03:24.600Z</time>
      </trkpt>
      <trkpt lat="10.1562344243927" lon="-75.6817916843063">
        <ele>52.1851891</ele>
        <time>2019-09-10T15:03:24.700Z</time>
      </trkpt>
      <trkpt lat="10.1562349083923" lon="-75.6817899317468">
        <ele>52.1851891</ele>
        <time>2019-09-10T15:03:24.800Z</time>
      </trkpt>
      <trkpt lat="10.1562357598731" lon="-75.6817882679971">
        <ele>52.1851891</ele>
        <time>2019-09-10T15:03:24.900Z</time>
      </trkpt>
      <trkpt lat="10.1562368919153" lon="-75.6817865907397">
        <ele>52.1851891</ele>
        <time>2019-09-10T15:03:25.000Z</time>
      </trkpt>
      <trkpt lat="10.1562383722621" lon="-75.6817850229368">
        <ele>52.1851891</ele>
        <time>2019-09-10T15:03:25.100Z</time>
      </trkpt>
      <trkpt lat="10.1562401352546" lon="-75.6817834552731">
        <ele>52.1851891</ele>
        <time>2019-09-10T15:03:25.200Z</time>
      </trkpt>
      <trkpt lat="10.1562421715131" lon="-75.6817820499112">
        <ele>52.2851891</ele>
        <time>2019-09-10T15:03:25.300Z</time>
      </trkpt>
      <trkpt lat="10.1562443420075" lon="-75.6817806343836">
        <ele>52.2851891</ele>
        <time>2019-09-10T15:03:25.400Z</time>
      </trkpt>
      <trkpt lat="10.1562465712822" lon="-75.6817793484677">
        <ele>52.2851891</ele>
        <time>2019-09-10T15:03:25.500Z</time>
      </trkpt>
      <trkpt lat="10.1562488691339" lon="-75.6817780055617">
        <ele>52.2851891</ele>
        <time>2019-09-10T15:03:25.600Z</time>
      </trkpt>
      <trkpt lat="10.1562511476006" lon="-75.6817767318654">
        <ele>52.2851891</ele>
        <time>2019-09-10T15:03:25.700Z</time>
      </trkpt>
      <trkpt lat="10.156253475051" lon="-75.6817753761827">
        <ele>52.3851891</ele>
        <time>2019-09-10T15:03:25.800Z</time>
      </trkpt>
      <trkpt lat="10.1562557237107" lon="-75.6817740422586">
        <ele>52.3851891</ele>
        <time>2019-09-10T15:03:25.900Z</time>
      </trkpt>
      <trkpt lat="10.1562580221877" lon="-75.6817726229712">
        <ele>52.3851891</ele>
        <time>2019-09-10T15:03:26.000Z</time>
      </trkpt>
      <trkpt lat="10.1562602291592" lon="-75.6817712456692">
        <ele>52.3851891</ele>
        <time>2019-09-10T15:03:26.100Z</time>
      </trkpt>
      <trkpt lat="10.1562624953279" lon="-75.6817698058764">
        <ele>52.3851891</ele>
        <time>2019-09-10T15:03:26.200Z</time>
      </trkpt>
      <trkpt lat="10.1562647629558" lon="-75.6817683060648">
        <ele>52.3851891</ele>
        <time>2019-09-10T15:03:26.300Z</time>
      </trkpt>
      <trkpt lat="10.1562671122924" lon="-75.6817667206461">
        <ele>52.3851891</ele>
        <time>2019-09-10T15:03:26.400Z</time>
      </trkpt>
      <trkpt lat="10.1562693713741" lon="-75.6817650995433">
        <ele>52.3851891</ele>
        <time>2019-09-10T15:03:26.500Z</time>
      </trkpt>
      <trkpt lat="10.1562716294136" lon="-75.6817634666734">
        <ele>52.3851891</ele>
        <time>2019-09-10T15:03:26.600Z</time>
      </trkpt>
      <trkpt lat="10.1562738424299" lon="-75.6817618660063">
        <ele>52.2851891</ele>
        <time>2019-09-10T15:03:26.700Z</time>
      </trkpt>
      <trkpt lat="10.1562760954669" lon="-75.681760269865">
        <ele>52.2851891</ele>
        <time>2019-09-10T15:03:26.800Z</time>
      </trkpt>
      <trkpt lat="10.1562783691395" lon="-75.6817586554464">
        <ele>52.2851891</ele>
        <time>2019-09-10T15:03:26.900Z</time>
      </trkpt>
      <trkpt lat="10.1562806809567" lon="-75.681757025118">
        <ele>52.2851891</ele>
        <time>2019-09-10T15:03:27.000Z</time>
      </trkpt>
      <trkpt lat="10.1562829923571" lon="-75.6817553527345">
        <ele>52.2851891</ele>
        <time>2019-09-10T15:03:27.100Z</time>
      </trkpt>
      <trkpt lat="10.1562852889582" lon="-75.6817536529526">
        <ele>52.2851891</ele>
        <time>2019-09-10T15:03:27.200Z</time>
      </trkpt>
      <trkpt lat="10.1562875888943" lon="-75.6817518803403">
        <ele>52.2851891</ele>
        <time>2019-09-10T15:03:27.300Z</time>
      </trkpt>
      <trkpt lat="10.1562921070578" lon="-75.6817482004561">
        <ele>52.2851891</ele>
        <time>2019-09-10T15:03:27.500Z</time>
      </trkpt>
      <trkpt lat="10.1562943215332" lon="-75.6817463252825">
        <ele>52.2851891</ele>
        <time>2019-09-10T15:03:27.600Z</time>
      </trkpt>
      <trkpt lat="10.1562965897863" lon="-75.6817444096204">
        <ele>52.2851891</ele>
        <time>2019-09-10T15:03:27.700Z</time>
      </trkpt>
      <trkpt lat="10.1562988626252" lon="-75.681742481495">
        <ele>52.2851891</ele>
        <time>2019-09-10T15:03:27.800Z</time>
      </trkpt>
      <trkpt lat="10.1563011769437" lon="-75.6817404949522">
        <ele>52.2851891</ele>
        <time>2019-09-10T15:03:27.900Z</time>
      </trkpt>
      <trkpt lat="10.1563034681253" lon="-75.6817385221956">
        <ele>52.2851891</ele>
        <time>2019-09-10T15:03:28.000Z</time>
      </trkpt>
      <trkpt lat="10.156305771605" lon="-75.6817365394474">
        <ele>52.2851891</ele>
        <time>2019-09-10T15:03:28.100Z</time>
      </trkpt>
      <trkpt lat="10.1563080369399" lon="-75.6817345922789">
        <ele>52.2851891</ele>
        <time>2019-09-10T15:03:28.200Z</time>
      </trkpt>
      <trkpt lat="10.1563103068606" lon="-75.6817326389136">
        <ele>52.2851891</ele>
        <time>2019-09-10T15:03:28.300Z</time>
      </trkpt>
      <trkpt lat="10.1563125423885" lon="-75.6817307010404">
        <ele>52.2851891</ele>
        <time>2019-09-10T15:03:28.400Z</time>
      </trkpt>
      <trkpt lat="10.1563147774995" lon="-75.6817287204855">
        <ele>52.2851891</ele>
        <time>2019-09-10T15:03:28.500Z</time>
      </trkpt>
      <trkpt lat="10.1563169784263" lon="-75.6817267492955">
        <ele>52.2851891</ele>
        <time>2019-09-10T15:03:28.600Z</time>
      </trkpt>
      <trkpt lat="10.1563191826881" lon="-75.6817247678355">
        <ele>52.2851891</ele>
        <time>2019-09-10T15:03:28.700Z</time>
      </trkpt>
      <trkpt lat="10.1563213586019" lon="-75.6817228075074">
        <ele>52.2851891</ele>
        <time>2019-09-10T15:03:28.800Z</time>
      </trkpt>
      <trkpt lat="10.1563235290963" lon="-75.6817207992059">
        <ele>52.2851891</ele>
        <time>2019-09-10T15:03:28.900Z</time>
      </trkpt>
      <trkpt lat="10.1563256270533" lon="-75.6817188670073">
        <ele>52.2851891</ele>
        <time>2019-09-10T15:03:29.000Z</time>
      </trkpt>
      <trkpt lat="10.1563276620611" lon="-75.681717040747">
        <ele>52.2851891</ele>
        <time>2019-09-10T15:03:29.100Z</time>
      </trkpt>
      <trkpt lat="10.1563296397477" lon="-75.6817154047091">
        <ele>52.3851891</ele>
        <time>2019-09-10T15:03:29.200Z</time>
      </trkpt>
      <trkpt lat="10.1563315546936" lon="-75.6817140177289">
        <ele>52.2851891</ele>
        <time>2019-09-10T15:03:29.300Z</time>
      </trkpt>
      <trkpt lat="10.1563334223235" lon="-75.6817128764642">
        <ele>52.2851891</ele>
        <time>2019-09-10T15:03:29.400Z</time>
      </trkpt>
      <trkpt lat="10.1563352443048" lon="-75.6817120101585">
        <ele>52.2851891</ele>
        <time>2019-09-10T15:03:29.500Z</time>
      </trkpt>
      <trkpt lat="10.1563370385635" lon="-75.6817114366366">
        <ele>52.2851891</ele>
        <time>2019-09-10T15:03:29.600Z</time>
      </trkpt>
      <trkpt lat="10.1563386940006" lon="-75.6817112281022">
        <ele>52.2851891</ele>
        <time>2019-09-10T15:03:29.700Z</time>
      </trkpt>
      <trkpt lat="10.1563402937839" lon="-75.6817113456682">
        <ele>52.2851891</ele>
        <time>2019-09-10T15:03:29.800Z</time>
      </trkpt>
      <trkpt lat="10.1563418729317" lon="-75.6817118144704">
        <ele>52.2851891</ele>
        <time>2019-09-10T15:03:29.900Z</time>
      </trkpt>
      <trkpt lat="10.1563434766754" lon="-75.6817125720874">
        <ele>52.2851891</ele>
        <time>2019-09-10T15:03:30.000Z</time>
      </trkpt>
      <trkpt lat="10.1563449336768" lon="-75.6817136268051">
        <ele>52.2851891</ele>
        <time>2019-09-10T15:03:30.100Z</time>
      </trkpt>
      <trkpt lat="10.1563463510745" lon="-75.6817149842633">
        <ele>52.2851891</ele>
        <time>2019-09-10T15:03:30.200Z</time>
      </trkpt>
      <trkpt lat="10.1563476254817" lon="-75.6817166428606">
        <ele>52.2851891</ele>
        <time>2019-09-10T15:03:30.300Z</time>
      </trkpt>
      <trkpt lat="10.1563488836306" lon="-75.681718556573">
        <ele>52.2851891</ele>
        <time>2019-09-10T15:03:30.400Z</time>
      </trkpt>
      <trkpt lat="10.1563500221344" lon="-75.6817205737172">
        <ele>52.3851891</ele>
        <time>2019-09-10T15:03:30.500Z</time>
      </trkpt>
      <trkpt lat="10.1563512310913" lon="-75.6817227221092">
        <ele>52.3851891</ele>
        <time>2019-09-10T15:03:30.600Z</time>
      </trkpt>
      <trkpt lat="10.1563523729301" lon="-75.6817248891962">
        <ele>52.3851891</ele>
        <time>2019-09-10T15:03:30.700Z</time>
      </trkpt>
      <trkpt lat="10.1563536016888" lon="-75.6817271651807">
        <ele>52.3851891</ele>
        <time>2019-09-10T15:03:30.800Z</time>
      </trkpt>
      <trkpt lat="10.1563548083528" lon="-75.6817293899541">
        <ele>52.3851891</ele>
        <time>2019-09-10T15:03:30.900Z</time>
      </trkpt>
      <trkpt lat="10.1563561188203" lon="-75.6817317105002">
        <ele>52.3851891</ele>
        <time>2019-09-10T15:03:31.000Z</time>
      </trkpt>
      <trkpt lat="10.1563574495066" lon="-75.6817339824115">
        <ele>52.2851891</ele>
        <time>2019-09-10T15:03:31.100Z</time>
      </trkpt>
      <trkpt lat="10.1563588785769" lon="-75.6817363481806">
        <ele>52.2851891</ele>
        <time>2019-09-10T15:03:31.200Z</time>
      </trkpt>
      <trkpt lat="10.1563603270323" lon="-75.6817386480821">
        <ele>52.2851891</ele>
        <time>2019-09-10T15:03:31.300Z</time>
      </trkpt>
      <trkpt lat="10.1563618363523" lon="-75.6817410410409">
        <ele>52.2851891</ele>
        <time>2019-09-10T15:03:31.400Z</time>
      </trkpt>
      <trkpt lat="10.1563633652658" lon="-75.681743427942">
        <ele>52.2851891</ele>
        <time>2019-09-10T15:03:31.500Z</time>
      </trkpt>
      <trkpt lat="10.1563649485824" lon="-75.6817459009723">
        <ele>52.2851891</ele>
        <time>2019-09-10T15:03:31.600Z</time>
      </trkpt>
      <trkpt lat="10.1563665512839" lon="-75.6817483027041">
        <ele>52.2851891</ele>
        <time>2019-09-10T15:03:31.700Z</time>
      </trkpt>
      <trkpt lat="10.1563682096392" lon="-75.6817507290144">
        <ele>52.2851891</ele>
        <time>2019-09-10T15:03:31.800Z</time>
      </trkpt>
      <trkpt lat="10.1563699132261" lon="-75.6817531250715">
        <ele>52.2851891</ele>
        <time>2019-09-10T15:03:31.900Z</time>
      </trkpt>
      <trkpt lat="10.1563716382824" lon="-75.6817555636711">
        <ele>52.2851891</ele>
        <time>2019-09-10T15:03:32.000Z</time>
      </trkpt>
      <trkpt lat="10.156373401275" lon="-75.6817579924531">
        <ele>52.2851891</ele>
        <time>2019-09-10T15:03:32.100Z</time>
      </trkpt>
      <trkpt lat="10.1563770767122" lon="-75.6817628740736">
        <ele>52.2851891</ele>
        <time>2019-09-10T15:03:32.300Z</time>
      </trkpt>
      <trkpt lat="10.1563789487193" lon="-75.6817653278171">
        <ele>52.2851891</ele>
        <time>2019-09-10T15:03:32.400Z</time>
      </trkpt>
      <trkpt lat="10.156380832816" lon="-75.6817677753638">
        <ele>52.2851891</ele>
        <time>2019-09-10T15:03:32.500Z</time>
      </trkpt>
      <trkpt lat="10.156382696277" lon="-75.681770217201">
        <ele>52.1851891</ele>
        <time>2019-09-10T15:03:32.600Z</time>
      </trkpt>
      <trkpt lat="10.1563846097638" lon="-75.6817726967068">
        <ele>52.1851891</ele>
        <time>2019-09-10T15:03:32.700Z</time>
      </trkpt>
      <trkpt lat="10.1563865178312" lon="-75.6817751853337">
        <ele>52.1851891</ele>
        <time>2019-09-10T15:03:32.800Z</time>
      </trkpt>
      <trkpt lat="10.1563884746737" lon="-75.6817776982954">
        <ele>52.1851891</ele>
        <time>2019-09-10T15:03:32.900Z</time>
      </trkpt>
      <trkpt lat="10.1563904119228" lon="-75.6817801858083">
        <ele>52.1851891</ele>
        <time>2019-09-10T15:03:33.000Z</time>
      </trkpt>
      <trkpt lat="10.1563924083691" lon="-75.6817826529551">
        <ele>52.2851891</ele>
        <time>2019-09-10T15:03:33.100Z</time>
      </trkpt>
      <trkpt lat="10.1563943768843" lon="-75.6817850851838">
        <ele>52.2851891</ele>
        <time>2019-09-10T15:03:33.200Z</time>
      </trkpt>
      <trkpt lat="10.1563963739559" lon="-75.681787505889">
        <ele>52.2851891</ele>
        <time>2019-09-10T15:03:33.300Z</time>
      </trkpt>
      <trkpt lat="10.1563983508088" lon="-75.6817898938694">
        <ele>52.2851891</ele>
        <time>2019-09-10T15:03:33.400Z</time>
      </trkpt>
      <trkpt lat="10.1564003449622" lon="-75.6817922205079">
        <ele>52.2851891</ele>
        <time>2019-09-10T15:03:33.500Z</time>
      </trkpt>
      <trkpt lat="10.1564023093086" lon="-75.6817945246567">
        <ele>52.2851891</ele>
        <time>2019-09-10T15:03:33.600Z</time>
      </trkpt>
      <trkpt lat="10.1564043174276" lon="-75.6817967984131">
        <ele>52.2851891</ele>
        <time>2019-09-10T15:03:33.700Z</time>
      </trkpt>
      <trkpt lat="10.1564062986577" lon="-75.6817990565033">
        <ele>52.2851891</ele>
        <time>2019-09-10T15:03:33.800Z</time>
      </trkpt>
      <trkpt lat="10.1564082600859" lon="-75.6818012615721">
        <ele>52.2851891</ele>
        <time>2019-09-10T15:03:33.900Z</time>
      </trkpt>
      <trkpt lat="10.1564101671111" lon="-75.6818034558835">
        <ele>52.2851891</ele>
        <time>2019-09-10T15:03:34.000Z</time>
      </trkpt>
      <trkpt lat="10.1564121366685" lon="-75.6818057064539">
        <ele>52.2851891</ele>
        <time>2019-09-10T15:03:34.100Z</time>
      </trkpt>
      <trkpt lat="10.1564140762104" lon="-75.6818079678166">
        <ele>52.2851891</ele>
        <time>2019-09-10T15:03:34.200Z</time>
      </trkpt>
      <trkpt lat="10.1564159926154" lon="-75.6818101600043">
        <ele>52.2851891</ele>
        <time>2019-09-10T15:03:34.300Z</time>
      </trkpt>
      <trkpt lat="10.1564178512823" lon="-75.6818123109378">
        <ele>52.2851891</ele>
        <time>2019-09-10T15:03:34.400Z</time>
      </trkpt>
      <trkpt lat="10.1564197622679" lon="-75.6818144674762">
        <ele>52.2851891</ele>
        <time>2019-09-10T15:03:34.500Z</time>
      </trkpt>
      <trkpt lat="10.1564216611638" lon="-75.6818166072693">
        <ele>52.2851891</ele>
        <time>2019-09-10T15:03:34.600Z</time>
      </trkpt>
      <trkpt lat="10.1564235554741" lon="-75.6818186527866">
        <ele>52.2851891</ele>
        <time>2019-09-10T15:03:34.700Z</time>
      </trkpt>
      <trkpt lat="10.1564254051781" lon="-75.6818206658924">
        <ele>52.2851891</ele>
        <time>2019-09-10T15:03:34.800Z</time>
      </trkpt>
      <trkpt lat="10.1564272840637" lon="-75.6818226651771">
        <ele>52.2851891</ele>
        <time>2019-09-10T15:03:34.900Z</time>
      </trkpt>
      <trkpt lat="10.1564291158417" lon="-75.6818246916861">
        <ele>52.2851891</ele>
        <time>2019-09-10T15:03:35.000Z</time>
      </trkpt>
      <trkpt lat="10.1564309430341" lon="-75.6818267142961">
        <ele>52.2851891</ele>
        <time>2019-09-10T15:03:35.100Z</time>
      </trkpt>
      <trkpt lat="10.156432727496" lon="-75.6818287398303">
        <ele>52.2851891</ele>
        <time>2019-09-10T15:03:35.200Z</time>
      </trkpt>
      <trkpt lat="10.1564344979925" lon="-75.6818307574619">
        <ele>52.2851891</ele>
        <time>2019-09-10T15:03:35.300Z</time>
      </trkpt>
      <trkpt lat="10.1564362357637" lon="-75.681832786756">
        <ele>52.2851891</ele>
        <time>2019-09-10T15:03:35.400Z</time>
      </trkpt>
      <trkpt lat="10.1564379649888" lon="-75.6818347664058">
        <ele>52.2851891</ele>
        <time>2019-09-10T15:03:35.500Z</time>
      </trkpt>
      <trkpt lat="10.1564396679504" lon="-75.6818367381876">
        <ele>52.2851891</ele>
        <time>2019-09-10T15:03:35.600Z</time>
      </trkpt>
      <trkpt lat="10.1564414144761" lon="-75.681838712093">
        <ele>52.2851891</ele>
        <time>2019-09-10T15:03:35.700Z</time>
      </trkpt>
      <trkpt lat="10.1564431282767" lon="-75.6818407062601">
        <ele>52.2851891</ele>
        <time>2019-09-10T15:03:35.800Z</time>
      </trkpt>
      <trkpt lat="10.1564447803787" lon="-75.681842642323">
        <ele>52.2851891</ele>
        <time>2019-09-10T15:03:35.900Z</time>
      </trkpt>
      <trkpt lat="10.1564463905841" lon="-75.6818445752179">
        <ele>52.2851891</ele>
        <time>2019-09-10T15:03:36.000Z</time>
      </trkpt>
      <trkpt lat="10.1564480570686" lon="-75.6818465670524">
        <ele>52.2851891</ele>
        <time>2019-09-10T15:03:36.100Z</time>
      </trkpt>
      <trkpt lat="10.1564497227192" lon="-75.6818486047367">
        <ele>52.2851891</ele>
        <time>2019-09-10T15:03:36.200Z</time>
      </trkpt>
      <trkpt lat="10.1564513942063" lon="-75.6818506552672">
        <ele>52.2851891</ele>
        <time>2019-09-10T15:03:36.300Z</time>
      </trkpt>
      <trkpt lat="10.1564547317609" lon="-75.6818547585564">
        <ele>52.2851891</ele>
        <time>2019-09-10T15:03:36.500Z</time>
      </trkpt>
      <trkpt lat="10.1564564030395" lon="-75.6818568162934">
        <ele>52.2851891</ele>
        <time>2019-09-10T15:03:36.600Z</time>
      </trkpt>
      <trkpt lat="10.1564581053757" lon="-75.6818589163291">
        <ele>52.2851891</ele>
        <time>2019-09-10T15:03:36.700Z</time>
      </trkpt>
      <trkpt lat="10.1564597866595" lon="-75.6818610232928">
        <ele>52.2851891</ele>
        <time>2019-09-10T15:03:36.800Z</time>
      </trkpt>
      <trkpt lat="10.1564614437641" lon="-75.6818630883755">
        <ele>52.2851891</ele>
        <time>2019-09-10T15:03:36.900Z</time>
      </trkpt>
      <trkpt lat="10.1564630800246" lon="-75.6818651447547">
        <ele>52.2851891</ele>
        <time>2019-09-10T15:03:37.000Z</time>
      </trkpt>
      <trkpt lat="10.1564647152429" lon="-75.6818671835879">
        <ele>52.2851891</ele>
        <time>2019-09-10T15:03:37.100Z</time>
      </trkpt>
      <trkpt lat="10.1564663467093" lon="-75.6818692346406">
        <ele>52.2851891</ele>
        <time>2019-09-10T15:03:37.200Z</time>
      </trkpt>
      <trkpt lat="10.156468010484" lon="-75.6818712742396">
        <ele>52.2851891</ele>
        <time>2019-09-10T15:03:37.300Z</time>
      </trkpt>
      <trkpt lat="10.1564696673802" lon="-75.6818733315241">
        <ele>52.2851891</ele>
        <time>2019-09-10T15:03:37.400Z</time>
      </trkpt>
      <trkpt lat="10.1564713224004" lon="-75.6818754086523">
        <ele>52.2851891</ele>
        <time>2019-09-10T15:03:37.500Z</time>
      </trkpt>
      <trkpt lat="10.1564729544921" lon="-75.6818774955285">
        <ele>52.2851891</ele>
        <time>2019-09-10T15:03:37.600Z</time>
      </trkpt>
      <trkpt lat="10.1564745936708" lon="-75.6818795709857">
        <ele>52.2851891</ele>
        <time>2019-09-10T15:03:37.700Z</time>
      </trkpt>
      <trkpt lat="10.1564762305567" lon="-75.6818816487406">
        <ele>52.1851891</ele>
        <time>2019-09-10T15:03:37.800Z</time>
      </trkpt>
      <trkpt lat="10.1564778826587" lon="-75.6818837362433">
        <ele>52.1851891</ele>
        <time>2019-09-10T15:03:37.900Z</time>
      </trkpt>
      <trkpt lat="10.1564795285075" lon="-75.6818858325888">
        <ele>52.1851891</ele>
        <time>2019-09-10T15:03:38.000Z</time>
      </trkpt>
      <trkpt lat="10.1564811558051" lon="-75.6818879385428">
        <ele>52.1851891</ele>
        <time>2019-09-10T15:03:38.100Z</time>
      </trkpt>
      <trkpt lat="10.1564827783085" lon="-75.6818900533396">
        <ele>52.1851891</ele>
        <time>2019-09-10T15:03:38.200Z</time>
      </trkpt>
      <trkpt lat="10.1564844168619" lon="-75.6818921794856">
        <ele>52.2851891</ele>
        <time>2019-09-10T15:03:38.300Z</time>
      </trkpt>
      <trkpt lat="10.1564860650036" lon="-75.6818943078598">
        <ele>52.2851891</ele>
        <time>2019-09-10T15:03:38.400Z</time>
      </trkpt>
      <trkpt lat="10.1564893539914" lon="-75.6818986131384">
        <ele>52.1851891</ele>
        <time>2019-09-10T15:03:38.600Z</time>
      </trkpt>
      <trkpt lat="10.1564909767033" lon="-75.6819007896948">
        <ele>52.1851891</ele>
        <time>2019-09-10T15:03:38.700Z</time>
      </trkpt>
      <trkpt lat="10.1564925954548" lon="-75.6819029592187">
        <ele>52.2851891</ele>
        <time>2019-09-10T15:03:38.800Z</time>
      </trkpt>
      <trkpt lat="10.1564942231693" lon="-75.6819051020057">
        <ele>52.2851891</ele>
        <time>2019-09-10T15:03:38.900Z</time>
      </trkpt>
      <trkpt lat="10.1564958560947" lon="-75.6819072319117">
        <ele>52.2851891</ele>
        <time>2019-09-10T15:03:39.000Z</time>
      </trkpt>
      <trkpt lat="10.1564975065292" lon="-75.6819093556207">
        <ele>52.2851891</ele>
        <time>2019-09-10T15:03:39.100Z</time>
      </trkpt>
      <trkpt lat="10.1564991680111" lon="-75.6819114775195">
        <ele>52.2851891</ele>
        <time>2019-09-10T15:03:39.200Z</time>
      </trkpt>
      <trkpt lat="10.1565008428332" lon="-75.6819136059633">
        <ele>52.2851891</ele>
        <time>2019-09-10T15:03:39.300Z</time>
      </trkpt>
      <trkpt lat="10.1565025211988" lon="-75.681915734407">
        <ele>52.2851891</ele>
        <time>2019-09-10T15:03:39.400Z</time>
      </trkpt>
      <trkpt lat="10.1565042208253" lon="-75.6819178462098">
        <ele>52.2851891</ele>
        <time>2019-09-10T15:03:39.500Z</time>
      </trkpt>
      <trkpt lat="10.1565059152408" lon="-75.6819199518157">
        <ele>52.2851891</ele>
        <time>2019-09-10T15:03:39.600Z</time>
      </trkpt>
      <trkpt lat="10.1565076157011" lon="-75.6819220714864">
        <ele>52.2851891</ele>
        <time>2019-09-10T15:03:39.700Z</time>
      </trkpt>
      <trkpt lat="10.1565093059478" lon="-75.6819241957525">
        <ele>52.2851891</ele>
        <time>2019-09-10T15:03:39.800Z</time>
      </trkpt>
      <trkpt lat="10.1565109534642" lon="-75.6819262776154">
        <ele>52.2851891</ele>
        <time>2019-09-10T15:03:39.900Z</time>
      </trkpt>
      <trkpt lat="10.1565125920175" lon="-75.6819283431855">
        <ele>52.2851891</ele>
        <time>2019-09-10T15:03:40.000Z</time>
      </trkpt>
      <trkpt lat="10.1565142903934" lon="-75.681930458957">
        <ele>52.2851891</ele>
        <time>2019-09-10T15:03:40.100Z</time>
      </trkpt>
      <trkpt lat="10.1565160046108" lon="-75.6819325949206">
        <ele>52.2851891</ele>
        <time>2019-09-10T15:03:40.200Z</time>
      </trkpt>
      <trkpt lat="10.1565177275828" lon="-75.6819347572729">
        <ele>52.2851891</ele>
        <time>2019-09-10T15:03:40.300Z</time>
      </trkpt>
      <trkpt lat="10.1565194378398" lon="-75.6819369057694">
        <ele>52.2851891</ele>
        <time>2019-09-10T15:03:40.400Z</time>
      </trkpt>
      <trkpt lat="10.1565211508065" lon="-75.681939049183">
        <ele>52.2851891</ele>
        <time>2019-09-10T15:03:40.500Z</time>
      </trkpt>
      <trkpt lat="10.1565228512668" lon="-75.6819411726832">
        <ele>52.2851891</ele>
        <time>2019-09-10T15:03:40.600Z</time>
      </trkpt>
      <trkpt lat="10.156524557355" lon="-75.6819432845557">
        <ele>52.2851891</ele>
        <time>2019-09-10T15:03:40.700Z</time>
      </trkpt>
      <trkpt lat="10.1565262676121" lon="-75.681945385218">
        <ele>52.2851891</ele>
        <time>2019-09-10T15:03:40.800Z</time>
      </trkpt>
      <trkpt lat="10.1565279576503" lon="-75.6819474759933">
        <ele>52.2851891</ele>
        <time>2019-09-10T15:03:40.900Z</time>
      </trkpt>
      <trkpt lat="10.1565313493995" lon="-75.6819516480048">
        <ele>52.2851891</ele>
        <time>2019-09-10T15:03:41.100Z</time>
      </trkpt>
      <trkpt lat="10.1565330575722" lon="-75.6819537357165">
        <ele>52.2851891</ele>
        <time>2019-09-10T15:03:41.200Z</time>
      </trkpt>
      <trkpt lat="10.1565347478189" lon="-75.6819558301123">
        <ele>52.2851891</ele>
        <time>2019-09-10T15:03:41.300Z</time>
      </trkpt>
      <trkpt lat="10.1565364328545" lon="-75.6819579269452">
        <ele>52.2851891</ele>
        <time>2019-09-10T15:03:41.400Z</time>
      </trkpt>
      <trkpt lat="10.1565381397765" lon="-75.6819600296268">
        <ele>52.2851891</ele>
        <time>2019-09-10T15:03:41.500Z</time>
      </trkpt>
      <trkpt lat="10.15653984649" lon="-75.681962131055">
        <ele>52.2851891</ele>
        <time>2019-09-10T15:03:41.600Z</time>
      </trkpt>
      <trkpt lat="10.1565415529951" lon="-75.6819642351988">
        <ele>52.2851891</ele>
        <time>2019-09-10T15:03:41.700Z</time>
      </trkpt>
      <trkpt lat="10.156543253247" lon="-75.6819663386462">
        <ele>52.2851891</ele>
        <time>2019-09-10T15:03:41.800Z</time>
      </trkpt>
      <trkpt lat="10.1565449820552" lon="-75.6819684779519">
        <ele>52.2851891</ele>
        <time>2019-09-10T15:03:41.900Z</time>
      </trkpt>
      <trkpt lat="10.156546702109" lon="-75.6819706136369">
        <ele>52.3851891</ele>
        <time>2019-09-10T15:03:42.000Z</time>
      </trkpt>
      <trkpt lat="10.15654838777" lon="-75.6819727172932">
        <ele>52.2851891</ele>
        <time>2019-09-10T15:03:42.100Z</time>
      </trkpt>
      <trkpt lat="10.1565500586317" lon="-75.6819748041694">
        <ele>52.2851891</ele>
        <time>2019-09-10T15:03:42.200Z</time>
      </trkpt>
      <trkpt lat="10.1565517226149" lon="-75.6819768581117">
        <ele>52.2851891</ele>
        <time>2019-09-10T15:03:42.300Z</time>
      </trkpt>
      <trkpt lat="10.1565533986876" lon="-75.6819789146998">
        <ele>52.2851891</ele>
        <time>2019-09-10T15:03:42.400Z</time>
      </trkpt>
      <trkpt lat="10.1565551131134" lon="-75.6819809680155">
        <ele>52.2851891</ele>
        <time>2019-09-10T15:03:42.500Z</time>
      </trkpt>
      <trkpt lat="10.1565568417132" lon="-75.6819830335856">
        <ele>52.2851891</ele>
        <time>2019-09-10T15:03:42.600Z</time>
      </trkpt>
      <trkpt lat="10.1565585788591" lon="-75.6819850988771">
        <ele>52.2851891</ele>
        <time>2019-09-10T15:03:42.700Z</time>
      </trkpt>
      <trkpt lat="10.1565603116278" lon="-75.6819871728722">
        <ele>52.2851891</ele>
        <time>2019-09-10T15:03:42.800Z</time>
      </trkpt>
      <trkpt lat="10.1565620679502" lon="-75.6819892690087">
        <ele>52.2851891</ele>
        <time>2019-09-10T15:03:42.900Z</time>
      </trkpt>
      <trkpt lat="10.1565638167688" lon="-75.6819913631957">
        <ele>52.2851891</ele>
        <time>2019-09-10T15:03:43.000Z</time>
      </trkpt>
      <trkpt lat="10.1565655755925" lon="-75.681993473606">
        <ele>52.2851891</ele>
        <time>2019-09-10T15:03:43.100Z</time>
      </trkpt>
      <trkpt lat="10.1565673354585" lon="-75.6819955796296">
        <ele>52.2851891</ele>
        <time>2019-09-10T15:03:43.200Z</time>
      </trkpt>
      <trkpt lat="10.1565690917809" lon="-75.6819976600304">
        <ele>52.2851891</ele>
        <time>2019-09-10T15:03:43.300Z</time>
      </trkpt>
      <trkpt lat="10.156570829969" lon="-75.6819997290122">
        <ele>52.2851891</ele>
        <time>2019-09-10T15:03:43.400Z</time>
      </trkpt>
      <trkpt lat="10.1565725564844" lon="-75.6820018087167">
        <ele>52.2851891</ele>
        <time>2019-09-10T15:03:43.500Z</time>
      </trkpt>
      <trkpt lat="10.1565742732031" lon="-75.6820038994224">
        <ele>52.2851891</ele>
        <time>2019-09-10T15:03:43.600Z</time>
      </trkpt>
      <trkpt lat="10.1565759586557" lon="-75.6820060090667">
        <ele>52.2851891</ele>
        <time>2019-09-10T15:03:43.700Z</time>
      </trkpt>
      <trkpt lat="10.1565776376466" lon="-75.682008121148">
        <ele>52.2851891</ele>
        <time>2019-09-10T15:03:43.800Z</time>
      </trkpt>
      <trkpt lat="10.1565793339381" lon="-75.6820102444393">
        <ele>52.2851891</ele>
        <time>2019-09-10T15:03:43.900Z</time>
      </trkpt>
      <trkpt lat="10.1565810321055" lon="-75.6820123588183">
        <ele>52.2851891</ele>
        <time>2019-09-10T15:03:44.000Z</time>
      </trkpt>
      <trkpt lat="10.1565827215185" lon="-75.6820144798119">
        <ele>52.2851891</ele>
        <time>2019-09-10T15:03:44.100Z</time>
      </trkpt>
      <trkpt lat="10.1565844084301" lon="-75.682016602755">
        <ele>52.2851891</ele>
        <time>2019-09-10T15:03:44.200Z</time>
      </trkpt>
      <trkpt lat="10.1565860373952" lon="-75.6820186926251">
        <ele>52.2851891</ele>
        <time>2019-09-10T15:03:44.300Z</time>
      </trkpt>
      <trkpt lat="10.1565876492682" lon="-75.682020776925">
        <ele>52.2851891</ele>
        <time>2019-09-10T15:03:44.400Z</time>
      </trkpt>
      <trkpt lat="10.156589282819" lon="-75.6820228720172">
        <ele>52.2851891</ele>
        <time>2019-09-10T15:03:44.500Z</time>
      </trkpt>
      <trkpt lat="10.1565909407573" lon="-75.682024969616">
        <ele>52.2851891</ele>
        <time>2019-09-10T15:03:44.600Z</time>
      </trkpt>
      <trkpt lat="10.1565926070333" lon="-75.682027033515">
        <ele>52.2851891</ele>
        <time>2019-09-10T15:03:44.700Z</time>
      </trkpt>
      <trkpt lat="10.1565942893593" lon="-75.6820290958126">
        <ele>52.2851891</ele>
        <time>2019-09-10T15:03:44.800Z</time>
      </trkpt>
      <trkpt lat="10.1565959954475" lon="-75.6820311638196">
        <ele>52.2851891</ele>
        <time>2019-09-10T15:03:44.900Z</time>
      </trkpt>
      <trkpt lat="10.1565977127915" lon="-75.6820332380235">
        <ele>52.2851891</ele>
        <time>2019-09-10T15:03:45.000Z</time>
      </trkpt>
      <trkpt lat="10.1566011541496" lon="-75.6820373411038">
        <ele>52.2851891</ele>
        <time>2019-09-10T15:03:45.200Z</time>
      </trkpt>
      <trkpt lat="10.1566029427804" lon="-75.6820394357086">
        <ele>52.2851891</ele>
        <time>2019-09-10T15:03:45.300Z</time>
      </trkpt>
      <trkpt lat="10.1566047505877" lon="-75.6820415418019">
        <ele>52.2851891</ele>
        <time>2019-09-10T15:03:45.400Z</time>
      </trkpt>
      <trkpt lat="10.1566065513081" lon="-75.6820436341786">
        <ele>52.2851891</ele>
        <time>2019-09-10T15:03:45.500Z</time>
      </trkpt>
      <trkpt lat="10.1566083434824" lon="-75.6820457154845">
        <ele>52.2851891</ele>
        <time>2019-09-10T15:03:45.600Z</time>
      </trkpt>
      <trkpt lat="10.1566101521235" lon="-75.6820478080005">
        <ele>52.2851891</ele>
        <time>2019-09-10T15:03:45.700Z</time>
      </trkpt>
      <trkpt lat="10.1566119691022" lon="-75.6820498969654">
        <ele>52.2851891</ele>
        <time>2019-09-10T15:03:45.800Z</time>
      </trkpt>
      <trkpt lat="10.1566138135951" lon="-75.6820520205353">
        <ele>52.2851891</ele>
        <time>2019-09-10T15:03:45.900Z</time>
      </trkpt>
      <trkpt lat="10.1566156491251" lon="-75.6820541379082">
        <ele>52.2851891</ele>
        <time>2019-09-10T15:03:46.000Z</time>
      </trkpt>
      <trkpt lat="10.1566174381727" lon="-75.6820562095359">
        <ele>52.2851891</ele>
        <time>2019-09-10T15:03:46.100Z</time>
      </trkpt>
      <trkpt lat="10.1566192045003" lon="-75.6820582630604">
        <ele>52.2851891</ele>
        <time>2019-09-10T15:03:46.200Z</time>
      </trkpt>
      <trkpt lat="10.156620974163" lon="-75.6820603506328">
        <ele>52.2851891</ele>
        <time>2019-09-10T15:03:46.300Z</time>
      </trkpt>
      <trkpt lat="10.1566245172402" lon="-75.6820645610091">
        <ele>52.2851891</ele>
        <time>2019-09-10T15:03:46.500Z</time>
      </trkpt>
      <trkpt lat="10.1566262871113" lon="-75.6820666629248">
        <ele>52.2851891</ele>
        <time>2019-09-10T15:03:46.600Z</time>
      </trkpt>
      <trkpt lat="10.1566280313442" lon="-75.6820687472247">
        <ele>52.2851891</ele>
        <time>2019-09-10T15:03:46.700Z</time>
      </trkpt>
      <trkpt lat="10.1566297632791" lon="-75.6820708211501">
        <ele>52.2851891</ele>
        <time>2019-09-10T15:03:46.800Z</time>
      </trkpt>
      <trkpt lat="10.156631498549" lon="-75.6820729057285">
        <ele>52.2851891</ele>
        <time>2019-09-10T15:03:46.900Z</time>
      </trkpt>
      <trkpt lat="10.1566332323599" lon="-75.6820749980356">
        <ele>52.2851891</ele>
        <time>2019-09-10T15:03:47.000Z</time>
      </trkpt>
      <trkpt lat="10.1566349947271" lon="-75.682077108585">
        <ele>52.2851891</ele>
        <time>2019-09-10T15:03:47.100Z</time>
      </trkpt>
      <trkpt lat="10.1566367568859" lon="-75.6820792109185">
        <ele>52.2851891</ele>
        <time>2019-09-10T15:03:47.200Z</time>
      </trkpt>
      <trkpt lat="10.1566384848604" lon="-75.6820812625631">
        <ele>52.2851891</ele>
        <time>2019-09-10T15:03:47.300Z</time>
      </trkpt>
      <trkpt lat="10.1566401913655" lon="-75.6820833097515">
        <ele>52.2851891</ele>
        <time>2019-09-10T15:03:47.400Z</time>
      </trkpt>
      <trkpt lat="10.156641896203" lon="-75.6820853398116">
        <ele>52.2851891</ele>
        <time>2019-09-10T15:03:47.500Z</time>
      </trkpt>
      <trkpt lat="10.1566436024997" lon="-75.6820873844238">
        <ele>52.2851891</ele>
        <time>2019-09-10T15:03:47.600Z</time>
      </trkpt>
      <trkpt lat="10.1566452927464" lon="-75.6820894426133">
        <ele>52.2851891</ele>
        <time>2019-09-10T15:03:47.700Z</time>
      </trkpt>
      <trkpt lat="10.156646984869" lon="-75.6820915170261">
        <ele>52.2851891</ele>
        <time>2019-09-10T15:03:47.800Z</time>
      </trkpt>
      <trkpt lat="10.1566486980442" lon="-75.6820935777919">
        <ele>52.2851891</ele>
        <time>2019-09-10T15:03:47.900Z</time>
      </trkpt>
      <trkpt lat="10.1566504203908" lon="-75.6820956365385">
        <ele>52.2851891</ele>
        <time>2019-09-10T15:03:48.000Z</time>
      </trkpt>
      <trkpt lat="10.156652135442" lon="-75.6820976813596">
        <ele>52.2851891</ele>
        <time>2019-09-10T15:03:48.100Z</time>
      </trkpt>
      <trkpt lat="10.1566538529944" lon="-75.682099734536">
        <ele>52.2851891</ele>
        <time>2019-09-10T15:03:48.200Z</time>
      </trkpt>
      <trkpt lat="10.1566555603333" lon="-75.6821017772683">
        <ele>52.2851891</ele>
        <time>2019-09-10T15:03:48.300Z</time>
      </trkpt>
      <trkpt lat="10.1566572693397" lon="-75.6821038282166">
        <ele>52.2851891</ele>
        <time>2019-09-10T15:03:48.400Z</time>
      </trkpt>
      <trkpt lat="10.1566589912694" lon="-75.682105871854">
        <ele>52.3851891</ele>
        <time>2019-09-10T15:03:48.500Z</time>
      </trkpt>
      <trkpt lat="10.1566607182017" lon="-75.682107928094">
        <ele>52.3851891</ele>
        <time>2019-09-10T15:03:48.600Z</time>
      </trkpt>
      <trkpt lat="10.1566624570151" lon="-75.6821100084251">
        <ele>52.3851891</ele>
        <time>2019-09-10T15:03:48.700Z</time>
      </trkpt>
      <trkpt lat="10.1566641956201" lon="-75.6821121037262">
        <ele>52.3851891</ele>
        <time>2019-09-10T15:03:48.800Z</time>
      </trkpt>
      <trkpt lat="10.156665941312" lon="-75.6821141880261">
        <ele>52.3851891</ele>
        <time>2019-09-10T15:03:48.900Z</time>
      </trkpt>
      <trkpt lat="10.1566676815845" lon="-75.6821162702372">
        <ele>52.3851891</ele>
        <time>2019-09-10T15:03:49.000Z</time>
      </trkpt>
      <trkpt lat="10.1566693955935" lon="-75.6821183326044">
        <ele>52.3851891</ele>
        <time>2019-09-10T15:03:49.100Z</time>
      </trkpt>
      <trkpt lat="10.1566728279887" lon="-75.6821224661119">
        <ele>52.3851891</ele>
        <time>2019-09-10T15:03:49.300Z</time>
      </trkpt>
      <trkpt lat="10.156674553045" lon="-75.6821245467216">
        <ele>52.3851891</ele>
        <time>2019-09-10T15:03:49.400Z</time>
      </trkpt>
      <trkpt lat="10.1566762783098" lon="-75.6821266393767">
        <ele>52.3851891</ele>
        <time>2019-09-10T15:03:49.500Z</time>
      </trkpt>
      <trkpt lat="10.1566780023239" lon="-75.6821287376718">
        <ele>52.3851891</ele>
        <time>2019-09-10T15:03:49.600Z</time>
      </trkpt>
      <trkpt lat="10.1566797603138" lon="-75.6821308806677">
        <ele>52.3851891</ele>
        <time>2019-09-10T15:03:49.700Z</time>
      </trkpt>
      <trkpt lat="10.1566815164279" lon="-75.6821330256132">
        <ele>52.3851891</ele>
        <time>2019-09-10T15:03:49.800Z</time>
      </trkpt>
      <trkpt lat="10.1566832548244" lon="-75.6821351420113">
        <ele>52.2851891</ele>
        <time>2019-09-10T15:03:49.900Z</time>
      </trkpt>
      <trkpt lat="10.1566849834242" lon="-75.6821372429522">
        <ele>52.3851891</ele>
        <time>2019-09-10T15:03:50.000Z</time>
      </trkpt>
      <trkpt lat="10.1566866707527" lon="-75.6821392816461">
        <ele>52.2851891</ele>
        <time>2019-09-10T15:03:50.100Z</time>
      </trkpt>
      <trkpt lat="10.1566883512027" lon="-75.6821413127506">
        <ele>52.2851891</ele>
        <time>2019-09-10T15:03:50.200Z</time>
      </trkpt>
      <trkpt lat="10.1566900539559" lon="-75.6821433962149">
        <ele>52.2851891</ele>
        <time>2019-09-10T15:03:50.300Z</time>
      </trkpt>
      <trkpt lat="10.1566917758856" lon="-75.6821455168604">
        <ele>52.2851891</ele>
        <time>2019-09-10T15:03:50.400Z</time>
      </trkpt>
      <trkpt lat="10.1566934890608" lon="-75.682147617662">
        <ele>52.3851891</ele>
        <time>2019-09-10T15:03:50.500Z</time>
      </trkpt>
      <trkpt lat="10.156695197025" lon="-75.6821497078803">
        <ele>52.3851891</ele>
        <time>2019-09-10T15:03:50.600Z</time>
      </trkpt>
      <trkpt lat="10.1566968941502" lon="-75.6821517997696">
        <ele>52.3851891</ele>
        <time>2019-09-10T15:03:50.700Z</time>
      </trkpt>
      <trkpt lat="10.1566985914839" lon="-75.6821538986216">
        <ele>52.3851891</ele>
        <time>2019-09-10T15:03:50.800Z</time>
      </trkpt>
      <trkpt lat="10.1567003015325" lon="-75.6821560256728">
        <ele>52.3851891</ele>
        <time>2019-09-10T15:03:50.900Z</time>
      </trkpt>
      <trkpt lat="10.1567020203356" lon="-75.6821581596868">
        <ele>52.3851891</ele>
        <time>2019-09-10T15:03:51.000Z</time>
      </trkpt>
      <trkpt lat="10.1567037526873" lon="-75.6821603207858">
        <ele>52.3851891</ele>
        <time>2019-09-10T15:03:51.100Z</time>
      </trkpt>
      <trkpt lat="10.1567054925429" lon="-75.6821624690734">
        <ele>52.3851891</ele>
        <time>2019-09-10T15:03:51.200Z</time>
      </trkpt>
      <trkpt lat="10.156707227396" lon="-75.6821645755148">
        <ele>52.3851891</ele>
        <time>2019-09-10T15:03:51.300Z</time>
      </trkpt>
      <trkpt lat="10.1567089553705" lon="-75.6821666626695">
        <ele>52.3851891</ele>
        <time>2019-09-10T15:03:51.400Z</time>
      </trkpt>
      <trkpt lat="10.1567106923079" lon="-75.6821687682754">
        <ele>52.3851891</ele>
        <time>2019-09-10T15:03:51.500Z</time>
      </trkpt>
      <trkpt lat="10.1567124319551" lon="-75.6821708800085">
        <ele>52.3851891</ele>
        <time>2019-09-10T15:03:51.600Z</time>
      </trkpt>
      <trkpt lat="10.1567141728529" lon="-75.6821729896529">
        <ele>52.3851891</ele>
        <time>2019-09-10T15:03:51.700Z</time>
      </trkpt>
      <trkpt lat="10.1567159095819" lon="-75.6821750940751">
        <ele>52.3851891</ele>
        <time>2019-09-10T15:03:51.800Z</time>
      </trkpt>
      <trkpt lat="10.1567176406831" lon="-75.6821771941805">
        <ele>52.3851891</ele>
        <time>2019-09-10T15:03:51.900Z</time>
      </trkpt>
      <trkpt lat="10.1567193665731" lon="-75.682179293311">
        <ele>52.3851891</ele>
        <time>2019-09-10T15:03:52.000Z</time>
      </trkpt>
      <trkpt lat="10.1567211008009" lon="-75.6821813874284">
        <ele>52.3851891</ele>
        <time>2019-09-10T15:03:52.100Z</time>
      </trkpt>
      <trkpt lat="10.1567228398227" lon="-75.6821834774377">
        <ele>52.3851891</ele>
        <time>2019-09-10T15:03:52.200Z</time>
      </trkpt>
      <trkpt lat="10.1567246121951" lon="-75.6821855973173">
        <ele>52.2851891</ele>
        <time>2019-09-10T15:03:52.300Z</time>
      </trkpt>
      <trkpt lat="10.1567263835253" lon="-75.6821877170576">
        <ele>52.3851891</ele>
        <time>2019-09-10T15:03:52.400Z</time>
      </trkpt>
      <trkpt lat="10.1567281623594" lon="-75.6821898095736">
        <ele>52.3851891</ele>
        <time>2019-09-10T15:03:52.500Z</time>
      </trkpt>
      <trkpt lat="10.1567299322305" lon="-75.6821918901832">
        <ele>52.3851891</ele>
        <time>2019-09-10T15:03:52.600Z</time>
      </trkpt>
      <trkpt lat="10.1567317002256" lon="-75.6821939749705">
        <ele>52.3851891</ele>
        <time>2019-09-10T15:03:52.700Z</time>
      </trkpt>
      <trkpt lat="10.1567334569649" lon="-75.682196066999">
        <ele>52.2851891</ele>
        <time>2019-09-10T15:03:52.800Z</time>
      </trkpt>
      <trkpt lat="10.1567352299626" lon="-75.6821981370253">
        <ele>52.2851891</ele>
        <time>2019-09-10T15:03:52.900Z</time>
      </trkpt>
      <trkpt lat="10.1567369987915" lon="-75.6822002057983">
        <ele>52.2851891</ele>
        <time>2019-09-10T15:03:53.000Z</time>
      </trkpt>
      <trkpt lat="10.156738781586" lon="-75.682202308828">
        <ele>52.2851891</ele>
        <time>2019-09-10T15:03:53.100Z</time>
      </trkpt>
      <trkpt lat="10.1567405522908" lon="-75.6822044236943">
        <ele>52.2851891</ele>
        <time>2019-09-10T15:03:53.200Z</time>
      </trkpt>
      <trkpt lat="10.1567440434663" lon="-75.6822086647764">
        <ele>52.3851891</ele>
        <time>2019-09-10T15:03:53.400Z</time>
      </trkpt>
      <trkpt lat="10.1567457678973" lon="-75.682210783333">
        <ele>52.2851891</ele>
        <time>2019-09-10T15:03:53.500Z</time>
      </trkpt>
      <trkpt lat="10.1567474869089" lon="-75.6822128972942">
        <ele>52.3851891</ele>
        <time>2019-09-10T15:03:53.600Z</time>
      </trkpt>
      <trkpt lat="10.1567509376468" lon="-75.6822171096201">
        <ele>52.3851891</ele>
        <time>2019-09-10T15:03:53.800Z</time>
      </trkpt>
      <trkpt lat="10.1567526426928" lon="-75.6822191811086">
        <ele>52.3851891</ele>
        <time>2019-09-10T15:03:53.900Z</time>
      </trkpt>
      <trkpt lat="10.1567543389843" lon="-75.6822212483497">
        <ele>52.3851891</ele>
        <time>2019-09-10T15:03:54.000Z</time>
      </trkpt>
      <trkpt lat="10.1567560190174" lon="-75.6822233140591">
        <ele>52.3851891</ele>
        <time>2019-09-10T15:03:54.100Z</time>
      </trkpt>
      <trkpt lat="10.1567577017602" lon="-75.6822253901429">
        <ele>52.3851891</ele>
        <time>2019-09-10T15:03:54.200Z</time>
      </trkpt>
      <trkpt lat="10.1567593792921" lon="-75.6822274419268">
        <ele>52.3851891</ele>
        <time>2019-09-10T15:03:54.300Z</time>
      </trkpt>
      <trkpt lat="10.1567610712063" lon="-75.6822294955209">
        <ele>52.3851891</ele>
        <time>2019-09-10T15:03:54.400Z</time>
      </trkpt>
      <trkpt lat="10.1567627608277" lon="-75.6822315576793">
        <ele>52.3851891</ele>
        <time>2019-09-10T15:03:54.500Z</time>
      </trkpt>
      <trkpt lat="10.1567644585782" lon="-75.6822336366875">
        <ele>52.3851891</ele>
        <time>2019-09-10T15:03:54.600Z</time>
      </trkpt>
      <trkpt lat="10.1567661765476" lon="-75.6822357252346">
        <ele>52.3851891</ele>
        <time>2019-09-10T15:03:54.700Z</time>
      </trkpt>
      <trkpt lat="10.1567679078571" lon="-75.682237817681">
        <ele>52.3851891</ele>
        <time>2019-09-10T15:03:54.800Z</time>
      </trkpt>
      <trkpt lat="10.1567696806464" lon="-75.6822399480743">
        <ele>52.3851891</ele>
        <time>2019-09-10T15:03:54.900Z</time>
      </trkpt>
      <trkpt lat="10.156771457396" lon="-75.6822420815312">
        <ele>52.3851891</ele>
        <time>2019-09-10T15:03:55.000Z</time>
      </trkpt>
      <trkpt lat="10.1567732211181" lon="-75.6822441950747">
        <ele>52.3851891</ele>
        <time>2019-09-10T15:03:55.100Z</time>
      </trkpt>
      <trkpt lat="10.1567749661848" lon="-75.682246291072">
        <ele>52.2851891</ele>
        <time>2019-09-10T15:03:55.200Z</time>
      </trkpt>
      <trkpt lat="10.1567767342841" lon="-75.6822483880441">
        <ele>52.2851891</ele>
        <time>2019-09-10T15:03:55.300Z</time>
      </trkpt>
      <trkpt lat="10.1567785063439" lon="-75.6822504836237">
        <ele>52.2851891</ele>
        <time>2019-09-10T15:03:55.400Z</time>
      </trkpt>
      <trkpt lat="10.1567802745474" lon="-75.6822525769751">
        <ele>52.2851891</ele>
        <time>2019-09-10T15:03:55.500Z</time>
      </trkpt>
      <trkpt lat="10.15678202618" lon="-75.6822546693518">
        <ele>52.2851891</ele>
        <time>2019-09-10T15:03:55.600Z</time>
      </trkpt>
      <trkpt lat="10.1567838221062" lon="-75.682256791181">
        <ele>52.2851891</ele>
        <time>2019-09-10T15:03:55.700Z</time>
      </trkpt>
      <trkpt lat="10.1567856209506" lon="-75.682258917327">
        <ele>52.3851891</ele>
        <time>2019-09-10T15:03:55.800Z</time>
      </trkpt>
      <trkpt lat="10.1567873929061" lon="-75.6822610194516">
        <ele>52.3851891</ele>
        <time>2019-09-10T15:03:55.900Z</time>
      </trkpt>
      <trkpt lat="10.1567891442259" lon="-75.6822631069543">
        <ele>52.3851891</ele>
        <time>2019-09-10T15:03:56.000Z</time>
      </trkpt>
      <trkpt lat="10.1567909076354" lon="-75.6822652215422">
        <ele>52.3851891</ele>
        <time>2019-09-10T15:03:56.100Z</time>
      </trkpt>
      <trkpt lat="10.1567926737545" lon="-75.6822673429536">
        <ele>52.3851891</ele>
        <time>2019-09-10T15:03:56.200Z</time>
      </trkpt>
      <trkpt lat="10.1567944346627" lon="-75.6822694370013">
        <ele>52.3851891</ele>
        <time>2019-09-10T15:03:56.300Z</time>
      </trkpt>
      <trkpt lat="10.156796191402" lon="-75.6822715183072">
        <ele>52.3851891</ele>
        <time>2019-09-10T15:03:56.400Z</time>
      </trkpt>
      <trkpt lat="10.1567979581465" lon="-75.6822736279515">
        <ele>52.3851891</ele>
        <time>2019-09-10T15:03:56.500Z</time>
      </trkpt>
      <trkpt lat="10.1567997184293" lon="-75.6822757481792">
        <ele>52.3851891</ele>
        <time>2019-09-10T15:03:56.600Z</time>
      </trkpt>
      <trkpt lat="10.1568014619327" lon="-75.6822778735594">
        <ele>52.3851891</ele>
        <time>2019-09-10T15:03:56.700Z</time>
      </trkpt>
      <trkpt lat="10.1568032013714" lon="-75.6822799922553">
        <ele>52.3851891</ele>
        <time>2019-09-10T15:03:56.800Z</time>
      </trkpt>
      <trkpt lat="10.1568049367455" lon="-75.6822821064254">
        <ele>52.3851891</ele>
        <time>2019-09-10T15:03:56.900Z</time>
      </trkpt>
      <trkpt lat="10.1568066719112" lon="-75.6822842145379">
        <ele>52.3851891</ele>
        <time>2019-09-10T15:03:57.000Z</time>
      </trkpt>
      <trkpt lat="10.1568084012406" lon="-75.6822863158965">
        <ele>52.3851891</ele>
        <time>2019-09-10T15:03:57.100Z</time>
      </trkpt>
      <trkpt lat="10.1568101323417" lon="-75.6822884172552">
        <ele>52.3851891</ele>
        <time>2019-09-10T15:03:57.200Z</time>
      </trkpt>
      <trkpt lat="10.1568136036111" lon="-75.6822926205295">
        <ele>52.3851891</ele>
        <time>2019-09-10T15:03:57.400Z</time>
      </trkpt>
      <trkpt lat="10.1568153650403" lon="-75.6822947471629">
        <ele>52.3851891</ele>
        <time>2019-09-10T15:03:57.500Z</time>
      </trkpt>
      <trkpt lat="10.1568171231345" lon="-75.682296878531">
        <ele>52.3851891</ele>
        <time>2019-09-10T15:03:57.600Z</time>
      </trkpt>
      <trkpt lat="10.1568188739333" lon="-75.6822990083673">
        <ele>52.3851891</ele>
        <time>2019-09-10T15:03:57.700Z</time>
      </trkpt>
      <trkpt lat="10.1568206104539" lon="-75.6823011288735">
        <ele>52.3851891</ele>
        <time>2019-09-10T15:03:57.800Z</time>
      </trkpt>
      <trkpt lat="10.1568223163336" lon="-75.6823032411637">
        <ele>52.3851891</ele>
        <time>2019-09-10T15:03:57.900Z</time>
      </trkpt>
      <trkpt lat="10.1568240168982" lon="-75.6823053480229">
        <ele>52.3851891</ele>
        <time>2019-09-10T15:03:58.000Z</time>
      </trkpt>
      <trkpt lat="10.1568257279889" lon="-75.6823074449254">
        <ele>52.3851891</ele>
        <time>2019-09-10T15:03:58.100Z</time>
      </trkpt>
      <trkpt lat="10.1568274498144" lon="-75.6823095409227">
        <ele>52.3851891</ele>
        <time>2019-09-10T15:03:58.200Z</time>
      </trkpt>
      <trkpt lat="10.1568291566322" lon="-75.6823116335083">
        <ele>52.3851891</ele>
        <time>2019-09-10T15:03:58.300Z</time>
      </trkpt>
      <trkpt lat="10.1568308645964" lon="-75.6823137283915">
        <ele>52.3851891</ele>
        <time>2019-09-10T15:03:58.400Z</time>
      </trkpt>
      <trkpt lat="10.1568325593245" lon="-75.6823158207682">
        <ele>52.3851891</ele>
        <time>2019-09-10T15:03:58.500Z</time>
      </trkpt>
      <trkpt lat="10.1568342646832" lon="-75.6823179152338">
        <ele>52.3851891</ele>
        <time>2019-09-10T15:03:58.600Z</time>
      </trkpt>
      <trkpt lat="10.1568359808808" lon="-75.6823200103259">
        <ele>52.3851891</ele>
        <time>2019-09-10T15:03:58.700Z</time>
      </trkpt>
      <trkpt lat="10.1568377105228" lon="-75.682322105627">
        <ele>52.3851891</ele>
        <time>2019-09-10T15:03:58.800Z</time>
      </trkpt>
      <trkpt lat="10.1568394275542" lon="-75.6823241443208">
        <ele>52.3851891</ele>
        <time>2019-09-10T15:03:58.900Z</time>
      </trkpt>
      <trkpt lat="10.1568411530274" lon="-75.6823261743809">
        <ele>52.3851891</ele>
        <time>2019-09-10T15:03:59.000Z</time>
      </trkpt>
      <trkpt lat="10.1568428813145" lon="-75.6823282361911">
        <ele>52.3851891</ele>
        <time>2019-09-10T15:03:59.100Z</time>
      </trkpt>
      <trkpt lat="10.1568446186689" lon="-75.6823303239028">
        <ele>52.3851891</ele>
        <time>2019-09-10T15:03:59.200Z</time>
      </trkpt>
      <trkpt lat="10.1568463878104" lon="-75.6823324250525">
        <ele>52.3851891</ele>
        <time>2019-09-10T15:03:59.300Z</time>
      </trkpt>
      <trkpt lat="10.1568481665402" lon="-75.6823345264112">
        <ele>52.3851891</ele>
        <time>2019-09-10T15:03:59.400Z</time>
      </trkpt>
      <trkpt lat="10.1568499414139" lon="-75.6823366380747">
        <ele>52.3851891</ele>
        <time>2019-09-10T15:03:59.500Z</time>
      </trkpt>
      <trkpt lat="10.1568517096175" lon="-75.6823387456301">
        <ele>52.3851891</ele>
        <time>2019-09-10T15:03:59.600Z</time>
      </trkpt>
      <trkpt lat="10.1568534653146" lon="-75.6823408595914">
        <ele>52.3851891</ele>
        <time>2019-09-10T15:03:59.700Z</time>
      </trkpt>
      <trkpt lat="10.1568552145501" lon="-75.6823429673558">
        <ele>52.3851891</ele>
        <time>2019-09-10T15:03:59.800Z</time>
      </trkpt>
      <trkpt lat="10.1568569448174" lon="-75.6823450494276">
        <ele>52.3851891</ele>
        <time>2019-09-10T15:03:59.900Z</time>
      </trkpt>
      <trkpt lat="10.156858676127" lon="-75.6823471257203">
        <ele>52.3851891</ele>
        <time>2019-09-10T15:04:00.000Z</time>
      </trkpt>
      <trkpt lat="10.1568603933668" lon="-75.6823492060514">
        <ele>52.3851891</ele>
        <time>2019-09-10T15:04:00.100Z</time>
      </trkpt>
      <trkpt lat="10.1568621128994" lon="-75.682351292649">
        <ele>52.3851891</ele>
        <time>2019-09-10T15:04:00.200Z</time>
      </trkpt>
      <trkpt lat="10.1568637711504" lon="-75.6823533078088">
        <ele>52.3851891</ele>
        <time>2019-09-10T15:04:00.300Z</time>
      </trkpt>
      <trkpt lat="10.1568654183541" lon="-75.6823553064668">
        <ele>52.3851891</ele>
        <time>2019-09-10T15:04:00.400Z</time>
      </trkpt>
      <trkpt lat="10.1568671060995" lon="-75.6823573924378">
        <ele>52.3851891</ele>
        <time>2019-09-10T15:04:00.500Z</time>
      </trkpt>
      <trkpt lat="10.156868840223" lon="-75.6823595265214">
        <ele>52.3851891</ele>
        <time>2019-09-10T15:04:00.600Z</time>
      </trkpt>
      <trkpt lat="10.1568705401622" lon="-75.6823616482809">
        <ele>52.3851891</ele>
        <time>2019-09-10T15:04:00.700Z</time>
      </trkpt>
      <trkpt lat="10.1568722306174" lon="-75.6823637522854">
        <ele>52.3851891</ele>
        <time>2019-09-10T15:04:00.800Z</time>
      </trkpt>
      <trkpt lat="10.1568739275342" lon="-75.6823658660377">
        <ele>52.3851891</ele>
        <time>2019-09-10T15:04:00.900Z</time>
      </trkpt>
      <trkpt lat="10.1568756347688" lon="-75.6823679802775">
        <ele>52.3851891</ele>
        <time>2019-09-10T15:04:01.000Z</time>
      </trkpt>
      <trkpt lat="10.1568790367316" lon="-75.6823722100102">
        <ele>52.3851891</ele>
        <time>2019-09-10T15:04:01.200Z</time>
      </trkpt>
      <trkpt lat="10.1568807601204" lon="-75.6823743181924">
        <ele>52.3851891</ele>
        <time>2019-09-10T15:04:01.300Z</time>
      </trkpt>
      <trkpt lat="10.1568824958072" lon="-75.6823764196206">
        <ele>52.3851891</ele>
        <time>2019-09-10T15:04:01.400Z</time>
      </trkpt>
      <trkpt lat="10.1568842144019" lon="-75.6823784874188">
        <ele>52.3851891</ele>
        <time>2019-09-10T15:04:01.500Z</time>
      </trkpt>
      <trkpt lat="10.1568859300784" lon="-75.6823805474187">
        <ele>52.3851891</ele>
        <time>2019-09-10T15:04:01.600Z</time>
      </trkpt>
      <trkpt lat="10.1568876531545" lon="-75.6823826052601">
        <ele>52.3851891</ele>
        <time>2019-09-10T15:04:01.700Z</time>
      </trkpt>
      <trkpt lat="10.1568893806079" lon="-75.6823846754256">
        <ele>52.3851891</ele>
        <time>2019-09-10T15:04:01.800Z</time>
      </trkpt>
      <trkpt lat="10.1568911150441" lon="-75.6823867283235">
        <ele>52.3851891</ele>
        <time>2019-09-10T15:04:01.900Z</time>
      </trkpt>
      <trkpt lat="10.156892850314" lon="-75.6823887839369">
        <ele>52.3851891</ele>
        <time>2019-09-10T15:04:02.000Z</time>
      </trkpt>
      <trkpt lat="10.1568945688044" lon="-75.6823908250677">
        <ele>52.3851891</ele>
        <time>2019-09-10T15:04:02.100Z</time>
      </trkpt>
      <trkpt lat="10.1568962829176" lon="-75.6823928755983">
        <ele>52.3851891</ele>
        <time>2019-09-10T15:04:02.200Z</time>
      </trkpt>
      <trkpt lat="10.156897999011" lon="-75.6823949429787">
        <ele>52.3851891</ele>
        <time>2019-09-10T15:04:02.300Z</time>
      </trkpt>
      <trkpt lat="10.1568997219829" lon="-75.6823970246327">
        <ele>52.3851891</ele>
        <time>2019-09-10T15:04:02.400Z</time>
      </trkpt>
      <trkpt lat="10.1569014230685" lon="-75.6823990945894">
        <ele>52.3851891</ele>
        <time>2019-09-10T15:04:02.500Z</time>
      </trkpt>
      <trkpt lat="10.1569031220697" lon="-75.6824011647549">
        <ele>52.3851891</ele>
        <time>2019-09-10T15:04:02.600Z</time>
      </trkpt>
      <trkpt lat="10.1569048509822" lon="-75.6824032804568">
        <ele>52.3851891</ele>
        <time>2019-09-10T15:04:02.700Z</time>
      </trkpt>
      <trkpt lat="10.1569065917758" lon="-75.6824054066028">
        <ele>52.3851891</ele>
        <time>2019-09-10T15:04:02.800Z</time>
      </trkpt>
      <trkpt lat="10.1569083217305" lon="-75.6824075124873">
        <ele>52.3851891</ele>
        <time>2019-09-10T15:04:02.900Z</time>
      </trkpt>
      <trkpt lat="10.1569100413673" lon="-75.682409603541">
        <ele>52.3851891</ele>
        <time>2019-09-10T15:04:03.000Z</time>
      </trkpt>
      <trkpt lat="10.1569117413065" lon="-75.6824116979369">
        <ele>52.3851891</ele>
        <time>2019-09-10T15:04:03.100Z</time>
      </trkpt>
      <trkpt lat="10.156913440412" lon="-75.6824137944913">
        <ele>52.3851891</ele>
        <time>2019-09-10T15:04:03.200Z</time>
      </trkpt>
      <trkpt lat="10.156915150669" lon="-75.6824158676507">
        <ele>52.3851891</ele>
        <time>2019-09-10T15:04:03.300Z</time>
      </trkpt>
      <trkpt lat="10.1569168705143" lon="-75.6824179378163">
        <ele>52.3851891</ele>
        <time>2019-09-10T15:04:03.400Z</time>
      </trkpt>
      <trkpt lat="10.1569185785827" lon="-75.6824200113935">
        <ele>52.3851891</ele>
        <time>2019-09-10T15:04:03.500Z</time>
      </trkpt>
      <trkpt lat="10.1569202891524" lon="-75.6824220930476">
        <ele>52.3851891</ele>
        <time>2019-09-10T15:04:03.600Z</time>
      </trkpt>
      <trkpt lat="10.1569220116032" lon="-75.6824241536045">
        <ele>52.3851891</ele>
        <time>2019-09-10T15:04:03.700Z</time>
      </trkpt>
      <trkpt lat="10.1569237428085" lon="-75.6824262172946">
        <ele>52.3851891</ele>
        <time>2019-09-10T15:04:03.800Z</time>
      </trkpt>
      <trkpt lat="10.1569254580681" lon="-75.6824283151023">
        <ele>52.3851891</ele>
        <time>2019-09-10T15:04:03.900Z</time>
      </trkpt>
      <trkpt lat="10.1569271713475" lon="-75.6824304251644">
        <ele>52.3851891</ele>
        <time>2019-09-10T15:04:04.000Z</time>
      </trkpt>
      <trkpt lat="10.1569288910886" lon="-75.6824325751926">
        <ele>52.3851891</ele>
        <time>2019-09-10T15:04:04.100Z</time>
      </trkpt>
      <trkpt lat="10.1569306164576" lon="-75.6824347248032">
        <ele>52.3851891</ele>
        <time>2019-09-10T15:04:04.200Z</time>
      </trkpt>
      <trkpt lat="10.1569323478714" lon="-75.6824368787306">
        <ele>52.3851891</ele>
        <time>2019-09-10T15:04:04.300Z</time>
      </trkpt>
      <trkpt lat="10.1569340818907" lon="-75.6824390144156">
        <ele>52.3851891</ele>
        <time>2019-09-10T15:04:04.400Z</time>
      </trkpt>
      <trkpt lat="10.1569357977756" lon="-75.682441167786">
        <ele>52.3851891</ele>
        <time>2019-09-10T15:04:04.500Z</time>
      </trkpt>
      <trkpt lat="10.1569375134521" lon="-75.6824433159343">
        <ele>52.3851891</ele>
        <time>2019-09-10T15:04:04.600Z</time>
      </trkpt>
      <trkpt lat="10.156939240697" lon="-75.6824454535689">
        <ele>52.3851891</ele>
        <time>2019-09-10T15:04:04.700Z</time>
      </trkpt>
      <trkpt lat="10.1569427115495" lon="-75.6824496838587">
        <ele>52.3851891</ele>
        <time>2019-09-10T15:04:04.900Z</time>
      </trkpt>
      <trkpt lat="10.1569461583271" lon="-75.6824539138003">
        <ele>52.3851891</ele>
        <time>2019-09-10T15:04:05.100Z</time>
      </trkpt>
      <trkpt lat="10.1569478889071" lon="-75.6824560505994">
        <ele>52.3851891</ele>
        <time>2019-09-10T15:04:05.200Z</time>
      </trkpt>
      <trkpt lat="10.156949645438" lon="-75.6824582337007">
        <ele>52.3851891</ele>
        <time>2019-09-10T15:04:05.300Z</time>
      </trkpt>
      <trkpt lat="10.1569513975916" lon="-75.6824604117889">
        <ele>52.3851891</ele>
        <time>2019-09-10T15:04:05.400Z</time>
      </trkpt>
      <trkpt lat="10.156953158604" lon="-75.6824625737235">
        <ele>52.3851891</ele>
        <time>2019-09-10T15:04:05.500Z</time>
      </trkpt>
      <trkpt lat="10.1569549098197" lon="-75.6824647098959">
        <ele>52.3851891</ele>
        <time>2019-09-10T15:04:05.600Z</time>
      </trkpt>
      <trkpt lat="10.1569566688518" lon="-75.6824668196098">
        <ele>52.3851891</ele>
        <time>2019-09-10T15:04:05.700Z</time>
      </trkpt>
      <trkpt lat="10.1569584239236" lon="-75.6824689184619">
        <ele>52.3851891</ele>
        <time>2019-09-10T15:04:05.800Z</time>
      </trkpt>
      <trkpt lat="10.1569601824347" lon="-75.6824709985145">
        <ele>52.3851891</ele>
        <time>2019-09-10T15:04:05.900Z</time>
      </trkpt>
      <trkpt lat="10.1569619328166" lon="-75.68247308177">
        <ele>52.3851891</ele>
        <time>2019-09-10T15:04:06.000Z</time>
      </trkpt>
      <trkpt lat="10.156963608264" lon="-75.6824750798014">
        <ele>52.3851891</ele>
        <time>2019-09-10T15:04:06.100Z</time>
      </trkpt>
      <trkpt lat="10.1569652663066" lon="-75.6824770679457">
        <ele>52.3851891</ele>
        <time>2019-09-10T15:04:06.200Z</time>
      </trkpt>
      <trkpt lat="10.156966970102" lon="-75.682479112906">
        <ele>52.3851891</ele>
        <time>2019-09-10T15:04:06.300Z</time>
      </trkpt>
      <trkpt lat="10.1569687116251" lon="-75.6824812073019">
        <ele>52.3851891</ele>
        <time>2019-09-10T15:04:06.400Z</time>
      </trkpt>
      <trkpt lat="10.1569704341801" lon="-75.6824832883293">
        <ele>52.3851891</ele>
        <time>2019-09-10T15:04:06.500Z</time>
      </trkpt>
      <trkpt lat="10.1569721463131" lon="-75.6824853621155">
        <ele>52.3851891</ele>
        <time>2019-09-10T15:04:06.600Z</time>
      </trkpt>
      <trkpt lat="10.1569738661584" lon="-75.6824874771211">
        <ele>52.3851891</ele>
        <time>2019-09-10T15:04:06.700Z</time>
      </trkpt>
      <trkpt lat="10.1569755959047" lon="-75.682489599925">
        <ele>52.3851891</ele>
        <time>2019-09-10T15:04:06.800Z</time>
      </trkpt>
      <trkpt lat="10.1569773098094" lon="-75.6824917312235">
        <ele>52.3851891</ele>
        <time>2019-09-10T15:04:06.900Z</time>
      </trkpt>
      <trkpt lat="10.1569790212129" lon="-75.6824938480394">
        <ele>52.3851891</ele>
        <time>2019-09-10T15:04:07.000Z</time>
      </trkpt>
      <trkpt lat="10.1569807081245" lon="-75.682495969033">
        <ele>52.2851891</ele>
        <time>2019-09-10T15:04:07.100Z</time>
      </trkpt>
      <trkpt lat="10.1569823983712" lon="-75.6824980822284">
        <ele>52.2851891</ele>
        <time>2019-09-10T15:04:07.200Z</time>
      </trkpt>
      <trkpt lat="10.1569841002906" lon="-75.6825001970947">
        <ele>52.2851891</ele>
        <time>2019-09-10T15:04:07.300Z</time>
      </trkpt>
      <trkpt lat="10.1569858166966" lon="-75.6825023040236">
        <ele>52.2851891</ele>
        <time>2019-09-10T15:04:07.400Z</time>
      </trkpt>
      <trkpt lat="10.1569875270579" lon="-75.6825044078888">
        <ele>52.2851891</ele>
        <time>2019-09-10T15:04:07.500Z</time>
      </trkpt>
      <trkpt lat="10.1569892460694" lon="-75.6825065079942">
        <ele>52.2851891</ele>
        <time>2019-09-10T15:04:07.600Z</time>
      </trkpt>
      <trkpt lat="10.1569909823815" lon="-75.6825086365075">
        <ele>52.2851891</ele>
        <time>2019-09-10T15:04:07.700Z</time>
      </trkpt>
      <trkpt lat="10.1569927260933" lon="-75.6825107622358">
        <ele>52.3851891</ele>
        <time>2019-09-10T15:04:07.800Z</time>
      </trkpt>
      <trkpt lat="10.1569944686587" lon="-75.6825129211068">
        <ele>52.3851891</ele>
        <time>2019-09-10T15:04:07.900Z</time>
      </trkpt>
      <trkpt lat="10.1569962085143" lon="-75.6825150682803">
        <ele>52.3851891</ele>
        <time>2019-09-10T15:04:08.000Z</time>
      </trkpt>
      <trkpt lat="10.1569979217937" lon="-75.6825171821719">
        <ele>52.2851891</ele>
        <time>2019-09-10T15:04:08.100Z</time>
      </trkpt>
      <trkpt lat="10.1569996346562" lon="-75.6825192747575">
        <ele>52.2851891</ele>
        <time>2019-09-10T15:04:08.200Z</time>
      </trkpt>
      <trkpt lat="10.1570013489779" lon="-75.6825213575952">
        <ele>52.2851891</ele>
        <time>2019-09-10T15:04:08.300Z</time>
      </trkpt>
      <trkpt lat="10.1570030686147" lon="-75.6825234473957">
        <ele>52.2851891</ele>
        <time>2019-09-10T15:04:08.400Z</time>
      </trkpt>
      <trkpt lat="10.1570047915866" lon="-75.682525506003">
        <ele>52.2851891</ele>
        <time>2019-09-10T15:04:08.500Z</time>
      </trkpt>
      <trkpt lat="10.1570065212286" lon="-75.6825275636356">
        <ele>52.2851891</ele>
        <time>2019-09-10T15:04:08.600Z</time>
      </trkpt>
      <trkpt lat="10.1570082634813" lon="-75.6825296253066">
        <ele>52.2851891</ele>
        <time>2019-09-10T15:04:08.700Z</time>
      </trkpt>
      <trkpt lat="10.1570100111535" lon="-75.6825316989534">
        <ele>52.3851891</ele>
        <time>2019-09-10T15:04:08.800Z</time>
      </trkpt>
      <trkpt lat="10.1570117371478" lon="-75.682533784994">
        <ele>52.3851891</ele>
        <time>2019-09-10T15:04:08.900Z</time>
      </trkpt>
      <trkpt lat="10.1570134628294" lon="-75.6825358805039">
        <ele>52.3851891</ele>
        <time>2019-09-10T15:04:09.000Z</time>
      </trkpt>
      <trkpt lat="10.1570151865309" lon="-75.6825379839514">
        <ele>52.3851891</ele>
        <time>2019-09-10T15:04:09.100Z</time>
      </trkpt>
      <trkpt lat="10.1570169180489" lon="-75.6825400868419">
        <ele>52.3851891</ele>
        <time>2019-09-10T15:04:09.200Z</time>
      </trkpt>
      <trkpt lat="10.157020387755" lon="-75.6825442378955">
        <ele>52.3851891</ele>
        <time>2019-09-10T15:04:09.400Z</time>
      </trkpt>
      <trkpt lat="10.1570221575218" lon="-75.6825463179482">
        <ele>52.3851891</ele>
        <time>2019-09-10T15:04:09.500Z</time>
      </trkpt>
      <trkpt lat="10.1570239313533" lon="-75.6825484042673">
        <ele>52.3851891</ele>
        <time>2019-09-10T15:04:09.600Z</time>
      </trkpt>
      <trkpt lat="10.1570256926784" lon="-75.6825504997772">
        <ele>52.3851891</ele>
        <time>2019-09-10T15:04:09.700Z</time>
      </trkpt>
      <trkpt lat="10.1570274437898" lon="-75.6825525993255">
        <ele>52.3851891</ele>
        <time>2019-09-10T15:04:09.800Z</time>
      </trkpt>
      <trkpt lat="10.1570291623844" lon="-75.6825546738079">
        <ele>52.3851891</ele>
        <time>2019-09-10T15:04:09.900Z</time>
      </trkpt>
      <trkpt lat="10.1570308744132" lon="-75.6825567456445">
        <ele>52.3851891</ele>
        <time>2019-09-10T15:04:10.000Z</time>
      </trkpt>
      <trkpt lat="10.1570325828985" lon="-75.6825588238868">
        <ele>52.3851891</ele>
        <time>2019-09-10T15:04:10.100Z</time>
      </trkpt>
      <trkpt lat="10.1570342979496" lon="-75.6825609157761">
        <ele>52.3851891</ele>
        <time>2019-09-10T15:04:10.200Z</time>
      </trkpt>
      <trkpt lat="10.1570359880921" lon="-75.6825630179703">
        <ele>52.3851891</ele>
        <time>2019-09-10T15:04:10.300Z</time>
      </trkpt>
      <trkpt lat="10.1570376819865" lon="-75.6825651228103">
        <ele>52.3851891</ele>
        <time>2019-09-10T15:04:10.400Z</time>
      </trkpt>
      <trkpt lat="10.1570393600395" lon="-75.6825672002171">
        <ele>52.3851891</ele>
        <time>2019-09-10T15:04:10.500Z</time>
      </trkpt>
      <trkpt lat="10.1570410499735" lon="-75.6825692748387">
        <ele>52.3851891</ele>
        <time>2019-09-10T15:04:10.600Z</time>
      </trkpt>
      <trkpt lat="10.1570428015018" lon="-75.6825714317601">
        <ele>52.3851891</ele>
        <time>2019-09-10T15:04:10.700Z</time>
      </trkpt>
      <trkpt lat="10.157044571894" lon="-75.682573609152">
        <ele>52.3851891</ele>
        <time>2019-09-10T15:04:10.800Z</time>
      </trkpt>
      <trkpt lat="10.1570462864241" lon="-75.6825757294494">
        <ele>52.3851891</ele>
        <time>2019-09-10T15:04:10.900Z</time>
      </trkpt>
      <trkpt lat="10.1570479827156" lon="-75.6825778168825">
        <ele>52.3851891</ele>
        <time>2019-09-10T15:04:11.000Z</time>
      </trkpt>
      <trkpt lat="10.1570497127745" lon="-75.6825799463707">
        <ele>52.3851891</ele>
        <time>2019-09-10T15:04:11.100Z</time>
      </trkpt>
      <trkpt lat="10.1570514747248" lon="-75.6825820895058">
        <ele>52.3851891</ele>
        <time>2019-09-10T15:04:11.200Z</time>
      </trkpt>
      <trkpt lat="10.1570532463677" lon="-75.68258422721">
        <ele>52.3851891</ele>
        <time>2019-09-10T15:04:11.300Z</time>
      </trkpt>
      <trkpt lat="10.1570550183232" lon="-75.6825863482036">
        <ele>52.3851891</ele>
        <time>2019-09-10T15:04:11.400Z</time>
      </trkpt>
      <trkpt lat="10.157056805078" lon="-75.6825884627915">
        <ele>52.3851891</ele>
        <time>2019-09-10T15:04:11.500Z</time>
      </trkpt>
      <trkpt lat="10.1570585864133" lon="-75.6825905691633">
        <ele>52.3851891</ele>
        <time>2019-09-10T15:04:11.600Z</time>
      </trkpt>
      <trkpt lat="10.1570603460708" lon="-75.6825926901569">
        <ele>52.3851891</ele>
        <time>2019-09-10T15:04:11.700Z</time>
      </trkpt>
      <trkpt lat="10.1570620881151" lon="-75.6825948126823">
        <ele>52.3851891</ele>
        <time>2019-09-10T15:04:11.800Z</time>
      </trkpt>
      <trkpt lat="10.1570638137967" lon="-75.6825969281057">
        <ele>52.3851891</ele>
        <time>2019-09-10T15:04:11.900Z</time>
      </trkpt>
      <trkpt lat="10.1570655386446" lon="-75.6825990318317">
        <ele>52.3851891</ele>
        <time>2019-09-10T15:04:12.000Z</time>
      </trkpt>
      <trkpt lat="10.1570672835028" lon="-75.6826011306838">
        <ele>52.3851891</ele>
        <time>2019-09-10T15:04:12.100Z</time>
      </trkpt>
      <trkpt lat="10.1570690355522" lon="-75.6826032273077">
        <ele>52.3851891</ele>
        <time>2019-09-10T15:04:12.200Z</time>
      </trkpt>
      <trkpt lat="10.1570707860383" lon="-75.6826053229569">
        <ele>52.3851891</ele>
        <time>2019-09-10T15:04:12.300Z</time>
      </trkpt>
      <trkpt lat="10.1570725310007" lon="-75.6826074177706">
        <ele>52.3851891</ele>
        <time>2019-09-10T15:04:12.400Z</time>
      </trkpt>
      <trkpt lat="10.1570742477194" lon="-75.6826094896071">
        <ele>52.3851891</ele>
        <time>2019-09-10T15:04:12.500Z</time>
      </trkpt>
      <trkpt lat="10.1570759537034" lon="-75.6826115569876">
        <ele>52.3851891</ele>
        <time>2019-09-10T15:04:12.600Z</time>
      </trkpt>
      <trkpt lat="10.1570776595832" lon="-75.6826136275708">
        <ele>52.3851891</ele>
        <time>2019-09-10T15:04:12.700Z</time>
      </trkpt>
      <trkpt lat="10.1570793788032" lon="-75.6826157097123">
        <ele>52.3851891</ele>
        <time>2019-09-10T15:04:12.800Z</time>
      </trkpt>
      <trkpt lat="10.1570811067777" lon="-75.6826177997912">
        <ele>52.3851891</ele>
        <time>2019-09-10T15:04:12.900Z</time>
      </trkpt>
      <trkpt lat="10.1570828402758" lon="-75.6826198943264">
        <ele>52.3851891</ele>
        <time>2019-09-10T15:04:13.000Z</time>
      </trkpt>
      <trkpt lat="10.1570863717846" lon="-75.6826240995503">
        <ele>52.3851891</ele>
        <time>2019-09-10T15:04:13.200Z</time>
      </trkpt>
      <trkpt lat="10.157088117685" lon="-75.6826261773748">
        <ele>52.3851891</ele>
        <time>2019-09-10T15:04:13.300Z</time>
      </trkpt>
      <trkpt lat="10.1570898497241" lon="-75.6826282525535">
        <ele>52.3851891</ele>
        <time>2019-09-10T15:04:13.400Z</time>
      </trkpt>
      <trkpt lat="10.1570915819716" lon="-75.6826303099075">
        <ele>52.3851891</ele>
        <time>2019-09-10T15:04:13.500Z</time>
      </trkpt>
      <trkpt lat="10.1570933140107" lon="-75.6826323781235">
        <ele>52.3851891</ele>
        <time>2019-09-10T15:04:13.600Z</time>
      </trkpt>
      <trkpt lat="10.1570950452161" lon="-75.6826344261474">
        <ele>52.3851891</ele>
        <time>2019-09-10T15:04:13.700Z</time>
      </trkpt>
      <trkpt lat="10.1570967775678" lon="-75.6826364809949">
        <ele>52.3851891</ele>
        <time>2019-09-10T15:04:13.800Z</time>
      </trkpt>
      <trkpt lat="10.1570984881375" lon="-75.6826385401593">
        <ele>52.3851891</ele>
        <time>2019-09-10T15:04:13.900Z</time>
      </trkpt>
      <trkpt lat="10.157100198603" lon="-75.6826406171483">
        <ele>52.3851891</ele>
        <time>2019-09-10T15:04:14.000Z</time>
      </trkpt>
      <trkpt lat="10.1571019143837" lon="-75.6826427041636">
        <ele>52.3851891</ele>
        <time>2019-09-10T15:04:14.100Z</time>
      </trkpt>
      <trkpt lat="10.1571036460059" lon="-75.6826447978633">
        <ele>52.3851891</ele>
        <time>2019-09-10T15:04:14.200Z</time>
      </trkpt>
      <trkpt lat="10.157105383256" lon="-75.6826468985256">
        <ele>52.3851891</ele>
        <time>2019-09-10T15:04:14.300Z</time>
      </trkpt>
      <trkpt lat="10.1571071275931" lon="-75.6826490009983">
        <ele>52.3851891</ele>
        <time>2019-09-10T15:04:14.400Z</time>
      </trkpt>
      <trkpt lat="10.1571088787045" lon="-75.6826511084842">
        <ele>52.3851891</ele>
        <time>2019-09-10T15:04:14.500Z</time>
      </trkpt>
      <trkpt lat="10.1571106336721" lon="-75.6826532120709">
        <ele>52.3851891</ele>
        <time>2019-09-10T15:04:14.600Z</time>
      </trkpt>
      <trkpt lat="10.1571123870764" lon="-75.6826553183034">
        <ele>52.3851891</ele>
        <time>2019-09-10T15:04:14.700Z</time>
      </trkpt>
      <trkpt lat="10.1571141439199" lon="-75.6826574195228">
        <ele>52.3851891</ele>
        <time>2019-09-10T15:04:14.800Z</time>
      </trkpt>
      <trkpt lat="10.1571158702269" lon="-75.682659493866">
        <ele>52.3851891</ele>
        <time>2019-09-10T15:04:14.900Z</time>
      </trkpt>
      <trkpt lat="10.1571175940326" lon="-75.6826615629175">
        <ele>52.3851891</ele>
        <time>2019-09-10T15:04:15.000Z</time>
      </trkpt>
      <trkpt lat="10.1571193265928" lon="-75.6826636901775">
        <ele>52.3851891</ele>
        <time>2019-09-10T15:04:15.100Z</time>
      </trkpt>
      <trkpt lat="10.1571210771831" lon="-75.6826658312239">
        <ele>52.3851891</ele>
        <time>2019-09-10T15:04:15.200Z</time>
      </trkpt>
      <trkpt lat="10.1571228459078" lon="-75.6826679774226">
        <ele>52.3851891</ele>
        <time>2019-09-10T15:04:15.300Z</time>
      </trkpt>
      <trkpt lat="10.1571246135902" lon="-75.6826701071893">
        <ele>52.3851891</ele>
        <time>2019-09-10T15:04:15.400Z</time>
      </trkpt>
      <trkpt lat="10.1571263710591" lon="-75.6826722624397">
        <ele>52.3851891</ele>
        <time>2019-09-10T15:04:15.500Z</time>
      </trkpt>
      <trkpt lat="10.1571281219621" lon="-75.6826744107273">
        <ele>52.3851891</ele>
        <time>2019-09-10T15:04:15.600Z</time>
      </trkpt>
      <trkpt lat="10.1571298657781" lon="-75.6826765531661">
        <ele>52.3851891</ele>
        <time>2019-09-10T15:04:15.700Z</time>
      </trkpt>
      <trkpt lat="10.1571316111574" lon="-75.6826786820973">
        <ele>52.3851891</ele>
        <time>2019-09-10T15:04:15.800Z</time>
      </trkpt>
      <trkpt lat="10.1571333518468" lon="-75.6826808015591">
        <ele>52.3851891</ele>
        <time>2019-09-10T15:04:15.900Z</time>
      </trkpt>
      <trkpt lat="10.1571350939952" lon="-75.6826829190713">
        <ele>52.3851891</ele>
        <time>2019-09-10T15:04:16.000Z</time>
      </trkpt>
      <trkpt lat="10.1571368024805" lon="-75.6826849984276">
        <ele>52.3851891</ele>
        <time>2019-09-10T15:04:16.100Z</time>
      </trkpt>
      <trkpt lat="10.1571385127375" lon="-75.6826870715175">
        <ele>52.3851891</ele>
        <time>2019-09-10T15:04:16.200Z</time>
      </trkpt>
      <trkpt lat="10.1571402439429" lon="-75.6826891632676">
        <ele>52.3851891</ele>
        <time>2019-09-10T15:04:16.300Z</time>
      </trkpt>
      <trkpt lat="10.1571419903644" lon="-75.6826912711712">
        <ele>52.3851891</ele>
        <time>2019-09-10T15:04:16.400Z</time>
      </trkpt>
      <trkpt lat="10.1571437326171" lon="-75.682693370441">
        <ele>52.3851891</ele>
        <time>2019-09-10T15:04:16.500Z</time>
      </trkpt>
      <trkpt lat="10.1571454757035" lon="-75.6826954669257">
        <ele>52.3851891</ele>
        <time>2019-09-10T15:04:16.600Z</time>
      </trkpt>
      <trkpt lat="10.1571472177478" lon="-75.6826975597898">
        <ele>52.3851891</ele>
        <time>2019-09-10T15:04:16.700Z</time>
      </trkpt>
      <trkpt lat="10.1571489579161" lon="-75.6826996533502">
        <ele>52.3851891</ele>
        <time>2019-09-10T15:04:16.800Z</time>
      </trkpt>
      <trkpt lat="10.1571506690068" lon="-75.682701747189">
        <ele>52.3851891</ele>
        <time>2019-09-10T15:04:16.900Z</time>
      </trkpt>
      <trkpt lat="10.1571523759288" lon="-75.6827038387998">
        <ele>52.3851891</ele>
        <time>2019-09-10T15:04:17.000Z</time>
      </trkpt>
      <trkpt lat="10.1571541063004" lon="-75.682705963414">
        <ele>52.3851891</ele>
        <time>2019-09-10T15:04:17.100Z</time>
      </trkpt>
      <trkpt lat="10.1571558516797" lon="-75.6827080895601">
        <ele>52.3851891</ele>
        <time>2019-09-10T15:04:17.200Z</time>
      </trkpt>
      <trkpt lat="10.1571576350994" lon="-75.6827102133388">
        <ele>52.3851891</ele>
        <time>2019-09-10T15:04:17.300Z</time>
      </trkpt>
      <trkpt lat="10.157161204336" lon="-75.6827144383369">
        <ele>52.2851891</ele>
        <time>2019-09-10T15:04:17.500Z</time>
      </trkpt>
      <trkpt lat="10.1571647324055" lon="-75.6827186435607">
        <ele>52.2851891</ele>
        <time>2019-09-10T15:04:17.700Z</time>
      </trkpt>
      <trkpt lat="10.1571664856014" lon="-75.6827207460334">
        <ele>52.3851891</ele>
        <time>2019-09-10T15:04:17.800Z</time>
      </trkpt>
      <trkpt lat="10.1571682280625" lon="-75.682722851709">
        <ele>52.3851891</ele>
        <time>2019-09-10T15:04:17.900Z</time>
      </trkpt>
      <trkpt lat="10.1571716974559" lon="-75.6827270644526">
        <ele>52.3851891</ele>
        <time>2019-09-10T15:04:18.100Z</time>
      </trkpt>
      <trkpt lat="10.157173429495" lon="-75.6827291685964">
        <ele>52.3851891</ele>
        <time>2019-09-10T15:04:18.200Z</time>
      </trkpt>
      <trkpt lat="10.1571751831077" lon="-75.6827313260748">
        <ele>52.3851891</ele>
        <time>2019-09-10T15:04:18.300Z</time>
      </trkpt>
      <trkpt lat="10.1571769410977" lon="-75.6827334809074">
        <ele>52.3851891</ele>
        <time>2019-09-10T15:04:18.400Z</time>
      </trkpt>
      <trkpt lat="10.1571786974201" lon="-75.6827356003692">
        <ele>52.3851891</ele>
        <time>2019-09-10T15:04:18.500Z</time>
      </trkpt>
      <trkpt lat="10.1571804446754" lon="-75.6827376999175">
        <ele>52.3851891</ele>
        <time>2019-09-10T15:04:18.600Z</time>
      </trkpt>
      <trkpt lat="10.1571822122537" lon="-75.6827398214681">
        <ele>52.3851891</ele>
        <time>2019-09-10T15:04:18.700Z</time>
      </trkpt>
      <trkpt lat="10.1571839816037" lon="-75.6827419432972">
        <ele>52.3851891</ele>
        <time>2019-09-10T15:04:18.800Z</time>
      </trkpt>
      <trkpt lat="10.1571857281294" lon="-75.6827440279453">
        <ele>52.3851891</ele>
        <time>2019-09-10T15:04:18.900Z</time>
      </trkpt>
      <trkpt lat="10.1571874645457" lon="-75.6827460999211">
        <ele>52.3851891</ele>
        <time>2019-09-10T15:04:19.000Z</time>
      </trkpt>
      <trkpt lat="10.1571891922076" lon="-75.6827481394505">
        <ele>52.3851891</ele>
        <time>2019-09-10T15:04:19.100Z</time>
      </trkpt>
      <trkpt lat="10.1571909216412" lon="-75.6827501873352">
        <ele>52.3851891</ele>
        <time>2019-09-10T15:04:19.200Z</time>
      </trkpt>
      <trkpt lat="10.1571926457595" lon="-75.6827522153065">
        <ele>52.3851891</ele>
        <time>2019-09-10T15:04:19.300Z</time>
      </trkpt>
      <trkpt lat="10.1571943782155" lon="-75.6827542545573">
        <ele>52.3851891</ele>
        <time>2019-09-10T15:04:19.400Z</time>
      </trkpt>
      <trkpt lat="10.1571961127558" lon="-75.6827563050879">
        <ele>52.3851891</ele>
        <time>2019-09-10T15:04:19.500Z</time>
      </trkpt>
      <trkpt lat="10.157197850006" lon="-75.6827583734431">
        <ele>52.3851891</ele>
        <time>2019-09-10T15:04:19.600Z</time>
      </trkpt>
      <trkpt lat="10.1571995556773" lon="-75.6827604331645">
        <ele>52.3851891</ele>
        <time>2019-09-10T15:04:19.700Z</time>
      </trkpt>
      <trkpt lat="10.1572012610359" lon="-75.6827624960887">
        <ele>52.3851891</ele>
        <time>2019-09-10T15:04:19.800Z</time>
      </trkpt>
      <trkpt lat="10.157202967541" lon="-75.6827645501006">
        <ele>52.3851891</ele>
        <time>2019-09-10T15:04:19.900Z</time>
      </trkpt>
      <trkpt lat="10.1572046887412" lon="-75.682766609822">
        <ele>52.3851891</ele>
        <time>2019-09-10T15:04:20.000Z</time>
      </trkpt>
      <trkpt lat="10.1572064154651" lon="-75.6827686880643">
        <ele>52.3851891</ele>
        <time>2019-09-10T15:04:20.100Z</time>
      </trkpt>
      <trkpt lat="10.1572081513603" lon="-75.6827707760545">
        <ele>52.3851891</ele>
        <time>2019-09-10T15:04:20.200Z</time>
      </trkpt>
      <trkpt lat="10.1572098885062" lon="-75.6827728775524">
        <ele>52.3851891</ele>
        <time>2019-09-10T15:04:20.300Z</time>
      </trkpt>
      <trkpt lat="10.1572116257563" lon="-75.6827749811391">
        <ele>52.3851891</ele>
        <time>2019-09-10T15:04:20.400Z</time>
      </trkpt>
      <trkpt lat="10.1572132949505" lon="-75.682777042253">
        <ele>52.3851891</ele>
        <time>2019-09-10T15:04:20.500Z</time>
      </trkpt>
      <trkpt lat="10.1572149546606" lon="-75.6827790925051">
        <ele>52.3851891</ele>
        <time>2019-09-10T15:04:20.600Z</time>
      </trkpt>
      <trkpt lat="10.1572166635628" lon="-75.6827812302093">
        <ele>52.3851891</ele>
        <time>2019-09-10T15:04:20.700Z</time>
      </trkpt>
      <trkpt lat="10.1572184086294" lon="-75.6827833939542">
        <ele>52.3851891</ele>
        <time>2019-09-10T15:04:20.800Z</time>
      </trkpt>
      <trkpt lat="10.1572201666194" lon="-75.6827855634085">
        <ele>52.3851891</ele>
        <time>2019-09-10T15:04:20.900Z</time>
      </trkpt>
      <trkpt lat="10.1572219195025" lon="-75.6827877071007">
        <ele>52.3851891</ele>
        <time>2019-09-10T15:04:21.000Z</time>
      </trkpt>
      <trkpt lat="10.1572236513332" lon="-75.6827898177894">
        <ele>52.3851891</ele>
        <time>2019-09-10T15:04:21.100Z</time>
      </trkpt>
      <trkpt lat="10.1572253744093" lon="-75.6827919106535">
        <ele>52.3851891</ele>
        <time>2019-09-10T15:04:21.200Z</time>
      </trkpt>
      <trkpt lat="10.1572271259376" lon="-75.6827940278873">
        <ele>52.3851891</ele>
        <time>2019-09-10T15:04:21.300Z</time>
      </trkpt>
      <trkpt lat="10.1572288827812" lon="-75.6827961502734">
        <ele>52.3851891</ele>
        <time>2019-09-10T15:04:21.400Z</time>
      </trkpt>
      <trkpt lat="10.1572306161751" lon="-75.6827982662538">
        <ele>52.3851891</ele>
        <time>2019-09-10T15:04:21.500Z</time>
      </trkpt>
      <trkpt lat="10.1572323403977" lon="-75.682800374993">
        <ele>52.3851891</ele>
        <time>2019-09-10T15:04:21.600Z</time>
      </trkpt>
      <trkpt lat="10.1572357322511" lon="-75.6828045849515">
        <ele>52.3851891</ele>
        <time>2019-09-10T15:04:21.800Z</time>
      </trkpt>
      <trkpt lat="10.1572374322946" lon="-75.6828066874242">
        <ele>52.3851891</ele>
        <time>2019-09-10T15:04:21.900Z</time>
      </trkpt>
      <trkpt lat="10.1572391441149" lon="-75.682808793239">
        <ele>52.3851891</ele>
        <time>2019-09-10T15:04:22.000Z</time>
      </trkpt>
      <trkpt lat="10.1572408608336" lon="-75.6828109223094">
        <ele>52.3851891</ele>
        <time>2019-09-10T15:04:22.100Z</time>
      </trkpt>
      <trkpt lat="10.1572425835971" lon="-75.6828130586211">
        <ele>52.3851891</ele>
        <time>2019-09-10T15:04:22.200Z</time>
      </trkpt>
      <trkpt lat="10.1572443184501" lon="-75.682815189084">
        <ele>52.3851891</ele>
        <time>2019-09-10T15:04:22.300Z</time>
      </trkpt>
      <trkpt lat="10.1572460539285" lon="-75.6828173081281">
        <ele>52.3851891</ele>
        <time>2019-09-10T15:04:22.400Z</time>
      </trkpt>
      <trkpt lat="10.1572477732527" lon="-75.6828194408191">
        <ele>52.3851891</ele>
        <time>2019-09-10T15:04:22.500Z</time>
      </trkpt>
      <trkpt lat="10.1572494870532" lon="-75.6828215733708">
        <ele>52.3851891</ele>
        <time>2019-09-10T15:04:22.600Z</time>
      </trkpt>
      <trkpt lat="10.1572511807392" lon="-75.6828236995169">
        <ele>52.3851891</ele>
        <time>2019-09-10T15:04:22.700Z</time>
      </trkpt>
      <trkpt lat="10.1572528772391" lon="-75.6828258178646">
        <ele>52.3851891</ele>
        <time>2019-09-10T15:04:22.800Z</time>
      </trkpt>
      <trkpt lat="10.157254586037" lon="-75.6828279506949">
        <ele>52.3851891</ele>
        <time>2019-09-10T15:04:22.900Z</time>
      </trkpt>
      <trkpt lat="10.1572563110933" lon="-75.6828300840822">
        <ele>52.3851891</ele>
        <time>2019-09-10T15:04:23.000Z</time>
      </trkpt>
      <trkpt lat="10.1572580246854" lon="-75.6828322049366">
        <ele>52.3851891</ele>
        <time>2019-09-10T15:04:23.100Z</time>
      </trkpt>
      <trkpt lat="10.157259741821" lon="-75.6828343166001">
        <ele>52.3851891</ele>
        <time>2019-09-10T15:04:23.200Z</time>
      </trkpt>
      <trkpt lat="10.1572614894931" lon="-75.6828364742178">
        <ele>52.3851891</ele>
        <time>2019-09-10T15:04:23.300Z</time>
      </trkpt>
      <trkpt lat="10.1572632445649" lon="-75.6828386374056">
        <ele>52.3851891</ele>
        <time>2019-09-10T15:04:23.400Z</time>
      </trkpt>
      <trkpt lat="10.1572650052646" lon="-75.6828407893139">
        <ele>52.3851891</ele>
        <time>2019-09-10T15:04:23.500Z</time>
      </trkpt>
      <trkpt lat="10.1572667609618" lon="-75.6828429207516">
        <ele>52.3851891</ele>
        <time>2019-09-10T15:04:23.600Z</time>
      </trkpt>
      <trkpt lat="10.1572684919587" lon="-75.682845064026">
        <ele>52.3851891</ele>
        <time>2019-09-10T15:04:23.700Z</time>
      </trkpt>
      <trkpt lat="10.1572702226429" lon="-75.6828472006162">
        <ele>52.3851891</ele>
        <time>2019-09-10T15:04:23.800Z</time>
      </trkpt>
      <trkpt lat="10.157271959893" lon="-75.6828493197995">
        <ele>52.3851891</ele>
        <time>2019-09-10T15:04:23.900Z</time>
      </trkpt>
      <trkpt lat="10.1572737110044" lon="-75.6828514272853">
        <ele>52.3851891</ele>
        <time>2019-09-10T15:04:24.000Z</time>
      </trkpt>
      <trkpt lat="10.1572754356439" lon="-75.682853494248">
        <ele>52.3851891</ele>
        <time>2019-09-10T15:04:24.100Z</time>
      </trkpt>
      <trkpt lat="10.1572771583031" lon="-75.6828555550834">
        <ele>52.3851891</ele>
        <time>2019-09-10T15:04:24.200Z</time>
      </trkpt>
      <trkpt lat="10.1572788962828" lon="-75.6828575816621">
        <ele>52.3851891</ele>
        <time>2019-09-10T15:04:24.300Z</time>
      </trkpt>
      <trkpt lat="10.1572806518757" lon="-75.6828596227233">
        <ele>52.3851891</ele>
        <time>2019-09-10T15:04:24.400Z</time>
      </trkpt>
      <trkpt lat="10.1572823994436" lon="-75.6828616685192">
        <ele>52.3851891</ele>
        <time>2019-09-10T15:04:24.500Z</time>
      </trkpt>
      <trkpt lat="10.1572841479495" lon="-75.6828637368744">
        <ele>52.3851891</ele>
        <time>2019-09-10T15:04:24.600Z</time>
      </trkpt>
      <trkpt lat="10.1572858892642" lon="-75.6828657939499">
        <ele>52.3851891</ele>
        <time>2019-09-10T15:04:24.700Z</time>
      </trkpt>
      <trkpt lat="10.1572876338098" lon="-75.6828678579882">
        <ele>52.3851891</ele>
        <time>2019-09-10T15:04:24.800Z</time>
      </trkpt>
      <trkpt lat="10.157289376792" lon="-75.6828699298247">
        <ele>52.3851891</ele>
        <time>2019-09-10T15:04:24.900Z</time>
      </trkpt>
      <trkpt lat="10.157291125819" lon="-75.6828720143335">
        <ele>52.3851891</ele>
        <time>2019-09-10T15:04:25.000Z</time>
      </trkpt>
      <trkpt lat="10.1572928409744" lon="-75.6828740843598">
        <ele>52.3851891</ele>
        <time>2019-09-10T15:04:25.100Z</time>
      </trkpt>
      <trkpt lat="10.1572945537327" lon="-75.6828761548038">
        <ele>52.3851891</ele>
        <time>2019-09-10T15:04:25.200Z</time>
      </trkpt>
      <trkpt lat="10.1572962536719" lon="-75.6828782574157">
        <ele>52.3851891</ele>
        <time>2019-09-10T15:04:25.300Z</time>
      </trkpt>
      <trkpt lat="10.1572996911739" lon="-75.6828824943898">
        <ele>52.3851891</ele>
        <time>2019-09-10T15:04:25.500Z</time>
      </trkpt>
      <trkpt lat="10.157301421337" lon="-75.6828846067496">
        <ele>52.3851891</ele>
        <time>2019-09-10T15:04:25.600Z</time>
      </trkpt>
      <trkpt lat="10.1573031208593" lon="-75.6828867001707">
        <ele>52.3851891</ele>
        <time>2019-09-10T15:04:25.700Z</time>
      </trkpt>
      <trkpt lat="10.1573048203817" lon="-75.6828887809196">
        <ele>52.3851891</ele>
        <time>2019-09-10T15:04:25.800Z</time>
      </trkpt>
      <trkpt lat="10.1573065443958" lon="-75.6828908896587">
        <ele>52.3851891</ele>
        <time>2019-09-10T15:04:25.900Z</time>
      </trkpt>
      <trkpt lat="10.1573082868569" lon="-75.6828930089813">
        <ele>52.3851891</ele>
        <time>2019-09-10T15:04:26.000Z</time>
      </trkpt>
      <trkpt lat="10.1573100355713" lon="-75.6828951301141">
        <ele>52.3851891</ele>
        <time>2019-09-10T15:04:26.100Z</time>
      </trkpt>
      <trkpt lat="10.157311783035" lon="-75.6828972437272">
        <ele>52.3851891</ele>
        <time>2019-09-10T15:04:26.200Z</time>
      </trkpt>
      <trkpt lat="10.1573135374815" lon="-75.6828993581758">
        <ele>52.3851891</ele>
        <time>2019-09-10T15:04:26.300Z</time>
      </trkpt>
      <trkpt lat="10.1573152918237" lon="-75.682901466915">
        <ele>52.3851891</ele>
        <time>2019-09-10T15:04:26.400Z</time>
      </trkpt>
      <trkpt lat="10.1573170443942" lon="-75.6829035732868">
        <ele>52.3851891</ele>
        <time>2019-09-10T15:04:26.500Z</time>
      </trkpt>
      <trkpt lat="10.1573187896693" lon="-75.6829056804941">
        <ele>52.2851891</ele>
        <time>2019-09-10T15:04:26.600Z</time>
      </trkpt>
      <trkpt lat="10.1573205246266" lon="-75.6829078140207">
        <ele>52.2851891</ele>
        <time>2019-09-10T15:04:26.700Z</time>
      </trkpt>
      <trkpt lat="10.1573222567699" lon="-75.6829099492183">
        <ele>52.2851891</ele>
        <time>2019-09-10T15:04:26.800Z</time>
      </trkpt>
      <trkpt lat="10.1573239854739" lon="-75.6829120773139">
        <ele>52.2851891</ele>
        <time>2019-09-10T15:04:26.900Z</time>
      </trkpt>
      <trkpt lat="10.1573257137611" lon="-75.6829141913448">
        <ele>52.2851891</ele>
        <time>2019-09-10T15:04:27.000Z</time>
      </trkpt>
      <trkpt lat="10.1573274418398" lon="-75.6829162971596">
        <ele>52.2851891</ele>
        <time>2019-09-10T15:04:27.100Z</time>
      </trkpt>
      <trkpt lat="10.1573291735662" lon="-75.6829183968472">
        <ele>52.2851891</ele>
        <time>2019-09-10T15:04:27.200Z</time>
      </trkpt>
      <trkpt lat="10.1573309089404" lon="-75.6829204654809">
        <ele>52.2851891</ele>
        <time>2019-09-10T15:04:27.300Z</time>
      </trkpt>
      <trkpt lat="10.1573326448356" lon="-75.6829225345324">
        <ele>52.2851891</ele>
        <time>2019-09-10T15:04:27.400Z</time>
      </trkpt>
      <trkpt lat="10.157334358115" lon="-75.6829245999632">
        <ele>52.2851891</ele>
        <time>2019-09-10T15:04:27.500Z</time>
      </trkpt>
      <trkpt lat="10.1573360694142" lon="-75.6829266761167">
        <ele>52.2851891</ele>
        <time>2019-09-10T15:04:27.600Z</time>
      </trkpt>
      <trkpt lat="10.1573377827979" lon="-75.6829287298501">
        <ele>52.2851891</ele>
        <time>2019-09-10T15:04:27.700Z</time>
      </trkpt>
      <trkpt lat="10.1573395054571" lon="-75.6829307920781">
        <ele>52.2851891</ele>
        <time>2019-09-10T15:04:27.800Z</time>
      </trkpt>
      <trkpt lat="10.1573412123791" lon="-75.6829328623828">
        <ele>52.2851891</ele>
        <time>2019-09-10T15:04:27.900Z</time>
      </trkpt>
      <trkpt lat="10.1573429260754" lon="-75.6829349410429">
        <ele>52.2851891</ele>
        <time>2019-09-10T15:04:28.000Z</time>
      </trkpt>
      <trkpt lat="10.1573446538415" lon="-75.6829370249947">
        <ele>52.2851891</ele>
        <time>2019-09-10T15:04:28.100Z</time>
      </trkpt>
      <trkpt lat="10.1573463994292" lon="-75.6829391136811">
        <ele>52.2851891</ele>
        <time>2019-09-10T15:04:28.200Z</time>
      </trkpt>
      <trkpt lat="10.1573481518955" lon="-75.6829412140649">
        <ele>52.2851891</ele>
        <time>2019-09-10T15:04:28.300Z</time>
      </trkpt>
      <trkpt lat="10.157349906342" lon="-75.6829433189049">
        <ele>52.2851891</ele>
        <time>2019-09-10T15:04:28.400Z</time>
      </trkpt>
      <trkpt lat="10.1573516529719" lon="-75.6829454599513">
        <ele>52.2851891</ele>
        <time>2019-09-10T15:04:28.500Z</time>
      </trkpt>
      <trkpt lat="10.1573533978301" lon="-75.6829476011369">
        <ele>52.2851891</ele>
        <time>2019-09-10T15:04:28.600Z</time>
      </trkpt>
      <trkpt lat="10.1573551504006" lon="-75.6829497747689">
        <ele>52.2851891</ele>
        <time>2019-09-10T15:04:28.700Z</time>
      </trkpt>
      <trkpt lat="10.1573569019289" lon="-75.6829519382353">
        <ele>52.2851891</ele>
        <time>2019-09-10T15:04:28.800Z</time>
      </trkpt>
      <trkpt lat="10.1573585956149" lon="-75.682954061457">
        <ele>52.2851891</ele>
        <time>2019-09-10T15:04:28.900Z</time>
      </trkpt>
      <trkpt lat="10.1573602750227" lon="-75.682956159752">
        <ele>52.2851891</ele>
        <time>2019-09-10T15:04:29.000Z</time>
      </trkpt>
      <trkpt lat="10.1573619776716" lon="-75.682958297874">
        <ele>52.2851891</ele>
        <time>2019-09-10T15:04:29.100Z</time>
      </trkpt>
      <trkpt lat="10.1573654470651" lon="-75.6829625465454">
        <ele>52.2851891</ele>
        <time>2019-09-10T15:04:29.300Z</time>
      </trkpt>
      <trkpt lat="10.1573671889009" lon="-75.6829646348141">
        <ele>52.2851891</ele>
        <time>2019-09-10T15:04:29.400Z</time>
      </trkpt>
      <trkpt lat="10.1573689382405" lon="-75.682966715563">
        <ele>52.2851891</ele>
        <time>2019-09-10T15:04:29.500Z</time>
      </trkpt>
      <trkpt lat="10.1573706898731" lon="-75.6829688000717">
        <ele>52.2851891</ele>
        <time>2019-09-10T15:04:29.600Z</time>
      </trkpt>
      <trkpt lat="10.1573724220164" lon="-75.6829708550585">
        <ele>52.2851891</ele>
        <time>2019-09-10T15:04:29.700Z</time>
      </trkpt>
      <trkpt lat="10.1573741512415" lon="-75.6829729100452">
        <ele>52.2851891</ele>
        <time>2019-09-10T15:04:29.800Z</time>
      </trkpt>
      <trkpt lat="10.1573758822384" lon="-75.6829749447006">
        <ele>52.2851891</ele>
        <time>2019-09-10T15:04:29.900Z</time>
      </trkpt>
      <trkpt lat="10.1573776199054" lon="-75.6829769936994">
        <ele>52.2851891</ele>
        <time>2019-09-10T15:04:30.000Z</time>
      </trkpt>
      <trkpt lat="10.1573793785207" lon="-75.6829790844747">
        <ele>52.2851891</ele>
        <time>2019-09-10T15:04:30.100Z</time>
      </trkpt>
      <trkpt lat="10.1573811417217" lon="-75.6829811972522">
        <ele>52.2851891</ele>
        <time>2019-09-10T15:04:30.200Z</time>
      </trkpt>
      <trkpt lat="10.1573828992948" lon="-75.6829833271581">
        <ele>52.2851891</ele>
        <time>2019-09-10T15:04:30.300Z</time>
      </trkpt>
      <trkpt lat="10.1573846462374" lon="-75.6829854509368">
        <ele>52.2851891</ele>
        <time>2019-09-10T15:04:30.400Z</time>
      </trkpt>
      <trkpt lat="10.157386357224" lon="-75.6829876046554">
        <ele>52.2851891</ele>
        <time>2019-09-10T15:04:30.500Z</time>
      </trkpt>
      <trkpt lat="10.1573880584138" lon="-75.6829897505756">
        <ele>52.2851891</ele>
        <time>2019-09-10T15:04:30.600Z</time>
      </trkpt>
      <trkpt lat="10.1573896961334" lon="-75.6829918065371">
        <ele>52.3851891</ele>
        <time>2019-09-10T15:04:30.700Z</time>
      </trkpt>
      <trkpt lat="10.157391330518" lon="-75.6829938264316">
        <ele>52.3851891</ele>
        <time>2019-09-10T15:04:30.800Z</time>
      </trkpt>
      <trkpt lat="10.1573930183676" lon="-75.6829959220807">
        <ele>52.3851891</ele>
        <time>2019-09-10T15:04:30.900Z</time>
      </trkpt>
      <trkpt lat="10.1573947564515" lon="-75.6829980600635">
        <ele>52.3851891</ele>
        <time>2019-09-10T15:04:31.000Z</time>
      </trkpt>
      <trkpt lat="10.1573964883864" lon="-75.683000200692">
        <ele>52.3851891</ele>
        <time>2019-09-10T15:04:31.100Z</time>
      </trkpt>
      <trkpt lat="10.1573982152144" lon="-75.6830023258633">
        <ele>52.3851891</ele>
        <time>2019-09-10T15:04:31.200Z</time>
      </trkpt>
      <trkpt lat="10.1573999770606" lon="-75.6830044823669">
        <ele>52.3851891</ele>
        <time>2019-09-10T15:04:31.300Z</time>
      </trkpt>
      <trkpt lat="10.1574017422417" lon="-75.6830066287049">
        <ele>52.3851891</ele>
        <time>2019-09-10T15:04:31.400Z</time>
      </trkpt>
      <trkpt lat="10.1574034901223" lon="-75.683008740647">
        <ele>52.2851891</ele>
        <time>2019-09-10T15:04:31.500Z</time>
      </trkpt>
      <trkpt lat="10.1574052283104" lon="-75.6830108346251">
        <ele>52.2851891</ele>
        <time>2019-09-10T15:04:31.600Z</time>
      </trkpt>
      <trkpt lat="10.1574069674365" lon="-75.6830129201087">
        <ele>52.2851891</ele>
        <time>2019-09-10T15:04:31.700Z</time>
      </trkpt>
      <trkpt lat="10.1574087120863" lon="-75.6830150061492">
        <ele>52.2851891</ele>
        <time>2019-09-10T15:04:31.800Z</time>
      </trkpt>
      <trkpt lat="10.1574104593415" lon="-75.6830170885692">
        <ele>52.2851891</ele>
        <time>2019-09-10T15:04:31.900Z</time>
      </trkpt>
      <trkpt lat="10.1574122115994" lon="-75.6830191718247">
        <ele>52.2851891</ele>
        <time>2019-09-10T15:04:32.000Z</time>
      </trkpt>
      <trkpt lat="10.1574139593758" lon="-75.6830212617644">
        <ele>52.2851891</ele>
        <time>2019-09-10T15:04:32.100Z</time>
      </trkpt>
      <trkpt lat="10.1574157098619" lon="-75.6830233581099">
        <ele>52.3851891</ele>
        <time>2019-09-10T15:04:32.200Z</time>
      </trkpt>
      <trkpt lat="10.157417453261" lon="-75.6830254369092">
        <ele>52.3851891</ele>
        <time>2019-09-10T15:04:32.300Z</time>
      </trkpt>
      <trkpt lat="10.1574191967643" lon="-75.6830275164048">
        <ele>52.3851891</ele>
        <time>2019-09-10T15:04:32.400Z</time>
      </trkpt>
      <trkpt lat="10.1574209303667" lon="-75.6830296020276">
        <ele>52.3851891</ele>
        <time>2019-09-10T15:04:32.500Z</time>
      </trkpt>
      <trkpt lat="10.157422666262" lon="-75.6830316954487">
        <ele>52.3851891</ele>
        <time>2019-09-10T15:04:32.600Z</time>
      </trkpt>
      <trkpt lat="10.1574243932985" lon="-75.6830338154675">
        <ele>52.3851891</ele>
        <time>2019-09-10T15:04:32.700Z</time>
      </trkpt>
      <trkpt lat="10.1574261241911" lon="-75.6830359395247">
        <ele>52.3851891</ele>
        <time>2019-09-10T15:04:32.800Z</time>
      </trkpt>
      <trkpt lat="10.1574278526867" lon="-75.6830380605184">
        <ele>52.3851891</ele>
        <time>2019-09-10T15:04:32.900Z</time>
      </trkpt>
      <trkpt lat="10.157429585768" lon="-75.6830401698145">
        <ele>52.3851891</ele>
        <time>2019-09-10T15:04:33.000Z</time>
      </trkpt>
      <trkpt lat="10.1574313171818" lon="-75.6830422745153">
        <ele>52.3851891</ele>
        <time>2019-09-10T15:04:33.100Z</time>
      </trkpt>
      <trkpt lat="10.1574330572459" lon="-75.6830443708608">
        <ele>52.3851891</ele>
        <time>2019-09-10T15:04:33.200Z</time>
      </trkpt>
      <trkpt lat="10.1574348001239" lon="-75.6830464627501">
        <ele>52.3851891</ele>
        <time>2019-09-10T15:04:33.300Z</time>
      </trkpt>
      <trkpt lat="10.1574365469623" lon="-75.6830485551964">
        <ele>52.3851891</ele>
        <time>2019-09-10T15:04:33.400Z</time>
      </trkpt>
      <trkpt lat="10.1574382892149" lon="-75.6830506271722">
        <ele>52.3851891</ele>
        <time>2019-09-10T15:04:33.500Z</time>
      </trkpt>
      <trkpt lat="10.1574400296959" lon="-75.6830526983125">
        <ele>52.3851891</ele>
        <time>2019-09-10T15:04:33.600Z</time>
      </trkpt>
      <trkpt lat="10.1574434901264" lon="-75.683056866773">
        <ele>52.3851891</ele>
        <time>2019-09-10T15:04:33.800Z</time>
      </trkpt>
      <trkpt lat="10.1574452358183" lon="-75.6830589650681">
        <ele>52.3851891</ele>
        <time>2019-09-10T15:04:33.900Z</time>
      </trkpt>
      <trkpt lat="10.1574469881804" lon="-75.6830610658697">
        <ele>52.3851891</ele>
        <time>2019-09-10T15:04:34.000Z</time>
      </trkpt>
      <trkpt lat="10.1574486974994" lon="-75.6830631421624">
        <ele>52.3851891</ele>
        <time>2019-09-10T15:04:34.100Z</time>
      </trkpt>
      <trkpt lat="10.1574521052986" lon="-75.6830672575668">
        <ele>52.3851891</ele>
        <time>2019-09-10T15:04:34.300Z</time>
      </trkpt>
      <trkpt lat="10.1574538262903" lon="-75.6830693111609">
        <ele>52.3851891</ele>
        <time>2019-09-10T15:04:34.400Z</time>
      </trkpt>
      <trkpt lat="10.1574555440512" lon="-75.6830713743637">
        <ele>52.3851891</ele>
        <time>2019-09-10T15:04:34.500Z</time>
      </trkpt>
      <trkpt lat="10.1574572656683" lon="-75.6830734574799">
        <ele>52.3851891</ele>
        <time>2019-09-10T15:04:34.600Z</time>
      </trkpt>
      <trkpt lat="10.1574589916626" lon="-75.6830755545217">
        <ele>52.3851891</ele>
        <time>2019-09-10T15:04:34.700Z</time>
      </trkpt>
      <trkpt lat="10.1574607223468" lon="-75.6830776560196">
        <ele>52.3851891</ele>
        <time>2019-09-10T15:04:34.800Z</time>
      </trkpt>
      <trkpt lat="10.1574624597011" lon="-75.6830797605811">
        <ele>52.3851891</ele>
        <time>2019-09-10T15:04:34.900Z</time>
      </trkpt>
      <trkpt lat="10.1574641989314" lon="-75.6830818662566">
        <ele>52.3851891</ele>
        <time>2019-09-10T15:04:35.000Z</time>
      </trkpt>
      <trkpt lat="10.1574659441023" lon="-75.6830839758313">
        <ele>52.3851891</ele>
        <time>2019-09-10T15:04:35.100Z</time>
      </trkpt>
      <trkpt lat="10.1574676908364" lon="-75.6830860841527">
        <ele>52.3851891</ele>
        <time>2019-09-10T15:04:35.200Z</time>
      </trkpt>
      <trkpt lat="10.1574694409057" lon="-75.6830881942844">
        <ele>52.4851891</ele>
        <time>2019-09-10T15:04:35.300Z</time>
      </trkpt>
      <trkpt lat="10.1574711871187" lon="-75.6830903038591">
        <ele>52.4851891</ele>
        <time>2019-09-10T15:04:35.400Z</time>
      </trkpt>
      <trkpt lat="10.1574729030037" lon="-75.6830924127375">
        <ele>52.4851891</ele>
        <time>2019-09-10T15:04:35.500Z</time>
      </trkpt>
      <trkpt lat="10.1574746122185" lon="-75.6830945210589">
        <ele>52.4851891</ele>
        <time>2019-09-10T15:04:35.600Z</time>
      </trkpt>
      <trkpt lat="10.157476317994" lon="-75.6830965977694">
        <ele>52.4851891</ele>
        <time>2019-09-10T15:04:35.700Z</time>
      </trkpt>
      <trkpt lat="10.1574780345043" lon="-75.683098670163">
        <ele>52.4851891</ele>
        <time>2019-09-10T15:04:35.800Z</time>
      </trkpt>
      <trkpt lat="10.1574797578931" lon="-75.6831007385182">
        <ele>52.4851891</ele>
        <time>2019-09-10T15:04:35.900Z</time>
      </trkpt>
      <trkpt lat="10.15748148889" lon="-75.6831028202419">
        <ele>52.4851891</ele>
        <time>2019-09-10T15:04:36.000Z</time>
      </trkpt>
      <trkpt lat="10.1574831815337" lon="-75.6831048780137">
        <ele>52.4851891</ele>
        <time>2019-09-10T15:04:36.100Z</time>
      </trkpt>
      <trkpt lat="10.15748487251" lon="-75.6831069380136">
        <ele>52.4851891</ele>
        <time>2019-09-10T15:04:36.200Z</time>
      </trkpt>
      <trkpt lat="10.1574865942312" lon="-75.6831090037229">
        <ele>52.4851891</ele>
        <time>2019-09-10T15:04:36.300Z</time>
      </trkpt>
      <trkpt lat="10.1574883413823" lon="-75.6831110864214">
        <ele>52.4851891</ele>
        <time>2019-09-10T15:04:36.400Z</time>
      </trkpt>
      <trkpt lat="10.1574901221965" lon="-75.6831131762219">
        <ele>52.4851891</ele>
        <time>2019-09-10T15:04:36.500Z</time>
      </trkpt>
      <trkpt lat="10.1574919051994" lon="-75.6831152714533">
        <ele>52.4851891</ele>
        <time>2019-09-10T15:04:36.600Z</time>
      </trkpt>
      <trkpt lat="10.1574936616261" lon="-75.6831173173884">
        <ele>52.4851891</ele>
        <time>2019-09-10T15:04:36.700Z</time>
      </trkpt>
      <trkpt lat="10.1574954061716" lon="-75.6831193588674">
        <ele>52.4851891</ele>
        <time>2019-09-10T15:04:36.800Z</time>
      </trkpt>
      <trkpt lat="10.1574971674967" lon="-75.6831214061951">
        <ele>52.4851891</ele>
        <time>2019-09-10T15:04:36.900Z</time>
      </trkpt>
      <trkpt lat="10.1574989320525" lon="-75.6831234777531">
        <ele>52.4851891</ele>
        <time>2019-09-10T15:04:37.000Z</time>
      </trkpt>
      <trkpt lat="10.1575006861863" lon="-75.683125535525">
        <ele>52.4851891</ele>
        <time>2019-09-10T15:04:37.100Z</time>
      </trkpt>
      <trkpt lat="10.1575024347965" lon="-75.6831276008165">
        <ele>52.4851891</ele>
        <time>2019-09-10T15:04:37.200Z</time>
      </trkpt>
      <trkpt lat="10.1575041510983" lon="-75.6831296505115">
        <ele>52.4851891</ele>
        <time>2019-09-10T15:04:37.300Z</time>
      </trkpt>
      <trkpt lat="10.1575058691718" lon="-75.6831317089796">
        <ele>52.4851891</ele>
        <time>2019-09-10T15:04:37.400Z</time>
      </trkpt>
      <trkpt lat="10.1575076117372" lon="-75.6831337774741">
        <ele>52.4851891</ele>
        <time>2019-09-10T15:04:37.500Z</time>
      </trkpt>
      <trkpt lat="10.1575093730622" lon="-75.6831358603118">
        <ele>52.4851891</ele>
        <time>2019-09-10T15:04:37.600Z</time>
      </trkpt>
      <trkpt lat="10.1575111053097" lon="-75.6831379262997">
        <ele>52.4851891</ele>
        <time>2019-09-10T15:04:37.700Z</time>
      </trkpt>
      <trkpt lat="10.1575128318251" lon="-75.6831399961867">
        <ele>52.4851891</ele>
        <time>2019-09-10T15:04:37.800Z</time>
      </trkpt>
      <trkpt lat="10.1575145469805" lon="-75.6831420786066">
        <ele>52.4851891</ele>
        <time>2019-09-10T15:04:37.900Z</time>
      </trkpt>
      <trkpt lat="10.157516274955" lon="-75.6831441724455">
        <ele>52.4851891</ele>
        <time>2019-09-10T15:04:38.000Z</time>
      </trkpt>
      <trkpt lat="10.1575180261707" lon="-75.6831462754752">
        <ele>52.3851891</ele>
        <time>2019-09-10T15:04:38.100Z</time>
      </trkpt>
      <trkpt lat="10.1575215553866" lon="-75.6831504928143">
        <ele>52.3851891</ele>
        <time>2019-09-10T15:04:38.300Z</time>
      </trkpt>
      <trkpt lat="10.1575233132724" lon="-75.6831526012749">
        <ele>52.3851891</ele>
        <time>2019-09-10T15:04:38.400Z</time>
      </trkpt>
      <trkpt lat="10.157525061153" lon="-75.6831546818846">
        <ele>52.3851891</ele>
        <time>2019-09-10T15:04:38.500Z</time>
      </trkpt>
      <trkpt lat="10.1575268048647" lon="-75.6831567591521">
        <ele>52.3851891</ele>
        <time>2019-09-10T15:04:38.600Z</time>
      </trkpt>
      <trkpt lat="10.1575285087643" lon="-75.683158862878">
        <ele>52.3851891</ele>
        <time>2019-09-10T15:04:38.700Z</time>
      </trkpt>
      <trkpt lat="10.1575302114132" lon="-75.6831609831754">
        <ele>52.4851891</ele>
        <time>2019-09-10T15:04:38.800Z</time>
      </trkpt>
      <trkpt lat="10.157531905933" lon="-75.6831631048653">
        <ele>52.4851891</ele>
        <time>2019-09-10T15:04:38.900Z</time>
      </trkpt>
      <trkpt lat="10.1575336124381" lon="-75.6831652207064">
        <ele>52.4851891</ele>
        <time>2019-09-10T15:04:39.000Z</time>
      </trkpt>
      <trkpt lat="10.1575353433307" lon="-75.6831673632846">
        <ele>52.4851891</ele>
        <time>2019-09-10T15:04:39.100Z</time>
      </trkpt>
      <trkpt lat="10.1575370848539" lon="-75.683169501128">
        <ele>52.4851891</ele>
        <time>2019-09-10T15:04:39.200Z</time>
      </trkpt>
      <trkpt lat="10.1575387834382" lon="-75.6831716026259">
        <ele>52.4851891</ele>
        <time>2019-09-10T15:04:39.300Z</time>
      </trkpt>
      <trkpt lat="10.1575404713921" lon="-75.6831736892235">
        <ele>52.4851891</ele>
        <time>2019-09-10T15:04:39.400Z</time>
      </trkpt>
      <trkpt lat="10.1575421401694" lon="-75.6831757667696">
        <ele>52.4851891</ele>
        <time>2019-09-10T15:04:39.500Z</time>
      </trkpt>
      <trkpt lat="10.1575438240586" lon="-75.6831778525316">
        <ele>52.4851891</ele>
        <time>2019-09-10T15:04:39.600Z</time>
      </trkpt>
      <trkpt lat="10.1575455446335" lon="-75.6831799629418">
        <ele>52.3851891</ele>
        <time>2019-09-10T15:04:39.700Z</time>
      </trkpt>
      <trkpt lat="10.1575472846975" lon="-75.6831820869991">
        <ele>52.3851891</ele>
        <time>2019-09-10T15:04:39.800Z</time>
      </trkpt>
      <trkpt lat="10.1575489905773" lon="-75.6831841774958">
        <ele>52.3851891</ele>
        <time>2019-09-10T15:04:39.900Z</time>
      </trkpt>
      <trkpt lat="10.1575506899954" lon="-75.6831862582447">
        <ele>52.3851891</ele>
        <time>2019-09-10T15:04:40.000Z</time>
      </trkpt>
      <trkpt lat="10.1575524042128" lon="-75.6831883389936">
        <ele>52.3851891</ele>
        <time>2019-09-10T15:04:40.100Z</time>
      </trkpt>
      <trkpt lat="10.1575541413587" lon="-75.6831904235024">
        <ele>52.3851891</ele>
        <time>2019-09-10T15:04:40.200Z</time>
      </trkpt>
      <trkpt lat="10.1575558891351" lon="-75.6831925045298">
        <ele>52.3851891</ele>
        <time>2019-09-10T15:04:40.300Z</time>
      </trkpt>
      <trkpt lat="10.157557641914" lon="-75.6831945965583">
        <ele>52.3851891</ele>
        <time>2019-09-10T15:04:40.400Z</time>
      </trkpt>
      <trkpt lat="10.1575593986533" lon="-75.6831966653313">
        <ele>52.3851891</ele>
        <time>2019-09-10T15:04:40.500Z</time>
      </trkpt>
      <trkpt lat="10.1575611562264" lon="-75.6831987320154">
        <ele>52.3851891</ele>
        <time>2019-09-10T15:04:40.600Z</time>
      </trkpt>
      <trkpt lat="10.157562955175" lon="-75.6832008343489">
        <ele>52.3851891</ele>
        <time>2019-09-10T15:04:40.700Z</time>
      </trkpt>
      <trkpt lat="10.1575647508928" lon="-75.6832029529751">
        <ele>52.3851891</ele>
        <time>2019-09-10T15:04:40.800Z</time>
      </trkpt>
      <trkpt lat="10.1575664644849" lon="-75.6832049983532">
        <ele>52.3851891</ele>
        <time>2019-09-10T15:04:40.900Z</time>
      </trkpt>
      <trkpt lat="10.1575681467066" lon="-75.6832070213113">
        <ele>52.3851891</ele>
        <time>2019-09-10T15:04:41.000Z</time>
      </trkpt>
      <trkpt lat="10.1575698911479" lon="-75.6832091020602">
        <ele>52.3851891</ele>
        <time>2019-09-10T15:04:41.100Z</time>
      </trkpt>
      <trkpt lat="10.157571671858" lon="-75.6832112263959">
        <ele>52.3851891</ele>
        <time>2019-09-10T15:04:41.200Z</time>
      </trkpt>
      <trkpt lat="10.1575734554862" lon="-75.6832133564411">
        <ele>52.3851891</ele>
        <time>2019-09-10T15:04:41.300Z</time>
      </trkpt>
      <trkpt lat="10.1575752292134" lon="-75.6832154752066">
        <ele>52.3851891</ele>
        <time>2019-09-10T15:04:41.400Z</time>
      </trkpt>
      <trkpt lat="10.1575769953326" lon="-75.6832175696025">
        <ele>52.3851891</ele>
        <time>2019-09-10T15:04:41.500Z</time>
      </trkpt>
      <trkpt lat="10.1575787506128" lon="-75.6832196607955">
        <ele>52.3851891</ele>
        <time>2019-09-10T15:04:41.600Z</time>
      </trkpt>
      <trkpt lat="10.1575805125632" lon="-75.6832217856883">
        <ele>52.3851891</ele>
        <time>2019-09-10T15:04:41.700Z</time>
      </trkpt>
      <trkpt lat="10.1575822758684" lon="-75.6832239218607">
        <ele>52.3851891</ele>
        <time>2019-09-10T15:04:41.800Z</time>
      </trkpt>
      <trkpt lat="10.1575839587154" lon="-75.6832259921654">
        <ele>52.3851891</ele>
        <time>2019-09-10T15:04:41.900Z</time>
      </trkpt>
      <trkpt lat="10.1575856297856" lon="-75.6832280460381">
        <ele>52.3851891</ele>
        <time>2019-09-10T15:04:42.000Z</time>
      </trkpt>
      <trkpt lat="10.1575872955405" lon="-75.6832301192672">
        <ele>52.3851891</ele>
        <time>2019-09-10T15:04:42.100Z</time>
      </trkpt>
      <trkpt lat="10.1575906979202" lon="-75.6832343451008">
        <ele>52.3851891</ele>
        <time>2019-09-10T15:04:42.300Z</time>
      </trkpt>
      <trkpt lat="10.1575941451147" lon="-75.6832386124325">
        <ele>52.3851891</ele>
        <time>2019-09-10T15:04:42.500Z</time>
      </trkpt>
      <trkpt lat="10.1575958835112" lon="-75.6832407357934">
        <ele>52.3851891</ele>
        <time>2019-09-10T15:04:42.600Z</time>
      </trkpt>
      <trkpt lat="10.157597628161" lon="-75.6832428797641">
        <ele>52.3851891</ele>
        <time>2019-09-10T15:04:42.700Z</time>
      </trkpt>
      <trkpt lat="10.1575993769795" lon="-75.6832450245703">
        <ele>52.3851891</ele>
        <time>2019-09-10T15:04:42.800Z</time>
      </trkpt>
      <trkpt lat="10.1576011290289" lon="-75.6832471593502">
        <ele>52.3851891</ele>
        <time>2019-09-10T15:04:42.900Z</time>
      </trkpt>
      <trkpt lat="10.1576028850387" lon="-75.6832492843822">
        <ele>52.3851891</ele>
        <time>2019-09-10T15:04:43.000Z</time>
      </trkpt>
      <trkpt lat="10.1576046380261" lon="-75.6832514194405">
        <ele>52.3851891</ele>
        <time>2019-09-10T15:04:43.100Z</time>
      </trkpt>
      <trkpt lat="10.1576063944528" lon="-75.6832535558914">
        <ele>52.3851891</ele>
        <time>2019-09-10T15:04:43.200Z</time>
      </trkpt>
      <trkpt lat="10.1576081419165" lon="-75.6832556781383">
        <ele>52.3851891</ele>
        <time>2019-09-10T15:04:43.300Z</time>
      </trkpt>
      <trkpt lat="10.1576098900055" lon="-75.6832577945365">
        <ele>52.3851891</ele>
        <time>2019-09-10T15:04:43.400Z</time>
      </trkpt>
      <trkpt lat="10.1576116476828" lon="-75.6832599513187">
        <ele>52.3851891</ele>
        <time>2019-09-10T15:04:43.500Z</time>
      </trkpt>
      <trkpt lat="10.1576134091121" lon="-75.6832621161776">
        <ele>52.3851891</ele>
        <time>2019-09-10T15:04:43.600Z</time>
      </trkpt>
      <trkpt lat="10.1576151305207" lon="-75.6832642687821">
        <ele>52.3851891</ele>
        <time>2019-09-10T15:04:43.700Z</time>
      </trkpt>
      <trkpt lat="10.1576168454676" lon="-75.68326640579">
        <ele>52.3851891</ele>
        <time>2019-09-10T15:04:43.800Z</time>
      </trkpt>
      <trkpt lat="10.1576185507221" lon="-75.6832685233023">
        <ele>52.3851891</ele>
        <time>2019-09-10T15:04:43.900Z</time>
      </trkpt>
      <trkpt lat="10.1576202671281" lon="-75.6832706344088">
        <ele>52.4851891</ele>
        <time>2019-09-10T15:04:44.000Z</time>
      </trkpt>
      <trkpt lat="10.1576219326746" lon="-75.6832726985863">
        <ele>52.4851891</ele>
        <time>2019-09-10T15:04:44.100Z</time>
      </trkpt>
      <trkpt lat="10.1576235992632" lon="-75.6832747597002">
        <ele>52.3851891</ele>
        <time>2019-09-10T15:04:44.200Z</time>
      </trkpt>
      <trkpt lat="10.1576252930534" lon="-75.6832768666291">
        <ele>52.4851891</ele>
        <time>2019-09-10T15:04:44.300Z</time>
      </trkpt>
      <trkpt lat="10.1576270142536" lon="-75.683278997092">
        <ele>52.4851891</ele>
        <time>2019-09-10T15:04:44.400Z</time>
      </trkpt>
      <trkpt lat="10.1576286953289" lon="-75.6832810662828">
        <ele>52.4851891</ele>
        <time>2019-09-10T15:04:44.500Z</time>
      </trkpt>
      <trkpt lat="10.157630372965" lon="-75.6832831239153">
        <ele>52.4851891</ele>
        <time>2019-09-10T15:04:44.600Z</time>
      </trkpt>
      <trkpt lat="10.1576320637328" lon="-75.6832851784843">
        <ele>52.4851891</ele>
        <time>2019-09-10T15:04:44.700Z</time>
      </trkpt>
      <trkpt lat="10.1576337727391" lon="-75.6832872539415">
        <ele>52.4851891</ele>
        <time>2019-09-10T15:04:44.800Z</time>
      </trkpt>
      <trkpt lat="10.1576354716361" lon="-75.683289331209">
        <ele>52.4851891</ele>
        <time>2019-09-10T15:04:44.900Z</time>
      </trkpt>
      <trkpt lat="10.1576371778286" lon="-75.6832914179458">
        <ele>52.4851891</ele>
        <time>2019-09-10T15:04:45.000Z</time>
      </trkpt>
      <trkpt lat="10.1576389028849" lon="-75.6832935062145">
        <ele>52.3851891</ele>
        <time>2019-09-10T15:04:45.100Z</time>
      </trkpt>
      <trkpt lat="10.1576406397181" lon="-75.6832955988001">
        <ele>52.3851891</ele>
        <time>2019-09-10T15:04:45.200Z</time>
      </trkpt>
      <trkpt lat="10.1576423865565" lon="-75.6832976958418">
        <ele>52.3851891</ele>
        <time>2019-09-10T15:04:45.300Z</time>
      </trkpt>
      <trkpt lat="10.1576441336554" lon="-75.6832997958079">
        <ele>52.3851891</ele>
        <time>2019-09-10T15:04:45.400Z</time>
      </trkpt>
      <trkpt lat="10.1576458864865" lon="-75.6833018967488">
        <ele>52.3851891</ele>
        <time>2019-09-10T15:04:45.500Z</time>
      </trkpt>
      <trkpt lat="10.1576476371289" lon="-75.6833039957401">
        <ele>52.3851891</ele>
        <time>2019-09-10T15:04:45.600Z</time>
      </trkpt>
      <trkpt lat="10.1576493635922" lon="-75.6833060968202">
        <ele>52.3851891</ele>
        <time>2019-09-10T15:04:45.700Z</time>
      </trkpt>
      <trkpt lat="10.1576510876585" lon="-75.6833081962293">
        <ele>52.3851891</ele>
        <time>2019-09-10T15:04:45.800Z</time>
      </trkpt>
      <trkpt lat="10.1576528105262" lon="-75.6833102985627">
        <ele>52.3851891</ele>
        <time>2019-09-10T15:04:45.900Z</time>
      </trkpt>
      <trkpt lat="10.1576545431906" lon="-75.6833124050738">
        <ele>52.3851891</ele>
        <time>2019-09-10T15:04:46.000Z</time>
      </trkpt>
      <trkpt lat="10.1576562808576" lon="-75.6833144643774">
        <ele>52.3851891</ele>
        <time>2019-09-10T15:04:46.100Z</time>
      </trkpt>
      <trkpt lat="10.1576580270706" lon="-75.683316517136">
        <ele>52.3851891</ele>
        <time>2019-09-10T15:04:46.200Z</time>
      </trkpt>
      <trkpt lat="10.1576597978276" lon="-75.6833186008093">
        <ele>52.3851891</ele>
        <time>2019-09-10T15:04:46.300Z</time>
      </trkpt>
      <trkpt lat="10.1576615745773" lon="-75.6833207145616">
        <ele>52.3851891</ele>
        <time>2019-09-10T15:04:46.400Z</time>
      </trkpt>
      <trkpt lat="10.157663370764" lon="-75.6833228586716">
        <ele>52.3851891</ele>
        <time>2019-09-10T15:04:46.500Z</time>
      </trkpt>
      <trkpt lat="10.1576669644924" lon="-75.6833271370043">
        <ele>52.3851891</ele>
        <time>2019-09-10T15:04:46.700Z</time>
      </trkpt>
      <trkpt lat="10.1576687586468" lon="-75.683329260226">
        <ele>52.3851891</ele>
        <time>2019-09-10T15:04:46.800Z</time>
      </trkpt>
      <trkpt lat="10.1576723007861" lon="-75.683333482996">
        <ele>52.3851891</ele>
        <time>2019-09-10T15:04:47.000Z</time>
      </trkpt>
      <trkpt lat="10.1576740245397" lon="-75.6833355510727">
        <ele>52.3851891</ele>
        <time>2019-09-10T15:04:47.100Z</time>
      </trkpt>
      <trkpt lat="10.1576757413105" lon="-75.6833376141362">
        <ele>52.3851891</ele>
        <time>2019-09-10T15:04:47.200Z</time>
      </trkpt>
      <trkpt lat="10.1576774365598" lon="-75.6833396716295">
        <ele>52.3851891</ele>
        <time>2019-09-10T15:04:47.300Z</time>
      </trkpt>
      <trkpt lat="10.1576791438986" lon="-75.6833417463905">
        <ele>52.3851891</ele>
        <time>2019-09-10T15:04:47.400Z</time>
      </trkpt>
      <trkpt lat="10.1576808738012" lon="-75.6833437973388">
        <ele>52.3851891</ele>
        <time>2019-09-10T15:04:47.500Z</time>
      </trkpt>
      <trkpt lat="10.1576826228803" lon="-75.683345853718">
        <ele>52.3851891</ele>
        <time>2019-09-10T15:04:47.600Z</time>
      </trkpt>
      <trkpt lat="10.1576844007764" lon="-75.6833479460251">
        <ele>52.3851891</ele>
        <time>2019-09-10T15:04:47.700Z</time>
      </trkpt>
      <trkpt lat="10.1576861787246" lon="-75.6833500560175">
        <ele>52.3851891</ele>
        <time>2019-09-10T15:04:47.800Z</time>
      </trkpt>
      <trkpt lat="10.1576879483351" lon="-75.6833521469321">
        <ele>52.3851891</ele>
        <time>2019-09-10T15:04:47.900Z</time>
      </trkpt>
      <trkpt lat="10.1576897022084" lon="-75.6833542307446">
        <ele>52.3851891</ele>
        <time>2019-09-10T15:04:48.000Z</time>
      </trkpt>
      <trkpt lat="10.1576914400838" lon="-75.6833563229124">
        <ele>52.3851891</ele>
        <time>2019-09-10T15:04:48.100Z</time>
      </trkpt>
      <trkpt lat="10.1576931729046" lon="-75.6833584232962">
        <ele>52.3851891</ele>
        <time>2019-09-10T15:04:48.200Z</time>
      </trkpt>
      <trkpt lat="10.1576948567417" lon="-75.6833604702062">
        <ele>52.3851891</ele>
        <time>2019-09-10T15:04:48.300Z</time>
      </trkpt>
      <trkpt lat="10.1576965480306" lon="-75.6833625176731">
        <ele>52.3851891</ele>
        <time>2019-09-10T15:04:48.400Z</time>
      </trkpt>
      <trkpt lat="10.1576982151925" lon="-75.6833645395171">
        <ele>52.3851891</ele>
        <time>2019-09-10T15:04:48.500Z</time>
      </trkpt>
      <trkpt lat="10.157699876987" lon="-75.6833664796184">
        <ele>52.3851891</ele>
        <time>2019-09-10T15:04:48.600Z</time>
      </trkpt>
      <trkpt lat="10.1577015152278" lon="-75.6833682132045">
        <ele>52.3851891</ele>
        <time>2019-09-10T15:04:48.700Z</time>
      </trkpt>
      <trkpt lat="10.1577031598259" lon="-75.6833697239825">
        <ele>52.3851891</ele>
        <time>2019-09-10T15:04:48.800Z</time>
      </trkpt>
      <trkpt lat="10.1577048432462" lon="-75.6833709150309">
        <ele>52.3851891</ele>
        <time>2019-09-10T15:04:48.900Z</time>
      </trkpt>
      <trkpt lat="10.1577065504287" lon="-75.6833718370385">
        <ele>52.3851891</ele>
        <time>2019-09-10T15:04:49.000Z</time>
      </trkpt>
      <trkpt lat="10.1577083032598" lon="-75.6833723699676">
        <ele>52.3851891</ele>
        <time>2019-09-10T15:04:49.100Z</time>
      </trkpt>
      <trkpt lat="10.1577100704211" lon="-75.6833726319063">
        <ele>52.2851891</ele>
        <time>2019-09-10T15:04:49.200Z</time>
      </trkpt>
      <trkpt lat="10.1577118762483" lon="-75.6833725230089">
        <ele>52.3851891</ele>
        <time>2019-09-10T15:04:49.300Z</time>
      </trkpt>
      <trkpt lat="10.1577136870259" lon="-75.6833721598317">
        <ele>52.3851891</ele>
        <time>2019-09-10T15:04:49.400Z</time>
      </trkpt>
      <trkpt lat="10.1577156042647" lon="-75.6833714482384">
        <ele>52.3851891</ele>
        <time>2019-09-10T15:04:49.500Z</time>
      </trkpt>
      <trkpt lat="10.1577175232752" lon="-75.6833704875179">
        <ele>52.3851891</ele>
        <time>2019-09-10T15:04:49.600Z</time>
      </trkpt>
      <trkpt lat="10.1577194767305" lon="-75.6833692033078">
        <ele>52.3851891</ele>
        <time>2019-09-10T15:04:49.700Z</time>
      </trkpt>
      <trkpt lat="10.1577214162204" lon="-75.6833676325109">
        <ele>52.3851891</ele>
        <time>2019-09-10T15:04:49.800Z</time>
      </trkpt>
      <trkpt lat="10.157723426997" lon="-75.6833657893311">
        <ele>52.3851891</ele>
        <time>2019-09-10T15:04:49.900Z</time>
      </trkpt>
      <trkpt lat="10.1577254163563" lon="-75.6833637949204">
        <ele>52.3851891</ele>
        <time>2019-09-10T15:04:50.000Z</time>
      </trkpt>
      <trkpt lat="10.1577274630368" lon="-75.6833617347812">
        <ele>52.3851891</ele>
        <time>2019-09-10T15:04:50.100Z</time>
      </trkpt>
      <trkpt lat="10.1577294718853" lon="-75.6833595941526">
        <ele>52.3851891</ele>
        <time>2019-09-10T15:04:50.200Z</time>
      </trkpt>
      <trkpt lat="10.1577315429013" lon="-75.6833574167608">
        <ele>52.3851891</ele>
        <time>2019-09-10T15:04:50.300Z</time>
      </trkpt>
      <trkpt lat="10.1577335721249" lon="-75.6833551630571">
        <ele>52.3851891</ele>
        <time>2019-09-10T15:04:50.400Z</time>
      </trkpt>
      <trkpt lat="10.1577356513743" lon="-75.6833529688153">
        <ele>52.3851891</ele>
        <time>2019-09-10T15:04:50.500Z</time>
      </trkpt>
      <trkpt lat="10.1577376833076" lon="-75.6833507336326">
        <ele>52.3851891</ele>
        <time>2019-09-10T15:04:50.600Z</time>
      </trkpt>
      <trkpt lat="10.1577417968353" lon="-75.6833462986379">
        <ele>52.3851891</ele>
        <time>2019-09-10T15:04:50.800Z</time>
      </trkpt>
      <trkpt lat="10.1577438495607" lon="-75.6833440998007">
        <ele>52.3851891</ele>
        <time>2019-09-10T15:04:50.900Z</time>
      </trkpt>
      <trkpt lat="10.1577458620048" lon="-75.6833418626684">
        <ele>52.3851891</ele>
        <time>2019-09-10T15:04:51.000Z</time>
      </trkpt>
      <trkpt lat="10.1577478178572" lon="-75.6833397213436">
        <ele>52.3851891</ele>
        <time>2019-09-10T15:04:51.100Z</time>
      </trkpt>
      <trkpt lat="10.1577497367114" lon="-75.6833375837786">
        <ele>52.3851891</ele>
        <time>2019-09-10T15:04:51.200Z</time>
      </trkpt>
      <trkpt lat="10.1577516953257" lon="-75.6833354166916">
        <ele>52.3851891</ele>
        <time>2019-09-10T15:04:51.300Z</time>
      </trkpt>
      <trkpt lat="10.1577536733249" lon="-75.6833331870791">
        <ele>52.3851891</ele>
        <time>2019-09-10T15:04:51.400Z</time>
      </trkpt>
      <trkpt lat="10.1577556518453" lon="-75.6833309860138">
        <ele>52.3851891</ele>
        <time>2019-09-10T15:04:51.500Z</time>
      </trkpt>
      <trkpt lat="10.1577576249983" lon="-75.6833288068116">
        <ele>52.3851891</ele>
        <time>2019-09-10T15:04:51.600Z</time>
      </trkpt>
      <trkpt lat="10.157759593722" lon="-75.6833266374965">
        <ele>52.3851891</ele>
        <time>2019-09-10T15:04:51.700Z</time>
      </trkpt>
      <trkpt lat="10.1577634716594" lon="-75.6833223988514">
        <ele>52.3851891</ele>
        <time>2019-09-10T15:04:51.900Z</time>
      </trkpt>
      <trkpt lat="10.1577653853026" lon="-75.6833203394085">
        <ele>52.3851891</ele>
        <time>2019-09-10T15:04:52.000Z</time>
      </trkpt>
      <trkpt lat="10.1577673438127" lon="-75.6833182569886">
        <ele>52.3851891</ele>
        <time>2019-09-10T15:04:52.100Z</time>
      </trkpt>
      <trkpt lat="10.1577712364973" lon="-75.6833141461796">
        <ele>52.3851891</ele>
        <time>2019-09-10T15:04:52.300Z</time>
      </trkpt>
      <trkpt lat="10.1577731304949" lon="-75.6833121519081">
        <ele>52.3851891</ele>
        <time>2019-09-10T15:04:52.400Z</time>
      </trkpt>
      <trkpt lat="10.1577750518504" lon="-75.6833101644601">
        <ele>52.3851891</ele>
        <time>2019-09-10T15:04:52.500Z</time>
      </trkpt>
      <trkpt lat="10.1577768568438" lon="-75.6833082885554">
        <ele>52.3851891</ele>
        <time>2019-09-10T15:04:52.600Z</time>
      </trkpt>
      <trkpt lat="10.1577782063418" lon="-75.6833067220754">
        <ele>52.3851891</ele>
        <time>2019-09-10T15:04:52.700Z</time>
      </trkpt>
      <trkpt lat="10.1577796365586" lon="-75.6833046168176">
        <ele>52.3851891</ele>
        <time>2019-09-10T15:04:52.900Z</time>
      </trkpt>
      <trkpt lat="10.1577797700649" lon="-75.6833035538838">
        <ele>52.3851891</ele>
        <time>2019-09-10T15:04:53.100Z</time>
      </trkpt>
      <trkpt lat="10.1577796586012" lon="-75.6833032089491">
        <ele>52.3851891</ele>
        <time>2019-09-10T15:04:53.200Z</time>
      </trkpt>
      <trkpt lat="10.1577793985713" lon="-75.6833029151209">
        <ele>52.3851891</ele>
        <time>2019-09-10T15:04:53.300Z</time>
      </trkpt>
      <trkpt lat="10.1577791698075" lon="-75.6833026758808">
        <ele>52.3851891</ele>
        <time>2019-09-10T15:04:53.400Z</time>
      </trkpt>
      <trkpt lat="10.1577788632431" lon="-75.6833023807993">
        <ele>52.3851891</ele>
        <time>2019-09-10T15:04:53.500Z</time>
      </trkpt>
      <trkpt lat="10.1577786086326" lon="-75.6833021217849">
        <ele>52.3851891</ele>
        <time>2019-09-10T15:04:53.600Z</time>
      </trkpt>
      <trkpt lat="10.1577783235898" lon="-75.6833017918897">
        <ele>52.3851891</ele>
        <time>2019-09-10T15:04:53.700Z</time>
      </trkpt>
      <trkpt lat="10.1577780837265" lon="-75.6833015211779">
        <ele>52.3851891</ele>
        <time>2019-09-10T15:04:53.800Z</time>
      </trkpt>
      <trkpt lat="10.1577778170786" lon="-75.6833012027016">
        <ele>52.3851891</ele>
        <time>2019-09-10T15:04:53.900Z</time>
      </trkpt>
      <trkpt lat="10.1577774209368" lon="-75.6833004853989">
        <ele>52.3851891</ele>
        <time>2019-09-10T15:04:54.100Z</time>
      </trkpt>
      <trkpt lat="10.1577773433968" lon="-75.6832999624962">
        <ele>52.3851891</ele>
        <time>2019-09-10T15:04:54.200Z</time>
      </trkpt>
      <trkpt lat="10.1577773701814" lon="-75.6832991683247">
        <ele>52.3851891</ele>
        <time>2019-09-10T15:04:54.300Z</time>
      </trkpt>
      <trkpt lat="10.1577774906081" lon="-75.6832982403291">
        <ele>52.3851891</ele>
        <time>2019-09-10T15:04:54.400Z</time>
      </trkpt>
      <trkpt lat="10.1577777568913" lon="-75.6832970717007">
        <ele>52.3851891</ele>
        <time>2019-09-10T15:04:54.500Z</time>
      </trkpt>
      <trkpt lat="10.157778112804" lon="-75.6832957713371">
        <ele>52.3851891</ele>
        <time>2019-09-10T15:04:54.600Z</time>
      </trkpt>
      <trkpt lat="10.1577786025357" lon="-75.6832942088955">
        <ele>52.3851891</ele>
        <time>2019-09-10T15:04:54.700Z</time>
      </trkpt>
      <trkpt lat="10.1577791673062" lon="-75.6832924953621">
        <ele>52.4851891</ele>
        <time>2019-09-10T15:04:54.800Z</time>
      </trkpt>
      <trkpt lat="10.1577798775683" lon="-75.6832905888213">
        <ele>52.4851891</ele>
        <time>2019-09-10T15:04:54.900Z</time>
      </trkpt>
      <trkpt lat="10.1577806604721" lon="-75.6832885336953">
        <ele>52.4851891</ele>
        <time>2019-09-10T15:04:55.000Z</time>
      </trkpt>
      <trkpt lat="10.157781567815" lon="-75.6832862780421">
        <ele>52.4851891</ele>
        <time>2019-09-10T15:04:55.100Z</time>
      </trkpt>
      <trkpt lat="10.1577825262781" lon="-75.6832838618278">
        <ele>52.4851891</ele>
        <time>2019-09-10T15:04:55.200Z</time>
      </trkpt>
      <trkpt lat="10.1577835802591" lon="-75.6832813248794">
        <ele>52.4851891</ele>
        <time>2019-09-10T15:04:55.300Z</time>
      </trkpt>
      <trkpt lat="10.1577846850998" lon="-75.6832786276484">
        <ele>52.4851891</ele>
        <time>2019-09-10T15:04:55.400Z</time>
      </trkpt>
      <trkpt lat="10.157785923082" lon="-75.6832758006317">
        <ele>52.4851891</ele>
        <time>2019-09-10T15:04:55.500Z</time>
      </trkpt>
      <trkpt lat="10.1577872114026" lon="-75.6832727861777">
        <ele>52.4851891</ele>
        <time>2019-09-10T15:04:55.600Z</time>
      </trkpt>
      <trkpt lat="10.1577885899782" lon="-75.6832696704853">
        <ele>52.4851891</ele>
        <time>2019-09-10T15:04:55.700Z</time>
      </trkpt>
      <trkpt lat="10.15778999612" lon="-75.6832663648491">
        <ele>52.4851891</ele>
        <time>2019-09-10T15:04:55.800Z</time>
      </trkpt>
      <trkpt lat="10.1577914874621" lon="-75.6832629575566">
        <ele>52.4851891</ele>
        <time>2019-09-10T15:04:55.900Z</time>
      </trkpt>
      <trkpt lat="10.1577930078816" lon="-75.68325935475">
        <ele>52.4851891</ele>
        <time>2019-09-10T15:04:56.000Z</time>
      </trkpt>
      <trkpt lat="10.1577946201193" lon="-75.6832556377544">
        <ele>52.4851891</ele>
        <time>2019-09-10T15:04:56.100Z</time>
      </trkpt>
      <trkpt lat="10.1577962609134" lon="-75.6832517295615">
        <ele>52.4851891</ele>
        <time>2019-09-10T15:04:56.200Z</time>
      </trkpt>
      <trkpt lat="10.1577979465745" lon="-75.6832477665021">
        <ele>52.4851891</ele>
        <time>2019-09-10T15:04:56.300Z</time>
      </trkpt>
      <trkpt lat="10.1578014504127" lon="-75.6832393309885">
        <ele>52.4851891</ele>
        <time>2019-09-10T15:04:56.500Z</time>
      </trkpt>
      <trkpt lat="10.1578032727067" lon="-75.6832348097949">
        <ele>52.4851891</ele>
        <time>2019-09-10T15:04:56.600Z</time>
      </trkpt>
      <trkpt lat="10.157805158992" lon="-75.6832302011492">
        <ele>52.4851891</ele>
        <time>2019-09-10T15:04:56.700Z</time>
      </trkpt>
      <trkpt lat="10.1578070513742" lon="-75.6832254511596">
        <ele>52.4851891</ele>
        <time>2019-09-10T15:04:56.800Z</time>
      </trkpt>
      <trkpt lat="10.1578089883106" lon="-75.6832206327957">
        <ele>52.4851891</ele>
        <time>2019-09-10T15:04:56.900Z</time>
      </trkpt>
      <trkpt lat="10.1578109330636" lon="-75.6832156716955">
        <ele>52.4851891</ele>
        <time>2019-09-10T15:04:57.000Z</time>
      </trkpt>
      <trkpt lat="10.1578129299789" lon="-75.6832106245356">
        <ele>52.4851891</ele>
        <time>2019-09-10T15:04:57.100Z</time>
      </trkpt>
      <trkpt lat="10.1578149382021" lon="-75.6832054246129">
        <ele>52.4851891</ele>
        <time>2019-09-10T15:04:57.200Z</time>
      </trkpt>
      <trkpt lat="10.1578170411616" lon="-75.6832000936513">
        <ele>52.4851891</ele>
        <time>2019-09-10T15:04:57.300Z</time>
      </trkpt>
      <trkpt lat="10.157819157305" lon="-75.6831946079772">
        <ele>52.4851891</ele>
        <time>2019-09-10T15:04:57.400Z</time>
      </trkpt>
      <trkpt lat="10.1578212692796" lon="-75.6831891324688">
        <ele>52.4851891</ele>
        <time>2019-09-10T15:04:57.500Z</time>
      </trkpt>
      <trkpt lat="10.1578233817233" lon="-75.6831835443031">
        <ele>52.4851891</ele>
        <time>2019-09-10T15:04:57.600Z</time>
      </trkpt>
      <trkpt lat="10.1578255395027" lon="-75.6831778880417">
        <ele>52.5851891</ele>
        <time>2019-09-10T15:04:57.700Z</time>
      </trkpt>
      <trkpt lat="10.1578277260992" lon="-75.6831720822203">
        <ele>52.5851891</ele>
        <time>2019-09-10T15:04:57.800Z</time>
      </trkpt>
      <trkpt lat="10.1578299565203" lon="-75.6831662195829">
        <ele>52.5851891</ele>
        <time>2019-09-10T15:04:57.900Z</time>
      </trkpt>
      <trkpt lat="10.1578322090883" lon="-75.6831602282738">
        <ele>52.5851891</ele>
        <time>2019-09-10T15:04:58.000Z</time>
      </trkpt>
      <trkpt lat="10.157834492297" lon="-75.6831541436638">
        <ele>52.5851891</ele>
        <time>2019-09-10T15:04:58.100Z</time>
      </trkpt>
      <trkpt lat="10.1578367916599" lon="-75.6831479377627">
        <ele>52.5851891</ele>
        <time>2019-09-10T15:04:58.200Z</time>
      </trkpt>
      <trkpt lat="10.1578391106684" lon="-75.683141688971">
        <ele>52.5851891</ele>
        <time>2019-09-10T15:04:58.300Z</time>
      </trkpt>
      <trkpt lat="10.1578414508857" lon="-75.6831353421438">
        <ele>52.5851891</ele>
        <time>2019-09-10T15:04:58.400Z</time>
      </trkpt>
      <trkpt lat="10.1578438437344" lon="-75.6831289197011">
        <ele>52.5851891</ele>
        <time>2019-09-10T15:04:58.500Z</time>
      </trkpt>
      <trkpt lat="10.157846261648" lon="-75.683122404793">
        <ele>52.5851891</ele>
        <time>2019-09-10T15:04:58.600Z</time>
      </trkpt>
      <trkpt lat="10.1578486670031" lon="-75.6831158563245">
        <ele>52.5851891</ele>
        <time>2019-09-10T15:04:58.700Z</time>
      </trkpt>
      <trkpt lat="10.1578510855942" lon="-75.6831092247207">
        <ele>52.5851891</ele>
        <time>2019-09-10T15:04:58.800Z</time>
      </trkpt>
      <trkpt lat="10.157853516848" lon="-75.6831025227931">
        <ele>52.5851891</ele>
        <time>2019-09-10T15:04:58.900Z</time>
      </trkpt>
      <trkpt lat="10.1578559778047" lon="-75.6830957350844">
        <ele>52.4851891</ele>
        <time>2019-09-10T15:04:59.000Z</time>
      </trkpt>
      <trkpt lat="10.1578584561662" lon="-75.6830888706462">
        <ele>52.4851891</ele>
        <time>2019-09-10T15:04:59.100Z</time>
      </trkpt>
      <trkpt lat="10.1578609613645" lon="-75.6830819317065">
        <ele>52.4851891</ele>
        <time>2019-09-10T15:04:59.200Z</time>
      </trkpt>
      <trkpt lat="10.1578634892828" lon="-75.6830749424958">
        <ele>52.4851891</ele>
        <time>2019-09-10T15:04:59.300Z</time>
      </trkpt>
      <trkpt lat="10.1578660430477" lon="-75.683067891038">
        <ele>52.5851891</ele>
        <time>2019-09-10T15:04:59.400Z</time>
      </trkpt>
      <trkpt lat="10.1578685945719" lon="-75.6830608111722">
        <ele>52.5851891</ele>
        <time>2019-09-10T15:04:59.500Z</time>
      </trkpt>
      <trkpt lat="10.157871162094" lon="-75.6830536719838">
        <ele>52.4851891</ele>
        <time>2019-09-10T15:04:59.600Z</time>
      </trkpt>
      <trkpt lat="10.1578737353482" lon="-75.683046489487">
        <ele>52.4851891</ele>
        <time>2019-09-10T15:04:59.700Z</time>
      </trkpt>
      <trkpt lat="10.1578763386178" lon="-75.6830392437685">
        <ele>52.4851891</ele>
        <time>2019-09-10T15:04:59.800Z</time>
      </trkpt>
      <trkpt lat="10.157878996968" lon="-75.6830318608837">
        <ele>52.4851891</ele>
        <time>2019-09-10T15:04:59.900Z</time>
      </trkpt>
      <trkpt lat="10.1578816821028" lon="-75.6830244249428">
        <ele>52.4851891</ele>
        <time>2019-09-10T15:05:00.000Z</time>
      </trkpt>
      <trkpt lat="10.1578843215369" lon="-75.683017069909">
        <ele>52.4851891</ele>
        <time>2019-09-10T15:05:00.100Z</time>
      </trkpt>
      <trkpt lat="10.1578869706635" lon="-75.6830096988609">
        <ele>52.5851891</ele>
        <time>2019-09-10T15:05:00.200Z</time>
      </trkpt>
      <trkpt lat="10.1578896230731" lon="-75.6830023069246">
        <ele>52.5851891</ele>
        <time>2019-09-10T15:05:00.300Z</time>
      </trkpt>
      <trkpt lat="10.1578923148259" lon="-75.6829948429934">
        <ele>52.5851891</ele>
        <time>2019-09-10T15:05:00.400Z</time>
      </trkpt>
      <trkpt lat="10.1578949948018" lon="-75.6829873640227">
        <ele>52.5851891</ele>
        <time>2019-09-10T15:05:00.500Z</time>
      </trkpt>
      <trkpt lat="10.1578977105253" lon="-75.6829798286536">
        <ele>52.4851891</ele>
        <time>2019-09-10T15:05:00.600Z</time>
      </trkpt>
      <trkpt lat="10.1579004176506" lon="-75.6829722661298">
        <ele>52.4851891</ele>
        <time>2019-09-10T15:05:00.700Z</time>
      </trkpt>
      <trkpt lat="10.1579031546871" lon="-75.6829646492966">
        <ele>52.4851891</ele>
        <time>2019-09-10T15:05:00.800Z</time>
      </trkpt>
      <trkpt lat="10.1579058572788" lon="-75.6829570909505">
        <ele>52.5851891</ele>
        <time>2019-09-10T15:05:00.900Z</time>
      </trkpt>
      <trkpt lat="10.1579112818994" lon="-75.6829419667385">
        <ele>52.4851891</ele>
        <time>2019-09-10T15:05:01.100Z</time>
      </trkpt>
      <trkpt lat="10.1579140073154" lon="-75.6829343810983">
        <ele>52.4851891</ele>
        <time>2019-09-10T15:05:01.200Z</time>
      </trkpt>
      <trkpt lat="10.1579167839557" lon="-75.6829265509264">
        <ele>52.4851891</ele>
        <time>2019-09-10T15:05:01.300Z</time>
      </trkpt>
      <trkpt lat="10.1579196201059" lon="-75.6829186149206">
        <ele>52.4851891</ele>
        <time>2019-09-10T15:05:01.400Z</time>
      </trkpt>
      <trkpt lat="10.1579224553702" lon="-75.6829106149967">
        <ele>52.4851891</ele>
        <time>2019-09-10T15:05:01.500Z</time>
      </trkpt>
      <trkpt lat="10.1579253076745" lon="-75.682902641392">
        <ele>52.4851891</ele>
        <time>2019-09-10T15:05:01.600Z</time>
      </trkpt>
      <trkpt lat="10.1579310716888" lon="-75.6828866837386">
        <ele>52.4851891</ele>
        <time>2019-09-10T15:05:01.800Z</time>
      </trkpt>
      <trkpt lat="10.1579339627631" lon="-75.682878685625">
        <ele>52.4851891</ele>
        <time>2019-09-10T15:05:01.900Z</time>
      </trkpt>
      <trkpt lat="10.1579368748379" lon="-75.6828706760925">
        <ele>52.4851891</ele>
        <time>2019-09-10T15:05:02.000Z</time>
      </trkpt>
      <trkpt lat="10.1579397629941" lon="-75.6828626697629">
        <ele>52.4851891</ele>
        <time>2019-09-10T15:05:02.100Z</time>
      </trkpt>
      <trkpt lat="10.1579426722027" lon="-75.6828546478368">
        <ele>52.4851891</ele>
        <time>2019-09-10T15:05:02.200Z</time>
      </trkpt>
      <trkpt lat="10.1579455677064" lon="-75.6828466036298">
        <ele>52.4851891</ele>
        <time>2019-09-10T15:05:02.300Z</time>
      </trkpt>
      <trkpt lat="10.1579484960396" lon="-75.6828385326858">
        <ele>52.4851891</ele>
        <time>2019-09-10T15:05:02.400Z</time>
      </trkpt>
      <trkpt lat="10.1579514416733" lon="-75.6828303483883">
        <ele>52.4851891</ele>
        <time>2019-09-10T15:05:02.500Z</time>
      </trkpt>
      <trkpt lat="10.1579544201365" lon="-75.6828221427847">
        <ele>52.4851891</ele>
        <time>2019-09-10T15:05:02.600Z</time>
      </trkpt>
      <trkpt lat="10.1579573721276" lon="-75.6828140630677">
        <ele>52.4851891</ele>
        <time>2019-09-10T15:05:02.700Z</time>
      </trkpt>
      <trkpt lat="10.1579603408462" lon="-75.6828060021501">
        <ele>52.4851891</ele>
        <time>2019-09-10T15:05:02.800Z</time>
      </trkpt>
      <trkpt lat="10.157963287939" lon="-75.6827979685265">
        <ele>52.4851891</ele>
        <time>2019-09-10T15:05:02.900Z</time>
      </trkpt>
      <trkpt lat="10.1579662641614" lon="-75.682789887974">
        <ele>52.4851891</ele>
        <time>2019-09-10T15:05:03.000Z</time>
      </trkpt>
      <trkpt lat="10.1579692148498" lon="-75.6827818124346">
        <ele>52.4851891</ele>
        <time>2019-09-10T15:05:03.100Z</time>
      </trkpt>
      <trkpt lat="10.1579722011295" lon="-75.6827736928907">
        <ele>52.4851891</ele>
        <time>2019-09-10T15:05:03.200Z</time>
      </trkpt>
      <trkpt lat="10.1579751814686" lon="-75.6827655580287">
        <ele>52.4851891</ele>
        <time>2019-09-10T15:05:03.300Z</time>
      </trkpt>
      <trkpt lat="10.1579781985454" lon="-75.6827573865426">
        <ele>52.4851891</ele>
        <time>2019-09-10T15:05:03.400Z</time>
      </trkpt>
      <trkpt lat="10.1579811933712" lon="-75.6827492101826">
        <ele>52.4851891</ele>
        <time>2019-09-10T15:05:03.500Z</time>
      </trkpt>
      <trkpt lat="10.1579842162843" lon="-75.6827410107062">
        <ele>52.4851891</ele>
        <time>2019-09-10T15:05:03.600Z</time>
      </trkpt>
      <trkpt lat="10.1579872335175" lon="-75.682732793823">
        <ele>52.4851891</ele>
        <time>2019-09-10T15:05:03.700Z</time>
      </trkpt>
      <trkpt lat="10.1579902786817" lon="-75.6827245553552">
        <ele>52.4851891</ele>
        <time>2019-09-10T15:05:03.800Z</time>
      </trkpt>
      <trkpt lat="10.1579933157167" lon="-75.6827162872261">
        <ele>52.4851891</ele>
        <time>2019-09-10T15:05:03.900Z</time>
      </trkpt>
      <trkpt lat="10.1579963784421" lon="-75.6827080028042">
        <ele>52.4851891</ele>
        <time>2019-09-10T15:05:04.000Z</time>
      </trkpt>
      <trkpt lat="10.1579994242316" lon="-75.68269970571">
        <ele>52.4851891</ele>
        <time>2019-09-10T15:05:04.100Z</time>
      </trkpt>
      <trkpt lat="10.1580024938877" lon="-75.6826913990073">
        <ele>52.4851891</ele>
        <time>2019-09-10T15:05:04.200Z</time>
      </trkpt>
      <trkpt lat="10.1580055674519" lon="-75.6826830932794">
        <ele>52.3851891</ele>
        <time>2019-09-10T15:05:04.300Z</time>
      </trkpt>
      <trkpt lat="10.1580086645179" lon="-75.6826747787783">
        <ele>52.3851891</ele>
        <time>2019-09-10T15:05:04.400Z</time>
      </trkpt>
      <trkpt lat="10.1580117542885" lon="-75.6826664506303">
        <ele>52.3851891</ele>
        <time>2019-09-10T15:05:04.500Z</time>
      </trkpt>
      <trkpt lat="10.1580148632356" lon="-75.6826581066072">
        <ele>52.3851891</ele>
        <time>2019-09-10T15:05:04.600Z</time>
      </trkpt>
      <trkpt lat="10.1580179325268" lon="-75.6826497344546">
        <ele>52.3851891</ele>
        <time>2019-09-10T15:05:04.700Z</time>
      </trkpt>
      <trkpt lat="10.1580210167737" lon="-75.6826413478195">
        <ele>52.3851891</ele>
        <time>2019-09-10T15:05:04.800Z</time>
      </trkpt>
      <trkpt lat="10.1580240824172" lon="-75.682632951715">
        <ele>52.3851891</ele>
        <time>2019-09-10T15:05:04.900Z</time>
      </trkpt>
      <trkpt lat="10.1580271754186" lon="-75.6826245514329">
        <ele>52.3851891</ele>
        <time>2019-09-10T15:05:05.000Z</time>
      </trkpt>
      <trkpt lat="10.1580303217288" lon="-75.6826160368224">
        <ele>52.3851891</ele>
        <time>2019-09-10T15:05:05.100Z</time>
      </trkpt>
      <trkpt lat="10.1580334985755" lon="-75.6826075162239">
        <ele>52.3851891</ele>
        <time>2019-09-10T15:05:05.200Z</time>
      </trkpt>
      <trkpt lat="10.1580365990807" lon="-75.6825991128781">
        <ele>52.3851891</ele>
        <time>2019-09-10T15:05:05.300Z</time>
      </trkpt>
      <trkpt lat="10.1580396930722" lon="-75.682590740447">
        <ele>52.3851891</ele>
        <time>2019-09-10T15:05:05.400Z</time>
      </trkpt>
      <trkpt lat="10.1580427765896" lon="-75.6825823795741">
        <ele>52.3851891</ele>
        <time>2019-09-10T15:05:05.500Z</time>
      </trkpt>
      <trkpt lat="10.158045890435" lon="-75.6825739900146">
        <ele>52.3851891</ele>
        <time>2019-09-10T15:05:05.600Z</time>
      </trkpt>
      <trkpt lat="10.158052072269" lon="-75.6825572108956">
        <ele>52.3851891</ele>
        <time>2019-09-10T15:05:05.800Z</time>
      </trkpt>
      <trkpt lat="10.1580551675111" lon="-75.6825487968272">
        <ele>52.3851891</ele>
        <time>2019-09-10T15:05:05.900Z</time>
      </trkpt>
      <trkpt lat="10.1580613387146" lon="-75.6825320291271">
        <ele>52.3851891</ele>
        <time>2019-09-10T15:05:06.100Z</time>
      </trkpt>
      <trkpt lat="10.1580644002935" lon="-75.6825236993081">
        <ele>52.3851891</ele>
        <time>2019-09-10T15:05:06.200Z</time>
      </trkpt>
      <trkpt lat="10.1580674584853" lon="-75.6825153545887">
        <ele>52.3851891</ele>
        <time>2019-09-10T15:05:06.300Z</time>
      </trkpt>
      <trkpt lat="10.1580705611792" lon="-75.6825069655862">
        <ele>52.3851891</ele>
        <time>2019-09-10T15:05:06.400Z</time>
      </trkpt>
      <trkpt lat="10.1580737099906" lon="-75.6824984383035">
        <ele>52.3851891</ele>
        <time>2019-09-10T15:05:06.500Z</time>
      </trkpt>
      <trkpt lat="10.1580768916836" lon="-75.6824898856764">
        <ele>52.3851891</ele>
        <time>2019-09-10T15:05:06.600Z</time>
      </trkpt>
      <trkpt lat="10.158080073611" lon="-75.6824813191237">
        <ele>52.3851891</ele>
        <time>2019-09-10T15:05:06.700Z</time>
      </trkpt>
      <trkpt lat="10.1580832588214" lon="-75.6824727875241">
        <ele>52.3851891</ele>
        <time>2019-09-10T15:05:06.800Z</time>
      </trkpt>
      <trkpt lat="10.1580864272003" lon="-75.682464251886">
        <ele>52.3851891</ele>
        <time>2019-09-10T15:05:06.900Z</time>
      </trkpt>
      <trkpt lat="10.158089603578" lon="-75.6824557312875">
        <ele>52.3851891</ele>
        <time>2019-09-10T15:05:07.000Z</time>
      </trkpt>
      <trkpt lat="10.1580927806592" lon="-75.6824472212724">
        <ele>52.3851891</ele>
        <time>2019-09-10T15:05:07.100Z</time>
      </trkpt>
      <trkpt lat="10.1580959692307" lon="-75.6824387167579">
        <ele>52.3851891</ele>
        <time>2019-09-10T15:05:07.200Z</time>
      </trkpt>
      <trkpt lat="10.158099168563" lon="-75.6824300844073">
        <ele>52.3851891</ele>
        <time>2019-09-10T15:05:07.300Z</time>
      </trkpt>
      <trkpt lat="10.1581023768842" lon="-75.6824214446064">
        <ele>52.3851891</ele>
        <time>2019-09-10T15:05:07.400Z</time>
      </trkpt>
      <trkpt lat="10.1581087720835" lon="-75.6824042149974">
        <ele>52.3851891</ele>
        <time>2019-09-10T15:05:07.600Z</time>
      </trkpt>
      <trkpt lat="10.1581119316296" lon="-75.682395637931">
        <ele>52.3851891</ele>
        <time>2019-09-10T15:05:07.700Z</time>
      </trkpt>
      <trkpt lat="10.1581151040209" lon="-75.682387069568">
        <ele>52.3851891</ele>
        <time>2019-09-10T15:05:07.800Z</time>
      </trkpt>
      <trkpt lat="10.1581182219831" lon="-75.6823786570314">
        <ele>52.3851891</ele>
        <time>2019-09-10T15:05:07.900Z</time>
      </trkpt>
      <trkpt lat="10.15812135735" lon="-75.6823702476281">
        <ele>52.3851891</ele>
        <time>2019-09-10T15:05:08.000Z</time>
      </trkpt>
      <trkpt lat="10.1581244560054" lon="-75.6823618699749">
        <ele>52.3851891</ele>
        <time>2019-09-10T15:05:08.100Z</time>
      </trkpt>
      <trkpt lat="10.1581275887408" lon="-75.6823534391959">
        <ele>52.3851891</ele>
        <time>2019-09-10T15:05:08.200Z</time>
      </trkpt>
      <trkpt lat="10.1581307190792" lon="-75.6823449965107">
        <ele>52.3851891</ele>
        <time>2019-09-10T15:05:08.300Z</time>
      </trkpt>
      <trkpt lat="10.1581338838884" lon="-75.6823365138592">
        <ele>52.3851891</ele>
        <time>2019-09-10T15:05:08.400Z</time>
      </trkpt>
      <trkpt lat="10.1581370446852" lon="-75.6823280086484">
        <ele>52.2851891</ele>
        <time>2019-09-10T15:05:08.500Z</time>
      </trkpt>
      <trkpt lat="10.1581402250233" lon="-75.6823194884676">
        <ele>52.2851891</ele>
        <time>2019-09-10T15:05:08.600Z</time>
      </trkpt>
      <trkpt lat="10.158143397128" lon="-75.6823109469809">
        <ele>52.2851891</ele>
        <time>2019-09-10T15:05:08.700Z</time>
      </trkpt>
      <trkpt lat="10.1581465795244" lon="-75.6823024073045">
        <ele>52.2851891</ele>
        <time>2019-09-10T15:05:08.800Z</time>
      </trkpt>
      <trkpt lat="10.1581497741668" lon="-75.6822938499426">
        <ele>52.2851891</ele>
        <time>2019-09-10T15:05:08.900Z</time>
      </trkpt>
      <trkpt lat="10.1581529788403" lon="-75.6822852990562">
        <ele>52.2851891</ele>
        <time>2019-09-10T15:05:09.000Z</time>
      </trkpt>
      <trkpt lat="10.158156174108" lon="-75.6822767347316">
        <ele>52.2851891</ele>
        <time>2019-09-10T15:05:09.100Z</time>
      </trkpt>
      <trkpt lat="10.1581593748473" lon="-75.6822681777876">
        <ele>52.2851891</ele>
        <time>2019-09-10T15:05:09.200Z</time>
      </trkpt>
      <trkpt lat="10.1581625656595" lon="-75.6822596079624">
        <ele>52.2851891</ele>
        <time>2019-09-10T15:05:09.300Z</time>
      </trkpt>
      <trkpt lat="10.1581657638454" lon="-75.6822510451">
        <ele>52.2851891</ele>
        <time>2019-09-10T15:05:09.400Z</time>
      </trkpt>
      <trkpt lat="10.1581689493684" lon="-75.6822424740216">
        <ele>52.2851891</ele>
        <time>2019-09-10T15:05:09.500Z</time>
      </trkpt>
      <trkpt lat="10.158172144115" lon="-75.6822339108807">
        <ele>52.2851891</ele>
        <time>2019-09-10T15:05:09.600Z</time>
      </trkpt>
      <trkpt lat="10.1581753501174" lon="-75.6822253421696">
        <ele>52.2851891</ele>
        <time>2019-09-10T15:05:09.700Z</time>
      </trkpt>
      <trkpt lat="10.1581785669326" lon="-75.6822167811871">
        <ele>52.2851891</ele>
        <time>2019-09-10T15:05:09.800Z</time>
      </trkpt>
      <trkpt lat="10.15818176491" lon="-75.6822082176284">
        <ele>52.2851891</ele>
        <time>2019-09-10T15:05:09.900Z</time>
      </trkpt>
      <trkpt lat="10.1581881426002" lon="-75.682191117457">
        <ele>52.2851891</ele>
        <time>2019-09-10T15:05:10.100Z</time>
      </trkpt>
      <trkpt lat="10.1581913292957" lon="-75.6821825848825">
        <ele>52.2851891</ele>
        <time>2019-09-10T15:05:10.200Z</time>
      </trkpt>
      <trkpt lat="10.1581978501848" lon="-75.6821652683087">
        <ele>52.2851891</ele>
        <time>2019-09-10T15:05:10.400Z</time>
      </trkpt>
      <trkpt lat="10.1582042491099" lon="-75.6821482434046">
        <ele>52.2851891</ele>
        <time>2019-09-10T15:05:10.600Z</time>
      </trkpt>
      <trkpt lat="10.1582074110791" lon="-75.6821397895092">
        <ele>52.2851891</ele>
        <time>2019-09-10T15:05:10.700Z</time>
      </trkpt>
      <trkpt lat="10.1582105857893" lon="-75.6821313113835">
        <ele>52.2851891</ele>
        <time>2019-09-10T15:05:10.800Z</time>
      </trkpt>
      <trkpt lat="10.1582137180557" lon="-75.6821229497447">
        <ele>52.2851891</ele>
        <time>2019-09-10T15:05:10.900Z</time>
      </trkpt>
      <trkpt lat="10.1582168619427" lon="-75.6821145859474">
        <ele>52.2851891</ele>
        <time>2019-09-10T15:05:11.000Z</time>
      </trkpt>
      <trkpt lat="10.1582200276118" lon="-75.6821061379704">
        <ele>52.2851891</ele>
        <time>2019-09-10T15:05:11.100Z</time>
      </trkpt>
      <trkpt lat="10.1582232102949" lon="-75.6820976441785">
        <ele>52.2851891</ele>
        <time>2019-09-10T15:05:11.200Z</time>
      </trkpt>
      <trkpt lat="10.1582262869597" lon="-75.6820893842655">
        <ele>52.2851891</ele>
        <time>2019-09-10T15:05:11.300Z</time>
      </trkpt>
      <trkpt lat="10.1582293361625" lon="-75.6820812019175">
        <ele>52.2851891</ele>
        <time>2019-09-10T15:05:11.400Z</time>
      </trkpt>
      <trkpt lat="10.1582324350523" lon="-75.682072853856">
        <ele>52.2851891</ele>
        <time>2019-09-10T15:05:11.500Z</time>
      </trkpt>
      <trkpt lat="10.1582355694292" lon="-75.6820644348441">
        <ele>52.2851891</ele>
        <time>2019-09-10T15:05:11.600Z</time>
      </trkpt>
      <trkpt lat="10.1582386601638" lon="-75.6820560007926">
        <ele>52.2851891</ele>
        <time>2019-09-10T15:05:11.700Z</time>
      </trkpt>
      <trkpt lat="10.1582417296896" lon="-75.6820476474394">
        <ele>52.2851891</ele>
        <time>2019-09-10T15:05:11.800Z</time>
      </trkpt>
      <trkpt lat="10.1582447709716" lon="-75.6820393467943">
        <ele>52.2851891</ele>
        <time>2019-09-10T15:05:11.900Z</time>
      </trkpt>
      <trkpt lat="10.1582478056616" lon="-75.6820311264993">
        <ele>52.2851891</ele>
        <time>2019-09-10T15:05:12.000Z</time>
      </trkpt>
      <trkpt lat="10.1582508304247" lon="-75.6820229534118">
        <ele>52.2851891</ele>
        <time>2019-09-10T15:05:12.100Z</time>
      </trkpt>
      <trkpt lat="10.1582538536245" lon="-75.6820148360959">
        <ele>52.2851891</ele>
        <time>2019-09-10T15:05:12.200Z</time>
      </trkpt>
      <trkpt lat="10.1582568222388" lon="-75.6820067800522">
        <ele>52.3851891</ele>
        <time>2019-09-10T15:05:12.300Z</time>
      </trkpt>
      <trkpt lat="10.1582597773045" lon="-75.6819987745582">
        <ele>52.3851891</ele>
        <time>2019-09-10T15:05:12.400Z</time>
      </trkpt>
      <trkpt lat="10.1582627214791" lon="-75.6819908132776">
        <ele>52.2851891</ele>
        <time>2019-09-10T15:05:12.500Z</time>
      </trkpt>
      <trkpt lat="10.1582656704479" lon="-75.6819828912669">
        <ele>52.2851891</ele>
        <time>2019-09-10T15:05:12.600Z</time>
      </trkpt>
      <trkpt lat="10.1582685741589" lon="-75.6819750398585">
        <ele>52.2851891</ele>
        <time>2019-09-10T15:05:12.700Z</time>
      </trkpt>
      <trkpt lat="10.1582714676303" lon="-75.681967235031">
        <ele>52.2851891</ele>
        <time>2019-09-10T15:05:12.800Z</time>
      </trkpt>
      <trkpt lat="10.1582743714977" lon="-75.6819593651713">
        <ele>52.2851891</ele>
        <time>2019-09-10T15:05:12.900Z</time>
      </trkpt>
      <trkpt lat="10.1582772721864" lon="-75.6819515308217">
        <ele>52.2851891</ele>
        <time>2019-09-10T15:05:13.000Z</time>
      </trkpt>
      <trkpt lat="10.1582800927296" lon="-75.681943841924">
        <ele>52.2851891</ele>
        <time>2019-09-10T15:05:13.100Z</time>
      </trkpt>
      <trkpt lat="10.1582828945912" lon="-75.6819362312179">
        <ele>52.2851891</ele>
        <time>2019-09-10T15:05:13.200Z</time>
      </trkpt>
      <trkpt lat="10.1582856529409" lon="-75.6819286903483">
        <ele>52.2851891</ele>
        <time>2019-09-10T15:05:13.300Z</time>
      </trkpt>
      <trkpt lat="10.1582884159544" lon="-75.6819211788615">
        <ele>52.2851891</ele>
        <time>2019-09-10T15:05:13.400Z</time>
      </trkpt>
      <trkpt lat="10.1582911314955" lon="-75.6819137064358">
        <ele>52.2851891</ele>
        <time>2019-09-10T15:05:13.500Z</time>
      </trkpt>
      <trkpt lat="10.1582938531595" lon="-75.6819062632536">
        <ele>52.2851891</ele>
        <time>2019-09-10T15:05:13.600Z</time>
      </trkpt>
      <trkpt lat="10.1582965279244" lon="-75.6818988621264">
        <ele>52.2851891</ele>
        <time>2019-09-10T15:05:13.700Z</time>
      </trkpt>
      <trkpt lat="10.15829921487" lon="-75.6818915057001">
        <ele>52.2851891</ele>
        <time>2019-09-10T15:05:13.800Z</time>
      </trkpt>
      <trkpt lat="10.1583018749658" lon="-75.6818842228701">
        <ele>52.2851891</ele>
        <time>2019-09-10T15:05:13.900Z</time>
      </trkpt>
      <trkpt lat="10.1583071605433" lon="-75.681869797788">
        <ele>52.2851891</ele>
        <time>2019-09-10T15:05:14.100Z</time>
      </trkpt>
      <trkpt lat="10.1583097771141" lon="-75.6818626468325">
        <ele>52.2851891</ele>
        <time>2019-09-10T15:05:14.200Z</time>
      </trkpt>
      <trkpt lat="10.1583123783514" lon="-75.6818555322923">
        <ele>52.2851891</ele>
        <time>2019-09-10T15:05:14.300Z</time>
      </trkpt>
      <trkpt lat="10.1583175359723" lon="-75.6818414259302">
        <ele>52.2851891</ele>
        <time>2019-09-10T15:05:14.500Z</time>
      </trkpt>
      <trkpt lat="10.1583200793934" lon="-75.6818344388083">
        <ele>52.3851891</ele>
        <time>2019-09-10T15:05:14.600Z</time>
      </trkpt>
      <trkpt lat="10.1583225774525" lon="-75.6818275026885">
        <ele>52.3851891</ele>
        <time>2019-09-10T15:05:14.700Z</time>
      </trkpt>
      <trkpt lat="10.158325086546" lon="-75.6818206115481">
        <ele>52.3851891</ele>
        <time>2019-09-10T15:05:14.800Z</time>
      </trkpt>
      <trkpt lat="10.1583275762284" lon="-75.6818137479802">
        <ele>52.3851891</ele>
        <time>2019-09-10T15:05:14.900Z</time>
      </trkpt>
      <trkpt lat="10.1583300748347" lon="-75.6818069303317">
        <ele>52.3851891</ele>
        <time>2019-09-10T15:05:15.000Z</time>
      </trkpt>
      <trkpt lat="10.1583325155987" lon="-75.6818001783419">
        <ele>52.2851891</ele>
        <time>2019-09-10T15:05:15.100Z</time>
      </trkpt>
      <trkpt lat="10.1583349492106" lon="-75.6817934795476">
        <ele>52.3851891</ele>
        <time>2019-09-10T15:05:15.200Z</time>
      </trkpt>
      <trkpt lat="10.1583398079663" lon="-75.68178021728">
        <ele>52.2851891</ele>
        <time>2019-09-10T15:05:15.400Z</time>
      </trkpt>
      <trkpt lat="10.1583422359503" lon="-75.6817735831696">
        <ele>52.2851891</ele>
        <time>2019-09-10T15:05:15.500Z</time>
      </trkpt>
      <trkpt lat="10.1583446635825" lon="-75.6817669898261">
        <ele>52.2851891</ele>
        <time>2019-09-10T15:05:15.600Z</time>
      </trkpt>
      <trkpt lat="10.1583470424265" lon="-75.6817605377569">
        <ele>52.2851891</ele>
        <time>2019-09-10T15:05:15.700Z</time>
      </trkpt>
      <trkpt lat="10.1583494077349" lon="-75.6817541593884">
        <ele>52.2851891</ele>
        <time>2019-09-10T15:05:15.800Z</time>
      </trkpt>
      <trkpt lat="10.1583517458027" lon="-75.6817478399596">
        <ele>52.3851891</ele>
        <time>2019-09-10T15:05:15.900Z</time>
      </trkpt>
      <trkpt lat="10.1583540848736" lon="-75.681741549844">
        <ele>52.3851891</ele>
        <time>2019-09-10T15:05:16.000Z</time>
      </trkpt>
      <trkpt lat="10.1583564102656" lon="-75.6817353164748">
        <ele>52.3851891</ele>
        <time>2019-09-10T15:05:16.100Z</time>
      </trkpt>
      <trkpt lat="10.1583587358008" lon="-75.6817291153084">
        <ele>52.3851891</ele>
        <time>2019-09-10T15:05:16.200Z</time>
      </trkpt>
      <trkpt lat="10.1583610306692" lon="-75.6817229597479">
        <ele>52.3851891</ele>
        <time>2019-09-10T15:05:16.300Z</time>
      </trkpt>
      <trkpt lat="10.1583633146857" lon="-75.6817168380961">
        <ele>52.3851891</ele>
        <time>2019-09-10T15:05:16.400Z</time>
      </trkpt>
      <trkpt lat="10.1583655301512" lon="-75.68171084623">
        <ele>52.3851891</ele>
        <time>2019-09-10T15:05:16.500Z</time>
      </trkpt>
      <trkpt lat="10.1583677361847" lon="-75.6817049075593">
        <ele>52.3851891</ele>
        <time>2019-09-10T15:05:16.600Z</time>
      </trkpt>
      <trkpt lat="10.1583699541645" lon="-75.6816989387051">
        <ele>52.3851891</ele>
        <time>2019-09-10T15:05:16.700Z</time>
      </trkpt>
      <trkpt lat="10.1583721835695" lon="-75.6816929721834">
        <ele>52.3851891</ele>
        <time>2019-09-10T15:05:16.800Z</time>
      </trkpt>
      <trkpt lat="10.1583743578158" lon="-75.6816871365615">
        <ele>52.3851891</ele>
        <time>2019-09-10T15:05:16.900Z</time>
      </trkpt>
      <trkpt lat="10.158376522552" lon="-75.6816813638132">
        <ele>52.3851891</ele>
        <time>2019-09-10T15:05:17.000Z</time>
      </trkpt>
      <trkpt lat="10.1583787098129" lon="-75.6816755339703">
        <ele>52.3851891</ele>
        <time>2019-09-10T15:05:17.100Z</time>
      </trkpt>
      <trkpt lat="10.1583809015943" lon="-75.6816697118909">
        <ele>52.3851891</ele>
        <time>2019-09-10T15:05:17.200Z</time>
      </trkpt>
      <trkpt lat="10.1583830706556" lon="-75.6816639515363">
        <ele>52.3851891</ele>
        <time>2019-09-10T15:05:17.300Z</time>
      </trkpt>
      <trkpt lat="10.1583852229635" lon="-75.6816582627588">
        <ele>52.3851891</ele>
        <time>2019-09-10T15:05:17.400Z</time>
      </trkpt>
      <trkpt lat="10.1583873722881" lon="-75.6816525410127">
        <ele>52.3851891</ele>
        <time>2019-09-10T15:05:17.500Z</time>
      </trkpt>
      <trkpt lat="10.1583895079469" lon="-75.6816468703732">
        <ele>52.3851891</ele>
        <time>2019-09-10T15:05:17.600Z</time>
      </trkpt>
      <trkpt lat="10.1583915876131" lon="-75.6816413419478">
        <ele>52.3851891</ele>
        <time>2019-09-10T15:05:17.700Z</time>
      </trkpt>
      <trkpt lat="10.1583936510341" lon="-75.6816358860396">
        <ele>52.3851891</ele>
        <time>2019-09-10T15:05:17.800Z</time>
      </trkpt>
      <trkpt lat="10.1583956793067" lon="-75.6816304911599">
        <ele>52.3851891</ele>
        <time>2019-09-10T15:05:17.900Z</time>
      </trkpt>
      <trkpt lat="10.1583977000363" lon="-75.6816251211371">
        <ele>52.3851891</ele>
        <time>2019-09-10T15:05:18.000Z</time>
      </trkpt>
      <trkpt lat="10.158399734015" lon="-75.6816197369453">
        <ele>52.3851891</ele>
        <time>2019-09-10T15:05:18.100Z</time>
      </trkpt>
      <trkpt lat="10.1584017671859" lon="-75.681614379177">
        <ele>52.3851891</ele>
        <time>2019-09-10T15:05:18.200Z</time>
      </trkpt>
      <trkpt lat="10.158403718622" lon="-75.6816091407155">
        <ele>52.3851891</ele>
        <time>2019-09-10T15:05:18.300Z</time>
      </trkpt>
      <trkpt lat="10.1584056417883" lon="-75.6816039548228">
        <ele>52.3851891</ele>
        <time>2019-09-10T15:05:18.400Z</time>
      </trkpt>
      <trkpt lat="10.1584075347307" lon="-75.681598845207">
        <ele>52.3851891</ele>
        <time>2019-09-10T15:05:18.500Z</time>
      </trkpt>
      <trkpt lat="10.158409434239" lon="-75.6815937610401">
        <ele>52.3851891</ele>
        <time>2019-09-10T15:05:18.600Z</time>
      </trkpt>
      <trkpt lat="10.1584131743319" lon="-75.6815837163299">
        <ele>52.3851891</ele>
        <time>2019-09-10T15:05:18.800Z</time>
      </trkpt>
      <trkpt lat="10.158415004006" lon="-75.6815787552297">
        <ele>52.3851891</ele>
        <time>2019-09-10T15:05:18.900Z</time>
      </trkpt>
      <trkpt lat="10.1584168263977" lon="-75.6815738225374">
        <ele>52.3851891</ele>
        <time>2019-09-10T15:05:19.000Z</time>
      </trkpt>
      <trkpt lat="10.1584186341333" lon="-75.6815689225353">
        <ele>52.3851891</ele>
        <time>2019-09-10T15:05:19.100Z</time>
      </trkpt>
      <trkpt lat="10.1584204384167" lon="-75.6815640556933">
        <ele>52.3851891</ele>
        <time>2019-09-10T15:05:19.200Z</time>
      </trkpt>
      <trkpt lat="10.1584222262658" lon="-75.6815592561115">
        <ele>52.3851891</ele>
        <time>2019-09-10T15:05:19.300Z</time>
      </trkpt>
      <trkpt lat="10.1584240074514" lon="-75.6815544994725">
        <ele>52.3851891</ele>
        <time>2019-09-10T15:05:19.400Z</time>
      </trkpt>
      <trkpt lat="10.1584257873016" lon="-75.6815497881087">
        <ele>52.3851891</ele>
        <time>2019-09-10T15:05:19.500Z</time>
      </trkpt>
      <trkpt lat="10.1584275564627" lon="-75.6815451119069">
        <ele>52.3851891</ele>
        <time>2019-09-10T15:05:19.600Z</time>
      </trkpt>
      <trkpt lat="10.1584293105639" lon="-75.6815404880997">
        <ele>52.3851891</ele>
        <time>2019-09-10T15:05:19.700Z</time>
      </trkpt>
      <trkpt lat="10.1584310456059" lon="-75.6815359025529">
        <ele>52.3851891</ele>
        <time>2019-09-10T15:05:19.800Z</time>
      </trkpt>
      <trkpt lat="10.1584327269417" lon="-75.6815313463367">
        <ele>52.3851891</ele>
        <time>2019-09-10T15:05:19.900Z</time>
      </trkpt>
      <trkpt lat="10.1584343884496" lon="-75.6815268252128">
        <ele>52.3851891</ele>
        <time>2019-09-10T15:05:20.000Z</time>
      </trkpt>
      <trkpt lat="10.1584360097545" lon="-75.6815223632026">
        <ele>52.3851891</ele>
        <time>2019-09-10T15:05:20.100Z</time>
      </trkpt>
      <trkpt lat="10.1584376251124" lon="-75.6815179468159">
        <ele>52.3851891</ele>
        <time>2019-09-10T15:05:20.200Z</time>
      </trkpt>
      <trkpt lat="10.1584392011856" lon="-75.6815135472964">
        <ele>52.3851891</ele>
        <time>2019-09-10T15:05:20.300Z</time>
      </trkpt>
      <trkpt lat="10.1584407739824" lon="-75.6815091822947">
        <ele>52.3851891</ele>
        <time>2019-09-10T15:05:20.400Z</time>
      </trkpt>
      <trkpt lat="10.1584423068628" lon="-75.681504843386">
        <ele>52.3851891</ele>
        <time>2019-09-10T15:05:20.500Z</time>
      </trkpt>
      <trkpt lat="10.1584438402187" lon="-75.681500554905">
        <ele>52.3851891</ele>
        <time>2019-09-10T15:05:20.600Z</time>
      </trkpt>
      <trkpt lat="10.1584453790331" lon="-75.6814962686347">
        <ele>52.3851891</ele>
        <time>2019-09-10T15:05:20.700Z</time>
      </trkpt>
      <trkpt lat="10.1584469232866" lon="-75.6814920343936">
        <ele>52.3851891</ele>
        <time>2019-09-10T15:05:20.800Z</time>
      </trkpt>
      <trkpt lat="10.1584484173579" lon="-75.6814878852373">
        <ele>52.3851891</ele>
        <time>2019-09-10T15:05:20.900Z</time>
      </trkpt>
      <trkpt lat="10.1584498982062" lon="-75.6814837998598">
        <ele>52.3851891</ele>
        <time>2019-09-10T15:05:21.000Z</time>
      </trkpt>
      <trkpt lat="10.158451363871" lon="-75.6814797491568">
        <ele>52.3851891</ele>
        <time>2019-09-10T15:05:21.100Z</time>
      </trkpt>
      <trkpt lat="10.1584528274839" lon="-75.6814757331979">
        <ele>52.3851891</ele>
        <time>2019-09-10T15:05:21.200Z</time>
      </trkpt>
      <trkpt lat="10.1584542430772" lon="-75.6814718071456">
        <ele>52.3851891</ele>
        <time>2019-09-10T15:05:21.300Z</time>
      </trkpt>
      <trkpt lat="10.1584556530817" lon="-75.681467933488">
        <ele>52.3851891</ele>
        <time>2019-09-10T15:05:21.400Z</time>
      </trkpt>
      <trkpt lat="10.1584570110803" lon="-75.6814641939504">
        <ele>52.3851891</ele>
        <time>2019-09-10T15:05:21.500Z</time>
      </trkpt>
      <trkpt lat="10.1584583575624" lon="-75.6814605033087">
        <ele>52.3851891</ele>
        <time>2019-09-10T15:05:21.600Z</time>
      </trkpt>
      <trkpt lat="10.1584597456416" lon="-75.6814566718454">
        <ele>52.3851891</ele>
        <time>2019-09-10T15:05:21.700Z</time>
      </trkpt>
      <trkpt lat="10.1584611606161" lon="-75.6814528088756">
        <ele>52.3851891</ele>
        <time>2019-09-10T15:05:21.800Z</time>
      </trkpt>
      <trkpt lat="10.1584625565313" lon="-75.6814489591873">
        <ele>52.3851891</ele>
        <time>2019-09-10T15:05:21.900Z</time>
      </trkpt>
      <trkpt lat="10.1584639295181" lon="-75.6814451991096">
        <ele>52.2851891</ele>
        <time>2019-09-10T15:05:22.000Z</time>
      </trkpt>
      <trkpt lat="10.1584652931119" lon="-75.6814414780233">
        <ele>52.2851891</ele>
        <time>2019-09-10T15:05:22.100Z</time>
      </trkpt>
      <trkpt lat="10.1584666405549" lon="-75.6814378331965">
        <ele>52.2851891</ele>
        <time>2019-09-10T15:05:22.200Z</time>
      </trkpt>
      <trkpt lat="10.1584679597834" lon="-75.6814342516612">
        <ele>52.2851891</ele>
        <time>2019-09-10T15:05:22.300Z</time>
      </trkpt>
      <trkpt lat="10.1584692641443" lon="-75.681430732634">
        <ele>52.2851891</ele>
        <time>2019-09-10T15:05:22.400Z</time>
      </trkpt>
      <trkpt lat="10.1584705570539" lon="-75.6814272829993">
        <ele>52.2851891</ele>
        <time>2019-09-10T15:05:22.500Z</time>
      </trkpt>
      <trkpt lat="10.1584718401114" lon="-75.6814238801978">
        <ele>52.2851891</ele>
        <time>2019-09-10T15:05:22.600Z</time>
      </trkpt>
      <trkpt lat="10.1584742845264" lon="-75.6814171889319">
        <ele>52.2851891</ele>
        <time>2019-09-10T15:05:22.800Z</time>
      </trkpt>
      <trkpt lat="10.158475493506" lon="-75.6814139062988">
        <ele>52.2851891</ele>
        <time>2019-09-10T15:05:22.900Z</time>
      </trkpt>
      <trkpt lat="10.1584767028243" lon="-75.6814106615083">
        <ele>52.2851891</ele>
        <time>2019-09-10T15:05:23.000Z</time>
      </trkpt>
      <trkpt lat="10.1584778685557" lon="-75.6814074735338">
        <ele>52.2851891</ele>
        <time>2019-09-10T15:05:23.100Z</time>
      </trkpt>
      <trkpt lat="10.1584790229271" lon="-75.6814043228971">
        <ele>52.2851891</ele>
        <time>2019-09-10T15:05:23.200Z</time>
      </trkpt>
      <trkpt lat="10.1584801687003" lon="-75.6814011903287">
        <ele>52.2851891</ele>
        <time>2019-09-10T15:05:23.300Z</time>
      </trkpt>
      <trkpt lat="10.1584813108193" lon="-75.681398093401">
        <ele>52.2851891</ele>
        <time>2019-09-10T15:05:23.400Z</time>
      </trkpt>
      <trkpt lat="10.1584824296906" lon="-75.6813951186173">
        <ele>52.2851891</ele>
        <time>2019-09-10T15:05:23.500Z</time>
      </trkpt>
      <trkpt lat="10.1584835393058" lon="-75.6813921916503">
        <ele>52.2851891</ele>
        <time>2019-09-10T15:05:23.600Z</time>
      </trkpt>
      <trkpt lat="10.1584846363104" lon="-75.6813893171476">
        <ele>52.2851891</ele>
        <time>2019-09-10T15:05:23.700Z</time>
      </trkpt>
      <trkpt lat="10.1584857240067" lon="-75.6813864576236">
        <ele>52.2851891</ele>
        <time>2019-09-10T15:05:23.800Z</time>
      </trkpt>
      <trkpt lat="10.1584867806324" lon="-75.6813836510165">
        <ele>52.2851891</ele>
        <time>2019-09-10T15:05:23.900Z</time>
      </trkpt>
      <trkpt lat="10.1584878225483" lon="-75.6813808699104">
        <ele>52.2851891</ele>
        <time>2019-09-10T15:05:24.000Z</time>
      </trkpt>
      <trkpt lat="10.1584888531107" lon="-75.681378145899">
        <ele>52.2851891</ele>
        <time>2019-09-10T15:05:24.100Z</time>
      </trkpt>
      <trkpt lat="10.1584898741223" lon="-75.6813754537769">
        <ele>52.2851891</ele>
        <time>2019-09-10T15:05:24.200Z</time>
      </trkpt>
      <trkpt lat="10.1584908756007" lon="-75.6813728282449">
        <ele>52.2851891</ele>
        <time>2019-09-10T15:05:24.300Z</time>
      </trkpt>
      <trkpt lat="10.158491860982" lon="-75.6813702349155">
        <ele>52.2851891</ele>
        <time>2019-09-10T15:05:24.400Z</time>
      </trkpt>
      <trkpt lat="10.1584928424452" lon="-75.6813676843027">
        <ele>52.2851891</ele>
        <time>2019-09-10T15:05:24.500Z</time>
      </trkpt>
      <trkpt lat="10.1584938094413" lon="-75.6813651571544">
        <ele>52.2851891</ele>
        <time>2019-09-10T15:05:24.600Z</time>
      </trkpt>
      <trkpt lat="10.1584947626298" lon="-75.6813626755163">
        <ele>52.2851891</ele>
        <time>2019-09-10T15:05:24.700Z</time>
      </trkpt>
      <trkpt lat="10.1584956951631" lon="-75.6813602278217">
        <ele>52.2851891</ele>
        <time>2019-09-10T15:05:24.800Z</time>
      </trkpt>
      <trkpt lat="10.1584966029718" lon="-75.6813578388665">
        <ele>52.2851891</ele>
        <time>2019-09-10T15:05:24.900Z</time>
      </trkpt>
      <trkpt lat="10.1584974863896" lon="-75.6813554881848">
        <ele>52.2851891</ele>
        <time>2019-09-10T15:05:25.000Z</time>
      </trkpt>
      <trkpt lat="10.1584983346559" lon="-75.6813531754762">
        <ele>52.2851891</ele>
        <time>2019-09-10T15:05:25.100Z</time>
      </trkpt>
      <trkpt lat="10.158499165444" lon="-75.6813508923157">
        <ele>52.2851891</ele>
        <time>2019-09-10T15:05:25.200Z</time>
      </trkpt>
      <trkpt lat="10.1584999871764" lon="-75.6813486549571">
        <ele>52.2851891</ele>
        <time>2019-09-10T15:05:25.300Z</time>
      </trkpt>
      <trkpt lat="10.158500796645" lon="-75.6813464550363">
        <ele>52.2851891</ele>
        <time>2019-09-10T15:05:25.400Z</time>
      </trkpt>
      <trkpt lat="10.1585015922335" lon="-75.6813443147733">
        <ele>52.2851891</ele>
        <time>2019-09-10T15:05:25.500Z</time>
      </trkpt>
      <trkpt lat="10.158502371137" lon="-75.6813422148334">
        <ele>52.2851891</ele>
        <time>2019-09-10T15:05:25.600Z</time>
      </trkpt>
      <trkpt lat="10.1585031273205" lon="-75.6813401554253">
        <ele>52.2851891</ele>
        <time>2019-09-10T15:05:25.700Z</time>
      </trkpt>
      <trkpt lat="10.1585038633535" lon="-75.6813381321626">
        <ele>52.2851891</ele>
        <time>2019-09-10T15:05:25.800Z</time>
      </trkpt>
      <trkpt lat="10.1585045964994" lon="-75.6813361518427">
        <ele>52.2851891</ele>
        <time>2019-09-10T15:05:25.900Z</time>
      </trkpt>
      <trkpt lat="10.1585053170924" lon="-75.6813342098571">
        <ele>52.2851891</ele>
        <time>2019-09-10T15:05:26.000Z</time>
      </trkpt>
      <trkpt lat="10.1585060012391" lon="-75.681332292981">
        <ele>52.2851891</ele>
        <time>2019-09-10T15:05:26.100Z</time>
      </trkpt>
      <trkpt lat="10.1585066658438" lon="-75.6813304157446">
        <ele>52.2851891</ele>
        <time>2019-09-10T15:05:26.200Z</time>
      </trkpt>
      <trkpt lat="10.1585073099438" lon="-75.6813285741402">
        <ele>52.2851891</ele>
        <time>2019-09-10T15:05:26.300Z</time>
      </trkpt>
      <trkpt lat="10.1585079448945" lon="-75.6813267830331">
        <ele>52.2851891</ele>
        <time>2019-09-10T15:05:26.400Z</time>
      </trkpt>
      <trkpt lat="10.1585085755412" lon="-75.6813250079881">
        <ele>52.2851891</ele>
        <time>2019-09-10T15:05:26.500Z</time>
      </trkpt>
      <trkpt lat="10.1585091958717" lon="-75.6813232826007">
        <ele>52.2851891</ele>
        <time>2019-09-10T15:05:26.600Z</time>
      </trkpt>
      <trkpt lat="10.1585097925397" lon="-75.6813216396088">
        <ele>52.2851891</ele>
        <time>2019-09-10T15:05:26.700Z</time>
      </trkpt>
      <trkpt lat="10.1585103678181" lon="-75.6813200583568">
        <ele>52.2851891</ele>
        <time>2019-09-10T15:05:26.800Z</time>
      </trkpt>
      <trkpt lat="10.1585109523928" lon="-75.6813185453834">
        <ele>52.2851891</ele>
        <time>2019-09-10T15:05:26.900Z</time>
      </trkpt>
      <trkpt lat="10.1585115195685" lon="-75.6813170700828">
        <ele>52.2851891</ele>
        <time>2019-09-10T15:05:27.000Z</time>
      </trkpt>
      <trkpt lat="10.1585126087944" lon="-75.6813142225869">
        <ele>52.2851891</ele>
        <time>2019-09-10T15:05:27.200Z</time>
      </trkpt>
      <trkpt lat="10.158513148617" lon="-75.6813128884888">
        <ele>52.2851891</ele>
        <time>2019-09-10T15:05:27.300Z</time>
      </trkpt>
      <trkpt lat="10.1585141542472" lon="-75.6813103915261">
        <ele>52.2851891</ele>
        <time>2019-09-10T15:05:27.500Z</time>
      </trkpt>
      <trkpt lat="10.1585146132735" lon="-75.6813092149254">
        <ele>52.2851891</ele>
        <time>2019-09-10T15:05:27.600Z</time>
      </trkpt>
      <trkpt lat="10.1585150647825" lon="-75.6813080764067">
        <ele>52.2851891</ele>
        <time>2019-09-10T15:05:27.700Z</time>
      </trkpt>
      <trkpt lat="10.1585154957069" lon="-75.6813069703452">
        <ele>52.2851891</ele>
        <time>2019-09-10T15:05:27.800Z</time>
      </trkpt>
      <trkpt lat="10.1585159119092" lon="-75.6813059338938">
        <ele>52.2851891</ele>
        <time>2019-09-10T15:05:27.900Z</time>
      </trkpt>
      <trkpt lat="10.1585163057463" lon="-75.681304940803">
        <ele>52.2851891</ele>
        <time>2019-09-10T15:05:28.000Z</time>
      </trkpt>
      <trkpt lat="10.1585166724959" lon="-75.681303997696">
        <ele>52.1851891</ele>
        <time>2019-09-10T15:05:28.100Z</time>
      </trkpt>
      <trkpt lat="10.1585170173823" lon="-75.6813030933607">
        <ele>52.1851891</ele>
        <time>2019-09-10T15:05:28.200Z</time>
      </trkpt>
      <trkpt lat="10.1585173224312" lon="-75.6813022377385">
        <ele>52.1851891</ele>
        <time>2019-09-10T15:05:28.300Z</time>
      </trkpt>
      <trkpt lat="10.1585176062755" lon="-75.6813014283947">
        <ele>52.1851891</ele>
        <time>2019-09-10T15:05:28.400Z</time>
      </trkpt>
      <trkpt lat="10.1585178752677" lon="-75.6813006581304">
        <ele>52.1851891</ele>
        <time>2019-09-10T15:05:28.500Z</time>
      </trkpt>
      <trkpt lat="10.1585181358108" lon="-75.6812999342751">
        <ele>52.1851891</ele>
        <time>2019-09-10T15:05:28.600Z</time>
      </trkpt>
      <trkpt lat="10.1585183780201" lon="-75.6812992463595">
        <ele>52.1851891</ele>
        <time>2019-09-10T15:05:28.700Z</time>
      </trkpt>
      <trkpt lat="10.1585186007802" lon="-75.6812986124695">
        <ele>52.1851891</ele>
        <time>2019-09-10T15:05:28.800Z</time>
      </trkpt>
      <trkpt lat="10.1585187680756" lon="-75.6812980349505">
        <ele>52.1851891</ele>
        <time>2019-09-10T15:05:28.900Z</time>
      </trkpt>
      <trkpt lat="10.158518915957" lon="-75.6812975127452">
        <ele>52.1851891</ele>
        <time>2019-09-10T15:05:29.000Z</time>
      </trkpt>
      <trkpt lat="10.1585190306455" lon="-75.6812970443793">
        <ele>52.2851891</ele>
        <time>2019-09-10T15:05:29.100Z</time>
      </trkpt>
      <trkpt lat="10.1585191358894" lon="-75.6812966301293">
        <ele>52.2851891</ele>
        <time>2019-09-10T15:05:29.200Z</time>
      </trkpt>
      <trkpt lat="10.1585192417366" lon="-75.6812962702311">
        <ele>52.2851891</ele>
        <time>2019-09-10T15:05:29.300Z</time>
      </trkpt>
      <trkpt lat="10.1585193426582" lon="-75.6812959660312">
        <ele>52.2851891</ele>
        <time>2019-09-10T15:05:29.400Z</time>
      </trkpt>
      <trkpt lat="10.158519415078" lon="-75.6812957137359">
        <ele>52.2851891</ele>
        <time>2019-09-10T15:05:29.500Z</time>
      </trkpt>
      <trkpt lat="10.1585194716982" lon="-75.6812954949896">
        <ele>52.2851891</ele>
        <time>2019-09-10T15:05:29.600Z</time>
      </trkpt>
      <trkpt lat="10.1585195244663" lon="-75.6812953278999">
        <ele>52.2851891</ele>
        <time>2019-09-10T15:05:29.700Z</time>
      </trkpt>
      <trkpt lat="10.1585195740361" lon="-75.6812951826242">
        <ele>52.2851891</ele>
        <time>2019-09-10T15:05:29.800Z</time>
      </trkpt>
      <trkpt lat="10.1585196056682" lon="-75.6812950337622">
        <ele>52.2851891</ele>
        <time>2019-09-10T15:05:29.900Z</time>
      </trkpt>
      <trkpt lat="10.1585196354744" lon="-75.6812948874786">
        <ele>52.2851891</ele>
        <time>2019-09-10T15:05:30.000Z</time>
      </trkpt>
      <trkpt lat="10.1585196657887" lon="-75.6812947336833">
        <ele>52.2851891</ele>
        <time>2019-09-10T15:05:30.100Z</time>
      </trkpt>
      <trkpt lat="10.1585196995745" lon="-75.6812945872529">
        <ele>52.2851891</ele>
        <time>2019-09-10T15:05:30.200Z</time>
      </trkpt>
      <trkpt lat="10.1585197128548" lon="-75.6812944368357">
        <ele>52.2851891</ele>
        <time>2019-09-10T15:05:30.300Z</time>
      </trkpt>
      <trkpt lat="10.1585197276106" lon="-75.6812942990379">
        <ele>52.2851891</ele>
        <time>2019-09-10T15:05:30.400Z</time>
      </trkpt>
      <trkpt lat="10.1585197526475" lon="-75.6812941542562">
        <ele>52.2851891</ele>
        <time>2019-09-10T15:05:30.500Z</time>
      </trkpt>
      <trkpt lat="10.1585197873203" lon="-75.6812940186984">
        <ele>52.2851891</ele>
        <time>2019-09-10T15:05:30.600Z</time>
      </trkpt>
      <trkpt lat="10.1585198298308" lon="-75.6812938712203">
        <ele>52.2851891</ele>
        <time>2019-09-10T15:05:30.700Z</time>
      </trkpt>
      <trkpt lat="10.1585198711396" lon="-75.6812937313467">
        <ele>52.3851891</ele>
        <time>2019-09-10T15:05:30.800Z</time>
      </trkpt>
      <trkpt lat="10.158519889609" lon="-75.6812936054504">
        <ele>52.3851891</ele>
        <time>2019-09-10T15:05:30.900Z</time>
      </trkpt>
      <trkpt lat="10.158519933384" lon="-75.6812933908263">
        <ele>52.3851891</ele>
        <time>2019-09-10T15:05:31.100Z</time>
      </trkpt>
      <trkpt lat="10.1585199657314" lon="-75.6812932896172">
        <ele>52.3851891</ele>
        <time>2019-09-10T15:05:31.200Z</time>
      </trkpt>
      <trkpt lat="10.1585199787655" lon="-75.6812932230669">
        <ele>52.3851891</ele>
        <time>2019-09-10T15:05:31.300Z</time>
      </trkpt>
      <trkpt lat="10.1585199884893" lon="-75.6812931568463">
        <ele>52.3851891</ele>
        <time>2019-09-10T15:05:31.400Z</time>
      </trkpt>
      <trkpt lat="10.158520035875" lon="-75.6812930940009">
        <ele>52.3851891</ele>
        <time>2019-09-10T15:05:31.500Z</time>
      </trkpt>
      <trkpt lat="10.1585200952294" lon="-75.6812930157673">
        <ele>52.3851891</ele>
        <time>2019-09-10T15:05:31.600Z</time>
      </trkpt>
      <trkpt lat="10.1585201431032" lon="-75.6812929356576">
        <ele>52.3851891</ele>
        <time>2019-09-10T15:05:31.700Z</time>
      </trkpt>
      <trkpt lat="10.1585201754156" lon="-75.6812928427625">
        <ele>52.3851891</ele>
        <time>2019-09-10T15:05:31.800Z</time>
      </trkpt>
      <trkpt lat="10.1585202431564" lon="-75.6812927446105">
        <ele>52.3851891</ele>
        <time>2019-09-10T15:05:31.900Z</time>
      </trkpt>
      <trkpt lat="10.158520314411" lon="-75.6812926417446">
        <ele>52.3851891</ele>
        <time>2019-09-10T15:05:32.000Z</time>
      </trkpt>
      <trkpt lat="10.158520397859" lon="-75.6812925382683">
        <ele>52.3851891</ele>
        <time>2019-09-10T15:05:32.100Z</time>
      </trkpt>
      <trkpt lat="10.158520468529" lon="-75.6812924313416">
        <ele>52.3851891</ele>
        <time>2019-09-10T15:05:32.200Z</time>
      </trkpt>
      <trkpt lat="10.1585205667604" lon="-75.6812923246325">
        <ele>52.3851891</ele>
        <time>2019-09-10T15:05:32.300Z</time>
      </trkpt>
      <trkpt lat="10.1585206545266" lon="-75.681292213519">
        <ele>52.3851891</ele>
        <time>2019-09-10T15:05:32.400Z</time>
      </trkpt>
      <trkpt lat="10.1585207356654" lon="-75.6812921030315">
        <ele>52.3851891</ele>
        <time>2019-09-10T15:05:32.500Z</time>
      </trkpt>
      <trkpt lat="10.1585207984228" lon="-75.6812919907386">
        <ele>52.3851891</ele>
        <time>2019-09-10T15:05:32.600Z</time>
      </trkpt>
      <trkpt lat="10.1585208837973" lon="-75.6812918580667">
        <ele>52.3851891</ele>
        <time>2019-09-10T15:05:32.700Z</time>
      </trkpt>
      <trkpt lat="10.1585209625875" lon="-75.6812917204854">
        <ele>52.3851891</ele>
        <time>2019-09-10T15:05:32.800Z</time>
      </trkpt>
      <trkpt lat="10.1585210376457" lon="-75.6812915919856">
        <ele>52.3851891</ele>
        <time>2019-09-10T15:05:32.900Z</time>
      </trkpt>
      <trkpt lat="10.1585211009161" lon="-75.6812914700276">
        <ele>52.3851891</ele>
        <time>2019-09-10T15:05:33.000Z</time>
      </trkpt>
      <trkpt lat="10.1585211631833" lon="-75.6812913337673">
        <ele>52.2851891</ele>
        <time>2019-09-10T15:05:33.100Z</time>
      </trkpt>
      <trkpt lat="10.1585212151591" lon="-75.6812911961684">
        <ele>52.2851891</ele>
        <time>2019-09-10T15:05:33.200Z</time>
      </trkpt>
      <trkpt lat="10.1585212923592" lon="-75.6812910726821">
        <ele>52.2851891</ele>
        <time>2019-09-10T15:05:33.300Z</time>
      </trkpt>
      <trkpt lat="10.1585213663797" lon="-75.6812909558789">
        <ele>52.2851891</ele>
        <time>2019-09-10T15:05:33.400Z</time>
      </trkpt>
      <trkpt lat="10.1585214306072" lon="-75.6812908580838">
        <ele>52.2851891</ele>
        <time>2019-09-10T15:05:33.500Z</time>
      </trkpt>
      <trkpt lat="10.1585214804087" lon="-75.681290761988">
        <ele>52.2851891</ele>
        <time>2019-09-10T15:05:33.600Z</time>
      </trkpt>
      <trkpt lat="10.1585215619444" lon="-75.6812906775328">
        <ele>52.3851891</ele>
        <time>2019-09-10T15:05:33.700Z</time>
      </trkpt>
      <trkpt lat="10.1585216307816" lon="-75.6812905838912">
        <ele>52.3851891</ele>
        <time>2019-09-10T15:05:33.800Z</time>
      </trkpt>
      <trkpt lat="10.1585216632109" lon="-75.681290521967">
        <ele>52.3851891</ele>
        <time>2019-09-10T15:05:33.900Z</time>
      </trkpt>
      <trkpt lat="10.1585216801972" lon="-75.6812904533303">
        <ele>52.3851891</ele>
        <time>2019-09-10T15:05:34.000Z</time>
      </trkpt>
      <trkpt lat="10.1585217018888" lon="-75.6812903848522">
        <ele>52.3851891</ele>
        <time>2019-09-10T15:05:34.100Z</time>
      </trkpt>
      <trkpt lat="10.1585217247111" lon="-75.681290298934">
        <ele>52.3851891</ele>
        <time>2019-09-10T15:05:34.200Z</time>
      </trkpt>
      <trkpt lat="10.1585217644268" lon="-75.6812902407281">
        <ele>52.3851891</ele>
        <time>2019-09-10T15:05:34.300Z</time>
      </trkpt>
      <trkpt lat="10.158521843822" lon="-75.6812900170007">
        <ele>52.3851891</ele>
        <time>2019-09-10T15:05:34.600Z</time>
      </trkpt>
      <trkpt lat="10.1585218647125" lon="-75.6812899550012">
        <ele>52.3851891</ele>
        <time>2019-09-10T15:05:34.700Z</time>
      </trkpt>
      <trkpt lat="10.1585218739213" lon="-75.6812899092023">
        <ele>52.3851891</ele>
        <time>2019-09-10T15:05:34.800Z</time>
      </trkpt>
      <trkpt lat="10.1585218849923" lon="-75.6812898940954">
        <ele>52.3851891</ele>
        <time>2019-09-10T15:05:34.900Z</time>
      </trkpt>
      <trkpt lat="10.1585218820041" lon="-75.6812898936507">
        <ele>52.3851891</ele>
        <time>2019-09-10T15:05:35.000Z</time>
      </trkpt>
      <trkpt lat="10.1585218956472" lon="-75.6812899237523">
        <ele>52.3851891</ele>
        <time>2019-09-10T15:05:35.100Z</time>
      </trkpt>
      <trkpt lat="10.1585218921713" lon="-75.6812899629279">
        <ele>52.3851891</ele>
        <time>2019-09-10T15:05:35.200Z</time>
      </trkpt>
      <trkpt lat="10.1585218917235" lon="-75.6812900172033">
        <ele>52.3851891</ele>
        <time>2019-09-10T15:05:35.300Z</time>
      </trkpt>
      <trkpt lat="10.158521877179" lon="-75.6812900723625">
        <ele>52.3851891</ele>
        <time>2019-09-10T15:05:35.400Z</time>
      </trkpt>
      <trkpt lat="10.1585218861208" lon="-75.6812901403804">
        <ele>52.2851891</ele>
        <time>2019-09-10T15:05:35.500Z</time>
      </trkpt>
      <trkpt lat="10.1585218922071" lon="-75.6812902026952">
        <ele>52.2851891</ele>
        <time>2019-09-10T15:05:35.600Z</time>
      </trkpt>
      <trkpt lat="10.1585218972659" lon="-75.6812902312767">
        <ele>52.1851891</ele>
        <time>2019-09-10T15:05:35.700Z</time>
      </trkpt>
      <trkpt lat="10.1585218986818" lon="-75.681290233483">
        <ele>52.1851891</ele>
        <time>2019-09-10T15:05:35.800Z</time>
      </trkpt>
      <trkpt lat="10.158521889118" lon="-75.6812902167887">
        <ele>52.0851891</ele>
        <time>2019-09-10T15:05:35.900Z</time>
      </trkpt>
      <trkpt lat="10.1585218709307" lon="-75.6812901930392">
        <ele>51.9851891</ele>
        <time>2019-09-10T15:05:36.000Z</time>
      </trkpt>
      <trkpt lat="10.1585218620614" lon="-75.6812901882404">
        <ele>51.8851891</ele>
        <time>2019-09-10T15:05:36.100Z</time>
      </trkpt>
      <trkpt lat="10.1585218698633" lon="-75.6812901866773">
        <ele>51.7851891</ele>
        <time>2019-09-10T15:05:36.200Z</time>
      </trkpt>
      <trkpt lat="10.1585218654559" lon="-75.6812901828709">
        <ele>51.6851891</ele>
        <time>2019-09-10T15:05:36.300Z</time>
      </trkpt>
      <trkpt lat="10.1585218313375" lon="-75.6812901572814">
        <ele>51.5851891</ele>
        <time>2019-09-10T15:05:36.400Z</time>
      </trkpt>
      <trkpt lat="10.1585217717076" lon="-75.6812901066364">
        <ele>51.3851891</ele>
        <time>2019-09-10T15:05:36.500Z</time>
      </trkpt>
      <trkpt lat="10.1585216928249" lon="-75.6812900365057">
        <ele>51.2851891</ele>
        <time>2019-09-10T15:05:36.600Z</time>
      </trkpt>
      <trkpt lat="10.1585216289048" lon="-75.6812899549465">
        <ele>51.0851891</ele>
        <time>2019-09-10T15:05:36.700Z</time>
      </trkpt>
      <trkpt lat="10.158521522094" lon="-75.6812898839404">
        <ele>50.8851891</ele>
        <time>2019-09-10T15:05:36.800Z</time>
      </trkpt>
      <trkpt lat="10.1585214389994" lon="-75.6812898214562">
        <ele>50.7851891</ele>
        <time>2019-09-10T15:05:36.900Z</time>
      </trkpt>
      <trkpt lat="10.1585213864291" lon="-75.6812897508936">
        <ele>50.5851891</ele>
        <time>2019-09-10T15:05:37.000Z</time>
      </trkpt>
      <trkpt lat="10.158521451229" lon="-75.6812896656771">
        <ele>50.4851891</ele>
        <time>2019-09-10T15:05:37.100Z</time>
      </trkpt>
      <trkpt lat="10.1585215458224" lon="-75.6812895539426">
        <ele>50.2851891</ele>
        <time>2019-09-10T15:05:37.200Z</time>
      </trkpt>
      <trkpt lat="10.1585216713962" lon="-75.6812894193692">
        <ele>50.0851891</ele>
        <time>2019-09-10T15:05:37.300Z</time>
      </trkpt>
      <trkpt lat="10.158521741526" lon="-75.6812892877109">
        <ele>49.8851891</ele>
        <time>2019-09-10T15:05:37.400Z</time>
      </trkpt>
      <trkpt lat="10.1585217642806" lon="-75.6812891735572">
        <ele>49.6851891</ele>
        <time>2019-09-10T15:05:37.500Z</time>
      </trkpt>
      <trkpt lat="10.1585216854432" lon="-75.6812890843577">
        <ele>49.3851891</ele>
        <time>2019-09-10T15:05:37.600Z</time>
      </trkpt>
      <trkpt lat="10.1585215547789" lon="-75.6812890518808">
        <ele>49.0851891</ele>
        <time>2019-09-10T15:05:37.700Z</time>
      </trkpt>
      <trkpt lat="10.158521448159" lon="-75.681288994492">
        <ele>48.8851891</ele>
        <time>2019-09-10T15:05:37.800Z</time>
      </trkpt>
      <trkpt lat="10.1585214250473" lon="-75.681288906363">
        <ele>48.5851891</ele>
        <time>2019-09-10T15:05:37.900Z</time>
      </trkpt>
      <trkpt lat="10.1585214674255" lon="-75.681288832139">
        <ele>48.2851891</ele>
        <time>2019-09-10T15:05:38.000Z</time>
      </trkpt>
      <trkpt lat="10.1585216353449" lon="-75.6812887546748">
        <ele>47.6851891</ele>
        <time>2019-09-10T15:05:38.200Z</time>
      </trkpt>
      <trkpt lat="10.1585216365842" lon="-75.6812887272116">
        <ele>47.3851891</ele>
        <time>2019-09-10T15:05:38.300Z</time>
      </trkpt>
      <trkpt lat="10.1585215623666" lon="-75.6812887206824">
        <ele>47.0851891</ele>
        <time>2019-09-10T15:05:38.400Z</time>
      </trkpt>
      <trkpt lat="10.1585212882885" lon="-75.6812888136635">
        <ele>46.4851891</ele>
        <time>2019-09-10T15:05:38.600Z</time>
      </trkpt>
      <trkpt lat="10.1585212309469" lon="-75.6812888677646">
        <ele>46.1851891</ele>
        <time>2019-09-10T15:05:38.700Z</time>
      </trkpt>
      <trkpt lat="10.1585212595049" lon="-75.6812889635474">
        <ele>45.8851891</ele>
        <time>2019-09-10T15:05:38.800Z</time>
      </trkpt>
      <trkpt lat="10.1585213907013" lon="-75.6812891230349">
        <ele>45.5851891</ele>
        <time>2019-09-10T15:05:38.900Z</time>
      </trkpt>
      <trkpt lat="10.1585214532641" lon="-75.6812892498371">
        <ele>45.2851891</ele>
        <time>2019-09-10T15:05:39.000Z</time>
      </trkpt>
      <trkpt lat="10.1585214464878" lon="-75.6812894009301">
        <ele>44.9851891</ele>
        <time>2019-09-10T15:05:39.100Z</time>
      </trkpt>
      <trkpt lat="10.1585214083121" lon="-75.6812895281736">
        <ele>44.6851891</ele>
        <time>2019-09-10T15:05:39.200Z</time>
      </trkpt>
      <trkpt lat="10.1585213712866" lon="-75.6812896677858">
        <ele>44.3851891</ele>
        <time>2019-09-10T15:05:39.300Z</time>
      </trkpt>
      <trkpt lat="10.158521131164" lon="-75.6812898588559">
        <ele>43.6851891</ele>
        <time>2019-09-10T15:05:39.500Z</time>
      </trkpt>
      <trkpt lat="10.1585210009076" lon="-75.6812899276776">
        <ele>43.3851891</ele>
        <time>2019-09-10T15:05:39.600Z</time>
      </trkpt>
      <trkpt lat="10.1585207718824" lon="-75.6812900062338">
        <ele>43.0851891</ele>
        <time>2019-09-10T15:05:39.700Z</time>
      </trkpt>
      <trkpt lat="10.1585205605874" lon="-75.6812900567869">
        <ele>42.8851891</ele>
        <time>2019-09-10T15:05:39.800Z</time>
      </trkpt>
      <trkpt lat="10.1585204501267" lon="-75.6812901285699">
        <ele>42.5851891</ele>
        <time>2019-09-10T15:05:39.900Z</time>
      </trkpt>
      <trkpt lat="10.1585203124341" lon="-75.6812901928918">
        <ele>42.2851891</ele>
        <time>2019-09-10T15:05:40.000Z</time>
      </trkpt>
      <trkpt lat="10.1585201661432" lon="-75.6812902419376">
        <ele>41.8851891</ele>
        <time>2019-09-10T15:05:40.100Z</time>
      </trkpt>
      <trkpt lat="10.1585200767221" lon="-75.6812902731868">
        <ele>41.5851891</ele>
        <time>2019-09-10T15:05:40.200Z</time>
      </trkpt>
      <trkpt lat="10.1585200693224" lon="-75.6812903148227">
        <ele>41.2851891</ele>
        <time>2019-09-10T15:05:40.300Z</time>
      </trkpt>
      <trkpt lat="10.158520013799" lon="-75.6812903285357">
        <ele>40.9851891</ele>
        <time>2019-09-10T15:05:40.400Z</time>
      </trkpt>
      <trkpt lat="10.1585200041167" lon="-75.6812903093528">
        <ele>40.6851891</ele>
        <time>2019-09-10T15:05:40.500Z</time>
      </trkpt>
      <trkpt lat="10.158519986525" lon="-75.6812902916783">
        <ele>40.3851891</ele>
        <time>2019-09-10T15:05:40.600Z</time>
      </trkpt>
      <trkpt lat="10.1585199453901" lon="-75.6812902923574">
        <ele>40.0851891</ele>
        <time>2019-09-10T15:05:40.700Z</time>
      </trkpt>
      <trkpt lat="10.1585199221705" lon="-75.6812902720931">
        <ele>39.7851891</ele>
        <time>2019-09-10T15:05:40.800Z</time>
      </trkpt>
      <trkpt lat="10.1585199775262" lon="-75.6812902653912">
        <ele>39.4851891</ele>
        <time>2019-09-10T15:05:40.900Z</time>
      </trkpt>
      <trkpt lat="10.158519970587" lon="-75.6812902534022">
        <ele>39.1851891</ele>
        <time>2019-09-10T15:05:41.000Z</time>
      </trkpt>
      <trkpt lat="10.1585199592046" lon="-75.6812902036169">
        <ele>38.8851891</ele>
        <time>2019-09-10T15:05:41.100Z</time>
      </trkpt>
      <trkpt lat="10.1585199576177" lon="-75.6812901568337">
        <ele>38.6851891</ele>
        <time>2019-09-10T15:05:41.200Z</time>
      </trkpt>
      <trkpt lat="10.158519947477" lon="-75.68129014108">
        <ele>38.3851891</ele>
        <time>2019-09-10T15:05:41.300Z</time>
      </trkpt>
      <trkpt lat="10.1585199540148" lon="-75.6812900990622">
        <ele>38.0851891</ele>
        <time>2019-09-10T15:05:41.400Z</time>
      </trkpt>
      <trkpt lat="10.1585200500653" lon="-75.6812900880969">
        <ele>37.7851891</ele>
        <time>2019-09-10T15:05:41.500Z</time>
      </trkpt>
      <trkpt lat="10.1585200989691" lon="-75.6812900837599">
        <ele>37.4851891</ele>
        <time>2019-09-10T15:05:41.600Z</time>
      </trkpt>
      <trkpt lat="10.1585200798719" lon="-75.6812900527417">
        <ele>37.1851891</ele>
        <time>2019-09-10T15:05:41.700Z</time>
      </trkpt>
      <trkpt lat="10.1585201051588" lon="-75.6812899890812">
        <ele>36.9851891</ele>
        <time>2019-09-10T15:05:41.800Z</time>
      </trkpt>
      <trkpt lat="10.1585201570341" lon="-75.6812899958299">
        <ele>36.6851891</ele>
        <time>2019-09-10T15:05:41.900Z</time>
      </trkpt>
      <trkpt lat="10.1585201348014" lon="-75.6812900064437">
        <ele>36.3851891</ele>
        <time>2019-09-10T15:05:42.000Z</time>
      </trkpt>
      <trkpt lat="10.1585201535334" lon="-75.6812899859754">
        <ele>35.8851891</ele>
        <time>2019-09-10T15:05:42.200Z</time>
      </trkpt>
      <trkpt lat="10.1585201398182" lon="-75.6812899754434">
        <ele>35.5851891</ele>
        <time>2019-09-10T15:05:42.300Z</time>
      </trkpt>
      <trkpt lat="10.1585202141465" lon="-75.6812898832571">
        <ele>35.0851891</ele>
        <time>2019-09-10T15:05:42.500Z</time>
      </trkpt>
      <trkpt lat="10.1585202335738" lon="-75.6812898549641">
        <ele>34.7851891</ele>
        <time>2019-09-10T15:05:42.600Z</time>
      </trkpt>
      <trkpt lat="10.1585202333418" lon="-75.6812898093981">
        <ele>34.5851891</ele>
        <time>2019-09-10T15:05:42.700Z</time>
      </trkpt>
      <trkpt lat="10.1585202452612" lon="-75.6812897633161">
        <ele>34.2851891</ele>
        <time>2019-09-10T15:05:42.800Z</time>
      </trkpt>
      <trkpt lat="10.1585202706926" lon="-75.6812897508585">
        <ele>34.0851891</ele>
        <time>2019-09-10T15:05:42.900Z</time>
      </trkpt>
      <trkpt lat="10.1585202900796" lon="-75.6812897176375">
        <ele>33.8851891</ele>
        <time>2019-09-10T15:05:43.000Z</time>
      </trkpt>
      <trkpt lat="10.1585203316937" lon="-75.6812896818108">
        <ele>33.5851891</ele>
        <time>2019-09-10T15:05:43.100Z</time>
      </trkpt>
      <trkpt lat="10.1585203599818" lon="-75.6812896208547">
        <ele>33.3851891</ele>
        <time>2019-09-10T15:05:43.200Z</time>
      </trkpt>
      <trkpt lat="10.1585204075995" lon="-75.6812895543889">
        <ele>33.0851891</ele>
        <time>2019-09-10T15:05:43.300Z</time>
      </trkpt>
      <trkpt lat="10.1585204599695" lon="-75.6812894833319">
        <ele>32.8851891</ele>
        <time>2019-09-10T15:05:43.400Z</time>
      </trkpt>
      <trkpt lat="10.1585204990993" lon="-75.6812894001999">
        <ele>32.5851891</ele>
        <time>2019-09-10T15:05:43.500Z</time>
      </trkpt>
      <trkpt lat="10.1585205217579" lon="-75.681289301415">
        <ele>32.3851891</ele>
        <time>2019-09-10T15:05:43.600Z</time>
      </trkpt>
      <trkpt lat="10.1585205797989" lon="-75.6812892199337">
        <ele>32.1851891</ele>
        <time>2019-09-10T15:05:43.700Z</time>
      </trkpt>
      <trkpt lat="10.1585206214785" lon="-75.6812891463643">
        <ele>31.8851891</ele>
        <time>2019-09-10T15:05:43.800Z</time>
      </trkpt>
      <trkpt lat="10.1585206660136" lon="-75.6812890481453">
        <ele>31.6851891</ele>
        <time>2019-09-10T15:05:43.900Z</time>
      </trkpt>
      <trkpt lat="10.1585206969671" lon="-75.6812889360992">
        <ele>31.3851891</ele>
        <time>2019-09-10T15:05:44.000Z</time>
      </trkpt>
      <trkpt lat="10.1585207398652" lon="-75.6812888151485">
        <ele>31.1851891</ele>
        <time>2019-09-10T15:05:44.100Z</time>
      </trkpt>
      <trkpt lat="10.1585207566251" lon="-75.6812887064871">
        <ele>30.9851891</ele>
        <time>2019-09-10T15:05:44.200Z</time>
      </trkpt>
      <trkpt lat="10.1585207645239" lon="-75.6812885985661">
        <ele>30.7851891</ele>
        <time>2019-09-10T15:05:44.300Z</time>
      </trkpt>
      <trkpt lat="10.1585207218053" lon="-75.6812885494129">
        <ele>30.5851891</ele>
        <time>2019-09-10T15:05:44.400Z</time>
      </trkpt>
      <trkpt lat="10.1585205938573" lon="-75.681288604258">
        <ele>30.2851891</ele>
        <time>2019-09-10T15:05:44.500Z</time>
      </trkpt>
      <trkpt lat="10.1585203767548" lon="-75.6812887479492">
        <ele>30.0851891</ele>
        <time>2019-09-10T15:05:44.600Z</time>
      </trkpt>
      <trkpt lat="10.1585200508978" lon="-75.681289053861">
        <ele>29.8851891</ele>
        <time>2019-09-10T15:05:44.700Z</time>
      </trkpt>
      <trkpt lat="10.1585196473157" lon="-75.6812894747932">
        <ele>29.7851891</ele>
        <time>2019-09-10T15:05:44.800Z</time>
      </trkpt>
      <trkpt lat="10.158519119473" lon="-75.6812900344636">
        <ele>29.5851891</ele>
        <time>2019-09-10T15:05:44.900Z</time>
      </trkpt>
      <trkpt lat="10.1585185181432" lon="-75.6812906992142">
        <ele>29.2851891</ele>
        <time>2019-09-10T15:05:45.000Z</time>
      </trkpt>
      <trkpt lat="10.1585178175604" lon="-75.681291512304">
        <ele>29.0851891</ele>
        <time>2019-09-10T15:05:45.100Z</time>
      </trkpt>
      <trkpt lat="10.1585170538826" lon="-75.6812924386699">
        <ele>28.8851891</ele>
        <time>2019-09-10T15:05:45.200Z</time>
      </trkpt>
      <trkpt lat="10.1585161867101" lon="-75.6812935279446">
        <ele>28.6851891</ele>
        <time>2019-09-10T15:05:45.300Z</time>
      </trkpt>
      <trkpt lat="10.1585152788354" lon="-75.6812946855963">
        <ele>28.4851891</ele>
        <time>2019-09-10T15:05:45.400Z</time>
      </trkpt>
      <trkpt lat="10.1585144246677" lon="-75.6812957737923">
        <ele>28.2851891</ele>
        <time>2019-09-10T15:05:45.500Z</time>
      </trkpt>
      <trkpt lat="10.1585136791542" lon="-75.6812967065042">
        <ele>28.0851891</ele>
        <time>2019-09-10T15:05:45.600Z</time>
      </trkpt>
      <trkpt lat="10.1585131024753" lon="-75.6812974160043">
        <ele>27.8851891</ele>
        <time>2019-09-10T15:05:45.700Z</time>
      </trkpt>
      <trkpt lat="10.1585126518779" lon="-75.6812979359663">
        <ele>27.6851891</ele>
        <time>2019-09-10T15:05:45.800Z</time>
      </trkpt>
      <trkpt lat="10.1585123946389" lon="-75.6812982095361">
        <ele>27.4851891</ele>
        <time>2019-09-10T15:05:45.900Z</time>
      </trkpt>
      <trkpt lat="10.1585122466614" lon="-75.681298455219">
        <ele>26.9851891</ele>
        <time>2019-09-10T15:05:46.200Z</time>
      </trkpt>
      <trkpt lat="10.1585122734289" lon="-75.6812984269981">
        <ele>26.7851891</ele>
        <time>2019-09-10T15:05:46.300Z</time>
      </trkpt>
      <trkpt lat="10.1585123213243" lon="-75.6812984144064">
        <ele>26.5851891</ele>
        <time>2019-09-10T15:05:46.400Z</time>
      </trkpt>
      <trkpt lat="10.1585123781648" lon="-75.6812983861321">
        <ele>26.3851891</ele>
        <time>2019-09-10T15:05:46.500Z</time>
      </trkpt>
      <trkpt lat="10.1585124172368" lon="-75.6812983495233">
        <ele>26.1851891</ele>
        <time>2019-09-10T15:05:46.600Z</time>
      </trkpt>
      <trkpt lat="10.1585125013431" lon="-75.6812983411441">
        <ele>25.9851891</ele>
        <time>2019-09-10T15:05:46.700Z</time>
      </trkpt>
      <trkpt lat="10.1585125897015" lon="-75.6812983361635">
        <ele>25.8851891</ele>
        <time>2019-09-10T15:05:46.800Z</time>
      </trkpt>
      <trkpt lat="10.158512647684" lon="-75.6812983772971">
        <ele>25.6851891</ele>
        <time>2019-09-10T15:05:46.900Z</time>
      </trkpt>
      <trkpt lat="10.1585126839124" lon="-75.6812984132118">
        <ele>25.4851891</ele>
        <time>2019-09-10T15:05:47.000Z</time>
      </trkpt>
      <trkpt lat="10.1585127086147" lon="-75.6812985219276">
        <ele>25.3851891</ele>
        <time>2019-09-10T15:05:47.100Z</time>
      </trkpt>
      <trkpt lat="10.1585127260912" lon="-75.6812986058298">
        <ele>25.1851891</ele>
        <time>2019-09-10T15:05:47.200Z</time>
      </trkpt>
      <trkpt lat="10.1585127731831" lon="-75.6812986881187">
        <ele>24.9851891</ele>
        <time>2019-09-10T15:05:47.300Z</time>
      </trkpt>
      <trkpt lat="10.1585128101242" lon="-75.6812987556509">
        <ele>24.8851891</ele>
        <time>2019-09-10T15:05:47.400Z</time>
      </trkpt>
      <trkpt lat="10.1585128075115" lon="-75.6812988387665">
        <ele>24.6851891</ele>
        <time>2019-09-10T15:05:47.500Z</time>
      </trkpt>
      <trkpt lat="10.1585127639851" lon="-75.6812988894739">
        <ele>24.4851891</ele>
        <time>2019-09-10T15:05:47.600Z</time>
      </trkpt>
      <trkpt lat="10.1585127353711" lon="-75.6812989267659">
        <ele>24.3851891</ele>
        <time>2019-09-10T15:05:47.700Z</time>
      </trkpt>
      <trkpt lat="10.1585127231081" lon="-75.6812989158932">
        <ele>24.1851891</ele>
        <time>2019-09-10T15:05:47.800Z</time>
      </trkpt>
      <trkpt lat="10.1585127030017" lon="-75.681298892358">
        <ele>23.9851891</ele>
        <time>2019-09-10T15:05:47.900Z</time>
      </trkpt>
      <trkpt lat="10.1585126604795" lon="-75.6812988719342">
        <ele>23.8851891</ele>
        <time>2019-09-10T15:05:48.000Z</time>
      </trkpt>
      <trkpt lat="10.1585126117276" lon="-75.6812988833662">
        <ele>23.6851891</ele>
        <time>2019-09-10T15:05:48.100Z</time>
      </trkpt>
      <trkpt lat="10.1585125645603" lon="-75.6812989076902">
        <ele>23.5851891</ele>
        <time>2019-09-10T15:05:48.200Z</time>
      </trkpt>
      <trkpt lat="10.1585125399631" lon="-75.6812989547181">
        <ele>23.3851891</ele>
        <time>2019-09-10T15:05:48.300Z</time>
      </trkpt>
      <trkpt lat="10.1585125094375" lon="-75.6812990059781">
        <ele>23.1851891</ele>
        <time>2019-09-10T15:05:48.400Z</time>
      </trkpt>
      <trkpt lat="10.1585124830021" lon="-75.681299054106">
        <ele>23.0851891</ele>
        <time>2019-09-10T15:05:48.500Z</time>
      </trkpt>
      <trkpt lat="10.1585124520273" lon="-75.6812990865981">
        <ele>22.8851891</ele>
        <time>2019-09-10T15:05:48.600Z</time>
      </trkpt>
      <trkpt lat="10.158512444944" lon="-75.6812991211812">
        <ele>22.7851891</ele>
        <time>2019-09-10T15:05:48.700Z</time>
      </trkpt>
      <trkpt lat="10.1585124433451" lon="-75.6812991516922">
        <ele>22.5851891</ele>
        <time>2019-09-10T15:05:48.800Z</time>
      </trkpt>
      <trkpt lat="10.158512437836" lon="-75.6812991893901">
        <ele>22.4851891</ele>
        <time>2019-09-10T15:05:48.900Z</time>
      </trkpt>
      <trkpt lat="10.1585124235456" lon="-75.6812992127196">
        <ele>22.2851891</ele>
        <time>2019-09-10T15:05:49.000Z</time>
      </trkpt>
      <trkpt lat="10.1585124351019" lon="-75.6812991828331">
        <ele>22.1851891</ele>
        <time>2019-09-10T15:05:49.100Z</time>
      </trkpt>
      <trkpt lat="10.1585124530691" lon="-75.681299134912">
        <ele>21.9851891</ele>
        <time>2019-09-10T15:05:49.200Z</time>
      </trkpt>
      <trkpt lat="10.1585124507565" lon="-75.681299074348">
        <ele>21.8851891</ele>
        <time>2019-09-10T15:05:49.300Z</time>
      </trkpt>
      <trkpt lat="10.1585124454201" lon="-75.6812990227725">
        <ele>21.6851891</ele>
        <time>2019-09-10T15:05:49.400Z</time>
      </trkpt>
      <trkpt lat="10.1585124531322" lon="-75.6812988857281">
        <ele>21.4851891</ele>
        <time>2019-09-10T15:05:49.600Z</time>
      </trkpt>
      <trkpt lat="10.1585124614605" lon="-75.6812987930582">
        <ele>21.1851891</ele>
        <time>2019-09-10T15:05:49.800Z</time>
      </trkpt>
      <trkpt lat="10.1585124622191" lon="-75.6812987331851">
        <ele>21.0851891</ele>
        <time>2019-09-10T15:05:49.900Z</time>
      </trkpt>
      <trkpt lat="10.1585124666204" lon="-75.6812986606778">
        <ele>20.8851891</ele>
        <time>2019-09-10T15:05:50.000Z</time>
      </trkpt>
      <trkpt lat="10.1585124926486" lon="-75.6812985586148">
        <ele>20.7851891</ele>
        <time>2019-09-10T15:05:50.100Z</time>
      </trkpt>
      <trkpt lat="10.1585125131689" lon="-75.6812984565495">
        <ele>20.5851891</ele>
        <time>2019-09-10T15:05:50.200Z</time>
      </trkpt>
      <trkpt lat="10.1585125183384" lon="-75.6812983797177">
        <ele>20.4851891</ele>
        <time>2019-09-10T15:05:50.300Z</time>
      </trkpt>
      <trkpt lat="10.1585125148148" lon="-75.6812983225894">
        <ele>20.2851891</ele>
        <time>2019-09-10T15:05:50.400Z</time>
      </trkpt>
      <trkpt lat="10.1585125120285" lon="-75.6812982568197">
        <ele>20.1851891</ele>
        <time>2019-09-10T15:05:50.500Z</time>
      </trkpt>
      <trkpt lat="10.158512500843" lon="-75.6812981803883">
        <ele>19.9851891</ele>
        <time>2019-09-10T15:05:50.600Z</time>
      </trkpt>
      <trkpt lat="10.1585124816094" lon="-75.6812981065309">
        <ele>19.8851891</ele>
        <time>2019-09-10T15:05:50.700Z</time>
      </trkpt>
      <trkpt lat="10.1585124662314" lon="-75.6812980476619">
        <ele>19.7851891</ele>
        <time>2019-09-10T15:05:50.800Z</time>
      </trkpt>
      <trkpt lat="10.158512434088" lon="-75.6812980127459">
        <ele>19.5851891</ele>
        <time>2019-09-10T15:05:50.900Z</time>
      </trkpt>
      <trkpt lat="10.1585124028367" lon="-75.6812979898199">
        <ele>19.4851891</ele>
        <time>2019-09-10T15:05:51.000Z</time>
      </trkpt>
      <trkpt lat="10.1585124134574" lon="-75.681298011201">
        <ele>19.3851891</ele>
        <time>2019-09-10T15:05:51.100Z</time>
      </trkpt>
      <trkpt lat="10.1585124365675" lon="-75.6812980409298">
        <ele>19.2851891</ele>
        <time>2019-09-10T15:05:51.200Z</time>
      </trkpt>
      <trkpt lat="10.1585124393564" lon="-75.6812980866446">
        <ele>19.1851891</ele>
        <time>2019-09-10T15:05:51.300Z</time>
      </trkpt>
      <trkpt lat="10.1585124273527" lon="-75.6812981113439">
        <ele>18.9851891</ele>
        <time>2019-09-10T15:05:51.400Z</time>
      </trkpt>
      <trkpt lat="10.1585124418109" lon="-75.6812981272146">
        <ele>18.8851891</ele>
        <time>2019-09-10T15:05:51.500Z</time>
      </trkpt>
      <trkpt lat="10.1585124618613" lon="-75.6812981218457">
        <ele>18.6851891</ele>
        <time>2019-09-10T15:05:51.600Z</time>
      </trkpt>
      <trkpt lat="10.1585124561709" lon="-75.6812981042038">
        <ele>18.5851891</ele>
        <time>2019-09-10T15:05:51.700Z</time>
      </trkpt>
      <trkpt lat="10.1585124444048" lon="-75.6812980734023">
        <ele>18.4851891</ele>
        <time>2019-09-10T15:05:51.800Z</time>
      </trkpt>
      <trkpt lat="10.1585124265477" lon="-75.6812979909514">
        <ele>18.2851891</ele>
        <time>2019-09-10T15:05:51.900Z</time>
      </trkpt>
      <trkpt lat="10.1585124117858" lon="-75.6812979062973">
        <ele>18.1851891</ele>
        <time>2019-09-10T15:05:52.000Z</time>
      </trkpt>
      <trkpt lat="10.1585123996578" lon="-75.6812978302042">
        <ele>17.9851891</ele>
        <time>2019-09-10T15:05:52.100Z</time>
      </trkpt>
      <trkpt lat="10.1585123829719" lon="-75.6812977742009">
        <ele>17.8851891</ele>
        <time>2019-09-10T15:05:52.200Z</time>
      </trkpt>
      <trkpt lat="10.1585123630821" lon="-75.6812976928933">
        <ele>17.7851891</ele>
        <time>2019-09-10T15:05:52.300Z</time>
      </trkpt>
      <trkpt lat="10.1585123410737" lon="-75.6812976235117">
        <ele>17.6851891</ele>
        <time>2019-09-10T15:05:52.400Z</time>
      </trkpt>
      <trkpt lat="10.1585123026286" lon="-75.6812975766578">
        <ele>17.4851891</ele>
        <time>2019-09-10T15:05:52.500Z</time>
      </trkpt>
      <trkpt lat="10.1585122597641" lon="-75.6812975415786">
        <ele>17.3851891</ele>
        <time>2019-09-10T15:05:52.600Z</time>
      </trkpt>
      <trkpt lat="10.1585122232617" lon="-75.681297534049">
        <ele>17.1851891</ele>
        <time>2019-09-10T15:05:52.700Z</time>
      </trkpt>
      <trkpt lat="10.158512200359" lon="-75.6812975268622">
        <ele>17.0851891</ele>
        <time>2019-09-10T15:05:52.800Z</time>
      </trkpt>
      <trkpt lat="10.1585121451511" lon="-75.681297512025">
        <ele>16.9851891</ele>
        <time>2019-09-10T15:05:52.900Z</time>
      </trkpt>
      <trkpt lat="10.1585120800437" lon="-75.6812974904546">
        <ele>16.8851891</ele>
        <time>2019-09-10T15:05:53.000Z</time>
      </trkpt>
      <trkpt lat="10.1585120335015" lon="-75.6812974862824">
        <ele>16.6851891</ele>
        <time>2019-09-10T15:05:53.100Z</time>
      </trkpt>
      <trkpt lat="10.158512006142" lon="-75.6812974855796">
        <ele>16.5851891</ele>
        <time>2019-09-10T15:05:53.200Z</time>
      </trkpt>
      <trkpt lat="10.1585119765333" lon="-75.6812974725353">
        <ele>16.4851891</ele>
        <time>2019-09-10T15:05:53.300Z</time>
      </trkpt>
      <trkpt lat="10.1585119523499" lon="-75.681297452835">
        <ele>16.2851891</ele>
        <time>2019-09-10T15:05:53.400Z</time>
      </trkpt>
      <trkpt lat="10.1585120318314" lon="-75.6812973678764">
        <ele>16.0851891</ele>
        <time>2019-09-10T15:05:53.600Z</time>
      </trkpt>
      <trkpt lat="10.1585120585983" lon="-75.6812973407467">
        <ele>15.9851891</ele>
        <time>2019-09-10T15:05:53.700Z</time>
      </trkpt>
      <trkpt lat="10.1585120735124" lon="-75.6812973337546">
        <ele>15.7851891</ele>
        <time>2019-09-10T15:05:53.800Z</time>
      </trkpt>
      <trkpt lat="10.1585121083263" lon="-75.6812973500398">
        <ele>15.6851891</ele>
        <time>2019-09-10T15:05:53.900Z</time>
      </trkpt>
      <trkpt lat="10.1585121401899" lon="-75.6812973727307">
        <ele>15.5851891</ele>
        <time>2019-09-10T15:05:54.000Z</time>
      </trkpt>
      <trkpt lat="10.1585121261429" lon="-75.6812973923168">
        <ele>15.4851891</ele>
        <time>2019-09-10T15:05:54.100Z</time>
      </trkpt>
      <trkpt lat="10.1585120972836" lon="-75.6812974019602">
        <ele>15.3851891</ele>
        <time>2019-09-10T15:05:54.200Z</time>
      </trkpt>
      <trkpt lat="10.1585120908781" lon="-75.681297399805">
        <ele>15.1851891</ele>
        <time>2019-09-10T15:05:54.300Z</time>
      </trkpt>
      <trkpt lat="10.158512099102" lon="-75.6812973879085">
        <ele>15.0851891</ele>
        <time>2019-09-10T15:05:54.400Z</time>
      </trkpt>
      <trkpt lat="10.1585121380395" lon="-75.6812973689458">
        <ele>14.9851891</ele>
        <time>2019-09-10T15:05:54.500Z</time>
      </trkpt>
      <trkpt lat="10.158512175166" lon="-75.6812973460232">
        <ele>14.8851891</ele>
        <time>2019-09-10T15:05:54.600Z</time>
      </trkpt>
      <trkpt lat="10.1585122383392" lon="-75.6812973195342">
        <ele>14.7851891</ele>
        <time>2019-09-10T15:05:54.700Z</time>
      </trkpt>
      <trkpt lat="10.1585123032879" lon="-75.6812972911414">
        <ele>14.5851891</ele>
        <time>2019-09-10T15:05:54.800Z</time>
      </trkpt>
      <trkpt lat="10.1585123643704" lon="-75.6812972489874">
        <ele>14.4851891</ele>
        <time>2019-09-10T15:05:54.900Z</time>
      </trkpt>
      <trkpt lat="10.1585124050591" lon="-75.681297210998">
        <ele>14.3851891</ele>
        <time>2019-09-10T15:05:55.000Z</time>
      </trkpt>
      <trkpt lat="10.1585124796278" lon="-75.6812972029593">
        <ele>14.1851891</ele>
        <time>2019-09-10T15:05:55.100Z</time>
      </trkpt>
      <trkpt lat="10.1585125529495" lon="-75.6812972094912">
        <ele>14.0851891</ele>
        <time>2019-09-10T15:05:55.200Z</time>
      </trkpt>
      <trkpt lat="10.1585126047585" lon="-75.6812972042789">
        <ele>13.9851891</ele>
        <time>2019-09-10T15:05:55.300Z</time>
      </trkpt>
      <trkpt lat="10.1585126344316" lon="-75.6812971992309">
        <ele>13.8851891</ele>
        <time>2019-09-10T15:05:55.400Z</time>
      </trkpt>
      <trkpt lat="10.1585126348686" lon="-75.6812971987501">
        <ele>13.7851891</ele>
        <time>2019-09-10T15:05:55.500Z</time>
      </trkpt>
      <trkpt lat="10.1585126386224" lon="-75.6812971943853">
        <ele>13.6851891</ele>
        <time>2019-09-10T15:05:55.600Z</time>
      </trkpt>
      <trkpt lat="10.1585126544655" lon="-75.6812972003145">
        <ele>13.5851891</ele>
        <time>2019-09-10T15:05:55.700Z</time>
      </trkpt>
      <trkpt lat="10.1585126707801" lon="-75.6812972057552">
        <ele>13.4851891</ele>
        <time>2019-09-10T15:05:55.800Z</time>
      </trkpt>
      <trkpt lat="10.1585126705384" lon="-75.6812971915436">
        <ele>13.3851891</ele>
        <time>2019-09-10T15:05:55.900Z</time>
      </trkpt>
      <trkpt lat="10.1585126701446" lon="-75.681297166122">
        <ele>13.2851891</ele>
        <time>2019-09-10T15:05:56.000Z</time>
      </trkpt>
      <trkpt lat="10.1585126800897" lon="-75.6812971345513">
        <ele>13.1851891</ele>
        <time>2019-09-10T15:05:56.100Z</time>
      </trkpt>
      <trkpt lat="10.1585126885468" lon="-75.6812970979501">
        <ele>13.0851891</ele>
        <time>2019-09-10T15:05:56.200Z</time>
      </trkpt>
      <trkpt lat="10.1585126688249" lon="-75.6812970972027">
        <ele>12.9851891</ele>
        <time>2019-09-10T15:05:56.300Z</time>
      </trkpt>
      <trkpt lat="10.1585126401745" lon="-75.6812970989238">
        <ele>12.8851891</ele>
        <time>2019-09-10T15:05:56.400Z</time>
      </trkpt>
      <trkpt lat="10.1585126272434" lon="-75.6812970955088">
        <ele>12.7851891</ele>
        <time>2019-09-10T15:05:56.500Z</time>
      </trkpt>
      <trkpt lat="10.1585126351139" lon="-75.6812970792203">
        <ele>12.6851891</ele>
        <time>2019-09-10T15:05:56.600Z</time>
      </trkpt>
      <trkpt lat="10.1585126765724" lon="-75.6812970522276">
        <ele>12.6851891</ele>
        <time>2019-09-10T15:05:56.700Z</time>
      </trkpt>
      <trkpt lat="10.1585127300638" lon="-75.6812970329354">
        <ele>12.5851891</ele>
        <time>2019-09-10T15:05:56.800Z</time>
      </trkpt>
      <trkpt lat="10.1585127797439" lon="-75.6812970332443">
        <ele>12.4851891</ele>
        <time>2019-09-10T15:05:56.900Z</time>
      </trkpt>
      <trkpt lat="10.1585128628925" lon="-75.6812970424787">
        <ele>12.2851891</ele>
        <time>2019-09-10T15:05:57.100Z</time>
      </trkpt>
      <trkpt lat="10.1585129187471" lon="-75.6812970353963">
        <ele>12.1851891</ele>
        <time>2019-09-10T15:05:57.200Z</time>
      </trkpt>
      <trkpt lat="10.1585129928309" lon="-75.6812970716875">
        <ele>12.0851891</ele>
        <time>2019-09-10T15:05:57.300Z</time>
      </trkpt>
      <trkpt lat="10.158513066001" lon="-75.6812971183586">
        <ele>11.9851891</ele>
        <time>2019-09-10T15:05:57.400Z</time>
      </trkpt>
      <trkpt lat="10.1585131401043" lon="-75.6812971704378">
        <ele>11.8851891</ele>
        <time>2019-09-10T15:05:57.500Z</time>
      </trkpt>
      <trkpt lat="10.1585132072667" lon="-75.6812972066778">
        <ele>11.7851891</ele>
        <time>2019-09-10T15:05:57.600Z</time>
      </trkpt>
      <trkpt lat="10.1585132628544" lon="-75.6812971957855">
        <ele>11.6851891</ele>
        <time>2019-09-10T15:05:57.700Z</time>
      </trkpt>
      <trkpt lat="10.158513314846" lon="-75.6812971734296">
        <ele>11.6851891</ele>
        <time>2019-09-10T15:05:57.800Z</time>
      </trkpt>
      <trkpt lat="10.1585133483176" lon="-75.681297140214">
        <ele>11.5851891</ele>
        <time>2019-09-10T15:05:57.900Z</time>
      </trkpt>
      <trkpt lat="10.1585133679521" lon="-75.68129711391">
        <ele>11.4851891</ele>
        <time>2019-09-10T15:05:58.000Z</time>
      </trkpt>
      <trkpt lat="10.1585133432474" lon="-75.6812970535136">
        <ele>11.3851891</ele>
        <time>2019-09-10T15:05:58.100Z</time>
      </trkpt>
      <trkpt lat="10.1585133106777" lon="-75.6812970012277">
        <ele>11.3851891</ele>
        <time>2019-09-10T15:05:58.200Z</time>
      </trkpt>
      <trkpt lat="10.1585133013043" lon="-75.6812969621362">
        <ele>11.2851891</ele>
        <time>2019-09-10T15:05:58.300Z</time>
      </trkpt>
      <trkpt lat="10.1585133114222" lon="-75.6812969335345">
        <ele>11.1851891</ele>
        <time>2019-09-10T15:05:58.400Z</time>
      </trkpt>
      <trkpt lat="10.1585133521373" lon="-75.6812969117694">
        <ele>11.0851891</ele>
        <time>2019-09-10T15:05:58.500Z</time>
      </trkpt>
      <trkpt lat="10.1585133859109" lon="-75.6812968884213">
        <ele>10.9851891</ele>
        <time>2019-09-10T15:05:58.600Z</time>
      </trkpt>
      <trkpt lat="10.1585133765267" lon="-75.681296875711">
        <ele>10.8851891</ele>
        <time>2019-09-10T15:05:58.700Z</time>
      </trkpt>
      <trkpt lat="10.1585133431097" lon="-75.6812968652505">
        <ele>10.8851891</ele>
        <time>2019-09-10T15:05:58.800Z</time>
      </trkpt>
      <trkpt lat="10.1585132958896" lon="-75.6812968505994">
        <ele>10.7851891</ele>
        <time>2019-09-10T15:05:58.900Z</time>
      </trkpt>
      <trkpt lat="10.1585132475098" lon="-75.6812968376128">
        <ele>10.6851891</ele>
        <time>2019-09-10T15:05:59.000Z</time>
      </trkpt>
      <trkpt lat="10.1585131748826" lon="-75.6812968140678">
        <ele>10.5851891</ele>
        <time>2019-09-10T15:05:59.100Z</time>
      </trkpt>
      <trkpt lat="10.1585130954994" lon="-75.6812967873156">
        <ele>10.5851891</ele>
        <time>2019-09-10T15:05:59.200Z</time>
      </trkpt>
      <trkpt lat="10.1585130014087" lon="-75.6812967797425">
        <ele>10.4851891</ele>
        <time>2019-09-10T15:05:59.300Z</time>
      </trkpt>
      <trkpt lat="10.1585129131229" lon="-75.6812967726938">
        <ele>10.3851891</ele>
        <time>2019-09-10T15:05:59.400Z</time>
      </trkpt>
      <trkpt lat="10.1585128437625" lon="-75.6812967543502">
        <ele>10.2851891</ele>
        <time>2019-09-10T15:05:59.500Z</time>
      </trkpt>
      <trkpt lat="10.1585127989207" lon="-75.6812967352647">
        <ele>10.1851891</ele>
        <time>2019-09-10T15:05:59.600Z</time>
      </trkpt>
      <trkpt lat="10.1585127389062" lon="-75.6812966917268">
        <ele>10.1851891</ele>
        <time>2019-09-10T15:05:59.700Z</time>
      </trkpt>
      <trkpt lat="10.1585126898516" lon="-75.6812966457541">
        <ele>10.0851891</ele>
        <time>2019-09-10T15:05:59.800Z</time>
      </trkpt>
      <trkpt lat="10.1585126389242" lon="-75.6812966095021">
        <ele>9.9851891</ele>
        <time>2019-09-10T15:05:59.900Z</time>
      </trkpt>
      <trkpt lat="10.1585125955498" lon="-75.6812965844351">
        <ele>9.8851891</ele>
        <time>2019-09-10T15:06:00.000Z</time>
      </trkpt>
      <trkpt lat="10.1585125930962" lon="-75.6812965721535">
        <ele>9.8851891</ele>
        <time>2019-09-10T15:06:00.100Z</time>
      </trkpt>
      <trkpt lat="10.1585125988781" lon="-75.6812965537849">
        <ele>9.7851891</ele>
        <time>2019-09-10T15:06:00.200Z</time>
      </trkpt>
      <trkpt lat="10.1585126189011" lon="-75.681296586524">
        <ele>9.6851891</ele>
        <time>2019-09-10T15:06:00.300Z</time>
      </trkpt>
      <trkpt lat="10.1585126514441" lon="-75.6812966284854">
        <ele>9.6851891</ele>
        <time>2019-09-10T15:06:00.400Z</time>
      </trkpt>
      <trkpt lat="10.1585127037406" lon="-75.6812966554813">
        <ele>9.5851891</ele>
        <time>2019-09-10T15:06:00.500Z</time>
      </trkpt>
      <trkpt lat="10.1585127175661" lon="-75.6812966429897">
        <ele>9.4851891</ele>
        <time>2019-09-10T15:06:00.600Z</time>
      </trkpt>
      <trkpt lat="10.1585126953673" lon="-75.6812966052048">
        <ele>9.3851891</ele>
        <time>2019-09-10T15:06:00.800Z</time>
      </trkpt>
      <trkpt lat="10.1585126614704" lon="-75.6812966088396">
        <ele>9.2851891</ele>
        <time>2019-09-10T15:06:00.900Z</time>
      </trkpt>
      <trkpt lat="10.158512525817" lon="-75.6812965753999">
        <ele>9.1851891</ele>
        <time>2019-09-10T15:06:01.100Z</time>
      </trkpt>
      <trkpt lat="10.158512447565" lon="-75.6812965527481">
        <ele>9.0851891</ele>
        <time>2019-09-10T15:06:01.200Z</time>
      </trkpt>
      <trkpt lat="10.1585123269852" lon="-75.6812964792116">
        <ele>9.0851891</ele>
        <time>2019-09-10T15:06:01.300Z</time>
      </trkpt>
      <trkpt lat="10.158512213903" lon="-75.6812963968825">
        <ele>8.9851891</ele>
        <time>2019-09-10T15:06:01.400Z</time>
      </trkpt>
      <trkpt lat="10.1585121208032" lon="-75.6812963150016">
        <ele>8.9851891</ele>
        <time>2019-09-10T15:06:01.500Z</time>
      </trkpt>
      <trkpt lat="10.1585120571691" lon="-75.6812962565123">
        <ele>8.8851891</ele>
        <time>2019-09-10T15:06:01.600Z</time>
      </trkpt>
      <trkpt lat="10.1585120035575" lon="-75.6812962338116">
        <ele>8.8851891</ele>
        <time>2019-09-10T15:06:01.700Z</time>
      </trkpt>
      <trkpt lat="10.1585118379736" lon="-75.6812962069539">
        <ele>8.6851891</ele>
        <time>2019-09-10T15:06:01.900Z</time>
      </trkpt>
      <trkpt lat="10.1585117294104" lon="-75.6812961980263">
        <ele>8.5851891</ele>
        <time>2019-09-10T15:06:02.000Z</time>
      </trkpt>
      <trkpt lat="10.158511663678" lon="-75.6812962039153">
        <ele>8.5851891</ele>
        <time>2019-09-10T15:06:02.100Z</time>
      </trkpt>
      <trkpt lat="10.1585116154975" lon="-75.6812962105941">
        <ele>8.4851891</ele>
        <time>2019-09-10T15:06:02.200Z</time>
      </trkpt>
      <trkpt lat="10.158511595435" lon="-75.6812962443808">
        <ele>8.3851891</ele>
        <time>2019-09-10T15:06:02.300Z</time>
      </trkpt>
      <trkpt lat="10.1585115484563" lon="-75.681296287922">
        <ele>8.2851891</ele>
        <time>2019-09-10T15:06:02.500Z</time>
      </trkpt>
      <trkpt lat="10.1585115083562" lon="-75.6812962979581">
        <ele>8.1851891</ele>
        <time>2019-09-10T15:06:02.600Z</time>
      </trkpt>
      <trkpt lat="10.158511486463" lon="-75.6812963180337">
        <ele>8.1851891</ele>
        <time>2019-09-10T15:06:02.700Z</time>
      </trkpt>
      <trkpt lat="10.1585114731627" lon="-75.6812963236909">
        <ele>8.0851891</ele>
        <time>2019-09-10T15:06:02.800Z</time>
      </trkpt>
      <trkpt lat="10.1585114700365" lon="-75.6812962872638">
        <ele>7.9851891</ele>
        <time>2019-09-10T15:06:02.900Z</time>
      </trkpt>
      <trkpt lat="10.1585114512113" lon="-75.6812962401956">
        <ele>7.8851891</ele>
        <time>2019-09-10T15:06:03.100Z</time>
      </trkpt>
      <trkpt lat="10.1585114161505" lon="-75.6812962656129">
        <ele>7.7851891</ele>
        <time>2019-09-10T15:06:03.200Z</time>
      </trkpt>
      <trkpt lat="10.158511364997" lon="-75.6812963112472">
        <ele>7.6851891</ele>
        <time>2019-09-10T15:06:03.300Z</time>
      </trkpt>
      <trkpt lat="10.158511334105" lon="-75.6812963867724">
        <ele>7.6851891</ele>
        <time>2019-09-10T15:06:03.400Z</time>
      </trkpt>
      <trkpt lat="10.1585113404502" lon="-75.681296515728">
        <ele>7.5851891</ele>
        <time>2019-09-10T15:06:03.500Z</time>
      </trkpt>
      <trkpt lat="10.1585113622425" lon="-75.6812966475982">
        <ele>7.4851891</ele>
        <time>2019-09-10T15:06:03.600Z</time>
      </trkpt>
      <trkpt lat="10.1585113900542" lon="-75.6812967806346">
        <ele>7.4851891</ele>
        <time>2019-09-10T15:06:03.700Z</time>
      </trkpt>
      <trkpt lat="10.1585114076252" lon="-75.6812968868623">
        <ele>7.3851891</ele>
        <time>2019-09-10T15:06:03.800Z</time>
      </trkpt>
      <trkpt lat="10.1585114188553" lon="-75.6812969728664">
        <ele>7.2851891</ele>
        <time>2019-09-10T15:06:03.900Z</time>
      </trkpt>
      <trkpt lat="10.1585114186037" lon="-75.6812970513421">
        <ele>7.1851891</ele>
        <time>2019-09-10T15:06:04.000Z</time>
      </trkpt>
      <trkpt lat="10.1585113739624" lon="-75.681297103764">
        <ele>7.1851891</ele>
        <time>2019-09-10T15:06:04.100Z</time>
      </trkpt>
      <trkpt lat="10.1585113243868" lon="-75.6812971478774">
        <ele>7.0851891</ele>
        <time>2019-09-10T15:06:04.200Z</time>
      </trkpt>
      <trkpt lat="10.1585112714917" lon="-75.681297184001">
        <ele>6.9851891</ele>
        <time>2019-09-10T15:06:04.300Z</time>
      </trkpt>
      <trkpt lat="10.1585112220774" lon="-75.6812972367874">
        <ele>6.9851891</ele>
        <time>2019-09-10T15:06:04.400Z</time>
      </trkpt>
      <trkpt lat="10.1585111979581" lon="-75.6812972873359">
        <ele>6.8851891</ele>
        <time>2019-09-10T15:06:04.500Z</time>
      </trkpt>
      <trkpt lat="10.1585111870011" lon="-75.6812973358292">
        <ele>6.7851891</ele>
        <time>2019-09-10T15:06:04.600Z</time>
      </trkpt>
      <trkpt lat="10.1585112078301" lon="-75.6812973875473">
        <ele>6.7851891</ele>
        <time>2019-09-10T15:06:04.700Z</time>
      </trkpt>
      <trkpt lat="10.1585112288094" lon="-75.6812974124728">
        <ele>6.6851891</ele>
        <time>2019-09-10T15:06:04.800Z</time>
      </trkpt>
      <trkpt lat="10.1585112384868" lon="-75.6812974052653">
        <ele>6.6851891</ele>
        <time>2019-09-10T15:06:04.900Z</time>
      </trkpt>
      <trkpt lat="10.1585112545881" lon="-75.681297378042">
        <ele>6.5851891</ele>
        <time>2019-09-10T15:06:05.000Z</time>
      </trkpt>
      <trkpt lat="10.1585113000766" lon="-75.6812973396294">
        <ele>6.5851891</ele>
        <time>2019-09-10T15:06:05.100Z</time>
      </trkpt>
      <trkpt lat="10.1585113350027" lon="-75.6812972885609">
        <ele>6.4851891</ele>
        <time>2019-09-10T15:06:05.200Z</time>
      </trkpt>
      <trkpt lat="10.1585113457484" lon="-75.6812971984335">
        <ele>6.4851891</ele>
        <time>2019-09-10T15:06:05.300Z</time>
      </trkpt>
      <trkpt lat="10.158511309246" lon="-75.6812971590297">
        <ele>6.3851891</ele>
        <time>2019-09-10T15:06:05.400Z</time>
      </trkpt>
      <trkpt lat="10.1585112400009" lon="-75.6812972370844">
        <ele>6.3851891</ele>
        <time>2019-09-10T15:06:05.500Z</time>
      </trkpt>
      <trkpt lat="10.1585111675937" lon="-75.6812973596908">
        <ele>6.3851891</ele>
        <time>2019-09-10T15:06:05.600Z</time>
      </trkpt>
      <trkpt lat="10.1585110983551" lon="-75.6812975302065">
        <ele>6.2851891</ele>
        <time>2019-09-10T15:06:05.700Z</time>
      </trkpt>
      <trkpt lat="10.1585110460617" lon="-75.6812976920806">
        <ele>6.2851891</ele>
        <time>2019-09-10T15:06:05.800Z</time>
      </trkpt>
      <trkpt lat="10.1585110059865" lon="-75.6812978629205">
        <ele>6.1851891</ele>
        <time>2019-09-10T15:06:05.900Z</time>
      </trkpt>
      <trkpt lat="10.1585109706587" lon="-75.6812980041501">
        <ele>6.1851891</ele>
        <time>2019-09-10T15:06:06.000Z</time>
      </trkpt>
      <trkpt lat="10.1585109381973" lon="-75.6812981492256">
        <ele>6.1851891</ele>
        <time>2019-09-10T15:06:06.100Z</time>
      </trkpt>
      <trkpt lat="10.1585109042011" lon="-75.6812982880737">
        <ele>6.0851891</ele>
        <time>2019-09-10T15:06:06.200Z</time>
      </trkpt>
      <trkpt lat="10.1585108575075" lon="-75.6812984226126">
        <ele>6.0851891</ele>
        <time>2019-09-10T15:06:06.300Z</time>
      </trkpt>
      <trkpt lat="10.1585108216589" lon="-75.6812985339731">
        <ele>6.0851891</ele>
        <time>2019-09-10T15:06:06.400Z</time>
      </trkpt>
      <trkpt lat="10.1585108187265" lon="-75.6812986163849">
        <ele>6.0851891</ele>
        <time>2019-09-10T15:06:06.500Z</time>
      </trkpt>
      <trkpt lat="10.1585108213886" lon="-75.6812987107378">
        <ele>5.9851891</ele>
        <time>2019-09-10T15:06:06.700Z</time>
      </trkpt>
      <trkpt lat="10.1585108334989" lon="-75.6812987237027">
        <ele>5.9851891</ele>
        <time>2019-09-10T15:06:06.800Z</time>
      </trkpt>
      <trkpt lat="10.1585108377736" lon="-75.6812987460118">
        <ele>5.8851891</ele>
        <time>2019-09-10T15:06:06.900Z</time>
      </trkpt>
      <trkpt lat="10.1585108351176" lon="-75.6812988348489">
        <ele>5.8851891</ele>
        <time>2019-09-10T15:06:07.100Z</time>
      </trkpt>
      <trkpt lat="10.1585108445874" lon="-75.6812988948025">
        <ele>5.7851891</ele>
        <time>2019-09-10T15:06:07.200Z</time>
      </trkpt>
      <trkpt lat="10.158510861248" lon="-75.68129896996">
        <ele>5.7851891</ele>
        <time>2019-09-10T15:06:07.300Z</time>
      </trkpt>
      <trkpt lat="10.1585108787798" lon="-75.6812990560414">
        <ele>5.6851891</ele>
        <time>2019-09-10T15:06:07.400Z</time>
      </trkpt>
      <trkpt lat="10.1585108924351" lon="-75.6812991182177">
        <ele>5.6851891</ele>
        <time>2019-09-10T15:06:07.500Z</time>
      </trkpt>
      <trkpt lat="10.1585109022677" lon="-75.6812991695147">
        <ele>5.5851891</ele>
        <time>2019-09-10T15:06:07.600Z</time>
      </trkpt>
      <trkpt lat="10.1585109362203" lon="-75.6812992373264">
        <ele>5.5851891</ele>
        <time>2019-09-10T15:06:07.700Z</time>
      </trkpt>
      <trkpt lat="10.1585109797051" lon="-75.6812993064231">
        <ele>5.4851891</ele>
        <time>2019-09-10T15:06:07.800Z</time>
      </trkpt>
      <trkpt lat="10.1585110056144" lon="-75.6812993775726">
        <ele>5.4851891</ele>
        <time>2019-09-10T15:06:07.900Z</time>
      </trkpt>
      <trkpt lat="10.1585108953529" lon="-75.6812993744916">
        <ele>5.4851891</ele>
        <time>2019-09-10T15:06:08.000Z</time>
      </trkpt>
      <trkpt lat="10.1585107639021" lon="-75.681299346386">
        <ele>5.3851891</ele>
        <time>2019-09-10T15:06:08.100Z</time>
      </trkpt>
      <trkpt lat="10.1585106536556" lon="-75.6812993115515">
        <ele>5.3851891</ele>
        <time>2019-09-10T15:06:08.200Z</time>
      </trkpt>
      <trkpt lat="10.1585106147297" lon="-75.681299253108">
        <ele>5.3851891</ele>
        <time>2019-09-10T15:06:08.300Z</time>
      </trkpt>
      <trkpt lat="10.1585106012649" lon="-75.6812992163555">
        <ele>5.3851891</ele>
        <time>2019-09-10T15:06:08.400Z</time>
      </trkpt>
      <trkpt lat="10.158510617106" lon="-75.6812991845042">
        <ele>5.3851891</ele>
        <time>2019-09-10T15:06:08.500Z</time>
      </trkpt>
      <trkpt lat="10.158510624811" lon="-75.6812991473579">
        <ele>5.3851891</ele>
        <time>2019-09-10T15:06:08.600Z</time>
      </trkpt>
      <trkpt lat="10.1585106737722" lon="-75.6812991220428">
        <ele>5.3851891</ele>
        <time>2019-09-10T15:06:08.700Z</time>
      </trkpt>
      <trkpt lat="10.1585107173192" lon="-75.6812991138333">
        <ele>5.3851891</ele>
        <time>2019-09-10T15:06:08.800Z</time>
      </trkpt>
      <trkpt lat="10.1585107679952" lon="-75.6812991113235">
        <ele>5.3851891</ele>
        <time>2019-09-10T15:06:08.900Z</time>
      </trkpt>
      <trkpt lat="10.1585108036919" lon="-75.6812991042454">
        <ele>5.3851891</ele>
        <time>2019-09-10T15:06:09.000Z</time>
      </trkpt>
      <trkpt lat="10.1585108320374" lon="-75.681299114992">
        <ele>5.3851891</ele>
        <time>2019-09-10T15:06:09.100Z</time>
      </trkpt>
    </trkseg>
  </trk>
</gpx>
